<?xml version="1.0" encoding="UTF-8" standalone="no" ?>
<gpx xmlns="http://www.topografix.com/GPX/1/1" xmlns:xsi="http://www.w3.org/2001/XMLSchema-instance" xsi:schemaLocation="http://www.topografix.com/GPX/1/1 http://www.topografix.com/GPX/1/1/gpx.xsd" version="1.1" creator="VisuGPX - https://www.visugpx.com">
  <metadata>
    <name>Notre Dame de Commiers à Giéres</name>
    <desc><![CDATA[En terme d'organisation, une partie du groupe a fait le 1er sommet et retour au départ en boucle pendant que le trio Marine Chx, Franck Colonel et Willow retournaient à Gières à pied. Rien de technique sur ce parcours. On pourra trouver quelques teufeurs perdus en forêt selon la saison.]]></desc>
  </metadata>
  <trk>
    <name><![CDATA[ND de Commiers- Gières 50kil]]></name>
    <trkseg>
      <trkpt lat="45.0095" lon="5.70023">
        <ele>511</ele>
        <time>2021-05-29T05:46:37Z</time>
      </trkpt>
      <trkpt lat="45.0095" lon="5.70023">
        <ele>511</ele>
        <time>2021-05-29T05:46:38Z</time>
      </trkpt>
      <trkpt lat="45.0095" lon="5.70023">
        <ele>511</ele>
        <time>2021-05-29T05:46:39Z</time>
      </trkpt>
      <trkpt lat="45.00947" lon="5.70025">
        <ele>511</ele>
        <time>2021-05-29T05:46:40Z</time>
      </trkpt>
      <trkpt lat="45.00947" lon="5.70025">
        <ele>511</ele>
        <time>2021-05-29T05:46:41Z</time>
      </trkpt>
      <trkpt lat="45.00945" lon="5.70028">
        <ele>511</ele>
        <time>2021-05-29T05:46:42Z</time>
      </trkpt>
      <trkpt lat="45.00945" lon="5.70028">
        <ele>511</ele>
        <time>2021-05-29T05:46:43Z</time>
      </trkpt>
      <trkpt lat="45.00943" lon="5.70029">
        <ele>511</ele>
        <time>2021-05-29T05:46:44Z</time>
      </trkpt>
      <trkpt lat="45.00941" lon="5.7003">
        <ele>511</ele>
        <time>2021-05-29T05:46:45Z</time>
      </trkpt>
      <trkpt lat="45.00941" lon="5.7003">
        <ele>511</ele>
        <time>2021-05-29T05:46:46Z</time>
      </trkpt>
      <trkpt lat="45.00938" lon="5.70031">
        <ele>511.2</ele>
        <time>2021-05-29T05:46:47Z</time>
      </trkpt>
      <trkpt lat="45.00938" lon="5.70031">
        <ele>511.4</ele>
        <time>2021-05-29T05:46:48Z</time>
      </trkpt>
      <trkpt lat="45.00935" lon="5.70032">
        <ele>511.6</ele>
        <time>2021-05-29T05:46:49Z</time>
      </trkpt>
      <trkpt lat="45.00935" lon="5.70032">
        <ele>511.8</ele>
        <time>2021-05-29T05:46:50Z</time>
      </trkpt>
      <trkpt lat="45.00933" lon="5.70032">
        <ele>511.8</ele>
        <time>2021-05-29T05:46:51Z</time>
      </trkpt>
      <trkpt lat="45.00933" lon="5.70032">
        <ele>512</ele>
        <time>2021-05-29T05:46:52Z</time>
      </trkpt>
      <trkpt lat="45.0093" lon="5.70033">
        <ele>512.2</ele>
        <time>2021-05-29T05:46:53Z</time>
      </trkpt>
      <trkpt lat="45.0093" lon="5.70033">
        <ele>512.2</ele>
        <time>2021-05-29T05:46:54Z</time>
      </trkpt>
      <trkpt lat="45.00927" lon="5.70033">
        <ele>512.4</ele>
        <time>2021-05-29T05:46:55Z</time>
      </trkpt>
      <trkpt lat="45.00927" lon="5.70033">
        <ele>512.6</ele>
        <time>2021-05-29T05:46:56Z</time>
      </trkpt>
      <trkpt lat="45.00924" lon="5.70034">
        <ele>512.8</ele>
        <time>2021-05-29T05:46:57Z</time>
      </trkpt>
      <trkpt lat="45.00924" lon="5.70034">
        <ele>512.8</ele>
        <time>2021-05-29T05:46:58Z</time>
      </trkpt>
      <trkpt lat="45.00921" lon="5.70034">
        <ele>512.8</ele>
        <time>2021-05-29T05:46:59Z</time>
      </trkpt>
      <trkpt lat="45.00921" lon="5.70034">
        <ele>512.8</ele>
        <time>2021-05-29T05:47:00Z</time>
      </trkpt>
      <trkpt lat="45.00918" lon="5.70035">
        <ele>513</ele>
        <time>2021-05-29T05:47:01Z</time>
      </trkpt>
      <trkpt lat="45.00918" lon="5.70035">
        <ele>512.8</ele>
        <time>2021-05-29T05:47:02Z</time>
      </trkpt>
      <trkpt lat="45.00916" lon="5.70036">
        <ele>513</ele>
        <time>2021-05-29T05:47:03Z</time>
      </trkpt>
      <trkpt lat="45.00916" lon="5.70036">
        <ele>513.4</ele>
        <time>2021-05-29T05:47:04Z</time>
      </trkpt>
      <trkpt lat="45.00913" lon="5.70036">
        <ele>513.4</ele>
        <time>2021-05-29T05:47:05Z</time>
      </trkpt>
      <trkpt lat="45.00913" lon="5.70036">
        <ele>513.4</ele>
        <time>2021-05-29T05:47:06Z</time>
      </trkpt>
      <trkpt lat="45.0091" lon="5.70036">
        <ele>513.4</ele>
        <time>2021-05-29T05:47:07Z</time>
      </trkpt>
      <trkpt lat="45.0091" lon="5.70036">
        <ele>513.6</ele>
        <time>2021-05-29T05:47:08Z</time>
      </trkpt>
      <trkpt lat="45.00907" lon="5.70036">
        <ele>513.8</ele>
        <time>2021-05-29T05:47:09Z</time>
      </trkpt>
      <trkpt lat="45.00907" lon="5.70036">
        <ele>513.8</ele>
        <time>2021-05-29T05:47:10Z</time>
      </trkpt>
      <trkpt lat="45.00905" lon="5.70035">
        <ele>513.8</ele>
        <time>2021-05-29T05:47:11Z</time>
      </trkpt>
      <trkpt lat="45.00905" lon="5.70035">
        <ele>513.8</ele>
        <time>2021-05-29T05:47:12Z</time>
      </trkpt>
      <trkpt lat="45.00902" lon="5.70034">
        <ele>513.8</ele>
        <time>2021-05-29T05:47:13Z</time>
      </trkpt>
      <trkpt lat="45.00902" lon="5.70034">
        <ele>513.8</ele>
        <time>2021-05-29T05:47:14Z</time>
      </trkpt>
      <trkpt lat="45.00899" lon="5.70034">
        <ele>513.8</ele>
        <time>2021-05-29T05:47:15Z</time>
      </trkpt>
      <trkpt lat="45.00899" lon="5.70034">
        <ele>514</ele>
        <time>2021-05-29T05:47:16Z</time>
      </trkpt>
      <trkpt lat="45.00897" lon="5.70035">
        <ele>514</ele>
        <time>2021-05-29T05:47:17Z</time>
      </trkpt>
      <trkpt lat="45.00897" lon="5.70035">
        <ele>513.8</ele>
        <time>2021-05-29T05:47:18Z</time>
      </trkpt>
      <trkpt lat="45.00894" lon="5.70035">
        <ele>514</ele>
        <time>2021-05-29T05:47:19Z</time>
      </trkpt>
      <trkpt lat="45.00894" lon="5.70035">
        <ele>514.4</ele>
        <time>2021-05-29T05:47:20Z</time>
      </trkpt>
      <trkpt lat="45.00892" lon="5.70036">
        <ele>514.4</ele>
        <time>2021-05-29T05:47:21Z</time>
      </trkpt>
      <trkpt lat="45.00892" lon="5.70036">
        <ele>514.6</ele>
        <time>2021-05-29T05:47:22Z</time>
      </trkpt>
      <trkpt lat="45.00889" lon="5.70038">
        <ele>514.8</ele>
        <time>2021-05-29T05:47:23Z</time>
      </trkpt>
      <trkpt lat="45.00889" lon="5.70038">
        <ele>515</ele>
        <time>2021-05-29T05:47:24Z</time>
      </trkpt>
      <trkpt lat="45.00887" lon="5.70038">
        <ele>515</ele>
        <time>2021-05-29T05:47:25Z</time>
      </trkpt>
      <trkpt lat="45.00885" lon="5.70037">
        <ele>515</ele>
        <time>2021-05-29T05:47:26Z</time>
      </trkpt>
      <trkpt lat="45.00883" lon="5.70037">
        <ele>515</ele>
        <time>2021-05-29T05:47:27Z</time>
      </trkpt>
      <trkpt lat="45.00883" lon="5.70037">
        <ele>514.8</ele>
        <time>2021-05-29T05:47:28Z</time>
      </trkpt>
      <trkpt lat="45.0088" lon="5.70037">
        <ele>514.8</ele>
        <time>2021-05-29T05:47:29Z</time>
      </trkpt>
      <trkpt lat="45.00878" lon="5.70037">
        <ele>515.2</ele>
        <time>2021-05-29T05:47:30Z</time>
      </trkpt>
      <trkpt lat="45.00875" lon="5.70038">
        <ele>515.2</ele>
        <time>2021-05-29T05:47:31Z</time>
      </trkpt>
      <trkpt lat="45.00873" lon="5.70038">
        <ele>515</ele>
        <time>2021-05-29T05:47:32Z</time>
      </trkpt>
      <trkpt lat="45.0087" lon="5.70039">
        <ele>515.4</ele>
        <time>2021-05-29T05:47:33Z</time>
      </trkpt>
      <trkpt lat="45.00868" lon="5.70039">
        <ele>515.4</ele>
        <time>2021-05-29T05:47:34Z</time>
      </trkpt>
      <trkpt lat="45.00866" lon="5.7004">
        <ele>515.6</ele>
        <time>2021-05-29T05:47:35Z</time>
      </trkpt>
      <trkpt lat="45.00864" lon="5.70041">
        <ele>515.6</ele>
        <time>2021-05-29T05:47:36Z</time>
      </trkpt>
      <trkpt lat="45.00862" lon="5.70042">
        <ele>516</ele>
        <time>2021-05-29T05:47:37Z</time>
      </trkpt>
      <trkpt lat="45.0086" lon="5.70042">
        <ele>516</ele>
        <time>2021-05-29T05:47:38Z</time>
      </trkpt>
      <trkpt lat="45.00858" lon="5.70042">
        <ele>516.4</ele>
        <time>2021-05-29T05:47:39Z</time>
      </trkpt>
      <trkpt lat="45.00856" lon="5.70042">
        <ele>516.6</ele>
        <time>2021-05-29T05:47:40Z</time>
      </trkpt>
      <trkpt lat="45.00855" lon="5.70042">
        <ele>517</ele>
        <time>2021-05-29T05:47:41Z</time>
      </trkpt>
      <trkpt lat="45.00852" lon="5.70042">
        <ele>516.8</ele>
        <time>2021-05-29T05:47:42Z</time>
      </trkpt>
      <trkpt lat="45.00852" lon="5.70042">
        <ele>517</ele>
        <time>2021-05-29T05:47:43Z</time>
      </trkpt>
      <trkpt lat="45.0085" lon="5.70043">
        <ele>516.6</ele>
        <time>2021-05-29T05:47:44Z</time>
      </trkpt>
      <trkpt lat="45.00847" lon="5.70043">
        <ele>516.8</ele>
        <time>2021-05-29T05:47:45Z</time>
      </trkpt>
      <trkpt lat="45.00845" lon="5.70043">
        <ele>516.6</ele>
        <time>2021-05-29T05:47:46Z</time>
      </trkpt>
      <trkpt lat="45.00842" lon="5.70044">
        <ele>516.8</ele>
        <time>2021-05-29T05:47:47Z</time>
      </trkpt>
      <trkpt lat="45.00839" lon="5.70044">
        <ele>517</ele>
        <time>2021-05-29T05:47:48Z</time>
      </trkpt>
      <trkpt lat="45.00836" lon="5.70045">
        <ele>517.2</ele>
        <time>2021-05-29T05:47:49Z</time>
      </trkpt>
      <trkpt lat="45.00833" lon="5.70045">
        <ele>517.4</ele>
        <time>2021-05-29T05:47:50Z</time>
      </trkpt>
      <trkpt lat="45.0083" lon="5.70046">
        <ele>517.4</ele>
        <time>2021-05-29T05:47:51Z</time>
      </trkpt>
      <trkpt lat="45.00828" lon="5.70046">
        <ele>517.6</ele>
        <time>2021-05-29T05:47:52Z</time>
      </trkpt>
      <trkpt lat="45.00825" lon="5.70046">
        <ele>517.8</ele>
        <time>2021-05-29T05:47:53Z</time>
      </trkpt>
      <trkpt lat="45.00823" lon="5.70046">
        <ele>517.8</ele>
        <time>2021-05-29T05:47:54Z</time>
      </trkpt>
      <trkpt lat="45.00821" lon="5.70046">
        <ele>518</ele>
        <time>2021-05-29T05:47:55Z</time>
      </trkpt>
      <trkpt lat="45.00819" lon="5.70046">
        <ele>518.2</ele>
        <time>2021-05-29T05:47:56Z</time>
      </trkpt>
      <trkpt lat="45.00817" lon="5.70046">
        <ele>518</ele>
        <time>2021-05-29T05:47:57Z</time>
      </trkpt>
      <trkpt lat="45.00815" lon="5.70046">
        <ele>518</ele>
        <time>2021-05-29T05:47:58Z</time>
      </trkpt>
      <trkpt lat="45.00812" lon="5.70046">
        <ele>518.2</ele>
        <time>2021-05-29T05:47:59Z</time>
      </trkpt>
      <trkpt lat="45.0081" lon="5.70046">
        <ele>518.2</ele>
        <time>2021-05-29T05:48:00Z</time>
      </trkpt>
      <trkpt lat="45.00808" lon="5.70046">
        <ele>518.2</ele>
        <time>2021-05-29T05:48:01Z</time>
      </trkpt>
      <trkpt lat="45.00806" lon="5.70046">
        <ele>518.2</ele>
        <time>2021-05-29T05:48:02Z</time>
      </trkpt>
      <trkpt lat="45.00804" lon="5.70046">
        <ele>518.6</ele>
        <time>2021-05-29T05:48:03Z</time>
      </trkpt>
      <trkpt lat="45.00804" lon="5.70046">
        <ele>518.6</ele>
        <time>2021-05-29T05:48:04Z</time>
      </trkpt>
      <trkpt lat="45.00801" lon="5.70046">
        <ele>519.2</ele>
        <time>2021-05-29T05:48:05Z</time>
      </trkpt>
      <trkpt lat="45.00798" lon="5.70046">
        <ele>519.2</ele>
        <time>2021-05-29T05:48:06Z</time>
      </trkpt>
      <trkpt lat="45.00795" lon="5.70046">
        <ele>519.6</ele>
        <time>2021-05-29T05:48:07Z</time>
      </trkpt>
      <trkpt lat="45.00795" lon="5.70046">
        <ele>520</ele>
        <time>2021-05-29T05:48:08Z</time>
      </trkpt>
      <trkpt lat="45.00792" lon="5.70046">
        <ele>520.4</ele>
        <time>2021-05-29T05:48:09Z</time>
      </trkpt>
      <trkpt lat="45.00789" lon="5.70046">
        <ele>520.6</ele>
        <time>2021-05-29T05:48:10Z</time>
      </trkpt>
      <trkpt lat="45.00789" lon="5.70046">
        <ele>521.2</ele>
        <time>2021-05-29T05:48:11Z</time>
      </trkpt>
      <trkpt lat="45.00787" lon="5.70046">
        <ele>521.2</ele>
        <time>2021-05-29T05:48:12Z</time>
      </trkpt>
      <trkpt lat="45.00787" lon="5.70046">
        <ele>521.6</ele>
        <time>2021-05-29T05:48:13Z</time>
      </trkpt>
      <trkpt lat="45.00783" lon="5.70047">
        <ele>521.6</ele>
        <time>2021-05-29T05:48:14Z</time>
      </trkpt>
      <trkpt lat="45.00783" lon="5.70047">
        <ele>521.8</ele>
        <time>2021-05-29T05:48:15Z</time>
      </trkpt>
      <trkpt lat="45.0078" lon="5.70049">
        <ele>521.8</ele>
        <time>2021-05-29T05:48:16Z</time>
      </trkpt>
      <trkpt lat="45.00778" lon="5.70049">
        <ele>521.8</ele>
        <time>2021-05-29T05:48:17Z</time>
      </trkpt>
      <trkpt lat="45.00776" lon="5.7005">
        <ele>521.8</ele>
        <time>2021-05-29T05:48:18Z</time>
      </trkpt>
      <trkpt lat="45.00774" lon="5.7005">
        <ele>521.8</ele>
        <time>2021-05-29T05:48:19Z</time>
      </trkpt>
      <trkpt lat="45.00772" lon="5.7005">
        <ele>522</ele>
        <time>2021-05-29T05:48:20Z</time>
      </trkpt>
      <trkpt lat="45.0077" lon="5.7005">
        <ele>522</ele>
        <time>2021-05-29T05:48:21Z</time>
      </trkpt>
      <trkpt lat="45.00768" lon="5.7005">
        <ele>522</ele>
        <time>2021-05-29T05:48:22Z</time>
      </trkpt>
      <trkpt lat="45.00768" lon="5.7005">
        <ele>522.2</ele>
        <time>2021-05-29T05:48:23Z</time>
      </trkpt>
      <trkpt lat="45.00766" lon="5.7005">
        <ele>522.2</ele>
        <time>2021-05-29T05:48:24Z</time>
      </trkpt>
      <trkpt lat="45.00763" lon="5.70051">
        <ele>522.4</ele>
        <time>2021-05-29T05:48:25Z</time>
      </trkpt>
      <trkpt lat="45.0076" lon="5.70051">
        <ele>522.6</ele>
        <time>2021-05-29T05:48:26Z</time>
      </trkpt>
      <trkpt lat="45.0076" lon="5.70051">
        <ele>522.6</ele>
        <time>2021-05-29T05:48:27Z</time>
      </trkpt>
      <trkpt lat="45.00757" lon="5.70051">
        <ele>522.8</ele>
        <time>2021-05-29T05:48:28Z</time>
      </trkpt>
      <trkpt lat="45.00754" lon="5.70052">
        <ele>522.6</ele>
        <time>2021-05-29T05:48:29Z</time>
      </trkpt>
      <trkpt lat="45.00751" lon="5.70053">
        <ele>523</ele>
        <time>2021-05-29T05:48:30Z</time>
      </trkpt>
      <trkpt lat="45.00749" lon="5.70053">
        <ele>522.8</ele>
        <time>2021-05-29T05:48:31Z</time>
      </trkpt>
      <trkpt lat="45.00746" lon="5.70054">
        <ele>523.4</ele>
        <time>2021-05-29T05:48:32Z</time>
      </trkpt>
      <trkpt lat="45.00744" lon="5.70054">
        <ele>523.6</ele>
        <time>2021-05-29T05:48:33Z</time>
      </trkpt>
      <trkpt lat="45.00743" lon="5.70055">
        <ele>524.2</ele>
        <time>2021-05-29T05:48:34Z</time>
      </trkpt>
      <trkpt lat="45.00743" lon="5.70055">
        <ele>524.4</ele>
        <time>2021-05-29T05:48:35Z</time>
      </trkpt>
      <trkpt lat="45.0074" lon="5.70055">
        <ele>524.8</ele>
        <time>2021-05-29T05:48:36Z</time>
      </trkpt>
      <trkpt lat="45.00738" lon="5.70056">
        <ele>525</ele>
        <time>2021-05-29T05:48:37Z</time>
      </trkpt>
      <trkpt lat="45.00736" lon="5.70056">
        <ele>525.4</ele>
        <time>2021-05-29T05:48:38Z</time>
      </trkpt>
      <trkpt lat="45.00734" lon="5.70057">
        <ele>525.6</ele>
        <time>2021-05-29T05:48:39Z</time>
      </trkpt>
      <trkpt lat="45.00732" lon="5.70057">
        <ele>525.8</ele>
        <time>2021-05-29T05:48:40Z</time>
      </trkpt>
      <trkpt lat="45.0073" lon="5.70057">
        <ele>525.8</ele>
        <time>2021-05-29T05:48:41Z</time>
      </trkpt>
      <trkpt lat="45.00728" lon="5.70058">
        <ele>525.8</ele>
        <time>2021-05-29T05:48:42Z</time>
      </trkpt>
      <trkpt lat="45.00726" lon="5.70058">
        <ele>526</ele>
        <time>2021-05-29T05:48:43Z</time>
      </trkpt>
      <trkpt lat="45.00725" lon="5.70059">
        <ele>526</ele>
        <time>2021-05-29T05:48:44Z</time>
      </trkpt>
      <trkpt lat="45.00722" lon="5.70059">
        <ele>525.8</ele>
        <time>2021-05-29T05:48:45Z</time>
      </trkpt>
      <trkpt lat="45.0072" lon="5.7006">
        <ele>526</ele>
        <time>2021-05-29T05:48:46Z</time>
      </trkpt>
      <trkpt lat="45.00718" lon="5.70061">
        <ele>526.2</ele>
        <time>2021-05-29T05:48:47Z</time>
      </trkpt>
      <trkpt lat="45.00717" lon="5.70061">
        <ele>526.2</ele>
        <time>2021-05-29T05:48:48Z</time>
      </trkpt>
      <trkpt lat="45.00715" lon="5.70062">
        <ele>526</ele>
        <time>2021-05-29T05:48:49Z</time>
      </trkpt>
      <trkpt lat="45.00714" lon="5.70062">
        <ele>526.4</ele>
        <time>2021-05-29T05:48:50Z</time>
      </trkpt>
      <trkpt lat="45.00712" lon="5.70063">
        <ele>526.4</ele>
        <time>2021-05-29T05:48:51Z</time>
      </trkpt>
      <trkpt lat="45.0071" lon="5.70064">
        <ele>526.6</ele>
        <time>2021-05-29T05:48:52Z</time>
      </trkpt>
      <trkpt lat="45.00708" lon="5.70065">
        <ele>526.8</ele>
        <time>2021-05-29T05:48:53Z</time>
      </trkpt>
      <trkpt lat="45.00707" lon="5.70065">
        <ele>527</ele>
        <time>2021-05-29T05:48:54Z</time>
      </trkpt>
      <trkpt lat="45.00705" lon="5.70066">
        <ele>526.8</ele>
        <time>2021-05-29T05:48:55Z</time>
      </trkpt>
      <trkpt lat="45.00703" lon="5.70067">
        <ele>526.8</ele>
        <time>2021-05-29T05:48:56Z</time>
      </trkpt>
      <trkpt lat="45.00701" lon="5.70068">
        <ele>527.2</ele>
        <time>2021-05-29T05:48:57Z</time>
      </trkpt>
      <trkpt lat="45.00699" lon="5.70069">
        <ele>527</ele>
        <time>2021-05-29T05:48:58Z</time>
      </trkpt>
      <trkpt lat="45.00696" lon="5.7007">
        <ele>527.2</ele>
        <time>2021-05-29T05:48:59Z</time>
      </trkpt>
      <trkpt lat="45.00692" lon="5.70073">
        <ele>527.2</ele>
        <time>2021-05-29T05:49:00Z</time>
      </trkpt>
      <trkpt lat="45.00692" lon="5.70073">
        <ele>527.6</ele>
        <time>2021-05-29T05:49:01Z</time>
      </trkpt>
      <trkpt lat="45.00689" lon="5.70074">
        <ele>527.6</ele>
        <time>2021-05-29T05:49:02Z</time>
      </trkpt>
      <trkpt lat="45.00687" lon="5.70075">
        <ele>528.2</ele>
        <time>2021-05-29T05:49:03Z</time>
      </trkpt>
      <trkpt lat="45.00684" lon="5.70076">
        <ele>528.2</ele>
        <time>2021-05-29T05:49:04Z</time>
      </trkpt>
      <trkpt lat="45.00682" lon="5.70077">
        <ele>528.6</ele>
        <time>2021-05-29T05:49:05Z</time>
      </trkpt>
      <trkpt lat="45.0068" lon="5.70078">
        <ele>528.8</ele>
        <time>2021-05-29T05:49:06Z</time>
      </trkpt>
      <trkpt lat="45.00677" lon="5.70078">
        <ele>529.2</ele>
        <time>2021-05-29T05:49:07Z</time>
      </trkpt>
      <trkpt lat="45.00675" lon="5.70079">
        <ele>529.4</ele>
        <time>2021-05-29T05:49:08Z</time>
      </trkpt>
      <trkpt lat="45.00673" lon="5.70079">
        <ele>529.8</ele>
        <time>2021-05-29T05:49:09Z</time>
      </trkpt>
      <trkpt lat="45.00671" lon="5.7008">
        <ele>529.8</ele>
        <time>2021-05-29T05:49:10Z</time>
      </trkpt>
      <trkpt lat="45.00669" lon="5.7008">
        <ele>530.2</ele>
        <time>2021-05-29T05:49:11Z</time>
      </trkpt>
      <trkpt lat="45.00667" lon="5.70081">
        <ele>530.2</ele>
        <time>2021-05-29T05:49:12Z</time>
      </trkpt>
      <trkpt lat="45.00665" lon="5.70082">
        <ele>530.6</ele>
        <time>2021-05-29T05:49:13Z</time>
      </trkpt>
      <trkpt lat="45.00665" lon="5.70082">
        <ele>530.4</ele>
        <time>2021-05-29T05:49:14Z</time>
      </trkpt>
      <trkpt lat="45.00662" lon="5.70082">
        <ele>530.8</ele>
        <time>2021-05-29T05:49:15Z</time>
      </trkpt>
      <trkpt lat="45.0066" lon="5.70082">
        <ele>530.6</ele>
        <time>2021-05-29T05:49:16Z</time>
      </trkpt>
      <trkpt lat="45.00658" lon="5.70083">
        <ele>531</ele>
        <time>2021-05-29T05:49:17Z</time>
      </trkpt>
      <trkpt lat="45.00656" lon="5.70084">
        <ele>530.8</ele>
        <time>2021-05-29T05:49:18Z</time>
      </trkpt>
      <trkpt lat="45.00653" lon="5.70085">
        <ele>531.4</ele>
        <time>2021-05-29T05:49:19Z</time>
      </trkpt>
      <trkpt lat="45.00653" lon="5.70085">
        <ele>531.2</ele>
        <time>2021-05-29T05:49:20Z</time>
      </trkpt>
      <trkpt lat="45.00651" lon="5.70087">
        <ele>531.4</ele>
        <time>2021-05-29T05:49:21Z</time>
      </trkpt>
      <trkpt lat="45.00651" lon="5.70087">
        <ele>531.4</ele>
        <time>2021-05-29T05:49:22Z</time>
      </trkpt>
      <trkpt lat="45.00648" lon="5.70088">
        <ele>531.4</ele>
        <time>2021-05-29T05:49:23Z</time>
      </trkpt>
      <trkpt lat="45.00648" lon="5.70088">
        <ele>531.4</ele>
        <time>2021-05-29T05:49:24Z</time>
      </trkpt>
      <trkpt lat="45.00646" lon="5.7009">
        <ele>531.4</ele>
        <time>2021-05-29T05:49:25Z</time>
      </trkpt>
      <trkpt lat="45.00646" lon="5.7009">
        <ele>531.4</ele>
        <time>2021-05-29T05:49:26Z</time>
      </trkpt>
      <trkpt lat="45.00645" lon="5.70093">
        <ele>531.8</ele>
        <time>2021-05-29T05:49:27Z</time>
      </trkpt>
      <trkpt lat="45.00645" lon="5.70093">
        <ele>532</ele>
        <time>2021-05-29T05:49:28Z</time>
      </trkpt>
      <trkpt lat="45.00645" lon="5.70093">
        <ele>532.2</ele>
        <time>2021-05-29T05:49:29Z</time>
      </trkpt>
      <trkpt lat="45.00643" lon="5.70094">
        <ele>532.4</ele>
        <time>2021-05-29T05:49:30Z</time>
      </trkpt>
      <trkpt lat="45.00643" lon="5.70094">
        <ele>532.6</ele>
        <time>2021-05-29T05:49:31Z</time>
      </trkpt>
      <trkpt lat="45.0064" lon="5.70093">
        <ele>533.6</ele>
        <time>2021-05-29T05:49:32Z</time>
      </trkpt>
      <trkpt lat="45.0064" lon="5.70093">
        <ele>534</ele>
        <time>2021-05-29T05:49:33Z</time>
      </trkpt>
      <trkpt lat="45.00638" lon="5.70093">
        <ele>534.4</ele>
        <time>2021-05-29T05:49:34Z</time>
      </trkpt>
      <trkpt lat="45.00638" lon="5.70093">
        <ele>534.4</ele>
        <time>2021-05-29T05:49:35Z</time>
      </trkpt>
      <trkpt lat="45.00635" lon="5.70094">
        <ele>534.6</ele>
        <time>2021-05-29T05:49:36Z</time>
      </trkpt>
      <trkpt lat="45.00635" lon="5.70094">
        <ele>534.8</ele>
        <time>2021-05-29T05:49:37Z</time>
      </trkpt>
      <trkpt lat="45.00633" lon="5.70094">
        <ele>534.8</ele>
        <time>2021-05-29T05:49:38Z</time>
      </trkpt>
      <trkpt lat="45.00633" lon="5.70094">
        <ele>535</ele>
        <time>2021-05-29T05:49:39Z</time>
      </trkpt>
      <trkpt lat="45.00632" lon="5.70095">
        <ele>535.2</ele>
        <time>2021-05-29T05:49:40Z</time>
      </trkpt>
      <trkpt lat="45.00632" lon="5.70095">
        <ele>535.4</ele>
        <time>2021-05-29T05:49:41Z</time>
      </trkpt>
      <trkpt lat="45.00629" lon="5.70096">
        <ele>535.6</ele>
        <time>2021-05-29T05:49:42Z</time>
      </trkpt>
      <trkpt lat="45.00629" lon="5.70096">
        <ele>535.8</ele>
        <time>2021-05-29T05:49:43Z</time>
      </trkpt>
      <trkpt lat="45.00628" lon="5.70097">
        <ele>536</ele>
        <time>2021-05-29T05:49:44Z</time>
      </trkpt>
      <trkpt lat="45.00628" lon="5.70097">
        <ele>536.4</ele>
        <time>2021-05-29T05:49:45Z</time>
      </trkpt>
      <trkpt lat="45.00628" lon="5.70097">
        <ele>536.6</ele>
        <time>2021-05-29T05:49:46Z</time>
      </trkpt>
      <trkpt lat="45.00625" lon="5.70099">
        <ele>536.8</ele>
        <time>2021-05-29T05:49:47Z</time>
      </trkpt>
      <trkpt lat="45.00625" lon="5.70099">
        <ele>537.2</ele>
        <time>2021-05-29T05:49:48Z</time>
      </trkpt>
      <trkpt lat="45.00623" lon="5.70099">
        <ele>537.4</ele>
        <time>2021-05-29T05:49:49Z</time>
      </trkpt>
      <trkpt lat="45.00623" lon="5.70099">
        <ele>537.8</ele>
        <time>2021-05-29T05:49:50Z</time>
      </trkpt>
      <trkpt lat="45.00621" lon="5.70099">
        <ele>538</ele>
        <time>2021-05-29T05:49:51Z</time>
      </trkpt>
      <trkpt lat="45.00621" lon="5.70099">
        <ele>538.4</ele>
        <time>2021-05-29T05:49:52Z</time>
      </trkpt>
      <trkpt lat="45.00619" lon="5.70098">
        <ele>538.6</ele>
        <time>2021-05-29T05:49:53Z</time>
      </trkpt>
      <trkpt lat="45.00619" lon="5.70098">
        <ele>539</ele>
        <time>2021-05-29T05:49:54Z</time>
      </trkpt>
      <trkpt lat="45.00619" lon="5.70098">
        <ele>539</ele>
        <time>2021-05-29T05:49:55Z</time>
      </trkpt>
      <trkpt lat="45.00616" lon="5.701">
        <ele>539.2</ele>
        <time>2021-05-29T05:49:56Z</time>
      </trkpt>
      <trkpt lat="45.00616" lon="5.701">
        <ele>539.2</ele>
        <time>2021-05-29T05:49:57Z</time>
      </trkpt>
      <trkpt lat="45.00616" lon="5.701">
        <ele>539.6</ele>
        <time>2021-05-29T05:49:58Z</time>
      </trkpt>
      <trkpt lat="45.00614" lon="5.701">
        <ele>539.6</ele>
        <time>2021-05-29T05:49:59Z</time>
      </trkpt>
      <trkpt lat="45.00614" lon="5.701">
        <ele>540.4</ele>
        <time>2021-05-29T05:50:00Z</time>
      </trkpt>
      <trkpt lat="45.00612" lon="5.70101">
        <ele>540.6</ele>
        <time>2021-05-29T05:50:01Z</time>
      </trkpt>
      <trkpt lat="45.00612" lon="5.70101">
        <ele>540.8</ele>
        <time>2021-05-29T05:50:02Z</time>
      </trkpt>
      <trkpt lat="45.00611" lon="5.70101">
        <ele>540.8</ele>
        <time>2021-05-29T05:50:03Z</time>
      </trkpt>
      <trkpt lat="45.0061" lon="5.70101">
        <ele>541.4</ele>
        <time>2021-05-29T05:50:04Z</time>
      </trkpt>
      <trkpt lat="45.00609" lon="5.70101">
        <ele>541.6</ele>
        <time>2021-05-29T05:50:05Z</time>
      </trkpt>
      <trkpt lat="45.00608" lon="5.70101">
        <ele>542</ele>
        <time>2021-05-29T05:50:06Z</time>
      </trkpt>
      <trkpt lat="45.00607" lon="5.70102">
        <ele>542.4</ele>
        <time>2021-05-29T05:50:07Z</time>
      </trkpt>
      <trkpt lat="45.00606" lon="5.70102">
        <ele>542.6</ele>
        <time>2021-05-29T05:50:08Z</time>
      </trkpt>
      <trkpt lat="45.00605" lon="5.70102">
        <ele>543</ele>
        <time>2021-05-29T05:50:09Z</time>
      </trkpt>
      <trkpt lat="45.00604" lon="5.70102">
        <ele>543.4</ele>
        <time>2021-05-29T05:50:10Z</time>
      </trkpt>
      <trkpt lat="45.00603" lon="5.70102">
        <ele>543.4</ele>
        <time>2021-05-29T05:50:11Z</time>
      </trkpt>
      <trkpt lat="45.00602" lon="5.70103">
        <ele>543.8</ele>
        <time>2021-05-29T05:50:12Z</time>
      </trkpt>
      <trkpt lat="45.00602" lon="5.70103">
        <ele>544</ele>
        <time>2021-05-29T05:50:13Z</time>
      </trkpt>
      <trkpt lat="45.00602" lon="5.70103">
        <ele>544.4</ele>
        <time>2021-05-29T05:50:14Z</time>
      </trkpt>
      <trkpt lat="45.006" lon="5.70104">
        <ele>544.6</ele>
        <time>2021-05-29T05:50:15Z</time>
      </trkpt>
      <trkpt lat="45.006" lon="5.70104">
        <ele>544.8</ele>
        <time>2021-05-29T05:50:16Z</time>
      </trkpt>
      <trkpt lat="45.00598" lon="5.70106">
        <ele>544.8</ele>
        <time>2021-05-29T05:50:17Z</time>
      </trkpt>
      <trkpt lat="45.00598" lon="5.70106">
        <ele>545.2</ele>
        <time>2021-05-29T05:50:18Z</time>
      </trkpt>
      <trkpt lat="45.00597" lon="5.70108">
        <ele>545.4</ele>
        <time>2021-05-29T05:50:19Z</time>
      </trkpt>
      <trkpt lat="45.00597" lon="5.70108">
        <ele>545.8</ele>
        <time>2021-05-29T05:50:20Z</time>
      </trkpt>
      <trkpt lat="45.00595" lon="5.7011">
        <ele>545.8</ele>
        <time>2021-05-29T05:50:21Z</time>
      </trkpt>
      <trkpt lat="45.00595" lon="5.7011">
        <ele>546</ele>
        <time>2021-05-29T05:50:22Z</time>
      </trkpt>
      <trkpt lat="45.00594" lon="5.70112">
        <ele>546.2</ele>
        <time>2021-05-29T05:50:23Z</time>
      </trkpt>
      <trkpt lat="45.00594" lon="5.70112">
        <ele>546.4</ele>
        <time>2021-05-29T05:50:24Z</time>
      </trkpt>
      <trkpt lat="45.00594" lon="5.70112">
        <ele>546.8</ele>
        <time>2021-05-29T05:50:25Z</time>
      </trkpt>
      <trkpt lat="45.00592" lon="5.70114">
        <ele>547</ele>
        <time>2021-05-29T05:50:26Z</time>
      </trkpt>
      <trkpt lat="45.00592" lon="5.70114">
        <ele>547.4</ele>
        <time>2021-05-29T05:50:27Z</time>
      </trkpt>
      <trkpt lat="45.00592" lon="5.70114">
        <ele>547.4</ele>
        <time>2021-05-29T05:50:28Z</time>
      </trkpt>
      <trkpt lat="45.0059" lon="5.70117">
        <ele>547.8</ele>
        <time>2021-05-29T05:50:29Z</time>
      </trkpt>
      <trkpt lat="45.0059" lon="5.70117">
        <ele>548.2</ele>
        <time>2021-05-29T05:50:30Z</time>
      </trkpt>
      <trkpt lat="45.0059" lon="5.70117">
        <ele>548.6</ele>
        <time>2021-05-29T05:50:31Z</time>
      </trkpt>
      <trkpt lat="45.00588" lon="5.7012">
        <ele>549.2</ele>
        <time>2021-05-29T05:50:32Z</time>
      </trkpt>
      <trkpt lat="45.00588" lon="5.7012">
        <ele>549.8</ele>
        <time>2021-05-29T05:50:33Z</time>
      </trkpt>
      <trkpt lat="45.00588" lon="5.7012">
        <ele>549.8</ele>
        <time>2021-05-29T05:50:34Z</time>
      </trkpt>
      <trkpt lat="45.00587" lon="5.70122">
        <ele>550</ele>
        <time>2021-05-29T05:50:35Z</time>
      </trkpt>
      <trkpt lat="45.00587" lon="5.70122">
        <ele>550.4</ele>
        <time>2021-05-29T05:50:36Z</time>
      </trkpt>
      <trkpt lat="45.00587" lon="5.70122">
        <ele>550.6</ele>
        <time>2021-05-29T05:50:37Z</time>
      </trkpt>
      <trkpt lat="45.00586" lon="5.70125">
        <ele>550.8</ele>
        <time>2021-05-29T05:50:38Z</time>
      </trkpt>
      <trkpt lat="45.00586" lon="5.70125">
        <ele>550.8</ele>
        <time>2021-05-29T05:50:39Z</time>
      </trkpt>
      <trkpt lat="45.00586" lon="5.70125">
        <ele>551</ele>
        <time>2021-05-29T05:50:40Z</time>
      </trkpt>
      <trkpt lat="45.00584" lon="5.70127">
        <ele>551.4</ele>
        <time>2021-05-29T05:50:41Z</time>
      </trkpt>
      <trkpt lat="45.00584" lon="5.70127">
        <ele>551.6</ele>
        <time>2021-05-29T05:50:42Z</time>
      </trkpt>
      <trkpt lat="45.00584" lon="5.70127">
        <ele>552</ele>
        <time>2021-05-29T05:50:43Z</time>
      </trkpt>
      <trkpt lat="45.00583" lon="5.70129">
        <ele>552.4</ele>
        <time>2021-05-29T05:50:44Z</time>
      </trkpt>
      <trkpt lat="45.00583" lon="5.70129">
        <ele>552.6</ele>
        <time>2021-05-29T05:50:45Z</time>
      </trkpt>
      <trkpt lat="45.00583" lon="5.70129">
        <ele>552.8</ele>
        <time>2021-05-29T05:50:46Z</time>
      </trkpt>
      <trkpt lat="45.00583" lon="5.70129">
        <ele>553.2</ele>
        <time>2021-05-29T05:50:47Z</time>
      </trkpt>
      <trkpt lat="45.00581" lon="5.70132">
        <ele>553.4</ele>
        <time>2021-05-29T05:50:48Z</time>
      </trkpt>
      <trkpt lat="45.00581" lon="5.70132">
        <ele>553.6</ele>
        <time>2021-05-29T05:50:49Z</time>
      </trkpt>
      <trkpt lat="45.0058" lon="5.70135">
        <ele>554</ele>
        <time>2021-05-29T05:50:50Z</time>
      </trkpt>
      <trkpt lat="45.0058" lon="5.70135">
        <ele>554.4</ele>
        <time>2021-05-29T05:50:51Z</time>
      </trkpt>
      <trkpt lat="45.0058" lon="5.70135">
        <ele>554.4</ele>
        <time>2021-05-29T05:50:52Z</time>
      </trkpt>
      <trkpt lat="45.00579" lon="5.70138">
        <ele>554.6</ele>
        <time>2021-05-29T05:50:53Z</time>
      </trkpt>
      <trkpt lat="45.00579" lon="5.70138">
        <ele>554.8</ele>
        <time>2021-05-29T05:50:54Z</time>
      </trkpt>
      <trkpt lat="45.00578" lon="5.7014">
        <ele>555.2</ele>
        <time>2021-05-29T05:50:55Z</time>
      </trkpt>
      <trkpt lat="45.00578" lon="5.7014">
        <ele>555.4</ele>
        <time>2021-05-29T05:50:56Z</time>
      </trkpt>
      <trkpt lat="45.00578" lon="5.7014">
        <ele>555.8</ele>
        <time>2021-05-29T05:50:57Z</time>
      </trkpt>
      <trkpt lat="45.00577" lon="5.70143">
        <ele>556</ele>
        <time>2021-05-29T05:50:58Z</time>
      </trkpt>
      <trkpt lat="45.00577" lon="5.70143">
        <ele>556.2</ele>
        <time>2021-05-29T05:50:59Z</time>
      </trkpt>
      <trkpt lat="45.00577" lon="5.70143">
        <ele>556.4</ele>
        <time>2021-05-29T05:51:00Z</time>
      </trkpt>
      <trkpt lat="45.00576" lon="5.70145">
        <ele>556.6</ele>
        <time>2021-05-29T05:51:01Z</time>
      </trkpt>
      <trkpt lat="45.00576" lon="5.70145">
        <ele>556.6</ele>
        <time>2021-05-29T05:51:02Z</time>
      </trkpt>
      <trkpt lat="45.00576" lon="5.70145">
        <ele>557</ele>
        <time>2021-05-29T05:51:03Z</time>
      </trkpt>
      <trkpt lat="45.00575" lon="5.70148">
        <ele>557.4</ele>
        <time>2021-05-29T05:51:04Z</time>
      </trkpt>
      <trkpt lat="45.00575" lon="5.70148">
        <ele>557.8</ele>
        <time>2021-05-29T05:51:05Z</time>
      </trkpt>
      <trkpt lat="45.00575" lon="5.70149">
        <ele>558</ele>
        <time>2021-05-29T05:51:06Z</time>
      </trkpt>
      <trkpt lat="45.00574" lon="5.7015">
        <ele>558.6</ele>
        <time>2021-05-29T05:51:07Z</time>
      </trkpt>
      <trkpt lat="45.00574" lon="5.70151">
        <ele>559.2</ele>
        <time>2021-05-29T05:51:08Z</time>
      </trkpt>
      <trkpt lat="45.00573" lon="5.70152">
        <ele>559.4</ele>
        <time>2021-05-29T05:51:09Z</time>
      </trkpt>
      <trkpt lat="45.00573" lon="5.70153">
        <ele>559.6</ele>
        <time>2021-05-29T05:51:10Z</time>
      </trkpt>
      <trkpt lat="45.00573" lon="5.70153">
        <ele>559.6</ele>
        <time>2021-05-29T05:51:11Z</time>
      </trkpt>
      <trkpt lat="45.00573" lon="5.70153">
        <ele>559.8</ele>
        <time>2021-05-29T05:51:12Z</time>
      </trkpt>
      <trkpt lat="45.00571" lon="5.70156">
        <ele>560</ele>
        <time>2021-05-29T05:51:13Z</time>
      </trkpt>
      <trkpt lat="45.00571" lon="5.70156">
        <ele>560.2</ele>
        <time>2021-05-29T05:51:14Z</time>
      </trkpt>
      <trkpt lat="45.00571" lon="5.70156">
        <ele>560.2</ele>
        <time>2021-05-29T05:51:15Z</time>
      </trkpt>
      <trkpt lat="45.00571" lon="5.70159">
        <ele>560.6</ele>
        <time>2021-05-29T05:51:16Z</time>
      </trkpt>
      <trkpt lat="45.00571" lon="5.70159">
        <ele>560.8</ele>
        <time>2021-05-29T05:51:17Z</time>
      </trkpt>
      <trkpt lat="45.00571" lon="5.7016">
        <ele>561</ele>
        <time>2021-05-29T05:51:18Z</time>
      </trkpt>
      <trkpt lat="45.0057" lon="5.70161">
        <ele>561</ele>
        <time>2021-05-29T05:51:19Z</time>
      </trkpt>
      <trkpt lat="45.0057" lon="5.70162">
        <ele>561.2</ele>
        <time>2021-05-29T05:51:20Z</time>
      </trkpt>
      <trkpt lat="45.0057" lon="5.70163">
        <ele>561.4</ele>
        <time>2021-05-29T05:51:21Z</time>
      </trkpt>
      <trkpt lat="45.00569" lon="5.70164">
        <ele>561.8</ele>
        <time>2021-05-29T05:51:22Z</time>
      </trkpt>
      <trkpt lat="45.00569" lon="5.70165">
        <ele>562</ele>
        <time>2021-05-29T05:51:23Z</time>
      </trkpt>
      <trkpt lat="45.00569" lon="5.70165">
        <ele>562.2</ele>
        <time>2021-05-29T05:51:24Z</time>
      </trkpt>
      <trkpt lat="45.00568" lon="5.70166">
        <ele>562.4</ele>
        <time>2021-05-29T05:51:25Z</time>
      </trkpt>
      <trkpt lat="45.00568" lon="5.70167">
        <ele>562.8</ele>
        <time>2021-05-29T05:51:26Z</time>
      </trkpt>
      <trkpt lat="45.00568" lon="5.70168">
        <ele>563.2</ele>
        <time>2021-05-29T05:51:27Z</time>
      </trkpt>
      <trkpt lat="45.00567" lon="5.70169">
        <ele>563.4</ele>
        <time>2021-05-29T05:51:28Z</time>
      </trkpt>
      <trkpt lat="45.00567" lon="5.7017">
        <ele>563.6</ele>
        <time>2021-05-29T05:51:29Z</time>
      </trkpt>
      <trkpt lat="45.00567" lon="5.70171">
        <ele>563.8</ele>
        <time>2021-05-29T05:51:30Z</time>
      </trkpt>
      <trkpt lat="45.00566" lon="5.70172">
        <ele>563.8</ele>
        <time>2021-05-29T05:51:31Z</time>
      </trkpt>
      <trkpt lat="45.00566" lon="5.70173">
        <ele>564.2</ele>
        <time>2021-05-29T05:51:32Z</time>
      </trkpt>
      <trkpt lat="45.00566" lon="5.70175">
        <ele>564.4</ele>
        <time>2021-05-29T05:51:33Z</time>
      </trkpt>
      <trkpt lat="45.00566" lon="5.70176">
        <ele>564.6</ele>
        <time>2021-05-29T05:51:34Z</time>
      </trkpt>
      <trkpt lat="45.00566" lon="5.70177">
        <ele>564.8</ele>
        <time>2021-05-29T05:51:35Z</time>
      </trkpt>
      <trkpt lat="45.00566" lon="5.70178">
        <ele>565.2</ele>
        <time>2021-05-29T05:51:36Z</time>
      </trkpt>
      <trkpt lat="45.00565" lon="5.7018">
        <ele>565.6</ele>
        <time>2021-05-29T05:51:37Z</time>
      </trkpt>
      <trkpt lat="45.00565" lon="5.70181">
        <ele>565.6</ele>
        <time>2021-05-29T05:51:38Z</time>
      </trkpt>
      <trkpt lat="45.00565" lon="5.70182">
        <ele>566</ele>
        <time>2021-05-29T05:51:39Z</time>
      </trkpt>
      <trkpt lat="45.00565" lon="5.70183">
        <ele>566.2</ele>
        <time>2021-05-29T05:51:40Z</time>
      </trkpt>
      <trkpt lat="45.00565" lon="5.70184">
        <ele>566.4</ele>
        <time>2021-05-29T05:51:41Z</time>
      </trkpt>
      <trkpt lat="45.00564" lon="5.70185">
        <ele>566.8</ele>
        <time>2021-05-29T05:51:42Z</time>
      </trkpt>
      <trkpt lat="45.00564" lon="5.70186">
        <ele>567.2</ele>
        <time>2021-05-29T05:51:43Z</time>
      </trkpt>
      <trkpt lat="45.00564" lon="5.70187">
        <ele>567.4</ele>
        <time>2021-05-29T05:51:44Z</time>
      </trkpt>
      <trkpt lat="45.00563" lon="5.70188">
        <ele>567.4</ele>
        <time>2021-05-29T05:51:45Z</time>
      </trkpt>
      <trkpt lat="45.00563" lon="5.70188">
        <ele>567.6</ele>
        <time>2021-05-29T05:51:46Z</time>
      </trkpt>
      <trkpt lat="45.00563" lon="5.70189">
        <ele>567.8</ele>
        <time>2021-05-29T05:51:47Z</time>
      </trkpt>
      <trkpt lat="45.00562" lon="5.7019">
        <ele>568</ele>
        <time>2021-05-29T05:51:48Z</time>
      </trkpt>
      <trkpt lat="45.00562" lon="5.70191">
        <ele>568.4</ele>
        <time>2021-05-29T05:51:49Z</time>
      </trkpt>
      <trkpt lat="45.00562" lon="5.70191">
        <ele>568.8</ele>
        <time>2021-05-29T05:51:50Z</time>
      </trkpt>
      <trkpt lat="45.00562" lon="5.70192">
        <ele>569.2</ele>
        <time>2021-05-29T05:51:51Z</time>
      </trkpt>
      <trkpt lat="45.00561" lon="5.70193">
        <ele>569.6</ele>
        <time>2021-05-29T05:51:52Z</time>
      </trkpt>
      <trkpt lat="45.00561" lon="5.70194">
        <ele>569.6</ele>
        <time>2021-05-29T05:51:53Z</time>
      </trkpt>
      <trkpt lat="45.00561" lon="5.70194">
        <ele>569.8</ele>
        <time>2021-05-29T05:51:54Z</time>
      </trkpt>
      <trkpt lat="45.0056" lon="5.70195">
        <ele>570.2</ele>
        <time>2021-05-29T05:51:55Z</time>
      </trkpt>
      <trkpt lat="45.0056" lon="5.70196">
        <ele>570.6</ele>
        <time>2021-05-29T05:51:56Z</time>
      </trkpt>
      <trkpt lat="45.0056" lon="5.70197">
        <ele>570.8</ele>
        <time>2021-05-29T05:51:57Z</time>
      </trkpt>
      <trkpt lat="45.0056" lon="5.70198">
        <ele>570.8</ele>
        <time>2021-05-29T05:51:58Z</time>
      </trkpt>
      <trkpt lat="45.0056" lon="5.70199">
        <ele>571.2</ele>
        <time>2021-05-29T05:51:59Z</time>
      </trkpt>
      <trkpt lat="45.0056" lon="5.702">
        <ele>571.4</ele>
        <time>2021-05-29T05:52:00Z</time>
      </trkpt>
      <trkpt lat="45.0056" lon="5.70201">
        <ele>571.8</ele>
        <time>2021-05-29T05:52:01Z</time>
      </trkpt>
      <trkpt lat="45.0056" lon="5.70202">
        <ele>572</ele>
        <time>2021-05-29T05:52:02Z</time>
      </trkpt>
      <trkpt lat="45.0056" lon="5.70203">
        <ele>572.2</ele>
        <time>2021-05-29T05:52:03Z</time>
      </trkpt>
      <trkpt lat="45.0056" lon="5.70204">
        <ele>572.6</ele>
        <time>2021-05-29T05:52:04Z</time>
      </trkpt>
      <trkpt lat="45.0056" lon="5.70205">
        <ele>572.6</ele>
        <time>2021-05-29T05:52:05Z</time>
      </trkpt>
      <trkpt lat="45.0056" lon="5.70206">
        <ele>573</ele>
        <time>2021-05-29T05:52:06Z</time>
      </trkpt>
      <trkpt lat="45.0056" lon="5.70207">
        <ele>573.4</ele>
        <time>2021-05-29T05:52:07Z</time>
      </trkpt>
      <trkpt lat="45.0056" lon="5.70208">
        <ele>573.6</ele>
        <time>2021-05-29T05:52:08Z</time>
      </trkpt>
      <trkpt lat="45.0056" lon="5.7021">
        <ele>573.8</ele>
        <time>2021-05-29T05:52:09Z</time>
      </trkpt>
      <trkpt lat="45.0056" lon="5.70211">
        <ele>574</ele>
        <time>2021-05-29T05:52:10Z</time>
      </trkpt>
      <trkpt lat="45.0056" lon="5.70212">
        <ele>574.2</ele>
        <time>2021-05-29T05:52:11Z</time>
      </trkpt>
      <trkpt lat="45.00559" lon="5.70213">
        <ele>574.6</ele>
        <time>2021-05-29T05:52:12Z</time>
      </trkpt>
      <trkpt lat="45.00559" lon="5.70214">
        <ele>574.6</ele>
        <time>2021-05-29T05:52:13Z</time>
      </trkpt>
      <trkpt lat="45.00559" lon="5.70215">
        <ele>575</ele>
        <time>2021-05-29T05:52:14Z</time>
      </trkpt>
      <trkpt lat="45.00559" lon="5.70216">
        <ele>575.4</ele>
        <time>2021-05-29T05:52:15Z</time>
      </trkpt>
      <trkpt lat="45.00559" lon="5.70217">
        <ele>575.8</ele>
        <time>2021-05-29T05:52:16Z</time>
      </trkpt>
      <trkpt lat="45.00559" lon="5.70218">
        <ele>576</ele>
        <time>2021-05-29T05:52:17Z</time>
      </trkpt>
      <trkpt lat="45.00559" lon="5.70219">
        <ele>576</ele>
        <time>2021-05-29T05:52:18Z</time>
      </trkpt>
      <trkpt lat="45.00559" lon="5.7022">
        <ele>576.2</ele>
        <time>2021-05-29T05:52:19Z</time>
      </trkpt>
      <trkpt lat="45.00559" lon="5.70222">
        <ele>576.6</ele>
        <time>2021-05-29T05:52:20Z</time>
      </trkpt>
      <trkpt lat="45.00559" lon="5.70223">
        <ele>576.6</ele>
        <time>2021-05-29T05:52:21Z</time>
      </trkpt>
      <trkpt lat="45.00559" lon="5.70223">
        <ele>576.8</ele>
        <time>2021-05-29T05:52:22Z</time>
      </trkpt>
      <trkpt lat="45.0056" lon="5.70224">
        <ele>577.2</ele>
        <time>2021-05-29T05:52:23Z</time>
      </trkpt>
      <trkpt lat="45.0056" lon="5.70224">
        <ele>577.4</ele>
        <time>2021-05-29T05:52:24Z</time>
      </trkpt>
      <trkpt lat="45.00561" lon="5.70225">
        <ele>577.8</ele>
        <time>2021-05-29T05:52:25Z</time>
      </trkpt>
      <trkpt lat="45.00561" lon="5.70225">
        <ele>578</ele>
        <time>2021-05-29T05:52:26Z</time>
      </trkpt>
      <trkpt lat="45.00562" lon="5.70226">
        <ele>578.4</ele>
        <time>2021-05-29T05:52:27Z</time>
      </trkpt>
      <trkpt lat="45.00562" lon="5.70226">
        <ele>578.6</ele>
        <time>2021-05-29T05:52:28Z</time>
      </trkpt>
      <trkpt lat="45.00563" lon="5.70227">
        <ele>578.8</ele>
        <time>2021-05-29T05:52:29Z</time>
      </trkpt>
      <trkpt lat="45.00563" lon="5.70228">
        <ele>579.2</ele>
        <time>2021-05-29T05:52:30Z</time>
      </trkpt>
      <trkpt lat="45.00563" lon="5.70228">
        <ele>579.6</ele>
        <time>2021-05-29T05:52:31Z</time>
      </trkpt>
      <trkpt lat="45.00564" lon="5.70229">
        <ele>580</ele>
        <time>2021-05-29T05:52:32Z</time>
      </trkpt>
      <trkpt lat="45.00564" lon="5.70229">
        <ele>580.2</ele>
        <time>2021-05-29T05:52:33Z</time>
      </trkpt>
      <trkpt lat="45.00565" lon="5.7023">
        <ele>580.2</ele>
        <time>2021-05-29T05:52:34Z</time>
      </trkpt>
      <trkpt lat="45.00565" lon="5.7023">
        <ele>580.4</ele>
        <time>2021-05-29T05:52:35Z</time>
      </trkpt>
      <trkpt lat="45.00566" lon="5.70231">
        <ele>580.8</ele>
        <time>2021-05-29T05:52:36Z</time>
      </trkpt>
      <trkpt lat="45.00566" lon="5.70231">
        <ele>581</ele>
        <time>2021-05-29T05:52:37Z</time>
      </trkpt>
      <trkpt lat="45.00567" lon="5.70232">
        <ele>581.2</ele>
        <time>2021-05-29T05:52:38Z</time>
      </trkpt>
      <trkpt lat="45.00567" lon="5.70233">
        <ele>581.6</ele>
        <time>2021-05-29T05:52:39Z</time>
      </trkpt>
      <trkpt lat="45.00567" lon="5.70234">
        <ele>582</ele>
        <time>2021-05-29T05:52:40Z</time>
      </trkpt>
      <trkpt lat="45.00568" lon="5.70235">
        <ele>582.2</ele>
        <time>2021-05-29T05:52:41Z</time>
      </trkpt>
      <trkpt lat="45.00568" lon="5.70236">
        <ele>582.4</ele>
        <time>2021-05-29T05:52:42Z</time>
      </trkpt>
      <trkpt lat="45.00569" lon="5.70237">
        <ele>582.6</ele>
        <time>2021-05-29T05:52:43Z</time>
      </trkpt>
      <trkpt lat="45.00569" lon="5.70238">
        <ele>583</ele>
        <time>2021-05-29T05:52:44Z</time>
      </trkpt>
      <trkpt lat="45.00569" lon="5.70239">
        <ele>583.2</ele>
        <time>2021-05-29T05:52:45Z</time>
      </trkpt>
      <trkpt lat="45.0057" lon="5.7024">
        <ele>583.2</ele>
        <time>2021-05-29T05:52:46Z</time>
      </trkpt>
      <trkpt lat="45.0057" lon="5.70241">
        <ele>583.6</ele>
        <time>2021-05-29T05:52:47Z</time>
      </trkpt>
      <trkpt lat="45.0057" lon="5.70242">
        <ele>584.2</ele>
        <time>2021-05-29T05:52:48Z</time>
      </trkpt>
      <trkpt lat="45.00571" lon="5.70243">
        <ele>584.4</ele>
        <time>2021-05-29T05:52:49Z</time>
      </trkpt>
      <trkpt lat="45.00571" lon="5.70244">
        <ele>584.8</ele>
        <time>2021-05-29T05:52:50Z</time>
      </trkpt>
      <trkpt lat="45.00571" lon="5.70245">
        <ele>585</ele>
        <time>2021-05-29T05:52:51Z</time>
      </trkpt>
      <trkpt lat="45.00571" lon="5.70247">
        <ele>585.2</ele>
        <time>2021-05-29T05:52:52Z</time>
      </trkpt>
      <trkpt lat="45.00571" lon="5.70248">
        <ele>585.4</ele>
        <time>2021-05-29T05:52:53Z</time>
      </trkpt>
      <trkpt lat="45.00572" lon="5.70249">
        <ele>585.8</ele>
        <time>2021-05-29T05:52:54Z</time>
      </trkpt>
      <trkpt lat="45.00572" lon="5.7025">
        <ele>586</ele>
        <time>2021-05-29T05:52:55Z</time>
      </trkpt>
      <trkpt lat="45.00572" lon="5.70251">
        <ele>586.2</ele>
        <time>2021-05-29T05:52:56Z</time>
      </trkpt>
      <trkpt lat="45.00572" lon="5.70252">
        <ele>586.6</ele>
        <time>2021-05-29T05:52:57Z</time>
      </trkpt>
      <trkpt lat="45.00572" lon="5.70253">
        <ele>586.8</ele>
        <time>2021-05-29T05:52:58Z</time>
      </trkpt>
      <trkpt lat="45.00572" lon="5.70255">
        <ele>587</ele>
        <time>2021-05-29T05:52:59Z</time>
      </trkpt>
      <trkpt lat="45.00572" lon="5.70256">
        <ele>587.4</ele>
        <time>2021-05-29T05:53:00Z</time>
      </trkpt>
      <trkpt lat="45.00572" lon="5.70258">
        <ele>587.6</ele>
        <time>2021-05-29T05:53:01Z</time>
      </trkpt>
      <trkpt lat="45.00572" lon="5.7026">
        <ele>587.8</ele>
        <time>2021-05-29T05:53:02Z</time>
      </trkpt>
      <trkpt lat="45.00572" lon="5.70262">
        <ele>588</ele>
        <time>2021-05-29T05:53:03Z</time>
      </trkpt>
      <trkpt lat="45.00573" lon="5.70263">
        <ele>588.4</ele>
        <time>2021-05-29T05:53:04Z</time>
      </trkpt>
      <trkpt lat="45.00573" lon="5.70265">
        <ele>588.8</ele>
        <time>2021-05-29T05:53:05Z</time>
      </trkpt>
      <trkpt lat="45.00573" lon="5.70267">
        <ele>589.2</ele>
        <time>2021-05-29T05:53:06Z</time>
      </trkpt>
      <trkpt lat="45.00573" lon="5.70269">
        <ele>589.2</ele>
        <time>2021-05-29T05:53:07Z</time>
      </trkpt>
      <trkpt lat="45.00572" lon="5.7027">
        <ele>589.4</ele>
        <time>2021-05-29T05:53:08Z</time>
      </trkpt>
      <trkpt lat="45.00572" lon="5.70271">
        <ele>589.6</ele>
        <time>2021-05-29T05:53:09Z</time>
      </trkpt>
      <trkpt lat="45.00572" lon="5.70272">
        <ele>590</ele>
        <time>2021-05-29T05:53:10Z</time>
      </trkpt>
      <trkpt lat="45.00572" lon="5.70273">
        <ele>590.4</ele>
        <time>2021-05-29T05:53:11Z</time>
      </trkpt>
      <trkpt lat="45.00572" lon="5.70274">
        <ele>590.4</ele>
        <time>2021-05-29T05:53:12Z</time>
      </trkpt>
      <trkpt lat="45.00572" lon="5.70275">
        <ele>590.6</ele>
        <time>2021-05-29T05:53:13Z</time>
      </trkpt>
      <trkpt lat="45.00572" lon="5.70276">
        <ele>591</ele>
        <time>2021-05-29T05:53:14Z</time>
      </trkpt>
      <trkpt lat="45.00572" lon="5.70277">
        <ele>591.2</ele>
        <time>2021-05-29T05:53:15Z</time>
      </trkpt>
      <trkpt lat="45.00572" lon="5.70278">
        <ele>591.4</ele>
        <time>2021-05-29T05:53:16Z</time>
      </trkpt>
      <trkpt lat="45.00572" lon="5.70279">
        <ele>591.6</ele>
        <time>2021-05-29T05:53:17Z</time>
      </trkpt>
      <trkpt lat="45.00572" lon="5.7028">
        <ele>592</ele>
        <time>2021-05-29T05:53:18Z</time>
      </trkpt>
      <trkpt lat="45.00572" lon="5.70281">
        <ele>592.4</ele>
        <time>2021-05-29T05:53:19Z</time>
      </trkpt>
      <trkpt lat="45.00572" lon="5.70282">
        <ele>592.6</ele>
        <time>2021-05-29T05:53:20Z</time>
      </trkpt>
      <trkpt lat="45.00572" lon="5.70283">
        <ele>592.8</ele>
        <time>2021-05-29T05:53:21Z</time>
      </trkpt>
      <trkpt lat="45.00571" lon="5.70283">
        <ele>593</ele>
        <time>2021-05-29T05:53:22Z</time>
      </trkpt>
      <trkpt lat="45.00571" lon="5.70284">
        <ele>593.2</ele>
        <time>2021-05-29T05:53:23Z</time>
      </trkpt>
      <trkpt lat="45.00571" lon="5.70285">
        <ele>593.4</ele>
        <time>2021-05-29T05:53:24Z</time>
      </trkpt>
      <trkpt lat="45.0057" lon="5.70285">
        <ele>593.6</ele>
        <time>2021-05-29T05:53:25Z</time>
      </trkpt>
      <trkpt lat="45.0057" lon="5.70286">
        <ele>593.8</ele>
        <time>2021-05-29T05:53:26Z</time>
      </trkpt>
      <trkpt lat="45.0057" lon="5.70287">
        <ele>594.2</ele>
        <time>2021-05-29T05:53:27Z</time>
      </trkpt>
      <trkpt lat="45.00569" lon="5.70288">
        <ele>594.4</ele>
        <time>2021-05-29T05:53:28Z</time>
      </trkpt>
      <trkpt lat="45.00569" lon="5.70288">
        <ele>594.6</ele>
        <time>2021-05-29T05:53:29Z</time>
      </trkpt>
      <trkpt lat="45.00569" lon="5.70289">
        <ele>595</ele>
        <time>2021-05-29T05:53:30Z</time>
      </trkpt>
      <trkpt lat="45.00568" lon="5.7029">
        <ele>595.2</ele>
        <time>2021-05-29T05:53:31Z</time>
      </trkpt>
      <trkpt lat="45.00568" lon="5.7029">
        <ele>595.4</ele>
        <time>2021-05-29T05:53:32Z</time>
      </trkpt>
      <trkpt lat="45.00568" lon="5.70291">
        <ele>596</ele>
        <time>2021-05-29T05:53:33Z</time>
      </trkpt>
      <trkpt lat="45.00567" lon="5.70292">
        <ele>596.4</ele>
        <time>2021-05-29T05:53:34Z</time>
      </trkpt>
      <trkpt lat="45.00567" lon="5.70292">
        <ele>596.4</ele>
        <time>2021-05-29T05:53:35Z</time>
      </trkpt>
      <trkpt lat="45.00567" lon="5.70293">
        <ele>596.6</ele>
        <time>2021-05-29T05:53:36Z</time>
      </trkpt>
      <trkpt lat="45.00566" lon="5.70293">
        <ele>597</ele>
        <time>2021-05-29T05:53:37Z</time>
      </trkpt>
      <trkpt lat="45.00565" lon="5.70293">
        <ele>597.2</ele>
        <time>2021-05-29T05:53:38Z</time>
      </trkpt>
      <trkpt lat="45.00564" lon="5.70293">
        <ele>597.4</ele>
        <time>2021-05-29T05:53:39Z</time>
      </trkpt>
      <trkpt lat="45.00563" lon="5.70293">
        <ele>597.8</ele>
        <time>2021-05-29T05:53:40Z</time>
      </trkpt>
      <trkpt lat="45.00562" lon="5.70294">
        <ele>598</ele>
        <time>2021-05-29T05:53:41Z</time>
      </trkpt>
      <trkpt lat="45.00561" lon="5.70294">
        <ele>598.2</ele>
        <time>2021-05-29T05:53:42Z</time>
      </trkpt>
      <trkpt lat="45.0056" lon="5.70294">
        <ele>598.4</ele>
        <time>2021-05-29T05:53:43Z</time>
      </trkpt>
      <trkpt lat="45.0056" lon="5.70294">
        <ele>598.6</ele>
        <time>2021-05-29T05:53:44Z</time>
      </trkpt>
      <trkpt lat="45.00559" lon="5.70294">
        <ele>599</ele>
        <time>2021-05-29T05:53:45Z</time>
      </trkpt>
      <trkpt lat="45.00558" lon="5.70294">
        <ele>599.2</ele>
        <time>2021-05-29T05:53:46Z</time>
      </trkpt>
      <trkpt lat="45.00557" lon="5.70294">
        <ele>599.6</ele>
        <time>2021-05-29T05:53:47Z</time>
      </trkpt>
      <trkpt lat="45.00556" lon="5.70295">
        <ele>599.8</ele>
        <time>2021-05-29T05:53:48Z</time>
      </trkpt>
      <trkpt lat="45.00555" lon="5.70295">
        <ele>600</ele>
        <time>2021-05-29T05:53:49Z</time>
      </trkpt>
      <trkpt lat="45.00554" lon="5.70295">
        <ele>600.2</ele>
        <time>2021-05-29T05:53:50Z</time>
      </trkpt>
      <trkpt lat="45.00553" lon="5.70295">
        <ele>600.4</ele>
        <time>2021-05-29T05:53:51Z</time>
      </trkpt>
      <trkpt lat="45.00552" lon="5.70295">
        <ele>600.6</ele>
        <time>2021-05-29T05:53:52Z</time>
      </trkpt>
      <trkpt lat="45.00551" lon="5.70295">
        <ele>601.2</ele>
        <time>2021-05-29T05:53:53Z</time>
      </trkpt>
      <trkpt lat="45.0055" lon="5.70295">
        <ele>601.6</ele>
        <time>2021-05-29T05:53:54Z</time>
      </trkpt>
      <trkpt lat="45.00549" lon="5.70295">
        <ele>601.8</ele>
        <time>2021-05-29T05:53:55Z</time>
      </trkpt>
      <trkpt lat="45.00548" lon="5.70296">
        <ele>602.2</ele>
        <time>2021-05-29T05:53:56Z</time>
      </trkpt>
      <trkpt lat="45.00547" lon="5.70296">
        <ele>602.6</ele>
        <time>2021-05-29T05:53:57Z</time>
      </trkpt>
      <trkpt lat="45.00547" lon="5.70296">
        <ele>603</ele>
        <time>2021-05-29T05:53:58Z</time>
      </trkpt>
      <trkpt lat="45.00546" lon="5.70296">
        <ele>603.2</ele>
        <time>2021-05-29T05:53:59Z</time>
      </trkpt>
      <trkpt lat="45.00545" lon="5.70296">
        <ele>603.4</ele>
        <time>2021-05-29T05:54:00Z</time>
      </trkpt>
      <trkpt lat="45.00545" lon="5.70297">
        <ele>603.6</ele>
        <time>2021-05-29T05:54:01Z</time>
      </trkpt>
      <trkpt lat="45.00544" lon="5.70297">
        <ele>604</ele>
        <time>2021-05-29T05:54:02Z</time>
      </trkpt>
      <trkpt lat="45.00543" lon="5.70297">
        <ele>604.2</ele>
        <time>2021-05-29T05:54:03Z</time>
      </trkpt>
      <trkpt lat="45.00543" lon="5.70298">
        <ele>604.6</ele>
        <time>2021-05-29T05:54:04Z</time>
      </trkpt>
      <trkpt lat="45.00542" lon="5.70298">
        <ele>604.6</ele>
        <time>2021-05-29T05:54:05Z</time>
      </trkpt>
      <trkpt lat="45.00542" lon="5.70298">
        <ele>605</ele>
        <time>2021-05-29T05:54:06Z</time>
      </trkpt>
      <trkpt lat="45.00541" lon="5.70298">
        <ele>605.2</ele>
        <time>2021-05-29T05:54:07Z</time>
      </trkpt>
      <trkpt lat="45.0054" lon="5.70299">
        <ele>605.6</ele>
        <time>2021-05-29T05:54:08Z</time>
      </trkpt>
      <trkpt lat="45.0054" lon="5.70299">
        <ele>605.8</ele>
        <time>2021-05-29T05:54:09Z</time>
      </trkpt>
      <trkpt lat="45.00539" lon="5.70299">
        <ele>606.2</ele>
        <time>2021-05-29T05:54:10Z</time>
      </trkpt>
      <trkpt lat="45.00538" lon="5.70299">
        <ele>606.4</ele>
        <time>2021-05-29T05:54:11Z</time>
      </trkpt>
      <trkpt lat="45.00538" lon="5.70299">
        <ele>606.6</ele>
        <time>2021-05-29T05:54:12Z</time>
      </trkpt>
      <trkpt lat="45.00537" lon="5.70299">
        <ele>607</ele>
        <time>2021-05-29T05:54:13Z</time>
      </trkpt>
      <trkpt lat="45.00537" lon="5.70298">
        <ele>607.2</ele>
        <time>2021-05-29T05:54:14Z</time>
      </trkpt>
      <trkpt lat="45.00536" lon="5.70298">
        <ele>607.6</ele>
        <time>2021-05-29T05:54:15Z</time>
      </trkpt>
      <trkpt lat="45.00535" lon="5.70297">
        <ele>608</ele>
        <time>2021-05-29T05:54:16Z</time>
      </trkpt>
      <trkpt lat="45.00535" lon="5.70297">
        <ele>608</ele>
        <time>2021-05-29T05:54:17Z</time>
      </trkpt>
      <trkpt lat="45.00534" lon="5.70297">
        <ele>608.4</ele>
        <time>2021-05-29T05:54:18Z</time>
      </trkpt>
      <trkpt lat="45.00533" lon="5.70296">
        <ele>608.6</ele>
        <time>2021-05-29T05:54:19Z</time>
      </trkpt>
      <trkpt lat="45.00533" lon="5.70296">
        <ele>608.6</ele>
        <time>2021-05-29T05:54:20Z</time>
      </trkpt>
      <trkpt lat="45.00532" lon="5.70295">
        <ele>608.6</ele>
        <time>2021-05-29T05:54:21Z</time>
      </trkpt>
      <trkpt lat="45.00532" lon="5.70295">
        <ele>608.6</ele>
        <time>2021-05-29T05:54:22Z</time>
      </trkpt>
      <trkpt lat="45.00531" lon="5.70295">
        <ele>608.6</ele>
        <time>2021-05-29T05:54:23Z</time>
      </trkpt>
      <trkpt lat="45.0053" lon="5.70294">
        <ele>608.8</ele>
        <time>2021-05-29T05:54:24Z</time>
      </trkpt>
      <trkpt lat="45.0053" lon="5.70294">
        <ele>609.2</ele>
        <time>2021-05-29T05:54:25Z</time>
      </trkpt>
      <trkpt lat="45.00529" lon="5.70295">
        <ele>609.2</ele>
        <time>2021-05-29T05:54:26Z</time>
      </trkpt>
      <trkpt lat="45.00528" lon="5.70295">
        <ele>609.2</ele>
        <time>2021-05-29T05:54:27Z</time>
      </trkpt>
      <trkpt lat="45.00528" lon="5.70296">
        <ele>609.4</ele>
        <time>2021-05-29T05:54:28Z</time>
      </trkpt>
      <trkpt lat="45.00527" lon="5.70297">
        <ele>609.8</ele>
        <time>2021-05-29T05:54:29Z</time>
      </trkpt>
      <trkpt lat="45.00527" lon="5.70297">
        <ele>609.8</ele>
        <time>2021-05-29T05:54:30Z</time>
      </trkpt>
      <trkpt lat="45.00526" lon="5.70298">
        <ele>610</ele>
        <time>2021-05-29T05:54:31Z</time>
      </trkpt>
      <trkpt lat="45.00525" lon="5.70299">
        <ele>610.4</ele>
        <time>2021-05-29T05:54:32Z</time>
      </trkpt>
      <trkpt lat="45.00525" lon="5.703">
        <ele>610.8</ele>
        <time>2021-05-29T05:54:33Z</time>
      </trkpt>
      <trkpt lat="45.00524" lon="5.703">
        <ele>611</ele>
        <time>2021-05-29T05:54:34Z</time>
      </trkpt>
      <trkpt lat="45.00524" lon="5.70301">
        <ele>611.2</ele>
        <time>2021-05-29T05:54:35Z</time>
      </trkpt>
      <trkpt lat="45.00523" lon="5.70302">
        <ele>611.4</ele>
        <time>2021-05-29T05:54:36Z</time>
      </trkpt>
      <trkpt lat="45.00522" lon="5.70303">
        <ele>611.6</ele>
        <time>2021-05-29T05:54:37Z</time>
      </trkpt>
      <trkpt lat="45.00522" lon="5.70303">
        <ele>611.8</ele>
        <time>2021-05-29T05:54:38Z</time>
      </trkpt>
      <trkpt lat="45.00521" lon="5.70304">
        <ele>612</ele>
        <time>2021-05-29T05:54:39Z</time>
      </trkpt>
      <trkpt lat="45.0052" lon="5.70305">
        <ele>612</ele>
        <time>2021-05-29T05:54:40Z</time>
      </trkpt>
      <trkpt lat="45.00519" lon="5.70305">
        <ele>612.2</ele>
        <time>2021-05-29T05:54:41Z</time>
      </trkpt>
      <trkpt lat="45.00518" lon="5.70306">
        <ele>612.6</ele>
        <time>2021-05-29T05:54:42Z</time>
      </trkpt>
      <trkpt lat="45.00517" lon="5.70306">
        <ele>613</ele>
        <time>2021-05-29T05:54:43Z</time>
      </trkpt>
      <trkpt lat="45.00515" lon="5.70307">
        <ele>613</ele>
        <time>2021-05-29T05:54:44Z</time>
      </trkpt>
      <trkpt lat="45.00514" lon="5.70308">
        <ele>613.2</ele>
        <time>2021-05-29T05:54:45Z</time>
      </trkpt>
      <trkpt lat="45.00513" lon="5.70308">
        <ele>613.4</ele>
        <time>2021-05-29T05:54:46Z</time>
      </trkpt>
      <trkpt lat="45.00512" lon="5.70308">
        <ele>613.8</ele>
        <time>2021-05-29T05:54:47Z</time>
      </trkpt>
      <trkpt lat="45.00511" lon="5.70307">
        <ele>614.2</ele>
        <time>2021-05-29T05:54:48Z</time>
      </trkpt>
      <trkpt lat="45.0051" lon="5.70307">
        <ele>614.6</ele>
        <time>2021-05-29T05:54:49Z</time>
      </trkpt>
      <trkpt lat="45.00509" lon="5.70306">
        <ele>614.6</ele>
        <time>2021-05-29T05:54:50Z</time>
      </trkpt>
      <trkpt lat="45.00508" lon="5.70305">
        <ele>614.8</ele>
        <time>2021-05-29T05:54:51Z</time>
      </trkpt>
      <trkpt lat="45.00507" lon="5.70305">
        <ele>615.2</ele>
        <time>2021-05-29T05:54:52Z</time>
      </trkpt>
      <trkpt lat="45.00506" lon="5.70304">
        <ele>615.6</ele>
        <time>2021-05-29T05:54:53Z</time>
      </trkpt>
      <trkpt lat="45.00505" lon="5.70304">
        <ele>615.8</ele>
        <time>2021-05-29T05:54:54Z</time>
      </trkpt>
      <trkpt lat="45.00504" lon="5.70303">
        <ele>616.2</ele>
        <time>2021-05-29T05:54:55Z</time>
      </trkpt>
      <trkpt lat="45.00504" lon="5.70303">
        <ele>616.4</ele>
        <time>2021-05-29T05:54:56Z</time>
      </trkpt>
      <trkpt lat="45.00503" lon="5.70303">
        <ele>616.4</ele>
        <time>2021-05-29T05:54:57Z</time>
      </trkpt>
      <trkpt lat="45.00503" lon="5.70303">
        <ele>616.6</ele>
        <time>2021-05-29T05:54:58Z</time>
      </trkpt>
      <trkpt lat="45.00502" lon="5.70303">
        <ele>617</ele>
        <time>2021-05-29T05:54:59Z</time>
      </trkpt>
      <trkpt lat="45.00502" lon="5.70303">
        <ele>617.4</ele>
        <time>2021-05-29T05:55:00Z</time>
      </trkpt>
      <trkpt lat="45.00501" lon="5.70303">
        <ele>617.6</ele>
        <time>2021-05-29T05:55:01Z</time>
      </trkpt>
      <trkpt lat="45.00501" lon="5.70303">
        <ele>617.8</ele>
        <time>2021-05-29T05:55:02Z</time>
      </trkpt>
      <trkpt lat="45.005" lon="5.70303">
        <ele>618</ele>
        <time>2021-05-29T05:55:03Z</time>
      </trkpt>
      <trkpt lat="45.005" lon="5.70303">
        <ele>618.4</ele>
        <time>2021-05-29T05:55:04Z</time>
      </trkpt>
      <trkpt lat="45.00499" lon="5.70303">
        <ele>618.6</ele>
        <time>2021-05-29T05:55:05Z</time>
      </trkpt>
      <trkpt lat="45.00499" lon="5.70303">
        <ele>619</ele>
        <time>2021-05-29T05:55:06Z</time>
      </trkpt>
      <trkpt lat="45.00498" lon="5.70303">
        <ele>619.2</ele>
        <time>2021-05-29T05:55:07Z</time>
      </trkpt>
      <trkpt lat="45.00498" lon="5.70303">
        <ele>619.4</ele>
        <time>2021-05-29T05:55:08Z</time>
      </trkpt>
      <trkpt lat="45.00497" lon="5.70303">
        <ele>619.6</ele>
        <time>2021-05-29T05:55:09Z</time>
      </trkpt>
      <trkpt lat="45.00497" lon="5.70303">
        <ele>620</ele>
        <time>2021-05-29T05:55:10Z</time>
      </trkpt>
      <trkpt lat="45.00496" lon="5.70303">
        <ele>620.4</ele>
        <time>2021-05-29T05:55:11Z</time>
      </trkpt>
      <trkpt lat="45.00496" lon="5.70303">
        <ele>620.6</ele>
        <time>2021-05-29T05:55:12Z</time>
      </trkpt>
      <trkpt lat="45.00495" lon="5.70303">
        <ele>620.8</ele>
        <time>2021-05-29T05:55:13Z</time>
      </trkpt>
      <trkpt lat="45.00495" lon="5.70303">
        <ele>621.2</ele>
        <time>2021-05-29T05:55:14Z</time>
      </trkpt>
      <trkpt lat="45.00494" lon="5.70303">
        <ele>621.2</ele>
        <time>2021-05-29T05:55:15Z</time>
      </trkpt>
      <trkpt lat="45.00494" lon="5.70304">
        <ele>621.4</ele>
        <time>2021-05-29T05:55:16Z</time>
      </trkpt>
      <trkpt lat="45.00493" lon="5.70304">
        <ele>621.8</ele>
        <time>2021-05-29T05:55:17Z</time>
      </trkpt>
      <trkpt lat="45.00493" lon="5.70304">
        <ele>622</ele>
        <time>2021-05-29T05:55:18Z</time>
      </trkpt>
      <trkpt lat="45.00492" lon="5.70305">
        <ele>622.2</ele>
        <time>2021-05-29T05:55:19Z</time>
      </trkpt>
      <trkpt lat="45.00492" lon="5.70305">
        <ele>622.6</ele>
        <time>2021-05-29T05:55:20Z</time>
      </trkpt>
      <trkpt lat="45.00492" lon="5.70305">
        <ele>622.8</ele>
        <time>2021-05-29T05:55:21Z</time>
      </trkpt>
      <trkpt lat="45.00491" lon="5.70306">
        <ele>623</ele>
        <time>2021-05-29T05:55:22Z</time>
      </trkpt>
      <trkpt lat="45.00491" lon="5.70306">
        <ele>623</ele>
        <time>2021-05-29T05:55:23Z</time>
      </trkpt>
      <trkpt lat="45.0049" lon="5.70306">
        <ele>623.2</ele>
        <time>2021-05-29T05:55:24Z</time>
      </trkpt>
      <trkpt lat="45.0049" lon="5.70307">
        <ele>623.6</ele>
        <time>2021-05-29T05:55:25Z</time>
      </trkpt>
      <trkpt lat="45.00489" lon="5.70307">
        <ele>623.8</ele>
        <time>2021-05-29T05:55:26Z</time>
      </trkpt>
      <trkpt lat="45.00489" lon="5.70307">
        <ele>624.2</ele>
        <time>2021-05-29T05:55:27Z</time>
      </trkpt>
      <trkpt lat="45.00489" lon="5.70308">
        <ele>624.6</ele>
        <time>2021-05-29T05:55:28Z</time>
      </trkpt>
      <trkpt lat="45.00488" lon="5.70308">
        <ele>624.8</ele>
        <time>2021-05-29T05:55:29Z</time>
      </trkpt>
      <trkpt lat="45.00488" lon="5.70308">
        <ele>625.2</ele>
        <time>2021-05-29T05:55:30Z</time>
      </trkpt>
      <trkpt lat="45.00487" lon="5.70309">
        <ele>625.2</ele>
        <time>2021-05-29T05:55:31Z</time>
      </trkpt>
      <trkpt lat="45.00487" lon="5.70309">
        <ele>625.4</ele>
        <time>2021-05-29T05:55:32Z</time>
      </trkpt>
      <trkpt lat="45.00487" lon="5.70309">
        <ele>625.6</ele>
        <time>2021-05-29T05:55:33Z</time>
      </trkpt>
      <trkpt lat="45.00487" lon="5.7031">
        <ele>626</ele>
        <time>2021-05-29T05:55:34Z</time>
      </trkpt>
      <trkpt lat="45.00487" lon="5.70311">
        <ele>626.2</ele>
        <time>2021-05-29T05:55:35Z</time>
      </trkpt>
      <trkpt lat="45.00486" lon="5.70311">
        <ele>626.4</ele>
        <time>2021-05-29T05:55:36Z</time>
      </trkpt>
      <trkpt lat="45.00486" lon="5.70312">
        <ele>626.6</ele>
        <time>2021-05-29T05:55:37Z</time>
      </trkpt>
      <trkpt lat="45.00486" lon="5.70312">
        <ele>627</ele>
        <time>2021-05-29T05:55:38Z</time>
      </trkpt>
      <trkpt lat="45.00486" lon="5.70313">
        <ele>627.4</ele>
        <time>2021-05-29T05:55:39Z</time>
      </trkpt>
      <trkpt lat="45.00486" lon="5.70314">
        <ele>627.6</ele>
        <time>2021-05-29T05:55:40Z</time>
      </trkpt>
      <trkpt lat="45.00486" lon="5.70314">
        <ele>627.6</ele>
        <time>2021-05-29T05:55:41Z</time>
      </trkpt>
      <trkpt lat="45.00486" lon="5.70315">
        <ele>627.8</ele>
        <time>2021-05-29T05:55:42Z</time>
      </trkpt>
      <trkpt lat="45.00486" lon="5.70315">
        <ele>628.2</ele>
        <time>2021-05-29T05:55:43Z</time>
      </trkpt>
      <trkpt lat="45.00486" lon="5.70316">
        <ele>628.2</ele>
        <time>2021-05-29T05:55:44Z</time>
      </trkpt>
      <trkpt lat="45.00485" lon="5.70317">
        <ele>628.4</ele>
        <time>2021-05-29T05:55:45Z</time>
      </trkpt>
      <trkpt lat="45.00485" lon="5.70317">
        <ele>628.8</ele>
        <time>2021-05-29T05:55:46Z</time>
      </trkpt>
      <trkpt lat="45.00485" lon="5.70318">
        <ele>629.2</ele>
        <time>2021-05-29T05:55:47Z</time>
      </trkpt>
      <trkpt lat="45.00485" lon="5.70318">
        <ele>629.4</ele>
        <time>2021-05-29T05:55:48Z</time>
      </trkpt>
      <trkpt lat="45.00485" lon="5.70319">
        <ele>629.6</ele>
        <time>2021-05-29T05:55:49Z</time>
      </trkpt>
      <trkpt lat="45.00485" lon="5.7032">
        <ele>629.6</ele>
        <time>2021-05-29T05:55:50Z</time>
      </trkpt>
      <trkpt lat="45.00485" lon="5.7032">
        <ele>629.8</ele>
        <time>2021-05-29T05:55:51Z</time>
      </trkpt>
      <trkpt lat="45.00485" lon="5.70321">
        <ele>630</ele>
        <time>2021-05-29T05:55:52Z</time>
      </trkpt>
      <trkpt lat="45.00485" lon="5.70321">
        <ele>630.4</ele>
        <time>2021-05-29T05:55:53Z</time>
      </trkpt>
      <trkpt lat="45.00485" lon="5.70322">
        <ele>630.8</ele>
        <time>2021-05-29T05:55:54Z</time>
      </trkpt>
      <trkpt lat="45.00486" lon="5.70323">
        <ele>631.2</ele>
        <time>2021-05-29T05:55:55Z</time>
      </trkpt>
      <trkpt lat="45.00486" lon="5.70323">
        <ele>631.2</ele>
        <time>2021-05-29T05:55:56Z</time>
      </trkpt>
      <trkpt lat="45.00487" lon="5.70324">
        <ele>631.4</ele>
        <time>2021-05-29T05:55:57Z</time>
      </trkpt>
      <trkpt lat="45.00487" lon="5.70324">
        <ele>631.6</ele>
        <time>2021-05-29T05:55:58Z</time>
      </trkpt>
      <trkpt lat="45.00488" lon="5.70325">
        <ele>631.8</ele>
        <time>2021-05-29T05:55:59Z</time>
      </trkpt>
      <trkpt lat="45.00488" lon="5.70326">
        <ele>632</ele>
        <time>2021-05-29T05:56:00Z</time>
      </trkpt>
      <trkpt lat="45.00489" lon="5.70326">
        <ele>632.4</ele>
        <time>2021-05-29T05:56:01Z</time>
      </trkpt>
      <trkpt lat="45.00489" lon="5.70327">
        <ele>632.6</ele>
        <time>2021-05-29T05:56:02Z</time>
      </trkpt>
      <trkpt lat="45.0049" lon="5.70328">
        <ele>632.8</ele>
        <time>2021-05-29T05:56:03Z</time>
      </trkpt>
      <trkpt lat="45.0049" lon="5.70328">
        <ele>633</ele>
        <time>2021-05-29T05:56:04Z</time>
      </trkpt>
      <trkpt lat="45.00491" lon="5.70329">
        <ele>633.2</ele>
        <time>2021-05-29T05:56:05Z</time>
      </trkpt>
      <trkpt lat="45.00491" lon="5.70329">
        <ele>633.4</ele>
        <time>2021-05-29T05:56:06Z</time>
      </trkpt>
      <trkpt lat="45.00492" lon="5.7033">
        <ele>633.8</ele>
        <time>2021-05-29T05:56:07Z</time>
      </trkpt>
      <trkpt lat="45.00492" lon="5.70331">
        <ele>634.2</ele>
        <time>2021-05-29T05:56:08Z</time>
      </trkpt>
      <trkpt lat="45.00493" lon="5.70331">
        <ele>634.4</ele>
        <time>2021-05-29T05:56:09Z</time>
      </trkpt>
      <trkpt lat="45.00493" lon="5.70332">
        <ele>634.6</ele>
        <time>2021-05-29T05:56:10Z</time>
      </trkpt>
      <trkpt lat="45.00493" lon="5.70333">
        <ele>635</ele>
        <time>2021-05-29T05:56:11Z</time>
      </trkpt>
      <trkpt lat="45.00494" lon="5.70334">
        <ele>635.4</ele>
        <time>2021-05-29T05:56:12Z</time>
      </trkpt>
      <trkpt lat="45.00494" lon="5.70335">
        <ele>635.4</ele>
        <time>2021-05-29T05:56:13Z</time>
      </trkpt>
      <trkpt lat="45.00494" lon="5.70336">
        <ele>635.6</ele>
        <time>2021-05-29T05:56:14Z</time>
      </trkpt>
      <trkpt lat="45.00495" lon="5.70337">
        <ele>635.8</ele>
        <time>2021-05-29T05:56:15Z</time>
      </trkpt>
      <trkpt lat="45.00495" lon="5.70338">
        <ele>636</ele>
        <time>2021-05-29T05:56:16Z</time>
      </trkpt>
      <trkpt lat="45.00495" lon="5.70339">
        <ele>636.2</ele>
        <time>2021-05-29T05:56:17Z</time>
      </trkpt>
      <trkpt lat="45.00496" lon="5.7034">
        <ele>636.6</ele>
        <time>2021-05-29T05:56:18Z</time>
      </trkpt>
      <trkpt lat="45.00496" lon="5.70341">
        <ele>636.8</ele>
        <time>2021-05-29T05:56:19Z</time>
      </trkpt>
      <trkpt lat="45.00496" lon="5.70342">
        <ele>637.2</ele>
        <time>2021-05-29T05:56:20Z</time>
      </trkpt>
      <trkpt lat="45.00497" lon="5.70343">
        <ele>637.4</ele>
        <time>2021-05-29T05:56:21Z</time>
      </trkpt>
      <trkpt lat="45.00497" lon="5.70343">
        <ele>637.6</ele>
        <time>2021-05-29T05:56:22Z</time>
      </trkpt>
      <trkpt lat="45.00497" lon="5.70344">
        <ele>637.8</ele>
        <time>2021-05-29T05:56:23Z</time>
      </trkpt>
      <trkpt lat="45.00497" lon="5.70345">
        <ele>638</ele>
        <time>2021-05-29T05:56:24Z</time>
      </trkpt>
      <trkpt lat="45.00497" lon="5.70346">
        <ele>638.4</ele>
        <time>2021-05-29T05:56:25Z</time>
      </trkpt>
      <trkpt lat="45.00497" lon="5.70347">
        <ele>638.6</ele>
        <time>2021-05-29T05:56:26Z</time>
      </trkpt>
      <trkpt lat="45.00497" lon="5.70348">
        <ele>638.8</ele>
        <time>2021-05-29T05:56:27Z</time>
      </trkpt>
      <trkpt lat="45.00497" lon="5.70349">
        <ele>639</ele>
        <time>2021-05-29T05:56:28Z</time>
      </trkpt>
      <trkpt lat="45.00498" lon="5.7035">
        <ele>639</ele>
        <time>2021-05-29T05:56:29Z</time>
      </trkpt>
      <trkpt lat="45.00498" lon="5.70351">
        <ele>639.4</ele>
        <time>2021-05-29T05:56:30Z</time>
      </trkpt>
      <trkpt lat="45.00498" lon="5.70352">
        <ele>639.8</ele>
        <time>2021-05-29T05:56:31Z</time>
      </trkpt>
      <trkpt lat="45.00498" lon="5.70353">
        <ele>640</ele>
        <time>2021-05-29T05:56:32Z</time>
      </trkpt>
      <trkpt lat="45.00498" lon="5.70354">
        <ele>640.2</ele>
        <time>2021-05-29T05:56:33Z</time>
      </trkpt>
      <trkpt lat="45.00498" lon="5.70355">
        <ele>640.6</ele>
        <time>2021-05-29T05:56:34Z</time>
      </trkpt>
      <trkpt lat="45.00498" lon="5.70356">
        <ele>640.8</ele>
        <time>2021-05-29T05:56:35Z</time>
      </trkpt>
      <trkpt lat="45.00499" lon="5.70357">
        <ele>641</ele>
        <time>2021-05-29T05:56:36Z</time>
      </trkpt>
      <trkpt lat="45.00499" lon="5.70358">
        <ele>641.2</ele>
        <time>2021-05-29T05:56:37Z</time>
      </trkpt>
      <trkpt lat="45.005" lon="5.70359">
        <ele>641.6</ele>
        <time>2021-05-29T05:56:38Z</time>
      </trkpt>
      <trkpt lat="45.005" lon="5.7036">
        <ele>641.8</ele>
        <time>2021-05-29T05:56:39Z</time>
      </trkpt>
      <trkpt lat="45.00501" lon="5.7036">
        <ele>642</ele>
        <time>2021-05-29T05:56:40Z</time>
      </trkpt>
      <trkpt lat="45.00502" lon="5.70361">
        <ele>642.2</ele>
        <time>2021-05-29T05:56:41Z</time>
      </trkpt>
      <trkpt lat="45.00502" lon="5.70362">
        <ele>642.6</ele>
        <time>2021-05-29T05:56:42Z</time>
      </trkpt>
      <trkpt lat="45.00503" lon="5.70363">
        <ele>642.8</ele>
        <time>2021-05-29T05:56:43Z</time>
      </trkpt>
      <trkpt lat="45.00504" lon="5.70364">
        <ele>643.2</ele>
        <time>2021-05-29T05:56:44Z</time>
      </trkpt>
      <trkpt lat="45.00504" lon="5.70365">
        <ele>643.4</ele>
        <time>2021-05-29T05:56:45Z</time>
      </trkpt>
      <trkpt lat="45.00505" lon="5.70365">
        <ele>643.8</ele>
        <time>2021-05-29T05:56:46Z</time>
      </trkpt>
      <trkpt lat="45.00506" lon="5.70366">
        <ele>644</ele>
        <time>2021-05-29T05:56:47Z</time>
      </trkpt>
      <trkpt lat="45.00507" lon="5.70367">
        <ele>644.2</ele>
        <time>2021-05-29T05:56:48Z</time>
      </trkpt>
      <trkpt lat="45.00507" lon="5.70368">
        <ele>644.4</ele>
        <time>2021-05-29T05:56:49Z</time>
      </trkpt>
      <trkpt lat="45.00508" lon="5.70369">
        <ele>644.6</ele>
        <time>2021-05-29T05:56:50Z</time>
      </trkpt>
      <trkpt lat="45.00509" lon="5.7037">
        <ele>644.8</ele>
        <time>2021-05-29T05:56:51Z</time>
      </trkpt>
      <trkpt lat="45.0051" lon="5.70371">
        <ele>645</ele>
        <time>2021-05-29T05:56:52Z</time>
      </trkpt>
      <trkpt lat="45.00511" lon="5.70372">
        <ele>645.2</ele>
        <time>2021-05-29T05:56:53Z</time>
      </trkpt>
      <trkpt lat="45.00511" lon="5.70372">
        <ele>645.4</ele>
        <time>2021-05-29T05:56:54Z</time>
      </trkpt>
      <trkpt lat="45.00512" lon="5.70373">
        <ele>645.6</ele>
        <time>2021-05-29T05:56:55Z</time>
      </trkpt>
      <trkpt lat="45.00513" lon="5.70374">
        <ele>645.8</ele>
        <time>2021-05-29T05:56:56Z</time>
      </trkpt>
      <trkpt lat="45.00513" lon="5.70375">
        <ele>646</ele>
        <time>2021-05-29T05:56:57Z</time>
      </trkpt>
      <trkpt lat="45.00514" lon="5.70375">
        <ele>646.4</ele>
        <time>2021-05-29T05:56:58Z</time>
      </trkpt>
      <trkpt lat="45.00514" lon="5.70376">
        <ele>646.8</ele>
        <time>2021-05-29T05:56:59Z</time>
      </trkpt>
      <trkpt lat="45.00515" lon="5.70376">
        <ele>647</ele>
        <time>2021-05-29T05:57:00Z</time>
      </trkpt>
      <trkpt lat="45.00515" lon="5.70377">
        <ele>647</ele>
        <time>2021-05-29T05:57:01Z</time>
      </trkpt>
      <trkpt lat="45.00516" lon="5.70377">
        <ele>647.4</ele>
        <time>2021-05-29T05:57:02Z</time>
      </trkpt>
      <trkpt lat="45.00516" lon="5.70378">
        <ele>647.6</ele>
        <time>2021-05-29T05:57:03Z</time>
      </trkpt>
      <trkpt lat="45.00517" lon="5.70379">
        <ele>648</ele>
        <time>2021-05-29T05:57:04Z</time>
      </trkpt>
      <trkpt lat="45.00517" lon="5.70379">
        <ele>648.2</ele>
        <time>2021-05-29T05:57:05Z</time>
      </trkpt>
      <trkpt lat="45.00517" lon="5.7038">
        <ele>648.4</ele>
        <time>2021-05-29T05:57:06Z</time>
      </trkpt>
      <trkpt lat="45.00518" lon="5.7038">
        <ele>648.8</ele>
        <time>2021-05-29T05:57:07Z</time>
      </trkpt>
      <trkpt lat="45.00518" lon="5.70381">
        <ele>649</ele>
        <time>2021-05-29T05:57:08Z</time>
      </trkpt>
      <trkpt lat="45.00519" lon="5.70381">
        <ele>649.2</ele>
        <time>2021-05-29T05:57:09Z</time>
      </trkpt>
      <trkpt lat="45.00519" lon="5.70382">
        <ele>649.4</ele>
        <time>2021-05-29T05:57:10Z</time>
      </trkpt>
      <trkpt lat="45.0052" lon="5.70382">
        <ele>650</ele>
        <time>2021-05-29T05:57:11Z</time>
      </trkpt>
      <trkpt lat="45.0052" lon="5.70383">
        <ele>650.2</ele>
        <time>2021-05-29T05:57:12Z</time>
      </trkpt>
      <trkpt lat="45.00521" lon="5.70384">
        <ele>650.4</ele>
        <time>2021-05-29T05:57:13Z</time>
      </trkpt>
      <trkpt lat="45.00522" lon="5.70385">
        <ele>650.6</ele>
        <time>2021-05-29T05:57:14Z</time>
      </trkpt>
      <trkpt lat="45.00523" lon="5.70386">
        <ele>651</ele>
        <time>2021-05-29T05:57:15Z</time>
      </trkpt>
      <trkpt lat="45.00524" lon="5.70387">
        <ele>651.2</ele>
        <time>2021-05-29T05:57:16Z</time>
      </trkpt>
      <trkpt lat="45.00526" lon="5.70389">
        <ele>651.6</ele>
        <time>2021-05-29T05:57:17Z</time>
      </trkpt>
      <trkpt lat="45.00527" lon="5.7039">
        <ele>651.6</ele>
        <time>2021-05-29T05:57:18Z</time>
      </trkpt>
      <trkpt lat="45.00528" lon="5.70391">
        <ele>652</ele>
        <time>2021-05-29T05:57:19Z</time>
      </trkpt>
      <trkpt lat="45.00528" lon="5.70391">
        <ele>652.2</ele>
        <time>2021-05-29T05:57:20Z</time>
      </trkpt>
      <trkpt lat="45.00529" lon="5.70392">
        <ele>652.4</ele>
        <time>2021-05-29T05:57:21Z</time>
      </trkpt>
      <trkpt lat="45.00529" lon="5.70392">
        <ele>652.8</ele>
        <time>2021-05-29T05:57:22Z</time>
      </trkpt>
      <trkpt lat="45.0053" lon="5.70392">
        <ele>653.2</ele>
        <time>2021-05-29T05:57:23Z</time>
      </trkpt>
      <trkpt lat="45.00531" lon="5.70393">
        <ele>653.4</ele>
        <time>2021-05-29T05:57:24Z</time>
      </trkpt>
      <trkpt lat="45.00531" lon="5.70393">
        <ele>653.8</ele>
        <time>2021-05-29T05:57:25Z</time>
      </trkpt>
      <trkpt lat="45.00532" lon="5.70394">
        <ele>654.2</ele>
        <time>2021-05-29T05:57:26Z</time>
      </trkpt>
      <trkpt lat="45.00532" lon="5.70394">
        <ele>654.4</ele>
        <time>2021-05-29T05:57:27Z</time>
      </trkpt>
      <trkpt lat="45.00533" lon="5.70394">
        <ele>654.8</ele>
        <time>2021-05-29T05:57:28Z</time>
      </trkpt>
      <trkpt lat="45.00533" lon="5.70395">
        <ele>655</ele>
        <time>2021-05-29T05:57:29Z</time>
      </trkpt>
      <trkpt lat="45.00534" lon="5.70395">
        <ele>655.4</ele>
        <time>2021-05-29T05:57:30Z</time>
      </trkpt>
      <trkpt lat="45.00534" lon="5.70395">
        <ele>655.6</ele>
        <time>2021-05-29T05:57:31Z</time>
      </trkpt>
      <trkpt lat="45.00535" lon="5.70396">
        <ele>655.8</ele>
        <time>2021-05-29T05:57:32Z</time>
      </trkpt>
      <trkpt lat="45.00535" lon="5.70396">
        <ele>656</ele>
        <time>2021-05-29T05:57:33Z</time>
      </trkpt>
      <trkpt lat="45.00536" lon="5.70397">
        <ele>656.4</ele>
        <time>2021-05-29T05:57:34Z</time>
      </trkpt>
      <trkpt lat="45.00537" lon="5.70397">
        <ele>656.6</ele>
        <time>2021-05-29T05:57:35Z</time>
      </trkpt>
      <trkpt lat="45.00537" lon="5.70398">
        <ele>656.8</ele>
        <time>2021-05-29T05:57:36Z</time>
      </trkpt>
      <trkpt lat="45.00538" lon="5.70399">
        <ele>656.8</ele>
        <time>2021-05-29T05:57:37Z</time>
      </trkpt>
      <trkpt lat="45.00539" lon="5.704">
        <ele>657</ele>
        <time>2021-05-29T05:57:38Z</time>
      </trkpt>
      <trkpt lat="45.0054" lon="5.70401">
        <ele>657.2</ele>
        <time>2021-05-29T05:57:39Z</time>
      </trkpt>
      <trkpt lat="45.00541" lon="5.70402">
        <ele>657.6</ele>
        <time>2021-05-29T05:57:40Z</time>
      </trkpt>
      <trkpt lat="45.00542" lon="5.70403">
        <ele>657.8</ele>
        <time>2021-05-29T05:57:41Z</time>
      </trkpt>
      <trkpt lat="45.00543" lon="5.70404">
        <ele>658</ele>
        <time>2021-05-29T05:57:42Z</time>
      </trkpt>
      <trkpt lat="45.00543" lon="5.70405">
        <ele>658.2</ele>
        <time>2021-05-29T05:57:43Z</time>
      </trkpt>
      <trkpt lat="45.00544" lon="5.70405">
        <ele>658.4</ele>
        <time>2021-05-29T05:57:44Z</time>
      </trkpt>
      <trkpt lat="45.00545" lon="5.70406">
        <ele>658.4</ele>
        <time>2021-05-29T05:57:45Z</time>
      </trkpt>
      <trkpt lat="45.00545" lon="5.70407">
        <ele>658.6</ele>
        <time>2021-05-29T05:57:46Z</time>
      </trkpt>
      <trkpt lat="45.00546" lon="5.70407">
        <ele>658.8</ele>
        <time>2021-05-29T05:57:47Z</time>
      </trkpt>
      <trkpt lat="45.00546" lon="5.70408">
        <ele>659.2</ele>
        <time>2021-05-29T05:57:48Z</time>
      </trkpt>
      <trkpt lat="45.00547" lon="5.70408">
        <ele>659.2</ele>
        <time>2021-05-29T05:57:49Z</time>
      </trkpt>
      <trkpt lat="45.00547" lon="5.70409">
        <ele>659.4</ele>
        <time>2021-05-29T05:57:50Z</time>
      </trkpt>
      <trkpt lat="45.00548" lon="5.7041">
        <ele>659.8</ele>
        <time>2021-05-29T05:57:51Z</time>
      </trkpt>
      <trkpt lat="45.00548" lon="5.7041">
        <ele>660.2</ele>
        <time>2021-05-29T05:57:52Z</time>
      </trkpt>
      <trkpt lat="45.00549" lon="5.70411">
        <ele>660.6</ele>
        <time>2021-05-29T05:57:53Z</time>
      </trkpt>
      <trkpt lat="45.00549" lon="5.70411">
        <ele>660.6</ele>
        <time>2021-05-29T05:57:54Z</time>
      </trkpt>
      <trkpt lat="45.0055" lon="5.70412">
        <ele>661</ele>
        <time>2021-05-29T05:57:55Z</time>
      </trkpt>
      <trkpt lat="45.0055" lon="5.70412">
        <ele>661.2</ele>
        <time>2021-05-29T05:57:56Z</time>
      </trkpt>
      <trkpt lat="45.00551" lon="5.70413">
        <ele>661.4</ele>
        <time>2021-05-29T05:57:57Z</time>
      </trkpt>
      <trkpt lat="45.00551" lon="5.70414">
        <ele>661.6</ele>
        <time>2021-05-29T05:57:58Z</time>
      </trkpt>
      <trkpt lat="45.00552" lon="5.70414">
        <ele>661.8</ele>
        <time>2021-05-29T05:57:59Z</time>
      </trkpt>
      <trkpt lat="45.00553" lon="5.70415">
        <ele>662.2</ele>
        <time>2021-05-29T05:58:00Z</time>
      </trkpt>
      <trkpt lat="45.00553" lon="5.70416">
        <ele>662.4</ele>
        <time>2021-05-29T05:58:01Z</time>
      </trkpt>
      <trkpt lat="45.00554" lon="5.70417">
        <ele>662.4</ele>
        <time>2021-05-29T05:58:02Z</time>
      </trkpt>
      <trkpt lat="45.00554" lon="5.70418">
        <ele>662.6</ele>
        <time>2021-05-29T05:58:03Z</time>
      </trkpt>
      <trkpt lat="45.00555" lon="5.70419">
        <ele>663</ele>
        <time>2021-05-29T05:58:04Z</time>
      </trkpt>
      <trkpt lat="45.00556" lon="5.70419">
        <ele>663.2</ele>
        <time>2021-05-29T05:58:05Z</time>
      </trkpt>
      <trkpt lat="45.00556" lon="5.7042">
        <ele>663.6</ele>
        <time>2021-05-29T05:58:06Z</time>
      </trkpt>
      <trkpt lat="45.00557" lon="5.70421">
        <ele>663.8</ele>
        <time>2021-05-29T05:58:07Z</time>
      </trkpt>
      <trkpt lat="45.00557" lon="5.70422">
        <ele>664.2</ele>
        <time>2021-05-29T05:58:08Z</time>
      </trkpt>
      <trkpt lat="45.00558" lon="5.70423">
        <ele>664.6</ele>
        <time>2021-05-29T05:58:09Z</time>
      </trkpt>
      <trkpt lat="45.00559" lon="5.70423">
        <ele>664.8</ele>
        <time>2021-05-29T05:58:10Z</time>
      </trkpt>
      <trkpt lat="45.00559" lon="5.70423">
        <ele>665.4</ele>
        <time>2021-05-29T05:58:11Z</time>
      </trkpt>
      <trkpt lat="45.0056" lon="5.70422">
        <ele>666</ele>
        <time>2021-05-29T05:58:12Z</time>
      </trkpt>
      <trkpt lat="45.0056" lon="5.70422">
        <ele>665.8</ele>
        <time>2021-05-29T05:58:13Z</time>
      </trkpt>
      <trkpt lat="45.00561" lon="5.70422">
        <ele>665.8</ele>
        <time>2021-05-29T05:58:14Z</time>
      </trkpt>
      <trkpt lat="45.00561" lon="5.70422">
        <ele>666</ele>
        <time>2021-05-29T05:58:15Z</time>
      </trkpt>
      <trkpt lat="45.00562" lon="5.70422">
        <ele>666.2</ele>
        <time>2021-05-29T05:58:16Z</time>
      </trkpt>
      <trkpt lat="45.00563" lon="5.70422">
        <ele>666.6</ele>
        <time>2021-05-29T05:58:17Z</time>
      </trkpt>
      <trkpt lat="45.00563" lon="5.70422">
        <ele>666.6</ele>
        <time>2021-05-29T05:58:18Z</time>
      </trkpt>
      <trkpt lat="45.00564" lon="5.70422">
        <ele>666.8</ele>
        <time>2021-05-29T05:58:19Z</time>
      </trkpt>
      <trkpt lat="45.00564" lon="5.70421">
        <ele>667</ele>
        <time>2021-05-29T05:58:20Z</time>
      </trkpt>
      <trkpt lat="45.00565" lon="5.70421">
        <ele>667.2</ele>
        <time>2021-05-29T05:58:21Z</time>
      </trkpt>
      <trkpt lat="45.00565" lon="5.70421">
        <ele>667.4</ele>
        <time>2021-05-29T05:58:22Z</time>
      </trkpt>
      <trkpt lat="45.00566" lon="5.70421">
        <ele>667.6</ele>
        <time>2021-05-29T05:58:23Z</time>
      </trkpt>
      <trkpt lat="45.00566" lon="5.70421">
        <ele>667.8</ele>
        <time>2021-05-29T05:58:24Z</time>
      </trkpt>
      <trkpt lat="45.00567" lon="5.70421">
        <ele>668</ele>
        <time>2021-05-29T05:58:25Z</time>
      </trkpt>
      <trkpt lat="45.00568" lon="5.70421">
        <ele>668.4</ele>
        <time>2021-05-29T05:58:26Z</time>
      </trkpt>
      <trkpt lat="45.00568" lon="5.7042">
        <ele>668.6</ele>
        <time>2021-05-29T05:58:27Z</time>
      </trkpt>
      <trkpt lat="45.00569" lon="5.7042">
        <ele>668.8</ele>
        <time>2021-05-29T05:58:28Z</time>
      </trkpt>
      <trkpt lat="45.0057" lon="5.70419">
        <ele>669</ele>
        <time>2021-05-29T05:58:29Z</time>
      </trkpt>
      <trkpt lat="45.00571" lon="5.70418">
        <ele>669.4</ele>
        <time>2021-05-29T05:58:30Z</time>
      </trkpt>
      <trkpt lat="45.00572" lon="5.70418">
        <ele>669.6</ele>
        <time>2021-05-29T05:58:31Z</time>
      </trkpt>
      <trkpt lat="45.00573" lon="5.70417">
        <ele>669.8</ele>
        <time>2021-05-29T05:58:32Z</time>
      </trkpt>
      <trkpt lat="45.00574" lon="5.70417">
        <ele>670</ele>
        <time>2021-05-29T05:58:33Z</time>
      </trkpt>
      <trkpt lat="45.00575" lon="5.70416">
        <ele>670.4</ele>
        <time>2021-05-29T05:58:34Z</time>
      </trkpt>
      <trkpt lat="45.00576" lon="5.70416">
        <ele>670.8</ele>
        <time>2021-05-29T05:58:35Z</time>
      </trkpt>
      <trkpt lat="45.00577" lon="5.70415">
        <ele>670.8</ele>
        <time>2021-05-29T05:58:36Z</time>
      </trkpt>
      <trkpt lat="45.00578" lon="5.70413">
        <ele>671</ele>
        <time>2021-05-29T05:58:37Z</time>
      </trkpt>
      <trkpt lat="45.00579" lon="5.70412">
        <ele>671.2</ele>
        <time>2021-05-29T05:58:38Z</time>
      </trkpt>
      <trkpt lat="45.0058" lon="5.7041">
        <ele>671.4</ele>
        <time>2021-05-29T05:58:39Z</time>
      </trkpt>
      <trkpt lat="45.00581" lon="5.70408">
        <ele>671.6</ele>
        <time>2021-05-29T05:58:40Z</time>
      </trkpt>
      <trkpt lat="45.00582" lon="5.70407">
        <ele>671.8</ele>
        <time>2021-05-29T05:58:41Z</time>
      </trkpt>
      <trkpt lat="45.00583" lon="5.70405">
        <ele>672</ele>
        <time>2021-05-29T05:58:42Z</time>
      </trkpt>
      <trkpt lat="45.00584" lon="5.70404">
        <ele>672.2</ele>
        <time>2021-05-29T05:58:43Z</time>
      </trkpt>
      <trkpt lat="45.00586" lon="5.70404">
        <ele>672.4</ele>
        <time>2021-05-29T05:58:44Z</time>
      </trkpt>
      <trkpt lat="45.00587" lon="5.70405">
        <ele>672.6</ele>
        <time>2021-05-29T05:58:45Z</time>
      </trkpt>
      <trkpt lat="45.00588" lon="5.70406">
        <ele>672.6</ele>
        <time>2021-05-29T05:58:46Z</time>
      </trkpt>
      <trkpt lat="45.00589" lon="5.70406">
        <ele>672.8</ele>
        <time>2021-05-29T05:58:47Z</time>
      </trkpt>
      <trkpt lat="45.00591" lon="5.70407">
        <ele>673.2</ele>
        <time>2021-05-29T05:58:48Z</time>
      </trkpt>
      <trkpt lat="45.00592" lon="5.70407">
        <ele>673.4</ele>
        <time>2021-05-29T05:58:49Z</time>
      </trkpt>
      <trkpt lat="45.00593" lon="5.70408">
        <ele>673.8</ele>
        <time>2021-05-29T05:58:50Z</time>
      </trkpt>
      <trkpt lat="45.00594" lon="5.70409">
        <ele>674.2</ele>
        <time>2021-05-29T05:58:51Z</time>
      </trkpt>
      <trkpt lat="45.00595" lon="5.70409">
        <ele>674.6</ele>
        <time>2021-05-29T05:58:52Z</time>
      </trkpt>
      <trkpt lat="45.00596" lon="5.7041">
        <ele>674.8</ele>
        <time>2021-05-29T05:58:53Z</time>
      </trkpt>
      <trkpt lat="45.00597" lon="5.7041">
        <ele>675</ele>
        <time>2021-05-29T05:58:54Z</time>
      </trkpt>
      <trkpt lat="45.00597" lon="5.70411">
        <ele>675.2</ele>
        <time>2021-05-29T05:58:55Z</time>
      </trkpt>
      <trkpt lat="45.00598" lon="5.70411">
        <ele>675.4</ele>
        <time>2021-05-29T05:58:56Z</time>
      </trkpt>
      <trkpt lat="45.00599" lon="5.70412">
        <ele>675.6</ele>
        <time>2021-05-29T05:58:57Z</time>
      </trkpt>
      <trkpt lat="45.006" lon="5.70412">
        <ele>675.8</ele>
        <time>2021-05-29T05:58:58Z</time>
      </trkpt>
      <trkpt lat="45.00601" lon="5.70413">
        <ele>676.2</ele>
        <time>2021-05-29T05:58:59Z</time>
      </trkpt>
      <trkpt lat="45.00602" lon="5.70413">
        <ele>676.4</ele>
        <time>2021-05-29T05:59:00Z</time>
      </trkpt>
      <trkpt lat="45.00602" lon="5.70414">
        <ele>676.6</ele>
        <time>2021-05-29T05:59:01Z</time>
      </trkpt>
      <trkpt lat="45.00602" lon="5.70414">
        <ele>676.8</ele>
        <time>2021-05-29T05:59:02Z</time>
      </trkpt>
      <trkpt lat="45.00603" lon="5.70414">
        <ele>677.4</ele>
        <time>2021-05-29T05:59:03Z</time>
      </trkpt>
      <trkpt lat="45.00603" lon="5.70414">
        <ele>677.6</ele>
        <time>2021-05-29T05:59:04Z</time>
      </trkpt>
      <trkpt lat="45.00604" lon="5.70415">
        <ele>677.8</ele>
        <time>2021-05-29T05:59:05Z</time>
      </trkpt>
      <trkpt lat="45.00604" lon="5.70415">
        <ele>678</ele>
        <time>2021-05-29T05:59:06Z</time>
      </trkpt>
      <trkpt lat="45.00604" lon="5.70415">
        <ele>678.2</ele>
        <time>2021-05-29T05:59:07Z</time>
      </trkpt>
      <trkpt lat="45.00605" lon="5.70415">
        <ele>678.6</ele>
        <time>2021-05-29T05:59:08Z</time>
      </trkpt>
      <trkpt lat="45.00605" lon="5.70416">
        <ele>678.8</ele>
        <time>2021-05-29T05:59:09Z</time>
      </trkpt>
      <trkpt lat="45.00605" lon="5.70416">
        <ele>679.2</ele>
        <time>2021-05-29T05:59:10Z</time>
      </trkpt>
      <trkpt lat="45.00606" lon="5.70416">
        <ele>679.4</ele>
        <time>2021-05-29T05:59:11Z</time>
      </trkpt>
      <trkpt lat="45.00606" lon="5.70416">
        <ele>679.8</ele>
        <time>2021-05-29T05:59:12Z</time>
      </trkpt>
      <trkpt lat="45.00607" lon="5.70417">
        <ele>680</ele>
        <time>2021-05-29T05:59:13Z</time>
      </trkpt>
      <trkpt lat="45.00607" lon="5.70417">
        <ele>680</ele>
        <time>2021-05-29T05:59:14Z</time>
      </trkpt>
      <trkpt lat="45.00607" lon="5.70417">
        <ele>680.2</ele>
        <time>2021-05-29T05:59:15Z</time>
      </trkpt>
      <trkpt lat="45.00608" lon="5.70417">
        <ele>680.6</ele>
        <time>2021-05-29T05:59:16Z</time>
      </trkpt>
      <trkpt lat="45.00608" lon="5.70418">
        <ele>681</ele>
        <time>2021-05-29T05:59:17Z</time>
      </trkpt>
      <trkpt lat="45.00609" lon="5.70418">
        <ele>681</ele>
        <time>2021-05-29T05:59:18Z</time>
      </trkpt>
      <trkpt lat="45.00609" lon="5.70418">
        <ele>681.2</ele>
        <time>2021-05-29T05:59:19Z</time>
      </trkpt>
      <trkpt lat="45.00609" lon="5.70418">
        <ele>681.6</ele>
        <time>2021-05-29T05:59:20Z</time>
      </trkpt>
      <trkpt lat="45.0061" lon="5.70419">
        <ele>681.8</ele>
        <time>2021-05-29T05:59:21Z</time>
      </trkpt>
      <trkpt lat="45.0061" lon="5.70419">
        <ele>682.2</ele>
        <time>2021-05-29T05:59:22Z</time>
      </trkpt>
      <trkpt lat="45.00611" lon="5.70419">
        <ele>682.4</ele>
        <time>2021-05-29T05:59:23Z</time>
      </trkpt>
      <trkpt lat="45.00612" lon="5.7042">
        <ele>682.4</ele>
        <time>2021-05-29T05:59:24Z</time>
      </trkpt>
      <trkpt lat="45.00612" lon="5.7042">
        <ele>682.6</ele>
        <time>2021-05-29T05:59:25Z</time>
      </trkpt>
      <trkpt lat="45.00613" lon="5.7042">
        <ele>682.8</ele>
        <time>2021-05-29T05:59:26Z</time>
      </trkpt>
      <trkpt lat="45.00614" lon="5.70421">
        <ele>683</ele>
        <time>2021-05-29T05:59:27Z</time>
      </trkpt>
      <trkpt lat="45.00615" lon="5.70421">
        <ele>683.4</ele>
        <time>2021-05-29T05:59:28Z</time>
      </trkpt>
      <trkpt lat="45.00615" lon="5.70421">
        <ele>683.8</ele>
        <time>2021-05-29T05:59:29Z</time>
      </trkpt>
      <trkpt lat="45.00616" lon="5.70422">
        <ele>683.8</ele>
        <time>2021-05-29T05:59:30Z</time>
      </trkpt>
      <trkpt lat="45.00617" lon="5.70422">
        <ele>684</ele>
        <time>2021-05-29T05:59:31Z</time>
      </trkpt>
      <trkpt lat="45.00618" lon="5.70422">
        <ele>684.2</ele>
        <time>2021-05-29T05:59:32Z</time>
      </trkpt>
      <trkpt lat="45.00618" lon="5.70423">
        <ele>684.6</ele>
        <time>2021-05-29T05:59:33Z</time>
      </trkpt>
      <trkpt lat="45.00619" lon="5.70423">
        <ele>685</ele>
        <time>2021-05-29T05:59:34Z</time>
      </trkpt>
      <trkpt lat="45.0062" lon="5.70423">
        <ele>685.4</ele>
        <time>2021-05-29T05:59:35Z</time>
      </trkpt>
      <trkpt lat="45.00622" lon="5.70424">
        <ele>685.6</ele>
        <time>2021-05-29T05:59:36Z</time>
      </trkpt>
      <trkpt lat="45.00623" lon="5.70424">
        <ele>685.8</ele>
        <time>2021-05-29T05:59:37Z</time>
      </trkpt>
      <trkpt lat="45.00624" lon="5.70424">
        <ele>686</ele>
        <time>2021-05-29T05:59:38Z</time>
      </trkpt>
      <trkpt lat="45.00625" lon="5.70425">
        <ele>686</ele>
        <time>2021-05-29T05:59:39Z</time>
      </trkpt>
      <trkpt lat="45.00626" lon="5.70425">
        <ele>686.2</ele>
        <time>2021-05-29T05:59:40Z</time>
      </trkpt>
      <trkpt lat="45.00627" lon="5.70425">
        <ele>686.4</ele>
        <time>2021-05-29T05:59:41Z</time>
      </trkpt>
      <trkpt lat="45.00629" lon="5.70426">
        <ele>686.8</ele>
        <time>2021-05-29T05:59:42Z</time>
      </trkpt>
      <trkpt lat="45.0063" lon="5.70426">
        <ele>687</ele>
        <time>2021-05-29T05:59:43Z</time>
      </trkpt>
      <trkpt lat="45.00631" lon="5.70427">
        <ele>687.4</ele>
        <time>2021-05-29T05:59:44Z</time>
      </trkpt>
      <trkpt lat="45.00633" lon="5.70427">
        <ele>687.6</ele>
        <time>2021-05-29T05:59:45Z</time>
      </trkpt>
      <trkpt lat="45.00634" lon="5.70428">
        <ele>687.8</ele>
        <time>2021-05-29T05:59:46Z</time>
      </trkpt>
      <trkpt lat="45.00635" lon="5.70428">
        <ele>688</ele>
        <time>2021-05-29T05:59:47Z</time>
      </trkpt>
      <trkpt lat="45.00637" lon="5.70429">
        <ele>688</ele>
        <time>2021-05-29T05:59:48Z</time>
      </trkpt>
      <trkpt lat="45.00638" lon="5.70429">
        <ele>688.2</ele>
        <time>2021-05-29T05:59:49Z</time>
      </trkpt>
      <trkpt lat="45.00639" lon="5.7043">
        <ele>688.6</ele>
        <time>2021-05-29T05:59:50Z</time>
      </trkpt>
      <trkpt lat="45.0064" lon="5.7043">
        <ele>688.8</ele>
        <time>2021-05-29T05:59:51Z</time>
      </trkpt>
      <trkpt lat="45.00643" lon="5.70429">
        <ele>689.2</ele>
        <time>2021-05-29T05:59:52Z</time>
      </trkpt>
      <trkpt lat="45.00643" lon="5.70429">
        <ele>689.4</ele>
        <time>2021-05-29T05:59:53Z</time>
      </trkpt>
      <trkpt lat="45.00643" lon="5.70429">
        <ele>689.4</ele>
        <time>2021-05-29T05:59:54Z</time>
      </trkpt>
      <trkpt lat="45.00643" lon="5.70429">
        <ele>689.4</ele>
        <time>2021-05-29T05:59:55Z</time>
      </trkpt>
      <trkpt lat="45.00643" lon="5.70429">
        <ele>689.8</ele>
        <time>2021-05-29T05:59:56Z</time>
      </trkpt>
      <trkpt lat="45.00644" lon="5.70429">
        <ele>690</ele>
        <time>2021-05-29T05:59:57Z</time>
      </trkpt>
      <trkpt lat="45.00644" lon="5.70429">
        <ele>690.4</ele>
        <time>2021-05-29T05:59:58Z</time>
      </trkpt>
      <trkpt lat="45.00645" lon="5.7043">
        <ele>691</ele>
        <time>2021-05-29T06:00:00Z</time>
      </trkpt>
      <trkpt lat="45.00646" lon="5.7043">
        <ele>691.2</ele>
        <time>2021-05-29T06:00:01Z</time>
      </trkpt>
      <trkpt lat="45.00646" lon="5.7043">
        <ele>691.4</ele>
        <time>2021-05-29T06:00:02Z</time>
      </trkpt>
      <trkpt lat="45.00647" lon="5.70431">
        <ele>691.4</ele>
        <time>2021-05-29T06:00:03Z</time>
      </trkpt>
      <trkpt lat="45.00647" lon="5.70431">
        <ele>691.6</ele>
        <time>2021-05-29T06:00:04Z</time>
      </trkpt>
      <trkpt lat="45.00648" lon="5.70431">
        <ele>691.8</ele>
        <time>2021-05-29T06:00:05Z</time>
      </trkpt>
      <trkpt lat="45.00649" lon="5.70431">
        <ele>692.2</ele>
        <time>2021-05-29T06:00:06Z</time>
      </trkpt>
      <trkpt lat="45.00649" lon="5.70432">
        <ele>692.8</ele>
        <time>2021-05-29T06:00:07Z</time>
      </trkpt>
      <trkpt lat="45.0065" lon="5.70432">
        <ele>693</ele>
        <time>2021-05-29T06:00:08Z</time>
      </trkpt>
      <trkpt lat="45.0065" lon="5.70432">
        <ele>693.2</ele>
        <time>2021-05-29T06:00:09Z</time>
      </trkpt>
      <trkpt lat="45.00651" lon="5.70433">
        <ele>693.2</ele>
        <time>2021-05-29T06:00:10Z</time>
      </trkpt>
      <trkpt lat="45.00651" lon="5.70433">
        <ele>693.4</ele>
        <time>2021-05-29T06:00:11Z</time>
      </trkpt>
      <trkpt lat="45.00652" lon="5.70433">
        <ele>693.6</ele>
        <time>2021-05-29T06:00:12Z</time>
      </trkpt>
      <trkpt lat="45.00653" lon="5.70433">
        <ele>694</ele>
        <time>2021-05-29T06:00:13Z</time>
      </trkpt>
      <trkpt lat="45.00653" lon="5.70434">
        <ele>694.4</ele>
        <time>2021-05-29T06:00:14Z</time>
      </trkpt>
      <trkpt lat="45.00654" lon="5.70434">
        <ele>694.6</ele>
        <time>2021-05-29T06:00:15Z</time>
      </trkpt>
      <trkpt lat="45.00654" lon="5.70435">
        <ele>694.8</ele>
        <time>2021-05-29T06:00:16Z</time>
      </trkpt>
      <trkpt lat="45.00655" lon="5.70435">
        <ele>695</ele>
        <time>2021-05-29T06:00:17Z</time>
      </trkpt>
      <trkpt lat="45.00655" lon="5.70436">
        <ele>695.2</ele>
        <time>2021-05-29T06:00:18Z</time>
      </trkpt>
      <trkpt lat="45.00656" lon="5.70436">
        <ele>695.6</ele>
        <time>2021-05-29T06:00:19Z</time>
      </trkpt>
      <trkpt lat="45.00656" lon="5.70437">
        <ele>695.8</ele>
        <time>2021-05-29T06:00:20Z</time>
      </trkpt>
      <trkpt lat="45.00656" lon="5.70437">
        <ele>696</ele>
        <time>2021-05-29T06:00:21Z</time>
      </trkpt>
      <trkpt lat="45.00657" lon="5.70438">
        <ele>696</ele>
        <time>2021-05-29T06:00:22Z</time>
      </trkpt>
      <trkpt lat="45.00657" lon="5.70438">
        <ele>696.2</ele>
        <time>2021-05-29T06:00:23Z</time>
      </trkpt>
      <trkpt lat="45.00658" lon="5.70439">
        <ele>696.6</ele>
        <time>2021-05-29T06:00:24Z</time>
      </trkpt>
      <trkpt lat="45.00658" lon="5.70439">
        <ele>696.6</ele>
        <time>2021-05-29T06:00:25Z</time>
      </trkpt>
      <trkpt lat="45.00659" lon="5.7044">
        <ele>696.8</ele>
        <time>2021-05-29T06:00:26Z</time>
      </trkpt>
      <trkpt lat="45.00659" lon="5.7044">
        <ele>697</ele>
        <time>2021-05-29T06:00:27Z</time>
      </trkpt>
      <trkpt lat="45.0066" lon="5.7044">
        <ele>697.4</ele>
        <time>2021-05-29T06:00:28Z</time>
      </trkpt>
      <trkpt lat="45.0066" lon="5.70441">
        <ele>697.8</ele>
        <time>2021-05-29T06:00:29Z</time>
      </trkpt>
      <trkpt lat="45.00661" lon="5.70441">
        <ele>698</ele>
        <time>2021-05-29T06:00:30Z</time>
      </trkpt>
      <trkpt lat="45.00661" lon="5.70442">
        <ele>698.2</ele>
        <time>2021-05-29T06:00:31Z</time>
      </trkpt>
      <trkpt lat="45.00661" lon="5.70443">
        <ele>698.4</ele>
        <time>2021-05-29T06:00:32Z</time>
      </trkpt>
      <trkpt lat="45.00661" lon="5.70443">
        <ele>698.8</ele>
        <time>2021-05-29T06:00:33Z</time>
      </trkpt>
      <trkpt lat="45.00662" lon="5.70444">
        <ele>698.8</ele>
        <time>2021-05-29T06:00:34Z</time>
      </trkpt>
      <trkpt lat="45.00662" lon="5.70445">
        <ele>699.2</ele>
        <time>2021-05-29T06:00:35Z</time>
      </trkpt>
      <trkpt lat="45.00662" lon="5.70445">
        <ele>699.4</ele>
        <time>2021-05-29T06:00:36Z</time>
      </trkpt>
      <trkpt lat="45.00662" lon="5.70446">
        <ele>699.8</ele>
        <time>2021-05-29T06:00:37Z</time>
      </trkpt>
      <trkpt lat="45.00662" lon="5.70447">
        <ele>700</ele>
        <time>2021-05-29T06:00:38Z</time>
      </trkpt>
      <trkpt lat="45.00662" lon="5.70448">
        <ele>700</ele>
        <time>2021-05-29T06:00:39Z</time>
      </trkpt>
      <trkpt lat="45.00663" lon="5.70448">
        <ele>700.4</ele>
        <time>2021-05-29T06:00:40Z</time>
      </trkpt>
      <trkpt lat="45.00663" lon="5.70449">
        <ele>700.6</ele>
        <time>2021-05-29T06:00:41Z</time>
      </trkpt>
      <trkpt lat="45.00663" lon="5.7045">
        <ele>700.8</ele>
        <time>2021-05-29T06:00:42Z</time>
      </trkpt>
      <trkpt lat="45.00663" lon="5.7045">
        <ele>701</ele>
        <time>2021-05-29T06:00:43Z</time>
      </trkpt>
      <trkpt lat="45.00663" lon="5.70451">
        <ele>701.2</ele>
        <time>2021-05-29T06:00:44Z</time>
      </trkpt>
      <trkpt lat="45.00663" lon="5.70452">
        <ele>701.6</ele>
        <time>2021-05-29T06:00:45Z</time>
      </trkpt>
      <trkpt lat="45.00664" lon="5.70453">
        <ele>701.6</ele>
        <time>2021-05-29T06:00:46Z</time>
      </trkpt>
      <trkpt lat="45.00664" lon="5.70453">
        <ele>701.8</ele>
        <time>2021-05-29T06:00:47Z</time>
      </trkpt>
      <trkpt lat="45.00664" lon="5.70454">
        <ele>702</ele>
        <time>2021-05-29T06:00:48Z</time>
      </trkpt>
      <trkpt lat="45.00663" lon="5.70455">
        <ele>702.4</ele>
        <time>2021-05-29T06:00:49Z</time>
      </trkpt>
      <trkpt lat="45.00663" lon="5.70456">
        <ele>702.6</ele>
        <time>2021-05-29T06:00:50Z</time>
      </trkpt>
      <trkpt lat="45.00663" lon="5.70456">
        <ele>702.8</ele>
        <time>2021-05-29T06:00:51Z</time>
      </trkpt>
      <trkpt lat="45.00663" lon="5.70457">
        <ele>703.2</ele>
        <time>2021-05-29T06:00:52Z</time>
      </trkpt>
      <trkpt lat="45.00662" lon="5.70458">
        <ele>703.4</ele>
        <time>2021-05-29T06:00:53Z</time>
      </trkpt>
      <trkpt lat="45.00662" lon="5.70459">
        <ele>703.6</ele>
        <time>2021-05-29T06:00:54Z</time>
      </trkpt>
      <trkpt lat="45.00662" lon="5.7046">
        <ele>703.8</ele>
        <time>2021-05-29T06:00:55Z</time>
      </trkpt>
      <trkpt lat="45.00662" lon="5.7046">
        <ele>704</ele>
        <time>2021-05-29T06:00:56Z</time>
      </trkpt>
      <trkpt lat="45.00662" lon="5.70461">
        <ele>704.4</ele>
        <time>2021-05-29T06:00:57Z</time>
      </trkpt>
      <trkpt lat="45.00661" lon="5.70462">
        <ele>704.6</ele>
        <time>2021-05-29T06:00:58Z</time>
      </trkpt>
      <trkpt lat="45.00661" lon="5.70463">
        <ele>704.8</ele>
        <time>2021-05-29T06:00:59Z</time>
      </trkpt>
      <trkpt lat="45.00661" lon="5.70464">
        <ele>705</ele>
        <time>2021-05-29T06:01:00Z</time>
      </trkpt>
      <trkpt lat="45.00661" lon="5.70464">
        <ele>705.4</ele>
        <time>2021-05-29T06:01:01Z</time>
      </trkpt>
      <trkpt lat="45.00661" lon="5.70465">
        <ele>705.6</ele>
        <time>2021-05-29T06:01:02Z</time>
      </trkpt>
      <trkpt lat="45.00661" lon="5.70466">
        <ele>705.8</ele>
        <time>2021-05-29T06:01:03Z</time>
      </trkpt>
      <trkpt lat="45.00661" lon="5.70467">
        <ele>706</ele>
        <time>2021-05-29T06:01:04Z</time>
      </trkpt>
      <trkpt lat="45.00661" lon="5.70468">
        <ele>706.2</ele>
        <time>2021-05-29T06:01:05Z</time>
      </trkpt>
      <trkpt lat="45.00661" lon="5.70469">
        <ele>706.4</ele>
        <time>2021-05-29T06:01:06Z</time>
      </trkpt>
      <trkpt lat="45.00661" lon="5.7047">
        <ele>706.6</ele>
        <time>2021-05-29T06:01:07Z</time>
      </trkpt>
      <trkpt lat="45.00661" lon="5.70471">
        <ele>706.8</ele>
        <time>2021-05-29T06:01:08Z</time>
      </trkpt>
      <trkpt lat="45.00661" lon="5.70472">
        <ele>707.2</ele>
        <time>2021-05-29T06:01:09Z</time>
      </trkpt>
      <trkpt lat="45.00661" lon="5.70473">
        <ele>707.4</ele>
        <time>2021-05-29T06:01:10Z</time>
      </trkpt>
      <trkpt lat="45.00661" lon="5.70474">
        <ele>707.6</ele>
        <time>2021-05-29T06:01:11Z</time>
      </trkpt>
      <trkpt lat="45.00662" lon="5.70475">
        <ele>707.8</ele>
        <time>2021-05-29T06:01:12Z</time>
      </trkpt>
      <trkpt lat="45.00662" lon="5.70475">
        <ele>708.2</ele>
        <time>2021-05-29T06:01:13Z</time>
      </trkpt>
      <trkpt lat="45.00662" lon="5.70476">
        <ele>708.4</ele>
        <time>2021-05-29T06:01:14Z</time>
      </trkpt>
      <trkpt lat="45.00662" lon="5.70477">
        <ele>708.6</ele>
        <time>2021-05-29T06:01:15Z</time>
      </trkpt>
      <trkpt lat="45.00662" lon="5.70478">
        <ele>708.8</ele>
        <time>2021-05-29T06:01:16Z</time>
      </trkpt>
      <trkpt lat="45.00664" lon="5.7048">
        <ele>709.2</ele>
        <time>2021-05-29T06:01:17Z</time>
      </trkpt>
      <trkpt lat="45.00666" lon="5.70482">
        <ele>709.4</ele>
        <time>2021-05-29T06:01:18Z</time>
      </trkpt>
      <trkpt lat="45.00668" lon="5.70484">
        <ele>709.6</ele>
        <time>2021-05-29T06:01:19Z</time>
      </trkpt>
      <trkpt lat="45.0067" lon="5.70486">
        <ele>709.8</ele>
        <time>2021-05-29T06:01:20Z</time>
      </trkpt>
      <trkpt lat="45.00671" lon="5.70487">
        <ele>710.2</ele>
        <time>2021-05-29T06:01:21Z</time>
      </trkpt>
      <trkpt lat="45.00672" lon="5.70489">
        <ele>710.4</ele>
        <time>2021-05-29T06:01:22Z</time>
      </trkpt>
      <trkpt lat="45.00673" lon="5.70491">
        <ele>710.6</ele>
        <time>2021-05-29T06:01:23Z</time>
      </trkpt>
      <trkpt lat="45.00674" lon="5.70493">
        <ele>710.8</ele>
        <time>2021-05-29T06:01:24Z</time>
      </trkpt>
      <trkpt lat="45.00675" lon="5.70495">
        <ele>711</ele>
        <time>2021-05-29T06:01:25Z</time>
      </trkpt>
      <trkpt lat="45.00676" lon="5.70497">
        <ele>711</ele>
        <time>2021-05-29T06:01:26Z</time>
      </trkpt>
      <trkpt lat="45.00677" lon="5.70498">
        <ele>711.2</ele>
        <time>2021-05-29T06:01:27Z</time>
      </trkpt>
      <trkpt lat="45.00678" lon="5.70499">
        <ele>711.4</ele>
        <time>2021-05-29T06:01:28Z</time>
      </trkpt>
      <trkpt lat="45.0068" lon="5.705">
        <ele>711.6</ele>
        <time>2021-05-29T06:01:29Z</time>
      </trkpt>
      <trkpt lat="45.00681" lon="5.70501">
        <ele>711.8</ele>
        <time>2021-05-29T06:01:30Z</time>
      </trkpt>
      <trkpt lat="45.00682" lon="5.70503">
        <ele>712</ele>
        <time>2021-05-29T06:01:31Z</time>
      </trkpt>
      <trkpt lat="45.00684" lon="5.70504">
        <ele>712.4</ele>
        <time>2021-05-29T06:01:32Z</time>
      </trkpt>
      <trkpt lat="45.00684" lon="5.70505">
        <ele>712.4</ele>
        <time>2021-05-29T06:01:33Z</time>
      </trkpt>
      <trkpt lat="45.00685" lon="5.70506">
        <ele>712.8</ele>
        <time>2021-05-29T06:01:34Z</time>
      </trkpt>
      <trkpt lat="45.00685" lon="5.70508">
        <ele>713</ele>
        <time>2021-05-29T06:01:35Z</time>
      </trkpt>
      <trkpt lat="45.00686" lon="5.70509">
        <ele>713.4</ele>
        <time>2021-05-29T06:01:36Z</time>
      </trkpt>
      <trkpt lat="45.00687" lon="5.7051">
        <ele>713.6</ele>
        <time>2021-05-29T06:01:37Z</time>
      </trkpt>
      <trkpt lat="45.00687" lon="5.70512">
        <ele>713.8</ele>
        <time>2021-05-29T06:01:38Z</time>
      </trkpt>
      <trkpt lat="45.00688" lon="5.70513">
        <ele>714</ele>
        <time>2021-05-29T06:01:39Z</time>
      </trkpt>
      <trkpt lat="45.00689" lon="5.70514">
        <ele>714.4</ele>
        <time>2021-05-29T06:01:40Z</time>
      </trkpt>
      <trkpt lat="45.00689" lon="5.70516">
        <ele>714.6</ele>
        <time>2021-05-29T06:01:41Z</time>
      </trkpt>
      <trkpt lat="45.0069" lon="5.70517">
        <ele>714.8</ele>
        <time>2021-05-29T06:01:42Z</time>
      </trkpt>
      <trkpt lat="45.00691" lon="5.70518">
        <ele>715.2</ele>
        <time>2021-05-29T06:01:43Z</time>
      </trkpt>
      <trkpt lat="45.00692" lon="5.70519">
        <ele>715.4</ele>
        <time>2021-05-29T06:01:44Z</time>
      </trkpt>
      <trkpt lat="45.00693" lon="5.70521">
        <ele>715.6</ele>
        <time>2021-05-29T06:01:45Z</time>
      </trkpt>
      <trkpt lat="45.00694" lon="5.70522">
        <ele>716</ele>
        <time>2021-05-29T06:01:46Z</time>
      </trkpt>
      <trkpt lat="45.00695" lon="5.70523">
        <ele>716.2</ele>
        <time>2021-05-29T06:01:47Z</time>
      </trkpt>
      <trkpt lat="45.00696" lon="5.70525">
        <ele>716.4</ele>
        <time>2021-05-29T06:01:48Z</time>
      </trkpt>
      <trkpt lat="45.00697" lon="5.70525">
        <ele>716.8</ele>
        <time>2021-05-29T06:01:49Z</time>
      </trkpt>
      <trkpt lat="45.00698" lon="5.70526">
        <ele>717.2</ele>
        <time>2021-05-29T06:01:50Z</time>
      </trkpt>
      <trkpt lat="45.00698" lon="5.70526">
        <ele>717.6</ele>
        <time>2021-05-29T06:01:51Z</time>
      </trkpt>
      <trkpt lat="45.00699" lon="5.70527">
        <ele>717.6</ele>
        <time>2021-05-29T06:01:52Z</time>
      </trkpt>
      <trkpt lat="45.007" lon="5.70528">
        <ele>717.8</ele>
        <time>2021-05-29T06:01:53Z</time>
      </trkpt>
      <trkpt lat="45.00701" lon="5.70528">
        <ele>717.8</ele>
        <time>2021-05-29T06:01:54Z</time>
      </trkpt>
      <trkpt lat="45.00702" lon="5.70529">
        <ele>717.8</ele>
        <time>2021-05-29T06:01:55Z</time>
      </trkpt>
      <trkpt lat="45.00702" lon="5.7053">
        <ele>718.4</ele>
        <time>2021-05-29T06:01:56Z</time>
      </trkpt>
      <trkpt lat="45.00703" lon="5.7053">
        <ele>718.6</ele>
        <time>2021-05-29T06:01:57Z</time>
      </trkpt>
      <trkpt lat="45.00704" lon="5.70531">
        <ele>719.2</ele>
        <time>2021-05-29T06:01:58Z</time>
      </trkpt>
      <trkpt lat="45.00705" lon="5.70532">
        <ele>719.4</ele>
        <time>2021-05-29T06:01:59Z</time>
      </trkpt>
      <trkpt lat="45.00706" lon="5.70532">
        <ele>719.4</ele>
        <time>2021-05-29T06:02:00Z</time>
      </trkpt>
      <trkpt lat="45.00708" lon="5.70533">
        <ele>719.6</ele>
        <time>2021-05-29T06:02:01Z</time>
      </trkpt>
      <trkpt lat="45.00709" lon="5.70534">
        <ele>719.6</ele>
        <time>2021-05-29T06:02:02Z</time>
      </trkpt>
      <trkpt lat="45.0071" lon="5.70535">
        <ele>719.6</ele>
        <time>2021-05-29T06:02:03Z</time>
      </trkpt>
      <trkpt lat="45.00712" lon="5.70535">
        <ele>719.8</ele>
        <time>2021-05-29T06:02:04Z</time>
      </trkpt>
      <trkpt lat="45.00713" lon="5.70536">
        <ele>720</ele>
        <time>2021-05-29T06:02:05Z</time>
      </trkpt>
      <trkpt lat="45.00714" lon="5.70537">
        <ele>720.4</ele>
        <time>2021-05-29T06:02:06Z</time>
      </trkpt>
      <trkpt lat="45.00715" lon="5.70537">
        <ele>720.8</ele>
        <time>2021-05-29T06:02:07Z</time>
      </trkpt>
      <trkpt lat="45.00715" lon="5.70538">
        <ele>720.8</ele>
        <time>2021-05-29T06:02:08Z</time>
      </trkpt>
      <trkpt lat="45.00716" lon="5.70539">
        <ele>721</ele>
        <time>2021-05-29T06:02:09Z</time>
      </trkpt>
      <trkpt lat="45.00716" lon="5.70539">
        <ele>721.2</ele>
        <time>2021-05-29T06:02:10Z</time>
      </trkpt>
      <trkpt lat="45.00717" lon="5.7054">
        <ele>721.4</ele>
        <time>2021-05-29T06:02:11Z</time>
      </trkpt>
      <trkpt lat="45.00718" lon="5.7054">
        <ele>721.6</ele>
        <time>2021-05-29T06:02:12Z</time>
      </trkpt>
      <trkpt lat="45.00718" lon="5.70541">
        <ele>721.8</ele>
        <time>2021-05-29T06:02:13Z</time>
      </trkpt>
      <trkpt lat="45.00719" lon="5.70541">
        <ele>722</ele>
        <time>2021-05-29T06:02:14Z</time>
      </trkpt>
      <trkpt lat="45.0072" lon="5.70542">
        <ele>722.2</ele>
        <time>2021-05-29T06:02:15Z</time>
      </trkpt>
      <trkpt lat="45.0072" lon="5.70543">
        <ele>722.6</ele>
        <time>2021-05-29T06:02:16Z</time>
      </trkpt>
      <trkpt lat="45.00721" lon="5.70543">
        <ele>722.8</ele>
        <time>2021-05-29T06:02:17Z</time>
      </trkpt>
      <trkpt lat="45.00721" lon="5.70544">
        <ele>723</ele>
        <time>2021-05-29T06:02:18Z</time>
      </trkpt>
      <trkpt lat="45.00722" lon="5.70545">
        <ele>723.2</ele>
        <time>2021-05-29T06:02:19Z</time>
      </trkpt>
      <trkpt lat="45.00723" lon="5.70546">
        <ele>723.4</ele>
        <time>2021-05-29T06:02:20Z</time>
      </trkpt>
      <trkpt lat="45.00724" lon="5.70547">
        <ele>723.8</ele>
        <time>2021-05-29T06:02:21Z</time>
      </trkpt>
      <trkpt lat="45.00725" lon="5.70548">
        <ele>724.2</ele>
        <time>2021-05-29T06:02:22Z</time>
      </trkpt>
      <trkpt lat="45.00726" lon="5.7055">
        <ele>724.2</ele>
        <time>2021-05-29T06:02:23Z</time>
      </trkpt>
      <trkpt lat="45.00727" lon="5.70551">
        <ele>724.4</ele>
        <time>2021-05-29T06:02:24Z</time>
      </trkpt>
      <trkpt lat="45.00728" lon="5.70552">
        <ele>724.8</ele>
        <time>2021-05-29T06:02:25Z</time>
      </trkpt>
      <trkpt lat="45.00729" lon="5.70553">
        <ele>725</ele>
        <time>2021-05-29T06:02:26Z</time>
      </trkpt>
      <trkpt lat="45.0073" lon="5.70554">
        <ele>725.4</ele>
        <time>2021-05-29T06:02:27Z</time>
      </trkpt>
      <trkpt lat="45.0073" lon="5.70555">
        <ele>725.6</ele>
        <time>2021-05-29T06:02:28Z</time>
      </trkpt>
      <trkpt lat="45.00731" lon="5.70556">
        <ele>725.8</ele>
        <time>2021-05-29T06:02:29Z</time>
      </trkpt>
      <trkpt lat="45.00732" lon="5.70557">
        <ele>726</ele>
        <time>2021-05-29T06:02:30Z</time>
      </trkpt>
      <trkpt lat="45.00732" lon="5.70558">
        <ele>726.2</ele>
        <time>2021-05-29T06:02:31Z</time>
      </trkpt>
      <trkpt lat="45.00733" lon="5.70559">
        <ele>726.4</ele>
        <time>2021-05-29T06:02:32Z</time>
      </trkpt>
      <trkpt lat="45.00734" lon="5.7056">
        <ele>726.6</ele>
        <time>2021-05-29T06:02:33Z</time>
      </trkpt>
      <trkpt lat="45.00735" lon="5.70561">
        <ele>726.8</ele>
        <time>2021-05-29T06:02:34Z</time>
      </trkpt>
      <trkpt lat="45.00735" lon="5.70562">
        <ele>727</ele>
        <time>2021-05-29T06:02:35Z</time>
      </trkpt>
      <trkpt lat="45.00736" lon="5.70563">
        <ele>727.4</ele>
        <time>2021-05-29T06:02:36Z</time>
      </trkpt>
      <trkpt lat="45.00737" lon="5.70564">
        <ele>727.6</ele>
        <time>2021-05-29T06:02:37Z</time>
      </trkpt>
      <trkpt lat="45.00738" lon="5.70565">
        <ele>728</ele>
        <time>2021-05-29T06:02:38Z</time>
      </trkpt>
      <trkpt lat="45.00739" lon="5.70566">
        <ele>728.2</ele>
        <time>2021-05-29T06:02:39Z</time>
      </trkpt>
      <trkpt lat="45.0074" lon="5.70567">
        <ele>728.4</ele>
        <time>2021-05-29T06:02:40Z</time>
      </trkpt>
      <trkpt lat="45.00741" lon="5.70568">
        <ele>728.8</ele>
        <time>2021-05-29T06:02:41Z</time>
      </trkpt>
      <trkpt lat="45.00742" lon="5.70569">
        <ele>729</ele>
        <time>2021-05-29T06:02:42Z</time>
      </trkpt>
      <trkpt lat="45.00743" lon="5.7057">
        <ele>729.2</ele>
        <time>2021-05-29T06:02:43Z</time>
      </trkpt>
      <trkpt lat="45.00744" lon="5.70571">
        <ele>729.4</ele>
        <time>2021-05-29T06:02:44Z</time>
      </trkpt>
      <trkpt lat="45.00744" lon="5.70573">
        <ele>729.6</ele>
        <time>2021-05-29T06:02:45Z</time>
      </trkpt>
      <trkpt lat="45.00745" lon="5.70574">
        <ele>729.6</ele>
        <time>2021-05-29T06:02:46Z</time>
      </trkpt>
      <trkpt lat="45.00746" lon="5.70575">
        <ele>730</ele>
        <time>2021-05-29T06:02:47Z</time>
      </trkpt>
      <trkpt lat="45.00747" lon="5.70576">
        <ele>730.2</ele>
        <time>2021-05-29T06:02:48Z</time>
      </trkpt>
      <trkpt lat="45.00747" lon="5.70577">
        <ele>730.6</ele>
        <time>2021-05-29T06:02:49Z</time>
      </trkpt>
      <trkpt lat="45.00748" lon="5.70578">
        <ele>730.8</ele>
        <time>2021-05-29T06:02:50Z</time>
      </trkpt>
      <trkpt lat="45.00749" lon="5.70579">
        <ele>730.8</ele>
        <time>2021-05-29T06:02:51Z</time>
      </trkpt>
      <trkpt lat="45.00749" lon="5.70579">
        <ele>731.6</ele>
        <time>2021-05-29T06:02:52Z</time>
      </trkpt>
      <trkpt lat="45.0075" lon="5.70579">
        <ele>732</ele>
        <time>2021-05-29T06:02:53Z</time>
      </trkpt>
      <trkpt lat="45.00751" lon="5.7058">
        <ele>732.4</ele>
        <time>2021-05-29T06:02:54Z</time>
      </trkpt>
      <trkpt lat="45.00751" lon="5.7058">
        <ele>732.8</ele>
        <time>2021-05-29T06:02:55Z</time>
      </trkpt>
      <trkpt lat="45.00752" lon="5.70581">
        <ele>732.6</ele>
        <time>2021-05-29T06:02:56Z</time>
      </trkpt>
      <trkpt lat="45.00753" lon="5.70581">
        <ele>732.6</ele>
        <time>2021-05-29T06:02:57Z</time>
      </trkpt>
      <trkpt lat="45.00753" lon="5.70581">
        <ele>732.6</ele>
        <time>2021-05-29T06:02:58Z</time>
      </trkpt>
      <trkpt lat="45.00754" lon="5.70582">
        <ele>733</ele>
        <time>2021-05-29T06:02:59Z</time>
      </trkpt>
      <trkpt lat="45.00755" lon="5.70582">
        <ele>733.2</ele>
        <time>2021-05-29T06:03:00Z</time>
      </trkpt>
      <trkpt lat="45.00755" lon="5.70582">
        <ele>733.2</ele>
        <time>2021-05-29T06:03:01Z</time>
      </trkpt>
      <trkpt lat="45.00756" lon="5.70583">
        <ele>733.4</ele>
        <time>2021-05-29T06:03:02Z</time>
      </trkpt>
      <trkpt lat="45.00757" lon="5.70583">
        <ele>733.6</ele>
        <time>2021-05-29T06:03:03Z</time>
      </trkpt>
      <trkpt lat="45.00757" lon="5.70583">
        <ele>734</ele>
        <time>2021-05-29T06:03:04Z</time>
      </trkpt>
      <trkpt lat="45.00758" lon="5.70583">
        <ele>734.2</ele>
        <time>2021-05-29T06:03:05Z</time>
      </trkpt>
      <trkpt lat="45.00759" lon="5.70583">
        <ele>734.2</ele>
        <time>2021-05-29T06:03:06Z</time>
      </trkpt>
      <trkpt lat="45.0076" lon="5.70583">
        <ele>734.4</ele>
        <time>2021-05-29T06:03:07Z</time>
      </trkpt>
      <trkpt lat="45.00761" lon="5.70583">
        <ele>734.6</ele>
        <time>2021-05-29T06:03:08Z</time>
      </trkpt>
      <trkpt lat="45.00762" lon="5.70583">
        <ele>734.8</ele>
        <time>2021-05-29T06:03:09Z</time>
      </trkpt>
      <trkpt lat="45.00763" lon="5.70583">
        <ele>735</ele>
        <time>2021-05-29T06:03:10Z</time>
      </trkpt>
      <trkpt lat="45.00764" lon="5.70583">
        <ele>735.2</ele>
        <time>2021-05-29T06:03:11Z</time>
      </trkpt>
      <trkpt lat="45.00765" lon="5.70583">
        <ele>735.8</ele>
        <time>2021-05-29T06:03:12Z</time>
      </trkpt>
      <trkpt lat="45.00766" lon="5.70583">
        <ele>735.8</ele>
        <time>2021-05-29T06:03:13Z</time>
      </trkpt>
      <trkpt lat="45.00767" lon="5.70583">
        <ele>736</ele>
        <time>2021-05-29T06:03:14Z</time>
      </trkpt>
      <trkpt lat="45.00768" lon="5.70583">
        <ele>736.2</ele>
        <time>2021-05-29T06:03:15Z</time>
      </trkpt>
      <trkpt lat="45.00769" lon="5.70584">
        <ele>736.4</ele>
        <time>2021-05-29T06:03:16Z</time>
      </trkpt>
      <trkpt lat="45.0077" lon="5.70584">
        <ele>736.6</ele>
        <time>2021-05-29T06:03:17Z</time>
      </trkpt>
      <trkpt lat="45.0077" lon="5.70584">
        <ele>736.6</ele>
        <time>2021-05-29T06:03:18Z</time>
      </trkpt>
      <trkpt lat="45.00771" lon="5.70584">
        <ele>736.8</ele>
        <time>2021-05-29T06:03:19Z</time>
      </trkpt>
      <trkpt lat="45.00772" lon="5.70585">
        <ele>737</ele>
        <time>2021-05-29T06:03:20Z</time>
      </trkpt>
      <trkpt lat="45.00773" lon="5.70585">
        <ele>737.4</ele>
        <time>2021-05-29T06:03:21Z</time>
      </trkpt>
      <trkpt lat="45.00774" lon="5.70585">
        <ele>737.6</ele>
        <time>2021-05-29T06:03:22Z</time>
      </trkpt>
      <trkpt lat="45.00775" lon="5.70585">
        <ele>737.8</ele>
        <time>2021-05-29T06:03:23Z</time>
      </trkpt>
      <trkpt lat="45.00776" lon="5.70586">
        <ele>738.2</ele>
        <time>2021-05-29T06:03:24Z</time>
      </trkpt>
      <trkpt lat="45.00777" lon="5.70587">
        <ele>738.4</ele>
        <time>2021-05-29T06:03:25Z</time>
      </trkpt>
      <trkpt lat="45.00778" lon="5.70587">
        <ele>738.4</ele>
        <time>2021-05-29T06:03:26Z</time>
      </trkpt>
      <trkpt lat="45.00779" lon="5.70588">
        <ele>738.6</ele>
        <time>2021-05-29T06:03:27Z</time>
      </trkpt>
      <trkpt lat="45.0078" lon="5.70589">
        <ele>738.8</ele>
        <time>2021-05-29T06:03:28Z</time>
      </trkpt>
      <trkpt lat="45.00781" lon="5.7059">
        <ele>739.2</ele>
        <time>2021-05-29T06:03:29Z</time>
      </trkpt>
      <trkpt lat="45.00782" lon="5.7059">
        <ele>739.6</ele>
        <time>2021-05-29T06:03:30Z</time>
      </trkpt>
      <trkpt lat="45.00784" lon="5.70591">
        <ele>739.8</ele>
        <time>2021-05-29T06:03:31Z</time>
      </trkpt>
      <trkpt lat="45.00785" lon="5.70592">
        <ele>740</ele>
        <time>2021-05-29T06:03:32Z</time>
      </trkpt>
      <trkpt lat="45.00786" lon="5.70593">
        <ele>740.2</ele>
        <time>2021-05-29T06:03:33Z</time>
      </trkpt>
      <trkpt lat="45.00787" lon="5.70593">
        <ele>740.6</ele>
        <time>2021-05-29T06:03:34Z</time>
      </trkpt>
      <trkpt lat="45.00788" lon="5.70594">
        <ele>740.8</ele>
        <time>2021-05-29T06:03:35Z</time>
      </trkpt>
      <trkpt lat="45.0079" lon="5.70595">
        <ele>740.8</ele>
        <time>2021-05-29T06:03:36Z</time>
      </trkpt>
      <trkpt lat="45.00791" lon="5.70595">
        <ele>740.8</ele>
        <time>2021-05-29T06:03:37Z</time>
      </trkpt>
      <trkpt lat="45.00792" lon="5.70596">
        <ele>741</ele>
        <time>2021-05-29T06:03:38Z</time>
      </trkpt>
      <trkpt lat="45.00793" lon="5.70597">
        <ele>741</ele>
        <time>2021-05-29T06:03:39Z</time>
      </trkpt>
      <trkpt lat="45.00795" lon="5.70597">
        <ele>741</ele>
        <time>2021-05-29T06:03:40Z</time>
      </trkpt>
      <trkpt lat="45.00796" lon="5.70598">
        <ele>741.2</ele>
        <time>2021-05-29T06:03:41Z</time>
      </trkpt>
      <trkpt lat="45.00797" lon="5.70598">
        <ele>741.4</ele>
        <time>2021-05-29T06:03:42Z</time>
      </trkpt>
      <trkpt lat="45.00798" lon="5.70599">
        <ele>741.6</ele>
        <time>2021-05-29T06:03:43Z</time>
      </trkpt>
      <trkpt lat="45.008" lon="5.70599">
        <ele>741.6</ele>
        <time>2021-05-29T06:03:44Z</time>
      </trkpt>
      <trkpt lat="45.00801" lon="5.706">
        <ele>741.8</ele>
        <time>2021-05-29T06:03:45Z</time>
      </trkpt>
      <trkpt lat="45.00802" lon="5.706">
        <ele>742</ele>
        <time>2021-05-29T06:03:46Z</time>
      </trkpt>
      <trkpt lat="45.00804" lon="5.70601">
        <ele>742.2</ele>
        <time>2021-05-29T06:03:47Z</time>
      </trkpt>
      <trkpt lat="45.00805" lon="5.70601">
        <ele>742.4</ele>
        <time>2021-05-29T06:03:48Z</time>
      </trkpt>
      <trkpt lat="45.00806" lon="5.70602">
        <ele>742.6</ele>
        <time>2021-05-29T06:03:49Z</time>
      </trkpt>
      <trkpt lat="45.00808" lon="5.70602">
        <ele>742.8</ele>
        <time>2021-05-29T06:03:50Z</time>
      </trkpt>
      <trkpt lat="45.00809" lon="5.70602">
        <ele>743</ele>
        <time>2021-05-29T06:03:51Z</time>
      </trkpt>
      <trkpt lat="45.00811" lon="5.70603">
        <ele>743</ele>
        <time>2021-05-29T06:03:52Z</time>
      </trkpt>
      <trkpt lat="45.00812" lon="5.70603">
        <ele>743.2</ele>
        <time>2021-05-29T06:03:53Z</time>
      </trkpt>
      <trkpt lat="45.00814" lon="5.70603">
        <ele>743.6</ele>
        <time>2021-05-29T06:03:54Z</time>
      </trkpt>
      <trkpt lat="45.00815" lon="5.70604">
        <ele>743.8</ele>
        <time>2021-05-29T06:03:55Z</time>
      </trkpt>
      <trkpt lat="45.00816" lon="5.70604">
        <ele>744.2</ele>
        <time>2021-05-29T06:03:56Z</time>
      </trkpt>
      <trkpt lat="45.00817" lon="5.70605">
        <ele>744.6</ele>
        <time>2021-05-29T06:03:57Z</time>
      </trkpt>
      <trkpt lat="45.00818" lon="5.70605">
        <ele>744.8</ele>
        <time>2021-05-29T06:03:58Z</time>
      </trkpt>
      <trkpt lat="45.00819" lon="5.70606">
        <ele>745.2</ele>
        <time>2021-05-29T06:03:59Z</time>
      </trkpt>
      <trkpt lat="45.0082" lon="5.70606">
        <ele>745.4</ele>
        <time>2021-05-29T06:04:00Z</time>
      </trkpt>
      <trkpt lat="45.00821" lon="5.70606">
        <ele>745.8</ele>
        <time>2021-05-29T06:04:01Z</time>
      </trkpt>
      <trkpt lat="45.00822" lon="5.70607">
        <ele>746</ele>
        <time>2021-05-29T06:04:02Z</time>
      </trkpt>
      <trkpt lat="45.00823" lon="5.70608">
        <ele>746.2</ele>
        <time>2021-05-29T06:04:03Z</time>
      </trkpt>
      <trkpt lat="45.00824" lon="5.70608">
        <ele>746.6</ele>
        <time>2021-05-29T06:04:04Z</time>
      </trkpt>
      <trkpt lat="45.00825" lon="5.70609">
        <ele>746.6</ele>
        <time>2021-05-29T06:04:05Z</time>
      </trkpt>
      <trkpt lat="45.00826" lon="5.7061">
        <ele>746.8</ele>
        <time>2021-05-29T06:04:06Z</time>
      </trkpt>
      <trkpt lat="45.00827" lon="5.70611">
        <ele>747</ele>
        <time>2021-05-29T06:04:07Z</time>
      </trkpt>
      <trkpt lat="45.00828" lon="5.70612">
        <ele>747</ele>
        <time>2021-05-29T06:04:08Z</time>
      </trkpt>
      <trkpt lat="45.00829" lon="5.70613">
        <ele>747.2</ele>
        <time>2021-05-29T06:04:09Z</time>
      </trkpt>
      <trkpt lat="45.0083" lon="5.70613">
        <ele>747</ele>
        <time>2021-05-29T06:04:10Z</time>
      </trkpt>
      <trkpt lat="45.00831" lon="5.70614">
        <ele>747.2</ele>
        <time>2021-05-29T06:04:11Z</time>
      </trkpt>
      <trkpt lat="45.00832" lon="5.70615">
        <ele>747.2</ele>
        <time>2021-05-29T06:04:12Z</time>
      </trkpt>
      <trkpt lat="45.00833" lon="5.70616">
        <ele>747.4</ele>
        <time>2021-05-29T06:04:13Z</time>
      </trkpt>
      <trkpt lat="45.00835" lon="5.70618">
        <ele>747.4</ele>
        <time>2021-05-29T06:04:14Z</time>
      </trkpt>
      <trkpt lat="45.00837" lon="5.7062">
        <ele>747.8</ele>
        <time>2021-05-29T06:04:15Z</time>
      </trkpt>
      <trkpt lat="45.00839" lon="5.70622">
        <ele>748</ele>
        <time>2021-05-29T06:04:16Z</time>
      </trkpt>
      <trkpt lat="45.00841" lon="5.70623">
        <ele>748.2</ele>
        <time>2021-05-29T06:04:17Z</time>
      </trkpt>
      <trkpt lat="45.00841" lon="5.70623">
        <ele>748.4</ele>
        <time>2021-05-29T06:04:18Z</time>
      </trkpt>
      <trkpt lat="45.00842" lon="5.70623">
        <ele>748.8</ele>
        <time>2021-05-29T06:04:19Z</time>
      </trkpt>
      <trkpt lat="45.00843" lon="5.70623">
        <ele>749</ele>
        <time>2021-05-29T06:04:20Z</time>
      </trkpt>
      <trkpt lat="45.00843" lon="5.70622">
        <ele>749.2</ele>
        <time>2021-05-29T06:04:21Z</time>
      </trkpt>
      <trkpt lat="45.00844" lon="5.70622">
        <ele>749.4</ele>
        <time>2021-05-29T06:04:22Z</time>
      </trkpt>
      <trkpt lat="45.00845" lon="5.70622">
        <ele>749.6</ele>
        <time>2021-05-29T06:04:23Z</time>
      </trkpt>
      <trkpt lat="45.00845" lon="5.70622">
        <ele>749.8</ele>
        <time>2021-05-29T06:04:24Z</time>
      </trkpt>
      <trkpt lat="45.00846" lon="5.70621">
        <ele>750</ele>
        <time>2021-05-29T06:04:25Z</time>
      </trkpt>
      <trkpt lat="45.00847" lon="5.70621">
        <ele>750</ele>
        <time>2021-05-29T06:04:26Z</time>
      </trkpt>
      <trkpt lat="45.00847" lon="5.70621">
        <ele>750.2</ele>
        <time>2021-05-29T06:04:27Z</time>
      </trkpt>
      <trkpt lat="45.00848" lon="5.70621">
        <ele>750.4</ele>
        <time>2021-05-29T06:04:28Z</time>
      </trkpt>
      <trkpt lat="45.00849" lon="5.7062">
        <ele>750.8</ele>
        <time>2021-05-29T06:04:29Z</time>
      </trkpt>
      <trkpt lat="45.0085" lon="5.7062">
        <ele>750.8</ele>
        <time>2021-05-29T06:04:30Z</time>
      </trkpt>
      <trkpt lat="45.0085" lon="5.70621">
        <ele>751</ele>
        <time>2021-05-29T06:04:31Z</time>
      </trkpt>
      <trkpt lat="45.00851" lon="5.70622">
        <ele>751</ele>
        <time>2021-05-29T06:04:32Z</time>
      </trkpt>
      <trkpt lat="45.00851" lon="5.70622">
        <ele>751.2</ele>
        <time>2021-05-29T06:04:33Z</time>
      </trkpt>
      <trkpt lat="45.00852" lon="5.70623">
        <ele>751.4</ele>
        <time>2021-05-29T06:04:34Z</time>
      </trkpt>
      <trkpt lat="45.00853" lon="5.70623">
        <ele>751.6</ele>
        <time>2021-05-29T06:04:35Z</time>
      </trkpt>
      <trkpt lat="45.00853" lon="5.70624">
        <ele>751.8</ele>
        <time>2021-05-29T06:04:36Z</time>
      </trkpt>
      <trkpt lat="45.00854" lon="5.70625">
        <ele>752</ele>
        <time>2021-05-29T06:04:37Z</time>
      </trkpt>
      <trkpt lat="45.00855" lon="5.70625">
        <ele>752.2</ele>
        <time>2021-05-29T06:04:38Z</time>
      </trkpt>
      <trkpt lat="45.00855" lon="5.70626">
        <ele>752.8</ele>
        <time>2021-05-29T06:04:39Z</time>
      </trkpt>
      <trkpt lat="45.00856" lon="5.70627">
        <ele>753.2</ele>
        <time>2021-05-29T06:04:40Z</time>
      </trkpt>
      <trkpt lat="45.00857" lon="5.70627">
        <ele>753.4</ele>
        <time>2021-05-29T06:04:41Z</time>
      </trkpt>
      <trkpt lat="45.00857" lon="5.70628">
        <ele>753.8</ele>
        <time>2021-05-29T06:04:42Z</time>
      </trkpt>
      <trkpt lat="45.00858" lon="5.70631">
        <ele>753.8</ele>
        <time>2021-05-29T06:04:43Z</time>
      </trkpt>
      <trkpt lat="45.00859" lon="5.70634">
        <ele>754</ele>
        <time>2021-05-29T06:04:44Z</time>
      </trkpt>
      <trkpt lat="45.0086" lon="5.70638">
        <ele>754.2</ele>
        <time>2021-05-29T06:04:45Z</time>
      </trkpt>
      <trkpt lat="45.00861" lon="5.70641">
        <ele>754.6</ele>
        <time>2021-05-29T06:04:46Z</time>
      </trkpt>
      <trkpt lat="45.00861" lon="5.70644">
        <ele>754.6</ele>
        <time>2021-05-29T06:04:47Z</time>
      </trkpt>
      <trkpt lat="45.00862" lon="5.70648">
        <ele>754.8</ele>
        <time>2021-05-29T06:04:48Z</time>
      </trkpt>
      <trkpt lat="45.00863" lon="5.70651">
        <ele>755</ele>
        <time>2021-05-29T06:04:49Z</time>
      </trkpt>
      <trkpt lat="45.00865" lon="5.70657">
        <ele>755.4</ele>
        <time>2021-05-29T06:04:50Z</time>
      </trkpt>
      <trkpt lat="45.00865" lon="5.70657">
        <ele>755.6</ele>
        <time>2021-05-29T06:04:51Z</time>
      </trkpt>
      <trkpt lat="45.00865" lon="5.70657">
        <ele>755.8</ele>
        <time>2021-05-29T06:04:52Z</time>
      </trkpt>
      <trkpt lat="45.00866" lon="5.70659">
        <ele>756.2</ele>
        <time>2021-05-29T06:04:53Z</time>
      </trkpt>
      <trkpt lat="45.00868" lon="5.70662">
        <ele>756.4</ele>
        <time>2021-05-29T06:04:54Z</time>
      </trkpt>
      <trkpt lat="45.00869" lon="5.70665">
        <ele>756.6</ele>
        <time>2021-05-29T06:04:55Z</time>
      </trkpt>
      <trkpt lat="45.0087" lon="5.70668">
        <ele>756.8</ele>
        <time>2021-05-29T06:04:56Z</time>
      </trkpt>
      <trkpt lat="45.00871" lon="5.70669">
        <ele>757.2</ele>
        <time>2021-05-29T06:04:57Z</time>
      </trkpt>
      <trkpt lat="45.00873" lon="5.70669">
        <ele>757.6</ele>
        <time>2021-05-29T06:04:58Z</time>
      </trkpt>
      <trkpt lat="45.00874" lon="5.7067">
        <ele>758</ele>
        <time>2021-05-29T06:04:59Z</time>
      </trkpt>
      <trkpt lat="45.00875" lon="5.7067">
        <ele>758.2</ele>
        <time>2021-05-29T06:05:00Z</time>
      </trkpt>
      <trkpt lat="45.00876" lon="5.70671">
        <ele>758.2</ele>
        <time>2021-05-29T06:05:01Z</time>
      </trkpt>
      <trkpt lat="45.00877" lon="5.70672">
        <ele>758.6</ele>
        <time>2021-05-29T06:05:02Z</time>
      </trkpt>
      <trkpt lat="45.00879" lon="5.70672">
        <ele>758.8</ele>
        <time>2021-05-29T06:05:03Z</time>
      </trkpt>
      <trkpt lat="45.0088" lon="5.70673">
        <ele>759.2</ele>
        <time>2021-05-29T06:05:04Z</time>
      </trkpt>
      <trkpt lat="45.00882" lon="5.70673">
        <ele>759.4</ele>
        <time>2021-05-29T06:05:05Z</time>
      </trkpt>
      <trkpt lat="45.00884" lon="5.70673">
        <ele>759.8</ele>
        <time>2021-05-29T06:05:06Z</time>
      </trkpt>
      <trkpt lat="45.00885" lon="5.70673">
        <ele>760</ele>
        <time>2021-05-29T06:05:07Z</time>
      </trkpt>
      <trkpt lat="45.00887" lon="5.70673">
        <ele>760.2</ele>
        <time>2021-05-29T06:05:08Z</time>
      </trkpt>
      <trkpt lat="45.00889" lon="5.70673">
        <ele>760.4</ele>
        <time>2021-05-29T06:05:09Z</time>
      </trkpt>
      <trkpt lat="45.0089" lon="5.70674">
        <ele>760.6</ele>
        <time>2021-05-29T06:05:10Z</time>
      </trkpt>
      <trkpt lat="45.00891" lon="5.70675">
        <ele>760.8</ele>
        <time>2021-05-29T06:05:11Z</time>
      </trkpt>
      <trkpt lat="45.00892" lon="5.70676">
        <ele>761.2</ele>
        <time>2021-05-29T06:05:12Z</time>
      </trkpt>
      <trkpt lat="45.00893" lon="5.70677">
        <ele>761.6</ele>
        <time>2021-05-29T06:05:13Z</time>
      </trkpt>
      <trkpt lat="45.00894" lon="5.70678">
        <ele>761.8</ele>
        <time>2021-05-29T06:05:14Z</time>
      </trkpt>
      <trkpt lat="45.00895" lon="5.70678">
        <ele>762</ele>
        <time>2021-05-29T06:05:15Z</time>
      </trkpt>
      <trkpt lat="45.00896" lon="5.70679">
        <ele>762.2</ele>
        <time>2021-05-29T06:05:16Z</time>
      </trkpt>
      <trkpt lat="45.00897" lon="5.7068">
        <ele>762.4</ele>
        <time>2021-05-29T06:05:17Z</time>
      </trkpt>
      <trkpt lat="45.00898" lon="5.70681">
        <ele>762.8</ele>
        <time>2021-05-29T06:05:18Z</time>
      </trkpt>
      <trkpt lat="45.00899" lon="5.70682">
        <ele>763</ele>
        <time>2021-05-29T06:05:19Z</time>
      </trkpt>
      <trkpt lat="45.009" lon="5.70683">
        <ele>763.2</ele>
        <time>2021-05-29T06:05:20Z</time>
      </trkpt>
      <trkpt lat="45.00901" lon="5.70683">
        <ele>763.4</ele>
        <time>2021-05-29T06:05:21Z</time>
      </trkpt>
      <trkpt lat="45.00903" lon="5.70684">
        <ele>763.6</ele>
        <time>2021-05-29T06:05:22Z</time>
      </trkpt>
      <trkpt lat="45.00904" lon="5.70685">
        <ele>763.8</ele>
        <time>2021-05-29T06:05:23Z</time>
      </trkpt>
      <trkpt lat="45.00905" lon="5.70686">
        <ele>763.8</ele>
        <time>2021-05-29T06:05:24Z</time>
      </trkpt>
      <trkpt lat="45.00906" lon="5.70687">
        <ele>764</ele>
        <time>2021-05-29T06:05:25Z</time>
      </trkpt>
      <trkpt lat="45.00907" lon="5.70689">
        <ele>764</ele>
        <time>2021-05-29T06:05:26Z</time>
      </trkpt>
      <trkpt lat="45.00907" lon="5.7069">
        <ele>764.2</ele>
        <time>2021-05-29T06:05:27Z</time>
      </trkpt>
      <trkpt lat="45.00908" lon="5.70691">
        <ele>764.4</ele>
        <time>2021-05-29T06:05:28Z</time>
      </trkpt>
      <trkpt lat="45.00909" lon="5.70693">
        <ele>764.6</ele>
        <time>2021-05-29T06:05:29Z</time>
      </trkpt>
      <trkpt lat="45.00909" lon="5.70694">
        <ele>764.6</ele>
        <time>2021-05-29T06:05:30Z</time>
      </trkpt>
      <trkpt lat="45.0091" lon="5.70695">
        <ele>764.8</ele>
        <time>2021-05-29T06:05:31Z</time>
      </trkpt>
      <trkpt lat="45.00911" lon="5.70697">
        <ele>765</ele>
        <time>2021-05-29T06:05:32Z</time>
      </trkpt>
      <trkpt lat="45.00912" lon="5.70697">
        <ele>765.4</ele>
        <time>2021-05-29T06:05:33Z</time>
      </trkpt>
      <trkpt lat="45.00913" lon="5.70697">
        <ele>765.6</ele>
        <time>2021-05-29T06:05:34Z</time>
      </trkpt>
      <trkpt lat="45.00914" lon="5.70698">
        <ele>765.6</ele>
        <time>2021-05-29T06:05:35Z</time>
      </trkpt>
      <trkpt lat="45.00915" lon="5.70698">
        <ele>765.8</ele>
        <time>2021-05-29T06:05:36Z</time>
      </trkpt>
      <trkpt lat="45.00916" lon="5.70699">
        <ele>766</ele>
        <time>2021-05-29T06:05:37Z</time>
      </trkpt>
      <trkpt lat="45.00917" lon="5.70699">
        <ele>766.2</ele>
        <time>2021-05-29T06:05:38Z</time>
      </trkpt>
      <trkpt lat="45.00918" lon="5.707">
        <ele>766.4</ele>
        <time>2021-05-29T06:05:39Z</time>
      </trkpt>
      <trkpt lat="45.00919" lon="5.707">
        <ele>766.6</ele>
        <time>2021-05-29T06:05:40Z</time>
      </trkpt>
      <trkpt lat="45.0092" lon="5.707">
        <ele>766.8</ele>
        <time>2021-05-29T06:05:41Z</time>
      </trkpt>
      <trkpt lat="45.00921" lon="5.707">
        <ele>767</ele>
        <time>2021-05-29T06:05:42Z</time>
      </trkpt>
      <trkpt lat="45.00923" lon="5.707">
        <ele>767.2</ele>
        <time>2021-05-29T06:05:43Z</time>
      </trkpt>
      <trkpt lat="45.00924" lon="5.707">
        <ele>767.6</ele>
        <time>2021-05-29T06:05:44Z</time>
      </trkpt>
      <trkpt lat="45.00926" lon="5.70699">
        <ele>767.8</ele>
        <time>2021-05-29T06:05:45Z</time>
      </trkpt>
      <trkpt lat="45.00927" lon="5.70699">
        <ele>768</ele>
        <time>2021-05-29T06:05:46Z</time>
      </trkpt>
      <trkpt lat="45.00929" lon="5.70699">
        <ele>768.2</ele>
        <time>2021-05-29T06:05:47Z</time>
      </trkpt>
      <trkpt lat="45.0093" lon="5.707">
        <ele>768.4</ele>
        <time>2021-05-29T06:05:48Z</time>
      </trkpt>
      <trkpt lat="45.00932" lon="5.70701">
        <ele>768.4</ele>
        <time>2021-05-29T06:05:49Z</time>
      </trkpt>
      <trkpt lat="45.00933" lon="5.70701">
        <ele>768.8</ele>
        <time>2021-05-29T06:05:50Z</time>
      </trkpt>
      <trkpt lat="45.00934" lon="5.70702">
        <ele>769</ele>
        <time>2021-05-29T06:05:51Z</time>
      </trkpt>
      <trkpt lat="45.00936" lon="5.70703">
        <ele>769.4</ele>
        <time>2021-05-29T06:05:52Z</time>
      </trkpt>
      <trkpt lat="45.00937" lon="5.70704">
        <ele>769.6</ele>
        <time>2021-05-29T06:05:53Z</time>
      </trkpt>
      <trkpt lat="45.00938" lon="5.70704">
        <ele>770.4</ele>
        <time>2021-05-29T06:05:54Z</time>
      </trkpt>
      <trkpt lat="45.0094" lon="5.70705">
        <ele>770.4</ele>
        <time>2021-05-29T06:05:55Z</time>
      </trkpt>
      <trkpt lat="45.00941" lon="5.70706">
        <ele>770.6</ele>
        <time>2021-05-29T06:05:56Z</time>
      </trkpt>
      <trkpt lat="45.00943" lon="5.70706">
        <ele>770.6</ele>
        <time>2021-05-29T06:05:57Z</time>
      </trkpt>
      <trkpt lat="45.00944" lon="5.70707">
        <ele>770.8</ele>
        <time>2021-05-29T06:05:58Z</time>
      </trkpt>
      <trkpt lat="45.00945" lon="5.70708">
        <ele>771</ele>
        <time>2021-05-29T06:05:59Z</time>
      </trkpt>
      <trkpt lat="45.00947" lon="5.70708">
        <ele>771.2</ele>
        <time>2021-05-29T06:06:00Z</time>
      </trkpt>
      <trkpt lat="45.00948" lon="5.70709">
        <ele>771.4</ele>
        <time>2021-05-29T06:06:01Z</time>
      </trkpt>
      <trkpt lat="45.00949" lon="5.7071">
        <ele>771.4</ele>
        <time>2021-05-29T06:06:02Z</time>
      </trkpt>
      <trkpt lat="45.0095" lon="5.70711">
        <ele>771.6</ele>
        <time>2021-05-29T06:06:03Z</time>
      </trkpt>
      <trkpt lat="45.00951" lon="5.70712">
        <ele>771.8</ele>
        <time>2021-05-29T06:06:04Z</time>
      </trkpt>
      <trkpt lat="45.00952" lon="5.70712">
        <ele>771.8</ele>
        <time>2021-05-29T06:06:05Z</time>
      </trkpt>
      <trkpt lat="45.00953" lon="5.70713">
        <ele>772</ele>
        <time>2021-05-29T06:06:06Z</time>
      </trkpt>
      <trkpt lat="45.00954" lon="5.70714">
        <ele>772.2</ele>
        <time>2021-05-29T06:06:07Z</time>
      </trkpt>
      <trkpt lat="45.00955" lon="5.70715">
        <ele>772.8</ele>
        <time>2021-05-29T06:06:08Z</time>
      </trkpt>
      <trkpt lat="45.00956" lon="5.70716">
        <ele>773.2</ele>
        <time>2021-05-29T06:06:09Z</time>
      </trkpt>
      <trkpt lat="45.00957" lon="5.70716">
        <ele>773.6</ele>
        <time>2021-05-29T06:06:10Z</time>
      </trkpt>
      <trkpt lat="45.00958" lon="5.70717">
        <ele>773.8</ele>
        <time>2021-05-29T06:06:11Z</time>
      </trkpt>
      <trkpt lat="45.00958" lon="5.70718">
        <ele>774.2</ele>
        <time>2021-05-29T06:06:12Z</time>
      </trkpt>
      <trkpt lat="45.00959" lon="5.70718">
        <ele>774.4</ele>
        <time>2021-05-29T06:06:13Z</time>
      </trkpt>
      <trkpt lat="45.0096" lon="5.70719">
        <ele>774.6</ele>
        <time>2021-05-29T06:06:14Z</time>
      </trkpt>
      <trkpt lat="45.00961" lon="5.70719">
        <ele>774.8</ele>
        <time>2021-05-29T06:06:15Z</time>
      </trkpt>
      <trkpt lat="45.00961" lon="5.7072">
        <ele>774.8</ele>
        <time>2021-05-29T06:06:16Z</time>
      </trkpt>
      <trkpt lat="45.00962" lon="5.7072">
        <ele>775</ele>
        <time>2021-05-29T06:06:17Z</time>
      </trkpt>
      <trkpt lat="45.00963" lon="5.70721">
        <ele>775</ele>
        <time>2021-05-29T06:06:18Z</time>
      </trkpt>
      <trkpt lat="45.00964" lon="5.70721">
        <ele>775.2</ele>
        <time>2021-05-29T06:06:19Z</time>
      </trkpt>
      <trkpt lat="45.00964" lon="5.70722">
        <ele>775.2</ele>
        <time>2021-05-29T06:06:20Z</time>
      </trkpt>
      <trkpt lat="45.00965" lon="5.70722">
        <ele>775.4</ele>
        <time>2021-05-29T06:06:21Z</time>
      </trkpt>
      <trkpt lat="45.00966" lon="5.70723">
        <ele>775.4</ele>
        <time>2021-05-29T06:06:22Z</time>
      </trkpt>
      <trkpt lat="45.00967" lon="5.70723">
        <ele>775.6</ele>
        <time>2021-05-29T06:06:23Z</time>
      </trkpt>
      <trkpt lat="45.00968" lon="5.70724">
        <ele>775.6</ele>
        <time>2021-05-29T06:06:24Z</time>
      </trkpt>
      <trkpt lat="45.00969" lon="5.70724">
        <ele>775.8</ele>
        <time>2021-05-29T06:06:25Z</time>
      </trkpt>
      <trkpt lat="45.0097" lon="5.70724">
        <ele>776</ele>
        <time>2021-05-29T06:06:26Z</time>
      </trkpt>
      <trkpt lat="45.00971" lon="5.70725">
        <ele>776</ele>
        <time>2021-05-29T06:06:27Z</time>
      </trkpt>
      <trkpt lat="45.00972" lon="5.70725">
        <ele>776</ele>
        <time>2021-05-29T06:06:28Z</time>
      </trkpt>
      <trkpt lat="45.00973" lon="5.70726">
        <ele>776</ele>
        <time>2021-05-29T06:06:29Z</time>
      </trkpt>
      <trkpt lat="45.00975" lon="5.70726">
        <ele>776</ele>
        <time>2021-05-29T06:06:30Z</time>
      </trkpt>
      <trkpt lat="45.00976" lon="5.70727">
        <ele>776.2</ele>
        <time>2021-05-29T06:06:31Z</time>
      </trkpt>
      <trkpt lat="45.00977" lon="5.70728">
        <ele>776.4</ele>
        <time>2021-05-29T06:06:32Z</time>
      </trkpt>
      <trkpt lat="45.00978" lon="5.70729">
        <ele>776.4</ele>
        <time>2021-05-29T06:06:33Z</time>
      </trkpt>
      <trkpt lat="45.00979" lon="5.70729">
        <ele>776.6</ele>
        <time>2021-05-29T06:06:34Z</time>
      </trkpt>
      <trkpt lat="45.0098" lon="5.7073">
        <ele>776.8</ele>
        <time>2021-05-29T06:06:35Z</time>
      </trkpt>
      <trkpt lat="45.00981" lon="5.70731">
        <ele>776.8</ele>
        <time>2021-05-29T06:06:36Z</time>
      </trkpt>
      <trkpt lat="45.00982" lon="5.70732">
        <ele>777</ele>
        <time>2021-05-29T06:06:37Z</time>
      </trkpt>
      <trkpt lat="45.00983" lon="5.70733">
        <ele>777.2</ele>
        <time>2021-05-29T06:06:38Z</time>
      </trkpt>
      <trkpt lat="45.00984" lon="5.70734">
        <ele>777.4</ele>
        <time>2021-05-29T06:06:39Z</time>
      </trkpt>
      <trkpt lat="45.00986" lon="5.70735">
        <ele>777.6</ele>
        <time>2021-05-29T06:06:40Z</time>
      </trkpt>
      <trkpt lat="45.00987" lon="5.70736">
        <ele>777.8</ele>
        <time>2021-05-29T06:06:41Z</time>
      </trkpt>
      <trkpt lat="45.00988" lon="5.70738">
        <ele>777.8</ele>
        <time>2021-05-29T06:06:42Z</time>
      </trkpt>
      <trkpt lat="45.00989" lon="5.70739">
        <ele>778</ele>
        <time>2021-05-29T06:06:43Z</time>
      </trkpt>
      <trkpt lat="45.0099" lon="5.7074">
        <ele>778.2</ele>
        <time>2021-05-29T06:06:44Z</time>
      </trkpt>
      <trkpt lat="45.00991" lon="5.70741">
        <ele>778.4</ele>
        <time>2021-05-29T06:06:45Z</time>
      </trkpt>
      <trkpt lat="45.00991" lon="5.70741">
        <ele>778.6</ele>
        <time>2021-05-29T06:06:46Z</time>
      </trkpt>
      <trkpt lat="45.00992" lon="5.70742">
        <ele>778.8</ele>
        <time>2021-05-29T06:06:47Z</time>
      </trkpt>
      <trkpt lat="45.00993" lon="5.70742">
        <ele>779</ele>
        <time>2021-05-29T06:06:48Z</time>
      </trkpt>
      <trkpt lat="45.00993" lon="5.70743">
        <ele>779</ele>
        <time>2021-05-29T06:06:49Z</time>
      </trkpt>
      <trkpt lat="45.00994" lon="5.70743">
        <ele>779.2</ele>
        <time>2021-05-29T06:06:50Z</time>
      </trkpt>
      <trkpt lat="45.00995" lon="5.70744">
        <ele>779.4</ele>
        <time>2021-05-29T06:06:51Z</time>
      </trkpt>
      <trkpt lat="45.00995" lon="5.70744">
        <ele>779.6</ele>
        <time>2021-05-29T06:06:52Z</time>
      </trkpt>
      <trkpt lat="45.00996" lon="5.70745">
        <ele>779.8</ele>
        <time>2021-05-29T06:06:53Z</time>
      </trkpt>
      <trkpt lat="45.00997" lon="5.70745">
        <ele>780</ele>
        <time>2021-05-29T06:06:54Z</time>
      </trkpt>
      <trkpt lat="45.00998" lon="5.70746">
        <ele>780.4</ele>
        <time>2021-05-29T06:06:55Z</time>
      </trkpt>
      <trkpt lat="45.00998" lon="5.70746">
        <ele>780.4</ele>
        <time>2021-05-29T06:06:56Z</time>
      </trkpt>
      <trkpt lat="45.00999" lon="5.70748">
        <ele>780.8</ele>
        <time>2021-05-29T06:06:57Z</time>
      </trkpt>
      <trkpt lat="45.01001" lon="5.70749">
        <ele>781</ele>
        <time>2021-05-29T06:06:58Z</time>
      </trkpt>
      <trkpt lat="45.01002" lon="5.7075">
        <ele>781</ele>
        <time>2021-05-29T06:06:59Z</time>
      </trkpt>
      <trkpt lat="45.01003" lon="5.70752">
        <ele>781.2</ele>
        <time>2021-05-29T06:07:00Z</time>
      </trkpt>
      <trkpt lat="45.01004" lon="5.70753">
        <ele>781.2</ele>
        <time>2021-05-29T06:07:01Z</time>
      </trkpt>
      <trkpt lat="45.01006" lon="5.70754">
        <ele>781.6</ele>
        <time>2021-05-29T06:07:02Z</time>
      </trkpt>
      <trkpt lat="45.01006" lon="5.70755">
        <ele>781.8</ele>
        <time>2021-05-29T06:07:03Z</time>
      </trkpt>
      <trkpt lat="45.01007" lon="5.70757">
        <ele>782</ele>
        <time>2021-05-29T06:07:04Z</time>
      </trkpt>
      <trkpt lat="45.01008" lon="5.70758">
        <ele>782.2</ele>
        <time>2021-05-29T06:07:05Z</time>
      </trkpt>
      <trkpt lat="45.01009" lon="5.70759">
        <ele>782.4</ele>
        <time>2021-05-29T06:07:06Z</time>
      </trkpt>
      <trkpt lat="45.0101" lon="5.7076">
        <ele>782.4</ele>
        <time>2021-05-29T06:07:07Z</time>
      </trkpt>
      <trkpt lat="45.01011" lon="5.70761">
        <ele>782.6</ele>
        <time>2021-05-29T06:07:08Z</time>
      </trkpt>
      <trkpt lat="45.01011" lon="5.70762">
        <ele>782.8</ele>
        <time>2021-05-29T06:07:09Z</time>
      </trkpt>
      <trkpt lat="45.01012" lon="5.70763">
        <ele>783.2</ele>
        <time>2021-05-29T06:07:10Z</time>
      </trkpt>
      <trkpt lat="45.01013" lon="5.70764">
        <ele>783.4</ele>
        <time>2021-05-29T06:07:11Z</time>
      </trkpt>
      <trkpt lat="45.01013" lon="5.70764">
        <ele>783.6</ele>
        <time>2021-05-29T06:07:12Z</time>
      </trkpt>
      <trkpt lat="45.01014" lon="5.70765">
        <ele>783.8</ele>
        <time>2021-05-29T06:07:13Z</time>
      </trkpt>
      <trkpt lat="45.01014" lon="5.70765">
        <ele>784</ele>
        <time>2021-05-29T06:07:14Z</time>
      </trkpt>
      <trkpt lat="45.01015" lon="5.70765">
        <ele>784.2</ele>
        <time>2021-05-29T06:07:15Z</time>
      </trkpt>
      <trkpt lat="45.01016" lon="5.70766">
        <ele>784.4</ele>
        <time>2021-05-29T06:07:16Z</time>
      </trkpt>
      <trkpt lat="45.01016" lon="5.70766">
        <ele>784.8</ele>
        <time>2021-05-29T06:07:17Z</time>
      </trkpt>
      <trkpt lat="45.01017" lon="5.70767">
        <ele>784.8</ele>
        <time>2021-05-29T06:07:18Z</time>
      </trkpt>
      <trkpt lat="45.01017" lon="5.70767">
        <ele>785.2</ele>
        <time>2021-05-29T06:07:19Z</time>
      </trkpt>
      <trkpt lat="45.01018" lon="5.70767">
        <ele>785.4</ele>
        <time>2021-05-29T06:07:20Z</time>
      </trkpt>
      <trkpt lat="45.01018" lon="5.70768">
        <ele>785.6</ele>
        <time>2021-05-29T06:07:21Z</time>
      </trkpt>
      <trkpt lat="45.01019" lon="5.70768">
        <ele>786</ele>
        <time>2021-05-29T06:07:22Z</time>
      </trkpt>
      <trkpt lat="45.0102" lon="5.70769">
        <ele>786</ele>
        <time>2021-05-29T06:07:23Z</time>
      </trkpt>
      <trkpt lat="45.0102" lon="5.70769">
        <ele>786.4</ele>
        <time>2021-05-29T06:07:24Z</time>
      </trkpt>
      <trkpt lat="45.01021" lon="5.7077">
        <ele>786.8</ele>
        <time>2021-05-29T06:07:25Z</time>
      </trkpt>
      <trkpt lat="45.01022" lon="5.7077">
        <ele>786.8</ele>
        <time>2021-05-29T06:07:26Z</time>
      </trkpt>
      <trkpt lat="45.01023" lon="5.7077">
        <ele>787</ele>
        <time>2021-05-29T06:07:27Z</time>
      </trkpt>
      <trkpt lat="45.01024" lon="5.7077">
        <ele>787.2</ele>
        <time>2021-05-29T06:07:28Z</time>
      </trkpt>
      <trkpt lat="45.01026" lon="5.7077">
        <ele>787.2</ele>
        <time>2021-05-29T06:07:29Z</time>
      </trkpt>
      <trkpt lat="45.01027" lon="5.7077">
        <ele>787.2</ele>
        <time>2021-05-29T06:07:30Z</time>
      </trkpt>
      <trkpt lat="45.01028" lon="5.7077">
        <ele>787.4</ele>
        <time>2021-05-29T06:07:31Z</time>
      </trkpt>
      <trkpt lat="45.01029" lon="5.7077">
        <ele>787.8</ele>
        <time>2021-05-29T06:07:32Z</time>
      </trkpt>
      <trkpt lat="45.01031" lon="5.7077">
        <ele>788</ele>
        <time>2021-05-29T06:07:33Z</time>
      </trkpt>
      <trkpt lat="45.01031" lon="5.70771">
        <ele>788.2</ele>
        <time>2021-05-29T06:07:34Z</time>
      </trkpt>
      <trkpt lat="45.01032" lon="5.70772">
        <ele>788.4</ele>
        <time>2021-05-29T06:07:35Z</time>
      </trkpt>
      <trkpt lat="45.01033" lon="5.70773">
        <ele>788.6</ele>
        <time>2021-05-29T06:07:36Z</time>
      </trkpt>
      <trkpt lat="45.01034" lon="5.70774">
        <ele>788.6</ele>
        <time>2021-05-29T06:07:37Z</time>
      </trkpt>
      <trkpt lat="45.01034" lon="5.70774">
        <ele>788.8</ele>
        <time>2021-05-29T06:07:38Z</time>
      </trkpt>
      <trkpt lat="45.01035" lon="5.70775">
        <ele>788.8</ele>
        <time>2021-05-29T06:07:39Z</time>
      </trkpt>
      <trkpt lat="45.01036" lon="5.70776">
        <ele>789.2</ele>
        <time>2021-05-29T06:07:40Z</time>
      </trkpt>
      <trkpt lat="45.01036" lon="5.70777">
        <ele>789.4</ele>
        <time>2021-05-29T06:07:41Z</time>
      </trkpt>
      <trkpt lat="45.01037" lon="5.70778">
        <ele>789.8</ele>
        <time>2021-05-29T06:07:42Z</time>
      </trkpt>
      <trkpt lat="45.01038" lon="5.70778">
        <ele>790</ele>
        <time>2021-05-29T06:07:43Z</time>
      </trkpt>
      <trkpt lat="45.01038" lon="5.70779">
        <ele>790.4</ele>
        <time>2021-05-29T06:07:44Z</time>
      </trkpt>
      <trkpt lat="45.01039" lon="5.7078">
        <ele>790.6</ele>
        <time>2021-05-29T06:07:45Z</time>
      </trkpt>
      <trkpt lat="45.01039" lon="5.70781">
        <ele>791</ele>
        <time>2021-05-29T06:07:46Z</time>
      </trkpt>
      <trkpt lat="45.0104" lon="5.70781">
        <ele>791.6</ele>
        <time>2021-05-29T06:07:47Z</time>
      </trkpt>
      <trkpt lat="45.0104" lon="5.70782">
        <ele>791.8</ele>
        <time>2021-05-29T06:07:48Z</time>
      </trkpt>
      <trkpt lat="45.01041" lon="5.70783">
        <ele>792.2</ele>
        <time>2021-05-29T06:07:49Z</time>
      </trkpt>
      <trkpt lat="45.01042" lon="5.70784">
        <ele>792.4</ele>
        <time>2021-05-29T06:07:50Z</time>
      </trkpt>
      <trkpt lat="45.01042" lon="5.70785">
        <ele>792.6</ele>
        <time>2021-05-29T06:07:51Z</time>
      </trkpt>
      <trkpt lat="45.01043" lon="5.70785">
        <ele>792.8</ele>
        <time>2021-05-29T06:07:52Z</time>
      </trkpt>
      <trkpt lat="45.01043" lon="5.70786">
        <ele>793</ele>
        <time>2021-05-29T06:07:53Z</time>
      </trkpt>
      <trkpt lat="45.01044" lon="5.70787">
        <ele>793.2</ele>
        <time>2021-05-29T06:07:54Z</time>
      </trkpt>
      <trkpt lat="45.01044" lon="5.70788">
        <ele>793.4</ele>
        <time>2021-05-29T06:07:55Z</time>
      </trkpt>
      <trkpt lat="45.01045" lon="5.70788">
        <ele>793.6</ele>
        <time>2021-05-29T06:07:56Z</time>
      </trkpt>
      <trkpt lat="45.01046" lon="5.70789">
        <ele>793.8</ele>
        <time>2021-05-29T06:07:57Z</time>
      </trkpt>
      <trkpt lat="45.01047" lon="5.70789">
        <ele>793.8</ele>
        <time>2021-05-29T06:07:58Z</time>
      </trkpt>
      <trkpt lat="45.01047" lon="5.70789">
        <ele>794</ele>
        <time>2021-05-29T06:07:59Z</time>
      </trkpt>
      <trkpt lat="45.01048" lon="5.7079">
        <ele>794.4</ele>
        <time>2021-05-29T06:08:00Z</time>
      </trkpt>
      <trkpt lat="45.01049" lon="5.7079">
        <ele>794.6</ele>
        <time>2021-05-29T06:08:01Z</time>
      </trkpt>
      <trkpt lat="45.01049" lon="5.70791">
        <ele>795</ele>
        <time>2021-05-29T06:08:02Z</time>
      </trkpt>
      <trkpt lat="45.0105" lon="5.70791">
        <ele>795.2</ele>
        <time>2021-05-29T06:08:03Z</time>
      </trkpt>
      <trkpt lat="45.01051" lon="5.70792">
        <ele>795.4</ele>
        <time>2021-05-29T06:08:04Z</time>
      </trkpt>
      <trkpt lat="45.01052" lon="5.70792">
        <ele>795.6</ele>
        <time>2021-05-29T06:08:05Z</time>
      </trkpt>
      <trkpt lat="45.01052" lon="5.70793">
        <ele>795.8</ele>
        <time>2021-05-29T06:08:06Z</time>
      </trkpt>
      <trkpt lat="45.01053" lon="5.70793">
        <ele>796.2</ele>
        <time>2021-05-29T06:08:07Z</time>
      </trkpt>
      <trkpt lat="45.01054" lon="5.70794">
        <ele>796.4</ele>
        <time>2021-05-29T06:08:08Z</time>
      </trkpt>
      <trkpt lat="45.01054" lon="5.70794">
        <ele>796.8</ele>
        <time>2021-05-29T06:08:09Z</time>
      </trkpt>
      <trkpt lat="45.01055" lon="5.70795">
        <ele>797</ele>
        <time>2021-05-29T06:08:10Z</time>
      </trkpt>
      <trkpt lat="45.01056" lon="5.70795">
        <ele>797.2</ele>
        <time>2021-05-29T06:08:11Z</time>
      </trkpt>
      <trkpt lat="45.01056" lon="5.70796">
        <ele>797.4</ele>
        <time>2021-05-29T06:08:12Z</time>
      </trkpt>
      <trkpt lat="45.01057" lon="5.70797">
        <ele>797.6</ele>
        <time>2021-05-29T06:08:13Z</time>
      </trkpt>
      <trkpt lat="45.01057" lon="5.70797">
        <ele>798</ele>
        <time>2021-05-29T06:08:14Z</time>
      </trkpt>
      <trkpt lat="45.01058" lon="5.70798">
        <ele>798.2</ele>
        <time>2021-05-29T06:08:15Z</time>
      </trkpt>
      <trkpt lat="45.01059" lon="5.70798">
        <ele>798.6</ele>
        <time>2021-05-29T06:08:16Z</time>
      </trkpt>
      <trkpt lat="45.01059" lon="5.70799">
        <ele>798.8</ele>
        <time>2021-05-29T06:08:17Z</time>
      </trkpt>
      <trkpt lat="45.0106" lon="5.70799">
        <ele>799.4</ele>
        <time>2021-05-29T06:08:18Z</time>
      </trkpt>
      <trkpt lat="45.01061" lon="5.708">
        <ele>799.8</ele>
        <time>2021-05-29T06:08:19Z</time>
      </trkpt>
      <trkpt lat="45.01061" lon="5.708">
        <ele>800</ele>
        <time>2021-05-29T06:08:20Z</time>
      </trkpt>
      <trkpt lat="45.01062" lon="5.70801">
        <ele>800</ele>
        <time>2021-05-29T06:08:21Z</time>
      </trkpt>
      <trkpt lat="45.01062" lon="5.70802">
        <ele>800</ele>
        <time>2021-05-29T06:08:22Z</time>
      </trkpt>
      <trkpt lat="45.01062" lon="5.70803">
        <ele>800.2</ele>
        <time>2021-05-29T06:08:23Z</time>
      </trkpt>
      <trkpt lat="45.01063" lon="5.70803">
        <ele>800.6</ele>
        <time>2021-05-29T06:08:24Z</time>
      </trkpt>
      <trkpt lat="45.01063" lon="5.70804">
        <ele>800.8</ele>
        <time>2021-05-29T06:08:25Z</time>
      </trkpt>
      <trkpt lat="45.01064" lon="5.70805">
        <ele>800.8</ele>
        <time>2021-05-29T06:08:26Z</time>
      </trkpt>
      <trkpt lat="45.01064" lon="5.70806">
        <ele>801</ele>
        <time>2021-05-29T06:08:27Z</time>
      </trkpt>
      <trkpt lat="45.01064" lon="5.70806">
        <ele>801.2</ele>
        <time>2021-05-29T06:08:28Z</time>
      </trkpt>
      <trkpt lat="45.01065" lon="5.70807">
        <ele>801.2</ele>
        <time>2021-05-29T06:08:29Z</time>
      </trkpt>
      <trkpt lat="45.01065" lon="5.70808">
        <ele>801.6</ele>
        <time>2021-05-29T06:08:30Z</time>
      </trkpt>
      <trkpt lat="45.01066" lon="5.70809">
        <ele>801.8</ele>
        <time>2021-05-29T06:08:31Z</time>
      </trkpt>
      <trkpt lat="45.01066" lon="5.7081">
        <ele>802.2</ele>
        <time>2021-05-29T06:08:32Z</time>
      </trkpt>
      <trkpt lat="45.01067" lon="5.7081">
        <ele>802.4</ele>
        <time>2021-05-29T06:08:33Z</time>
      </trkpt>
      <trkpt lat="45.01067" lon="5.70811">
        <ele>803</ele>
        <time>2021-05-29T06:08:34Z</time>
      </trkpt>
      <trkpt lat="45.01068" lon="5.70812">
        <ele>803</ele>
        <time>2021-05-29T06:08:35Z</time>
      </trkpt>
      <trkpt lat="45.01069" lon="5.70813">
        <ele>803.2</ele>
        <time>2021-05-29T06:08:36Z</time>
      </trkpt>
      <trkpt lat="45.0107" lon="5.70814">
        <ele>803.6</ele>
        <time>2021-05-29T06:08:37Z</time>
      </trkpt>
      <trkpt lat="45.01071" lon="5.70815">
        <ele>803.8</ele>
        <time>2021-05-29T06:08:38Z</time>
      </trkpt>
      <trkpt lat="45.01072" lon="5.70816">
        <ele>804</ele>
        <time>2021-05-29T06:08:39Z</time>
      </trkpt>
      <trkpt lat="45.01072" lon="5.70817">
        <ele>804.2</ele>
        <time>2021-05-29T06:08:40Z</time>
      </trkpt>
      <trkpt lat="45.01073" lon="5.70818">
        <ele>804.4</ele>
        <time>2021-05-29T06:08:41Z</time>
      </trkpt>
      <trkpt lat="45.01074" lon="5.70819">
        <ele>804.8</ele>
        <time>2021-05-29T06:08:42Z</time>
      </trkpt>
      <trkpt lat="45.01075" lon="5.7082">
        <ele>804.8</ele>
        <time>2021-05-29T06:08:43Z</time>
      </trkpt>
      <trkpt lat="45.01075" lon="5.70821">
        <ele>805.2</ele>
        <time>2021-05-29T06:08:44Z</time>
      </trkpt>
      <trkpt lat="45.01076" lon="5.70822">
        <ele>805.2</ele>
        <time>2021-05-29T06:08:45Z</time>
      </trkpt>
      <trkpt lat="45.01076" lon="5.70824">
        <ele>805.4</ele>
        <time>2021-05-29T06:08:46Z</time>
      </trkpt>
      <trkpt lat="45.01077" lon="5.70825">
        <ele>805.6</ele>
        <time>2021-05-29T06:08:47Z</time>
      </trkpt>
      <trkpt lat="45.01078" lon="5.70826">
        <ele>806.2</ele>
        <time>2021-05-29T06:08:48Z</time>
      </trkpt>
      <trkpt lat="45.01078" lon="5.70827">
        <ele>806.4</ele>
        <time>2021-05-29T06:08:49Z</time>
      </trkpt>
      <trkpt lat="45.01079" lon="5.70828">
        <ele>806.6</ele>
        <time>2021-05-29T06:08:50Z</time>
      </trkpt>
      <trkpt lat="45.01079" lon="5.70829">
        <ele>806.8</ele>
        <time>2021-05-29T06:08:51Z</time>
      </trkpt>
      <trkpt lat="45.0108" lon="5.7083">
        <ele>806.8</ele>
        <time>2021-05-29T06:08:52Z</time>
      </trkpt>
      <trkpt lat="45.0108" lon="5.70832">
        <ele>807</ele>
        <time>2021-05-29T06:08:53Z</time>
      </trkpt>
      <trkpt lat="45.01081" lon="5.70833">
        <ele>807.4</ele>
        <time>2021-05-29T06:08:54Z</time>
      </trkpt>
      <trkpt lat="45.01082" lon="5.70834">
        <ele>807.6</ele>
        <time>2021-05-29T06:08:55Z</time>
      </trkpt>
      <trkpt lat="45.01082" lon="5.70835">
        <ele>807.8</ele>
        <time>2021-05-29T06:08:56Z</time>
      </trkpt>
      <trkpt lat="45.01083" lon="5.70836">
        <ele>808.2</ele>
        <time>2021-05-29T06:08:57Z</time>
      </trkpt>
      <trkpt lat="45.01084" lon="5.70838">
        <ele>808.4</ele>
        <time>2021-05-29T06:08:58Z</time>
      </trkpt>
      <trkpt lat="45.01084" lon="5.70839">
        <ele>808.8</ele>
        <time>2021-05-29T06:08:59Z</time>
      </trkpt>
      <trkpt lat="45.01085" lon="5.7084">
        <ele>809</ele>
        <time>2021-05-29T06:09:00Z</time>
      </trkpt>
      <trkpt lat="45.01085" lon="5.70841">
        <ele>809.2</ele>
        <time>2021-05-29T06:09:01Z</time>
      </trkpt>
      <trkpt lat="45.01086" lon="5.70842">
        <ele>809.2</ele>
        <time>2021-05-29T06:09:02Z</time>
      </trkpt>
      <trkpt lat="45.01088" lon="5.70843">
        <ele>809.4</ele>
        <time>2021-05-29T06:09:03Z</time>
      </trkpt>
      <trkpt lat="45.01089" lon="5.70843">
        <ele>809.8</ele>
        <time>2021-05-29T06:09:04Z</time>
      </trkpt>
      <trkpt lat="45.0109" lon="5.70844">
        <ele>809.8</ele>
        <time>2021-05-29T06:09:05Z</time>
      </trkpt>
      <trkpt lat="45.01091" lon="5.70844">
        <ele>810</ele>
        <time>2021-05-29T06:09:06Z</time>
      </trkpt>
      <trkpt lat="45.01092" lon="5.70845">
        <ele>810.4</ele>
        <time>2021-05-29T06:09:07Z</time>
      </trkpt>
      <trkpt lat="45.01093" lon="5.70846">
        <ele>810.8</ele>
        <time>2021-05-29T06:09:08Z</time>
      </trkpt>
      <trkpt lat="45.01094" lon="5.70846">
        <ele>811.2</ele>
        <time>2021-05-29T06:09:09Z</time>
      </trkpt>
      <trkpt lat="45.01095" lon="5.70847">
        <ele>811.4</ele>
        <time>2021-05-29T06:09:10Z</time>
      </trkpt>
      <trkpt lat="45.01095" lon="5.70848">
        <ele>811.4</ele>
        <time>2021-05-29T06:09:11Z</time>
      </trkpt>
      <trkpt lat="45.01095" lon="5.70849">
        <ele>811.6</ele>
        <time>2021-05-29T06:09:12Z</time>
      </trkpt>
      <trkpt lat="45.01095" lon="5.7085">
        <ele>812</ele>
        <time>2021-05-29T06:09:13Z</time>
      </trkpt>
      <trkpt lat="45.01096" lon="5.70851">
        <ele>812.2</ele>
        <time>2021-05-29T06:09:14Z</time>
      </trkpt>
      <trkpt lat="45.01096" lon="5.70851">
        <ele>812.6</ele>
        <time>2021-05-29T06:09:15Z</time>
      </trkpt>
      <trkpt lat="45.01096" lon="5.70852">
        <ele>812.8</ele>
        <time>2021-05-29T06:09:16Z</time>
      </trkpt>
      <trkpt lat="45.01097" lon="5.70853">
        <ele>812.8</ele>
        <time>2021-05-29T06:09:17Z</time>
      </trkpt>
      <trkpt lat="45.01097" lon="5.70854">
        <ele>813.2</ele>
        <time>2021-05-29T06:09:18Z</time>
      </trkpt>
      <trkpt lat="45.01097" lon="5.70855">
        <ele>813.6</ele>
        <time>2021-05-29T06:09:19Z</time>
      </trkpt>
      <trkpt lat="45.01097" lon="5.70855">
        <ele>813.8</ele>
        <time>2021-05-29T06:09:20Z</time>
      </trkpt>
      <trkpt lat="45.01098" lon="5.70856">
        <ele>814.2</ele>
        <time>2021-05-29T06:09:21Z</time>
      </trkpt>
      <trkpt lat="45.01098" lon="5.70857">
        <ele>814.6</ele>
        <time>2021-05-29T06:09:22Z</time>
      </trkpt>
      <trkpt lat="45.01098" lon="5.70858">
        <ele>815</ele>
        <time>2021-05-29T06:09:23Z</time>
      </trkpt>
      <trkpt lat="45.01097" lon="5.70858">
        <ele>815.2</ele>
        <time>2021-05-29T06:09:24Z</time>
      </trkpt>
      <trkpt lat="45.01097" lon="5.70859">
        <ele>815.4</ele>
        <time>2021-05-29T06:09:25Z</time>
      </trkpt>
      <trkpt lat="45.01097" lon="5.70859">
        <ele>815.4</ele>
        <time>2021-05-29T06:09:26Z</time>
      </trkpt>
      <trkpt lat="45.01097" lon="5.70859">
        <ele>815.4</ele>
        <time>2021-05-29T06:09:27Z</time>
      </trkpt>
      <trkpt lat="45.01096" lon="5.7086">
        <ele>815.8</ele>
        <time>2021-05-29T06:09:28Z</time>
      </trkpt>
      <trkpt lat="45.01096" lon="5.7086">
        <ele>815.8</ele>
        <time>2021-05-29T06:09:29Z</time>
      </trkpt>
      <trkpt lat="45.01096" lon="5.70861">
        <ele>816</ele>
        <time>2021-05-29T06:09:30Z</time>
      </trkpt>
      <trkpt lat="45.01096" lon="5.70861">
        <ele>816.4</ele>
        <time>2021-05-29T06:09:31Z</time>
      </trkpt>
      <trkpt lat="45.01095" lon="5.70862">
        <ele>816.6</ele>
        <time>2021-05-29T06:09:32Z</time>
      </trkpt>
      <trkpt lat="45.01095" lon="5.70862">
        <ele>817</ele>
        <time>2021-05-29T06:09:33Z</time>
      </trkpt>
      <trkpt lat="45.01095" lon="5.70863">
        <ele>817.4</ele>
        <time>2021-05-29T06:09:34Z</time>
      </trkpt>
      <trkpt lat="45.01094" lon="5.70863">
        <ele>817.6</ele>
        <time>2021-05-29T06:09:35Z</time>
      </trkpt>
      <trkpt lat="45.01094" lon="5.70864">
        <ele>817.8</ele>
        <time>2021-05-29T06:09:36Z</time>
      </trkpt>
      <trkpt lat="45.01094" lon="5.70864">
        <ele>818</ele>
        <time>2021-05-29T06:09:37Z</time>
      </trkpt>
      <trkpt lat="45.01094" lon="5.70865">
        <ele>818.2</ele>
        <time>2021-05-29T06:09:38Z</time>
      </trkpt>
      <trkpt lat="45.01093" lon="5.70865">
        <ele>818.4</ele>
        <time>2021-05-29T06:09:39Z</time>
      </trkpt>
      <trkpt lat="45.01093" lon="5.70866">
        <ele>818.6</ele>
        <time>2021-05-29T06:09:40Z</time>
      </trkpt>
      <trkpt lat="45.01093" lon="5.70866">
        <ele>818.6</ele>
        <time>2021-05-29T06:09:41Z</time>
      </trkpt>
      <trkpt lat="45.01092" lon="5.70867">
        <ele>818.8</ele>
        <time>2021-05-29T06:09:42Z</time>
      </trkpt>
      <trkpt lat="45.01092" lon="5.70867">
        <ele>819</ele>
        <time>2021-05-29T06:09:43Z</time>
      </trkpt>
      <trkpt lat="45.01092" lon="5.70868">
        <ele>819.2</ele>
        <time>2021-05-29T06:09:44Z</time>
      </trkpt>
      <trkpt lat="45.01091" lon="5.7087">
        <ele>819.4</ele>
        <time>2021-05-29T06:09:45Z</time>
      </trkpt>
      <trkpt lat="45.0109" lon="5.70871">
        <ele>819.6</ele>
        <time>2021-05-29T06:09:46Z</time>
      </trkpt>
      <trkpt lat="45.0109" lon="5.70872">
        <ele>819.8</ele>
        <time>2021-05-29T06:09:47Z</time>
      </trkpt>
      <trkpt lat="45.01089" lon="5.70873">
        <ele>820</ele>
        <time>2021-05-29T06:09:48Z</time>
      </trkpt>
      <trkpt lat="45.01088" lon="5.70874">
        <ele>820.2</ele>
        <time>2021-05-29T06:09:49Z</time>
      </trkpt>
      <trkpt lat="45.01088" lon="5.70875">
        <ele>820.6</ele>
        <time>2021-05-29T06:09:50Z</time>
      </trkpt>
      <trkpt lat="45.01087" lon="5.70877">
        <ele>820.8</ele>
        <time>2021-05-29T06:09:51Z</time>
      </trkpt>
      <trkpt lat="45.01086" lon="5.70878">
        <ele>820.8</ele>
        <time>2021-05-29T06:09:52Z</time>
      </trkpt>
      <trkpt lat="45.01086" lon="5.70879">
        <ele>821</ele>
        <time>2021-05-29T06:09:53Z</time>
      </trkpt>
      <trkpt lat="45.01085" lon="5.7088">
        <ele>821.4</ele>
        <time>2021-05-29T06:09:54Z</time>
      </trkpt>
      <trkpt lat="45.01084" lon="5.70881">
        <ele>821.6</ele>
        <time>2021-05-29T06:09:55Z</time>
      </trkpt>
      <trkpt lat="45.01082" lon="5.70884">
        <ele>822</ele>
        <time>2021-05-29T06:09:56Z</time>
      </trkpt>
      <trkpt lat="45.0108" lon="5.70887">
        <ele>822.2</ele>
        <time>2021-05-29T06:09:57Z</time>
      </trkpt>
      <trkpt lat="45.01077" lon="5.70889">
        <ele>822.2</ele>
        <time>2021-05-29T06:09:58Z</time>
      </trkpt>
      <trkpt lat="45.01075" lon="5.70892">
        <ele>822.4</ele>
        <time>2021-05-29T06:10:00Z</time>
      </trkpt>
      <trkpt lat="45.01073" lon="5.70895">
        <ele>822.6</ele>
        <time>2021-05-29T06:10:01Z</time>
      </trkpt>
      <trkpt lat="45.0107" lon="5.70897">
        <ele>822.8</ele>
        <time>2021-05-29T06:10:02Z</time>
      </trkpt>
      <trkpt lat="45.01063" lon="5.70903">
        <ele>823</ele>
        <time>2021-05-29T06:10:03Z</time>
      </trkpt>
      <trkpt lat="45.01062" lon="5.70904">
        <ele>823.4</ele>
        <time>2021-05-29T06:10:04Z</time>
      </trkpt>
      <trkpt lat="45.01061" lon="5.70905">
        <ele>823.6</ele>
        <time>2021-05-29T06:10:05Z</time>
      </trkpt>
      <trkpt lat="45.01056" lon="5.70908">
        <ele>823.8</ele>
        <time>2021-05-29T06:10:06Z</time>
      </trkpt>
      <trkpt lat="45.01055" lon="5.70908">
        <ele>824.2</ele>
        <time>2021-05-29T06:10:07Z</time>
      </trkpt>
      <trkpt lat="45.01054" lon="5.70909">
        <ele>824.4</ele>
        <time>2021-05-29T06:10:08Z</time>
      </trkpt>
      <trkpt lat="45.01053" lon="5.7091">
        <ele>824.8</ele>
        <time>2021-05-29T06:10:09Z</time>
      </trkpt>
      <trkpt lat="45.0105" lon="5.70913">
        <ele>825</ele>
        <time>2021-05-29T06:10:10Z</time>
      </trkpt>
      <trkpt lat="45.01046" lon="5.70916">
        <ele>825</ele>
        <time>2021-05-29T06:10:11Z</time>
      </trkpt>
      <trkpt lat="45.01043" lon="5.70919">
        <ele>825.4</ele>
        <time>2021-05-29T06:10:12Z</time>
      </trkpt>
      <trkpt lat="45.01039" lon="5.70923">
        <ele>825.6</ele>
        <time>2021-05-29T06:10:13Z</time>
      </trkpt>
      <trkpt lat="45.01039" lon="5.70923">
        <ele>826</ele>
        <time>2021-05-29T06:10:14Z</time>
      </trkpt>
      <trkpt lat="45.01039" lon="5.70923">
        <ele>826.2</ele>
        <time>2021-05-29T06:10:15Z</time>
      </trkpt>
      <trkpt lat="45.01038" lon="5.70925">
        <ele>826.4</ele>
        <time>2021-05-29T06:10:16Z</time>
      </trkpt>
      <trkpt lat="45.01036" lon="5.70927">
        <ele>826.8</ele>
        <time>2021-05-29T06:10:17Z</time>
      </trkpt>
      <trkpt lat="45.01035" lon="5.70929">
        <ele>827.2</ele>
        <time>2021-05-29T06:10:18Z</time>
      </trkpt>
      <trkpt lat="45.01034" lon="5.7093">
        <ele>827.4</ele>
        <time>2021-05-29T06:10:19Z</time>
      </trkpt>
      <trkpt lat="45.01033" lon="5.70932">
        <ele>827.6</ele>
        <time>2021-05-29T06:10:20Z</time>
      </trkpt>
      <trkpt lat="45.01033" lon="5.70933">
        <ele>827.8</ele>
        <time>2021-05-29T06:10:21Z</time>
      </trkpt>
      <trkpt lat="45.01033" lon="5.70934">
        <ele>828.2</ele>
        <time>2021-05-29T06:10:22Z</time>
      </trkpt>
      <trkpt lat="45.01033" lon="5.70934">
        <ele>828.4</ele>
        <time>2021-05-29T06:10:23Z</time>
      </trkpt>
      <trkpt lat="45.01033" lon="5.70935">
        <ele>828.4</ele>
        <time>2021-05-29T06:10:24Z</time>
      </trkpt>
      <trkpt lat="45.01033" lon="5.70936">
        <ele>828.8</ele>
        <time>2021-05-29T06:10:25Z</time>
      </trkpt>
      <trkpt lat="45.01033" lon="5.70937">
        <ele>829</ele>
        <time>2021-05-29T06:10:26Z</time>
      </trkpt>
      <trkpt lat="45.01033" lon="5.70937">
        <ele>829.2</ele>
        <time>2021-05-29T06:10:27Z</time>
      </trkpt>
      <trkpt lat="45.01033" lon="5.70938">
        <ele>829.4</ele>
        <time>2021-05-29T06:10:28Z</time>
      </trkpt>
      <trkpt lat="45.01033" lon="5.70939">
        <ele>829.8</ele>
        <time>2021-05-29T06:10:29Z</time>
      </trkpt>
      <trkpt lat="45.01033" lon="5.70939">
        <ele>829.8</ele>
        <time>2021-05-29T06:10:30Z</time>
      </trkpt>
      <trkpt lat="45.01033" lon="5.7094">
        <ele>830.2</ele>
        <time>2021-05-29T06:10:31Z</time>
      </trkpt>
      <trkpt lat="45.01034" lon="5.70941">
        <ele>830.4</ele>
        <time>2021-05-29T06:10:32Z</time>
      </trkpt>
      <trkpt lat="45.01034" lon="5.70941">
        <ele>830.8</ele>
        <time>2021-05-29T06:10:33Z</time>
      </trkpt>
      <trkpt lat="45.01034" lon="5.70942">
        <ele>831</ele>
        <time>2021-05-29T06:10:34Z</time>
      </trkpt>
      <trkpt lat="45.01034" lon="5.70943">
        <ele>831</ele>
        <time>2021-05-29T06:10:35Z</time>
      </trkpt>
      <trkpt lat="45.01034" lon="5.70943">
        <ele>831.2</ele>
        <time>2021-05-29T06:10:36Z</time>
      </trkpt>
      <trkpt lat="45.01034" lon="5.70944">
        <ele>831.6</ele>
        <time>2021-05-29T06:10:37Z</time>
      </trkpt>
      <trkpt lat="45.01034" lon="5.70945">
        <ele>831.6</ele>
        <time>2021-05-29T06:10:38Z</time>
      </trkpt>
      <trkpt lat="45.01034" lon="5.70945">
        <ele>831.8</ele>
        <time>2021-05-29T06:10:39Z</time>
      </trkpt>
      <trkpt lat="45.01034" lon="5.70946">
        <ele>832.2</ele>
        <time>2021-05-29T06:10:40Z</time>
      </trkpt>
      <trkpt lat="45.01033" lon="5.70946">
        <ele>832.4</ele>
        <time>2021-05-29T06:10:41Z</time>
      </trkpt>
      <trkpt lat="45.01032" lon="5.70947">
        <ele>832.6</ele>
        <time>2021-05-29T06:10:42Z</time>
      </trkpt>
      <trkpt lat="45.01032" lon="5.70948">
        <ele>832.8</ele>
        <time>2021-05-29T06:10:43Z</time>
      </trkpt>
      <trkpt lat="45.01031" lon="5.70948">
        <ele>833</ele>
        <time>2021-05-29T06:10:44Z</time>
      </trkpt>
      <trkpt lat="45.01031" lon="5.70949">
        <ele>833.2</ele>
        <time>2021-05-29T06:10:45Z</time>
      </trkpt>
      <trkpt lat="45.0103" lon="5.70949">
        <ele>833.6</ele>
        <time>2021-05-29T06:10:46Z</time>
      </trkpt>
      <trkpt lat="45.01029" lon="5.7095">
        <ele>834</ele>
        <time>2021-05-29T06:10:47Z</time>
      </trkpt>
      <trkpt lat="45.01029" lon="5.7095">
        <ele>834.2</ele>
        <time>2021-05-29T06:10:48Z</time>
      </trkpt>
      <trkpt lat="45.01028" lon="5.70951">
        <ele>834.4</ele>
        <time>2021-05-29T06:10:49Z</time>
      </trkpt>
      <trkpt lat="45.01028" lon="5.70951">
        <ele>834.6</ele>
        <time>2021-05-29T06:10:50Z</time>
      </trkpt>
      <trkpt lat="45.01027" lon="5.70952">
        <ele>834.8</ele>
        <time>2021-05-29T06:10:51Z</time>
      </trkpt>
      <trkpt lat="45.01026" lon="5.70953">
        <ele>835</ele>
        <time>2021-05-29T06:10:52Z</time>
      </trkpt>
      <trkpt lat="45.01026" lon="5.70953">
        <ele>835</ele>
        <time>2021-05-29T06:10:53Z</time>
      </trkpt>
      <trkpt lat="45.01023" lon="5.70955">
        <ele>835</ele>
        <time>2021-05-29T06:10:54Z</time>
      </trkpt>
      <trkpt lat="45.01021" lon="5.70956">
        <ele>835.4</ele>
        <time>2021-05-29T06:10:55Z</time>
      </trkpt>
      <trkpt lat="45.01018" lon="5.70957">
        <ele>835.6</ele>
        <time>2021-05-29T06:10:56Z</time>
      </trkpt>
      <trkpt lat="45.01016" lon="5.70959">
        <ele>835.8</ele>
        <time>2021-05-29T06:10:57Z</time>
      </trkpt>
      <trkpt lat="45.01015" lon="5.7096">
        <ele>836</ele>
        <time>2021-05-29T06:10:58Z</time>
      </trkpt>
      <trkpt lat="45.01014" lon="5.70962">
        <ele>836.2</ele>
        <time>2021-05-29T06:10:59Z</time>
      </trkpt>
      <trkpt lat="45.01013" lon="5.70963">
        <ele>836.6</ele>
        <time>2021-05-29T06:11:00Z</time>
      </trkpt>
      <trkpt lat="45.01012" lon="5.70964">
        <ele>836.8</ele>
        <time>2021-05-29T06:11:01Z</time>
      </trkpt>
      <trkpt lat="45.01011" lon="5.70966">
        <ele>837.2</ele>
        <time>2021-05-29T06:11:02Z</time>
      </trkpt>
      <trkpt lat="45.0101" lon="5.70967">
        <ele>837.2</ele>
        <time>2021-05-29T06:11:03Z</time>
      </trkpt>
      <trkpt lat="45.01009" lon="5.70969">
        <ele>837.4</ele>
        <time>2021-05-29T06:11:04Z</time>
      </trkpt>
      <trkpt lat="45.01008" lon="5.7097">
        <ele>837.6</ele>
        <time>2021-05-29T06:11:05Z</time>
      </trkpt>
      <trkpt lat="45.01008" lon="5.70971">
        <ele>837.8</ele>
        <time>2021-05-29T06:11:06Z</time>
      </trkpt>
      <trkpt lat="45.01007" lon="5.70972">
        <ele>838.2</ele>
        <time>2021-05-29T06:11:07Z</time>
      </trkpt>
      <trkpt lat="45.01007" lon="5.70973">
        <ele>838.2</ele>
        <time>2021-05-29T06:11:08Z</time>
      </trkpt>
      <trkpt lat="45.01006" lon="5.70974">
        <ele>838.4</ele>
        <time>2021-05-29T06:11:09Z</time>
      </trkpt>
      <trkpt lat="45.01005" lon="5.70975">
        <ele>838.6</ele>
        <time>2021-05-29T06:11:10Z</time>
      </trkpt>
      <trkpt lat="45.01005" lon="5.70976">
        <ele>838.8</ele>
        <time>2021-05-29T06:11:11Z</time>
      </trkpt>
      <trkpt lat="45.01004" lon="5.70977">
        <ele>838.8</ele>
        <time>2021-05-29T06:11:12Z</time>
      </trkpt>
      <trkpt lat="45.01003" lon="5.70978">
        <ele>839</ele>
        <time>2021-05-29T06:11:13Z</time>
      </trkpt>
      <trkpt lat="45.01003" lon="5.7098">
        <ele>839</ele>
        <time>2021-05-29T06:11:14Z</time>
      </trkpt>
      <trkpt lat="45.01002" lon="5.7098">
        <ele>839.2</ele>
        <time>2021-05-29T06:11:15Z</time>
      </trkpt>
      <trkpt lat="45.01001" lon="5.7098">
        <ele>839.2</ele>
        <time>2021-05-29T06:11:16Z</time>
      </trkpt>
      <trkpt lat="45.01" lon="5.7098">
        <ele>839.4</ele>
        <time>2021-05-29T06:11:17Z</time>
      </trkpt>
      <trkpt lat="45.00999" lon="5.7098">
        <ele>839.4</ele>
        <time>2021-05-29T06:11:18Z</time>
      </trkpt>
      <trkpt lat="45.00998" lon="5.70981">
        <ele>839.6</ele>
        <time>2021-05-29T06:11:19Z</time>
      </trkpt>
      <trkpt lat="45.00998" lon="5.70981">
        <ele>839.6</ele>
        <time>2021-05-29T06:11:20Z</time>
      </trkpt>
      <trkpt lat="45.00997" lon="5.70981">
        <ele>839.8</ele>
        <time>2021-05-29T06:11:21Z</time>
      </trkpt>
      <trkpt lat="45.00996" lon="5.70981">
        <ele>839.8</ele>
        <time>2021-05-29T06:11:22Z</time>
      </trkpt>
      <trkpt lat="45.00995" lon="5.70982">
        <ele>840</ele>
        <time>2021-05-29T06:11:23Z</time>
      </trkpt>
      <trkpt lat="45.00994" lon="5.70982">
        <ele>840</ele>
        <time>2021-05-29T06:11:24Z</time>
      </trkpt>
      <trkpt lat="45.00994" lon="5.70982">
        <ele>840.2</ele>
        <time>2021-05-29T06:11:25Z</time>
      </trkpt>
      <trkpt lat="45.00992" lon="5.70982">
        <ele>840.2</ele>
        <time>2021-05-29T06:11:26Z</time>
      </trkpt>
      <trkpt lat="45.00991" lon="5.70983">
        <ele>840.4</ele>
        <time>2021-05-29T06:11:27Z</time>
      </trkpt>
      <trkpt lat="45.00989" lon="5.70983">
        <ele>840.4</ele>
        <time>2021-05-29T06:11:28Z</time>
      </trkpt>
      <trkpt lat="45.00988" lon="5.70984">
        <ele>840.4</ele>
        <time>2021-05-29T06:11:29Z</time>
      </trkpt>
      <trkpt lat="45.00986" lon="5.70984">
        <ele>840.4</ele>
        <time>2021-05-29T06:11:30Z</time>
      </trkpt>
      <trkpt lat="45.00985" lon="5.70984">
        <ele>840.4</ele>
        <time>2021-05-29T06:11:31Z</time>
      </trkpt>
      <trkpt lat="45.00983" lon="5.70985">
        <ele>840.4</ele>
        <time>2021-05-29T06:11:32Z</time>
      </trkpt>
      <trkpt lat="45.00982" lon="5.70985">
        <ele>840.4</ele>
        <time>2021-05-29T06:11:33Z</time>
      </trkpt>
      <trkpt lat="45.00981" lon="5.70986">
        <ele>840.6</ele>
        <time>2021-05-29T06:11:34Z</time>
      </trkpt>
      <trkpt lat="45.0098" lon="5.70986">
        <ele>840.8</ele>
        <time>2021-05-29T06:11:35Z</time>
      </trkpt>
      <trkpt lat="45.00979" lon="5.70986">
        <ele>841</ele>
        <time>2021-05-29T06:11:36Z</time>
      </trkpt>
      <trkpt lat="45.00977" lon="5.70987">
        <ele>841</ele>
        <time>2021-05-29T06:11:37Z</time>
      </trkpt>
      <trkpt lat="45.00976" lon="5.70987">
        <ele>841</ele>
        <time>2021-05-29T06:11:38Z</time>
      </trkpt>
      <trkpt lat="45.00975" lon="5.70988">
        <ele>841.2</ele>
        <time>2021-05-29T06:11:39Z</time>
      </trkpt>
      <trkpt lat="45.00974" lon="5.70988">
        <ele>841.4</ele>
        <time>2021-05-29T06:11:40Z</time>
      </trkpt>
      <trkpt lat="45.00973" lon="5.70989">
        <ele>841.6</ele>
        <time>2021-05-29T06:11:41Z</time>
      </trkpt>
      <trkpt lat="45.00971" lon="5.70989">
        <ele>841.6</ele>
        <time>2021-05-29T06:11:42Z</time>
      </trkpt>
      <trkpt lat="45.0097" lon="5.7099">
        <ele>841.8</ele>
        <time>2021-05-29T06:11:43Z</time>
      </trkpt>
      <trkpt lat="45.00968" lon="5.70991">
        <ele>842</ele>
        <time>2021-05-29T06:11:44Z</time>
      </trkpt>
      <trkpt lat="45.00967" lon="5.70992">
        <ele>842.2</ele>
        <time>2021-05-29T06:11:45Z</time>
      </trkpt>
      <trkpt lat="45.00965" lon="5.70992">
        <ele>842.4</ele>
        <time>2021-05-29T06:11:46Z</time>
      </trkpt>
      <trkpt lat="45.00965" lon="5.70993">
        <ele>842.4</ele>
        <time>2021-05-29T06:11:47Z</time>
      </trkpt>
      <trkpt lat="45.00964" lon="5.70993">
        <ele>842.4</ele>
        <time>2021-05-29T06:11:48Z</time>
      </trkpt>
      <trkpt lat="45.00963" lon="5.70993">
        <ele>842.8</ele>
        <time>2021-05-29T06:11:49Z</time>
      </trkpt>
      <trkpt lat="45.00962" lon="5.70993">
        <ele>843</ele>
        <time>2021-05-29T06:11:50Z</time>
      </trkpt>
      <trkpt lat="45.00962" lon="5.70994">
        <ele>843.2</ele>
        <time>2021-05-29T06:11:51Z</time>
      </trkpt>
      <trkpt lat="45.00961" lon="5.70994">
        <ele>843.4</ele>
        <time>2021-05-29T06:11:52Z</time>
      </trkpt>
      <trkpt lat="45.0096" lon="5.70994">
        <ele>843.4</ele>
        <time>2021-05-29T06:11:53Z</time>
      </trkpt>
      <trkpt lat="45.00959" lon="5.70994">
        <ele>843.8</ele>
        <time>2021-05-29T06:11:54Z</time>
      </trkpt>
      <trkpt lat="45.00959" lon="5.70995">
        <ele>844</ele>
        <time>2021-05-29T06:11:55Z</time>
      </trkpt>
      <trkpt lat="45.00958" lon="5.70995">
        <ele>844.2</ele>
        <time>2021-05-29T06:11:56Z</time>
      </trkpt>
      <trkpt lat="45.00957" lon="5.70995">
        <ele>844.6</ele>
        <time>2021-05-29T06:11:57Z</time>
      </trkpt>
      <trkpt lat="45.00956" lon="5.70995">
        <ele>844.8</ele>
        <time>2021-05-29T06:11:58Z</time>
      </trkpt>
      <trkpt lat="45.00954" lon="5.70997">
        <ele>845</ele>
        <time>2021-05-29T06:11:59Z</time>
      </trkpt>
      <trkpt lat="45.00952" lon="5.70998">
        <ele>844.8</ele>
        <time>2021-05-29T06:12:00Z</time>
      </trkpt>
      <trkpt lat="45.00949" lon="5.71">
        <ele>844.8</ele>
        <time>2021-05-29T06:12:01Z</time>
      </trkpt>
      <trkpt lat="45.00947" lon="5.71002">
        <ele>844.8</ele>
        <time>2021-05-29T06:12:02Z</time>
      </trkpt>
      <trkpt lat="45.00945" lon="5.71003">
        <ele>844.6</ele>
        <time>2021-05-29T06:12:03Z</time>
      </trkpt>
      <trkpt lat="45.00944" lon="5.71004">
        <ele>844.6</ele>
        <time>2021-05-29T06:12:04Z</time>
      </trkpt>
      <trkpt lat="45.00943" lon="5.71005">
        <ele>844.6</ele>
        <time>2021-05-29T06:12:05Z</time>
      </trkpt>
      <trkpt lat="45.00941" lon="5.71006">
        <ele>844.8</ele>
        <time>2021-05-29T06:12:06Z</time>
      </trkpt>
      <trkpt lat="45.0094" lon="5.71007">
        <ele>845.2</ele>
        <time>2021-05-29T06:12:07Z</time>
      </trkpt>
      <trkpt lat="45.00938" lon="5.71008">
        <ele>845.2</ele>
        <time>2021-05-29T06:12:08Z</time>
      </trkpt>
      <trkpt lat="45.00937" lon="5.71009">
        <ele>845.4</ele>
        <time>2021-05-29T06:12:09Z</time>
      </trkpt>
      <trkpt lat="45.00936" lon="5.7101">
        <ele>845.6</ele>
        <time>2021-05-29T06:12:10Z</time>
      </trkpt>
      <trkpt lat="45.00935" lon="5.71011">
        <ele>845.8</ele>
        <time>2021-05-29T06:12:11Z</time>
      </trkpt>
      <trkpt lat="45.00934" lon="5.71012">
        <ele>846</ele>
        <time>2021-05-29T06:12:12Z</time>
      </trkpt>
      <trkpt lat="45.00933" lon="5.71014">
        <ele>846.2</ele>
        <time>2021-05-29T06:12:13Z</time>
      </trkpt>
      <trkpt lat="45.00932" lon="5.71015">
        <ele>846.6</ele>
        <time>2021-05-29T06:12:14Z</time>
      </trkpt>
      <trkpt lat="45.00931" lon="5.71016">
        <ele>846.8</ele>
        <time>2021-05-29T06:12:15Z</time>
      </trkpt>
      <trkpt lat="45.0093" lon="5.71017">
        <ele>847</ele>
        <time>2021-05-29T06:12:16Z</time>
      </trkpt>
      <trkpt lat="45.00929" lon="5.71019">
        <ele>847.2</ele>
        <time>2021-05-29T06:12:17Z</time>
      </trkpt>
      <trkpt lat="45.00928" lon="5.7102">
        <ele>847.4</ele>
        <time>2021-05-29T06:12:18Z</time>
      </trkpt>
      <trkpt lat="45.00927" lon="5.71022">
        <ele>847.8</ele>
        <time>2021-05-29T06:12:19Z</time>
      </trkpt>
      <trkpt lat="45.00926" lon="5.71023">
        <ele>848.2</ele>
        <time>2021-05-29T06:12:20Z</time>
      </trkpt>
      <trkpt lat="45.00924" lon="5.71024">
        <ele>848.8</ele>
        <time>2021-05-29T06:12:21Z</time>
      </trkpt>
      <trkpt lat="45.00923" lon="5.71026">
        <ele>849</ele>
        <time>2021-05-29T06:12:22Z</time>
      </trkpt>
      <trkpt lat="45.00922" lon="5.71027">
        <ele>849.2</ele>
        <time>2021-05-29T06:12:23Z</time>
      </trkpt>
      <trkpt lat="45.00921" lon="5.71027">
        <ele>849.8</ele>
        <time>2021-05-29T06:12:24Z</time>
      </trkpt>
      <trkpt lat="45.0092" lon="5.71028">
        <ele>850</ele>
        <time>2021-05-29T06:12:25Z</time>
      </trkpt>
      <trkpt lat="45.00918" lon="5.71029">
        <ele>849.8</ele>
        <time>2021-05-29T06:12:26Z</time>
      </trkpt>
      <trkpt lat="45.00917" lon="5.71029">
        <ele>850</ele>
        <time>2021-05-29T06:12:27Z</time>
      </trkpt>
      <trkpt lat="45.00916" lon="5.7103">
        <ele>850</ele>
        <time>2021-05-29T06:12:28Z</time>
      </trkpt>
      <trkpt lat="45.00915" lon="5.71031">
        <ele>850</ele>
        <time>2021-05-29T06:12:29Z</time>
      </trkpt>
      <trkpt lat="45.00914" lon="5.71031">
        <ele>850.2</ele>
        <time>2021-05-29T06:12:30Z</time>
      </trkpt>
      <trkpt lat="45.00913" lon="5.71032">
        <ele>850.2</ele>
        <time>2021-05-29T06:12:31Z</time>
      </trkpt>
      <trkpt lat="45.00912" lon="5.71032">
        <ele>850.6</ele>
        <time>2021-05-29T06:12:32Z</time>
      </trkpt>
      <trkpt lat="45.00911" lon="5.71033">
        <ele>850.6</ele>
        <time>2021-05-29T06:12:33Z</time>
      </trkpt>
      <trkpt lat="45.0091" lon="5.71033">
        <ele>850.8</ele>
        <time>2021-05-29T06:12:34Z</time>
      </trkpt>
      <trkpt lat="45.00909" lon="5.71034">
        <ele>851.2</ele>
        <time>2021-05-29T06:12:35Z</time>
      </trkpt>
      <trkpt lat="45.00909" lon="5.71034">
        <ele>851.8</ele>
        <time>2021-05-29T06:12:36Z</time>
      </trkpt>
      <trkpt lat="45.00908" lon="5.71035">
        <ele>852</ele>
        <time>2021-05-29T06:12:37Z</time>
      </trkpt>
      <trkpt lat="45.00907" lon="5.71035">
        <ele>852.2</ele>
        <time>2021-05-29T06:12:38Z</time>
      </trkpt>
      <trkpt lat="45.00906" lon="5.71036">
        <ele>852.6</ele>
        <time>2021-05-29T06:12:39Z</time>
      </trkpt>
      <trkpt lat="45.00905" lon="5.71036">
        <ele>852.8</ele>
        <time>2021-05-29T06:12:40Z</time>
      </trkpt>
      <trkpt lat="45.00904" lon="5.71037">
        <ele>853.2</ele>
        <time>2021-05-29T06:12:41Z</time>
      </trkpt>
      <trkpt lat="45.00903" lon="5.71038">
        <ele>853.4</ele>
        <time>2021-05-29T06:12:42Z</time>
      </trkpt>
      <trkpt lat="45.00901" lon="5.71039">
        <ele>853.6</ele>
        <time>2021-05-29T06:12:43Z</time>
      </trkpt>
      <trkpt lat="45.009" lon="5.7104">
        <ele>854</ele>
        <time>2021-05-29T06:12:44Z</time>
      </trkpt>
      <trkpt lat="45.00899" lon="5.71041">
        <ele>854</ele>
        <time>2021-05-29T06:12:45Z</time>
      </trkpt>
      <trkpt lat="45.00898" lon="5.71041">
        <ele>854.4</ele>
        <time>2021-05-29T06:12:46Z</time>
      </trkpt>
      <trkpt lat="45.00896" lon="5.71042">
        <ele>854.6</ele>
        <time>2021-05-29T06:12:47Z</time>
      </trkpt>
      <trkpt lat="45.00895" lon="5.71043">
        <ele>855</ele>
        <time>2021-05-29T06:12:48Z</time>
      </trkpt>
      <trkpt lat="45.00894" lon="5.71043">
        <ele>855.2</ele>
        <time>2021-05-29T06:12:49Z</time>
      </trkpt>
      <trkpt lat="45.00893" lon="5.71043">
        <ele>855.4</ele>
        <time>2021-05-29T06:12:50Z</time>
      </trkpt>
      <trkpt lat="45.00892" lon="5.71044">
        <ele>855.8</ele>
        <time>2021-05-29T06:12:51Z</time>
      </trkpt>
      <trkpt lat="45.00891" lon="5.71044">
        <ele>856</ele>
        <time>2021-05-29T06:12:52Z</time>
      </trkpt>
      <trkpt lat="45.00889" lon="5.71044">
        <ele>856.4</ele>
        <time>2021-05-29T06:12:53Z</time>
      </trkpt>
      <trkpt lat="45.00888" lon="5.71044">
        <ele>856.6</ele>
        <time>2021-05-29T06:12:54Z</time>
      </trkpt>
      <trkpt lat="45.00887" lon="5.71044">
        <ele>856.8</ele>
        <time>2021-05-29T06:12:55Z</time>
      </trkpt>
      <trkpt lat="45.00886" lon="5.71044">
        <ele>857</ele>
        <time>2021-05-29T06:12:56Z</time>
      </trkpt>
      <trkpt lat="45.00885" lon="5.71045">
        <ele>857</ele>
        <time>2021-05-29T06:12:57Z</time>
      </trkpt>
      <trkpt lat="45.00883" lon="5.71045">
        <ele>857.2</ele>
        <time>2021-05-29T06:12:58Z</time>
      </trkpt>
      <trkpt lat="45.00882" lon="5.71045">
        <ele>857.2</ele>
        <time>2021-05-29T06:12:59Z</time>
      </trkpt>
      <trkpt lat="45.0088" lon="5.71045">
        <ele>857.2</ele>
        <time>2021-05-29T06:13:00Z</time>
      </trkpt>
      <trkpt lat="45.00879" lon="5.71046">
        <ele>857.6</ele>
        <time>2021-05-29T06:13:01Z</time>
      </trkpt>
      <trkpt lat="45.00877" lon="5.71046">
        <ele>858</ele>
        <time>2021-05-29T06:13:02Z</time>
      </trkpt>
      <trkpt lat="45.00876" lon="5.71046">
        <ele>858.6</ele>
        <time>2021-05-29T06:13:03Z</time>
      </trkpt>
      <trkpt lat="45.00875" lon="5.71047">
        <ele>859</ele>
        <time>2021-05-29T06:13:04Z</time>
      </trkpt>
      <trkpt lat="45.00873" lon="5.71047">
        <ele>859</ele>
        <time>2021-05-29T06:13:05Z</time>
      </trkpt>
      <trkpt lat="45.00872" lon="5.71047">
        <ele>859.4</ele>
        <time>2021-05-29T06:13:06Z</time>
      </trkpt>
      <trkpt lat="45.00871" lon="5.71047">
        <ele>859.6</ele>
        <time>2021-05-29T06:13:07Z</time>
      </trkpt>
      <trkpt lat="45.0087" lon="5.71047">
        <ele>859.8</ele>
        <time>2021-05-29T06:13:08Z</time>
      </trkpt>
      <trkpt lat="45.00868" lon="5.71048">
        <ele>860</ele>
        <time>2021-05-29T06:13:09Z</time>
      </trkpt>
      <trkpt lat="45.00867" lon="5.71048">
        <ele>860.2</ele>
        <time>2021-05-29T06:13:10Z</time>
      </trkpt>
      <trkpt lat="45.00866" lon="5.71048">
        <ele>860.4</ele>
        <time>2021-05-29T06:13:11Z</time>
      </trkpt>
      <trkpt lat="45.00865" lon="5.71048">
        <ele>860.6</ele>
        <time>2021-05-29T06:13:12Z</time>
      </trkpt>
      <trkpt lat="45.00864" lon="5.71048">
        <ele>860.8</ele>
        <time>2021-05-29T06:13:13Z</time>
      </trkpt>
      <trkpt lat="45.00863" lon="5.71048">
        <ele>861</ele>
        <time>2021-05-29T06:13:14Z</time>
      </trkpt>
      <trkpt lat="45.00862" lon="5.71048">
        <ele>861</ele>
        <time>2021-05-29T06:13:15Z</time>
      </trkpt>
      <trkpt lat="45.00862" lon="5.71048">
        <ele>861.2</ele>
        <time>2021-05-29T06:13:16Z</time>
      </trkpt>
      <trkpt lat="45.00861" lon="5.71048">
        <ele>861.4</ele>
        <time>2021-05-29T06:13:17Z</time>
      </trkpt>
      <trkpt lat="45.0086" lon="5.71047">
        <ele>861.6</ele>
        <time>2021-05-29T06:13:18Z</time>
      </trkpt>
      <trkpt lat="45.00859" lon="5.71047">
        <ele>861.8</ele>
        <time>2021-05-29T06:13:19Z</time>
      </trkpt>
      <trkpt lat="45.00858" lon="5.71047">
        <ele>862.2</ele>
        <time>2021-05-29T06:13:20Z</time>
      </trkpt>
      <trkpt lat="45.00857" lon="5.71047">
        <ele>862.6</ele>
        <time>2021-05-29T06:13:21Z</time>
      </trkpt>
      <trkpt lat="45.00857" lon="5.71047">
        <ele>862.8</ele>
        <time>2021-05-29T06:13:22Z</time>
      </trkpt>
      <trkpt lat="45.00855" lon="5.71047">
        <ele>863</ele>
        <time>2021-05-29T06:13:23Z</time>
      </trkpt>
      <trkpt lat="45.00854" lon="5.71048">
        <ele>863.2</ele>
        <time>2021-05-29T06:13:24Z</time>
      </trkpt>
      <trkpt lat="45.00853" lon="5.71048">
        <ele>863.4</ele>
        <time>2021-05-29T06:13:25Z</time>
      </trkpt>
      <trkpt lat="45.00852" lon="5.71048">
        <ele>863.6</ele>
        <time>2021-05-29T06:13:26Z</time>
      </trkpt>
      <trkpt lat="45.0085" lon="5.71049">
        <ele>863.6</ele>
        <time>2021-05-29T06:13:27Z</time>
      </trkpt>
      <trkpt lat="45.00849" lon="5.71049">
        <ele>863.8</ele>
        <time>2021-05-29T06:13:28Z</time>
      </trkpt>
      <trkpt lat="45.00848" lon="5.71049">
        <ele>864.4</ele>
        <time>2021-05-29T06:13:29Z</time>
      </trkpt>
      <trkpt lat="45.00847" lon="5.71049">
        <ele>864.8</ele>
        <time>2021-05-29T06:13:30Z</time>
      </trkpt>
      <trkpt lat="45.00846" lon="5.71049">
        <ele>865.2</ele>
        <time>2021-05-29T06:13:31Z</time>
      </trkpt>
      <trkpt lat="45.00844" lon="5.71049">
        <ele>865.4</ele>
        <time>2021-05-29T06:13:32Z</time>
      </trkpt>
      <trkpt lat="45.00843" lon="5.71049">
        <ele>865.6</ele>
        <time>2021-05-29T06:13:33Z</time>
      </trkpt>
      <trkpt lat="45.00842" lon="5.71049">
        <ele>865.8</ele>
        <time>2021-05-29T06:13:34Z</time>
      </trkpt>
      <trkpt lat="45.00841" lon="5.71049">
        <ele>866</ele>
        <time>2021-05-29T06:13:35Z</time>
      </trkpt>
      <trkpt lat="45.0084" lon="5.71049">
        <ele>866.4</ele>
        <time>2021-05-29T06:13:36Z</time>
      </trkpt>
      <trkpt lat="45.00838" lon="5.71049">
        <ele>866.6</ele>
        <time>2021-05-29T06:13:37Z</time>
      </trkpt>
      <trkpt lat="45.00837" lon="5.71049">
        <ele>866.8</ele>
        <time>2021-05-29T06:13:38Z</time>
      </trkpt>
      <trkpt lat="45.00836" lon="5.71049">
        <ele>867</ele>
        <time>2021-05-29T06:13:39Z</time>
      </trkpt>
      <trkpt lat="45.00835" lon="5.71049">
        <ele>867.4</ele>
        <time>2021-05-29T06:13:40Z</time>
      </trkpt>
      <trkpt lat="45.00834" lon="5.71048">
        <ele>867.6</ele>
        <time>2021-05-29T06:13:41Z</time>
      </trkpt>
      <trkpt lat="45.00833" lon="5.71048">
        <ele>867.8</ele>
        <time>2021-05-29T06:13:42Z</time>
      </trkpt>
      <trkpt lat="45.00832" lon="5.71048">
        <ele>868.4</ele>
        <time>2021-05-29T06:13:43Z</time>
      </trkpt>
      <trkpt lat="45.00831" lon="5.71048">
        <ele>868.6</ele>
        <time>2021-05-29T06:13:44Z</time>
      </trkpt>
      <trkpt lat="45.0083" lon="5.71048">
        <ele>868.8</ele>
        <time>2021-05-29T06:13:45Z</time>
      </trkpt>
      <trkpt lat="45.00829" lon="5.71047">
        <ele>869.2</ele>
        <time>2021-05-29T06:13:46Z</time>
      </trkpt>
      <trkpt lat="45.00828" lon="5.71047">
        <ele>869.4</ele>
        <time>2021-05-29T06:13:47Z</time>
      </trkpt>
      <trkpt lat="45.00827" lon="5.71047">
        <ele>869.4</ele>
        <time>2021-05-29T06:13:48Z</time>
      </trkpt>
      <trkpt lat="45.00827" lon="5.71047">
        <ele>869.6</ele>
        <time>2021-05-29T06:13:49Z</time>
      </trkpt>
      <trkpt lat="45.00826" lon="5.71047">
        <ele>869.6</ele>
        <time>2021-05-29T06:13:50Z</time>
      </trkpt>
      <trkpt lat="45.00826" lon="5.71047">
        <ele>869.8</ele>
        <time>2021-05-29T06:13:51Z</time>
      </trkpt>
      <trkpt lat="45.00825" lon="5.71047">
        <ele>870</ele>
        <time>2021-05-29T06:13:52Z</time>
      </trkpt>
      <trkpt lat="45.00825" lon="5.71047">
        <ele>870.2</ele>
        <time>2021-05-29T06:13:53Z</time>
      </trkpt>
      <trkpt lat="45.00824" lon="5.71047">
        <ele>870.4</ele>
        <time>2021-05-29T06:13:54Z</time>
      </trkpt>
      <trkpt lat="45.00824" lon="5.71047">
        <ele>870.6</ele>
        <time>2021-05-29T06:13:55Z</time>
      </trkpt>
      <trkpt lat="45.00823" lon="5.71048">
        <ele>871</ele>
        <time>2021-05-29T06:13:56Z</time>
      </trkpt>
      <trkpt lat="45.00822" lon="5.71048">
        <ele>871.2</ele>
        <time>2021-05-29T06:13:57Z</time>
      </trkpt>
      <trkpt lat="45.00822" lon="5.71048">
        <ele>871.4</ele>
        <time>2021-05-29T06:13:58Z</time>
      </trkpt>
      <trkpt lat="45.00821" lon="5.71048">
        <ele>871.8</ele>
        <time>2021-05-29T06:13:59Z</time>
      </trkpt>
      <trkpt lat="45.00821" lon="5.71048">
        <ele>872.2</ele>
        <time>2021-05-29T06:14:00Z</time>
      </trkpt>
      <trkpt lat="45.0082" lon="5.71048">
        <ele>872.4</ele>
        <time>2021-05-29T06:14:01Z</time>
      </trkpt>
      <trkpt lat="45.0082" lon="5.71048">
        <ele>872.6</ele>
        <time>2021-05-29T06:14:02Z</time>
      </trkpt>
      <trkpt lat="45.00819" lon="5.71048">
        <ele>872.8</ele>
        <time>2021-05-29T06:14:03Z</time>
      </trkpt>
      <trkpt lat="45.00819" lon="5.71048">
        <ele>873</ele>
        <time>2021-05-29T06:14:04Z</time>
      </trkpt>
      <trkpt lat="45.00818" lon="5.71048">
        <ele>873.4</ele>
        <time>2021-05-29T06:14:05Z</time>
      </trkpt>
      <trkpt lat="45.00817" lon="5.71048">
        <ele>873.8</ele>
        <time>2021-05-29T06:14:06Z</time>
      </trkpt>
      <trkpt lat="45.00816" lon="5.71048">
        <ele>874.2</ele>
        <time>2021-05-29T06:14:07Z</time>
      </trkpt>
      <trkpt lat="45.00815" lon="5.71048">
        <ele>874.4</ele>
        <time>2021-05-29T06:14:08Z</time>
      </trkpt>
      <trkpt lat="45.00814" lon="5.71047">
        <ele>874.6</ele>
        <time>2021-05-29T06:14:09Z</time>
      </trkpt>
      <trkpt lat="45.00813" lon="5.71047">
        <ele>875</ele>
        <time>2021-05-29T06:14:10Z</time>
      </trkpt>
      <trkpt lat="45.00812" lon="5.71047">
        <ele>875.4</ele>
        <time>2021-05-29T06:14:11Z</time>
      </trkpt>
      <trkpt lat="45.00811" lon="5.71047">
        <ele>875.4</ele>
        <time>2021-05-29T06:14:12Z</time>
      </trkpt>
      <trkpt lat="45.0081" lon="5.71047">
        <ele>875.6</ele>
        <time>2021-05-29T06:14:13Z</time>
      </trkpt>
      <trkpt lat="45.00809" lon="5.71047">
        <ele>875.6</ele>
        <time>2021-05-29T06:14:14Z</time>
      </trkpt>
      <trkpt lat="45.00808" lon="5.71046">
        <ele>876</ele>
        <time>2021-05-29T06:14:15Z</time>
      </trkpt>
      <trkpt lat="45.00807" lon="5.71046">
        <ele>876.2</ele>
        <time>2021-05-29T06:14:16Z</time>
      </trkpt>
      <trkpt lat="45.00806" lon="5.71047">
        <ele>876.4</ele>
        <time>2021-05-29T06:14:17Z</time>
      </trkpt>
      <trkpt lat="45.00805" lon="5.71047">
        <ele>876.6</ele>
        <time>2021-05-29T06:14:18Z</time>
      </trkpt>
      <trkpt lat="45.00804" lon="5.71047">
        <ele>876.8</ele>
        <time>2021-05-29T06:14:19Z</time>
      </trkpt>
      <trkpt lat="45.00804" lon="5.71047">
        <ele>877.2</ele>
        <time>2021-05-29T06:14:20Z</time>
      </trkpt>
      <trkpt lat="45.00803" lon="5.71047">
        <ele>877.6</ele>
        <time>2021-05-29T06:14:21Z</time>
      </trkpt>
      <trkpt lat="45.00802" lon="5.71047">
        <ele>877.8</ele>
        <time>2021-05-29T06:14:22Z</time>
      </trkpt>
      <trkpt lat="45.00801" lon="5.71047">
        <ele>878</ele>
        <time>2021-05-29T06:14:23Z</time>
      </trkpt>
      <trkpt lat="45.008" lon="5.71047">
        <ele>878</ele>
        <time>2021-05-29T06:14:24Z</time>
      </trkpt>
      <trkpt lat="45.00799" lon="5.71047">
        <ele>878.4</ele>
        <time>2021-05-29T06:14:25Z</time>
      </trkpt>
      <trkpt lat="45.00798" lon="5.71048">
        <ele>878.8</ele>
        <time>2021-05-29T06:14:26Z</time>
      </trkpt>
      <trkpt lat="45.00797" lon="5.71048">
        <ele>879</ele>
        <time>2021-05-29T06:14:27Z</time>
      </trkpt>
      <trkpt lat="45.00796" lon="5.71049">
        <ele>879.2</ele>
        <time>2021-05-29T06:14:28Z</time>
      </trkpt>
      <trkpt lat="45.00795" lon="5.71049">
        <ele>879.2</ele>
        <time>2021-05-29T06:14:29Z</time>
      </trkpt>
      <trkpt lat="45.00794" lon="5.7105">
        <ele>879.6</ele>
        <time>2021-05-29T06:14:30Z</time>
      </trkpt>
      <trkpt lat="45.00793" lon="5.7105">
        <ele>880</ele>
        <time>2021-05-29T06:14:31Z</time>
      </trkpt>
      <trkpt lat="45.00792" lon="5.71051">
        <ele>880.2</ele>
        <time>2021-05-29T06:14:32Z</time>
      </trkpt>
      <trkpt lat="45.00791" lon="5.71051">
        <ele>880.4</ele>
        <time>2021-05-29T06:14:33Z</time>
      </trkpt>
      <trkpt lat="45.0079" lon="5.71052">
        <ele>880.8</ele>
        <time>2021-05-29T06:14:34Z</time>
      </trkpt>
      <trkpt lat="45.0079" lon="5.71052">
        <ele>881.2</ele>
        <time>2021-05-29T06:14:35Z</time>
      </trkpt>
      <trkpt lat="45.00789" lon="5.71052">
        <ele>881.4</ele>
        <time>2021-05-29T06:14:36Z</time>
      </trkpt>
      <trkpt lat="45.00789" lon="5.71052">
        <ele>881.8</ele>
        <time>2021-05-29T06:14:37Z</time>
      </trkpt>
      <trkpt lat="45.00788" lon="5.71052">
        <ele>882.2</ele>
        <time>2021-05-29T06:14:38Z</time>
      </trkpt>
      <trkpt lat="45.00788" lon="5.71053">
        <ele>882.6</ele>
        <time>2021-05-29T06:14:39Z</time>
      </trkpt>
      <trkpt lat="45.00787" lon="5.71053">
        <ele>882.8</ele>
        <time>2021-05-29T06:14:40Z</time>
      </trkpt>
      <trkpt lat="45.00787" lon="5.71053">
        <ele>882.8</ele>
        <time>2021-05-29T06:14:41Z</time>
      </trkpt>
      <trkpt lat="45.00786" lon="5.71053">
        <ele>882.8</ele>
        <time>2021-05-29T06:14:42Z</time>
      </trkpt>
      <trkpt lat="45.00786" lon="5.71053">
        <ele>883.4</ele>
        <time>2021-05-29T06:14:43Z</time>
      </trkpt>
      <trkpt lat="45.00785" lon="5.71053">
        <ele>883.8</ele>
        <time>2021-05-29T06:14:44Z</time>
      </trkpt>
      <trkpt lat="45.00785" lon="5.71053">
        <ele>883.8</ele>
        <time>2021-05-29T06:14:45Z</time>
      </trkpt>
      <trkpt lat="45.00785" lon="5.71054">
        <ele>884.2</ele>
        <time>2021-05-29T06:14:46Z</time>
      </trkpt>
      <trkpt lat="45.00784" lon="5.71054">
        <ele>884.4</ele>
        <time>2021-05-29T06:14:47Z</time>
      </trkpt>
      <trkpt lat="45.00784" lon="5.71054">
        <ele>884.6</ele>
        <time>2021-05-29T06:14:48Z</time>
      </trkpt>
      <trkpt lat="45.00783" lon="5.71054">
        <ele>884.8</ele>
        <time>2021-05-29T06:14:49Z</time>
      </trkpt>
      <trkpt lat="45.00783" lon="5.71054">
        <ele>885</ele>
        <time>2021-05-29T06:14:50Z</time>
      </trkpt>
      <trkpt lat="45.00782" lon="5.71054">
        <ele>885.2</ele>
        <time>2021-05-29T06:14:51Z</time>
      </trkpt>
      <trkpt lat="45.00782" lon="5.71054">
        <ele>885.6</ele>
        <time>2021-05-29T06:14:52Z</time>
      </trkpt>
      <trkpt lat="45.00781" lon="5.71054">
        <ele>886</ele>
        <time>2021-05-29T06:14:53Z</time>
      </trkpt>
      <trkpt lat="45.00779" lon="5.71052">
        <ele>886.2</ele>
        <time>2021-05-29T06:14:54Z</time>
      </trkpt>
      <trkpt lat="45.00777" lon="5.7105">
        <ele>886.6</ele>
        <time>2021-05-29T06:14:55Z</time>
      </trkpt>
      <trkpt lat="45.00776" lon="5.71047">
        <ele>887</ele>
        <time>2021-05-29T06:14:56Z</time>
      </trkpt>
      <trkpt lat="45.00774" lon="5.71045">
        <ele>887.2</ele>
        <time>2021-05-29T06:14:57Z</time>
      </trkpt>
      <trkpt lat="45.00772" lon="5.71042">
        <ele>887.4</ele>
        <time>2021-05-29T06:14:58Z</time>
      </trkpt>
      <trkpt lat="45.0077" lon="5.7104">
        <ele>888</ele>
        <time>2021-05-29T06:14:59Z</time>
      </trkpt>
      <trkpt lat="45.00768" lon="5.71037">
        <ele>888</ele>
        <time>2021-05-29T06:15:00Z</time>
      </trkpt>
      <trkpt lat="45.00768" lon="5.71037">
        <ele>888</ele>
        <time>2021-05-29T06:15:01Z</time>
      </trkpt>
      <trkpt lat="45.00767" lon="5.71038">
        <ele>888.4</ele>
        <time>2021-05-29T06:15:02Z</time>
      </trkpt>
      <trkpt lat="45.00766" lon="5.71038">
        <ele>888.8</ele>
        <time>2021-05-29T06:15:03Z</time>
      </trkpt>
      <trkpt lat="45.00766" lon="5.71038">
        <ele>888.8</ele>
        <time>2021-05-29T06:15:04Z</time>
      </trkpt>
      <trkpt lat="45.00765" lon="5.71038">
        <ele>889</ele>
        <time>2021-05-29T06:15:05Z</time>
      </trkpt>
      <trkpt lat="45.00765" lon="5.71038">
        <ele>889.4</ele>
        <time>2021-05-29T06:15:06Z</time>
      </trkpt>
      <trkpt lat="45.00764" lon="5.71039">
        <ele>889.4</ele>
        <time>2021-05-29T06:15:07Z</time>
      </trkpt>
      <trkpt lat="45.00764" lon="5.71039">
        <ele>889.8</ele>
        <time>2021-05-29T06:15:08Z</time>
      </trkpt>
      <trkpt lat="45.00763" lon="5.71039">
        <ele>890</ele>
        <time>2021-05-29T06:15:09Z</time>
      </trkpt>
      <trkpt lat="45.00763" lon="5.71039">
        <ele>890.2</ele>
        <time>2021-05-29T06:15:10Z</time>
      </trkpt>
      <trkpt lat="45.00762" lon="5.71039">
        <ele>890.4</ele>
        <time>2021-05-29T06:15:11Z</time>
      </trkpt>
      <trkpt lat="45.00761" lon="5.71039">
        <ele>890.6</ele>
        <time>2021-05-29T06:15:12Z</time>
      </trkpt>
      <trkpt lat="45.00761" lon="5.7104">
        <ele>891</ele>
        <time>2021-05-29T06:15:13Z</time>
      </trkpt>
      <trkpt lat="45.0076" lon="5.7104">
        <ele>891.4</ele>
        <time>2021-05-29T06:15:14Z</time>
      </trkpt>
      <trkpt lat="45.0076" lon="5.7104">
        <ele>891.8</ele>
        <time>2021-05-29T06:15:15Z</time>
      </trkpt>
      <trkpt lat="45.00759" lon="5.7104">
        <ele>891.8</ele>
        <time>2021-05-29T06:15:16Z</time>
      </trkpt>
      <trkpt lat="45.00759" lon="5.7104">
        <ele>892</ele>
        <time>2021-05-29T06:15:17Z</time>
      </trkpt>
      <trkpt lat="45.00758" lon="5.71039">
        <ele>892.2</ele>
        <time>2021-05-29T06:15:18Z</time>
      </trkpt>
      <trkpt lat="45.00757" lon="5.71039">
        <ele>892.4</ele>
        <time>2021-05-29T06:15:19Z</time>
      </trkpt>
      <trkpt lat="45.00756" lon="5.71039">
        <ele>892.6</ele>
        <time>2021-05-29T06:15:20Z</time>
      </trkpt>
      <trkpt lat="45.00756" lon="5.71038">
        <ele>893</ele>
        <time>2021-05-29T06:15:21Z</time>
      </trkpt>
      <trkpt lat="45.00755" lon="5.71038">
        <ele>893.4</ele>
        <time>2021-05-29T06:15:22Z</time>
      </trkpt>
      <trkpt lat="45.00754" lon="5.71038">
        <ele>893.6</ele>
        <time>2021-05-29T06:15:23Z</time>
      </trkpt>
      <trkpt lat="45.00753" lon="5.71037">
        <ele>893.8</ele>
        <time>2021-05-29T06:15:24Z</time>
      </trkpt>
      <trkpt lat="45.00753" lon="5.71037">
        <ele>894</ele>
        <time>2021-05-29T06:15:25Z</time>
      </trkpt>
      <trkpt lat="45.00752" lon="5.71037">
        <ele>894.4</ele>
        <time>2021-05-29T06:15:26Z</time>
      </trkpt>
      <trkpt lat="45.00751" lon="5.71036">
        <ele>894.6</ele>
        <time>2021-05-29T06:15:27Z</time>
      </trkpt>
      <trkpt lat="45.00751" lon="5.71036">
        <ele>894.6</ele>
        <time>2021-05-29T06:15:28Z</time>
      </trkpt>
      <trkpt lat="45.0075" lon="5.71036">
        <ele>895</ele>
        <time>2021-05-29T06:15:29Z</time>
      </trkpt>
      <trkpt lat="45.00749" lon="5.71036">
        <ele>895.4</ele>
        <time>2021-05-29T06:15:30Z</time>
      </trkpt>
      <trkpt lat="45.00749" lon="5.71036">
        <ele>895.8</ele>
        <time>2021-05-29T06:15:31Z</time>
      </trkpt>
      <trkpt lat="45.00748" lon="5.71037">
        <ele>896</ele>
        <time>2021-05-29T06:15:32Z</time>
      </trkpt>
      <trkpt lat="45.00748" lon="5.71037">
        <ele>896.2</ele>
        <time>2021-05-29T06:15:33Z</time>
      </trkpt>
      <trkpt lat="45.00747" lon="5.71037">
        <ele>896.4</ele>
        <time>2021-05-29T06:15:34Z</time>
      </trkpt>
      <trkpt lat="45.00746" lon="5.71038">
        <ele>896.6</ele>
        <time>2021-05-29T06:15:35Z</time>
      </trkpt>
      <trkpt lat="45.00746" lon="5.71038">
        <ele>897.2</ele>
        <time>2021-05-29T06:15:36Z</time>
      </trkpt>
      <trkpt lat="45.00745" lon="5.71038">
        <ele>897.6</ele>
        <time>2021-05-29T06:15:37Z</time>
      </trkpt>
      <trkpt lat="45.00745" lon="5.71039">
        <ele>897.8</ele>
        <time>2021-05-29T06:15:38Z</time>
      </trkpt>
      <trkpt lat="45.00744" lon="5.71039">
        <ele>897.8</ele>
        <time>2021-05-29T06:15:39Z</time>
      </trkpt>
      <trkpt lat="45.00743" lon="5.7104">
        <ele>898</ele>
        <time>2021-05-29T06:15:40Z</time>
      </trkpt>
      <trkpt lat="45.00743" lon="5.7104">
        <ele>898.2</ele>
        <time>2021-05-29T06:15:41Z</time>
      </trkpt>
      <trkpt lat="45.00742" lon="5.7104">
        <ele>898.4</ele>
        <time>2021-05-29T06:15:42Z</time>
      </trkpt>
      <trkpt lat="45.00742" lon="5.71041">
        <ele>898.8</ele>
        <time>2021-05-29T06:15:43Z</time>
      </trkpt>
      <trkpt lat="45.00741" lon="5.71041">
        <ele>899.2</ele>
        <time>2021-05-29T06:15:44Z</time>
      </trkpt>
      <trkpt lat="45.00741" lon="5.71041">
        <ele>899.4</ele>
        <time>2021-05-29T06:15:45Z</time>
      </trkpt>
      <trkpt lat="45.00741" lon="5.71041">
        <ele>900</ele>
        <time>2021-05-29T06:15:46Z</time>
      </trkpt>
      <trkpt lat="45.00741" lon="5.71041">
        <ele>900.2</ele>
        <time>2021-05-29T06:15:47Z</time>
      </trkpt>
      <trkpt lat="45.00741" lon="5.71041">
        <ele>900.6</ele>
        <time>2021-05-29T06:15:48Z</time>
      </trkpt>
      <trkpt lat="45.00741" lon="5.71041">
        <ele>900.8</ele>
        <time>2021-05-29T06:15:49Z</time>
      </trkpt>
      <trkpt lat="45.00741" lon="5.71041">
        <ele>901.2</ele>
        <time>2021-05-29T06:15:50Z</time>
      </trkpt>
      <trkpt lat="45.00741" lon="5.71041">
        <ele>901.2</ele>
        <time>2021-05-29T06:15:51Z</time>
      </trkpt>
      <trkpt lat="45.00741" lon="5.71041">
        <ele>900.8</ele>
        <time>2021-05-29T06:15:52Z</time>
      </trkpt>
      <trkpt lat="45.00741" lon="5.71041">
        <ele>900.4</ele>
        <time>2021-05-29T06:15:53Z</time>
      </trkpt>
      <trkpt lat="45.00741" lon="5.71041">
        <ele>900.2</ele>
        <time>2021-05-29T06:15:54Z</time>
      </trkpt>
      <trkpt lat="45.0074" lon="5.71041">
        <ele>900</ele>
        <time>2021-05-29T06:15:55Z</time>
      </trkpt>
      <trkpt lat="45.0074" lon="5.71041">
        <ele>900</ele>
        <time>2021-05-29T06:15:56Z</time>
      </trkpt>
      <trkpt lat="45.0074" lon="5.71041">
        <ele>900</ele>
        <time>2021-05-29T06:15:57Z</time>
      </trkpt>
      <trkpt lat="45.0074" lon="5.71041">
        <ele>900</ele>
        <time>2021-05-29T06:15:58Z</time>
      </trkpt>
      <trkpt lat="45.0074" lon="5.71042">
        <ele>900</ele>
        <time>2021-05-29T06:15:59Z</time>
      </trkpt>
      <trkpt lat="45.0074" lon="5.71042">
        <ele>900</ele>
        <time>2021-05-29T06:16:00Z</time>
      </trkpt>
      <trkpt lat="45.0074" lon="5.71042">
        <ele>899.8</ele>
        <time>2021-05-29T06:16:01Z</time>
      </trkpt>
      <trkpt lat="45.0074" lon="5.71042">
        <ele>899.6</ele>
        <time>2021-05-29T06:16:02Z</time>
      </trkpt>
      <trkpt lat="45.0074" lon="5.71042">
        <ele>899.8</ele>
        <time>2021-05-29T06:16:03Z</time>
      </trkpt>
      <trkpt lat="45.0074" lon="5.71042">
        <ele>899.8</ele>
        <time>2021-05-29T06:16:04Z</time>
      </trkpt>
      <trkpt lat="45.0074" lon="5.71042">
        <ele>899.8</ele>
        <time>2021-05-29T06:16:05Z</time>
      </trkpt>
      <trkpt lat="45.0074" lon="5.71042">
        <ele>899.6</ele>
        <time>2021-05-29T06:16:06Z</time>
      </trkpt>
      <trkpt lat="45.0074" lon="5.71042">
        <ele>899.6</ele>
        <time>2021-05-29T06:16:07Z</time>
      </trkpt>
      <trkpt lat="45.0074" lon="5.71042">
        <ele>899.6</ele>
        <time>2021-05-29T06:16:08Z</time>
      </trkpt>
      <trkpt lat="45.0074" lon="5.71042">
        <ele>899.6</ele>
        <time>2021-05-29T06:16:09Z</time>
      </trkpt>
      <trkpt lat="45.0074" lon="5.71042">
        <ele>899.6</ele>
        <time>2021-05-29T06:16:10Z</time>
      </trkpt>
      <trkpt lat="45.00739" lon="5.71042">
        <ele>899.6</ele>
        <time>2021-05-29T06:16:11Z</time>
      </trkpt>
      <trkpt lat="45.00739" lon="5.71042">
        <ele>899.4</ele>
        <time>2021-05-29T06:16:12Z</time>
      </trkpt>
      <trkpt lat="45.00739" lon="5.71042">
        <ele>899.6</ele>
        <time>2021-05-29T06:16:13Z</time>
      </trkpt>
      <trkpt lat="45.00739" lon="5.71042">
        <ele>899.8</ele>
        <time>2021-05-29T06:16:14Z</time>
      </trkpt>
      <trkpt lat="45.00739" lon="5.71042">
        <ele>899.8</ele>
        <time>2021-05-29T06:16:15Z</time>
      </trkpt>
      <trkpt lat="45.00739" lon="5.71042">
        <ele>899.8</ele>
        <time>2021-05-29T06:16:16Z</time>
      </trkpt>
      <trkpt lat="45.00739" lon="5.71042">
        <ele>900</ele>
        <time>2021-05-29T06:16:17Z</time>
      </trkpt>
      <trkpt lat="45.00739" lon="5.71042">
        <ele>900</ele>
        <time>2021-05-29T06:16:18Z</time>
      </trkpt>
      <trkpt lat="45.00739" lon="5.71042">
        <ele>900</ele>
        <time>2021-05-29T06:16:19Z</time>
      </trkpt>
      <trkpt lat="45.00739" lon="5.71042">
        <ele>899.8</ele>
        <time>2021-05-29T06:16:20Z</time>
      </trkpt>
      <trkpt lat="45.00739" lon="5.71042">
        <ele>899.8</ele>
        <time>2021-05-29T06:16:21Z</time>
      </trkpt>
      <trkpt lat="45.00739" lon="5.71042">
        <ele>899.8</ele>
        <time>2021-05-29T06:16:22Z</time>
      </trkpt>
      <trkpt lat="45.00739" lon="5.71042">
        <ele>899.8</ele>
        <time>2021-05-29T06:16:23Z</time>
      </trkpt>
      <trkpt lat="45.00739" lon="5.71043">
        <ele>899.8</ele>
        <time>2021-05-29T06:16:24Z</time>
      </trkpt>
      <trkpt lat="45.00739" lon="5.71043">
        <ele>899.8</ele>
        <time>2021-05-29T06:16:25Z</time>
      </trkpt>
      <trkpt lat="45.00738" lon="5.71043">
        <ele>899.6</ele>
        <time>2021-05-29T06:16:26Z</time>
      </trkpt>
      <trkpt lat="45.00738" lon="5.71043">
        <ele>899.6</ele>
        <time>2021-05-29T06:16:27Z</time>
      </trkpt>
      <trkpt lat="45.00738" lon="5.71043">
        <ele>899.6</ele>
        <time>2021-05-29T06:16:28Z</time>
      </trkpt>
      <trkpt lat="45.00738" lon="5.71043">
        <ele>899.6</ele>
        <time>2021-05-29T06:16:29Z</time>
      </trkpt>
      <trkpt lat="45.00738" lon="5.71043">
        <ele>899.6</ele>
        <time>2021-05-29T06:16:30Z</time>
      </trkpt>
      <trkpt lat="45.00738" lon="5.71043">
        <ele>899.6</ele>
        <time>2021-05-29T06:16:31Z</time>
      </trkpt>
      <trkpt lat="45.00738" lon="5.71043">
        <ele>899.4</ele>
        <time>2021-05-29T06:16:32Z</time>
      </trkpt>
      <trkpt lat="45.00738" lon="5.71043">
        <ele>899.4</ele>
        <time>2021-05-29T06:16:33Z</time>
      </trkpt>
      <trkpt lat="45.00738" lon="5.71043">
        <ele>899.2</ele>
        <time>2021-05-29T06:16:34Z</time>
      </trkpt>
      <trkpt lat="45.00738" lon="5.71043">
        <ele>899.2</ele>
        <time>2021-05-29T06:16:35Z</time>
      </trkpt>
      <trkpt lat="45.00738" lon="5.71043">
        <ele>899.4</ele>
        <time>2021-05-29T06:16:36Z</time>
      </trkpt>
      <trkpt lat="45.00738" lon="5.71043">
        <ele>899.4</ele>
        <time>2021-05-29T06:16:37Z</time>
      </trkpt>
      <trkpt lat="45.00738" lon="5.71043">
        <ele>899.4</ele>
        <time>2021-05-29T06:16:38Z</time>
      </trkpt>
      <trkpt lat="45.00738" lon="5.71043">
        <ele>899.4</ele>
        <time>2021-05-29T06:16:39Z</time>
      </trkpt>
      <trkpt lat="45.00738" lon="5.71043">
        <ele>899.4</ele>
        <time>2021-05-29T06:16:40Z</time>
      </trkpt>
      <trkpt lat="45.00738" lon="5.71043">
        <ele>899.6</ele>
        <time>2021-05-29T06:16:41Z</time>
      </trkpt>
      <trkpt lat="45.00737" lon="5.71043">
        <ele>899.8</ele>
        <time>2021-05-29T06:16:42Z</time>
      </trkpt>
      <trkpt lat="45.00737" lon="5.71043">
        <ele>899.8</ele>
        <time>2021-05-29T06:16:43Z</time>
      </trkpt>
      <trkpt lat="45.00737" lon="5.71043">
        <ele>900</ele>
        <time>2021-05-29T06:16:44Z</time>
      </trkpt>
      <trkpt lat="45.00737" lon="5.71043">
        <ele>900</ele>
        <time>2021-05-29T06:16:45Z</time>
      </trkpt>
      <trkpt lat="45.00737" lon="5.71043">
        <ele>900</ele>
        <time>2021-05-29T06:16:46Z</time>
      </trkpt>
      <trkpt lat="45.00737" lon="5.71043">
        <ele>900</ele>
        <time>2021-05-29T06:16:47Z</time>
      </trkpt>
      <trkpt lat="45.00737" lon="5.71043">
        <ele>899.8</ele>
        <time>2021-05-29T06:16:48Z</time>
      </trkpt>
      <trkpt lat="45.00737" lon="5.71043">
        <ele>899.8</ele>
        <time>2021-05-29T06:16:49Z</time>
      </trkpt>
      <trkpt lat="45.00737" lon="5.71044">
        <ele>899.8</ele>
        <time>2021-05-29T06:16:50Z</time>
      </trkpt>
      <trkpt lat="45.00737" lon="5.71044">
        <ele>899.6</ele>
        <time>2021-05-29T06:16:51Z</time>
      </trkpt>
      <trkpt lat="45.00737" lon="5.71044">
        <ele>899.6</ele>
        <time>2021-05-29T06:16:52Z</time>
      </trkpt>
      <trkpt lat="45.00737" lon="5.71044">
        <ele>899.4</ele>
        <time>2021-05-29T06:16:53Z</time>
      </trkpt>
      <trkpt lat="45.00737" lon="5.71044">
        <ele>899.2</ele>
        <time>2021-05-29T06:16:54Z</time>
      </trkpt>
      <trkpt lat="45.00737" lon="5.71044">
        <ele>899.2</ele>
        <time>2021-05-29T06:16:55Z</time>
      </trkpt>
      <trkpt lat="45.00737" lon="5.71044">
        <ele>899.4</ele>
        <time>2021-05-29T06:16:56Z</time>
      </trkpt>
      <trkpt lat="45.00737" lon="5.71044">
        <ele>899.2</ele>
        <time>2021-05-29T06:16:57Z</time>
      </trkpt>
      <trkpt lat="45.00736" lon="5.71044">
        <ele>899.2</ele>
        <time>2021-05-29T06:16:58Z</time>
      </trkpt>
      <trkpt lat="45.00736" lon="5.71044">
        <ele>899.2</ele>
        <time>2021-05-29T06:16:59Z</time>
      </trkpt>
      <trkpt lat="45.00736" lon="5.71044">
        <ele>899.2</ele>
        <time>2021-05-29T06:17:00Z</time>
      </trkpt>
      <trkpt lat="45.00736" lon="5.71044">
        <ele>899.2</ele>
        <time>2021-05-29T06:17:01Z</time>
      </trkpt>
      <trkpt lat="45.00736" lon="5.71044">
        <ele>899.2</ele>
        <time>2021-05-29T06:17:02Z</time>
      </trkpt>
      <trkpt lat="45.00736" lon="5.71044">
        <ele>899.4</ele>
        <time>2021-05-29T06:17:03Z</time>
      </trkpt>
      <trkpt lat="45.00736" lon="5.71044">
        <ele>899.4</ele>
        <time>2021-05-29T06:17:04Z</time>
      </trkpt>
      <trkpt lat="45.00736" lon="5.71044">
        <ele>899.2</ele>
        <time>2021-05-29T06:17:05Z</time>
      </trkpt>
      <trkpt lat="45.00736" lon="5.71044">
        <ele>899.4</ele>
        <time>2021-05-29T06:17:06Z</time>
      </trkpt>
      <trkpt lat="45.00736" lon="5.71044">
        <ele>899.4</ele>
        <time>2021-05-29T06:17:07Z</time>
      </trkpt>
      <trkpt lat="45.00736" lon="5.71044">
        <ele>899.4</ele>
        <time>2021-05-29T06:17:08Z</time>
      </trkpt>
      <trkpt lat="45.00736" lon="5.71044">
        <ele>899.2</ele>
        <time>2021-05-29T06:17:09Z</time>
      </trkpt>
      <trkpt lat="45.00736" lon="5.71044">
        <ele>899.4</ele>
        <time>2021-05-29T06:17:10Z</time>
      </trkpt>
      <trkpt lat="45.00736" lon="5.71044">
        <ele>899.6</ele>
        <time>2021-05-29T06:17:11Z</time>
      </trkpt>
      <trkpt lat="45.00736" lon="5.71044">
        <ele>899.6</ele>
        <time>2021-05-29T06:17:12Z</time>
      </trkpt>
      <trkpt lat="45.00736" lon="5.71044">
        <ele>899.6</ele>
        <time>2021-05-29T06:17:13Z</time>
      </trkpt>
      <trkpt lat="45.00735" lon="5.71044">
        <ele>899.6</ele>
        <time>2021-05-29T06:17:14Z</time>
      </trkpt>
      <trkpt lat="45.00735" lon="5.71044">
        <ele>899.6</ele>
        <time>2021-05-29T06:17:15Z</time>
      </trkpt>
      <trkpt lat="45.00735" lon="5.71045">
        <ele>899.6</ele>
        <time>2021-05-29T06:17:16Z</time>
      </trkpt>
      <trkpt lat="45.00735" lon="5.71045">
        <ele>899.4</ele>
        <time>2021-05-29T06:17:17Z</time>
      </trkpt>
      <trkpt lat="45.00735" lon="5.71045">
        <ele>899.6</ele>
        <time>2021-05-29T06:17:18Z</time>
      </trkpt>
      <trkpt lat="45.00735" lon="5.71045">
        <ele>899.4</ele>
        <time>2021-05-29T06:17:19Z</time>
      </trkpt>
      <trkpt lat="45.00735" lon="5.71045">
        <ele>899.6</ele>
        <time>2021-05-29T06:17:20Z</time>
      </trkpt>
      <trkpt lat="45.00735" lon="5.71045">
        <ele>899.6</ele>
        <time>2021-05-29T06:17:21Z</time>
      </trkpt>
      <trkpt lat="45.00735" lon="5.71045">
        <ele>899.8</ele>
        <time>2021-05-29T06:17:22Z</time>
      </trkpt>
      <trkpt lat="45.00735" lon="5.71045">
        <ele>899.8</ele>
        <time>2021-05-29T06:17:23Z</time>
      </trkpt>
      <trkpt lat="45.00735" lon="5.71045">
        <ele>899.6</ele>
        <time>2021-05-29T06:17:24Z</time>
      </trkpt>
      <trkpt lat="45.00735" lon="5.71045">
        <ele>899.6</ele>
        <time>2021-05-29T06:17:25Z</time>
      </trkpt>
      <trkpt lat="45.00735" lon="5.71045">
        <ele>899.4</ele>
        <time>2021-05-29T06:17:26Z</time>
      </trkpt>
      <trkpt lat="45.00735" lon="5.71045">
        <ele>899.2</ele>
        <time>2021-05-29T06:17:27Z</time>
      </trkpt>
      <trkpt lat="45.00735" lon="5.71045">
        <ele>899.4</ele>
        <time>2021-05-29T06:17:28Z</time>
      </trkpt>
      <trkpt lat="45.00735" lon="5.71045">
        <ele>899.4</ele>
        <time>2021-05-29T06:17:29Z</time>
      </trkpt>
      <trkpt lat="45.00734" lon="5.71045">
        <ele>899.2</ele>
        <time>2021-05-29T06:17:30Z</time>
      </trkpt>
      <trkpt lat="45.00734" lon="5.71045">
        <ele>899</ele>
        <time>2021-05-29T06:17:31Z</time>
      </trkpt>
      <trkpt lat="45.00734" lon="5.71045">
        <ele>899</ele>
        <time>2021-05-29T06:17:32Z</time>
      </trkpt>
      <trkpt lat="45.00734" lon="5.71045">
        <ele>899</ele>
        <time>2021-05-29T06:17:33Z</time>
      </trkpt>
      <trkpt lat="45.00734" lon="5.71045">
        <ele>899.4</ele>
        <time>2021-05-29T06:17:34Z</time>
      </trkpt>
      <trkpt lat="45.00734" lon="5.71045">
        <ele>899.8</ele>
        <time>2021-05-29T06:17:35Z</time>
      </trkpt>
      <trkpt lat="45.00734" lon="5.71045">
        <ele>900</ele>
        <time>2021-05-29T06:17:36Z</time>
      </trkpt>
      <trkpt lat="45.00734" lon="5.71045">
        <ele>900.2</ele>
        <time>2021-05-29T06:17:37Z</time>
      </trkpt>
      <trkpt lat="45.00734" lon="5.71045">
        <ele>900.6</ele>
        <time>2021-05-29T06:17:38Z</time>
      </trkpt>
      <trkpt lat="45.00734" lon="5.71045">
        <ele>900.8</ele>
        <time>2021-05-29T06:17:39Z</time>
      </trkpt>
      <trkpt lat="45.00734" lon="5.71045">
        <ele>901</ele>
        <time>2021-05-29T06:17:40Z</time>
      </trkpt>
      <trkpt lat="45.00734" lon="5.71045">
        <ele>901</ele>
        <time>2021-05-29T06:17:41Z</time>
      </trkpt>
      <trkpt lat="45.00734" lon="5.71046">
        <ele>901.2</ele>
        <time>2021-05-29T06:17:42Z</time>
      </trkpt>
      <trkpt lat="45.00734" lon="5.71046">
        <ele>901.2</ele>
        <time>2021-05-29T06:17:43Z</time>
      </trkpt>
      <trkpt lat="45.00734" lon="5.71046">
        <ele>901.4</ele>
        <time>2021-05-29T06:17:44Z</time>
      </trkpt>
      <trkpt lat="45.00733" lon="5.71046">
        <ele>901.6</ele>
        <time>2021-05-29T06:17:45Z</time>
      </trkpt>
      <trkpt lat="45.00733" lon="5.71046">
        <ele>901.8</ele>
        <time>2021-05-29T06:17:46Z</time>
      </trkpt>
      <trkpt lat="45.00733" lon="5.71046">
        <ele>902</ele>
        <time>2021-05-29T06:17:47Z</time>
      </trkpt>
      <trkpt lat="45.00733" lon="5.71046">
        <ele>902.4</ele>
        <time>2021-05-29T06:17:48Z</time>
      </trkpt>
      <trkpt lat="45.00733" lon="5.71046">
        <ele>903</ele>
        <time>2021-05-29T06:17:49Z</time>
      </trkpt>
      <trkpt lat="45.00733" lon="5.71046">
        <ele>903.4</ele>
        <time>2021-05-29T06:17:50Z</time>
      </trkpt>
      <trkpt lat="45.00733" lon="5.71046">
        <ele>903.6</ele>
        <time>2021-05-29T06:17:51Z</time>
      </trkpt>
      <trkpt lat="45.00733" lon="5.71046">
        <ele>903.8</ele>
        <time>2021-05-29T06:17:52Z</time>
      </trkpt>
      <trkpt lat="45.00733" lon="5.71046">
        <ele>904.4</ele>
        <time>2021-05-29T06:17:53Z</time>
      </trkpt>
      <trkpt lat="45.00733" lon="5.71046">
        <ele>904.6</ele>
        <time>2021-05-29T06:17:54Z</time>
      </trkpt>
      <trkpt lat="45.00733" lon="5.71046">
        <ele>904.8</ele>
        <time>2021-05-29T06:17:55Z</time>
      </trkpt>
      <trkpt lat="45.00733" lon="5.71046">
        <ele>905.2</ele>
        <time>2021-05-29T06:17:56Z</time>
      </trkpt>
      <trkpt lat="45.00733" lon="5.71046">
        <ele>905.2</ele>
        <time>2021-05-29T06:17:57Z</time>
      </trkpt>
      <trkpt lat="45.00733" lon="5.71046">
        <ele>905.6</ele>
        <time>2021-05-29T06:17:58Z</time>
      </trkpt>
      <trkpt lat="45.00733" lon="5.71046">
        <ele>905.8</ele>
        <time>2021-05-29T06:17:59Z</time>
      </trkpt>
      <trkpt lat="45.00733" lon="5.71046">
        <ele>906</ele>
        <time>2021-05-29T06:18:00Z</time>
      </trkpt>
      <trkpt lat="45.00732" lon="5.71046">
        <ele>906</ele>
        <time>2021-05-29T06:18:01Z</time>
      </trkpt>
      <trkpt lat="45.00732" lon="5.71046">
        <ele>906</ele>
        <time>2021-05-29T06:18:02Z</time>
      </trkpt>
      <trkpt lat="45.00732" lon="5.71046">
        <ele>906.2</ele>
        <time>2021-05-29T06:18:03Z</time>
      </trkpt>
      <trkpt lat="45.00731" lon="5.71046">
        <ele>906.6</ele>
        <time>2021-05-29T06:18:04Z</time>
      </trkpt>
      <trkpt lat="45.0073" lon="5.71046">
        <ele>906.8</ele>
        <time>2021-05-29T06:18:05Z</time>
      </trkpt>
      <trkpt lat="45.00729" lon="5.71046">
        <ele>907.4</ele>
        <time>2021-05-29T06:18:06Z</time>
      </trkpt>
      <trkpt lat="45.00728" lon="5.71045">
        <ele>907.6</ele>
        <time>2021-05-29T06:18:07Z</time>
      </trkpt>
      <trkpt lat="45.00726" lon="5.71045">
        <ele>908.2</ele>
        <time>2021-05-29T06:18:08Z</time>
      </trkpt>
      <trkpt lat="45.00725" lon="5.71045">
        <ele>908.6</ele>
        <time>2021-05-29T06:18:09Z</time>
      </trkpt>
      <trkpt lat="45.00724" lon="5.71044">
        <ele>909</ele>
        <time>2021-05-29T06:18:10Z</time>
      </trkpt>
      <trkpt lat="45.00723" lon="5.71044">
        <ele>909.2</ele>
        <time>2021-05-29T06:18:11Z</time>
      </trkpt>
      <trkpt lat="45.00721" lon="5.71043">
        <ele>909.6</ele>
        <time>2021-05-29T06:18:12Z</time>
      </trkpt>
      <trkpt lat="45.0072" lon="5.71042">
        <ele>909.8</ele>
        <time>2021-05-29T06:18:13Z</time>
      </trkpt>
      <trkpt lat="45.00718" lon="5.71041">
        <ele>910</ele>
        <time>2021-05-29T06:18:14Z</time>
      </trkpt>
      <trkpt lat="45.00716" lon="5.7104">
        <ele>910.2</ele>
        <time>2021-05-29T06:18:15Z</time>
      </trkpt>
      <trkpt lat="45.00714" lon="5.71039">
        <ele>910.8</ele>
        <time>2021-05-29T06:18:16Z</time>
      </trkpt>
      <trkpt lat="45.00714" lon="5.71039">
        <ele>911</ele>
        <time>2021-05-29T06:18:17Z</time>
      </trkpt>
      <trkpt lat="45.00713" lon="5.71038">
        <ele>911.4</ele>
        <time>2021-05-29T06:18:18Z</time>
      </trkpt>
      <trkpt lat="45.00712" lon="5.71038">
        <ele>911.6</ele>
        <time>2021-05-29T06:18:19Z</time>
      </trkpt>
      <trkpt lat="45.00712" lon="5.71038">
        <ele>911.8</ele>
        <time>2021-05-29T06:18:20Z</time>
      </trkpt>
      <trkpt lat="45.00711" lon="5.71037">
        <ele>912</ele>
        <time>2021-05-29T06:18:21Z</time>
      </trkpt>
      <trkpt lat="45.0071" lon="5.71037">
        <ele>912.2</ele>
        <time>2021-05-29T06:18:22Z</time>
      </trkpt>
      <trkpt lat="45.0071" lon="5.71037">
        <ele>912.4</ele>
        <time>2021-05-29T06:18:23Z</time>
      </trkpt>
      <trkpt lat="45.00709" lon="5.71037">
        <ele>913</ele>
        <time>2021-05-29T06:18:24Z</time>
      </trkpt>
      <trkpt lat="45.00708" lon="5.71036">
        <ele>913.2</ele>
        <time>2021-05-29T06:18:25Z</time>
      </trkpt>
      <trkpt lat="45.00708" lon="5.71036">
        <ele>913.2</ele>
        <time>2021-05-29T06:18:26Z</time>
      </trkpt>
      <trkpt lat="45.00707" lon="5.71036">
        <ele>913.4</ele>
        <time>2021-05-29T06:18:27Z</time>
      </trkpt>
      <trkpt lat="45.00706" lon="5.71035">
        <ele>913.4</ele>
        <time>2021-05-29T06:18:28Z</time>
      </trkpt>
      <trkpt lat="45.00706" lon="5.71035">
        <ele>913.4</ele>
        <time>2021-05-29T06:18:29Z</time>
      </trkpt>
      <trkpt lat="45.00705" lon="5.71035">
        <ele>913.8</ele>
        <time>2021-05-29T06:18:30Z</time>
      </trkpt>
      <trkpt lat="45.00705" lon="5.71035">
        <ele>913.8</ele>
        <time>2021-05-29T06:18:31Z</time>
      </trkpt>
      <trkpt lat="45.00704" lon="5.71035">
        <ele>913.8</ele>
        <time>2021-05-29T06:18:32Z</time>
      </trkpt>
      <trkpt lat="45.00704" lon="5.71035">
        <ele>913.8</ele>
        <time>2021-05-29T06:18:33Z</time>
      </trkpt>
      <trkpt lat="45.00703" lon="5.71034">
        <ele>914.2</ele>
        <time>2021-05-29T06:18:34Z</time>
      </trkpt>
      <trkpt lat="45.00703" lon="5.71034">
        <ele>914.4</ele>
        <time>2021-05-29T06:18:35Z</time>
      </trkpt>
      <trkpt lat="45.00702" lon="5.71034">
        <ele>914.8</ele>
        <time>2021-05-29T06:18:36Z</time>
      </trkpt>
      <trkpt lat="45.00701" lon="5.71034">
        <ele>915</ele>
        <time>2021-05-29T06:18:37Z</time>
      </trkpt>
      <trkpt lat="45.00701" lon="5.71034">
        <ele>915.4</ele>
        <time>2021-05-29T06:18:38Z</time>
      </trkpt>
      <trkpt lat="45.007" lon="5.71034">
        <ele>915.6</ele>
        <time>2021-05-29T06:18:39Z</time>
      </trkpt>
      <trkpt lat="45.007" lon="5.71034">
        <ele>915.8</ele>
        <time>2021-05-29T06:18:40Z</time>
      </trkpt>
      <trkpt lat="45.00699" lon="5.71034">
        <ele>915.8</ele>
        <time>2021-05-29T06:18:41Z</time>
      </trkpt>
      <trkpt lat="45.00699" lon="5.71033">
        <ele>916.2</ele>
        <time>2021-05-29T06:18:42Z</time>
      </trkpt>
      <trkpt lat="45.00698" lon="5.71033">
        <ele>916.6</ele>
        <time>2021-05-29T06:18:43Z</time>
      </trkpt>
      <trkpt lat="45.00698" lon="5.71033">
        <ele>917</ele>
        <time>2021-05-29T06:18:44Z</time>
      </trkpt>
      <trkpt lat="45.00697" lon="5.71033">
        <ele>917.2</ele>
        <time>2021-05-29T06:18:45Z</time>
      </trkpt>
      <trkpt lat="45.00697" lon="5.71033">
        <ele>917.6</ele>
        <time>2021-05-29T06:18:46Z</time>
      </trkpt>
      <trkpt lat="45.00696" lon="5.71033">
        <ele>918</ele>
        <time>2021-05-29T06:18:47Z</time>
      </trkpt>
      <trkpt lat="45.00696" lon="5.71033">
        <ele>918.2</ele>
        <time>2021-05-29T06:18:48Z</time>
      </trkpt>
      <trkpt lat="45.00695" lon="5.71033">
        <ele>918.4</ele>
        <time>2021-05-29T06:18:49Z</time>
      </trkpt>
      <trkpt lat="45.00694" lon="5.71032">
        <ele>918.8</ele>
        <time>2021-05-29T06:18:50Z</time>
      </trkpt>
      <trkpt lat="45.00692" lon="5.71032">
        <ele>919.2</ele>
        <time>2021-05-29T06:18:51Z</time>
      </trkpt>
      <trkpt lat="45.00691" lon="5.71032">
        <ele>919.4</ele>
        <time>2021-05-29T06:18:52Z</time>
      </trkpt>
      <trkpt lat="45.0069" lon="5.71032">
        <ele>919.6</ele>
        <time>2021-05-29T06:18:53Z</time>
      </trkpt>
      <trkpt lat="45.00688" lon="5.71032">
        <ele>920</ele>
        <time>2021-05-29T06:18:54Z</time>
      </trkpt>
      <trkpt lat="45.00687" lon="5.71032">
        <ele>920.4</ele>
        <time>2021-05-29T06:18:55Z</time>
      </trkpt>
      <trkpt lat="45.00685" lon="5.71032">
        <ele>920.6</ele>
        <time>2021-05-29T06:18:56Z</time>
      </trkpt>
      <trkpt lat="45.00684" lon="5.71031">
        <ele>920.8</ele>
        <time>2021-05-29T06:18:57Z</time>
      </trkpt>
      <trkpt lat="45.00684" lon="5.71031">
        <ele>921.2</ele>
        <time>2021-05-29T06:18:58Z</time>
      </trkpt>
      <trkpt lat="45.00683" lon="5.71031">
        <ele>921.4</ele>
        <time>2021-05-29T06:18:59Z</time>
      </trkpt>
      <trkpt lat="45.00683" lon="5.71031">
        <ele>921.8</ele>
        <time>2021-05-29T06:19:00Z</time>
      </trkpt>
      <trkpt lat="45.00682" lon="5.71031">
        <ele>922.2</ele>
        <time>2021-05-29T06:19:01Z</time>
      </trkpt>
      <trkpt lat="45.00682" lon="5.71031">
        <ele>922.2</ele>
        <time>2021-05-29T06:19:02Z</time>
      </trkpt>
      <trkpt lat="45.00681" lon="5.71031">
        <ele>922.4</ele>
        <time>2021-05-29T06:19:03Z</time>
      </trkpt>
      <trkpt lat="45.00681" lon="5.71031">
        <ele>922.8</ele>
        <time>2021-05-29T06:19:04Z</time>
      </trkpt>
      <trkpt lat="45.00681" lon="5.71031">
        <ele>923</ele>
        <time>2021-05-29T06:19:05Z</time>
      </trkpt>
      <trkpt lat="45.0068" lon="5.71031">
        <ele>923.2</ele>
        <time>2021-05-29T06:19:06Z</time>
      </trkpt>
      <trkpt lat="45.0068" lon="5.71031">
        <ele>923.6</ele>
        <time>2021-05-29T06:19:07Z</time>
      </trkpt>
      <trkpt lat="45.00679" lon="5.71031">
        <ele>923.8</ele>
        <time>2021-05-29T06:19:08Z</time>
      </trkpt>
      <trkpt lat="45.00679" lon="5.7103">
        <ele>924</ele>
        <time>2021-05-29T06:19:09Z</time>
      </trkpt>
      <trkpt lat="45.00678" lon="5.7103">
        <ele>924.4</ele>
        <time>2021-05-29T06:19:10Z</time>
      </trkpt>
      <trkpt lat="45.00678" lon="5.7103">
        <ele>924.6</ele>
        <time>2021-05-29T06:19:11Z</time>
      </trkpt>
      <trkpt lat="45.00677" lon="5.7103">
        <ele>925</ele>
        <time>2021-05-29T06:19:12Z</time>
      </trkpt>
      <trkpt lat="45.00677" lon="5.7103">
        <ele>925.2</ele>
        <time>2021-05-29T06:19:13Z</time>
      </trkpt>
      <trkpt lat="45.00677" lon="5.7103">
        <ele>925.6</ele>
        <time>2021-05-29T06:19:14Z</time>
      </trkpt>
      <trkpt lat="45.00676" lon="5.7103">
        <ele>926</ele>
        <time>2021-05-29T06:19:15Z</time>
      </trkpt>
      <trkpt lat="45.00676" lon="5.7103">
        <ele>926.2</ele>
        <time>2021-05-29T06:19:16Z</time>
      </trkpt>
      <trkpt lat="45.00675" lon="5.7103">
        <ele>926.4</ele>
        <time>2021-05-29T06:19:17Z</time>
      </trkpt>
      <trkpt lat="45.00675" lon="5.7103">
        <ele>926.4</ele>
        <time>2021-05-29T06:19:18Z</time>
      </trkpt>
      <trkpt lat="45.00674" lon="5.7103">
        <ele>926.8</ele>
        <time>2021-05-29T06:19:19Z</time>
      </trkpt>
      <trkpt lat="45.00673" lon="5.7103">
        <ele>927</ele>
        <time>2021-05-29T06:19:20Z</time>
      </trkpt>
      <trkpt lat="45.00672" lon="5.7103">
        <ele>927.4</ele>
        <time>2021-05-29T06:19:21Z</time>
      </trkpt>
      <trkpt lat="45.00671" lon="5.71031">
        <ele>927.8</ele>
        <time>2021-05-29T06:19:22Z</time>
      </trkpt>
      <trkpt lat="45.0067" lon="5.71031">
        <ele>928</ele>
        <time>2021-05-29T06:19:23Z</time>
      </trkpt>
      <trkpt lat="45.00669" lon="5.71031">
        <ele>928.4</ele>
        <time>2021-05-29T06:19:24Z</time>
      </trkpt>
      <trkpt lat="45.00668" lon="5.71031">
        <ele>928.6</ele>
        <time>2021-05-29T06:19:25Z</time>
      </trkpt>
      <trkpt lat="45.00667" lon="5.71032">
        <ele>928.8</ele>
        <time>2021-05-29T06:19:26Z</time>
      </trkpt>
      <trkpt lat="45.00666" lon="5.71032">
        <ele>929</ele>
        <time>2021-05-29T06:19:27Z</time>
      </trkpt>
      <trkpt lat="45.00665" lon="5.71032">
        <ele>929.2</ele>
        <time>2021-05-29T06:19:28Z</time>
      </trkpt>
      <trkpt lat="45.00664" lon="5.71033">
        <ele>929.6</ele>
        <time>2021-05-29T06:19:29Z</time>
      </trkpt>
      <trkpt lat="45.00664" lon="5.71033">
        <ele>930</ele>
        <time>2021-05-29T06:19:30Z</time>
      </trkpt>
      <trkpt lat="45.00663" lon="5.71034">
        <ele>930</ele>
        <time>2021-05-29T06:19:31Z</time>
      </trkpt>
      <trkpt lat="45.00662" lon="5.71034">
        <ele>930.6</ele>
        <time>2021-05-29T06:19:32Z</time>
      </trkpt>
      <trkpt lat="45.00661" lon="5.71034">
        <ele>931.2</ele>
        <time>2021-05-29T06:19:33Z</time>
      </trkpt>
      <trkpt lat="45.00661" lon="5.71035">
        <ele>931.4</ele>
        <time>2021-05-29T06:19:34Z</time>
      </trkpt>
      <trkpt lat="45.0066" lon="5.71035">
        <ele>931.6</ele>
        <time>2021-05-29T06:19:35Z</time>
      </trkpt>
      <trkpt lat="45.00659" lon="5.71036">
        <ele>931.6</ele>
        <time>2021-05-29T06:19:36Z</time>
      </trkpt>
      <trkpt lat="45.00659" lon="5.71036">
        <ele>932</ele>
        <time>2021-05-29T06:19:37Z</time>
      </trkpt>
      <trkpt lat="45.00658" lon="5.71037">
        <ele>932.2</ele>
        <time>2021-05-29T06:19:38Z</time>
      </trkpt>
      <trkpt lat="45.00657" lon="5.71037">
        <ele>932.6</ele>
        <time>2021-05-29T06:19:39Z</time>
      </trkpt>
      <trkpt lat="45.00657" lon="5.71038">
        <ele>933</ele>
        <time>2021-05-29T06:19:40Z</time>
      </trkpt>
      <trkpt lat="45.00656" lon="5.71038">
        <ele>933.2</ele>
        <time>2021-05-29T06:19:41Z</time>
      </trkpt>
      <trkpt lat="45.00655" lon="5.71038">
        <ele>933.6</ele>
        <time>2021-05-29T06:19:42Z</time>
      </trkpt>
      <trkpt lat="45.00654" lon="5.71038">
        <ele>933.8</ele>
        <time>2021-05-29T06:19:43Z</time>
      </trkpt>
      <trkpt lat="45.00653" lon="5.71038">
        <ele>934</ele>
        <time>2021-05-29T06:19:44Z</time>
      </trkpt>
      <trkpt lat="45.00652" lon="5.71038">
        <ele>934.4</ele>
        <time>2021-05-29T06:19:45Z</time>
      </trkpt>
      <trkpt lat="45.00651" lon="5.71039">
        <ele>934.8</ele>
        <time>2021-05-29T06:19:46Z</time>
      </trkpt>
      <trkpt lat="45.0065" lon="5.71039">
        <ele>935</ele>
        <time>2021-05-29T06:19:47Z</time>
      </trkpt>
      <trkpt lat="45.00649" lon="5.71039">
        <ele>935.2</ele>
        <time>2021-05-29T06:19:48Z</time>
      </trkpt>
      <trkpt lat="45.00648" lon="5.71039">
        <ele>935.4</ele>
        <time>2021-05-29T06:19:49Z</time>
      </trkpt>
      <trkpt lat="45.00648" lon="5.71039">
        <ele>935.8</ele>
        <time>2021-05-29T06:19:50Z</time>
      </trkpt>
      <trkpt lat="45.00647" lon="5.71039">
        <ele>936</ele>
        <time>2021-05-29T06:19:51Z</time>
      </trkpt>
      <trkpt lat="45.00646" lon="5.7104">
        <ele>936.2</ele>
        <time>2021-05-29T06:19:52Z</time>
      </trkpt>
      <trkpt lat="45.00645" lon="5.7104">
        <ele>936.4</ele>
        <time>2021-05-29T06:19:53Z</time>
      </trkpt>
      <trkpt lat="45.00644" lon="5.7104">
        <ele>936.6</ele>
        <time>2021-05-29T06:19:54Z</time>
      </trkpt>
      <trkpt lat="45.00643" lon="5.71041">
        <ele>936.8</ele>
        <time>2021-05-29T06:19:55Z</time>
      </trkpt>
      <trkpt lat="45.00642" lon="5.71041">
        <ele>936.8</ele>
        <time>2021-05-29T06:19:56Z</time>
      </trkpt>
      <trkpt lat="45.00641" lon="5.71041">
        <ele>937</ele>
        <time>2021-05-29T06:19:57Z</time>
      </trkpt>
      <trkpt lat="45.00641" lon="5.71042">
        <ele>937</ele>
        <time>2021-05-29T06:19:58Z</time>
      </trkpt>
      <trkpt lat="45.0064" lon="5.71042">
        <ele>937</ele>
        <time>2021-05-29T06:19:59Z</time>
      </trkpt>
      <trkpt lat="45.00639" lon="5.71042">
        <ele>937.4</ele>
        <time>2021-05-29T06:20:00Z</time>
      </trkpt>
      <trkpt lat="45.00638" lon="5.71042">
        <ele>937.6</ele>
        <time>2021-05-29T06:20:01Z</time>
      </trkpt>
      <trkpt lat="45.00638" lon="5.71042">
        <ele>937.8</ele>
        <time>2021-05-29T06:20:02Z</time>
      </trkpt>
      <trkpt lat="45.00637" lon="5.71042">
        <ele>938.2</ele>
        <time>2021-05-29T06:20:03Z</time>
      </trkpt>
      <trkpt lat="45.00637" lon="5.71042">
        <ele>938.6</ele>
        <time>2021-05-29T06:20:04Z</time>
      </trkpt>
      <trkpt lat="45.00637" lon="5.71043">
        <ele>938.8</ele>
        <time>2021-05-29T06:20:05Z</time>
      </trkpt>
      <trkpt lat="45.00637" lon="5.71043">
        <ele>939</ele>
        <time>2021-05-29T06:20:06Z</time>
      </trkpt>
      <trkpt lat="45.00636" lon="5.71043">
        <ele>938.8</ele>
        <time>2021-05-29T06:20:07Z</time>
      </trkpt>
      <trkpt lat="45.00636" lon="5.71043">
        <ele>938.6</ele>
        <time>2021-05-29T06:20:08Z</time>
      </trkpt>
      <trkpt lat="45.00636" lon="5.71043">
        <ele>938.4</ele>
        <time>2021-05-29T06:20:09Z</time>
      </trkpt>
      <trkpt lat="45.00636" lon="5.71043">
        <ele>938.4</ele>
        <time>2021-05-29T06:20:10Z</time>
      </trkpt>
      <trkpt lat="45.00635" lon="5.71043">
        <ele>938.4</ele>
        <time>2021-05-29T06:20:11Z</time>
      </trkpt>
      <trkpt lat="45.00635" lon="5.71043">
        <ele>938.4</ele>
        <time>2021-05-29T06:20:12Z</time>
      </trkpt>
      <trkpt lat="45.00635" lon="5.71043">
        <ele>938.4</ele>
        <time>2021-05-29T06:20:13Z</time>
      </trkpt>
      <trkpt lat="45.00635" lon="5.71043">
        <ele>938.2</ele>
        <time>2021-05-29T06:20:14Z</time>
      </trkpt>
      <trkpt lat="45.00634" lon="5.71043">
        <ele>938.2</ele>
        <time>2021-05-29T06:20:15Z</time>
      </trkpt>
      <trkpt lat="45.00634" lon="5.71043">
        <ele>938.2</ele>
        <time>2021-05-29T06:20:16Z</time>
      </trkpt>
      <trkpt lat="45.00634" lon="5.71043">
        <ele>938.2</ele>
        <time>2021-05-29T06:20:17Z</time>
      </trkpt>
      <trkpt lat="45.00634" lon="5.71043">
        <ele>938.2</ele>
        <time>2021-05-29T06:20:18Z</time>
      </trkpt>
      <trkpt lat="45.00633" lon="5.71043">
        <ele>938.2</ele>
        <time>2021-05-29T06:20:19Z</time>
      </trkpt>
      <trkpt lat="45.00633" lon="5.71043">
        <ele>938</ele>
        <time>2021-05-29T06:20:20Z</time>
      </trkpt>
      <trkpt lat="45.00633" lon="5.71043">
        <ele>938</ele>
        <time>2021-05-29T06:20:21Z</time>
      </trkpt>
      <trkpt lat="45.00633" lon="5.71043">
        <ele>938</ele>
        <time>2021-05-29T06:20:22Z</time>
      </trkpt>
      <trkpt lat="45.00632" lon="5.71043">
        <ele>938.2</ele>
        <time>2021-05-29T06:20:23Z</time>
      </trkpt>
      <trkpt lat="45.00632" lon="5.71043">
        <ele>938.2</ele>
        <time>2021-05-29T06:20:24Z</time>
      </trkpt>
      <trkpt lat="45.00632" lon="5.71043">
        <ele>938.4</ele>
        <time>2021-05-29T06:20:25Z</time>
      </trkpt>
      <trkpt lat="45.00632" lon="5.71043">
        <ele>938.8</ele>
        <time>2021-05-29T06:20:26Z</time>
      </trkpt>
      <trkpt lat="45.00631" lon="5.71043">
        <ele>938.6</ele>
        <time>2021-05-29T06:20:27Z</time>
      </trkpt>
      <trkpt lat="45.00631" lon="5.71043">
        <ele>938.6</ele>
        <time>2021-05-29T06:20:28Z</time>
      </trkpt>
      <trkpt lat="45.00631" lon="5.71043">
        <ele>938.4</ele>
        <time>2021-05-29T06:20:29Z</time>
      </trkpt>
      <trkpt lat="45.0063" lon="5.71043">
        <ele>938.4</ele>
        <time>2021-05-29T06:20:30Z</time>
      </trkpt>
      <trkpt lat="45.0063" lon="5.71043">
        <ele>938.4</ele>
        <time>2021-05-29T06:20:31Z</time>
      </trkpt>
      <trkpt lat="45.0063" lon="5.71043">
        <ele>938.4</ele>
        <time>2021-05-29T06:20:32Z</time>
      </trkpt>
      <trkpt lat="45.0063" lon="5.71043">
        <ele>938.4</ele>
        <time>2021-05-29T06:20:33Z</time>
      </trkpt>
      <trkpt lat="45.00629" lon="5.71043">
        <ele>938.6</ele>
        <time>2021-05-29T06:20:34Z</time>
      </trkpt>
      <trkpt lat="45.00629" lon="5.71043">
        <ele>938.4</ele>
        <time>2021-05-29T06:20:35Z</time>
      </trkpt>
      <trkpt lat="45.00629" lon="5.71043">
        <ele>938.4</ele>
        <time>2021-05-29T06:20:36Z</time>
      </trkpt>
      <trkpt lat="45.00629" lon="5.71043">
        <ele>938.4</ele>
        <time>2021-05-29T06:20:37Z</time>
      </trkpt>
      <trkpt lat="45.00628" lon="5.71043">
        <ele>938.2</ele>
        <time>2021-05-29T06:20:38Z</time>
      </trkpt>
      <trkpt lat="45.00628" lon="5.71043">
        <ele>938.4</ele>
        <time>2021-05-29T06:20:39Z</time>
      </trkpt>
      <trkpt lat="45.00628" lon="5.71043">
        <ele>938.2</ele>
        <time>2021-05-29T06:20:40Z</time>
      </trkpt>
      <trkpt lat="45.00627" lon="5.71042">
        <ele>938.4</ele>
        <time>2021-05-29T06:20:41Z</time>
      </trkpt>
      <trkpt lat="45.00626" lon="5.71042">
        <ele>938.4</ele>
        <time>2021-05-29T06:20:42Z</time>
      </trkpt>
      <trkpt lat="45.00626" lon="5.71042">
        <ele>938.4</ele>
        <time>2021-05-29T06:20:43Z</time>
      </trkpt>
      <trkpt lat="45.00625" lon="5.71041">
        <ele>938.6</ele>
        <time>2021-05-29T06:20:44Z</time>
      </trkpt>
      <trkpt lat="45.00625" lon="5.71041">
        <ele>939.2</ele>
        <time>2021-05-29T06:20:45Z</time>
      </trkpt>
      <trkpt lat="45.00624" lon="5.7104">
        <ele>939.4</ele>
        <time>2021-05-29T06:20:46Z</time>
      </trkpt>
      <trkpt lat="45.00624" lon="5.7104">
        <ele>939.8</ele>
        <time>2021-05-29T06:20:47Z</time>
      </trkpt>
      <trkpt lat="45.00623" lon="5.7104">
        <ele>939.8</ele>
        <time>2021-05-29T06:20:48Z</time>
      </trkpt>
      <trkpt lat="45.00622" lon="5.71039">
        <ele>939.8</ele>
        <time>2021-05-29T06:20:49Z</time>
      </trkpt>
      <trkpt lat="45.00622" lon="5.71039">
        <ele>939.8</ele>
        <time>2021-05-29T06:20:50Z</time>
      </trkpt>
      <trkpt lat="45.00621" lon="5.71039">
        <ele>939.8</ele>
        <time>2021-05-29T06:20:51Z</time>
      </trkpt>
      <trkpt lat="45.00621" lon="5.71038">
        <ele>939.6</ele>
        <time>2021-05-29T06:20:52Z</time>
      </trkpt>
      <trkpt lat="45.0062" lon="5.71038">
        <ele>939.2</ele>
        <time>2021-05-29T06:20:53Z</time>
      </trkpt>
      <trkpt lat="45.0062" lon="5.71038">
        <ele>939.2</ele>
        <time>2021-05-29T06:20:54Z</time>
      </trkpt>
      <trkpt lat="45.00617" lon="5.71037">
        <ele>939.2</ele>
        <time>2021-05-29T06:20:55Z</time>
      </trkpt>
      <trkpt lat="45.00615" lon="5.71037">
        <ele>939.2</ele>
        <time>2021-05-29T06:20:56Z</time>
      </trkpt>
      <trkpt lat="45.00612" lon="5.71037">
        <ele>939.8</ele>
        <time>2021-05-29T06:20:57Z</time>
      </trkpt>
      <trkpt lat="45.00609" lon="5.71036">
        <ele>940</ele>
        <time>2021-05-29T06:20:58Z</time>
      </trkpt>
      <trkpt lat="45.00607" lon="5.71035">
        <ele>939.8</ele>
        <time>2021-05-29T06:20:59Z</time>
      </trkpt>
      <trkpt lat="45.00605" lon="5.71033">
        <ele>939.8</ele>
        <time>2021-05-29T06:21:00Z</time>
      </trkpt>
      <trkpt lat="45.00603" lon="5.71032">
        <ele>940</ele>
        <time>2021-05-29T06:21:01Z</time>
      </trkpt>
      <trkpt lat="45.00601" lon="5.7103">
        <ele>940</ele>
        <time>2021-05-29T06:21:02Z</time>
      </trkpt>
      <trkpt lat="45.00599" lon="5.71029">
        <ele>940</ele>
        <time>2021-05-29T06:21:03Z</time>
      </trkpt>
      <trkpt lat="45.00596" lon="5.71028">
        <ele>940</ele>
        <time>2021-05-29T06:21:04Z</time>
      </trkpt>
      <trkpt lat="45.00594" lon="5.71027">
        <ele>940</ele>
        <time>2021-05-29T06:21:05Z</time>
      </trkpt>
      <trkpt lat="45.00592" lon="5.71026">
        <ele>940</ele>
        <time>2021-05-29T06:21:06Z</time>
      </trkpt>
      <trkpt lat="45.0059" lon="5.71024">
        <ele>939.8</ele>
        <time>2021-05-29T06:21:07Z</time>
      </trkpt>
      <trkpt lat="45.00588" lon="5.71023">
        <ele>940.4</ele>
        <time>2021-05-29T06:21:08Z</time>
      </trkpt>
      <trkpt lat="45.00586" lon="5.71022">
        <ele>940.4</ele>
        <time>2021-05-29T06:21:09Z</time>
      </trkpt>
      <trkpt lat="45.00583" lon="5.71021">
        <ele>940.8</ele>
        <time>2021-05-29T06:21:10Z</time>
      </trkpt>
      <trkpt lat="45.00582" lon="5.71021">
        <ele>940.8</ele>
        <time>2021-05-29T06:21:11Z</time>
      </trkpt>
      <trkpt lat="45.0058" lon="5.7102">
        <ele>940.8</ele>
        <time>2021-05-29T06:21:12Z</time>
      </trkpt>
      <trkpt lat="45.00579" lon="5.7102">
        <ele>940.8</ele>
        <time>2021-05-29T06:21:13Z</time>
      </trkpt>
      <trkpt lat="45.00578" lon="5.7102">
        <ele>941</ele>
        <time>2021-05-29T06:21:14Z</time>
      </trkpt>
      <trkpt lat="45.00576" lon="5.7102">
        <ele>941</ele>
        <time>2021-05-29T06:21:15Z</time>
      </trkpt>
      <trkpt lat="45.00575" lon="5.71019">
        <ele>941</ele>
        <time>2021-05-29T06:21:16Z</time>
      </trkpt>
      <trkpt lat="45.00574" lon="5.71019">
        <ele>941</ele>
        <time>2021-05-29T06:21:17Z</time>
      </trkpt>
      <trkpt lat="45.00573" lon="5.71019">
        <ele>941.4</ele>
        <time>2021-05-29T06:21:18Z</time>
      </trkpt>
      <trkpt lat="45.00572" lon="5.71019">
        <ele>941.6</ele>
        <time>2021-05-29T06:21:19Z</time>
      </trkpt>
      <trkpt lat="45.00571" lon="5.71019">
        <ele>941.8</ele>
        <time>2021-05-29T06:21:20Z</time>
      </trkpt>
      <trkpt lat="45.00571" lon="5.71018">
        <ele>942</ele>
        <time>2021-05-29T06:21:21Z</time>
      </trkpt>
      <trkpt lat="45.0057" lon="5.71018">
        <ele>942.2</ele>
        <time>2021-05-29T06:21:22Z</time>
      </trkpt>
      <trkpt lat="45.00569" lon="5.71018">
        <ele>942.4</ele>
        <time>2021-05-29T06:21:23Z</time>
      </trkpt>
      <trkpt lat="45.00568" lon="5.71018">
        <ele>942.8</ele>
        <time>2021-05-29T06:21:24Z</time>
      </trkpt>
      <trkpt lat="45.00567" lon="5.71018">
        <ele>942.8</ele>
        <time>2021-05-29T06:21:25Z</time>
      </trkpt>
      <trkpt lat="45.00567" lon="5.71017">
        <ele>943</ele>
        <time>2021-05-29T06:21:26Z</time>
      </trkpt>
      <trkpt lat="45.00566" lon="5.71017">
        <ele>943</ele>
        <time>2021-05-29T06:21:27Z</time>
      </trkpt>
      <trkpt lat="45.00565" lon="5.71017">
        <ele>943.2</ele>
        <time>2021-05-29T06:21:28Z</time>
      </trkpt>
      <trkpt lat="45.00562" lon="5.71018">
        <ele>943.4</ele>
        <time>2021-05-29T06:21:29Z</time>
      </trkpt>
      <trkpt lat="45.00562" lon="5.71018">
        <ele>943.6</ele>
        <time>2021-05-29T06:21:30Z</time>
      </trkpt>
      <trkpt lat="45.00562" lon="5.71018">
        <ele>943.8</ele>
        <time>2021-05-29T06:21:31Z</time>
      </trkpt>
      <trkpt lat="45.00563" lon="5.71018">
        <ele>944.2</ele>
        <time>2021-05-29T06:21:32Z</time>
      </trkpt>
      <trkpt lat="45.00563" lon="5.71018">
        <ele>944.2</ele>
        <time>2021-05-29T06:21:33Z</time>
      </trkpt>
      <trkpt lat="45.00563" lon="5.71017">
        <ele>944.6</ele>
        <time>2021-05-29T06:21:34Z</time>
      </trkpt>
      <trkpt lat="45.00564" lon="5.71017">
        <ele>944.6</ele>
        <time>2021-05-29T06:21:35Z</time>
      </trkpt>
      <trkpt lat="45.00564" lon="5.71017">
        <ele>944.6</ele>
        <time>2021-05-29T06:21:36Z</time>
      </trkpt>
      <trkpt lat="45.00564" lon="5.71016">
        <ele>944.6</ele>
        <time>2021-05-29T06:21:37Z</time>
      </trkpt>
      <trkpt lat="45.00565" lon="5.71016">
        <ele>944.2</ele>
        <time>2021-05-29T06:21:38Z</time>
      </trkpt>
      <trkpt lat="45.00565" lon="5.71016">
        <ele>944</ele>
        <time>2021-05-29T06:21:39Z</time>
      </trkpt>
      <trkpt lat="45.00565" lon="5.71015">
        <ele>943.6</ele>
        <time>2021-05-29T06:21:40Z</time>
      </trkpt>
      <trkpt lat="45.00566" lon="5.71015">
        <ele>943.6</ele>
        <time>2021-05-29T06:21:41Z</time>
      </trkpt>
      <trkpt lat="45.00566" lon="5.71014">
        <ele>943.2</ele>
        <time>2021-05-29T06:21:42Z</time>
      </trkpt>
      <trkpt lat="45.00566" lon="5.71014">
        <ele>943</ele>
        <time>2021-05-29T06:21:43Z</time>
      </trkpt>
      <trkpt lat="45.00567" lon="5.71014">
        <ele>943</ele>
        <time>2021-05-29T06:21:44Z</time>
      </trkpt>
      <trkpt lat="45.00567" lon="5.71013">
        <ele>942.6</ele>
        <time>2021-05-29T06:21:45Z</time>
      </trkpt>
      <trkpt lat="45.00567" lon="5.71013">
        <ele>942.2</ele>
        <time>2021-05-29T06:21:46Z</time>
      </trkpt>
      <trkpt lat="45.00568" lon="5.71013">
        <ele>942</ele>
        <time>2021-05-29T06:21:47Z</time>
      </trkpt>
      <trkpt lat="45.00568" lon="5.71012">
        <ele>942</ele>
        <time>2021-05-29T06:21:48Z</time>
      </trkpt>
      <trkpt lat="45.00569" lon="5.71012">
        <ele>941.8</ele>
        <time>2021-05-29T06:21:49Z</time>
      </trkpt>
      <trkpt lat="45.00569" lon="5.71012">
        <ele>941.6</ele>
        <time>2021-05-29T06:21:50Z</time>
      </trkpt>
      <trkpt lat="45.00569" lon="5.71011">
        <ele>941.6</ele>
        <time>2021-05-29T06:21:51Z</time>
      </trkpt>
      <trkpt lat="45.0057" lon="5.71011">
        <ele>941.4</ele>
        <time>2021-05-29T06:21:52Z</time>
      </trkpt>
      <trkpt lat="45.0057" lon="5.71011">
        <ele>941.4</ele>
        <time>2021-05-29T06:21:53Z</time>
      </trkpt>
      <trkpt lat="45.00571" lon="5.7101">
        <ele>941.4</ele>
        <time>2021-05-29T06:21:54Z</time>
      </trkpt>
      <trkpt lat="45.00571" lon="5.7101">
        <ele>941.4</ele>
        <time>2021-05-29T06:21:55Z</time>
      </trkpt>
      <trkpt lat="45.00572" lon="5.7101">
        <ele>941.4</ele>
        <time>2021-05-29T06:21:56Z</time>
      </trkpt>
      <trkpt lat="45.00573" lon="5.7101">
        <ele>941.4</ele>
        <time>2021-05-29T06:21:57Z</time>
      </trkpt>
      <trkpt lat="45.00574" lon="5.7101">
        <ele>941.4</ele>
        <time>2021-05-29T06:21:58Z</time>
      </trkpt>
      <trkpt lat="45.00574" lon="5.71009">
        <ele>941.4</ele>
        <time>2021-05-29T06:21:59Z</time>
      </trkpt>
      <trkpt lat="45.00575" lon="5.71009">
        <ele>941.8</ele>
        <time>2021-05-29T06:22:00Z</time>
      </trkpt>
      <trkpt lat="45.00576" lon="5.71009">
        <ele>942</ele>
        <time>2021-05-29T06:22:01Z</time>
      </trkpt>
      <trkpt lat="45.00577" lon="5.71009">
        <ele>941.8</ele>
        <time>2021-05-29T06:22:02Z</time>
      </trkpt>
      <trkpt lat="45.00577" lon="5.71009">
        <ele>941.8</ele>
        <time>2021-05-29T06:22:03Z</time>
      </trkpt>
      <trkpt lat="45.00578" lon="5.71009">
        <ele>941.8</ele>
        <time>2021-05-29T06:22:04Z</time>
      </trkpt>
      <trkpt lat="45.00579" lon="5.71008">
        <ele>941.6</ele>
        <time>2021-05-29T06:22:05Z</time>
      </trkpt>
      <trkpt lat="45.0058" lon="5.71008">
        <ele>941.6</ele>
        <time>2021-05-29T06:22:06Z</time>
      </trkpt>
      <trkpt lat="45.00582" lon="5.71008">
        <ele>941.6</ele>
        <time>2021-05-29T06:22:07Z</time>
      </trkpt>
      <trkpt lat="45.00584" lon="5.71009">
        <ele>941.4</ele>
        <time>2021-05-29T06:22:08Z</time>
      </trkpt>
      <trkpt lat="45.00586" lon="5.71009">
        <ele>941.2</ele>
        <time>2021-05-29T06:22:09Z</time>
      </trkpt>
      <trkpt lat="45.00588" lon="5.71009">
        <ele>940.8</ele>
        <time>2021-05-29T06:22:10Z</time>
      </trkpt>
      <trkpt lat="45.0059" lon="5.7101">
        <ele>940.8</ele>
        <time>2021-05-29T06:22:11Z</time>
      </trkpt>
      <trkpt lat="45.00591" lon="5.7101">
        <ele>941</ele>
        <time>2021-05-29T06:22:12Z</time>
      </trkpt>
      <trkpt lat="45.00593" lon="5.7101">
        <ele>940.8</ele>
        <time>2021-05-29T06:22:13Z</time>
      </trkpt>
      <trkpt lat="45.00594" lon="5.7101">
        <ele>940.8</ele>
        <time>2021-05-29T06:22:14Z</time>
      </trkpt>
      <trkpt lat="45.00595" lon="5.7101">
        <ele>940.6</ele>
        <time>2021-05-29T06:22:15Z</time>
      </trkpt>
      <trkpt lat="45.00597" lon="5.7101">
        <ele>940.4</ele>
        <time>2021-05-29T06:22:16Z</time>
      </trkpt>
      <trkpt lat="45.00598" lon="5.71011">
        <ele>940.4</ele>
        <time>2021-05-29T06:22:17Z</time>
      </trkpt>
      <trkpt lat="45.006" lon="5.71011">
        <ele>940.4</ele>
        <time>2021-05-29T06:22:18Z</time>
      </trkpt>
      <trkpt lat="45.00601" lon="5.71011">
        <ele>940.2</ele>
        <time>2021-05-29T06:22:19Z</time>
      </trkpt>
      <trkpt lat="45.00603" lon="5.71012">
        <ele>940</ele>
        <time>2021-05-29T06:22:20Z</time>
      </trkpt>
      <trkpt lat="45.00604" lon="5.71012">
        <ele>940</ele>
        <time>2021-05-29T06:22:21Z</time>
      </trkpt>
      <trkpt lat="45.00606" lon="5.71013">
        <ele>939.8</ele>
        <time>2021-05-29T06:22:22Z</time>
      </trkpt>
      <trkpt lat="45.00608" lon="5.71013">
        <ele>939.8</ele>
        <time>2021-05-29T06:22:23Z</time>
      </trkpt>
      <trkpt lat="45.00609" lon="5.71014">
        <ele>939.8</ele>
        <time>2021-05-29T06:22:24Z</time>
      </trkpt>
      <trkpt lat="45.00611" lon="5.71015">
        <ele>939.6</ele>
        <time>2021-05-29T06:22:25Z</time>
      </trkpt>
      <trkpt lat="45.00613" lon="5.71016">
        <ele>939.4</ele>
        <time>2021-05-29T06:22:26Z</time>
      </trkpt>
      <trkpt lat="45.00615" lon="5.71017">
        <ele>939.8</ele>
        <time>2021-05-29T06:22:27Z</time>
      </trkpt>
      <trkpt lat="45.00617" lon="5.71018">
        <ele>939.6</ele>
        <time>2021-05-29T06:22:28Z</time>
      </trkpt>
      <trkpt lat="45.00619" lon="5.71019">
        <ele>940.2</ele>
        <time>2021-05-29T06:22:29Z</time>
      </trkpt>
      <trkpt lat="45.00621" lon="5.7102">
        <ele>940</ele>
        <time>2021-05-29T06:22:30Z</time>
      </trkpt>
      <trkpt lat="45.00623" lon="5.71021">
        <ele>940</ele>
        <time>2021-05-29T06:22:31Z</time>
      </trkpt>
      <trkpt lat="45.00625" lon="5.71023">
        <ele>939.8</ele>
        <time>2021-05-29T06:22:32Z</time>
      </trkpt>
      <trkpt lat="45.00626" lon="5.71024">
        <ele>939.8</ele>
        <time>2021-05-29T06:22:33Z</time>
      </trkpt>
      <trkpt lat="45.00628" lon="5.71025">
        <ele>939.4</ele>
        <time>2021-05-29T06:22:34Z</time>
      </trkpt>
      <trkpt lat="45.00631" lon="5.71027">
        <ele>939</ele>
        <time>2021-05-29T06:22:35Z</time>
      </trkpt>
      <trkpt lat="45.00633" lon="5.71029">
        <ele>939</ele>
        <time>2021-05-29T06:22:36Z</time>
      </trkpt>
      <trkpt lat="45.00635" lon="5.71031">
        <ele>938.6</ele>
        <time>2021-05-29T06:22:37Z</time>
      </trkpt>
      <trkpt lat="45.00637" lon="5.71033">
        <ele>938.6</ele>
        <time>2021-05-29T06:22:38Z</time>
      </trkpt>
      <trkpt lat="45.00639" lon="5.71034">
        <ele>938</ele>
        <time>2021-05-29T06:22:39Z</time>
      </trkpt>
      <trkpt lat="45.00641" lon="5.71035">
        <ele>938.2</ele>
        <time>2021-05-29T06:22:40Z</time>
      </trkpt>
      <trkpt lat="45.00643" lon="5.71036">
        <ele>938.2</ele>
        <time>2021-05-29T06:22:41Z</time>
      </trkpt>
      <trkpt lat="45.00645" lon="5.71037">
        <ele>938.4</ele>
        <time>2021-05-29T06:22:42Z</time>
      </trkpt>
      <trkpt lat="45.00647" lon="5.71038">
        <ele>938.2</ele>
        <time>2021-05-29T06:22:43Z</time>
      </trkpt>
      <trkpt lat="45.0065" lon="5.7104">
        <ele>938.4</ele>
        <time>2021-05-29T06:22:44Z</time>
      </trkpt>
      <trkpt lat="45.00652" lon="5.71042">
        <ele>938.2</ele>
        <time>2021-05-29T06:22:45Z</time>
      </trkpt>
      <trkpt lat="45.00655" lon="5.71044">
        <ele>938.2</ele>
        <time>2021-05-29T06:22:46Z</time>
      </trkpt>
      <trkpt lat="45.00658" lon="5.71046">
        <ele>938</ele>
        <time>2021-05-29T06:22:47Z</time>
      </trkpt>
      <trkpt lat="45.0066" lon="5.71047">
        <ele>937.8</ele>
        <time>2021-05-29T06:22:48Z</time>
      </trkpt>
      <trkpt lat="45.00663" lon="5.71048">
        <ele>937.6</ele>
        <time>2021-05-29T06:22:49Z</time>
      </trkpt>
      <trkpt lat="45.00665" lon="5.71049">
        <ele>937.6</ele>
        <time>2021-05-29T06:22:50Z</time>
      </trkpt>
      <trkpt lat="45.00667" lon="5.7105">
        <ele>937.8</ele>
        <time>2021-05-29T06:22:51Z</time>
      </trkpt>
      <trkpt lat="45.0067" lon="5.71051">
        <ele>937.8</ele>
        <time>2021-05-29T06:22:52Z</time>
      </trkpt>
      <trkpt lat="45.00674" lon="5.71052">
        <ele>937.8</ele>
        <time>2021-05-29T06:22:53Z</time>
      </trkpt>
      <trkpt lat="45.00677" lon="5.71053">
        <ele>937.8</ele>
        <time>2021-05-29T06:22:54Z</time>
      </trkpt>
      <trkpt lat="45.0068" lon="5.71054">
        <ele>937.8</ele>
        <time>2021-05-29T06:22:55Z</time>
      </trkpt>
      <trkpt lat="45.00683" lon="5.71055">
        <ele>937.4</ele>
        <time>2021-05-29T06:22:56Z</time>
      </trkpt>
      <trkpt lat="45.0069" lon="5.71061">
        <ele>937.4</ele>
        <time>2021-05-29T06:22:57Z</time>
      </trkpt>
      <trkpt lat="45.00694" lon="5.71063">
        <ele>937.2</ele>
        <time>2021-05-29T06:22:58Z</time>
      </trkpt>
      <trkpt lat="45.00697" lon="5.71066">
        <ele>937.2</ele>
        <time>2021-05-29T06:22:59Z</time>
      </trkpt>
      <trkpt lat="45.00699" lon="5.71068">
        <ele>937</ele>
        <time>2021-05-29T06:23:00Z</time>
      </trkpt>
      <trkpt lat="45.00701" lon="5.7107">
        <ele>937</ele>
        <time>2021-05-29T06:23:01Z</time>
      </trkpt>
      <trkpt lat="45.00706" lon="5.71074">
        <ele>937.2</ele>
        <time>2021-05-29T06:23:02Z</time>
      </trkpt>
      <trkpt lat="45.00706" lon="5.71074">
        <ele>937</ele>
        <time>2021-05-29T06:23:03Z</time>
      </trkpt>
      <trkpt lat="45.00706" lon="5.71074">
        <ele>937</ele>
        <time>2021-05-29T06:23:04Z</time>
      </trkpt>
      <trkpt lat="45.00709" lon="5.71075">
        <ele>937</ele>
        <time>2021-05-29T06:23:05Z</time>
      </trkpt>
      <trkpt lat="45.00712" lon="5.71076">
        <ele>937</ele>
        <time>2021-05-29T06:23:06Z</time>
      </trkpt>
      <trkpt lat="45.00715" lon="5.71078">
        <ele>937.2</ele>
        <time>2021-05-29T06:23:07Z</time>
      </trkpt>
      <trkpt lat="45.00718" lon="5.71079">
        <ele>937.2</ele>
        <time>2021-05-29T06:23:08Z</time>
      </trkpt>
      <trkpt lat="45.00722" lon="5.7108">
        <ele>936.8</ele>
        <time>2021-05-29T06:23:09Z</time>
      </trkpt>
      <trkpt lat="45.00725" lon="5.71082">
        <ele>936.8</ele>
        <time>2021-05-29T06:23:10Z</time>
      </trkpt>
      <trkpt lat="45.00728" lon="5.71084">
        <ele>936.6</ele>
        <time>2021-05-29T06:23:11Z</time>
      </trkpt>
      <trkpt lat="45.00731" lon="5.71086">
        <ele>936.4</ele>
        <time>2021-05-29T06:23:12Z</time>
      </trkpt>
      <trkpt lat="45.00734" lon="5.71089">
        <ele>936.2</ele>
        <time>2021-05-29T06:23:13Z</time>
      </trkpt>
      <trkpt lat="45.00738" lon="5.71093">
        <ele>936</ele>
        <time>2021-05-29T06:23:14Z</time>
      </trkpt>
      <trkpt lat="45.00738" lon="5.71093">
        <ele>935.6</ele>
        <time>2021-05-29T06:23:15Z</time>
      </trkpt>
      <trkpt lat="45.00738" lon="5.71093">
        <ele>935.6</ele>
        <time>2021-05-29T06:23:16Z</time>
      </trkpt>
      <trkpt lat="45.00738" lon="5.71093">
        <ele>935.4</ele>
        <time>2021-05-29T06:23:17Z</time>
      </trkpt>
      <trkpt lat="45.00741" lon="5.71095">
        <ele>935.2</ele>
        <time>2021-05-29T06:23:18Z</time>
      </trkpt>
      <trkpt lat="45.00743" lon="5.71097">
        <ele>935</ele>
        <time>2021-05-29T06:23:19Z</time>
      </trkpt>
      <trkpt lat="45.00745" lon="5.711">
        <ele>935.2</ele>
        <time>2021-05-29T06:23:20Z</time>
      </trkpt>
      <trkpt lat="45.00747" lon="5.71102">
        <ele>935</ele>
        <time>2021-05-29T06:23:21Z</time>
      </trkpt>
      <trkpt lat="45.00749" lon="5.71105">
        <ele>935.2</ele>
        <time>2021-05-29T06:23:22Z</time>
      </trkpt>
      <trkpt lat="45.00751" lon="5.71108">
        <ele>935</ele>
        <time>2021-05-29T06:23:23Z</time>
      </trkpt>
      <trkpt lat="45.00753" lon="5.71111">
        <ele>935</ele>
        <time>2021-05-29T06:23:24Z</time>
      </trkpt>
      <trkpt lat="45.00754" lon="5.71114">
        <ele>935</ele>
        <time>2021-05-29T06:23:25Z</time>
      </trkpt>
      <trkpt lat="45.00756" lon="5.71115">
        <ele>935.2</ele>
        <time>2021-05-29T06:23:26Z</time>
      </trkpt>
      <trkpt lat="45.00758" lon="5.71117">
        <ele>935</ele>
        <time>2021-05-29T06:23:27Z</time>
      </trkpt>
      <trkpt lat="45.00759" lon="5.71119">
        <ele>934.8</ele>
        <time>2021-05-29T06:23:28Z</time>
      </trkpt>
      <trkpt lat="45.00761" lon="5.7112">
        <ele>934.6</ele>
        <time>2021-05-29T06:23:29Z</time>
      </trkpt>
      <trkpt lat="45.00762" lon="5.71122">
        <ele>935.2</ele>
        <time>2021-05-29T06:23:30Z</time>
      </trkpt>
      <trkpt lat="45.00765" lon="5.71125">
        <ele>935</ele>
        <time>2021-05-29T06:23:31Z</time>
      </trkpt>
      <trkpt lat="45.00767" lon="5.71128">
        <ele>934.8</ele>
        <time>2021-05-29T06:23:32Z</time>
      </trkpt>
      <trkpt lat="45.0077" lon="5.71131">
        <ele>934.8</ele>
        <time>2021-05-29T06:23:33Z</time>
      </trkpt>
      <trkpt lat="45.00772" lon="5.71134">
        <ele>934.6</ele>
        <time>2021-05-29T06:23:34Z</time>
      </trkpt>
      <trkpt lat="45.00775" lon="5.71137">
        <ele>935</ele>
        <time>2021-05-29T06:23:35Z</time>
      </trkpt>
      <trkpt lat="45.00779" lon="5.71142">
        <ele>934.8</ele>
        <time>2021-05-29T06:23:36Z</time>
      </trkpt>
      <trkpt lat="45.00779" lon="5.71142">
        <ele>935</ele>
        <time>2021-05-29T06:23:37Z</time>
      </trkpt>
      <trkpt lat="45.00779" lon="5.71142">
        <ele>934.8</ele>
        <time>2021-05-29T06:23:38Z</time>
      </trkpt>
      <trkpt lat="45.00779" lon="5.71142">
        <ele>935</ele>
        <time>2021-05-29T06:23:39Z</time>
      </trkpt>
      <trkpt lat="45.00781" lon="5.71144">
        <ele>934.8</ele>
        <time>2021-05-29T06:23:40Z</time>
      </trkpt>
      <trkpt lat="45.00783" lon="5.71147">
        <ele>935</ele>
        <time>2021-05-29T06:23:41Z</time>
      </trkpt>
      <trkpt lat="45.00785" lon="5.71149">
        <ele>935</ele>
        <time>2021-05-29T06:23:42Z</time>
      </trkpt>
      <trkpt lat="45.00787" lon="5.71151">
        <ele>935.4</ele>
        <time>2021-05-29T06:23:43Z</time>
      </trkpt>
      <trkpt lat="45.00788" lon="5.71154">
        <ele>935.4</ele>
        <time>2021-05-29T06:23:44Z</time>
      </trkpt>
      <trkpt lat="45.00789" lon="5.71156">
        <ele>935.6</ele>
        <time>2021-05-29T06:23:45Z</time>
      </trkpt>
      <trkpt lat="45.0079" lon="5.71158">
        <ele>935.6</ele>
        <time>2021-05-29T06:23:46Z</time>
      </trkpt>
      <trkpt lat="45.00791" lon="5.71161">
        <ele>935.6</ele>
        <time>2021-05-29T06:23:47Z</time>
      </trkpt>
      <trkpt lat="45.00792" lon="5.71163">
        <ele>935.4</ele>
        <time>2021-05-29T06:23:48Z</time>
      </trkpt>
      <trkpt lat="45.00793" lon="5.71165">
        <ele>935.4</ele>
        <time>2021-05-29T06:23:49Z</time>
      </trkpt>
      <trkpt lat="45.00795" lon="5.71167">
        <ele>935.4</ele>
        <time>2021-05-29T06:23:50Z</time>
      </trkpt>
      <trkpt lat="45.00797" lon="5.7117">
        <ele>935.2</ele>
        <time>2021-05-29T06:23:51Z</time>
      </trkpt>
      <trkpt lat="45.00799" lon="5.71172">
        <ele>935</ele>
        <time>2021-05-29T06:23:52Z</time>
      </trkpt>
      <trkpt lat="45.00801" lon="5.71175">
        <ele>935</ele>
        <time>2021-05-29T06:23:53Z</time>
      </trkpt>
      <trkpt lat="45.00802" lon="5.71177">
        <ele>934.8</ele>
        <time>2021-05-29T06:23:54Z</time>
      </trkpt>
      <trkpt lat="45.00804" lon="5.7118">
        <ele>935</ele>
        <time>2021-05-29T06:23:55Z</time>
      </trkpt>
      <trkpt lat="45.00805" lon="5.71182">
        <ele>935</ele>
        <time>2021-05-29T06:23:56Z</time>
      </trkpt>
      <trkpt lat="45.00807" lon="5.71185">
        <ele>935.2</ele>
        <time>2021-05-29T06:23:57Z</time>
      </trkpt>
      <trkpt lat="45.00809" lon="5.71186">
        <ele>935</ele>
        <time>2021-05-29T06:23:58Z</time>
      </trkpt>
      <trkpt lat="45.00811" lon="5.71188">
        <ele>934.8</ele>
        <time>2021-05-29T06:23:59Z</time>
      </trkpt>
      <trkpt lat="45.00813" lon="5.7119">
        <ele>935</ele>
        <time>2021-05-29T06:24:00Z</time>
      </trkpt>
      <trkpt lat="45.00815" lon="5.71192">
        <ele>934.8</ele>
        <time>2021-05-29T06:24:01Z</time>
      </trkpt>
      <trkpt lat="45.00817" lon="5.71193">
        <ele>935.2</ele>
        <time>2021-05-29T06:24:02Z</time>
      </trkpt>
      <trkpt lat="45.0082" lon="5.71195">
        <ele>935</ele>
        <time>2021-05-29T06:24:03Z</time>
      </trkpt>
      <trkpt lat="45.00823" lon="5.71197">
        <ele>935.4</ele>
        <time>2021-05-29T06:24:04Z</time>
      </trkpt>
      <trkpt lat="45.00825" lon="5.71199">
        <ele>935.2</ele>
        <time>2021-05-29T06:24:05Z</time>
      </trkpt>
      <trkpt lat="45.00827" lon="5.712">
        <ele>935.6</ele>
        <time>2021-05-29T06:24:06Z</time>
      </trkpt>
      <trkpt lat="45.0083" lon="5.71201">
        <ele>935.2</ele>
        <time>2021-05-29T06:24:07Z</time>
      </trkpt>
      <trkpt lat="45.00832" lon="5.71203">
        <ele>935.4</ele>
        <time>2021-05-29T06:24:08Z</time>
      </trkpt>
      <trkpt lat="45.00834" lon="5.71204">
        <ele>935.2</ele>
        <time>2021-05-29T06:24:09Z</time>
      </trkpt>
      <trkpt lat="45.00843" lon="5.71209">
        <ele>935.4</ele>
        <time>2021-05-29T06:24:10Z</time>
      </trkpt>
      <trkpt lat="45.00843" lon="5.71209">
        <ele>935.2</ele>
        <time>2021-05-29T06:24:11Z</time>
      </trkpt>
      <trkpt lat="45.00843" lon="5.71209">
        <ele>935.4</ele>
        <time>2021-05-29T06:24:12Z</time>
      </trkpt>
      <trkpt lat="45.00846" lon="5.7121">
        <ele>935.2</ele>
        <time>2021-05-29T06:24:13Z</time>
      </trkpt>
      <trkpt lat="45.00848" lon="5.71212">
        <ele>935.2</ele>
        <time>2021-05-29T06:24:14Z</time>
      </trkpt>
      <trkpt lat="45.00851" lon="5.71213">
        <ele>934.8</ele>
        <time>2021-05-29T06:24:15Z</time>
      </trkpt>
      <trkpt lat="45.00853" lon="5.71214">
        <ele>934.8</ele>
        <time>2021-05-29T06:24:16Z</time>
      </trkpt>
      <trkpt lat="45.00855" lon="5.71217">
        <ele>934.4</ele>
        <time>2021-05-29T06:24:17Z</time>
      </trkpt>
      <trkpt lat="45.00857" lon="5.7122">
        <ele>934.2</ele>
        <time>2021-05-29T06:24:18Z</time>
      </trkpt>
      <trkpt lat="45.00859" lon="5.71223">
        <ele>934.2</ele>
        <time>2021-05-29T06:24:19Z</time>
      </trkpt>
      <trkpt lat="45.00861" lon="5.71226">
        <ele>934.2</ele>
        <time>2021-05-29T06:24:20Z</time>
      </trkpt>
      <trkpt lat="45.00863" lon="5.71227">
        <ele>934.2</ele>
        <time>2021-05-29T06:24:21Z</time>
      </trkpt>
      <trkpt lat="45.00866" lon="5.71228">
        <ele>933.8</ele>
        <time>2021-05-29T06:24:22Z</time>
      </trkpt>
      <trkpt lat="45.00868" lon="5.7123">
        <ele>934</ele>
        <time>2021-05-29T06:24:23Z</time>
      </trkpt>
      <trkpt lat="45.0087" lon="5.71231">
        <ele>933.6</ele>
        <time>2021-05-29T06:24:24Z</time>
      </trkpt>
      <trkpt lat="45.00878" lon="5.71239">
        <ele>934.2</ele>
        <time>2021-05-29T06:24:25Z</time>
      </trkpt>
      <trkpt lat="45.00878" lon="5.71239">
        <ele>934.2</ele>
        <time>2021-05-29T06:24:26Z</time>
      </trkpt>
      <trkpt lat="45.00878" lon="5.71239">
        <ele>934.6</ele>
        <time>2021-05-29T06:24:27Z</time>
      </trkpt>
      <trkpt lat="45.0088" lon="5.71241">
        <ele>934.4</ele>
        <time>2021-05-29T06:24:28Z</time>
      </trkpt>
      <trkpt lat="45.00881" lon="5.71244">
        <ele>934.6</ele>
        <time>2021-05-29T06:24:29Z</time>
      </trkpt>
      <trkpt lat="45.00883" lon="5.71246">
        <ele>934.6</ele>
        <time>2021-05-29T06:24:30Z</time>
      </trkpt>
      <trkpt lat="45.00884" lon="5.71248">
        <ele>934.8</ele>
        <time>2021-05-29T06:24:31Z</time>
      </trkpt>
      <trkpt lat="45.00885" lon="5.7125">
        <ele>934.6</ele>
        <time>2021-05-29T06:24:32Z</time>
      </trkpt>
      <trkpt lat="45.00888" lon="5.71252">
        <ele>934.8</ele>
        <time>2021-05-29T06:24:33Z</time>
      </trkpt>
      <trkpt lat="45.0089" lon="5.71254">
        <ele>934.4</ele>
        <time>2021-05-29T06:24:34Z</time>
      </trkpt>
      <trkpt lat="45.00893" lon="5.71256">
        <ele>934.6</ele>
        <time>2021-05-29T06:24:35Z</time>
      </trkpt>
      <trkpt lat="45.00895" lon="5.71258">
        <ele>934.4</ele>
        <time>2021-05-29T06:24:36Z</time>
      </trkpt>
      <trkpt lat="45.00899" lon="5.7126">
        <ele>934.6</ele>
        <time>2021-05-29T06:24:37Z</time>
      </trkpt>
      <trkpt lat="45.00904" lon="5.71262">
        <ele>934.4</ele>
        <time>2021-05-29T06:24:38Z</time>
      </trkpt>
      <trkpt lat="45.00908" lon="5.71264">
        <ele>934.4</ele>
        <time>2021-05-29T06:24:39Z</time>
      </trkpt>
      <trkpt lat="45.00912" lon="5.71267">
        <ele>934.2</ele>
        <time>2021-05-29T06:24:40Z</time>
      </trkpt>
      <trkpt lat="45.00917" lon="5.71268">
        <ele>934</ele>
        <time>2021-05-29T06:24:41Z</time>
      </trkpt>
      <trkpt lat="45.00918" lon="5.71269">
        <ele>934</ele>
        <time>2021-05-29T06:24:42Z</time>
      </trkpt>
      <trkpt lat="45.00919" lon="5.7127">
        <ele>933.6</ele>
        <time>2021-05-29T06:24:43Z</time>
      </trkpt>
      <trkpt lat="45.0092" lon="5.71271">
        <ele>934</ele>
        <time>2021-05-29T06:24:44Z</time>
      </trkpt>
      <trkpt lat="45.00924" lon="5.71274">
        <ele>934</ele>
        <time>2021-05-29T06:24:45Z</time>
      </trkpt>
      <trkpt lat="45.00927" lon="5.71277">
        <ele>934.4</ele>
        <time>2021-05-29T06:24:46Z</time>
      </trkpt>
      <trkpt lat="45.00931" lon="5.7128">
        <ele>934.4</ele>
        <time>2021-05-29T06:24:47Z</time>
      </trkpt>
      <trkpt lat="45.00936" lon="5.71283">
        <ele>934.6</ele>
        <time>2021-05-29T06:24:48Z</time>
      </trkpt>
      <trkpt lat="45.00936" lon="5.71283">
        <ele>934.4</ele>
        <time>2021-05-29T06:24:49Z</time>
      </trkpt>
      <trkpt lat="45.00936" lon="5.71283">
        <ele>934.6</ele>
        <time>2021-05-29T06:24:50Z</time>
      </trkpt>
      <trkpt lat="45.00936" lon="5.71283">
        <ele>934.6</ele>
        <time>2021-05-29T06:24:51Z</time>
      </trkpt>
      <trkpt lat="45.00938" lon="5.71286">
        <ele>934.8</ele>
        <time>2021-05-29T06:24:52Z</time>
      </trkpt>
      <trkpt lat="45.0094" lon="5.71288">
        <ele>934.4</ele>
        <time>2021-05-29T06:24:53Z</time>
      </trkpt>
      <trkpt lat="45.00942" lon="5.7129">
        <ele>934.6</ele>
        <time>2021-05-29T06:24:54Z</time>
      </trkpt>
      <trkpt lat="45.00944" lon="5.71292">
        <ele>934.6</ele>
        <time>2021-05-29T06:24:55Z</time>
      </trkpt>
      <trkpt lat="45.00945" lon="5.71294">
        <ele>934.6</ele>
        <time>2021-05-29T06:24:56Z</time>
      </trkpt>
      <trkpt lat="45.00947" lon="5.71296">
        <ele>934.2</ele>
        <time>2021-05-29T06:24:57Z</time>
      </trkpt>
      <trkpt lat="45.00948" lon="5.71298">
        <ele>934.2</ele>
        <time>2021-05-29T06:24:58Z</time>
      </trkpt>
      <trkpt lat="45.00949" lon="5.71299">
        <ele>934.2</ele>
        <time>2021-05-29T06:24:59Z</time>
      </trkpt>
      <trkpt lat="45.00951" lon="5.71301">
        <ele>934</ele>
        <time>2021-05-29T06:25:00Z</time>
      </trkpt>
      <trkpt lat="45.00952" lon="5.71303">
        <ele>934.4</ele>
        <time>2021-05-29T06:25:01Z</time>
      </trkpt>
      <trkpt lat="45.00954" lon="5.71306">
        <ele>934.4</ele>
        <time>2021-05-29T06:25:02Z</time>
      </trkpt>
      <trkpt lat="45.00956" lon="5.71308">
        <ele>933.8</ele>
        <time>2021-05-29T06:25:03Z</time>
      </trkpt>
      <trkpt lat="45.00957" lon="5.7131">
        <ele>934.2</ele>
        <time>2021-05-29T06:25:04Z</time>
      </trkpt>
      <trkpt lat="45.00959" lon="5.71312">
        <ele>934.6</ele>
        <time>2021-05-29T06:25:05Z</time>
      </trkpt>
      <trkpt lat="45.00961" lon="5.71314">
        <ele>934.6</ele>
        <time>2021-05-29T06:25:06Z</time>
      </trkpt>
      <trkpt lat="45.00962" lon="5.71316">
        <ele>935</ele>
        <time>2021-05-29T06:25:07Z</time>
      </trkpt>
      <trkpt lat="45.00963" lon="5.71317">
        <ele>935</ele>
        <time>2021-05-29T06:25:08Z</time>
      </trkpt>
      <trkpt lat="45.00965" lon="5.71319">
        <ele>935.2</ele>
        <time>2021-05-29T06:25:09Z</time>
      </trkpt>
      <trkpt lat="45.00966" lon="5.71321">
        <ele>935</ele>
        <time>2021-05-29T06:25:10Z</time>
      </trkpt>
      <trkpt lat="45.00968" lon="5.71323">
        <ele>934.8</ele>
        <time>2021-05-29T06:25:11Z</time>
      </trkpt>
      <trkpt lat="45.00969" lon="5.71325">
        <ele>934.6</ele>
        <time>2021-05-29T06:25:12Z</time>
      </trkpt>
      <trkpt lat="45.0097" lon="5.71328">
        <ele>934.4</ele>
        <time>2021-05-29T06:25:13Z</time>
      </trkpt>
      <trkpt lat="45.00971" lon="5.7133">
        <ele>934.2</ele>
        <time>2021-05-29T06:25:14Z</time>
      </trkpt>
      <trkpt lat="45.00973" lon="5.71332">
        <ele>934</ele>
        <time>2021-05-29T06:25:15Z</time>
      </trkpt>
      <trkpt lat="45.00975" lon="5.71334">
        <ele>934.4</ele>
        <time>2021-05-29T06:25:16Z</time>
      </trkpt>
      <trkpt lat="45.00977" lon="5.71336">
        <ele>934.4</ele>
        <time>2021-05-29T06:25:17Z</time>
      </trkpt>
      <trkpt lat="45.00978" lon="5.71338">
        <ele>934.6</ele>
        <time>2021-05-29T06:25:18Z</time>
      </trkpt>
      <trkpt lat="45.0098" lon="5.7134">
        <ele>934.6</ele>
        <time>2021-05-29T06:25:19Z</time>
      </trkpt>
      <trkpt lat="45.00982" lon="5.71342">
        <ele>935</ele>
        <time>2021-05-29T06:25:20Z</time>
      </trkpt>
      <trkpt lat="45.00984" lon="5.71344">
        <ele>934.8</ele>
        <time>2021-05-29T06:25:21Z</time>
      </trkpt>
      <trkpt lat="45.00985" lon="5.71346">
        <ele>935</ele>
        <time>2021-05-29T06:25:22Z</time>
      </trkpt>
      <trkpt lat="45.00987" lon="5.71347">
        <ele>934.8</ele>
        <time>2021-05-29T06:25:23Z</time>
      </trkpt>
      <trkpt lat="45.00988" lon="5.71349">
        <ele>934.6</ele>
        <time>2021-05-29T06:25:24Z</time>
      </trkpt>
      <trkpt lat="45.00991" lon="5.71352">
        <ele>934.4</ele>
        <time>2021-05-29T06:25:25Z</time>
      </trkpt>
      <trkpt lat="45.00993" lon="5.71355">
        <ele>934.4</ele>
        <time>2021-05-29T06:25:26Z</time>
      </trkpt>
      <trkpt lat="45.00996" lon="5.71358">
        <ele>934</ele>
        <time>2021-05-29T06:25:27Z</time>
      </trkpt>
      <trkpt lat="45.00998" lon="5.71361">
        <ele>933.8</ele>
        <time>2021-05-29T06:25:28Z</time>
      </trkpt>
      <trkpt lat="45.01001" lon="5.71364">
        <ele>934</ele>
        <time>2021-05-29T06:25:29Z</time>
      </trkpt>
      <trkpt lat="45.01005" lon="5.71368">
        <ele>933.6</ele>
        <time>2021-05-29T06:25:30Z</time>
      </trkpt>
      <trkpt lat="45.01006" lon="5.71368">
        <ele>934</ele>
        <time>2021-05-29T06:25:31Z</time>
      </trkpt>
      <trkpt lat="45.01008" lon="5.71369">
        <ele>934</ele>
        <time>2021-05-29T06:25:32Z</time>
      </trkpt>
      <trkpt lat="45.01009" lon="5.7137">
        <ele>934.4</ele>
        <time>2021-05-29T06:25:33Z</time>
      </trkpt>
      <trkpt lat="45.01013" lon="5.71372">
        <ele>934.4</ele>
        <time>2021-05-29T06:25:34Z</time>
      </trkpt>
      <trkpt lat="45.01017" lon="5.71374">
        <ele>934.6</ele>
        <time>2021-05-29T06:25:35Z</time>
      </trkpt>
      <trkpt lat="45.01021" lon="5.71376">
        <ele>934.4</ele>
        <time>2021-05-29T06:25:36Z</time>
      </trkpt>
      <trkpt lat="45.01027" lon="5.71379">
        <ele>934.6</ele>
        <time>2021-05-29T06:25:37Z</time>
      </trkpt>
      <trkpt lat="45.01028" lon="5.7138">
        <ele>934.4</ele>
        <time>2021-05-29T06:25:38Z</time>
      </trkpt>
      <trkpt lat="45.0103" lon="5.71381">
        <ele>934.8</ele>
        <time>2021-05-29T06:25:39Z</time>
      </trkpt>
      <trkpt lat="45.01034" lon="5.71384">
        <ele>934.8</ele>
        <time>2021-05-29T06:25:40Z</time>
      </trkpt>
      <trkpt lat="45.01035" lon="5.71385">
        <ele>935.2</ele>
        <time>2021-05-29T06:25:41Z</time>
      </trkpt>
      <trkpt lat="45.01036" lon="5.71386">
        <ele>935</ele>
        <time>2021-05-29T06:25:42Z</time>
      </trkpt>
      <trkpt lat="45.01037" lon="5.71387">
        <ele>935.2</ele>
        <time>2021-05-29T06:25:43Z</time>
      </trkpt>
      <trkpt lat="45.01037" lon="5.71387">
        <ele>935</ele>
        <time>2021-05-29T06:25:44Z</time>
      </trkpt>
      <trkpt lat="45.01041" lon="5.71391">
        <ele>935</ele>
        <time>2021-05-29T06:25:45Z</time>
      </trkpt>
      <trkpt lat="45.01044" lon="5.71394">
        <ele>934.8</ele>
        <time>2021-05-29T06:25:46Z</time>
      </trkpt>
      <trkpt lat="45.01048" lon="5.71397">
        <ele>934.8</ele>
        <time>2021-05-29T06:25:47Z</time>
      </trkpt>
      <trkpt lat="45.01052" lon="5.71401">
        <ele>934.6</ele>
        <time>2021-05-29T06:25:48Z</time>
      </trkpt>
      <trkpt lat="45.01052" lon="5.71402">
        <ele>934.6</ele>
        <time>2021-05-29T06:25:49Z</time>
      </trkpt>
      <trkpt lat="45.01053" lon="5.71403">
        <ele>934.6</ele>
        <time>2021-05-29T06:25:50Z</time>
      </trkpt>
      <trkpt lat="45.01054" lon="5.71403">
        <ele>934.4</ele>
        <time>2021-05-29T06:25:51Z</time>
      </trkpt>
      <trkpt lat="45.01055" lon="5.71404">
        <ele>934.2</ele>
        <time>2021-05-29T06:25:52Z</time>
      </trkpt>
      <trkpt lat="45.01058" lon="5.71407">
        <ele>934.2</ele>
        <time>2021-05-29T06:25:53Z</time>
      </trkpt>
      <trkpt lat="45.01062" lon="5.7141">
        <ele>934.2</ele>
        <time>2021-05-29T06:25:54Z</time>
      </trkpt>
      <trkpt lat="45.01065" lon="5.71413">
        <ele>934</ele>
        <time>2021-05-29T06:25:55Z</time>
      </trkpt>
      <trkpt lat="45.01069" lon="5.71416">
        <ele>934.2</ele>
        <time>2021-05-29T06:25:56Z</time>
      </trkpt>
      <trkpt lat="45.01069" lon="5.71416">
        <ele>934.2</ele>
        <time>2021-05-29T06:25:57Z</time>
      </trkpt>
      <trkpt lat="45.01069" lon="5.71416">
        <ele>934.6</ele>
        <time>2021-05-29T06:25:58Z</time>
      </trkpt>
      <trkpt lat="45.01069" lon="5.71416">
        <ele>934.4</ele>
        <time>2021-05-29T06:25:59Z</time>
      </trkpt>
      <trkpt lat="45.01071" lon="5.71419">
        <ele>934.6</ele>
        <time>2021-05-29T06:26:00Z</time>
      </trkpt>
      <trkpt lat="45.01073" lon="5.71423">
        <ele>934.4</ele>
        <time>2021-05-29T06:26:01Z</time>
      </trkpt>
      <trkpt lat="45.01075" lon="5.71426">
        <ele>934.2</ele>
        <time>2021-05-29T06:26:02Z</time>
      </trkpt>
      <trkpt lat="45.01077" lon="5.71429">
        <ele>934</ele>
        <time>2021-05-29T06:26:03Z</time>
      </trkpt>
      <trkpt lat="45.01079" lon="5.71432">
        <ele>933.8</ele>
        <time>2021-05-29T06:26:04Z</time>
      </trkpt>
      <trkpt lat="45.01082" lon="5.71438">
        <ele>933.8</ele>
        <time>2021-05-29T06:26:05Z</time>
      </trkpt>
      <trkpt lat="45.01082" lon="5.71438">
        <ele>933.6</ele>
        <time>2021-05-29T06:26:06Z</time>
      </trkpt>
      <trkpt lat="45.01082" lon="5.71438">
        <ele>933.6</ele>
        <time>2021-05-29T06:26:07Z</time>
      </trkpt>
      <trkpt lat="45.01082" lon="5.71438">
        <ele>933.4</ele>
        <time>2021-05-29T06:26:08Z</time>
      </trkpt>
      <trkpt lat="45.01084" lon="5.71441">
        <ele>933.6</ele>
        <time>2021-05-29T06:26:09Z</time>
      </trkpt>
      <trkpt lat="45.01085" lon="5.71443">
        <ele>933.2</ele>
        <time>2021-05-29T06:26:10Z</time>
      </trkpt>
      <trkpt lat="45.01086" lon="5.71446">
        <ele>933.4</ele>
        <time>2021-05-29T06:26:11Z</time>
      </trkpt>
      <trkpt lat="45.01087" lon="5.71449">
        <ele>933.4</ele>
        <time>2021-05-29T06:26:12Z</time>
      </trkpt>
      <trkpt lat="45.01087" lon="5.71451">
        <ele>933.4</ele>
        <time>2021-05-29T06:26:13Z</time>
      </trkpt>
      <trkpt lat="45.01087" lon="5.71453">
        <ele>933.2</ele>
        <time>2021-05-29T06:26:14Z</time>
      </trkpt>
      <trkpt lat="45.01086" lon="5.71455">
        <ele>933.2</ele>
        <time>2021-05-29T06:26:15Z</time>
      </trkpt>
      <trkpt lat="45.01086" lon="5.71457">
        <ele>932.8</ele>
        <time>2021-05-29T06:26:16Z</time>
      </trkpt>
      <trkpt lat="45.01086" lon="5.71459">
        <ele>932.6</ele>
        <time>2021-05-29T06:26:17Z</time>
      </trkpt>
      <trkpt lat="45.01085" lon="5.71461">
        <ele>932.4</ele>
        <time>2021-05-29T06:26:18Z</time>
      </trkpt>
      <trkpt lat="45.01085" lon="5.71463">
        <ele>932.2</ele>
        <time>2021-05-29T06:26:19Z</time>
      </trkpt>
      <trkpt lat="45.01085" lon="5.71465">
        <ele>932.6</ele>
        <time>2021-05-29T06:26:20Z</time>
      </trkpt>
      <trkpt lat="45.01085" lon="5.71467">
        <ele>932.4</ele>
        <time>2021-05-29T06:26:21Z</time>
      </trkpt>
      <trkpt lat="45.01084" lon="5.7147">
        <ele>932.8</ele>
        <time>2021-05-29T06:26:22Z</time>
      </trkpt>
      <trkpt lat="45.01084" lon="5.71472">
        <ele>932.8</ele>
        <time>2021-05-29T06:26:23Z</time>
      </trkpt>
      <trkpt lat="45.01084" lon="5.71475">
        <ele>933</ele>
        <time>2021-05-29T06:26:24Z</time>
      </trkpt>
      <trkpt lat="45.01084" lon="5.71477">
        <ele>933</ele>
        <time>2021-05-29T06:26:25Z</time>
      </trkpt>
      <trkpt lat="45.01085" lon="5.7148">
        <ele>933.4</ele>
        <time>2021-05-29T06:26:26Z</time>
      </trkpt>
      <trkpt lat="45.01086" lon="5.71482">
        <ele>933.2</ele>
        <time>2021-05-29T06:26:27Z</time>
      </trkpt>
      <trkpt lat="45.01088" lon="5.71485">
        <ele>933.4</ele>
        <time>2021-05-29T06:26:28Z</time>
      </trkpt>
      <trkpt lat="45.01089" lon="5.71487">
        <ele>933.2</ele>
        <time>2021-05-29T06:26:29Z</time>
      </trkpt>
      <trkpt lat="45.0109" lon="5.7149">
        <ele>933.2</ele>
        <time>2021-05-29T06:26:30Z</time>
      </trkpt>
      <trkpt lat="45.01092" lon="5.71492">
        <ele>933</ele>
        <time>2021-05-29T06:26:31Z</time>
      </trkpt>
      <trkpt lat="45.01093" lon="5.71494">
        <ele>933</ele>
        <time>2021-05-29T06:26:32Z</time>
      </trkpt>
      <trkpt lat="45.01095" lon="5.71497">
        <ele>932.8</ele>
        <time>2021-05-29T06:26:33Z</time>
      </trkpt>
      <trkpt lat="45.01096" lon="5.71499">
        <ele>933</ele>
        <time>2021-05-29T06:26:34Z</time>
      </trkpt>
      <trkpt lat="45.01101" lon="5.71513">
        <ele>932.8</ele>
        <time>2021-05-29T06:26:35Z</time>
      </trkpt>
      <trkpt lat="45.01101" lon="5.71513">
        <ele>932.8</ele>
        <time>2021-05-29T06:26:36Z</time>
      </trkpt>
      <trkpt lat="45.01101" lon="5.71513">
        <ele>932.4</ele>
        <time>2021-05-29T06:26:37Z</time>
      </trkpt>
      <trkpt lat="45.01101" lon="5.71513">
        <ele>932.4</ele>
        <time>2021-05-29T06:26:38Z</time>
      </trkpt>
      <trkpt lat="45.01102" lon="5.71515">
        <ele>932.2</ele>
        <time>2021-05-29T06:26:39Z</time>
      </trkpt>
      <trkpt lat="45.01104" lon="5.71518">
        <ele>932</ele>
        <time>2021-05-29T06:26:40Z</time>
      </trkpt>
      <trkpt lat="45.01105" lon="5.71521">
        <ele>931.6</ele>
        <time>2021-05-29T06:26:41Z</time>
      </trkpt>
      <trkpt lat="45.01107" lon="5.71523">
        <ele>931.2</ele>
        <time>2021-05-29T06:26:42Z</time>
      </trkpt>
      <trkpt lat="45.0111" lon="5.71528">
        <ele>931.6</ele>
        <time>2021-05-29T06:26:43Z</time>
      </trkpt>
      <trkpt lat="45.01113" lon="5.71533">
        <ele>931.6</ele>
        <time>2021-05-29T06:26:44Z</time>
      </trkpt>
      <trkpt lat="45.01117" lon="5.71537">
        <ele>932</ele>
        <time>2021-05-29T06:26:45Z</time>
      </trkpt>
      <trkpt lat="45.0112" lon="5.71542">
        <ele>931.8</ele>
        <time>2021-05-29T06:26:46Z</time>
      </trkpt>
      <trkpt lat="45.01122" lon="5.71544">
        <ele>932</ele>
        <time>2021-05-29T06:26:47Z</time>
      </trkpt>
      <trkpt lat="45.01124" lon="5.71546">
        <ele>931.8</ele>
        <time>2021-05-29T06:26:48Z</time>
      </trkpt>
      <trkpt lat="45.01125" lon="5.71548">
        <ele>931.8</ele>
        <time>2021-05-29T06:26:49Z</time>
      </trkpt>
      <trkpt lat="45.01127" lon="5.71551">
        <ele>931.6</ele>
        <time>2021-05-29T06:26:50Z</time>
      </trkpt>
      <trkpt lat="45.01128" lon="5.71552">
        <ele>931.8</ele>
        <time>2021-05-29T06:26:51Z</time>
      </trkpt>
      <trkpt lat="45.0113" lon="5.71553">
        <ele>931.4</ele>
        <time>2021-05-29T06:26:52Z</time>
      </trkpt>
      <trkpt lat="45.01131" lon="5.71555">
        <ele>931.4</ele>
        <time>2021-05-29T06:26:53Z</time>
      </trkpt>
      <trkpt lat="45.01134" lon="5.71558">
        <ele>931</ele>
        <time>2021-05-29T06:26:54Z</time>
      </trkpt>
      <trkpt lat="45.01137" lon="5.71562">
        <ele>930.6</ele>
        <time>2021-05-29T06:26:55Z</time>
      </trkpt>
      <trkpt lat="45.01141" lon="5.71566">
        <ele>930.8</ele>
        <time>2021-05-29T06:26:56Z</time>
      </trkpt>
      <trkpt lat="45.01147" lon="5.71572">
        <ele>930.8</ele>
        <time>2021-05-29T06:26:57Z</time>
      </trkpt>
      <trkpt lat="45.01148" lon="5.71572">
        <ele>931</ele>
        <time>2021-05-29T06:26:58Z</time>
      </trkpt>
      <trkpt lat="45.01149" lon="5.71573">
        <ele>930.8</ele>
        <time>2021-05-29T06:26:59Z</time>
      </trkpt>
      <trkpt lat="45.0115" lon="5.71574">
        <ele>931</ele>
        <time>2021-05-29T06:27:00Z</time>
      </trkpt>
      <trkpt lat="45.01154" lon="5.71577">
        <ele>931</ele>
        <time>2021-05-29T06:27:01Z</time>
      </trkpt>
      <trkpt lat="45.01155" lon="5.71578">
        <ele>931.2</ele>
        <time>2021-05-29T06:27:02Z</time>
      </trkpt>
      <trkpt lat="45.01156" lon="5.71579">
        <ele>931</ele>
        <time>2021-05-29T06:27:03Z</time>
      </trkpt>
      <trkpt lat="45.01157" lon="5.7158">
        <ele>931.2</ele>
        <time>2021-05-29T06:27:04Z</time>
      </trkpt>
      <trkpt lat="45.01161" lon="5.71584">
        <ele>930.8</ele>
        <time>2021-05-29T06:27:05Z</time>
      </trkpt>
      <trkpt lat="45.01164" lon="5.71587">
        <ele>930.8</ele>
        <time>2021-05-29T06:27:06Z</time>
      </trkpt>
      <trkpt lat="45.01167" lon="5.71591">
        <ele>930.6</ele>
        <time>2021-05-29T06:27:07Z</time>
      </trkpt>
      <trkpt lat="45.01171" lon="5.71595">
        <ele>930.8</ele>
        <time>2021-05-29T06:27:08Z</time>
      </trkpt>
      <trkpt lat="45.01172" lon="5.71597">
        <ele>930.8</ele>
        <time>2021-05-29T06:27:09Z</time>
      </trkpt>
      <trkpt lat="45.01173" lon="5.71599">
        <ele>930.6</ele>
        <time>2021-05-29T06:27:10Z</time>
      </trkpt>
      <trkpt lat="45.01174" lon="5.71601">
        <ele>930.6</ele>
        <time>2021-05-29T06:27:11Z</time>
      </trkpt>
      <trkpt lat="45.01176" lon="5.71607">
        <ele>930.4</ele>
        <time>2021-05-29T06:27:12Z</time>
      </trkpt>
      <trkpt lat="45.01176" lon="5.71611">
        <ele>930.6</ele>
        <time>2021-05-29T06:27:13Z</time>
      </trkpt>
      <trkpt lat="45.01176" lon="5.71615">
        <ele>930.8</ele>
        <time>2021-05-29T06:27:14Z</time>
      </trkpt>
      <trkpt lat="45.01176" lon="5.71619">
        <ele>931</ele>
        <time>2021-05-29T06:27:15Z</time>
      </trkpt>
      <trkpt lat="45.01175" lon="5.71631">
        <ele>930.8</ele>
        <time>2021-05-29T06:27:16Z</time>
      </trkpt>
      <trkpt lat="45.01174" lon="5.71643">
        <ele>931.4</ele>
        <time>2021-05-29T06:27:17Z</time>
      </trkpt>
      <trkpt lat="45.01173" lon="5.71655">
        <ele>931.8</ele>
        <time>2021-05-29T06:27:18Z</time>
      </trkpt>
      <trkpt lat="45.01173" lon="5.71665">
        <ele>932.4</ele>
        <time>2021-05-29T06:27:19Z</time>
      </trkpt>
      <trkpt lat="45.01173" lon="5.71667">
        <ele>932.4</ele>
        <time>2021-05-29T06:27:20Z</time>
      </trkpt>
      <trkpt lat="45.01173" lon="5.71669">
        <ele>932.8</ele>
        <time>2021-05-29T06:27:21Z</time>
      </trkpt>
      <trkpt lat="45.01173" lon="5.71676">
        <ele>932.8</ele>
        <time>2021-05-29T06:27:22Z</time>
      </trkpt>
      <trkpt lat="45.01173" lon="5.71676">
        <ele>933.2</ele>
        <time>2021-05-29T06:27:23Z</time>
      </trkpt>
      <trkpt lat="45.01173" lon="5.71676">
        <ele>933.4</ele>
        <time>2021-05-29T06:27:24Z</time>
      </trkpt>
      <trkpt lat="45.01173" lon="5.71676">
        <ele>933.6</ele>
        <time>2021-05-29T06:27:25Z</time>
      </trkpt>
      <trkpt lat="45.01173" lon="5.71679">
        <ele>933.4</ele>
        <time>2021-05-29T06:27:26Z</time>
      </trkpt>
      <trkpt lat="45.01174" lon="5.71682">
        <ele>933.4</ele>
        <time>2021-05-29T06:27:27Z</time>
      </trkpt>
      <trkpt lat="45.01174" lon="5.71686">
        <ele>933.2</ele>
        <time>2021-05-29T06:27:28Z</time>
      </trkpt>
      <trkpt lat="45.01174" lon="5.71689">
        <ele>933.2</ele>
        <time>2021-05-29T06:27:29Z</time>
      </trkpt>
      <trkpt lat="45.01174" lon="5.71692">
        <ele>933</ele>
        <time>2021-05-29T06:27:30Z</time>
      </trkpt>
      <trkpt lat="45.01175" lon="5.71695">
        <ele>933</ele>
        <time>2021-05-29T06:27:31Z</time>
      </trkpt>
      <trkpt lat="45.01175" lon="5.71699">
        <ele>933.2</ele>
        <time>2021-05-29T06:27:32Z</time>
      </trkpt>
      <trkpt lat="45.01176" lon="5.71702">
        <ele>933.2</ele>
        <time>2021-05-29T06:27:33Z</time>
      </trkpt>
      <trkpt lat="45.01176" lon="5.71705">
        <ele>933.4</ele>
        <time>2021-05-29T06:27:34Z</time>
      </trkpt>
      <trkpt lat="45.01176" lon="5.71708">
        <ele>933.4</ele>
        <time>2021-05-29T06:27:35Z</time>
      </trkpt>
      <trkpt lat="45.01176" lon="5.71711">
        <ele>933.6</ele>
        <time>2021-05-29T06:27:36Z</time>
      </trkpt>
      <trkpt lat="45.01177" lon="5.71715">
        <ele>933.6</ele>
        <time>2021-05-29T06:27:37Z</time>
      </trkpt>
      <trkpt lat="45.01177" lon="5.71718">
        <ele>934</ele>
        <time>2021-05-29T06:27:38Z</time>
      </trkpt>
      <trkpt lat="45.01177" lon="5.71721">
        <ele>934</ele>
        <time>2021-05-29T06:27:39Z</time>
      </trkpt>
      <trkpt lat="45.01177" lon="5.71724">
        <ele>934</ele>
        <time>2021-05-29T06:27:40Z</time>
      </trkpt>
      <trkpt lat="45.01177" lon="5.71727">
        <ele>933.8</ele>
        <time>2021-05-29T06:27:41Z</time>
      </trkpt>
      <trkpt lat="45.01178" lon="5.7173">
        <ele>933.8</ele>
        <time>2021-05-29T06:27:42Z</time>
      </trkpt>
      <trkpt lat="45.01178" lon="5.71733">
        <ele>933.8</ele>
        <time>2021-05-29T06:27:43Z</time>
      </trkpt>
      <trkpt lat="45.01179" lon="5.71736">
        <ele>933.8</ele>
        <time>2021-05-29T06:27:44Z</time>
      </trkpt>
      <trkpt lat="45.01179" lon="5.71739">
        <ele>934</ele>
        <time>2021-05-29T06:27:45Z</time>
      </trkpt>
      <trkpt lat="45.0118" lon="5.71743">
        <ele>934</ele>
        <time>2021-05-29T06:27:46Z</time>
      </trkpt>
      <trkpt lat="45.01181" lon="5.71746">
        <ele>934.4</ele>
        <time>2021-05-29T06:27:47Z</time>
      </trkpt>
      <trkpt lat="45.01181" lon="5.71748">
        <ele>934.8</ele>
        <time>2021-05-29T06:27:48Z</time>
      </trkpt>
      <trkpt lat="45.01182" lon="5.7175">
        <ele>935.2</ele>
        <time>2021-05-29T06:27:49Z</time>
      </trkpt>
      <trkpt lat="45.01182" lon="5.71753">
        <ele>935.4</ele>
        <time>2021-05-29T06:27:50Z</time>
      </trkpt>
      <trkpt lat="45.01183" lon="5.71755">
        <ele>935.4</ele>
        <time>2021-05-29T06:27:51Z</time>
      </trkpt>
      <trkpt lat="45.01183" lon="5.71757">
        <ele>935</ele>
        <time>2021-05-29T06:27:52Z</time>
      </trkpt>
      <trkpt lat="45.01184" lon="5.71759">
        <ele>935</ele>
        <time>2021-05-29T06:27:53Z</time>
      </trkpt>
      <trkpt lat="45.01184" lon="5.71762">
        <ele>934.6</ele>
        <time>2021-05-29T06:27:54Z</time>
      </trkpt>
      <trkpt lat="45.01185" lon="5.71765">
        <ele>934.4</ele>
        <time>2021-05-29T06:27:55Z</time>
      </trkpt>
      <trkpt lat="45.01185" lon="5.71768">
        <ele>935</ele>
        <time>2021-05-29T06:27:56Z</time>
      </trkpt>
      <trkpt lat="45.01186" lon="5.71771">
        <ele>934.8</ele>
        <time>2021-05-29T06:27:57Z</time>
      </trkpt>
      <trkpt lat="45.01186" lon="5.71774">
        <ele>935</ele>
        <time>2021-05-29T06:27:58Z</time>
      </trkpt>
      <trkpt lat="45.01187" lon="5.71776">
        <ele>935</ele>
        <time>2021-05-29T06:27:59Z</time>
      </trkpt>
      <trkpt lat="45.01187" lon="5.71778">
        <ele>935.4</ele>
        <time>2021-05-29T06:28:00Z</time>
      </trkpt>
      <trkpt lat="45.01187" lon="5.7178">
        <ele>935.4</ele>
        <time>2021-05-29T06:28:01Z</time>
      </trkpt>
      <trkpt lat="45.01188" lon="5.71783">
        <ele>935.8</ele>
        <time>2021-05-29T06:28:02Z</time>
      </trkpt>
      <trkpt lat="45.01188" lon="5.71785">
        <ele>935.8</ele>
        <time>2021-05-29T06:28:03Z</time>
      </trkpt>
      <trkpt lat="45.01188" lon="5.71787">
        <ele>935.8</ele>
        <time>2021-05-29T06:28:04Z</time>
      </trkpt>
      <trkpt lat="45.01189" lon="5.7179">
        <ele>935.6</ele>
        <time>2021-05-29T06:28:05Z</time>
      </trkpt>
      <trkpt lat="45.01189" lon="5.71794">
        <ele>935.6</ele>
        <time>2021-05-29T06:28:06Z</time>
      </trkpt>
      <trkpt lat="45.01189" lon="5.71797">
        <ele>935.4</ele>
        <time>2021-05-29T06:28:07Z</time>
      </trkpt>
      <trkpt lat="45.0119" lon="5.718">
        <ele>935.2</ele>
        <time>2021-05-29T06:28:08Z</time>
      </trkpt>
      <trkpt lat="45.0119" lon="5.71803">
        <ele>935.6</ele>
        <time>2021-05-29T06:28:09Z</time>
      </trkpt>
      <trkpt lat="45.0119" lon="5.71807">
        <ele>935.6</ele>
        <time>2021-05-29T06:28:10Z</time>
      </trkpt>
      <trkpt lat="45.0119" lon="5.71811">
        <ele>935.8</ele>
        <time>2021-05-29T06:28:11Z</time>
      </trkpt>
      <trkpt lat="45.01189" lon="5.71815">
        <ele>935.8</ele>
        <time>2021-05-29T06:28:12Z</time>
      </trkpt>
      <trkpt lat="45.01189" lon="5.71818">
        <ele>935.8</ele>
        <time>2021-05-29T06:28:13Z</time>
      </trkpt>
      <trkpt lat="45.0119" lon="5.7182">
        <ele>935.6</ele>
        <time>2021-05-29T06:28:14Z</time>
      </trkpt>
      <trkpt lat="45.01192" lon="5.71823">
        <ele>935.6</ele>
        <time>2021-05-29T06:28:15Z</time>
      </trkpt>
      <trkpt lat="45.01193" lon="5.71825">
        <ele>935.6</ele>
        <time>2021-05-29T06:28:16Z</time>
      </trkpt>
      <trkpt lat="45.01194" lon="5.71827">
        <ele>935.2</ele>
        <time>2021-05-29T06:28:17Z</time>
      </trkpt>
      <trkpt lat="45.01195" lon="5.71829">
        <ele>934.8</ele>
        <time>2021-05-29T06:28:18Z</time>
      </trkpt>
      <trkpt lat="45.01197" lon="5.71832">
        <ele>934.6</ele>
        <time>2021-05-29T06:28:19Z</time>
      </trkpt>
      <trkpt lat="45.012" lon="5.71835">
        <ele>934.8</ele>
        <time>2021-05-29T06:28:20Z</time>
      </trkpt>
      <trkpt lat="45.01202" lon="5.71838">
        <ele>934.6</ele>
        <time>2021-05-29T06:28:21Z</time>
      </trkpt>
      <trkpt lat="45.01204" lon="5.71841">
        <ele>935</ele>
        <time>2021-05-29T06:28:22Z</time>
      </trkpt>
      <trkpt lat="45.01205" lon="5.71843">
        <ele>934.8</ele>
        <time>2021-05-29T06:28:23Z</time>
      </trkpt>
      <trkpt lat="45.01207" lon="5.71846">
        <ele>934.8</ele>
        <time>2021-05-29T06:28:24Z</time>
      </trkpt>
      <trkpt lat="45.01209" lon="5.71849">
        <ele>934.8</ele>
        <time>2021-05-29T06:28:25Z</time>
      </trkpt>
      <trkpt lat="45.01211" lon="5.71852">
        <ele>934.8</ele>
        <time>2021-05-29T06:28:26Z</time>
      </trkpt>
      <trkpt lat="45.01213" lon="5.71855">
        <ele>934.4</ele>
        <time>2021-05-29T06:28:27Z</time>
      </trkpt>
      <trkpt lat="45.01214" lon="5.71859">
        <ele>934</ele>
        <time>2021-05-29T06:28:28Z</time>
      </trkpt>
      <trkpt lat="45.01216" lon="5.71862">
        <ele>933.8</ele>
        <time>2021-05-29T06:28:29Z</time>
      </trkpt>
      <trkpt lat="45.01218" lon="5.71865">
        <ele>933.4</ele>
        <time>2021-05-29T06:28:30Z</time>
      </trkpt>
      <trkpt lat="45.01219" lon="5.71868">
        <ele>933.8</ele>
        <time>2021-05-29T06:28:31Z</time>
      </trkpt>
      <trkpt lat="45.0122" lon="5.71871">
        <ele>933.6</ele>
        <time>2021-05-29T06:28:32Z</time>
      </trkpt>
      <trkpt lat="45.01221" lon="5.71875">
        <ele>934.2</ele>
        <time>2021-05-29T06:28:33Z</time>
      </trkpt>
      <trkpt lat="45.01222" lon="5.71878">
        <ele>934</ele>
        <time>2021-05-29T06:28:34Z</time>
      </trkpt>
      <trkpt lat="45.01223" lon="5.7188">
        <ele>934</ele>
        <time>2021-05-29T06:28:35Z</time>
      </trkpt>
      <trkpt lat="45.01224" lon="5.71883">
        <ele>933.8</ele>
        <time>2021-05-29T06:28:36Z</time>
      </trkpt>
      <trkpt lat="45.01225" lon="5.71886">
        <ele>933.6</ele>
        <time>2021-05-29T06:28:37Z</time>
      </trkpt>
      <trkpt lat="45.01226" lon="5.71888">
        <ele>933.6</ele>
        <time>2021-05-29T06:28:38Z</time>
      </trkpt>
      <trkpt lat="45.01227" lon="5.71891">
        <ele>933.2</ele>
        <time>2021-05-29T06:28:39Z</time>
      </trkpt>
      <trkpt lat="45.01228" lon="5.71893">
        <ele>933.6</ele>
        <time>2021-05-29T06:28:40Z</time>
      </trkpt>
      <trkpt lat="45.01228" lon="5.71896">
        <ele>933.8</ele>
        <time>2021-05-29T06:28:41Z</time>
      </trkpt>
      <trkpt lat="45.01229" lon="5.71898">
        <ele>934.2</ele>
        <time>2021-05-29T06:28:42Z</time>
      </trkpt>
      <trkpt lat="45.01229" lon="5.719">
        <ele>934.2</ele>
        <time>2021-05-29T06:28:43Z</time>
      </trkpt>
      <trkpt lat="45.0123" lon="5.71903">
        <ele>934.4</ele>
        <time>2021-05-29T06:28:44Z</time>
      </trkpt>
      <trkpt lat="45.01232" lon="5.71905">
        <ele>934.2</ele>
        <time>2021-05-29T06:28:45Z</time>
      </trkpt>
      <trkpt lat="45.01233" lon="5.71907">
        <ele>934.4</ele>
        <time>2021-05-29T06:28:46Z</time>
      </trkpt>
      <trkpt lat="45.01235" lon="5.7191">
        <ele>934</ele>
        <time>2021-05-29T06:28:47Z</time>
      </trkpt>
      <trkpt lat="45.01237" lon="5.71912">
        <ele>933.8</ele>
        <time>2021-05-29T06:28:48Z</time>
      </trkpt>
      <trkpt lat="45.01239" lon="5.71914">
        <ele>934</ele>
        <time>2021-05-29T06:28:49Z</time>
      </trkpt>
      <trkpt lat="45.0124" lon="5.71916">
        <ele>933.6</ele>
        <time>2021-05-29T06:28:50Z</time>
      </trkpt>
      <trkpt lat="45.01242" lon="5.71919">
        <ele>934</ele>
        <time>2021-05-29T06:28:51Z</time>
      </trkpt>
      <trkpt lat="45.01244" lon="5.71921">
        <ele>934</ele>
        <time>2021-05-29T06:28:52Z</time>
      </trkpt>
      <trkpt lat="45.01251" lon="5.71929">
        <ele>934.6</ele>
        <time>2021-05-29T06:28:53Z</time>
      </trkpt>
      <trkpt lat="45.01251" lon="5.71929">
        <ele>934.6</ele>
        <time>2021-05-29T06:28:54Z</time>
      </trkpt>
      <trkpt lat="45.01251" lon="5.71929">
        <ele>934.6</ele>
        <time>2021-05-29T06:28:55Z</time>
      </trkpt>
      <trkpt lat="45.01253" lon="5.71932">
        <ele>934.6</ele>
        <time>2021-05-29T06:28:56Z</time>
      </trkpt>
      <trkpt lat="45.01254" lon="5.71934">
        <ele>934.6</ele>
        <time>2021-05-29T06:28:57Z</time>
      </trkpt>
      <trkpt lat="45.01255" lon="5.71937">
        <ele>934.2</ele>
        <time>2021-05-29T06:28:58Z</time>
      </trkpt>
      <trkpt lat="45.01256" lon="5.71939">
        <ele>934.2</ele>
        <time>2021-05-29T06:28:59Z</time>
      </trkpt>
      <trkpt lat="45.01257" lon="5.71941">
        <ele>934</ele>
        <time>2021-05-29T06:29:00Z</time>
      </trkpt>
      <trkpt lat="45.01259" lon="5.71943">
        <ele>934</ele>
        <time>2021-05-29T06:29:01Z</time>
      </trkpt>
      <trkpt lat="45.01261" lon="5.71946">
        <ele>934.2</ele>
        <time>2021-05-29T06:29:02Z</time>
      </trkpt>
      <trkpt lat="45.01262" lon="5.71948">
        <ele>934</ele>
        <time>2021-05-29T06:29:03Z</time>
      </trkpt>
      <trkpt lat="45.01264" lon="5.7195">
        <ele>934.6</ele>
        <time>2021-05-29T06:29:04Z</time>
      </trkpt>
      <trkpt lat="45.01265" lon="5.71952">
        <ele>934.6</ele>
        <time>2021-05-29T06:29:05Z</time>
      </trkpt>
      <trkpt lat="45.01266" lon="5.71955">
        <ele>935.2</ele>
        <time>2021-05-29T06:29:06Z</time>
      </trkpt>
      <trkpt lat="45.01266" lon="5.71958">
        <ele>935.2</ele>
        <time>2021-05-29T06:29:07Z</time>
      </trkpt>
      <trkpt lat="45.01266" lon="5.7196">
        <ele>935.8</ele>
        <time>2021-05-29T06:29:08Z</time>
      </trkpt>
      <trkpt lat="45.01267" lon="5.71963">
        <ele>935.8</ele>
        <time>2021-05-29T06:29:09Z</time>
      </trkpt>
      <trkpt lat="45.01267" lon="5.71966">
        <ele>936</ele>
        <time>2021-05-29T06:29:10Z</time>
      </trkpt>
      <trkpt lat="45.01266" lon="5.71969">
        <ele>936</ele>
        <time>2021-05-29T06:29:11Z</time>
      </trkpt>
      <trkpt lat="45.01266" lon="5.71973">
        <ele>936.4</ele>
        <time>2021-05-29T06:29:12Z</time>
      </trkpt>
      <trkpt lat="45.01265" lon="5.71976">
        <ele>936.4</ele>
        <time>2021-05-29T06:29:13Z</time>
      </trkpt>
      <trkpt lat="45.01264" lon="5.71979">
        <ele>936.6</ele>
        <time>2021-05-29T06:29:14Z</time>
      </trkpt>
      <trkpt lat="45.01264" lon="5.71982">
        <ele>936.8</ele>
        <time>2021-05-29T06:29:15Z</time>
      </trkpt>
      <trkpt lat="45.01263" lon="5.71986">
        <ele>937.2</ele>
        <time>2021-05-29T06:29:16Z</time>
      </trkpt>
      <trkpt lat="45.01262" lon="5.71989">
        <ele>937</ele>
        <time>2021-05-29T06:29:17Z</time>
      </trkpt>
      <trkpt lat="45.01262" lon="5.71992">
        <ele>937.2</ele>
        <time>2021-05-29T06:29:18Z</time>
      </trkpt>
      <trkpt lat="45.01261" lon="5.71995">
        <ele>937.2</ele>
        <time>2021-05-29T06:29:19Z</time>
      </trkpt>
      <trkpt lat="45.01259" lon="5.72002">
        <ele>937</ele>
        <time>2021-05-29T06:29:20Z</time>
      </trkpt>
      <trkpt lat="45.01258" lon="5.72005">
        <ele>937.6</ele>
        <time>2021-05-29T06:29:21Z</time>
      </trkpt>
      <trkpt lat="45.01257" lon="5.72008">
        <ele>937.8</ele>
        <time>2021-05-29T06:29:22Z</time>
      </trkpt>
      <trkpt lat="45.01257" lon="5.72011">
        <ele>938.2</ele>
        <time>2021-05-29T06:29:23Z</time>
      </trkpt>
      <trkpt lat="45.01254" lon="5.72021">
        <ele>938.4</ele>
        <time>2021-05-29T06:29:24Z</time>
      </trkpt>
      <trkpt lat="45.01253" lon="5.72023">
        <ele>939</ele>
        <time>2021-05-29T06:29:25Z</time>
      </trkpt>
      <trkpt lat="45.01251" lon="5.72028">
        <ele>939.2</ele>
        <time>2021-05-29T06:29:26Z</time>
      </trkpt>
      <trkpt lat="45.01251" lon="5.72028">
        <ele>939.4</ele>
        <time>2021-05-29T06:29:27Z</time>
      </trkpt>
      <trkpt lat="45.01251" lon="5.72028">
        <ele>939.6</ele>
        <time>2021-05-29T06:29:28Z</time>
      </trkpt>
      <trkpt lat="45.01251" lon="5.72032">
        <ele>939.4</ele>
        <time>2021-05-29T06:29:29Z</time>
      </trkpt>
      <trkpt lat="45.0125" lon="5.72035">
        <ele>939.6</ele>
        <time>2021-05-29T06:29:30Z</time>
      </trkpt>
      <trkpt lat="45.0125" lon="5.72038">
        <ele>939.6</ele>
        <time>2021-05-29T06:29:31Z</time>
      </trkpt>
      <trkpt lat="45.0125" lon="5.72041">
        <ele>940.2</ele>
        <time>2021-05-29T06:29:32Z</time>
      </trkpt>
      <trkpt lat="45.0125" lon="5.72044">
        <ele>940.6</ele>
        <time>2021-05-29T06:29:33Z</time>
      </trkpt>
      <trkpt lat="45.01251" lon="5.72046">
        <ele>940.8</ele>
        <time>2021-05-29T06:29:34Z</time>
      </trkpt>
      <trkpt lat="45.01251" lon="5.72048">
        <ele>941</ele>
        <time>2021-05-29T06:29:35Z</time>
      </trkpt>
      <trkpt lat="45.01251" lon="5.7205">
        <ele>941.2</ele>
        <time>2021-05-29T06:29:36Z</time>
      </trkpt>
      <trkpt lat="45.01252" lon="5.72052">
        <ele>941.4</ele>
        <time>2021-05-29T06:29:37Z</time>
      </trkpt>
      <trkpt lat="45.01252" lon="5.72054">
        <ele>941.8</ele>
        <time>2021-05-29T06:29:38Z</time>
      </trkpt>
      <trkpt lat="45.01253" lon="5.72053">
        <ele>942.4</ele>
        <time>2021-05-29T06:29:39Z</time>
      </trkpt>
      <trkpt lat="45.01253" lon="5.72052">
        <ele>942.8</ele>
        <time>2021-05-29T06:29:40Z</time>
      </trkpt>
      <trkpt lat="45.01254" lon="5.72052">
        <ele>942.8</ele>
        <time>2021-05-29T06:29:41Z</time>
      </trkpt>
      <trkpt lat="45.01254" lon="5.72051">
        <ele>942.6</ele>
        <time>2021-05-29T06:29:42Z</time>
      </trkpt>
      <trkpt lat="45.01255" lon="5.7205">
        <ele>942.6</ele>
        <time>2021-05-29T06:29:43Z</time>
      </trkpt>
      <trkpt lat="45.01256" lon="5.7205">
        <ele>942.8</ele>
        <time>2021-05-29T06:29:44Z</time>
      </trkpt>
      <trkpt lat="45.01256" lon="5.72049">
        <ele>943</ele>
        <time>2021-05-29T06:29:45Z</time>
      </trkpt>
      <trkpt lat="45.01257" lon="5.72048">
        <ele>943</ele>
        <time>2021-05-29T06:29:46Z</time>
      </trkpt>
      <trkpt lat="45.01258" lon="5.72047">
        <ele>943</ele>
        <time>2021-05-29T06:29:47Z</time>
      </trkpt>
      <trkpt lat="45.01258" lon="5.72047">
        <ele>943.2</ele>
        <time>2021-05-29T06:29:48Z</time>
      </trkpt>
      <trkpt lat="45.01259" lon="5.72046">
        <ele>943</ele>
        <time>2021-05-29T06:29:49Z</time>
      </trkpt>
      <trkpt lat="45.01259" lon="5.72045">
        <ele>943.2</ele>
        <time>2021-05-29T06:29:50Z</time>
      </trkpt>
      <trkpt lat="45.01262" lon="5.72043">
        <ele>943</ele>
        <time>2021-05-29T06:29:51Z</time>
      </trkpt>
      <trkpt lat="45.01264" lon="5.72041">
        <ele>943</ele>
        <time>2021-05-29T06:29:52Z</time>
      </trkpt>
      <trkpt lat="45.01267" lon="5.72039">
        <ele>943</ele>
        <time>2021-05-29T06:29:53Z</time>
      </trkpt>
      <trkpt lat="45.01269" lon="5.72037">
        <ele>942.8</ele>
        <time>2021-05-29T06:29:54Z</time>
      </trkpt>
      <trkpt lat="45.01272" lon="5.72035">
        <ele>942.6</ele>
        <time>2021-05-29T06:29:55Z</time>
      </trkpt>
      <trkpt lat="45.01274" lon="5.72033">
        <ele>942.4</ele>
        <time>2021-05-29T06:29:56Z</time>
      </trkpt>
      <trkpt lat="45.01276" lon="5.72031">
        <ele>943</ele>
        <time>2021-05-29T06:29:57Z</time>
      </trkpt>
      <trkpt lat="45.01279" lon="5.72029">
        <ele>943.2</ele>
        <time>2021-05-29T06:29:58Z</time>
      </trkpt>
      <trkpt lat="45.01281" lon="5.72027">
        <ele>943.6</ele>
        <time>2021-05-29T06:30:00Z</time>
      </trkpt>
      <trkpt lat="45.01283" lon="5.72025">
        <ele>944</ele>
        <time>2021-05-29T06:30:01Z</time>
      </trkpt>
      <trkpt lat="45.01285" lon="5.72022">
        <ele>944</ele>
        <time>2021-05-29T06:30:02Z</time>
      </trkpt>
      <trkpt lat="45.01287" lon="5.7202">
        <ele>944.4</ele>
        <time>2021-05-29T06:30:03Z</time>
      </trkpt>
      <trkpt lat="45.0129" lon="5.72019">
        <ele>944.4</ele>
        <time>2021-05-29T06:30:04Z</time>
      </trkpt>
      <trkpt lat="45.01292" lon="5.72018">
        <ele>944.6</ele>
        <time>2021-05-29T06:30:05Z</time>
      </trkpt>
      <trkpt lat="45.01295" lon="5.72018">
        <ele>944.4</ele>
        <time>2021-05-29T06:30:06Z</time>
      </trkpt>
      <trkpt lat="45.01298" lon="5.72017">
        <ele>944.8</ele>
        <time>2021-05-29T06:30:07Z</time>
      </trkpt>
      <trkpt lat="45.01301" lon="5.72016">
        <ele>944.6</ele>
        <time>2021-05-29T06:30:08Z</time>
      </trkpt>
      <trkpt lat="45.01304" lon="5.72015">
        <ele>945</ele>
        <time>2021-05-29T06:30:09Z</time>
      </trkpt>
      <trkpt lat="45.01306" lon="5.72013">
        <ele>945</ele>
        <time>2021-05-29T06:30:10Z</time>
      </trkpt>
      <trkpt lat="45.01309" lon="5.72012">
        <ele>945.2</ele>
        <time>2021-05-29T06:30:11Z</time>
      </trkpt>
      <trkpt lat="45.01311" lon="5.72011">
        <ele>945</ele>
        <time>2021-05-29T06:30:12Z</time>
      </trkpt>
      <trkpt lat="45.01313" lon="5.72009">
        <ele>945</ele>
        <time>2021-05-29T06:30:13Z</time>
      </trkpt>
      <trkpt lat="45.01315" lon="5.72008">
        <ele>944.8</ele>
        <time>2021-05-29T06:30:14Z</time>
      </trkpt>
      <trkpt lat="45.01317" lon="5.72007">
        <ele>944.6</ele>
        <time>2021-05-29T06:30:15Z</time>
      </trkpt>
      <trkpt lat="45.01318" lon="5.72005">
        <ele>944.8</ele>
        <time>2021-05-29T06:30:16Z</time>
      </trkpt>
      <trkpt lat="45.0132" lon="5.72005">
        <ele>945.2</ele>
        <time>2021-05-29T06:30:17Z</time>
      </trkpt>
      <trkpt lat="45.0132" lon="5.72004">
        <ele>945.4</ele>
        <time>2021-05-29T06:30:18Z</time>
      </trkpt>
      <trkpt lat="45.0132" lon="5.72004">
        <ele>945.8</ele>
        <time>2021-05-29T06:30:19Z</time>
      </trkpt>
      <trkpt lat="45.0132" lon="5.72004">
        <ele>946</ele>
        <time>2021-05-29T06:30:20Z</time>
      </trkpt>
      <trkpt lat="45.0132" lon="5.72003">
        <ele>946</ele>
        <time>2021-05-29T06:30:21Z</time>
      </trkpt>
      <trkpt lat="45.01321" lon="5.72003">
        <ele>946</ele>
        <time>2021-05-29T06:30:22Z</time>
      </trkpt>
      <trkpt lat="45.01321" lon="5.72003">
        <ele>946</ele>
        <time>2021-05-29T06:30:23Z</time>
      </trkpt>
      <trkpt lat="45.01321" lon="5.72002">
        <ele>946</ele>
        <time>2021-05-29T06:30:24Z</time>
      </trkpt>
      <trkpt lat="45.01321" lon="5.72002">
        <ele>946</ele>
        <time>2021-05-29T06:30:25Z</time>
      </trkpt>
      <trkpt lat="45.01322" lon="5.72002">
        <ele>945.6</ele>
        <time>2021-05-29T06:30:26Z</time>
      </trkpt>
      <trkpt lat="45.01322" lon="5.72001">
        <ele>945.6</ele>
        <time>2021-05-29T06:30:27Z</time>
      </trkpt>
      <trkpt lat="45.01322" lon="5.72001">
        <ele>945.4</ele>
        <time>2021-05-29T06:30:28Z</time>
      </trkpt>
      <trkpt lat="45.01322" lon="5.72001">
        <ele>945.4</ele>
        <time>2021-05-29T06:30:29Z</time>
      </trkpt>
      <trkpt lat="45.01323" lon="5.72">
        <ele>945.4</ele>
        <time>2021-05-29T06:30:30Z</time>
      </trkpt>
      <trkpt lat="45.01323" lon="5.72">
        <ele>945.2</ele>
        <time>2021-05-29T06:30:31Z</time>
      </trkpt>
      <trkpt lat="45.01323" lon="5.72">
        <ele>945.2</ele>
        <time>2021-05-29T06:30:32Z</time>
      </trkpt>
      <trkpt lat="45.01323" lon="5.71999">
        <ele>945.4</ele>
        <time>2021-05-29T06:30:33Z</time>
      </trkpt>
      <trkpt lat="45.01323" lon="5.71999">
        <ele>945.4</ele>
        <time>2021-05-29T06:30:34Z</time>
      </trkpt>
      <trkpt lat="45.01324" lon="5.71999">
        <ele>945.4</ele>
        <time>2021-05-29T06:30:35Z</time>
      </trkpt>
      <trkpt lat="45.01324" lon="5.71998">
        <ele>945.4</ele>
        <time>2021-05-29T06:30:36Z</time>
      </trkpt>
      <trkpt lat="45.01324" lon="5.71998">
        <ele>945.2</ele>
        <time>2021-05-29T06:30:37Z</time>
      </trkpt>
      <trkpt lat="45.01324" lon="5.71998">
        <ele>945.2</ele>
        <time>2021-05-29T06:30:38Z</time>
      </trkpt>
      <trkpt lat="45.01325" lon="5.71997">
        <ele>945.2</ele>
        <time>2021-05-29T06:30:39Z</time>
      </trkpt>
      <trkpt lat="45.01325" lon="5.71997">
        <ele>945.2</ele>
        <time>2021-05-29T06:30:40Z</time>
      </trkpt>
      <trkpt lat="45.01325" lon="5.71997">
        <ele>945</ele>
        <time>2021-05-29T06:30:41Z</time>
      </trkpt>
      <trkpt lat="45.01325" lon="5.71996">
        <ele>945</ele>
        <time>2021-05-29T06:30:42Z</time>
      </trkpt>
      <trkpt lat="45.01326" lon="5.71996">
        <ele>945.2</ele>
        <time>2021-05-29T06:30:43Z</time>
      </trkpt>
      <trkpt lat="45.01326" lon="5.71995">
        <ele>945.2</ele>
        <time>2021-05-29T06:30:44Z</time>
      </trkpt>
      <trkpt lat="45.01326" lon="5.71995">
        <ele>945.2</ele>
        <time>2021-05-29T06:30:45Z</time>
      </trkpt>
      <trkpt lat="45.01326" lon="5.71995">
        <ele>945.2</ele>
        <time>2021-05-29T06:30:46Z</time>
      </trkpt>
      <trkpt lat="45.01326" lon="5.71994">
        <ele>945.4</ele>
        <time>2021-05-29T06:30:47Z</time>
      </trkpt>
      <trkpt lat="45.01327" lon="5.71994">
        <ele>945.6</ele>
        <time>2021-05-29T06:30:48Z</time>
      </trkpt>
      <trkpt lat="45.01327" lon="5.71994">
        <ele>945.6</ele>
        <time>2021-05-29T06:30:49Z</time>
      </trkpt>
      <trkpt lat="45.01327" lon="5.71993">
        <ele>945.6</ele>
        <time>2021-05-29T06:30:50Z</time>
      </trkpt>
      <trkpt lat="45.01327" lon="5.71993">
        <ele>945.6</ele>
        <time>2021-05-29T06:30:51Z</time>
      </trkpt>
      <trkpt lat="45.01327" lon="5.71993">
        <ele>945.2</ele>
        <time>2021-05-29T06:30:52Z</time>
      </trkpt>
      <trkpt lat="45.01329" lon="5.71992">
        <ele>945</ele>
        <time>2021-05-29T06:30:53Z</time>
      </trkpt>
      <trkpt lat="45.01331" lon="5.71991">
        <ele>945</ele>
        <time>2021-05-29T06:30:54Z</time>
      </trkpt>
      <trkpt lat="45.01333" lon="5.71989">
        <ele>945.4</ele>
        <time>2021-05-29T06:30:55Z</time>
      </trkpt>
      <trkpt lat="45.01335" lon="5.71988">
        <ele>945.2</ele>
        <time>2021-05-29T06:30:56Z</time>
      </trkpt>
      <trkpt lat="45.01337" lon="5.71987">
        <ele>945.6</ele>
        <time>2021-05-29T06:30:57Z</time>
      </trkpt>
      <trkpt lat="45.01339" lon="5.71985">
        <ele>945.4</ele>
        <time>2021-05-29T06:30:58Z</time>
      </trkpt>
      <trkpt lat="45.01341" lon="5.71983">
        <ele>945.6</ele>
        <time>2021-05-29T06:30:59Z</time>
      </trkpt>
      <trkpt lat="45.01343" lon="5.71981">
        <ele>945.4</ele>
        <time>2021-05-29T06:31:00Z</time>
      </trkpt>
      <trkpt lat="45.01345" lon="5.71978">
        <ele>945.6</ele>
        <time>2021-05-29T06:31:01Z</time>
      </trkpt>
      <trkpt lat="45.01347" lon="5.71974">
        <ele>945.4</ele>
        <time>2021-05-29T06:31:02Z</time>
      </trkpt>
      <trkpt lat="45.01349" lon="5.71969">
        <ele>945.6</ele>
        <time>2021-05-29T06:31:03Z</time>
      </trkpt>
      <trkpt lat="45.01352" lon="5.71965">
        <ele>945.4</ele>
        <time>2021-05-29T06:31:04Z</time>
      </trkpt>
      <trkpt lat="45.01354" lon="5.7196">
        <ele>945.6</ele>
        <time>2021-05-29T06:31:05Z</time>
      </trkpt>
      <trkpt lat="45.01357" lon="5.71956">
        <ele>945.4</ele>
        <time>2021-05-29T06:31:06Z</time>
      </trkpt>
      <trkpt lat="45.01357" lon="5.71956">
        <ele>945.6</ele>
        <time>2021-05-29T06:31:07Z</time>
      </trkpt>
      <trkpt lat="45.01357" lon="5.71956">
        <ele>945.4</ele>
        <time>2021-05-29T06:31:08Z</time>
      </trkpt>
      <trkpt lat="45.01357" lon="5.71956">
        <ele>945.6</ele>
        <time>2021-05-29T06:31:09Z</time>
      </trkpt>
      <trkpt lat="45.01359" lon="5.71955">
        <ele>945.6</ele>
        <time>2021-05-29T06:31:10Z</time>
      </trkpt>
      <trkpt lat="45.0136" lon="5.71954">
        <ele>945.8</ele>
        <time>2021-05-29T06:31:11Z</time>
      </trkpt>
      <trkpt lat="45.01362" lon="5.71953">
        <ele>945.8</ele>
        <time>2021-05-29T06:31:12Z</time>
      </trkpt>
      <trkpt lat="45.01364" lon="5.71952">
        <ele>945.8</ele>
        <time>2021-05-29T06:31:13Z</time>
      </trkpt>
      <trkpt lat="45.01365" lon="5.71951">
        <ele>945.6</ele>
        <time>2021-05-29T06:31:14Z</time>
      </trkpt>
      <trkpt lat="45.01367" lon="5.7195">
        <ele>945.6</ele>
        <time>2021-05-29T06:31:15Z</time>
      </trkpt>
      <trkpt lat="45.01369" lon="5.71951">
        <ele>945.4</ele>
        <time>2021-05-29T06:31:16Z</time>
      </trkpt>
      <trkpt lat="45.01372" lon="5.71952">
        <ele>945.4</ele>
        <time>2021-05-29T06:31:17Z</time>
      </trkpt>
      <trkpt lat="45.01374" lon="5.71953">
        <ele>945.6</ele>
        <time>2021-05-29T06:31:18Z</time>
      </trkpt>
      <trkpt lat="45.01377" lon="5.71954">
        <ele>945.4</ele>
        <time>2021-05-29T06:31:19Z</time>
      </trkpt>
      <trkpt lat="45.0138" lon="5.71955">
        <ele>945.6</ele>
        <time>2021-05-29T06:31:20Z</time>
      </trkpt>
      <trkpt lat="45.01382" lon="5.71956">
        <ele>945.6</ele>
        <time>2021-05-29T06:31:21Z</time>
      </trkpt>
      <trkpt lat="45.01385" lon="5.71957">
        <ele>945.6</ele>
        <time>2021-05-29T06:31:22Z</time>
      </trkpt>
      <trkpt lat="45.0139" lon="5.71958">
        <ele>945.4</ele>
        <time>2021-05-29T06:31:23Z</time>
      </trkpt>
      <trkpt lat="45.0139" lon="5.71958">
        <ele>945.2</ele>
        <time>2021-05-29T06:31:24Z</time>
      </trkpt>
      <trkpt lat="45.0139" lon="5.71958">
        <ele>945.2</ele>
        <time>2021-05-29T06:31:25Z</time>
      </trkpt>
      <trkpt lat="45.01392" lon="5.71957">
        <ele>945</ele>
        <time>2021-05-29T06:31:26Z</time>
      </trkpt>
      <trkpt lat="45.01394" lon="5.71956">
        <ele>945.2</ele>
        <time>2021-05-29T06:31:27Z</time>
      </trkpt>
      <trkpt lat="45.01396" lon="5.71956">
        <ele>944.8</ele>
        <time>2021-05-29T06:31:28Z</time>
      </trkpt>
      <trkpt lat="45.01399" lon="5.71955">
        <ele>944.8</ele>
        <time>2021-05-29T06:31:29Z</time>
      </trkpt>
      <trkpt lat="45.01401" lon="5.71955">
        <ele>944.6</ele>
        <time>2021-05-29T06:31:30Z</time>
      </trkpt>
      <trkpt lat="45.01403" lon="5.71954">
        <ele>944.6</ele>
        <time>2021-05-29T06:31:31Z</time>
      </trkpt>
      <trkpt lat="45.01406" lon="5.71954">
        <ele>944.2</ele>
        <time>2021-05-29T06:31:32Z</time>
      </trkpt>
      <trkpt lat="45.01408" lon="5.71953">
        <ele>944.2</ele>
        <time>2021-05-29T06:31:33Z</time>
      </trkpt>
      <trkpt lat="45.0141" lon="5.71952">
        <ele>943.8</ele>
        <time>2021-05-29T06:31:34Z</time>
      </trkpt>
      <trkpt lat="45.01413" lon="5.71951">
        <ele>943.4</ele>
        <time>2021-05-29T06:31:35Z</time>
      </trkpt>
      <trkpt lat="45.01416" lon="5.7195">
        <ele>943.6</ele>
        <time>2021-05-29T06:31:36Z</time>
      </trkpt>
      <trkpt lat="45.01418" lon="5.71949">
        <ele>943.6</ele>
        <time>2021-05-29T06:31:37Z</time>
      </trkpt>
      <trkpt lat="45.0142" lon="5.71949">
        <ele>943.6</ele>
        <time>2021-05-29T06:31:38Z</time>
      </trkpt>
      <trkpt lat="45.01423" lon="5.71949">
        <ele>943.4</ele>
        <time>2021-05-29T06:31:39Z</time>
      </trkpt>
      <trkpt lat="45.01425" lon="5.71948">
        <ele>943.6</ele>
        <time>2021-05-29T06:31:40Z</time>
      </trkpt>
      <trkpt lat="45.01427" lon="5.71948">
        <ele>943.6</ele>
        <time>2021-05-29T06:31:41Z</time>
      </trkpt>
      <trkpt lat="45.01429" lon="5.71948">
        <ele>943.8</ele>
        <time>2021-05-29T06:31:42Z</time>
      </trkpt>
      <trkpt lat="45.01432" lon="5.71949">
        <ele>943.8</ele>
        <time>2021-05-29T06:31:43Z</time>
      </trkpt>
      <trkpt lat="45.01434" lon="5.71949">
        <ele>944.2</ele>
        <time>2021-05-29T06:31:44Z</time>
      </trkpt>
      <trkpt lat="45.01437" lon="5.7195">
        <ele>943.8</ele>
        <time>2021-05-29T06:31:45Z</time>
      </trkpt>
      <trkpt lat="45.01439" lon="5.7195">
        <ele>944</ele>
        <time>2021-05-29T06:31:46Z</time>
      </trkpt>
      <trkpt lat="45.01441" lon="5.71951">
        <ele>943.8</ele>
        <time>2021-05-29T06:31:47Z</time>
      </trkpt>
      <trkpt lat="45.01444" lon="5.71952">
        <ele>943.8</ele>
        <time>2021-05-29T06:31:48Z</time>
      </trkpt>
      <trkpt lat="45.01446" lon="5.71953">
        <ele>943.8</ele>
        <time>2021-05-29T06:31:49Z</time>
      </trkpt>
      <trkpt lat="45.01448" lon="5.71953">
        <ele>944</ele>
        <time>2021-05-29T06:31:50Z</time>
      </trkpt>
      <trkpt lat="45.0145" lon="5.71954">
        <ele>943.6</ele>
        <time>2021-05-29T06:31:51Z</time>
      </trkpt>
      <trkpt lat="45.01453" lon="5.71954">
        <ele>943.8</ele>
        <time>2021-05-29T06:31:52Z</time>
      </trkpt>
      <trkpt lat="45.01456" lon="5.71954">
        <ele>943.2</ele>
        <time>2021-05-29T06:31:53Z</time>
      </trkpt>
      <trkpt lat="45.01459" lon="5.71954">
        <ele>943</ele>
        <time>2021-05-29T06:31:54Z</time>
      </trkpt>
      <trkpt lat="45.01461" lon="5.71954">
        <ele>942.8</ele>
        <time>2021-05-29T06:31:55Z</time>
      </trkpt>
      <trkpt lat="45.01464" lon="5.71952">
        <ele>942.6</ele>
        <time>2021-05-29T06:31:56Z</time>
      </trkpt>
      <trkpt lat="45.01466" lon="5.7195">
        <ele>942.4</ele>
        <time>2021-05-29T06:31:57Z</time>
      </trkpt>
      <trkpt lat="45.01468" lon="5.71948">
        <ele>942.2</ele>
        <time>2021-05-29T06:31:58Z</time>
      </trkpt>
      <trkpt lat="45.01471" lon="5.71946">
        <ele>942.2</ele>
        <time>2021-05-29T06:31:59Z</time>
      </trkpt>
      <trkpt lat="45.01473" lon="5.71942">
        <ele>942</ele>
        <time>2021-05-29T06:32:00Z</time>
      </trkpt>
      <trkpt lat="45.01475" lon="5.71938">
        <ele>941.8</ele>
        <time>2021-05-29T06:32:01Z</time>
      </trkpt>
      <trkpt lat="45.01477" lon="5.71935">
        <ele>941.8</ele>
        <time>2021-05-29T06:32:02Z</time>
      </trkpt>
      <trkpt lat="45.01479" lon="5.71931">
        <ele>942</ele>
        <time>2021-05-29T06:32:03Z</time>
      </trkpt>
      <trkpt lat="45.01481" lon="5.71928">
        <ele>942</ele>
        <time>2021-05-29T06:32:04Z</time>
      </trkpt>
      <trkpt lat="45.01485" lon="5.71922">
        <ele>942</ele>
        <time>2021-05-29T06:32:05Z</time>
      </trkpt>
      <trkpt lat="45.01485" lon="5.71922">
        <ele>941.6</ele>
        <time>2021-05-29T06:32:06Z</time>
      </trkpt>
      <trkpt lat="45.01485" lon="5.71922">
        <ele>941.6</ele>
        <time>2021-05-29T06:32:07Z</time>
      </trkpt>
      <trkpt lat="45.01485" lon="5.71922">
        <ele>941</ele>
        <time>2021-05-29T06:32:08Z</time>
      </trkpt>
      <trkpt lat="45.01487" lon="5.71919">
        <ele>941</ele>
        <time>2021-05-29T06:32:09Z</time>
      </trkpt>
      <trkpt lat="45.01489" lon="5.71917">
        <ele>941</ele>
        <time>2021-05-29T06:32:10Z</time>
      </trkpt>
      <trkpt lat="45.01491" lon="5.71914">
        <ele>940.6</ele>
        <time>2021-05-29T06:32:11Z</time>
      </trkpt>
      <trkpt lat="45.01493" lon="5.71912">
        <ele>940.2</ele>
        <time>2021-05-29T06:32:12Z</time>
      </trkpt>
      <trkpt lat="45.01495" lon="5.71909">
        <ele>939.8</ele>
        <time>2021-05-29T06:32:13Z</time>
      </trkpt>
      <trkpt lat="45.01497" lon="5.71906">
        <ele>939.6</ele>
        <time>2021-05-29T06:32:14Z</time>
      </trkpt>
      <trkpt lat="45.01502" lon="5.71903">
        <ele>939.6</ele>
        <time>2021-05-29T06:32:15Z</time>
      </trkpt>
      <trkpt lat="45.01502" lon="5.71903">
        <ele>939.6</ele>
        <time>2021-05-29T06:32:16Z</time>
      </trkpt>
      <trkpt lat="45.01502" lon="5.71903">
        <ele>939.2</ele>
        <time>2021-05-29T06:32:17Z</time>
      </trkpt>
      <trkpt lat="45.01504" lon="5.71902">
        <ele>939.4</ele>
        <time>2021-05-29T06:32:18Z</time>
      </trkpt>
      <trkpt lat="45.01507" lon="5.719">
        <ele>939.2</ele>
        <time>2021-05-29T06:32:19Z</time>
      </trkpt>
      <trkpt lat="45.01509" lon="5.71898">
        <ele>939.6</ele>
        <time>2021-05-29T06:32:20Z</time>
      </trkpt>
      <trkpt lat="45.01511" lon="5.71896">
        <ele>939.4</ele>
        <time>2021-05-29T06:32:21Z</time>
      </trkpt>
      <trkpt lat="45.01514" lon="5.71895">
        <ele>939.8</ele>
        <time>2021-05-29T06:32:22Z</time>
      </trkpt>
      <trkpt lat="45.01516" lon="5.71894">
        <ele>939.8</ele>
        <time>2021-05-29T06:32:23Z</time>
      </trkpt>
      <trkpt lat="45.01518" lon="5.71893">
        <ele>940.2</ele>
        <time>2021-05-29T06:32:24Z</time>
      </trkpt>
      <trkpt lat="45.0152" lon="5.71893">
        <ele>940.2</ele>
        <time>2021-05-29T06:32:25Z</time>
      </trkpt>
      <trkpt lat="45.01523" lon="5.71892">
        <ele>940.6</ele>
        <time>2021-05-29T06:32:26Z</time>
      </trkpt>
      <trkpt lat="45.01525" lon="5.71892">
        <ele>940.8</ele>
        <time>2021-05-29T06:32:27Z</time>
      </trkpt>
      <trkpt lat="45.01527" lon="5.71892">
        <ele>941.2</ele>
        <time>2021-05-29T06:32:28Z</time>
      </trkpt>
      <trkpt lat="45.01529" lon="5.71892">
        <ele>941</ele>
        <time>2021-05-29T06:32:29Z</time>
      </trkpt>
      <trkpt lat="45.01532" lon="5.71892">
        <ele>941.4</ele>
        <time>2021-05-29T06:32:30Z</time>
      </trkpt>
      <trkpt lat="45.01534" lon="5.71891">
        <ele>941.6</ele>
        <time>2021-05-29T06:32:31Z</time>
      </trkpt>
      <trkpt lat="45.01536" lon="5.71891">
        <ele>942</ele>
        <time>2021-05-29T06:32:32Z</time>
      </trkpt>
      <trkpt lat="45.01538" lon="5.7189">
        <ele>941.8</ele>
        <time>2021-05-29T06:32:33Z</time>
      </trkpt>
      <trkpt lat="45.01541" lon="5.7189">
        <ele>942</ele>
        <time>2021-05-29T06:32:34Z</time>
      </trkpt>
      <trkpt lat="45.01543" lon="5.71889">
        <ele>942</ele>
        <time>2021-05-29T06:32:35Z</time>
      </trkpt>
      <trkpt lat="45.01546" lon="5.71889">
        <ele>942.2</ele>
        <time>2021-05-29T06:32:36Z</time>
      </trkpt>
      <trkpt lat="45.01548" lon="5.71888">
        <ele>942.2</ele>
        <time>2021-05-29T06:32:37Z</time>
      </trkpt>
      <trkpt lat="45.0155" lon="5.71888">
        <ele>942.6</ele>
        <time>2021-05-29T06:32:38Z</time>
      </trkpt>
      <trkpt lat="45.01552" lon="5.71888">
        <ele>942.4</ele>
        <time>2021-05-29T06:32:39Z</time>
      </trkpt>
      <trkpt lat="45.01553" lon="5.71888">
        <ele>942.6</ele>
        <time>2021-05-29T06:32:40Z</time>
      </trkpt>
      <trkpt lat="45.01555" lon="5.71888">
        <ele>942.6</ele>
        <time>2021-05-29T06:32:41Z</time>
      </trkpt>
      <trkpt lat="45.01557" lon="5.71887">
        <ele>942.6</ele>
        <time>2021-05-29T06:32:42Z</time>
      </trkpt>
      <trkpt lat="45.01559" lon="5.71887">
        <ele>942.6</ele>
        <time>2021-05-29T06:32:43Z</time>
      </trkpt>
      <trkpt lat="45.01562" lon="5.71887">
        <ele>942.6</ele>
        <time>2021-05-29T06:32:44Z</time>
      </trkpt>
      <trkpt lat="45.01564" lon="5.71886">
        <ele>942.6</ele>
        <time>2021-05-29T06:32:45Z</time>
      </trkpt>
      <trkpt lat="45.01567" lon="5.71886">
        <ele>942.6</ele>
        <time>2021-05-29T06:32:46Z</time>
      </trkpt>
      <trkpt lat="45.01569" lon="5.71885">
        <ele>942.6</ele>
        <time>2021-05-29T06:32:47Z</time>
      </trkpt>
      <trkpt lat="45.01571" lon="5.71884">
        <ele>942.6</ele>
        <time>2021-05-29T06:32:48Z</time>
      </trkpt>
      <trkpt lat="45.01573" lon="5.71883">
        <ele>942.8</ele>
        <time>2021-05-29T06:32:49Z</time>
      </trkpt>
      <trkpt lat="45.01575" lon="5.71882">
        <ele>942.8</ele>
        <time>2021-05-29T06:32:50Z</time>
      </trkpt>
      <trkpt lat="45.01577" lon="5.71881">
        <ele>943.4</ele>
        <time>2021-05-29T06:32:51Z</time>
      </trkpt>
      <trkpt lat="45.01579" lon="5.7188">
        <ele>943.4</ele>
        <time>2021-05-29T06:32:52Z</time>
      </trkpt>
      <trkpt lat="45.01581" lon="5.71879">
        <ele>943.8</ele>
        <time>2021-05-29T06:32:53Z</time>
      </trkpt>
      <trkpt lat="45.01583" lon="5.71878">
        <ele>944</ele>
        <time>2021-05-29T06:32:54Z</time>
      </trkpt>
      <trkpt lat="45.01586" lon="5.71876">
        <ele>944.2</ele>
        <time>2021-05-29T06:32:55Z</time>
      </trkpt>
      <trkpt lat="45.01587" lon="5.71876">
        <ele>944.2</ele>
        <time>2021-05-29T06:32:56Z</time>
      </trkpt>
      <trkpt lat="45.01589" lon="5.71875">
        <ele>944.6</ele>
        <time>2021-05-29T06:32:57Z</time>
      </trkpt>
      <trkpt lat="45.0159" lon="5.71875">
        <ele>944.6</ele>
        <time>2021-05-29T06:32:58Z</time>
      </trkpt>
      <trkpt lat="45.01592" lon="5.71874">
        <ele>944.8</ele>
        <time>2021-05-29T06:32:59Z</time>
      </trkpt>
      <trkpt lat="45.01594" lon="5.71874">
        <ele>944.8</ele>
        <time>2021-05-29T06:33:00Z</time>
      </trkpt>
      <trkpt lat="45.01595" lon="5.71873">
        <ele>945.2</ele>
        <time>2021-05-29T06:33:01Z</time>
      </trkpt>
      <trkpt lat="45.01598" lon="5.71874">
        <ele>945</ele>
        <time>2021-05-29T06:33:02Z</time>
      </trkpt>
      <trkpt lat="45.016" lon="5.71874">
        <ele>945.4</ele>
        <time>2021-05-29T06:33:03Z</time>
      </trkpt>
      <trkpt lat="45.01602" lon="5.71875">
        <ele>945.4</ele>
        <time>2021-05-29T06:33:04Z</time>
      </trkpt>
      <trkpt lat="45.01605" lon="5.71875">
        <ele>945.6</ele>
        <time>2021-05-29T06:33:05Z</time>
      </trkpt>
      <trkpt lat="45.01608" lon="5.71876">
        <ele>945.6</ele>
        <time>2021-05-29T06:33:06Z</time>
      </trkpt>
      <trkpt lat="45.0161" lon="5.71877">
        <ele>945.8</ele>
        <time>2021-05-29T06:33:07Z</time>
      </trkpt>
      <trkpt lat="45.01613" lon="5.71877">
        <ele>945.6</ele>
        <time>2021-05-29T06:33:08Z</time>
      </trkpt>
      <trkpt lat="45.01616" lon="5.71878">
        <ele>945.8</ele>
        <time>2021-05-29T06:33:09Z</time>
      </trkpt>
      <trkpt lat="45.01618" lon="5.71877">
        <ele>945.6</ele>
        <time>2021-05-29T06:33:10Z</time>
      </trkpt>
      <trkpt lat="45.01621" lon="5.71877">
        <ele>945.6</ele>
        <time>2021-05-29T06:33:11Z</time>
      </trkpt>
      <trkpt lat="45.01623" lon="5.71876">
        <ele>945.2</ele>
        <time>2021-05-29T06:33:12Z</time>
      </trkpt>
      <trkpt lat="45.01626" lon="5.71876">
        <ele>945.4</ele>
        <time>2021-05-29T06:33:13Z</time>
      </trkpt>
      <trkpt lat="45.01629" lon="5.71875">
        <ele>945.2</ele>
        <time>2021-05-29T06:33:14Z</time>
      </trkpt>
      <trkpt lat="45.01631" lon="5.71874">
        <ele>945</ele>
        <time>2021-05-29T06:33:15Z</time>
      </trkpt>
      <trkpt lat="45.01634" lon="5.71874">
        <ele>945</ele>
        <time>2021-05-29T06:33:16Z</time>
      </trkpt>
      <trkpt lat="45.01636" lon="5.71873">
        <ele>945</ele>
        <time>2021-05-29T06:33:17Z</time>
      </trkpt>
      <trkpt lat="45.01638" lon="5.71873">
        <ele>945.2</ele>
        <time>2021-05-29T06:33:18Z</time>
      </trkpt>
      <trkpt lat="45.01641" lon="5.71873">
        <ele>945</ele>
        <time>2021-05-29T06:33:19Z</time>
      </trkpt>
      <trkpt lat="45.01643" lon="5.71872">
        <ele>945.4</ele>
        <time>2021-05-29T06:33:20Z</time>
      </trkpt>
      <trkpt lat="45.01646" lon="5.71872">
        <ele>945.4</ele>
        <time>2021-05-29T06:33:21Z</time>
      </trkpt>
      <trkpt lat="45.01648" lon="5.71873">
        <ele>945.4</ele>
        <time>2021-05-29T06:33:22Z</time>
      </trkpt>
      <trkpt lat="45.01651" lon="5.71873">
        <ele>945.2</ele>
        <time>2021-05-29T06:33:23Z</time>
      </trkpt>
      <trkpt lat="45.01653" lon="5.71874">
        <ele>945.2</ele>
        <time>2021-05-29T06:33:24Z</time>
      </trkpt>
      <trkpt lat="45.01656" lon="5.71875">
        <ele>945.2</ele>
        <time>2021-05-29T06:33:25Z</time>
      </trkpt>
      <trkpt lat="45.01666" lon="5.71874">
        <ele>944.8</ele>
        <time>2021-05-29T06:33:26Z</time>
      </trkpt>
      <trkpt lat="45.01666" lon="5.71874">
        <ele>944.8</ele>
        <time>2021-05-29T06:33:27Z</time>
      </trkpt>
      <trkpt lat="45.01666" lon="5.71874">
        <ele>944.4</ele>
        <time>2021-05-29T06:33:28Z</time>
      </trkpt>
      <trkpt lat="45.01668" lon="5.71874">
        <ele>944.6</ele>
        <time>2021-05-29T06:33:29Z</time>
      </trkpt>
      <trkpt lat="45.01671" lon="5.71874">
        <ele>944.4</ele>
        <time>2021-05-29T06:33:30Z</time>
      </trkpt>
      <trkpt lat="45.01674" lon="5.71874">
        <ele>944.8</ele>
        <time>2021-05-29T06:33:31Z</time>
      </trkpt>
      <trkpt lat="45.01676" lon="5.71874">
        <ele>944.4</ele>
        <time>2021-05-29T06:33:32Z</time>
      </trkpt>
      <trkpt lat="45.01678" lon="5.71874">
        <ele>944.2</ele>
        <time>2021-05-29T06:33:33Z</time>
      </trkpt>
      <trkpt lat="45.01681" lon="5.71874">
        <ele>943.4</ele>
        <time>2021-05-29T06:33:34Z</time>
      </trkpt>
      <trkpt lat="45.01683" lon="5.71874">
        <ele>943</ele>
        <time>2021-05-29T06:33:35Z</time>
      </trkpt>
      <trkpt lat="45.01685" lon="5.71874">
        <ele>943.4</ele>
        <time>2021-05-29T06:33:36Z</time>
      </trkpt>
      <trkpt lat="45.01687" lon="5.71874">
        <ele>943</ele>
        <time>2021-05-29T06:33:37Z</time>
      </trkpt>
      <trkpt lat="45.01689" lon="5.71874">
        <ele>943</ele>
        <time>2021-05-29T06:33:38Z</time>
      </trkpt>
      <trkpt lat="45.01691" lon="5.71874">
        <ele>942.4</ele>
        <time>2021-05-29T06:33:39Z</time>
      </trkpt>
      <trkpt lat="45.01693" lon="5.71874">
        <ele>941.8</ele>
        <time>2021-05-29T06:33:40Z</time>
      </trkpt>
      <trkpt lat="45.01695" lon="5.71875">
        <ele>942</ele>
        <time>2021-05-29T06:33:41Z</time>
      </trkpt>
      <trkpt lat="45.01697" lon="5.71875">
        <ele>941.6</ele>
        <time>2021-05-29T06:33:42Z</time>
      </trkpt>
      <trkpt lat="45.017" lon="5.71875">
        <ele>941.6</ele>
        <time>2021-05-29T06:33:43Z</time>
      </trkpt>
      <trkpt lat="45.01702" lon="5.71875">
        <ele>941</ele>
        <time>2021-05-29T06:33:44Z</time>
      </trkpt>
      <trkpt lat="45.01704" lon="5.71875">
        <ele>940.2</ele>
        <time>2021-05-29T06:33:45Z</time>
      </trkpt>
      <trkpt lat="45.01707" lon="5.71875">
        <ele>940</ele>
        <time>2021-05-29T06:33:46Z</time>
      </trkpt>
      <trkpt lat="45.01709" lon="5.71874">
        <ele>939.8</ele>
        <time>2021-05-29T06:33:47Z</time>
      </trkpt>
      <trkpt lat="45.01712" lon="5.71874">
        <ele>939.6</ele>
        <time>2021-05-29T06:33:48Z</time>
      </trkpt>
      <trkpt lat="45.01714" lon="5.71874">
        <ele>939</ele>
        <time>2021-05-29T06:33:49Z</time>
      </trkpt>
      <trkpt lat="45.01717" lon="5.71874">
        <ele>938.6</ele>
        <time>2021-05-29T06:33:50Z</time>
      </trkpt>
      <trkpt lat="45.01719" lon="5.71874">
        <ele>938.2</ele>
        <time>2021-05-29T06:33:51Z</time>
      </trkpt>
      <trkpt lat="45.01722" lon="5.71874">
        <ele>937.8</ele>
        <time>2021-05-29T06:33:52Z</time>
      </trkpt>
      <trkpt lat="45.01724" lon="5.71874">
        <ele>937.6</ele>
        <time>2021-05-29T06:33:53Z</time>
      </trkpt>
      <trkpt lat="45.01728" lon="5.71873">
        <ele>937</ele>
        <time>2021-05-29T06:33:54Z</time>
      </trkpt>
      <trkpt lat="45.01731" lon="5.71872">
        <ele>936.2</ele>
        <time>2021-05-29T06:33:55Z</time>
      </trkpt>
      <trkpt lat="45.01735" lon="5.71872">
        <ele>935.8</ele>
        <time>2021-05-29T06:33:56Z</time>
      </trkpt>
      <trkpt lat="45.01739" lon="5.71871">
        <ele>935.4</ele>
        <time>2021-05-29T06:33:57Z</time>
      </trkpt>
      <trkpt lat="45.01743" lon="5.71871">
        <ele>935.2</ele>
        <time>2021-05-29T06:33:58Z</time>
      </trkpt>
      <trkpt lat="45.01743" lon="5.71871">
        <ele>934.4</ele>
        <time>2021-05-29T06:33:59Z</time>
      </trkpt>
      <trkpt lat="45.01743" lon="5.71871">
        <ele>933.6</ele>
        <time>2021-05-29T06:34:00Z</time>
      </trkpt>
      <trkpt lat="45.01745" lon="5.7187">
        <ele>933.4</ele>
        <time>2021-05-29T06:34:01Z</time>
      </trkpt>
      <trkpt lat="45.01747" lon="5.71869">
        <ele>933</ele>
        <time>2021-05-29T06:34:02Z</time>
      </trkpt>
      <trkpt lat="45.01749" lon="5.71868">
        <ele>932.6</ele>
        <time>2021-05-29T06:34:03Z</time>
      </trkpt>
      <trkpt lat="45.01751" lon="5.71867">
        <ele>932.2</ele>
        <time>2021-05-29T06:34:04Z</time>
      </trkpt>
      <trkpt lat="45.01753" lon="5.71866">
        <ele>931.2</ele>
        <time>2021-05-29T06:34:05Z</time>
      </trkpt>
      <trkpt lat="45.01755" lon="5.71864">
        <ele>931.2</ele>
        <time>2021-05-29T06:34:06Z</time>
      </trkpt>
      <trkpt lat="45.01756" lon="5.71861">
        <ele>930.8</ele>
        <time>2021-05-29T06:34:07Z</time>
      </trkpt>
      <trkpt lat="45.01758" lon="5.71859">
        <ele>930.4</ele>
        <time>2021-05-29T06:34:08Z</time>
      </trkpt>
      <trkpt lat="45.01759" lon="5.71857">
        <ele>929.4</ele>
        <time>2021-05-29T06:34:09Z</time>
      </trkpt>
      <trkpt lat="45.01761" lon="5.71854">
        <ele>928.8</ele>
        <time>2021-05-29T06:34:10Z</time>
      </trkpt>
      <trkpt lat="45.01762" lon="5.71853">
        <ele>928.8</ele>
        <time>2021-05-29T06:34:11Z</time>
      </trkpt>
      <trkpt lat="45.01763" lon="5.71851">
        <ele>928.6</ele>
        <time>2021-05-29T06:34:12Z</time>
      </trkpt>
      <trkpt lat="45.01764" lon="5.71849">
        <ele>928.4</ele>
        <time>2021-05-29T06:34:13Z</time>
      </trkpt>
      <trkpt lat="45.01765" lon="5.71847">
        <ele>927.6</ele>
        <time>2021-05-29T06:34:14Z</time>
      </trkpt>
      <trkpt lat="45.01766" lon="5.71845">
        <ele>927</ele>
        <time>2021-05-29T06:34:15Z</time>
      </trkpt>
      <trkpt lat="45.01767" lon="5.71843">
        <ele>927.2</ele>
        <time>2021-05-29T06:34:16Z</time>
      </trkpt>
      <trkpt lat="45.01769" lon="5.71842">
        <ele>926.8</ele>
        <time>2021-05-29T06:34:17Z</time>
      </trkpt>
      <trkpt lat="45.01771" lon="5.71841">
        <ele>926.4</ele>
        <time>2021-05-29T06:34:18Z</time>
      </trkpt>
      <trkpt lat="45.01773" lon="5.71839">
        <ele>925.8</ele>
        <time>2021-05-29T06:34:19Z</time>
      </trkpt>
      <trkpt lat="45.01775" lon="5.71838">
        <ele>925.2</ele>
        <time>2021-05-29T06:34:20Z</time>
      </trkpt>
      <trkpt lat="45.01777" lon="5.71837">
        <ele>925.2</ele>
        <time>2021-05-29T06:34:21Z</time>
      </trkpt>
      <trkpt lat="45.0178" lon="5.71836">
        <ele>924.6</ele>
        <time>2021-05-29T06:34:22Z</time>
      </trkpt>
      <trkpt lat="45.01782" lon="5.71835">
        <ele>924.6</ele>
        <time>2021-05-29T06:34:23Z</time>
      </trkpt>
      <trkpt lat="45.01785" lon="5.71834">
        <ele>924</ele>
        <time>2021-05-29T06:34:24Z</time>
      </trkpt>
      <trkpt lat="45.01787" lon="5.71833">
        <ele>923.2</ele>
        <time>2021-05-29T06:34:25Z</time>
      </trkpt>
      <trkpt lat="45.01789" lon="5.71832">
        <ele>923.4</ele>
        <time>2021-05-29T06:34:26Z</time>
      </trkpt>
      <trkpt lat="45.01791" lon="5.71831">
        <ele>923.2</ele>
        <time>2021-05-29T06:34:27Z</time>
      </trkpt>
      <trkpt lat="45.01793" lon="5.7183">
        <ele>923.2</ele>
        <time>2021-05-29T06:34:28Z</time>
      </trkpt>
      <trkpt lat="45.01795" lon="5.71829">
        <ele>923</ele>
        <time>2021-05-29T06:34:29Z</time>
      </trkpt>
      <trkpt lat="45.01797" lon="5.71828">
        <ele>922.4</ele>
        <time>2021-05-29T06:34:30Z</time>
      </trkpt>
      <trkpt lat="45.01799" lon="5.71828">
        <ele>921.8</ele>
        <time>2021-05-29T06:34:31Z</time>
      </trkpt>
      <trkpt lat="45.01802" lon="5.71827">
        <ele>921.6</ele>
        <time>2021-05-29T06:34:32Z</time>
      </trkpt>
      <trkpt lat="45.01805" lon="5.71827">
        <ele>921.6</ele>
        <time>2021-05-29T06:34:33Z</time>
      </trkpt>
      <trkpt lat="45.01807" lon="5.71827">
        <ele>921.2</ele>
        <time>2021-05-29T06:34:34Z</time>
      </trkpt>
      <trkpt lat="45.01811" lon="5.71826">
        <ele>921.4</ele>
        <time>2021-05-29T06:34:35Z</time>
      </trkpt>
      <trkpt lat="45.01816" lon="5.71826">
        <ele>920.8</ele>
        <time>2021-05-29T06:34:36Z</time>
      </trkpt>
      <trkpt lat="45.0182" lon="5.71825">
        <ele>920.4</ele>
        <time>2021-05-29T06:34:37Z</time>
      </trkpt>
      <trkpt lat="45.01824" lon="5.71825">
        <ele>919.8</ele>
        <time>2021-05-29T06:34:38Z</time>
      </trkpt>
      <trkpt lat="45.01829" lon="5.71825">
        <ele>919</ele>
        <time>2021-05-29T06:34:39Z</time>
      </trkpt>
      <trkpt lat="45.01832" lon="5.71825">
        <ele>919.2</ele>
        <time>2021-05-29T06:34:40Z</time>
      </trkpt>
      <trkpt lat="45.01834" lon="5.71825">
        <ele>918.8</ele>
        <time>2021-05-29T06:34:41Z</time>
      </trkpt>
      <trkpt lat="45.01837" lon="5.71824">
        <ele>918.6</ele>
        <time>2021-05-29T06:34:42Z</time>
      </trkpt>
      <trkpt lat="45.01845" lon="5.71824">
        <ele>918.2</ele>
        <time>2021-05-29T06:34:43Z</time>
      </trkpt>
      <trkpt lat="45.01847" lon="5.71824">
        <ele>918</ele>
        <time>2021-05-29T06:34:44Z</time>
      </trkpt>
      <trkpt lat="45.01854" lon="5.71825">
        <ele>917.2</ele>
        <time>2021-05-29T06:34:45Z</time>
      </trkpt>
      <trkpt lat="45.01855" lon="5.71825">
        <ele>916.6</ele>
        <time>2021-05-29T06:34:46Z</time>
      </trkpt>
      <trkpt lat="45.01857" lon="5.71825">
        <ele>916.8</ele>
        <time>2021-05-29T06:34:47Z</time>
      </trkpt>
      <trkpt lat="45.01862" lon="5.71825">
        <ele>916.6</ele>
        <time>2021-05-29T06:34:48Z</time>
      </trkpt>
      <trkpt lat="45.01862" lon="5.71825">
        <ele>916.6</ele>
        <time>2021-05-29T06:34:49Z</time>
      </trkpt>
      <trkpt lat="45.01862" lon="5.71825">
        <ele>916.4</ele>
        <time>2021-05-29T06:34:50Z</time>
      </trkpt>
      <trkpt lat="45.01864" lon="5.71825">
        <ele>916.2</ele>
        <time>2021-05-29T06:34:51Z</time>
      </trkpt>
      <trkpt lat="45.01866" lon="5.71825">
        <ele>915.8</ele>
        <time>2021-05-29T06:34:52Z</time>
      </trkpt>
      <trkpt lat="45.01869" lon="5.71825">
        <ele>915</ele>
        <time>2021-05-29T06:34:53Z</time>
      </trkpt>
      <trkpt lat="45.01871" lon="5.71825">
        <ele>915</ele>
        <time>2021-05-29T06:34:54Z</time>
      </trkpt>
      <trkpt lat="45.01875" lon="5.71824">
        <ele>914.6</ele>
        <time>2021-05-29T06:34:55Z</time>
      </trkpt>
      <trkpt lat="45.01879" lon="5.71823">
        <ele>914.8</ele>
        <time>2021-05-29T06:34:56Z</time>
      </trkpt>
      <trkpt lat="45.01883" lon="5.71822">
        <ele>914.4</ele>
        <time>2021-05-29T06:34:57Z</time>
      </trkpt>
      <trkpt lat="45.01887" lon="5.71821">
        <ele>913.8</ele>
        <time>2021-05-29T06:34:58Z</time>
      </trkpt>
      <trkpt lat="45.01891" lon="5.71819">
        <ele>913.8</ele>
        <time>2021-05-29T06:34:59Z</time>
      </trkpt>
      <trkpt lat="45.01895" lon="5.71819">
        <ele>913.2</ele>
        <time>2021-05-29T06:35:00Z</time>
      </trkpt>
      <trkpt lat="45.01898" lon="5.71819">
        <ele>913</ele>
        <time>2021-05-29T06:35:01Z</time>
      </trkpt>
      <trkpt lat="45.01901" lon="5.71819">
        <ele>912.6</ele>
        <time>2021-05-29T06:35:02Z</time>
      </trkpt>
      <trkpt lat="45.01902" lon="5.71819">
        <ele>912.8</ele>
        <time>2021-05-29T06:35:03Z</time>
      </trkpt>
      <trkpt lat="45.01904" lon="5.71818">
        <ele>912.2</ele>
        <time>2021-05-29T06:35:04Z</time>
      </trkpt>
      <trkpt lat="45.01905" lon="5.71818">
        <ele>911.8</ele>
        <time>2021-05-29T06:35:05Z</time>
      </trkpt>
      <trkpt lat="45.01909" lon="5.71818">
        <ele>911.4</ele>
        <time>2021-05-29T06:35:06Z</time>
      </trkpt>
      <trkpt lat="45.01912" lon="5.71817">
        <ele>911.2</ele>
        <time>2021-05-29T06:35:07Z</time>
      </trkpt>
      <trkpt lat="45.01916" lon="5.71817">
        <ele>911.2</ele>
        <time>2021-05-29T06:35:08Z</time>
      </trkpt>
      <trkpt lat="45.01919" lon="5.71816">
        <ele>910.8</ele>
        <time>2021-05-29T06:35:09Z</time>
      </trkpt>
      <trkpt lat="45.01922" lon="5.71815">
        <ele>910.6</ele>
        <time>2021-05-29T06:35:10Z</time>
      </trkpt>
      <trkpt lat="45.01924" lon="5.71815">
        <ele>910.2</ele>
        <time>2021-05-29T06:35:11Z</time>
      </trkpt>
      <trkpt lat="45.01924" lon="5.71815">
        <ele>910</ele>
        <time>2021-05-29T06:35:12Z</time>
      </trkpt>
      <trkpt lat="45.01924" lon="5.71815">
        <ele>910</ele>
        <time>2021-05-29T06:35:13Z</time>
      </trkpt>
      <trkpt lat="45.01925" lon="5.71814">
        <ele>909.6</ele>
        <time>2021-05-29T06:35:14Z</time>
      </trkpt>
      <trkpt lat="45.01926" lon="5.71814">
        <ele>909.4</ele>
        <time>2021-05-29T06:35:15Z</time>
      </trkpt>
      <trkpt lat="45.01927" lon="5.71814">
        <ele>909.2</ele>
        <time>2021-05-29T06:35:16Z</time>
      </trkpt>
      <trkpt lat="45.01928" lon="5.71814">
        <ele>908.8</ele>
        <time>2021-05-29T06:35:17Z</time>
      </trkpt>
      <trkpt lat="45.01929" lon="5.71814">
        <ele>908.6</ele>
        <time>2021-05-29T06:35:18Z</time>
      </trkpt>
      <trkpt lat="45.0193" lon="5.71814">
        <ele>908.4</ele>
        <time>2021-05-29T06:35:19Z</time>
      </trkpt>
      <trkpt lat="45.01931" lon="5.71814">
        <ele>908.2</ele>
        <time>2021-05-29T06:35:20Z</time>
      </trkpt>
      <trkpt lat="45.01932" lon="5.71814">
        <ele>908</ele>
        <time>2021-05-29T06:35:21Z</time>
      </trkpt>
      <trkpt lat="45.01933" lon="5.71814">
        <ele>908</ele>
        <time>2021-05-29T06:35:22Z</time>
      </trkpt>
      <trkpt lat="45.01933" lon="5.71814">
        <ele>907.8</ele>
        <time>2021-05-29T06:35:23Z</time>
      </trkpt>
      <trkpt lat="45.01933" lon="5.71814">
        <ele>907.8</ele>
        <time>2021-05-29T06:35:24Z</time>
      </trkpt>
      <trkpt lat="45.01934" lon="5.71815">
        <ele>907.8</ele>
        <time>2021-05-29T06:35:25Z</time>
      </trkpt>
      <trkpt lat="45.01934" lon="5.71815">
        <ele>907.8</ele>
        <time>2021-05-29T06:35:26Z</time>
      </trkpt>
      <trkpt lat="45.01934" lon="5.71815">
        <ele>907.6</ele>
        <time>2021-05-29T06:35:27Z</time>
      </trkpt>
      <trkpt lat="45.01934" lon="5.71816">
        <ele>907.8</ele>
        <time>2021-05-29T06:35:28Z</time>
      </trkpt>
      <trkpt lat="45.01935" lon="5.71816">
        <ele>907.8</ele>
        <time>2021-05-29T06:35:29Z</time>
      </trkpt>
      <trkpt lat="45.01935" lon="5.71817">
        <ele>907.6</ele>
        <time>2021-05-29T06:35:30Z</time>
      </trkpt>
      <trkpt lat="45.01935" lon="5.71817">
        <ele>907.6</ele>
        <time>2021-05-29T06:35:31Z</time>
      </trkpt>
      <trkpt lat="45.01935" lon="5.71817">
        <ele>907.6</ele>
        <time>2021-05-29T06:35:32Z</time>
      </trkpt>
      <trkpt lat="45.01936" lon="5.71818">
        <ele>907.4</ele>
        <time>2021-05-29T06:35:33Z</time>
      </trkpt>
      <trkpt lat="45.01936" lon="5.71818">
        <ele>907.8</ele>
        <time>2021-05-29T06:35:34Z</time>
      </trkpt>
      <trkpt lat="45.01936" lon="5.71818">
        <ele>907.8</ele>
        <time>2021-05-29T06:35:35Z</time>
      </trkpt>
      <trkpt lat="45.01937" lon="5.71819">
        <ele>908.2</ele>
        <time>2021-05-29T06:35:36Z</time>
      </trkpt>
      <trkpt lat="45.01937" lon="5.71819">
        <ele>908.2</ele>
        <time>2021-05-29T06:35:37Z</time>
      </trkpt>
      <trkpt lat="45.01937" lon="5.71819">
        <ele>908.2</ele>
        <time>2021-05-29T06:35:38Z</time>
      </trkpt>
      <trkpt lat="45.01937" lon="5.7182">
        <ele>908.4</ele>
        <time>2021-05-29T06:35:39Z</time>
      </trkpt>
      <trkpt lat="45.01938" lon="5.7182">
        <ele>908.4</ele>
        <time>2021-05-29T06:35:40Z</time>
      </trkpt>
      <trkpt lat="45.01938" lon="5.71821">
        <ele>908.6</ele>
        <time>2021-05-29T06:35:41Z</time>
      </trkpt>
      <trkpt lat="45.01938" lon="5.71821">
        <ele>908.8</ele>
        <time>2021-05-29T06:35:42Z</time>
      </trkpt>
      <trkpt lat="45.01938" lon="5.71821">
        <ele>908.8</ele>
        <time>2021-05-29T06:35:43Z</time>
      </trkpt>
      <trkpt lat="45.01939" lon="5.71822">
        <ele>909</ele>
        <time>2021-05-29T06:35:44Z</time>
      </trkpt>
      <trkpt lat="45.01939" lon="5.71822">
        <ele>909</ele>
        <time>2021-05-29T06:35:45Z</time>
      </trkpt>
      <trkpt lat="45.01939" lon="5.71822">
        <ele>909.2</ele>
        <time>2021-05-29T06:35:46Z</time>
      </trkpt>
      <trkpt lat="45.0194" lon="5.71823">
        <ele>909.2</ele>
        <time>2021-05-29T06:35:47Z</time>
      </trkpt>
      <trkpt lat="45.0194" lon="5.71823">
        <ele>909.4</ele>
        <time>2021-05-29T06:35:48Z</time>
      </trkpt>
      <trkpt lat="45.0194" lon="5.71824">
        <ele>909.4</ele>
        <time>2021-05-29T06:35:49Z</time>
      </trkpt>
      <trkpt lat="45.0194" lon="5.71824">
        <ele>909.4</ele>
        <time>2021-05-29T06:35:50Z</time>
      </trkpt>
      <trkpt lat="45.01942" lon="5.71826">
        <ele>909.6</ele>
        <time>2021-05-29T06:35:51Z</time>
      </trkpt>
      <trkpt lat="45.01945" lon="5.71827">
        <ele>910</ele>
        <time>2021-05-29T06:35:52Z</time>
      </trkpt>
      <trkpt lat="45.01947" lon="5.71829">
        <ele>910</ele>
        <time>2021-05-29T06:35:53Z</time>
      </trkpt>
      <trkpt lat="45.01949" lon="5.7183">
        <ele>910.2</ele>
        <time>2021-05-29T06:35:54Z</time>
      </trkpt>
      <trkpt lat="45.01951" lon="5.71833">
        <ele>910.4</ele>
        <time>2021-05-29T06:35:55Z</time>
      </trkpt>
      <trkpt lat="45.01952" lon="5.71834">
        <ele>910.4</ele>
        <time>2021-05-29T06:35:56Z</time>
      </trkpt>
      <trkpt lat="45.01953" lon="5.71835">
        <ele>910.4</ele>
        <time>2021-05-29T06:35:57Z</time>
      </trkpt>
      <trkpt lat="45.01954" lon="5.71836">
        <ele>910.4</ele>
        <time>2021-05-29T06:35:58Z</time>
      </trkpt>
      <trkpt lat="45.01954" lon="5.71837">
        <ele>910.6</ele>
        <time>2021-05-29T06:35:59Z</time>
      </trkpt>
      <trkpt lat="45.01955" lon="5.71838">
        <ele>910.8</ele>
        <time>2021-05-29T06:36:00Z</time>
      </trkpt>
      <trkpt lat="45.01956" lon="5.71839">
        <ele>911</ele>
        <time>2021-05-29T06:36:01Z</time>
      </trkpt>
      <trkpt lat="45.01957" lon="5.7184">
        <ele>911</ele>
        <time>2021-05-29T06:36:02Z</time>
      </trkpt>
      <trkpt lat="45.01958" lon="5.71841">
        <ele>911.4</ele>
        <time>2021-05-29T06:36:03Z</time>
      </trkpt>
      <trkpt lat="45.01959" lon="5.71842">
        <ele>911.6</ele>
        <time>2021-05-29T06:36:04Z</time>
      </trkpt>
      <trkpt lat="45.0196" lon="5.71843">
        <ele>911.6</ele>
        <time>2021-05-29T06:36:05Z</time>
      </trkpt>
      <trkpt lat="45.01961" lon="5.71844">
        <ele>911.8</ele>
        <time>2021-05-29T06:36:06Z</time>
      </trkpt>
      <trkpt lat="45.01962" lon="5.71845">
        <ele>911.8</ele>
        <time>2021-05-29T06:36:07Z</time>
      </trkpt>
      <trkpt lat="45.01962" lon="5.71846">
        <ele>911.8</ele>
        <time>2021-05-29T06:36:08Z</time>
      </trkpt>
      <trkpt lat="45.01963" lon="5.71847">
        <ele>911.8</ele>
        <time>2021-05-29T06:36:09Z</time>
      </trkpt>
      <trkpt lat="45.01964" lon="5.71848">
        <ele>912</ele>
        <time>2021-05-29T06:36:10Z</time>
      </trkpt>
      <trkpt lat="45.01965" lon="5.71849">
        <ele>912.4</ele>
        <time>2021-05-29T06:36:11Z</time>
      </trkpt>
      <trkpt lat="45.01966" lon="5.7185">
        <ele>912.6</ele>
        <time>2021-05-29T06:36:12Z</time>
      </trkpt>
      <trkpt lat="45.01967" lon="5.71851">
        <ele>912.8</ele>
        <time>2021-05-29T06:36:13Z</time>
      </trkpt>
      <trkpt lat="45.01968" lon="5.71852">
        <ele>913</ele>
        <time>2021-05-29T06:36:14Z</time>
      </trkpt>
      <trkpt lat="45.01969" lon="5.71853">
        <ele>913</ele>
        <time>2021-05-29T06:36:15Z</time>
      </trkpt>
      <trkpt lat="45.0197" lon="5.71854">
        <ele>913.2</ele>
        <time>2021-05-29T06:36:16Z</time>
      </trkpt>
      <trkpt lat="45.0197" lon="5.71855">
        <ele>913.4</ele>
        <time>2021-05-29T06:36:17Z</time>
      </trkpt>
      <trkpt lat="45.01971" lon="5.71856">
        <ele>913.6</ele>
        <time>2021-05-29T06:36:18Z</time>
      </trkpt>
      <trkpt lat="45.01972" lon="5.71857">
        <ele>914</ele>
        <time>2021-05-29T06:36:19Z</time>
      </trkpt>
      <trkpt lat="45.01973" lon="5.71858">
        <ele>914</ele>
        <time>2021-05-29T06:36:20Z</time>
      </trkpt>
      <trkpt lat="45.01974" lon="5.71859">
        <ele>914.4</ele>
        <time>2021-05-29T06:36:21Z</time>
      </trkpt>
      <trkpt lat="45.01975" lon="5.7186">
        <ele>914.4</ele>
        <time>2021-05-29T06:36:22Z</time>
      </trkpt>
      <trkpt lat="45.01976" lon="5.71861">
        <ele>914.6</ele>
        <time>2021-05-29T06:36:23Z</time>
      </trkpt>
      <trkpt lat="45.01977" lon="5.71862">
        <ele>914.8</ele>
        <time>2021-05-29T06:36:24Z</time>
      </trkpt>
      <trkpt lat="45.01978" lon="5.71863">
        <ele>915</ele>
        <time>2021-05-29T06:36:25Z</time>
      </trkpt>
      <trkpt lat="45.01979" lon="5.71864">
        <ele>915.4</ele>
        <time>2021-05-29T06:36:26Z</time>
      </trkpt>
      <trkpt lat="45.01979" lon="5.71865">
        <ele>915.8</ele>
        <time>2021-05-29T06:36:27Z</time>
      </trkpt>
      <trkpt lat="45.0198" lon="5.71866">
        <ele>916.2</ele>
        <time>2021-05-29T06:36:28Z</time>
      </trkpt>
      <trkpt lat="45.01981" lon="5.71867">
        <ele>916.8</ele>
        <time>2021-05-29T06:36:29Z</time>
      </trkpt>
      <trkpt lat="45.01982" lon="5.71868">
        <ele>917</ele>
        <time>2021-05-29T06:36:30Z</time>
      </trkpt>
      <trkpt lat="45.01983" lon="5.71869">
        <ele>917</ele>
        <time>2021-05-29T06:36:31Z</time>
      </trkpt>
      <trkpt lat="45.01984" lon="5.7187">
        <ele>917.2</ele>
        <time>2021-05-29T06:36:32Z</time>
      </trkpt>
      <trkpt lat="45.01985" lon="5.71871">
        <ele>917.6</ele>
        <time>2021-05-29T06:36:33Z</time>
      </trkpt>
      <trkpt lat="45.01986" lon="5.71872">
        <ele>917.8</ele>
        <time>2021-05-29T06:36:34Z</time>
      </trkpt>
      <trkpt lat="45.01987" lon="5.71873">
        <ele>918</ele>
        <time>2021-05-29T06:36:35Z</time>
      </trkpt>
      <trkpt lat="45.01987" lon="5.71874">
        <ele>918.4</ele>
        <time>2021-05-29T06:36:36Z</time>
      </trkpt>
      <trkpt lat="45.01988" lon="5.71875">
        <ele>918.8</ele>
        <time>2021-05-29T06:36:37Z</time>
      </trkpt>
      <trkpt lat="45.01989" lon="5.71876">
        <ele>919</ele>
        <time>2021-05-29T06:36:38Z</time>
      </trkpt>
      <trkpt lat="45.0199" lon="5.71877">
        <ele>919.2</ele>
        <time>2021-05-29T06:36:39Z</time>
      </trkpt>
      <trkpt lat="45.01991" lon="5.71878">
        <ele>919.4</ele>
        <time>2021-05-29T06:36:40Z</time>
      </trkpt>
      <trkpt lat="45.01992" lon="5.71879">
        <ele>919.6</ele>
        <time>2021-05-29T06:36:41Z</time>
      </trkpt>
      <trkpt lat="45.01993" lon="5.7188">
        <ele>919.8</ele>
        <time>2021-05-29T06:36:42Z</time>
      </trkpt>
      <trkpt lat="45.01994" lon="5.71881">
        <ele>919.8</ele>
        <time>2021-05-29T06:36:43Z</time>
      </trkpt>
      <trkpt lat="45.01995" lon="5.71882">
        <ele>920</ele>
        <time>2021-05-29T06:36:44Z</time>
      </trkpt>
      <trkpt lat="45.01995" lon="5.71883">
        <ele>920</ele>
        <time>2021-05-29T06:36:45Z</time>
      </trkpt>
      <trkpt lat="45.01996" lon="5.71885">
        <ele>920.2</ele>
        <time>2021-05-29T06:36:46Z</time>
      </trkpt>
      <trkpt lat="45.01997" lon="5.71886">
        <ele>920.2</ele>
        <time>2021-05-29T06:36:47Z</time>
      </trkpt>
      <trkpt lat="45.01998" lon="5.71887">
        <ele>920.4</ele>
        <time>2021-05-29T06:36:48Z</time>
      </trkpt>
      <trkpt lat="45.01999" lon="5.71888">
        <ele>920.8</ele>
        <time>2021-05-29T06:36:49Z</time>
      </trkpt>
      <trkpt lat="45.02" lon="5.71889">
        <ele>921</ele>
        <time>2021-05-29T06:36:50Z</time>
      </trkpt>
      <trkpt lat="45.02001" lon="5.7189">
        <ele>921.2</ele>
        <time>2021-05-29T06:36:51Z</time>
      </trkpt>
      <trkpt lat="45.02002" lon="5.71891">
        <ele>921.6</ele>
        <time>2021-05-29T06:36:52Z</time>
      </trkpt>
      <trkpt lat="45.02003" lon="5.71892">
        <ele>921.8</ele>
        <time>2021-05-29T06:36:53Z</time>
      </trkpt>
      <trkpt lat="45.02003" lon="5.71893">
        <ele>922</ele>
        <time>2021-05-29T06:36:54Z</time>
      </trkpt>
      <trkpt lat="45.02004" lon="5.71894">
        <ele>922.4</ele>
        <time>2021-05-29T06:36:55Z</time>
      </trkpt>
      <trkpt lat="45.02005" lon="5.71895">
        <ele>922.4</ele>
        <time>2021-05-29T06:36:56Z</time>
      </trkpt>
      <trkpt lat="45.02006" lon="5.71896">
        <ele>922.6</ele>
        <time>2021-05-29T06:36:57Z</time>
      </trkpt>
      <trkpt lat="45.02007" lon="5.71897">
        <ele>922.6</ele>
        <time>2021-05-29T06:36:58Z</time>
      </trkpt>
      <trkpt lat="45.02008" lon="5.71898">
        <ele>922.8</ele>
        <time>2021-05-29T06:36:59Z</time>
      </trkpt>
      <trkpt lat="45.02009" lon="5.71899">
        <ele>923</ele>
        <time>2021-05-29T06:37:00Z</time>
      </trkpt>
      <trkpt lat="45.02009" lon="5.71899">
        <ele>923</ele>
        <time>2021-05-29T06:37:01Z</time>
      </trkpt>
      <trkpt lat="45.02009" lon="5.71899">
        <ele>923.2</ele>
        <time>2021-05-29T06:37:02Z</time>
      </trkpt>
      <trkpt lat="45.0201" lon="5.71902">
        <ele>923.2</ele>
        <time>2021-05-29T06:37:03Z</time>
      </trkpt>
      <trkpt lat="45.02011" lon="5.71905">
        <ele>923.2</ele>
        <time>2021-05-29T06:37:04Z</time>
      </trkpt>
      <trkpt lat="45.02012" lon="5.71908">
        <ele>923.8</ele>
        <time>2021-05-29T06:37:05Z</time>
      </trkpt>
      <trkpt lat="45.02014" lon="5.71911">
        <ele>924</ele>
        <time>2021-05-29T06:37:06Z</time>
      </trkpt>
      <trkpt lat="45.02015" lon="5.71912">
        <ele>924.4</ele>
        <time>2021-05-29T06:37:07Z</time>
      </trkpt>
      <trkpt lat="45.02016" lon="5.71914">
        <ele>924.4</ele>
        <time>2021-05-29T06:37:08Z</time>
      </trkpt>
      <trkpt lat="45.02017" lon="5.71916">
        <ele>925</ele>
        <time>2021-05-29T06:37:09Z</time>
      </trkpt>
      <trkpt lat="45.02019" lon="5.71917">
        <ele>925</ele>
        <time>2021-05-29T06:37:10Z</time>
      </trkpt>
      <trkpt lat="45.0202" lon="5.71919">
        <ele>925.8</ele>
        <time>2021-05-29T06:37:11Z</time>
      </trkpt>
      <trkpt lat="45.02021" lon="5.71921">
        <ele>925.8</ele>
        <time>2021-05-29T06:37:12Z</time>
      </trkpt>
      <trkpt lat="45.02024" lon="5.71923">
        <ele>926.2</ele>
        <time>2021-05-29T06:37:13Z</time>
      </trkpt>
      <trkpt lat="45.02025" lon="5.71925">
        <ele>926.4</ele>
        <time>2021-05-29T06:37:14Z</time>
      </trkpt>
      <trkpt lat="45.02026" lon="5.71926">
        <ele>926.6</ele>
        <time>2021-05-29T06:37:15Z</time>
      </trkpt>
      <trkpt lat="45.02028" lon="5.71928">
        <ele>926.6</ele>
        <time>2021-05-29T06:37:16Z</time>
      </trkpt>
      <trkpt lat="45.02029" lon="5.71929">
        <ele>926.8</ele>
        <time>2021-05-29T06:37:17Z</time>
      </trkpt>
      <trkpt lat="45.0203" lon="5.71931">
        <ele>927</ele>
        <time>2021-05-29T06:37:18Z</time>
      </trkpt>
      <trkpt lat="45.02032" lon="5.71933">
        <ele>927.2</ele>
        <time>2021-05-29T06:37:19Z</time>
      </trkpt>
      <trkpt lat="45.02033" lon="5.71934">
        <ele>927.2</ele>
        <time>2021-05-29T06:37:20Z</time>
      </trkpt>
      <trkpt lat="45.02034" lon="5.71936">
        <ele>927.2</ele>
        <time>2021-05-29T06:37:21Z</time>
      </trkpt>
      <trkpt lat="45.02036" lon="5.71937">
        <ele>927.2</ele>
        <time>2021-05-29T06:37:22Z</time>
      </trkpt>
      <trkpt lat="45.02037" lon="5.71939">
        <ele>927</ele>
        <time>2021-05-29T06:37:23Z</time>
      </trkpt>
      <trkpt lat="45.02038" lon="5.7194">
        <ele>927.2</ele>
        <time>2021-05-29T06:37:24Z</time>
      </trkpt>
      <trkpt lat="45.0204" lon="5.71942">
        <ele>927.2</ele>
        <time>2021-05-29T06:37:25Z</time>
      </trkpt>
      <trkpt lat="45.02041" lon="5.71944">
        <ele>927.6</ele>
        <time>2021-05-29T06:37:26Z</time>
      </trkpt>
      <trkpt lat="45.02042" lon="5.71945">
        <ele>927.8</ele>
        <time>2021-05-29T06:37:27Z</time>
      </trkpt>
      <trkpt lat="45.02044" lon="5.71947">
        <ele>928.4</ele>
        <time>2021-05-29T06:37:28Z</time>
      </trkpt>
      <trkpt lat="45.02044" lon="5.71947">
        <ele>928.6</ele>
        <time>2021-05-29T06:37:29Z</time>
      </trkpt>
      <trkpt lat="45.02044" lon="5.71947">
        <ele>928.8</ele>
        <time>2021-05-29T06:37:30Z</time>
      </trkpt>
      <trkpt lat="45.02045" lon="5.7195">
        <ele>929</ele>
        <time>2021-05-29T06:37:31Z</time>
      </trkpt>
      <trkpt lat="45.02046" lon="5.71952">
        <ele>929.2</ele>
        <time>2021-05-29T06:37:32Z</time>
      </trkpt>
      <trkpt lat="45.02047" lon="5.71955">
        <ele>929</ele>
        <time>2021-05-29T06:37:33Z</time>
      </trkpt>
      <trkpt lat="45.02049" lon="5.71958">
        <ele>929.4</ele>
        <time>2021-05-29T06:37:34Z</time>
      </trkpt>
      <trkpt lat="45.0205" lon="5.71959">
        <ele>929.4</ele>
        <time>2021-05-29T06:37:35Z</time>
      </trkpt>
      <trkpt lat="45.02052" lon="5.71961">
        <ele>929.2</ele>
        <time>2021-05-29T06:37:36Z</time>
      </trkpt>
      <trkpt lat="45.02054" lon="5.71962">
        <ele>929.4</ele>
        <time>2021-05-29T06:37:37Z</time>
      </trkpt>
      <trkpt lat="45.02055" lon="5.71963">
        <ele>929.6</ele>
        <time>2021-05-29T06:37:38Z</time>
      </trkpt>
      <trkpt lat="45.02057" lon="5.71965">
        <ele>929.8</ele>
        <time>2021-05-29T06:37:39Z</time>
      </trkpt>
      <trkpt lat="45.02058" lon="5.71966">
        <ele>930</ele>
        <time>2021-05-29T06:37:40Z</time>
      </trkpt>
      <trkpt lat="45.02059" lon="5.71967">
        <ele>930.4</ele>
        <time>2021-05-29T06:37:41Z</time>
      </trkpt>
      <trkpt lat="45.0206" lon="5.71968">
        <ele>930.8</ele>
        <time>2021-05-29T06:37:42Z</time>
      </trkpt>
      <trkpt lat="45.02062" lon="5.71969">
        <ele>931</ele>
        <time>2021-05-29T06:37:43Z</time>
      </trkpt>
      <trkpt lat="45.02063" lon="5.71971">
        <ele>931</ele>
        <time>2021-05-29T06:37:44Z</time>
      </trkpt>
      <trkpt lat="45.02064" lon="5.71972">
        <ele>931.2</ele>
        <time>2021-05-29T06:37:45Z</time>
      </trkpt>
      <trkpt lat="45.02065" lon="5.71973">
        <ele>931.4</ele>
        <time>2021-05-29T06:37:46Z</time>
      </trkpt>
      <trkpt lat="45.02066" lon="5.71974">
        <ele>931.6</ele>
        <time>2021-05-29T06:37:47Z</time>
      </trkpt>
      <trkpt lat="45.02068" lon="5.71975">
        <ele>931.6</ele>
        <time>2021-05-29T06:37:48Z</time>
      </trkpt>
      <trkpt lat="45.02069" lon="5.71976">
        <ele>931.8</ele>
        <time>2021-05-29T06:37:49Z</time>
      </trkpt>
      <trkpt lat="45.0207" lon="5.71977">
        <ele>932</ele>
        <time>2021-05-29T06:37:50Z</time>
      </trkpt>
      <trkpt lat="45.02071" lon="5.71978">
        <ele>932.2</ele>
        <time>2021-05-29T06:37:51Z</time>
      </trkpt>
      <trkpt lat="45.02072" lon="5.71979">
        <ele>932.2</ele>
        <time>2021-05-29T06:37:52Z</time>
      </trkpt>
      <trkpt lat="45.02073" lon="5.7198">
        <ele>932.6</ele>
        <time>2021-05-29T06:37:53Z</time>
      </trkpt>
      <trkpt lat="45.02074" lon="5.71981">
        <ele>932.6</ele>
        <time>2021-05-29T06:37:54Z</time>
      </trkpt>
      <trkpt lat="45.02076" lon="5.71982">
        <ele>933</ele>
        <time>2021-05-29T06:37:55Z</time>
      </trkpt>
      <trkpt lat="45.02077" lon="5.71983">
        <ele>933.2</ele>
        <time>2021-05-29T06:37:56Z</time>
      </trkpt>
      <trkpt lat="45.02078" lon="5.71984">
        <ele>934</ele>
        <time>2021-05-29T06:37:57Z</time>
      </trkpt>
      <trkpt lat="45.02079" lon="5.71985">
        <ele>934.4</ele>
        <time>2021-05-29T06:37:58Z</time>
      </trkpt>
      <trkpt lat="45.02081" lon="5.71986">
        <ele>935</ele>
        <time>2021-05-29T06:37:59Z</time>
      </trkpt>
      <trkpt lat="45.02082" lon="5.71987">
        <ele>935.2</ele>
        <time>2021-05-29T06:38:00Z</time>
      </trkpt>
      <trkpt lat="45.02083" lon="5.71987">
        <ele>935.4</ele>
        <time>2021-05-29T06:38:01Z</time>
      </trkpt>
      <trkpt lat="45.02084" lon="5.71988">
        <ele>935.8</ele>
        <time>2021-05-29T06:38:02Z</time>
      </trkpt>
      <trkpt lat="45.02086" lon="5.71988">
        <ele>936</ele>
        <time>2021-05-29T06:38:03Z</time>
      </trkpt>
      <trkpt lat="45.02087" lon="5.71988">
        <ele>936</ele>
        <time>2021-05-29T06:38:04Z</time>
      </trkpt>
      <trkpt lat="45.02088" lon="5.71988">
        <ele>936.2</ele>
        <time>2021-05-29T06:38:05Z</time>
      </trkpt>
      <trkpt lat="45.0209" lon="5.71989">
        <ele>936.4</ele>
        <time>2021-05-29T06:38:06Z</time>
      </trkpt>
      <trkpt lat="45.02091" lon="5.71989">
        <ele>936.2</ele>
        <time>2021-05-29T06:38:07Z</time>
      </trkpt>
      <trkpt lat="45.02092" lon="5.71989">
        <ele>936.2</ele>
        <time>2021-05-29T06:38:08Z</time>
      </trkpt>
      <trkpt lat="45.02094" lon="5.7199">
        <ele>936.2</ele>
        <time>2021-05-29T06:38:09Z</time>
      </trkpt>
      <trkpt lat="45.02096" lon="5.71991">
        <ele>936.2</ele>
        <time>2021-05-29T06:38:10Z</time>
      </trkpt>
      <trkpt lat="45.02098" lon="5.71992">
        <ele>936.2</ele>
        <time>2021-05-29T06:38:11Z</time>
      </trkpt>
      <trkpt lat="45.021" lon="5.71994">
        <ele>936.2</ele>
        <time>2021-05-29T06:38:12Z</time>
      </trkpt>
      <trkpt lat="45.02102" lon="5.71995">
        <ele>936</ele>
        <time>2021-05-29T06:38:13Z</time>
      </trkpt>
      <trkpt lat="45.02103" lon="5.71996">
        <ele>936.2</ele>
        <time>2021-05-29T06:38:14Z</time>
      </trkpt>
      <trkpt lat="45.02104" lon="5.71997">
        <ele>936.2</ele>
        <time>2021-05-29T06:38:15Z</time>
      </trkpt>
      <trkpt lat="45.02105" lon="5.71997">
        <ele>936.6</ele>
        <time>2021-05-29T06:38:16Z</time>
      </trkpt>
      <trkpt lat="45.02106" lon="5.71998">
        <ele>936.8</ele>
        <time>2021-05-29T06:38:17Z</time>
      </trkpt>
      <trkpt lat="45.02107" lon="5.71999">
        <ele>936.8</ele>
        <time>2021-05-29T06:38:18Z</time>
      </trkpt>
      <trkpt lat="45.02108" lon="5.71999">
        <ele>936.8</ele>
        <time>2021-05-29T06:38:19Z</time>
      </trkpt>
      <trkpt lat="45.02108" lon="5.72">
        <ele>937</ele>
        <time>2021-05-29T06:38:20Z</time>
      </trkpt>
      <trkpt lat="45.02109" lon="5.72001">
        <ele>937.2</ele>
        <time>2021-05-29T06:38:21Z</time>
      </trkpt>
      <trkpt lat="45.0211" lon="5.72001">
        <ele>937.6</ele>
        <time>2021-05-29T06:38:22Z</time>
      </trkpt>
      <trkpt lat="45.02111" lon="5.72002">
        <ele>937.8</ele>
        <time>2021-05-29T06:38:23Z</time>
      </trkpt>
      <trkpt lat="45.02112" lon="5.72002">
        <ele>938</ele>
        <time>2021-05-29T06:38:24Z</time>
      </trkpt>
      <trkpt lat="45.02112" lon="5.72003">
        <ele>938.2</ele>
        <time>2021-05-29T06:38:25Z</time>
      </trkpt>
      <trkpt lat="45.02113" lon="5.72003">
        <ele>938.4</ele>
        <time>2021-05-29T06:38:26Z</time>
      </trkpt>
      <trkpt lat="45.02114" lon="5.72004">
        <ele>938.6</ele>
        <time>2021-05-29T06:38:27Z</time>
      </trkpt>
      <trkpt lat="45.02115" lon="5.72004">
        <ele>938.8</ele>
        <time>2021-05-29T06:38:28Z</time>
      </trkpt>
      <trkpt lat="45.02115" lon="5.72004">
        <ele>938.8</ele>
        <time>2021-05-29T06:38:29Z</time>
      </trkpt>
      <trkpt lat="45.02116" lon="5.72005">
        <ele>939.2</ele>
        <time>2021-05-29T06:38:30Z</time>
      </trkpt>
      <trkpt lat="45.02117" lon="5.72005">
        <ele>939.4</ele>
        <time>2021-05-29T06:38:31Z</time>
      </trkpt>
      <trkpt lat="45.02117" lon="5.72006">
        <ele>939.6</ele>
        <time>2021-05-29T06:38:32Z</time>
      </trkpt>
      <trkpt lat="45.02118" lon="5.72006">
        <ele>940</ele>
        <time>2021-05-29T06:38:33Z</time>
      </trkpt>
      <trkpt lat="45.02119" lon="5.72007">
        <ele>940</ele>
        <time>2021-05-29T06:38:34Z</time>
      </trkpt>
      <trkpt lat="45.0212" lon="5.72007">
        <ele>940.2</ele>
        <time>2021-05-29T06:38:35Z</time>
      </trkpt>
      <trkpt lat="45.02122" lon="5.72008">
        <ele>940.4</ele>
        <time>2021-05-29T06:38:36Z</time>
      </trkpt>
      <trkpt lat="45.02123" lon="5.72009">
        <ele>940.6</ele>
        <time>2021-05-29T06:38:37Z</time>
      </trkpt>
      <trkpt lat="45.02125" lon="5.7201">
        <ele>940.8</ele>
        <time>2021-05-29T06:38:38Z</time>
      </trkpt>
      <trkpt lat="45.02126" lon="5.72011">
        <ele>941.2</ele>
        <time>2021-05-29T06:38:39Z</time>
      </trkpt>
      <trkpt lat="45.02128" lon="5.72012">
        <ele>941.2</ele>
        <time>2021-05-29T06:38:40Z</time>
      </trkpt>
      <trkpt lat="45.02128" lon="5.72013">
        <ele>941.2</ele>
        <time>2021-05-29T06:38:41Z</time>
      </trkpt>
      <trkpt lat="45.02129" lon="5.72014">
        <ele>940.8</ele>
        <time>2021-05-29T06:38:42Z</time>
      </trkpt>
      <trkpt lat="45.0213" lon="5.72015">
        <ele>941</ele>
        <time>2021-05-29T06:38:43Z</time>
      </trkpt>
      <trkpt lat="45.02131" lon="5.72015">
        <ele>941</ele>
        <time>2021-05-29T06:38:44Z</time>
      </trkpt>
      <trkpt lat="45.02132" lon="5.72016">
        <ele>941.2</ele>
        <time>2021-05-29T06:38:45Z</time>
      </trkpt>
      <trkpt lat="45.02133" lon="5.72017">
        <ele>941.4</ele>
        <time>2021-05-29T06:38:46Z</time>
      </trkpt>
      <trkpt lat="45.02134" lon="5.72018">
        <ele>941.6</ele>
        <time>2021-05-29T06:38:47Z</time>
      </trkpt>
      <trkpt lat="45.02135" lon="5.72018">
        <ele>941.8</ele>
        <time>2021-05-29T06:38:48Z</time>
      </trkpt>
      <trkpt lat="45.02136" lon="5.72019">
        <ele>942.2</ele>
        <time>2021-05-29T06:38:49Z</time>
      </trkpt>
      <trkpt lat="45.02137" lon="5.7202">
        <ele>942.2</ele>
        <time>2021-05-29T06:38:50Z</time>
      </trkpt>
      <trkpt lat="45.02138" lon="5.72021">
        <ele>942.4</ele>
        <time>2021-05-29T06:38:51Z</time>
      </trkpt>
      <trkpt lat="45.02139" lon="5.72022">
        <ele>942.6</ele>
        <time>2021-05-29T06:38:52Z</time>
      </trkpt>
      <trkpt lat="45.0214" lon="5.72023">
        <ele>942.6</ele>
        <time>2021-05-29T06:38:53Z</time>
      </trkpt>
      <trkpt lat="45.0214" lon="5.72024">
        <ele>942.8</ele>
        <time>2021-05-29T06:38:54Z</time>
      </trkpt>
      <trkpt lat="45.02141" lon="5.72025">
        <ele>943</ele>
        <time>2021-05-29T06:38:55Z</time>
      </trkpt>
      <trkpt lat="45.02142" lon="5.72026">
        <ele>943.4</ele>
        <time>2021-05-29T06:38:56Z</time>
      </trkpt>
      <trkpt lat="45.02143" lon="5.72027">
        <ele>944</ele>
        <time>2021-05-29T06:38:57Z</time>
      </trkpt>
      <trkpt lat="45.02144" lon="5.72028">
        <ele>944.4</ele>
        <time>2021-05-29T06:38:58Z</time>
      </trkpt>
      <trkpt lat="45.02145" lon="5.7203">
        <ele>944.8</ele>
        <time>2021-05-29T06:38:59Z</time>
      </trkpt>
      <trkpt lat="45.02146" lon="5.72031">
        <ele>944.8</ele>
        <time>2021-05-29T06:39:00Z</time>
      </trkpt>
      <trkpt lat="45.02147" lon="5.72032">
        <ele>945</ele>
        <time>2021-05-29T06:39:01Z</time>
      </trkpt>
      <trkpt lat="45.02148" lon="5.72034">
        <ele>945.2</ele>
        <time>2021-05-29T06:39:02Z</time>
      </trkpt>
      <trkpt lat="45.02149" lon="5.72035">
        <ele>945.4</ele>
        <time>2021-05-29T06:39:03Z</time>
      </trkpt>
      <trkpt lat="45.02149" lon="5.72036">
        <ele>945.6</ele>
        <time>2021-05-29T06:39:04Z</time>
      </trkpt>
      <trkpt lat="45.0215" lon="5.72037">
        <ele>946</ele>
        <time>2021-05-29T06:39:05Z</time>
      </trkpt>
      <trkpt lat="45.02151" lon="5.72039">
        <ele>946.4</ele>
        <time>2021-05-29T06:39:06Z</time>
      </trkpt>
      <trkpt lat="45.02151" lon="5.7204">
        <ele>946.6</ele>
        <time>2021-05-29T06:39:07Z</time>
      </trkpt>
      <trkpt lat="45.02152" lon="5.72042">
        <ele>946.8</ele>
        <time>2021-05-29T06:39:08Z</time>
      </trkpt>
      <trkpt lat="45.02152" lon="5.72043">
        <ele>947.2</ele>
        <time>2021-05-29T06:39:09Z</time>
      </trkpt>
      <trkpt lat="45.02153" lon="5.72045">
        <ele>947.2</ele>
        <time>2021-05-29T06:39:10Z</time>
      </trkpt>
      <trkpt lat="45.02153" lon="5.72047">
        <ele>947.6</ele>
        <time>2021-05-29T06:39:11Z</time>
      </trkpt>
      <trkpt lat="45.02153" lon="5.72048">
        <ele>948</ele>
        <time>2021-05-29T06:39:12Z</time>
      </trkpt>
      <trkpt lat="45.02154" lon="5.7205">
        <ele>948.2</ele>
        <time>2021-05-29T06:39:13Z</time>
      </trkpt>
      <trkpt lat="45.02154" lon="5.72051">
        <ele>948.4</ele>
        <time>2021-05-29T06:39:14Z</time>
      </trkpt>
      <trkpt lat="45.02154" lon="5.72052">
        <ele>948.6</ele>
        <time>2021-05-29T06:39:15Z</time>
      </trkpt>
      <trkpt lat="45.02155" lon="5.72053">
        <ele>949</ele>
        <time>2021-05-29T06:39:16Z</time>
      </trkpt>
      <trkpt lat="45.02155" lon="5.72054">
        <ele>949.2</ele>
        <time>2021-05-29T06:39:17Z</time>
      </trkpt>
      <trkpt lat="45.02155" lon="5.72055">
        <ele>949.4</ele>
        <time>2021-05-29T06:39:18Z</time>
      </trkpt>
      <trkpt lat="45.02156" lon="5.72056">
        <ele>949.6</ele>
        <time>2021-05-29T06:39:19Z</time>
      </trkpt>
      <trkpt lat="45.02156" lon="5.72057">
        <ele>949.8</ele>
        <time>2021-05-29T06:39:20Z</time>
      </trkpt>
      <trkpt lat="45.02156" lon="5.72058">
        <ele>950.2</ele>
        <time>2021-05-29T06:39:21Z</time>
      </trkpt>
      <trkpt lat="45.02157" lon="5.72059">
        <ele>950.4</ele>
        <time>2021-05-29T06:39:22Z</time>
      </trkpt>
      <trkpt lat="45.02157" lon="5.72059">
        <ele>950.6</ele>
        <time>2021-05-29T06:39:23Z</time>
      </trkpt>
      <trkpt lat="45.02157" lon="5.7206">
        <ele>950.8</ele>
        <time>2021-05-29T06:39:24Z</time>
      </trkpt>
      <trkpt lat="45.02158" lon="5.72061">
        <ele>951</ele>
        <time>2021-05-29T06:39:25Z</time>
      </trkpt>
      <trkpt lat="45.02158" lon="5.72062">
        <ele>951.4</ele>
        <time>2021-05-29T06:39:26Z</time>
      </trkpt>
      <trkpt lat="45.02158" lon="5.72063">
        <ele>951.6</ele>
        <time>2021-05-29T06:39:27Z</time>
      </trkpt>
      <trkpt lat="45.02159" lon="5.72065">
        <ele>951.8</ele>
        <time>2021-05-29T06:39:28Z</time>
      </trkpt>
      <trkpt lat="45.0216" lon="5.72066">
        <ele>952</ele>
        <time>2021-05-29T06:39:29Z</time>
      </trkpt>
      <trkpt lat="45.02161" lon="5.72068">
        <ele>952</ele>
        <time>2021-05-29T06:39:30Z</time>
      </trkpt>
      <trkpt lat="45.02161" lon="5.72069">
        <ele>952</ele>
        <time>2021-05-29T06:39:31Z</time>
      </trkpt>
      <trkpt lat="45.02162" lon="5.72071">
        <ele>951.8</ele>
        <time>2021-05-29T06:39:32Z</time>
      </trkpt>
      <trkpt lat="45.02163" lon="5.72072">
        <ele>952</ele>
        <time>2021-05-29T06:39:33Z</time>
      </trkpt>
      <trkpt lat="45.02164" lon="5.72074">
        <ele>952</ele>
        <time>2021-05-29T06:39:34Z</time>
      </trkpt>
      <trkpt lat="45.02164" lon="5.72075">
        <ele>952.2</ele>
        <time>2021-05-29T06:39:35Z</time>
      </trkpt>
      <trkpt lat="45.02165" lon="5.72075">
        <ele>952.2</ele>
        <time>2021-05-29T06:39:36Z</time>
      </trkpt>
      <trkpt lat="45.02165" lon="5.72075">
        <ele>952</ele>
        <time>2021-05-29T06:39:37Z</time>
      </trkpt>
      <trkpt lat="45.02165" lon="5.72075">
        <ele>952</ele>
        <time>2021-05-29T06:39:38Z</time>
      </trkpt>
      <trkpt lat="45.02166" lon="5.72075">
        <ele>952</ele>
        <time>2021-05-29T06:39:39Z</time>
      </trkpt>
      <trkpt lat="45.02166" lon="5.72075">
        <ele>952</ele>
        <time>2021-05-29T06:39:40Z</time>
      </trkpt>
      <trkpt lat="45.02166" lon="5.72075">
        <ele>952</ele>
        <time>2021-05-29T06:39:41Z</time>
      </trkpt>
      <trkpt lat="45.02166" lon="5.72075">
        <ele>951.8</ele>
        <time>2021-05-29T06:39:42Z</time>
      </trkpt>
      <trkpt lat="45.02167" lon="5.72075">
        <ele>952</ele>
        <time>2021-05-29T06:39:43Z</time>
      </trkpt>
      <trkpt lat="45.02167" lon="5.72074">
        <ele>952</ele>
        <time>2021-05-29T06:39:44Z</time>
      </trkpt>
      <trkpt lat="45.02167" lon="5.72074">
        <ele>952.2</ele>
        <time>2021-05-29T06:39:45Z</time>
      </trkpt>
      <trkpt lat="45.02168" lon="5.72074">
        <ele>952.2</ele>
        <time>2021-05-29T06:39:46Z</time>
      </trkpt>
      <trkpt lat="45.02168" lon="5.72074">
        <ele>952.4</ele>
        <time>2021-05-29T06:39:47Z</time>
      </trkpt>
      <trkpt lat="45.02168" lon="5.72074">
        <ele>952.4</ele>
        <time>2021-05-29T06:39:48Z</time>
      </trkpt>
      <trkpt lat="45.02168" lon="5.72074">
        <ele>952.4</ele>
        <time>2021-05-29T06:39:49Z</time>
      </trkpt>
      <trkpt lat="45.02169" lon="5.72074">
        <ele>952.6</ele>
        <time>2021-05-29T06:39:50Z</time>
      </trkpt>
      <trkpt lat="45.02169" lon="5.72074">
        <ele>952.8</ele>
        <time>2021-05-29T06:39:51Z</time>
      </trkpt>
      <trkpt lat="45.02169" lon="5.72074">
        <ele>952.6</ele>
        <time>2021-05-29T06:39:52Z</time>
      </trkpt>
      <trkpt lat="45.0217" lon="5.72074">
        <ele>952.6</ele>
        <time>2021-05-29T06:39:53Z</time>
      </trkpt>
      <trkpt lat="45.0217" lon="5.72074">
        <ele>952.6</ele>
        <time>2021-05-29T06:39:54Z</time>
      </trkpt>
      <trkpt lat="45.0217" lon="5.72074">
        <ele>952.6</ele>
        <time>2021-05-29T06:39:55Z</time>
      </trkpt>
      <trkpt lat="45.0217" lon="5.72074">
        <ele>952.6</ele>
        <time>2021-05-29T06:39:56Z</time>
      </trkpt>
      <trkpt lat="45.02171" lon="5.72074">
        <ele>952.8</ele>
        <time>2021-05-29T06:39:57Z</time>
      </trkpt>
      <trkpt lat="45.02171" lon="5.72074">
        <ele>952.6</ele>
        <time>2021-05-29T06:39:58Z</time>
      </trkpt>
      <trkpt lat="45.02171" lon="5.72073">
        <ele>952.6</ele>
        <time>2021-05-29T06:40:00Z</time>
      </trkpt>
      <trkpt lat="45.02172" lon="5.72073">
        <ele>952.6</ele>
        <time>2021-05-29T06:40:01Z</time>
      </trkpt>
      <trkpt lat="45.02172" lon="5.72073">
        <ele>952.8</ele>
        <time>2021-05-29T06:40:02Z</time>
      </trkpt>
      <trkpt lat="45.02172" lon="5.72073">
        <ele>952.6</ele>
        <time>2021-05-29T06:40:03Z</time>
      </trkpt>
      <trkpt lat="45.02172" lon="5.72073">
        <ele>952.8</ele>
        <time>2021-05-29T06:40:04Z</time>
      </trkpt>
      <trkpt lat="45.02173" lon="5.72073">
        <ele>953.2</ele>
        <time>2021-05-29T06:40:05Z</time>
      </trkpt>
      <trkpt lat="45.02173" lon="5.72073">
        <ele>953.4</ele>
        <time>2021-05-29T06:40:06Z</time>
      </trkpt>
      <trkpt lat="45.02173" lon="5.72073">
        <ele>953.8</ele>
        <time>2021-05-29T06:40:07Z</time>
      </trkpt>
      <trkpt lat="45.02174" lon="5.72073">
        <ele>954</ele>
        <time>2021-05-29T06:40:08Z</time>
      </trkpt>
      <trkpt lat="45.02174" lon="5.72073">
        <ele>953.8</ele>
        <time>2021-05-29T06:40:09Z</time>
      </trkpt>
      <trkpt lat="45.02174" lon="5.72073">
        <ele>953.6</ele>
        <time>2021-05-29T06:40:10Z</time>
      </trkpt>
      <trkpt lat="45.02175" lon="5.72074">
        <ele>953.4</ele>
        <time>2021-05-29T06:40:11Z</time>
      </trkpt>
      <trkpt lat="45.02176" lon="5.72075">
        <ele>953.4</ele>
        <time>2021-05-29T06:40:12Z</time>
      </trkpt>
      <trkpt lat="45.02177" lon="5.72076">
        <ele>953.2</ele>
        <time>2021-05-29T06:40:13Z</time>
      </trkpt>
      <trkpt lat="45.02178" lon="5.72077">
        <ele>953.2</ele>
        <time>2021-05-29T06:40:14Z</time>
      </trkpt>
      <trkpt lat="45.02179" lon="5.72079">
        <ele>953.2</ele>
        <time>2021-05-29T06:40:15Z</time>
      </trkpt>
      <trkpt lat="45.0218" lon="5.7208">
        <ele>953.4</ele>
        <time>2021-05-29T06:40:16Z</time>
      </trkpt>
      <trkpt lat="45.0218" lon="5.72081">
        <ele>953.6</ele>
        <time>2021-05-29T06:40:17Z</time>
      </trkpt>
      <trkpt lat="45.02181" lon="5.72082">
        <ele>953.6</ele>
        <time>2021-05-29T06:40:18Z</time>
      </trkpt>
      <trkpt lat="45.02182" lon="5.72082">
        <ele>953.8</ele>
        <time>2021-05-29T06:40:19Z</time>
      </trkpt>
      <trkpt lat="45.02183" lon="5.72083">
        <ele>954</ele>
        <time>2021-05-29T06:40:20Z</time>
      </trkpt>
      <trkpt lat="45.02184" lon="5.72083">
        <ele>954</ele>
        <time>2021-05-29T06:40:21Z</time>
      </trkpt>
      <trkpt lat="45.02185" lon="5.72083">
        <ele>954.2</ele>
        <time>2021-05-29T06:40:22Z</time>
      </trkpt>
      <trkpt lat="45.02186" lon="5.72084">
        <ele>954.6</ele>
        <time>2021-05-29T06:40:23Z</time>
      </trkpt>
      <trkpt lat="45.02187" lon="5.72084">
        <ele>954.6</ele>
        <time>2021-05-29T06:40:24Z</time>
      </trkpt>
      <trkpt lat="45.02188" lon="5.72084">
        <ele>954.8</ele>
        <time>2021-05-29T06:40:25Z</time>
      </trkpt>
      <trkpt lat="45.02189" lon="5.72084">
        <ele>954.8</ele>
        <time>2021-05-29T06:40:26Z</time>
      </trkpt>
      <trkpt lat="45.0219" lon="5.72085">
        <ele>955</ele>
        <time>2021-05-29T06:40:27Z</time>
      </trkpt>
      <trkpt lat="45.02191" lon="5.72085">
        <ele>955.4</ele>
        <time>2021-05-29T06:40:28Z</time>
      </trkpt>
      <trkpt lat="45.02192" lon="5.72086">
        <ele>955.6</ele>
        <time>2021-05-29T06:40:29Z</time>
      </trkpt>
      <trkpt lat="45.02193" lon="5.72087">
        <ele>955.8</ele>
        <time>2021-05-29T06:40:30Z</time>
      </trkpt>
      <trkpt lat="45.02194" lon="5.72087">
        <ele>956.2</ele>
        <time>2021-05-29T06:40:31Z</time>
      </trkpt>
      <trkpt lat="45.02194" lon="5.72088">
        <ele>956.6</ele>
        <time>2021-05-29T06:40:32Z</time>
      </trkpt>
      <trkpt lat="45.02195" lon="5.72089">
        <ele>956.8</ele>
        <time>2021-05-29T06:40:33Z</time>
      </trkpt>
      <trkpt lat="45.02196" lon="5.72089">
        <ele>957</ele>
        <time>2021-05-29T06:40:34Z</time>
      </trkpt>
      <trkpt lat="45.02197" lon="5.7209">
        <ele>957.4</ele>
        <time>2021-05-29T06:40:35Z</time>
      </trkpt>
      <trkpt lat="45.02198" lon="5.7209">
        <ele>957.4</ele>
        <time>2021-05-29T06:40:36Z</time>
      </trkpt>
      <trkpt lat="45.02198" lon="5.72091">
        <ele>957.6</ele>
        <time>2021-05-29T06:40:37Z</time>
      </trkpt>
      <trkpt lat="45.02199" lon="5.72092">
        <ele>958</ele>
        <time>2021-05-29T06:40:38Z</time>
      </trkpt>
      <trkpt lat="45.022" lon="5.72093">
        <ele>958.4</ele>
        <time>2021-05-29T06:40:39Z</time>
      </trkpt>
      <trkpt lat="45.022" lon="5.72094">
        <ele>958.4</ele>
        <time>2021-05-29T06:40:40Z</time>
      </trkpt>
      <trkpt lat="45.02201" lon="5.72095">
        <ele>958.6</ele>
        <time>2021-05-29T06:40:41Z</time>
      </trkpt>
      <trkpt lat="45.02201" lon="5.72095">
        <ele>958.6</ele>
        <time>2021-05-29T06:40:42Z</time>
      </trkpt>
      <trkpt lat="45.02202" lon="5.72096">
        <ele>959</ele>
        <time>2021-05-29T06:40:43Z</time>
      </trkpt>
      <trkpt lat="45.02203" lon="5.72097">
        <ele>959</ele>
        <time>2021-05-29T06:40:44Z</time>
      </trkpt>
      <trkpt lat="45.02203" lon="5.72098">
        <ele>959.4</ele>
        <time>2021-05-29T06:40:45Z</time>
      </trkpt>
      <trkpt lat="45.02204" lon="5.72099">
        <ele>959.6</ele>
        <time>2021-05-29T06:40:46Z</time>
      </trkpt>
      <trkpt lat="45.02204" lon="5.721">
        <ele>959.6</ele>
        <time>2021-05-29T06:40:47Z</time>
      </trkpt>
      <trkpt lat="45.02205" lon="5.72101">
        <ele>960</ele>
        <time>2021-05-29T06:40:48Z</time>
      </trkpt>
      <trkpt lat="45.02205" lon="5.72102">
        <ele>960.2</ele>
        <time>2021-05-29T06:40:49Z</time>
      </trkpt>
      <trkpt lat="45.02206" lon="5.72103">
        <ele>960.4</ele>
        <time>2021-05-29T06:40:50Z</time>
      </trkpt>
      <trkpt lat="45.02207" lon="5.72104">
        <ele>960.8</ele>
        <time>2021-05-29T06:40:51Z</time>
      </trkpt>
      <trkpt lat="45.02209" lon="5.72106">
        <ele>961.2</ele>
        <time>2021-05-29T06:40:52Z</time>
      </trkpt>
      <trkpt lat="45.0221" lon="5.72107">
        <ele>961.2</ele>
        <time>2021-05-29T06:40:53Z</time>
      </trkpt>
      <trkpt lat="45.02211" lon="5.72108">
        <ele>961.4</ele>
        <time>2021-05-29T06:40:54Z</time>
      </trkpt>
      <trkpt lat="45.02212" lon="5.72109">
        <ele>961.6</ele>
        <time>2021-05-29T06:40:55Z</time>
      </trkpt>
      <trkpt lat="45.02213" lon="5.72111">
        <ele>962</ele>
        <time>2021-05-29T06:40:56Z</time>
      </trkpt>
      <trkpt lat="45.02214" lon="5.72111">
        <ele>962.4</ele>
        <time>2021-05-29T06:40:57Z</time>
      </trkpt>
      <trkpt lat="45.02215" lon="5.72112">
        <ele>962.6</ele>
        <time>2021-05-29T06:40:58Z</time>
      </trkpt>
      <trkpt lat="45.02216" lon="5.72113">
        <ele>962.6</ele>
        <time>2021-05-29T06:40:59Z</time>
      </trkpt>
      <trkpt lat="45.02217" lon="5.72114">
        <ele>962.8</ele>
        <time>2021-05-29T06:41:00Z</time>
      </trkpt>
      <trkpt lat="45.02218" lon="5.72114">
        <ele>963</ele>
        <time>2021-05-29T06:41:01Z</time>
      </trkpt>
      <trkpt lat="45.02219" lon="5.72115">
        <ele>963.2</ele>
        <time>2021-05-29T06:41:02Z</time>
      </trkpt>
      <trkpt lat="45.0222" lon="5.72116">
        <ele>963.2</ele>
        <time>2021-05-29T06:41:03Z</time>
      </trkpt>
      <trkpt lat="45.02221" lon="5.72117">
        <ele>963.6</ele>
        <time>2021-05-29T06:41:04Z</time>
      </trkpt>
      <trkpt lat="45.02222" lon="5.72118">
        <ele>963.8</ele>
        <time>2021-05-29T06:41:05Z</time>
      </trkpt>
      <trkpt lat="45.02222" lon="5.72119">
        <ele>964</ele>
        <time>2021-05-29T06:41:06Z</time>
      </trkpt>
      <trkpt lat="45.02223" lon="5.7212">
        <ele>964</ele>
        <time>2021-05-29T06:41:07Z</time>
      </trkpt>
      <trkpt lat="45.02224" lon="5.72121">
        <ele>964.2</ele>
        <time>2021-05-29T06:41:08Z</time>
      </trkpt>
      <trkpt lat="45.02225" lon="5.72122">
        <ele>964.6</ele>
        <time>2021-05-29T06:41:09Z</time>
      </trkpt>
      <trkpt lat="45.02226" lon="5.72123">
        <ele>964.8</ele>
        <time>2021-05-29T06:41:10Z</time>
      </trkpt>
      <trkpt lat="45.02227" lon="5.72124">
        <ele>965</ele>
        <time>2021-05-29T06:41:11Z</time>
      </trkpt>
      <trkpt lat="45.02228" lon="5.72125">
        <ele>965.2</ele>
        <time>2021-05-29T06:41:12Z</time>
      </trkpt>
      <trkpt lat="45.02228" lon="5.72126">
        <ele>965.4</ele>
        <time>2021-05-29T06:41:13Z</time>
      </trkpt>
      <trkpt lat="45.02229" lon="5.72127">
        <ele>965.6</ele>
        <time>2021-05-29T06:41:14Z</time>
      </trkpt>
      <trkpt lat="45.02231" lon="5.72128">
        <ele>965.8</ele>
        <time>2021-05-29T06:41:15Z</time>
      </trkpt>
      <trkpt lat="45.02232" lon="5.72129">
        <ele>965.8</ele>
        <time>2021-05-29T06:41:16Z</time>
      </trkpt>
      <trkpt lat="45.02233" lon="5.72131">
        <ele>966</ele>
        <time>2021-05-29T06:41:17Z</time>
      </trkpt>
      <trkpt lat="45.02234" lon="5.72132">
        <ele>966.4</ele>
        <time>2021-05-29T06:41:18Z</time>
      </trkpt>
      <trkpt lat="45.02235" lon="5.72133">
        <ele>966.6</ele>
        <time>2021-05-29T06:41:19Z</time>
      </trkpt>
      <trkpt lat="45.02236" lon="5.72134">
        <ele>966.6</ele>
        <time>2021-05-29T06:41:20Z</time>
      </trkpt>
      <trkpt lat="45.02237" lon="5.72134">
        <ele>966.8</ele>
        <time>2021-05-29T06:41:21Z</time>
      </trkpt>
      <trkpt lat="45.02239" lon="5.72135">
        <ele>966.8</ele>
        <time>2021-05-29T06:41:22Z</time>
      </trkpt>
      <trkpt lat="45.0224" lon="5.72135">
        <ele>967</ele>
        <time>2021-05-29T06:41:23Z</time>
      </trkpt>
      <trkpt lat="45.02241" lon="5.72135">
        <ele>967.2</ele>
        <time>2021-05-29T06:41:24Z</time>
      </trkpt>
      <trkpt lat="45.02243" lon="5.72136">
        <ele>967.4</ele>
        <time>2021-05-29T06:41:25Z</time>
      </trkpt>
      <trkpt lat="45.02244" lon="5.72136">
        <ele>967.4</ele>
        <time>2021-05-29T06:41:26Z</time>
      </trkpt>
      <trkpt lat="45.02245" lon="5.72137">
        <ele>967.6</ele>
        <time>2021-05-29T06:41:27Z</time>
      </trkpt>
      <trkpt lat="45.02246" lon="5.72137">
        <ele>967.8</ele>
        <time>2021-05-29T06:41:28Z</time>
      </trkpt>
      <trkpt lat="45.02247" lon="5.72138">
        <ele>968</ele>
        <time>2021-05-29T06:41:29Z</time>
      </trkpt>
      <trkpt lat="45.02248" lon="5.72138">
        <ele>968.4</ele>
        <time>2021-05-29T06:41:30Z</time>
      </trkpt>
      <trkpt lat="45.02249" lon="5.72139">
        <ele>968.6</ele>
        <time>2021-05-29T06:41:31Z</time>
      </trkpt>
      <trkpt lat="45.02249" lon="5.7214">
        <ele>968.8</ele>
        <time>2021-05-29T06:41:32Z</time>
      </trkpt>
      <trkpt lat="45.0225" lon="5.7214">
        <ele>969.2</ele>
        <time>2021-05-29T06:41:33Z</time>
      </trkpt>
      <trkpt lat="45.02251" lon="5.72141">
        <ele>969</ele>
        <time>2021-05-29T06:41:34Z</time>
      </trkpt>
      <trkpt lat="45.02252" lon="5.72141">
        <ele>969.2</ele>
        <time>2021-05-29T06:41:35Z</time>
      </trkpt>
      <trkpt lat="45.02252" lon="5.72142">
        <ele>969.4</ele>
        <time>2021-05-29T06:41:36Z</time>
      </trkpt>
      <trkpt lat="45.02253" lon="5.72143">
        <ele>969.6</ele>
        <time>2021-05-29T06:41:37Z</time>
      </trkpt>
      <trkpt lat="45.02254" lon="5.72143">
        <ele>969.8</ele>
        <time>2021-05-29T06:41:38Z</time>
      </trkpt>
      <trkpt lat="45.02255" lon="5.72144">
        <ele>970</ele>
        <time>2021-05-29T06:41:39Z</time>
      </trkpt>
      <trkpt lat="45.02257" lon="5.72145">
        <ele>970.2</ele>
        <time>2021-05-29T06:41:40Z</time>
      </trkpt>
      <trkpt lat="45.02259" lon="5.72147">
        <ele>970.4</ele>
        <time>2021-05-29T06:41:41Z</time>
      </trkpt>
      <trkpt lat="45.0226" lon="5.72148">
        <ele>970.8</ele>
        <time>2021-05-29T06:41:42Z</time>
      </trkpt>
      <trkpt lat="45.02262" lon="5.72149">
        <ele>970.8</ele>
        <time>2021-05-29T06:41:43Z</time>
      </trkpt>
      <trkpt lat="45.02263" lon="5.7215">
        <ele>971</ele>
        <time>2021-05-29T06:41:44Z</time>
      </trkpt>
      <trkpt lat="45.02264" lon="5.72151">
        <ele>971.2</ele>
        <time>2021-05-29T06:41:45Z</time>
      </trkpt>
      <trkpt lat="45.02265" lon="5.72152">
        <ele>971.4</ele>
        <time>2021-05-29T06:41:46Z</time>
      </trkpt>
      <trkpt lat="45.02265" lon="5.72153">
        <ele>971.4</ele>
        <time>2021-05-29T06:41:47Z</time>
      </trkpt>
      <trkpt lat="45.02266" lon="5.72154">
        <ele>971.4</ele>
        <time>2021-05-29T06:41:48Z</time>
      </trkpt>
      <trkpt lat="45.02267" lon="5.72155">
        <ele>971.8</ele>
        <time>2021-05-29T06:41:49Z</time>
      </trkpt>
      <trkpt lat="45.02267" lon="5.72156">
        <ele>971.8</ele>
        <time>2021-05-29T06:41:50Z</time>
      </trkpt>
      <trkpt lat="45.02268" lon="5.72158">
        <ele>972.2</ele>
        <time>2021-05-29T06:41:51Z</time>
      </trkpt>
      <trkpt lat="45.02269" lon="5.72159">
        <ele>972.2</ele>
        <time>2021-05-29T06:41:52Z</time>
      </trkpt>
      <trkpt lat="45.0227" lon="5.7216">
        <ele>972.6</ele>
        <time>2021-05-29T06:41:53Z</time>
      </trkpt>
      <trkpt lat="45.02271" lon="5.72161">
        <ele>972.8</ele>
        <time>2021-05-29T06:41:54Z</time>
      </trkpt>
      <trkpt lat="45.02272" lon="5.72163">
        <ele>973</ele>
        <time>2021-05-29T06:41:55Z</time>
      </trkpt>
      <trkpt lat="45.02273" lon="5.72164">
        <ele>973.4</ele>
        <time>2021-05-29T06:41:56Z</time>
      </trkpt>
      <trkpt lat="45.02274" lon="5.72166">
        <ele>973.4</ele>
        <time>2021-05-29T06:41:57Z</time>
      </trkpt>
      <trkpt lat="45.02275" lon="5.72167">
        <ele>973.6</ele>
        <time>2021-05-29T06:41:58Z</time>
      </trkpt>
      <trkpt lat="45.02276" lon="5.72169">
        <ele>973.6</ele>
        <time>2021-05-29T06:41:59Z</time>
      </trkpt>
      <trkpt lat="45.02277" lon="5.7217">
        <ele>973.6</ele>
        <time>2021-05-29T06:42:00Z</time>
      </trkpt>
      <trkpt lat="45.02278" lon="5.7217">
        <ele>973.8</ele>
        <time>2021-05-29T06:42:01Z</time>
      </trkpt>
      <trkpt lat="45.02279" lon="5.72171">
        <ele>973.8</ele>
        <time>2021-05-29T06:42:02Z</time>
      </trkpt>
      <trkpt lat="45.0228" lon="5.72172">
        <ele>974</ele>
        <time>2021-05-29T06:42:03Z</time>
      </trkpt>
      <trkpt lat="45.02281" lon="5.72172">
        <ele>974.4</ele>
        <time>2021-05-29T06:42:04Z</time>
      </trkpt>
      <trkpt lat="45.02282" lon="5.72173">
        <ele>974.8</ele>
        <time>2021-05-29T06:42:05Z</time>
      </trkpt>
      <trkpt lat="45.02283" lon="5.72174">
        <ele>975</ele>
        <time>2021-05-29T06:42:06Z</time>
      </trkpt>
      <trkpt lat="45.02284" lon="5.72175">
        <ele>975.2</ele>
        <time>2021-05-29T06:42:07Z</time>
      </trkpt>
      <trkpt lat="45.02286" lon="5.72175">
        <ele>975.4</ele>
        <time>2021-05-29T06:42:08Z</time>
      </trkpt>
      <trkpt lat="45.02287" lon="5.72176">
        <ele>975.4</ele>
        <time>2021-05-29T06:42:09Z</time>
      </trkpt>
      <trkpt lat="45.02288" lon="5.72176">
        <ele>975.6</ele>
        <time>2021-05-29T06:42:10Z</time>
      </trkpt>
      <trkpt lat="45.02289" lon="5.72177">
        <ele>975.8</ele>
        <time>2021-05-29T06:42:11Z</time>
      </trkpt>
      <trkpt lat="45.0229" lon="5.72178">
        <ele>976</ele>
        <time>2021-05-29T06:42:12Z</time>
      </trkpt>
      <trkpt lat="45.02291" lon="5.72178">
        <ele>976</ele>
        <time>2021-05-29T06:42:13Z</time>
      </trkpt>
      <trkpt lat="45.02292" lon="5.72179">
        <ele>976</ele>
        <time>2021-05-29T06:42:14Z</time>
      </trkpt>
      <trkpt lat="45.02293" lon="5.7218">
        <ele>976.2</ele>
        <time>2021-05-29T06:42:15Z</time>
      </trkpt>
      <trkpt lat="45.02295" lon="5.7218">
        <ele>976.6</ele>
        <time>2021-05-29T06:42:16Z</time>
      </trkpt>
      <trkpt lat="45.02296" lon="5.72181">
        <ele>976.8</ele>
        <time>2021-05-29T06:42:17Z</time>
      </trkpt>
      <trkpt lat="45.02297" lon="5.72182">
        <ele>977</ele>
        <time>2021-05-29T06:42:18Z</time>
      </trkpt>
      <trkpt lat="45.02298" lon="5.72183">
        <ele>977</ele>
        <time>2021-05-29T06:42:19Z</time>
      </trkpt>
      <trkpt lat="45.02299" lon="5.72183">
        <ele>977</ele>
        <time>2021-05-29T06:42:20Z</time>
      </trkpt>
      <trkpt lat="45.023" lon="5.72184">
        <ele>977.2</ele>
        <time>2021-05-29T06:42:21Z</time>
      </trkpt>
      <trkpt lat="45.02301" lon="5.72185">
        <ele>977.4</ele>
        <time>2021-05-29T06:42:22Z</time>
      </trkpt>
      <trkpt lat="45.02302" lon="5.72186">
        <ele>977.6</ele>
        <time>2021-05-29T06:42:23Z</time>
      </trkpt>
      <trkpt lat="45.02303" lon="5.72187">
        <ele>977.8</ele>
        <time>2021-05-29T06:42:24Z</time>
      </trkpt>
      <trkpt lat="45.02305" lon="5.72188">
        <ele>978</ele>
        <time>2021-05-29T06:42:25Z</time>
      </trkpt>
      <trkpt lat="45.02306" lon="5.7219">
        <ele>978.4</ele>
        <time>2021-05-29T06:42:26Z</time>
      </trkpt>
      <trkpt lat="45.02307" lon="5.72191">
        <ele>978.6</ele>
        <time>2021-05-29T06:42:27Z</time>
      </trkpt>
      <trkpt lat="45.02308" lon="5.72192">
        <ele>978.6</ele>
        <time>2021-05-29T06:42:28Z</time>
      </trkpt>
      <trkpt lat="45.02309" lon="5.72193">
        <ele>978.8</ele>
        <time>2021-05-29T06:42:29Z</time>
      </trkpt>
      <trkpt lat="45.0231" lon="5.72195">
        <ele>978.8</ele>
        <time>2021-05-29T06:42:30Z</time>
      </trkpt>
      <trkpt lat="45.02311" lon="5.72196">
        <ele>979</ele>
        <time>2021-05-29T06:42:31Z</time>
      </trkpt>
      <trkpt lat="45.02312" lon="5.72197">
        <ele>979.6</ele>
        <time>2021-05-29T06:42:32Z</time>
      </trkpt>
      <trkpt lat="45.02312" lon="5.72198">
        <ele>979.8</ele>
        <time>2021-05-29T06:42:33Z</time>
      </trkpt>
      <trkpt lat="45.02313" lon="5.722">
        <ele>980</ele>
        <time>2021-05-29T06:42:34Z</time>
      </trkpt>
      <trkpt lat="45.02313" lon="5.72201">
        <ele>980.2</ele>
        <time>2021-05-29T06:42:35Z</time>
      </trkpt>
      <trkpt lat="45.02314" lon="5.72202">
        <ele>980.2</ele>
        <time>2021-05-29T06:42:36Z</time>
      </trkpt>
      <trkpt lat="45.02314" lon="5.72203">
        <ele>980.4</ele>
        <time>2021-05-29T06:42:37Z</time>
      </trkpt>
      <trkpt lat="45.02315" lon="5.72204">
        <ele>980.4</ele>
        <time>2021-05-29T06:42:38Z</time>
      </trkpt>
      <trkpt lat="45.02315" lon="5.72206">
        <ele>980.8</ele>
        <time>2021-05-29T06:42:39Z</time>
      </trkpt>
      <trkpt lat="45.02316" lon="5.72207">
        <ele>981</ele>
        <time>2021-05-29T06:42:40Z</time>
      </trkpt>
      <trkpt lat="45.02317" lon="5.72208">
        <ele>981.2</ele>
        <time>2021-05-29T06:42:41Z</time>
      </trkpt>
      <trkpt lat="45.02318" lon="5.72209">
        <ele>981.2</ele>
        <time>2021-05-29T06:42:42Z</time>
      </trkpt>
      <trkpt lat="45.02319" lon="5.7221">
        <ele>981.4</ele>
        <time>2021-05-29T06:42:43Z</time>
      </trkpt>
      <trkpt lat="45.0232" lon="5.72212">
        <ele>981.6</ele>
        <time>2021-05-29T06:42:44Z</time>
      </trkpt>
      <trkpt lat="45.02321" lon="5.72213">
        <ele>981.8</ele>
        <time>2021-05-29T06:42:45Z</time>
      </trkpt>
      <trkpt lat="45.02322" lon="5.72214">
        <ele>982</ele>
        <time>2021-05-29T06:42:46Z</time>
      </trkpt>
      <trkpt lat="45.02323" lon="5.72215">
        <ele>982.4</ele>
        <time>2021-05-29T06:42:47Z</time>
      </trkpt>
      <trkpt lat="45.02324" lon="5.72217">
        <ele>982.6</ele>
        <time>2021-05-29T06:42:48Z</time>
      </trkpt>
      <trkpt lat="45.02325" lon="5.72218">
        <ele>982.8</ele>
        <time>2021-05-29T06:42:49Z</time>
      </trkpt>
      <trkpt lat="45.02326" lon="5.72219">
        <ele>982.8</ele>
        <time>2021-05-29T06:42:50Z</time>
      </trkpt>
      <trkpt lat="45.02327" lon="5.7222">
        <ele>983</ele>
        <time>2021-05-29T06:42:51Z</time>
      </trkpt>
      <trkpt lat="45.02328" lon="5.72222">
        <ele>983.2</ele>
        <time>2021-05-29T06:42:52Z</time>
      </trkpt>
      <trkpt lat="45.02329" lon="5.72223">
        <ele>983.4</ele>
        <time>2021-05-29T06:42:53Z</time>
      </trkpt>
      <trkpt lat="45.0233" lon="5.72224">
        <ele>983.4</ele>
        <time>2021-05-29T06:42:54Z</time>
      </trkpt>
      <trkpt lat="45.02331" lon="5.72225">
        <ele>983.6</ele>
        <time>2021-05-29T06:42:55Z</time>
      </trkpt>
      <trkpt lat="45.02332" lon="5.72227">
        <ele>984</ele>
        <time>2021-05-29T06:42:56Z</time>
      </trkpt>
      <trkpt lat="45.02332" lon="5.72228">
        <ele>984</ele>
        <time>2021-05-29T06:42:57Z</time>
      </trkpt>
      <trkpt lat="45.02333" lon="5.72229">
        <ele>984.2</ele>
        <time>2021-05-29T06:42:58Z</time>
      </trkpt>
      <trkpt lat="45.02333" lon="5.7223">
        <ele>984.4</ele>
        <time>2021-05-29T06:42:59Z</time>
      </trkpt>
      <trkpt lat="45.02334" lon="5.72232">
        <ele>984.6</ele>
        <time>2021-05-29T06:43:00Z</time>
      </trkpt>
      <trkpt lat="45.02334" lon="5.72233">
        <ele>985</ele>
        <time>2021-05-29T06:43:01Z</time>
      </trkpt>
      <trkpt lat="45.02335" lon="5.72234">
        <ele>985</ele>
        <time>2021-05-29T06:43:02Z</time>
      </trkpt>
      <trkpt lat="45.02336" lon="5.72235">
        <ele>985.2</ele>
        <time>2021-05-29T06:43:03Z</time>
      </trkpt>
      <trkpt lat="45.02337" lon="5.72237">
        <ele>985.4</ele>
        <time>2021-05-29T06:43:04Z</time>
      </trkpt>
      <trkpt lat="45.02338" lon="5.72238">
        <ele>985.4</ele>
        <time>2021-05-29T06:43:05Z</time>
      </trkpt>
      <trkpt lat="45.02339" lon="5.7224">
        <ele>985.6</ele>
        <time>2021-05-29T06:43:06Z</time>
      </trkpt>
      <trkpt lat="45.0234" lon="5.72241">
        <ele>985.8</ele>
        <time>2021-05-29T06:43:07Z</time>
      </trkpt>
      <trkpt lat="45.02341" lon="5.72242">
        <ele>985.8</ele>
        <time>2021-05-29T06:43:08Z</time>
      </trkpt>
      <trkpt lat="45.02342" lon="5.72244">
        <ele>986.2</ele>
        <time>2021-05-29T06:43:09Z</time>
      </trkpt>
      <trkpt lat="45.02343" lon="5.72245">
        <ele>986.4</ele>
        <time>2021-05-29T06:43:10Z</time>
      </trkpt>
      <trkpt lat="45.02344" lon="5.72246">
        <ele>986.8</ele>
        <time>2021-05-29T06:43:11Z</time>
      </trkpt>
      <trkpt lat="45.02344" lon="5.72247">
        <ele>986.8</ele>
        <time>2021-05-29T06:43:12Z</time>
      </trkpt>
      <trkpt lat="45.02345" lon="5.72248">
        <ele>987</ele>
        <time>2021-05-29T06:43:13Z</time>
      </trkpt>
      <trkpt lat="45.02346" lon="5.7225">
        <ele>987.2</ele>
        <time>2021-05-29T06:43:14Z</time>
      </trkpt>
      <trkpt lat="45.02347" lon="5.72251">
        <ele>987.2</ele>
        <time>2021-05-29T06:43:15Z</time>
      </trkpt>
      <trkpt lat="45.02348" lon="5.72252">
        <ele>987.2</ele>
        <time>2021-05-29T06:43:16Z</time>
      </trkpt>
      <trkpt lat="45.02349" lon="5.72253">
        <ele>987.4</ele>
        <time>2021-05-29T06:43:17Z</time>
      </trkpt>
      <trkpt lat="45.02349" lon="5.72254">
        <ele>987.4</ele>
        <time>2021-05-29T06:43:18Z</time>
      </trkpt>
      <trkpt lat="45.0235" lon="5.72255">
        <ele>987.6</ele>
        <time>2021-05-29T06:43:19Z</time>
      </trkpt>
      <trkpt lat="45.02351" lon="5.72256">
        <ele>987.8</ele>
        <time>2021-05-29T06:43:20Z</time>
      </trkpt>
      <trkpt lat="45.02352" lon="5.72257">
        <ele>988</ele>
        <time>2021-05-29T06:43:21Z</time>
      </trkpt>
      <trkpt lat="45.02352" lon="5.72258">
        <ele>988</ele>
        <time>2021-05-29T06:43:22Z</time>
      </trkpt>
      <trkpt lat="45.02353" lon="5.7226">
        <ele>988.2</ele>
        <time>2021-05-29T06:43:23Z</time>
      </trkpt>
      <trkpt lat="45.02354" lon="5.72261">
        <ele>988.4</ele>
        <time>2021-05-29T06:43:24Z</time>
      </trkpt>
      <trkpt lat="45.02355" lon="5.72262">
        <ele>988.6</ele>
        <time>2021-05-29T06:43:25Z</time>
      </trkpt>
      <trkpt lat="45.02355" lon="5.72263">
        <ele>988.6</ele>
        <time>2021-05-29T06:43:26Z</time>
      </trkpt>
      <trkpt lat="45.02356" lon="5.72265">
        <ele>988.8</ele>
        <time>2021-05-29T06:43:27Z</time>
      </trkpt>
      <trkpt lat="45.02357" lon="5.72265">
        <ele>989</ele>
        <time>2021-05-29T06:43:28Z</time>
      </trkpt>
      <trkpt lat="45.02358" lon="5.72266">
        <ele>989</ele>
        <time>2021-05-29T06:43:29Z</time>
      </trkpt>
      <trkpt lat="45.02359" lon="5.72267">
        <ele>989.2</ele>
        <time>2021-05-29T06:43:30Z</time>
      </trkpt>
      <trkpt lat="45.0236" lon="5.72267">
        <ele>989.2</ele>
        <time>2021-05-29T06:43:31Z</time>
      </trkpt>
      <trkpt lat="45.0236" lon="5.72268">
        <ele>989.6</ele>
        <time>2021-05-29T06:43:32Z</time>
      </trkpt>
      <trkpt lat="45.02361" lon="5.72269">
        <ele>989.6</ele>
        <time>2021-05-29T06:43:33Z</time>
      </trkpt>
      <trkpt lat="45.02362" lon="5.7227">
        <ele>989.8</ele>
        <time>2021-05-29T06:43:34Z</time>
      </trkpt>
      <trkpt lat="45.02363" lon="5.7227">
        <ele>990</ele>
        <time>2021-05-29T06:43:35Z</time>
      </trkpt>
      <trkpt lat="45.02364" lon="5.72271">
        <ele>990.4</ele>
        <time>2021-05-29T06:43:36Z</time>
      </trkpt>
      <trkpt lat="45.02365" lon="5.72272">
        <ele>990.8</ele>
        <time>2021-05-29T06:43:37Z</time>
      </trkpt>
      <trkpt lat="45.02367" lon="5.72272">
        <ele>990.8</ele>
        <time>2021-05-29T06:43:38Z</time>
      </trkpt>
      <trkpt lat="45.02369" lon="5.72273">
        <ele>991.2</ele>
        <time>2021-05-29T06:43:39Z</time>
      </trkpt>
      <trkpt lat="45.02371" lon="5.72273">
        <ele>991.4</ele>
        <time>2021-05-29T06:43:40Z</time>
      </trkpt>
      <trkpt lat="45.02374" lon="5.72273">
        <ele>991.6</ele>
        <time>2021-05-29T06:43:41Z</time>
      </trkpt>
      <trkpt lat="45.02374" lon="5.72276">
        <ele>992</ele>
        <time>2021-05-29T06:43:42Z</time>
      </trkpt>
      <trkpt lat="45.02375" lon="5.72279">
        <ele>992.2</ele>
        <time>2021-05-29T06:43:43Z</time>
      </trkpt>
      <trkpt lat="45.02375" lon="5.72281">
        <ele>992.4</ele>
        <time>2021-05-29T06:43:44Z</time>
      </trkpt>
      <trkpt lat="45.02376" lon="5.72284">
        <ele>992.6</ele>
        <time>2021-05-29T06:43:45Z</time>
      </trkpt>
      <trkpt lat="45.02376" lon="5.72286">
        <ele>993</ele>
        <time>2021-05-29T06:43:46Z</time>
      </trkpt>
      <trkpt lat="45.02376" lon="5.72288">
        <ele>993.2</ele>
        <time>2021-05-29T06:43:47Z</time>
      </trkpt>
      <trkpt lat="45.02376" lon="5.72291">
        <ele>993.4</ele>
        <time>2021-05-29T06:43:48Z</time>
      </trkpt>
      <trkpt lat="45.02377" lon="5.72293">
        <ele>993.6</ele>
        <time>2021-05-29T06:43:49Z</time>
      </trkpt>
      <trkpt lat="45.02377" lon="5.72295">
        <ele>993.8</ele>
        <time>2021-05-29T06:43:50Z</time>
      </trkpt>
      <trkpt lat="45.02377" lon="5.72297">
        <ele>994</ele>
        <time>2021-05-29T06:43:51Z</time>
      </trkpt>
      <trkpt lat="45.02377" lon="5.72299">
        <ele>994.2</ele>
        <time>2021-05-29T06:43:52Z</time>
      </trkpt>
      <trkpt lat="45.02378" lon="5.72301">
        <ele>994.4</ele>
        <time>2021-05-29T06:43:53Z</time>
      </trkpt>
      <trkpt lat="45.0238" lon="5.72303">
        <ele>994.6</ele>
        <time>2021-05-29T06:43:54Z</time>
      </trkpt>
      <trkpt lat="45.02381" lon="5.72304">
        <ele>994.8</ele>
        <time>2021-05-29T06:43:55Z</time>
      </trkpt>
      <trkpt lat="45.02383" lon="5.72306">
        <ele>994.8</ele>
        <time>2021-05-29T06:43:56Z</time>
      </trkpt>
      <trkpt lat="45.02384" lon="5.72307">
        <ele>995</ele>
        <time>2021-05-29T06:43:57Z</time>
      </trkpt>
      <trkpt lat="45.02386" lon="5.72309">
        <ele>995.2</ele>
        <time>2021-05-29T06:43:58Z</time>
      </trkpt>
      <trkpt lat="45.02386" lon="5.72311">
        <ele>995.4</ele>
        <time>2021-05-29T06:43:59Z</time>
      </trkpt>
      <trkpt lat="45.02387" lon="5.72313">
        <ele>995.4</ele>
        <time>2021-05-29T06:44:00Z</time>
      </trkpt>
      <trkpt lat="45.02388" lon="5.72314">
        <ele>995.4</ele>
        <time>2021-05-29T06:44:01Z</time>
      </trkpt>
      <trkpt lat="45.02388" lon="5.72316">
        <ele>995.6</ele>
        <time>2021-05-29T06:44:02Z</time>
      </trkpt>
      <trkpt lat="45.02389" lon="5.72318">
        <ele>995.8</ele>
        <time>2021-05-29T06:44:03Z</time>
      </trkpt>
      <trkpt lat="45.0239" lon="5.7232">
        <ele>996</ele>
        <time>2021-05-29T06:44:04Z</time>
      </trkpt>
      <trkpt lat="45.0239" lon="5.72322">
        <ele>996</ele>
        <time>2021-05-29T06:44:05Z</time>
      </trkpt>
      <trkpt lat="45.02391" lon="5.72323">
        <ele>996.4</ele>
        <time>2021-05-29T06:44:06Z</time>
      </trkpt>
      <trkpt lat="45.02392" lon="5.72325">
        <ele>996.6</ele>
        <time>2021-05-29T06:44:07Z</time>
      </trkpt>
      <trkpt lat="45.02394" lon="5.72326">
        <ele>996.6</ele>
        <time>2021-05-29T06:44:08Z</time>
      </trkpt>
      <trkpt lat="45.02395" lon="5.72328">
        <ele>997</ele>
        <time>2021-05-29T06:44:09Z</time>
      </trkpt>
      <trkpt lat="45.02396" lon="5.7233">
        <ele>997.2</ele>
        <time>2021-05-29T06:44:10Z</time>
      </trkpt>
      <trkpt lat="45.02397" lon="5.72331">
        <ele>997.6</ele>
        <time>2021-05-29T06:44:11Z</time>
      </trkpt>
      <trkpt lat="45.02396" lon="5.72333">
        <ele>997.8</ele>
        <time>2021-05-29T06:44:12Z</time>
      </trkpt>
      <trkpt lat="45.02395" lon="5.72334">
        <ele>998.2</ele>
        <time>2021-05-29T06:44:13Z</time>
      </trkpt>
      <trkpt lat="45.02394" lon="5.72336">
        <ele>998.4</ele>
        <time>2021-05-29T06:44:14Z</time>
      </trkpt>
      <trkpt lat="45.02393" lon="5.72337">
        <ele>998.6</ele>
        <time>2021-05-29T06:44:15Z</time>
      </trkpt>
      <trkpt lat="45.02392" lon="5.72338">
        <ele>998.8</ele>
        <time>2021-05-29T06:44:16Z</time>
      </trkpt>
      <trkpt lat="45.02392" lon="5.7234">
        <ele>999</ele>
        <time>2021-05-29T06:44:17Z</time>
      </trkpt>
      <trkpt lat="45.02391" lon="5.72341">
        <ele>999.4</ele>
        <time>2021-05-29T06:44:18Z</time>
      </trkpt>
      <trkpt lat="45.02391" lon="5.72342">
        <ele>999.8</ele>
        <time>2021-05-29T06:44:19Z</time>
      </trkpt>
      <trkpt lat="45.02391" lon="5.72344">
        <ele>1000.2</ele>
        <time>2021-05-29T06:44:20Z</time>
      </trkpt>
      <trkpt lat="45.02392" lon="5.72345">
        <ele>1000.4</ele>
        <time>2021-05-29T06:44:21Z</time>
      </trkpt>
      <trkpt lat="45.02392" lon="5.72347">
        <ele>1000.8</ele>
        <time>2021-05-29T06:44:22Z</time>
      </trkpt>
      <trkpt lat="45.02392" lon="5.72348">
        <ele>1001.2</ele>
        <time>2021-05-29T06:44:23Z</time>
      </trkpt>
      <trkpt lat="45.02392" lon="5.72349">
        <ele>1001.4</ele>
        <time>2021-05-29T06:44:24Z</time>
      </trkpt>
      <trkpt lat="45.02393" lon="5.72351">
        <ele>1001.2</ele>
        <time>2021-05-29T06:44:25Z</time>
      </trkpt>
      <trkpt lat="45.02393" lon="5.72352">
        <ele>1001</ele>
        <time>2021-05-29T06:44:26Z</time>
      </trkpt>
      <trkpt lat="45.02393" lon="5.72354">
        <ele>1001.2</ele>
        <time>2021-05-29T06:44:27Z</time>
      </trkpt>
      <trkpt lat="45.02393" lon="5.72355">
        <ele>1001.4</ele>
        <time>2021-05-29T06:44:28Z</time>
      </trkpt>
      <trkpt lat="45.02394" lon="5.72356">
        <ele>1001.6</ele>
        <time>2021-05-29T06:44:29Z</time>
      </trkpt>
      <trkpt lat="45.02395" lon="5.72358">
        <ele>1001.6</ele>
        <time>2021-05-29T06:44:30Z</time>
      </trkpt>
      <trkpt lat="45.02397" lon="5.72359">
        <ele>1001.6</ele>
        <time>2021-05-29T06:44:31Z</time>
      </trkpt>
      <trkpt lat="45.02398" lon="5.7236">
        <ele>1002</ele>
        <time>2021-05-29T06:44:32Z</time>
      </trkpt>
      <trkpt lat="45.02399" lon="5.72362">
        <ele>1002.2</ele>
        <time>2021-05-29T06:44:33Z</time>
      </trkpt>
      <trkpt lat="45.024" lon="5.72363">
        <ele>1002.4</ele>
        <time>2021-05-29T06:44:34Z</time>
      </trkpt>
      <trkpt lat="45.02401" lon="5.72364">
        <ele>1002.4</ele>
        <time>2021-05-29T06:44:35Z</time>
      </trkpt>
      <trkpt lat="45.02401" lon="5.72366">
        <ele>1002.4</ele>
        <time>2021-05-29T06:44:36Z</time>
      </trkpt>
      <trkpt lat="45.02402" lon="5.72367">
        <ele>1002.4</ele>
        <time>2021-05-29T06:44:37Z</time>
      </trkpt>
      <trkpt lat="45.02403" lon="5.72368">
        <ele>1002.6</ele>
        <time>2021-05-29T06:44:38Z</time>
      </trkpt>
      <trkpt lat="45.02404" lon="5.72369">
        <ele>1003</ele>
        <time>2021-05-29T06:44:39Z</time>
      </trkpt>
      <trkpt lat="45.02404" lon="5.72371">
        <ele>1003.2</ele>
        <time>2021-05-29T06:44:40Z</time>
      </trkpt>
      <trkpt lat="45.02405" lon="5.72372">
        <ele>1003.4</ele>
        <time>2021-05-29T06:44:41Z</time>
      </trkpt>
      <trkpt lat="45.02406" lon="5.72373">
        <ele>1003.6</ele>
        <time>2021-05-29T06:44:42Z</time>
      </trkpt>
      <trkpt lat="45.02406" lon="5.72375">
        <ele>1003.6</ele>
        <time>2021-05-29T06:44:43Z</time>
      </trkpt>
      <trkpt lat="45.02408" lon="5.72375">
        <ele>1003.8</ele>
        <time>2021-05-29T06:44:44Z</time>
      </trkpt>
      <trkpt lat="45.0241" lon="5.72376">
        <ele>1004</ele>
        <time>2021-05-29T06:44:45Z</time>
      </trkpt>
      <trkpt lat="45.02411" lon="5.72377">
        <ele>1004.2</ele>
        <time>2021-05-29T06:44:46Z</time>
      </trkpt>
      <trkpt lat="45.02413" lon="5.72377">
        <ele>1004.4</ele>
        <time>2021-05-29T06:44:47Z</time>
      </trkpt>
      <trkpt lat="45.02415" lon="5.72378">
        <ele>1004.8</ele>
        <time>2021-05-29T06:44:48Z</time>
      </trkpt>
      <trkpt lat="45.02416" lon="5.72378">
        <ele>1005</ele>
        <time>2021-05-29T06:44:49Z</time>
      </trkpt>
      <trkpt lat="45.02417" lon="5.7238">
        <ele>1005.2</ele>
        <time>2021-05-29T06:44:50Z</time>
      </trkpt>
      <trkpt lat="45.02418" lon="5.72381">
        <ele>1005.2</ele>
        <time>2021-05-29T06:44:51Z</time>
      </trkpt>
      <trkpt lat="45.02419" lon="5.72382">
        <ele>1005.4</ele>
        <time>2021-05-29T06:44:52Z</time>
      </trkpt>
      <trkpt lat="45.0242" lon="5.72383">
        <ele>1005.4</ele>
        <time>2021-05-29T06:44:53Z</time>
      </trkpt>
      <trkpt lat="45.02421" lon="5.72384">
        <ele>1005.4</ele>
        <time>2021-05-29T06:44:54Z</time>
      </trkpt>
      <trkpt lat="45.02423" lon="5.72385">
        <ele>1005.6</ele>
        <time>2021-05-29T06:44:55Z</time>
      </trkpt>
      <trkpt lat="45.02424" lon="5.72386">
        <ele>1005.6</ele>
        <time>2021-05-29T06:44:56Z</time>
      </trkpt>
      <trkpt lat="45.02426" lon="5.72386">
        <ele>1006</ele>
        <time>2021-05-29T06:44:57Z</time>
      </trkpt>
      <trkpt lat="45.02428" lon="5.72386">
        <ele>1006.2</ele>
        <time>2021-05-29T06:44:58Z</time>
      </trkpt>
      <trkpt lat="45.0243" lon="5.72385">
        <ele>1006.4</ele>
        <time>2021-05-29T06:44:59Z</time>
      </trkpt>
      <trkpt lat="45.02432" lon="5.72385">
        <ele>1006.8</ele>
        <time>2021-05-29T06:45:00Z</time>
      </trkpt>
      <trkpt lat="45.02435" lon="5.72384">
        <ele>1007</ele>
        <time>2021-05-29T06:45:01Z</time>
      </trkpt>
      <trkpt lat="45.02437" lon="5.72384">
        <ele>1007.2</ele>
        <time>2021-05-29T06:45:02Z</time>
      </trkpt>
      <trkpt lat="45.02439" lon="5.72384">
        <ele>1007.4</ele>
        <time>2021-05-29T06:45:03Z</time>
      </trkpt>
      <trkpt lat="45.02442" lon="5.72384">
        <ele>1007.4</ele>
        <time>2021-05-29T06:45:04Z</time>
      </trkpt>
      <trkpt lat="45.02444" lon="5.72384">
        <ele>1007.6</ele>
        <time>2021-05-29T06:45:05Z</time>
      </trkpt>
      <trkpt lat="45.02446" lon="5.72384">
        <ele>1007.8</ele>
        <time>2021-05-29T06:45:06Z</time>
      </trkpt>
      <trkpt lat="45.02448" lon="5.72385">
        <ele>1008</ele>
        <time>2021-05-29T06:45:07Z</time>
      </trkpt>
      <trkpt lat="45.0245" lon="5.72386">
        <ele>1008.2</ele>
        <time>2021-05-29T06:45:08Z</time>
      </trkpt>
      <trkpt lat="45.02451" lon="5.72387">
        <ele>1008.4</ele>
        <time>2021-05-29T06:45:09Z</time>
      </trkpt>
      <trkpt lat="45.02453" lon="5.72387">
        <ele>1008.8</ele>
        <time>2021-05-29T06:45:10Z</time>
      </trkpt>
      <trkpt lat="45.02454" lon="5.72388">
        <ele>1008.8</ele>
        <time>2021-05-29T06:45:11Z</time>
      </trkpt>
      <trkpt lat="45.02454" lon="5.72389">
        <ele>1009</ele>
        <time>2021-05-29T06:45:12Z</time>
      </trkpt>
      <trkpt lat="45.02455" lon="5.72389">
        <ele>1009.2</ele>
        <time>2021-05-29T06:45:13Z</time>
      </trkpt>
      <trkpt lat="45.02456" lon="5.7239">
        <ele>1009.2</ele>
        <time>2021-05-29T06:45:14Z</time>
      </trkpt>
      <trkpt lat="45.02456" lon="5.7239">
        <ele>1009.6</ele>
        <time>2021-05-29T06:45:15Z</time>
      </trkpt>
      <trkpt lat="45.02457" lon="5.72391">
        <ele>1009.8</ele>
        <time>2021-05-29T06:45:16Z</time>
      </trkpt>
      <trkpt lat="45.02458" lon="5.72392">
        <ele>1009.8</ele>
        <time>2021-05-29T06:45:17Z</time>
      </trkpt>
      <trkpt lat="45.02458" lon="5.72392">
        <ele>1010</ele>
        <time>2021-05-29T06:45:18Z</time>
      </trkpt>
      <trkpt lat="45.02459" lon="5.72393">
        <ele>1010</ele>
        <time>2021-05-29T06:45:19Z</time>
      </trkpt>
      <trkpt lat="45.0246" lon="5.72393">
        <ele>1010</ele>
        <time>2021-05-29T06:45:20Z</time>
      </trkpt>
      <trkpt lat="45.0246" lon="5.72394">
        <ele>1010.4</ele>
        <time>2021-05-29T06:45:21Z</time>
      </trkpt>
      <trkpt lat="45.02461" lon="5.72395">
        <ele>1010.6</ele>
        <time>2021-05-29T06:45:22Z</time>
      </trkpt>
      <trkpt lat="45.02461" lon="5.72396">
        <ele>1010.6</ele>
        <time>2021-05-29T06:45:23Z</time>
      </trkpt>
      <trkpt lat="45.02462" lon="5.72397">
        <ele>1010.8</ele>
        <time>2021-05-29T06:45:24Z</time>
      </trkpt>
      <trkpt lat="45.02462" lon="5.72398">
        <ele>1011</ele>
        <time>2021-05-29T06:45:25Z</time>
      </trkpt>
      <trkpt lat="45.02463" lon="5.72399">
        <ele>1011</ele>
        <time>2021-05-29T06:45:26Z</time>
      </trkpt>
      <trkpt lat="45.02463" lon="5.724">
        <ele>1011</ele>
        <time>2021-05-29T06:45:27Z</time>
      </trkpt>
      <trkpt lat="45.02464" lon="5.724">
        <ele>1011.2</ele>
        <time>2021-05-29T06:45:28Z</time>
      </trkpt>
      <trkpt lat="45.02464" lon="5.72401">
        <ele>1011.4</ele>
        <time>2021-05-29T06:45:29Z</time>
      </trkpt>
      <trkpt lat="45.02464" lon="5.72402">
        <ele>1011.6</ele>
        <time>2021-05-29T06:45:30Z</time>
      </trkpt>
      <trkpt lat="45.02465" lon="5.72403">
        <ele>1012</ele>
        <time>2021-05-29T06:45:31Z</time>
      </trkpt>
      <trkpt lat="45.02465" lon="5.72404">
        <ele>1012.2</ele>
        <time>2021-05-29T06:45:32Z</time>
      </trkpt>
      <trkpt lat="45.02466" lon="5.72405">
        <ele>1012.4</ele>
        <time>2021-05-29T06:45:33Z</time>
      </trkpt>
      <trkpt lat="45.02466" lon="5.72406">
        <ele>1012.8</ele>
        <time>2021-05-29T06:45:34Z</time>
      </trkpt>
      <trkpt lat="45.02465" lon="5.7241">
        <ele>1013</ele>
        <time>2021-05-29T06:45:35Z</time>
      </trkpt>
      <trkpt lat="45.02463" lon="5.72414">
        <ele>1013.2</ele>
        <time>2021-05-29T06:45:36Z</time>
      </trkpt>
      <trkpt lat="45.02462" lon="5.72419">
        <ele>1013.2</ele>
        <time>2021-05-29T06:45:37Z</time>
      </trkpt>
      <trkpt lat="45.0246" lon="5.72423">
        <ele>1013.6</ele>
        <time>2021-05-29T06:45:38Z</time>
      </trkpt>
      <trkpt lat="45.02459" lon="5.72427">
        <ele>1013.8</ele>
        <time>2021-05-29T06:45:39Z</time>
      </trkpt>
      <trkpt lat="45.02457" lon="5.72432">
        <ele>1014</ele>
        <time>2021-05-29T06:45:40Z</time>
      </trkpt>
      <trkpt lat="45.02457" lon="5.72432">
        <ele>1014.2</ele>
        <time>2021-05-29T06:45:41Z</time>
      </trkpt>
      <trkpt lat="45.02457" lon="5.72432">
        <ele>1014.6</ele>
        <time>2021-05-29T06:45:42Z</time>
      </trkpt>
      <trkpt lat="45.02456" lon="5.72435">
        <ele>1014.6</ele>
        <time>2021-05-29T06:45:43Z</time>
      </trkpt>
      <trkpt lat="45.02455" lon="5.72439">
        <ele>1014.8</ele>
        <time>2021-05-29T06:45:44Z</time>
      </trkpt>
      <trkpt lat="45.02454" lon="5.72442">
        <ele>1015</ele>
        <time>2021-05-29T06:45:45Z</time>
      </trkpt>
      <trkpt lat="45.02453" lon="5.72445">
        <ele>1015.2</ele>
        <time>2021-05-29T06:45:46Z</time>
      </trkpt>
      <trkpt lat="45.02454" lon="5.72445">
        <ele>1015.6</ele>
        <time>2021-05-29T06:45:47Z</time>
      </trkpt>
      <trkpt lat="45.02455" lon="5.72446">
        <ele>1015.8</ele>
        <time>2021-05-29T06:45:48Z</time>
      </trkpt>
      <trkpt lat="45.02456" lon="5.72447">
        <ele>1015.8</ele>
        <time>2021-05-29T06:45:49Z</time>
      </trkpt>
      <trkpt lat="45.02457" lon="5.72447">
        <ele>1016</ele>
        <time>2021-05-29T06:45:50Z</time>
      </trkpt>
      <trkpt lat="45.02458" lon="5.72448">
        <ele>1016.2</ele>
        <time>2021-05-29T06:45:51Z</time>
      </trkpt>
      <trkpt lat="45.0246" lon="5.72449">
        <ele>1016.4</ele>
        <time>2021-05-29T06:45:52Z</time>
      </trkpt>
      <trkpt lat="45.02461" lon="5.7245">
        <ele>1016.4</ele>
        <time>2021-05-29T06:45:53Z</time>
      </trkpt>
      <trkpt lat="45.02462" lon="5.7245">
        <ele>1016.8</ele>
        <time>2021-05-29T06:45:54Z</time>
      </trkpt>
      <trkpt lat="45.02463" lon="5.72451">
        <ele>1017</ele>
        <time>2021-05-29T06:45:55Z</time>
      </trkpt>
      <trkpt lat="45.02464" lon="5.72451">
        <ele>1017.2</ele>
        <time>2021-05-29T06:45:56Z</time>
      </trkpt>
      <trkpt lat="45.02465" lon="5.72452">
        <ele>1017.4</ele>
        <time>2021-05-29T06:45:57Z</time>
      </trkpt>
      <trkpt lat="45.02466" lon="5.72452">
        <ele>1017.6</ele>
        <time>2021-05-29T06:45:58Z</time>
      </trkpt>
      <trkpt lat="45.02467" lon="5.72453">
        <ele>1017.8</ele>
        <time>2021-05-29T06:45:59Z</time>
      </trkpt>
      <trkpt lat="45.02469" lon="5.72453">
        <ele>1018</ele>
        <time>2021-05-29T06:46:00Z</time>
      </trkpt>
      <trkpt lat="45.0247" lon="5.72454">
        <ele>1018.2</ele>
        <time>2021-05-29T06:46:01Z</time>
      </trkpt>
      <trkpt lat="45.02471" lon="5.72454">
        <ele>1018.4</ele>
        <time>2021-05-29T06:46:02Z</time>
      </trkpt>
      <trkpt lat="45.02472" lon="5.72455">
        <ele>1018.4</ele>
        <time>2021-05-29T06:46:03Z</time>
      </trkpt>
      <trkpt lat="45.02473" lon="5.72456">
        <ele>1018.8</ele>
        <time>2021-05-29T06:46:04Z</time>
      </trkpt>
      <trkpt lat="45.02474" lon="5.72457">
        <ele>1019.2</ele>
        <time>2021-05-29T06:46:05Z</time>
      </trkpt>
      <trkpt lat="45.02474" lon="5.72459">
        <ele>1019.4</ele>
        <time>2021-05-29T06:46:06Z</time>
      </trkpt>
      <trkpt lat="45.02475" lon="5.7246">
        <ele>1019.6</ele>
        <time>2021-05-29T06:46:07Z</time>
      </trkpt>
      <trkpt lat="45.02476" lon="5.72461">
        <ele>1019.8</ele>
        <time>2021-05-29T06:46:08Z</time>
      </trkpt>
      <trkpt lat="45.02477" lon="5.72463">
        <ele>1019.8</ele>
        <time>2021-05-29T06:46:09Z</time>
      </trkpt>
      <trkpt lat="45.02477" lon="5.72464">
        <ele>1020</ele>
        <time>2021-05-29T06:46:10Z</time>
      </trkpt>
      <trkpt lat="45.02478" lon="5.72465">
        <ele>1020.2</ele>
        <time>2021-05-29T06:46:11Z</time>
      </trkpt>
      <trkpt lat="45.02479" lon="5.72467">
        <ele>1020.6</ele>
        <time>2021-05-29T06:46:12Z</time>
      </trkpt>
      <trkpt lat="45.02479" lon="5.72468">
        <ele>1020.8</ele>
        <time>2021-05-29T06:46:13Z</time>
      </trkpt>
      <trkpt lat="45.0248" lon="5.72469">
        <ele>1021</ele>
        <time>2021-05-29T06:46:14Z</time>
      </trkpt>
      <trkpt lat="45.02481" lon="5.7247">
        <ele>1021.2</ele>
        <time>2021-05-29T06:46:15Z</time>
      </trkpt>
      <trkpt lat="45.02481" lon="5.72471">
        <ele>1021.4</ele>
        <time>2021-05-29T06:46:16Z</time>
      </trkpt>
      <trkpt lat="45.02482" lon="5.72472">
        <ele>1021.6</ele>
        <time>2021-05-29T06:46:17Z</time>
      </trkpt>
      <trkpt lat="45.02482" lon="5.72474">
        <ele>1022</ele>
        <time>2021-05-29T06:46:18Z</time>
      </trkpt>
      <trkpt lat="45.02483" lon="5.72475">
        <ele>1022</ele>
        <time>2021-05-29T06:46:19Z</time>
      </trkpt>
      <trkpt lat="45.02484" lon="5.72476">
        <ele>1022.2</ele>
        <time>2021-05-29T06:46:20Z</time>
      </trkpt>
      <trkpt lat="45.02483" lon="5.72477">
        <ele>1022.4</ele>
        <time>2021-05-29T06:46:21Z</time>
      </trkpt>
      <trkpt lat="45.02483" lon="5.72479">
        <ele>1022.8</ele>
        <time>2021-05-29T06:46:22Z</time>
      </trkpt>
      <trkpt lat="45.02483" lon="5.7248">
        <ele>1023</ele>
        <time>2021-05-29T06:46:23Z</time>
      </trkpt>
      <trkpt lat="45.02483" lon="5.72482">
        <ele>1023.2</ele>
        <time>2021-05-29T06:46:24Z</time>
      </trkpt>
      <trkpt lat="45.02482" lon="5.72483">
        <ele>1023.2</ele>
        <time>2021-05-29T06:46:25Z</time>
      </trkpt>
      <trkpt lat="45.02482" lon="5.72485">
        <ele>1023.4</ele>
        <time>2021-05-29T06:46:26Z</time>
      </trkpt>
      <trkpt lat="45.02482" lon="5.72486">
        <ele>1023.4</ele>
        <time>2021-05-29T06:46:27Z</time>
      </trkpt>
      <trkpt lat="45.02482" lon="5.72488">
        <ele>1023.6</ele>
        <time>2021-05-29T06:46:28Z</time>
      </trkpt>
      <trkpt lat="45.02481" lon="5.72489">
        <ele>1023.8</ele>
        <time>2021-05-29T06:46:29Z</time>
      </trkpt>
      <trkpt lat="45.02481" lon="5.7249">
        <ele>1024</ele>
        <time>2021-05-29T06:46:30Z</time>
      </trkpt>
      <trkpt lat="45.02481" lon="5.7249">
        <ele>1024</ele>
        <time>2021-05-29T06:46:31Z</time>
      </trkpt>
      <trkpt lat="45.02481" lon="5.72491">
        <ele>1024.2</ele>
        <time>2021-05-29T06:46:32Z</time>
      </trkpt>
      <trkpt lat="45.02481" lon="5.72492">
        <ele>1024.2</ele>
        <time>2021-05-29T06:46:33Z</time>
      </trkpt>
      <trkpt lat="45.02481" lon="5.72492">
        <ele>1024.2</ele>
        <time>2021-05-29T06:46:34Z</time>
      </trkpt>
      <trkpt lat="45.02481" lon="5.72493">
        <ele>1024</ele>
        <time>2021-05-29T06:46:35Z</time>
      </trkpt>
      <trkpt lat="45.02481" lon="5.72493">
        <ele>1024.2</ele>
        <time>2021-05-29T06:46:36Z</time>
      </trkpt>
      <trkpt lat="45.02481" lon="5.72494">
        <ele>1024.2</ele>
        <time>2021-05-29T06:46:37Z</time>
      </trkpt>
      <trkpt lat="45.0248" lon="5.72495">
        <ele>1024.2</ele>
        <time>2021-05-29T06:46:38Z</time>
      </trkpt>
      <trkpt lat="45.0248" lon="5.72495">
        <ele>1024.6</ele>
        <time>2021-05-29T06:46:39Z</time>
      </trkpt>
      <trkpt lat="45.0248" lon="5.72496">
        <ele>1024.4</ele>
        <time>2021-05-29T06:46:40Z</time>
      </trkpt>
      <trkpt lat="45.0248" lon="5.72497">
        <ele>1024.4</ele>
        <time>2021-05-29T06:46:41Z</time>
      </trkpt>
      <trkpt lat="45.0248" lon="5.72497">
        <ele>1024.4</ele>
        <time>2021-05-29T06:46:42Z</time>
      </trkpt>
      <trkpt lat="45.0248" lon="5.72498">
        <ele>1024.6</ele>
        <time>2021-05-29T06:46:43Z</time>
      </trkpt>
      <trkpt lat="45.0248" lon="5.72498">
        <ele>1024.6</ele>
        <time>2021-05-29T06:46:44Z</time>
      </trkpt>
      <trkpt lat="45.0248" lon="5.72499">
        <ele>1024.6</ele>
        <time>2021-05-29T06:46:45Z</time>
      </trkpt>
      <trkpt lat="45.0248" lon="5.725">
        <ele>1024.6</ele>
        <time>2021-05-29T06:46:46Z</time>
      </trkpt>
      <trkpt lat="45.0248" lon="5.725">
        <ele>1024.8</ele>
        <time>2021-05-29T06:46:47Z</time>
      </trkpt>
      <trkpt lat="45.0248" lon="5.72502">
        <ele>1024.8</ele>
        <time>2021-05-29T06:46:48Z</time>
      </trkpt>
      <trkpt lat="45.0248" lon="5.72504">
        <ele>1024.8</ele>
        <time>2021-05-29T06:46:49Z</time>
      </trkpt>
      <trkpt lat="45.0248" lon="5.72506">
        <ele>1024.6</ele>
        <time>2021-05-29T06:46:50Z</time>
      </trkpt>
      <trkpt lat="45.0248" lon="5.72508">
        <ele>1024.6</ele>
        <time>2021-05-29T06:46:51Z</time>
      </trkpt>
      <trkpt lat="45.0248" lon="5.7251">
        <ele>1024.8</ele>
        <time>2021-05-29T06:46:52Z</time>
      </trkpt>
      <trkpt lat="45.0248" lon="5.72512">
        <ele>1024.6</ele>
        <time>2021-05-29T06:46:53Z</time>
      </trkpt>
      <trkpt lat="45.0248" lon="5.72514">
        <ele>1024.8</ele>
        <time>2021-05-29T06:46:54Z</time>
      </trkpt>
      <trkpt lat="45.0248" lon="5.72514">
        <ele>1025</ele>
        <time>2021-05-29T06:46:55Z</time>
      </trkpt>
      <trkpt lat="45.02479" lon="5.72514">
        <ele>1025.2</ele>
        <time>2021-05-29T06:46:56Z</time>
      </trkpt>
      <trkpt lat="45.02479" lon="5.72515">
        <ele>1025.2</ele>
        <time>2021-05-29T06:46:57Z</time>
      </trkpt>
      <trkpt lat="45.02479" lon="5.72515">
        <ele>1025.4</ele>
        <time>2021-05-29T06:46:58Z</time>
      </trkpt>
      <trkpt lat="45.02478" lon="5.72515">
        <ele>1025.6</ele>
        <time>2021-05-29T06:46:59Z</time>
      </trkpt>
      <trkpt lat="45.02478" lon="5.72515">
        <ele>1025.8</ele>
        <time>2021-05-29T06:47:00Z</time>
      </trkpt>
      <trkpt lat="45.02478" lon="5.72516">
        <ele>1026</ele>
        <time>2021-05-29T06:47:01Z</time>
      </trkpt>
      <trkpt lat="45.02477" lon="5.72516">
        <ele>1026</ele>
        <time>2021-05-29T06:47:02Z</time>
      </trkpt>
      <trkpt lat="45.02477" lon="5.72516">
        <ele>1026.2</ele>
        <time>2021-05-29T06:47:03Z</time>
      </trkpt>
      <trkpt lat="45.02477" lon="5.72516">
        <ele>1026.6</ele>
        <time>2021-05-29T06:47:04Z</time>
      </trkpt>
      <trkpt lat="45.02476" lon="5.72517">
        <ele>1026.6</ele>
        <time>2021-05-29T06:47:05Z</time>
      </trkpt>
      <trkpt lat="45.02476" lon="5.72517">
        <ele>1027</ele>
        <time>2021-05-29T06:47:06Z</time>
      </trkpt>
      <trkpt lat="45.02476" lon="5.72517">
        <ele>1027.4</ele>
        <time>2021-05-29T06:47:07Z</time>
      </trkpt>
      <trkpt lat="45.02475" lon="5.72517">
        <ele>1027.4</ele>
        <time>2021-05-29T06:47:08Z</time>
      </trkpt>
      <trkpt lat="45.02475" lon="5.72518">
        <ele>1027.6</ele>
        <time>2021-05-29T06:47:09Z</time>
      </trkpt>
      <trkpt lat="45.02475" lon="5.72518">
        <ele>1028</ele>
        <time>2021-05-29T06:47:10Z</time>
      </trkpt>
      <trkpt lat="45.02474" lon="5.72518">
        <ele>1028.2</ele>
        <time>2021-05-29T06:47:11Z</time>
      </trkpt>
      <trkpt lat="45.02474" lon="5.72519">
        <ele>1028.4</ele>
        <time>2021-05-29T06:47:12Z</time>
      </trkpt>
      <trkpt lat="45.02474" lon="5.72519">
        <ele>1028.8</ele>
        <time>2021-05-29T06:47:13Z</time>
      </trkpt>
      <trkpt lat="45.02473" lon="5.72519">
        <ele>1029</ele>
        <time>2021-05-29T06:47:14Z</time>
      </trkpt>
      <trkpt lat="45.02473" lon="5.72519">
        <ele>1029.2</ele>
        <time>2021-05-29T06:47:15Z</time>
      </trkpt>
      <trkpt lat="45.02473" lon="5.7252">
        <ele>1029.4</ele>
        <time>2021-05-29T06:47:16Z</time>
      </trkpt>
      <trkpt lat="45.02472" lon="5.7252">
        <ele>1029.6</ele>
        <time>2021-05-29T06:47:17Z</time>
      </trkpt>
      <trkpt lat="45.02472" lon="5.7252">
        <ele>1030</ele>
        <time>2021-05-29T06:47:18Z</time>
      </trkpt>
      <trkpt lat="45.02471" lon="5.7252">
        <ele>1030</ele>
        <time>2021-05-29T06:47:19Z</time>
      </trkpt>
      <trkpt lat="45.02469" lon="5.72519">
        <ele>1030.2</ele>
        <time>2021-05-29T06:47:20Z</time>
      </trkpt>
      <trkpt lat="45.02468" lon="5.72519">
        <ele>1030.4</ele>
        <time>2021-05-29T06:47:21Z</time>
      </trkpt>
      <trkpt lat="45.02467" lon="5.72518">
        <ele>1030.6</ele>
        <time>2021-05-29T06:47:22Z</time>
      </trkpt>
      <trkpt lat="45.02465" lon="5.72518">
        <ele>1030.8</ele>
        <time>2021-05-29T06:47:23Z</time>
      </trkpt>
      <trkpt lat="45.02464" lon="5.72518">
        <ele>1030.8</ele>
        <time>2021-05-29T06:47:24Z</time>
      </trkpt>
      <trkpt lat="45.02463" lon="5.72517">
        <ele>1031.2</ele>
        <time>2021-05-29T06:47:25Z</time>
      </trkpt>
      <trkpt lat="45.02461" lon="5.72517">
        <ele>1031.6</ele>
        <time>2021-05-29T06:47:26Z</time>
      </trkpt>
      <trkpt lat="45.0246" lon="5.72516">
        <ele>1031.8</ele>
        <time>2021-05-29T06:47:27Z</time>
      </trkpt>
      <trkpt lat="45.02458" lon="5.72516">
        <ele>1032</ele>
        <time>2021-05-29T06:47:28Z</time>
      </trkpt>
      <trkpt lat="45.02457" lon="5.72516">
        <ele>1032</ele>
        <time>2021-05-29T06:47:29Z</time>
      </trkpt>
      <trkpt lat="45.02456" lon="5.72515">
        <ele>1032.4</ele>
        <time>2021-05-29T06:47:30Z</time>
      </trkpt>
      <trkpt lat="45.02454" lon="5.72515">
        <ele>1032.6</ele>
        <time>2021-05-29T06:47:31Z</time>
      </trkpt>
      <trkpt lat="45.02453" lon="5.72515">
        <ele>1032.6</ele>
        <time>2021-05-29T06:47:32Z</time>
      </trkpt>
      <trkpt lat="45.02452" lon="5.72514">
        <ele>1033</ele>
        <time>2021-05-29T06:47:33Z</time>
      </trkpt>
      <trkpt lat="45.0245" lon="5.72514">
        <ele>1033.2</ele>
        <time>2021-05-29T06:47:34Z</time>
      </trkpt>
      <trkpt lat="45.02449" lon="5.72513">
        <ele>1033.6</ele>
        <time>2021-05-29T06:47:35Z</time>
      </trkpt>
      <trkpt lat="45.02447" lon="5.72513">
        <ele>1033.6</ele>
        <time>2021-05-29T06:47:36Z</time>
      </trkpt>
      <trkpt lat="45.02446" lon="5.72513">
        <ele>1034</ele>
        <time>2021-05-29T06:47:37Z</time>
      </trkpt>
      <trkpt lat="45.02445" lon="5.72512">
        <ele>1034.2</ele>
        <time>2021-05-29T06:47:38Z</time>
      </trkpt>
      <trkpt lat="45.0244" lon="5.72511">
        <ele>1034.4</ele>
        <time>2021-05-29T06:47:39Z</time>
      </trkpt>
      <trkpt lat="45.0244" lon="5.72511">
        <ele>1034.6</ele>
        <time>2021-05-29T06:47:40Z</time>
      </trkpt>
      <trkpt lat="45.02438" lon="5.7251">
        <ele>1035</ele>
        <time>2021-05-29T06:47:41Z</time>
      </trkpt>
      <trkpt lat="45.02436" lon="5.72509">
        <ele>1035.4</ele>
        <time>2021-05-29T06:47:42Z</time>
      </trkpt>
      <trkpt lat="45.02434" lon="5.72508">
        <ele>1035.6</ele>
        <time>2021-05-29T06:47:43Z</time>
      </trkpt>
      <trkpt lat="45.02431" lon="5.72507">
        <ele>1035.8</ele>
        <time>2021-05-29T06:47:44Z</time>
      </trkpt>
      <trkpt lat="45.02431" lon="5.72506">
        <ele>1036</ele>
        <time>2021-05-29T06:47:45Z</time>
      </trkpt>
      <trkpt lat="45.0243" lon="5.72506">
        <ele>1036.2</ele>
        <time>2021-05-29T06:47:46Z</time>
      </trkpt>
      <trkpt lat="45.02429" lon="5.72505">
        <ele>1036.4</ele>
        <time>2021-05-29T06:47:47Z</time>
      </trkpt>
      <trkpt lat="45.02429" lon="5.72504">
        <ele>1036.4</ele>
        <time>2021-05-29T06:47:48Z</time>
      </trkpt>
      <trkpt lat="45.02428" lon="5.72504">
        <ele>1036.2</ele>
        <time>2021-05-29T06:47:49Z</time>
      </trkpt>
      <trkpt lat="45.02428" lon="5.72503">
        <ele>1036.6</ele>
        <time>2021-05-29T06:47:50Z</time>
      </trkpt>
      <trkpt lat="45.02427" lon="5.72502">
        <ele>1036.6</ele>
        <time>2021-05-29T06:47:51Z</time>
      </trkpt>
      <trkpt lat="45.02426" lon="5.72502">
        <ele>1036.6</ele>
        <time>2021-05-29T06:47:52Z</time>
      </trkpt>
      <trkpt lat="45.02426" lon="5.72501">
        <ele>1036.8</ele>
        <time>2021-05-29T06:47:53Z</time>
      </trkpt>
      <trkpt lat="45.02425" lon="5.725">
        <ele>1037.2</ele>
        <time>2021-05-29T06:47:54Z</time>
      </trkpt>
      <trkpt lat="45.02425" lon="5.725">
        <ele>1037.4</ele>
        <time>2021-05-29T06:47:55Z</time>
      </trkpt>
      <trkpt lat="45.02424" lon="5.72499">
        <ele>1037.4</ele>
        <time>2021-05-29T06:47:56Z</time>
      </trkpt>
      <trkpt lat="45.02424" lon="5.725">
        <ele>1037.8</ele>
        <time>2021-05-29T06:47:57Z</time>
      </trkpt>
      <trkpt lat="45.02424" lon="5.725">
        <ele>1038</ele>
        <time>2021-05-29T06:47:58Z</time>
      </trkpt>
      <trkpt lat="45.02424" lon="5.72501">
        <ele>1038.6</ele>
        <time>2021-05-29T06:47:59Z</time>
      </trkpt>
      <trkpt lat="45.02424" lon="5.72501">
        <ele>1038.8</ele>
        <time>2021-05-29T06:48:00Z</time>
      </trkpt>
      <trkpt lat="45.02424" lon="5.72502">
        <ele>1038.6</ele>
        <time>2021-05-29T06:48:01Z</time>
      </trkpt>
      <trkpt lat="45.02424" lon="5.72502">
        <ele>1038.6</ele>
        <time>2021-05-29T06:48:02Z</time>
      </trkpt>
      <trkpt lat="45.02424" lon="5.72503">
        <ele>1038.6</ele>
        <time>2021-05-29T06:48:03Z</time>
      </trkpt>
      <trkpt lat="45.02424" lon="5.72503">
        <ele>1038.8</ele>
        <time>2021-05-29T06:48:04Z</time>
      </trkpt>
      <trkpt lat="45.02423" lon="5.72504">
        <ele>1038.8</ele>
        <time>2021-05-29T06:48:05Z</time>
      </trkpt>
      <trkpt lat="45.02423" lon="5.72504">
        <ele>1039</ele>
        <time>2021-05-29T06:48:06Z</time>
      </trkpt>
      <trkpt lat="45.02423" lon="5.72505">
        <ele>1039.4</ele>
        <time>2021-05-29T06:48:07Z</time>
      </trkpt>
      <trkpt lat="45.02423" lon="5.72505">
        <ele>1039.8</ele>
        <time>2021-05-29T06:48:08Z</time>
      </trkpt>
      <trkpt lat="45.02423" lon="5.72506">
        <ele>1040</ele>
        <time>2021-05-29T06:48:09Z</time>
      </trkpt>
      <trkpt lat="45.02423" lon="5.72506">
        <ele>1040</ele>
        <time>2021-05-29T06:48:10Z</time>
      </trkpt>
      <trkpt lat="45.02423" lon="5.72507">
        <ele>1040.4</ele>
        <time>2021-05-29T06:48:11Z</time>
      </trkpt>
      <trkpt lat="45.02423" lon="5.72507">
        <ele>1040.6</ele>
        <time>2021-05-29T06:48:12Z</time>
      </trkpt>
      <trkpt lat="45.02423" lon="5.72508">
        <ele>1040.8</ele>
        <time>2021-05-29T06:48:13Z</time>
      </trkpt>
      <trkpt lat="45.02423" lon="5.72508">
        <ele>1041</ele>
        <time>2021-05-29T06:48:14Z</time>
      </trkpt>
      <trkpt lat="45.02423" lon="5.72509">
        <ele>1041.2</ele>
        <time>2021-05-29T06:48:15Z</time>
      </trkpt>
      <trkpt lat="45.02423" lon="5.72509">
        <ele>1041.6</ele>
        <time>2021-05-29T06:48:16Z</time>
      </trkpt>
      <trkpt lat="45.02423" lon="5.7251">
        <ele>1041.8</ele>
        <time>2021-05-29T06:48:17Z</time>
      </trkpt>
      <trkpt lat="45.02423" lon="5.7251">
        <ele>1042</ele>
        <time>2021-05-29T06:48:18Z</time>
      </trkpt>
      <trkpt lat="45.02423" lon="5.72511">
        <ele>1042.2</ele>
        <time>2021-05-29T06:48:19Z</time>
      </trkpt>
      <trkpt lat="45.02423" lon="5.72511">
        <ele>1042.4</ele>
        <time>2021-05-29T06:48:20Z</time>
      </trkpt>
      <trkpt lat="45.02423" lon="5.72512">
        <ele>1042.8</ele>
        <time>2021-05-29T06:48:21Z</time>
      </trkpt>
      <trkpt lat="45.02423" lon="5.72512">
        <ele>1043</ele>
        <time>2021-05-29T06:48:22Z</time>
      </trkpt>
      <trkpt lat="45.02422" lon="5.72513">
        <ele>1043.4</ele>
        <time>2021-05-29T06:48:23Z</time>
      </trkpt>
      <trkpt lat="45.0242" lon="5.72515">
        <ele>1043.4</ele>
        <time>2021-05-29T06:48:24Z</time>
      </trkpt>
      <trkpt lat="45.02418" lon="5.72516">
        <ele>1043.6</ele>
        <time>2021-05-29T06:48:25Z</time>
      </trkpt>
      <trkpt lat="45.02416" lon="5.72518">
        <ele>1043.8</ele>
        <time>2021-05-29T06:48:26Z</time>
      </trkpt>
      <trkpt lat="45.02413" lon="5.7252">
        <ele>1044.2</ele>
        <time>2021-05-29T06:48:27Z</time>
      </trkpt>
      <trkpt lat="45.02413" lon="5.72521">
        <ele>1044.4</ele>
        <time>2021-05-29T06:48:28Z</time>
      </trkpt>
      <trkpt lat="45.02413" lon="5.72522">
        <ele>1044.6</ele>
        <time>2021-05-29T06:48:29Z</time>
      </trkpt>
      <trkpt lat="45.02412" lon="5.72522">
        <ele>1044.8</ele>
        <time>2021-05-29T06:48:30Z</time>
      </trkpt>
      <trkpt lat="45.02412" lon="5.72523">
        <ele>1045.2</ele>
        <time>2021-05-29T06:48:31Z</time>
      </trkpt>
      <trkpt lat="45.02412" lon="5.72524">
        <ele>1045.6</ele>
        <time>2021-05-29T06:48:32Z</time>
      </trkpt>
      <trkpt lat="45.02412" lon="5.72524">
        <ele>1045.6</ele>
        <time>2021-05-29T06:48:33Z</time>
      </trkpt>
      <trkpt lat="45.02411" lon="5.72525">
        <ele>1045.8</ele>
        <time>2021-05-29T06:48:34Z</time>
      </trkpt>
      <trkpt lat="45.02411" lon="5.72526">
        <ele>1046</ele>
        <time>2021-05-29T06:48:35Z</time>
      </trkpt>
      <trkpt lat="45.02411" lon="5.72526">
        <ele>1046</ele>
        <time>2021-05-29T06:48:36Z</time>
      </trkpt>
      <trkpt lat="45.0241" lon="5.72527">
        <ele>1046.4</ele>
        <time>2021-05-29T06:48:37Z</time>
      </trkpt>
      <trkpt lat="45.0241" lon="5.72528">
        <ele>1046.6</ele>
        <time>2021-05-29T06:48:38Z</time>
      </trkpt>
      <trkpt lat="45.0241" lon="5.72528">
        <ele>1046.8</ele>
        <time>2021-05-29T06:48:39Z</time>
      </trkpt>
      <trkpt lat="45.0241" lon="5.72529">
        <ele>1046.8</ele>
        <time>2021-05-29T06:48:40Z</time>
      </trkpt>
      <trkpt lat="45.02409" lon="5.72529">
        <ele>1047.2</ele>
        <time>2021-05-29T06:48:41Z</time>
      </trkpt>
      <trkpt lat="45.02409" lon="5.7253">
        <ele>1047.4</ele>
        <time>2021-05-29T06:48:42Z</time>
      </trkpt>
      <trkpt lat="45.02409" lon="5.72531">
        <ele>1047.4</ele>
        <time>2021-05-29T06:48:43Z</time>
      </trkpt>
      <trkpt lat="45.02408" lon="5.72531">
        <ele>1047.8</ele>
        <time>2021-05-29T06:48:44Z</time>
      </trkpt>
      <trkpt lat="45.02408" lon="5.72532">
        <ele>1048.2</ele>
        <time>2021-05-29T06:48:45Z</time>
      </trkpt>
      <trkpt lat="45.02408" lon="5.72533">
        <ele>1048.4</ele>
        <time>2021-05-29T06:48:46Z</time>
      </trkpt>
      <trkpt lat="45.02407" lon="5.72534">
        <ele>1048.6</ele>
        <time>2021-05-29T06:48:47Z</time>
      </trkpt>
      <trkpt lat="45.02407" lon="5.72534">
        <ele>1048.8</ele>
        <time>2021-05-29T06:48:48Z</time>
      </trkpt>
      <trkpt lat="45.02406" lon="5.72535">
        <ele>1049.2</ele>
        <time>2021-05-29T06:48:49Z</time>
      </trkpt>
      <trkpt lat="45.02406" lon="5.72536">
        <ele>1049.4</ele>
        <time>2021-05-29T06:48:50Z</time>
      </trkpt>
      <trkpt lat="45.02406" lon="5.72537">
        <ele>1049.6</ele>
        <time>2021-05-29T06:48:51Z</time>
      </trkpt>
      <trkpt lat="45.02405" lon="5.72537">
        <ele>1049.8</ele>
        <time>2021-05-29T06:48:52Z</time>
      </trkpt>
      <trkpt lat="45.02405" lon="5.72538">
        <ele>1050</ele>
        <time>2021-05-29T06:48:53Z</time>
      </trkpt>
      <trkpt lat="45.02405" lon="5.72539">
        <ele>1050.4</ele>
        <time>2021-05-29T06:48:54Z</time>
      </trkpt>
      <trkpt lat="45.02404" lon="5.7254">
        <ele>1050.4</ele>
        <time>2021-05-29T06:48:55Z</time>
      </trkpt>
      <trkpt lat="45.02404" lon="5.7254">
        <ele>1050.8</ele>
        <time>2021-05-29T06:48:56Z</time>
      </trkpt>
      <trkpt lat="45.02403" lon="5.72541">
        <ele>1051</ele>
        <time>2021-05-29T06:48:57Z</time>
      </trkpt>
      <trkpt lat="45.02403" lon="5.72542">
        <ele>1051.2</ele>
        <time>2021-05-29T06:48:58Z</time>
      </trkpt>
      <trkpt lat="45.02403" lon="5.72543">
        <ele>1051.4</ele>
        <time>2021-05-29T06:48:59Z</time>
      </trkpt>
      <trkpt lat="45.02402" lon="5.72543">
        <ele>1051.6</ele>
        <time>2021-05-29T06:49:00Z</time>
      </trkpt>
      <trkpt lat="45.02402" lon="5.72544">
        <ele>1051.8</ele>
        <time>2021-05-29T06:49:01Z</time>
      </trkpt>
      <trkpt lat="45.02401" lon="5.72545">
        <ele>1052</ele>
        <time>2021-05-29T06:49:02Z</time>
      </trkpt>
      <trkpt lat="45.02401" lon="5.72546">
        <ele>1052.2</ele>
        <time>2021-05-29T06:49:03Z</time>
      </trkpt>
      <trkpt lat="45.024" lon="5.72546">
        <ele>1052.6</ele>
        <time>2021-05-29T06:49:04Z</time>
      </trkpt>
      <trkpt lat="45.024" lon="5.72547">
        <ele>1052.8</ele>
        <time>2021-05-29T06:49:05Z</time>
      </trkpt>
      <trkpt lat="45.024" lon="5.72548">
        <ele>1053.2</ele>
        <time>2021-05-29T06:49:06Z</time>
      </trkpt>
      <trkpt lat="45.02399" lon="5.72548">
        <ele>1053.2</ele>
        <time>2021-05-29T06:49:07Z</time>
      </trkpt>
      <trkpt lat="45.02399" lon="5.72549">
        <ele>1053.6</ele>
        <time>2021-05-29T06:49:08Z</time>
      </trkpt>
      <trkpt lat="45.02398" lon="5.7255">
        <ele>1053.8</ele>
        <time>2021-05-29T06:49:09Z</time>
      </trkpt>
      <trkpt lat="45.02398" lon="5.7255">
        <ele>1054.2</ele>
        <time>2021-05-29T06:49:10Z</time>
      </trkpt>
      <trkpt lat="45.02397" lon="5.72551">
        <ele>1054.4</ele>
        <time>2021-05-29T06:49:11Z</time>
      </trkpt>
      <trkpt lat="45.02397" lon="5.72552">
        <ele>1054.6</ele>
        <time>2021-05-29T06:49:12Z</time>
      </trkpt>
      <trkpt lat="45.02397" lon="5.72553">
        <ele>1054.8</ele>
        <time>2021-05-29T06:49:13Z</time>
      </trkpt>
      <trkpt lat="45.02396" lon="5.72553">
        <ele>1055</ele>
        <time>2021-05-29T06:49:14Z</time>
      </trkpt>
      <trkpt lat="45.02396" lon="5.72554">
        <ele>1055.2</ele>
        <time>2021-05-29T06:49:15Z</time>
      </trkpt>
      <trkpt lat="45.02395" lon="5.72555">
        <ele>1055.6</ele>
        <time>2021-05-29T06:49:16Z</time>
      </trkpt>
      <trkpt lat="45.02395" lon="5.72556">
        <ele>1055.8</ele>
        <time>2021-05-29T06:49:17Z</time>
      </trkpt>
      <trkpt lat="45.02395" lon="5.72557">
        <ele>1056</ele>
        <time>2021-05-29T06:49:18Z</time>
      </trkpt>
      <trkpt lat="45.02394" lon="5.72558">
        <ele>1056.4</ele>
        <time>2021-05-29T06:49:19Z</time>
      </trkpt>
      <trkpt lat="45.02394" lon="5.72559">
        <ele>1056.4</ele>
        <time>2021-05-29T06:49:20Z</time>
      </trkpt>
      <trkpt lat="45.02393" lon="5.7256">
        <ele>1056.8</ele>
        <time>2021-05-29T06:49:21Z</time>
      </trkpt>
      <trkpt lat="45.02393" lon="5.72561">
        <ele>1057</ele>
        <time>2021-05-29T06:49:22Z</time>
      </trkpt>
      <trkpt lat="45.02393" lon="5.72562">
        <ele>1057.2</ele>
        <time>2021-05-29T06:49:23Z</time>
      </trkpt>
      <trkpt lat="45.02392" lon="5.72563">
        <ele>1057.4</ele>
        <time>2021-05-29T06:49:24Z</time>
      </trkpt>
      <trkpt lat="45.02392" lon="5.72563">
        <ele>1057.4</ele>
        <time>2021-05-29T06:49:25Z</time>
      </trkpt>
      <trkpt lat="45.02392" lon="5.72564">
        <ele>1057.8</ele>
        <time>2021-05-29T06:49:26Z</time>
      </trkpt>
      <trkpt lat="45.02391" lon="5.72565">
        <ele>1058</ele>
        <time>2021-05-29T06:49:27Z</time>
      </trkpt>
      <trkpt lat="45.02391" lon="5.72566">
        <ele>1058.2</ele>
        <time>2021-05-29T06:49:28Z</time>
      </trkpt>
      <trkpt lat="45.0239" lon="5.72566">
        <ele>1058.6</ele>
        <time>2021-05-29T06:49:29Z</time>
      </trkpt>
      <trkpt lat="45.0239" lon="5.72566">
        <ele>1059</ele>
        <time>2021-05-29T06:49:30Z</time>
      </trkpt>
      <trkpt lat="45.02389" lon="5.72566">
        <ele>1059.2</ele>
        <time>2021-05-29T06:49:31Z</time>
      </trkpt>
      <trkpt lat="45.02389" lon="5.72566">
        <ele>1059.4</ele>
        <time>2021-05-29T06:49:32Z</time>
      </trkpt>
      <trkpt lat="45.02389" lon="5.72566">
        <ele>1059.6</ele>
        <time>2021-05-29T06:49:33Z</time>
      </trkpt>
      <trkpt lat="45.02388" lon="5.72567">
        <ele>1059.8</ele>
        <time>2021-05-29T06:49:34Z</time>
      </trkpt>
      <trkpt lat="45.02388" lon="5.72567">
        <ele>1060.2</ele>
        <time>2021-05-29T06:49:35Z</time>
      </trkpt>
      <trkpt lat="45.02387" lon="5.72567">
        <ele>1060.6</ele>
        <time>2021-05-29T06:49:36Z</time>
      </trkpt>
      <trkpt lat="45.02387" lon="5.72567">
        <ele>1061</ele>
        <time>2021-05-29T06:49:37Z</time>
      </trkpt>
      <trkpt lat="45.02386" lon="5.72567">
        <ele>1061.2</ele>
        <time>2021-05-29T06:49:38Z</time>
      </trkpt>
      <trkpt lat="45.02386" lon="5.72567">
        <ele>1061.8</ele>
        <time>2021-05-29T06:49:39Z</time>
      </trkpt>
      <trkpt lat="45.02385" lon="5.72568">
        <ele>1061.8</ele>
        <time>2021-05-29T06:49:40Z</time>
      </trkpt>
      <trkpt lat="45.02385" lon="5.72568">
        <ele>1062.2</ele>
        <time>2021-05-29T06:49:41Z</time>
      </trkpt>
      <trkpt lat="45.02385" lon="5.72568">
        <ele>1062.6</ele>
        <time>2021-05-29T06:49:42Z</time>
      </trkpt>
      <trkpt lat="45.02384" lon="5.72568">
        <ele>1062.8</ele>
        <time>2021-05-29T06:49:43Z</time>
      </trkpt>
      <trkpt lat="45.02384" lon="5.72568">
        <ele>1062.8</ele>
        <time>2021-05-29T06:49:44Z</time>
      </trkpt>
      <trkpt lat="45.02383" lon="5.72569">
        <ele>1063.2</ele>
        <time>2021-05-29T06:49:45Z</time>
      </trkpt>
      <trkpt lat="45.02383" lon="5.72569">
        <ele>1063.4</ele>
        <time>2021-05-29T06:49:46Z</time>
      </trkpt>
      <trkpt lat="45.02382" lon="5.72569">
        <ele>1063.6</ele>
        <time>2021-05-29T06:49:47Z</time>
      </trkpt>
      <trkpt lat="45.02382" lon="5.72569">
        <ele>1064</ele>
        <time>2021-05-29T06:49:48Z</time>
      </trkpt>
      <trkpt lat="45.02381" lon="5.72569">
        <ele>1064</ele>
        <time>2021-05-29T06:49:49Z</time>
      </trkpt>
      <trkpt lat="45.02381" lon="5.72569">
        <ele>1064.2</ele>
        <time>2021-05-29T06:49:50Z</time>
      </trkpt>
      <trkpt lat="45.0238" lon="5.72569">
        <ele>1064.4</ele>
        <time>2021-05-29T06:49:51Z</time>
      </trkpt>
      <trkpt lat="45.02379" lon="5.72569">
        <ele>1064.6</ele>
        <time>2021-05-29T06:49:52Z</time>
      </trkpt>
      <trkpt lat="45.02379" lon="5.72569">
        <ele>1065</ele>
        <time>2021-05-29T06:49:53Z</time>
      </trkpt>
      <trkpt lat="45.02378" lon="5.72569">
        <ele>1065.4</ele>
        <time>2021-05-29T06:49:54Z</time>
      </trkpt>
      <trkpt lat="45.02377" lon="5.7257">
        <ele>1065.8</ele>
        <time>2021-05-29T06:49:55Z</time>
      </trkpt>
      <trkpt lat="45.02377" lon="5.7257">
        <ele>1065.8</ele>
        <time>2021-05-29T06:49:56Z</time>
      </trkpt>
      <trkpt lat="45.02376" lon="5.7257">
        <ele>1066</ele>
        <time>2021-05-29T06:49:57Z</time>
      </trkpt>
      <trkpt lat="45.02375" lon="5.7257">
        <ele>1066.2</ele>
        <time>2021-05-29T06:49:58Z</time>
      </trkpt>
      <trkpt lat="45.02375" lon="5.7257">
        <ele>1066.6</ele>
        <time>2021-05-29T06:50:00Z</time>
      </trkpt>
      <trkpt lat="45.02374" lon="5.7257">
        <ele>1066.8</ele>
        <time>2021-05-29T06:50:01Z</time>
      </trkpt>
      <trkpt lat="45.02373" lon="5.7257">
        <ele>1067</ele>
        <time>2021-05-29T06:50:02Z</time>
      </trkpt>
      <trkpt lat="45.02373" lon="5.7257">
        <ele>1067.2</ele>
        <time>2021-05-29T06:50:03Z</time>
      </trkpt>
      <trkpt lat="45.02372" lon="5.7257">
        <ele>1067.4</ele>
        <time>2021-05-29T06:50:04Z</time>
      </trkpt>
      <trkpt lat="45.02371" lon="5.7257">
        <ele>1067.6</ele>
        <time>2021-05-29T06:50:05Z</time>
      </trkpt>
      <trkpt lat="45.0237" lon="5.72569">
        <ele>1067.8</ele>
        <time>2021-05-29T06:50:06Z</time>
      </trkpt>
      <trkpt lat="45.02369" lon="5.72568">
        <ele>1068</ele>
        <time>2021-05-29T06:50:07Z</time>
      </trkpt>
      <trkpt lat="45.02368" lon="5.72568">
        <ele>1068.4</ele>
        <time>2021-05-29T06:50:08Z</time>
      </trkpt>
      <trkpt lat="45.02367" lon="5.72567">
        <ele>1068.4</ele>
        <time>2021-05-29T06:50:09Z</time>
      </trkpt>
      <trkpt lat="45.02366" lon="5.72567">
        <ele>1068.8</ele>
        <time>2021-05-29T06:50:10Z</time>
      </trkpt>
      <trkpt lat="45.02366" lon="5.72566">
        <ele>1068.8</ele>
        <time>2021-05-29T06:50:11Z</time>
      </trkpt>
      <trkpt lat="45.02365" lon="5.72566">
        <ele>1069</ele>
        <time>2021-05-29T06:50:12Z</time>
      </trkpt>
      <trkpt lat="45.02364" lon="5.72565">
        <ele>1069.4</ele>
        <time>2021-05-29T06:50:13Z</time>
      </trkpt>
      <trkpt lat="45.02363" lon="5.72565">
        <ele>1069.6</ele>
        <time>2021-05-29T06:50:14Z</time>
      </trkpt>
      <trkpt lat="45.02362" lon="5.72565">
        <ele>1069.8</ele>
        <time>2021-05-29T06:50:15Z</time>
      </trkpt>
      <trkpt lat="45.02361" lon="5.72565">
        <ele>1070</ele>
        <time>2021-05-29T06:50:16Z</time>
      </trkpt>
      <trkpt lat="45.02361" lon="5.72565">
        <ele>1070.2</ele>
        <time>2021-05-29T06:50:17Z</time>
      </trkpt>
      <trkpt lat="45.0236" lon="5.72565">
        <ele>1070.2</ele>
        <time>2021-05-29T06:50:18Z</time>
      </trkpt>
      <trkpt lat="45.02359" lon="5.72564">
        <ele>1070.4</ele>
        <time>2021-05-29T06:50:19Z</time>
      </trkpt>
      <trkpt lat="45.02358" lon="5.72564">
        <ele>1071</ele>
        <time>2021-05-29T06:50:20Z</time>
      </trkpt>
      <trkpt lat="45.02358" lon="5.72564">
        <ele>1071.2</ele>
        <time>2021-05-29T06:50:21Z</time>
      </trkpt>
      <trkpt lat="45.02357" lon="5.72564">
        <ele>1071.4</ele>
        <time>2021-05-29T06:50:22Z</time>
      </trkpt>
      <trkpt lat="45.02356" lon="5.72564">
        <ele>1071.6</ele>
        <time>2021-05-29T06:50:23Z</time>
      </trkpt>
      <trkpt lat="45.02355" lon="5.72564">
        <ele>1071.8</ele>
        <time>2021-05-29T06:50:24Z</time>
      </trkpt>
      <trkpt lat="45.02355" lon="5.72564">
        <ele>1072</ele>
        <time>2021-05-29T06:50:25Z</time>
      </trkpt>
      <trkpt lat="45.02354" lon="5.72564">
        <ele>1072.4</ele>
        <time>2021-05-29T06:50:26Z</time>
      </trkpt>
      <trkpt lat="45.02353" lon="5.72563">
        <ele>1072.8</ele>
        <time>2021-05-29T06:50:27Z</time>
      </trkpt>
      <trkpt lat="45.02352" lon="5.72563">
        <ele>1073</ele>
        <time>2021-05-29T06:50:28Z</time>
      </trkpt>
      <trkpt lat="45.02351" lon="5.72563">
        <ele>1073</ele>
        <time>2021-05-29T06:50:29Z</time>
      </trkpt>
      <trkpt lat="45.02351" lon="5.72562">
        <ele>1073.4</ele>
        <time>2021-05-29T06:50:30Z</time>
      </trkpt>
      <trkpt lat="45.0235" lon="5.72562">
        <ele>1073.6</ele>
        <time>2021-05-29T06:50:31Z</time>
      </trkpt>
      <trkpt lat="45.02349" lon="5.72562">
        <ele>1073.8</ele>
        <time>2021-05-29T06:50:32Z</time>
      </trkpt>
      <trkpt lat="45.02348" lon="5.72561">
        <ele>1074</ele>
        <time>2021-05-29T06:50:33Z</time>
      </trkpt>
      <trkpt lat="45.02347" lon="5.72561">
        <ele>1074.2</ele>
        <time>2021-05-29T06:50:34Z</time>
      </trkpt>
      <trkpt lat="45.02346" lon="5.72561">
        <ele>1074.4</ele>
        <time>2021-05-29T06:50:35Z</time>
      </trkpt>
      <trkpt lat="45.02346" lon="5.72561">
        <ele>1074.8</ele>
        <time>2021-05-29T06:50:36Z</time>
      </trkpt>
      <trkpt lat="45.02345" lon="5.7256">
        <ele>1075</ele>
        <time>2021-05-29T06:50:37Z</time>
      </trkpt>
      <trkpt lat="45.02344" lon="5.72561">
        <ele>1075.2</ele>
        <time>2021-05-29T06:50:38Z</time>
      </trkpt>
      <trkpt lat="45.02343" lon="5.72561">
        <ele>1075.8</ele>
        <time>2021-05-29T06:50:39Z</time>
      </trkpt>
      <trkpt lat="45.02341" lon="5.72562">
        <ele>1076</ele>
        <time>2021-05-29T06:50:40Z</time>
      </trkpt>
      <trkpt lat="45.0234" lon="5.72562">
        <ele>1076.2</ele>
        <time>2021-05-29T06:50:41Z</time>
      </trkpt>
      <trkpt lat="45.02339" lon="5.72563">
        <ele>1076.4</ele>
        <time>2021-05-29T06:50:42Z</time>
      </trkpt>
      <trkpt lat="45.02338" lon="5.72563">
        <ele>1076.8</ele>
        <time>2021-05-29T06:50:43Z</time>
      </trkpt>
      <trkpt lat="45.02337" lon="5.72564">
        <ele>1076.8</ele>
        <time>2021-05-29T06:50:44Z</time>
      </trkpt>
      <trkpt lat="45.02336" lon="5.72564">
        <ele>1077</ele>
        <time>2021-05-29T06:50:45Z</time>
      </trkpt>
      <trkpt lat="45.02335" lon="5.72564">
        <ele>1077.2</ele>
        <time>2021-05-29T06:50:46Z</time>
      </trkpt>
      <trkpt lat="45.02335" lon="5.72564">
        <ele>1077.6</ele>
        <time>2021-05-29T06:50:47Z</time>
      </trkpt>
      <trkpt lat="45.02334" lon="5.72564">
        <ele>1077.8</ele>
        <time>2021-05-29T06:50:48Z</time>
      </trkpt>
      <trkpt lat="45.02333" lon="5.72564">
        <ele>1078</ele>
        <time>2021-05-29T06:50:49Z</time>
      </trkpt>
      <trkpt lat="45.02332" lon="5.72564">
        <ele>1078.4</ele>
        <time>2021-05-29T06:50:50Z</time>
      </trkpt>
      <trkpt lat="45.02331" lon="5.72563">
        <ele>1078.8</ele>
        <time>2021-05-29T06:50:51Z</time>
      </trkpt>
      <trkpt lat="45.02331" lon="5.72563">
        <ele>1079</ele>
        <time>2021-05-29T06:50:52Z</time>
      </trkpt>
      <trkpt lat="45.0233" lon="5.72563">
        <ele>1079.2</ele>
        <time>2021-05-29T06:50:53Z</time>
      </trkpt>
      <trkpt lat="45.02329" lon="5.72563">
        <ele>1079.2</ele>
        <time>2021-05-29T06:50:54Z</time>
      </trkpt>
      <trkpt lat="45.02328" lon="5.72563">
        <ele>1079.4</ele>
        <time>2021-05-29T06:50:55Z</time>
      </trkpt>
      <trkpt lat="45.02328" lon="5.72563">
        <ele>1079.6</ele>
        <time>2021-05-29T06:50:56Z</time>
      </trkpt>
      <trkpt lat="45.02327" lon="5.72562">
        <ele>1079.8</ele>
        <time>2021-05-29T06:50:57Z</time>
      </trkpt>
      <trkpt lat="45.02326" lon="5.72563">
        <ele>1080</ele>
        <time>2021-05-29T06:50:58Z</time>
      </trkpt>
      <trkpt lat="45.02324" lon="5.72563">
        <ele>1080.4</ele>
        <time>2021-05-29T06:50:59Z</time>
      </trkpt>
      <trkpt lat="45.02323" lon="5.72563">
        <ele>1080.6</ele>
        <time>2021-05-29T06:51:00Z</time>
      </trkpt>
      <trkpt lat="45.02322" lon="5.72563">
        <ele>1080.8</ele>
        <time>2021-05-29T06:51:01Z</time>
      </trkpt>
      <trkpt lat="45.02321" lon="5.72563">
        <ele>1081.2</ele>
        <time>2021-05-29T06:51:02Z</time>
      </trkpt>
      <trkpt lat="45.0232" lon="5.72563">
        <ele>1081.4</ele>
        <time>2021-05-29T06:51:03Z</time>
      </trkpt>
      <trkpt lat="45.02318" lon="5.72564">
        <ele>1081.6</ele>
        <time>2021-05-29T06:51:04Z</time>
      </trkpt>
      <trkpt lat="45.02317" lon="5.72564">
        <ele>1081.8</ele>
        <time>2021-05-29T06:51:05Z</time>
      </trkpt>
      <trkpt lat="45.02317" lon="5.72564">
        <ele>1082.2</ele>
        <time>2021-05-29T06:51:06Z</time>
      </trkpt>
      <trkpt lat="45.02318" lon="5.72564">
        <ele>1082.6</ele>
        <time>2021-05-29T06:51:07Z</time>
      </trkpt>
      <trkpt lat="45.02318" lon="5.72564">
        <ele>1082.8</ele>
        <time>2021-05-29T06:51:08Z</time>
      </trkpt>
      <trkpt lat="45.02318" lon="5.72565">
        <ele>1083</ele>
        <time>2021-05-29T06:51:09Z</time>
      </trkpt>
      <trkpt lat="45.02318" lon="5.72565">
        <ele>1083.2</ele>
        <time>2021-05-29T06:51:10Z</time>
      </trkpt>
      <trkpt lat="45.02318" lon="5.72565">
        <ele>1083.4</ele>
        <time>2021-05-29T06:51:11Z</time>
      </trkpt>
      <trkpt lat="45.02318" lon="5.72566">
        <ele>1083.4</ele>
        <time>2021-05-29T06:51:12Z</time>
      </trkpt>
      <trkpt lat="45.02319" lon="5.72566">
        <ele>1083.6</ele>
        <time>2021-05-29T06:51:13Z</time>
      </trkpt>
      <trkpt lat="45.02319" lon="5.72566">
        <ele>1083.8</ele>
        <time>2021-05-29T06:51:14Z</time>
      </trkpt>
      <trkpt lat="45.02319" lon="5.72566">
        <ele>1084</ele>
        <time>2021-05-29T06:51:15Z</time>
      </trkpt>
      <trkpt lat="45.02319" lon="5.72567">
        <ele>1084.2</ele>
        <time>2021-05-29T06:51:16Z</time>
      </trkpt>
      <trkpt lat="45.02319" lon="5.72567">
        <ele>1084.4</ele>
        <time>2021-05-29T06:51:17Z</time>
      </trkpt>
      <trkpt lat="45.02319" lon="5.72567">
        <ele>1084.6</ele>
        <time>2021-05-29T06:51:18Z</time>
      </trkpt>
      <trkpt lat="45.02319" lon="5.72567">
        <ele>1084.8</ele>
        <time>2021-05-29T06:51:19Z</time>
      </trkpt>
      <trkpt lat="45.0232" lon="5.72568">
        <ele>1084.8</ele>
        <time>2021-05-29T06:51:20Z</time>
      </trkpt>
      <trkpt lat="45.0232" lon="5.72568">
        <ele>1085</ele>
        <time>2021-05-29T06:51:21Z</time>
      </trkpt>
      <trkpt lat="45.0232" lon="5.72568">
        <ele>1085.2</ele>
        <time>2021-05-29T06:51:22Z</time>
      </trkpt>
      <trkpt lat="45.0232" lon="5.72568">
        <ele>1085.6</ele>
        <time>2021-05-29T06:51:23Z</time>
      </trkpt>
      <trkpt lat="45.0232" lon="5.72569">
        <ele>1086</ele>
        <time>2021-05-29T06:51:24Z</time>
      </trkpt>
      <trkpt lat="45.0232" lon="5.72569">
        <ele>1086</ele>
        <time>2021-05-29T06:51:25Z</time>
      </trkpt>
      <trkpt lat="45.02321" lon="5.72569">
        <ele>1086.2</ele>
        <time>2021-05-29T06:51:26Z</time>
      </trkpt>
      <trkpt lat="45.02321" lon="5.7257">
        <ele>1086.2</ele>
        <time>2021-05-29T06:51:27Z</time>
      </trkpt>
      <trkpt lat="45.02321" lon="5.7257">
        <ele>1086.4</ele>
        <time>2021-05-29T06:51:28Z</time>
      </trkpt>
      <trkpt lat="45.02321" lon="5.7257">
        <ele>1086.6</ele>
        <time>2021-05-29T06:51:29Z</time>
      </trkpt>
      <trkpt lat="45.02321" lon="5.7257">
        <ele>1086.8</ele>
        <time>2021-05-29T06:51:30Z</time>
      </trkpt>
      <trkpt lat="45.02321" lon="5.72571">
        <ele>1087</ele>
        <time>2021-05-29T06:51:31Z</time>
      </trkpt>
      <trkpt lat="45.02322" lon="5.72571">
        <ele>1087.2</ele>
        <time>2021-05-29T06:51:32Z</time>
      </trkpt>
      <trkpt lat="45.02322" lon="5.72571">
        <ele>1087.4</ele>
        <time>2021-05-29T06:51:33Z</time>
      </trkpt>
      <trkpt lat="45.02322" lon="5.72571">
        <ele>1087.4</ele>
        <time>2021-05-29T06:51:34Z</time>
      </trkpt>
      <trkpt lat="45.02322" lon="5.72572">
        <ele>1087.6</ele>
        <time>2021-05-29T06:51:35Z</time>
      </trkpt>
      <trkpt lat="45.02322" lon="5.72572">
        <ele>1087.6</ele>
        <time>2021-05-29T06:51:36Z</time>
      </trkpt>
      <trkpt lat="45.02322" lon="5.72572">
        <ele>1087.8</ele>
        <time>2021-05-29T06:51:37Z</time>
      </trkpt>
      <trkpt lat="45.02323" lon="5.72572">
        <ele>1088.4</ele>
        <time>2021-05-29T06:51:38Z</time>
      </trkpt>
      <trkpt lat="45.02323" lon="5.72573">
        <ele>1088.8</ele>
        <time>2021-05-29T06:51:39Z</time>
      </trkpt>
      <trkpt lat="45.02323" lon="5.72573">
        <ele>1088.8</ele>
        <time>2021-05-29T06:51:40Z</time>
      </trkpt>
      <trkpt lat="45.02323" lon="5.72573">
        <ele>1088.6</ele>
        <time>2021-05-29T06:51:41Z</time>
      </trkpt>
      <trkpt lat="45.02323" lon="5.72574">
        <ele>1088.6</ele>
        <time>2021-05-29T06:51:42Z</time>
      </trkpt>
      <trkpt lat="45.02323" lon="5.72574">
        <ele>1088.8</ele>
        <time>2021-05-29T06:51:43Z</time>
      </trkpt>
      <trkpt lat="45.02323" lon="5.72574">
        <ele>1089</ele>
        <time>2021-05-29T06:51:44Z</time>
      </trkpt>
      <trkpt lat="45.02324" lon="5.72574">
        <ele>1089.2</ele>
        <time>2021-05-29T06:51:45Z</time>
      </trkpt>
      <trkpt lat="45.02324" lon="5.72575">
        <ele>1089.6</ele>
        <time>2021-05-29T06:51:46Z</time>
      </trkpt>
      <trkpt lat="45.02324" lon="5.72575">
        <ele>1089.8</ele>
        <time>2021-05-29T06:51:47Z</time>
      </trkpt>
      <trkpt lat="45.02326" lon="5.72576">
        <ele>1090</ele>
        <time>2021-05-29T06:51:48Z</time>
      </trkpt>
      <trkpt lat="45.02329" lon="5.72577">
        <ele>1090</ele>
        <time>2021-05-29T06:51:49Z</time>
      </trkpt>
      <trkpt lat="45.02331" lon="5.72577">
        <ele>1089.8</ele>
        <time>2021-05-29T06:51:50Z</time>
      </trkpt>
      <trkpt lat="45.02333" lon="5.72578">
        <ele>1090.2</ele>
        <time>2021-05-29T06:51:51Z</time>
      </trkpt>
      <trkpt lat="45.02334" lon="5.7258">
        <ele>1090.4</ele>
        <time>2021-05-29T06:51:52Z</time>
      </trkpt>
      <trkpt lat="45.02336" lon="5.72581">
        <ele>1090.6</ele>
        <time>2021-05-29T06:51:53Z</time>
      </trkpt>
      <trkpt lat="45.02337" lon="5.72583">
        <ele>1090.8</ele>
        <time>2021-05-29T06:51:54Z</time>
      </trkpt>
      <trkpt lat="45.02338" lon="5.72584">
        <ele>1091</ele>
        <time>2021-05-29T06:51:55Z</time>
      </trkpt>
      <trkpt lat="45.02339" lon="5.72586">
        <ele>1091.2</ele>
        <time>2021-05-29T06:51:56Z</time>
      </trkpt>
      <trkpt lat="45.02341" lon="5.72588">
        <ele>1091.2</ele>
        <time>2021-05-29T06:51:57Z</time>
      </trkpt>
      <trkpt lat="45.0234" lon="5.72588">
        <ele>1091.4</ele>
        <time>2021-05-29T06:51:58Z</time>
      </trkpt>
      <trkpt lat="45.0234" lon="5.72589">
        <ele>1091.8</ele>
        <time>2021-05-29T06:51:59Z</time>
      </trkpt>
      <trkpt lat="45.02339" lon="5.7259">
        <ele>1092</ele>
        <time>2021-05-29T06:52:00Z</time>
      </trkpt>
      <trkpt lat="45.02339" lon="5.72591">
        <ele>1092</ele>
        <time>2021-05-29T06:52:01Z</time>
      </trkpt>
      <trkpt lat="45.02339" lon="5.72592">
        <ele>1092.2</ele>
        <time>2021-05-29T06:52:02Z</time>
      </trkpt>
      <trkpt lat="45.02338" lon="5.72593">
        <ele>1092.4</ele>
        <time>2021-05-29T06:52:03Z</time>
      </trkpt>
      <trkpt lat="45.02338" lon="5.72594">
        <ele>1092.6</ele>
        <time>2021-05-29T06:52:04Z</time>
      </trkpt>
      <trkpt lat="45.02337" lon="5.72594">
        <ele>1092.6</ele>
        <time>2021-05-29T06:52:05Z</time>
      </trkpt>
      <trkpt lat="45.02337" lon="5.72595">
        <ele>1092.6</ele>
        <time>2021-05-29T06:52:06Z</time>
      </trkpt>
      <trkpt lat="45.02337" lon="5.72596">
        <ele>1092.6</ele>
        <time>2021-05-29T06:52:07Z</time>
      </trkpt>
      <trkpt lat="45.02336" lon="5.72597">
        <ele>1092.8</ele>
        <time>2021-05-29T06:52:08Z</time>
      </trkpt>
      <trkpt lat="45.02336" lon="5.72598">
        <ele>1092.8</ele>
        <time>2021-05-29T06:52:09Z</time>
      </trkpt>
      <trkpt lat="45.02336" lon="5.72599">
        <ele>1093</ele>
        <time>2021-05-29T06:52:10Z</time>
      </trkpt>
      <trkpt lat="45.02335" lon="5.72599">
        <ele>1093.2</ele>
        <time>2021-05-29T06:52:11Z</time>
      </trkpt>
      <trkpt lat="45.02334" lon="5.726">
        <ele>1093.2</ele>
        <time>2021-05-29T06:52:12Z</time>
      </trkpt>
      <trkpt lat="45.02332" lon="5.72601">
        <ele>1093.2</ele>
        <time>2021-05-29T06:52:13Z</time>
      </trkpt>
      <trkpt lat="45.02331" lon="5.72601">
        <ele>1093.4</ele>
        <time>2021-05-29T06:52:14Z</time>
      </trkpt>
      <trkpt lat="45.0233" lon="5.72602">
        <ele>1093.8</ele>
        <time>2021-05-29T06:52:15Z</time>
      </trkpt>
      <trkpt lat="45.02328" lon="5.72602">
        <ele>1094</ele>
        <time>2021-05-29T06:52:16Z</time>
      </trkpt>
      <trkpt lat="45.02327" lon="5.72603">
        <ele>1094</ele>
        <time>2021-05-29T06:52:17Z</time>
      </trkpt>
      <trkpt lat="45.02326" lon="5.72603">
        <ele>1094</ele>
        <time>2021-05-29T06:52:18Z</time>
      </trkpt>
      <trkpt lat="45.02324" lon="5.72602">
        <ele>1094.2</ele>
        <time>2021-05-29T06:52:19Z</time>
      </trkpt>
      <trkpt lat="45.02322" lon="5.726">
        <ele>1094.2</ele>
        <time>2021-05-29T06:52:20Z</time>
      </trkpt>
      <trkpt lat="45.0232" lon="5.72598">
        <ele>1094.4</ele>
        <time>2021-05-29T06:52:21Z</time>
      </trkpt>
      <trkpt lat="45.02318" lon="5.72596">
        <ele>1094.4</ele>
        <time>2021-05-29T06:52:22Z</time>
      </trkpt>
      <trkpt lat="45.02316" lon="5.72595">
        <ele>1094.4</ele>
        <time>2021-05-29T06:52:23Z</time>
      </trkpt>
      <trkpt lat="45.02314" lon="5.72594">
        <ele>1094.8</ele>
        <time>2021-05-29T06:52:24Z</time>
      </trkpt>
      <trkpt lat="45.02313" lon="5.72594">
        <ele>1095</ele>
        <time>2021-05-29T06:52:25Z</time>
      </trkpt>
      <trkpt lat="45.02311" lon="5.72593">
        <ele>1095.2</ele>
        <time>2021-05-29T06:52:26Z</time>
      </trkpt>
      <trkpt lat="45.02309" lon="5.72592">
        <ele>1095.4</ele>
        <time>2021-05-29T06:52:27Z</time>
      </trkpt>
      <trkpt lat="45.02308" lon="5.72591">
        <ele>1095.6</ele>
        <time>2021-05-29T06:52:28Z</time>
      </trkpt>
      <trkpt lat="45.02307" lon="5.72591">
        <ele>1096</ele>
        <time>2021-05-29T06:52:29Z</time>
      </trkpt>
      <trkpt lat="45.02306" lon="5.7259">
        <ele>1096.2</ele>
        <time>2021-05-29T06:52:30Z</time>
      </trkpt>
      <trkpt lat="45.02305" lon="5.7259">
        <ele>1096.4</ele>
        <time>2021-05-29T06:52:31Z</time>
      </trkpt>
      <trkpt lat="45.02304" lon="5.72589">
        <ele>1096.6</ele>
        <time>2021-05-29T06:52:32Z</time>
      </trkpt>
      <trkpt lat="45.02303" lon="5.72589">
        <ele>1097</ele>
        <time>2021-05-29T06:52:33Z</time>
      </trkpt>
      <trkpt lat="45.02302" lon="5.72588">
        <ele>1097</ele>
        <time>2021-05-29T06:52:34Z</time>
      </trkpt>
      <trkpt lat="45.02301" lon="5.72587">
        <ele>1097.2</ele>
        <time>2021-05-29T06:52:35Z</time>
      </trkpt>
      <trkpt lat="45.023" lon="5.72587">
        <ele>1097.2</ele>
        <time>2021-05-29T06:52:36Z</time>
      </trkpt>
      <trkpt lat="45.02299" lon="5.72586">
        <ele>1097.2</ele>
        <time>2021-05-29T06:52:37Z</time>
      </trkpt>
      <trkpt lat="45.02298" lon="5.72585">
        <ele>1097.4</ele>
        <time>2021-05-29T06:52:38Z</time>
      </trkpt>
      <trkpt lat="45.02297" lon="5.72585">
        <ele>1097.6</ele>
        <time>2021-05-29T06:52:39Z</time>
      </trkpt>
      <trkpt lat="45.02295" lon="5.72584">
        <ele>1097.6</ele>
        <time>2021-05-29T06:52:40Z</time>
      </trkpt>
      <trkpt lat="45.02294" lon="5.72583">
        <ele>1097.8</ele>
        <time>2021-05-29T06:52:41Z</time>
      </trkpt>
      <trkpt lat="45.02293" lon="5.72582">
        <ele>1098</ele>
        <time>2021-05-29T06:52:42Z</time>
      </trkpt>
      <trkpt lat="45.02292" lon="5.72582">
        <ele>1098.2</ele>
        <time>2021-05-29T06:52:43Z</time>
      </trkpt>
      <trkpt lat="45.0229" lon="5.72581">
        <ele>1098.4</ele>
        <time>2021-05-29T06:52:44Z</time>
      </trkpt>
      <trkpt lat="45.02288" lon="5.72581">
        <ele>1098.6</ele>
        <time>2021-05-29T06:52:45Z</time>
      </trkpt>
      <trkpt lat="45.02287" lon="5.7258">
        <ele>1099</ele>
        <time>2021-05-29T06:52:46Z</time>
      </trkpt>
      <trkpt lat="45.02285" lon="5.7258">
        <ele>1099.2</ele>
        <time>2021-05-29T06:52:47Z</time>
      </trkpt>
      <trkpt lat="45.02284" lon="5.72579">
        <ele>1099.4</ele>
        <time>2021-05-29T06:52:48Z</time>
      </trkpt>
      <trkpt lat="45.02282" lon="5.72579">
        <ele>1099.4</ele>
        <time>2021-05-29T06:52:49Z</time>
      </trkpt>
      <trkpt lat="45.02281" lon="5.72579">
        <ele>1099.6</ele>
        <time>2021-05-29T06:52:50Z</time>
      </trkpt>
      <trkpt lat="45.02279" lon="5.72578">
        <ele>1099.8</ele>
        <time>2021-05-29T06:52:51Z</time>
      </trkpt>
      <trkpt lat="45.02278" lon="5.72578">
        <ele>1100</ele>
        <time>2021-05-29T06:52:52Z</time>
      </trkpt>
      <trkpt lat="45.02277" lon="5.72578">
        <ele>1100</ele>
        <time>2021-05-29T06:52:53Z</time>
      </trkpt>
      <trkpt lat="45.02275" lon="5.72578">
        <ele>1100</ele>
        <time>2021-05-29T06:52:54Z</time>
      </trkpt>
      <trkpt lat="45.02274" lon="5.72577">
        <ele>1100.2</ele>
        <time>2021-05-29T06:52:55Z</time>
      </trkpt>
      <trkpt lat="45.02273" lon="5.72577">
        <ele>1100.4</ele>
        <time>2021-05-29T06:52:56Z</time>
      </trkpt>
      <trkpt lat="45.02271" lon="5.72576">
        <ele>1100.6</ele>
        <time>2021-05-29T06:52:57Z</time>
      </trkpt>
      <trkpt lat="45.0227" lon="5.72575">
        <ele>1100.8</ele>
        <time>2021-05-29T06:52:58Z</time>
      </trkpt>
      <trkpt lat="45.02269" lon="5.72574">
        <ele>1101</ele>
        <time>2021-05-29T06:52:59Z</time>
      </trkpt>
      <trkpt lat="45.02268" lon="5.72573">
        <ele>1101.2</ele>
        <time>2021-05-29T06:53:00Z</time>
      </trkpt>
      <trkpt lat="45.02267" lon="5.72572">
        <ele>1101.4</ele>
        <time>2021-05-29T06:53:01Z</time>
      </trkpt>
      <trkpt lat="45.02266" lon="5.72572">
        <ele>1101.8</ele>
        <time>2021-05-29T06:53:02Z</time>
      </trkpt>
      <trkpt lat="45.02264" lon="5.72571">
        <ele>1102.4</ele>
        <time>2021-05-29T06:53:03Z</time>
      </trkpt>
      <trkpt lat="45.02263" lon="5.7257">
        <ele>1102.6</ele>
        <time>2021-05-29T06:53:04Z</time>
      </trkpt>
      <trkpt lat="45.02262" lon="5.72569">
        <ele>1102.6</ele>
        <time>2021-05-29T06:53:05Z</time>
      </trkpt>
      <trkpt lat="45.02261" lon="5.72568">
        <ele>1102.8</ele>
        <time>2021-05-29T06:53:06Z</time>
      </trkpt>
      <trkpt lat="45.0226" lon="5.72567">
        <ele>1103</ele>
        <time>2021-05-29T06:53:07Z</time>
      </trkpt>
      <trkpt lat="45.02259" lon="5.72567">
        <ele>1103.4</ele>
        <time>2021-05-29T06:53:08Z</time>
      </trkpt>
      <trkpt lat="45.02257" lon="5.72566">
        <ele>1103.6</ele>
        <time>2021-05-29T06:53:09Z</time>
      </trkpt>
      <trkpt lat="45.02256" lon="5.72565">
        <ele>1103.6</ele>
        <time>2021-05-29T06:53:10Z</time>
      </trkpt>
      <trkpt lat="45.02255" lon="5.72564">
        <ele>1103.6</ele>
        <time>2021-05-29T06:53:11Z</time>
      </trkpt>
      <trkpt lat="45.02254" lon="5.72564">
        <ele>1103.8</ele>
        <time>2021-05-29T06:53:12Z</time>
      </trkpt>
      <trkpt lat="45.02253" lon="5.72564">
        <ele>1104</ele>
        <time>2021-05-29T06:53:13Z</time>
      </trkpt>
      <trkpt lat="45.02251" lon="5.72565">
        <ele>1104</ele>
        <time>2021-05-29T06:53:14Z</time>
      </trkpt>
      <trkpt lat="45.0225" lon="5.72565">
        <ele>1104</ele>
        <time>2021-05-29T06:53:15Z</time>
      </trkpt>
      <trkpt lat="45.02249" lon="5.72566">
        <ele>1104.2</ele>
        <time>2021-05-29T06:53:16Z</time>
      </trkpt>
      <trkpt lat="45.02247" lon="5.72566">
        <ele>1104.4</ele>
        <time>2021-05-29T06:53:17Z</time>
      </trkpt>
      <trkpt lat="45.02246" lon="5.72567">
        <ele>1104.6</ele>
        <time>2021-05-29T06:53:18Z</time>
      </trkpt>
      <trkpt lat="45.02244" lon="5.72567">
        <ele>1105</ele>
        <time>2021-05-29T06:53:19Z</time>
      </trkpt>
      <trkpt lat="45.02243" lon="5.72567">
        <ele>1105</ele>
        <time>2021-05-29T06:53:20Z</time>
      </trkpt>
      <trkpt lat="45.02242" lon="5.72568">
        <ele>1105</ele>
        <time>2021-05-29T06:53:21Z</time>
      </trkpt>
      <trkpt lat="45.0224" lon="5.72568">
        <ele>1105.2</ele>
        <time>2021-05-29T06:53:22Z</time>
      </trkpt>
      <trkpt lat="45.02239" lon="5.72568">
        <ele>1105.2</ele>
        <time>2021-05-29T06:53:23Z</time>
      </trkpt>
      <trkpt lat="45.02238" lon="5.72568">
        <ele>1105.6</ele>
        <time>2021-05-29T06:53:24Z</time>
      </trkpt>
      <trkpt lat="45.02236" lon="5.72568">
        <ele>1105.4</ele>
        <time>2021-05-29T06:53:25Z</time>
      </trkpt>
      <trkpt lat="45.02235" lon="5.72568">
        <ele>1105.6</ele>
        <time>2021-05-29T06:53:26Z</time>
      </trkpt>
      <trkpt lat="45.02234" lon="5.72568">
        <ele>1105.8</ele>
        <time>2021-05-29T06:53:27Z</time>
      </trkpt>
      <trkpt lat="45.02233" lon="5.72568">
        <ele>1105.8</ele>
        <time>2021-05-29T06:53:28Z</time>
      </trkpt>
      <trkpt lat="45.02232" lon="5.72568">
        <ele>1106</ele>
        <time>2021-05-29T06:53:29Z</time>
      </trkpt>
      <trkpt lat="45.02231" lon="5.72568">
        <ele>1106</ele>
        <time>2021-05-29T06:53:30Z</time>
      </trkpt>
      <trkpt lat="45.0223" lon="5.72567">
        <ele>1106.2</ele>
        <time>2021-05-29T06:53:31Z</time>
      </trkpt>
      <trkpt lat="45.02229" lon="5.72567">
        <ele>1106.4</ele>
        <time>2021-05-29T06:53:32Z</time>
      </trkpt>
      <trkpt lat="45.02229" lon="5.72567">
        <ele>1106.6</ele>
        <time>2021-05-29T06:53:33Z</time>
      </trkpt>
      <trkpt lat="45.02228" lon="5.72567">
        <ele>1106.8</ele>
        <time>2021-05-29T06:53:34Z</time>
      </trkpt>
      <trkpt lat="45.02227" lon="5.72567">
        <ele>1107</ele>
        <time>2021-05-29T06:53:35Z</time>
      </trkpt>
      <trkpt lat="45.02226" lon="5.72567">
        <ele>1107.2</ele>
        <time>2021-05-29T06:53:36Z</time>
      </trkpt>
      <trkpt lat="45.02225" lon="5.72567">
        <ele>1107.4</ele>
        <time>2021-05-29T06:53:37Z</time>
      </trkpt>
      <trkpt lat="45.02224" lon="5.72567">
        <ele>1107.6</ele>
        <time>2021-05-29T06:53:38Z</time>
      </trkpt>
      <trkpt lat="45.02223" lon="5.72567">
        <ele>1107.8</ele>
        <time>2021-05-29T06:53:39Z</time>
      </trkpt>
      <trkpt lat="45.02222" lon="5.72567">
        <ele>1108.2</ele>
        <time>2021-05-29T06:53:40Z</time>
      </trkpt>
      <trkpt lat="45.02221" lon="5.72567">
        <ele>1108.4</ele>
        <time>2021-05-29T06:53:41Z</time>
      </trkpt>
      <trkpt lat="45.0222" lon="5.72567">
        <ele>1108.6</ele>
        <time>2021-05-29T06:53:42Z</time>
      </trkpt>
      <trkpt lat="45.02219" lon="5.72567">
        <ele>1108.6</ele>
        <time>2021-05-29T06:53:43Z</time>
      </trkpt>
      <trkpt lat="45.02218" lon="5.72567">
        <ele>1108.8</ele>
        <time>2021-05-29T06:53:44Z</time>
      </trkpt>
      <trkpt lat="45.02216" lon="5.72566">
        <ele>1109.2</ele>
        <time>2021-05-29T06:53:45Z</time>
      </trkpt>
      <trkpt lat="45.02215" lon="5.72566">
        <ele>1109.2</ele>
        <time>2021-05-29T06:53:46Z</time>
      </trkpt>
      <trkpt lat="45.02214" lon="5.72566">
        <ele>1109.6</ele>
        <time>2021-05-29T06:53:47Z</time>
      </trkpt>
      <trkpt lat="45.02213" lon="5.72565">
        <ele>1109.8</ele>
        <time>2021-05-29T06:53:48Z</time>
      </trkpt>
      <trkpt lat="45.02212" lon="5.72565">
        <ele>1110</ele>
        <time>2021-05-29T06:53:49Z</time>
      </trkpt>
      <trkpt lat="45.02211" lon="5.72564">
        <ele>1110.2</ele>
        <time>2021-05-29T06:53:50Z</time>
      </trkpt>
      <trkpt lat="45.0221" lon="5.72564">
        <ele>1110.2</ele>
        <time>2021-05-29T06:53:51Z</time>
      </trkpt>
      <trkpt lat="45.02208" lon="5.72563">
        <ele>1110.2</ele>
        <time>2021-05-29T06:53:52Z</time>
      </trkpt>
      <trkpt lat="45.02207" lon="5.72563">
        <ele>1110.4</ele>
        <time>2021-05-29T06:53:53Z</time>
      </trkpt>
      <trkpt lat="45.02206" lon="5.72562">
        <ele>1110.4</ele>
        <time>2021-05-29T06:53:54Z</time>
      </trkpt>
      <trkpt lat="45.02204" lon="5.72564">
        <ele>1110.6</ele>
        <time>2021-05-29T06:53:55Z</time>
      </trkpt>
      <trkpt lat="45.02203" lon="5.72565">
        <ele>1110.8</ele>
        <time>2021-05-29T06:53:56Z</time>
      </trkpt>
      <trkpt lat="45.02201" lon="5.72566">
        <ele>1110.8</ele>
        <time>2021-05-29T06:53:57Z</time>
      </trkpt>
      <trkpt lat="45.02199" lon="5.72568">
        <ele>1111</ele>
        <time>2021-05-29T06:53:58Z</time>
      </trkpt>
      <trkpt lat="45.02198" lon="5.72569">
        <ele>1111</ele>
        <time>2021-05-29T06:53:59Z</time>
      </trkpt>
      <trkpt lat="45.02196" lon="5.72569">
        <ele>1111.2</ele>
        <time>2021-05-29T06:54:00Z</time>
      </trkpt>
      <trkpt lat="45.02195" lon="5.72568">
        <ele>1111.4</ele>
        <time>2021-05-29T06:54:01Z</time>
      </trkpt>
      <trkpt lat="45.02193" lon="5.72568">
        <ele>1111.6</ele>
        <time>2021-05-29T06:54:02Z</time>
      </trkpt>
      <trkpt lat="45.02192" lon="5.72568">
        <ele>1111.8</ele>
        <time>2021-05-29T06:54:03Z</time>
      </trkpt>
      <trkpt lat="45.02191" lon="5.72568">
        <ele>1112</ele>
        <time>2021-05-29T06:54:04Z</time>
      </trkpt>
      <trkpt lat="45.02189" lon="5.72568">
        <ele>1112.2</ele>
        <time>2021-05-29T06:54:05Z</time>
      </trkpt>
      <trkpt lat="45.02188" lon="5.72567">
        <ele>1112.8</ele>
        <time>2021-05-29T06:54:06Z</time>
      </trkpt>
      <trkpt lat="45.02186" lon="5.72567">
        <ele>1113.2</ele>
        <time>2021-05-29T06:54:07Z</time>
      </trkpt>
      <trkpt lat="45.02185" lon="5.72567">
        <ele>1113.4</ele>
        <time>2021-05-29T06:54:08Z</time>
      </trkpt>
      <trkpt lat="45.02184" lon="5.72567">
        <ele>1113.2</ele>
        <time>2021-05-29T06:54:09Z</time>
      </trkpt>
      <trkpt lat="45.02183" lon="5.72567">
        <ele>1113.4</ele>
        <time>2021-05-29T06:54:10Z</time>
      </trkpt>
      <trkpt lat="45.02181" lon="5.72567">
        <ele>1113.4</ele>
        <time>2021-05-29T06:54:11Z</time>
      </trkpt>
      <trkpt lat="45.0218" lon="5.72566">
        <ele>1113.6</ele>
        <time>2021-05-29T06:54:12Z</time>
      </trkpt>
      <trkpt lat="45.02179" lon="5.72566">
        <ele>1113.6</ele>
        <time>2021-05-29T06:54:13Z</time>
      </trkpt>
      <trkpt lat="45.02178" lon="5.72566">
        <ele>1113.6</ele>
        <time>2021-05-29T06:54:14Z</time>
      </trkpt>
      <trkpt lat="45.02177" lon="5.72566">
        <ele>1113.8</ele>
        <time>2021-05-29T06:54:15Z</time>
      </trkpt>
      <trkpt lat="45.02176" lon="5.72566">
        <ele>1113.8</ele>
        <time>2021-05-29T06:54:16Z</time>
      </trkpt>
      <trkpt lat="45.02175" lon="5.72566">
        <ele>1114</ele>
        <time>2021-05-29T06:54:17Z</time>
      </trkpt>
      <trkpt lat="45.02174" lon="5.72567">
        <ele>1114.4</ele>
        <time>2021-05-29T06:54:18Z</time>
      </trkpt>
      <trkpt lat="45.02173" lon="5.72567">
        <ele>1114.4</ele>
        <time>2021-05-29T06:54:19Z</time>
      </trkpt>
      <trkpt lat="45.02172" lon="5.72567">
        <ele>1114.6</ele>
        <time>2021-05-29T06:54:20Z</time>
      </trkpt>
      <trkpt lat="45.02171" lon="5.72567">
        <ele>1114.8</ele>
        <time>2021-05-29T06:54:21Z</time>
      </trkpt>
      <trkpt lat="45.0217" lon="5.72567">
        <ele>1115.2</ele>
        <time>2021-05-29T06:54:22Z</time>
      </trkpt>
      <trkpt lat="45.02169" lon="5.72567">
        <ele>1115.4</ele>
        <time>2021-05-29T06:54:23Z</time>
      </trkpt>
      <trkpt lat="45.02168" lon="5.72567">
        <ele>1115.6</ele>
        <time>2021-05-29T06:54:24Z</time>
      </trkpt>
      <trkpt lat="45.02165" lon="5.72567">
        <ele>1116</ele>
        <time>2021-05-29T06:54:25Z</time>
      </trkpt>
      <trkpt lat="45.02163" lon="5.72566">
        <ele>1116.2</ele>
        <time>2021-05-29T06:54:26Z</time>
      </trkpt>
      <trkpt lat="45.02161" lon="5.72566">
        <ele>1116.4</ele>
        <time>2021-05-29T06:54:27Z</time>
      </trkpt>
      <trkpt lat="45.02159" lon="5.72565">
        <ele>1116.8</ele>
        <time>2021-05-29T06:54:28Z</time>
      </trkpt>
      <trkpt lat="45.02156" lon="5.72564">
        <ele>1117</ele>
        <time>2021-05-29T06:54:29Z</time>
      </trkpt>
      <trkpt lat="45.02155" lon="5.72564">
        <ele>1117.2</ele>
        <time>2021-05-29T06:54:30Z</time>
      </trkpt>
      <trkpt lat="45.02154" lon="5.72564">
        <ele>1117.4</ele>
        <time>2021-05-29T06:54:31Z</time>
      </trkpt>
      <trkpt lat="45.02153" lon="5.72564">
        <ele>1117.6</ele>
        <time>2021-05-29T06:54:32Z</time>
      </trkpt>
      <trkpt lat="45.02152" lon="5.72564">
        <ele>1117.8</ele>
        <time>2021-05-29T06:54:33Z</time>
      </trkpt>
      <trkpt lat="45.02151" lon="5.72564">
        <ele>1118</ele>
        <time>2021-05-29T06:54:34Z</time>
      </trkpt>
      <trkpt lat="45.0215" lon="5.72563">
        <ele>1118</ele>
        <time>2021-05-29T06:54:35Z</time>
      </trkpt>
      <trkpt lat="45.02148" lon="5.72563">
        <ele>1118.2</ele>
        <time>2021-05-29T06:54:36Z</time>
      </trkpt>
      <trkpt lat="45.02147" lon="5.72563">
        <ele>1118.2</ele>
        <time>2021-05-29T06:54:37Z</time>
      </trkpt>
      <trkpt lat="45.02146" lon="5.72563">
        <ele>1118.2</ele>
        <time>2021-05-29T06:54:38Z</time>
      </trkpt>
      <trkpt lat="45.02144" lon="5.72564">
        <ele>1118.4</ele>
        <time>2021-05-29T06:54:39Z</time>
      </trkpt>
      <trkpt lat="45.02142" lon="5.72564">
        <ele>1118.4</ele>
        <time>2021-05-29T06:54:40Z</time>
      </trkpt>
      <trkpt lat="45.02141" lon="5.72564">
        <ele>1118.8</ele>
        <time>2021-05-29T06:54:41Z</time>
      </trkpt>
      <trkpt lat="45.02139" lon="5.72564">
        <ele>1118.8</ele>
        <time>2021-05-29T06:54:42Z</time>
      </trkpt>
      <trkpt lat="45.02138" lon="5.72564">
        <ele>1119</ele>
        <time>2021-05-29T06:54:43Z</time>
      </trkpt>
      <trkpt lat="45.02136" lon="5.72565">
        <ele>1119.4</ele>
        <time>2021-05-29T06:54:44Z</time>
      </trkpt>
      <trkpt lat="45.02135" lon="5.72565">
        <ele>1119.4</ele>
        <time>2021-05-29T06:54:45Z</time>
      </trkpt>
      <trkpt lat="45.02134" lon="5.72566">
        <ele>1119.6</ele>
        <time>2021-05-29T06:54:46Z</time>
      </trkpt>
      <trkpt lat="45.02133" lon="5.72566">
        <ele>1119.6</ele>
        <time>2021-05-29T06:54:47Z</time>
      </trkpt>
      <trkpt lat="45.02132" lon="5.72566">
        <ele>1119.8</ele>
        <time>2021-05-29T06:54:48Z</time>
      </trkpt>
      <trkpt lat="45.02131" lon="5.72567">
        <ele>1120</ele>
        <time>2021-05-29T06:54:49Z</time>
      </trkpt>
      <trkpt lat="45.0213" lon="5.72567">
        <ele>1120</ele>
        <time>2021-05-29T06:54:50Z</time>
      </trkpt>
      <trkpt lat="45.02129" lon="5.72567">
        <ele>1120.2</ele>
        <time>2021-05-29T06:54:51Z</time>
      </trkpt>
      <trkpt lat="45.02128" lon="5.72568">
        <ele>1120.4</ele>
        <time>2021-05-29T06:54:52Z</time>
      </trkpt>
      <trkpt lat="45.02126" lon="5.72568">
        <ele>1120.2</ele>
        <time>2021-05-29T06:54:53Z</time>
      </trkpt>
      <trkpt lat="45.02125" lon="5.72569">
        <ele>1120.2</ele>
        <time>2021-05-29T06:54:54Z</time>
      </trkpt>
      <trkpt lat="45.02123" lon="5.7257">
        <ele>1120.6</ele>
        <time>2021-05-29T06:54:55Z</time>
      </trkpt>
      <trkpt lat="45.02122" lon="5.7257">
        <ele>1120.8</ele>
        <time>2021-05-29T06:54:56Z</time>
      </trkpt>
      <trkpt lat="45.0212" lon="5.72571">
        <ele>1121</ele>
        <time>2021-05-29T06:54:57Z</time>
      </trkpt>
      <trkpt lat="45.02119" lon="5.72571">
        <ele>1121.2</ele>
        <time>2021-05-29T06:54:58Z</time>
      </trkpt>
      <trkpt lat="45.02118" lon="5.72572">
        <ele>1121.4</ele>
        <time>2021-05-29T06:54:59Z</time>
      </trkpt>
      <trkpt lat="45.02117" lon="5.72573">
        <ele>1121.6</ele>
        <time>2021-05-29T06:55:00Z</time>
      </trkpt>
      <trkpt lat="45.02116" lon="5.72573">
        <ele>1121.8</ele>
        <time>2021-05-29T06:55:01Z</time>
      </trkpt>
      <trkpt lat="45.02116" lon="5.72574">
        <ele>1121.8</ele>
        <time>2021-05-29T06:55:02Z</time>
      </trkpt>
      <trkpt lat="45.02115" lon="5.72575">
        <ele>1122</ele>
        <time>2021-05-29T06:55:03Z</time>
      </trkpt>
      <trkpt lat="45.02114" lon="5.72575">
        <ele>1122.2</ele>
        <time>2021-05-29T06:55:04Z</time>
      </trkpt>
      <trkpt lat="45.02113" lon="5.72576">
        <ele>1122.4</ele>
        <time>2021-05-29T06:55:05Z</time>
      </trkpt>
      <trkpt lat="45.02112" lon="5.72576">
        <ele>1122.6</ele>
        <time>2021-05-29T06:55:06Z</time>
      </trkpt>
      <trkpt lat="45.02111" lon="5.72577">
        <ele>1122.8</ele>
        <time>2021-05-29T06:55:07Z</time>
      </trkpt>
      <trkpt lat="45.0211" lon="5.72578">
        <ele>1122.8</ele>
        <time>2021-05-29T06:55:08Z</time>
      </trkpt>
      <trkpt lat="45.02109" lon="5.72579">
        <ele>1123</ele>
        <time>2021-05-29T06:55:09Z</time>
      </trkpt>
      <trkpt lat="45.02108" lon="5.72579">
        <ele>1123.4</ele>
        <time>2021-05-29T06:55:10Z</time>
      </trkpt>
      <trkpt lat="45.02107" lon="5.7258">
        <ele>1123.8</ele>
        <time>2021-05-29T06:55:11Z</time>
      </trkpt>
      <trkpt lat="45.02105" lon="5.72581">
        <ele>1123.8</ele>
        <time>2021-05-29T06:55:12Z</time>
      </trkpt>
      <trkpt lat="45.02104" lon="5.72582">
        <ele>1124</ele>
        <time>2021-05-29T06:55:13Z</time>
      </trkpt>
      <trkpt lat="45.02103" lon="5.72583">
        <ele>1124</ele>
        <time>2021-05-29T06:55:14Z</time>
      </trkpt>
      <trkpt lat="45.02102" lon="5.72584">
        <ele>1124.2</ele>
        <time>2021-05-29T06:55:15Z</time>
      </trkpt>
      <trkpt lat="45.02101" lon="5.72585">
        <ele>1124.4</ele>
        <time>2021-05-29T06:55:16Z</time>
      </trkpt>
      <trkpt lat="45.021" lon="5.72587">
        <ele>1124.8</ele>
        <time>2021-05-29T06:55:17Z</time>
      </trkpt>
      <trkpt lat="45.02099" lon="5.72588">
        <ele>1124.8</ele>
        <time>2021-05-29T06:55:18Z</time>
      </trkpt>
      <trkpt lat="45.02098" lon="5.7259">
        <ele>1125</ele>
        <time>2021-05-29T06:55:19Z</time>
      </trkpt>
      <trkpt lat="45.02097" lon="5.72591">
        <ele>1125.4</ele>
        <time>2021-05-29T06:55:20Z</time>
      </trkpt>
      <trkpt lat="45.02096" lon="5.72593">
        <ele>1125.6</ele>
        <time>2021-05-29T06:55:21Z</time>
      </trkpt>
      <trkpt lat="45.02095" lon="5.72594">
        <ele>1126</ele>
        <time>2021-05-29T06:55:22Z</time>
      </trkpt>
      <trkpt lat="45.02094" lon="5.72595">
        <ele>1126.2</ele>
        <time>2021-05-29T06:55:23Z</time>
      </trkpt>
      <trkpt lat="45.02093" lon="5.72597">
        <ele>1126.6</ele>
        <time>2021-05-29T06:55:24Z</time>
      </trkpt>
      <trkpt lat="45.02092" lon="5.72598">
        <ele>1126.8</ele>
        <time>2021-05-29T06:55:25Z</time>
      </trkpt>
      <trkpt lat="45.02092" lon="5.72599">
        <ele>1127</ele>
        <time>2021-05-29T06:55:26Z</time>
      </trkpt>
      <trkpt lat="45.02091" lon="5.72601">
        <ele>1127.4</ele>
        <time>2021-05-29T06:55:27Z</time>
      </trkpt>
      <trkpt lat="45.0209" lon="5.72602">
        <ele>1127.6</ele>
        <time>2021-05-29T06:55:28Z</time>
      </trkpt>
      <trkpt lat="45.02089" lon="5.72604">
        <ele>1127.8</ele>
        <time>2021-05-29T06:55:29Z</time>
      </trkpt>
      <trkpt lat="45.02088" lon="5.72605">
        <ele>1128</ele>
        <time>2021-05-29T06:55:30Z</time>
      </trkpt>
      <trkpt lat="45.02088" lon="5.72607">
        <ele>1128</ele>
        <time>2021-05-29T06:55:31Z</time>
      </trkpt>
      <trkpt lat="45.02087" lon="5.72608">
        <ele>1128.2</ele>
        <time>2021-05-29T06:55:32Z</time>
      </trkpt>
      <trkpt lat="45.02086" lon="5.7261">
        <ele>1128.4</ele>
        <time>2021-05-29T06:55:33Z</time>
      </trkpt>
      <trkpt lat="45.02086" lon="5.72611">
        <ele>1128.8</ele>
        <time>2021-05-29T06:55:34Z</time>
      </trkpt>
      <trkpt lat="45.02085" lon="5.72613">
        <ele>1129</ele>
        <time>2021-05-29T06:55:35Z</time>
      </trkpt>
      <trkpt lat="45.02084" lon="5.72615">
        <ele>1129.4</ele>
        <time>2021-05-29T06:55:36Z</time>
      </trkpt>
      <trkpt lat="45.02083" lon="5.72616">
        <ele>1129.6</ele>
        <time>2021-05-29T06:55:37Z</time>
      </trkpt>
      <trkpt lat="45.02082" lon="5.72617">
        <ele>1129.8</ele>
        <time>2021-05-29T06:55:38Z</time>
      </trkpt>
      <trkpt lat="45.02081" lon="5.72618">
        <ele>1130</ele>
        <time>2021-05-29T06:55:39Z</time>
      </trkpt>
      <trkpt lat="45.0208" lon="5.72619">
        <ele>1130.2</ele>
        <time>2021-05-29T06:55:40Z</time>
      </trkpt>
      <trkpt lat="45.02079" lon="5.7262">
        <ele>1130.4</ele>
        <time>2021-05-29T06:55:41Z</time>
      </trkpt>
      <trkpt lat="45.02078" lon="5.72621">
        <ele>1130.4</ele>
        <time>2021-05-29T06:55:42Z</time>
      </trkpt>
      <trkpt lat="45.02077" lon="5.72622">
        <ele>1130.8</ele>
        <time>2021-05-29T06:55:43Z</time>
      </trkpt>
      <trkpt lat="45.02076" lon="5.72623">
        <ele>1130.8</ele>
        <time>2021-05-29T06:55:44Z</time>
      </trkpt>
      <trkpt lat="45.02075" lon="5.72625">
        <ele>1130.8</ele>
        <time>2021-05-29T06:55:45Z</time>
      </trkpt>
      <trkpt lat="45.02074" lon="5.72626">
        <ele>1130.8</ele>
        <time>2021-05-29T06:55:46Z</time>
      </trkpt>
      <trkpt lat="45.02074" lon="5.72628">
        <ele>1131</ele>
        <time>2021-05-29T06:55:47Z</time>
      </trkpt>
      <trkpt lat="45.02073" lon="5.7263">
        <ele>1131.2</ele>
        <time>2021-05-29T06:55:48Z</time>
      </trkpt>
      <trkpt lat="45.02072" lon="5.72631">
        <ele>1131.4</ele>
        <time>2021-05-29T06:55:49Z</time>
      </trkpt>
      <trkpt lat="45.02072" lon="5.72633">
        <ele>1131.6</ele>
        <time>2021-05-29T06:55:50Z</time>
      </trkpt>
      <trkpt lat="45.02071" lon="5.72634">
        <ele>1131.6</ele>
        <time>2021-05-29T06:55:51Z</time>
      </trkpt>
      <trkpt lat="45.0207" lon="5.72636">
        <ele>1131.8</ele>
        <time>2021-05-29T06:55:52Z</time>
      </trkpt>
      <trkpt lat="45.02069" lon="5.72637">
        <ele>1132.2</ele>
        <time>2021-05-29T06:55:53Z</time>
      </trkpt>
      <trkpt lat="45.02068" lon="5.72638">
        <ele>1132.4</ele>
        <time>2021-05-29T06:55:54Z</time>
      </trkpt>
      <trkpt lat="45.02067" lon="5.72639">
        <ele>1132.6</ele>
        <time>2021-05-29T06:55:55Z</time>
      </trkpt>
      <trkpt lat="45.02066" lon="5.72639">
        <ele>1132.8</ele>
        <time>2021-05-29T06:55:56Z</time>
      </trkpt>
      <trkpt lat="45.02065" lon="5.7264">
        <ele>1133.2</ele>
        <time>2021-05-29T06:55:57Z</time>
      </trkpt>
      <trkpt lat="45.02064" lon="5.72641">
        <ele>1133.4</ele>
        <time>2021-05-29T06:55:58Z</time>
      </trkpt>
      <trkpt lat="45.02063" lon="5.72642">
        <ele>1133.6</ele>
        <time>2021-05-29T06:55:59Z</time>
      </trkpt>
      <trkpt lat="45.02062" lon="5.72643">
        <ele>1133.8</ele>
        <time>2021-05-29T06:56:00Z</time>
      </trkpt>
      <trkpt lat="45.02061" lon="5.72644">
        <ele>1133.8</ele>
        <time>2021-05-29T06:56:01Z</time>
      </trkpt>
      <trkpt lat="45.0206" lon="5.72645">
        <ele>1134.2</ele>
        <time>2021-05-29T06:56:02Z</time>
      </trkpt>
      <trkpt lat="45.02059" lon="5.72646">
        <ele>1134.6</ele>
        <time>2021-05-29T06:56:03Z</time>
      </trkpt>
      <trkpt lat="45.02058" lon="5.72647">
        <ele>1135</ele>
        <time>2021-05-29T06:56:04Z</time>
      </trkpt>
      <trkpt lat="45.02057" lon="5.72648">
        <ele>1135.2</ele>
        <time>2021-05-29T06:56:05Z</time>
      </trkpt>
      <trkpt lat="45.02056" lon="5.72649">
        <ele>1135.4</ele>
        <time>2021-05-29T06:56:06Z</time>
      </trkpt>
      <trkpt lat="45.02055" lon="5.72651">
        <ele>1135.6</ele>
        <time>2021-05-29T06:56:07Z</time>
      </trkpt>
      <trkpt lat="45.02054" lon="5.72652">
        <ele>1135.6</ele>
        <time>2021-05-29T06:56:08Z</time>
      </trkpt>
      <trkpt lat="45.02053" lon="5.72653">
        <ele>1135.8</ele>
        <time>2021-05-29T06:56:09Z</time>
      </trkpt>
      <trkpt lat="45.02052" lon="5.72654">
        <ele>1135.8</ele>
        <time>2021-05-29T06:56:10Z</time>
      </trkpt>
      <trkpt lat="45.02051" lon="5.72655">
        <ele>1136.4</ele>
        <time>2021-05-29T06:56:11Z</time>
      </trkpt>
      <trkpt lat="45.0205" lon="5.72656">
        <ele>1136.6</ele>
        <time>2021-05-29T06:56:12Z</time>
      </trkpt>
      <trkpt lat="45.02049" lon="5.72657">
        <ele>1136.4</ele>
        <time>2021-05-29T06:56:13Z</time>
      </trkpt>
      <trkpt lat="45.02048" lon="5.72658">
        <ele>1136.4</ele>
        <time>2021-05-29T06:56:14Z</time>
      </trkpt>
      <trkpt lat="45.02048" lon="5.72659">
        <ele>1137</ele>
        <time>2021-05-29T06:56:15Z</time>
      </trkpt>
      <trkpt lat="45.02047" lon="5.7266">
        <ele>1137.2</ele>
        <time>2021-05-29T06:56:16Z</time>
      </trkpt>
      <trkpt lat="45.02046" lon="5.72661">
        <ele>1137.6</ele>
        <time>2021-05-29T06:56:17Z</time>
      </trkpt>
      <trkpt lat="45.02044" lon="5.72663">
        <ele>1137.6</ele>
        <time>2021-05-29T06:56:18Z</time>
      </trkpt>
      <trkpt lat="45.02043" lon="5.72665">
        <ele>1138</ele>
        <time>2021-05-29T06:56:19Z</time>
      </trkpt>
      <trkpt lat="45.02041" lon="5.72667">
        <ele>1138</ele>
        <time>2021-05-29T06:56:20Z</time>
      </trkpt>
      <trkpt lat="45.0204" lon="5.72669">
        <ele>1138.2</ele>
        <time>2021-05-29T06:56:21Z</time>
      </trkpt>
      <trkpt lat="45.02038" lon="5.72671">
        <ele>1137.8</ele>
        <time>2021-05-29T06:56:22Z</time>
      </trkpt>
      <trkpt lat="45.02037" lon="5.72673">
        <ele>1137.6</ele>
        <time>2021-05-29T06:56:23Z</time>
      </trkpt>
      <trkpt lat="45.02036" lon="5.72675">
        <ele>1138.4</ele>
        <time>2021-05-29T06:56:24Z</time>
      </trkpt>
      <trkpt lat="45.02034" lon="5.72677">
        <ele>1138.6</ele>
        <time>2021-05-29T06:56:25Z</time>
      </trkpt>
      <trkpt lat="45.02033" lon="5.72679">
        <ele>1139.2</ele>
        <time>2021-05-29T06:56:26Z</time>
      </trkpt>
      <trkpt lat="45.02032" lon="5.72681">
        <ele>1139.4</ele>
        <time>2021-05-29T06:56:27Z</time>
      </trkpt>
      <trkpt lat="45.0203" lon="5.72682">
        <ele>1139.8</ele>
        <time>2021-05-29T06:56:28Z</time>
      </trkpt>
      <trkpt lat="45.02029" lon="5.72684">
        <ele>1139.8</ele>
        <time>2021-05-29T06:56:29Z</time>
      </trkpt>
      <trkpt lat="45.02027" lon="5.72685">
        <ele>1140.2</ele>
        <time>2021-05-29T06:56:30Z</time>
      </trkpt>
      <trkpt lat="45.02026" lon="5.72687">
        <ele>1140</ele>
        <time>2021-05-29T06:56:31Z</time>
      </trkpt>
      <trkpt lat="45.02024" lon="5.72688">
        <ele>1140</ele>
        <time>2021-05-29T06:56:32Z</time>
      </trkpt>
      <trkpt lat="45.02023" lon="5.7269">
        <ele>1140</ele>
        <time>2021-05-29T06:56:33Z</time>
      </trkpt>
      <trkpt lat="45.02021" lon="5.72692">
        <ele>1140</ele>
        <time>2021-05-29T06:56:34Z</time>
      </trkpt>
      <trkpt lat="45.02019" lon="5.72694">
        <ele>1140.6</ele>
        <time>2021-05-29T06:56:35Z</time>
      </trkpt>
      <trkpt lat="45.02018" lon="5.72696">
        <ele>1140.8</ele>
        <time>2021-05-29T06:56:36Z</time>
      </trkpt>
      <trkpt lat="45.02016" lon="5.72699">
        <ele>1141.4</ele>
        <time>2021-05-29T06:56:37Z</time>
      </trkpt>
      <trkpt lat="45.02014" lon="5.727">
        <ele>1141.8</ele>
        <time>2021-05-29T06:56:38Z</time>
      </trkpt>
      <trkpt lat="45.02013" lon="5.72701">
        <ele>1142</ele>
        <time>2021-05-29T06:56:39Z</time>
      </trkpt>
      <trkpt lat="45.02012" lon="5.72702">
        <ele>1142.2</ele>
        <time>2021-05-29T06:56:40Z</time>
      </trkpt>
      <trkpt lat="45.0201" lon="5.72703">
        <ele>1142.6</ele>
        <time>2021-05-29T06:56:41Z</time>
      </trkpt>
      <trkpt lat="45.02009" lon="5.72704">
        <ele>1142.4</ele>
        <time>2021-05-29T06:56:42Z</time>
      </trkpt>
      <trkpt lat="45.02007" lon="5.72705">
        <ele>1142.6</ele>
        <time>2021-05-29T06:56:43Z</time>
      </trkpt>
      <trkpt lat="45.02006" lon="5.72707">
        <ele>1142.6</ele>
        <time>2021-05-29T06:56:44Z</time>
      </trkpt>
      <trkpt lat="45.02005" lon="5.72709">
        <ele>1142.8</ele>
        <time>2021-05-29T06:56:45Z</time>
      </trkpt>
      <trkpt lat="45.02004" lon="5.7271">
        <ele>1142.8</ele>
        <time>2021-05-29T06:56:46Z</time>
      </trkpt>
      <trkpt lat="45.02002" lon="5.72712">
        <ele>1142.6</ele>
        <time>2021-05-29T06:56:47Z</time>
      </trkpt>
      <trkpt lat="45.02001" lon="5.72714">
        <ele>1143</ele>
        <time>2021-05-29T06:56:48Z</time>
      </trkpt>
      <trkpt lat="45.01999" lon="5.72715">
        <ele>1143.2</ele>
        <time>2021-05-29T06:56:49Z</time>
      </trkpt>
      <trkpt lat="45.01997" lon="5.72716">
        <ele>1143.8</ele>
        <time>2021-05-29T06:56:50Z</time>
      </trkpt>
      <trkpt lat="45.01996" lon="5.72717">
        <ele>1144.2</ele>
        <time>2021-05-29T06:56:51Z</time>
      </trkpt>
      <trkpt lat="45.01994" lon="5.72717">
        <ele>1144.6</ele>
        <time>2021-05-29T06:56:52Z</time>
      </trkpt>
      <trkpt lat="45.01992" lon="5.72718">
        <ele>1144.8</ele>
        <time>2021-05-29T06:56:53Z</time>
      </trkpt>
      <trkpt lat="45.0199" lon="5.72719">
        <ele>1145.4</ele>
        <time>2021-05-29T06:56:54Z</time>
      </trkpt>
      <trkpt lat="45.01988" lon="5.7272">
        <ele>1145.4</ele>
        <time>2021-05-29T06:56:55Z</time>
      </trkpt>
      <trkpt lat="45.01987" lon="5.72721">
        <ele>1145.8</ele>
        <time>2021-05-29T06:56:56Z</time>
      </trkpt>
      <trkpt lat="45.01985" lon="5.72722">
        <ele>1145.6</ele>
        <time>2021-05-29T06:56:57Z</time>
      </trkpt>
      <trkpt lat="45.01983" lon="5.72723">
        <ele>1145.8</ele>
        <time>2021-05-29T06:56:58Z</time>
      </trkpt>
      <trkpt lat="45.01982" lon="5.72725">
        <ele>1145.8</ele>
        <time>2021-05-29T06:56:59Z</time>
      </trkpt>
      <trkpt lat="45.0198" lon="5.72727">
        <ele>1145.6</ele>
        <time>2021-05-29T06:57:00Z</time>
      </trkpt>
      <trkpt lat="45.01979" lon="5.72728">
        <ele>1145.8</ele>
        <time>2021-05-29T06:57:01Z</time>
      </trkpt>
      <trkpt lat="45.01977" lon="5.7273">
        <ele>1146.2</ele>
        <time>2021-05-29T06:57:02Z</time>
      </trkpt>
      <trkpt lat="45.01976" lon="5.72731">
        <ele>1146.8</ele>
        <time>2021-05-29T06:57:03Z</time>
      </trkpt>
      <trkpt lat="45.01975" lon="5.72733">
        <ele>1147</ele>
        <time>2021-05-29T06:57:04Z</time>
      </trkpt>
      <trkpt lat="45.01974" lon="5.72734">
        <ele>1147.6</ele>
        <time>2021-05-29T06:57:05Z</time>
      </trkpt>
      <trkpt lat="45.01973" lon="5.72736">
        <ele>1148</ele>
        <time>2021-05-29T06:57:06Z</time>
      </trkpt>
      <trkpt lat="45.01971" lon="5.72737">
        <ele>1148.4</ele>
        <time>2021-05-29T06:57:07Z</time>
      </trkpt>
      <trkpt lat="45.0197" lon="5.72739">
        <ele>1148.6</ele>
        <time>2021-05-29T06:57:08Z</time>
      </trkpt>
      <trkpt lat="45.01969" lon="5.7274">
        <ele>1148.8</ele>
        <time>2021-05-29T06:57:09Z</time>
      </trkpt>
      <trkpt lat="45.01968" lon="5.72741">
        <ele>1148.8</ele>
        <time>2021-05-29T06:57:10Z</time>
      </trkpt>
      <trkpt lat="45.01967" lon="5.72742">
        <ele>1148.8</ele>
        <time>2021-05-29T06:57:11Z</time>
      </trkpt>
      <trkpt lat="45.01966" lon="5.72743">
        <ele>1149</ele>
        <time>2021-05-29T06:57:12Z</time>
      </trkpt>
      <trkpt lat="45.01965" lon="5.72743">
        <ele>1148.8</ele>
        <time>2021-05-29T06:57:13Z</time>
      </trkpt>
      <trkpt lat="45.01963" lon="5.72744">
        <ele>1149</ele>
        <time>2021-05-29T06:57:14Z</time>
      </trkpt>
      <trkpt lat="45.01962" lon="5.72745">
        <ele>1149.2</ele>
        <time>2021-05-29T06:57:15Z</time>
      </trkpt>
      <trkpt lat="45.01961" lon="5.72746">
        <ele>1149.8</ele>
        <time>2021-05-29T06:57:16Z</time>
      </trkpt>
      <trkpt lat="45.0196" lon="5.72747">
        <ele>1150.2</ele>
        <time>2021-05-29T06:57:17Z</time>
      </trkpt>
      <trkpt lat="45.0196" lon="5.72749">
        <ele>1150.8</ele>
        <time>2021-05-29T06:57:18Z</time>
      </trkpt>
      <trkpt lat="45.01959" lon="5.72751">
        <ele>1151.2</ele>
        <time>2021-05-29T06:57:19Z</time>
      </trkpt>
      <trkpt lat="45.01958" lon="5.72753">
        <ele>1151.2</ele>
        <time>2021-05-29T06:57:20Z</time>
      </trkpt>
      <trkpt lat="45.01958" lon="5.72754">
        <ele>1151.2</ele>
        <time>2021-05-29T06:57:21Z</time>
      </trkpt>
      <trkpt lat="45.01957" lon="5.72756">
        <ele>1151.2</ele>
        <time>2021-05-29T06:57:22Z</time>
      </trkpt>
      <trkpt lat="45.01956" lon="5.72758">
        <ele>1151.8</ele>
        <time>2021-05-29T06:57:23Z</time>
      </trkpt>
      <trkpt lat="45.01956" lon="5.72761">
        <ele>1152</ele>
        <time>2021-05-29T06:57:24Z</time>
      </trkpt>
      <trkpt lat="45.01955" lon="5.72763">
        <ele>1152.6</ele>
        <time>2021-05-29T06:57:25Z</time>
      </trkpt>
      <trkpt lat="45.01954" lon="5.72766">
        <ele>1152.8</ele>
        <time>2021-05-29T06:57:26Z</time>
      </trkpt>
      <trkpt lat="45.01953" lon="5.72769">
        <ele>1153.2</ele>
        <time>2021-05-29T06:57:27Z</time>
      </trkpt>
      <trkpt lat="45.01953" lon="5.72771">
        <ele>1153.2</ele>
        <time>2021-05-29T06:57:28Z</time>
      </trkpt>
      <trkpt lat="45.01951" lon="5.72773">
        <ele>1153.6</ele>
        <time>2021-05-29T06:57:29Z</time>
      </trkpt>
      <trkpt lat="45.0195" lon="5.72774">
        <ele>1153.8</ele>
        <time>2021-05-29T06:57:30Z</time>
      </trkpt>
      <trkpt lat="45.01949" lon="5.72776">
        <ele>1154.2</ele>
        <time>2021-05-29T06:57:31Z</time>
      </trkpt>
      <trkpt lat="45.01948" lon="5.72777">
        <ele>1154</ele>
        <time>2021-05-29T06:57:32Z</time>
      </trkpt>
      <trkpt lat="45.01946" lon="5.72779">
        <ele>1154</ele>
        <time>2021-05-29T06:57:33Z</time>
      </trkpt>
      <trkpt lat="45.01945" lon="5.7278">
        <ele>1154.2</ele>
        <time>2021-05-29T06:57:34Z</time>
      </trkpt>
      <trkpt lat="45.01944" lon="5.72781">
        <ele>1154.2</ele>
        <time>2021-05-29T06:57:35Z</time>
      </trkpt>
      <trkpt lat="45.01942" lon="5.72782">
        <ele>1154.6</ele>
        <time>2021-05-29T06:57:36Z</time>
      </trkpt>
      <trkpt lat="45.01941" lon="5.72783">
        <ele>1154.8</ele>
        <time>2021-05-29T06:57:37Z</time>
      </trkpt>
      <trkpt lat="45.01939" lon="5.72784">
        <ele>1155.4</ele>
        <time>2021-05-29T06:57:38Z</time>
      </trkpt>
      <trkpt lat="45.01938" lon="5.72785">
        <ele>1155.6</ele>
        <time>2021-05-29T06:57:39Z</time>
      </trkpt>
      <trkpt lat="45.01937" lon="5.72786">
        <ele>1155.6</ele>
        <time>2021-05-29T06:57:40Z</time>
      </trkpt>
      <trkpt lat="45.01935" lon="5.72786">
        <ele>1155.6</ele>
        <time>2021-05-29T06:57:41Z</time>
      </trkpt>
      <trkpt lat="45.01934" lon="5.72786">
        <ele>1155.8</ele>
        <time>2021-05-29T06:57:42Z</time>
      </trkpt>
      <trkpt lat="45.01933" lon="5.72786">
        <ele>1156</ele>
        <time>2021-05-29T06:57:43Z</time>
      </trkpt>
      <trkpt lat="45.01931" lon="5.72785">
        <ele>1156</ele>
        <time>2021-05-29T06:57:44Z</time>
      </trkpt>
      <trkpt lat="45.0193" lon="5.72785">
        <ele>1156</ele>
        <time>2021-05-29T06:57:45Z</time>
      </trkpt>
      <trkpt lat="45.01928" lon="5.72785">
        <ele>1155.8</ele>
        <time>2021-05-29T06:57:46Z</time>
      </trkpt>
      <trkpt lat="45.01927" lon="5.72784">
        <ele>1156.2</ele>
        <time>2021-05-29T06:57:47Z</time>
      </trkpt>
      <trkpt lat="45.01925" lon="5.72783">
        <ele>1156.4</ele>
        <time>2021-05-29T06:57:48Z</time>
      </trkpt>
      <trkpt lat="45.01923" lon="5.72781">
        <ele>1157.2</ele>
        <time>2021-05-29T06:57:49Z</time>
      </trkpt>
      <trkpt lat="45.0192" lon="5.72779">
        <ele>1157.2</ele>
        <time>2021-05-29T06:57:50Z</time>
      </trkpt>
      <trkpt lat="45.01918" lon="5.72777">
        <ele>1157.6</ele>
        <time>2021-05-29T06:57:51Z</time>
      </trkpt>
      <trkpt lat="45.01911" lon="5.72766">
        <ele>1157.6</ele>
        <time>2021-05-29T06:57:52Z</time>
      </trkpt>
      <trkpt lat="45.01911" lon="5.72766">
        <ele>1157.8</ele>
        <time>2021-05-29T06:57:53Z</time>
      </trkpt>
      <trkpt lat="45.01911" lon="5.72766">
        <ele>1157.6</ele>
        <time>2021-05-29T06:57:54Z</time>
      </trkpt>
      <trkpt lat="45.01909" lon="5.72763">
        <ele>1157.6</ele>
        <time>2021-05-29T06:57:55Z</time>
      </trkpt>
      <trkpt lat="45.01908" lon="5.7276">
        <ele>1157.6</ele>
        <time>2021-05-29T06:57:56Z</time>
      </trkpt>
      <trkpt lat="45.01906" lon="5.72758">
        <ele>1157.8</ele>
        <time>2021-05-29T06:57:57Z</time>
      </trkpt>
      <trkpt lat="45.01905" lon="5.72755">
        <ele>1158.6</ele>
        <time>2021-05-29T06:57:58Z</time>
      </trkpt>
      <trkpt lat="45.01903" lon="5.72752">
        <ele>1158.8</ele>
        <time>2021-05-29T06:57:59Z</time>
      </trkpt>
      <trkpt lat="45.01901" lon="5.72749">
        <ele>1159.2</ele>
        <time>2021-05-29T06:58:00Z</time>
      </trkpt>
      <trkpt lat="45.01898" lon="5.72747">
        <ele>1159.2</ele>
        <time>2021-05-29T06:58:01Z</time>
      </trkpt>
      <trkpt lat="45.01896" lon="5.72744">
        <ele>1159.6</ele>
        <time>2021-05-29T06:58:02Z</time>
      </trkpt>
      <trkpt lat="45.01894" lon="5.72742">
        <ele>1159.6</ele>
        <time>2021-05-29T06:58:03Z</time>
      </trkpt>
      <trkpt lat="45.01892" lon="5.72741">
        <ele>1159.8</ele>
        <time>2021-05-29T06:58:04Z</time>
      </trkpt>
      <trkpt lat="45.0189" lon="5.72739">
        <ele>1159.8</ele>
        <time>2021-05-29T06:58:05Z</time>
      </trkpt>
      <trkpt lat="45.01888" lon="5.72737">
        <ele>1159.8</ele>
        <time>2021-05-29T06:58:06Z</time>
      </trkpt>
      <trkpt lat="45.01888" lon="5.72736">
        <ele>1159.8</ele>
        <time>2021-05-29T06:58:07Z</time>
      </trkpt>
      <trkpt lat="45.01887" lon="5.72734">
        <ele>1160</ele>
        <time>2021-05-29T06:58:08Z</time>
      </trkpt>
      <trkpt lat="45.01887" lon="5.72732">
        <ele>1160.6</ele>
        <time>2021-05-29T06:58:09Z</time>
      </trkpt>
      <trkpt lat="45.01886" lon="5.7273">
        <ele>1160.8</ele>
        <time>2021-05-29T06:58:10Z</time>
      </trkpt>
      <trkpt lat="45.01886" lon="5.72729">
        <ele>1161.4</ele>
        <time>2021-05-29T06:58:11Z</time>
      </trkpt>
      <trkpt lat="45.01885" lon="5.72727">
        <ele>1161.6</ele>
        <time>2021-05-29T06:58:12Z</time>
      </trkpt>
      <trkpt lat="45.01885" lon="5.72725">
        <ele>1161.8</ele>
        <time>2021-05-29T06:58:13Z</time>
      </trkpt>
      <trkpt lat="45.01883" lon="5.72723">
        <ele>1161.8</ele>
        <time>2021-05-29T06:58:14Z</time>
      </trkpt>
      <trkpt lat="45.01882" lon="5.7272">
        <ele>1162.2</ele>
        <time>2021-05-29T06:58:15Z</time>
      </trkpt>
      <trkpt lat="45.01881" lon="5.72717">
        <ele>1162.2</ele>
        <time>2021-05-29T06:58:16Z</time>
      </trkpt>
      <trkpt lat="45.01879" lon="5.72715">
        <ele>1162.2</ele>
        <time>2021-05-29T06:58:17Z</time>
      </trkpt>
      <trkpt lat="45.01878" lon="5.7271">
        <ele>1162.2</ele>
        <time>2021-05-29T06:58:18Z</time>
      </trkpt>
      <trkpt lat="45.01876" lon="5.72705">
        <ele>1162</ele>
        <time>2021-05-29T06:58:19Z</time>
      </trkpt>
      <trkpt lat="45.01874" lon="5.727">
        <ele>1162.2</ele>
        <time>2021-05-29T06:58:20Z</time>
      </trkpt>
      <trkpt lat="45.01873" lon="5.72695">
        <ele>1162.4</ele>
        <time>2021-05-29T06:58:21Z</time>
      </trkpt>
      <trkpt lat="45.0187" lon="5.7269">
        <ele>1162.6</ele>
        <time>2021-05-29T06:58:22Z</time>
      </trkpt>
      <trkpt lat="45.0187" lon="5.7269">
        <ele>1163</ele>
        <time>2021-05-29T06:58:23Z</time>
      </trkpt>
      <trkpt lat="45.0187" lon="5.7269">
        <ele>1163.6</ele>
        <time>2021-05-29T06:58:24Z</time>
      </trkpt>
      <trkpt lat="45.01868" lon="5.72687">
        <ele>1163.8</ele>
        <time>2021-05-29T06:58:25Z</time>
      </trkpt>
      <trkpt lat="45.01867" lon="5.72685">
        <ele>1164.4</ele>
        <time>2021-05-29T06:58:26Z</time>
      </trkpt>
      <trkpt lat="45.01865" lon="5.72682">
        <ele>1164.2</ele>
        <time>2021-05-29T06:58:27Z</time>
      </trkpt>
      <trkpt lat="45.01863" lon="5.7268">
        <ele>1164.4</ele>
        <time>2021-05-29T06:58:28Z</time>
      </trkpt>
      <trkpt lat="45.01861" lon="5.72678">
        <ele>1164.2</ele>
        <time>2021-05-29T06:58:29Z</time>
      </trkpt>
      <trkpt lat="45.01859" lon="5.72676">
        <ele>1164</ele>
        <time>2021-05-29T06:58:30Z</time>
      </trkpt>
      <trkpt lat="45.01857" lon="5.72675">
        <ele>1164.2</ele>
        <time>2021-05-29T06:58:31Z</time>
      </trkpt>
      <trkpt lat="45.01856" lon="5.72673">
        <ele>1164.2</ele>
        <time>2021-05-29T06:58:32Z</time>
      </trkpt>
      <trkpt lat="45.01854" lon="5.72672">
        <ele>1164.8</ele>
        <time>2021-05-29T06:58:33Z</time>
      </trkpt>
      <trkpt lat="45.01852" lon="5.72668">
        <ele>1164.8</ele>
        <time>2021-05-29T06:58:34Z</time>
      </trkpt>
      <trkpt lat="45.0185" lon="5.72665">
        <ele>1165.4</ele>
        <time>2021-05-29T06:58:35Z</time>
      </trkpt>
      <trkpt lat="45.01849" lon="5.72662">
        <ele>1165.6</ele>
        <time>2021-05-29T06:58:36Z</time>
      </trkpt>
      <trkpt lat="45.01847" lon="5.72659">
        <ele>1166</ele>
        <time>2021-05-29T06:58:37Z</time>
      </trkpt>
      <trkpt lat="45.01846" lon="5.72655">
        <ele>1166</ele>
        <time>2021-05-29T06:58:38Z</time>
      </trkpt>
      <trkpt lat="45.01844" lon="5.72652">
        <ele>1166.2</ele>
        <time>2021-05-29T06:58:39Z</time>
      </trkpt>
      <trkpt lat="45.01843" lon="5.72649">
        <ele>1166.2</ele>
        <time>2021-05-29T06:58:40Z</time>
      </trkpt>
      <trkpt lat="45.01841" lon="5.72645">
        <ele>1166.2</ele>
        <time>2021-05-29T06:58:41Z</time>
      </trkpt>
      <trkpt lat="45.0184" lon="5.72643">
        <ele>1166.4</ele>
        <time>2021-05-29T06:58:42Z</time>
      </trkpt>
      <trkpt lat="45.01839" lon="5.72641">
        <ele>1166.2</ele>
        <time>2021-05-29T06:58:43Z</time>
      </trkpt>
      <trkpt lat="45.01839" lon="5.72639">
        <ele>1166.8</ele>
        <time>2021-05-29T06:58:44Z</time>
      </trkpt>
      <trkpt lat="45.01838" lon="5.72636">
        <ele>1167.2</ele>
        <time>2021-05-29T06:58:45Z</time>
      </trkpt>
      <trkpt lat="45.01837" lon="5.72634">
        <ele>1167.4</ele>
        <time>2021-05-29T06:58:46Z</time>
      </trkpt>
      <trkpt lat="45.01835" lon="5.72632">
        <ele>1167.8</ele>
        <time>2021-05-29T06:58:47Z</time>
      </trkpt>
      <trkpt lat="45.01833" lon="5.7263">
        <ele>1168.2</ele>
        <time>2021-05-29T06:58:48Z</time>
      </trkpt>
      <trkpt lat="45.01831" lon="5.72627">
        <ele>1168.4</ele>
        <time>2021-05-29T06:58:49Z</time>
      </trkpt>
      <trkpt lat="45.01829" lon="5.72625">
        <ele>1168.6</ele>
        <time>2021-05-29T06:58:50Z</time>
      </trkpt>
      <trkpt lat="45.01828" lon="5.72624">
        <ele>1168.6</ele>
        <time>2021-05-29T06:58:51Z</time>
      </trkpt>
      <trkpt lat="45.01828" lon="5.72623">
        <ele>1168.8</ele>
        <time>2021-05-29T06:58:52Z</time>
      </trkpt>
      <trkpt lat="45.01827" lon="5.72622">
        <ele>1169</ele>
        <time>2021-05-29T06:58:53Z</time>
      </trkpt>
      <trkpt lat="45.01827" lon="5.72621">
        <ele>1169.2</ele>
        <time>2021-05-29T06:58:54Z</time>
      </trkpt>
      <trkpt lat="45.01826" lon="5.7262">
        <ele>1169.6</ele>
        <time>2021-05-29T06:58:55Z</time>
      </trkpt>
      <trkpt lat="45.01826" lon="5.72619">
        <ele>1169.8</ele>
        <time>2021-05-29T06:58:56Z</time>
      </trkpt>
      <trkpt lat="45.01825" lon="5.72618">
        <ele>1170.4</ele>
        <time>2021-05-29T06:58:57Z</time>
      </trkpt>
      <trkpt lat="45.01825" lon="5.72617">
        <ele>1170.6</ele>
        <time>2021-05-29T06:58:58Z</time>
      </trkpt>
      <trkpt lat="45.01824" lon="5.72616">
        <ele>1170.8</ele>
        <time>2021-05-29T06:58:59Z</time>
      </trkpt>
      <trkpt lat="45.01824" lon="5.72615">
        <ele>1170.8</ele>
        <time>2021-05-29T06:59:00Z</time>
      </trkpt>
      <trkpt lat="45.01823" lon="5.72614">
        <ele>1171</ele>
        <time>2021-05-29T06:59:01Z</time>
      </trkpt>
      <trkpt lat="45.01822" lon="5.72612">
        <ele>1171</ele>
        <time>2021-05-29T06:59:02Z</time>
      </trkpt>
      <trkpt lat="45.01822" lon="5.7261">
        <ele>1171</ele>
        <time>2021-05-29T06:59:03Z</time>
      </trkpt>
      <trkpt lat="45.01821" lon="5.72608">
        <ele>1171.4</ele>
        <time>2021-05-29T06:59:04Z</time>
      </trkpt>
      <trkpt lat="45.0182" lon="5.72606">
        <ele>1171.6</ele>
        <time>2021-05-29T06:59:05Z</time>
      </trkpt>
      <trkpt lat="45.01819" lon="5.72604">
        <ele>1172</ele>
        <time>2021-05-29T06:59:06Z</time>
      </trkpt>
      <trkpt lat="45.01818" lon="5.72602">
        <ele>1172.2</ele>
        <time>2021-05-29T06:59:07Z</time>
      </trkpt>
      <trkpt lat="45.01817" lon="5.726">
        <ele>1172.6</ele>
        <time>2021-05-29T06:59:08Z</time>
      </trkpt>
      <trkpt lat="45.01817" lon="5.72598">
        <ele>1172.8</ele>
        <time>2021-05-29T06:59:09Z</time>
      </trkpt>
      <trkpt lat="45.01816" lon="5.72596">
        <ele>1173.2</ele>
        <time>2021-05-29T06:59:10Z</time>
      </trkpt>
      <trkpt lat="45.01815" lon="5.72594">
        <ele>1173.2</ele>
        <time>2021-05-29T06:59:11Z</time>
      </trkpt>
      <trkpt lat="45.01814" lon="5.72593">
        <ele>1173.4</ele>
        <time>2021-05-29T06:59:12Z</time>
      </trkpt>
      <trkpt lat="45.01813" lon="5.72591">
        <ele>1173.4</ele>
        <time>2021-05-29T06:59:13Z</time>
      </trkpt>
      <trkpt lat="45.01812" lon="5.72589">
        <ele>1173.6</ele>
        <time>2021-05-29T06:59:14Z</time>
      </trkpt>
      <trkpt lat="45.0181" lon="5.72588">
        <ele>1174</ele>
        <time>2021-05-29T06:59:15Z</time>
      </trkpt>
      <trkpt lat="45.01809" lon="5.72586">
        <ele>1174.2</ele>
        <time>2021-05-29T06:59:16Z</time>
      </trkpt>
      <trkpt lat="45.01807" lon="5.72584">
        <ele>1174.4</ele>
        <time>2021-05-29T06:59:17Z</time>
      </trkpt>
      <trkpt lat="45.01805" lon="5.72583">
        <ele>1174.6</ele>
        <time>2021-05-29T06:59:18Z</time>
      </trkpt>
      <trkpt lat="45.01804" lon="5.72581">
        <ele>1174.8</ele>
        <time>2021-05-29T06:59:19Z</time>
      </trkpt>
      <trkpt lat="45.01803" lon="5.7258">
        <ele>1174.8</ele>
        <time>2021-05-29T06:59:20Z</time>
      </trkpt>
      <trkpt lat="45.01802" lon="5.72579">
        <ele>1175</ele>
        <time>2021-05-29T06:59:21Z</time>
      </trkpt>
      <trkpt lat="45.01801" lon="5.72578">
        <ele>1175</ele>
        <time>2021-05-29T06:59:22Z</time>
      </trkpt>
      <trkpt lat="45.018" lon="5.72577">
        <ele>1175</ele>
        <time>2021-05-29T06:59:23Z</time>
      </trkpt>
      <trkpt lat="45.018" lon="5.72576">
        <ele>1175</ele>
        <time>2021-05-29T06:59:24Z</time>
      </trkpt>
      <trkpt lat="45.01799" lon="5.72575">
        <ele>1175.4</ele>
        <time>2021-05-29T06:59:25Z</time>
      </trkpt>
      <trkpt lat="45.01798" lon="5.72574">
        <ele>1175.6</ele>
        <time>2021-05-29T06:59:26Z</time>
      </trkpt>
      <trkpt lat="45.01797" lon="5.72573">
        <ele>1175.8</ele>
        <time>2021-05-29T06:59:27Z</time>
      </trkpt>
      <trkpt lat="45.01797" lon="5.72572">
        <ele>1176</ele>
        <time>2021-05-29T06:59:28Z</time>
      </trkpt>
      <trkpt lat="45.01796" lon="5.72571">
        <ele>1176</ele>
        <time>2021-05-29T06:59:29Z</time>
      </trkpt>
      <trkpt lat="45.01795" lon="5.7257">
        <ele>1176</ele>
        <time>2021-05-29T06:59:30Z</time>
      </trkpt>
      <trkpt lat="45.01794" lon="5.72568">
        <ele>1176.2</ele>
        <time>2021-05-29T06:59:31Z</time>
      </trkpt>
      <trkpt lat="45.01793" lon="5.72567">
        <ele>1176.4</ele>
        <time>2021-05-29T06:59:32Z</time>
      </trkpt>
      <trkpt lat="45.01792" lon="5.72565">
        <ele>1176.4</ele>
        <time>2021-05-29T06:59:33Z</time>
      </trkpt>
      <trkpt lat="45.01791" lon="5.72564">
        <ele>1176.6</ele>
        <time>2021-05-29T06:59:34Z</time>
      </trkpt>
      <trkpt lat="45.0179" lon="5.72563">
        <ele>1176.8</ele>
        <time>2021-05-29T06:59:35Z</time>
      </trkpt>
      <trkpt lat="45.01788" lon="5.72561">
        <ele>1177</ele>
        <time>2021-05-29T06:59:36Z</time>
      </trkpt>
      <trkpt lat="45.01786" lon="5.7256">
        <ele>1177.2</ele>
        <time>2021-05-29T06:59:37Z</time>
      </trkpt>
      <trkpt lat="45.01784" lon="5.72559">
        <ele>1177.2</ele>
        <time>2021-05-29T06:59:38Z</time>
      </trkpt>
      <trkpt lat="45.01783" lon="5.72558">
        <ele>1177.2</ele>
        <time>2021-05-29T06:59:39Z</time>
      </trkpt>
      <trkpt lat="45.01781" lon="5.72556">
        <ele>1177.4</ele>
        <time>2021-05-29T06:59:40Z</time>
      </trkpt>
      <trkpt lat="45.0178" lon="5.72548">
        <ele>1177.6</ele>
        <time>2021-05-29T06:59:41Z</time>
      </trkpt>
      <trkpt lat="45.0178" lon="5.72548">
        <ele>1177.6</ele>
        <time>2021-05-29T06:59:42Z</time>
      </trkpt>
      <trkpt lat="45.0178" lon="5.72548">
        <ele>1177.6</ele>
        <time>2021-05-29T06:59:43Z</time>
      </trkpt>
      <trkpt lat="45.0178" lon="5.72546">
        <ele>1178</ele>
        <time>2021-05-29T06:59:44Z</time>
      </trkpt>
      <trkpt lat="45.0178" lon="5.72544">
        <ele>1178</ele>
        <time>2021-05-29T06:59:45Z</time>
      </trkpt>
      <trkpt lat="45.0178" lon="5.72542">
        <ele>1178.2</ele>
        <time>2021-05-29T06:59:46Z</time>
      </trkpt>
      <trkpt lat="45.01779" lon="5.72541">
        <ele>1178.2</ele>
        <time>2021-05-29T06:59:47Z</time>
      </trkpt>
      <trkpt lat="45.01779" lon="5.72539">
        <ele>1178.4</ele>
        <time>2021-05-29T06:59:48Z</time>
      </trkpt>
      <trkpt lat="45.01779" lon="5.72539">
        <ele>1178.4</ele>
        <time>2021-05-29T06:59:49Z</time>
      </trkpt>
      <trkpt lat="45.01779" lon="5.72539">
        <ele>1178.4</ele>
        <time>2021-05-29T06:59:50Z</time>
      </trkpt>
      <trkpt lat="45.01779" lon="5.72539">
        <ele>1178.4</ele>
        <time>2021-05-29T06:59:51Z</time>
      </trkpt>
      <trkpt lat="45.01778" lon="5.72539">
        <ele>1178.6</ele>
        <time>2021-05-29T06:59:52Z</time>
      </trkpt>
      <trkpt lat="45.01778" lon="5.72539">
        <ele>1178.8</ele>
        <time>2021-05-29T06:59:53Z</time>
      </trkpt>
      <trkpt lat="45.01778" lon="5.72539">
        <ele>1179</ele>
        <time>2021-05-29T06:59:54Z</time>
      </trkpt>
      <trkpt lat="45.01778" lon="5.72539">
        <ele>1179</ele>
        <time>2021-05-29T06:59:55Z</time>
      </trkpt>
      <trkpt lat="45.01777" lon="5.72538">
        <ele>1179.2</ele>
        <time>2021-05-29T06:59:56Z</time>
      </trkpt>
      <trkpt lat="45.01777" lon="5.72538">
        <ele>1179.4</ele>
        <time>2021-05-29T06:59:57Z</time>
      </trkpt>
      <trkpt lat="45.01777" lon="5.72538">
        <ele>1179</ele>
        <time>2021-05-29T06:59:58Z</time>
      </trkpt>
      <trkpt lat="45.01777" lon="5.72538">
        <ele>1178.6</ele>
        <time>2021-05-29T07:00:00Z</time>
      </trkpt>
      <trkpt lat="45.01776" lon="5.72538">
        <ele>1178.4</ele>
        <time>2021-05-29T07:00:01Z</time>
      </trkpt>
      <trkpt lat="45.01776" lon="5.72538">
        <ele>1178.2</ele>
        <time>2021-05-29T07:00:02Z</time>
      </trkpt>
      <trkpt lat="45.01776" lon="5.72538">
        <ele>1178.2</ele>
        <time>2021-05-29T07:00:03Z</time>
      </trkpt>
      <trkpt lat="45.01776" lon="5.72538">
        <ele>1178.4</ele>
        <time>2021-05-29T07:00:04Z</time>
      </trkpt>
      <trkpt lat="45.01775" lon="5.72538">
        <ele>1178.2</ele>
        <time>2021-05-29T07:00:05Z</time>
      </trkpt>
      <trkpt lat="45.01775" lon="5.72538">
        <ele>1178.2</ele>
        <time>2021-05-29T07:00:06Z</time>
      </trkpt>
      <trkpt lat="45.01774" lon="5.72537">
        <ele>1178.4</ele>
        <time>2021-05-29T07:00:07Z</time>
      </trkpt>
      <trkpt lat="45.01774" lon="5.72536">
        <ele>1178.6</ele>
        <time>2021-05-29T07:00:08Z</time>
      </trkpt>
      <trkpt lat="45.01773" lon="5.72535">
        <ele>1178.8</ele>
        <time>2021-05-29T07:00:09Z</time>
      </trkpt>
      <trkpt lat="45.01773" lon="5.72535">
        <ele>1179.2</ele>
        <time>2021-05-29T07:00:10Z</time>
      </trkpt>
      <trkpt lat="45.01772" lon="5.72534">
        <ele>1179.4</ele>
        <time>2021-05-29T07:00:11Z</time>
      </trkpt>
      <trkpt lat="45.01772" lon="5.72533">
        <ele>1179.6</ele>
        <time>2021-05-29T07:00:12Z</time>
      </trkpt>
      <trkpt lat="45.01771" lon="5.72532">
        <ele>1179.8</ele>
        <time>2021-05-29T07:00:13Z</time>
      </trkpt>
      <trkpt lat="45.0177" lon="5.72532">
        <ele>1180</ele>
        <time>2021-05-29T07:00:14Z</time>
      </trkpt>
      <trkpt lat="45.0177" lon="5.72531">
        <ele>1180</ele>
        <time>2021-05-29T07:00:15Z</time>
      </trkpt>
      <trkpt lat="45.01769" lon="5.7253">
        <ele>1180</ele>
        <time>2021-05-29T07:00:16Z</time>
      </trkpt>
      <trkpt lat="45.01769" lon="5.72529">
        <ele>1180.2</ele>
        <time>2021-05-29T07:00:17Z</time>
      </trkpt>
      <trkpt lat="45.01767" lon="5.72529">
        <ele>1180.2</ele>
        <time>2021-05-29T07:00:18Z</time>
      </trkpt>
      <trkpt lat="45.01766" lon="5.72529">
        <ele>1180.4</ele>
        <time>2021-05-29T07:00:19Z</time>
      </trkpt>
      <trkpt lat="45.01764" lon="5.72529">
        <ele>1180.4</ele>
        <time>2021-05-29T07:00:20Z</time>
      </trkpt>
      <trkpt lat="45.01762" lon="5.72529">
        <ele>1180.4</ele>
        <time>2021-05-29T07:00:21Z</time>
      </trkpt>
      <trkpt lat="45.0176" lon="5.72529">
        <ele>1180.4</ele>
        <time>2021-05-29T07:00:22Z</time>
      </trkpt>
      <trkpt lat="45.01759" lon="5.72528">
        <ele>1180.4</ele>
        <time>2021-05-29T07:00:23Z</time>
      </trkpt>
      <trkpt lat="45.01757" lon="5.72528">
        <ele>1180.6</ele>
        <time>2021-05-29T07:00:24Z</time>
      </trkpt>
      <trkpt lat="45.01755" lon="5.72527">
        <ele>1180.6</ele>
        <time>2021-05-29T07:00:25Z</time>
      </trkpt>
      <trkpt lat="45.01752" lon="5.72526">
        <ele>1180.8</ele>
        <time>2021-05-29T07:00:26Z</time>
      </trkpt>
      <trkpt lat="45.0175" lon="5.72525">
        <ele>1180.8</ele>
        <time>2021-05-29T07:00:27Z</time>
      </trkpt>
      <trkpt lat="45.01747" lon="5.72523">
        <ele>1181</ele>
        <time>2021-05-29T07:00:28Z</time>
      </trkpt>
      <trkpt lat="45.01746" lon="5.72524">
        <ele>1181.2</ele>
        <time>2021-05-29T07:00:29Z</time>
      </trkpt>
      <trkpt lat="45.01744" lon="5.72524">
        <ele>1181.4</ele>
        <time>2021-05-29T07:00:30Z</time>
      </trkpt>
      <trkpt lat="45.01742" lon="5.72524">
        <ele>1181.6</ele>
        <time>2021-05-29T07:00:31Z</time>
      </trkpt>
      <trkpt lat="45.01741" lon="5.72525">
        <ele>1181.6</ele>
        <time>2021-05-29T07:00:32Z</time>
      </trkpt>
      <trkpt lat="45.01739" lon="5.72525">
        <ele>1181.8</ele>
        <time>2021-05-29T07:00:33Z</time>
      </trkpt>
      <trkpt lat="45.01738" lon="5.72525">
        <ele>1182</ele>
        <time>2021-05-29T07:00:34Z</time>
      </trkpt>
      <trkpt lat="45.01736" lon="5.72525">
        <ele>1182</ele>
        <time>2021-05-29T07:00:35Z</time>
      </trkpt>
      <trkpt lat="45.01734" lon="5.72525">
        <ele>1182.2</ele>
        <time>2021-05-29T07:00:36Z</time>
      </trkpt>
      <trkpt lat="45.01732" lon="5.72525">
        <ele>1182.2</ele>
        <time>2021-05-29T07:00:37Z</time>
      </trkpt>
      <trkpt lat="45.0173" lon="5.72525">
        <ele>1182.2</ele>
        <time>2021-05-29T07:00:38Z</time>
      </trkpt>
      <trkpt lat="45.01728" lon="5.72525">
        <ele>1182.2</ele>
        <time>2021-05-29T07:00:39Z</time>
      </trkpt>
      <trkpt lat="45.01727" lon="5.72524">
        <ele>1182.4</ele>
        <time>2021-05-29T07:00:40Z</time>
      </trkpt>
      <trkpt lat="45.01725" lon="5.72522">
        <ele>1182.4</ele>
        <time>2021-05-29T07:00:41Z</time>
      </trkpt>
      <trkpt lat="45.01724" lon="5.72521">
        <ele>1182.6</ele>
        <time>2021-05-29T07:00:42Z</time>
      </trkpt>
      <trkpt lat="45.01723" lon="5.72519">
        <ele>1182.8</ele>
        <time>2021-05-29T07:00:43Z</time>
      </trkpt>
      <trkpt lat="45.01722" lon="5.72518">
        <ele>1182.8</ele>
        <time>2021-05-29T07:00:44Z</time>
      </trkpt>
      <trkpt lat="45.01721" lon="5.72516">
        <ele>1182.8</ele>
        <time>2021-05-29T07:00:45Z</time>
      </trkpt>
      <trkpt lat="45.01719" lon="5.72515">
        <ele>1182.8</ele>
        <time>2021-05-29T07:00:46Z</time>
      </trkpt>
      <trkpt lat="45.01717" lon="5.72514">
        <ele>1183</ele>
        <time>2021-05-29T07:00:47Z</time>
      </trkpt>
      <trkpt lat="45.01716" lon="5.72513">
        <ele>1183.4</ele>
        <time>2021-05-29T07:00:48Z</time>
      </trkpt>
      <trkpt lat="45.01714" lon="5.72512">
        <ele>1183.4</ele>
        <time>2021-05-29T07:00:49Z</time>
      </trkpt>
      <trkpt lat="45.01712" lon="5.72511">
        <ele>1183.6</ele>
        <time>2021-05-29T07:00:50Z</time>
      </trkpt>
      <trkpt lat="45.01711" lon="5.7251">
        <ele>1183.6</ele>
        <time>2021-05-29T07:00:51Z</time>
      </trkpt>
      <trkpt lat="45.01709" lon="5.72509">
        <ele>1183.6</ele>
        <time>2021-05-29T07:00:52Z</time>
      </trkpt>
      <trkpt lat="45.01708" lon="5.72508">
        <ele>1183.8</ele>
        <time>2021-05-29T07:00:53Z</time>
      </trkpt>
      <trkpt lat="45.01706" lon="5.72508">
        <ele>1184</ele>
        <time>2021-05-29T07:00:54Z</time>
      </trkpt>
      <trkpt lat="45.01705" lon="5.72507">
        <ele>1184.2</ele>
        <time>2021-05-29T07:00:55Z</time>
      </trkpt>
      <trkpt lat="45.01703" lon="5.72506">
        <ele>1184.2</ele>
        <time>2021-05-29T07:00:56Z</time>
      </trkpt>
      <trkpt lat="45.01702" lon="5.72506">
        <ele>1184.2</ele>
        <time>2021-05-29T07:00:57Z</time>
      </trkpt>
      <trkpt lat="45.017" lon="5.72505">
        <ele>1184.6</ele>
        <time>2021-05-29T07:00:58Z</time>
      </trkpt>
      <trkpt lat="45.01699" lon="5.72505">
        <ele>1184.8</ele>
        <time>2021-05-29T07:00:59Z</time>
      </trkpt>
      <trkpt lat="45.01697" lon="5.72504">
        <ele>1185.2</ele>
        <time>2021-05-29T07:01:00Z</time>
      </trkpt>
      <trkpt lat="45.01695" lon="5.72504">
        <ele>1185.2</ele>
        <time>2021-05-29T07:01:01Z</time>
      </trkpt>
      <trkpt lat="45.01693" lon="5.72504">
        <ele>1185.2</ele>
        <time>2021-05-29T07:01:02Z</time>
      </trkpt>
      <trkpt lat="45.01691" lon="5.72503">
        <ele>1185.4</ele>
        <time>2021-05-29T07:01:03Z</time>
      </trkpt>
      <trkpt lat="45.0169" lon="5.72503">
        <ele>1185.4</ele>
        <time>2021-05-29T07:01:04Z</time>
      </trkpt>
      <trkpt lat="45.01689" lon="5.72502">
        <ele>1185.8</ele>
        <time>2021-05-29T07:01:05Z</time>
      </trkpt>
      <trkpt lat="45.01688" lon="5.72502">
        <ele>1186.2</ele>
        <time>2021-05-29T07:01:06Z</time>
      </trkpt>
      <trkpt lat="45.01687" lon="5.72501">
        <ele>1186.4</ele>
        <time>2021-05-29T07:01:07Z</time>
      </trkpt>
      <trkpt lat="45.01686" lon="5.72501">
        <ele>1186.6</ele>
        <time>2021-05-29T07:01:08Z</time>
      </trkpt>
      <trkpt lat="45.01685" lon="5.725">
        <ele>1187</ele>
        <time>2021-05-29T07:01:09Z</time>
      </trkpt>
      <trkpt lat="45.01684" lon="5.725">
        <ele>1187.2</ele>
        <time>2021-05-29T07:01:10Z</time>
      </trkpt>
      <trkpt lat="45.01683" lon="5.72499">
        <ele>1187.2</ele>
        <time>2021-05-29T07:01:11Z</time>
      </trkpt>
      <trkpt lat="45.01682" lon="5.72499">
        <ele>1187.2</ele>
        <time>2021-05-29T07:01:12Z</time>
      </trkpt>
      <trkpt lat="45.01681" lon="5.72498">
        <ele>1187.4</ele>
        <time>2021-05-29T07:01:13Z</time>
      </trkpt>
      <trkpt lat="45.0168" lon="5.72497">
        <ele>1187.8</ele>
        <time>2021-05-29T07:01:14Z</time>
      </trkpt>
      <trkpt lat="45.01678" lon="5.72497">
        <ele>1188</ele>
        <time>2021-05-29T07:01:15Z</time>
      </trkpt>
      <trkpt lat="45.01677" lon="5.72496">
        <ele>1188</ele>
        <time>2021-05-29T07:01:16Z</time>
      </trkpt>
      <trkpt lat="45.01675" lon="5.72496">
        <ele>1188.2</ele>
        <time>2021-05-29T07:01:17Z</time>
      </trkpt>
      <trkpt lat="45.01674" lon="5.72495">
        <ele>1188.2</ele>
        <time>2021-05-29T07:01:18Z</time>
      </trkpt>
      <trkpt lat="45.01672" lon="5.72495">
        <ele>1188.2</ele>
        <time>2021-05-29T07:01:19Z</time>
      </trkpt>
      <trkpt lat="45.01671" lon="5.72494">
        <ele>1188.4</ele>
        <time>2021-05-29T07:01:20Z</time>
      </trkpt>
      <trkpt lat="45.01669" lon="5.72493">
        <ele>1188.6</ele>
        <time>2021-05-29T07:01:21Z</time>
      </trkpt>
      <trkpt lat="45.01667" lon="5.72492">
        <ele>1188.8</ele>
        <time>2021-05-29T07:01:22Z</time>
      </trkpt>
      <trkpt lat="45.01665" lon="5.72492">
        <ele>1189</ele>
        <time>2021-05-29T07:01:23Z</time>
      </trkpt>
      <trkpt lat="45.01664" lon="5.72491">
        <ele>1189.2</ele>
        <time>2021-05-29T07:01:24Z</time>
      </trkpt>
      <trkpt lat="45.01662" lon="5.72491">
        <ele>1189.4</ele>
        <time>2021-05-29T07:01:25Z</time>
      </trkpt>
      <trkpt lat="45.0166" lon="5.72491">
        <ele>1189.4</ele>
        <time>2021-05-29T07:01:26Z</time>
      </trkpt>
      <trkpt lat="45.01659" lon="5.72491">
        <ele>1189.6</ele>
        <time>2021-05-29T07:01:27Z</time>
      </trkpt>
      <trkpt lat="45.01657" lon="5.72491">
        <ele>1189.8</ele>
        <time>2021-05-29T07:01:28Z</time>
      </trkpt>
      <trkpt lat="45.01656" lon="5.72491">
        <ele>1189.8</ele>
        <time>2021-05-29T07:01:29Z</time>
      </trkpt>
      <trkpt lat="45.01654" lon="5.72491">
        <ele>1190</ele>
        <time>2021-05-29T07:01:30Z</time>
      </trkpt>
      <trkpt lat="45.01652" lon="5.72491">
        <ele>1190.2</ele>
        <time>2021-05-29T07:01:31Z</time>
      </trkpt>
      <trkpt lat="45.01651" lon="5.72491">
        <ele>1190.4</ele>
        <time>2021-05-29T07:01:32Z</time>
      </trkpt>
      <trkpt lat="45.01649" lon="5.72491">
        <ele>1190.6</ele>
        <time>2021-05-29T07:01:33Z</time>
      </trkpt>
      <trkpt lat="45.01648" lon="5.7249">
        <ele>1190.8</ele>
        <time>2021-05-29T07:01:34Z</time>
      </trkpt>
      <trkpt lat="45.01646" lon="5.7249">
        <ele>1191.2</ele>
        <time>2021-05-29T07:01:35Z</time>
      </trkpt>
      <trkpt lat="45.01644" lon="5.7249">
        <ele>1191.4</ele>
        <time>2021-05-29T07:01:36Z</time>
      </trkpt>
      <trkpt lat="45.01643" lon="5.72489">
        <ele>1191.6</ele>
        <time>2021-05-29T07:01:37Z</time>
      </trkpt>
      <trkpt lat="45.01642" lon="5.72489">
        <ele>1191.8</ele>
        <time>2021-05-29T07:01:38Z</time>
      </trkpt>
      <trkpt lat="45.01641" lon="5.72488">
        <ele>1191.8</ele>
        <time>2021-05-29T07:01:39Z</time>
      </trkpt>
      <trkpt lat="45.01641" lon="5.72487">
        <ele>1192</ele>
        <time>2021-05-29T07:01:40Z</time>
      </trkpt>
      <trkpt lat="45.0164" lon="5.72487">
        <ele>1192</ele>
        <time>2021-05-29T07:01:41Z</time>
      </trkpt>
      <trkpt lat="45.01639" lon="5.72486">
        <ele>1192</ele>
        <time>2021-05-29T07:01:42Z</time>
      </trkpt>
      <trkpt lat="45.01638" lon="5.72485">
        <ele>1192.2</ele>
        <time>2021-05-29T07:01:43Z</time>
      </trkpt>
      <trkpt lat="45.01637" lon="5.72485">
        <ele>1192.6</ele>
        <time>2021-05-29T07:01:44Z</time>
      </trkpt>
      <trkpt lat="45.01636" lon="5.72484">
        <ele>1192.8</ele>
        <time>2021-05-29T07:01:45Z</time>
      </trkpt>
      <trkpt lat="45.01635" lon="5.72484">
        <ele>1193</ele>
        <time>2021-05-29T07:01:46Z</time>
      </trkpt>
      <trkpt lat="45.01633" lon="5.72483">
        <ele>1193</ele>
        <time>2021-05-29T07:01:47Z</time>
      </trkpt>
      <trkpt lat="45.01632" lon="5.72483">
        <ele>1193</ele>
        <time>2021-05-29T07:01:48Z</time>
      </trkpt>
      <trkpt lat="45.01631" lon="5.72483">
        <ele>1193.2</ele>
        <time>2021-05-29T07:01:49Z</time>
      </trkpt>
      <trkpt lat="45.0163" lon="5.72482">
        <ele>1193.4</ele>
        <time>2021-05-29T07:01:50Z</time>
      </trkpt>
      <trkpt lat="45.01629" lon="5.72482">
        <ele>1193.4</ele>
        <time>2021-05-29T07:01:51Z</time>
      </trkpt>
      <trkpt lat="45.01628" lon="5.72482">
        <ele>1193.6</ele>
        <time>2021-05-29T07:01:52Z</time>
      </trkpt>
      <trkpt lat="45.01626" lon="5.72482">
        <ele>1193.8</ele>
        <time>2021-05-29T07:01:53Z</time>
      </trkpt>
      <trkpt lat="45.01625" lon="5.72481">
        <ele>1194.2</ele>
        <time>2021-05-29T07:01:54Z</time>
      </trkpt>
      <trkpt lat="45.01624" lon="5.72481">
        <ele>1194.4</ele>
        <time>2021-05-29T07:01:55Z</time>
      </trkpt>
      <trkpt lat="45.01623" lon="5.72481">
        <ele>1194.6</ele>
        <time>2021-05-29T07:01:56Z</time>
      </trkpt>
      <trkpt lat="45.01622" lon="5.72481">
        <ele>1194.4</ele>
        <time>2021-05-29T07:01:57Z</time>
      </trkpt>
      <trkpt lat="45.01621" lon="5.72481">
        <ele>1194.4</ele>
        <time>2021-05-29T07:01:58Z</time>
      </trkpt>
      <trkpt lat="45.0162" lon="5.72481">
        <ele>1194.6</ele>
        <time>2021-05-29T07:01:59Z</time>
      </trkpt>
      <trkpt lat="45.0162" lon="5.72482">
        <ele>1194.6</ele>
        <time>2021-05-29T07:02:00Z</time>
      </trkpt>
      <trkpt lat="45.01619" lon="5.72482">
        <ele>1195</ele>
        <time>2021-05-29T07:02:01Z</time>
      </trkpt>
      <trkpt lat="45.01618" lon="5.72482">
        <ele>1195</ele>
        <time>2021-05-29T07:02:02Z</time>
      </trkpt>
      <trkpt lat="45.01617" lon="5.72482">
        <ele>1195.2</ele>
        <time>2021-05-29T07:02:03Z</time>
      </trkpt>
      <trkpt lat="45.01616" lon="5.72482">
        <ele>1195.4</ele>
        <time>2021-05-29T07:02:04Z</time>
      </trkpt>
      <trkpt lat="45.01615" lon="5.72482">
        <ele>1195.6</ele>
        <time>2021-05-29T07:02:05Z</time>
      </trkpt>
      <trkpt lat="45.01613" lon="5.72482">
        <ele>1195.8</ele>
        <time>2021-05-29T07:02:06Z</time>
      </trkpt>
      <trkpt lat="45.01612" lon="5.72482">
        <ele>1196</ele>
        <time>2021-05-29T07:02:07Z</time>
      </trkpt>
      <trkpt lat="45.01611" lon="5.72483">
        <ele>1196</ele>
        <time>2021-05-29T07:02:08Z</time>
      </trkpt>
      <trkpt lat="45.0161" lon="5.72483">
        <ele>1196.8</ele>
        <time>2021-05-29T07:02:09Z</time>
      </trkpt>
      <trkpt lat="45.01608" lon="5.72484">
        <ele>1196.8</ele>
        <time>2021-05-29T07:02:10Z</time>
      </trkpt>
      <trkpt lat="45.01607" lon="5.72484">
        <ele>1196.6</ele>
        <time>2021-05-29T07:02:11Z</time>
      </trkpt>
      <trkpt lat="45.01606" lon="5.72484">
        <ele>1196.8</ele>
        <time>2021-05-29T07:02:12Z</time>
      </trkpt>
      <trkpt lat="45.01604" lon="5.72484">
        <ele>1196.8</ele>
        <time>2021-05-29T07:02:13Z</time>
      </trkpt>
      <trkpt lat="45.01603" lon="5.72483">
        <ele>1196.8</ele>
        <time>2021-05-29T07:02:14Z</time>
      </trkpt>
      <trkpt lat="45.01601" lon="5.72483">
        <ele>1197</ele>
        <time>2021-05-29T07:02:15Z</time>
      </trkpt>
      <trkpt lat="45.01599" lon="5.72482">
        <ele>1197.4</ele>
        <time>2021-05-29T07:02:16Z</time>
      </trkpt>
      <trkpt lat="45.01598" lon="5.72482">
        <ele>1197.6</ele>
        <time>2021-05-29T07:02:17Z</time>
      </trkpt>
      <trkpt lat="45.01596" lon="5.72481">
        <ele>1198</ele>
        <time>2021-05-29T07:02:18Z</time>
      </trkpt>
      <trkpt lat="45.01595" lon="5.72482">
        <ele>1198.2</ele>
        <time>2021-05-29T07:02:19Z</time>
      </trkpt>
      <trkpt lat="45.01593" lon="5.72482">
        <ele>1198.6</ele>
        <time>2021-05-29T07:02:20Z</time>
      </trkpt>
      <trkpt lat="45.01592" lon="5.72483">
        <ele>1198.6</ele>
        <time>2021-05-29T07:02:21Z</time>
      </trkpt>
      <trkpt lat="45.01591" lon="5.72484">
        <ele>1198.6</ele>
        <time>2021-05-29T07:02:22Z</time>
      </trkpt>
      <trkpt lat="45.01589" lon="5.72484">
        <ele>1198.8</ele>
        <time>2021-05-29T07:02:23Z</time>
      </trkpt>
      <trkpt lat="45.01588" lon="5.72485">
        <ele>1199</ele>
        <time>2021-05-29T07:02:24Z</time>
      </trkpt>
      <trkpt lat="45.01587" lon="5.72485">
        <ele>1199.2</ele>
        <time>2021-05-29T07:02:25Z</time>
      </trkpt>
      <trkpt lat="45.01586" lon="5.72485">
        <ele>1199.4</ele>
        <time>2021-05-29T07:02:26Z</time>
      </trkpt>
      <trkpt lat="45.01585" lon="5.72484">
        <ele>1199.2</ele>
        <time>2021-05-29T07:02:27Z</time>
      </trkpt>
      <trkpt lat="45.01584" lon="5.72484">
        <ele>1199.2</ele>
        <time>2021-05-29T07:02:28Z</time>
      </trkpt>
      <trkpt lat="45.01583" lon="5.72483">
        <ele>1199.2</ele>
        <time>2021-05-29T07:02:29Z</time>
      </trkpt>
      <trkpt lat="45.01582" lon="5.72483">
        <ele>1199.6</ele>
        <time>2021-05-29T07:02:30Z</time>
      </trkpt>
      <trkpt lat="45.01581" lon="5.72482">
        <ele>1199.8</ele>
        <time>2021-05-29T07:02:31Z</time>
      </trkpt>
      <trkpt lat="45.01581" lon="5.72482">
        <ele>1200</ele>
        <time>2021-05-29T07:02:32Z</time>
      </trkpt>
      <trkpt lat="45.0158" lon="5.72481">
        <ele>1200.2</ele>
        <time>2021-05-29T07:02:33Z</time>
      </trkpt>
      <trkpt lat="45.01579" lon="5.72481">
        <ele>1200.4</ele>
        <time>2021-05-29T07:02:34Z</time>
      </trkpt>
      <trkpt lat="45.01578" lon="5.72481">
        <ele>1200.6</ele>
        <time>2021-05-29T07:02:35Z</time>
      </trkpt>
      <trkpt lat="45.01576" lon="5.72481">
        <ele>1200.8</ele>
        <time>2021-05-29T07:02:36Z</time>
      </trkpt>
      <trkpt lat="45.01575" lon="5.72481">
        <ele>1200.8</ele>
        <time>2021-05-29T07:02:37Z</time>
      </trkpt>
      <trkpt lat="45.01573" lon="5.72481">
        <ele>1201</ele>
        <time>2021-05-29T07:02:38Z</time>
      </trkpt>
      <trkpt lat="45.01572" lon="5.72482">
        <ele>1201</ele>
        <time>2021-05-29T07:02:39Z</time>
      </trkpt>
      <trkpt lat="45.0157" lon="5.72482">
        <ele>1201.2</ele>
        <time>2021-05-29T07:02:40Z</time>
      </trkpt>
      <trkpt lat="45.01569" lon="5.72482">
        <ele>1201.4</ele>
        <time>2021-05-29T07:02:41Z</time>
      </trkpt>
      <trkpt lat="45.01568" lon="5.72482">
        <ele>1201.6</ele>
        <time>2021-05-29T07:02:42Z</time>
      </trkpt>
      <trkpt lat="45.01566" lon="5.72482">
        <ele>1201.8</ele>
        <time>2021-05-29T07:02:43Z</time>
      </trkpt>
      <trkpt lat="45.01565" lon="5.72481">
        <ele>1202</ele>
        <time>2021-05-29T07:02:44Z</time>
      </trkpt>
      <trkpt lat="45.01564" lon="5.72481">
        <ele>1202.2</ele>
        <time>2021-05-29T07:02:45Z</time>
      </trkpt>
      <trkpt lat="45.01563" lon="5.72481">
        <ele>1202.6</ele>
        <time>2021-05-29T07:02:46Z</time>
      </trkpt>
      <trkpt lat="45.01562" lon="5.72481">
        <ele>1203</ele>
        <time>2021-05-29T07:02:47Z</time>
      </trkpt>
      <trkpt lat="45.0156" lon="5.72481">
        <ele>1202.8</ele>
        <time>2021-05-29T07:02:48Z</time>
      </trkpt>
      <trkpt lat="45.01559" lon="5.7248">
        <ele>1203</ele>
        <time>2021-05-29T07:02:49Z</time>
      </trkpt>
      <trkpt lat="45.01557" lon="5.72481">
        <ele>1203</ele>
        <time>2021-05-29T07:02:50Z</time>
      </trkpt>
      <trkpt lat="45.01555" lon="5.72481">
        <ele>1202.8</ele>
        <time>2021-05-29T07:02:51Z</time>
      </trkpt>
      <trkpt lat="45.01554" lon="5.72481">
        <ele>1203</ele>
        <time>2021-05-29T07:02:52Z</time>
      </trkpt>
      <trkpt lat="45.01552" lon="5.72481">
        <ele>1203.2</ele>
        <time>2021-05-29T07:02:53Z</time>
      </trkpt>
      <trkpt lat="45.0155" lon="5.72481">
        <ele>1203.4</ele>
        <time>2021-05-29T07:02:54Z</time>
      </trkpt>
      <trkpt lat="45.01548" lon="5.72481">
        <ele>1203.6</ele>
        <time>2021-05-29T07:02:55Z</time>
      </trkpt>
      <trkpt lat="45.01547" lon="5.72482">
        <ele>1203.6</ele>
        <time>2021-05-29T07:02:56Z</time>
      </trkpt>
      <trkpt lat="45.01545" lon="5.72482">
        <ele>1203.8</ele>
        <time>2021-05-29T07:02:57Z</time>
      </trkpt>
      <trkpt lat="45.01544" lon="5.72482">
        <ele>1203.8</ele>
        <time>2021-05-29T07:02:58Z</time>
      </trkpt>
      <trkpt lat="45.01542" lon="5.72483">
        <ele>1203.8</ele>
        <time>2021-05-29T07:02:59Z</time>
      </trkpt>
      <trkpt lat="45.01541" lon="5.72483">
        <ele>1204</ele>
        <time>2021-05-29T07:03:00Z</time>
      </trkpt>
      <trkpt lat="45.01539" lon="5.72483">
        <ele>1204.2</ele>
        <time>2021-05-29T07:03:01Z</time>
      </trkpt>
      <trkpt lat="45.01538" lon="5.72483">
        <ele>1204.4</ele>
        <time>2021-05-29T07:03:02Z</time>
      </trkpt>
      <trkpt lat="45.01536" lon="5.72484">
        <ele>1204.6</ele>
        <time>2021-05-29T07:03:03Z</time>
      </trkpt>
      <trkpt lat="45.01535" lon="5.72484">
        <ele>1204.8</ele>
        <time>2021-05-29T07:03:04Z</time>
      </trkpt>
      <trkpt lat="45.01533" lon="5.72484">
        <ele>1204.8</ele>
        <time>2021-05-29T07:03:05Z</time>
      </trkpt>
      <trkpt lat="45.01532" lon="5.72484">
        <ele>1205</ele>
        <time>2021-05-29T07:03:06Z</time>
      </trkpt>
      <trkpt lat="45.0153" lon="5.72484">
        <ele>1205.2</ele>
        <time>2021-05-29T07:03:07Z</time>
      </trkpt>
      <trkpt lat="45.01529" lon="5.72484">
        <ele>1205.6</ele>
        <time>2021-05-29T07:03:08Z</time>
      </trkpt>
      <trkpt lat="45.01527" lon="5.72484">
        <ele>1206</ele>
        <time>2021-05-29T07:03:09Z</time>
      </trkpt>
      <trkpt lat="45.01526" lon="5.72483">
        <ele>1206.2</ele>
        <time>2021-05-29T07:03:10Z</time>
      </trkpt>
      <trkpt lat="45.01525" lon="5.72483">
        <ele>1206.4</ele>
        <time>2021-05-29T07:03:11Z</time>
      </trkpt>
      <trkpt lat="45.01523" lon="5.72483">
        <ele>1206.4</ele>
        <time>2021-05-29T07:03:12Z</time>
      </trkpt>
      <trkpt lat="45.01522" lon="5.72483">
        <ele>1206.2</ele>
        <time>2021-05-29T07:03:13Z</time>
      </trkpt>
      <trkpt lat="45.01521" lon="5.72482">
        <ele>1206.4</ele>
        <time>2021-05-29T07:03:14Z</time>
      </trkpt>
      <trkpt lat="45.01519" lon="5.72482">
        <ele>1206.4</ele>
        <time>2021-05-29T07:03:15Z</time>
      </trkpt>
      <trkpt lat="45.01517" lon="5.72482">
        <ele>1206.8</ele>
        <time>2021-05-29T07:03:16Z</time>
      </trkpt>
      <trkpt lat="45.01515" lon="5.72481">
        <ele>1207.2</ele>
        <time>2021-05-29T07:03:17Z</time>
      </trkpt>
      <trkpt lat="45.01513" lon="5.72481">
        <ele>1207.2</ele>
        <time>2021-05-29T07:03:18Z</time>
      </trkpt>
      <trkpt lat="45.01512" lon="5.7248">
        <ele>1207.4</ele>
        <time>2021-05-29T07:03:19Z</time>
      </trkpt>
      <trkpt lat="45.0151" lon="5.7248">
        <ele>1207.6</ele>
        <time>2021-05-29T07:03:20Z</time>
      </trkpt>
      <trkpt lat="45.01508" lon="5.7248">
        <ele>1208</ele>
        <time>2021-05-29T07:03:21Z</time>
      </trkpt>
      <trkpt lat="45.01506" lon="5.72481">
        <ele>1208.2</ele>
        <time>2021-05-29T07:03:22Z</time>
      </trkpt>
      <trkpt lat="45.01504" lon="5.72481">
        <ele>1208.4</ele>
        <time>2021-05-29T07:03:23Z</time>
      </trkpt>
      <trkpt lat="45.01502" lon="5.72481">
        <ele>1208.6</ele>
        <time>2021-05-29T07:03:24Z</time>
      </trkpt>
      <trkpt lat="45.01501" lon="5.72481">
        <ele>1208.8</ele>
        <time>2021-05-29T07:03:25Z</time>
      </trkpt>
      <trkpt lat="45.01501" lon="5.72481">
        <ele>1209.2</ele>
        <time>2021-05-29T07:03:26Z</time>
      </trkpt>
      <trkpt lat="45.015" lon="5.72482">
        <ele>1209.4</ele>
        <time>2021-05-29T07:03:27Z</time>
      </trkpt>
      <trkpt lat="45.01499" lon="5.72482">
        <ele>1209.8</ele>
        <time>2021-05-29T07:03:28Z</time>
      </trkpt>
      <trkpt lat="45.01498" lon="5.72483">
        <ele>1209.8</ele>
        <time>2021-05-29T07:03:29Z</time>
      </trkpt>
      <trkpt lat="45.01498" lon="5.72483">
        <ele>1209.8</ele>
        <time>2021-05-29T07:03:30Z</time>
      </trkpt>
      <trkpt lat="45.01497" lon="5.72483">
        <ele>1210</ele>
        <time>2021-05-29T07:03:31Z</time>
      </trkpt>
      <trkpt lat="45.01496" lon="5.72484">
        <ele>1210</ele>
        <time>2021-05-29T07:03:32Z</time>
      </trkpt>
      <trkpt lat="45.01496" lon="5.72484">
        <ele>1210.2</ele>
        <time>2021-05-29T07:03:33Z</time>
      </trkpt>
      <trkpt lat="45.01495" lon="5.72484">
        <ele>1210.2</ele>
        <time>2021-05-29T07:03:34Z</time>
      </trkpt>
      <trkpt lat="45.01494" lon="5.72485">
        <ele>1210.2</ele>
        <time>2021-05-29T07:03:35Z</time>
      </trkpt>
      <trkpt lat="45.01494" lon="5.72485">
        <ele>1210.2</ele>
        <time>2021-05-29T07:03:36Z</time>
      </trkpt>
      <trkpt lat="45.01495" lon="5.72485">
        <ele>1210.2</ele>
        <time>2021-05-29T07:03:37Z</time>
      </trkpt>
      <trkpt lat="45.01497" lon="5.72485">
        <ele>1210.4</ele>
        <time>2021-05-29T07:03:38Z</time>
      </trkpt>
      <trkpt lat="45.01498" lon="5.72485">
        <ele>1210.4</ele>
        <time>2021-05-29T07:03:39Z</time>
      </trkpt>
      <trkpt lat="45.015" lon="5.72484">
        <ele>1210.6</ele>
        <time>2021-05-29T07:03:40Z</time>
      </trkpt>
      <trkpt lat="45.01501" lon="5.72484">
        <ele>1210.8</ele>
        <time>2021-05-29T07:03:41Z</time>
      </trkpt>
      <trkpt lat="45.01503" lon="5.72484">
        <ele>1211</ele>
        <time>2021-05-29T07:03:42Z</time>
      </trkpt>
      <trkpt lat="45.01504" lon="5.72484">
        <ele>1211.2</ele>
        <time>2021-05-29T07:03:43Z</time>
      </trkpt>
      <trkpt lat="45.01505" lon="5.72483">
        <ele>1211.4</ele>
        <time>2021-05-29T07:03:44Z</time>
      </trkpt>
      <trkpt lat="45.01506" lon="5.72483">
        <ele>1211.4</ele>
        <time>2021-05-29T07:03:45Z</time>
      </trkpt>
      <trkpt lat="45.01507" lon="5.72483">
        <ele>1211.6</ele>
        <time>2021-05-29T07:03:46Z</time>
      </trkpt>
      <trkpt lat="45.01508" lon="5.72483">
        <ele>1211.6</ele>
        <time>2021-05-29T07:03:47Z</time>
      </trkpt>
      <trkpt lat="45.01509" lon="5.72482">
        <ele>1211.6</ele>
        <time>2021-05-29T07:03:48Z</time>
      </trkpt>
      <trkpt lat="45.0151" lon="5.72482">
        <ele>1211.8</ele>
        <time>2021-05-29T07:03:49Z</time>
      </trkpt>
      <trkpt lat="45.01511" lon="5.72482">
        <ele>1212</ele>
        <time>2021-05-29T07:03:50Z</time>
      </trkpt>
      <trkpt lat="45.01513" lon="5.72482">
        <ele>1212.2</ele>
        <time>2021-05-29T07:03:51Z</time>
      </trkpt>
      <trkpt lat="45.01513" lon="5.72482">
        <ele>1212.4</ele>
        <time>2021-05-29T07:03:52Z</time>
      </trkpt>
      <trkpt lat="45.01514" lon="5.72483">
        <ele>1212.6</ele>
        <time>2021-05-29T07:03:53Z</time>
      </trkpt>
      <trkpt lat="45.01515" lon="5.72483">
        <ele>1213</ele>
        <time>2021-05-29T07:03:54Z</time>
      </trkpt>
      <trkpt lat="45.01515" lon="5.72483">
        <ele>1213.2</ele>
        <time>2021-05-29T07:03:55Z</time>
      </trkpt>
      <trkpt lat="45.01516" lon="5.72484">
        <ele>1213.4</ele>
        <time>2021-05-29T07:03:56Z</time>
      </trkpt>
      <trkpt lat="45.01517" lon="5.72484">
        <ele>1213.6</ele>
        <time>2021-05-29T07:03:57Z</time>
      </trkpt>
      <trkpt lat="45.01518" lon="5.72485">
        <ele>1214</ele>
        <time>2021-05-29T07:03:58Z</time>
      </trkpt>
      <trkpt lat="45.01518" lon="5.72485">
        <ele>1214</ele>
        <time>2021-05-29T07:03:59Z</time>
      </trkpt>
      <trkpt lat="45.01519" lon="5.72486">
        <ele>1214.2</ele>
        <time>2021-05-29T07:04:00Z</time>
      </trkpt>
      <trkpt lat="45.0152" lon="5.72486">
        <ele>1214.2</ele>
        <time>2021-05-29T07:04:01Z</time>
      </trkpt>
      <trkpt lat="45.0152" lon="5.72487">
        <ele>1214.6</ele>
        <time>2021-05-29T07:04:02Z</time>
      </trkpt>
      <trkpt lat="45.01521" lon="5.72487">
        <ele>1214.8</ele>
        <time>2021-05-29T07:04:03Z</time>
      </trkpt>
      <trkpt lat="45.01522" lon="5.72488">
        <ele>1215</ele>
        <time>2021-05-29T07:04:04Z</time>
      </trkpt>
      <trkpt lat="45.01523" lon="5.72488">
        <ele>1215.4</ele>
        <time>2021-05-29T07:04:05Z</time>
      </trkpt>
      <trkpt lat="45.01524" lon="5.72489">
        <ele>1215.4</ele>
        <time>2021-05-29T07:04:06Z</time>
      </trkpt>
      <trkpt lat="45.01525" lon="5.72489">
        <ele>1215.6</ele>
        <time>2021-05-29T07:04:07Z</time>
      </trkpt>
      <trkpt lat="45.01526" lon="5.72489">
        <ele>1215.6</ele>
        <time>2021-05-29T07:04:08Z</time>
      </trkpt>
      <trkpt lat="45.01527" lon="5.7249">
        <ele>1215.6</ele>
        <time>2021-05-29T07:04:09Z</time>
      </trkpt>
      <trkpt lat="45.01528" lon="5.7249">
        <ele>1215.6</ele>
        <time>2021-05-29T07:04:10Z</time>
      </trkpt>
      <trkpt lat="45.01529" lon="5.72491">
        <ele>1215.6</ele>
        <time>2021-05-29T07:04:11Z</time>
      </trkpt>
      <trkpt lat="45.0153" lon="5.72491">
        <ele>1215.8</ele>
        <time>2021-05-29T07:04:12Z</time>
      </trkpt>
      <trkpt lat="45.01531" lon="5.72492">
        <ele>1216</ele>
        <time>2021-05-29T07:04:13Z</time>
      </trkpt>
      <trkpt lat="45.01532" lon="5.72492">
        <ele>1216.2</ele>
        <time>2021-05-29T07:04:14Z</time>
      </trkpt>
      <trkpt lat="45.01533" lon="5.72493">
        <ele>1216.2</ele>
        <time>2021-05-29T07:04:15Z</time>
      </trkpt>
      <trkpt lat="45.01534" lon="5.72494">
        <ele>1216.4</ele>
        <time>2021-05-29T07:04:16Z</time>
      </trkpt>
      <trkpt lat="45.01535" lon="5.72494">
        <ele>1216.8</ele>
        <time>2021-05-29T07:04:17Z</time>
      </trkpt>
      <trkpt lat="45.01536" lon="5.72495">
        <ele>1217.2</ele>
        <time>2021-05-29T07:04:18Z</time>
      </trkpt>
      <trkpt lat="45.01537" lon="5.72496">
        <ele>1217.6</ele>
        <time>2021-05-29T07:04:19Z</time>
      </trkpt>
      <trkpt lat="45.01538" lon="5.72496">
        <ele>1217.6</ele>
        <time>2021-05-29T07:04:20Z</time>
      </trkpt>
      <trkpt lat="45.01541" lon="5.72498">
        <ele>1217.6</ele>
        <time>2021-05-29T07:04:21Z</time>
      </trkpt>
      <trkpt lat="45.01543" lon="5.72499">
        <ele>1217.8</ele>
        <time>2021-05-29T07:04:22Z</time>
      </trkpt>
      <trkpt lat="45.01545" lon="5.725">
        <ele>1218</ele>
        <time>2021-05-29T07:04:23Z</time>
      </trkpt>
      <trkpt lat="45.01547" lon="5.72502">
        <ele>1218.2</ele>
        <time>2021-05-29T07:04:24Z</time>
      </trkpt>
      <trkpt lat="45.01549" lon="5.72503">
        <ele>1218.2</ele>
        <time>2021-05-29T07:04:25Z</time>
      </trkpt>
      <trkpt lat="45.0155" lon="5.72504">
        <ele>1218.2</ele>
        <time>2021-05-29T07:04:26Z</time>
      </trkpt>
      <trkpt lat="45.01551" lon="5.72505">
        <ele>1218.2</ele>
        <time>2021-05-29T07:04:27Z</time>
      </trkpt>
      <trkpt lat="45.01552" lon="5.72506">
        <ele>1218.6</ele>
        <time>2021-05-29T07:04:28Z</time>
      </trkpt>
      <trkpt lat="45.01553" lon="5.72507">
        <ele>1218.6</ele>
        <time>2021-05-29T07:04:29Z</time>
      </trkpt>
      <trkpt lat="45.01555" lon="5.72509">
        <ele>1218.6</ele>
        <time>2021-05-29T07:04:30Z</time>
      </trkpt>
      <trkpt lat="45.01556" lon="5.7251">
        <ele>1218.8</ele>
        <time>2021-05-29T07:04:31Z</time>
      </trkpt>
      <trkpt lat="45.01559" lon="5.72511">
        <ele>1218.6</ele>
        <time>2021-05-29T07:04:32Z</time>
      </trkpt>
      <trkpt lat="45.01563" lon="5.72513">
        <ele>1218.6</ele>
        <time>2021-05-29T07:04:33Z</time>
      </trkpt>
      <trkpt lat="45.01566" lon="5.72515">
        <ele>1218.4</ele>
        <time>2021-05-29T07:04:34Z</time>
      </trkpt>
      <trkpt lat="45.0157" lon="5.72516">
        <ele>1218.8</ele>
        <time>2021-05-29T07:04:35Z</time>
      </trkpt>
      <trkpt lat="45.01574" lon="5.72518">
        <ele>1219</ele>
        <time>2021-05-29T07:04:36Z</time>
      </trkpt>
      <trkpt lat="45.01574" lon="5.72518">
        <ele>1219.4</ele>
        <time>2021-05-29T07:04:37Z</time>
      </trkpt>
      <trkpt lat="45.01574" lon="5.72518">
        <ele>1219.6</ele>
        <time>2021-05-29T07:04:38Z</time>
      </trkpt>
      <trkpt lat="45.01576" lon="5.72519">
        <ele>1220</ele>
        <time>2021-05-29T07:04:39Z</time>
      </trkpt>
      <trkpt lat="45.01578" lon="5.7252">
        <ele>1220</ele>
        <time>2021-05-29T07:04:40Z</time>
      </trkpt>
      <trkpt lat="45.0158" lon="5.72521">
        <ele>1220.6</ele>
        <time>2021-05-29T07:04:41Z</time>
      </trkpt>
      <trkpt lat="45.01582" lon="5.72523">
        <ele>1220.8</ele>
        <time>2021-05-29T07:04:42Z</time>
      </trkpt>
      <trkpt lat="45.01584" lon="5.72524">
        <ele>1221.2</ele>
        <time>2021-05-29T07:04:43Z</time>
      </trkpt>
      <trkpt lat="45.01586" lon="5.72524">
        <ele>1221.2</ele>
        <time>2021-05-29T07:04:44Z</time>
      </trkpt>
      <trkpt lat="45.01587" lon="5.72525">
        <ele>1221.4</ele>
        <time>2021-05-29T07:04:45Z</time>
      </trkpt>
      <trkpt lat="45.01589" lon="5.72525">
        <ele>1221.4</ele>
        <time>2021-05-29T07:04:46Z</time>
      </trkpt>
      <trkpt lat="45.0159" lon="5.72526">
        <ele>1221.6</ele>
        <time>2021-05-29T07:04:47Z</time>
      </trkpt>
      <trkpt lat="45.01592" lon="5.72527">
        <ele>1221.4</ele>
        <time>2021-05-29T07:04:48Z</time>
      </trkpt>
      <trkpt lat="45.01593" lon="5.72527">
        <ele>1221.6</ele>
        <time>2021-05-29T07:04:49Z</time>
      </trkpt>
      <trkpt lat="45.01595" lon="5.72529">
        <ele>1221.6</ele>
        <time>2021-05-29T07:04:50Z</time>
      </trkpt>
      <trkpt lat="45.01596" lon="5.7253">
        <ele>1222</ele>
        <time>2021-05-29T07:04:51Z</time>
      </trkpt>
      <trkpt lat="45.01598" lon="5.72531">
        <ele>1222</ele>
        <time>2021-05-29T07:04:52Z</time>
      </trkpt>
      <trkpt lat="45.016" lon="5.72533">
        <ele>1222.2</ele>
        <time>2021-05-29T07:04:53Z</time>
      </trkpt>
      <trkpt lat="45.01601" lon="5.72534">
        <ele>1222.4</ele>
        <time>2021-05-29T07:04:54Z</time>
      </trkpt>
      <trkpt lat="45.01603" lon="5.72535">
        <ele>1222.6</ele>
        <time>2021-05-29T07:04:55Z</time>
      </trkpt>
      <trkpt lat="45.01605" lon="5.72537">
        <ele>1222.6</ele>
        <time>2021-05-29T07:04:56Z</time>
      </trkpt>
      <trkpt lat="45.01607" lon="5.72538">
        <ele>1222.6</ele>
        <time>2021-05-29T07:04:57Z</time>
      </trkpt>
      <trkpt lat="45.01609" lon="5.72539">
        <ele>1222.6</ele>
        <time>2021-05-29T07:04:58Z</time>
      </trkpt>
      <trkpt lat="45.01611" lon="5.72541">
        <ele>1222.6</ele>
        <time>2021-05-29T07:04:59Z</time>
      </trkpt>
      <trkpt lat="45.01613" lon="5.72541">
        <ele>1222.8</ele>
        <time>2021-05-29T07:05:00Z</time>
      </trkpt>
      <trkpt lat="45.01615" lon="5.72542">
        <ele>1223</ele>
        <time>2021-05-29T07:05:01Z</time>
      </trkpt>
      <trkpt lat="45.01617" lon="5.72543">
        <ele>1223.6</ele>
        <time>2021-05-29T07:05:02Z</time>
      </trkpt>
      <trkpt lat="45.01619" lon="5.72544">
        <ele>1223.8</ele>
        <time>2021-05-29T07:05:03Z</time>
      </trkpt>
      <trkpt lat="45.01621" lon="5.72544">
        <ele>1224.2</ele>
        <time>2021-05-29T07:05:04Z</time>
      </trkpt>
      <trkpt lat="45.01623" lon="5.72545">
        <ele>1224.4</ele>
        <time>2021-05-29T07:05:05Z</time>
      </trkpt>
      <trkpt lat="45.01625" lon="5.72546">
        <ele>1224.8</ele>
        <time>2021-05-29T07:05:06Z</time>
      </trkpt>
      <trkpt lat="45.01627" lon="5.72546">
        <ele>1225</ele>
        <time>2021-05-29T07:05:07Z</time>
      </trkpt>
      <trkpt lat="45.01629" lon="5.72547">
        <ele>1225.4</ele>
        <time>2021-05-29T07:05:08Z</time>
      </trkpt>
      <trkpt lat="45.01631" lon="5.72547">
        <ele>1225.4</ele>
        <time>2021-05-29T07:05:09Z</time>
      </trkpt>
      <trkpt lat="45.01633" lon="5.72548">
        <ele>1226</ele>
        <time>2021-05-29T07:05:10Z</time>
      </trkpt>
      <trkpt lat="45.01635" lon="5.72549">
        <ele>1226</ele>
        <time>2021-05-29T07:05:11Z</time>
      </trkpt>
      <trkpt lat="45.01637" lon="5.72551">
        <ele>1226.2</ele>
        <time>2021-05-29T07:05:12Z</time>
      </trkpt>
      <trkpt lat="45.01638" lon="5.72553">
        <ele>1226.2</ele>
        <time>2021-05-29T07:05:13Z</time>
      </trkpt>
      <trkpt lat="45.0164" lon="5.72554">
        <ele>1226.4</ele>
        <time>2021-05-29T07:05:14Z</time>
      </trkpt>
      <trkpt lat="45.01642" lon="5.72556">
        <ele>1226.4</ele>
        <time>2021-05-29T07:05:15Z</time>
      </trkpt>
      <trkpt lat="45.01644" lon="5.72558">
        <ele>1226.6</ele>
        <time>2021-05-29T07:05:16Z</time>
      </trkpt>
      <trkpt lat="45.01646" lon="5.7256">
        <ele>1226.6</ele>
        <time>2021-05-29T07:05:17Z</time>
      </trkpt>
      <trkpt lat="45.01648" lon="5.72563">
        <ele>1226.6</ele>
        <time>2021-05-29T07:05:18Z</time>
      </trkpt>
      <trkpt lat="45.0165" lon="5.72565">
        <ele>1226.6</ele>
        <time>2021-05-29T07:05:19Z</time>
      </trkpt>
      <trkpt lat="45.01651" lon="5.72566">
        <ele>1226.6</ele>
        <time>2021-05-29T07:05:20Z</time>
      </trkpt>
      <trkpt lat="45.01652" lon="5.72568">
        <ele>1226.6</ele>
        <time>2021-05-29T07:05:21Z</time>
      </trkpt>
      <trkpt lat="45.01654" lon="5.7257">
        <ele>1226.6</ele>
        <time>2021-05-29T07:05:22Z</time>
      </trkpt>
      <trkpt lat="45.01655" lon="5.72571">
        <ele>1226.6</ele>
        <time>2021-05-29T07:05:23Z</time>
      </trkpt>
      <trkpt lat="45.01656" lon="5.72573">
        <ele>1226.6</ele>
        <time>2021-05-29T07:05:24Z</time>
      </trkpt>
      <trkpt lat="45.01657" lon="5.72574">
        <ele>1227</ele>
        <time>2021-05-29T07:05:25Z</time>
      </trkpt>
      <trkpt lat="45.01658" lon="5.72575">
        <ele>1227</ele>
        <time>2021-05-29T07:05:26Z</time>
      </trkpt>
      <trkpt lat="45.0166" lon="5.72577">
        <ele>1227.6</ele>
        <time>2021-05-29T07:05:27Z</time>
      </trkpt>
      <trkpt lat="45.01661" lon="5.72578">
        <ele>1227.8</ele>
        <time>2021-05-29T07:05:28Z</time>
      </trkpt>
      <trkpt lat="45.01662" lon="5.72579">
        <ele>1228.2</ele>
        <time>2021-05-29T07:05:29Z</time>
      </trkpt>
      <trkpt lat="45.01664" lon="5.7258">
        <ele>1228.2</ele>
        <time>2021-05-29T07:05:30Z</time>
      </trkpt>
      <trkpt lat="45.01665" lon="5.72581">
        <ele>1228.4</ele>
        <time>2021-05-29T07:05:31Z</time>
      </trkpt>
      <trkpt lat="45.01666" lon="5.72583">
        <ele>1228.4</ele>
        <time>2021-05-29T07:05:32Z</time>
      </trkpt>
      <trkpt lat="45.01667" lon="5.72584">
        <ele>1228.6</ele>
        <time>2021-05-29T07:05:33Z</time>
      </trkpt>
      <trkpt lat="45.01667" lon="5.72585">
        <ele>1228.6</ele>
        <time>2021-05-29T07:05:34Z</time>
      </trkpt>
      <trkpt lat="45.01668" lon="5.72587">
        <ele>1228.8</ele>
        <time>2021-05-29T07:05:35Z</time>
      </trkpt>
      <trkpt lat="45.01669" lon="5.72588">
        <ele>1229</ele>
        <time>2021-05-29T07:05:36Z</time>
      </trkpt>
      <trkpt lat="45.0167" lon="5.72589">
        <ele>1229.2</ele>
        <time>2021-05-29T07:05:37Z</time>
      </trkpt>
      <trkpt lat="45.01671" lon="5.72591">
        <ele>1229.2</ele>
        <time>2021-05-29T07:05:38Z</time>
      </trkpt>
      <trkpt lat="45.01672" lon="5.72592">
        <ele>1229.2</ele>
        <time>2021-05-29T07:05:39Z</time>
      </trkpt>
      <trkpt lat="45.01673" lon="5.72594">
        <ele>1229.2</ele>
        <time>2021-05-29T07:05:40Z</time>
      </trkpt>
      <trkpt lat="45.01674" lon="5.72595">
        <ele>1229</ele>
        <time>2021-05-29T07:05:41Z</time>
      </trkpt>
      <trkpt lat="45.01675" lon="5.72597">
        <ele>1229</ele>
        <time>2021-05-29T07:05:42Z</time>
      </trkpt>
      <trkpt lat="45.01676" lon="5.72599">
        <ele>1228.8</ele>
        <time>2021-05-29T07:05:43Z</time>
      </trkpt>
      <trkpt lat="45.01677" lon="5.726">
        <ele>1229.4</ele>
        <time>2021-05-29T07:05:44Z</time>
      </trkpt>
      <trkpt lat="45.01678" lon="5.72602">
        <ele>1229.4</ele>
        <time>2021-05-29T07:05:45Z</time>
      </trkpt>
      <trkpt lat="45.01679" lon="5.72604">
        <ele>1229.8</ele>
        <time>2021-05-29T07:05:46Z</time>
      </trkpt>
      <trkpt lat="45.0168" lon="5.72605">
        <ele>1230</ele>
        <time>2021-05-29T07:05:47Z</time>
      </trkpt>
      <trkpt lat="45.01682" lon="5.72607">
        <ele>1230.6</ele>
        <time>2021-05-29T07:05:48Z</time>
      </trkpt>
      <trkpt lat="45.01683" lon="5.72609">
        <ele>1230.6</ele>
        <time>2021-05-29T07:05:49Z</time>
      </trkpt>
      <trkpt lat="45.01685" lon="5.7261">
        <ele>1231</ele>
        <time>2021-05-29T07:05:50Z</time>
      </trkpt>
      <trkpt lat="45.01686" lon="5.72612">
        <ele>1230.8</ele>
        <time>2021-05-29T07:05:51Z</time>
      </trkpt>
      <trkpt lat="45.01687" lon="5.72613">
        <ele>1231</ele>
        <time>2021-05-29T07:05:52Z</time>
      </trkpt>
      <trkpt lat="45.01688" lon="5.72615">
        <ele>1231.2</ele>
        <time>2021-05-29T07:05:53Z</time>
      </trkpt>
      <trkpt lat="45.01689" lon="5.72617">
        <ele>1231.2</ele>
        <time>2021-05-29T07:05:54Z</time>
      </trkpt>
      <trkpt lat="45.0169" lon="5.72618">
        <ele>1231.8</ele>
        <time>2021-05-29T07:05:55Z</time>
      </trkpt>
      <trkpt lat="45.01691" lon="5.7262">
        <ele>1231.8</ele>
        <time>2021-05-29T07:05:56Z</time>
      </trkpt>
      <trkpt lat="45.01692" lon="5.72621">
        <ele>1232.4</ele>
        <time>2021-05-29T07:05:57Z</time>
      </trkpt>
      <trkpt lat="45.01693" lon="5.72622">
        <ele>1232.8</ele>
        <time>2021-05-29T07:05:58Z</time>
      </trkpt>
      <trkpt lat="45.01693" lon="5.72624">
        <ele>1233.2</ele>
        <time>2021-05-29T07:05:59Z</time>
      </trkpt>
      <trkpt lat="45.01694" lon="5.72625">
        <ele>1233.6</ele>
        <time>2021-05-29T07:06:00Z</time>
      </trkpt>
      <trkpt lat="45.01694" lon="5.72626">
        <ele>1234</ele>
        <time>2021-05-29T07:06:01Z</time>
      </trkpt>
      <trkpt lat="45.01695" lon="5.72627">
        <ele>1234.2</ele>
        <time>2021-05-29T07:06:02Z</time>
      </trkpt>
      <trkpt lat="45.01696" lon="5.72629">
        <ele>1234.4</ele>
        <time>2021-05-29T07:06:03Z</time>
      </trkpt>
      <trkpt lat="45.01696" lon="5.7263">
        <ele>1234.6</ele>
        <time>2021-05-29T07:06:04Z</time>
      </trkpt>
      <trkpt lat="45.01697" lon="5.72631">
        <ele>1234.6</ele>
        <time>2021-05-29T07:06:05Z</time>
      </trkpt>
      <trkpt lat="45.01697" lon="5.72632">
        <ele>1234.6</ele>
        <time>2021-05-29T07:06:06Z</time>
      </trkpt>
      <trkpt lat="45.01698" lon="5.72634">
        <ele>1234.8</ele>
        <time>2021-05-29T07:06:07Z</time>
      </trkpt>
      <trkpt lat="45.01698" lon="5.72636">
        <ele>1234.8</ele>
        <time>2021-05-29T07:06:08Z</time>
      </trkpt>
      <trkpt lat="45.01698" lon="5.72638">
        <ele>1234.8</ele>
        <time>2021-05-29T07:06:09Z</time>
      </trkpt>
      <trkpt lat="45.01699" lon="5.72639">
        <ele>1235.2</ele>
        <time>2021-05-29T07:06:10Z</time>
      </trkpt>
      <trkpt lat="45.01699" lon="5.72641">
        <ele>1235.4</ele>
        <time>2021-05-29T07:06:11Z</time>
      </trkpt>
      <trkpt lat="45.017" lon="5.72643">
        <ele>1236</ele>
        <time>2021-05-29T07:06:12Z</time>
      </trkpt>
      <trkpt lat="45.017" lon="5.72645">
        <ele>1236.2</ele>
        <time>2021-05-29T07:06:13Z</time>
      </trkpt>
      <trkpt lat="45.01702" lon="5.7265">
        <ele>1236.4</ele>
        <time>2021-05-29T07:06:14Z</time>
      </trkpt>
      <trkpt lat="45.01703" lon="5.72655">
        <ele>1236.6</ele>
        <time>2021-05-29T07:06:15Z</time>
      </trkpt>
      <trkpt lat="45.01705" lon="5.7266">
        <ele>1237</ele>
        <time>2021-05-29T07:06:16Z</time>
      </trkpt>
      <trkpt lat="45.01707" lon="5.72665">
        <ele>1237</ele>
        <time>2021-05-29T07:06:17Z</time>
      </trkpt>
      <trkpt lat="45.0171" lon="5.7267">
        <ele>1237.4</ele>
        <time>2021-05-29T07:06:18Z</time>
      </trkpt>
      <trkpt lat="45.0171" lon="5.7267">
        <ele>1237.4</ele>
        <time>2021-05-29T07:06:19Z</time>
      </trkpt>
      <trkpt lat="45.0171" lon="5.7267">
        <ele>1237.6</ele>
        <time>2021-05-29T07:06:20Z</time>
      </trkpt>
      <trkpt lat="45.01711" lon="5.72673">
        <ele>1237.4</ele>
        <time>2021-05-29T07:06:21Z</time>
      </trkpt>
      <trkpt lat="45.01713" lon="5.72676">
        <ele>1237.6</ele>
        <time>2021-05-29T07:06:22Z</time>
      </trkpt>
      <trkpt lat="45.01714" lon="5.72679">
        <ele>1237.4</ele>
        <time>2021-05-29T07:06:23Z</time>
      </trkpt>
      <trkpt lat="45.01716" lon="5.72683">
        <ele>1237.8</ele>
        <time>2021-05-29T07:06:24Z</time>
      </trkpt>
      <trkpt lat="45.01717" lon="5.72685">
        <ele>1237.8</ele>
        <time>2021-05-29T07:06:25Z</time>
      </trkpt>
      <trkpt lat="45.01719" lon="5.72688">
        <ele>1238</ele>
        <time>2021-05-29T07:06:26Z</time>
      </trkpt>
      <trkpt lat="45.0172" lon="5.72691">
        <ele>1237.8</ele>
        <time>2021-05-29T07:06:27Z</time>
      </trkpt>
      <trkpt lat="45.01721" lon="5.72694">
        <ele>1238</ele>
        <time>2021-05-29T07:06:28Z</time>
      </trkpt>
      <trkpt lat="45.01723" lon="5.72695">
        <ele>1238</ele>
        <time>2021-05-29T07:06:29Z</time>
      </trkpt>
      <trkpt lat="45.01725" lon="5.72696">
        <ele>1238.2</ele>
        <time>2021-05-29T07:06:30Z</time>
      </trkpt>
      <trkpt lat="45.01727" lon="5.72698">
        <ele>1238.2</ele>
        <time>2021-05-29T07:06:31Z</time>
      </trkpt>
      <trkpt lat="45.01729" lon="5.72699">
        <ele>1238.2</ele>
        <time>2021-05-29T07:06:32Z</time>
      </trkpt>
      <trkpt lat="45.01731" lon="5.72701">
        <ele>1238.4</ele>
        <time>2021-05-29T07:06:33Z</time>
      </trkpt>
      <trkpt lat="45.01732" lon="5.72703">
        <ele>1238.4</ele>
        <time>2021-05-29T07:06:34Z</time>
      </trkpt>
      <trkpt lat="45.01733" lon="5.72704">
        <ele>1238.8</ele>
        <time>2021-05-29T07:06:35Z</time>
      </trkpt>
      <trkpt lat="45.01735" lon="5.72706">
        <ele>1239.2</ele>
        <time>2021-05-29T07:06:36Z</time>
      </trkpt>
      <trkpt lat="45.01736" lon="5.72708">
        <ele>1239.6</ele>
        <time>2021-05-29T07:06:37Z</time>
      </trkpt>
      <trkpt lat="45.01737" lon="5.7271">
        <ele>1239.8</ele>
        <time>2021-05-29T07:06:38Z</time>
      </trkpt>
      <trkpt lat="45.01738" lon="5.72712">
        <ele>1240.4</ele>
        <time>2021-05-29T07:06:39Z</time>
      </trkpt>
      <trkpt lat="45.01739" lon="5.72714">
        <ele>1240.4</ele>
        <time>2021-05-29T07:06:40Z</time>
      </trkpt>
      <trkpt lat="45.0174" lon="5.72716">
        <ele>1240.8</ele>
        <time>2021-05-29T07:06:41Z</time>
      </trkpt>
      <trkpt lat="45.01741" lon="5.72718">
        <ele>1240.8</ele>
        <time>2021-05-29T07:06:42Z</time>
      </trkpt>
      <trkpt lat="45.01742" lon="5.7272">
        <ele>1241.2</ele>
        <time>2021-05-29T07:06:43Z</time>
      </trkpt>
      <trkpt lat="45.01743" lon="5.72722">
        <ele>1241</ele>
        <time>2021-05-29T07:06:44Z</time>
      </trkpt>
      <trkpt lat="45.01744" lon="5.72725">
        <ele>1241.4</ele>
        <time>2021-05-29T07:06:45Z</time>
      </trkpt>
      <trkpt lat="45.01744" lon="5.72727">
        <ele>1241.2</ele>
        <time>2021-05-29T07:06:46Z</time>
      </trkpt>
      <trkpt lat="45.01745" lon="5.7273">
        <ele>1241.6</ele>
        <time>2021-05-29T07:06:47Z</time>
      </trkpt>
      <trkpt lat="45.01746" lon="5.72732">
        <ele>1241.4</ele>
        <time>2021-05-29T07:06:48Z</time>
      </trkpt>
      <trkpt lat="45.01746" lon="5.72735">
        <ele>1241.6</ele>
        <time>2021-05-29T07:06:49Z</time>
      </trkpt>
      <trkpt lat="45.01747" lon="5.72737">
        <ele>1241.4</ele>
        <time>2021-05-29T07:06:50Z</time>
      </trkpt>
      <trkpt lat="45.01748" lon="5.7274">
        <ele>1241.4</ele>
        <time>2021-05-29T07:06:51Z</time>
      </trkpt>
      <trkpt lat="45.01748" lon="5.72742">
        <ele>1241.6</ele>
        <time>2021-05-29T07:06:52Z</time>
      </trkpt>
      <trkpt lat="45.01749" lon="5.72744">
        <ele>1241.6</ele>
        <time>2021-05-29T07:06:53Z</time>
      </trkpt>
      <trkpt lat="45.0175" lon="5.72746">
        <ele>1242.2</ele>
        <time>2021-05-29T07:06:54Z</time>
      </trkpt>
      <trkpt lat="45.01751" lon="5.72748">
        <ele>1242.4</ele>
        <time>2021-05-29T07:06:55Z</time>
      </trkpt>
      <trkpt lat="45.01751" lon="5.7275">
        <ele>1242.8</ele>
        <time>2021-05-29T07:06:56Z</time>
      </trkpt>
      <trkpt lat="45.01751" lon="5.72753">
        <ele>1243</ele>
        <time>2021-05-29T07:06:57Z</time>
      </trkpt>
      <trkpt lat="45.01751" lon="5.72755">
        <ele>1243.4</ele>
        <time>2021-05-29T07:06:58Z</time>
      </trkpt>
      <trkpt lat="45.01752" lon="5.72757">
        <ele>1243.6</ele>
        <time>2021-05-29T07:06:59Z</time>
      </trkpt>
      <trkpt lat="45.01752" lon="5.72759">
        <ele>1243.6</ele>
        <time>2021-05-29T07:07:00Z</time>
      </trkpt>
      <trkpt lat="45.01752" lon="5.72761">
        <ele>1243.8</ele>
        <time>2021-05-29T07:07:01Z</time>
      </trkpt>
      <trkpt lat="45.01752" lon="5.72763">
        <ele>1244</ele>
        <time>2021-05-29T07:07:02Z</time>
      </trkpt>
      <trkpt lat="45.01752" lon="5.72765">
        <ele>1244</ele>
        <time>2021-05-29T07:07:03Z</time>
      </trkpt>
      <trkpt lat="45.01753" lon="5.72767">
        <ele>1244</ele>
        <time>2021-05-29T07:07:04Z</time>
      </trkpt>
      <trkpt lat="45.01753" lon="5.7277">
        <ele>1244.2</ele>
        <time>2021-05-29T07:07:05Z</time>
      </trkpt>
      <trkpt lat="45.01753" lon="5.72772">
        <ele>1244.4</ele>
        <time>2021-05-29T07:07:06Z</time>
      </trkpt>
      <trkpt lat="45.01753" lon="5.72774">
        <ele>1245</ele>
        <time>2021-05-29T07:07:07Z</time>
      </trkpt>
      <trkpt lat="45.01753" lon="5.72777">
        <ele>1245.2</ele>
        <time>2021-05-29T07:07:08Z</time>
      </trkpt>
      <trkpt lat="45.01754" lon="5.72779">
        <ele>1245.6</ele>
        <time>2021-05-29T07:07:09Z</time>
      </trkpt>
      <trkpt lat="45.01754" lon="5.72781">
        <ele>1246</ele>
        <time>2021-05-29T07:07:10Z</time>
      </trkpt>
      <trkpt lat="45.01755" lon="5.72783">
        <ele>1246.6</ele>
        <time>2021-05-29T07:07:11Z</time>
      </trkpt>
      <trkpt lat="45.01755" lon="5.72785">
        <ele>1246.6</ele>
        <time>2021-05-29T07:07:12Z</time>
      </trkpt>
      <trkpt lat="45.01755" lon="5.72787">
        <ele>1246.8</ele>
        <time>2021-05-29T07:07:13Z</time>
      </trkpt>
      <trkpt lat="45.01756" lon="5.72789">
        <ele>1246.8</ele>
        <time>2021-05-29T07:07:14Z</time>
      </trkpt>
      <trkpt lat="45.01756" lon="5.72792">
        <ele>1246.6</ele>
        <time>2021-05-29T07:07:15Z</time>
      </trkpt>
      <trkpt lat="45.01756" lon="5.72794">
        <ele>1247.2</ele>
        <time>2021-05-29T07:07:16Z</time>
      </trkpt>
      <trkpt lat="45.01757" lon="5.72796">
        <ele>1247.2</ele>
        <time>2021-05-29T07:07:17Z</time>
      </trkpt>
      <trkpt lat="45.01757" lon="5.72799">
        <ele>1247.6</ele>
        <time>2021-05-29T07:07:18Z</time>
      </trkpt>
      <trkpt lat="45.01757" lon="5.72801">
        <ele>1247.8</ele>
        <time>2021-05-29T07:07:19Z</time>
      </trkpt>
      <trkpt lat="45.01758" lon="5.72803">
        <ele>1248.2</ele>
        <time>2021-05-29T07:07:20Z</time>
      </trkpt>
      <trkpt lat="45.01758" lon="5.72805">
        <ele>1248.2</ele>
        <time>2021-05-29T07:07:21Z</time>
      </trkpt>
      <trkpt lat="45.01759" lon="5.72807">
        <ele>1248.6</ele>
        <time>2021-05-29T07:07:22Z</time>
      </trkpt>
      <trkpt lat="45.01759" lon="5.7281">
        <ele>1248.4</ele>
        <time>2021-05-29T07:07:23Z</time>
      </trkpt>
      <trkpt lat="45.0176" lon="5.72812">
        <ele>1248.4</ele>
        <time>2021-05-29T07:07:24Z</time>
      </trkpt>
      <trkpt lat="45.01761" lon="5.72814">
        <ele>1248.4</ele>
        <time>2021-05-29T07:07:25Z</time>
      </trkpt>
      <trkpt lat="45.01761" lon="5.72816">
        <ele>1248.6</ele>
        <time>2021-05-29T07:07:26Z</time>
      </trkpt>
      <trkpt lat="45.01761" lon="5.72818">
        <ele>1249</ele>
        <time>2021-05-29T07:07:27Z</time>
      </trkpt>
      <trkpt lat="45.01762" lon="5.7282">
        <ele>1249.2</ele>
        <time>2021-05-29T07:07:28Z</time>
      </trkpt>
      <trkpt lat="45.01762" lon="5.72822">
        <ele>1249.6</ele>
        <time>2021-05-29T07:07:29Z</time>
      </trkpt>
      <trkpt lat="45.01762" lon="5.72824">
        <ele>1249.8</ele>
        <time>2021-05-29T07:07:30Z</time>
      </trkpt>
      <trkpt lat="45.01762" lon="5.72827">
        <ele>1250.2</ele>
        <time>2021-05-29T07:07:31Z</time>
      </trkpt>
      <trkpt lat="45.01763" lon="5.72829">
        <ele>1250.2</ele>
        <time>2021-05-29T07:07:32Z</time>
      </trkpt>
      <trkpt lat="45.01763" lon="5.72831">
        <ele>1250.4</ele>
        <time>2021-05-29T07:07:33Z</time>
      </trkpt>
      <trkpt lat="45.01764" lon="5.72833">
        <ele>1250.2</ele>
        <time>2021-05-29T07:07:34Z</time>
      </trkpt>
      <trkpt lat="45.01764" lon="5.72836">
        <ele>1250.2</ele>
        <time>2021-05-29T07:07:35Z</time>
      </trkpt>
      <trkpt lat="45.01764" lon="5.72838">
        <ele>1250</ele>
        <time>2021-05-29T07:07:36Z</time>
      </trkpt>
      <trkpt lat="45.01765" lon="5.7284">
        <ele>1250.2</ele>
        <time>2021-05-29T07:07:37Z</time>
      </trkpt>
      <trkpt lat="45.01765" lon="5.72843">
        <ele>1250.4</ele>
        <time>2021-05-29T07:07:38Z</time>
      </trkpt>
      <trkpt lat="45.01766" lon="5.72845">
        <ele>1250.4</ele>
        <time>2021-05-29T07:07:39Z</time>
      </trkpt>
      <trkpt lat="45.01767" lon="5.72847">
        <ele>1250.8</ele>
        <time>2021-05-29T07:07:40Z</time>
      </trkpt>
      <trkpt lat="45.01768" lon="5.72849">
        <ele>1250.8</ele>
        <time>2021-05-29T07:07:41Z</time>
      </trkpt>
      <trkpt lat="45.01769" lon="5.72852">
        <ele>1251.2</ele>
        <time>2021-05-29T07:07:42Z</time>
      </trkpt>
      <trkpt lat="45.0177" lon="5.72854">
        <ele>1251.2</ele>
        <time>2021-05-29T07:07:43Z</time>
      </trkpt>
      <trkpt lat="45.01771" lon="5.72857">
        <ele>1251.6</ele>
        <time>2021-05-29T07:07:44Z</time>
      </trkpt>
      <trkpt lat="45.01771" lon="5.72859">
        <ele>1251.8</ele>
        <time>2021-05-29T07:07:45Z</time>
      </trkpt>
      <trkpt lat="45.01772" lon="5.72861">
        <ele>1252.2</ele>
        <time>2021-05-29T07:07:46Z</time>
      </trkpt>
      <trkpt lat="45.01773" lon="5.72864">
        <ele>1252</ele>
        <time>2021-05-29T07:07:47Z</time>
      </trkpt>
      <trkpt lat="45.01774" lon="5.72866">
        <ele>1252</ele>
        <time>2021-05-29T07:07:48Z</time>
      </trkpt>
      <trkpt lat="45.01774" lon="5.72868">
        <ele>1251.8</ele>
        <time>2021-05-29T07:07:49Z</time>
      </trkpt>
      <trkpt lat="45.01775" lon="5.72871">
        <ele>1252</ele>
        <time>2021-05-29T07:07:50Z</time>
      </trkpt>
      <trkpt lat="45.01776" lon="5.72873">
        <ele>1252.2</ele>
        <time>2021-05-29T07:07:51Z</time>
      </trkpt>
      <trkpt lat="45.01777" lon="5.72875">
        <ele>1252.4</ele>
        <time>2021-05-29T07:07:52Z</time>
      </trkpt>
      <trkpt lat="45.01778" lon="5.72877">
        <ele>1253</ele>
        <time>2021-05-29T07:07:53Z</time>
      </trkpt>
      <trkpt lat="45.01779" lon="5.72879">
        <ele>1253</ele>
        <time>2021-05-29T07:07:54Z</time>
      </trkpt>
      <trkpt lat="45.01779" lon="5.72881">
        <ele>1253.4</ele>
        <time>2021-05-29T07:07:55Z</time>
      </trkpt>
      <trkpt lat="45.0178" lon="5.72883">
        <ele>1253.6</ele>
        <time>2021-05-29T07:07:56Z</time>
      </trkpt>
      <trkpt lat="45.01781" lon="5.72885">
        <ele>1253.8</ele>
        <time>2021-05-29T07:07:57Z</time>
      </trkpt>
      <trkpt lat="45.01782" lon="5.72887">
        <ele>1253.8</ele>
        <time>2021-05-29T07:07:58Z</time>
      </trkpt>
      <trkpt lat="45.01783" lon="5.72889">
        <ele>1253.8</ele>
        <time>2021-05-29T07:07:59Z</time>
      </trkpt>
      <trkpt lat="45.01784" lon="5.7289">
        <ele>1254.2</ele>
        <time>2021-05-29T07:08:00Z</time>
      </trkpt>
      <trkpt lat="45.01784" lon="5.72892">
        <ele>1254.6</ele>
        <time>2021-05-29T07:08:01Z</time>
      </trkpt>
      <trkpt lat="45.01785" lon="5.72894">
        <ele>1254.8</ele>
        <time>2021-05-29T07:08:02Z</time>
      </trkpt>
      <trkpt lat="45.01785" lon="5.72895">
        <ele>1255</ele>
        <time>2021-05-29T07:08:03Z</time>
      </trkpt>
      <trkpt lat="45.01786" lon="5.72897">
        <ele>1255.4</ele>
        <time>2021-05-29T07:08:04Z</time>
      </trkpt>
      <trkpt lat="45.01786" lon="5.72898">
        <ele>1255.6</ele>
        <time>2021-05-29T07:08:05Z</time>
      </trkpt>
      <trkpt lat="45.01787" lon="5.729">
        <ele>1255.6</ele>
        <time>2021-05-29T07:08:06Z</time>
      </trkpt>
      <trkpt lat="45.01787" lon="5.72901">
        <ele>1255.8</ele>
        <time>2021-05-29T07:08:07Z</time>
      </trkpt>
      <trkpt lat="45.01788" lon="5.72903">
        <ele>1256</ele>
        <time>2021-05-29T07:08:08Z</time>
      </trkpt>
      <trkpt lat="45.01789" lon="5.72909">
        <ele>1256</ele>
        <time>2021-05-29T07:08:09Z</time>
      </trkpt>
      <trkpt lat="45.0179" lon="5.72915">
        <ele>1256</ele>
        <time>2021-05-29T07:08:10Z</time>
      </trkpt>
      <trkpt lat="45.01791" lon="5.7292">
        <ele>1256</ele>
        <time>2021-05-29T07:08:11Z</time>
      </trkpt>
      <trkpt lat="45.01791" lon="5.72926">
        <ele>1256.2</ele>
        <time>2021-05-29T07:08:12Z</time>
      </trkpt>
      <trkpt lat="45.01792" lon="5.72932">
        <ele>1256.2</ele>
        <time>2021-05-29T07:08:13Z</time>
      </trkpt>
      <trkpt lat="45.01796" lon="5.72944">
        <ele>1256</ele>
        <time>2021-05-29T07:08:14Z</time>
      </trkpt>
      <trkpt lat="45.01796" lon="5.72947">
        <ele>1256.4</ele>
        <time>2021-05-29T07:08:15Z</time>
      </trkpt>
      <trkpt lat="45.01796" lon="5.72949">
        <ele>1256.6</ele>
        <time>2021-05-29T07:08:16Z</time>
      </trkpt>
      <trkpt lat="45.01796" lon="5.72952">
        <ele>1256.8</ele>
        <time>2021-05-29T07:08:17Z</time>
      </trkpt>
      <trkpt lat="45.01796" lon="5.72959">
        <ele>1257</ele>
        <time>2021-05-29T07:08:18Z</time>
      </trkpt>
      <trkpt lat="45.01796" lon="5.72959">
        <ele>1257.2</ele>
        <time>2021-05-29T07:08:19Z</time>
      </trkpt>
      <trkpt lat="45.01797" lon="5.72962">
        <ele>1257.6</ele>
        <time>2021-05-29T07:08:20Z</time>
      </trkpt>
      <trkpt lat="45.01797" lon="5.72964">
        <ele>1257.6</ele>
        <time>2021-05-29T07:08:21Z</time>
      </trkpt>
      <trkpt lat="45.01798" lon="5.72966">
        <ele>1258</ele>
        <time>2021-05-29T07:08:22Z</time>
      </trkpt>
      <trkpt lat="45.01799" lon="5.72968">
        <ele>1258</ele>
        <time>2021-05-29T07:08:23Z</time>
      </trkpt>
      <trkpt lat="45.01799" lon="5.7297">
        <ele>1258</ele>
        <time>2021-05-29T07:08:24Z</time>
      </trkpt>
      <trkpt lat="45.018" lon="5.72972">
        <ele>1258.2</ele>
        <time>2021-05-29T07:08:25Z</time>
      </trkpt>
      <trkpt lat="45.01801" lon="5.72974">
        <ele>1258.4</ele>
        <time>2021-05-29T07:08:26Z</time>
      </trkpt>
      <trkpt lat="45.01801" lon="5.72976">
        <ele>1258.6</ele>
        <time>2021-05-29T07:08:27Z</time>
      </trkpt>
      <trkpt lat="45.01802" lon="5.72978">
        <ele>1258.8</ele>
        <time>2021-05-29T07:08:28Z</time>
      </trkpt>
      <trkpt lat="45.01803" lon="5.7298">
        <ele>1259</ele>
        <time>2021-05-29T07:08:29Z</time>
      </trkpt>
      <trkpt lat="45.01804" lon="5.72982">
        <ele>1259.2</ele>
        <time>2021-05-29T07:08:30Z</time>
      </trkpt>
      <trkpt lat="45.01804" lon="5.72984">
        <ele>1259.2</ele>
        <time>2021-05-29T07:08:31Z</time>
      </trkpt>
      <trkpt lat="45.01805" lon="5.72986">
        <ele>1259.6</ele>
        <time>2021-05-29T07:08:32Z</time>
      </trkpt>
      <trkpt lat="45.01806" lon="5.72987">
        <ele>1259.6</ele>
        <time>2021-05-29T07:08:33Z</time>
      </trkpt>
      <trkpt lat="45.01807" lon="5.72989">
        <ele>1259.6</ele>
        <time>2021-05-29T07:08:34Z</time>
      </trkpt>
      <trkpt lat="45.01808" lon="5.72991">
        <ele>1259.8</ele>
        <time>2021-05-29T07:08:35Z</time>
      </trkpt>
      <trkpt lat="45.01809" lon="5.72992">
        <ele>1260</ele>
        <time>2021-05-29T07:08:36Z</time>
      </trkpt>
      <trkpt lat="45.0181" lon="5.72994">
        <ele>1260.2</ele>
        <time>2021-05-29T07:08:37Z</time>
      </trkpt>
      <trkpt lat="45.0181" lon="5.72995">
        <ele>1260.6</ele>
        <time>2021-05-29T07:08:38Z</time>
      </trkpt>
      <trkpt lat="45.01811" lon="5.72997">
        <ele>1260.8</ele>
        <time>2021-05-29T07:08:39Z</time>
      </trkpt>
      <trkpt lat="45.01811" lon="5.72998">
        <ele>1261</ele>
        <time>2021-05-29T07:08:40Z</time>
      </trkpt>
      <trkpt lat="45.01812" lon="5.72999">
        <ele>1261.2</ele>
        <time>2021-05-29T07:08:41Z</time>
      </trkpt>
      <trkpt lat="45.01812" lon="5.73001">
        <ele>1261.4</ele>
        <time>2021-05-29T07:08:42Z</time>
      </trkpt>
      <trkpt lat="45.01813" lon="5.73002">
        <ele>1261.8</ele>
        <time>2021-05-29T07:08:43Z</time>
      </trkpt>
      <trkpt lat="45.01814" lon="5.73003">
        <ele>1262</ele>
        <time>2021-05-29T07:08:44Z</time>
      </trkpt>
      <trkpt lat="45.01814" lon="5.73005">
        <ele>1262.2</ele>
        <time>2021-05-29T07:08:45Z</time>
      </trkpt>
      <trkpt lat="45.01815" lon="5.73006">
        <ele>1262.6</ele>
        <time>2021-05-29T07:08:46Z</time>
      </trkpt>
      <trkpt lat="45.01815" lon="5.73007">
        <ele>1263</ele>
        <time>2021-05-29T07:08:47Z</time>
      </trkpt>
      <trkpt lat="45.01815" lon="5.73009">
        <ele>1263.4</ele>
        <time>2021-05-29T07:08:48Z</time>
      </trkpt>
      <trkpt lat="45.01816" lon="5.7301">
        <ele>1263.8</ele>
        <time>2021-05-29T07:08:49Z</time>
      </trkpt>
      <trkpt lat="45.01816" lon="5.73011">
        <ele>1264.2</ele>
        <time>2021-05-29T07:08:50Z</time>
      </trkpt>
      <trkpt lat="45.01816" lon="5.73012">
        <ele>1264.4</ele>
        <time>2021-05-29T07:08:51Z</time>
      </trkpt>
      <trkpt lat="45.01816" lon="5.73013">
        <ele>1264.6</ele>
        <time>2021-05-29T07:08:52Z</time>
      </trkpt>
      <trkpt lat="45.01816" lon="5.73014">
        <ele>1264.8</ele>
        <time>2021-05-29T07:08:53Z</time>
      </trkpt>
      <trkpt lat="45.01817" lon="5.73015">
        <ele>1265</ele>
        <time>2021-05-29T07:08:54Z</time>
      </trkpt>
      <trkpt lat="45.01817" lon="5.73017">
        <ele>1265.2</ele>
        <time>2021-05-29T07:08:55Z</time>
      </trkpt>
      <trkpt lat="45.01817" lon="5.73018">
        <ele>1265.2</ele>
        <time>2021-05-29T07:08:56Z</time>
      </trkpt>
      <trkpt lat="45.01817" lon="5.73019">
        <ele>1265.2</ele>
        <time>2021-05-29T07:08:57Z</time>
      </trkpt>
      <trkpt lat="45.01817" lon="5.7302">
        <ele>1265</ele>
        <time>2021-05-29T07:08:58Z</time>
      </trkpt>
      <trkpt lat="45.01817" lon="5.73021">
        <ele>1265.2</ele>
        <time>2021-05-29T07:08:59Z</time>
      </trkpt>
      <trkpt lat="45.01818" lon="5.73021">
        <ele>1265.2</ele>
        <time>2021-05-29T07:09:00Z</time>
      </trkpt>
      <trkpt lat="45.01818" lon="5.73022">
        <ele>1265.2</ele>
        <time>2021-05-29T07:09:01Z</time>
      </trkpt>
      <trkpt lat="45.01818" lon="5.73022">
        <ele>1265.2</ele>
        <time>2021-05-29T07:09:02Z</time>
      </trkpt>
      <trkpt lat="45.01818" lon="5.73023">
        <ele>1265.2</ele>
        <time>2021-05-29T07:09:03Z</time>
      </trkpt>
      <trkpt lat="45.01818" lon="5.73023">
        <ele>1265.2</ele>
        <time>2021-05-29T07:09:04Z</time>
      </trkpt>
      <trkpt lat="45.01818" lon="5.73024">
        <ele>1265.4</ele>
        <time>2021-05-29T07:09:05Z</time>
      </trkpt>
      <trkpt lat="45.01818" lon="5.73024">
        <ele>1265.2</ele>
        <time>2021-05-29T07:09:06Z</time>
      </trkpt>
      <trkpt lat="45.01818" lon="5.73025">
        <ele>1265.2</ele>
        <time>2021-05-29T07:09:07Z</time>
      </trkpt>
      <trkpt lat="45.01818" lon="5.73025">
        <ele>1265.2</ele>
        <time>2021-05-29T07:09:08Z</time>
      </trkpt>
      <trkpt lat="45.01818" lon="5.73026">
        <ele>1265.2</ele>
        <time>2021-05-29T07:09:09Z</time>
      </trkpt>
      <trkpt lat="45.01818" lon="5.73026">
        <ele>1265.2</ele>
        <time>2021-05-29T07:09:10Z</time>
      </trkpt>
      <trkpt lat="45.01818" lon="5.73027">
        <ele>1265.2</ele>
        <time>2021-05-29T07:09:11Z</time>
      </trkpt>
      <trkpt lat="45.01818" lon="5.73027">
        <ele>1265.2</ele>
        <time>2021-05-29T07:09:12Z</time>
      </trkpt>
      <trkpt lat="45.01818" lon="5.73028">
        <ele>1265.2</ele>
        <time>2021-05-29T07:09:13Z</time>
      </trkpt>
      <trkpt lat="45.01818" lon="5.73028">
        <ele>1265.2</ele>
        <time>2021-05-29T07:09:14Z</time>
      </trkpt>
      <trkpt lat="45.01818" lon="5.73029">
        <ele>1265.2</ele>
        <time>2021-05-29T07:09:15Z</time>
      </trkpt>
      <trkpt lat="45.01818" lon="5.73029">
        <ele>1265.2</ele>
        <time>2021-05-29T07:09:16Z</time>
      </trkpt>
      <trkpt lat="45.01818" lon="5.7303">
        <ele>1265.2</ele>
        <time>2021-05-29T07:09:17Z</time>
      </trkpt>
      <trkpt lat="45.01818" lon="5.7303">
        <ele>1265.4</ele>
        <time>2021-05-29T07:09:18Z</time>
      </trkpt>
      <trkpt lat="45.01818" lon="5.73031">
        <ele>1265.4</ele>
        <time>2021-05-29T07:09:19Z</time>
      </trkpt>
      <trkpt lat="45.01818" lon="5.73031">
        <ele>1265.4</ele>
        <time>2021-05-29T07:09:20Z</time>
      </trkpt>
      <trkpt lat="45.01818" lon="5.73032">
        <ele>1265.6</ele>
        <time>2021-05-29T07:09:21Z</time>
      </trkpt>
      <trkpt lat="45.01818" lon="5.73032">
        <ele>1266</ele>
        <time>2021-05-29T07:09:22Z</time>
      </trkpt>
      <trkpt lat="45.01818" lon="5.73033">
        <ele>1266</ele>
        <time>2021-05-29T07:09:23Z</time>
      </trkpt>
      <trkpt lat="45.01818" lon="5.73033">
        <ele>1266.2</ele>
        <time>2021-05-29T07:09:24Z</time>
      </trkpt>
      <trkpt lat="45.01818" lon="5.73034">
        <ele>1266.2</ele>
        <time>2021-05-29T07:09:25Z</time>
      </trkpt>
      <trkpt lat="45.01819" lon="5.73036">
        <ele>1266.6</ele>
        <time>2021-05-29T07:09:26Z</time>
      </trkpt>
      <trkpt lat="45.01819" lon="5.73037">
        <ele>1267</ele>
        <time>2021-05-29T07:09:27Z</time>
      </trkpt>
      <trkpt lat="45.01819" lon="5.73039">
        <ele>1267.2</ele>
        <time>2021-05-29T07:09:28Z</time>
      </trkpt>
      <trkpt lat="45.0182" lon="5.7304">
        <ele>1267.4</ele>
        <time>2021-05-29T07:09:29Z</time>
      </trkpt>
      <trkpt lat="45.0182" lon="5.73042">
        <ele>1267.4</ele>
        <time>2021-05-29T07:09:30Z</time>
      </trkpt>
      <trkpt lat="45.01821" lon="5.73044">
        <ele>1267.6</ele>
        <time>2021-05-29T07:09:31Z</time>
      </trkpt>
      <trkpt lat="45.01821" lon="5.73045">
        <ele>1267.4</ele>
        <time>2021-05-29T07:09:32Z</time>
      </trkpt>
      <trkpt lat="45.01822" lon="5.73047">
        <ele>1267</ele>
        <time>2021-05-29T07:09:33Z</time>
      </trkpt>
      <trkpt lat="45.01822" lon="5.73048">
        <ele>1267</ele>
        <time>2021-05-29T07:09:34Z</time>
      </trkpt>
      <trkpt lat="45.01823" lon="5.73049">
        <ele>1267</ele>
        <time>2021-05-29T07:09:35Z</time>
      </trkpt>
      <trkpt lat="45.01824" lon="5.7305">
        <ele>1267</ele>
        <time>2021-05-29T07:09:36Z</time>
      </trkpt>
      <trkpt lat="45.01824" lon="5.73051">
        <ele>1267.2</ele>
        <time>2021-05-29T07:09:37Z</time>
      </trkpt>
      <trkpt lat="45.01825" lon="5.73052">
        <ele>1267.2</ele>
        <time>2021-05-29T07:09:38Z</time>
      </trkpt>
      <trkpt lat="45.01826" lon="5.73054">
        <ele>1267.2</ele>
        <time>2021-05-29T07:09:39Z</time>
      </trkpt>
      <trkpt lat="45.01826" lon="5.73055">
        <ele>1267.2</ele>
        <time>2021-05-29T07:09:40Z</time>
      </trkpt>
      <trkpt lat="45.01827" lon="5.73056">
        <ele>1267.4</ele>
        <time>2021-05-29T07:09:41Z</time>
      </trkpt>
      <trkpt lat="45.01828" lon="5.73057">
        <ele>1267.6</ele>
        <time>2021-05-29T07:09:42Z</time>
      </trkpt>
      <trkpt lat="45.01828" lon="5.73057">
        <ele>1267.8</ele>
        <time>2021-05-29T07:09:43Z</time>
      </trkpt>
      <trkpt lat="45.01828" lon="5.73057">
        <ele>1268.2</ele>
        <time>2021-05-29T07:09:44Z</time>
      </trkpt>
      <trkpt lat="45.01827" lon="5.73058">
        <ele>1268.4</ele>
        <time>2021-05-29T07:09:45Z</time>
      </trkpt>
      <trkpt lat="45.01827" lon="5.73058">
        <ele>1268.4</ele>
        <time>2021-05-29T07:09:46Z</time>
      </trkpt>
      <trkpt lat="45.01827" lon="5.73058">
        <ele>1268.6</ele>
        <time>2021-05-29T07:09:47Z</time>
      </trkpt>
      <trkpt lat="45.01827" lon="5.73058">
        <ele>1268.8</ele>
        <time>2021-05-29T07:09:48Z</time>
      </trkpt>
      <trkpt lat="45.01827" lon="5.73059">
        <ele>1269</ele>
        <time>2021-05-29T07:09:49Z</time>
      </trkpt>
      <trkpt lat="45.01827" lon="5.73059">
        <ele>1269</ele>
        <time>2021-05-29T07:09:50Z</time>
      </trkpt>
      <trkpt lat="45.01827" lon="5.73059">
        <ele>1269.2</ele>
        <time>2021-05-29T07:09:51Z</time>
      </trkpt>
      <trkpt lat="45.01827" lon="5.7306">
        <ele>1269.2</ele>
        <time>2021-05-29T07:09:52Z</time>
      </trkpt>
      <trkpt lat="45.01826" lon="5.7306">
        <ele>1269.4</ele>
        <time>2021-05-29T07:09:53Z</time>
      </trkpt>
      <trkpt lat="45.01826" lon="5.7306">
        <ele>1269.4</ele>
        <time>2021-05-29T07:09:54Z</time>
      </trkpt>
      <trkpt lat="45.01826" lon="5.7306">
        <ele>1269.8</ele>
        <time>2021-05-29T07:09:55Z</time>
      </trkpt>
      <trkpt lat="45.01826" lon="5.73061">
        <ele>1269.8</ele>
        <time>2021-05-29T07:09:56Z</time>
      </trkpt>
      <trkpt lat="45.01826" lon="5.73061">
        <ele>1269.8</ele>
        <time>2021-05-29T07:09:57Z</time>
      </trkpt>
      <trkpt lat="45.01826" lon="5.73061">
        <ele>1270</ele>
        <time>2021-05-29T07:09:58Z</time>
      </trkpt>
      <trkpt lat="45.01826" lon="5.73061">
        <ele>1270.2</ele>
        <time>2021-05-29T07:10:00Z</time>
      </trkpt>
      <trkpt lat="45.01825" lon="5.73062">
        <ele>1270</ele>
        <time>2021-05-29T07:10:01Z</time>
      </trkpt>
      <trkpt lat="45.01825" lon="5.73062">
        <ele>1269.8</ele>
        <time>2021-05-29T07:10:02Z</time>
      </trkpt>
      <trkpt lat="45.01825" lon="5.73062">
        <ele>1269.8</ele>
        <time>2021-05-29T07:10:03Z</time>
      </trkpt>
      <trkpt lat="45.01825" lon="5.73063">
        <ele>1269.6</ele>
        <time>2021-05-29T07:10:04Z</time>
      </trkpt>
      <trkpt lat="45.01825" lon="5.73063">
        <ele>1269.8</ele>
        <time>2021-05-29T07:10:05Z</time>
      </trkpt>
      <trkpt lat="45.01825" lon="5.73063">
        <ele>1269.8</ele>
        <time>2021-05-29T07:10:06Z</time>
      </trkpt>
      <trkpt lat="45.01825" lon="5.73063">
        <ele>1270</ele>
        <time>2021-05-29T07:10:07Z</time>
      </trkpt>
      <trkpt lat="45.01824" lon="5.73064">
        <ele>1270.2</ele>
        <time>2021-05-29T07:10:08Z</time>
      </trkpt>
      <trkpt lat="45.01824" lon="5.73064">
        <ele>1270.2</ele>
        <time>2021-05-29T07:10:09Z</time>
      </trkpt>
      <trkpt lat="45.01824" lon="5.73064">
        <ele>1270.6</ele>
        <time>2021-05-29T07:10:10Z</time>
      </trkpt>
      <trkpt lat="45.01824" lon="5.73064">
        <ele>1270.8</ele>
        <time>2021-05-29T07:10:11Z</time>
      </trkpt>
      <trkpt lat="45.01824" lon="5.73065">
        <ele>1271</ele>
        <time>2021-05-29T07:10:12Z</time>
      </trkpt>
      <trkpt lat="45.01824" lon="5.73065">
        <ele>1271.2</ele>
        <time>2021-05-29T07:10:13Z</time>
      </trkpt>
      <trkpt lat="45.01824" lon="5.73065">
        <ele>1271.4</ele>
        <time>2021-05-29T07:10:14Z</time>
      </trkpt>
      <trkpt lat="45.01824" lon="5.73065">
        <ele>1271.6</ele>
        <time>2021-05-29T07:10:15Z</time>
      </trkpt>
      <trkpt lat="45.01823" lon="5.73066">
        <ele>1271.8</ele>
        <time>2021-05-29T07:10:16Z</time>
      </trkpt>
      <trkpt lat="45.01823" lon="5.73066">
        <ele>1272.2</ele>
        <time>2021-05-29T07:10:17Z</time>
      </trkpt>
      <trkpt lat="45.01823" lon="5.73066">
        <ele>1272.4</ele>
        <time>2021-05-29T07:10:18Z</time>
      </trkpt>
      <trkpt lat="45.01823" lon="5.73067">
        <ele>1272.6</ele>
        <time>2021-05-29T07:10:19Z</time>
      </trkpt>
      <trkpt lat="45.01823" lon="5.73067">
        <ele>1272.8</ele>
        <time>2021-05-29T07:10:20Z</time>
      </trkpt>
      <trkpt lat="45.01823" lon="5.73067">
        <ele>1273.2</ele>
        <time>2021-05-29T07:10:21Z</time>
      </trkpt>
      <trkpt lat="45.01823" lon="5.73067">
        <ele>1273.6</ele>
        <time>2021-05-29T07:10:22Z</time>
      </trkpt>
      <trkpt lat="45.01822" lon="5.73068">
        <ele>1273.6</ele>
        <time>2021-05-29T07:10:23Z</time>
      </trkpt>
      <trkpt lat="45.01822" lon="5.73068">
        <ele>1274</ele>
        <time>2021-05-29T07:10:24Z</time>
      </trkpt>
      <trkpt lat="45.01822" lon="5.73069">
        <ele>1274</ele>
        <time>2021-05-29T07:10:25Z</time>
      </trkpt>
      <trkpt lat="45.01821" lon="5.73069">
        <ele>1274.2</ele>
        <time>2021-05-29T07:10:26Z</time>
      </trkpt>
      <trkpt lat="45.01821" lon="5.7307">
        <ele>1274.6</ele>
        <time>2021-05-29T07:10:27Z</time>
      </trkpt>
      <trkpt lat="45.01821" lon="5.7307">
        <ele>1274.8</ele>
        <time>2021-05-29T07:10:28Z</time>
      </trkpt>
      <trkpt lat="45.0182" lon="5.73071">
        <ele>1274.8</ele>
        <time>2021-05-29T07:10:29Z</time>
      </trkpt>
      <trkpt lat="45.0182" lon="5.73071">
        <ele>1275</ele>
        <time>2021-05-29T07:10:30Z</time>
      </trkpt>
      <trkpt lat="45.01819" lon="5.73072">
        <ele>1275.2</ele>
        <time>2021-05-29T07:10:31Z</time>
      </trkpt>
      <trkpt lat="45.01819" lon="5.73072">
        <ele>1275.6</ele>
        <time>2021-05-29T07:10:32Z</time>
      </trkpt>
      <trkpt lat="45.01819" lon="5.73073">
        <ele>1276</ele>
        <time>2021-05-29T07:10:33Z</time>
      </trkpt>
      <trkpt lat="45.01818" lon="5.73073">
        <ele>1276.2</ele>
        <time>2021-05-29T07:10:34Z</time>
      </trkpt>
      <trkpt lat="45.01818" lon="5.73074">
        <ele>1276.4</ele>
        <time>2021-05-29T07:10:35Z</time>
      </trkpt>
      <trkpt lat="45.01817" lon="5.73074">
        <ele>1276.6</ele>
        <time>2021-05-29T07:10:36Z</time>
      </trkpt>
      <trkpt lat="45.01817" lon="5.73075">
        <ele>1277</ele>
        <time>2021-05-29T07:10:37Z</time>
      </trkpt>
      <trkpt lat="45.01817" lon="5.73075">
        <ele>1277.2</ele>
        <time>2021-05-29T07:10:38Z</time>
      </trkpt>
      <trkpt lat="45.01816" lon="5.73076">
        <ele>1277.4</ele>
        <time>2021-05-29T07:10:39Z</time>
      </trkpt>
      <trkpt lat="45.01816" lon="5.73076">
        <ele>1277.6</ele>
        <time>2021-05-29T07:10:40Z</time>
      </trkpt>
      <trkpt lat="45.01816" lon="5.73077">
        <ele>1278</ele>
        <time>2021-05-29T07:10:41Z</time>
      </trkpt>
      <trkpt lat="45.01815" lon="5.73077">
        <ele>1278.4</ele>
        <time>2021-05-29T07:10:42Z</time>
      </trkpt>
      <trkpt lat="45.01814" lon="5.73077">
        <ele>1278.4</ele>
        <time>2021-05-29T07:10:43Z</time>
      </trkpt>
      <trkpt lat="45.01813" lon="5.73077">
        <ele>1278.6</ele>
        <time>2021-05-29T07:10:44Z</time>
      </trkpt>
      <trkpt lat="45.01813" lon="5.73078">
        <ele>1278.8</ele>
        <time>2021-05-29T07:10:45Z</time>
      </trkpt>
      <trkpt lat="45.01812" lon="5.73078">
        <ele>1279</ele>
        <time>2021-05-29T07:10:46Z</time>
      </trkpt>
      <trkpt lat="45.01811" lon="5.73078">
        <ele>1279.4</ele>
        <time>2021-05-29T07:10:47Z</time>
      </trkpt>
      <trkpt lat="45.01811" lon="5.73079">
        <ele>1279.6</ele>
        <time>2021-05-29T07:10:48Z</time>
      </trkpt>
      <trkpt lat="45.0181" lon="5.73079">
        <ele>1279.8</ele>
        <time>2021-05-29T07:10:49Z</time>
      </trkpt>
      <trkpt lat="45.01809" lon="5.73079">
        <ele>1280.2</ele>
        <time>2021-05-29T07:10:50Z</time>
      </trkpt>
      <trkpt lat="45.01808" lon="5.73079">
        <ele>1280.4</ele>
        <time>2021-05-29T07:10:51Z</time>
      </trkpt>
      <trkpt lat="45.01808" lon="5.7308">
        <ele>1280.8</ele>
        <time>2021-05-29T07:10:52Z</time>
      </trkpt>
      <trkpt lat="45.01807" lon="5.7308">
        <ele>1281.4</ele>
        <time>2021-05-29T07:10:53Z</time>
      </trkpt>
      <trkpt lat="45.01806" lon="5.7308">
        <ele>1281.4</ele>
        <time>2021-05-29T07:10:54Z</time>
      </trkpt>
      <trkpt lat="45.01805" lon="5.73081">
        <ele>1281.4</ele>
        <time>2021-05-29T07:10:55Z</time>
      </trkpt>
      <trkpt lat="45.01805" lon="5.73081">
        <ele>1281.4</ele>
        <time>2021-05-29T07:10:56Z</time>
      </trkpt>
      <trkpt lat="45.01804" lon="5.73081">
        <ele>1281.8</ele>
        <time>2021-05-29T07:10:57Z</time>
      </trkpt>
      <trkpt lat="45.01803" lon="5.73082">
        <ele>1282</ele>
        <time>2021-05-29T07:10:58Z</time>
      </trkpt>
      <trkpt lat="45.01802" lon="5.73082">
        <ele>1282.2</ele>
        <time>2021-05-29T07:10:59Z</time>
      </trkpt>
      <trkpt lat="45.01801" lon="5.73083">
        <ele>1282.6</ele>
        <time>2021-05-29T07:11:00Z</time>
      </trkpt>
      <trkpt lat="45.018" lon="5.73083">
        <ele>1283</ele>
        <time>2021-05-29T07:11:01Z</time>
      </trkpt>
      <trkpt lat="45.01798" lon="5.73084">
        <ele>1283</ele>
        <time>2021-05-29T07:11:02Z</time>
      </trkpt>
      <trkpt lat="45.01797" lon="5.73084">
        <ele>1283.2</ele>
        <time>2021-05-29T07:11:03Z</time>
      </trkpt>
      <trkpt lat="45.01796" lon="5.73085">
        <ele>1283.8</ele>
        <time>2021-05-29T07:11:04Z</time>
      </trkpt>
      <trkpt lat="45.01795" lon="5.73085">
        <ele>1284</ele>
        <time>2021-05-29T07:11:05Z</time>
      </trkpt>
      <trkpt lat="45.01794" lon="5.73086">
        <ele>1284.4</ele>
        <time>2021-05-29T07:11:06Z</time>
      </trkpt>
      <trkpt lat="45.01792" lon="5.73087">
        <ele>1284.6</ele>
        <time>2021-05-29T07:11:07Z</time>
      </trkpt>
      <trkpt lat="45.0179" lon="5.73088">
        <ele>1284.8</ele>
        <time>2021-05-29T07:11:08Z</time>
      </trkpt>
      <trkpt lat="45.01789" lon="5.73089">
        <ele>1285.2</ele>
        <time>2021-05-29T07:11:09Z</time>
      </trkpt>
      <trkpt lat="45.01787" lon="5.7309">
        <ele>1285.4</ele>
        <time>2021-05-29T07:11:10Z</time>
      </trkpt>
      <trkpt lat="45.01786" lon="5.73091">
        <ele>1285.8</ele>
        <time>2021-05-29T07:11:11Z</time>
      </trkpt>
      <trkpt lat="45.01784" lon="5.73091">
        <ele>1286.2</ele>
        <time>2021-05-29T07:11:12Z</time>
      </trkpt>
      <trkpt lat="45.01782" lon="5.73092">
        <ele>1286.4</ele>
        <time>2021-05-29T07:11:13Z</time>
      </trkpt>
      <trkpt lat="45.0178" lon="5.73092">
        <ele>1286.4</ele>
        <time>2021-05-29T07:11:14Z</time>
      </trkpt>
      <trkpt lat="45.01778" lon="5.73093">
        <ele>1286.6</ele>
        <time>2021-05-29T07:11:15Z</time>
      </trkpt>
      <trkpt lat="45.01776" lon="5.73094">
        <ele>1286.8</ele>
        <time>2021-05-29T07:11:16Z</time>
      </trkpt>
      <trkpt lat="45.01776" lon="5.73095">
        <ele>1287.2</ele>
        <time>2021-05-29T07:11:17Z</time>
      </trkpt>
      <trkpt lat="45.01775" lon="5.73096">
        <ele>1287.4</ele>
        <time>2021-05-29T07:11:18Z</time>
      </trkpt>
      <trkpt lat="45.01774" lon="5.73097">
        <ele>1287.8</ele>
        <time>2021-05-29T07:11:19Z</time>
      </trkpt>
      <trkpt lat="45.01774" lon="5.73098">
        <ele>1288</ele>
        <time>2021-05-29T07:11:20Z</time>
      </trkpt>
      <trkpt lat="45.01773" lon="5.73099">
        <ele>1288.4</ele>
        <time>2021-05-29T07:11:21Z</time>
      </trkpt>
      <trkpt lat="45.01773" lon="5.731">
        <ele>1288.6</ele>
        <time>2021-05-29T07:11:22Z</time>
      </trkpt>
      <trkpt lat="45.01772" lon="5.73101">
        <ele>1288.6</ele>
        <time>2021-05-29T07:11:23Z</time>
      </trkpt>
      <trkpt lat="45.01771" lon="5.73102">
        <ele>1288.8</ele>
        <time>2021-05-29T07:11:24Z</time>
      </trkpt>
      <trkpt lat="45.01771" lon="5.73103">
        <ele>1289</ele>
        <time>2021-05-29T07:11:25Z</time>
      </trkpt>
      <trkpt lat="45.01768" lon="5.73105">
        <ele>1289.4</ele>
        <time>2021-05-29T07:11:26Z</time>
      </trkpt>
      <trkpt lat="45.01766" lon="5.73106">
        <ele>1289.4</ele>
        <time>2021-05-29T07:11:27Z</time>
      </trkpt>
      <trkpt lat="45.01763" lon="5.73107">
        <ele>1289.8</ele>
        <time>2021-05-29T07:11:28Z</time>
      </trkpt>
      <trkpt lat="45.01761" lon="5.73108">
        <ele>1290</ele>
        <time>2021-05-29T07:11:29Z</time>
      </trkpt>
      <trkpt lat="45.0176" lon="5.73109">
        <ele>1290.2</ele>
        <time>2021-05-29T07:11:30Z</time>
      </trkpt>
      <trkpt lat="45.01759" lon="5.7311">
        <ele>1290.4</ele>
        <time>2021-05-29T07:11:31Z</time>
      </trkpt>
      <trkpt lat="45.01757" lon="5.73111">
        <ele>1290.6</ele>
        <time>2021-05-29T07:11:32Z</time>
      </trkpt>
      <trkpt lat="45.01756" lon="5.73112">
        <ele>1291.2</ele>
        <time>2021-05-29T07:11:33Z</time>
      </trkpt>
      <trkpt lat="45.01755" lon="5.73113">
        <ele>1291.4</ele>
        <time>2021-05-29T07:11:34Z</time>
      </trkpt>
      <trkpt lat="45.01754" lon="5.73114">
        <ele>1291.6</ele>
        <time>2021-05-29T07:11:35Z</time>
      </trkpt>
      <trkpt lat="45.01753" lon="5.73115">
        <ele>1291.8</ele>
        <time>2021-05-29T07:11:36Z</time>
      </trkpt>
      <trkpt lat="45.01752" lon="5.73115">
        <ele>1292.2</ele>
        <time>2021-05-29T07:11:37Z</time>
      </trkpt>
      <trkpt lat="45.01751" lon="5.73115">
        <ele>1292.4</ele>
        <time>2021-05-29T07:11:38Z</time>
      </trkpt>
      <trkpt lat="45.01751" lon="5.73116">
        <ele>1292.6</ele>
        <time>2021-05-29T07:11:39Z</time>
      </trkpt>
      <trkpt lat="45.0175" lon="5.73116">
        <ele>1292.6</ele>
        <time>2021-05-29T07:11:40Z</time>
      </trkpt>
      <trkpt lat="45.01749" lon="5.73117">
        <ele>1292.8</ele>
        <time>2021-05-29T07:11:41Z</time>
      </trkpt>
      <trkpt lat="45.01748" lon="5.73117">
        <ele>1293</ele>
        <time>2021-05-29T07:11:42Z</time>
      </trkpt>
      <trkpt lat="45.01747" lon="5.73118">
        <ele>1293.2</ele>
        <time>2021-05-29T07:11:43Z</time>
      </trkpt>
      <trkpt lat="45.01747" lon="5.73118">
        <ele>1293.6</ele>
        <time>2021-05-29T07:11:44Z</time>
      </trkpt>
      <trkpt lat="45.01746" lon="5.73119">
        <ele>1294</ele>
        <time>2021-05-29T07:11:45Z</time>
      </trkpt>
      <trkpt lat="45.01745" lon="5.73119">
        <ele>1294.2</ele>
        <time>2021-05-29T07:11:46Z</time>
      </trkpt>
      <trkpt lat="45.01744" lon="5.7312">
        <ele>1294.4</ele>
        <time>2021-05-29T07:11:47Z</time>
      </trkpt>
      <trkpt lat="45.01744" lon="5.7312">
        <ele>1294.6</ele>
        <time>2021-05-29T07:11:48Z</time>
      </trkpt>
      <trkpt lat="45.01743" lon="5.7312">
        <ele>1294.8</ele>
        <time>2021-05-29T07:11:49Z</time>
      </trkpt>
      <trkpt lat="45.01742" lon="5.73121">
        <ele>1295.4</ele>
        <time>2021-05-29T07:11:50Z</time>
      </trkpt>
      <trkpt lat="45.01742" lon="5.73121">
        <ele>1295.4</ele>
        <time>2021-05-29T07:11:51Z</time>
      </trkpt>
      <trkpt lat="45.01741" lon="5.73121">
        <ele>1295.8</ele>
        <time>2021-05-29T07:11:52Z</time>
      </trkpt>
      <trkpt lat="45.0174" lon="5.73122">
        <ele>1296</ele>
        <time>2021-05-29T07:11:53Z</time>
      </trkpt>
      <trkpt lat="45.0174" lon="5.73122">
        <ele>1296.2</ele>
        <time>2021-05-29T07:11:54Z</time>
      </trkpt>
      <trkpt lat="45.01739" lon="5.73122">
        <ele>1296.4</ele>
        <time>2021-05-29T07:11:55Z</time>
      </trkpt>
      <trkpt lat="45.01738" lon="5.73123">
        <ele>1296.8</ele>
        <time>2021-05-29T07:11:56Z</time>
      </trkpt>
      <trkpt lat="45.01738" lon="5.73123">
        <ele>1297</ele>
        <time>2021-05-29T07:11:57Z</time>
      </trkpt>
      <trkpt lat="45.01737" lon="5.73123">
        <ele>1297.2</ele>
        <time>2021-05-29T07:11:58Z</time>
      </trkpt>
      <trkpt lat="45.01736" lon="5.73123">
        <ele>1297.6</ele>
        <time>2021-05-29T07:11:59Z</time>
      </trkpt>
      <trkpt lat="45.01736" lon="5.73124">
        <ele>1297.8</ele>
        <time>2021-05-29T07:12:00Z</time>
      </trkpt>
      <trkpt lat="45.01735" lon="5.73124">
        <ele>1298.2</ele>
        <time>2021-05-29T07:12:01Z</time>
      </trkpt>
      <trkpt lat="45.01734" lon="5.73124">
        <ele>1298.2</ele>
        <time>2021-05-29T07:12:02Z</time>
      </trkpt>
      <trkpt lat="45.01732" lon="5.73124">
        <ele>1298.2</ele>
        <time>2021-05-29T07:12:03Z</time>
      </trkpt>
      <trkpt lat="45.01731" lon="5.73125">
        <ele>1298.4</ele>
        <time>2021-05-29T07:12:04Z</time>
      </trkpt>
      <trkpt lat="45.0173" lon="5.73125">
        <ele>1298.6</ele>
        <time>2021-05-29T07:12:05Z</time>
      </trkpt>
      <trkpt lat="45.01729" lon="5.73125">
        <ele>1299</ele>
        <time>2021-05-29T07:12:06Z</time>
      </trkpt>
      <trkpt lat="45.01728" lon="5.73125">
        <ele>1299.8</ele>
        <time>2021-05-29T07:12:07Z</time>
      </trkpt>
      <trkpt lat="45.01727" lon="5.73126">
        <ele>1300.2</ele>
        <time>2021-05-29T07:12:08Z</time>
      </trkpt>
      <trkpt lat="45.01726" lon="5.73126">
        <ele>1300.2</ele>
        <time>2021-05-29T07:12:09Z</time>
      </trkpt>
      <trkpt lat="45.01725" lon="5.73126">
        <ele>1300.4</ele>
        <time>2021-05-29T07:12:10Z</time>
      </trkpt>
      <trkpt lat="45.01723" lon="5.73127">
        <ele>1300.4</ele>
        <time>2021-05-29T07:12:11Z</time>
      </trkpt>
      <trkpt lat="45.01722" lon="5.73127">
        <ele>1300.4</ele>
        <time>2021-05-29T07:12:12Z</time>
      </trkpt>
      <trkpt lat="45.01721" lon="5.73127">
        <ele>1300.6</ele>
        <time>2021-05-29T07:12:13Z</time>
      </trkpt>
      <trkpt lat="45.01719" lon="5.73128">
        <ele>1300.8</ele>
        <time>2021-05-29T07:12:14Z</time>
      </trkpt>
      <trkpt lat="45.01718" lon="5.73128">
        <ele>1301</ele>
        <time>2021-05-29T07:12:15Z</time>
      </trkpt>
      <trkpt lat="45.01717" lon="5.73128">
        <ele>1301</ele>
        <time>2021-05-29T07:12:16Z</time>
      </trkpt>
      <trkpt lat="45.01716" lon="5.73129">
        <ele>1301</ele>
        <time>2021-05-29T07:12:17Z</time>
      </trkpt>
      <trkpt lat="45.01715" lon="5.73129">
        <ele>1301</ele>
        <time>2021-05-29T07:12:18Z</time>
      </trkpt>
      <trkpt lat="45.01714" lon="5.73129">
        <ele>1301.2</ele>
        <time>2021-05-29T07:12:19Z</time>
      </trkpt>
      <trkpt lat="45.01714" lon="5.7313">
        <ele>1301.4</ele>
        <time>2021-05-29T07:12:20Z</time>
      </trkpt>
      <trkpt lat="45.01713" lon="5.7313">
        <ele>1301.6</ele>
        <time>2021-05-29T07:12:21Z</time>
      </trkpt>
      <trkpt lat="45.01712" lon="5.73131">
        <ele>1301.6</ele>
        <time>2021-05-29T07:12:22Z</time>
      </trkpt>
      <trkpt lat="45.01711" lon="5.73131">
        <ele>1301.8</ele>
        <time>2021-05-29T07:12:23Z</time>
      </trkpt>
      <trkpt lat="45.0171" lon="5.73132">
        <ele>1302.2</ele>
        <time>2021-05-29T07:12:24Z</time>
      </trkpt>
      <trkpt lat="45.0171" lon="5.73132">
        <ele>1302.4</ele>
        <time>2021-05-29T07:12:25Z</time>
      </trkpt>
      <trkpt lat="45.01709" lon="5.73132">
        <ele>1302.4</ele>
        <time>2021-05-29T07:12:26Z</time>
      </trkpt>
      <trkpt lat="45.01708" lon="5.73133">
        <ele>1302.6</ele>
        <time>2021-05-29T07:12:27Z</time>
      </trkpt>
      <trkpt lat="45.01707" lon="5.73133">
        <ele>1303</ele>
        <time>2021-05-29T07:12:28Z</time>
      </trkpt>
      <trkpt lat="45.01707" lon="5.73133">
        <ele>1303.4</ele>
        <time>2021-05-29T07:12:29Z</time>
      </trkpt>
      <trkpt lat="45.01706" lon="5.73134">
        <ele>1303.6</ele>
        <time>2021-05-29T07:12:30Z</time>
      </trkpt>
      <trkpt lat="45.01705" lon="5.73134">
        <ele>1303.6</ele>
        <time>2021-05-29T07:12:31Z</time>
      </trkpt>
      <trkpt lat="45.01705" lon="5.73134">
        <ele>1303.8</ele>
        <time>2021-05-29T07:12:32Z</time>
      </trkpt>
      <trkpt lat="45.01704" lon="5.73135">
        <ele>1304.2</ele>
        <time>2021-05-29T07:12:33Z</time>
      </trkpt>
      <trkpt lat="45.01703" lon="5.73135">
        <ele>1304.6</ele>
        <time>2021-05-29T07:12:34Z</time>
      </trkpt>
      <trkpt lat="45.01702" lon="5.73135">
        <ele>1304.8</ele>
        <time>2021-05-29T07:12:35Z</time>
      </trkpt>
      <trkpt lat="45.01702" lon="5.73136">
        <ele>1305</ele>
        <time>2021-05-29T07:12:36Z</time>
      </trkpt>
      <trkpt lat="45.01701" lon="5.73136">
        <ele>1305.4</ele>
        <time>2021-05-29T07:12:37Z</time>
      </trkpt>
      <trkpt lat="45.017" lon="5.73136">
        <ele>1305.8</ele>
        <time>2021-05-29T07:12:38Z</time>
      </trkpt>
      <trkpt lat="45.017" lon="5.73137">
        <ele>1306.2</ele>
        <time>2021-05-29T07:12:39Z</time>
      </trkpt>
      <trkpt lat="45.01699" lon="5.73137">
        <ele>1306.2</ele>
        <time>2021-05-29T07:12:40Z</time>
      </trkpt>
      <trkpt lat="45.01698" lon="5.73138">
        <ele>1306.6</ele>
        <time>2021-05-29T07:12:41Z</time>
      </trkpt>
      <trkpt lat="45.01697" lon="5.73139">
        <ele>1307</ele>
        <time>2021-05-29T07:12:42Z</time>
      </trkpt>
      <trkpt lat="45.01697" lon="5.7314">
        <ele>1307</ele>
        <time>2021-05-29T07:12:43Z</time>
      </trkpt>
      <trkpt lat="45.01696" lon="5.73141">
        <ele>1307.4</ele>
        <time>2021-05-29T07:12:44Z</time>
      </trkpt>
      <trkpt lat="45.01695" lon="5.73142">
        <ele>1307.8</ele>
        <time>2021-05-29T07:12:45Z</time>
      </trkpt>
      <trkpt lat="45.01694" lon="5.73143">
        <ele>1308</ele>
        <time>2021-05-29T07:12:46Z</time>
      </trkpt>
      <trkpt lat="45.01693" lon="5.73144">
        <ele>1308.2</ele>
        <time>2021-05-29T07:12:47Z</time>
      </trkpt>
      <trkpt lat="45.01693" lon="5.73145">
        <ele>1308.4</ele>
        <time>2021-05-29T07:12:48Z</time>
      </trkpt>
      <trkpt lat="45.01692" lon="5.73146">
        <ele>1308.8</ele>
        <time>2021-05-29T07:12:49Z</time>
      </trkpt>
      <trkpt lat="45.01691" lon="5.73147">
        <ele>1309.2</ele>
        <time>2021-05-29T07:12:50Z</time>
      </trkpt>
      <trkpt lat="45.0169" lon="5.73147">
        <ele>1309.6</ele>
        <time>2021-05-29T07:12:51Z</time>
      </trkpt>
      <trkpt lat="45.0169" lon="5.73148">
        <ele>1309.8</ele>
        <time>2021-05-29T07:12:52Z</time>
      </trkpt>
      <trkpt lat="45.01689" lon="5.73149">
        <ele>1310.2</ele>
        <time>2021-05-29T07:12:53Z</time>
      </trkpt>
      <trkpt lat="45.01688" lon="5.7315">
        <ele>1310.4</ele>
        <time>2021-05-29T07:12:54Z</time>
      </trkpt>
      <trkpt lat="45.01688" lon="5.73151">
        <ele>1310.6</ele>
        <time>2021-05-29T07:12:55Z</time>
      </trkpt>
      <trkpt lat="45.01687" lon="5.73151">
        <ele>1310.8</ele>
        <time>2021-05-29T07:12:56Z</time>
      </trkpt>
      <trkpt lat="45.01686" lon="5.73152">
        <ele>1311</ele>
        <time>2021-05-29T07:12:57Z</time>
      </trkpt>
      <trkpt lat="45.01685" lon="5.73153">
        <ele>1311.2</ele>
        <time>2021-05-29T07:12:58Z</time>
      </trkpt>
      <trkpt lat="45.01685" lon="5.73154">
        <ele>1311.4</ele>
        <time>2021-05-29T07:12:59Z</time>
      </trkpt>
      <trkpt lat="45.01684" lon="5.73154">
        <ele>1311.6</ele>
        <time>2021-05-29T07:13:00Z</time>
      </trkpt>
      <trkpt lat="45.01683" lon="5.73155">
        <ele>1311.8</ele>
        <time>2021-05-29T07:13:01Z</time>
      </trkpt>
      <trkpt lat="45.01681" lon="5.73155">
        <ele>1312</ele>
        <time>2021-05-29T07:13:02Z</time>
      </trkpt>
      <trkpt lat="45.0168" lon="5.73156">
        <ele>1312.6</ele>
        <time>2021-05-29T07:13:03Z</time>
      </trkpt>
      <trkpt lat="45.01679" lon="5.73156">
        <ele>1313</ele>
        <time>2021-05-29T07:13:04Z</time>
      </trkpt>
      <trkpt lat="45.01678" lon="5.73156">
        <ele>1313.4</ele>
        <time>2021-05-29T07:13:05Z</time>
      </trkpt>
      <trkpt lat="45.01677" lon="5.73157">
        <ele>1313.6</ele>
        <time>2021-05-29T07:13:06Z</time>
      </trkpt>
      <trkpt lat="45.01676" lon="5.73157">
        <ele>1314</ele>
        <time>2021-05-29T07:13:07Z</time>
      </trkpt>
      <trkpt lat="45.01675" lon="5.73158">
        <ele>1314.2</ele>
        <time>2021-05-29T07:13:08Z</time>
      </trkpt>
      <trkpt lat="45.01674" lon="5.73158">
        <ele>1314.4</ele>
        <time>2021-05-29T07:13:09Z</time>
      </trkpt>
      <trkpt lat="45.01673" lon="5.73159">
        <ele>1314.2</ele>
        <time>2021-05-29T07:13:10Z</time>
      </trkpt>
      <trkpt lat="45.01672" lon="5.7316">
        <ele>1314.2</ele>
        <time>2021-05-29T07:13:11Z</time>
      </trkpt>
      <trkpt lat="45.01671" lon="5.73161">
        <ele>1314</ele>
        <time>2021-05-29T07:13:12Z</time>
      </trkpt>
      <trkpt lat="45.0167" lon="5.73161">
        <ele>1314.2</ele>
        <time>2021-05-29T07:13:13Z</time>
      </trkpt>
      <trkpt lat="45.01669" lon="5.73162">
        <ele>1314.4</ele>
        <time>2021-05-29T07:13:14Z</time>
      </trkpt>
      <trkpt lat="45.01669" lon="5.73163">
        <ele>1314.2</ele>
        <time>2021-05-29T07:13:15Z</time>
      </trkpt>
      <trkpt lat="45.01668" lon="5.73164">
        <ele>1314</ele>
        <time>2021-05-29T07:13:16Z</time>
      </trkpt>
      <trkpt lat="45.01667" lon="5.73164">
        <ele>1313.6</ele>
        <time>2021-05-29T07:13:17Z</time>
      </trkpt>
      <trkpt lat="45.01666" lon="5.73166">
        <ele>1313.2</ele>
        <time>2021-05-29T07:13:18Z</time>
      </trkpt>
      <trkpt lat="45.01664" lon="5.73167">
        <ele>1313.6</ele>
        <time>2021-05-29T07:13:19Z</time>
      </trkpt>
      <trkpt lat="45.01663" lon="5.73169">
        <ele>1313.6</ele>
        <time>2021-05-29T07:13:20Z</time>
      </trkpt>
      <trkpt lat="45.01662" lon="5.7317">
        <ele>1314</ele>
        <time>2021-05-29T07:13:21Z</time>
      </trkpt>
      <trkpt lat="45.01661" lon="5.73172">
        <ele>1314.2</ele>
        <time>2021-05-29T07:13:22Z</time>
      </trkpt>
      <trkpt lat="45.0166" lon="5.73173">
        <ele>1314.6</ele>
        <time>2021-05-29T07:13:23Z</time>
      </trkpt>
      <trkpt lat="45.01658" lon="5.73175">
        <ele>1314.6</ele>
        <time>2021-05-29T07:13:24Z</time>
      </trkpt>
      <trkpt lat="45.01657" lon="5.73176">
        <ele>1314.6</ele>
        <time>2021-05-29T07:13:25Z</time>
      </trkpt>
      <trkpt lat="45.01656" lon="5.73177">
        <ele>1314.4</ele>
        <time>2021-05-29T07:13:26Z</time>
      </trkpt>
      <trkpt lat="45.01654" lon="5.73179">
        <ele>1314.2</ele>
        <time>2021-05-29T07:13:27Z</time>
      </trkpt>
      <trkpt lat="45.01653" lon="5.7318">
        <ele>1314.4</ele>
        <time>2021-05-29T07:13:28Z</time>
      </trkpt>
      <trkpt lat="45.01652" lon="5.73181">
        <ele>1314.2</ele>
        <time>2021-05-29T07:13:29Z</time>
      </trkpt>
      <trkpt lat="45.01651" lon="5.73183">
        <ele>1314.4</ele>
        <time>2021-05-29T07:13:30Z</time>
      </trkpt>
      <trkpt lat="45.01649" lon="5.73185">
        <ele>1314.4</ele>
        <time>2021-05-29T07:13:31Z</time>
      </trkpt>
      <trkpt lat="45.01648" lon="5.73187">
        <ele>1314.4</ele>
        <time>2021-05-29T07:13:32Z</time>
      </trkpt>
      <trkpt lat="45.01647" lon="5.73189">
        <ele>1314.2</ele>
        <time>2021-05-29T07:13:33Z</time>
      </trkpt>
      <trkpt lat="45.01646" lon="5.73191">
        <ele>1314.2</ele>
        <time>2021-05-29T07:13:34Z</time>
      </trkpt>
      <trkpt lat="45.01644" lon="5.73193">
        <ele>1313.8</ele>
        <time>2021-05-29T07:13:35Z</time>
      </trkpt>
      <trkpt lat="45.01643" lon="5.73195">
        <ele>1313.8</ele>
        <time>2021-05-29T07:13:36Z</time>
      </trkpt>
      <trkpt lat="45.01641" lon="5.73197">
        <ele>1313.4</ele>
        <time>2021-05-29T07:13:37Z</time>
      </trkpt>
      <trkpt lat="45.0164" lon="5.73198">
        <ele>1313.2</ele>
        <time>2021-05-29T07:13:38Z</time>
      </trkpt>
      <trkpt lat="45.01638" lon="5.732">
        <ele>1313.4</ele>
        <time>2021-05-29T07:13:39Z</time>
      </trkpt>
      <trkpt lat="45.01637" lon="5.73201">
        <ele>1313.6</ele>
        <time>2021-05-29T07:13:40Z</time>
      </trkpt>
      <trkpt lat="45.01635" lon="5.73201">
        <ele>1314.2</ele>
        <time>2021-05-29T07:13:41Z</time>
      </trkpt>
      <trkpt lat="45.01634" lon="5.73202">
        <ele>1314.6</ele>
        <time>2021-05-29T07:13:42Z</time>
      </trkpt>
      <trkpt lat="45.01632" lon="5.73203">
        <ele>1315.2</ele>
        <time>2021-05-29T07:13:43Z</time>
      </trkpt>
      <trkpt lat="45.0163" lon="5.73203">
        <ele>1315.2</ele>
        <time>2021-05-29T07:13:44Z</time>
      </trkpt>
      <trkpt lat="45.01629" lon="5.73204">
        <ele>1315.6</ele>
        <time>2021-05-29T07:13:45Z</time>
      </trkpt>
      <trkpt lat="45.01628" lon="5.73205">
        <ele>1315.6</ele>
        <time>2021-05-29T07:13:46Z</time>
      </trkpt>
      <trkpt lat="45.01626" lon="5.73205">
        <ele>1315.8</ele>
        <time>2021-05-29T07:13:47Z</time>
      </trkpt>
      <trkpt lat="45.01625" lon="5.73206">
        <ele>1315.8</ele>
        <time>2021-05-29T07:13:48Z</time>
      </trkpt>
      <trkpt lat="45.01624" lon="5.73207">
        <ele>1316.2</ele>
        <time>2021-05-29T07:13:49Z</time>
      </trkpt>
      <trkpt lat="45.01623" lon="5.73207">
        <ele>1316.2</ele>
        <time>2021-05-29T07:13:50Z</time>
      </trkpt>
      <trkpt lat="45.01621" lon="5.73208">
        <ele>1316.6</ele>
        <time>2021-05-29T07:13:51Z</time>
      </trkpt>
      <trkpt lat="45.0162" lon="5.73209">
        <ele>1316.8</ele>
        <time>2021-05-29T07:13:52Z</time>
      </trkpt>
      <trkpt lat="45.01618" lon="5.73212">
        <ele>1317</ele>
        <time>2021-05-29T07:13:53Z</time>
      </trkpt>
      <trkpt lat="45.01616" lon="5.73215">
        <ele>1317</ele>
        <time>2021-05-29T07:13:54Z</time>
      </trkpt>
      <trkpt lat="45.01614" lon="5.73218">
        <ele>1317</ele>
        <time>2021-05-29T07:13:55Z</time>
      </trkpt>
      <trkpt lat="45.01612" lon="5.73221">
        <ele>1317</ele>
        <time>2021-05-29T07:13:56Z</time>
      </trkpt>
      <trkpt lat="45.0161" lon="5.73224">
        <ele>1317</ele>
        <time>2021-05-29T07:13:57Z</time>
      </trkpt>
      <trkpt lat="45.01608" lon="5.73228">
        <ele>1317.4</ele>
        <time>2021-05-29T07:13:58Z</time>
      </trkpt>
      <trkpt lat="45.01602" lon="5.73236">
        <ele>1317.8</ele>
        <time>2021-05-29T07:13:59Z</time>
      </trkpt>
      <trkpt lat="45.016" lon="5.73239">
        <ele>1318.4</ele>
        <time>2021-05-29T07:14:00Z</time>
      </trkpt>
      <trkpt lat="45.01597" lon="5.73244">
        <ele>1319</ele>
        <time>2021-05-29T07:14:01Z</time>
      </trkpt>
      <trkpt lat="45.01597" lon="5.73244">
        <ele>1319.2</ele>
        <time>2021-05-29T07:14:02Z</time>
      </trkpt>
      <trkpt lat="45.01597" lon="5.73244">
        <ele>1319.6</ele>
        <time>2021-05-29T07:14:03Z</time>
      </trkpt>
      <trkpt lat="45.01596" lon="5.73244">
        <ele>1319.8</ele>
        <time>2021-05-29T07:14:04Z</time>
      </trkpt>
      <trkpt lat="45.01596" lon="5.73245">
        <ele>1320.2</ele>
        <time>2021-05-29T07:14:05Z</time>
      </trkpt>
      <trkpt lat="45.01595" lon="5.73246">
        <ele>1320.4</ele>
        <time>2021-05-29T07:14:06Z</time>
      </trkpt>
      <trkpt lat="45.01595" lon="5.73246">
        <ele>1320.4</ele>
        <time>2021-05-29T07:14:07Z</time>
      </trkpt>
      <trkpt lat="45.01594" lon="5.73247">
        <ele>1320.6</ele>
        <time>2021-05-29T07:14:08Z</time>
      </trkpt>
      <trkpt lat="45.01594" lon="5.73247">
        <ele>1320.8</ele>
        <time>2021-05-29T07:14:09Z</time>
      </trkpt>
      <trkpt lat="45.01593" lon="5.73248">
        <ele>1320.8</ele>
        <time>2021-05-29T07:14:10Z</time>
      </trkpt>
      <trkpt lat="45.01593" lon="5.73248">
        <ele>1321</ele>
        <time>2021-05-29T07:14:11Z</time>
      </trkpt>
      <trkpt lat="45.01592" lon="5.73249">
        <ele>1321.2</ele>
        <time>2021-05-29T07:14:12Z</time>
      </trkpt>
      <trkpt lat="45.01592" lon="5.7325">
        <ele>1321.4</ele>
        <time>2021-05-29T07:14:13Z</time>
      </trkpt>
      <trkpt lat="45.01591" lon="5.7325">
        <ele>1321.2</ele>
        <time>2021-05-29T07:14:14Z</time>
      </trkpt>
      <trkpt lat="45.01591" lon="5.73251">
        <ele>1321</ele>
        <time>2021-05-29T07:14:15Z</time>
      </trkpt>
      <trkpt lat="45.0159" lon="5.73251">
        <ele>1320.8</ele>
        <time>2021-05-29T07:14:16Z</time>
      </trkpt>
      <trkpt lat="45.0159" lon="5.73252">
        <ele>1320.8</ele>
        <time>2021-05-29T07:14:17Z</time>
      </trkpt>
      <trkpt lat="45.01589" lon="5.73252">
        <ele>1320.8</ele>
        <time>2021-05-29T07:14:18Z</time>
      </trkpt>
      <trkpt lat="45.01589" lon="5.73253">
        <ele>1321</ele>
        <time>2021-05-29T07:14:19Z</time>
      </trkpt>
      <trkpt lat="45.01589" lon="5.73253">
        <ele>1321</ele>
        <time>2021-05-29T07:14:20Z</time>
      </trkpt>
      <trkpt lat="45.01588" lon="5.73254">
        <ele>1321</ele>
        <time>2021-05-29T07:14:21Z</time>
      </trkpt>
      <trkpt lat="45.01588" lon="5.73254">
        <ele>1321</ele>
        <time>2021-05-29T07:14:22Z</time>
      </trkpt>
      <trkpt lat="45.01588" lon="5.73255">
        <ele>1320.8</ele>
        <time>2021-05-29T07:14:23Z</time>
      </trkpt>
      <trkpt lat="45.01587" lon="5.73255">
        <ele>1320.8</ele>
        <time>2021-05-29T07:14:24Z</time>
      </trkpt>
      <trkpt lat="45.01587" lon="5.73256">
        <ele>1320.8</ele>
        <time>2021-05-29T07:14:25Z</time>
      </trkpt>
      <trkpt lat="45.01587" lon="5.73256">
        <ele>1320.8</ele>
        <time>2021-05-29T07:14:26Z</time>
      </trkpt>
      <trkpt lat="45.01586" lon="5.73257">
        <ele>1320.6</ele>
        <time>2021-05-29T07:14:27Z</time>
      </trkpt>
      <trkpt lat="45.01586" lon="5.73257">
        <ele>1320.6</ele>
        <time>2021-05-29T07:14:28Z</time>
      </trkpt>
      <trkpt lat="45.01585" lon="5.73258">
        <ele>1320.6</ele>
        <time>2021-05-29T07:14:29Z</time>
      </trkpt>
      <trkpt lat="45.01585" lon="5.73258">
        <ele>1320.8</ele>
        <time>2021-05-29T07:14:30Z</time>
      </trkpt>
      <trkpt lat="45.01585" lon="5.73259">
        <ele>1320.8</ele>
        <time>2021-05-29T07:14:31Z</time>
      </trkpt>
      <trkpt lat="45.01584" lon="5.73259">
        <ele>1321</ele>
        <time>2021-05-29T07:14:32Z</time>
      </trkpt>
      <trkpt lat="45.01584" lon="5.7326">
        <ele>1321</ele>
        <time>2021-05-29T07:14:33Z</time>
      </trkpt>
      <trkpt lat="45.01584" lon="5.7326">
        <ele>1321</ele>
        <time>2021-05-29T07:14:34Z</time>
      </trkpt>
      <trkpt lat="45.01583" lon="5.73261">
        <ele>1321.2</ele>
        <time>2021-05-29T07:14:35Z</time>
      </trkpt>
      <trkpt lat="45.01583" lon="5.73261">
        <ele>1321.2</ele>
        <time>2021-05-29T07:14:36Z</time>
      </trkpt>
      <trkpt lat="45.01583" lon="5.73262">
        <ele>1321.2</ele>
        <time>2021-05-29T07:14:37Z</time>
      </trkpt>
      <trkpt lat="45.01582" lon="5.73262">
        <ele>1321.4</ele>
        <time>2021-05-29T07:14:38Z</time>
      </trkpt>
      <trkpt lat="45.01581" lon="5.73261">
        <ele>1321.6</ele>
        <time>2021-05-29T07:14:39Z</time>
      </trkpt>
      <trkpt lat="45.0158" lon="5.73261">
        <ele>1321.6</ele>
        <time>2021-05-29T07:14:40Z</time>
      </trkpt>
      <trkpt lat="45.01579" lon="5.7326">
        <ele>1321.8</ele>
        <time>2021-05-29T07:14:41Z</time>
      </trkpt>
      <trkpt lat="45.01578" lon="5.73259">
        <ele>1321.8</ele>
        <time>2021-05-29T07:14:42Z</time>
      </trkpt>
      <trkpt lat="45.01577" lon="5.73258">
        <ele>1321.8</ele>
        <time>2021-05-29T07:14:43Z</time>
      </trkpt>
      <trkpt lat="45.01575" lon="5.73258">
        <ele>1321.8</ele>
        <time>2021-05-29T07:14:44Z</time>
      </trkpt>
      <trkpt lat="45.01574" lon="5.73257">
        <ele>1321.8</ele>
        <time>2021-05-29T07:14:45Z</time>
      </trkpt>
      <trkpt lat="45.01573" lon="5.73256">
        <ele>1322</ele>
        <time>2021-05-29T07:14:46Z</time>
      </trkpt>
      <trkpt lat="45.01572" lon="5.73255">
        <ele>1321.8</ele>
        <time>2021-05-29T07:14:47Z</time>
      </trkpt>
      <trkpt lat="45.01572" lon="5.73254">
        <ele>1321.8</ele>
        <time>2021-05-29T07:14:48Z</time>
      </trkpt>
      <trkpt lat="45.01571" lon="5.73254">
        <ele>1321.8</ele>
        <time>2021-05-29T07:14:49Z</time>
      </trkpt>
      <trkpt lat="45.01571" lon="5.73253">
        <ele>1321.8</ele>
        <time>2021-05-29T07:14:50Z</time>
      </trkpt>
      <trkpt lat="45.0157" lon="5.73252">
        <ele>1321.8</ele>
        <time>2021-05-29T07:14:51Z</time>
      </trkpt>
      <trkpt lat="45.01569" lon="5.73251">
        <ele>1321.8</ele>
        <time>2021-05-29T07:14:52Z</time>
      </trkpt>
      <trkpt lat="45.01569" lon="5.7325">
        <ele>1321.8</ele>
        <time>2021-05-29T07:14:53Z</time>
      </trkpt>
      <trkpt lat="45.01568" lon="5.73249">
        <ele>1321.8</ele>
        <time>2021-05-29T07:14:54Z</time>
      </trkpt>
      <trkpt lat="45.01568" lon="5.73248">
        <ele>1321.8</ele>
        <time>2021-05-29T07:14:55Z</time>
      </trkpt>
      <trkpt lat="45.01567" lon="5.73247">
        <ele>1321.8</ele>
        <time>2021-05-29T07:14:56Z</time>
      </trkpt>
      <trkpt lat="45.01567" lon="5.73247">
        <ele>1322</ele>
        <time>2021-05-29T07:14:57Z</time>
      </trkpt>
      <trkpt lat="45.01566" lon="5.73246">
        <ele>1321.8</ele>
        <time>2021-05-29T07:14:58Z</time>
      </trkpt>
      <trkpt lat="45.01566" lon="5.73246">
        <ele>1321.8</ele>
        <time>2021-05-29T07:14:59Z</time>
      </trkpt>
      <trkpt lat="45.01566" lon="5.73246">
        <ele>1321.8</ele>
        <time>2021-05-29T07:15:00Z</time>
      </trkpt>
      <trkpt lat="45.01566" lon="5.73246">
        <ele>1321.8</ele>
        <time>2021-05-29T07:15:01Z</time>
      </trkpt>
      <trkpt lat="45.01566" lon="5.73245">
        <ele>1322</ele>
        <time>2021-05-29T07:15:02Z</time>
      </trkpt>
      <trkpt lat="45.01566" lon="5.73245">
        <ele>1321.8</ele>
        <time>2021-05-29T07:15:03Z</time>
      </trkpt>
      <trkpt lat="45.01566" lon="5.73245">
        <ele>1322</ele>
        <time>2021-05-29T07:15:04Z</time>
      </trkpt>
      <trkpt lat="45.01566" lon="5.73245">
        <ele>1321.8</ele>
        <time>2021-05-29T07:15:05Z</time>
      </trkpt>
      <trkpt lat="45.01565" lon="5.73244">
        <ele>1321.8</ele>
        <time>2021-05-29T07:15:06Z</time>
      </trkpt>
      <trkpt lat="45.01565" lon="5.73244">
        <ele>1321.8</ele>
        <time>2021-05-29T07:15:07Z</time>
      </trkpt>
      <trkpt lat="45.01565" lon="5.73244">
        <ele>1321.8</ele>
        <time>2021-05-29T07:15:08Z</time>
      </trkpt>
      <trkpt lat="45.01565" lon="5.73244">
        <ele>1321.8</ele>
        <time>2021-05-29T07:15:09Z</time>
      </trkpt>
      <trkpt lat="45.01565" lon="5.73244">
        <ele>1321.6</ele>
        <time>2021-05-29T07:15:10Z</time>
      </trkpt>
      <trkpt lat="45.01565" lon="5.73243">
        <ele>1321.6</ele>
        <time>2021-05-29T07:15:11Z</time>
      </trkpt>
      <trkpt lat="45.01565" lon="5.73243">
        <ele>1321.8</ele>
        <time>2021-05-29T07:15:12Z</time>
      </trkpt>
      <trkpt lat="45.01565" lon="5.73243">
        <ele>1321.8</ele>
        <time>2021-05-29T07:15:13Z</time>
      </trkpt>
      <trkpt lat="45.01565" lon="5.73243">
        <ele>1321.8</ele>
        <time>2021-05-29T07:15:14Z</time>
      </trkpt>
      <trkpt lat="45.01564" lon="5.73242">
        <ele>1321.8</ele>
        <time>2021-05-29T07:15:15Z</time>
      </trkpt>
      <trkpt lat="45.01564" lon="5.73242">
        <ele>1321.8</ele>
        <time>2021-05-29T07:15:16Z</time>
      </trkpt>
      <trkpt lat="45.01564" lon="5.73242">
        <ele>1322</ele>
        <time>2021-05-29T07:15:17Z</time>
      </trkpt>
      <trkpt lat="45.01564" lon="5.73242">
        <ele>1321.8</ele>
        <time>2021-05-29T07:15:18Z</time>
      </trkpt>
      <trkpt lat="45.01564" lon="5.73241">
        <ele>1321.8</ele>
        <time>2021-05-29T07:15:19Z</time>
      </trkpt>
      <trkpt lat="45.01564" lon="5.73241">
        <ele>1321.8</ele>
        <time>2021-05-29T07:15:20Z</time>
      </trkpt>
      <trkpt lat="45.01564" lon="5.73241">
        <ele>1321.8</ele>
        <time>2021-05-29T07:15:21Z</time>
      </trkpt>
      <trkpt lat="45.01564" lon="5.73241">
        <ele>1321.8</ele>
        <time>2021-05-29T07:15:22Z</time>
      </trkpt>
      <trkpt lat="45.01563" lon="5.73241">
        <ele>1321.6</ele>
        <time>2021-05-29T07:15:23Z</time>
      </trkpt>
      <trkpt lat="45.01563" lon="5.7324">
        <ele>1321.8</ele>
        <time>2021-05-29T07:15:24Z</time>
      </trkpt>
      <trkpt lat="45.01563" lon="5.7324">
        <ele>1321.6</ele>
        <time>2021-05-29T07:15:25Z</time>
      </trkpt>
      <trkpt lat="45.01563" lon="5.7324">
        <ele>1321.6</ele>
        <time>2021-05-29T07:15:26Z</time>
      </trkpt>
      <trkpt lat="45.01563" lon="5.7324">
        <ele>1321.6</ele>
        <time>2021-05-29T07:15:27Z</time>
      </trkpt>
      <trkpt lat="45.01563" lon="5.73239">
        <ele>1321.6</ele>
        <time>2021-05-29T07:15:28Z</time>
      </trkpt>
      <trkpt lat="45.01563" lon="5.73239">
        <ele>1321.8</ele>
        <time>2021-05-29T07:15:29Z</time>
      </trkpt>
      <trkpt lat="45.01563" lon="5.73239">
        <ele>1321.8</ele>
        <time>2021-05-29T07:15:30Z</time>
      </trkpt>
      <trkpt lat="45.01563" lon="5.73239">
        <ele>1321.6</ele>
        <time>2021-05-29T07:15:31Z</time>
      </trkpt>
      <trkpt lat="45.01562" lon="5.73238">
        <ele>1321.8</ele>
        <time>2021-05-29T07:15:32Z</time>
      </trkpt>
      <trkpt lat="45.01562" lon="5.73238">
        <ele>1321.8</ele>
        <time>2021-05-29T07:15:33Z</time>
      </trkpt>
      <trkpt lat="45.01562" lon="5.73238">
        <ele>1321.6</ele>
        <time>2021-05-29T07:15:34Z</time>
      </trkpt>
      <trkpt lat="45.01562" lon="5.73238">
        <ele>1321.6</ele>
        <time>2021-05-29T07:15:35Z</time>
      </trkpt>
      <trkpt lat="45.01562" lon="5.73238">
        <ele>1321.6</ele>
        <time>2021-05-29T07:15:36Z</time>
      </trkpt>
      <trkpt lat="45.01562" lon="5.73237">
        <ele>1321.6</ele>
        <time>2021-05-29T07:15:37Z</time>
      </trkpt>
      <trkpt lat="45.01562" lon="5.73237">
        <ele>1321.6</ele>
        <time>2021-05-29T07:15:38Z</time>
      </trkpt>
      <trkpt lat="45.01562" lon="5.73237">
        <ele>1321.6</ele>
        <time>2021-05-29T07:15:39Z</time>
      </trkpt>
      <trkpt lat="45.01561" lon="5.73237">
        <ele>1321.4</ele>
        <time>2021-05-29T07:15:40Z</time>
      </trkpt>
      <trkpt lat="45.01561" lon="5.73236">
        <ele>1321.6</ele>
        <time>2021-05-29T07:15:41Z</time>
      </trkpt>
      <trkpt lat="45.01561" lon="5.73236">
        <ele>1321.6</ele>
        <time>2021-05-29T07:15:42Z</time>
      </trkpt>
      <trkpt lat="45.01562" lon="5.73236">
        <ele>1321.6</ele>
        <time>2021-05-29T07:15:43Z</time>
      </trkpt>
      <trkpt lat="45.01562" lon="5.73236">
        <ele>1321.6</ele>
        <time>2021-05-29T07:15:44Z</time>
      </trkpt>
      <trkpt lat="45.01563" lon="5.73236">
        <ele>1321.6</ele>
        <time>2021-05-29T07:15:45Z</time>
      </trkpt>
      <trkpt lat="45.01563" lon="5.73236">
        <ele>1321.4</ele>
        <time>2021-05-29T07:15:46Z</time>
      </trkpt>
      <trkpt lat="45.01564" lon="5.73236">
        <ele>1321.6</ele>
        <time>2021-05-29T07:15:47Z</time>
      </trkpt>
      <trkpt lat="45.01564" lon="5.73237">
        <ele>1321.8</ele>
        <time>2021-05-29T07:15:48Z</time>
      </trkpt>
      <trkpt lat="45.01565" lon="5.73237">
        <ele>1321.8</ele>
        <time>2021-05-29T07:15:49Z</time>
      </trkpt>
      <trkpt lat="45.01565" lon="5.73237">
        <ele>1321.8</ele>
        <time>2021-05-29T07:15:50Z</time>
      </trkpt>
      <trkpt lat="45.01566" lon="5.73237">
        <ele>1321.8</ele>
        <time>2021-05-29T07:15:51Z</time>
      </trkpt>
      <trkpt lat="45.01566" lon="5.73237">
        <ele>1321.6</ele>
        <time>2021-05-29T07:15:52Z</time>
      </trkpt>
      <trkpt lat="45.01567" lon="5.73237">
        <ele>1321.8</ele>
        <time>2021-05-29T07:15:53Z</time>
      </trkpt>
      <trkpt lat="45.01567" lon="5.73237">
        <ele>1321.8</ele>
        <time>2021-05-29T07:15:54Z</time>
      </trkpt>
      <trkpt lat="45.01568" lon="5.73237">
        <ele>1321.6</ele>
        <time>2021-05-29T07:15:55Z</time>
      </trkpt>
      <trkpt lat="45.01568" lon="5.73237">
        <ele>1321.6</ele>
        <time>2021-05-29T07:15:56Z</time>
      </trkpt>
      <trkpt lat="45.01569" lon="5.73237">
        <ele>1321.8</ele>
        <time>2021-05-29T07:15:57Z</time>
      </trkpt>
      <trkpt lat="45.01569" lon="5.73237">
        <ele>1321.8</ele>
        <time>2021-05-29T07:15:58Z</time>
      </trkpt>
      <trkpt lat="45.0157" lon="5.73237">
        <ele>1322</ele>
        <time>2021-05-29T07:15:59Z</time>
      </trkpt>
      <trkpt lat="45.0157" lon="5.73237">
        <ele>1322</ele>
        <time>2021-05-29T07:16:00Z</time>
      </trkpt>
      <trkpt lat="45.01571" lon="5.73237">
        <ele>1322</ele>
        <time>2021-05-29T07:16:01Z</time>
      </trkpt>
      <trkpt lat="45.0157" lon="5.73238">
        <ele>1322</ele>
        <time>2021-05-29T07:16:02Z</time>
      </trkpt>
      <trkpt lat="45.0157" lon="5.73238">
        <ele>1322</ele>
        <time>2021-05-29T07:16:03Z</time>
      </trkpt>
      <trkpt lat="45.0157" lon="5.73238">
        <ele>1322.2</ele>
        <time>2021-05-29T07:16:04Z</time>
      </trkpt>
      <trkpt lat="45.01569" lon="5.73238">
        <ele>1322.2</ele>
        <time>2021-05-29T07:16:05Z</time>
      </trkpt>
      <trkpt lat="45.01569" lon="5.73239">
        <ele>1322.2</ele>
        <time>2021-05-29T07:16:06Z</time>
      </trkpt>
      <trkpt lat="45.01569" lon="5.73239">
        <ele>1322.4</ele>
        <time>2021-05-29T07:16:07Z</time>
      </trkpt>
      <trkpt lat="45.01568" lon="5.73239">
        <ele>1322.4</ele>
        <time>2021-05-29T07:16:08Z</time>
      </trkpt>
      <trkpt lat="45.01568" lon="5.73239">
        <ele>1322.4</ele>
        <time>2021-05-29T07:16:09Z</time>
      </trkpt>
      <trkpt lat="45.01568" lon="5.7324">
        <ele>1322.4</ele>
        <time>2021-05-29T07:16:10Z</time>
      </trkpt>
      <trkpt lat="45.01567" lon="5.7324">
        <ele>1322.6</ele>
        <time>2021-05-29T07:16:11Z</time>
      </trkpt>
      <trkpt lat="45.01567" lon="5.7324">
        <ele>1322.8</ele>
        <time>2021-05-29T07:16:12Z</time>
      </trkpt>
      <trkpt lat="45.01567" lon="5.7324">
        <ele>1322.8</ele>
        <time>2021-05-29T07:16:13Z</time>
      </trkpt>
      <trkpt lat="45.01566" lon="5.7324">
        <ele>1322.8</ele>
        <time>2021-05-29T07:16:14Z</time>
      </trkpt>
      <trkpt lat="45.01566" lon="5.73241">
        <ele>1322.6</ele>
        <time>2021-05-29T07:16:15Z</time>
      </trkpt>
      <trkpt lat="45.01566" lon="5.73241">
        <ele>1322.4</ele>
        <time>2021-05-29T07:16:16Z</time>
      </trkpt>
      <trkpt lat="45.01565" lon="5.73241">
        <ele>1322.4</ele>
        <time>2021-05-29T07:16:17Z</time>
      </trkpt>
      <trkpt lat="45.01565" lon="5.73241">
        <ele>1322.4</ele>
        <time>2021-05-29T07:16:18Z</time>
      </trkpt>
      <trkpt lat="45.01565" lon="5.73242">
        <ele>1322.6</ele>
        <time>2021-05-29T07:16:19Z</time>
      </trkpt>
      <trkpt lat="45.01564" lon="5.73242">
        <ele>1322.6</ele>
        <time>2021-05-29T07:16:20Z</time>
      </trkpt>
      <trkpt lat="45.01564" lon="5.73242">
        <ele>1322.4</ele>
        <time>2021-05-29T07:16:21Z</time>
      </trkpt>
      <trkpt lat="45.01564" lon="5.73242">
        <ele>1322.6</ele>
        <time>2021-05-29T07:16:22Z</time>
      </trkpt>
      <trkpt lat="45.01563" lon="5.73242">
        <ele>1322.4</ele>
        <time>2021-05-29T07:16:23Z</time>
      </trkpt>
      <trkpt lat="45.01563" lon="5.73243">
        <ele>1322.6</ele>
        <time>2021-05-29T07:16:24Z</time>
      </trkpt>
      <trkpt lat="45.01563" lon="5.73243">
        <ele>1322.8</ele>
        <time>2021-05-29T07:16:25Z</time>
      </trkpt>
      <trkpt lat="45.01562" lon="5.73243">
        <ele>1323</ele>
        <time>2021-05-29T07:16:26Z</time>
      </trkpt>
      <trkpt lat="45.01561" lon="5.73244">
        <ele>1322.8</ele>
        <time>2021-05-29T07:16:27Z</time>
      </trkpt>
      <trkpt lat="45.0156" lon="5.73245">
        <ele>1323</ele>
        <time>2021-05-29T07:16:28Z</time>
      </trkpt>
      <trkpt lat="45.01559" lon="5.73245">
        <ele>1323.2</ele>
        <time>2021-05-29T07:16:29Z</time>
      </trkpt>
      <trkpt lat="45.01558" lon="5.73246">
        <ele>1323.4</ele>
        <time>2021-05-29T07:16:30Z</time>
      </trkpt>
      <trkpt lat="45.01557" lon="5.73247">
        <ele>1323.6</ele>
        <time>2021-05-29T07:16:31Z</time>
      </trkpt>
      <trkpt lat="45.01557" lon="5.73247">
        <ele>1324</ele>
        <time>2021-05-29T07:16:32Z</time>
      </trkpt>
      <trkpt lat="45.01556" lon="5.73248">
        <ele>1324.2</ele>
        <time>2021-05-29T07:16:33Z</time>
      </trkpt>
      <trkpt lat="45.01555" lon="5.73249">
        <ele>1324.6</ele>
        <time>2021-05-29T07:16:34Z</time>
      </trkpt>
      <trkpt lat="45.01554" lon="5.7325">
        <ele>1325</ele>
        <time>2021-05-29T07:16:35Z</time>
      </trkpt>
      <trkpt lat="45.01553" lon="5.73251">
        <ele>1325.2</ele>
        <time>2021-05-29T07:16:36Z</time>
      </trkpt>
      <trkpt lat="45.01551" lon="5.73252">
        <ele>1325.4</ele>
        <time>2021-05-29T07:16:37Z</time>
      </trkpt>
      <trkpt lat="45.0155" lon="5.73253">
        <ele>1325.4</ele>
        <time>2021-05-29T07:16:38Z</time>
      </trkpt>
      <trkpt lat="45.01549" lon="5.73254">
        <ele>1325.4</ele>
        <time>2021-05-29T07:16:39Z</time>
      </trkpt>
      <trkpt lat="45.01548" lon="5.73255">
        <ele>1325.6</ele>
        <time>2021-05-29T07:16:40Z</time>
      </trkpt>
      <trkpt lat="45.01547" lon="5.73255">
        <ele>1325.8</ele>
        <time>2021-05-29T07:16:41Z</time>
      </trkpt>
      <trkpt lat="45.01546" lon="5.73256">
        <ele>1325.8</ele>
        <time>2021-05-29T07:16:42Z</time>
      </trkpt>
      <trkpt lat="45.01544" lon="5.73257">
        <ele>1326.2</ele>
        <time>2021-05-29T07:16:43Z</time>
      </trkpt>
      <trkpt lat="45.01543" lon="5.73258">
        <ele>1326.4</ele>
        <time>2021-05-29T07:16:44Z</time>
      </trkpt>
      <trkpt lat="45.01541" lon="5.73259">
        <ele>1326.6</ele>
        <time>2021-05-29T07:16:45Z</time>
      </trkpt>
      <trkpt lat="45.01539" lon="5.7326">
        <ele>1327</ele>
        <time>2021-05-29T07:16:46Z</time>
      </trkpt>
      <trkpt lat="45.01538" lon="5.73261">
        <ele>1327.4</ele>
        <time>2021-05-29T07:16:47Z</time>
      </trkpt>
      <trkpt lat="45.01536" lon="5.73262">
        <ele>1327.8</ele>
        <time>2021-05-29T07:16:48Z</time>
      </trkpt>
      <trkpt lat="45.01535" lon="5.73264">
        <ele>1328.2</ele>
        <time>2021-05-29T07:16:49Z</time>
      </trkpt>
      <trkpt lat="45.01534" lon="5.73265">
        <ele>1328.4</ele>
        <time>2021-05-29T07:16:50Z</time>
      </trkpt>
      <trkpt lat="45.01532" lon="5.73266">
        <ele>1328.6</ele>
        <time>2021-05-29T07:16:51Z</time>
      </trkpt>
      <trkpt lat="45.01531" lon="5.73268">
        <ele>1328.8</ele>
        <time>2021-05-29T07:16:52Z</time>
      </trkpt>
      <trkpt lat="45.0153" lon="5.73269">
        <ele>1328.6</ele>
        <time>2021-05-29T07:16:53Z</time>
      </trkpt>
      <trkpt lat="45.01529" lon="5.7327">
        <ele>1328.4</ele>
        <time>2021-05-29T07:16:54Z</time>
      </trkpt>
      <trkpt lat="45.01528" lon="5.73272">
        <ele>1328.4</ele>
        <time>2021-05-29T07:16:55Z</time>
      </trkpt>
      <trkpt lat="45.01527" lon="5.73272">
        <ele>1328.4</ele>
        <time>2021-05-29T07:16:56Z</time>
      </trkpt>
      <trkpt lat="45.01526" lon="5.73272">
        <ele>1328.6</ele>
        <time>2021-05-29T07:16:57Z</time>
      </trkpt>
      <trkpt lat="45.01525" lon="5.73272">
        <ele>1328.8</ele>
        <time>2021-05-29T07:16:58Z</time>
      </trkpt>
      <trkpt lat="45.01524" lon="5.73273">
        <ele>1328.8</ele>
        <time>2021-05-29T07:16:59Z</time>
      </trkpt>
      <trkpt lat="45.01523" lon="5.73273">
        <ele>1329</ele>
        <time>2021-05-29T07:17:00Z</time>
      </trkpt>
      <trkpt lat="45.01522" lon="5.73273">
        <ele>1329.2</ele>
        <time>2021-05-29T07:17:01Z</time>
      </trkpt>
      <trkpt lat="45.01521" lon="5.73274">
        <ele>1329.2</ele>
        <time>2021-05-29T07:17:02Z</time>
      </trkpt>
      <trkpt lat="45.0152" lon="5.73274">
        <ele>1329.4</ele>
        <time>2021-05-29T07:17:03Z</time>
      </trkpt>
      <trkpt lat="45.01519" lon="5.73274">
        <ele>1329.6</ele>
        <time>2021-05-29T07:17:04Z</time>
      </trkpt>
      <trkpt lat="45.01518" lon="5.73275">
        <ele>1330</ele>
        <time>2021-05-29T07:17:05Z</time>
      </trkpt>
      <trkpt lat="45.01517" lon="5.73276">
        <ele>1330</ele>
        <time>2021-05-29T07:17:06Z</time>
      </trkpt>
      <trkpt lat="45.01516" lon="5.73277">
        <ele>1330.4</ele>
        <time>2021-05-29T07:17:07Z</time>
      </trkpt>
      <trkpt lat="45.01515" lon="5.73278">
        <ele>1330.6</ele>
        <time>2021-05-29T07:17:08Z</time>
      </trkpt>
      <trkpt lat="45.01514" lon="5.73279">
        <ele>1330.6</ele>
        <time>2021-05-29T07:17:09Z</time>
      </trkpt>
      <trkpt lat="45.01514" lon="5.7328">
        <ele>1330.8</ele>
        <time>2021-05-29T07:17:10Z</time>
      </trkpt>
      <trkpt lat="45.01513" lon="5.73281">
        <ele>1330.8</ele>
        <time>2021-05-29T07:17:11Z</time>
      </trkpt>
      <trkpt lat="45.01512" lon="5.73282">
        <ele>1331.2</ele>
        <time>2021-05-29T07:17:12Z</time>
      </trkpt>
      <trkpt lat="45.01511" lon="5.73283">
        <ele>1331.2</ele>
        <time>2021-05-29T07:17:13Z</time>
      </trkpt>
      <trkpt lat="45.0151" lon="5.73283">
        <ele>1331.6</ele>
        <time>2021-05-29T07:17:14Z</time>
      </trkpt>
      <trkpt lat="45.01509" lon="5.73284">
        <ele>1331.6</ele>
        <time>2021-05-29T07:17:15Z</time>
      </trkpt>
      <trkpt lat="45.01509" lon="5.73284">
        <ele>1332</ele>
        <time>2021-05-29T07:17:16Z</time>
      </trkpt>
      <trkpt lat="45.01508" lon="5.73284">
        <ele>1332.2</ele>
        <time>2021-05-29T07:17:17Z</time>
      </trkpt>
      <trkpt lat="45.01507" lon="5.73285">
        <ele>1332.4</ele>
        <time>2021-05-29T07:17:18Z</time>
      </trkpt>
      <trkpt lat="45.01507" lon="5.73285">
        <ele>1332.8</ele>
        <time>2021-05-29T07:17:19Z</time>
      </trkpt>
      <trkpt lat="45.01506" lon="5.73286">
        <ele>1333</ele>
        <time>2021-05-29T07:17:20Z</time>
      </trkpt>
      <trkpt lat="45.01505" lon="5.73286">
        <ele>1333.2</ele>
        <time>2021-05-29T07:17:21Z</time>
      </trkpt>
      <trkpt lat="45.01505" lon="5.73287">
        <ele>1333.2</ele>
        <time>2021-05-29T07:17:22Z</time>
      </trkpt>
      <trkpt lat="45.01504" lon="5.73287">
        <ele>1333.4</ele>
        <time>2021-05-29T07:17:23Z</time>
      </trkpt>
      <trkpt lat="45.01503" lon="5.73288">
        <ele>1333.6</ele>
        <time>2021-05-29T07:17:24Z</time>
      </trkpt>
      <trkpt lat="45.01503" lon="5.73288">
        <ele>1333.8</ele>
        <time>2021-05-29T07:17:25Z</time>
      </trkpt>
      <trkpt lat="45.01502" lon="5.7329">
        <ele>1334.2</ele>
        <time>2021-05-29T07:17:26Z</time>
      </trkpt>
      <trkpt lat="45.01501" lon="5.73291">
        <ele>1334.2</ele>
        <time>2021-05-29T07:17:27Z</time>
      </trkpt>
      <trkpt lat="45.015" lon="5.73292">
        <ele>1334.4</ele>
        <time>2021-05-29T07:17:28Z</time>
      </trkpt>
      <trkpt lat="45.01499" lon="5.73293">
        <ele>1334.6</ele>
        <time>2021-05-29T07:17:29Z</time>
      </trkpt>
      <trkpt lat="45.01498" lon="5.73295">
        <ele>1334.8</ele>
        <time>2021-05-29T07:17:30Z</time>
      </trkpt>
      <trkpt lat="45.01497" lon="5.73296">
        <ele>1335</ele>
        <time>2021-05-29T07:17:31Z</time>
      </trkpt>
      <trkpt lat="45.01497" lon="5.73297">
        <ele>1335.2</ele>
        <time>2021-05-29T07:17:32Z</time>
      </trkpt>
      <trkpt lat="45.01496" lon="5.73298">
        <ele>1335.6</ele>
        <time>2021-05-29T07:17:33Z</time>
      </trkpt>
      <trkpt lat="45.01495" lon="5.73299">
        <ele>1335.8</ele>
        <time>2021-05-29T07:17:34Z</time>
      </trkpt>
      <trkpt lat="45.01494" lon="5.733">
        <ele>1336</ele>
        <time>2021-05-29T07:17:35Z</time>
      </trkpt>
      <trkpt lat="45.01494" lon="5.733">
        <ele>1336.2</ele>
        <time>2021-05-29T07:17:36Z</time>
      </trkpt>
      <trkpt lat="45.01493" lon="5.73301">
        <ele>1336.4</ele>
        <time>2021-05-29T07:17:37Z</time>
      </trkpt>
      <trkpt lat="45.01493" lon="5.73302">
        <ele>1336.4</ele>
        <time>2021-05-29T07:17:38Z</time>
      </trkpt>
      <trkpt lat="45.01492" lon="5.73302">
        <ele>1336.8</ele>
        <time>2021-05-29T07:17:39Z</time>
      </trkpt>
      <trkpt lat="45.01491" lon="5.73303">
        <ele>1337</ele>
        <time>2021-05-29T07:17:40Z</time>
      </trkpt>
      <trkpt lat="45.01491" lon="5.73304">
        <ele>1337</ele>
        <time>2021-05-29T07:17:41Z</time>
      </trkpt>
      <trkpt lat="45.0149" lon="5.73304">
        <ele>1337.2</ele>
        <time>2021-05-29T07:17:42Z</time>
      </trkpt>
      <trkpt lat="45.01489" lon="5.73305">
        <ele>1337.4</ele>
        <time>2021-05-29T07:17:43Z</time>
      </trkpt>
      <trkpt lat="45.01489" lon="5.73306">
        <ele>1337.8</ele>
        <time>2021-05-29T07:17:44Z</time>
      </trkpt>
      <trkpt lat="45.01488" lon="5.73306">
        <ele>1338.2</ele>
        <time>2021-05-29T07:17:45Z</time>
      </trkpt>
      <trkpt lat="45.01487" lon="5.73306">
        <ele>1338.6</ele>
        <time>2021-05-29T07:17:46Z</time>
      </trkpt>
      <trkpt lat="45.01486" lon="5.73307">
        <ele>1338.8</ele>
        <time>2021-05-29T07:17:47Z</time>
      </trkpt>
      <trkpt lat="45.01485" lon="5.73307">
        <ele>1339</ele>
        <time>2021-05-29T07:17:48Z</time>
      </trkpt>
      <trkpt lat="45.01484" lon="5.73307">
        <ele>1339.2</ele>
        <time>2021-05-29T07:17:49Z</time>
      </trkpt>
      <trkpt lat="45.01483" lon="5.73307">
        <ele>1339.4</ele>
        <time>2021-05-29T07:17:50Z</time>
      </trkpt>
      <trkpt lat="45.01482" lon="5.73307">
        <ele>1339.4</ele>
        <time>2021-05-29T07:17:51Z</time>
      </trkpt>
      <trkpt lat="45.01481" lon="5.73308">
        <ele>1339.6</ele>
        <time>2021-05-29T07:17:52Z</time>
      </trkpt>
      <trkpt lat="45.0148" lon="5.73308">
        <ele>1339.6</ele>
        <time>2021-05-29T07:17:53Z</time>
      </trkpt>
      <trkpt lat="45.01479" lon="5.73308">
        <ele>1339.6</ele>
        <time>2021-05-29T07:17:54Z</time>
      </trkpt>
      <trkpt lat="45.01479" lon="5.73308">
        <ele>1340.2</ele>
        <time>2021-05-29T07:17:55Z</time>
      </trkpt>
      <trkpt lat="45.01478" lon="5.73308">
        <ele>1340.4</ele>
        <time>2021-05-29T07:17:56Z</time>
      </trkpt>
      <trkpt lat="45.01476" lon="5.73309">
        <ele>1340.8</ele>
        <time>2021-05-29T07:17:57Z</time>
      </trkpt>
      <trkpt lat="45.01475" lon="5.7331">
        <ele>1340.8</ele>
        <time>2021-05-29T07:17:58Z</time>
      </trkpt>
      <trkpt lat="45.01474" lon="5.7331">
        <ele>1341</ele>
        <time>2021-05-29T07:17:59Z</time>
      </trkpt>
      <trkpt lat="45.01472" lon="5.73311">
        <ele>1341.2</ele>
        <time>2021-05-29T07:18:00Z</time>
      </trkpt>
      <trkpt lat="45.01471" lon="5.73312">
        <ele>1341.6</ele>
        <time>2021-05-29T07:18:01Z</time>
      </trkpt>
      <trkpt lat="45.01468" lon="5.73313">
        <ele>1342</ele>
        <time>2021-05-29T07:18:02Z</time>
      </trkpt>
      <trkpt lat="45.01468" lon="5.73314">
        <ele>1342.2</ele>
        <time>2021-05-29T07:18:03Z</time>
      </trkpt>
      <trkpt lat="45.01467" lon="5.73315">
        <ele>1342.4</ele>
        <time>2021-05-29T07:18:04Z</time>
      </trkpt>
      <trkpt lat="45.01466" lon="5.73315">
        <ele>1342.4</ele>
        <time>2021-05-29T07:18:05Z</time>
      </trkpt>
      <trkpt lat="45.01465" lon="5.73316">
        <ele>1343</ele>
        <time>2021-05-29T07:18:06Z</time>
      </trkpt>
      <trkpt lat="45.01464" lon="5.73317">
        <ele>1343.2</ele>
        <time>2021-05-29T07:18:07Z</time>
      </trkpt>
      <trkpt lat="45.01463" lon="5.73318">
        <ele>1343.6</ele>
        <time>2021-05-29T07:18:08Z</time>
      </trkpt>
      <trkpt lat="45.01462" lon="5.73318">
        <ele>1344</ele>
        <time>2021-05-29T07:18:09Z</time>
      </trkpt>
      <trkpt lat="45.01461" lon="5.73319">
        <ele>1344.2</ele>
        <time>2021-05-29T07:18:10Z</time>
      </trkpt>
      <trkpt lat="45.0146" lon="5.7332">
        <ele>1344.4</ele>
        <time>2021-05-29T07:18:11Z</time>
      </trkpt>
      <trkpt lat="45.01459" lon="5.73321">
        <ele>1344.6</ele>
        <time>2021-05-29T07:18:12Z</time>
      </trkpt>
      <trkpt lat="45.01458" lon="5.73322">
        <ele>1344.8</ele>
        <time>2021-05-29T07:18:13Z</time>
      </trkpt>
      <trkpt lat="45.01457" lon="5.73322">
        <ele>1345.2</ele>
        <time>2021-05-29T07:18:14Z</time>
      </trkpt>
      <trkpt lat="45.01456" lon="5.73323">
        <ele>1345.4</ele>
        <time>2021-05-29T07:18:15Z</time>
      </trkpt>
      <trkpt lat="45.01455" lon="5.73324">
        <ele>1345.8</ele>
        <time>2021-05-29T07:18:16Z</time>
      </trkpt>
      <trkpt lat="45.01454" lon="5.73325">
        <ele>1346</ele>
        <time>2021-05-29T07:18:17Z</time>
      </trkpt>
      <trkpt lat="45.01453" lon="5.73325">
        <ele>1346.2</ele>
        <time>2021-05-29T07:18:18Z</time>
      </trkpt>
      <trkpt lat="45.01452" lon="5.73326">
        <ele>1346.4</ele>
        <time>2021-05-29T07:18:19Z</time>
      </trkpt>
      <trkpt lat="45.01451" lon="5.73327">
        <ele>1346.8</ele>
        <time>2021-05-29T07:18:20Z</time>
      </trkpt>
      <trkpt lat="45.0145" lon="5.73328">
        <ele>1346.8</ele>
        <time>2021-05-29T07:18:21Z</time>
      </trkpt>
      <trkpt lat="45.01449" lon="5.73329">
        <ele>1347</ele>
        <time>2021-05-29T07:18:22Z</time>
      </trkpt>
      <trkpt lat="45.01448" lon="5.73329">
        <ele>1347.4</ele>
        <time>2021-05-29T07:18:23Z</time>
      </trkpt>
      <trkpt lat="45.01447" lon="5.7333">
        <ele>1347.6</ele>
        <time>2021-05-29T07:18:24Z</time>
      </trkpt>
      <trkpt lat="45.01447" lon="5.73331">
        <ele>1347.8</ele>
        <time>2021-05-29T07:18:25Z</time>
      </trkpt>
      <trkpt lat="45.01446" lon="5.73332">
        <ele>1347.8</ele>
        <time>2021-05-29T07:18:26Z</time>
      </trkpt>
      <trkpt lat="45.01445" lon="5.73332">
        <ele>1348.2</ele>
        <time>2021-05-29T07:18:27Z</time>
      </trkpt>
      <trkpt lat="45.01444" lon="5.73333">
        <ele>1348.2</ele>
        <time>2021-05-29T07:18:28Z</time>
      </trkpt>
      <trkpt lat="45.01443" lon="5.73334">
        <ele>1348.2</ele>
        <time>2021-05-29T07:18:29Z</time>
      </trkpt>
      <trkpt lat="45.01442" lon="5.73335">
        <ele>1348.4</ele>
        <time>2021-05-29T07:18:30Z</time>
      </trkpt>
      <trkpt lat="45.01441" lon="5.73336">
        <ele>1348.8</ele>
        <time>2021-05-29T07:18:31Z</time>
      </trkpt>
      <trkpt lat="45.0144" lon="5.73336">
        <ele>1349</ele>
        <time>2021-05-29T07:18:32Z</time>
      </trkpt>
      <trkpt lat="45.01439" lon="5.73337">
        <ele>1349.2</ele>
        <time>2021-05-29T07:18:33Z</time>
      </trkpt>
      <trkpt lat="45.01438" lon="5.73338">
        <ele>1349.4</ele>
        <time>2021-05-29T07:18:34Z</time>
      </trkpt>
      <trkpt lat="45.01437" lon="5.73339">
        <ele>1349.8</ele>
        <time>2021-05-29T07:18:35Z</time>
      </trkpt>
      <trkpt lat="45.01436" lon="5.73339">
        <ele>1350.2</ele>
        <time>2021-05-29T07:18:36Z</time>
      </trkpt>
      <trkpt lat="45.01435" lon="5.7334">
        <ele>1350.6</ele>
        <time>2021-05-29T07:18:37Z</time>
      </trkpt>
      <trkpt lat="45.01434" lon="5.73341">
        <ele>1350.6</ele>
        <time>2021-05-29T07:18:38Z</time>
      </trkpt>
      <trkpt lat="45.01433" lon="5.73342">
        <ele>1351</ele>
        <time>2021-05-29T07:18:39Z</time>
      </trkpt>
      <trkpt lat="45.01432" lon="5.73342">
        <ele>1351.2</ele>
        <time>2021-05-29T07:18:40Z</time>
      </trkpt>
      <trkpt lat="45.01431" lon="5.73343">
        <ele>1351.6</ele>
        <time>2021-05-29T07:18:41Z</time>
      </trkpt>
      <trkpt lat="45.0143" lon="5.73344">
        <ele>1351.8</ele>
        <time>2021-05-29T07:18:42Z</time>
      </trkpt>
      <trkpt lat="45.01429" lon="5.73345">
        <ele>1352.2</ele>
        <time>2021-05-29T07:18:43Z</time>
      </trkpt>
      <trkpt lat="45.01428" lon="5.73346">
        <ele>1352.2</ele>
        <time>2021-05-29T07:18:44Z</time>
      </trkpt>
      <trkpt lat="45.01427" lon="5.73346">
        <ele>1352.4</ele>
        <time>2021-05-29T07:18:45Z</time>
      </trkpt>
      <trkpt lat="45.01427" lon="5.73346">
        <ele>1352.8</ele>
        <time>2021-05-29T07:18:46Z</time>
      </trkpt>
      <trkpt lat="45.01427" lon="5.73346">
        <ele>1353</ele>
        <time>2021-05-29T07:18:47Z</time>
      </trkpt>
      <trkpt lat="45.01426" lon="5.73347">
        <ele>1353.4</ele>
        <time>2021-05-29T07:18:48Z</time>
      </trkpt>
      <trkpt lat="45.01425" lon="5.73347">
        <ele>1353.6</ele>
        <time>2021-05-29T07:18:49Z</time>
      </trkpt>
      <trkpt lat="45.01423" lon="5.73347">
        <ele>1353.8</ele>
        <time>2021-05-29T07:18:50Z</time>
      </trkpt>
      <trkpt lat="45.01422" lon="5.73347">
        <ele>1354.2</ele>
        <time>2021-05-29T07:18:51Z</time>
      </trkpt>
      <trkpt lat="45.01421" lon="5.73348">
        <ele>1354.2</ele>
        <time>2021-05-29T07:18:52Z</time>
      </trkpt>
      <trkpt lat="45.01419" lon="5.73348">
        <ele>1354.4</ele>
        <time>2021-05-29T07:18:53Z</time>
      </trkpt>
      <trkpt lat="45.01418" lon="5.73348">
        <ele>1354.6</ele>
        <time>2021-05-29T07:18:54Z</time>
      </trkpt>
      <trkpt lat="45.01417" lon="5.73349">
        <ele>1354.8</ele>
        <time>2021-05-29T07:18:55Z</time>
      </trkpt>
      <trkpt lat="45.01417" lon="5.73349">
        <ele>1355.4</ele>
        <time>2021-05-29T07:18:56Z</time>
      </trkpt>
      <trkpt lat="45.01416" lon="5.73349">
        <ele>1355.6</ele>
        <time>2021-05-29T07:18:57Z</time>
      </trkpt>
      <trkpt lat="45.01416" lon="5.7335">
        <ele>1355.8</ele>
        <time>2021-05-29T07:18:58Z</time>
      </trkpt>
      <trkpt lat="45.01415" lon="5.7335">
        <ele>1355.8</ele>
        <time>2021-05-29T07:18:59Z</time>
      </trkpt>
      <trkpt lat="45.01414" lon="5.73351">
        <ele>1356.2</ele>
        <time>2021-05-29T07:19:00Z</time>
      </trkpt>
      <trkpt lat="45.01414" lon="5.73351">
        <ele>1356.4</ele>
        <time>2021-05-29T07:19:01Z</time>
      </trkpt>
      <trkpt lat="45.01413" lon="5.73352">
        <ele>1356.6</ele>
        <time>2021-05-29T07:19:02Z</time>
      </trkpt>
      <trkpt lat="45.01412" lon="5.73352">
        <ele>1357</ele>
        <time>2021-05-29T07:19:03Z</time>
      </trkpt>
      <trkpt lat="45.01412" lon="5.73353">
        <ele>1357.4</ele>
        <time>2021-05-29T07:19:04Z</time>
      </trkpt>
      <trkpt lat="45.01411" lon="5.73353">
        <ele>1357.4</ele>
        <time>2021-05-29T07:19:05Z</time>
      </trkpt>
      <trkpt lat="45.01411" lon="5.73354">
        <ele>1357.4</ele>
        <time>2021-05-29T07:19:06Z</time>
      </trkpt>
      <trkpt lat="45.0141" lon="5.73354">
        <ele>1357.4</ele>
        <time>2021-05-29T07:19:07Z</time>
      </trkpt>
      <trkpt lat="45.01409" lon="5.73355">
        <ele>1358.2</ele>
        <time>2021-05-29T07:19:08Z</time>
      </trkpt>
      <trkpt lat="45.01408" lon="5.73355">
        <ele>1358.6</ele>
        <time>2021-05-29T07:19:09Z</time>
      </trkpt>
      <trkpt lat="45.01407" lon="5.73356">
        <ele>1358.6</ele>
        <time>2021-05-29T07:19:10Z</time>
      </trkpt>
      <trkpt lat="45.01406" lon="5.73357">
        <ele>1358.8</ele>
        <time>2021-05-29T07:19:11Z</time>
      </trkpt>
      <trkpt lat="45.01405" lon="5.73357">
        <ele>1359</ele>
        <time>2021-05-29T07:19:12Z</time>
      </trkpt>
      <trkpt lat="45.01404" lon="5.73358">
        <ele>1359</ele>
        <time>2021-05-29T07:19:13Z</time>
      </trkpt>
      <trkpt lat="45.01403" lon="5.73359">
        <ele>1359.2</ele>
        <time>2021-05-29T07:19:14Z</time>
      </trkpt>
      <trkpt lat="45.01402" lon="5.73359">
        <ele>1359.4</ele>
        <time>2021-05-29T07:19:15Z</time>
      </trkpt>
      <trkpt lat="45.01401" lon="5.7336">
        <ele>1359.4</ele>
        <time>2021-05-29T07:19:16Z</time>
      </trkpt>
      <trkpt lat="45.014" lon="5.7336">
        <ele>1359.6</ele>
        <time>2021-05-29T07:19:17Z</time>
      </trkpt>
      <trkpt lat="45.01399" lon="5.73361">
        <ele>1359.8</ele>
        <time>2021-05-29T07:19:18Z</time>
      </trkpt>
      <trkpt lat="45.01399" lon="5.73361">
        <ele>1360</ele>
        <time>2021-05-29T07:19:19Z</time>
      </trkpt>
      <trkpt lat="45.01398" lon="5.73361">
        <ele>1360.4</ele>
        <time>2021-05-29T07:19:20Z</time>
      </trkpt>
      <trkpt lat="45.01397" lon="5.73361">
        <ele>1360.8</ele>
        <time>2021-05-29T07:19:21Z</time>
      </trkpt>
      <trkpt lat="45.01397" lon="5.73362">
        <ele>1361</ele>
        <time>2021-05-29T07:19:22Z</time>
      </trkpt>
      <trkpt lat="45.01396" lon="5.73362">
        <ele>1361</ele>
        <time>2021-05-29T07:19:23Z</time>
      </trkpt>
      <trkpt lat="45.01395" lon="5.73362">
        <ele>1361.2</ele>
        <time>2021-05-29T07:19:24Z</time>
      </trkpt>
      <trkpt lat="45.01395" lon="5.73363">
        <ele>1361.4</ele>
        <time>2021-05-29T07:19:25Z</time>
      </trkpt>
      <trkpt lat="45.01394" lon="5.73363">
        <ele>1361.6</ele>
        <time>2021-05-29T07:19:26Z</time>
      </trkpt>
      <trkpt lat="45.01393" lon="5.73363">
        <ele>1361.8</ele>
        <time>2021-05-29T07:19:27Z</time>
      </trkpt>
      <trkpt lat="45.01393" lon="5.73364">
        <ele>1361.8</ele>
        <time>2021-05-29T07:19:28Z</time>
      </trkpt>
      <trkpt lat="45.01392" lon="5.73364">
        <ele>1362.4</ele>
        <time>2021-05-29T07:19:29Z</time>
      </trkpt>
      <trkpt lat="45.01391" lon="5.73364">
        <ele>1362.6</ele>
        <time>2021-05-29T07:19:30Z</time>
      </trkpt>
      <trkpt lat="45.0139" lon="5.73365">
        <ele>1363</ele>
        <time>2021-05-29T07:19:31Z</time>
      </trkpt>
      <trkpt lat="45.01389" lon="5.73365">
        <ele>1363.2</ele>
        <time>2021-05-29T07:19:32Z</time>
      </trkpt>
      <trkpt lat="45.01388" lon="5.73366">
        <ele>1363.4</ele>
        <time>2021-05-29T07:19:33Z</time>
      </trkpt>
      <trkpt lat="45.01387" lon="5.73366">
        <ele>1363.6</ele>
        <time>2021-05-29T07:19:34Z</time>
      </trkpt>
      <trkpt lat="45.01386" lon="5.73367">
        <ele>1364</ele>
        <time>2021-05-29T07:19:35Z</time>
      </trkpt>
      <trkpt lat="45.01385" lon="5.73367">
        <ele>1364.2</ele>
        <time>2021-05-29T07:19:36Z</time>
      </trkpt>
      <trkpt lat="45.01384" lon="5.73368">
        <ele>1364.4</ele>
        <time>2021-05-29T07:19:37Z</time>
      </trkpt>
      <trkpt lat="45.01384" lon="5.73368">
        <ele>1364.6</ele>
        <time>2021-05-29T07:19:38Z</time>
      </trkpt>
      <trkpt lat="45.01383" lon="5.73369">
        <ele>1364.8</ele>
        <time>2021-05-29T07:19:39Z</time>
      </trkpt>
      <trkpt lat="45.01381" lon="5.73369">
        <ele>1365</ele>
        <time>2021-05-29T07:19:40Z</time>
      </trkpt>
      <trkpt lat="45.0138" lon="5.73369">
        <ele>1365</ele>
        <time>2021-05-29T07:19:41Z</time>
      </trkpt>
      <trkpt lat="45.01379" lon="5.73369">
        <ele>1365.4</ele>
        <time>2021-05-29T07:19:42Z</time>
      </trkpt>
      <trkpt lat="45.01378" lon="5.7337">
        <ele>1365.6</ele>
        <time>2021-05-29T07:19:43Z</time>
      </trkpt>
      <trkpt lat="45.01377" lon="5.7337">
        <ele>1365.8</ele>
        <time>2021-05-29T07:19:44Z</time>
      </trkpt>
      <trkpt lat="45.01376" lon="5.7337">
        <ele>1366</ele>
        <time>2021-05-29T07:19:45Z</time>
      </trkpt>
      <trkpt lat="45.01375" lon="5.7337">
        <ele>1366</ele>
        <time>2021-05-29T07:19:46Z</time>
      </trkpt>
      <trkpt lat="45.01374" lon="5.7337">
        <ele>1366.2</ele>
        <time>2021-05-29T07:19:47Z</time>
      </trkpt>
      <trkpt lat="45.01372" lon="5.7337">
        <ele>1366.4</ele>
        <time>2021-05-29T07:19:48Z</time>
      </trkpt>
      <trkpt lat="45.01371" lon="5.73371">
        <ele>1366.6</ele>
        <time>2021-05-29T07:19:49Z</time>
      </trkpt>
      <trkpt lat="45.0137" lon="5.73372">
        <ele>1366.8</ele>
        <time>2021-05-29T07:19:50Z</time>
      </trkpt>
      <trkpt lat="45.01369" lon="5.73372">
        <ele>1367</ele>
        <time>2021-05-29T07:19:51Z</time>
      </trkpt>
      <trkpt lat="45.01368" lon="5.73373">
        <ele>1367.2</ele>
        <time>2021-05-29T07:19:52Z</time>
      </trkpt>
      <trkpt lat="45.01367" lon="5.73373">
        <ele>1367.6</ele>
        <time>2021-05-29T07:19:53Z</time>
      </trkpt>
      <trkpt lat="45.01366" lon="5.73374">
        <ele>1368</ele>
        <time>2021-05-29T07:19:54Z</time>
      </trkpt>
      <trkpt lat="45.01364" lon="5.73375">
        <ele>1368.2</ele>
        <time>2021-05-29T07:19:55Z</time>
      </trkpt>
      <trkpt lat="45.01363" lon="5.73375">
        <ele>1368.4</ele>
        <time>2021-05-29T07:19:56Z</time>
      </trkpt>
      <trkpt lat="45.01363" lon="5.73376">
        <ele>1368.6</ele>
        <time>2021-05-29T07:19:57Z</time>
      </trkpt>
      <trkpt lat="45.01362" lon="5.73377">
        <ele>1368.8</ele>
        <time>2021-05-29T07:19:58Z</time>
      </trkpt>
      <trkpt lat="45.01361" lon="5.73378">
        <ele>1369.2</ele>
        <time>2021-05-29T07:20:00Z</time>
      </trkpt>
      <trkpt lat="45.0136" lon="5.73378">
        <ele>1369.4</ele>
        <time>2021-05-29T07:20:01Z</time>
      </trkpt>
      <trkpt lat="45.0136" lon="5.73379">
        <ele>1370</ele>
        <time>2021-05-29T07:20:02Z</time>
      </trkpt>
      <trkpt lat="45.01359" lon="5.7338">
        <ele>1370.6</ele>
        <time>2021-05-29T07:20:03Z</time>
      </trkpt>
      <trkpt lat="45.01358" lon="5.73381">
        <ele>1371.2</ele>
        <time>2021-05-29T07:20:04Z</time>
      </trkpt>
      <trkpt lat="45.01357" lon="5.73382">
        <ele>1371.6</ele>
        <time>2021-05-29T07:20:05Z</time>
      </trkpt>
      <trkpt lat="45.01357" lon="5.73382">
        <ele>1371.8</ele>
        <time>2021-05-29T07:20:06Z</time>
      </trkpt>
      <trkpt lat="45.01356" lon="5.73383">
        <ele>1372.2</ele>
        <time>2021-05-29T07:20:07Z</time>
      </trkpt>
      <trkpt lat="45.01355" lon="5.73384">
        <ele>1372.2</ele>
        <time>2021-05-29T07:20:08Z</time>
      </trkpt>
      <trkpt lat="45.01355" lon="5.73384">
        <ele>1372.2</ele>
        <time>2021-05-29T07:20:09Z</time>
      </trkpt>
      <trkpt lat="45.01354" lon="5.73385">
        <ele>1372.4</ele>
        <time>2021-05-29T07:20:10Z</time>
      </trkpt>
      <trkpt lat="45.01354" lon="5.73385">
        <ele>1372.4</ele>
        <time>2021-05-29T07:20:11Z</time>
      </trkpt>
      <trkpt lat="45.01353" lon="5.73386">
        <ele>1372.4</ele>
        <time>2021-05-29T07:20:12Z</time>
      </trkpt>
      <trkpt lat="45.01352" lon="5.73386">
        <ele>1372.2</ele>
        <time>2021-05-29T07:20:13Z</time>
      </trkpt>
      <trkpt lat="45.01352" lon="5.73387">
        <ele>1372.4</ele>
        <time>2021-05-29T07:20:14Z</time>
      </trkpt>
      <trkpt lat="45.01351" lon="5.73387">
        <ele>1372.4</ele>
        <time>2021-05-29T07:20:15Z</time>
      </trkpt>
      <trkpt lat="45.01351" lon="5.73388">
        <ele>1372.4</ele>
        <time>2021-05-29T07:20:16Z</time>
      </trkpt>
      <trkpt lat="45.0135" lon="5.73389">
        <ele>1373</ele>
        <time>2021-05-29T07:20:17Z</time>
      </trkpt>
      <trkpt lat="45.01349" lon="5.73389">
        <ele>1373.2</ele>
        <time>2021-05-29T07:20:18Z</time>
      </trkpt>
      <trkpt lat="45.01349" lon="5.7339">
        <ele>1373.4</ele>
        <time>2021-05-29T07:20:19Z</time>
      </trkpt>
      <trkpt lat="45.01348" lon="5.7339">
        <ele>1373.6</ele>
        <time>2021-05-29T07:20:20Z</time>
      </trkpt>
      <trkpt lat="45.01347" lon="5.73391">
        <ele>1374</ele>
        <time>2021-05-29T07:20:21Z</time>
      </trkpt>
      <trkpt lat="45.01346" lon="5.73392">
        <ele>1374.2</ele>
        <time>2021-05-29T07:20:22Z</time>
      </trkpt>
      <trkpt lat="45.01345" lon="5.73393">
        <ele>1374.2</ele>
        <time>2021-05-29T07:20:23Z</time>
      </trkpt>
      <trkpt lat="45.01344" lon="5.73394">
        <ele>1374.4</ele>
        <time>2021-05-29T07:20:24Z</time>
      </trkpt>
      <trkpt lat="45.01343" lon="5.73395">
        <ele>1374.8</ele>
        <time>2021-05-29T07:20:25Z</time>
      </trkpt>
      <trkpt lat="45.01342" lon="5.73397">
        <ele>1375.2</ele>
        <time>2021-05-29T07:20:26Z</time>
      </trkpt>
      <trkpt lat="45.01341" lon="5.73398">
        <ele>1375.2</ele>
        <time>2021-05-29T07:20:27Z</time>
      </trkpt>
      <trkpt lat="45.0134" lon="5.73399">
        <ele>1375.4</ele>
        <time>2021-05-29T07:20:28Z</time>
      </trkpt>
      <trkpt lat="45.01338" lon="5.73399">
        <ele>1375.4</ele>
        <time>2021-05-29T07:20:29Z</time>
      </trkpt>
      <trkpt lat="45.01336" lon="5.734">
        <ele>1375.6</ele>
        <time>2021-05-29T07:20:30Z</time>
      </trkpt>
      <trkpt lat="45.01334" lon="5.73401">
        <ele>1375.8</ele>
        <time>2021-05-29T07:20:31Z</time>
      </trkpt>
      <trkpt lat="45.01333" lon="5.73401">
        <ele>1376</ele>
        <time>2021-05-29T07:20:32Z</time>
      </trkpt>
      <trkpt lat="45.01331" lon="5.73402">
        <ele>1376.2</ele>
        <time>2021-05-29T07:20:33Z</time>
      </trkpt>
      <trkpt lat="45.0133" lon="5.73402">
        <ele>1376.2</ele>
        <time>2021-05-29T07:20:34Z</time>
      </trkpt>
      <trkpt lat="45.01329" lon="5.73402">
        <ele>1376.6</ele>
        <time>2021-05-29T07:20:35Z</time>
      </trkpt>
      <trkpt lat="45.01328" lon="5.73402">
        <ele>1376.8</ele>
        <time>2021-05-29T07:20:36Z</time>
      </trkpt>
      <trkpt lat="45.01327" lon="5.73402">
        <ele>1377.2</ele>
        <time>2021-05-29T07:20:37Z</time>
      </trkpt>
      <trkpt lat="45.01326" lon="5.73402">
        <ele>1377.6</ele>
        <time>2021-05-29T07:20:38Z</time>
      </trkpt>
      <trkpt lat="45.01325" lon="5.73402">
        <ele>1377.8</ele>
        <time>2021-05-29T07:20:39Z</time>
      </trkpt>
      <trkpt lat="45.01324" lon="5.73402">
        <ele>1378</ele>
        <time>2021-05-29T07:20:40Z</time>
      </trkpt>
      <trkpt lat="45.01323" lon="5.73402">
        <ele>1378</ele>
        <time>2021-05-29T07:20:41Z</time>
      </trkpt>
      <trkpt lat="45.01322" lon="5.73402">
        <ele>1378.4</ele>
        <time>2021-05-29T07:20:42Z</time>
      </trkpt>
      <trkpt lat="45.01321" lon="5.73402">
        <ele>1378.8</ele>
        <time>2021-05-29T07:20:43Z</time>
      </trkpt>
      <trkpt lat="45.0132" lon="5.73402">
        <ele>1379</ele>
        <time>2021-05-29T07:20:44Z</time>
      </trkpt>
      <trkpt lat="45.0132" lon="5.73403">
        <ele>1379.4</ele>
        <time>2021-05-29T07:20:45Z</time>
      </trkpt>
      <trkpt lat="45.01319" lon="5.73403">
        <ele>1379.6</ele>
        <time>2021-05-29T07:20:46Z</time>
      </trkpt>
      <trkpt lat="45.01318" lon="5.73404">
        <ele>1379.6</ele>
        <time>2021-05-29T07:20:47Z</time>
      </trkpt>
      <trkpt lat="45.01318" lon="5.73405">
        <ele>1379.6</ele>
        <time>2021-05-29T07:20:48Z</time>
      </trkpt>
      <trkpt lat="45.01317" lon="5.73405">
        <ele>1379.6</ele>
        <time>2021-05-29T07:20:49Z</time>
      </trkpt>
      <trkpt lat="45.01316" lon="5.73406">
        <ele>1379.4</ele>
        <time>2021-05-29T07:20:50Z</time>
      </trkpt>
      <trkpt lat="45.01316" lon="5.73406">
        <ele>1379.6</ele>
        <time>2021-05-29T07:20:51Z</time>
      </trkpt>
      <trkpt lat="45.01315" lon="5.73407">
        <ele>1379.6</ele>
        <time>2021-05-29T07:20:52Z</time>
      </trkpt>
      <trkpt lat="45.01314" lon="5.73407">
        <ele>1379.6</ele>
        <time>2021-05-29T07:20:53Z</time>
      </trkpt>
      <trkpt lat="45.01314" lon="5.73408">
        <ele>1379.8</ele>
        <time>2021-05-29T07:20:54Z</time>
      </trkpt>
      <trkpt lat="45.01313" lon="5.73409">
        <ele>1380</ele>
        <time>2021-05-29T07:20:55Z</time>
      </trkpt>
      <trkpt lat="45.01312" lon="5.73409">
        <ele>1380.2</ele>
        <time>2021-05-29T07:20:56Z</time>
      </trkpt>
      <trkpt lat="45.01311" lon="5.7341">
        <ele>1380.4</ele>
        <time>2021-05-29T07:20:57Z</time>
      </trkpt>
      <trkpt lat="45.0131" lon="5.73411">
        <ele>1380.4</ele>
        <time>2021-05-29T07:20:58Z</time>
      </trkpt>
      <trkpt lat="45.01309" lon="5.73412">
        <ele>1380.6</ele>
        <time>2021-05-29T07:20:59Z</time>
      </trkpt>
      <trkpt lat="45.01308" lon="5.73413">
        <ele>1381</ele>
        <time>2021-05-29T07:21:00Z</time>
      </trkpt>
      <trkpt lat="45.01307" lon="5.73413">
        <ele>1381.2</ele>
        <time>2021-05-29T07:21:01Z</time>
      </trkpt>
      <trkpt lat="45.01306" lon="5.73414">
        <ele>1381.4</ele>
        <time>2021-05-29T07:21:02Z</time>
      </trkpt>
      <trkpt lat="45.01305" lon="5.73415">
        <ele>1381.6</ele>
        <time>2021-05-29T07:21:03Z</time>
      </trkpt>
      <trkpt lat="45.01304" lon="5.73416">
        <ele>1381.6</ele>
        <time>2021-05-29T07:21:04Z</time>
      </trkpt>
      <trkpt lat="45.01303" lon="5.73416">
        <ele>1381.8</ele>
        <time>2021-05-29T07:21:05Z</time>
      </trkpt>
      <trkpt lat="45.01301" lon="5.73417">
        <ele>1382.2</ele>
        <time>2021-05-29T07:21:06Z</time>
      </trkpt>
      <trkpt lat="45.013" lon="5.73417">
        <ele>1382.4</ele>
        <time>2021-05-29T07:21:07Z</time>
      </trkpt>
      <trkpt lat="45.01299" lon="5.73418">
        <ele>1382.8</ele>
        <time>2021-05-29T07:21:08Z</time>
      </trkpt>
      <trkpt lat="45.01297" lon="5.73418">
        <ele>1383</ele>
        <time>2021-05-29T07:21:09Z</time>
      </trkpt>
      <trkpt lat="45.01296" lon="5.73419">
        <ele>1383.2</ele>
        <time>2021-05-29T07:21:10Z</time>
      </trkpt>
      <trkpt lat="45.01294" lon="5.73419">
        <ele>1383.6</ele>
        <time>2021-05-29T07:21:11Z</time>
      </trkpt>
      <trkpt lat="45.01294" lon="5.7342">
        <ele>1383.8</ele>
        <time>2021-05-29T07:21:12Z</time>
      </trkpt>
      <trkpt lat="45.01293" lon="5.7342">
        <ele>1384.2</ele>
        <time>2021-05-29T07:21:13Z</time>
      </trkpt>
      <trkpt lat="45.01293" lon="5.73421">
        <ele>1384.4</ele>
        <time>2021-05-29T07:21:14Z</time>
      </trkpt>
      <trkpt lat="45.01292" lon="5.73422">
        <ele>1384.6</ele>
        <time>2021-05-29T07:21:15Z</time>
      </trkpt>
      <trkpt lat="45.01292" lon="5.73422">
        <ele>1384.8</ele>
        <time>2021-05-29T07:21:16Z</time>
      </trkpt>
      <trkpt lat="45.01291" lon="5.73423">
        <ele>1385</ele>
        <time>2021-05-29T07:21:17Z</time>
      </trkpt>
      <trkpt lat="45.01291" lon="5.73423">
        <ele>1385</ele>
        <time>2021-05-29T07:21:18Z</time>
      </trkpt>
      <trkpt lat="45.0129" lon="5.73424">
        <ele>1385.2</ele>
        <time>2021-05-29T07:21:19Z</time>
      </trkpt>
      <trkpt lat="45.01289" lon="5.73424">
        <ele>1385.6</ele>
        <time>2021-05-29T07:21:20Z</time>
      </trkpt>
      <trkpt lat="45.01289" lon="5.73425">
        <ele>1385.6</ele>
        <time>2021-05-29T07:21:21Z</time>
      </trkpt>
      <trkpt lat="45.01288" lon="5.73426">
        <ele>1386</ele>
        <time>2021-05-29T07:21:22Z</time>
      </trkpt>
      <trkpt lat="45.01288" lon="5.73426">
        <ele>1386</ele>
        <time>2021-05-29T07:21:23Z</time>
      </trkpt>
      <trkpt lat="45.01287" lon="5.73427">
        <ele>1386.2</ele>
        <time>2021-05-29T07:21:24Z</time>
      </trkpt>
      <trkpt lat="45.01286" lon="5.73427">
        <ele>1386.6</ele>
        <time>2021-05-29T07:21:25Z</time>
      </trkpt>
      <trkpt lat="45.01285" lon="5.73427">
        <ele>1386.8</ele>
        <time>2021-05-29T07:21:26Z</time>
      </trkpt>
      <trkpt lat="45.01284" lon="5.73427">
        <ele>1387.2</ele>
        <time>2021-05-29T07:21:27Z</time>
      </trkpt>
      <trkpt lat="45.01283" lon="5.73427">
        <ele>1387.8</ele>
        <time>2021-05-29T07:21:28Z</time>
      </trkpt>
      <trkpt lat="45.01283" lon="5.73428">
        <ele>1388</ele>
        <time>2021-05-29T07:21:29Z</time>
      </trkpt>
      <trkpt lat="45.01282" lon="5.73428">
        <ele>1388.4</ele>
        <time>2021-05-29T07:21:30Z</time>
      </trkpt>
      <trkpt lat="45.01281" lon="5.73428">
        <ele>1388.6</ele>
        <time>2021-05-29T07:21:31Z</time>
      </trkpt>
      <trkpt lat="45.0128" lon="5.73428">
        <ele>1388.8</ele>
        <time>2021-05-29T07:21:32Z</time>
      </trkpt>
      <trkpt lat="45.01279" lon="5.73428">
        <ele>1389</ele>
        <time>2021-05-29T07:21:33Z</time>
      </trkpt>
      <trkpt lat="45.01278" lon="5.73428">
        <ele>1389.2</ele>
        <time>2021-05-29T07:21:34Z</time>
      </trkpt>
      <trkpt lat="45.01277" lon="5.73429">
        <ele>1389.6</ele>
        <time>2021-05-29T07:21:35Z</time>
      </trkpt>
      <trkpt lat="45.01276" lon="5.73429">
        <ele>1390</ele>
        <time>2021-05-29T07:21:36Z</time>
      </trkpt>
      <trkpt lat="45.01275" lon="5.73429">
        <ele>1390.2</ele>
        <time>2021-05-29T07:21:37Z</time>
      </trkpt>
      <trkpt lat="45.01275" lon="5.7343">
        <ele>1390.4</ele>
        <time>2021-05-29T07:21:38Z</time>
      </trkpt>
      <trkpt lat="45.01274" lon="5.7343">
        <ele>1390.4</ele>
        <time>2021-05-29T07:21:39Z</time>
      </trkpt>
      <trkpt lat="45.01273" lon="5.7343">
        <ele>1390.6</ele>
        <time>2021-05-29T07:21:40Z</time>
      </trkpt>
      <trkpt lat="45.01272" lon="5.73431">
        <ele>1390.6</ele>
        <time>2021-05-29T07:21:41Z</time>
      </trkpt>
      <trkpt lat="45.01271" lon="5.73431">
        <ele>1391</ele>
        <time>2021-05-29T07:21:42Z</time>
      </trkpt>
      <trkpt lat="45.01271" lon="5.73431">
        <ele>1391.4</ele>
        <time>2021-05-29T07:21:43Z</time>
      </trkpt>
      <trkpt lat="45.0127" lon="5.73432">
        <ele>1391.6</ele>
        <time>2021-05-29T07:21:44Z</time>
      </trkpt>
      <trkpt lat="45.01269" lon="5.73432">
        <ele>1392</ele>
        <time>2021-05-29T07:21:45Z</time>
      </trkpt>
      <trkpt lat="45.01268" lon="5.73432">
        <ele>1392.2</ele>
        <time>2021-05-29T07:21:46Z</time>
      </trkpt>
      <trkpt lat="45.01267" lon="5.73432">
        <ele>1392.4</ele>
        <time>2021-05-29T07:21:47Z</time>
      </trkpt>
      <trkpt lat="45.01265" lon="5.73432">
        <ele>1392.4</ele>
        <time>2021-05-29T07:21:48Z</time>
      </trkpt>
      <trkpt lat="45.01264" lon="5.73431">
        <ele>1392.8</ele>
        <time>2021-05-29T07:21:49Z</time>
      </trkpt>
      <trkpt lat="45.01262" lon="5.73431">
        <ele>1393.2</ele>
        <time>2021-05-29T07:21:50Z</time>
      </trkpt>
      <trkpt lat="45.01261" lon="5.73431">
        <ele>1393.4</ele>
        <time>2021-05-29T07:21:51Z</time>
      </trkpt>
      <trkpt lat="45.0126" lon="5.73431">
        <ele>1393.6</ele>
        <time>2021-05-29T07:21:52Z</time>
      </trkpt>
      <trkpt lat="45.01258" lon="5.7343">
        <ele>1393.8</ele>
        <time>2021-05-29T07:21:53Z</time>
      </trkpt>
      <trkpt lat="45.01257" lon="5.7343">
        <ele>1394.2</ele>
        <time>2021-05-29T07:21:54Z</time>
      </trkpt>
      <trkpt lat="45.01256" lon="5.7343">
        <ele>1394.2</ele>
        <time>2021-05-29T07:21:55Z</time>
      </trkpt>
      <trkpt lat="45.01254" lon="5.73429">
        <ele>1394.6</ele>
        <time>2021-05-29T07:21:56Z</time>
      </trkpt>
      <trkpt lat="45.01253" lon="5.73429">
        <ele>1394.8</ele>
        <time>2021-05-29T07:21:57Z</time>
      </trkpt>
      <trkpt lat="45.01252" lon="5.73429">
        <ele>1395</ele>
        <time>2021-05-29T07:21:58Z</time>
      </trkpt>
      <trkpt lat="45.01251" lon="5.73428">
        <ele>1395.2</ele>
        <time>2021-05-29T07:21:59Z</time>
      </trkpt>
      <trkpt lat="45.01249" lon="5.73428">
        <ele>1395.4</ele>
        <time>2021-05-29T07:22:00Z</time>
      </trkpt>
      <trkpt lat="45.01248" lon="5.73428">
        <ele>1395.6</ele>
        <time>2021-05-29T07:22:01Z</time>
      </trkpt>
      <trkpt lat="45.01247" lon="5.73428">
        <ele>1396</ele>
        <time>2021-05-29T07:22:02Z</time>
      </trkpt>
      <trkpt lat="45.01246" lon="5.73428">
        <ele>1396.2</ele>
        <time>2021-05-29T07:22:03Z</time>
      </trkpt>
      <trkpt lat="45.01245" lon="5.73428">
        <ele>1396.4</ele>
        <time>2021-05-29T07:22:04Z</time>
      </trkpt>
      <trkpt lat="45.01244" lon="5.73428">
        <ele>1396.6</ele>
        <time>2021-05-29T07:22:05Z</time>
      </trkpt>
      <trkpt lat="45.01243" lon="5.73428">
        <ele>1397</ele>
        <time>2021-05-29T07:22:06Z</time>
      </trkpt>
      <trkpt lat="45.01242" lon="5.73428">
        <ele>1397.2</ele>
        <time>2021-05-29T07:22:07Z</time>
      </trkpt>
      <trkpt lat="45.01241" lon="5.73428">
        <ele>1397.6</ele>
        <time>2021-05-29T07:22:08Z</time>
      </trkpt>
      <trkpt lat="45.0124" lon="5.73428">
        <ele>1397.8</ele>
        <time>2021-05-29T07:22:09Z</time>
      </trkpt>
      <trkpt lat="45.0124" lon="5.73428">
        <ele>1398</ele>
        <time>2021-05-29T07:22:10Z</time>
      </trkpt>
      <trkpt lat="45.01239" lon="5.73428">
        <ele>1398.4</ele>
        <time>2021-05-29T07:22:11Z</time>
      </trkpt>
      <trkpt lat="45.01238" lon="5.73428">
        <ele>1398.6</ele>
        <time>2021-05-29T07:22:12Z</time>
      </trkpt>
      <trkpt lat="45.01238" lon="5.73428">
        <ele>1399</ele>
        <time>2021-05-29T07:22:13Z</time>
      </trkpt>
      <trkpt lat="45.01237" lon="5.73428">
        <ele>1399</ele>
        <time>2021-05-29T07:22:14Z</time>
      </trkpt>
      <trkpt lat="45.01237" lon="5.73428">
        <ele>1399.6</ele>
        <time>2021-05-29T07:22:15Z</time>
      </trkpt>
      <trkpt lat="45.01236" lon="5.73428">
        <ele>1400</ele>
        <time>2021-05-29T07:22:16Z</time>
      </trkpt>
      <trkpt lat="45.01235" lon="5.73428">
        <ele>1400.2</ele>
        <time>2021-05-29T07:22:17Z</time>
      </trkpt>
      <trkpt lat="45.01235" lon="5.73428">
        <ele>1400.6</ele>
        <time>2021-05-29T07:22:18Z</time>
      </trkpt>
      <trkpt lat="45.01234" lon="5.73428">
        <ele>1400.8</ele>
        <time>2021-05-29T07:22:19Z</time>
      </trkpt>
      <trkpt lat="45.01234" lon="5.73428">
        <ele>1400.8</ele>
        <time>2021-05-29T07:22:20Z</time>
      </trkpt>
      <trkpt lat="45.01233" lon="5.73428">
        <ele>1401.2</ele>
        <time>2021-05-29T07:22:21Z</time>
      </trkpt>
      <trkpt lat="45.01233" lon="5.73428">
        <ele>1401.4</ele>
        <time>2021-05-29T07:22:22Z</time>
      </trkpt>
      <trkpt lat="45.01232" lon="5.73428">
        <ele>1401.6</ele>
        <time>2021-05-29T07:22:23Z</time>
      </trkpt>
      <trkpt lat="45.01231" lon="5.73428">
        <ele>1401.6</ele>
        <time>2021-05-29T07:22:24Z</time>
      </trkpt>
      <trkpt lat="45.01231" lon="5.73428">
        <ele>1401.8</ele>
        <time>2021-05-29T07:22:25Z</time>
      </trkpt>
      <trkpt lat="45.0123" lon="5.73428">
        <ele>1402.2</ele>
        <time>2021-05-29T07:22:26Z</time>
      </trkpt>
      <trkpt lat="45.01228" lon="5.73428">
        <ele>1402.4</ele>
        <time>2021-05-29T07:22:27Z</time>
      </trkpt>
      <trkpt lat="45.01227" lon="5.73428">
        <ele>1402.6</ele>
        <time>2021-05-29T07:22:28Z</time>
      </trkpt>
      <trkpt lat="45.01226" lon="5.73427">
        <ele>1403</ele>
        <time>2021-05-29T07:22:29Z</time>
      </trkpt>
      <trkpt lat="45.01225" lon="5.73427">
        <ele>1403.2</ele>
        <time>2021-05-29T07:22:30Z</time>
      </trkpt>
      <trkpt lat="45.01223" lon="5.73427">
        <ele>1403.6</ele>
        <time>2021-05-29T07:22:31Z</time>
      </trkpt>
      <trkpt lat="45.01222" lon="5.73427">
        <ele>1403.6</ele>
        <time>2021-05-29T07:22:32Z</time>
      </trkpt>
      <trkpt lat="45.01221" lon="5.73427">
        <ele>1404</ele>
        <time>2021-05-29T07:22:33Z</time>
      </trkpt>
      <trkpt lat="45.0122" lon="5.73427">
        <ele>1404.2</ele>
        <time>2021-05-29T07:22:34Z</time>
      </trkpt>
      <trkpt lat="45.01219" lon="5.73428">
        <ele>1404.6</ele>
        <time>2021-05-29T07:22:35Z</time>
      </trkpt>
      <trkpt lat="45.01219" lon="5.73428">
        <ele>1405</ele>
        <time>2021-05-29T07:22:36Z</time>
      </trkpt>
      <trkpt lat="45.01218" lon="5.73428">
        <ele>1405.4</ele>
        <time>2021-05-29T07:22:37Z</time>
      </trkpt>
      <trkpt lat="45.01217" lon="5.73429">
        <ele>1405.8</ele>
        <time>2021-05-29T07:22:38Z</time>
      </trkpt>
      <trkpt lat="45.01216" lon="5.73429">
        <ele>1406.2</ele>
        <time>2021-05-29T07:22:39Z</time>
      </trkpt>
      <trkpt lat="45.01215" lon="5.73429">
        <ele>1406.4</ele>
        <time>2021-05-29T07:22:40Z</time>
      </trkpt>
      <trkpt lat="45.01215" lon="5.7343">
        <ele>1406.6</ele>
        <time>2021-05-29T07:22:41Z</time>
      </trkpt>
      <trkpt lat="45.01214" lon="5.7343">
        <ele>1406.8</ele>
        <time>2021-05-29T07:22:42Z</time>
      </trkpt>
      <trkpt lat="45.01213" lon="5.73431">
        <ele>1407</ele>
        <time>2021-05-29T07:22:43Z</time>
      </trkpt>
      <trkpt lat="45.01212" lon="5.73431">
        <ele>1407.2</ele>
        <time>2021-05-29T07:22:44Z</time>
      </trkpt>
      <trkpt lat="45.01211" lon="5.73431">
        <ele>1407.6</ele>
        <time>2021-05-29T07:22:45Z</time>
      </trkpt>
      <trkpt lat="45.0121" lon="5.73432">
        <ele>1408</ele>
        <time>2021-05-29T07:22:46Z</time>
      </trkpt>
      <trkpt lat="45.01208" lon="5.73432">
        <ele>1408.2</ele>
        <time>2021-05-29T07:22:47Z</time>
      </trkpt>
      <trkpt lat="45.01207" lon="5.73433">
        <ele>1408.4</ele>
        <time>2021-05-29T07:22:48Z</time>
      </trkpt>
      <trkpt lat="45.01205" lon="5.73433">
        <ele>1408.4</ele>
        <time>2021-05-29T07:22:49Z</time>
      </trkpt>
      <trkpt lat="45.01204" lon="5.73434">
        <ele>1408.6</ele>
        <time>2021-05-29T07:22:50Z</time>
      </trkpt>
      <trkpt lat="45.01202" lon="5.73434">
        <ele>1408.6</ele>
        <time>2021-05-29T07:22:51Z</time>
      </trkpt>
      <trkpt lat="45.01201" lon="5.73434">
        <ele>1408.8</ele>
        <time>2021-05-29T07:22:52Z</time>
      </trkpt>
      <trkpt lat="45.012" lon="5.73435">
        <ele>1409</ele>
        <time>2021-05-29T07:22:53Z</time>
      </trkpt>
      <trkpt lat="45.01198" lon="5.73435">
        <ele>1409</ele>
        <time>2021-05-29T07:22:54Z</time>
      </trkpt>
      <trkpt lat="45.01197" lon="5.73435">
        <ele>1409.4</ele>
        <time>2021-05-29T07:22:55Z</time>
      </trkpt>
      <trkpt lat="45.01195" lon="5.73435">
        <ele>1409.6</ele>
        <time>2021-05-29T07:22:56Z</time>
      </trkpt>
      <trkpt lat="45.01194" lon="5.73435">
        <ele>1409.6</ele>
        <time>2021-05-29T07:22:57Z</time>
      </trkpt>
      <trkpt lat="45.01193" lon="5.73435">
        <ele>1409.6</ele>
        <time>2021-05-29T07:22:58Z</time>
      </trkpt>
      <trkpt lat="45.01191" lon="5.73435">
        <ele>1409.8</ele>
        <time>2021-05-29T07:22:59Z</time>
      </trkpt>
      <trkpt lat="45.0119" lon="5.73436">
        <ele>1410</ele>
        <time>2021-05-29T07:23:00Z</time>
      </trkpt>
      <trkpt lat="45.01188" lon="5.73436">
        <ele>1410.2</ele>
        <time>2021-05-29T07:23:01Z</time>
      </trkpt>
      <trkpt lat="45.01187" lon="5.73436">
        <ele>1410.4</ele>
        <time>2021-05-29T07:23:02Z</time>
      </trkpt>
      <trkpt lat="45.01186" lon="5.73436">
        <ele>1410.6</ele>
        <time>2021-05-29T07:23:03Z</time>
      </trkpt>
      <trkpt lat="45.01184" lon="5.73437">
        <ele>1410.6</ele>
        <time>2021-05-29T07:23:04Z</time>
      </trkpt>
      <trkpt lat="45.01183" lon="5.73437">
        <ele>1410.8</ele>
        <time>2021-05-29T07:23:05Z</time>
      </trkpt>
      <trkpt lat="45.01181" lon="5.73437">
        <ele>1410.8</ele>
        <time>2021-05-29T07:23:06Z</time>
      </trkpt>
      <trkpt lat="45.0118" lon="5.73437">
        <ele>1411</ele>
        <time>2021-05-29T07:23:07Z</time>
      </trkpt>
      <trkpt lat="45.01179" lon="5.73437">
        <ele>1411</ele>
        <time>2021-05-29T07:23:08Z</time>
      </trkpt>
      <trkpt lat="45.01178" lon="5.73438">
        <ele>1411.2</ele>
        <time>2021-05-29T07:23:09Z</time>
      </trkpt>
      <trkpt lat="45.01176" lon="5.73438">
        <ele>1411.2</ele>
        <time>2021-05-29T07:23:10Z</time>
      </trkpt>
      <trkpt lat="45.01175" lon="5.73438">
        <ele>1411.4</ele>
        <time>2021-05-29T07:23:11Z</time>
      </trkpt>
      <trkpt lat="45.01174" lon="5.73438">
        <ele>1411.6</ele>
        <time>2021-05-29T07:23:12Z</time>
      </trkpt>
      <trkpt lat="45.01173" lon="5.73438">
        <ele>1412</ele>
        <time>2021-05-29T07:23:13Z</time>
      </trkpt>
      <trkpt lat="45.01171" lon="5.73438">
        <ele>1412.4</ele>
        <time>2021-05-29T07:23:14Z</time>
      </trkpt>
      <trkpt lat="45.01169" lon="5.73438">
        <ele>1412.6</ele>
        <time>2021-05-29T07:23:15Z</time>
      </trkpt>
      <trkpt lat="45.01167" lon="5.73438">
        <ele>1412.8</ele>
        <time>2021-05-29T07:23:16Z</time>
      </trkpt>
      <trkpt lat="45.01164" lon="5.73438">
        <ele>1412.8</ele>
        <time>2021-05-29T07:23:17Z</time>
      </trkpt>
      <trkpt lat="45.01162" lon="5.73438">
        <ele>1412.8</ele>
        <time>2021-05-29T07:23:18Z</time>
      </trkpt>
      <trkpt lat="45.01161" lon="5.73438">
        <ele>1412.8</ele>
        <time>2021-05-29T07:23:19Z</time>
      </trkpt>
      <trkpt lat="45.0116" lon="5.73439">
        <ele>1413</ele>
        <time>2021-05-29T07:23:20Z</time>
      </trkpt>
      <trkpt lat="45.01159" lon="5.73439">
        <ele>1413.2</ele>
        <time>2021-05-29T07:23:21Z</time>
      </trkpt>
      <trkpt lat="45.01158" lon="5.73439">
        <ele>1413.2</ele>
        <time>2021-05-29T07:23:22Z</time>
      </trkpt>
      <trkpt lat="45.01157" lon="5.73439">
        <ele>1413.6</ele>
        <time>2021-05-29T07:23:23Z</time>
      </trkpt>
      <trkpt lat="45.01156" lon="5.7344">
        <ele>1414</ele>
        <time>2021-05-29T07:23:24Z</time>
      </trkpt>
      <trkpt lat="45.01155" lon="5.7344">
        <ele>1414.2</ele>
        <time>2021-05-29T07:23:25Z</time>
      </trkpt>
      <trkpt lat="45.01154" lon="5.7344">
        <ele>1414.6</ele>
        <time>2021-05-29T07:23:26Z</time>
      </trkpt>
      <trkpt lat="45.01152" lon="5.73441">
        <ele>1414.8</ele>
        <time>2021-05-29T07:23:27Z</time>
      </trkpt>
      <trkpt lat="45.01151" lon="5.73442">
        <ele>1415</ele>
        <time>2021-05-29T07:23:28Z</time>
      </trkpt>
      <trkpt lat="45.0115" lon="5.73443">
        <ele>1415.2</ele>
        <time>2021-05-29T07:23:29Z</time>
      </trkpt>
      <trkpt lat="45.01149" lon="5.73443">
        <ele>1415.4</ele>
        <time>2021-05-29T07:23:30Z</time>
      </trkpt>
      <trkpt lat="45.01148" lon="5.73444">
        <ele>1415.6</ele>
        <time>2021-05-29T07:23:31Z</time>
      </trkpt>
      <trkpt lat="45.01146" lon="5.73445">
        <ele>1415.6</ele>
        <time>2021-05-29T07:23:32Z</time>
      </trkpt>
      <trkpt lat="45.01145" lon="5.73446">
        <ele>1416</ele>
        <time>2021-05-29T07:23:33Z</time>
      </trkpt>
      <trkpt lat="45.01144" lon="5.73447">
        <ele>1416</ele>
        <time>2021-05-29T07:23:34Z</time>
      </trkpt>
      <trkpt lat="45.01143" lon="5.73448">
        <ele>1416.2</ele>
        <time>2021-05-29T07:23:35Z</time>
      </trkpt>
      <trkpt lat="45.01142" lon="5.73449">
        <ele>1416.4</ele>
        <time>2021-05-29T07:23:36Z</time>
      </trkpt>
      <trkpt lat="45.01141" lon="5.73451">
        <ele>1416.6</ele>
        <time>2021-05-29T07:23:37Z</time>
      </trkpt>
      <trkpt lat="45.0114" lon="5.73452">
        <ele>1416.6</ele>
        <time>2021-05-29T07:23:38Z</time>
      </trkpt>
      <trkpt lat="45.01139" lon="5.73453">
        <ele>1417</ele>
        <time>2021-05-29T07:23:39Z</time>
      </trkpt>
      <trkpt lat="45.01138" lon="5.73454">
        <ele>1417.2</ele>
        <time>2021-05-29T07:23:40Z</time>
      </trkpt>
      <trkpt lat="45.01137" lon="5.73456">
        <ele>1417.4</ele>
        <time>2021-05-29T07:23:41Z</time>
      </trkpt>
      <trkpt lat="45.01137" lon="5.73458">
        <ele>1417.6</ele>
        <time>2021-05-29T07:23:42Z</time>
      </trkpt>
      <trkpt lat="45.01136" lon="5.7346">
        <ele>1417.8</ele>
        <time>2021-05-29T07:23:43Z</time>
      </trkpt>
      <trkpt lat="45.01136" lon="5.73461">
        <ele>1417.8</ele>
        <time>2021-05-29T07:23:44Z</time>
      </trkpt>
      <trkpt lat="45.01135" lon="5.73463">
        <ele>1418</ele>
        <time>2021-05-29T07:23:45Z</time>
      </trkpt>
      <trkpt lat="45.01135" lon="5.73465">
        <ele>1418</ele>
        <time>2021-05-29T07:23:46Z</time>
      </trkpt>
      <trkpt lat="45.01134" lon="5.73467">
        <ele>1418</ele>
        <time>2021-05-29T07:23:47Z</time>
      </trkpt>
      <trkpt lat="45.01133" lon="5.73467">
        <ele>1417.8</ele>
        <time>2021-05-29T07:23:48Z</time>
      </trkpt>
      <trkpt lat="45.01132" lon="5.73468">
        <ele>1418</ele>
        <time>2021-05-29T07:23:49Z</time>
      </trkpt>
      <trkpt lat="45.01131" lon="5.73469">
        <ele>1418.2</ele>
        <time>2021-05-29T07:23:50Z</time>
      </trkpt>
      <trkpt lat="45.01131" lon="5.7347">
        <ele>1418.2</ele>
        <time>2021-05-29T07:23:51Z</time>
      </trkpt>
      <trkpt lat="45.0113" lon="5.7347">
        <ele>1418.4</ele>
        <time>2021-05-29T07:23:52Z</time>
      </trkpt>
      <trkpt lat="45.01129" lon="5.73471">
        <ele>1418.6</ele>
        <time>2021-05-29T07:23:53Z</time>
      </trkpt>
      <trkpt lat="45.01128" lon="5.73472">
        <ele>1418.8</ele>
        <time>2021-05-29T07:23:54Z</time>
      </trkpt>
      <trkpt lat="45.01127" lon="5.73473">
        <ele>1419</ele>
        <time>2021-05-29T07:23:55Z</time>
      </trkpt>
      <trkpt lat="45.01127" lon="5.73473">
        <ele>1419</ele>
        <time>2021-05-29T07:23:56Z</time>
      </trkpt>
      <trkpt lat="45.01126" lon="5.73474">
        <ele>1419.2</ele>
        <time>2021-05-29T07:23:57Z</time>
      </trkpt>
      <trkpt lat="45.01126" lon="5.73474">
        <ele>1419.2</ele>
        <time>2021-05-29T07:23:58Z</time>
      </trkpt>
      <trkpt lat="45.01126" lon="5.73475">
        <ele>1419.4</ele>
        <time>2021-05-29T07:23:59Z</time>
      </trkpt>
      <trkpt lat="45.01126" lon="5.73475">
        <ele>1419.4</ele>
        <time>2021-05-29T07:24:00Z</time>
      </trkpt>
      <trkpt lat="45.01126" lon="5.73475">
        <ele>1419.6</ele>
        <time>2021-05-29T07:24:01Z</time>
      </trkpt>
      <trkpt lat="45.01125" lon="5.73476">
        <ele>1419.6</ele>
        <time>2021-05-29T07:24:02Z</time>
      </trkpt>
      <trkpt lat="45.01125" lon="5.73476">
        <ele>1419.6</ele>
        <time>2021-05-29T07:24:03Z</time>
      </trkpt>
      <trkpt lat="45.01125" lon="5.73476">
        <ele>1419.6</ele>
        <time>2021-05-29T07:24:04Z</time>
      </trkpt>
      <trkpt lat="45.01125" lon="5.73477">
        <ele>1419.8</ele>
        <time>2021-05-29T07:24:05Z</time>
      </trkpt>
      <trkpt lat="45.01125" lon="5.73477">
        <ele>1419.8</ele>
        <time>2021-05-29T07:24:06Z</time>
      </trkpt>
      <trkpt lat="45.01125" lon="5.73477">
        <ele>1419.8</ele>
        <time>2021-05-29T07:24:07Z</time>
      </trkpt>
      <trkpt lat="45.01125" lon="5.73478">
        <ele>1419.8</ele>
        <time>2021-05-29T07:24:08Z</time>
      </trkpt>
      <trkpt lat="45.01125" lon="5.73478">
        <ele>1419.8</ele>
        <time>2021-05-29T07:24:09Z</time>
      </trkpt>
      <trkpt lat="45.01125" lon="5.73478">
        <ele>1419.8</ele>
        <time>2021-05-29T07:24:10Z</time>
      </trkpt>
      <trkpt lat="45.01125" lon="5.73479">
        <ele>1419.8</ele>
        <time>2021-05-29T07:24:11Z</time>
      </trkpt>
      <trkpt lat="45.01125" lon="5.73479">
        <ele>1419.8</ele>
        <time>2021-05-29T07:24:12Z</time>
      </trkpt>
      <trkpt lat="45.01125" lon="5.73479">
        <ele>1420</ele>
        <time>2021-05-29T07:24:13Z</time>
      </trkpt>
      <trkpt lat="45.01125" lon="5.7348">
        <ele>1420.2</ele>
        <time>2021-05-29T07:24:14Z</time>
      </trkpt>
      <trkpt lat="45.01125" lon="5.7348">
        <ele>1420.4</ele>
        <time>2021-05-29T07:24:15Z</time>
      </trkpt>
      <trkpt lat="45.01125" lon="5.7348">
        <ele>1420.8</ele>
        <time>2021-05-29T07:24:16Z</time>
      </trkpt>
      <trkpt lat="45.01125" lon="5.73481">
        <ele>1421.2</ele>
        <time>2021-05-29T07:24:17Z</time>
      </trkpt>
      <trkpt lat="45.01124" lon="5.73481">
        <ele>1421</ele>
        <time>2021-05-29T07:24:18Z</time>
      </trkpt>
      <trkpt lat="45.01124" lon="5.73481">
        <ele>1421</ele>
        <time>2021-05-29T07:24:19Z</time>
      </trkpt>
      <trkpt lat="45.01124" lon="5.73482">
        <ele>1420.8</ele>
        <time>2021-05-29T07:24:20Z</time>
      </trkpt>
      <trkpt lat="45.01124" lon="5.73482">
        <ele>1420.8</ele>
        <time>2021-05-29T07:24:21Z</time>
      </trkpt>
      <trkpt lat="45.01124" lon="5.73482">
        <ele>1420.6</ele>
        <time>2021-05-29T07:24:22Z</time>
      </trkpt>
      <trkpt lat="45.01124" lon="5.73483">
        <ele>1420.6</ele>
        <time>2021-05-29T07:24:23Z</time>
      </trkpt>
      <trkpt lat="45.01124" lon="5.73483">
        <ele>1420.4</ele>
        <time>2021-05-29T07:24:24Z</time>
      </trkpt>
      <trkpt lat="45.01124" lon="5.73483">
        <ele>1420.4</ele>
        <time>2021-05-29T07:24:25Z</time>
      </trkpt>
      <trkpt lat="45.01124" lon="5.73484">
        <ele>1420.4</ele>
        <time>2021-05-29T07:24:26Z</time>
      </trkpt>
      <trkpt lat="45.01124" lon="5.73484">
        <ele>1420.4</ele>
        <time>2021-05-29T07:24:27Z</time>
      </trkpt>
      <trkpt lat="45.01124" lon="5.73484">
        <ele>1420.2</ele>
        <time>2021-05-29T07:24:28Z</time>
      </trkpt>
      <trkpt lat="45.01124" lon="5.73485">
        <ele>1420.2</ele>
        <time>2021-05-29T07:24:29Z</time>
      </trkpt>
      <trkpt lat="45.01124" lon="5.73485">
        <ele>1420</ele>
        <time>2021-05-29T07:24:30Z</time>
      </trkpt>
      <trkpt lat="45.01124" lon="5.73485">
        <ele>1420.2</ele>
        <time>2021-05-29T07:24:31Z</time>
      </trkpt>
      <trkpt lat="45.01124" lon="5.73486">
        <ele>1420.2</ele>
        <time>2021-05-29T07:24:32Z</time>
      </trkpt>
      <trkpt lat="45.01124" lon="5.73486">
        <ele>1420.2</ele>
        <time>2021-05-29T07:24:33Z</time>
      </trkpt>
      <trkpt lat="45.01124" lon="5.73486">
        <ele>1420</ele>
        <time>2021-05-29T07:24:34Z</time>
      </trkpt>
      <trkpt lat="45.01123" lon="5.73487">
        <ele>1420.4</ele>
        <time>2021-05-29T07:24:35Z</time>
      </trkpt>
      <trkpt lat="45.01123" lon="5.73487">
        <ele>1420.6</ele>
        <time>2021-05-29T07:24:36Z</time>
      </trkpt>
      <trkpt lat="45.01123" lon="5.73487">
        <ele>1420.6</ele>
        <time>2021-05-29T07:24:37Z</time>
      </trkpt>
      <trkpt lat="45.01123" lon="5.73488">
        <ele>1421</ele>
        <time>2021-05-29T07:24:38Z</time>
      </trkpt>
      <trkpt lat="45.01123" lon="5.73488">
        <ele>1421.2</ele>
        <time>2021-05-29T07:24:39Z</time>
      </trkpt>
      <trkpt lat="45.01123" lon="5.73488">
        <ele>1421.4</ele>
        <time>2021-05-29T07:24:40Z</time>
      </trkpt>
      <trkpt lat="45.01123" lon="5.73489">
        <ele>1421.8</ele>
        <time>2021-05-29T07:24:41Z</time>
      </trkpt>
      <trkpt lat="45.01123" lon="5.73489">
        <ele>1421.8</ele>
        <time>2021-05-29T07:24:42Z</time>
      </trkpt>
      <trkpt lat="45.01123" lon="5.73489">
        <ele>1422</ele>
        <time>2021-05-29T07:24:43Z</time>
      </trkpt>
      <trkpt lat="45.01123" lon="5.7349">
        <ele>1422.4</ele>
        <time>2021-05-29T07:24:44Z</time>
      </trkpt>
      <trkpt lat="45.01123" lon="5.7349">
        <ele>1422.6</ele>
        <time>2021-05-29T07:24:45Z</time>
      </trkpt>
      <trkpt lat="45.01123" lon="5.7349">
        <ele>1422.6</ele>
        <time>2021-05-29T07:24:46Z</time>
      </trkpt>
      <trkpt lat="45.01123" lon="5.7349">
        <ele>1422.8</ele>
        <time>2021-05-29T07:24:47Z</time>
      </trkpt>
      <trkpt lat="45.01123" lon="5.73491">
        <ele>1423.2</ele>
        <time>2021-05-29T07:24:48Z</time>
      </trkpt>
      <trkpt lat="45.01122" lon="5.73492">
        <ele>1423.4</ele>
        <time>2021-05-29T07:24:49Z</time>
      </trkpt>
      <trkpt lat="45.01122" lon="5.73493">
        <ele>1423.6</ele>
        <time>2021-05-29T07:24:50Z</time>
      </trkpt>
      <trkpt lat="45.01122" lon="5.73494">
        <ele>1424</ele>
        <time>2021-05-29T07:24:51Z</time>
      </trkpt>
      <trkpt lat="45.01122" lon="5.73495">
        <ele>1424</ele>
        <time>2021-05-29T07:24:52Z</time>
      </trkpt>
      <trkpt lat="45.01121" lon="5.73496">
        <ele>1424.2</ele>
        <time>2021-05-29T07:24:53Z</time>
      </trkpt>
      <trkpt lat="45.01121" lon="5.73497">
        <ele>1424.6</ele>
        <time>2021-05-29T07:24:54Z</time>
      </trkpt>
      <trkpt lat="45.01121" lon="5.73498">
        <ele>1425</ele>
        <time>2021-05-29T07:24:55Z</time>
      </trkpt>
      <trkpt lat="45.01121" lon="5.73499">
        <ele>1425.2</ele>
        <time>2021-05-29T07:24:56Z</time>
      </trkpt>
      <trkpt lat="45.0112" lon="5.735">
        <ele>1425.2</ele>
        <time>2021-05-29T07:24:57Z</time>
      </trkpt>
      <trkpt lat="45.0112" lon="5.73501">
        <ele>1425.4</ele>
        <time>2021-05-29T07:24:58Z</time>
      </trkpt>
      <trkpt lat="45.0112" lon="5.73501">
        <ele>1425.8</ele>
        <time>2021-05-29T07:24:59Z</time>
      </trkpt>
      <trkpt lat="45.0112" lon="5.73502">
        <ele>1426</ele>
        <time>2021-05-29T07:25:00Z</time>
      </trkpt>
      <trkpt lat="45.01119" lon="5.73503">
        <ele>1426.2</ele>
        <time>2021-05-29T07:25:01Z</time>
      </trkpt>
      <trkpt lat="45.01119" lon="5.73504">
        <ele>1426.6</ele>
        <time>2021-05-29T07:25:02Z</time>
      </trkpt>
      <trkpt lat="45.01118" lon="5.73505">
        <ele>1426.6</ele>
        <time>2021-05-29T07:25:03Z</time>
      </trkpt>
      <trkpt lat="45.01118" lon="5.73506">
        <ele>1427</ele>
        <time>2021-05-29T07:25:04Z</time>
      </trkpt>
      <trkpt lat="45.01117" lon="5.73507">
        <ele>1427.2</ele>
        <time>2021-05-29T07:25:05Z</time>
      </trkpt>
      <trkpt lat="45.01117" lon="5.73508">
        <ele>1427.2</ele>
        <time>2021-05-29T07:25:06Z</time>
      </trkpt>
      <trkpt lat="45.01117" lon="5.73509">
        <ele>1427.4</ele>
        <time>2021-05-29T07:25:07Z</time>
      </trkpt>
      <trkpt lat="45.01117" lon="5.73511">
        <ele>1427.6</ele>
        <time>2021-05-29T07:25:08Z</time>
      </trkpt>
      <trkpt lat="45.01117" lon="5.73512">
        <ele>1427.8</ele>
        <time>2021-05-29T07:25:09Z</time>
      </trkpt>
      <trkpt lat="45.01118" lon="5.73513">
        <ele>1428</ele>
        <time>2021-05-29T07:25:10Z</time>
      </trkpt>
      <trkpt lat="45.01118" lon="5.73514">
        <ele>1428.4</ele>
        <time>2021-05-29T07:25:11Z</time>
      </trkpt>
      <trkpt lat="45.01118" lon="5.73515">
        <ele>1428.6</ele>
        <time>2021-05-29T07:25:12Z</time>
      </trkpt>
      <trkpt lat="45.01118" lon="5.73516">
        <ele>1428.6</ele>
        <time>2021-05-29T07:25:13Z</time>
      </trkpt>
      <trkpt lat="45.01119" lon="5.7352">
        <ele>1429</ele>
        <time>2021-05-29T07:25:14Z</time>
      </trkpt>
      <trkpt lat="45.01119" lon="5.7352">
        <ele>1429.2</ele>
        <time>2021-05-29T07:25:15Z</time>
      </trkpt>
      <trkpt lat="45.01119" lon="5.7352">
        <ele>1429.4</ele>
        <time>2021-05-29T07:25:16Z</time>
      </trkpt>
      <trkpt lat="45.01119" lon="5.7352">
        <ele>1430</ele>
        <time>2021-05-29T07:25:17Z</time>
      </trkpt>
      <trkpt lat="45.01119" lon="5.73523">
        <ele>1430</ele>
        <time>2021-05-29T07:25:18Z</time>
      </trkpt>
      <trkpt lat="45.01119" lon="5.73523">
        <ele>1430.4</ele>
        <time>2021-05-29T07:25:19Z</time>
      </trkpt>
      <trkpt lat="45.01119" lon="5.73523">
        <ele>1430.8</ele>
        <time>2021-05-29T07:25:20Z</time>
      </trkpt>
      <trkpt lat="45.01118" lon="5.73524">
        <ele>1430.8</ele>
        <time>2021-05-29T07:25:21Z</time>
      </trkpt>
      <trkpt lat="45.01118" lon="5.73525">
        <ele>1431.2</ele>
        <time>2021-05-29T07:25:22Z</time>
      </trkpt>
      <trkpt lat="45.01118" lon="5.73526">
        <ele>1431.2</ele>
        <time>2021-05-29T07:25:23Z</time>
      </trkpt>
      <trkpt lat="45.01118" lon="5.73527">
        <ele>1431.4</ele>
        <time>2021-05-29T07:25:24Z</time>
      </trkpt>
      <trkpt lat="45.01118" lon="5.73528">
        <ele>1431.8</ele>
        <time>2021-05-29T07:25:25Z</time>
      </trkpt>
      <trkpt lat="45.01118" lon="5.73529">
        <ele>1432</ele>
        <time>2021-05-29T07:25:26Z</time>
      </trkpt>
      <trkpt lat="45.01117" lon="5.73529">
        <ele>1432.4</ele>
        <time>2021-05-29T07:25:27Z</time>
      </trkpt>
      <trkpt lat="45.01117" lon="5.7353">
        <ele>1432.6</ele>
        <time>2021-05-29T07:25:28Z</time>
      </trkpt>
      <trkpt lat="45.01117" lon="5.73531">
        <ele>1432.8</ele>
        <time>2021-05-29T07:25:29Z</time>
      </trkpt>
      <trkpt lat="45.01117" lon="5.73532">
        <ele>1433.2</ele>
        <time>2021-05-29T07:25:30Z</time>
      </trkpt>
      <trkpt lat="45.01117" lon="5.73533">
        <ele>1433.8</ele>
        <time>2021-05-29T07:25:31Z</time>
      </trkpt>
      <trkpt lat="45.01117" lon="5.73534">
        <ele>1433.6</ele>
        <time>2021-05-29T07:25:32Z</time>
      </trkpt>
      <trkpt lat="45.01117" lon="5.73535">
        <ele>1434</ele>
        <time>2021-05-29T07:25:33Z</time>
      </trkpt>
      <trkpt lat="45.01116" lon="5.73536">
        <ele>1434.2</ele>
        <time>2021-05-29T07:25:34Z</time>
      </trkpt>
      <trkpt lat="45.01116" lon="5.73537">
        <ele>1434.4</ele>
        <time>2021-05-29T07:25:35Z</time>
      </trkpt>
      <trkpt lat="45.01116" lon="5.73538">
        <ele>1434.6</ele>
        <time>2021-05-29T07:25:36Z</time>
      </trkpt>
      <trkpt lat="45.01116" lon="5.73539">
        <ele>1434.8</ele>
        <time>2021-05-29T07:25:37Z</time>
      </trkpt>
      <trkpt lat="45.01116" lon="5.7354">
        <ele>1435</ele>
        <time>2021-05-29T07:25:38Z</time>
      </trkpt>
      <trkpt lat="45.01116" lon="5.73541">
        <ele>1435.2</ele>
        <time>2021-05-29T07:25:39Z</time>
      </trkpt>
      <trkpt lat="45.01116" lon="5.73542">
        <ele>1435.4</ele>
        <time>2021-05-29T07:25:40Z</time>
      </trkpt>
      <trkpt lat="45.01116" lon="5.73543">
        <ele>1435.6</ele>
        <time>2021-05-29T07:25:41Z</time>
      </trkpt>
      <trkpt lat="45.01116" lon="5.73544">
        <ele>1435.8</ele>
        <time>2021-05-29T07:25:42Z</time>
      </trkpt>
      <trkpt lat="45.01116" lon="5.73545">
        <ele>1436.2</ele>
        <time>2021-05-29T07:25:43Z</time>
      </trkpt>
      <trkpt lat="45.01116" lon="5.73546">
        <ele>1436.6</ele>
        <time>2021-05-29T07:25:44Z</time>
      </trkpt>
      <trkpt lat="45.01115" lon="5.73548">
        <ele>1436.8</ele>
        <time>2021-05-29T07:25:45Z</time>
      </trkpt>
      <trkpt lat="45.01114" lon="5.73549">
        <ele>1436.8</ele>
        <time>2021-05-29T07:25:46Z</time>
      </trkpt>
      <trkpt lat="45.01114" lon="5.73551">
        <ele>1437</ele>
        <time>2021-05-29T07:25:47Z</time>
      </trkpt>
      <trkpt lat="45.01113" lon="5.73553">
        <ele>1437.2</ele>
        <time>2021-05-29T07:25:48Z</time>
      </trkpt>
      <trkpt lat="45.01112" lon="5.73554">
        <ele>1437.4</ele>
        <time>2021-05-29T07:25:49Z</time>
      </trkpt>
      <trkpt lat="45.01112" lon="5.73556">
        <ele>1437.6</ele>
        <time>2021-05-29T07:25:50Z</time>
      </trkpt>
      <trkpt lat="45.01111" lon="5.73558">
        <ele>1437.8</ele>
        <time>2021-05-29T07:25:51Z</time>
      </trkpt>
      <trkpt lat="45.01111" lon="5.73559">
        <ele>1438.2</ele>
        <time>2021-05-29T07:25:52Z</time>
      </trkpt>
      <trkpt lat="45.01111" lon="5.7356">
        <ele>1438.6</ele>
        <time>2021-05-29T07:25:53Z</time>
      </trkpt>
      <trkpt lat="45.01111" lon="5.73561">
        <ele>1438.8</ele>
        <time>2021-05-29T07:25:54Z</time>
      </trkpt>
      <trkpt lat="45.01111" lon="5.73562">
        <ele>1438.8</ele>
        <time>2021-05-29T07:25:55Z</time>
      </trkpt>
      <trkpt lat="45.01111" lon="5.73563">
        <ele>1439.2</ele>
        <time>2021-05-29T07:25:56Z</time>
      </trkpt>
      <trkpt lat="45.01111" lon="5.73564">
        <ele>1439.4</ele>
        <time>2021-05-29T07:25:57Z</time>
      </trkpt>
      <trkpt lat="45.01111" lon="5.73566">
        <ele>1439.6</ele>
        <time>2021-05-29T07:25:58Z</time>
      </trkpt>
      <trkpt lat="45.01111" lon="5.73567">
        <ele>1439.8</ele>
        <time>2021-05-29T07:25:59Z</time>
      </trkpt>
      <trkpt lat="45.01111" lon="5.73568">
        <ele>1440</ele>
        <time>2021-05-29T07:26:00Z</time>
      </trkpt>
      <trkpt lat="45.01111" lon="5.73569">
        <ele>1440.4</ele>
        <time>2021-05-29T07:26:01Z</time>
      </trkpt>
      <trkpt lat="45.01111" lon="5.7357">
        <ele>1440.6</ele>
        <time>2021-05-29T07:26:02Z</time>
      </trkpt>
      <trkpt lat="45.0111" lon="5.73571">
        <ele>1440.6</ele>
        <time>2021-05-29T07:26:03Z</time>
      </trkpt>
      <trkpt lat="45.0111" lon="5.73572">
        <ele>1440.8</ele>
        <time>2021-05-29T07:26:04Z</time>
      </trkpt>
      <trkpt lat="45.0111" lon="5.73573">
        <ele>1441.2</ele>
        <time>2021-05-29T07:26:05Z</time>
      </trkpt>
      <trkpt lat="45.0111" lon="5.73574">
        <ele>1441.6</ele>
        <time>2021-05-29T07:26:06Z</time>
      </trkpt>
      <trkpt lat="45.0111" lon="5.73575">
        <ele>1441.8</ele>
        <time>2021-05-29T07:26:07Z</time>
      </trkpt>
      <trkpt lat="45.0111" lon="5.73576">
        <ele>1442</ele>
        <time>2021-05-29T07:26:08Z</time>
      </trkpt>
      <trkpt lat="45.0111" lon="5.73577">
        <ele>1442.6</ele>
        <time>2021-05-29T07:26:09Z</time>
      </trkpt>
      <trkpt lat="45.0111" lon="5.73578">
        <ele>1442.8</ele>
        <time>2021-05-29T07:26:10Z</time>
      </trkpt>
      <trkpt lat="45.0111" lon="5.73579">
        <ele>1442.8</ele>
        <time>2021-05-29T07:26:11Z</time>
      </trkpt>
      <trkpt lat="45.0111" lon="5.73579">
        <ele>1443</ele>
        <time>2021-05-29T07:26:12Z</time>
      </trkpt>
      <trkpt lat="45.0111" lon="5.7358">
        <ele>1443.6</ele>
        <time>2021-05-29T07:26:13Z</time>
      </trkpt>
      <trkpt lat="45.0111" lon="5.73581">
        <ele>1443.8</ele>
        <time>2021-05-29T07:26:14Z</time>
      </trkpt>
      <trkpt lat="45.0111" lon="5.73582">
        <ele>1444.2</ele>
        <time>2021-05-29T07:26:15Z</time>
      </trkpt>
      <trkpt lat="45.0111" lon="5.73583">
        <ele>1444.4</ele>
        <time>2021-05-29T07:26:16Z</time>
      </trkpt>
      <trkpt lat="45.0111" lon="5.73584">
        <ele>1444.8</ele>
        <time>2021-05-29T07:26:17Z</time>
      </trkpt>
      <trkpt lat="45.01109" lon="5.73585">
        <ele>1444.8</ele>
        <time>2021-05-29T07:26:18Z</time>
      </trkpt>
      <trkpt lat="45.01109" lon="5.73585">
        <ele>1445.2</ele>
        <time>2021-05-29T07:26:19Z</time>
      </trkpt>
      <trkpt lat="45.01109" lon="5.73586">
        <ele>1445.2</ele>
        <time>2021-05-29T07:26:20Z</time>
      </trkpt>
      <trkpt lat="45.01109" lon="5.73587">
        <ele>1445.6</ele>
        <time>2021-05-29T07:26:21Z</time>
      </trkpt>
      <trkpt lat="45.01108" lon="5.73587">
        <ele>1445.6</ele>
        <time>2021-05-29T07:26:22Z</time>
      </trkpt>
      <trkpt lat="45.01108" lon="5.73588">
        <ele>1446</ele>
        <time>2021-05-29T07:26:23Z</time>
      </trkpt>
      <trkpt lat="45.01108" lon="5.73588">
        <ele>1446.4</ele>
        <time>2021-05-29T07:26:24Z</time>
      </trkpt>
      <trkpt lat="45.01108" lon="5.73589">
        <ele>1446.6</ele>
        <time>2021-05-29T07:26:25Z</time>
      </trkpt>
      <trkpt lat="45.01108" lon="5.7359">
        <ele>1446.6</ele>
        <time>2021-05-29T07:26:26Z</time>
      </trkpt>
      <trkpt lat="45.01107" lon="5.7359">
        <ele>1447</ele>
        <time>2021-05-29T07:26:27Z</time>
      </trkpt>
      <trkpt lat="45.01107" lon="5.73591">
        <ele>1447.4</ele>
        <time>2021-05-29T07:26:28Z</time>
      </trkpt>
      <trkpt lat="45.01107" lon="5.73592">
        <ele>1447.6</ele>
        <time>2021-05-29T07:26:29Z</time>
      </trkpt>
      <trkpt lat="45.01107" lon="5.73592">
        <ele>1447.6</ele>
        <time>2021-05-29T07:26:30Z</time>
      </trkpt>
      <trkpt lat="45.01106" lon="5.73593">
        <ele>1447.8</ele>
        <time>2021-05-29T07:26:31Z</time>
      </trkpt>
      <trkpt lat="45.01106" lon="5.73594">
        <ele>1448</ele>
        <time>2021-05-29T07:26:32Z</time>
      </trkpt>
      <trkpt lat="45.01106" lon="5.73594">
        <ele>1448.4</ele>
        <time>2021-05-29T07:26:33Z</time>
      </trkpt>
      <trkpt lat="45.01106" lon="5.73595">
        <ele>1448.6</ele>
        <time>2021-05-29T07:26:34Z</time>
      </trkpt>
      <trkpt lat="45.01105" lon="5.73595">
        <ele>1448.8</ele>
        <time>2021-05-29T07:26:35Z</time>
      </trkpt>
      <trkpt lat="45.01105" lon="5.73597">
        <ele>1449.2</ele>
        <time>2021-05-29T07:26:36Z</time>
      </trkpt>
      <trkpt lat="45.01105" lon="5.73598">
        <ele>1449.2</ele>
        <time>2021-05-29T07:26:37Z</time>
      </trkpt>
      <trkpt lat="45.01105" lon="5.73599">
        <ele>1449.6</ele>
        <time>2021-05-29T07:26:38Z</time>
      </trkpt>
      <trkpt lat="45.01105" lon="5.736">
        <ele>1450</ele>
        <time>2021-05-29T07:26:39Z</time>
      </trkpt>
      <trkpt lat="45.01105" lon="5.73601">
        <ele>1450.2</ele>
        <time>2021-05-29T07:26:40Z</time>
      </trkpt>
      <trkpt lat="45.01104" lon="5.73603">
        <ele>1450.4</ele>
        <time>2021-05-29T07:26:41Z</time>
      </trkpt>
      <trkpt lat="45.01104" lon="5.73604">
        <ele>1450.8</ele>
        <time>2021-05-29T07:26:42Z</time>
      </trkpt>
      <trkpt lat="45.01104" lon="5.73605">
        <ele>1451</ele>
        <time>2021-05-29T07:26:43Z</time>
      </trkpt>
      <trkpt lat="45.01104" lon="5.73606">
        <ele>1451.2</ele>
        <time>2021-05-29T07:26:44Z</time>
      </trkpt>
      <trkpt lat="45.01104" lon="5.73607">
        <ele>1451.4</ele>
        <time>2021-05-29T07:26:45Z</time>
      </trkpt>
      <trkpt lat="45.01104" lon="5.73609">
        <ele>1451.6</ele>
        <time>2021-05-29T07:26:46Z</time>
      </trkpt>
      <trkpt lat="45.01104" lon="5.73609">
        <ele>1451.8</ele>
        <time>2021-05-29T07:26:47Z</time>
      </trkpt>
      <trkpt lat="45.01104" lon="5.7361">
        <ele>1452.2</ele>
        <time>2021-05-29T07:26:48Z</time>
      </trkpt>
      <trkpt lat="45.01104" lon="5.73611">
        <ele>1452.4</ele>
        <time>2021-05-29T07:26:49Z</time>
      </trkpt>
      <trkpt lat="45.01104" lon="5.73611">
        <ele>1452.8</ele>
        <time>2021-05-29T07:26:50Z</time>
      </trkpt>
      <trkpt lat="45.01105" lon="5.73612">
        <ele>1453</ele>
        <time>2021-05-29T07:26:51Z</time>
      </trkpt>
      <trkpt lat="45.01105" lon="5.73613">
        <ele>1453.2</ele>
        <time>2021-05-29T07:26:52Z</time>
      </trkpt>
      <trkpt lat="45.01105" lon="5.73614">
        <ele>1453.6</ele>
        <time>2021-05-29T07:26:53Z</time>
      </trkpt>
      <trkpt lat="45.01105" lon="5.73614">
        <ele>1453.6</ele>
        <time>2021-05-29T07:26:54Z</time>
      </trkpt>
      <trkpt lat="45.01105" lon="5.73615">
        <ele>1453.8</ele>
        <time>2021-05-29T07:26:55Z</time>
      </trkpt>
      <trkpt lat="45.01105" lon="5.73616">
        <ele>1454.2</ele>
        <time>2021-05-29T07:26:56Z</time>
      </trkpt>
      <trkpt lat="45.01106" lon="5.73616">
        <ele>1454.6</ele>
        <time>2021-05-29T07:26:57Z</time>
      </trkpt>
      <trkpt lat="45.01106" lon="5.73617">
        <ele>1454.8</ele>
        <time>2021-05-29T07:26:58Z</time>
      </trkpt>
      <trkpt lat="45.01106" lon="5.73618">
        <ele>1455</ele>
        <time>2021-05-29T07:26:59Z</time>
      </trkpt>
      <trkpt lat="45.01106" lon="5.73619">
        <ele>1455.2</ele>
        <time>2021-05-29T07:27:00Z</time>
      </trkpt>
      <trkpt lat="45.01106" lon="5.73619">
        <ele>1455.4</ele>
        <time>2021-05-29T07:27:01Z</time>
      </trkpt>
      <trkpt lat="45.01107" lon="5.7362">
        <ele>1455.8</ele>
        <time>2021-05-29T07:27:02Z</time>
      </trkpt>
      <trkpt lat="45.01107" lon="5.73621">
        <ele>1456</ele>
        <time>2021-05-29T07:27:03Z</time>
      </trkpt>
      <trkpt lat="45.01107" lon="5.73621">
        <ele>1456.4</ele>
        <time>2021-05-29T07:27:04Z</time>
      </trkpt>
      <trkpt lat="45.01107" lon="5.73624">
        <ele>1456.6</ele>
        <time>2021-05-29T07:27:05Z</time>
      </trkpt>
      <trkpt lat="45.01107" lon="5.73624">
        <ele>1456.8</ele>
        <time>2021-05-29T07:27:06Z</time>
      </trkpt>
      <trkpt lat="45.01107" lon="5.73624">
        <ele>1457.2</ele>
        <time>2021-05-29T07:27:07Z</time>
      </trkpt>
      <trkpt lat="45.01107" lon="5.73624">
        <ele>1457.2</ele>
        <time>2021-05-29T07:27:08Z</time>
      </trkpt>
      <trkpt lat="45.01107" lon="5.73625">
        <ele>1457.6</ele>
        <time>2021-05-29T07:27:09Z</time>
      </trkpt>
      <trkpt lat="45.01108" lon="5.73625">
        <ele>1457.8</ele>
        <time>2021-05-29T07:27:10Z</time>
      </trkpt>
      <trkpt lat="45.01108" lon="5.73626">
        <ele>1458</ele>
        <time>2021-05-29T07:27:11Z</time>
      </trkpt>
      <trkpt lat="45.01108" lon="5.73627">
        <ele>1458.2</ele>
        <time>2021-05-29T07:27:12Z</time>
      </trkpt>
      <trkpt lat="45.01108" lon="5.73628">
        <ele>1458.4</ele>
        <time>2021-05-29T07:27:13Z</time>
      </trkpt>
      <trkpt lat="45.01109" lon="5.73628">
        <ele>1458.6</ele>
        <time>2021-05-29T07:27:14Z</time>
      </trkpt>
      <trkpt lat="45.01109" lon="5.73629">
        <ele>1458.8</ele>
        <time>2021-05-29T07:27:15Z</time>
      </trkpt>
      <trkpt lat="45.01109" lon="5.7363">
        <ele>1459.2</ele>
        <time>2021-05-29T07:27:16Z</time>
      </trkpt>
      <trkpt lat="45.01109" lon="5.7363">
        <ele>1459.4</ele>
        <time>2021-05-29T07:27:17Z</time>
      </trkpt>
      <trkpt lat="45.0111" lon="5.73631">
        <ele>1459.6</ele>
        <time>2021-05-29T07:27:18Z</time>
      </trkpt>
      <trkpt lat="45.0111" lon="5.73632">
        <ele>1460</ele>
        <time>2021-05-29T07:27:19Z</time>
      </trkpt>
      <trkpt lat="45.0111" lon="5.73633">
        <ele>1460.4</ele>
        <time>2021-05-29T07:27:20Z</time>
      </trkpt>
      <trkpt lat="45.0111" lon="5.73633">
        <ele>1460.6</ele>
        <time>2021-05-29T07:27:21Z</time>
      </trkpt>
      <trkpt lat="45.01111" lon="5.73634">
        <ele>1460.8</ele>
        <time>2021-05-29T07:27:22Z</time>
      </trkpt>
      <trkpt lat="45.01111" lon="5.73635">
        <ele>1461</ele>
        <time>2021-05-29T07:27:23Z</time>
      </trkpt>
      <trkpt lat="45.01111" lon="5.73635">
        <ele>1461.2</ele>
        <time>2021-05-29T07:27:24Z</time>
      </trkpt>
      <trkpt lat="45.01111" lon="5.73636">
        <ele>1461.4</ele>
        <time>2021-05-29T07:27:25Z</time>
      </trkpt>
      <trkpt lat="45.01111" lon="5.73637">
        <ele>1461.6</ele>
        <time>2021-05-29T07:27:26Z</time>
      </trkpt>
      <trkpt lat="45.01111" lon="5.73637">
        <ele>1462</ele>
        <time>2021-05-29T07:27:27Z</time>
      </trkpt>
      <trkpt lat="45.01112" lon="5.73638">
        <ele>1462.2</ele>
        <time>2021-05-29T07:27:28Z</time>
      </trkpt>
      <trkpt lat="45.01112" lon="5.73638">
        <ele>1462.6</ele>
        <time>2021-05-29T07:27:29Z</time>
      </trkpt>
      <trkpt lat="45.01112" lon="5.73639">
        <ele>1462.6</ele>
        <time>2021-05-29T07:27:30Z</time>
      </trkpt>
      <trkpt lat="45.01112" lon="5.73639">
        <ele>1463</ele>
        <time>2021-05-29T07:27:31Z</time>
      </trkpt>
      <trkpt lat="45.01112" lon="5.7364">
        <ele>1463.2</ele>
        <time>2021-05-29T07:27:32Z</time>
      </trkpt>
      <trkpt lat="45.01112" lon="5.73641">
        <ele>1463.6</ele>
        <time>2021-05-29T07:27:33Z</time>
      </trkpt>
      <trkpt lat="45.01112" lon="5.73641">
        <ele>1463.8</ele>
        <time>2021-05-29T07:27:34Z</time>
      </trkpt>
      <trkpt lat="45.01112" lon="5.73642">
        <ele>1464</ele>
        <time>2021-05-29T07:27:35Z</time>
      </trkpt>
      <trkpt lat="45.01112" lon="5.73642">
        <ele>1464.4</ele>
        <time>2021-05-29T07:27:36Z</time>
      </trkpt>
      <trkpt lat="45.01112" lon="5.73643">
        <ele>1464.6</ele>
        <time>2021-05-29T07:27:37Z</time>
      </trkpt>
      <trkpt lat="45.01112" lon="5.73643">
        <ele>1464.8</ele>
        <time>2021-05-29T07:27:38Z</time>
      </trkpt>
      <trkpt lat="45.01112" lon="5.73644">
        <ele>1465</ele>
        <time>2021-05-29T07:27:39Z</time>
      </trkpt>
      <trkpt lat="45.01112" lon="5.73645">
        <ele>1465.4</ele>
        <time>2021-05-29T07:27:40Z</time>
      </trkpt>
      <trkpt lat="45.01112" lon="5.73645">
        <ele>1465.6</ele>
        <time>2021-05-29T07:27:41Z</time>
      </trkpt>
      <trkpt lat="45.01112" lon="5.73646">
        <ele>1465.8</ele>
        <time>2021-05-29T07:27:42Z</time>
      </trkpt>
      <trkpt lat="45.01112" lon="5.73646">
        <ele>1466.2</ele>
        <time>2021-05-29T07:27:43Z</time>
      </trkpt>
      <trkpt lat="45.01112" lon="5.73647">
        <ele>1466.4</ele>
        <time>2021-05-29T07:27:44Z</time>
      </trkpt>
      <trkpt lat="45.01112" lon="5.73648">
        <ele>1466.8</ele>
        <time>2021-05-29T07:27:45Z</time>
      </trkpt>
      <trkpt lat="45.01113" lon="5.73648">
        <ele>1467</ele>
        <time>2021-05-29T07:27:46Z</time>
      </trkpt>
      <trkpt lat="45.01113" lon="5.73649">
        <ele>1467</ele>
        <time>2021-05-29T07:27:47Z</time>
      </trkpt>
      <trkpt lat="45.01113" lon="5.7365">
        <ele>1467.4</ele>
        <time>2021-05-29T07:27:48Z</time>
      </trkpt>
      <trkpt lat="45.01113" lon="5.73651">
        <ele>1467.8</ele>
        <time>2021-05-29T07:27:49Z</time>
      </trkpt>
      <trkpt lat="45.01113" lon="5.73651">
        <ele>1468.2</ele>
        <time>2021-05-29T07:27:50Z</time>
      </trkpt>
      <trkpt lat="45.01113" lon="5.73652">
        <ele>1468.4</ele>
        <time>2021-05-29T07:27:51Z</time>
      </trkpt>
      <trkpt lat="45.01113" lon="5.73653">
        <ele>1468.8</ele>
        <time>2021-05-29T07:27:52Z</time>
      </trkpt>
      <trkpt lat="45.01113" lon="5.73653">
        <ele>1468.8</ele>
        <time>2021-05-29T07:27:53Z</time>
      </trkpt>
      <trkpt lat="45.01113" lon="5.73654">
        <ele>1469.2</ele>
        <time>2021-05-29T07:27:54Z</time>
      </trkpt>
      <trkpt lat="45.01113" lon="5.73655">
        <ele>1469.4</ele>
        <time>2021-05-29T07:27:55Z</time>
      </trkpt>
      <trkpt lat="45.01113" lon="5.73655">
        <ele>1469.4</ele>
        <time>2021-05-29T07:27:56Z</time>
      </trkpt>
      <trkpt lat="45.01113" lon="5.73656">
        <ele>1469.8</ele>
        <time>2021-05-29T07:27:57Z</time>
      </trkpt>
      <trkpt lat="45.01113" lon="5.73656">
        <ele>1469.8</ele>
        <time>2021-05-29T07:27:58Z</time>
      </trkpt>
      <trkpt lat="45.01113" lon="5.73656">
        <ele>1470.2</ele>
        <time>2021-05-29T07:27:59Z</time>
      </trkpt>
      <trkpt lat="45.01113" lon="5.73656">
        <ele>1470.6</ele>
        <time>2021-05-29T07:28:00Z</time>
      </trkpt>
      <trkpt lat="45.01113" lon="5.73656">
        <ele>1470.8</ele>
        <time>2021-05-29T07:28:01Z</time>
      </trkpt>
      <trkpt lat="45.01114" lon="5.73659">
        <ele>1471</ele>
        <time>2021-05-29T07:28:02Z</time>
      </trkpt>
      <trkpt lat="45.01114" lon="5.73659">
        <ele>1471.2</ele>
        <time>2021-05-29T07:28:03Z</time>
      </trkpt>
      <trkpt lat="45.01114" lon="5.73659">
        <ele>1471.4</ele>
        <time>2021-05-29T07:28:04Z</time>
      </trkpt>
      <trkpt lat="45.01114" lon="5.7366">
        <ele>1471.8</ele>
        <time>2021-05-29T07:28:05Z</time>
      </trkpt>
      <trkpt lat="45.01114" lon="5.73661">
        <ele>1472</ele>
        <time>2021-05-29T07:28:06Z</time>
      </trkpt>
      <trkpt lat="45.01114" lon="5.73661">
        <ele>1472.4</ele>
        <time>2021-05-29T07:28:07Z</time>
      </trkpt>
      <trkpt lat="45.01114" lon="5.73662">
        <ele>1472.6</ele>
        <time>2021-05-29T07:28:08Z</time>
      </trkpt>
      <trkpt lat="45.01114" lon="5.73663">
        <ele>1473</ele>
        <time>2021-05-29T07:28:09Z</time>
      </trkpt>
      <trkpt lat="45.01114" lon="5.73663">
        <ele>1473.2</ele>
        <time>2021-05-29T07:28:10Z</time>
      </trkpt>
      <trkpt lat="45.01114" lon="5.73664">
        <ele>1473.4</ele>
        <time>2021-05-29T07:28:11Z</time>
      </trkpt>
      <trkpt lat="45.01114" lon="5.73665">
        <ele>1473.6</ele>
        <time>2021-05-29T07:28:12Z</time>
      </trkpt>
      <trkpt lat="45.01114" lon="5.73665">
        <ele>1473.8</ele>
        <time>2021-05-29T07:28:13Z</time>
      </trkpt>
      <trkpt lat="45.01114" lon="5.73665">
        <ele>1474.2</ele>
        <time>2021-05-29T07:28:14Z</time>
      </trkpt>
      <trkpt lat="45.01114" lon="5.73665">
        <ele>1474.4</ele>
        <time>2021-05-29T07:28:15Z</time>
      </trkpt>
      <trkpt lat="45.01112" lon="5.73667">
        <ele>1474.8</ele>
        <time>2021-05-29T07:28:16Z</time>
      </trkpt>
      <trkpt lat="45.01112" lon="5.73667">
        <ele>1474.8</ele>
        <time>2021-05-29T07:28:17Z</time>
      </trkpt>
      <trkpt lat="45.01112" lon="5.73667">
        <ele>1475.2</ele>
        <time>2021-05-29T07:28:18Z</time>
      </trkpt>
      <trkpt lat="45.01112" lon="5.73667">
        <ele>1475.4</ele>
        <time>2021-05-29T07:28:19Z</time>
      </trkpt>
      <trkpt lat="45.01112" lon="5.73667">
        <ele>1475.8</ele>
        <time>2021-05-29T07:28:20Z</time>
      </trkpt>
      <trkpt lat="45.01112" lon="5.73667">
        <ele>1476</ele>
        <time>2021-05-29T07:28:21Z</time>
      </trkpt>
      <trkpt lat="45.01112" lon="5.73667">
        <ele>1476.2</ele>
        <time>2021-05-29T07:28:22Z</time>
      </trkpt>
      <trkpt lat="45.01113" lon="5.73671">
        <ele>1476.4</ele>
        <time>2021-05-29T07:28:23Z</time>
      </trkpt>
      <trkpt lat="45.01113" lon="5.73671">
        <ele>1476.6</ele>
        <time>2021-05-29T07:28:24Z</time>
      </trkpt>
      <trkpt lat="45.01113" lon="5.73671">
        <ele>1477</ele>
        <time>2021-05-29T07:28:25Z</time>
      </trkpt>
      <trkpt lat="45.01113" lon="5.73672">
        <ele>1477.2</ele>
        <time>2021-05-29T07:28:26Z</time>
      </trkpt>
      <trkpt lat="45.01113" lon="5.73673">
        <ele>1477.4</ele>
        <time>2021-05-29T07:28:27Z</time>
      </trkpt>
      <trkpt lat="45.01113" lon="5.73673">
        <ele>1477.6</ele>
        <time>2021-05-29T07:28:28Z</time>
      </trkpt>
      <trkpt lat="45.01114" lon="5.73674">
        <ele>1478</ele>
        <time>2021-05-29T07:28:29Z</time>
      </trkpt>
      <trkpt lat="45.01114" lon="5.73674">
        <ele>1478.2</ele>
        <time>2021-05-29T07:28:30Z</time>
      </trkpt>
      <trkpt lat="45.01114" lon="5.73675">
        <ele>1478.6</ele>
        <time>2021-05-29T07:28:31Z</time>
      </trkpt>
      <trkpt lat="45.01114" lon="5.73676">
        <ele>1478.8</ele>
        <time>2021-05-29T07:28:32Z</time>
      </trkpt>
      <trkpt lat="45.01114" lon="5.73676">
        <ele>1479</ele>
        <time>2021-05-29T07:28:33Z</time>
      </trkpt>
      <trkpt lat="45.01114" lon="5.73676">
        <ele>1479.4</ele>
        <time>2021-05-29T07:28:34Z</time>
      </trkpt>
      <trkpt lat="45.01114" lon="5.73676">
        <ele>1479.6</ele>
        <time>2021-05-29T07:28:35Z</time>
      </trkpt>
      <trkpt lat="45.01114" lon="5.73676">
        <ele>1480</ele>
        <time>2021-05-29T07:28:36Z</time>
      </trkpt>
      <trkpt lat="45.01115" lon="5.73679">
        <ele>1480</ele>
        <time>2021-05-29T07:28:37Z</time>
      </trkpt>
      <trkpt lat="45.01115" lon="5.73679">
        <ele>1480.4</ele>
        <time>2021-05-29T07:28:38Z</time>
      </trkpt>
      <trkpt lat="45.01115" lon="5.73679">
        <ele>1480.4</ele>
        <time>2021-05-29T07:28:39Z</time>
      </trkpt>
      <trkpt lat="45.01115" lon="5.73679">
        <ele>1480.8</ele>
        <time>2021-05-29T07:28:40Z</time>
      </trkpt>
      <trkpt lat="45.01115" lon="5.73679">
        <ele>1481</ele>
        <time>2021-05-29T07:28:41Z</time>
      </trkpt>
      <trkpt lat="45.01114" lon="5.73682">
        <ele>1481.4</ele>
        <time>2021-05-29T07:28:42Z</time>
      </trkpt>
      <trkpt lat="45.01114" lon="5.73682">
        <ele>1481.6</ele>
        <time>2021-05-29T07:28:43Z</time>
      </trkpt>
      <trkpt lat="45.01114" lon="5.73682">
        <ele>1482</ele>
        <time>2021-05-29T07:28:44Z</time>
      </trkpt>
      <trkpt lat="45.01114" lon="5.73683">
        <ele>1481.8</ele>
        <time>2021-05-29T07:28:45Z</time>
      </trkpt>
      <trkpt lat="45.01113" lon="5.73684">
        <ele>1482</ele>
        <time>2021-05-29T07:28:46Z</time>
      </trkpt>
      <trkpt lat="45.01113" lon="5.73685">
        <ele>1482.4</ele>
        <time>2021-05-29T07:28:47Z</time>
      </trkpt>
      <trkpt lat="45.01112" lon="5.73686">
        <ele>1482.4</ele>
        <time>2021-05-29T07:28:48Z</time>
      </trkpt>
      <trkpt lat="45.01112" lon="5.73687">
        <ele>1482.8</ele>
        <time>2021-05-29T07:28:49Z</time>
      </trkpt>
      <trkpt lat="45.01111" lon="5.73691">
        <ele>1483</ele>
        <time>2021-05-29T07:28:50Z</time>
      </trkpt>
      <trkpt lat="45.01111" lon="5.73691">
        <ele>1483.4</ele>
        <time>2021-05-29T07:28:51Z</time>
      </trkpt>
      <trkpt lat="45.01111" lon="5.73691">
        <ele>1483.4</ele>
        <time>2021-05-29T07:28:52Z</time>
      </trkpt>
      <trkpt lat="45.01111" lon="5.73691">
        <ele>1483.8</ele>
        <time>2021-05-29T07:28:53Z</time>
      </trkpt>
      <trkpt lat="45.01111" lon="5.73691">
        <ele>1484</ele>
        <time>2021-05-29T07:28:54Z</time>
      </trkpt>
      <trkpt lat="45.01111" lon="5.73693">
        <ele>1484</ele>
        <time>2021-05-29T07:28:55Z</time>
      </trkpt>
      <trkpt lat="45.01111" lon="5.73693">
        <ele>1484.4</ele>
        <time>2021-05-29T07:28:56Z</time>
      </trkpt>
      <trkpt lat="45.01111" lon="5.73693">
        <ele>1484.8</ele>
        <time>2021-05-29T07:28:57Z</time>
      </trkpt>
      <trkpt lat="45.01111" lon="5.73693">
        <ele>1484.8</ele>
        <time>2021-05-29T07:28:58Z</time>
      </trkpt>
      <trkpt lat="45.01112" lon="5.73696">
        <ele>1485.2</ele>
        <time>2021-05-29T07:28:59Z</time>
      </trkpt>
      <trkpt lat="45.01112" lon="5.73696">
        <ele>1485.4</ele>
        <time>2021-05-29T07:29:00Z</time>
      </trkpt>
      <trkpt lat="45.01112" lon="5.73696">
        <ele>1486</ele>
        <time>2021-05-29T07:29:01Z</time>
      </trkpt>
      <trkpt lat="45.01111" lon="5.73699">
        <ele>1486.2</ele>
        <time>2021-05-29T07:29:02Z</time>
      </trkpt>
      <trkpt lat="45.01111" lon="5.73699">
        <ele>1486.6</ele>
        <time>2021-05-29T07:29:03Z</time>
      </trkpt>
      <trkpt lat="45.01111" lon="5.73699">
        <ele>1487</ele>
        <time>2021-05-29T07:29:04Z</time>
      </trkpt>
      <trkpt lat="45.01111" lon="5.73699">
        <ele>1487.2</ele>
        <time>2021-05-29T07:29:05Z</time>
      </trkpt>
      <trkpt lat="45.01111" lon="5.73699">
        <ele>1487.4</ele>
        <time>2021-05-29T07:29:06Z</time>
      </trkpt>
      <trkpt lat="45.01111" lon="5.73703">
        <ele>1487.6</ele>
        <time>2021-05-29T07:29:07Z</time>
      </trkpt>
      <trkpt lat="45.01111" lon="5.73703">
        <ele>1488.2</ele>
        <time>2021-05-29T07:29:08Z</time>
      </trkpt>
      <trkpt lat="45.01111" lon="5.73703">
        <ele>1488.4</ele>
        <time>2021-05-29T07:29:09Z</time>
      </trkpt>
      <trkpt lat="45.01111" lon="5.73703">
        <ele>1488.6</ele>
        <time>2021-05-29T07:29:10Z</time>
      </trkpt>
      <trkpt lat="45.01111" lon="5.73703">
        <ele>1488.8</ele>
        <time>2021-05-29T07:29:11Z</time>
      </trkpt>
      <trkpt lat="45.0111" lon="5.73706">
        <ele>1489.2</ele>
        <time>2021-05-29T07:29:12Z</time>
      </trkpt>
      <trkpt lat="45.0111" lon="5.73706">
        <ele>1489.4</ele>
        <time>2021-05-29T07:29:13Z</time>
      </trkpt>
      <trkpt lat="45.0111" lon="5.73706">
        <ele>1489.6</ele>
        <time>2021-05-29T07:29:14Z</time>
      </trkpt>
      <trkpt lat="45.0111" lon="5.73706">
        <ele>1489.8</ele>
        <time>2021-05-29T07:29:15Z</time>
      </trkpt>
      <trkpt lat="45.0111" lon="5.73707">
        <ele>1490</ele>
        <time>2021-05-29T07:29:16Z</time>
      </trkpt>
      <trkpt lat="45.0111" lon="5.73707">
        <ele>1490.4</ele>
        <time>2021-05-29T07:29:17Z</time>
      </trkpt>
      <trkpt lat="45.0111" lon="5.73708">
        <ele>1490.8</ele>
        <time>2021-05-29T07:29:18Z</time>
      </trkpt>
      <trkpt lat="45.0111" lon="5.73709">
        <ele>1491.2</ele>
        <time>2021-05-29T07:29:19Z</time>
      </trkpt>
      <trkpt lat="45.01109" lon="5.73709">
        <ele>1491.2</ele>
        <time>2021-05-29T07:29:20Z</time>
      </trkpt>
      <trkpt lat="45.01109" lon="5.7371">
        <ele>1491.4</ele>
        <time>2021-05-29T07:29:21Z</time>
      </trkpt>
      <trkpt lat="45.01109" lon="5.7371">
        <ele>1491.8</ele>
        <time>2021-05-29T07:29:22Z</time>
      </trkpt>
      <trkpt lat="45.01109" lon="5.73711">
        <ele>1492</ele>
        <time>2021-05-29T07:29:23Z</time>
      </trkpt>
      <trkpt lat="45.01109" lon="5.73711">
        <ele>1492.4</ele>
        <time>2021-05-29T07:29:24Z</time>
      </trkpt>
      <trkpt lat="45.01109" lon="5.73712">
        <ele>1492.6</ele>
        <time>2021-05-29T07:29:25Z</time>
      </trkpt>
      <trkpt lat="45.01109" lon="5.73712">
        <ele>1492.8</ele>
        <time>2021-05-29T07:29:26Z</time>
      </trkpt>
      <trkpt lat="45.01108" lon="5.73713">
        <ele>1492.8</ele>
        <time>2021-05-29T07:29:27Z</time>
      </trkpt>
      <trkpt lat="45.01108" lon="5.73713">
        <ele>1493.4</ele>
        <time>2021-05-29T07:29:28Z</time>
      </trkpt>
      <trkpt lat="45.01108" lon="5.73717">
        <ele>1493.6</ele>
        <time>2021-05-29T07:29:29Z</time>
      </trkpt>
      <trkpt lat="45.01108" lon="5.73717">
        <ele>1494</ele>
        <time>2021-05-29T07:29:30Z</time>
      </trkpt>
      <trkpt lat="45.01108" lon="5.73717">
        <ele>1494.2</ele>
        <time>2021-05-29T07:29:31Z</time>
      </trkpt>
      <trkpt lat="45.01107" lon="5.73719">
        <ele>1494.6</ele>
        <time>2021-05-29T07:29:32Z</time>
      </trkpt>
      <trkpt lat="45.01107" lon="5.73719">
        <ele>1494.8</ele>
        <time>2021-05-29T07:29:33Z</time>
      </trkpt>
      <trkpt lat="45.01107" lon="5.73719">
        <ele>1495.2</ele>
        <time>2021-05-29T07:29:34Z</time>
      </trkpt>
      <trkpt lat="45.01107" lon="5.73719">
        <ele>1495.6</ele>
        <time>2021-05-29T07:29:35Z</time>
      </trkpt>
      <trkpt lat="45.01107" lon="5.73719">
        <ele>1495.8</ele>
        <time>2021-05-29T07:29:36Z</time>
      </trkpt>
      <trkpt lat="45.01106" lon="5.73722">
        <ele>1496</ele>
        <time>2021-05-29T07:29:37Z</time>
      </trkpt>
      <trkpt lat="45.01106" lon="5.73722">
        <ele>1496.4</ele>
        <time>2021-05-29T07:29:38Z</time>
      </trkpt>
      <trkpt lat="45.01106" lon="5.73722">
        <ele>1496.6</ele>
        <time>2021-05-29T07:29:39Z</time>
      </trkpt>
      <trkpt lat="45.01106" lon="5.73723">
        <ele>1496.8</ele>
        <time>2021-05-29T07:29:40Z</time>
      </trkpt>
      <trkpt lat="45.01106" lon="5.73725">
        <ele>1496.8</ele>
        <time>2021-05-29T07:29:41Z</time>
      </trkpt>
      <trkpt lat="45.01106" lon="5.73726">
        <ele>1496.8</ele>
        <time>2021-05-29T07:29:42Z</time>
      </trkpt>
      <trkpt lat="45.01105" lon="5.73727">
        <ele>1497.2</ele>
        <time>2021-05-29T07:29:43Z</time>
      </trkpt>
      <trkpt lat="45.01105" lon="5.73729">
        <ele>1497.6</ele>
        <time>2021-05-29T07:29:44Z</time>
      </trkpt>
      <trkpt lat="45.01105" lon="5.7373">
        <ele>1497.8</ele>
        <time>2021-05-29T07:29:45Z</time>
      </trkpt>
      <trkpt lat="45.01105" lon="5.73731">
        <ele>1498</ele>
        <time>2021-05-29T07:29:46Z</time>
      </trkpt>
      <trkpt lat="45.01104" lon="5.73733">
        <ele>1498</ele>
        <time>2021-05-29T07:29:47Z</time>
      </trkpt>
      <trkpt lat="45.01104" lon="5.73734">
        <ele>1498.6</ele>
        <time>2021-05-29T07:29:48Z</time>
      </trkpt>
      <trkpt lat="45.01105" lon="5.73735">
        <ele>1498.8</ele>
        <time>2021-05-29T07:29:49Z</time>
      </trkpt>
      <trkpt lat="45.01105" lon="5.73735">
        <ele>1499.2</ele>
        <time>2021-05-29T07:29:50Z</time>
      </trkpt>
      <trkpt lat="45.01105" lon="5.73736">
        <ele>1499.6</ele>
        <time>2021-05-29T07:29:51Z</time>
      </trkpt>
      <trkpt lat="45.01105" lon="5.73737">
        <ele>1499.8</ele>
        <time>2021-05-29T07:29:52Z</time>
      </trkpt>
      <trkpt lat="45.01106" lon="5.73737">
        <ele>1500.2</ele>
        <time>2021-05-29T07:29:53Z</time>
      </trkpt>
      <trkpt lat="45.01106" lon="5.73738">
        <ele>1500.6</ele>
        <time>2021-05-29T07:29:54Z</time>
      </trkpt>
      <trkpt lat="45.01106" lon="5.73738">
        <ele>1500.8</ele>
        <time>2021-05-29T07:29:55Z</time>
      </trkpt>
      <trkpt lat="45.01106" lon="5.73739">
        <ele>1501</ele>
        <time>2021-05-29T07:29:56Z</time>
      </trkpt>
      <trkpt lat="45.01107" lon="5.7374">
        <ele>1501.4</ele>
        <time>2021-05-29T07:29:57Z</time>
      </trkpt>
      <trkpt lat="45.01107" lon="5.7374">
        <ele>1501.4</ele>
        <time>2021-05-29T07:29:58Z</time>
      </trkpt>
      <trkpt lat="45.01107" lon="5.73741">
        <ele>1502</ele>
        <time>2021-05-29T07:30:00Z</time>
      </trkpt>
      <trkpt lat="45.01107" lon="5.73741">
        <ele>1502.4</ele>
        <time>2021-05-29T07:30:01Z</time>
      </trkpt>
      <trkpt lat="45.01108" lon="5.73742">
        <ele>1502.8</ele>
        <time>2021-05-29T07:30:02Z</time>
      </trkpt>
      <trkpt lat="45.01108" lon="5.73743">
        <ele>1503</ele>
        <time>2021-05-29T07:30:03Z</time>
      </trkpt>
      <trkpt lat="45.01108" lon="5.73743">
        <ele>1503.2</ele>
        <time>2021-05-29T07:30:04Z</time>
      </trkpt>
      <trkpt lat="45.01108" lon="5.73744">
        <ele>1503.4</ele>
        <time>2021-05-29T07:30:05Z</time>
      </trkpt>
      <trkpt lat="45.01109" lon="5.73744">
        <ele>1503.8</ele>
        <time>2021-05-29T07:30:06Z</time>
      </trkpt>
      <trkpt lat="45.01109" lon="5.73745">
        <ele>1504</ele>
        <time>2021-05-29T07:30:07Z</time>
      </trkpt>
      <trkpt lat="45.01109" lon="5.73746">
        <ele>1504.2</ele>
        <time>2021-05-29T07:30:08Z</time>
      </trkpt>
      <trkpt lat="45.01109" lon="5.73746">
        <ele>1504.6</ele>
        <time>2021-05-29T07:30:09Z</time>
      </trkpt>
      <trkpt lat="45.01109" lon="5.73747">
        <ele>1504.8</ele>
        <time>2021-05-29T07:30:10Z</time>
      </trkpt>
      <trkpt lat="45.01109" lon="5.73748">
        <ele>1505.2</ele>
        <time>2021-05-29T07:30:11Z</time>
      </trkpt>
      <trkpt lat="45.01109" lon="5.73749">
        <ele>1505.4</ele>
        <time>2021-05-29T07:30:12Z</time>
      </trkpt>
      <trkpt lat="45.01109" lon="5.73749">
        <ele>1505.6</ele>
        <time>2021-05-29T07:30:13Z</time>
      </trkpt>
      <trkpt lat="45.01109" lon="5.7375">
        <ele>1505.8</ele>
        <time>2021-05-29T07:30:14Z</time>
      </trkpt>
      <trkpt lat="45.01109" lon="5.73751">
        <ele>1506.2</ele>
        <time>2021-05-29T07:30:15Z</time>
      </trkpt>
      <trkpt lat="45.01109" lon="5.73752">
        <ele>1506.4</ele>
        <time>2021-05-29T07:30:16Z</time>
      </trkpt>
      <trkpt lat="45.01109" lon="5.73752">
        <ele>1506.6</ele>
        <time>2021-05-29T07:30:17Z</time>
      </trkpt>
      <trkpt lat="45.01109" lon="5.73753">
        <ele>1506.8</ele>
        <time>2021-05-29T07:30:18Z</time>
      </trkpt>
      <trkpt lat="45.01109" lon="5.73754">
        <ele>1507.2</ele>
        <time>2021-05-29T07:30:19Z</time>
      </trkpt>
      <trkpt lat="45.01109" lon="5.73754">
        <ele>1507.4</ele>
        <time>2021-05-29T07:30:20Z</time>
      </trkpt>
      <trkpt lat="45.01109" lon="5.73754">
        <ele>1507.8</ele>
        <time>2021-05-29T07:30:21Z</time>
      </trkpt>
      <trkpt lat="45.01109" lon="5.73754">
        <ele>1508</ele>
        <time>2021-05-29T07:30:22Z</time>
      </trkpt>
      <trkpt lat="45.0111" lon="5.73758">
        <ele>1508.2</ele>
        <time>2021-05-29T07:30:23Z</time>
      </trkpt>
      <trkpt lat="45.0111" lon="5.73758">
        <ele>1508.6</ele>
        <time>2021-05-29T07:30:24Z</time>
      </trkpt>
      <trkpt lat="45.0111" lon="5.73758">
        <ele>1508.8</ele>
        <time>2021-05-29T07:30:25Z</time>
      </trkpt>
      <trkpt lat="45.0111" lon="5.73758">
        <ele>1509</ele>
        <time>2021-05-29T07:30:26Z</time>
      </trkpt>
      <trkpt lat="45.0111" lon="5.73762">
        <ele>1509.2</ele>
        <time>2021-05-29T07:30:27Z</time>
      </trkpt>
      <trkpt lat="45.0111" lon="5.73762">
        <ele>1509.4</ele>
        <time>2021-05-29T07:30:28Z</time>
      </trkpt>
      <trkpt lat="45.0111" lon="5.73762">
        <ele>1509.6</ele>
        <time>2021-05-29T07:30:29Z</time>
      </trkpt>
      <trkpt lat="45.0111" lon="5.73762">
        <ele>1509.8</ele>
        <time>2021-05-29T07:30:30Z</time>
      </trkpt>
      <trkpt lat="45.0111" lon="5.73763">
        <ele>1510</ele>
        <time>2021-05-29T07:30:31Z</time>
      </trkpt>
      <trkpt lat="45.0111" lon="5.73764">
        <ele>1510.2</ele>
        <time>2021-05-29T07:30:32Z</time>
      </trkpt>
      <trkpt lat="45.0111" lon="5.73764">
        <ele>1510.4</ele>
        <time>2021-05-29T07:30:33Z</time>
      </trkpt>
      <trkpt lat="45.0111" lon="5.73765">
        <ele>1510.6</ele>
        <time>2021-05-29T07:30:34Z</time>
      </trkpt>
      <trkpt lat="45.0111" lon="5.73766">
        <ele>1510.8</ele>
        <time>2021-05-29T07:30:35Z</time>
      </trkpt>
      <trkpt lat="45.0111" lon="5.73766">
        <ele>1511.2</ele>
        <time>2021-05-29T07:30:36Z</time>
      </trkpt>
      <trkpt lat="45.01109" lon="5.73767">
        <ele>1511.8</ele>
        <time>2021-05-29T07:30:37Z</time>
      </trkpt>
      <trkpt lat="45.01109" lon="5.73768">
        <ele>1512</ele>
        <time>2021-05-29T07:30:38Z</time>
      </trkpt>
      <trkpt lat="45.01109" lon="5.73768">
        <ele>1512.2</ele>
        <time>2021-05-29T07:30:39Z</time>
      </trkpt>
      <trkpt lat="45.01109" lon="5.73769">
        <ele>1512.4</ele>
        <time>2021-05-29T07:30:40Z</time>
      </trkpt>
      <trkpt lat="45.01109" lon="5.7377">
        <ele>1512.8</ele>
        <time>2021-05-29T07:30:41Z</time>
      </trkpt>
      <trkpt lat="45.01109" lon="5.7377">
        <ele>1513</ele>
        <time>2021-05-29T07:30:42Z</time>
      </trkpt>
      <trkpt lat="45.01109" lon="5.73771">
        <ele>1513.4</ele>
        <time>2021-05-29T07:30:43Z</time>
      </trkpt>
      <trkpt lat="45.01109" lon="5.73772">
        <ele>1513.4</ele>
        <time>2021-05-29T07:30:44Z</time>
      </trkpt>
      <trkpt lat="45.01109" lon="5.73772">
        <ele>1513.6</ele>
        <time>2021-05-29T07:30:45Z</time>
      </trkpt>
      <trkpt lat="45.01108" lon="5.73773">
        <ele>1514</ele>
        <time>2021-05-29T07:30:46Z</time>
      </trkpt>
      <trkpt lat="45.01108" lon="5.73774">
        <ele>1514.2</ele>
        <time>2021-05-29T07:30:47Z</time>
      </trkpt>
      <trkpt lat="45.01108" lon="5.73774">
        <ele>1514.4</ele>
        <time>2021-05-29T07:30:48Z</time>
      </trkpt>
      <trkpt lat="45.01108" lon="5.73775">
        <ele>1514.4</ele>
        <time>2021-05-29T07:30:49Z</time>
      </trkpt>
      <trkpt lat="45.01108" lon="5.73775">
        <ele>1514.8</ele>
        <time>2021-05-29T07:30:50Z</time>
      </trkpt>
      <trkpt lat="45.01108" lon="5.73776">
        <ele>1515.2</ele>
        <time>2021-05-29T07:30:51Z</time>
      </trkpt>
      <trkpt lat="45.01108" lon="5.73777">
        <ele>1515.4</ele>
        <time>2021-05-29T07:30:52Z</time>
      </trkpt>
      <trkpt lat="45.01109" lon="5.73777">
        <ele>1515.6</ele>
        <time>2021-05-29T07:30:53Z</time>
      </trkpt>
      <trkpt lat="45.01109" lon="5.73778">
        <ele>1515.8</ele>
        <time>2021-05-29T07:30:54Z</time>
      </trkpt>
      <trkpt lat="45.01109" lon="5.73778">
        <ele>1516</ele>
        <time>2021-05-29T07:30:55Z</time>
      </trkpt>
      <trkpt lat="45.01109" lon="5.73779">
        <ele>1516.4</ele>
        <time>2021-05-29T07:30:56Z</time>
      </trkpt>
      <trkpt lat="45.01109" lon="5.7378">
        <ele>1516.6</ele>
        <time>2021-05-29T07:30:57Z</time>
      </trkpt>
      <trkpt lat="45.01109" lon="5.7378">
        <ele>1516.8</ele>
        <time>2021-05-29T07:30:58Z</time>
      </trkpt>
      <trkpt lat="45.01109" lon="5.73781">
        <ele>1517.2</ele>
        <time>2021-05-29T07:30:59Z</time>
      </trkpt>
      <trkpt lat="45.01108" lon="5.73782">
        <ele>1517.6</ele>
        <time>2021-05-29T07:31:00Z</time>
      </trkpt>
      <trkpt lat="45.01108" lon="5.73783">
        <ele>1518</ele>
        <time>2021-05-29T07:31:01Z</time>
      </trkpt>
      <trkpt lat="45.01108" lon="5.73783">
        <ele>1518</ele>
        <time>2021-05-29T07:31:02Z</time>
      </trkpt>
      <trkpt lat="45.01108" lon="5.73784">
        <ele>1518.4</ele>
        <time>2021-05-29T07:31:03Z</time>
      </trkpt>
      <trkpt lat="45.01108" lon="5.73785">
        <ele>1518.4</ele>
        <time>2021-05-29T07:31:04Z</time>
      </trkpt>
      <trkpt lat="45.01107" lon="5.73786">
        <ele>1518.6</ele>
        <time>2021-05-29T07:31:05Z</time>
      </trkpt>
      <trkpt lat="45.01107" lon="5.73787">
        <ele>1518.8</ele>
        <time>2021-05-29T07:31:06Z</time>
      </trkpt>
      <trkpt lat="45.01107" lon="5.73788">
        <ele>1519.2</ele>
        <time>2021-05-29T07:31:07Z</time>
      </trkpt>
      <trkpt lat="45.01107" lon="5.73788">
        <ele>1519.4</ele>
        <time>2021-05-29T07:31:08Z</time>
      </trkpt>
      <trkpt lat="45.01107" lon="5.73789">
        <ele>1519.6</ele>
        <time>2021-05-29T07:31:09Z</time>
      </trkpt>
      <trkpt lat="45.01107" lon="5.7379">
        <ele>1520</ele>
        <time>2021-05-29T07:31:10Z</time>
      </trkpt>
      <trkpt lat="45.01107" lon="5.7379">
        <ele>1520.4</ele>
        <time>2021-05-29T07:31:11Z</time>
      </trkpt>
      <trkpt lat="45.01107" lon="5.73791">
        <ele>1520.8</ele>
        <time>2021-05-29T07:31:12Z</time>
      </trkpt>
      <trkpt lat="45.01107" lon="5.73792">
        <ele>1520.8</ele>
        <time>2021-05-29T07:31:13Z</time>
      </trkpt>
      <trkpt lat="45.01107" lon="5.73793">
        <ele>1521.2</ele>
        <time>2021-05-29T07:31:14Z</time>
      </trkpt>
      <trkpt lat="45.01107" lon="5.73793">
        <ele>1521.6</ele>
        <time>2021-05-29T07:31:15Z</time>
      </trkpt>
      <trkpt lat="45.01107" lon="5.73794">
        <ele>1521.8</ele>
        <time>2021-05-29T07:31:16Z</time>
      </trkpt>
      <trkpt lat="45.01107" lon="5.73795">
        <ele>1522.2</ele>
        <time>2021-05-29T07:31:17Z</time>
      </trkpt>
      <trkpt lat="45.01107" lon="5.73795">
        <ele>1522.2</ele>
        <time>2021-05-29T07:31:18Z</time>
      </trkpt>
      <trkpt lat="45.01107" lon="5.73796">
        <ele>1522.4</ele>
        <time>2021-05-29T07:31:19Z</time>
      </trkpt>
      <trkpt lat="45.01107" lon="5.73797">
        <ele>1523</ele>
        <time>2021-05-29T07:31:20Z</time>
      </trkpt>
      <trkpt lat="45.01107" lon="5.73798">
        <ele>1523.2</ele>
        <time>2021-05-29T07:31:21Z</time>
      </trkpt>
      <trkpt lat="45.01107" lon="5.73798">
        <ele>1523.4</ele>
        <time>2021-05-29T07:31:22Z</time>
      </trkpt>
      <trkpt lat="45.01107" lon="5.73799">
        <ele>1523.6</ele>
        <time>2021-05-29T07:31:23Z</time>
      </trkpt>
      <trkpt lat="45.01108" lon="5.738">
        <ele>1524</ele>
        <time>2021-05-29T07:31:24Z</time>
      </trkpt>
      <trkpt lat="45.01108" lon="5.738">
        <ele>1523.8</ele>
        <time>2021-05-29T07:31:25Z</time>
      </trkpt>
      <trkpt lat="45.01108" lon="5.73801">
        <ele>1524.2</ele>
        <time>2021-05-29T07:31:26Z</time>
      </trkpt>
      <trkpt lat="45.01108" lon="5.73802">
        <ele>1524.4</ele>
        <time>2021-05-29T07:31:27Z</time>
      </trkpt>
      <trkpt lat="45.01108" lon="5.73803">
        <ele>1524.8</ele>
        <time>2021-05-29T07:31:28Z</time>
      </trkpt>
      <trkpt lat="45.01108" lon="5.73804">
        <ele>1525.2</ele>
        <time>2021-05-29T07:31:29Z</time>
      </trkpt>
      <trkpt lat="45.01108" lon="5.73804">
        <ele>1525.4</ele>
        <time>2021-05-29T07:31:30Z</time>
      </trkpt>
      <trkpt lat="45.01108" lon="5.73805">
        <ele>1525.8</ele>
        <time>2021-05-29T07:31:31Z</time>
      </trkpt>
      <trkpt lat="45.01108" lon="5.73806">
        <ele>1526.2</ele>
        <time>2021-05-29T07:31:32Z</time>
      </trkpt>
      <trkpt lat="45.01109" lon="5.73807">
        <ele>1526.2</ele>
        <time>2021-05-29T07:31:33Z</time>
      </trkpt>
      <trkpt lat="45.01109" lon="5.73808">
        <ele>1526.6</ele>
        <time>2021-05-29T07:31:34Z</time>
      </trkpt>
      <trkpt lat="45.01109" lon="5.73809">
        <ele>1526.8</ele>
        <time>2021-05-29T07:31:35Z</time>
      </trkpt>
      <trkpt lat="45.01109" lon="5.73809">
        <ele>1527</ele>
        <time>2021-05-29T07:31:36Z</time>
      </trkpt>
      <trkpt lat="45.01109" lon="5.7381">
        <ele>1527.2</ele>
        <time>2021-05-29T07:31:37Z</time>
      </trkpt>
      <trkpt lat="45.01109" lon="5.73811">
        <ele>1527.4</ele>
        <time>2021-05-29T07:31:38Z</time>
      </trkpt>
      <trkpt lat="45.01109" lon="5.73811">
        <ele>1527.6</ele>
        <time>2021-05-29T07:31:39Z</time>
      </trkpt>
      <trkpt lat="45.01109" lon="5.73812">
        <ele>1527.8</ele>
        <time>2021-05-29T07:31:40Z</time>
      </trkpt>
      <trkpt lat="45.01109" lon="5.73812">
        <ele>1527.8</ele>
        <time>2021-05-29T07:31:41Z</time>
      </trkpt>
      <trkpt lat="45.01109" lon="5.73813">
        <ele>1528</ele>
        <time>2021-05-29T07:31:42Z</time>
      </trkpt>
      <trkpt lat="45.01109" lon="5.73813">
        <ele>1528.4</ele>
        <time>2021-05-29T07:31:43Z</time>
      </trkpt>
      <trkpt lat="45.0111" lon="5.73814">
        <ele>1528.6</ele>
        <time>2021-05-29T07:31:44Z</time>
      </trkpt>
      <trkpt lat="45.0111" lon="5.73814">
        <ele>1528.8</ele>
        <time>2021-05-29T07:31:45Z</time>
      </trkpt>
      <trkpt lat="45.0111" lon="5.73815">
        <ele>1529.2</ele>
        <time>2021-05-29T07:31:46Z</time>
      </trkpt>
      <trkpt lat="45.0111" lon="5.73816">
        <ele>1529.4</ele>
        <time>2021-05-29T07:31:47Z</time>
      </trkpt>
      <trkpt lat="45.0111" lon="5.73816">
        <ele>1529.8</ele>
        <time>2021-05-29T07:31:48Z</time>
      </trkpt>
      <trkpt lat="45.0111" lon="5.73817">
        <ele>1530.2</ele>
        <time>2021-05-29T07:31:49Z</time>
      </trkpt>
      <trkpt lat="45.0111" lon="5.73817">
        <ele>1530.4</ele>
        <time>2021-05-29T07:31:50Z</time>
      </trkpt>
      <trkpt lat="45.0111" lon="5.73818">
        <ele>1530.4</ele>
        <time>2021-05-29T07:31:51Z</time>
      </trkpt>
      <trkpt lat="45.0111" lon="5.73818">
        <ele>1530.8</ele>
        <time>2021-05-29T07:31:52Z</time>
      </trkpt>
      <trkpt lat="45.0111" lon="5.73819">
        <ele>1531</ele>
        <time>2021-05-29T07:31:53Z</time>
      </trkpt>
      <trkpt lat="45.0111" lon="5.73819">
        <ele>1531.2</ele>
        <time>2021-05-29T07:31:54Z</time>
      </trkpt>
      <trkpt lat="45.0111" lon="5.7382">
        <ele>1531.6</ele>
        <time>2021-05-29T07:31:55Z</time>
      </trkpt>
      <trkpt lat="45.0111" lon="5.73821">
        <ele>1532</ele>
        <time>2021-05-29T07:31:56Z</time>
      </trkpt>
      <trkpt lat="45.0111" lon="5.73821">
        <ele>1532</ele>
        <time>2021-05-29T07:31:57Z</time>
      </trkpt>
      <trkpt lat="45.01111" lon="5.73822">
        <ele>1532.4</ele>
        <time>2021-05-29T07:31:58Z</time>
      </trkpt>
      <trkpt lat="45.01111" lon="5.73822">
        <ele>1532.8</ele>
        <time>2021-05-29T07:31:59Z</time>
      </trkpt>
      <trkpt lat="45.01111" lon="5.73823">
        <ele>1533</ele>
        <time>2021-05-29T07:32:00Z</time>
      </trkpt>
      <trkpt lat="45.01111" lon="5.73823">
        <ele>1533.2</ele>
        <time>2021-05-29T07:32:01Z</time>
      </trkpt>
      <trkpt lat="45.0111" lon="5.73824">
        <ele>1533.4</ele>
        <time>2021-05-29T07:32:02Z</time>
      </trkpt>
      <trkpt lat="45.0111" lon="5.73825">
        <ele>1533.6</ele>
        <time>2021-05-29T07:32:03Z</time>
      </trkpt>
      <trkpt lat="45.0111" lon="5.73825">
        <ele>1533.6</ele>
        <time>2021-05-29T07:32:04Z</time>
      </trkpt>
      <trkpt lat="45.0111" lon="5.73826">
        <ele>1534</ele>
        <time>2021-05-29T07:32:05Z</time>
      </trkpt>
      <trkpt lat="45.0111" lon="5.73827">
        <ele>1534.4</ele>
        <time>2021-05-29T07:32:06Z</time>
      </trkpt>
      <trkpt lat="45.0111" lon="5.73827">
        <ele>1534.6</ele>
        <time>2021-05-29T07:32:07Z</time>
      </trkpt>
      <trkpt lat="45.0111" lon="5.73828">
        <ele>1534.6</ele>
        <time>2021-05-29T07:32:08Z</time>
      </trkpt>
      <trkpt lat="45.0111" lon="5.73829">
        <ele>1535</ele>
        <time>2021-05-29T07:32:09Z</time>
      </trkpt>
      <trkpt lat="45.0111" lon="5.73829">
        <ele>1535.2</ele>
        <time>2021-05-29T07:32:10Z</time>
      </trkpt>
      <trkpt lat="45.0111" lon="5.7383">
        <ele>1535.4</ele>
        <time>2021-05-29T07:32:11Z</time>
      </trkpt>
      <trkpt lat="45.0111" lon="5.73831">
        <ele>1535.6</ele>
        <time>2021-05-29T07:32:12Z</time>
      </trkpt>
      <trkpt lat="45.01109" lon="5.73831">
        <ele>1536</ele>
        <time>2021-05-29T07:32:13Z</time>
      </trkpt>
      <trkpt lat="45.01109" lon="5.73832">
        <ele>1536</ele>
        <time>2021-05-29T07:32:14Z</time>
      </trkpt>
      <trkpt lat="45.01109" lon="5.73833">
        <ele>1536.4</ele>
        <time>2021-05-29T07:32:15Z</time>
      </trkpt>
      <trkpt lat="45.01109" lon="5.73833">
        <ele>1536.8</ele>
        <time>2021-05-29T07:32:16Z</time>
      </trkpt>
      <trkpt lat="45.01109" lon="5.73834">
        <ele>1536.8</ele>
        <time>2021-05-29T07:32:17Z</time>
      </trkpt>
      <trkpt lat="45.01109" lon="5.73834">
        <ele>1537</ele>
        <time>2021-05-29T07:32:18Z</time>
      </trkpt>
      <trkpt lat="45.01109" lon="5.73835">
        <ele>1537.4</ele>
        <time>2021-05-29T07:32:19Z</time>
      </trkpt>
      <trkpt lat="45.01109" lon="5.73835">
        <ele>1537.6</ele>
        <time>2021-05-29T07:32:20Z</time>
      </trkpt>
      <trkpt lat="45.01108" lon="5.73836">
        <ele>1537.8</ele>
        <time>2021-05-29T07:32:21Z</time>
      </trkpt>
      <trkpt lat="45.01108" lon="5.73836">
        <ele>1538</ele>
        <time>2021-05-29T07:32:22Z</time>
      </trkpt>
      <trkpt lat="45.01108" lon="5.73837">
        <ele>1538.4</ele>
        <time>2021-05-29T07:32:23Z</time>
      </trkpt>
      <trkpt lat="45.01108" lon="5.73837">
        <ele>1538.8</ele>
        <time>2021-05-29T07:32:24Z</time>
      </trkpt>
      <trkpt lat="45.01108" lon="5.73838">
        <ele>1539.2</ele>
        <time>2021-05-29T07:32:25Z</time>
      </trkpt>
      <trkpt lat="45.01108" lon="5.73838">
        <ele>1539.4</ele>
        <time>2021-05-29T07:32:26Z</time>
      </trkpt>
      <trkpt lat="45.01108" lon="5.73839">
        <ele>1539.6</ele>
        <time>2021-05-29T07:32:27Z</time>
      </trkpt>
      <trkpt lat="45.01107" lon="5.73839">
        <ele>1539.8</ele>
        <time>2021-05-29T07:32:28Z</time>
      </trkpt>
      <trkpt lat="45.01107" lon="5.7384">
        <ele>1540.2</ele>
        <time>2021-05-29T07:32:29Z</time>
      </trkpt>
      <trkpt lat="45.01107" lon="5.7384">
        <ele>1540.4</ele>
        <time>2021-05-29T07:32:30Z</time>
      </trkpt>
      <trkpt lat="45.01107" lon="5.73841">
        <ele>1540.8</ele>
        <time>2021-05-29T07:32:31Z</time>
      </trkpt>
      <trkpt lat="45.01107" lon="5.73842">
        <ele>1541.2</ele>
        <time>2021-05-29T07:32:32Z</time>
      </trkpt>
      <trkpt lat="45.01108" lon="5.73842">
        <ele>1541.4</ele>
        <time>2021-05-29T07:32:33Z</time>
      </trkpt>
      <trkpt lat="45.01108" lon="5.73843">
        <ele>1541.8</ele>
        <time>2021-05-29T07:32:34Z</time>
      </trkpt>
      <trkpt lat="45.01108" lon="5.73844">
        <ele>1542</ele>
        <time>2021-05-29T07:32:35Z</time>
      </trkpt>
      <trkpt lat="45.01108" lon="5.73844">
        <ele>1542.4</ele>
        <time>2021-05-29T07:32:36Z</time>
      </trkpt>
      <trkpt lat="45.01108" lon="5.73845">
        <ele>1542.6</ele>
        <time>2021-05-29T07:32:37Z</time>
      </trkpt>
      <trkpt lat="45.01108" lon="5.73846">
        <ele>1543</ele>
        <time>2021-05-29T07:32:38Z</time>
      </trkpt>
      <trkpt lat="45.01109" lon="5.73847">
        <ele>1543.2</ele>
        <time>2021-05-29T07:32:39Z</time>
      </trkpt>
      <trkpt lat="45.01109" lon="5.73847">
        <ele>1543.6</ele>
        <time>2021-05-29T07:32:40Z</time>
      </trkpt>
      <trkpt lat="45.01109" lon="5.73847">
        <ele>1544</ele>
        <time>2021-05-29T07:32:41Z</time>
      </trkpt>
      <trkpt lat="45.01109" lon="5.73847">
        <ele>1544.2</ele>
        <time>2021-05-29T07:32:42Z</time>
      </trkpt>
      <trkpt lat="45.01108" lon="5.73851">
        <ele>1544.6</ele>
        <time>2021-05-29T07:32:43Z</time>
      </trkpt>
      <trkpt lat="45.01108" lon="5.73851">
        <ele>1544.8</ele>
        <time>2021-05-29T07:32:44Z</time>
      </trkpt>
      <trkpt lat="45.01108" lon="5.73851">
        <ele>1545</ele>
        <time>2021-05-29T07:32:45Z</time>
      </trkpt>
      <trkpt lat="45.01108" lon="5.73851">
        <ele>1545.2</ele>
        <time>2021-05-29T07:32:46Z</time>
      </trkpt>
      <trkpt lat="45.01108" lon="5.73851">
        <ele>1545.4</ele>
        <time>2021-05-29T07:32:47Z</time>
      </trkpt>
      <trkpt lat="45.01108" lon="5.73855">
        <ele>1545.8</ele>
        <time>2021-05-29T07:32:48Z</time>
      </trkpt>
      <trkpt lat="45.01108" lon="5.73855">
        <ele>1545.8</ele>
        <time>2021-05-29T07:32:49Z</time>
      </trkpt>
      <trkpt lat="45.01108" lon="5.73855">
        <ele>1546</ele>
        <time>2021-05-29T07:32:50Z</time>
      </trkpt>
      <trkpt lat="45.01108" lon="5.73856">
        <ele>1546.2</ele>
        <time>2021-05-29T07:32:51Z</time>
      </trkpt>
      <trkpt lat="45.01108" lon="5.73856">
        <ele>1546.6</ele>
        <time>2021-05-29T07:32:52Z</time>
      </trkpt>
      <trkpt lat="45.01107" lon="5.73857">
        <ele>1546.8</ele>
        <time>2021-05-29T07:32:53Z</time>
      </trkpt>
      <trkpt lat="45.01107" lon="5.73858">
        <ele>1547.2</ele>
        <time>2021-05-29T07:32:54Z</time>
      </trkpt>
      <trkpt lat="45.01107" lon="5.73859">
        <ele>1547.4</ele>
        <time>2021-05-29T07:32:55Z</time>
      </trkpt>
      <trkpt lat="45.01107" lon="5.7386">
        <ele>1547.4</ele>
        <time>2021-05-29T07:32:56Z</time>
      </trkpt>
      <trkpt lat="45.01107" lon="5.7386">
        <ele>1547.6</ele>
        <time>2021-05-29T07:32:57Z</time>
      </trkpt>
      <trkpt lat="45.01107" lon="5.73861">
        <ele>1547.8</ele>
        <time>2021-05-29T07:32:58Z</time>
      </trkpt>
      <trkpt lat="45.01107" lon="5.73862">
        <ele>1548</ele>
        <time>2021-05-29T07:32:59Z</time>
      </trkpt>
      <trkpt lat="45.01107" lon="5.73863">
        <ele>1548.4</ele>
        <time>2021-05-29T07:33:00Z</time>
      </trkpt>
      <trkpt lat="45.01106" lon="5.73864">
        <ele>1548.6</ele>
        <time>2021-05-29T07:33:01Z</time>
      </trkpt>
      <trkpt lat="45.01106" lon="5.73864">
        <ele>1548.8</ele>
        <time>2021-05-29T07:33:02Z</time>
      </trkpt>
      <trkpt lat="45.01106" lon="5.73865">
        <ele>1549</ele>
        <time>2021-05-29T07:33:03Z</time>
      </trkpt>
      <trkpt lat="45.01106" lon="5.73866">
        <ele>1549</ele>
        <time>2021-05-29T07:33:04Z</time>
      </trkpt>
      <trkpt lat="45.01106" lon="5.73866">
        <ele>1549.4</ele>
        <time>2021-05-29T07:33:05Z</time>
      </trkpt>
      <trkpt lat="45.01106" lon="5.7387">
        <ele>1549.8</ele>
        <time>2021-05-29T07:33:06Z</time>
      </trkpt>
      <trkpt lat="45.01106" lon="5.7387">
        <ele>1550</ele>
        <time>2021-05-29T07:33:07Z</time>
      </trkpt>
      <trkpt lat="45.01106" lon="5.7387">
        <ele>1550.4</ele>
        <time>2021-05-29T07:33:08Z</time>
      </trkpt>
      <trkpt lat="45.01106" lon="5.7387">
        <ele>1550.6</ele>
        <time>2021-05-29T07:33:09Z</time>
      </trkpt>
      <trkpt lat="45.01106" lon="5.73873">
        <ele>1550.8</ele>
        <time>2021-05-29T07:33:10Z</time>
      </trkpt>
      <trkpt lat="45.01106" lon="5.73873">
        <ele>1551</ele>
        <time>2021-05-29T07:33:11Z</time>
      </trkpt>
      <trkpt lat="45.01106" lon="5.73873">
        <ele>1551.2</ele>
        <time>2021-05-29T07:33:12Z</time>
      </trkpt>
      <trkpt lat="45.01106" lon="5.73873">
        <ele>1551.4</ele>
        <time>2021-05-29T07:33:13Z</time>
      </trkpt>
      <trkpt lat="45.01106" lon="5.73873">
        <ele>1551.8</ele>
        <time>2021-05-29T07:33:14Z</time>
      </trkpt>
      <trkpt lat="45.01107" lon="5.73876">
        <ele>1551.8</ele>
        <time>2021-05-29T07:33:15Z</time>
      </trkpt>
      <trkpt lat="45.01107" lon="5.73876">
        <ele>1552.2</ele>
        <time>2021-05-29T07:33:16Z</time>
      </trkpt>
      <trkpt lat="45.01107" lon="5.73879">
        <ele>1552.4</ele>
        <time>2021-05-29T07:33:17Z</time>
      </trkpt>
      <trkpt lat="45.01107" lon="5.73879">
        <ele>1552.8</ele>
        <time>2021-05-29T07:33:18Z</time>
      </trkpt>
      <trkpt lat="45.01107" lon="5.73879">
        <ele>1553</ele>
        <time>2021-05-29T07:33:19Z</time>
      </trkpt>
      <trkpt lat="45.01107" lon="5.73879">
        <ele>1553.4</ele>
        <time>2021-05-29T07:33:20Z</time>
      </trkpt>
      <trkpt lat="45.01106" lon="5.73881">
        <ele>1553.6</ele>
        <time>2021-05-29T07:33:21Z</time>
      </trkpt>
      <trkpt lat="45.01106" lon="5.73881">
        <ele>1553.8</ele>
        <time>2021-05-29T07:33:22Z</time>
      </trkpt>
      <trkpt lat="45.01106" lon="5.73881">
        <ele>1554</ele>
        <time>2021-05-29T07:33:23Z</time>
      </trkpt>
      <trkpt lat="45.01106" lon="5.73885">
        <ele>1554.4</ele>
        <time>2021-05-29T07:33:24Z</time>
      </trkpt>
      <trkpt lat="45.01106" lon="5.73885">
        <ele>1554.6</ele>
        <time>2021-05-29T07:33:25Z</time>
      </trkpt>
      <trkpt lat="45.01106" lon="5.73885">
        <ele>1554.6</ele>
        <time>2021-05-29T07:33:26Z</time>
      </trkpt>
      <trkpt lat="45.01105" lon="5.73888">
        <ele>1555</ele>
        <time>2021-05-29T07:33:27Z</time>
      </trkpt>
      <trkpt lat="45.01105" lon="5.73888">
        <ele>1555.2</ele>
        <time>2021-05-29T07:33:28Z</time>
      </trkpt>
      <trkpt lat="45.01105" lon="5.73888">
        <ele>1555.4</ele>
        <time>2021-05-29T07:33:29Z</time>
      </trkpt>
      <trkpt lat="45.01105" lon="5.73891">
        <ele>1555.4</ele>
        <time>2021-05-29T07:33:30Z</time>
      </trkpt>
      <trkpt lat="45.01105" lon="5.73891">
        <ele>1555.6</ele>
        <time>2021-05-29T07:33:31Z</time>
      </trkpt>
      <trkpt lat="45.01104" lon="5.73893">
        <ele>1555.8</ele>
        <time>2021-05-29T07:33:32Z</time>
      </trkpt>
      <trkpt lat="45.01104" lon="5.73893">
        <ele>1556.2</ele>
        <time>2021-05-29T07:33:33Z</time>
      </trkpt>
      <trkpt lat="45.01104" lon="5.73893">
        <ele>1556.6</ele>
        <time>2021-05-29T07:33:34Z</time>
      </trkpt>
      <trkpt lat="45.01104" lon="5.73893">
        <ele>1556.6</ele>
        <time>2021-05-29T07:33:35Z</time>
      </trkpt>
      <trkpt lat="45.01104" lon="5.73896">
        <ele>1556.8</ele>
        <time>2021-05-29T07:33:36Z</time>
      </trkpt>
      <trkpt lat="45.01104" lon="5.73896">
        <ele>1556.8</ele>
        <time>2021-05-29T07:33:37Z</time>
      </trkpt>
      <trkpt lat="45.01104" lon="5.73896">
        <ele>1557</ele>
        <time>2021-05-29T07:33:38Z</time>
      </trkpt>
      <trkpt lat="45.01104" lon="5.73896">
        <ele>1557</ele>
        <time>2021-05-29T07:33:39Z</time>
      </trkpt>
      <trkpt lat="45.01104" lon="5.73896">
        <ele>1557</ele>
        <time>2021-05-29T07:33:40Z</time>
      </trkpt>
      <trkpt lat="45.01104" lon="5.73896">
        <ele>1557.2</ele>
        <time>2021-05-29T07:33:41Z</time>
      </trkpt>
      <trkpt lat="45.01104" lon="5.73896">
        <ele>1557.4</ele>
        <time>2021-05-29T07:33:42Z</time>
      </trkpt>
      <trkpt lat="45.01104" lon="5.73896">
        <ele>1557.4</ele>
        <time>2021-05-29T07:33:43Z</time>
      </trkpt>
      <trkpt lat="45.01104" lon="5.73896">
        <ele>1557.4</ele>
        <time>2021-05-29T07:33:44Z</time>
      </trkpt>
      <trkpt lat="45.01104" lon="5.73896">
        <ele>1557.4</ele>
        <time>2021-05-29T07:33:45Z</time>
      </trkpt>
      <trkpt lat="45.01104" lon="5.73896">
        <ele>1557.2</ele>
        <time>2021-05-29T07:33:46Z</time>
      </trkpt>
      <trkpt lat="45.01104" lon="5.73896">
        <ele>1557</ele>
        <time>2021-05-29T07:33:47Z</time>
      </trkpt>
      <trkpt lat="45.01104" lon="5.73896">
        <ele>1557.2</ele>
        <time>2021-05-29T07:33:48Z</time>
      </trkpt>
      <trkpt lat="45.01104" lon="5.73896">
        <ele>1557.2</ele>
        <time>2021-05-29T07:33:49Z</time>
      </trkpt>
      <trkpt lat="45.01104" lon="5.73896">
        <ele>1557</ele>
        <time>2021-05-29T07:33:50Z</time>
      </trkpt>
      <trkpt lat="45.01104" lon="5.73898">
        <ele>1557</ele>
        <time>2021-05-29T07:33:51Z</time>
      </trkpt>
      <trkpt lat="45.01104" lon="5.73898">
        <ele>1557</ele>
        <time>2021-05-29T07:33:52Z</time>
      </trkpt>
      <trkpt lat="45.01104" lon="5.73898">
        <ele>1557</ele>
        <time>2021-05-29T07:33:53Z</time>
      </trkpt>
      <trkpt lat="45.01104" lon="5.73901">
        <ele>1557</ele>
        <time>2021-05-29T07:33:54Z</time>
      </trkpt>
      <trkpt lat="45.01104" lon="5.73901">
        <ele>1557</ele>
        <time>2021-05-29T07:33:55Z</time>
      </trkpt>
      <trkpt lat="45.01104" lon="5.73904">
        <ele>1557</ele>
        <time>2021-05-29T07:33:56Z</time>
      </trkpt>
      <trkpt lat="45.01102" lon="5.73907">
        <ele>1557.2</ele>
        <time>2021-05-29T07:33:57Z</time>
      </trkpt>
      <trkpt lat="45.01102" lon="5.73907">
        <ele>1557.4</ele>
        <time>2021-05-29T07:33:58Z</time>
      </trkpt>
      <trkpt lat="45.01102" lon="5.73907">
        <ele>1557.2</ele>
        <time>2021-05-29T07:33:59Z</time>
      </trkpt>
      <trkpt lat="45.01102" lon="5.73907">
        <ele>1557.4</ele>
        <time>2021-05-29T07:34:00Z</time>
      </trkpt>
      <trkpt lat="45.01102" lon="5.73907">
        <ele>1557.4</ele>
        <time>2021-05-29T07:34:01Z</time>
      </trkpt>
      <trkpt lat="45.01101" lon="5.7391">
        <ele>1557.4</ele>
        <time>2021-05-29T07:34:02Z</time>
      </trkpt>
      <trkpt lat="45.01101" lon="5.73913">
        <ele>1557.6</ele>
        <time>2021-05-29T07:34:03Z</time>
      </trkpt>
      <trkpt lat="45.01101" lon="5.73913">
        <ele>1557.8</ele>
        <time>2021-05-29T07:34:04Z</time>
      </trkpt>
      <trkpt lat="45.01101" lon="5.73913">
        <ele>1558</ele>
        <time>2021-05-29T07:34:05Z</time>
      </trkpt>
      <trkpt lat="45.011" lon="5.73916">
        <ele>1558.2</ele>
        <time>2021-05-29T07:34:06Z</time>
      </trkpt>
      <trkpt lat="45.011" lon="5.73916">
        <ele>1558.4</ele>
        <time>2021-05-29T07:34:07Z</time>
      </trkpt>
      <trkpt lat="45.011" lon="5.73916">
        <ele>1558.4</ele>
        <time>2021-05-29T07:34:08Z</time>
      </trkpt>
      <trkpt lat="45.011" lon="5.73916">
        <ele>1558.2</ele>
        <time>2021-05-29T07:34:09Z</time>
      </trkpt>
      <trkpt lat="45.01101" lon="5.73919">
        <ele>1558.4</ele>
        <time>2021-05-29T07:34:10Z</time>
      </trkpt>
      <trkpt lat="45.01101" lon="5.73919">
        <ele>1558.8</ele>
        <time>2021-05-29T07:34:11Z</time>
      </trkpt>
      <trkpt lat="45.01101" lon="5.73921">
        <ele>1558.8</ele>
        <time>2021-05-29T07:34:12Z</time>
      </trkpt>
      <trkpt lat="45.01101" lon="5.73921">
        <ele>1559</ele>
        <time>2021-05-29T07:34:13Z</time>
      </trkpt>
      <trkpt lat="45.01101" lon="5.73921">
        <ele>1559</ele>
        <time>2021-05-29T07:34:14Z</time>
      </trkpt>
      <trkpt lat="45.01101" lon="5.73924">
        <ele>1559.4</ele>
        <time>2021-05-29T07:34:15Z</time>
      </trkpt>
      <trkpt lat="45.01101" lon="5.73924">
        <ele>1559.4</ele>
        <time>2021-05-29T07:34:16Z</time>
      </trkpt>
      <trkpt lat="45.01101" lon="5.73924">
        <ele>1559.6</ele>
        <time>2021-05-29T07:34:17Z</time>
      </trkpt>
      <trkpt lat="45.01101" lon="5.73924">
        <ele>1559.8</ele>
        <time>2021-05-29T07:34:18Z</time>
      </trkpt>
      <trkpt lat="45.01101" lon="5.73924">
        <ele>1560</ele>
        <time>2021-05-29T07:34:19Z</time>
      </trkpt>
      <trkpt lat="45.01101" lon="5.73924">
        <ele>1560.2</ele>
        <time>2021-05-29T07:34:20Z</time>
      </trkpt>
      <trkpt lat="45.01101" lon="5.73924">
        <ele>1560.2</ele>
        <time>2021-05-29T07:34:21Z</time>
      </trkpt>
      <trkpt lat="45.01101" lon="5.73924">
        <ele>1560.2</ele>
        <time>2021-05-29T07:34:22Z</time>
      </trkpt>
      <trkpt lat="45.01101" lon="5.73928">
        <ele>1560.2</ele>
        <time>2021-05-29T07:34:23Z</time>
      </trkpt>
      <trkpt lat="45.01101" lon="5.73928">
        <ele>1560.2</ele>
        <time>2021-05-29T07:34:24Z</time>
      </trkpt>
      <trkpt lat="45.01101" lon="5.73928">
        <ele>1560.4</ele>
        <time>2021-05-29T07:34:25Z</time>
      </trkpt>
      <trkpt lat="45.01101" lon="5.73928">
        <ele>1560.4</ele>
        <time>2021-05-29T07:34:26Z</time>
      </trkpt>
      <trkpt lat="45.01101" lon="5.73928">
        <ele>1560.4</ele>
        <time>2021-05-29T07:34:27Z</time>
      </trkpt>
      <trkpt lat="45.01101" lon="5.73928">
        <ele>1560.4</ele>
        <time>2021-05-29T07:34:28Z</time>
      </trkpt>
      <trkpt lat="45.01101" lon="5.73928">
        <ele>1560.6</ele>
        <time>2021-05-29T07:34:29Z</time>
      </trkpt>
      <trkpt lat="45.01101" lon="5.73928">
        <ele>1560.8</ele>
        <time>2021-05-29T07:34:30Z</time>
      </trkpt>
      <trkpt lat="45.01101" lon="5.73928">
        <ele>1561</ele>
        <time>2021-05-29T07:34:31Z</time>
      </trkpt>
      <trkpt lat="45.01101" lon="5.73928">
        <ele>1561</ele>
        <time>2021-05-29T07:34:32Z</time>
      </trkpt>
      <trkpt lat="45.01101" lon="5.73928">
        <ele>1561</ele>
        <time>2021-05-29T07:34:33Z</time>
      </trkpt>
      <trkpt lat="45.01101" lon="5.73928">
        <ele>1561</ele>
        <time>2021-05-29T07:34:34Z</time>
      </trkpt>
      <trkpt lat="45.01101" lon="5.73928">
        <ele>1560.8</ele>
        <time>2021-05-29T07:34:35Z</time>
      </trkpt>
      <trkpt lat="45.01101" lon="5.73928">
        <ele>1560.8</ele>
        <time>2021-05-29T07:34:36Z</time>
      </trkpt>
      <trkpt lat="45.01103" lon="5.7393">
        <ele>1560.8</ele>
        <time>2021-05-29T07:34:37Z</time>
      </trkpt>
      <trkpt lat="45.01103" lon="5.7393">
        <ele>1560.8</ele>
        <time>2021-05-29T07:34:38Z</time>
      </trkpt>
      <trkpt lat="45.01102" lon="5.73935">
        <ele>1560.6</ele>
        <time>2021-05-29T07:34:39Z</time>
      </trkpt>
      <trkpt lat="45.01101" lon="5.73938">
        <ele>1560.6</ele>
        <time>2021-05-29T07:34:40Z</time>
      </trkpt>
      <trkpt lat="45.01101" lon="5.73938">
        <ele>1560.4</ele>
        <time>2021-05-29T07:34:41Z</time>
      </trkpt>
      <trkpt lat="45.01101" lon="5.73938">
        <ele>1560.2</ele>
        <time>2021-05-29T07:34:42Z</time>
      </trkpt>
      <trkpt lat="45.01101" lon="5.73941">
        <ele>1560.2</ele>
        <time>2021-05-29T07:34:43Z</time>
      </trkpt>
      <trkpt lat="45.01101" lon="5.73941">
        <ele>1560.2</ele>
        <time>2021-05-29T07:34:44Z</time>
      </trkpt>
      <trkpt lat="45.01101" lon="5.73941">
        <ele>1560.6</ele>
        <time>2021-05-29T07:34:45Z</time>
      </trkpt>
      <trkpt lat="45.01101" lon="5.73943">
        <ele>1561</ele>
        <time>2021-05-29T07:34:46Z</time>
      </trkpt>
      <trkpt lat="45.01101" lon="5.73943">
        <ele>1560.8</ele>
        <time>2021-05-29T07:34:47Z</time>
      </trkpt>
      <trkpt lat="45.01101" lon="5.73943">
        <ele>1560.8</ele>
        <time>2021-05-29T07:34:48Z</time>
      </trkpt>
      <trkpt lat="45.01101" lon="5.73943">
        <ele>1560.6</ele>
        <time>2021-05-29T07:34:49Z</time>
      </trkpt>
      <trkpt lat="45.011" lon="5.73946">
        <ele>1560.6</ele>
        <time>2021-05-29T07:34:50Z</time>
      </trkpt>
      <trkpt lat="45.011" lon="5.73946">
        <ele>1560.4</ele>
        <time>2021-05-29T07:34:51Z</time>
      </trkpt>
      <trkpt lat="45.011" lon="5.73946">
        <ele>1560.4</ele>
        <time>2021-05-29T07:34:52Z</time>
      </trkpt>
      <trkpt lat="45.011" lon="5.73946">
        <ele>1560.4</ele>
        <time>2021-05-29T07:34:53Z</time>
      </trkpt>
      <trkpt lat="45.011" lon="5.73946">
        <ele>1560.4</ele>
        <time>2021-05-29T07:34:54Z</time>
      </trkpt>
      <trkpt lat="45.011" lon="5.73946">
        <ele>1560.4</ele>
        <time>2021-05-29T07:34:55Z</time>
      </trkpt>
      <trkpt lat="45.011" lon="5.73946">
        <ele>1560.4</ele>
        <time>2021-05-29T07:34:56Z</time>
      </trkpt>
      <trkpt lat="45.011" lon="5.73946">
        <ele>1560.4</ele>
        <time>2021-05-29T07:34:57Z</time>
      </trkpt>
      <trkpt lat="45.011" lon="5.73946">
        <ele>1560.2</ele>
        <time>2021-05-29T07:34:58Z</time>
      </trkpt>
      <trkpt lat="45.01102" lon="5.73948">
        <ele>1560.2</ele>
        <time>2021-05-29T07:34:59Z</time>
      </trkpt>
      <trkpt lat="45.01102" lon="5.73948">
        <ele>1560.2</ele>
        <time>2021-05-29T07:35:00Z</time>
      </trkpt>
      <trkpt lat="45.01102" lon="5.73948">
        <ele>1560.2</ele>
        <time>2021-05-29T07:35:01Z</time>
      </trkpt>
      <trkpt lat="45.01102" lon="5.73948">
        <ele>1560</ele>
        <time>2021-05-29T07:35:02Z</time>
      </trkpt>
      <trkpt lat="45.01102" lon="5.73948">
        <ele>1560</ele>
        <time>2021-05-29T07:35:03Z</time>
      </trkpt>
      <trkpt lat="45.01102" lon="5.73948">
        <ele>1560.2</ele>
        <time>2021-05-29T07:35:04Z</time>
      </trkpt>
      <trkpt lat="45.01102" lon="5.73948">
        <ele>1560</ele>
        <time>2021-05-29T07:35:05Z</time>
      </trkpt>
      <trkpt lat="45.01102" lon="5.73948">
        <ele>1560.2</ele>
        <time>2021-05-29T07:35:06Z</time>
      </trkpt>
      <trkpt lat="45.01102" lon="5.73948">
        <ele>1560</ele>
        <time>2021-05-29T07:35:07Z</time>
      </trkpt>
      <trkpt lat="45.01102" lon="5.73948">
        <ele>1560</ele>
        <time>2021-05-29T07:35:08Z</time>
      </trkpt>
      <trkpt lat="45.01102" lon="5.73948">
        <ele>1560.2</ele>
        <time>2021-05-29T07:35:09Z</time>
      </trkpt>
      <trkpt lat="45.01102" lon="5.73948">
        <ele>1560.2</ele>
        <time>2021-05-29T07:35:10Z</time>
      </trkpt>
      <trkpt lat="45.01102" lon="5.73948">
        <ele>1560.2</ele>
        <time>2021-05-29T07:35:11Z</time>
      </trkpt>
      <trkpt lat="45.01102" lon="5.73948">
        <ele>1560.2</ele>
        <time>2021-05-29T07:35:12Z</time>
      </trkpt>
      <trkpt lat="45.01102" lon="5.73948">
        <ele>1560.2</ele>
        <time>2021-05-29T07:35:13Z</time>
      </trkpt>
      <trkpt lat="45.01102" lon="5.73948">
        <ele>1560.4</ele>
        <time>2021-05-29T07:35:14Z</time>
      </trkpt>
      <trkpt lat="45.01102" lon="5.73948">
        <ele>1560.6</ele>
        <time>2021-05-29T07:35:15Z</time>
      </trkpt>
      <trkpt lat="45.01102" lon="5.73948">
        <ele>1560.6</ele>
        <time>2021-05-29T07:35:16Z</time>
      </trkpt>
      <trkpt lat="45.01102" lon="5.73948">
        <ele>1560.4</ele>
        <time>2021-05-29T07:35:17Z</time>
      </trkpt>
      <trkpt lat="45.01102" lon="5.73948">
        <ele>1560.4</ele>
        <time>2021-05-29T07:35:18Z</time>
      </trkpt>
      <trkpt lat="45.01102" lon="5.73948">
        <ele>1560.2</ele>
        <time>2021-05-29T07:35:19Z</time>
      </trkpt>
      <trkpt lat="45.01102" lon="5.73948">
        <ele>1560.2</ele>
        <time>2021-05-29T07:35:20Z</time>
      </trkpt>
      <trkpt lat="45.01102" lon="5.73948">
        <ele>1560</ele>
        <time>2021-05-29T07:35:21Z</time>
      </trkpt>
      <trkpt lat="45.01103" lon="5.7395">
        <ele>1560</ele>
        <time>2021-05-29T07:35:22Z</time>
      </trkpt>
      <trkpt lat="45.01103" lon="5.7395">
        <ele>1560.2</ele>
        <time>2021-05-29T07:35:23Z</time>
      </trkpt>
      <trkpt lat="45.01103" lon="5.7395">
        <ele>1560</ele>
        <time>2021-05-29T07:35:24Z</time>
      </trkpt>
      <trkpt lat="45.01103" lon="5.7395">
        <ele>1559.8</ele>
        <time>2021-05-29T07:35:25Z</time>
      </trkpt>
      <trkpt lat="45.01103" lon="5.7395">
        <ele>1560</ele>
        <time>2021-05-29T07:35:26Z</time>
      </trkpt>
      <trkpt lat="45.01103" lon="5.7395">
        <ele>1560.2</ele>
        <time>2021-05-29T07:35:27Z</time>
      </trkpt>
      <trkpt lat="45.01103" lon="5.7395">
        <ele>1560</ele>
        <time>2021-05-29T07:35:28Z</time>
      </trkpt>
      <trkpt lat="45.01103" lon="5.7395">
        <ele>1560</ele>
        <time>2021-05-29T07:35:29Z</time>
      </trkpt>
      <trkpt lat="45.01103" lon="5.7395">
        <ele>1560.2</ele>
        <time>2021-05-29T07:35:30Z</time>
      </trkpt>
      <trkpt lat="45.01103" lon="5.7395">
        <ele>1560.2</ele>
        <time>2021-05-29T07:35:31Z</time>
      </trkpt>
      <trkpt lat="45.01103" lon="5.7395">
        <ele>1560.2</ele>
        <time>2021-05-29T07:35:32Z</time>
      </trkpt>
      <trkpt lat="45.01103" lon="5.7395">
        <ele>1560.2</ele>
        <time>2021-05-29T07:35:33Z</time>
      </trkpt>
      <trkpt lat="45.01103" lon="5.7395">
        <ele>1560.2</ele>
        <time>2021-05-29T07:35:34Z</time>
      </trkpt>
      <trkpt lat="45.01103" lon="5.7395">
        <ele>1560.2</ele>
        <time>2021-05-29T07:35:35Z</time>
      </trkpt>
      <trkpt lat="45.01103" lon="5.7395">
        <ele>1560</ele>
        <time>2021-05-29T07:35:36Z</time>
      </trkpt>
      <trkpt lat="45.01103" lon="5.7395">
        <ele>1560</ele>
        <time>2021-05-29T07:35:37Z</time>
      </trkpt>
      <trkpt lat="45.01103" lon="5.7395">
        <ele>1560</ele>
        <time>2021-05-29T07:35:38Z</time>
      </trkpt>
      <trkpt lat="45.01105" lon="5.73951">
        <ele>1560.2</ele>
        <time>2021-05-29T07:35:39Z</time>
      </trkpt>
      <trkpt lat="45.01105" lon="5.73951">
        <ele>1560</ele>
        <time>2021-05-29T07:35:40Z</time>
      </trkpt>
      <trkpt lat="45.01105" lon="5.73951">
        <ele>1560</ele>
        <time>2021-05-29T07:35:41Z</time>
      </trkpt>
      <trkpt lat="45.01106" lon="5.73953">
        <ele>1560.2</ele>
        <time>2021-05-29T07:35:42Z</time>
      </trkpt>
      <trkpt lat="45.01106" lon="5.73953">
        <ele>1560.2</ele>
        <time>2021-05-29T07:35:43Z</time>
      </trkpt>
      <trkpt lat="45.01106" lon="5.73953">
        <ele>1560.2</ele>
        <time>2021-05-29T07:35:44Z</time>
      </trkpt>
      <trkpt lat="45.01108" lon="5.73955">
        <ele>1560.4</ele>
        <time>2021-05-29T07:35:45Z</time>
      </trkpt>
      <trkpt lat="45.01108" lon="5.73955">
        <ele>1560.6</ele>
        <time>2021-05-29T07:35:46Z</time>
      </trkpt>
      <trkpt lat="45.01108" lon="5.73955">
        <ele>1560.8</ele>
        <time>2021-05-29T07:35:47Z</time>
      </trkpt>
      <trkpt lat="45.01108" lon="5.73955">
        <ele>1560.8</ele>
        <time>2021-05-29T07:35:48Z</time>
      </trkpt>
      <trkpt lat="45.01109" lon="5.73957">
        <ele>1561.2</ele>
        <time>2021-05-29T07:35:49Z</time>
      </trkpt>
      <trkpt lat="45.01109" lon="5.73957">
        <ele>1561.4</ele>
        <time>2021-05-29T07:35:50Z</time>
      </trkpt>
      <trkpt lat="45.01109" lon="5.73957">
        <ele>1561.6</ele>
        <time>2021-05-29T07:35:51Z</time>
      </trkpt>
      <trkpt lat="45.01109" lon="5.73957">
        <ele>1562</ele>
        <time>2021-05-29T07:35:52Z</time>
      </trkpt>
      <trkpt lat="45.01109" lon="5.73957">
        <ele>1562.2</ele>
        <time>2021-05-29T07:35:53Z</time>
      </trkpt>
      <trkpt lat="45.01109" lon="5.73957">
        <ele>1562.4</ele>
        <time>2021-05-29T07:35:54Z</time>
      </trkpt>
      <trkpt lat="45.01109" lon="5.73957">
        <ele>1562.4</ele>
        <time>2021-05-29T07:35:55Z</time>
      </trkpt>
      <trkpt lat="45.01109" lon="5.73957">
        <ele>1562.2</ele>
        <time>2021-05-29T07:35:56Z</time>
      </trkpt>
      <trkpt lat="45.01109" lon="5.73957">
        <ele>1562.2</ele>
        <time>2021-05-29T07:35:57Z</time>
      </trkpt>
      <trkpt lat="45.01109" lon="5.73957">
        <ele>1562.2</ele>
        <time>2021-05-29T07:35:58Z</time>
      </trkpt>
      <trkpt lat="45.01109" lon="5.73957">
        <ele>1562.4</ele>
        <time>2021-05-29T07:35:59Z</time>
      </trkpt>
      <trkpt lat="45.01109" lon="5.73957">
        <ele>1562.2</ele>
        <time>2021-05-29T07:36:00Z</time>
      </trkpt>
      <trkpt lat="45.01109" lon="5.73957">
        <ele>1562.2</ele>
        <time>2021-05-29T07:36:01Z</time>
      </trkpt>
      <trkpt lat="45.01109" lon="5.73957">
        <ele>1562.2</ele>
        <time>2021-05-29T07:36:02Z</time>
      </trkpt>
      <trkpt lat="45.01109" lon="5.73957">
        <ele>1561.8</ele>
        <time>2021-05-29T07:36:03Z</time>
      </trkpt>
      <trkpt lat="45.01109" lon="5.73957">
        <ele>1561.8</ele>
        <time>2021-05-29T07:36:04Z</time>
      </trkpt>
      <trkpt lat="45.01109" lon="5.73957">
        <ele>1561.8</ele>
        <time>2021-05-29T07:36:05Z</time>
      </trkpt>
      <trkpt lat="45.01109" lon="5.73957">
        <ele>1561.6</ele>
        <time>2021-05-29T07:36:06Z</time>
      </trkpt>
      <trkpt lat="45.01109" lon="5.73957">
        <ele>1561.6</ele>
        <time>2021-05-29T07:36:07Z</time>
      </trkpt>
      <trkpt lat="45.01109" lon="5.73957">
        <ele>1561.6</ele>
        <time>2021-05-29T07:36:08Z</time>
      </trkpt>
      <trkpt lat="45.01109" lon="5.73957">
        <ele>1561.6</ele>
        <time>2021-05-29T07:36:09Z</time>
      </trkpt>
      <trkpt lat="45.01109" lon="5.73957">
        <ele>1561.6</ele>
        <time>2021-05-29T07:36:10Z</time>
      </trkpt>
      <trkpt lat="45.01109" lon="5.73957">
        <ele>1561.4</ele>
        <time>2021-05-29T07:36:11Z</time>
      </trkpt>
      <trkpt lat="45.01109" lon="5.73957">
        <ele>1561.4</ele>
        <time>2021-05-29T07:36:12Z</time>
      </trkpt>
      <trkpt lat="45.01109" lon="5.73957">
        <ele>1561.6</ele>
        <time>2021-05-29T07:36:13Z</time>
      </trkpt>
      <trkpt lat="45.01109" lon="5.73957">
        <ele>1561.8</ele>
        <time>2021-05-29T07:36:14Z</time>
      </trkpt>
      <trkpt lat="45.01109" lon="5.73957">
        <ele>1561.8</ele>
        <time>2021-05-29T07:36:15Z</time>
      </trkpt>
      <trkpt lat="45.01109" lon="5.73957">
        <ele>1561.8</ele>
        <time>2021-05-29T07:36:16Z</time>
      </trkpt>
      <trkpt lat="45.01109" lon="5.73957">
        <ele>1561.8</ele>
        <time>2021-05-29T07:36:17Z</time>
      </trkpt>
      <trkpt lat="45.01109" lon="5.73957">
        <ele>1561.8</ele>
        <time>2021-05-29T07:36:18Z</time>
      </trkpt>
      <trkpt lat="45.01109" lon="5.73957">
        <ele>1561.6</ele>
        <time>2021-05-29T07:36:19Z</time>
      </trkpt>
      <trkpt lat="45.01109" lon="5.73957">
        <ele>1561.6</ele>
        <time>2021-05-29T07:36:20Z</time>
      </trkpt>
      <trkpt lat="45.01109" lon="5.73957">
        <ele>1561.6</ele>
        <time>2021-05-29T07:36:21Z</time>
      </trkpt>
      <trkpt lat="45.01109" lon="5.73957">
        <ele>1561.6</ele>
        <time>2021-05-29T07:36:22Z</time>
      </trkpt>
      <trkpt lat="45.01109" lon="5.73957">
        <ele>1561.6</ele>
        <time>2021-05-29T07:36:23Z</time>
      </trkpt>
      <trkpt lat="45.01109" lon="5.73957">
        <ele>1561.4</ele>
        <time>2021-05-29T07:36:24Z</time>
      </trkpt>
      <trkpt lat="45.0111" lon="5.73955">
        <ele>1561</ele>
        <time>2021-05-29T07:36:25Z</time>
      </trkpt>
      <trkpt lat="45.0111" lon="5.73955">
        <ele>1560.8</ele>
        <time>2021-05-29T07:36:26Z</time>
      </trkpt>
      <trkpt lat="45.0111" lon="5.73955">
        <ele>1560.8</ele>
        <time>2021-05-29T07:36:27Z</time>
      </trkpt>
      <trkpt lat="45.0111" lon="5.73955">
        <ele>1561</ele>
        <time>2021-05-29T07:36:28Z</time>
      </trkpt>
      <trkpt lat="45.01112" lon="5.73954">
        <ele>1560.8</ele>
        <time>2021-05-29T07:36:29Z</time>
      </trkpt>
      <trkpt lat="45.01112" lon="5.73954">
        <ele>1560.8</ele>
        <time>2021-05-29T07:36:30Z</time>
      </trkpt>
      <trkpt lat="45.01112" lon="5.73954">
        <ele>1560.8</ele>
        <time>2021-05-29T07:36:31Z</time>
      </trkpt>
      <trkpt lat="45.01114" lon="5.73955">
        <ele>1561</ele>
        <time>2021-05-29T07:36:32Z</time>
      </trkpt>
      <trkpt lat="45.01114" lon="5.73955">
        <ele>1561.4</ele>
        <time>2021-05-29T07:36:33Z</time>
      </trkpt>
      <trkpt lat="45.01116" lon="5.73957">
        <ele>1561.2</ele>
        <time>2021-05-29T07:36:34Z</time>
      </trkpt>
      <trkpt lat="45.01116" lon="5.73957">
        <ele>1561.4</ele>
        <time>2021-05-29T07:36:35Z</time>
      </trkpt>
      <trkpt lat="45.01117" lon="5.73959">
        <ele>1561.4</ele>
        <time>2021-05-29T07:36:36Z</time>
      </trkpt>
      <trkpt lat="45.01117" lon="5.73959">
        <ele>1561.8</ele>
        <time>2021-05-29T07:36:37Z</time>
      </trkpt>
      <trkpt lat="45.01117" lon="5.73959">
        <ele>1561.8</ele>
        <time>2021-05-29T07:36:38Z</time>
      </trkpt>
      <trkpt lat="45.01117" lon="5.73959">
        <ele>1561.8</ele>
        <time>2021-05-29T07:36:39Z</time>
      </trkpt>
      <trkpt lat="45.01117" lon="5.73959">
        <ele>1562</ele>
        <time>2021-05-29T07:36:40Z</time>
      </trkpt>
      <trkpt lat="45.01117" lon="5.73959">
        <ele>1562.2</ele>
        <time>2021-05-29T07:36:41Z</time>
      </trkpt>
      <trkpt lat="45.0112" lon="5.7396">
        <ele>1562.4</ele>
        <time>2021-05-29T07:36:42Z</time>
      </trkpt>
      <trkpt lat="45.01121" lon="5.7396">
        <ele>1562.4</ele>
        <time>2021-05-29T07:36:43Z</time>
      </trkpt>
      <trkpt lat="45.01121" lon="5.7396">
        <ele>1562.8</ele>
        <time>2021-05-29T07:36:44Z</time>
      </trkpt>
      <trkpt lat="45.01121" lon="5.7396">
        <ele>1563</ele>
        <time>2021-05-29T07:36:45Z</time>
      </trkpt>
      <trkpt lat="45.01124" lon="5.7396">
        <ele>1563.4</ele>
        <time>2021-05-29T07:36:46Z</time>
      </trkpt>
      <trkpt lat="45.01124" lon="5.7396">
        <ele>1563.6</ele>
        <time>2021-05-29T07:36:47Z</time>
      </trkpt>
      <trkpt lat="45.01124" lon="5.7396">
        <ele>1563.8</ele>
        <time>2021-05-29T07:36:48Z</time>
      </trkpt>
      <trkpt lat="45.01126" lon="5.73959">
        <ele>1564</ele>
        <time>2021-05-29T07:36:49Z</time>
      </trkpt>
      <trkpt lat="45.01126" lon="5.73959">
        <ele>1563.8</ele>
        <time>2021-05-29T07:36:50Z</time>
      </trkpt>
      <trkpt lat="45.01126" lon="5.73959">
        <ele>1564</ele>
        <time>2021-05-29T07:36:51Z</time>
      </trkpt>
      <trkpt lat="45.01126" lon="5.73959">
        <ele>1564.2</ele>
        <time>2021-05-29T07:36:52Z</time>
      </trkpt>
      <trkpt lat="45.01128" lon="5.73958">
        <ele>1564.4</ele>
        <time>2021-05-29T07:36:53Z</time>
      </trkpt>
      <trkpt lat="45.01128" lon="5.73958">
        <ele>1564.6</ele>
        <time>2021-05-29T07:36:54Z</time>
      </trkpt>
      <trkpt lat="45.0113" lon="5.73959">
        <ele>1564.6</ele>
        <time>2021-05-29T07:36:55Z</time>
      </trkpt>
      <trkpt lat="45.0113" lon="5.73959">
        <ele>1564.8</ele>
        <time>2021-05-29T07:36:56Z</time>
      </trkpt>
      <trkpt lat="45.0113" lon="5.73959">
        <ele>1565</ele>
        <time>2021-05-29T07:36:57Z</time>
      </trkpt>
      <trkpt lat="45.01133" lon="5.7396">
        <ele>1565.2</ele>
        <time>2021-05-29T07:36:58Z</time>
      </trkpt>
      <trkpt lat="45.01133" lon="5.7396">
        <ele>1565.2</ele>
        <time>2021-05-29T07:36:59Z</time>
      </trkpt>
      <trkpt lat="45.01133" lon="5.7396">
        <ele>1565.6</ele>
        <time>2021-05-29T07:37:00Z</time>
      </trkpt>
      <trkpt lat="45.01134" lon="5.7396">
        <ele>1565.8</ele>
        <time>2021-05-29T07:37:01Z</time>
      </trkpt>
      <trkpt lat="45.01135" lon="5.7396">
        <ele>1566</ele>
        <time>2021-05-29T07:37:02Z</time>
      </trkpt>
      <trkpt lat="45.01137" lon="5.73961">
        <ele>1566.6</ele>
        <time>2021-05-29T07:37:03Z</time>
      </trkpt>
      <trkpt lat="45.01138" lon="5.73961">
        <ele>1567</ele>
        <time>2021-05-29T07:37:04Z</time>
      </trkpt>
      <trkpt lat="45.01139" lon="5.73962">
        <ele>1567.6</ele>
        <time>2021-05-29T07:37:05Z</time>
      </trkpt>
      <trkpt lat="45.0114" lon="5.73962">
        <ele>1567.8</ele>
        <time>2021-05-29T07:37:06Z</time>
      </trkpt>
      <trkpt lat="45.01141" lon="5.73962">
        <ele>1567.8</ele>
        <time>2021-05-29T07:37:07Z</time>
      </trkpt>
      <trkpt lat="45.01141" lon="5.73962">
        <ele>1568.4</ele>
        <time>2021-05-29T07:37:08Z</time>
      </trkpt>
      <trkpt lat="45.01144" lon="5.73963">
        <ele>1568.6</ele>
        <time>2021-05-29T07:37:09Z</time>
      </trkpt>
      <trkpt lat="45.01144" lon="5.73963">
        <ele>1569</ele>
        <time>2021-05-29T07:37:10Z</time>
      </trkpt>
      <trkpt lat="45.01144" lon="5.73963">
        <ele>1569.4</ele>
        <time>2021-05-29T07:37:11Z</time>
      </trkpt>
      <trkpt lat="45.01144" lon="5.73963">
        <ele>1569.6</ele>
        <time>2021-05-29T07:37:12Z</time>
      </trkpt>
      <trkpt lat="45.01144" lon="5.73963">
        <ele>1569.8</ele>
        <time>2021-05-29T07:37:13Z</time>
      </trkpt>
      <trkpt lat="45.01147" lon="5.73964">
        <ele>1569.8</ele>
        <time>2021-05-29T07:37:14Z</time>
      </trkpt>
      <trkpt lat="45.01147" lon="5.73964">
        <ele>1569.8</ele>
        <time>2021-05-29T07:37:15Z</time>
      </trkpt>
      <trkpt lat="45.01147" lon="5.73964">
        <ele>1569.8</ele>
        <time>2021-05-29T07:37:16Z</time>
      </trkpt>
      <trkpt lat="45.01148" lon="5.73964">
        <ele>1570</ele>
        <time>2021-05-29T07:37:17Z</time>
      </trkpt>
      <trkpt lat="45.01149" lon="5.73964">
        <ele>1570.2</ele>
        <time>2021-05-29T07:37:18Z</time>
      </trkpt>
      <trkpt lat="45.01149" lon="5.73965">
        <ele>1570.2</ele>
        <time>2021-05-29T07:37:19Z</time>
      </trkpt>
      <trkpt lat="45.0115" lon="5.73965">
        <ele>1570.6</ele>
        <time>2021-05-29T07:37:20Z</time>
      </trkpt>
      <trkpt lat="45.01151" lon="5.73965">
        <ele>1570.8</ele>
        <time>2021-05-29T07:37:21Z</time>
      </trkpt>
      <trkpt lat="45.01152" lon="5.73965">
        <ele>1571.2</ele>
        <time>2021-05-29T07:37:22Z</time>
      </trkpt>
      <trkpt lat="45.01153" lon="5.73965">
        <ele>1571.4</ele>
        <time>2021-05-29T07:37:23Z</time>
      </trkpt>
      <trkpt lat="45.01154" lon="5.73966">
        <ele>1571.4</ele>
        <time>2021-05-29T07:37:24Z</time>
      </trkpt>
      <trkpt lat="45.01157" lon="5.73968">
        <ele>1571.8</ele>
        <time>2021-05-29T07:37:25Z</time>
      </trkpt>
      <trkpt lat="45.01157" lon="5.73968">
        <ele>1572.2</ele>
        <time>2021-05-29T07:37:26Z</time>
      </trkpt>
      <trkpt lat="45.01157" lon="5.73968">
        <ele>1572.4</ele>
        <time>2021-05-29T07:37:27Z</time>
      </trkpt>
      <trkpt lat="45.0116" lon="5.7397">
        <ele>1572.6</ele>
        <time>2021-05-29T07:37:28Z</time>
      </trkpt>
      <trkpt lat="45.01162" lon="5.73971">
        <ele>1572.8</ele>
        <time>2021-05-29T07:37:29Z</time>
      </trkpt>
      <trkpt lat="45.01162" lon="5.73971">
        <ele>1573</ele>
        <time>2021-05-29T07:37:30Z</time>
      </trkpt>
      <trkpt lat="45.01162" lon="5.73971">
        <ele>1572.8</ele>
        <time>2021-05-29T07:37:31Z</time>
      </trkpt>
      <trkpt lat="45.01162" lon="5.73971">
        <ele>1573</ele>
        <time>2021-05-29T07:37:32Z</time>
      </trkpt>
      <trkpt lat="45.01164" lon="5.73972">
        <ele>1573.2</ele>
        <time>2021-05-29T07:37:33Z</time>
      </trkpt>
      <trkpt lat="45.01164" lon="5.73972">
        <ele>1573.6</ele>
        <time>2021-05-29T07:37:34Z</time>
      </trkpt>
      <trkpt lat="45.01166" lon="5.73973">
        <ele>1573.6</ele>
        <time>2021-05-29T07:37:35Z</time>
      </trkpt>
      <trkpt lat="45.01168" lon="5.73974">
        <ele>1574</ele>
        <time>2021-05-29T07:37:36Z</time>
      </trkpt>
      <trkpt lat="45.01168" lon="5.73974">
        <ele>1574.2</ele>
        <time>2021-05-29T07:37:37Z</time>
      </trkpt>
      <trkpt lat="45.01168" lon="5.73974">
        <ele>1574.4</ele>
        <time>2021-05-29T07:37:38Z</time>
      </trkpt>
      <trkpt lat="45.01168" lon="5.73974">
        <ele>1574.6</ele>
        <time>2021-05-29T07:37:39Z</time>
      </trkpt>
      <trkpt lat="45.01171" lon="5.73975">
        <ele>1575</ele>
        <time>2021-05-29T07:37:40Z</time>
      </trkpt>
      <trkpt lat="45.01171" lon="5.73975">
        <ele>1574.8</ele>
        <time>2021-05-29T07:37:41Z</time>
      </trkpt>
      <trkpt lat="45.01171" lon="5.73975">
        <ele>1575.2</ele>
        <time>2021-05-29T07:37:42Z</time>
      </trkpt>
      <trkpt lat="45.01173" lon="5.73977">
        <ele>1575.2</ele>
        <time>2021-05-29T07:37:43Z</time>
      </trkpt>
      <trkpt lat="45.01173" lon="5.73977">
        <ele>1575.4</ele>
        <time>2021-05-29T07:37:44Z</time>
      </trkpt>
      <trkpt lat="45.01174" lon="5.73978">
        <ele>1575.6</ele>
        <time>2021-05-29T07:37:45Z</time>
      </trkpt>
      <trkpt lat="45.01174" lon="5.73978">
        <ele>1575.6</ele>
        <time>2021-05-29T07:37:46Z</time>
      </trkpt>
      <trkpt lat="45.01174" lon="5.73978">
        <ele>1576</ele>
        <time>2021-05-29T07:37:47Z</time>
      </trkpt>
      <trkpt lat="45.01176" lon="5.73979">
        <ele>1576.4</ele>
        <time>2021-05-29T07:37:48Z</time>
      </trkpt>
      <trkpt lat="45.01176" lon="5.73979">
        <ele>1576.6</ele>
        <time>2021-05-29T07:37:49Z</time>
      </trkpt>
      <trkpt lat="45.01178" lon="5.7398">
        <ele>1576.8</ele>
        <time>2021-05-29T07:37:50Z</time>
      </trkpt>
      <trkpt lat="45.01178" lon="5.7398">
        <ele>1577</ele>
        <time>2021-05-29T07:37:51Z</time>
      </trkpt>
      <trkpt lat="45.0118" lon="5.7398">
        <ele>1577.4</ele>
        <time>2021-05-29T07:37:52Z</time>
      </trkpt>
      <trkpt lat="45.0118" lon="5.7398">
        <ele>1577.6</ele>
        <time>2021-05-29T07:37:53Z</time>
      </trkpt>
      <trkpt lat="45.0118" lon="5.7398">
        <ele>1578</ele>
        <time>2021-05-29T07:37:54Z</time>
      </trkpt>
      <trkpt lat="45.0118" lon="5.7398">
        <ele>1578.4</ele>
        <time>2021-05-29T07:37:55Z</time>
      </trkpt>
      <trkpt lat="45.01183" lon="5.73981">
        <ele>1578.6</ele>
        <time>2021-05-29T07:37:56Z</time>
      </trkpt>
      <trkpt lat="45.01185" lon="5.73982">
        <ele>1579</ele>
        <time>2021-05-29T07:37:57Z</time>
      </trkpt>
      <trkpt lat="45.01185" lon="5.73982">
        <ele>1579.2</ele>
        <time>2021-05-29T07:37:58Z</time>
      </trkpt>
      <trkpt lat="45.01185" lon="5.73982">
        <ele>1579.4</ele>
        <time>2021-05-29T07:37:59Z</time>
      </trkpt>
      <trkpt lat="45.01185" lon="5.73982">
        <ele>1579.8</ele>
        <time>2021-05-29T07:38:00Z</time>
      </trkpt>
      <trkpt lat="45.01185" lon="5.73982">
        <ele>1580.2</ele>
        <time>2021-05-29T07:38:01Z</time>
      </trkpt>
      <trkpt lat="45.01187" lon="5.73983">
        <ele>1580.4</ele>
        <time>2021-05-29T07:38:02Z</time>
      </trkpt>
      <trkpt lat="45.01187" lon="5.73983">
        <ele>1580.6</ele>
        <time>2021-05-29T07:38:03Z</time>
      </trkpt>
      <trkpt lat="45.01187" lon="5.73983">
        <ele>1581</ele>
        <time>2021-05-29T07:38:04Z</time>
      </trkpt>
      <trkpt lat="45.01187" lon="5.73983">
        <ele>1581.4</ele>
        <time>2021-05-29T07:38:05Z</time>
      </trkpt>
      <trkpt lat="45.0119" lon="5.73985">
        <ele>1581.6</ele>
        <time>2021-05-29T07:38:06Z</time>
      </trkpt>
      <trkpt lat="45.0119" lon="5.73985">
        <ele>1581.8</ele>
        <time>2021-05-29T07:38:07Z</time>
      </trkpt>
      <trkpt lat="45.0119" lon="5.73985">
        <ele>1582</ele>
        <time>2021-05-29T07:38:08Z</time>
      </trkpt>
      <trkpt lat="45.01191" lon="5.73986">
        <ele>1582.4</ele>
        <time>2021-05-29T07:38:09Z</time>
      </trkpt>
      <trkpt lat="45.01191" lon="5.73986">
        <ele>1582.4</ele>
        <time>2021-05-29T07:38:10Z</time>
      </trkpt>
      <trkpt lat="45.01191" lon="5.73986">
        <ele>1582.8</ele>
        <time>2021-05-29T07:38:11Z</time>
      </trkpt>
      <trkpt lat="45.01191" lon="5.73986">
        <ele>1583</ele>
        <time>2021-05-29T07:38:12Z</time>
      </trkpt>
      <trkpt lat="45.01193" lon="5.73987">
        <ele>1583.2</ele>
        <time>2021-05-29T07:38:13Z</time>
      </trkpt>
      <trkpt lat="45.01193" lon="5.73987">
        <ele>1583.4</ele>
        <time>2021-05-29T07:38:14Z</time>
      </trkpt>
      <trkpt lat="45.01193" lon="5.73987">
        <ele>1583.4</ele>
        <time>2021-05-29T07:38:15Z</time>
      </trkpt>
      <trkpt lat="45.01193" lon="5.73987">
        <ele>1583.6</ele>
        <time>2021-05-29T07:38:16Z</time>
      </trkpt>
      <trkpt lat="45.01193" lon="5.73987">
        <ele>1583.8</ele>
        <time>2021-05-29T07:38:17Z</time>
      </trkpt>
      <trkpt lat="45.01195" lon="5.73987">
        <ele>1584</ele>
        <time>2021-05-29T07:38:18Z</time>
      </trkpt>
      <trkpt lat="45.01195" lon="5.73987">
        <ele>1584.2</ele>
        <time>2021-05-29T07:38:19Z</time>
      </trkpt>
      <trkpt lat="45.01197" lon="5.73988">
        <ele>1584.4</ele>
        <time>2021-05-29T07:38:20Z</time>
      </trkpt>
      <trkpt lat="45.01197" lon="5.73988">
        <ele>1584.4</ele>
        <time>2021-05-29T07:38:21Z</time>
      </trkpt>
      <trkpt lat="45.01197" lon="5.73988">
        <ele>1584.6</ele>
        <time>2021-05-29T07:38:22Z</time>
      </trkpt>
      <trkpt lat="45.01199" lon="5.73989">
        <ele>1584.8</ele>
        <time>2021-05-29T07:38:23Z</time>
      </trkpt>
      <trkpt lat="45.01199" lon="5.73989">
        <ele>1585</ele>
        <time>2021-05-29T07:38:24Z</time>
      </trkpt>
      <trkpt lat="45.01199" lon="5.73989">
        <ele>1585.2</ele>
        <time>2021-05-29T07:38:25Z</time>
      </trkpt>
      <trkpt lat="45.01201" lon="5.73989">
        <ele>1585.2</ele>
        <time>2021-05-29T07:38:26Z</time>
      </trkpt>
      <trkpt lat="45.01201" lon="5.73989">
        <ele>1585.6</ele>
        <time>2021-05-29T07:38:27Z</time>
      </trkpt>
      <trkpt lat="45.01201" lon="5.73989">
        <ele>1585.8</ele>
        <time>2021-05-29T07:38:28Z</time>
      </trkpt>
      <trkpt lat="45.01201" lon="5.73989">
        <ele>1586</ele>
        <time>2021-05-29T07:38:29Z</time>
      </trkpt>
      <trkpt lat="45.01201" lon="5.73989">
        <ele>1586</ele>
        <time>2021-05-29T07:38:30Z</time>
      </trkpt>
      <trkpt lat="45.01204" lon="5.73991">
        <ele>1586.4</ele>
        <time>2021-05-29T07:38:31Z</time>
      </trkpt>
      <trkpt lat="45.01204" lon="5.73991">
        <ele>1586.8</ele>
        <time>2021-05-29T07:38:32Z</time>
      </trkpt>
      <trkpt lat="45.01204" lon="5.73991">
        <ele>1587.6</ele>
        <time>2021-05-29T07:38:33Z</time>
      </trkpt>
      <trkpt lat="45.01206" lon="5.73992">
        <ele>1587.6</ele>
        <time>2021-05-29T07:38:34Z</time>
      </trkpt>
      <trkpt lat="45.01206" lon="5.73992">
        <ele>1587.8</ele>
        <time>2021-05-29T07:38:36Z</time>
      </trkpt>
      <trkpt lat="45.01206" lon="5.73992">
        <ele>1587.8</ele>
        <time>2021-05-29T07:38:37Z</time>
      </trkpt>
      <trkpt lat="45.01206" lon="5.73992">
        <ele>1588</ele>
        <time>2021-05-29T07:38:38Z</time>
      </trkpt>
      <trkpt lat="45.01206" lon="5.73992">
        <ele>1588</ele>
        <time>2021-05-29T07:38:39Z</time>
      </trkpt>
      <trkpt lat="45.01206" lon="5.73992">
        <ele>1588.2</ele>
        <time>2021-05-29T07:38:40Z</time>
      </trkpt>
      <trkpt lat="45.01206" lon="5.73992">
        <ele>1588.4</ele>
        <time>2021-05-29T07:38:41Z</time>
      </trkpt>
      <trkpt lat="45.01206" lon="5.73992">
        <ele>1588.4</ele>
        <time>2021-05-29T07:38:42Z</time>
      </trkpt>
      <trkpt lat="45.01208" lon="5.73994">
        <ele>1588.4</ele>
        <time>2021-05-29T07:38:43Z</time>
      </trkpt>
      <trkpt lat="45.01208" lon="5.73994">
        <ele>1588.4</ele>
        <time>2021-05-29T07:38:44Z</time>
      </trkpt>
      <trkpt lat="45.01208" lon="5.73994">
        <ele>1588.4</ele>
        <time>2021-05-29T07:38:45Z</time>
      </trkpt>
      <trkpt lat="45.01208" lon="5.73994">
        <ele>1588.4</ele>
        <time>2021-05-29T07:38:46Z</time>
      </trkpt>
      <trkpt lat="45.01208" lon="5.73994">
        <ele>1588.2</ele>
        <time>2021-05-29T07:38:47Z</time>
      </trkpt>
      <trkpt lat="45.01208" lon="5.73994">
        <ele>1588.2</ele>
        <time>2021-05-29T07:38:48Z</time>
      </trkpt>
      <trkpt lat="45.01208" lon="5.73994">
        <ele>1588.2</ele>
        <time>2021-05-29T07:38:49Z</time>
      </trkpt>
      <trkpt lat="45.01208" lon="5.73994">
        <ele>1588.2</ele>
        <time>2021-05-29T07:38:50Z</time>
      </trkpt>
      <trkpt lat="45.01208" lon="5.73994">
        <ele>1588</ele>
        <time>2021-05-29T07:38:51Z</time>
      </trkpt>
      <trkpt lat="45.0121" lon="5.73994">
        <ele>1587.8</ele>
        <time>2021-05-29T07:38:52Z</time>
      </trkpt>
      <trkpt lat="45.01212" lon="5.73995">
        <ele>1587.8</ele>
        <time>2021-05-29T07:38:53Z</time>
      </trkpt>
      <trkpt lat="45.01212" lon="5.73995">
        <ele>1587.6</ele>
        <time>2021-05-29T07:38:54Z</time>
      </trkpt>
      <trkpt lat="45.01212" lon="5.73995">
        <ele>1587.6</ele>
        <time>2021-05-29T07:38:55Z</time>
      </trkpt>
      <trkpt lat="45.01214" lon="5.73996">
        <ele>1587.6</ele>
        <time>2021-05-29T07:38:56Z</time>
      </trkpt>
      <trkpt lat="45.01214" lon="5.73996">
        <ele>1588</ele>
        <time>2021-05-29T07:38:57Z</time>
      </trkpt>
      <trkpt lat="45.01214" lon="5.73996">
        <ele>1588.2</ele>
        <time>2021-05-29T07:38:58Z</time>
      </trkpt>
      <trkpt lat="45.01216" lon="5.73996">
        <ele>1588.4</ele>
        <time>2021-05-29T07:38:59Z</time>
      </trkpt>
      <trkpt lat="45.01216" lon="5.73996">
        <ele>1588.6</ele>
        <time>2021-05-29T07:39:00Z</time>
      </trkpt>
      <trkpt lat="45.01216" lon="5.73996">
        <ele>1588.8</ele>
        <time>2021-05-29T07:39:01Z</time>
      </trkpt>
      <trkpt lat="45.01216" lon="5.73996">
        <ele>1589</ele>
        <time>2021-05-29T07:39:02Z</time>
      </trkpt>
      <trkpt lat="45.01216" lon="5.73996">
        <ele>1589.2</ele>
        <time>2021-05-29T07:39:03Z</time>
      </trkpt>
      <trkpt lat="45.01219" lon="5.73996">
        <ele>1589.4</ele>
        <time>2021-05-29T07:39:04Z</time>
      </trkpt>
      <trkpt lat="45.01219" lon="5.73996">
        <ele>1589.4</ele>
        <time>2021-05-29T07:39:05Z</time>
      </trkpt>
      <trkpt lat="45.0122" lon="5.73993">
        <ele>1589.6</ele>
        <time>2021-05-29T07:39:06Z</time>
      </trkpt>
      <trkpt lat="45.0122" lon="5.73993">
        <ele>1589.4</ele>
        <time>2021-05-29T07:39:07Z</time>
      </trkpt>
      <trkpt lat="45.0122" lon="5.73993">
        <ele>1589.8</ele>
        <time>2021-05-29T07:39:08Z</time>
      </trkpt>
      <trkpt lat="45.0122" lon="5.73993">
        <ele>1590</ele>
        <time>2021-05-29T07:39:09Z</time>
      </trkpt>
      <trkpt lat="45.0122" lon="5.73993">
        <ele>1589.8</ele>
        <time>2021-05-29T07:39:10Z</time>
      </trkpt>
      <trkpt lat="45.0122" lon="5.73993">
        <ele>1589.8</ele>
        <time>2021-05-29T07:39:11Z</time>
      </trkpt>
      <trkpt lat="45.0122" lon="5.73993">
        <ele>1589.8</ele>
        <time>2021-05-29T07:39:12Z</time>
      </trkpt>
      <trkpt lat="45.0122" lon="5.73993">
        <ele>1589.6</ele>
        <time>2021-05-29T07:39:13Z</time>
      </trkpt>
      <trkpt lat="45.0122" lon="5.73993">
        <ele>1589.6</ele>
        <time>2021-05-29T07:39:14Z</time>
      </trkpt>
      <trkpt lat="45.0122" lon="5.73993">
        <ele>1589.8</ele>
        <time>2021-05-29T07:39:15Z</time>
      </trkpt>
      <trkpt lat="45.0122" lon="5.73993">
        <ele>1589.6</ele>
        <time>2021-05-29T07:39:16Z</time>
      </trkpt>
      <trkpt lat="45.0122" lon="5.73993">
        <ele>1589.6</ele>
        <time>2021-05-29T07:39:17Z</time>
      </trkpt>
      <trkpt lat="45.0122" lon="5.73993">
        <ele>1589.6</ele>
        <time>2021-05-29T07:39:18Z</time>
      </trkpt>
      <trkpt lat="45.0122" lon="5.73993">
        <ele>1589.6</ele>
        <time>2021-05-29T07:39:19Z</time>
      </trkpt>
      <trkpt lat="45.01222" lon="5.73993">
        <ele>1589.6</ele>
        <time>2021-05-29T07:39:20Z</time>
      </trkpt>
      <trkpt lat="45.01222" lon="5.73993">
        <ele>1589.8</ele>
        <time>2021-05-29T07:39:21Z</time>
      </trkpt>
      <trkpt lat="45.01222" lon="5.73993">
        <ele>1589.4</ele>
        <time>2021-05-29T07:39:22Z</time>
      </trkpt>
      <trkpt lat="45.01224" lon="5.73993">
        <ele>1589.4</ele>
        <time>2021-05-29T07:39:23Z</time>
      </trkpt>
      <trkpt lat="45.01224" lon="5.73993">
        <ele>1589.6</ele>
        <time>2021-05-29T07:39:24Z</time>
      </trkpt>
      <trkpt lat="45.01224" lon="5.73993">
        <ele>1589.6</ele>
        <time>2021-05-29T07:39:25Z</time>
      </trkpt>
      <trkpt lat="45.01226" lon="5.73995">
        <ele>1589.6</ele>
        <time>2021-05-29T07:39:26Z</time>
      </trkpt>
      <trkpt lat="45.01226" lon="5.73995">
        <ele>1589.8</ele>
        <time>2021-05-29T07:39:27Z</time>
      </trkpt>
      <trkpt lat="45.01229" lon="5.73997">
        <ele>1589.8</ele>
        <time>2021-05-29T07:39:28Z</time>
      </trkpt>
      <trkpt lat="45.01229" lon="5.73997">
        <ele>1590</ele>
        <time>2021-05-29T07:39:29Z</time>
      </trkpt>
      <trkpt lat="45.01229" lon="5.73997">
        <ele>1590.2</ele>
        <time>2021-05-29T07:39:30Z</time>
      </trkpt>
      <trkpt lat="45.01231" lon="5.73998">
        <ele>1590.2</ele>
        <time>2021-05-29T07:39:31Z</time>
      </trkpt>
      <trkpt lat="45.01231" lon="5.73998">
        <ele>1590.4</ele>
        <time>2021-05-29T07:39:32Z</time>
      </trkpt>
      <trkpt lat="45.01231" lon="5.73998">
        <ele>1590.4</ele>
        <time>2021-05-29T07:39:33Z</time>
      </trkpt>
      <trkpt lat="45.01234" lon="5.73999">
        <ele>1590.6</ele>
        <time>2021-05-29T07:39:34Z</time>
      </trkpt>
      <trkpt lat="45.01237" lon="5.74">
        <ele>1590.8</ele>
        <time>2021-05-29T07:39:35Z</time>
      </trkpt>
      <trkpt lat="45.01237" lon="5.74">
        <ele>1591</ele>
        <time>2021-05-29T07:39:36Z</time>
      </trkpt>
      <trkpt lat="45.01239" lon="5.74001">
        <ele>1591.2</ele>
        <time>2021-05-29T07:39:37Z</time>
      </trkpt>
      <trkpt lat="45.01241" lon="5.74001">
        <ele>1591.4</ele>
        <time>2021-05-29T07:39:38Z</time>
      </trkpt>
      <trkpt lat="45.01242" lon="5.74002">
        <ele>1591.4</ele>
        <time>2021-05-29T07:39:39Z</time>
      </trkpt>
      <trkpt lat="45.01244" lon="5.74003">
        <ele>1591.6</ele>
        <time>2021-05-29T07:39:40Z</time>
      </trkpt>
      <trkpt lat="45.01249" lon="5.74005">
        <ele>1591.6</ele>
        <time>2021-05-29T07:39:41Z</time>
      </trkpt>
      <trkpt lat="45.01251" lon="5.74006">
        <ele>1591.6</ele>
        <time>2021-05-29T07:39:42Z</time>
      </trkpt>
      <trkpt lat="45.01253" lon="5.74008">
        <ele>1591.8</ele>
        <time>2021-05-29T07:39:43Z</time>
      </trkpt>
      <trkpt lat="45.01253" lon="5.74008">
        <ele>1592</ele>
        <time>2021-05-29T07:39:44Z</time>
      </trkpt>
      <trkpt lat="45.01255" lon="5.74009">
        <ele>1591.8</ele>
        <time>2021-05-29T07:39:45Z</time>
      </trkpt>
      <trkpt lat="45.01256" lon="5.7401">
        <ele>1592</ele>
        <time>2021-05-29T07:39:46Z</time>
      </trkpt>
      <trkpt lat="45.01256" lon="5.7401">
        <ele>1592</ele>
        <time>2021-05-29T07:39:47Z</time>
      </trkpt>
      <trkpt lat="45.01259" lon="5.74013">
        <ele>1592.4</ele>
        <time>2021-05-29T07:39:48Z</time>
      </trkpt>
      <trkpt lat="45.01259" lon="5.74013">
        <ele>1592.6</ele>
        <time>2021-05-29T07:39:49Z</time>
      </trkpt>
      <trkpt lat="45.01262" lon="5.74015">
        <ele>1593.4</ele>
        <time>2021-05-29T07:39:50Z</time>
      </trkpt>
      <trkpt lat="45.01262" lon="5.74015">
        <ele>1593.6</ele>
        <time>2021-05-29T07:39:51Z</time>
      </trkpt>
      <trkpt lat="45.01265" lon="5.74017">
        <ele>1594.2</ele>
        <time>2021-05-29T07:39:52Z</time>
      </trkpt>
      <trkpt lat="45.01268" lon="5.74021">
        <ele>1594.4</ele>
        <time>2021-05-29T07:39:53Z</time>
      </trkpt>
      <trkpt lat="45.01268" lon="5.74021">
        <ele>1595.2</ele>
        <time>2021-05-29T07:39:54Z</time>
      </trkpt>
      <trkpt lat="45.0127" lon="5.74022">
        <ele>1595.2</ele>
        <time>2021-05-29T07:39:55Z</time>
      </trkpt>
      <trkpt lat="45.01271" lon="5.74024">
        <ele>1596</ele>
        <time>2021-05-29T07:39:56Z</time>
      </trkpt>
      <trkpt lat="45.01271" lon="5.74024">
        <ele>1596.2</ele>
        <time>2021-05-29T07:39:57Z</time>
      </trkpt>
      <trkpt lat="45.01274" lon="5.74026">
        <ele>1596.6</ele>
        <time>2021-05-29T07:39:58Z</time>
      </trkpt>
      <trkpt lat="45.01278" lon="5.74029">
        <ele>1596.6</ele>
        <time>2021-05-29T07:40:00Z</time>
      </trkpt>
      <trkpt lat="45.01279" lon="5.74031">
        <ele>1596.4</ele>
        <time>2021-05-29T07:40:01Z</time>
      </trkpt>
      <trkpt lat="45.0128" lon="5.74032">
        <ele>1596</ele>
        <time>2021-05-29T07:40:02Z</time>
      </trkpt>
      <trkpt lat="45.01281" lon="5.74033">
        <ele>1596.6</ele>
        <time>2021-05-29T07:40:03Z</time>
      </trkpt>
      <trkpt lat="45.01282" lon="5.74034">
        <ele>1596.8</ele>
        <time>2021-05-29T07:40:04Z</time>
      </trkpt>
      <trkpt lat="45.01283" lon="5.74035">
        <ele>1597</ele>
        <time>2021-05-29T07:40:05Z</time>
      </trkpt>
      <trkpt lat="45.01283" lon="5.74035">
        <ele>1597</ele>
        <time>2021-05-29T07:40:06Z</time>
      </trkpt>
      <trkpt lat="45.01285" lon="5.74038">
        <ele>1597</ele>
        <time>2021-05-29T07:40:07Z</time>
      </trkpt>
      <trkpt lat="45.01285" lon="5.74038">
        <ele>1597.2</ele>
        <time>2021-05-29T07:40:08Z</time>
      </trkpt>
      <trkpt lat="45.01288" lon="5.74041">
        <ele>1597.2</ele>
        <time>2021-05-29T07:40:09Z</time>
      </trkpt>
      <trkpt lat="45.01288" lon="5.74041">
        <ele>1597.4</ele>
        <time>2021-05-29T07:40:10Z</time>
      </trkpt>
      <trkpt lat="45.0129" lon="5.74042">
        <ele>1597.6</ele>
        <time>2021-05-29T07:40:11Z</time>
      </trkpt>
      <trkpt lat="45.0129" lon="5.74042">
        <ele>1597.6</ele>
        <time>2021-05-29T07:40:12Z</time>
      </trkpt>
      <trkpt lat="45.01292" lon="5.74044">
        <ele>1597.8</ele>
        <time>2021-05-29T07:40:13Z</time>
      </trkpt>
      <trkpt lat="45.01292" lon="5.74044">
        <ele>1598</ele>
        <time>2021-05-29T07:40:14Z</time>
      </trkpt>
      <trkpt lat="45.01294" lon="5.74045">
        <ele>1598.2</ele>
        <time>2021-05-29T07:40:15Z</time>
      </trkpt>
      <trkpt lat="45.01294" lon="5.74045">
        <ele>1598.2</ele>
        <time>2021-05-29T07:40:16Z</time>
      </trkpt>
      <trkpt lat="45.01296" lon="5.74047">
        <ele>1598.4</ele>
        <time>2021-05-29T07:40:17Z</time>
      </trkpt>
      <trkpt lat="45.01297" lon="5.74049">
        <ele>1598.6</ele>
        <time>2021-05-29T07:40:18Z</time>
      </trkpt>
      <trkpt lat="45.01297" lon="5.74049">
        <ele>1599.2</ele>
        <time>2021-05-29T07:40:19Z</time>
      </trkpt>
      <trkpt lat="45.01297" lon="5.74049">
        <ele>1599.6</ele>
        <time>2021-05-29T07:40:20Z</time>
      </trkpt>
      <trkpt lat="45.01297" lon="5.74049">
        <ele>1600</ele>
        <time>2021-05-29T07:40:21Z</time>
      </trkpt>
      <trkpt lat="45.01297" lon="5.74049">
        <ele>1600.4</ele>
        <time>2021-05-29T07:40:22Z</time>
      </trkpt>
      <trkpt lat="45.01298" lon="5.74052">
        <ele>1600.6</ele>
        <time>2021-05-29T07:40:23Z</time>
      </trkpt>
      <trkpt lat="45.01298" lon="5.74052">
        <ele>1600.8</ele>
        <time>2021-05-29T07:40:24Z</time>
      </trkpt>
      <trkpt lat="45.01298" lon="5.74052">
        <ele>1600.8</ele>
        <time>2021-05-29T07:40:25Z</time>
      </trkpt>
      <trkpt lat="45.01298" lon="5.74052">
        <ele>1601</ele>
        <time>2021-05-29T07:40:26Z</time>
      </trkpt>
      <trkpt lat="45.01299" lon="5.74054">
        <ele>1600.8</ele>
        <time>2021-05-29T07:40:27Z</time>
      </trkpt>
      <trkpt lat="45.01299" lon="5.74054">
        <ele>1600.6</ele>
        <time>2021-05-29T07:40:28Z</time>
      </trkpt>
      <trkpt lat="45.01299" lon="5.74054">
        <ele>1600.4</ele>
        <time>2021-05-29T07:40:29Z</time>
      </trkpt>
      <trkpt lat="45.01299" lon="5.74054">
        <ele>1600.2</ele>
        <time>2021-05-29T07:40:30Z</time>
      </trkpt>
      <trkpt lat="45.01299" lon="5.74054">
        <ele>1600.2</ele>
        <time>2021-05-29T07:40:31Z</time>
      </trkpt>
      <trkpt lat="45.01299" lon="5.74054">
        <ele>1600</ele>
        <time>2021-05-29T07:40:32Z</time>
      </trkpt>
      <trkpt lat="45.01301" lon="5.74053">
        <ele>1599.8</ele>
        <time>2021-05-29T07:40:33Z</time>
      </trkpt>
      <trkpt lat="45.01301" lon="5.74053">
        <ele>1599.8</ele>
        <time>2021-05-29T07:40:34Z</time>
      </trkpt>
      <trkpt lat="45.01301" lon="5.74053">
        <ele>1599.8</ele>
        <time>2021-05-29T07:40:35Z</time>
      </trkpt>
      <trkpt lat="45.01301" lon="5.74053">
        <ele>1599.6</ele>
        <time>2021-05-29T07:40:36Z</time>
      </trkpt>
      <trkpt lat="45.01301" lon="5.74053">
        <ele>1599.6</ele>
        <time>2021-05-29T07:40:37Z</time>
      </trkpt>
      <trkpt lat="45.01301" lon="5.74053">
        <ele>1599.6</ele>
        <time>2021-05-29T07:40:38Z</time>
      </trkpt>
      <trkpt lat="45.01301" lon="5.74053">
        <ele>1599.6</ele>
        <time>2021-05-29T07:40:39Z</time>
      </trkpt>
      <trkpt lat="45.01301" lon="5.74053">
        <ele>1599.4</ele>
        <time>2021-05-29T07:40:40Z</time>
      </trkpt>
      <trkpt lat="45.01301" lon="5.74053">
        <ele>1599.4</ele>
        <time>2021-05-29T07:40:41Z</time>
      </trkpt>
      <trkpt lat="45.01301" lon="5.74053">
        <ele>1599.2</ele>
        <time>2021-05-29T07:40:42Z</time>
      </trkpt>
      <trkpt lat="45.01301" lon="5.74053">
        <ele>1599.2</ele>
        <time>2021-05-29T07:40:43Z</time>
      </trkpt>
      <trkpt lat="45.01303" lon="5.7405">
        <ele>1599</ele>
        <time>2021-05-29T07:40:44Z</time>
      </trkpt>
      <trkpt lat="45.01306" lon="5.74049">
        <ele>1599.2</ele>
        <time>2021-05-29T07:40:45Z</time>
      </trkpt>
      <trkpt lat="45.01306" lon="5.74049">
        <ele>1599.8</ele>
        <time>2021-05-29T07:40:46Z</time>
      </trkpt>
      <trkpt lat="45.01308" lon="5.74048">
        <ele>1600.2</ele>
        <time>2021-05-29T07:40:47Z</time>
      </trkpt>
      <trkpt lat="45.0131" lon="5.74047">
        <ele>1601</ele>
        <time>2021-05-29T07:40:48Z</time>
      </trkpt>
      <trkpt lat="45.01312" lon="5.74047">
        <ele>1601</ele>
        <time>2021-05-29T07:40:49Z</time>
      </trkpt>
      <trkpt lat="45.01315" lon="5.74047">
        <ele>1601.6</ele>
        <time>2021-05-29T07:40:50Z</time>
      </trkpt>
      <trkpt lat="45.01319" lon="5.74046">
        <ele>1601.2</ele>
        <time>2021-05-29T07:40:51Z</time>
      </trkpt>
      <trkpt lat="45.01321" lon="5.74046">
        <ele>1601.6</ele>
        <time>2021-05-29T07:40:52Z</time>
      </trkpt>
      <trkpt lat="45.01323" lon="5.74046">
        <ele>1601.2</ele>
        <time>2021-05-29T07:40:53Z</time>
      </trkpt>
      <trkpt lat="45.01323" lon="5.74046">
        <ele>1601.8</ele>
        <time>2021-05-29T07:40:54Z</time>
      </trkpt>
      <trkpt lat="45.01325" lon="5.74046">
        <ele>1601.4</ele>
        <time>2021-05-29T07:40:55Z</time>
      </trkpt>
      <trkpt lat="45.01328" lon="5.74047">
        <ele>1601.8</ele>
        <time>2021-05-29T07:40:56Z</time>
      </trkpt>
      <trkpt lat="45.01332" lon="5.74046">
        <ele>1601.8</ele>
        <time>2021-05-29T07:40:57Z</time>
      </trkpt>
      <trkpt lat="45.01332" lon="5.74046">
        <ele>1602.2</ele>
        <time>2021-05-29T07:40:58Z</time>
      </trkpt>
      <trkpt lat="45.01334" lon="5.74046">
        <ele>1602</ele>
        <time>2021-05-29T07:40:59Z</time>
      </trkpt>
      <trkpt lat="45.01337" lon="5.74047">
        <ele>1602.2</ele>
        <time>2021-05-29T07:41:00Z</time>
      </trkpt>
      <trkpt lat="45.01337" lon="5.74047">
        <ele>1601.8</ele>
        <time>2021-05-29T07:41:01Z</time>
      </trkpt>
      <trkpt lat="45.0134" lon="5.74047">
        <ele>1602</ele>
        <time>2021-05-29T07:41:02Z</time>
      </trkpt>
      <trkpt lat="45.01343" lon="5.74047">
        <ele>1601.8</ele>
        <time>2021-05-29T07:41:03Z</time>
      </trkpt>
      <trkpt lat="45.01343" lon="5.74047">
        <ele>1602.4</ele>
        <time>2021-05-29T07:41:04Z</time>
      </trkpt>
      <trkpt lat="45.01343" lon="5.74047">
        <ele>1602.6</ele>
        <time>2021-05-29T07:41:05Z</time>
      </trkpt>
      <trkpt lat="45.01346" lon="5.74047">
        <ele>1602.6</ele>
        <time>2021-05-29T07:41:06Z</time>
      </trkpt>
      <trkpt lat="45.01346" lon="5.74047">
        <ele>1602.8</ele>
        <time>2021-05-29T07:41:07Z</time>
      </trkpt>
      <trkpt lat="45.01349" lon="5.74047">
        <ele>1602.8</ele>
        <time>2021-05-29T07:41:08Z</time>
      </trkpt>
      <trkpt lat="45.01349" lon="5.74047">
        <ele>1602.8</ele>
        <time>2021-05-29T07:41:09Z</time>
      </trkpt>
      <trkpt lat="45.01352" lon="5.74047">
        <ele>1603</ele>
        <time>2021-05-29T07:41:10Z</time>
      </trkpt>
      <trkpt lat="45.01352" lon="5.74047">
        <ele>1603.2</ele>
        <time>2021-05-29T07:41:11Z</time>
      </trkpt>
      <trkpt lat="45.01354" lon="5.74047">
        <ele>1603.4</ele>
        <time>2021-05-29T07:41:12Z</time>
      </trkpt>
      <trkpt lat="45.01356" lon="5.74048">
        <ele>1603.6</ele>
        <time>2021-05-29T07:41:13Z</time>
      </trkpt>
      <trkpt lat="45.01359" lon="5.74049">
        <ele>1603.6</ele>
        <time>2021-05-29T07:41:14Z</time>
      </trkpt>
      <trkpt lat="45.0136" lon="5.7405">
        <ele>1604.2</ele>
        <time>2021-05-29T07:41:15Z</time>
      </trkpt>
      <trkpt lat="45.01362" lon="5.7405">
        <ele>1604.4</ele>
        <time>2021-05-29T07:41:16Z</time>
      </trkpt>
      <trkpt lat="45.01363" lon="5.74051">
        <ele>1604.2</ele>
        <time>2021-05-29T07:41:17Z</time>
      </trkpt>
      <trkpt lat="45.01367" lon="5.74052">
        <ele>1603.6</ele>
        <time>2021-05-29T07:41:18Z</time>
      </trkpt>
      <trkpt lat="45.01368" lon="5.74052">
        <ele>1603.8</ele>
        <time>2021-05-29T07:41:19Z</time>
      </trkpt>
      <trkpt lat="45.01371" lon="5.74053">
        <ele>1603.8</ele>
        <time>2021-05-29T07:41:20Z</time>
      </trkpt>
      <trkpt lat="45.01376" lon="5.74053">
        <ele>1603.6</ele>
        <time>2021-05-29T07:41:21Z</time>
      </trkpt>
      <trkpt lat="45.01376" lon="5.74053">
        <ele>1603.8</ele>
        <time>2021-05-29T07:41:22Z</time>
      </trkpt>
      <trkpt lat="45.01379" lon="5.74053">
        <ele>1604.2</ele>
        <time>2021-05-29T07:41:23Z</time>
      </trkpt>
      <trkpt lat="45.01382" lon="5.74053">
        <ele>1603.8</ele>
        <time>2021-05-29T07:41:24Z</time>
      </trkpt>
      <trkpt lat="45.01386" lon="5.74053">
        <ele>1604.2</ele>
        <time>2021-05-29T07:41:25Z</time>
      </trkpt>
      <trkpt lat="45.01388" lon="5.74052">
        <ele>1603.6</ele>
        <time>2021-05-29T07:41:26Z</time>
      </trkpt>
      <trkpt lat="45.01392" lon="5.74052">
        <ele>1603.8</ele>
        <time>2021-05-29T07:41:27Z</time>
      </trkpt>
      <trkpt lat="45.01395" lon="5.74052">
        <ele>1603.8</ele>
        <time>2021-05-29T07:41:28Z</time>
      </trkpt>
      <trkpt lat="45.01398" lon="5.74051">
        <ele>1604.4</ele>
        <time>2021-05-29T07:41:29Z</time>
      </trkpt>
      <trkpt lat="45.014" lon="5.74051">
        <ele>1604.2</ele>
        <time>2021-05-29T07:41:30Z</time>
      </trkpt>
      <trkpt lat="45.01401" lon="5.74051">
        <ele>1604.8</ele>
        <time>2021-05-29T07:41:31Z</time>
      </trkpt>
      <trkpt lat="45.01401" lon="5.74051">
        <ele>1604.6</ele>
        <time>2021-05-29T07:41:32Z</time>
      </trkpt>
      <trkpt lat="45.01404" lon="5.74051">
        <ele>1605.2</ele>
        <time>2021-05-29T07:41:33Z</time>
      </trkpt>
      <trkpt lat="45.01404" lon="5.74051">
        <ele>1605</ele>
        <time>2021-05-29T07:41:34Z</time>
      </trkpt>
      <trkpt lat="45.01406" lon="5.74051">
        <ele>1605.6</ele>
        <time>2021-05-29T07:41:35Z</time>
      </trkpt>
      <trkpt lat="45.01406" lon="5.74051">
        <ele>1605.4</ele>
        <time>2021-05-29T07:41:36Z</time>
      </trkpt>
      <trkpt lat="45.01406" lon="5.74051">
        <ele>1605.4</ele>
        <time>2021-05-29T07:41:37Z</time>
      </trkpt>
      <trkpt lat="45.01406" lon="5.74051">
        <ele>1605.8</ele>
        <time>2021-05-29T07:41:38Z</time>
      </trkpt>
      <trkpt lat="45.01408" lon="5.74051">
        <ele>1606</ele>
        <time>2021-05-29T07:41:39Z</time>
      </trkpt>
      <trkpt lat="45.01408" lon="5.74051">
        <ele>1606.2</ele>
        <time>2021-05-29T07:41:40Z</time>
      </trkpt>
      <trkpt lat="45.01408" lon="5.74051">
        <ele>1605.8</ele>
        <time>2021-05-29T07:41:41Z</time>
      </trkpt>
      <trkpt lat="45.0141" lon="5.74052">
        <ele>1605.4</ele>
        <time>2021-05-29T07:41:42Z</time>
      </trkpt>
      <trkpt lat="45.0141" lon="5.74052">
        <ele>1605</ele>
        <time>2021-05-29T07:41:43Z</time>
      </trkpt>
      <trkpt lat="45.0141" lon="5.74052">
        <ele>1604.6</ele>
        <time>2021-05-29T07:41:44Z</time>
      </trkpt>
      <trkpt lat="45.0141" lon="5.74052">
        <ele>1604.4</ele>
        <time>2021-05-29T07:41:45Z</time>
      </trkpt>
      <trkpt lat="45.0141" lon="5.74052">
        <ele>1604.4</ele>
        <time>2021-05-29T07:41:46Z</time>
      </trkpt>
      <trkpt lat="45.01412" lon="5.74053">
        <ele>1604.2</ele>
        <time>2021-05-29T07:41:47Z</time>
      </trkpt>
      <trkpt lat="45.01412" lon="5.74053">
        <ele>1604.2</ele>
        <time>2021-05-29T07:41:48Z</time>
      </trkpt>
      <trkpt lat="45.01412" lon="5.74053">
        <ele>1603.8</ele>
        <time>2021-05-29T07:41:49Z</time>
      </trkpt>
      <trkpt lat="45.01412" lon="5.74053">
        <ele>1603.8</ele>
        <time>2021-05-29T07:41:50Z</time>
      </trkpt>
      <trkpt lat="45.01412" lon="5.74053">
        <ele>1603.8</ele>
        <time>2021-05-29T07:41:51Z</time>
      </trkpt>
      <trkpt lat="45.01412" lon="5.74053">
        <ele>1603.8</ele>
        <time>2021-05-29T07:41:52Z</time>
      </trkpt>
      <trkpt lat="45.01412" lon="5.74053">
        <ele>1603.8</ele>
        <time>2021-05-29T07:41:53Z</time>
      </trkpt>
      <trkpt lat="45.01414" lon="5.74054">
        <ele>1604</ele>
        <time>2021-05-29T07:41:54Z</time>
      </trkpt>
      <trkpt lat="45.01414" lon="5.74054">
        <ele>1604</ele>
        <time>2021-05-29T07:41:55Z</time>
      </trkpt>
      <trkpt lat="45.01414" lon="5.74054">
        <ele>1603.8</ele>
        <time>2021-05-29T07:41:56Z</time>
      </trkpt>
      <trkpt lat="45.01414" lon="5.74054">
        <ele>1603.6</ele>
        <time>2021-05-29T07:41:57Z</time>
      </trkpt>
      <trkpt lat="45.01414" lon="5.74054">
        <ele>1603.6</ele>
        <time>2021-05-29T07:41:58Z</time>
      </trkpt>
      <trkpt lat="45.01416" lon="5.74054">
        <ele>1603.6</ele>
        <time>2021-05-29T07:41:59Z</time>
      </trkpt>
      <trkpt lat="45.01416" lon="5.74054">
        <ele>1603.8</ele>
        <time>2021-05-29T07:42:00Z</time>
      </trkpt>
      <trkpt lat="45.01416" lon="5.74054">
        <ele>1603.8</ele>
        <time>2021-05-29T07:42:01Z</time>
      </trkpt>
      <trkpt lat="45.01418" lon="5.74055">
        <ele>1604</ele>
        <time>2021-05-29T07:42:02Z</time>
      </trkpt>
      <trkpt lat="45.01418" lon="5.74055">
        <ele>1603.8</ele>
        <time>2021-05-29T07:42:03Z</time>
      </trkpt>
      <trkpt lat="45.01418" lon="5.74055">
        <ele>1604.2</ele>
        <time>2021-05-29T07:42:04Z</time>
      </trkpt>
      <trkpt lat="45.01418" lon="5.74055">
        <ele>1604.4</ele>
        <time>2021-05-29T07:42:05Z</time>
      </trkpt>
      <trkpt lat="45.01418" lon="5.74055">
        <ele>1604.4</ele>
        <time>2021-05-29T07:42:06Z</time>
      </trkpt>
      <trkpt lat="45.01418" lon="5.74055">
        <ele>1604.4</ele>
        <time>2021-05-29T07:42:07Z</time>
      </trkpt>
      <trkpt lat="45.01418" lon="5.74055">
        <ele>1604.6</ele>
        <time>2021-05-29T07:42:08Z</time>
      </trkpt>
      <trkpt lat="45.01418" lon="5.74055">
        <ele>1604.8</ele>
        <time>2021-05-29T07:42:09Z</time>
      </trkpt>
      <trkpt lat="45.01418" lon="5.74055">
        <ele>1605</ele>
        <time>2021-05-29T07:42:10Z</time>
      </trkpt>
      <trkpt lat="45.01418" lon="5.74055">
        <ele>1605.2</ele>
        <time>2021-05-29T07:42:11Z</time>
      </trkpt>
      <trkpt lat="45.01418" lon="5.74055">
        <ele>1605.4</ele>
        <time>2021-05-29T07:42:12Z</time>
      </trkpt>
      <trkpt lat="45.01418" lon="5.74055">
        <ele>1605.2</ele>
        <time>2021-05-29T07:42:13Z</time>
      </trkpt>
      <trkpt lat="45.0142" lon="5.74055">
        <ele>1605.2</ele>
        <time>2021-05-29T07:42:14Z</time>
      </trkpt>
      <trkpt lat="45.0142" lon="5.74055">
        <ele>1605.2</ele>
        <time>2021-05-29T07:42:15Z</time>
      </trkpt>
      <trkpt lat="45.0142" lon="5.74055">
        <ele>1605</ele>
        <time>2021-05-29T07:42:16Z</time>
      </trkpt>
      <trkpt lat="45.0142" lon="5.74055">
        <ele>1605</ele>
        <time>2021-05-29T07:42:17Z</time>
      </trkpt>
      <trkpt lat="45.0142" lon="5.74055">
        <ele>1605</ele>
        <time>2021-05-29T07:42:18Z</time>
      </trkpt>
      <trkpt lat="45.0142" lon="5.74055">
        <ele>1605.2</ele>
        <time>2021-05-29T07:42:19Z</time>
      </trkpt>
      <trkpt lat="45.0142" lon="5.74055">
        <ele>1605.2</ele>
        <time>2021-05-29T07:42:20Z</time>
      </trkpt>
      <trkpt lat="45.0142" lon="5.74055">
        <ele>1605.2</ele>
        <time>2021-05-29T07:42:21Z</time>
      </trkpt>
      <trkpt lat="45.0142" lon="5.74055">
        <ele>1605.2</ele>
        <time>2021-05-29T07:42:22Z</time>
      </trkpt>
      <trkpt lat="45.0142" lon="5.74055">
        <ele>1605</ele>
        <time>2021-05-29T07:42:23Z</time>
      </trkpt>
      <trkpt lat="45.0142" lon="5.74055">
        <ele>1605</ele>
        <time>2021-05-29T07:42:24Z</time>
      </trkpt>
      <trkpt lat="45.0142" lon="5.74055">
        <ele>1605</ele>
        <time>2021-05-29T07:42:25Z</time>
      </trkpt>
      <trkpt lat="45.0142" lon="5.74055">
        <ele>1605</ele>
        <time>2021-05-29T07:42:26Z</time>
      </trkpt>
      <trkpt lat="45.0142" lon="5.74055">
        <ele>1605</ele>
        <time>2021-05-29T07:42:27Z</time>
      </trkpt>
      <trkpt lat="45.0142" lon="5.74055">
        <ele>1604.8</ele>
        <time>2021-05-29T07:42:28Z</time>
      </trkpt>
      <trkpt lat="45.0142" lon="5.74055">
        <ele>1605</ele>
        <time>2021-05-29T07:42:29Z</time>
      </trkpt>
      <trkpt lat="45.0142" lon="5.74055">
        <ele>1605</ele>
        <time>2021-05-29T07:42:30Z</time>
      </trkpt>
      <trkpt lat="45.0142" lon="5.74055">
        <ele>1605.2</ele>
        <time>2021-05-29T07:42:31Z</time>
      </trkpt>
      <trkpt lat="45.0142" lon="5.74055">
        <ele>1605.2</ele>
        <time>2021-05-29T07:42:32Z</time>
      </trkpt>
      <trkpt lat="45.0142" lon="5.74055">
        <ele>1605</ele>
        <time>2021-05-29T07:42:33Z</time>
      </trkpt>
      <trkpt lat="45.0142" lon="5.74055">
        <ele>1605</ele>
        <time>2021-05-29T07:42:34Z</time>
      </trkpt>
      <trkpt lat="45.0142" lon="5.74055">
        <ele>1605</ele>
        <time>2021-05-29T07:42:35Z</time>
      </trkpt>
      <trkpt lat="45.01421" lon="5.74053">
        <ele>1604.8</ele>
        <time>2021-05-29T07:42:36Z</time>
      </trkpt>
      <trkpt lat="45.01421" lon="5.74053">
        <ele>1605</ele>
        <time>2021-05-29T07:42:37Z</time>
      </trkpt>
      <trkpt lat="45.01421" lon="5.74053">
        <ele>1604.8</ele>
        <time>2021-05-29T07:42:38Z</time>
      </trkpt>
      <trkpt lat="45.01421" lon="5.74053">
        <ele>1605</ele>
        <time>2021-05-29T07:42:39Z</time>
      </trkpt>
      <trkpt lat="45.01421" lon="5.74053">
        <ele>1604.8</ele>
        <time>2021-05-29T07:42:40Z</time>
      </trkpt>
      <trkpt lat="45.01421" lon="5.74053">
        <ele>1604.8</ele>
        <time>2021-05-29T07:42:41Z</time>
      </trkpt>
      <trkpt lat="45.01421" lon="5.74053">
        <ele>1604.8</ele>
        <time>2021-05-29T07:42:42Z</time>
      </trkpt>
      <trkpt lat="45.01421" lon="5.74053">
        <ele>1604.6</ele>
        <time>2021-05-29T07:42:43Z</time>
      </trkpt>
      <trkpt lat="45.01421" lon="5.74053">
        <ele>1604.6</ele>
        <time>2021-05-29T07:42:44Z</time>
      </trkpt>
      <trkpt lat="45.01421" lon="5.74053">
        <ele>1604.6</ele>
        <time>2021-05-29T07:42:45Z</time>
      </trkpt>
      <trkpt lat="45.01421" lon="5.74053">
        <ele>1604.6</ele>
        <time>2021-05-29T07:42:46Z</time>
      </trkpt>
      <trkpt lat="45.01421" lon="5.74053">
        <ele>1604.4</ele>
        <time>2021-05-29T07:42:47Z</time>
      </trkpt>
      <trkpt lat="45.01421" lon="5.74053">
        <ele>1604.2</ele>
        <time>2021-05-29T07:42:48Z</time>
      </trkpt>
      <trkpt lat="45.01421" lon="5.74053">
        <ele>1604.4</ele>
        <time>2021-05-29T07:42:49Z</time>
      </trkpt>
      <trkpt lat="45.01421" lon="5.74053">
        <ele>1604.4</ele>
        <time>2021-05-29T07:42:50Z</time>
      </trkpt>
      <trkpt lat="45.01421" lon="5.74053">
        <ele>1604.6</ele>
        <time>2021-05-29T07:42:51Z</time>
      </trkpt>
      <trkpt lat="45.01421" lon="5.74053">
        <ele>1604.4</ele>
        <time>2021-05-29T07:42:52Z</time>
      </trkpt>
      <trkpt lat="45.01421" lon="5.74053">
        <ele>1604.4</ele>
        <time>2021-05-29T07:42:53Z</time>
      </trkpt>
      <trkpt lat="45.01421" lon="5.74053">
        <ele>1604.4</ele>
        <time>2021-05-29T07:42:54Z</time>
      </trkpt>
      <trkpt lat="45.01421" lon="5.74053">
        <ele>1604.4</ele>
        <time>2021-05-29T07:42:55Z</time>
      </trkpt>
      <trkpt lat="45.01421" lon="5.74053">
        <ele>1604.4</ele>
        <time>2021-05-29T07:42:56Z</time>
      </trkpt>
      <trkpt lat="45.01423" lon="5.74051">
        <ele>1604.4</ele>
        <time>2021-05-29T07:42:57Z</time>
      </trkpt>
      <trkpt lat="45.01423" lon="5.74051">
        <ele>1604.2</ele>
        <time>2021-05-29T07:42:58Z</time>
      </trkpt>
      <trkpt lat="45.01423" lon="5.74051">
        <ele>1604.2</ele>
        <time>2021-05-29T07:42:59Z</time>
      </trkpt>
      <trkpt lat="45.01423" lon="5.74051">
        <ele>1604.2</ele>
        <time>2021-05-29T07:43:00Z</time>
      </trkpt>
      <trkpt lat="45.01423" lon="5.74051">
        <ele>1604.2</ele>
        <time>2021-05-29T07:43:01Z</time>
      </trkpt>
      <trkpt lat="45.01423" lon="5.74051">
        <ele>1603.8</ele>
        <time>2021-05-29T07:43:02Z</time>
      </trkpt>
      <trkpt lat="45.01423" lon="5.74051">
        <ele>1603.6</ele>
        <time>2021-05-29T07:43:03Z</time>
      </trkpt>
      <trkpt lat="45.01423" lon="5.74051">
        <ele>1603.6</ele>
        <time>2021-05-29T07:43:04Z</time>
      </trkpt>
      <trkpt lat="45.01423" lon="5.74051">
        <ele>1603.6</ele>
        <time>2021-05-29T07:43:05Z</time>
      </trkpt>
      <trkpt lat="45.01423" lon="5.74051">
        <ele>1603.4</ele>
        <time>2021-05-29T07:43:06Z</time>
      </trkpt>
      <trkpt lat="45.01423" lon="5.74051">
        <ele>1603.4</ele>
        <time>2021-05-29T07:43:07Z</time>
      </trkpt>
      <trkpt lat="45.01423" lon="5.74051">
        <ele>1603.4</ele>
        <time>2021-05-29T07:43:08Z</time>
      </trkpt>
      <trkpt lat="45.01423" lon="5.74051">
        <ele>1603.2</ele>
        <time>2021-05-29T07:43:09Z</time>
      </trkpt>
      <trkpt lat="45.01423" lon="5.74051">
        <ele>1603</ele>
        <time>2021-05-29T07:43:10Z</time>
      </trkpt>
      <trkpt lat="45.01423" lon="5.74051">
        <ele>1603</ele>
        <time>2021-05-29T07:43:11Z</time>
      </trkpt>
      <trkpt lat="45.01423" lon="5.74051">
        <ele>1602.6</ele>
        <time>2021-05-29T07:43:12Z</time>
      </trkpt>
      <trkpt lat="45.01423" lon="5.74051">
        <ele>1603</ele>
        <time>2021-05-29T07:43:13Z</time>
      </trkpt>
      <trkpt lat="45.01423" lon="5.74051">
        <ele>1603.2</ele>
        <time>2021-05-29T07:43:14Z</time>
      </trkpt>
      <trkpt lat="45.01423" lon="5.74051">
        <ele>1603.2</ele>
        <time>2021-05-29T07:43:15Z</time>
      </trkpt>
      <trkpt lat="45.01423" lon="5.74051">
        <ele>1603.2</ele>
        <time>2021-05-29T07:43:16Z</time>
      </trkpt>
      <trkpt lat="45.01423" lon="5.74051">
        <ele>1603.4</ele>
        <time>2021-05-29T07:43:17Z</time>
      </trkpt>
      <trkpt lat="45.01423" lon="5.74051">
        <ele>1603.8</ele>
        <time>2021-05-29T07:43:18Z</time>
      </trkpt>
      <trkpt lat="45.01423" lon="5.74051">
        <ele>1603.8</ele>
        <time>2021-05-29T07:43:19Z</time>
      </trkpt>
      <trkpt lat="45.01423" lon="5.74051">
        <ele>1603.6</ele>
        <time>2021-05-29T07:43:20Z</time>
      </trkpt>
      <trkpt lat="45.01423" lon="5.74051">
        <ele>1603.4</ele>
        <time>2021-05-29T07:43:21Z</time>
      </trkpt>
      <trkpt lat="45.01423" lon="5.74051">
        <ele>1603.6</ele>
        <time>2021-05-29T07:43:22Z</time>
      </trkpt>
      <trkpt lat="45.01423" lon="5.74051">
        <ele>1603.8</ele>
        <time>2021-05-29T07:43:23Z</time>
      </trkpt>
      <trkpt lat="45.01423" lon="5.74051">
        <ele>1603.8</ele>
        <time>2021-05-29T07:43:24Z</time>
      </trkpt>
      <trkpt lat="45.01423" lon="5.74051">
        <ele>1603.8</ele>
        <time>2021-05-29T07:43:25Z</time>
      </trkpt>
      <trkpt lat="45.01423" lon="5.74051">
        <ele>1603.8</ele>
        <time>2021-05-29T07:43:26Z</time>
      </trkpt>
      <trkpt lat="45.01423" lon="5.74051">
        <ele>1603.6</ele>
        <time>2021-05-29T07:43:27Z</time>
      </trkpt>
      <trkpt lat="45.01423" lon="5.74051">
        <ele>1603.6</ele>
        <time>2021-05-29T07:43:28Z</time>
      </trkpt>
      <trkpt lat="45.01423" lon="5.74051">
        <ele>1603.4</ele>
        <time>2021-05-29T07:43:29Z</time>
      </trkpt>
      <trkpt lat="45.01423" lon="5.74051">
        <ele>1603.2</ele>
        <time>2021-05-29T07:43:30Z</time>
      </trkpt>
      <trkpt lat="45.01423" lon="5.74051">
        <ele>1603.2</ele>
        <time>2021-05-29T07:43:31Z</time>
      </trkpt>
      <trkpt lat="45.01423" lon="5.74051">
        <ele>1603.2</ele>
        <time>2021-05-29T07:43:32Z</time>
      </trkpt>
      <trkpt lat="45.01423" lon="5.74051">
        <ele>1603.2</ele>
        <time>2021-05-29T07:43:33Z</time>
      </trkpt>
      <trkpt lat="45.01423" lon="5.74051">
        <ele>1603</ele>
        <time>2021-05-29T07:43:34Z</time>
      </trkpt>
      <trkpt lat="45.01423" lon="5.74051">
        <ele>1602.8</ele>
        <time>2021-05-29T07:43:35Z</time>
      </trkpt>
      <trkpt lat="45.01423" lon="5.74051">
        <ele>1602.6</ele>
        <time>2021-05-29T07:43:36Z</time>
      </trkpt>
      <trkpt lat="45.01423" lon="5.74051">
        <ele>1602.6</ele>
        <time>2021-05-29T07:43:37Z</time>
      </trkpt>
      <trkpt lat="45.01421" lon="5.74051">
        <ele>1602.6</ele>
        <time>2021-05-29T07:43:38Z</time>
      </trkpt>
      <trkpt lat="45.01421" lon="5.74051">
        <ele>1602.6</ele>
        <time>2021-05-29T07:43:39Z</time>
      </trkpt>
      <trkpt lat="45.01421" lon="5.74051">
        <ele>1602.2</ele>
        <time>2021-05-29T07:43:40Z</time>
      </trkpt>
      <trkpt lat="45.01421" lon="5.74051">
        <ele>1602.2</ele>
        <time>2021-05-29T07:43:41Z</time>
      </trkpt>
      <trkpt lat="45.01421" lon="5.74051">
        <ele>1601.8</ele>
        <time>2021-05-29T07:43:42Z</time>
      </trkpt>
      <trkpt lat="45.01421" lon="5.74051">
        <ele>1601.8</ele>
        <time>2021-05-29T07:43:43Z</time>
      </trkpt>
      <trkpt lat="45.01421" lon="5.74051">
        <ele>1602</ele>
        <time>2021-05-29T07:43:44Z</time>
      </trkpt>
      <trkpt lat="45.01421" lon="5.74051">
        <ele>1602</ele>
        <time>2021-05-29T07:43:45Z</time>
      </trkpt>
      <trkpt lat="45.01421" lon="5.74051">
        <ele>1602.2</ele>
        <time>2021-05-29T07:43:46Z</time>
      </trkpt>
      <trkpt lat="45.01421" lon="5.74051">
        <ele>1602.6</ele>
        <time>2021-05-29T07:43:47Z</time>
      </trkpt>
      <trkpt lat="45.01421" lon="5.74051">
        <ele>1602.8</ele>
        <time>2021-05-29T07:43:48Z</time>
      </trkpt>
      <trkpt lat="45.01421" lon="5.74051">
        <ele>1602.8</ele>
        <time>2021-05-29T07:43:49Z</time>
      </trkpt>
      <trkpt lat="45.01421" lon="5.74051">
        <ele>1602.4</ele>
        <time>2021-05-29T07:43:50Z</time>
      </trkpt>
      <trkpt lat="45.01421" lon="5.74051">
        <ele>1602.4</ele>
        <time>2021-05-29T07:43:51Z</time>
      </trkpt>
      <trkpt lat="45.01421" lon="5.74051">
        <ele>1602.8</ele>
        <time>2021-05-29T07:43:52Z</time>
      </trkpt>
      <trkpt lat="45.01421" lon="5.74051">
        <ele>1602.8</ele>
        <time>2021-05-29T07:43:53Z</time>
      </trkpt>
      <trkpt lat="45.01421" lon="5.74051">
        <ele>1602.8</ele>
        <time>2021-05-29T07:43:54Z</time>
      </trkpt>
      <trkpt lat="45.01423" lon="5.74051">
        <ele>1602.6</ele>
        <time>2021-05-29T07:43:55Z</time>
      </trkpt>
      <trkpt lat="45.01423" lon="5.74051">
        <ele>1602.6</ele>
        <time>2021-05-29T07:43:56Z</time>
      </trkpt>
      <trkpt lat="45.01423" lon="5.74051">
        <ele>1602.4</ele>
        <time>2021-05-29T07:43:57Z</time>
      </trkpt>
      <trkpt lat="45.01423" lon="5.74051">
        <ele>1602.4</ele>
        <time>2021-05-29T07:43:58Z</time>
      </trkpt>
      <trkpt lat="45.01423" lon="5.74051">
        <ele>1602</ele>
        <time>2021-05-29T07:43:59Z</time>
      </trkpt>
      <trkpt lat="45.01423" lon="5.74051">
        <ele>1601.8</ele>
        <time>2021-05-29T07:44:00Z</time>
      </trkpt>
      <trkpt lat="45.01423" lon="5.74051">
        <ele>1601.8</ele>
        <time>2021-05-29T07:44:01Z</time>
      </trkpt>
      <trkpt lat="45.01423" lon="5.74051">
        <ele>1601.6</ele>
        <time>2021-05-29T07:44:02Z</time>
      </trkpt>
      <trkpt lat="45.01423" lon="5.74051">
        <ele>1602</ele>
        <time>2021-05-29T07:44:03Z</time>
      </trkpt>
      <trkpt lat="45.01423" lon="5.74051">
        <ele>1602.2</ele>
        <time>2021-05-29T07:44:04Z</time>
      </trkpt>
      <trkpt lat="45.01423" lon="5.74051">
        <ele>1602.4</ele>
        <time>2021-05-29T07:44:05Z</time>
      </trkpt>
      <trkpt lat="45.01423" lon="5.74051">
        <ele>1602.6</ele>
        <time>2021-05-29T07:44:06Z</time>
      </trkpt>
      <trkpt lat="45.01423" lon="5.74051">
        <ele>1602.8</ele>
        <time>2021-05-29T07:44:07Z</time>
      </trkpt>
      <trkpt lat="45.01423" lon="5.74051">
        <ele>1603</ele>
        <time>2021-05-29T07:44:08Z</time>
      </trkpt>
      <trkpt lat="45.01423" lon="5.74051">
        <ele>1603</ele>
        <time>2021-05-29T07:44:09Z</time>
      </trkpt>
      <trkpt lat="45.01423" lon="5.74051">
        <ele>1603</ele>
        <time>2021-05-29T07:44:10Z</time>
      </trkpt>
      <trkpt lat="45.01423" lon="5.74051">
        <ele>1603</ele>
        <time>2021-05-29T07:44:11Z</time>
      </trkpt>
      <trkpt lat="45.01423" lon="5.74051">
        <ele>1603</ele>
        <time>2021-05-29T07:44:12Z</time>
      </trkpt>
      <trkpt lat="45.01423" lon="5.74051">
        <ele>1603</ele>
        <time>2021-05-29T07:44:13Z</time>
      </trkpt>
      <trkpt lat="45.01423" lon="5.74051">
        <ele>1603</ele>
        <time>2021-05-29T07:44:14Z</time>
      </trkpt>
      <trkpt lat="45.01423" lon="5.74051">
        <ele>1603</ele>
        <time>2021-05-29T07:44:15Z</time>
      </trkpt>
      <trkpt lat="45.01423" lon="5.74051">
        <ele>1602.8</ele>
        <time>2021-05-29T07:44:16Z</time>
      </trkpt>
      <trkpt lat="45.01423" lon="5.74051">
        <ele>1602.6</ele>
        <time>2021-05-29T07:44:17Z</time>
      </trkpt>
      <trkpt lat="45.01423" lon="5.74051">
        <ele>1602.6</ele>
        <time>2021-05-29T07:44:18Z</time>
      </trkpt>
      <trkpt lat="45.01423" lon="5.74051">
        <ele>1602.6</ele>
        <time>2021-05-29T07:44:19Z</time>
      </trkpt>
      <trkpt lat="45.01423" lon="5.74051">
        <ele>1602.6</ele>
        <time>2021-05-29T07:44:20Z</time>
      </trkpt>
      <trkpt lat="45.01423" lon="5.74051">
        <ele>1602.8</ele>
        <time>2021-05-29T07:44:21Z</time>
      </trkpt>
      <trkpt lat="45.01423" lon="5.74051">
        <ele>1603</ele>
        <time>2021-05-29T07:44:22Z</time>
      </trkpt>
      <trkpt lat="45.01423" lon="5.74051">
        <ele>1603</ele>
        <time>2021-05-29T07:44:23Z</time>
      </trkpt>
      <trkpt lat="45.01423" lon="5.74051">
        <ele>1603.2</ele>
        <time>2021-05-29T07:44:24Z</time>
      </trkpt>
      <trkpt lat="45.01423" lon="5.74051">
        <ele>1603.2</ele>
        <time>2021-05-29T07:44:25Z</time>
      </trkpt>
      <trkpt lat="45.01423" lon="5.74051">
        <ele>1603.2</ele>
        <time>2021-05-29T07:44:26Z</time>
      </trkpt>
      <trkpt lat="45.01423" lon="5.74051">
        <ele>1603.2</ele>
        <time>2021-05-29T07:44:27Z</time>
      </trkpt>
      <trkpt lat="45.01423" lon="5.74051">
        <ele>1603</ele>
        <time>2021-05-29T07:44:28Z</time>
      </trkpt>
      <trkpt lat="45.01421" lon="5.74052">
        <ele>1603.2</ele>
        <time>2021-05-29T07:44:29Z</time>
      </trkpt>
      <trkpt lat="45.01421" lon="5.74052">
        <ele>1603.2</ele>
        <time>2021-05-29T07:44:30Z</time>
      </trkpt>
      <trkpt lat="45.01421" lon="5.74052">
        <ele>1603.2</ele>
        <time>2021-05-29T07:44:31Z</time>
      </trkpt>
      <trkpt lat="45.01421" lon="5.74052">
        <ele>1603</ele>
        <time>2021-05-29T07:44:32Z</time>
      </trkpt>
      <trkpt lat="45.01421" lon="5.74052">
        <ele>1603.2</ele>
        <time>2021-05-29T07:44:33Z</time>
      </trkpt>
      <trkpt lat="45.01421" lon="5.74052">
        <ele>1603.2</ele>
        <time>2021-05-29T07:44:34Z</time>
      </trkpt>
      <trkpt lat="45.01421" lon="5.74052">
        <ele>1603.4</ele>
        <time>2021-05-29T07:44:35Z</time>
      </trkpt>
      <trkpt lat="45.01421" lon="5.74052">
        <ele>1603.4</ele>
        <time>2021-05-29T07:44:36Z</time>
      </trkpt>
      <trkpt lat="45.01421" lon="5.74052">
        <ele>1603.4</ele>
        <time>2021-05-29T07:44:37Z</time>
      </trkpt>
      <trkpt lat="45.01421" lon="5.74052">
        <ele>1603.6</ele>
        <time>2021-05-29T07:44:38Z</time>
      </trkpt>
      <trkpt lat="45.01421" lon="5.74052">
        <ele>1603.4</ele>
        <time>2021-05-29T07:44:39Z</time>
      </trkpt>
      <trkpt lat="45.01421" lon="5.74052">
        <ele>1603.6</ele>
        <time>2021-05-29T07:44:40Z</time>
      </trkpt>
      <trkpt lat="45.01421" lon="5.74052">
        <ele>1603.4</ele>
        <time>2021-05-29T07:44:41Z</time>
      </trkpt>
      <trkpt lat="45.01421" lon="5.74052">
        <ele>1603.2</ele>
        <time>2021-05-29T07:44:42Z</time>
      </trkpt>
      <trkpt lat="45.01421" lon="5.74052">
        <ele>1603.4</ele>
        <time>2021-05-29T07:44:43Z</time>
      </trkpt>
      <trkpt lat="45.01421" lon="5.74052">
        <ele>1603.4</ele>
        <time>2021-05-29T07:44:44Z</time>
      </trkpt>
      <trkpt lat="45.01421" lon="5.74052">
        <ele>1603</ele>
        <time>2021-05-29T07:44:45Z</time>
      </trkpt>
      <trkpt lat="45.01421" lon="5.74052">
        <ele>1602.6</ele>
        <time>2021-05-29T07:44:46Z</time>
      </trkpt>
      <trkpt lat="45.01421" lon="5.74052">
        <ele>1602.2</ele>
        <time>2021-05-29T07:44:47Z</time>
      </trkpt>
      <trkpt lat="45.01421" lon="5.74052">
        <ele>1602</ele>
        <time>2021-05-29T07:44:48Z</time>
      </trkpt>
      <trkpt lat="45.01421" lon="5.74052">
        <ele>1601.8</ele>
        <time>2021-05-29T07:44:49Z</time>
      </trkpt>
      <trkpt lat="45.01421" lon="5.74052">
        <ele>1602</ele>
        <time>2021-05-29T07:44:50Z</time>
      </trkpt>
      <trkpt lat="45.0142" lon="5.74054">
        <ele>1602.2</ele>
        <time>2021-05-29T07:44:51Z</time>
      </trkpt>
      <trkpt lat="45.0142" lon="5.74054">
        <ele>1602.2</ele>
        <time>2021-05-29T07:44:52Z</time>
      </trkpt>
      <trkpt lat="45.0142" lon="5.74054">
        <ele>1602.2</ele>
        <time>2021-05-29T07:44:53Z</time>
      </trkpt>
      <trkpt lat="45.0142" lon="5.74054">
        <ele>1602.2</ele>
        <time>2021-05-29T07:44:54Z</time>
      </trkpt>
      <trkpt lat="45.0142" lon="5.74054">
        <ele>1602.6</ele>
        <time>2021-05-29T07:44:55Z</time>
      </trkpt>
      <trkpt lat="45.0142" lon="5.74054">
        <ele>1602.6</ele>
        <time>2021-05-29T07:44:56Z</time>
      </trkpt>
      <trkpt lat="45.0142" lon="5.74054">
        <ele>1602.6</ele>
        <time>2021-05-29T07:44:57Z</time>
      </trkpt>
      <trkpt lat="45.0142" lon="5.74054">
        <ele>1602.6</ele>
        <time>2021-05-29T07:44:58Z</time>
      </trkpt>
      <trkpt lat="45.0142" lon="5.74054">
        <ele>1602.6</ele>
        <time>2021-05-29T07:44:59Z</time>
      </trkpt>
      <trkpt lat="45.0142" lon="5.74054">
        <ele>1602.6</ele>
        <time>2021-05-29T07:45:00Z</time>
      </trkpt>
      <trkpt lat="45.0142" lon="5.74054">
        <ele>1602.6</ele>
        <time>2021-05-29T07:45:01Z</time>
      </trkpt>
      <trkpt lat="45.0142" lon="5.74054">
        <ele>1602.6</ele>
        <time>2021-05-29T07:45:02Z</time>
      </trkpt>
      <trkpt lat="45.0142" lon="5.74054">
        <ele>1602.6</ele>
        <time>2021-05-29T07:45:03Z</time>
      </trkpt>
      <trkpt lat="45.0142" lon="5.74054">
        <ele>1602.8</ele>
        <time>2021-05-29T07:45:04Z</time>
      </trkpt>
      <trkpt lat="45.0142" lon="5.74054">
        <ele>1602.6</ele>
        <time>2021-05-29T07:45:05Z</time>
      </trkpt>
      <trkpt lat="45.0142" lon="5.74054">
        <ele>1602.4</ele>
        <time>2021-05-29T07:45:06Z</time>
      </trkpt>
      <trkpt lat="45.0142" lon="5.74054">
        <ele>1602.2</ele>
        <time>2021-05-29T07:45:07Z</time>
      </trkpt>
      <trkpt lat="45.0142" lon="5.74054">
        <ele>1602.4</ele>
        <time>2021-05-29T07:45:08Z</time>
      </trkpt>
      <trkpt lat="45.0142" lon="5.74054">
        <ele>1602.4</ele>
        <time>2021-05-29T07:45:09Z</time>
      </trkpt>
      <trkpt lat="45.0142" lon="5.74054">
        <ele>1603</ele>
        <time>2021-05-29T07:45:10Z</time>
      </trkpt>
      <trkpt lat="45.0142" lon="5.74054">
        <ele>1603</ele>
        <time>2021-05-29T07:45:11Z</time>
      </trkpt>
      <trkpt lat="45.0142" lon="5.74054">
        <ele>1603</ele>
        <time>2021-05-29T07:45:12Z</time>
      </trkpt>
      <trkpt lat="45.0142" lon="5.74054">
        <ele>1603.4</ele>
        <time>2021-05-29T07:45:13Z</time>
      </trkpt>
      <trkpt lat="45.0142" lon="5.74054">
        <ele>1603.4</ele>
        <time>2021-05-29T07:45:14Z</time>
      </trkpt>
      <trkpt lat="45.0142" lon="5.74054">
        <ele>1603.2</ele>
        <time>2021-05-29T07:45:15Z</time>
      </trkpt>
      <trkpt lat="45.0142" lon="5.74054">
        <ele>1603.4</ele>
        <time>2021-05-29T07:45:16Z</time>
      </trkpt>
      <trkpt lat="45.0142" lon="5.74054">
        <ele>1603.4</ele>
        <time>2021-05-29T07:45:17Z</time>
      </trkpt>
      <trkpt lat="45.0142" lon="5.74054">
        <ele>1603.4</ele>
        <time>2021-05-29T07:45:18Z</time>
      </trkpt>
      <trkpt lat="45.0142" lon="5.74054">
        <ele>1603.4</ele>
        <time>2021-05-29T07:45:19Z</time>
      </trkpt>
      <trkpt lat="45.0142" lon="5.74054">
        <ele>1603.2</ele>
        <time>2021-05-29T07:45:20Z</time>
      </trkpt>
      <trkpt lat="45.0142" lon="5.74054">
        <ele>1603</ele>
        <time>2021-05-29T07:45:21Z</time>
      </trkpt>
      <trkpt lat="45.0142" lon="5.74054">
        <ele>1602.6</ele>
        <time>2021-05-29T07:45:22Z</time>
      </trkpt>
      <trkpt lat="45.0142" lon="5.74054">
        <ele>1602.2</ele>
        <time>2021-05-29T07:45:23Z</time>
      </trkpt>
      <trkpt lat="45.0142" lon="5.74054">
        <ele>1602</ele>
        <time>2021-05-29T07:45:24Z</time>
      </trkpt>
      <trkpt lat="45.0142" lon="5.74054">
        <ele>1602.4</ele>
        <time>2021-05-29T07:45:25Z</time>
      </trkpt>
      <trkpt lat="45.0142" lon="5.74054">
        <ele>1602.6</ele>
        <time>2021-05-29T07:45:26Z</time>
      </trkpt>
      <trkpt lat="45.0142" lon="5.74054">
        <ele>1602.8</ele>
        <time>2021-05-29T07:45:27Z</time>
      </trkpt>
      <trkpt lat="45.0142" lon="5.74054">
        <ele>1603</ele>
        <time>2021-05-29T07:45:28Z</time>
      </trkpt>
      <trkpt lat="45.0142" lon="5.74054">
        <ele>1602.8</ele>
        <time>2021-05-29T07:45:29Z</time>
      </trkpt>
      <trkpt lat="45.0142" lon="5.74054">
        <ele>1602.8</ele>
        <time>2021-05-29T07:45:30Z</time>
      </trkpt>
      <trkpt lat="45.0142" lon="5.74054">
        <ele>1603.2</ele>
        <time>2021-05-29T07:45:31Z</time>
      </trkpt>
      <trkpt lat="45.0142" lon="5.74054">
        <ele>1603.2</ele>
        <time>2021-05-29T07:45:32Z</time>
      </trkpt>
      <trkpt lat="45.01422" lon="5.74056">
        <ele>1603.2</ele>
        <time>2021-05-29T07:45:33Z</time>
      </trkpt>
      <trkpt lat="45.01422" lon="5.74056">
        <ele>1603.2</ele>
        <time>2021-05-29T07:45:34Z</time>
      </trkpt>
      <trkpt lat="45.01422" lon="5.74056">
        <ele>1603</ele>
        <time>2021-05-29T07:45:35Z</time>
      </trkpt>
      <trkpt lat="45.01422" lon="5.74056">
        <ele>1603</ele>
        <time>2021-05-29T07:45:36Z</time>
      </trkpt>
      <trkpt lat="45.01422" lon="5.74056">
        <ele>1603</ele>
        <time>2021-05-29T07:45:37Z</time>
      </trkpt>
      <trkpt lat="45.01422" lon="5.74056">
        <ele>1603</ele>
        <time>2021-05-29T07:45:38Z</time>
      </trkpt>
      <trkpt lat="45.01422" lon="5.74056">
        <ele>1603</ele>
        <time>2021-05-29T07:45:39Z</time>
      </trkpt>
      <trkpt lat="45.01422" lon="5.74056">
        <ele>1603</ele>
        <time>2021-05-29T07:45:40Z</time>
      </trkpt>
      <trkpt lat="45.01422" lon="5.74056">
        <ele>1603.4</ele>
        <time>2021-05-29T07:45:41Z</time>
      </trkpt>
      <trkpt lat="45.01422" lon="5.74056">
        <ele>1603.6</ele>
        <time>2021-05-29T07:45:42Z</time>
      </trkpt>
      <trkpt lat="45.01422" lon="5.74056">
        <ele>1603.6</ele>
        <time>2021-05-29T07:45:43Z</time>
      </trkpt>
      <trkpt lat="45.01422" lon="5.74056">
        <ele>1603.8</ele>
        <time>2021-05-29T07:45:44Z</time>
      </trkpt>
      <trkpt lat="45.01422" lon="5.74056">
        <ele>1603.6</ele>
        <time>2021-05-29T07:45:45Z</time>
      </trkpt>
      <trkpt lat="45.01422" lon="5.74056">
        <ele>1603.8</ele>
        <time>2021-05-29T07:45:46Z</time>
      </trkpt>
      <trkpt lat="45.01422" lon="5.74056">
        <ele>1603.8</ele>
        <time>2021-05-29T07:45:47Z</time>
      </trkpt>
      <trkpt lat="45.01422" lon="5.74056">
        <ele>1603.6</ele>
        <time>2021-05-29T07:45:48Z</time>
      </trkpt>
      <trkpt lat="45.01422" lon="5.74056">
        <ele>1603.8</ele>
        <time>2021-05-29T07:45:49Z</time>
      </trkpt>
      <trkpt lat="45.01422" lon="5.74056">
        <ele>1603.4</ele>
        <time>2021-05-29T07:45:50Z</time>
      </trkpt>
      <trkpt lat="45.01422" lon="5.74056">
        <ele>1603</ele>
        <time>2021-05-29T07:45:51Z</time>
      </trkpt>
      <trkpt lat="45.01422" lon="5.74056">
        <ele>1603</ele>
        <time>2021-05-29T07:45:52Z</time>
      </trkpt>
      <trkpt lat="45.01422" lon="5.74056">
        <ele>1603.2</ele>
        <time>2021-05-29T07:45:53Z</time>
      </trkpt>
      <trkpt lat="45.01422" lon="5.74056">
        <ele>1603</ele>
        <time>2021-05-29T07:45:54Z</time>
      </trkpt>
      <trkpt lat="45.01422" lon="5.74056">
        <ele>1602.8</ele>
        <time>2021-05-29T07:45:55Z</time>
      </trkpt>
      <trkpt lat="45.01422" lon="5.74056">
        <ele>1602.4</ele>
        <time>2021-05-29T07:45:56Z</time>
      </trkpt>
      <trkpt lat="45.01422" lon="5.74056">
        <ele>1602.4</ele>
        <time>2021-05-29T07:45:57Z</time>
      </trkpt>
      <trkpt lat="45.01422" lon="5.74056">
        <ele>1602.2</ele>
        <time>2021-05-29T07:45:58Z</time>
      </trkpt>
      <trkpt lat="45.01422" lon="5.74056">
        <ele>1602</ele>
        <time>2021-05-29T07:45:59Z</time>
      </trkpt>
      <trkpt lat="45.01422" lon="5.74056">
        <ele>1602</ele>
        <time>2021-05-29T07:46:00Z</time>
      </trkpt>
      <trkpt lat="45.01421" lon="5.74058">
        <ele>1602</ele>
        <time>2021-05-29T07:46:01Z</time>
      </trkpt>
      <trkpt lat="45.01421" lon="5.74058">
        <ele>1602</ele>
        <time>2021-05-29T07:46:02Z</time>
      </trkpt>
      <trkpt lat="45.01421" lon="5.74058">
        <ele>1601.8</ele>
        <time>2021-05-29T07:46:03Z</time>
      </trkpt>
      <trkpt lat="45.01421" lon="5.74058">
        <ele>1601.8</ele>
        <time>2021-05-29T07:46:04Z</time>
      </trkpt>
      <trkpt lat="45.0142" lon="5.74058">
        <ele>1601.6</ele>
        <time>2021-05-29T07:46:05Z</time>
      </trkpt>
      <trkpt lat="45.0142" lon="5.74058">
        <ele>1601.6</ele>
        <time>2021-05-29T07:46:06Z</time>
      </trkpt>
      <trkpt lat="45.0142" lon="5.74058">
        <ele>1602</ele>
        <time>2021-05-29T07:46:07Z</time>
      </trkpt>
      <trkpt lat="45.0142" lon="5.74058">
        <ele>1602.4</ele>
        <time>2021-05-29T07:46:08Z</time>
      </trkpt>
      <trkpt lat="45.0142" lon="5.74058">
        <ele>1602.6</ele>
        <time>2021-05-29T07:46:09Z</time>
      </trkpt>
      <trkpt lat="45.0142" lon="5.74058">
        <ele>1602.6</ele>
        <time>2021-05-29T07:46:10Z</time>
      </trkpt>
      <trkpt lat="45.0142" lon="5.74058">
        <ele>1602.6</ele>
        <time>2021-05-29T07:46:11Z</time>
      </trkpt>
      <trkpt lat="45.0142" lon="5.74059">
        <ele>1602.8</ele>
        <time>2021-05-29T07:46:12Z</time>
      </trkpt>
      <trkpt lat="45.0142" lon="5.74059">
        <ele>1603</ele>
        <time>2021-05-29T07:46:13Z</time>
      </trkpt>
      <trkpt lat="45.0142" lon="5.74059">
        <ele>1603</ele>
        <time>2021-05-29T07:46:14Z</time>
      </trkpt>
      <trkpt lat="45.0142" lon="5.74059">
        <ele>1603</ele>
        <time>2021-05-29T07:46:15Z</time>
      </trkpt>
      <trkpt lat="45.01419" lon="5.74059">
        <ele>1603</ele>
        <time>2021-05-29T07:46:16Z</time>
      </trkpt>
      <trkpt lat="45.01419" lon="5.74059">
        <ele>1603.2</ele>
        <time>2021-05-29T07:46:17Z</time>
      </trkpt>
      <trkpt lat="45.01419" lon="5.74059">
        <ele>1603.4</ele>
        <time>2021-05-29T07:46:18Z</time>
      </trkpt>
      <trkpt lat="45.01419" lon="5.74059">
        <ele>1603.4</ele>
        <time>2021-05-29T07:46:19Z</time>
      </trkpt>
      <trkpt lat="45.01419" lon="5.74059">
        <ele>1603.4</ele>
        <time>2021-05-29T07:46:20Z</time>
      </trkpt>
      <trkpt lat="45.01419" lon="5.7406">
        <ele>1603.2</ele>
        <time>2021-05-29T07:46:21Z</time>
      </trkpt>
      <trkpt lat="45.01419" lon="5.7406">
        <ele>1603.4</ele>
        <time>2021-05-29T07:46:22Z</time>
      </trkpt>
      <trkpt lat="45.01419" lon="5.7406">
        <ele>1603.2</ele>
        <time>2021-05-29T07:46:23Z</time>
      </trkpt>
      <trkpt lat="45.01419" lon="5.7406">
        <ele>1603.2</ele>
        <time>2021-05-29T07:46:24Z</time>
      </trkpt>
      <trkpt lat="45.01419" lon="5.7406">
        <ele>1603.2</ele>
        <time>2021-05-29T07:46:25Z</time>
      </trkpt>
      <trkpt lat="45.01419" lon="5.7406">
        <ele>1603.2</ele>
        <time>2021-05-29T07:46:26Z</time>
      </trkpt>
      <trkpt lat="45.01418" lon="5.7406">
        <ele>1603.2</ele>
        <time>2021-05-29T07:46:27Z</time>
      </trkpt>
      <trkpt lat="45.01418" lon="5.7406">
        <ele>1602.6</ele>
        <time>2021-05-29T07:46:28Z</time>
      </trkpt>
      <trkpt lat="45.01418" lon="5.7406">
        <ele>1602.6</ele>
        <time>2021-05-29T07:46:29Z</time>
      </trkpt>
      <trkpt lat="45.01418" lon="5.7406">
        <ele>1602.6</ele>
        <time>2021-05-29T07:46:30Z</time>
      </trkpt>
      <trkpt lat="45.01418" lon="5.74061">
        <ele>1602.6</ele>
        <time>2021-05-29T07:46:31Z</time>
      </trkpt>
      <trkpt lat="45.01418" lon="5.74061">
        <ele>1602.6</ele>
        <time>2021-05-29T07:46:32Z</time>
      </trkpt>
      <trkpt lat="45.01418" lon="5.74061">
        <ele>1602.4</ele>
        <time>2021-05-29T07:46:33Z</time>
      </trkpt>
      <trkpt lat="45.01418" lon="5.74061">
        <ele>1602.2</ele>
        <time>2021-05-29T07:46:34Z</time>
      </trkpt>
      <trkpt lat="45.01418" lon="5.74061">
        <ele>1602.2</ele>
        <time>2021-05-29T07:46:35Z</time>
      </trkpt>
      <trkpt lat="45.01418" lon="5.74061">
        <ele>1602</ele>
        <time>2021-05-29T07:46:36Z</time>
      </trkpt>
      <trkpt lat="45.01417" lon="5.74061">
        <ele>1601.8</ele>
        <time>2021-05-29T07:46:37Z</time>
      </trkpt>
      <trkpt lat="45.01417" lon="5.74061">
        <ele>1602</ele>
        <time>2021-05-29T07:46:38Z</time>
      </trkpt>
      <trkpt lat="45.01417" lon="5.74061">
        <ele>1602</ele>
        <time>2021-05-29T07:46:39Z</time>
      </trkpt>
      <trkpt lat="45.01417" lon="5.74062">
        <ele>1602.2</ele>
        <time>2021-05-29T07:46:40Z</time>
      </trkpt>
      <trkpt lat="45.01417" lon="5.74062">
        <ele>1602</ele>
        <time>2021-05-29T07:46:41Z</time>
      </trkpt>
      <trkpt lat="45.01417" lon="5.74062">
        <ele>1602</ele>
        <time>2021-05-29T07:46:42Z</time>
      </trkpt>
      <trkpt lat="45.01417" lon="5.74062">
        <ele>1601.8</ele>
        <time>2021-05-29T07:46:43Z</time>
      </trkpt>
      <trkpt lat="45.01417" lon="5.74062">
        <ele>1601.8</ele>
        <time>2021-05-29T07:46:44Z</time>
      </trkpt>
      <trkpt lat="45.01417" lon="5.74062">
        <ele>1601.8</ele>
        <time>2021-05-29T07:46:45Z</time>
      </trkpt>
      <trkpt lat="45.01417" lon="5.74062">
        <ele>1601.6</ele>
        <time>2021-05-29T07:46:46Z</time>
      </trkpt>
      <trkpt lat="45.01417" lon="5.74062">
        <ele>1601.8</ele>
        <time>2021-05-29T07:46:47Z</time>
      </trkpt>
      <trkpt lat="45.01417" lon="5.74062">
        <ele>1601.6</ele>
        <time>2021-05-29T07:46:48Z</time>
      </trkpt>
      <trkpt lat="45.01417" lon="5.74062">
        <ele>1601.8</ele>
        <time>2021-05-29T07:46:49Z</time>
      </trkpt>
      <trkpt lat="45.01417" lon="5.74062">
        <ele>1602</ele>
        <time>2021-05-29T07:46:50Z</time>
      </trkpt>
      <trkpt lat="45.01417" lon="5.74062">
        <ele>1602</ele>
        <time>2021-05-29T07:46:51Z</time>
      </trkpt>
      <trkpt lat="45.01417" lon="5.74062">
        <ele>1602</ele>
        <time>2021-05-29T07:46:52Z</time>
      </trkpt>
      <trkpt lat="45.01417" lon="5.74062">
        <ele>1602</ele>
        <time>2021-05-29T07:46:53Z</time>
      </trkpt>
      <trkpt lat="45.01415" lon="5.7406">
        <ele>1602</ele>
        <time>2021-05-29T07:46:54Z</time>
      </trkpt>
      <trkpt lat="45.01415" lon="5.7406">
        <ele>1601.8</ele>
        <time>2021-05-29T07:46:55Z</time>
      </trkpt>
      <trkpt lat="45.01415" lon="5.7406">
        <ele>1601.8</ele>
        <time>2021-05-29T07:46:56Z</time>
      </trkpt>
      <trkpt lat="45.01415" lon="5.74056">
        <ele>1601.6</ele>
        <time>2021-05-29T07:46:57Z</time>
      </trkpt>
      <trkpt lat="45.01415" lon="5.74056">
        <ele>1601.6</ele>
        <time>2021-05-29T07:46:58Z</time>
      </trkpt>
      <trkpt lat="45.01415" lon="5.74056">
        <ele>1601.6</ele>
        <time>2021-05-29T07:46:59Z</time>
      </trkpt>
      <trkpt lat="45.01415" lon="5.74056">
        <ele>1601.8</ele>
        <time>2021-05-29T07:47:00Z</time>
      </trkpt>
      <trkpt lat="45.01415" lon="5.74056">
        <ele>1601.8</ele>
        <time>2021-05-29T07:47:01Z</time>
      </trkpt>
      <trkpt lat="45.01414" lon="5.74054">
        <ele>1601.8</ele>
        <time>2021-05-29T07:47:02Z</time>
      </trkpt>
      <trkpt lat="45.01414" lon="5.74054">
        <ele>1602</ele>
        <time>2021-05-29T07:47:03Z</time>
      </trkpt>
      <trkpt lat="45.01414" lon="5.74054">
        <ele>1602</ele>
        <time>2021-05-29T07:47:04Z</time>
      </trkpt>
      <trkpt lat="45.01414" lon="5.74054">
        <ele>1602</ele>
        <time>2021-05-29T07:47:05Z</time>
      </trkpt>
      <trkpt lat="45.01414" lon="5.74054">
        <ele>1601.8</ele>
        <time>2021-05-29T07:47:06Z</time>
      </trkpt>
      <trkpt lat="45.01414" lon="5.74054">
        <ele>1601.8</ele>
        <time>2021-05-29T07:47:07Z</time>
      </trkpt>
      <trkpt lat="45.01414" lon="5.74054">
        <ele>1602.4</ele>
        <time>2021-05-29T07:47:08Z</time>
      </trkpt>
      <trkpt lat="45.01414" lon="5.74054">
        <ele>1601.8</ele>
        <time>2021-05-29T07:47:09Z</time>
      </trkpt>
      <trkpt lat="45.01414" lon="5.74054">
        <ele>1601.8</ele>
        <time>2021-05-29T07:47:10Z</time>
      </trkpt>
      <trkpt lat="45.01414" lon="5.74054">
        <ele>1601.8</ele>
        <time>2021-05-29T07:47:11Z</time>
      </trkpt>
      <trkpt lat="45.01414" lon="5.74054">
        <ele>1602</ele>
        <time>2021-05-29T07:47:12Z</time>
      </trkpt>
      <trkpt lat="45.01414" lon="5.74054">
        <ele>1602.4</ele>
        <time>2021-05-29T07:47:13Z</time>
      </trkpt>
      <trkpt lat="45.01414" lon="5.74054">
        <ele>1602.2</ele>
        <time>2021-05-29T07:47:14Z</time>
      </trkpt>
      <trkpt lat="45.01415" lon="5.74054">
        <ele>1602.8</ele>
        <time>2021-05-29T07:47:15Z</time>
      </trkpt>
      <trkpt lat="45.01415" lon="5.74054">
        <ele>1603.4</ele>
        <time>2021-05-29T07:47:16Z</time>
      </trkpt>
      <trkpt lat="45.01415" lon="5.74054">
        <ele>1603</ele>
        <time>2021-05-29T07:47:17Z</time>
      </trkpt>
      <trkpt lat="45.01415" lon="5.74054">
        <ele>1602.8</ele>
        <time>2021-05-29T07:47:18Z</time>
      </trkpt>
      <trkpt lat="45.01415" lon="5.74054">
        <ele>1602.6</ele>
        <time>2021-05-29T07:47:19Z</time>
      </trkpt>
      <trkpt lat="45.01415" lon="5.74054">
        <ele>1602.6</ele>
        <time>2021-05-29T07:47:20Z</time>
      </trkpt>
      <trkpt lat="45.01415" lon="5.74054">
        <ele>1602.4</ele>
        <time>2021-05-29T07:47:21Z</time>
      </trkpt>
      <trkpt lat="45.01415" lon="5.74054">
        <ele>1602.4</ele>
        <time>2021-05-29T07:47:22Z</time>
      </trkpt>
      <trkpt lat="45.01415" lon="5.74054">
        <ele>1602.2</ele>
        <time>2021-05-29T07:47:23Z</time>
      </trkpt>
      <trkpt lat="45.01415" lon="5.74054">
        <ele>1602.2</ele>
        <time>2021-05-29T07:47:24Z</time>
      </trkpt>
      <trkpt lat="45.01415" lon="5.74054">
        <ele>1602.4</ele>
        <time>2021-05-29T07:47:25Z</time>
      </trkpt>
      <trkpt lat="45.01415" lon="5.74054">
        <ele>1602.4</ele>
        <time>2021-05-29T07:47:26Z</time>
      </trkpt>
      <trkpt lat="45.01415" lon="5.74054">
        <ele>1602.2</ele>
        <time>2021-05-29T07:47:27Z</time>
      </trkpt>
      <trkpt lat="45.01415" lon="5.74054">
        <ele>1602.2</ele>
        <time>2021-05-29T07:47:28Z</time>
      </trkpt>
      <trkpt lat="45.01417" lon="5.74054">
        <ele>1602</ele>
        <time>2021-05-29T07:47:29Z</time>
      </trkpt>
      <trkpt lat="45.01417" lon="5.74054">
        <ele>1602</ele>
        <time>2021-05-29T07:47:30Z</time>
      </trkpt>
      <trkpt lat="45.01417" lon="5.74054">
        <ele>1602</ele>
        <time>2021-05-29T07:47:31Z</time>
      </trkpt>
      <trkpt lat="45.01417" lon="5.74054">
        <ele>1601.6</ele>
        <time>2021-05-29T07:47:32Z</time>
      </trkpt>
      <trkpt lat="45.01419" lon="5.74056">
        <ele>1601.8</ele>
        <time>2021-05-29T07:47:33Z</time>
      </trkpt>
      <trkpt lat="45.01419" lon="5.74056">
        <ele>1601.6</ele>
        <time>2021-05-29T07:47:34Z</time>
      </trkpt>
      <trkpt lat="45.0142" lon="5.74059">
        <ele>1601</ele>
        <time>2021-05-29T07:47:35Z</time>
      </trkpt>
      <trkpt lat="45.0142" lon="5.74059">
        <ele>1600.8</ele>
        <time>2021-05-29T07:47:36Z</time>
      </trkpt>
      <trkpt lat="45.0142" lon="5.74059">
        <ele>1600.6</ele>
        <time>2021-05-29T07:47:37Z</time>
      </trkpt>
      <trkpt lat="45.0142" lon="5.74059">
        <ele>1601</ele>
        <time>2021-05-29T07:47:38Z</time>
      </trkpt>
      <trkpt lat="45.0142" lon="5.74059">
        <ele>1601.2</ele>
        <time>2021-05-29T07:47:39Z</time>
      </trkpt>
      <trkpt lat="45.0142" lon="5.74059">
        <ele>1601.2</ele>
        <time>2021-05-29T07:47:40Z</time>
      </trkpt>
      <trkpt lat="45.0142" lon="5.74059">
        <ele>1601.4</ele>
        <time>2021-05-29T07:47:41Z</time>
      </trkpt>
      <trkpt lat="45.0142" lon="5.74059">
        <ele>1601.2</ele>
        <time>2021-05-29T07:47:42Z</time>
      </trkpt>
      <trkpt lat="45.0142" lon="5.74059">
        <ele>1601.2</ele>
        <time>2021-05-29T07:47:43Z</time>
      </trkpt>
      <trkpt lat="45.0142" lon="5.74059">
        <ele>1601</ele>
        <time>2021-05-29T07:47:44Z</time>
      </trkpt>
      <trkpt lat="45.0142" lon="5.74059">
        <ele>1601</ele>
        <time>2021-05-29T07:47:45Z</time>
      </trkpt>
      <trkpt lat="45.0142" lon="5.74059">
        <ele>1601.2</ele>
        <time>2021-05-29T07:47:46Z</time>
      </trkpt>
      <trkpt lat="45.0142" lon="5.74059">
        <ele>1601.4</ele>
        <time>2021-05-29T07:47:47Z</time>
      </trkpt>
      <trkpt lat="45.0142" lon="5.74059">
        <ele>1601.4</ele>
        <time>2021-05-29T07:47:48Z</time>
      </trkpt>
      <trkpt lat="45.0142" lon="5.74059">
        <ele>1601.4</ele>
        <time>2021-05-29T07:47:49Z</time>
      </trkpt>
      <trkpt lat="45.0142" lon="5.74059">
        <ele>1601.4</ele>
        <time>2021-05-29T07:47:50Z</time>
      </trkpt>
      <trkpt lat="45.0142" lon="5.74059">
        <ele>1601.6</ele>
        <time>2021-05-29T07:47:51Z</time>
      </trkpt>
      <trkpt lat="45.0142" lon="5.74059">
        <ele>1601.8</ele>
        <time>2021-05-29T07:47:52Z</time>
      </trkpt>
      <trkpt lat="45.0142" lon="5.74059">
        <ele>1601.6</ele>
        <time>2021-05-29T07:47:53Z</time>
      </trkpt>
      <trkpt lat="45.0142" lon="5.74059">
        <ele>1601.4</ele>
        <time>2021-05-29T07:47:54Z</time>
      </trkpt>
      <trkpt lat="45.0142" lon="5.74059">
        <ele>1601.4</ele>
        <time>2021-05-29T07:47:55Z</time>
      </trkpt>
      <trkpt lat="45.0142" lon="5.74059">
        <ele>1601.4</ele>
        <time>2021-05-29T07:47:56Z</time>
      </trkpt>
      <trkpt lat="45.0142" lon="5.74059">
        <ele>1601.4</ele>
        <time>2021-05-29T07:47:57Z</time>
      </trkpt>
      <trkpt lat="45.0142" lon="5.74059">
        <ele>1601.2</ele>
        <time>2021-05-29T07:47:58Z</time>
      </trkpt>
      <trkpt lat="45.0142" lon="5.74059">
        <ele>1601.4</ele>
        <time>2021-05-29T07:47:59Z</time>
      </trkpt>
      <trkpt lat="45.0142" lon="5.74059">
        <ele>1601</ele>
        <time>2021-05-29T07:48:00Z</time>
      </trkpt>
      <trkpt lat="45.0142" lon="5.74059">
        <ele>1601.2</ele>
        <time>2021-05-29T07:48:01Z</time>
      </trkpt>
      <trkpt lat="45.0142" lon="5.74059">
        <ele>1601.4</ele>
        <time>2021-05-29T07:48:02Z</time>
      </trkpt>
      <trkpt lat="45.01422" lon="5.74062">
        <ele>1600.8</ele>
        <time>2021-05-29T07:48:03Z</time>
      </trkpt>
      <trkpt lat="45.01422" lon="5.74062">
        <ele>1600.6</ele>
        <time>2021-05-29T07:48:04Z</time>
      </trkpt>
      <trkpt lat="45.01423" lon="5.74064">
        <ele>1600.2</ele>
        <time>2021-05-29T07:48:05Z</time>
      </trkpt>
      <trkpt lat="45.01425" lon="5.74067">
        <ele>1600.2</ele>
        <time>2021-05-29T07:48:06Z</time>
      </trkpt>
      <trkpt lat="45.01425" lon="5.74067">
        <ele>1599.8</ele>
        <time>2021-05-29T07:48:07Z</time>
      </trkpt>
      <trkpt lat="45.01425" lon="5.74067">
        <ele>1600</ele>
        <time>2021-05-29T07:48:08Z</time>
      </trkpt>
      <trkpt lat="45.01427" lon="5.74071">
        <ele>1600</ele>
        <time>2021-05-29T07:48:09Z</time>
      </trkpt>
      <trkpt lat="45.01427" lon="5.74071">
        <ele>1600</ele>
        <time>2021-05-29T07:48:10Z</time>
      </trkpt>
      <trkpt lat="45.01428" lon="5.74074">
        <ele>1599.6</ele>
        <time>2021-05-29T07:48:11Z</time>
      </trkpt>
      <trkpt lat="45.01428" lon="5.74074">
        <ele>1599.6</ele>
        <time>2021-05-29T07:48:12Z</time>
      </trkpt>
      <trkpt lat="45.01429" lon="5.74077">
        <ele>1599.6</ele>
        <time>2021-05-29T07:48:13Z</time>
      </trkpt>
      <trkpt lat="45.01429" lon="5.74077">
        <ele>1599</ele>
        <time>2021-05-29T07:48:14Z</time>
      </trkpt>
      <trkpt lat="45.01429" lon="5.74077">
        <ele>1599</ele>
        <time>2021-05-29T07:48:15Z</time>
      </trkpt>
      <trkpt lat="45.0143" lon="5.74079">
        <ele>1599.2</ele>
        <time>2021-05-29T07:48:16Z</time>
      </trkpt>
      <trkpt lat="45.0143" lon="5.74079">
        <ele>1599</ele>
        <time>2021-05-29T07:48:17Z</time>
      </trkpt>
      <trkpt lat="45.0143" lon="5.74079">
        <ele>1599</ele>
        <time>2021-05-29T07:48:18Z</time>
      </trkpt>
      <trkpt lat="45.01433" lon="5.74081">
        <ele>1599.4</ele>
        <time>2021-05-29T07:48:19Z</time>
      </trkpt>
      <trkpt lat="45.01436" lon="5.74085">
        <ele>1599.6</ele>
        <time>2021-05-29T07:48:20Z</time>
      </trkpt>
      <trkpt lat="45.01436" lon="5.74085">
        <ele>1599.6</ele>
        <time>2021-05-29T07:48:21Z</time>
      </trkpt>
      <trkpt lat="45.01437" lon="5.74087">
        <ele>1599.2</ele>
        <time>2021-05-29T07:48:22Z</time>
      </trkpt>
      <trkpt lat="45.01439" lon="5.74089">
        <ele>1599</ele>
        <time>2021-05-29T07:48:23Z</time>
      </trkpt>
      <trkpt lat="45.0144" lon="5.74092">
        <ele>1598.6</ele>
        <time>2021-05-29T07:48:24Z</time>
      </trkpt>
      <trkpt lat="45.01442" lon="5.74095">
        <ele>1598</ele>
        <time>2021-05-29T07:48:25Z</time>
      </trkpt>
      <trkpt lat="45.01443" lon="5.74097">
        <ele>1597</ele>
        <time>2021-05-29T07:48:26Z</time>
      </trkpt>
      <trkpt lat="45.01447" lon="5.74103">
        <ele>1596.4</ele>
        <time>2021-05-29T07:48:27Z</time>
      </trkpt>
      <trkpt lat="45.01447" lon="5.74103">
        <ele>1596</ele>
        <time>2021-05-29T07:48:28Z</time>
      </trkpt>
      <trkpt lat="45.01448" lon="5.74105">
        <ele>1594.8</ele>
        <time>2021-05-29T07:48:29Z</time>
      </trkpt>
      <trkpt lat="45.01451" lon="5.74111">
        <ele>1595.2</ele>
        <time>2021-05-29T07:48:30Z</time>
      </trkpt>
      <trkpt lat="45.01451" lon="5.74111">
        <ele>1594.4</ele>
        <time>2021-05-29T07:48:31Z</time>
      </trkpt>
      <trkpt lat="45.01454" lon="5.74114">
        <ele>1594.6</ele>
        <time>2021-05-29T07:48:32Z</time>
      </trkpt>
      <trkpt lat="45.01456" lon="5.74117">
        <ele>1593.8</ele>
        <time>2021-05-29T07:48:33Z</time>
      </trkpt>
      <trkpt lat="45.01458" lon="5.7412">
        <ele>1593.8</ele>
        <time>2021-05-29T07:48:34Z</time>
      </trkpt>
      <trkpt lat="45.0146" lon="5.74123">
        <ele>1593.4</ele>
        <time>2021-05-29T07:48:35Z</time>
      </trkpt>
      <trkpt lat="45.01463" lon="5.74127">
        <ele>1592.2</ele>
        <time>2021-05-29T07:48:36Z</time>
      </trkpt>
      <trkpt lat="45.01465" lon="5.74131">
        <ele>1592.4</ele>
        <time>2021-05-29T07:48:37Z</time>
      </trkpt>
      <trkpt lat="45.01468" lon="5.74135">
        <ele>1592</ele>
        <time>2021-05-29T07:48:38Z</time>
      </trkpt>
      <trkpt lat="45.0147" lon="5.74137">
        <ele>1592.4</ele>
        <time>2021-05-29T07:48:39Z</time>
      </trkpt>
      <trkpt lat="45.01471" lon="5.74139">
        <ele>1591.2</ele>
        <time>2021-05-29T07:48:40Z</time>
      </trkpt>
      <trkpt lat="45.01473" lon="5.74142">
        <ele>1591</ele>
        <time>2021-05-29T07:48:41Z</time>
      </trkpt>
      <trkpt lat="45.01473" lon="5.74142">
        <ele>1590.2</ele>
        <time>2021-05-29T07:48:42Z</time>
      </trkpt>
      <trkpt lat="45.01475" lon="5.74145">
        <ele>1590</ele>
        <time>2021-05-29T07:48:43Z</time>
      </trkpt>
      <trkpt lat="45.01476" lon="5.74147">
        <ele>1589.8</ele>
        <time>2021-05-29T07:48:44Z</time>
      </trkpt>
      <trkpt lat="45.01477" lon="5.74149">
        <ele>1588.6</ele>
        <time>2021-05-29T07:48:45Z</time>
      </trkpt>
      <trkpt lat="45.01478" lon="5.74151">
        <ele>1589</ele>
        <time>2021-05-29T07:48:46Z</time>
      </trkpt>
      <trkpt lat="45.01482" lon="5.74158">
        <ele>1588.4</ele>
        <time>2021-05-29T07:48:47Z</time>
      </trkpt>
      <trkpt lat="45.01485" lon="5.74162">
        <ele>1588.8</ele>
        <time>2021-05-29T07:48:48Z</time>
      </trkpt>
      <trkpt lat="45.01487" lon="5.74165">
        <ele>1588.4</ele>
        <time>2021-05-29T07:48:49Z</time>
      </trkpt>
      <trkpt lat="45.01489" lon="5.74168">
        <ele>1588.6</ele>
        <time>2021-05-29T07:48:50Z</time>
      </trkpt>
      <trkpt lat="45.01489" lon="5.74168">
        <ele>1587.8</ele>
        <time>2021-05-29T07:48:51Z</time>
      </trkpt>
      <trkpt lat="45.01491" lon="5.74171">
        <ele>1586.8</ele>
        <time>2021-05-29T07:48:52Z</time>
      </trkpt>
      <trkpt lat="45.01493" lon="5.74174">
        <ele>1587.2</ele>
        <time>2021-05-29T07:48:53Z</time>
      </trkpt>
      <trkpt lat="45.01495" lon="5.74176">
        <ele>1587</ele>
        <time>2021-05-29T07:48:54Z</time>
      </trkpt>
      <trkpt lat="45.01497" lon="5.74178">
        <ele>1587.4</ele>
        <time>2021-05-29T07:48:55Z</time>
      </trkpt>
      <trkpt lat="45.01499" lon="5.74182">
        <ele>1586</ele>
        <time>2021-05-29T07:48:56Z</time>
      </trkpt>
      <trkpt lat="45.01501" lon="5.74185">
        <ele>1585.6</ele>
        <time>2021-05-29T07:48:57Z</time>
      </trkpt>
      <trkpt lat="45.01503" lon="5.74189">
        <ele>1585.4</ele>
        <time>2021-05-29T07:48:58Z</time>
      </trkpt>
      <trkpt lat="45.01505" lon="5.74192">
        <ele>1584.8</ele>
        <time>2021-05-29T07:48:59Z</time>
      </trkpt>
      <trkpt lat="45.01506" lon="5.74194">
        <ele>1584.8</ele>
        <time>2021-05-29T07:49:00Z</time>
      </trkpt>
      <trkpt lat="45.01508" lon="5.74196">
        <ele>1584.2</ele>
        <time>2021-05-29T07:49:01Z</time>
      </trkpt>
      <trkpt lat="45.01509" lon="5.74199">
        <ele>1584</ele>
        <time>2021-05-29T07:49:02Z</time>
      </trkpt>
      <trkpt lat="45.01511" lon="5.74202">
        <ele>1583.4</ele>
        <time>2021-05-29T07:49:03Z</time>
      </trkpt>
      <trkpt lat="45.01513" lon="5.74204">
        <ele>1581.8</ele>
        <time>2021-05-29T07:49:04Z</time>
      </trkpt>
      <trkpt lat="45.01515" lon="5.74207">
        <ele>1581.8</ele>
        <time>2021-05-29T07:49:05Z</time>
      </trkpt>
      <trkpt lat="45.01516" lon="5.7421">
        <ele>1581</ele>
        <time>2021-05-29T07:49:06Z</time>
      </trkpt>
      <trkpt lat="45.01518" lon="5.74211">
        <ele>1580.6</ele>
        <time>2021-05-29T07:49:07Z</time>
      </trkpt>
      <trkpt lat="45.01519" lon="5.74213">
        <ele>1579.2</ele>
        <time>2021-05-29T07:49:08Z</time>
      </trkpt>
      <trkpt lat="45.0152" lon="5.74215">
        <ele>1578.2</ele>
        <time>2021-05-29T07:49:09Z</time>
      </trkpt>
      <trkpt lat="45.01524" lon="5.7422">
        <ele>1578.2</ele>
        <time>2021-05-29T07:49:10Z</time>
      </trkpt>
      <trkpt lat="45.01525" lon="5.74222">
        <ele>1577.8</ele>
        <time>2021-05-29T07:49:11Z</time>
      </trkpt>
      <trkpt lat="45.01525" lon="5.74222">
        <ele>1577.4</ele>
        <time>2021-05-29T07:49:12Z</time>
      </trkpt>
      <trkpt lat="45.01527" lon="5.74225">
        <ele>1576.8</ele>
        <time>2021-05-29T07:49:13Z</time>
      </trkpt>
      <trkpt lat="45.01531" lon="5.74231">
        <ele>1576.2</ele>
        <time>2021-05-29T07:49:14Z</time>
      </trkpt>
      <trkpt lat="45.01531" lon="5.74231">
        <ele>1575.6</ele>
        <time>2021-05-29T07:49:15Z</time>
      </trkpt>
      <trkpt lat="45.01532" lon="5.74233">
        <ele>1575</ele>
        <time>2021-05-29T07:49:16Z</time>
      </trkpt>
      <trkpt lat="45.01536" lon="5.74238">
        <ele>1575.8</ele>
        <time>2021-05-29T07:49:17Z</time>
      </trkpt>
      <trkpt lat="45.01537" lon="5.7424">
        <ele>1575.2</ele>
        <time>2021-05-29T07:49:18Z</time>
      </trkpt>
      <trkpt lat="45.01537" lon="5.7424">
        <ele>1575.2</ele>
        <time>2021-05-29T07:49:19Z</time>
      </trkpt>
      <trkpt lat="45.01539" lon="5.74243">
        <ele>1574.6</ele>
        <time>2021-05-29T07:49:20Z</time>
      </trkpt>
      <trkpt lat="45.0154" lon="5.74246">
        <ele>1573.6</ele>
        <time>2021-05-29T07:49:21Z</time>
      </trkpt>
      <trkpt lat="45.01544" lon="5.74251">
        <ele>1572.4</ele>
        <time>2021-05-29T07:49:22Z</time>
      </trkpt>
      <trkpt lat="45.01546" lon="5.74253">
        <ele>1572.4</ele>
        <time>2021-05-29T07:49:23Z</time>
      </trkpt>
      <trkpt lat="45.01547" lon="5.74256">
        <ele>1572.8</ele>
        <time>2021-05-29T07:49:24Z</time>
      </trkpt>
      <trkpt lat="45.01547" lon="5.74256">
        <ele>1572.6</ele>
        <time>2021-05-29T07:49:25Z</time>
      </trkpt>
      <trkpt lat="45.01549" lon="5.74258">
        <ele>1572.8</ele>
        <time>2021-05-29T07:49:26Z</time>
      </trkpt>
      <trkpt lat="45.01552" lon="5.74262">
        <ele>1572</ele>
        <time>2021-05-29T07:49:27Z</time>
      </trkpt>
      <trkpt lat="45.01555" lon="5.74266">
        <ele>1572</ele>
        <time>2021-05-29T07:49:28Z</time>
      </trkpt>
      <trkpt lat="45.01556" lon="5.74269">
        <ele>1571.4</ele>
        <time>2021-05-29T07:49:29Z</time>
      </trkpt>
      <trkpt lat="45.01558" lon="5.74272">
        <ele>1571.2</ele>
        <time>2021-05-29T07:49:30Z</time>
      </trkpt>
      <trkpt lat="45.0156" lon="5.74275">
        <ele>1571</ele>
        <time>2021-05-29T07:49:31Z</time>
      </trkpt>
      <trkpt lat="45.01562" lon="5.74278">
        <ele>1570.6</ele>
        <time>2021-05-29T07:49:32Z</time>
      </trkpt>
      <trkpt lat="45.01562" lon="5.74278">
        <ele>1571.4</ele>
        <time>2021-05-29T07:49:33Z</time>
      </trkpt>
      <trkpt lat="45.01563" lon="5.7428">
        <ele>1571</ele>
        <time>2021-05-29T07:49:34Z</time>
      </trkpt>
      <trkpt lat="45.01566" lon="5.74286">
        <ele>1571.8</ele>
        <time>2021-05-29T07:49:35Z</time>
      </trkpt>
      <trkpt lat="45.01566" lon="5.74286">
        <ele>1571.8</ele>
        <time>2021-05-29T07:49:36Z</time>
      </trkpt>
      <trkpt lat="45.01568" lon="5.74289">
        <ele>1572.4</ele>
        <time>2021-05-29T07:49:37Z</time>
      </trkpt>
      <trkpt lat="45.01571" lon="5.74293">
        <ele>1572.2</ele>
        <time>2021-05-29T07:49:38Z</time>
      </trkpt>
      <trkpt lat="45.01571" lon="5.74293">
        <ele>1572.2</ele>
        <time>2021-05-29T07:49:39Z</time>
      </trkpt>
      <trkpt lat="45.01572" lon="5.74296">
        <ele>1571.8</ele>
        <time>2021-05-29T07:49:40Z</time>
      </trkpt>
      <trkpt lat="45.01573" lon="5.74298">
        <ele>1571.6</ele>
        <time>2021-05-29T07:49:41Z</time>
      </trkpt>
      <trkpt lat="45.01576" lon="5.74304">
        <ele>1571.2</ele>
        <time>2021-05-29T07:49:42Z</time>
      </trkpt>
      <trkpt lat="45.01578" lon="5.74308">
        <ele>1570.8</ele>
        <time>2021-05-29T07:49:43Z</time>
      </trkpt>
      <trkpt lat="45.01578" lon="5.74308">
        <ele>1571</ele>
        <time>2021-05-29T07:49:44Z</time>
      </trkpt>
      <trkpt lat="45.01579" lon="5.74311">
        <ele>1570.4</ele>
        <time>2021-05-29T07:49:45Z</time>
      </trkpt>
      <trkpt lat="45.01581" lon="5.74314">
        <ele>1570.8</ele>
        <time>2021-05-29T07:49:46Z</time>
      </trkpt>
      <trkpt lat="45.01583" lon="5.7432">
        <ele>1570.6</ele>
        <time>2021-05-29T07:49:47Z</time>
      </trkpt>
      <trkpt lat="45.01584" lon="5.74323">
        <ele>1571</ele>
        <time>2021-05-29T07:49:48Z</time>
      </trkpt>
      <trkpt lat="45.01586" lon="5.74325">
        <ele>1570.8</ele>
        <time>2021-05-29T07:49:49Z</time>
      </trkpt>
      <trkpt lat="45.01588" lon="5.74328">
        <ele>1571.2</ele>
        <time>2021-05-29T07:49:50Z</time>
      </trkpt>
      <trkpt lat="45.01589" lon="5.74331">
        <ele>1570.8</ele>
        <time>2021-05-29T07:49:51Z</time>
      </trkpt>
      <trkpt lat="45.01591" lon="5.74333">
        <ele>1571.4</ele>
        <time>2021-05-29T07:49:52Z</time>
      </trkpt>
      <trkpt lat="45.01593" lon="5.74335">
        <ele>1570.6</ele>
        <time>2021-05-29T07:49:53Z</time>
      </trkpt>
      <trkpt lat="45.01595" lon="5.74337">
        <ele>1570.6</ele>
        <time>2021-05-29T07:49:54Z</time>
      </trkpt>
      <trkpt lat="45.01596" lon="5.74339">
        <ele>1569.6</ele>
        <time>2021-05-29T07:49:55Z</time>
      </trkpt>
      <trkpt lat="45.01599" lon="5.74341">
        <ele>1569.2</ele>
        <time>2021-05-29T07:49:56Z</time>
      </trkpt>
      <trkpt lat="45.01602" lon="5.74343">
        <ele>1569.8</ele>
        <time>2021-05-29T07:49:57Z</time>
      </trkpt>
      <trkpt lat="45.01604" lon="5.74345">
        <ele>1569.8</ele>
        <time>2021-05-29T07:49:58Z</time>
      </trkpt>
      <trkpt lat="45.01606" lon="5.74346">
        <ele>1569.8</ele>
        <time>2021-05-29T07:49:59Z</time>
      </trkpt>
      <trkpt lat="45.01608" lon="5.74348">
        <ele>1569.8</ele>
        <time>2021-05-29T07:50:00Z</time>
      </trkpt>
      <trkpt lat="45.0161" lon="5.74351">
        <ele>1569</ele>
        <time>2021-05-29T07:50:01Z</time>
      </trkpt>
      <trkpt lat="45.01612" lon="5.74352">
        <ele>1569.2</ele>
        <time>2021-05-29T07:50:02Z</time>
      </trkpt>
      <trkpt lat="45.01614" lon="5.74354">
        <ele>1569.2</ele>
        <time>2021-05-29T07:50:03Z</time>
      </trkpt>
      <trkpt lat="45.01614" lon="5.74354">
        <ele>1569.6</ele>
        <time>2021-05-29T07:50:04Z</time>
      </trkpt>
      <trkpt lat="45.01616" lon="5.74356">
        <ele>1568.4</ele>
        <time>2021-05-29T07:50:05Z</time>
      </trkpt>
      <trkpt lat="45.0162" lon="5.7436">
        <ele>1568</ele>
        <time>2021-05-29T07:50:06Z</time>
      </trkpt>
      <trkpt lat="45.01622" lon="5.74362">
        <ele>1567.2</ele>
        <time>2021-05-29T07:50:07Z</time>
      </trkpt>
      <trkpt lat="45.01624" lon="5.74363">
        <ele>1566.6</ele>
        <time>2021-05-29T07:50:08Z</time>
      </trkpt>
      <trkpt lat="45.01624" lon="5.74363">
        <ele>1567</ele>
        <time>2021-05-29T07:50:09Z</time>
      </trkpt>
      <trkpt lat="45.01626" lon="5.74365">
        <ele>1566.4</ele>
        <time>2021-05-29T07:50:10Z</time>
      </trkpt>
      <trkpt lat="45.01631" lon="5.74368">
        <ele>1566.4</ele>
        <time>2021-05-29T07:50:11Z</time>
      </trkpt>
      <trkpt lat="45.01633" lon="5.74368">
        <ele>1566</ele>
        <time>2021-05-29T07:50:12Z</time>
      </trkpt>
      <trkpt lat="45.01635" lon="5.74369">
        <ele>1565.2</ele>
        <time>2021-05-29T07:50:13Z</time>
      </trkpt>
      <trkpt lat="45.01635" lon="5.74369">
        <ele>1565.2</ele>
        <time>2021-05-29T07:50:14Z</time>
      </trkpt>
      <trkpt lat="45.01637" lon="5.74371">
        <ele>1564.6</ele>
        <time>2021-05-29T07:50:15Z</time>
      </trkpt>
      <trkpt lat="45.0164" lon="5.74373">
        <ele>1564.2</ele>
        <time>2021-05-29T07:50:16Z</time>
      </trkpt>
      <trkpt lat="45.01643" lon="5.74375">
        <ele>1563</ele>
        <time>2021-05-29T07:50:17Z</time>
      </trkpt>
      <trkpt lat="45.01645" lon="5.74375">
        <ele>1562.8</ele>
        <time>2021-05-29T07:50:18Z</time>
      </trkpt>
      <trkpt lat="45.01647" lon="5.74377">
        <ele>1563</ele>
        <time>2021-05-29T07:50:19Z</time>
      </trkpt>
      <trkpt lat="45.01649" lon="5.74378">
        <ele>1561.8</ele>
        <time>2021-05-29T07:50:20Z</time>
      </trkpt>
      <trkpt lat="45.01649" lon="5.74378">
        <ele>1561.2</ele>
        <time>2021-05-29T07:50:21Z</time>
      </trkpt>
      <trkpt lat="45.01652" lon="5.7438">
        <ele>1561.6</ele>
        <time>2021-05-29T07:50:22Z</time>
      </trkpt>
      <trkpt lat="45.01654" lon="5.74381">
        <ele>1561</ele>
        <time>2021-05-29T07:50:23Z</time>
      </trkpt>
      <trkpt lat="45.01658" lon="5.74383">
        <ele>1561.6</ele>
        <time>2021-05-29T07:50:24Z</time>
      </trkpt>
      <trkpt lat="45.0166" lon="5.74384">
        <ele>1560.4</ele>
        <time>2021-05-29T07:50:25Z</time>
      </trkpt>
      <trkpt lat="45.01662" lon="5.74386">
        <ele>1560.2</ele>
        <time>2021-05-29T07:50:26Z</time>
      </trkpt>
      <trkpt lat="45.01665" lon="5.74389">
        <ele>1559.4</ele>
        <time>2021-05-29T07:50:27Z</time>
      </trkpt>
      <trkpt lat="45.01667" lon="5.74391">
        <ele>1558</ele>
        <time>2021-05-29T07:50:28Z</time>
      </trkpt>
      <trkpt lat="45.01669" lon="5.74392">
        <ele>1558.4</ele>
        <time>2021-05-29T07:50:29Z</time>
      </trkpt>
      <trkpt lat="45.01672" lon="5.74394">
        <ele>1558.4</ele>
        <time>2021-05-29T07:50:30Z</time>
      </trkpt>
      <trkpt lat="45.01675" lon="5.74396">
        <ele>1557</ele>
        <time>2021-05-29T07:50:31Z</time>
      </trkpt>
      <trkpt lat="45.01676" lon="5.74398">
        <ele>1555.8</ele>
        <time>2021-05-29T07:50:32Z</time>
      </trkpt>
      <trkpt lat="45.01677" lon="5.74399">
        <ele>1555.6</ele>
        <time>2021-05-29T07:50:33Z</time>
      </trkpt>
      <trkpt lat="45.01679" lon="5.744">
        <ele>1554.6</ele>
        <time>2021-05-29T07:50:34Z</time>
      </trkpt>
      <trkpt lat="45.01681" lon="5.74402">
        <ele>1554</ele>
        <time>2021-05-29T07:50:35Z</time>
      </trkpt>
      <trkpt lat="45.01683" lon="5.74404">
        <ele>1552.8</ele>
        <time>2021-05-29T07:50:36Z</time>
      </trkpt>
      <trkpt lat="45.01685" lon="5.74406">
        <ele>1551.8</ele>
        <time>2021-05-29T07:50:37Z</time>
      </trkpt>
      <trkpt lat="45.01687" lon="5.74409">
        <ele>1552</ele>
        <time>2021-05-29T07:50:38Z</time>
      </trkpt>
      <trkpt lat="45.01688" lon="5.7441">
        <ele>1551.2</ele>
        <time>2021-05-29T07:50:39Z</time>
      </trkpt>
      <trkpt lat="45.0169" lon="5.74412">
        <ele>1550.4</ele>
        <time>2021-05-29T07:50:40Z</time>
      </trkpt>
      <trkpt lat="45.01691" lon="5.74414">
        <ele>1549.2</ele>
        <time>2021-05-29T07:50:41Z</time>
      </trkpt>
      <trkpt lat="45.01693" lon="5.74416">
        <ele>1548</ele>
        <time>2021-05-29T07:50:42Z</time>
      </trkpt>
      <trkpt lat="45.01695" lon="5.74418">
        <ele>1547.4</ele>
        <time>2021-05-29T07:50:43Z</time>
      </trkpt>
      <trkpt lat="45.01697" lon="5.7442">
        <ele>1547.2</ele>
        <time>2021-05-29T07:50:44Z</time>
      </trkpt>
      <trkpt lat="45.01697" lon="5.7442">
        <ele>1547.2</ele>
        <time>2021-05-29T07:50:45Z</time>
      </trkpt>
      <trkpt lat="45.01699" lon="5.74422">
        <ele>1546.4</ele>
        <time>2021-05-29T07:50:46Z</time>
      </trkpt>
      <trkpt lat="45.017" lon="5.74424">
        <ele>1546.2</ele>
        <time>2021-05-29T07:50:47Z</time>
      </trkpt>
      <trkpt lat="45.01701" lon="5.74425">
        <ele>1545.8</ele>
        <time>2021-05-29T07:50:48Z</time>
      </trkpt>
      <trkpt lat="45.01702" lon="5.74426">
        <ele>1544.8</ele>
        <time>2021-05-29T07:50:49Z</time>
      </trkpt>
      <trkpt lat="45.01706" lon="5.74429">
        <ele>1544.8</ele>
        <time>2021-05-29T07:50:50Z</time>
      </trkpt>
      <trkpt lat="45.0171" lon="5.74433">
        <ele>1543.8</ele>
        <time>2021-05-29T07:50:51Z</time>
      </trkpt>
      <trkpt lat="45.01714" lon="5.74436">
        <ele>1543.6</ele>
        <time>2021-05-29T07:50:52Z</time>
      </trkpt>
      <trkpt lat="45.01714" lon="5.74436">
        <ele>1542.8</ele>
        <time>2021-05-29T07:50:53Z</time>
      </trkpt>
      <trkpt lat="45.01717" lon="5.74438">
        <ele>1541.6</ele>
        <time>2021-05-29T07:50:54Z</time>
      </trkpt>
      <trkpt lat="45.01717" lon="5.74438">
        <ele>1541.8</ele>
        <time>2021-05-29T07:50:55Z</time>
      </trkpt>
      <trkpt lat="45.01719" lon="5.74439">
        <ele>1541</ele>
        <time>2021-05-29T07:50:56Z</time>
      </trkpt>
      <trkpt lat="45.01722" lon="5.7444">
        <ele>1540.4</ele>
        <time>2021-05-29T07:50:57Z</time>
      </trkpt>
      <trkpt lat="45.01724" lon="5.74441">
        <ele>1539.8</ele>
        <time>2021-05-29T07:50:58Z</time>
      </trkpt>
      <trkpt lat="45.01727" lon="5.74442">
        <ele>1539.6</ele>
        <time>2021-05-29T07:50:59Z</time>
      </trkpt>
      <trkpt lat="45.01729" lon="5.74443">
        <ele>1539</ele>
        <time>2021-05-29T07:51:00Z</time>
      </trkpt>
      <trkpt lat="45.01731" lon="5.74444">
        <ele>1538.2</ele>
        <time>2021-05-29T07:51:01Z</time>
      </trkpt>
      <trkpt lat="45.01733" lon="5.74446">
        <ele>1537.4</ele>
        <time>2021-05-29T07:51:02Z</time>
      </trkpt>
      <trkpt lat="45.01735" lon="5.74447">
        <ele>1536.4</ele>
        <time>2021-05-29T07:51:03Z</time>
      </trkpt>
      <trkpt lat="45.01737" lon="5.74447">
        <ele>1536.4</ele>
        <time>2021-05-29T07:51:04Z</time>
      </trkpt>
      <trkpt lat="45.01739" lon="5.74447">
        <ele>1535.8</ele>
        <time>2021-05-29T07:51:05Z</time>
      </trkpt>
      <trkpt lat="45.01741" lon="5.74448">
        <ele>1535.4</ele>
        <time>2021-05-29T07:51:06Z</time>
      </trkpt>
      <trkpt lat="45.01744" lon="5.74449">
        <ele>1534.4</ele>
        <time>2021-05-29T07:51:07Z</time>
      </trkpt>
      <trkpt lat="45.01746" lon="5.7445">
        <ele>1534</ele>
        <time>2021-05-29T07:51:08Z</time>
      </trkpt>
      <trkpt lat="45.01748" lon="5.74451">
        <ele>1533.8</ele>
        <time>2021-05-29T07:51:09Z</time>
      </trkpt>
      <trkpt lat="45.0175" lon="5.74452">
        <ele>1532.2</ele>
        <time>2021-05-29T07:51:10Z</time>
      </trkpt>
      <trkpt lat="45.01752" lon="5.74453">
        <ele>1531.6</ele>
        <time>2021-05-29T07:51:11Z</time>
      </trkpt>
      <trkpt lat="45.01754" lon="5.74453">
        <ele>1530.8</ele>
        <time>2021-05-29T07:51:12Z</time>
      </trkpt>
      <trkpt lat="45.01756" lon="5.74454">
        <ele>1530.6</ele>
        <time>2021-05-29T07:51:13Z</time>
      </trkpt>
      <trkpt lat="45.01759" lon="5.74454">
        <ele>1530</ele>
        <time>2021-05-29T07:51:14Z</time>
      </trkpt>
      <trkpt lat="45.01761" lon="5.74455">
        <ele>1529.6</ele>
        <time>2021-05-29T07:51:15Z</time>
      </trkpt>
      <trkpt lat="45.01764" lon="5.74456">
        <ele>1529.2</ele>
        <time>2021-05-29T07:51:16Z</time>
      </trkpt>
      <trkpt lat="45.01766" lon="5.74458">
        <ele>1528.8</ele>
        <time>2021-05-29T07:51:17Z</time>
      </trkpt>
      <trkpt lat="45.01769" lon="5.74459">
        <ele>1528</ele>
        <time>2021-05-29T07:51:18Z</time>
      </trkpt>
      <trkpt lat="45.01771" lon="5.7446">
        <ele>1527.2</ele>
        <time>2021-05-29T07:51:19Z</time>
      </trkpt>
      <trkpt lat="45.01773" lon="5.74461">
        <ele>1527.2</ele>
        <time>2021-05-29T07:51:20Z</time>
      </trkpt>
      <trkpt lat="45.01775" lon="5.74462">
        <ele>1526.2</ele>
        <time>2021-05-29T07:51:21Z</time>
      </trkpt>
      <trkpt lat="45.01777" lon="5.74463">
        <ele>1525.6</ele>
        <time>2021-05-29T07:51:22Z</time>
      </trkpt>
      <trkpt lat="45.0178" lon="5.74464">
        <ele>1525</ele>
        <time>2021-05-29T07:51:23Z</time>
      </trkpt>
      <trkpt lat="45.01782" lon="5.74465">
        <ele>1524.2</ele>
        <time>2021-05-29T07:51:24Z</time>
      </trkpt>
      <trkpt lat="45.01782" lon="5.74465">
        <ele>1524.2</ele>
        <time>2021-05-29T07:51:25Z</time>
      </trkpt>
      <trkpt lat="45.01785" lon="5.74466">
        <ele>1523.2</ele>
        <time>2021-05-29T07:51:26Z</time>
      </trkpt>
      <trkpt lat="45.01787" lon="5.74466">
        <ele>1523.2</ele>
        <time>2021-05-29T07:51:27Z</time>
      </trkpt>
      <trkpt lat="45.01789" lon="5.74467">
        <ele>1522.2</ele>
        <time>2021-05-29T07:51:28Z</time>
      </trkpt>
      <trkpt lat="45.01792" lon="5.74468">
        <ele>1522</ele>
        <time>2021-05-29T07:51:29Z</time>
      </trkpt>
      <trkpt lat="45.01794" lon="5.74469">
        <ele>1521</ele>
        <time>2021-05-29T07:51:30Z</time>
      </trkpt>
      <trkpt lat="45.01797" lon="5.7447">
        <ele>1520.4</ele>
        <time>2021-05-29T07:51:31Z</time>
      </trkpt>
      <trkpt lat="45.01799" lon="5.74471">
        <ele>1519</ele>
        <time>2021-05-29T07:51:32Z</time>
      </trkpt>
      <trkpt lat="45.01801" lon="5.74471">
        <ele>1518.2</ele>
        <time>2021-05-29T07:51:33Z</time>
      </trkpt>
      <trkpt lat="45.01804" lon="5.74472">
        <ele>1518.4</ele>
        <time>2021-05-29T07:51:34Z</time>
      </trkpt>
      <trkpt lat="45.01804" lon="5.74472">
        <ele>1517.4</ele>
        <time>2021-05-29T07:51:35Z</time>
      </trkpt>
      <trkpt lat="45.01806" lon="5.74472">
        <ele>1517.2</ele>
        <time>2021-05-29T07:51:36Z</time>
      </trkpt>
      <trkpt lat="45.01808" lon="5.74472">
        <ele>1516.4</ele>
        <time>2021-05-29T07:51:37Z</time>
      </trkpt>
      <trkpt lat="45.01812" lon="5.74474">
        <ele>1515.2</ele>
        <time>2021-05-29T07:51:38Z</time>
      </trkpt>
      <trkpt lat="45.01814" lon="5.74474">
        <ele>1514.6</ele>
        <time>2021-05-29T07:51:39Z</time>
      </trkpt>
      <trkpt lat="45.01816" lon="5.74475">
        <ele>1513.6</ele>
        <time>2021-05-29T07:51:40Z</time>
      </trkpt>
      <trkpt lat="45.0182" lon="5.74476">
        <ele>1513.6</ele>
        <time>2021-05-29T07:51:41Z</time>
      </trkpt>
      <trkpt lat="45.01821" lon="5.74477">
        <ele>1513</ele>
        <time>2021-05-29T07:51:42Z</time>
      </trkpt>
      <trkpt lat="45.01823" lon="5.74477">
        <ele>1512.8</ele>
        <time>2021-05-29T07:51:43Z</time>
      </trkpt>
      <trkpt lat="45.01825" lon="5.74478">
        <ele>1511.4</ele>
        <time>2021-05-29T07:51:44Z</time>
      </trkpt>
      <trkpt lat="45.01827" lon="5.74478">
        <ele>1510</ele>
        <time>2021-05-29T07:51:45Z</time>
      </trkpt>
      <trkpt lat="45.01829" lon="5.74479">
        <ele>1510.4</ele>
        <time>2021-05-29T07:51:46Z</time>
      </trkpt>
      <trkpt lat="45.01831" lon="5.7448">
        <ele>1510</ele>
        <time>2021-05-29T07:51:47Z</time>
      </trkpt>
      <trkpt lat="45.01834" lon="5.7448">
        <ele>1509.8</ele>
        <time>2021-05-29T07:51:48Z</time>
      </trkpt>
      <trkpt lat="45.01837" lon="5.7448">
        <ele>1509</ele>
        <time>2021-05-29T07:51:49Z</time>
      </trkpt>
      <trkpt lat="45.0184" lon="5.74481">
        <ele>1508.8</ele>
        <time>2021-05-29T07:51:50Z</time>
      </trkpt>
      <trkpt lat="45.01842" lon="5.74481">
        <ele>1507.8</ele>
        <time>2021-05-29T07:51:51Z</time>
      </trkpt>
      <trkpt lat="45.01843" lon="5.74481">
        <ele>1507.4</ele>
        <time>2021-05-29T07:51:52Z</time>
      </trkpt>
      <trkpt lat="45.01845" lon="5.74481">
        <ele>1506.8</ele>
        <time>2021-05-29T07:51:53Z</time>
      </trkpt>
      <trkpt lat="45.01847" lon="5.74481">
        <ele>1506</ele>
        <time>2021-05-29T07:51:54Z</time>
      </trkpt>
      <trkpt lat="45.0185" lon="5.74481">
        <ele>1505.6</ele>
        <time>2021-05-29T07:51:55Z</time>
      </trkpt>
      <trkpt lat="45.01852" lon="5.74482">
        <ele>1505.2</ele>
        <time>2021-05-29T07:51:56Z</time>
      </trkpt>
      <trkpt lat="45.01855" lon="5.74482">
        <ele>1505.2</ele>
        <time>2021-05-29T07:51:57Z</time>
      </trkpt>
      <trkpt lat="45.01858" lon="5.74482">
        <ele>1504.2</ele>
        <time>2021-05-29T07:51:58Z</time>
      </trkpt>
      <trkpt lat="45.01861" lon="5.74482">
        <ele>1503.4</ele>
        <time>2021-05-29T07:51:59Z</time>
      </trkpt>
      <trkpt lat="45.01865" lon="5.74483">
        <ele>1503.2</ele>
        <time>2021-05-29T07:52:00Z</time>
      </trkpt>
      <trkpt lat="45.01867" lon="5.74484">
        <ele>1502.6</ele>
        <time>2021-05-29T07:52:01Z</time>
      </trkpt>
      <trkpt lat="45.01869" lon="5.74484">
        <ele>1502.2</ele>
        <time>2021-05-29T07:52:02Z</time>
      </trkpt>
      <trkpt lat="45.01871" lon="5.74485">
        <ele>1501.8</ele>
        <time>2021-05-29T07:52:03Z</time>
      </trkpt>
      <trkpt lat="45.01874" lon="5.74486">
        <ele>1501</ele>
        <time>2021-05-29T07:52:04Z</time>
      </trkpt>
      <trkpt lat="45.01877" lon="5.74487">
        <ele>1500.8</ele>
        <time>2021-05-29T07:52:05Z</time>
      </trkpt>
      <trkpt lat="45.01879" lon="5.74489">
        <ele>1500.4</ele>
        <time>2021-05-29T07:52:06Z</time>
      </trkpt>
      <trkpt lat="45.01879" lon="5.74489">
        <ele>1500.4</ele>
        <time>2021-05-29T07:52:07Z</time>
      </trkpt>
      <trkpt lat="45.01882" lon="5.7449">
        <ele>1499.6</ele>
        <time>2021-05-29T07:52:08Z</time>
      </trkpt>
      <trkpt lat="45.01883" lon="5.7449">
        <ele>1499.2</ele>
        <time>2021-05-29T07:52:09Z</time>
      </trkpt>
      <trkpt lat="45.01885" lon="5.74492">
        <ele>1499.2</ele>
        <time>2021-05-29T07:52:10Z</time>
      </trkpt>
      <trkpt lat="45.01885" lon="5.74492">
        <ele>1498.8</ele>
        <time>2021-05-29T07:52:11Z</time>
      </trkpt>
      <trkpt lat="45.01887" lon="5.74491">
        <ele>1498.4</ele>
        <time>2021-05-29T07:52:12Z</time>
      </trkpt>
      <trkpt lat="45.01887" lon="5.74491">
        <ele>1498.4</ele>
        <time>2021-05-29T07:52:13Z</time>
      </trkpt>
      <trkpt lat="45.01887" lon="5.74491">
        <ele>1498</ele>
        <time>2021-05-29T07:52:14Z</time>
      </trkpt>
      <trkpt lat="45.01887" lon="5.74491">
        <ele>1497.8</ele>
        <time>2021-05-29T07:52:15Z</time>
      </trkpt>
      <trkpt lat="45.01887" lon="5.74491">
        <ele>1497.8</ele>
        <time>2021-05-29T07:52:16Z</time>
      </trkpt>
      <trkpt lat="45.01887" lon="5.74491">
        <ele>1497.8</ele>
        <time>2021-05-29T07:52:17Z</time>
      </trkpt>
      <trkpt lat="45.01887" lon="5.74491">
        <ele>1498</ele>
        <time>2021-05-29T07:52:18Z</time>
      </trkpt>
      <trkpt lat="45.01887" lon="5.74491">
        <ele>1497.8</ele>
        <time>2021-05-29T07:52:19Z</time>
      </trkpt>
      <trkpt lat="45.01887" lon="5.74491">
        <ele>1497.6</ele>
        <time>2021-05-29T07:52:20Z</time>
      </trkpt>
      <trkpt lat="45.01887" lon="5.74491">
        <ele>1497.8</ele>
        <time>2021-05-29T07:52:21Z</time>
      </trkpt>
      <trkpt lat="45.01887" lon="5.74491">
        <ele>1497.4</ele>
        <time>2021-05-29T07:52:22Z</time>
      </trkpt>
      <trkpt lat="45.01887" lon="5.74491">
        <ele>1497</ele>
        <time>2021-05-29T07:52:23Z</time>
      </trkpt>
      <trkpt lat="45.01887" lon="5.74491">
        <ele>1496.8</ele>
        <time>2021-05-29T07:52:24Z</time>
      </trkpt>
      <trkpt lat="45.01887" lon="5.74491">
        <ele>1496.6</ele>
        <time>2021-05-29T07:52:25Z</time>
      </trkpt>
      <trkpt lat="45.01887" lon="5.74491">
        <ele>1496.2</ele>
        <time>2021-05-29T07:52:26Z</time>
      </trkpt>
      <trkpt lat="45.01887" lon="5.74491">
        <ele>1496.2</ele>
        <time>2021-05-29T07:52:27Z</time>
      </trkpt>
      <trkpt lat="45.01887" lon="5.74491">
        <ele>1496</ele>
        <time>2021-05-29T07:52:28Z</time>
      </trkpt>
      <trkpt lat="45.01887" lon="5.74491">
        <ele>1495.8</ele>
        <time>2021-05-29T07:52:29Z</time>
      </trkpt>
      <trkpt lat="45.01887" lon="5.74491">
        <ele>1495.8</ele>
        <time>2021-05-29T07:52:30Z</time>
      </trkpt>
      <trkpt lat="45.01887" lon="5.74491">
        <ele>1495.8</ele>
        <time>2021-05-29T07:52:31Z</time>
      </trkpt>
      <trkpt lat="45.01887" lon="5.74491">
        <ele>1495.8</ele>
        <time>2021-05-29T07:52:32Z</time>
      </trkpt>
      <trkpt lat="45.01887" lon="5.74491">
        <ele>1495.8</ele>
        <time>2021-05-29T07:52:33Z</time>
      </trkpt>
      <trkpt lat="45.01887" lon="5.74491">
        <ele>1495.8</ele>
        <time>2021-05-29T07:52:34Z</time>
      </trkpt>
      <trkpt lat="45.01889" lon="5.74493">
        <ele>1495.8</ele>
        <time>2021-05-29T07:52:35Z</time>
      </trkpt>
      <trkpt lat="45.01891" lon="5.74494">
        <ele>1496</ele>
        <time>2021-05-29T07:52:36Z</time>
      </trkpt>
      <trkpt lat="45.01891" lon="5.74494">
        <ele>1495.8</ele>
        <time>2021-05-29T07:52:37Z</time>
      </trkpt>
      <trkpt lat="45.01894" lon="5.74495">
        <ele>1495.8</ele>
        <time>2021-05-29T07:52:38Z</time>
      </trkpt>
      <trkpt lat="45.01894" lon="5.74495">
        <ele>1495.8</ele>
        <time>2021-05-29T07:52:39Z</time>
      </trkpt>
      <trkpt lat="45.01897" lon="5.74497">
        <ele>1495.8</ele>
        <time>2021-05-29T07:52:40Z</time>
      </trkpt>
      <trkpt lat="45.01897" lon="5.74497">
        <ele>1495.6</ele>
        <time>2021-05-29T07:52:41Z</time>
      </trkpt>
      <trkpt lat="45.01899" lon="5.74498">
        <ele>1495.4</ele>
        <time>2021-05-29T07:52:42Z</time>
      </trkpt>
      <trkpt lat="45.01899" lon="5.74498">
        <ele>1495.2</ele>
        <time>2021-05-29T07:52:43Z</time>
      </trkpt>
      <trkpt lat="45.01899" lon="5.74498">
        <ele>1495</ele>
        <time>2021-05-29T07:52:44Z</time>
      </trkpt>
      <trkpt lat="45.01901" lon="5.74499">
        <ele>1494.8</ele>
        <time>2021-05-29T07:52:45Z</time>
      </trkpt>
      <trkpt lat="45.01901" lon="5.74499">
        <ele>1494.8</ele>
        <time>2021-05-29T07:52:46Z</time>
      </trkpt>
      <trkpt lat="45.01901" lon="5.74499">
        <ele>1494.8</ele>
        <time>2021-05-29T07:52:47Z</time>
      </trkpt>
      <trkpt lat="45.01903" lon="5.745">
        <ele>1494.8</ele>
        <time>2021-05-29T07:52:48Z</time>
      </trkpt>
      <trkpt lat="45.01903" lon="5.745">
        <ele>1495</ele>
        <time>2021-05-29T07:52:49Z</time>
      </trkpt>
      <trkpt lat="45.01903" lon="5.745">
        <ele>1494.8</ele>
        <time>2021-05-29T07:52:50Z</time>
      </trkpt>
      <trkpt lat="45.01905" lon="5.74501">
        <ele>1494.8</ele>
        <time>2021-05-29T07:52:51Z</time>
      </trkpt>
      <trkpt lat="45.01909" lon="5.74501">
        <ele>1495</ele>
        <time>2021-05-29T07:52:52Z</time>
      </trkpt>
      <trkpt lat="45.01909" lon="5.74501">
        <ele>1495.2</ele>
        <time>2021-05-29T07:52:53Z</time>
      </trkpt>
      <trkpt lat="45.01911" lon="5.74503">
        <ele>1495.2</ele>
        <time>2021-05-29T07:52:54Z</time>
      </trkpt>
      <trkpt lat="45.01915" lon="5.74504">
        <ele>1494.8</ele>
        <time>2021-05-29T07:52:55Z</time>
      </trkpt>
      <trkpt lat="45.01917" lon="5.74505">
        <ele>1494.4</ele>
        <time>2021-05-29T07:52:56Z</time>
      </trkpt>
      <trkpt lat="45.01919" lon="5.74506">
        <ele>1494</ele>
        <time>2021-05-29T07:52:57Z</time>
      </trkpt>
      <trkpt lat="45.01922" lon="5.74506">
        <ele>1494.4</ele>
        <time>2021-05-29T07:52:58Z</time>
      </trkpt>
      <trkpt lat="45.01924" lon="5.74507">
        <ele>1493.8</ele>
        <time>2021-05-29T07:52:59Z</time>
      </trkpt>
      <trkpt lat="45.01927" lon="5.74508">
        <ele>1495</ele>
        <time>2021-05-29T07:53:00Z</time>
      </trkpt>
      <trkpt lat="45.0193" lon="5.74509">
        <ele>1494.4</ele>
        <time>2021-05-29T07:53:01Z</time>
      </trkpt>
      <trkpt lat="45.01933" lon="5.7451">
        <ele>1494.2</ele>
        <time>2021-05-29T07:53:02Z</time>
      </trkpt>
      <trkpt lat="45.01935" lon="5.7451">
        <ele>1494</ele>
        <time>2021-05-29T07:53:03Z</time>
      </trkpt>
      <trkpt lat="45.01938" lon="5.74511">
        <ele>1493.4</ele>
        <time>2021-05-29T07:53:04Z</time>
      </trkpt>
      <trkpt lat="45.01941" lon="5.74512">
        <ele>1493.6</ele>
        <time>2021-05-29T07:53:05Z</time>
      </trkpt>
      <trkpt lat="45.01943" lon="5.74513">
        <ele>1493.2</ele>
        <time>2021-05-29T07:53:06Z</time>
      </trkpt>
      <trkpt lat="45.01946" lon="5.74514">
        <ele>1493</ele>
        <time>2021-05-29T07:53:07Z</time>
      </trkpt>
      <trkpt lat="45.01948" lon="5.74516">
        <ele>1492.8</ele>
        <time>2021-05-29T07:53:08Z</time>
      </trkpt>
      <trkpt lat="45.01951" lon="5.74517">
        <ele>1492.4</ele>
        <time>2021-05-29T07:53:09Z</time>
      </trkpt>
      <trkpt lat="45.01953" lon="5.74518">
        <ele>1493</ele>
        <time>2021-05-29T07:53:10Z</time>
      </trkpt>
      <trkpt lat="45.01956" lon="5.74519">
        <ele>1492.8</ele>
        <time>2021-05-29T07:53:11Z</time>
      </trkpt>
      <trkpt lat="45.01959" lon="5.7452">
        <ele>1493.2</ele>
        <time>2021-05-29T07:53:12Z</time>
      </trkpt>
      <trkpt lat="45.01961" lon="5.7452">
        <ele>1492.6</ele>
        <time>2021-05-29T07:53:13Z</time>
      </trkpt>
      <trkpt lat="45.01964" lon="5.74522">
        <ele>1492.6</ele>
        <time>2021-05-29T07:53:14Z</time>
      </trkpt>
      <trkpt lat="45.01966" lon="5.74524">
        <ele>1492.2</ele>
        <time>2021-05-29T07:53:15Z</time>
      </trkpt>
      <trkpt lat="45.01969" lon="5.74525">
        <ele>1491.6</ele>
        <time>2021-05-29T07:53:16Z</time>
      </trkpt>
      <trkpt lat="45.01972" lon="5.74525">
        <ele>1492</ele>
        <time>2021-05-29T07:53:17Z</time>
      </trkpt>
      <trkpt lat="45.01974" lon="5.74527">
        <ele>1491.8</ele>
        <time>2021-05-29T07:53:18Z</time>
      </trkpt>
      <trkpt lat="45.01976" lon="5.74528">
        <ele>1492.4</ele>
        <time>2021-05-29T07:53:19Z</time>
      </trkpt>
      <trkpt lat="45.01978" lon="5.74529">
        <ele>1491.6</ele>
        <time>2021-05-29T07:53:20Z</time>
      </trkpt>
      <trkpt lat="45.0198" lon="5.7453">
        <ele>1491.4</ele>
        <time>2021-05-29T07:53:21Z</time>
      </trkpt>
      <trkpt lat="45.01983" lon="5.7453">
        <ele>1491.4</ele>
        <time>2021-05-29T07:53:22Z</time>
      </trkpt>
      <trkpt lat="45.01986" lon="5.74531">
        <ele>1491</ele>
        <time>2021-05-29T07:53:23Z</time>
      </trkpt>
      <trkpt lat="45.01989" lon="5.74532">
        <ele>1491.2</ele>
        <time>2021-05-29T07:53:24Z</time>
      </trkpt>
      <trkpt lat="45.01991" lon="5.74533">
        <ele>1490.6</ele>
        <time>2021-05-29T07:53:25Z</time>
      </trkpt>
      <trkpt lat="45.01994" lon="5.74535">
        <ele>1490</ele>
        <time>2021-05-29T07:53:26Z</time>
      </trkpt>
      <trkpt lat="45.01996" lon="5.74536">
        <ele>1489.8</ele>
        <time>2021-05-29T07:53:27Z</time>
      </trkpt>
      <trkpt lat="45.01999" lon="5.74537">
        <ele>1489.2</ele>
        <time>2021-05-29T07:53:28Z</time>
      </trkpt>
      <trkpt lat="45.02002" lon="5.74537">
        <ele>1489.6</ele>
        <time>2021-05-29T07:53:29Z</time>
      </trkpt>
      <trkpt lat="45.02003" lon="5.74538">
        <ele>1489</ele>
        <time>2021-05-29T07:53:30Z</time>
      </trkpt>
      <trkpt lat="45.02003" lon="5.74538">
        <ele>1489.2</ele>
        <time>2021-05-29T07:53:31Z</time>
      </trkpt>
      <trkpt lat="45.02005" lon="5.74539">
        <ele>1488.4</ele>
        <time>2021-05-29T07:53:32Z</time>
      </trkpt>
      <trkpt lat="45.02009" lon="5.74542">
        <ele>1488.2</ele>
        <time>2021-05-29T07:53:33Z</time>
      </trkpt>
      <trkpt lat="45.02012" lon="5.74543">
        <ele>1487.2</ele>
        <time>2021-05-29T07:53:34Z</time>
      </trkpt>
      <trkpt lat="45.02015" lon="5.74544">
        <ele>1487.2</ele>
        <time>2021-05-29T07:53:35Z</time>
      </trkpt>
      <trkpt lat="45.02017" lon="5.74545">
        <ele>1487.4</ele>
        <time>2021-05-29T07:53:36Z</time>
      </trkpt>
      <trkpt lat="45.02019" lon="5.74546">
        <ele>1487</ele>
        <time>2021-05-29T07:53:37Z</time>
      </trkpt>
      <trkpt lat="45.02022" lon="5.74548">
        <ele>1487.2</ele>
        <time>2021-05-29T07:53:38Z</time>
      </trkpt>
      <trkpt lat="45.02026" lon="5.7455">
        <ele>1486.6</ele>
        <time>2021-05-29T07:53:39Z</time>
      </trkpt>
      <trkpt lat="45.02029" lon="5.74551">
        <ele>1486.6</ele>
        <time>2021-05-29T07:53:40Z</time>
      </trkpt>
      <trkpt lat="45.0203" lon="5.74552">
        <ele>1486.4</ele>
        <time>2021-05-29T07:53:41Z</time>
      </trkpt>
      <trkpt lat="45.02032" lon="5.74552">
        <ele>1485.6</ele>
        <time>2021-05-29T07:53:42Z</time>
      </trkpt>
      <trkpt lat="45.02034" lon="5.74553">
        <ele>1485.8</ele>
        <time>2021-05-29T07:53:43Z</time>
      </trkpt>
      <trkpt lat="45.02037" lon="5.74553">
        <ele>1485.4</ele>
        <time>2021-05-29T07:53:44Z</time>
      </trkpt>
      <trkpt lat="45.02039" lon="5.74555">
        <ele>1485.6</ele>
        <time>2021-05-29T07:53:45Z</time>
      </trkpt>
      <trkpt lat="45.02041" lon="5.74556">
        <ele>1485.2</ele>
        <time>2021-05-29T07:53:46Z</time>
      </trkpt>
      <trkpt lat="45.02044" lon="5.74558">
        <ele>1485.6</ele>
        <time>2021-05-29T07:53:47Z</time>
      </trkpt>
      <trkpt lat="45.02045" lon="5.74559">
        <ele>1485.2</ele>
        <time>2021-05-29T07:53:48Z</time>
      </trkpt>
      <trkpt lat="45.02045" lon="5.7456">
        <ele>1484.6</ele>
        <time>2021-05-29T07:53:49Z</time>
      </trkpt>
      <trkpt lat="45.02049" lon="5.74563">
        <ele>1485</ele>
        <time>2021-05-29T07:53:50Z</time>
      </trkpt>
      <trkpt lat="45.02049" lon="5.74563">
        <ele>1484.8</ele>
        <time>2021-05-29T07:53:51Z</time>
      </trkpt>
      <trkpt lat="45.02051" lon="5.74565">
        <ele>1484.2</ele>
        <time>2021-05-29T07:53:52Z</time>
      </trkpt>
      <trkpt lat="45.02052" lon="5.74566">
        <ele>1484.2</ele>
        <time>2021-05-29T07:53:53Z</time>
      </trkpt>
      <trkpt lat="45.02052" lon="5.74566">
        <ele>1484</ele>
        <time>2021-05-29T07:53:54Z</time>
      </trkpt>
      <trkpt lat="45.02052" lon="5.74566">
        <ele>1484</ele>
        <time>2021-05-29T07:53:55Z</time>
      </trkpt>
      <trkpt lat="45.02054" lon="5.74568">
        <ele>1483.8</ele>
        <time>2021-05-29T07:53:56Z</time>
      </trkpt>
      <trkpt lat="45.02055" lon="5.74571">
        <ele>1483.6</ele>
        <time>2021-05-29T07:53:57Z</time>
      </trkpt>
      <trkpt lat="45.02057" lon="5.74573">
        <ele>1483</ele>
        <time>2021-05-29T07:53:58Z</time>
      </trkpt>
      <trkpt lat="45.02058" lon="5.74575">
        <ele>1482.2</ele>
        <time>2021-05-29T07:53:59Z</time>
      </trkpt>
      <trkpt lat="45.02061" lon="5.74578">
        <ele>1481.8</ele>
        <time>2021-05-29T07:54:00Z</time>
      </trkpt>
      <trkpt lat="45.02061" lon="5.74578">
        <ele>1481.4</ele>
        <time>2021-05-29T07:54:01Z</time>
      </trkpt>
      <trkpt lat="45.02062" lon="5.7458">
        <ele>1481.2</ele>
        <time>2021-05-29T07:54:02Z</time>
      </trkpt>
      <trkpt lat="45.02063" lon="5.74583">
        <ele>1480.8</ele>
        <time>2021-05-29T07:54:03Z</time>
      </trkpt>
      <trkpt lat="45.02064" lon="5.74585">
        <ele>1480</ele>
        <time>2021-05-29T07:54:04Z</time>
      </trkpt>
      <trkpt lat="45.02065" lon="5.74588">
        <ele>1479</ele>
        <time>2021-05-29T07:54:05Z</time>
      </trkpt>
      <trkpt lat="45.02066" lon="5.7459">
        <ele>1478</ele>
        <time>2021-05-29T07:54:06Z</time>
      </trkpt>
      <trkpt lat="45.02067" lon="5.74592">
        <ele>1476.8</ele>
        <time>2021-05-29T07:54:07Z</time>
      </trkpt>
      <trkpt lat="45.02069" lon="5.74597">
        <ele>1476.2</ele>
        <time>2021-05-29T07:54:08Z</time>
      </trkpt>
      <trkpt lat="45.02071" lon="5.746">
        <ele>1475.6</ele>
        <time>2021-05-29T07:54:09Z</time>
      </trkpt>
      <trkpt lat="45.02072" lon="5.74602">
        <ele>1474.6</ele>
        <time>2021-05-29T07:54:10Z</time>
      </trkpt>
      <trkpt lat="45.02074" lon="5.74604">
        <ele>1474.4</ele>
        <time>2021-05-29T07:54:11Z</time>
      </trkpt>
      <trkpt lat="45.02076" lon="5.74606">
        <ele>1473.8</ele>
        <time>2021-05-29T07:54:12Z</time>
      </trkpt>
      <trkpt lat="45.02076" lon="5.74606">
        <ele>1473</ele>
        <time>2021-05-29T07:54:13Z</time>
      </trkpt>
      <trkpt lat="45.02077" lon="5.74608">
        <ele>1472.4</ele>
        <time>2021-05-29T07:54:14Z</time>
      </trkpt>
      <trkpt lat="45.02079" lon="5.7461">
        <ele>1471.6</ele>
        <time>2021-05-29T07:54:15Z</time>
      </trkpt>
      <trkpt lat="45.02081" lon="5.74615">
        <ele>1471.2</ele>
        <time>2021-05-29T07:54:16Z</time>
      </trkpt>
      <trkpt lat="45.02081" lon="5.74615">
        <ele>1470.8</ele>
        <time>2021-05-29T07:54:17Z</time>
      </trkpt>
      <trkpt lat="45.02082" lon="5.74618">
        <ele>1469.4</ele>
        <time>2021-05-29T07:54:18Z</time>
      </trkpt>
      <trkpt lat="45.02085" lon="5.74623">
        <ele>1469.6</ele>
        <time>2021-05-29T07:54:19Z</time>
      </trkpt>
      <trkpt lat="45.02085" lon="5.74623">
        <ele>1469</ele>
        <time>2021-05-29T07:54:20Z</time>
      </trkpt>
      <trkpt lat="45.02086" lon="5.74625">
        <ele>1468.6</ele>
        <time>2021-05-29T07:54:21Z</time>
      </trkpt>
      <trkpt lat="45.02089" lon="5.74629">
        <ele>1467.8</ele>
        <time>2021-05-29T07:54:22Z</time>
      </trkpt>
      <trkpt lat="45.02091" lon="5.74631">
        <ele>1466.8</ele>
        <time>2021-05-29T07:54:23Z</time>
      </trkpt>
      <trkpt lat="45.02094" lon="5.74633">
        <ele>1467</ele>
        <time>2021-05-29T07:54:24Z</time>
      </trkpt>
      <trkpt lat="45.02096" lon="5.74635">
        <ele>1466.4</ele>
        <time>2021-05-29T07:54:25Z</time>
      </trkpt>
      <trkpt lat="45.02098" lon="5.74637">
        <ele>1466.2</ele>
        <time>2021-05-29T07:54:26Z</time>
      </trkpt>
      <trkpt lat="45.021" lon="5.74639">
        <ele>1465.6</ele>
        <time>2021-05-29T07:54:27Z</time>
      </trkpt>
      <trkpt lat="45.02102" lon="5.74641">
        <ele>1464.8</ele>
        <time>2021-05-29T07:54:28Z</time>
      </trkpt>
      <trkpt lat="45.02104" lon="5.74643">
        <ele>1464.6</ele>
        <time>2021-05-29T07:54:29Z</time>
      </trkpt>
      <trkpt lat="45.02106" lon="5.74644">
        <ele>1464</ele>
        <time>2021-05-29T07:54:30Z</time>
      </trkpt>
      <trkpt lat="45.02106" lon="5.74644">
        <ele>1463.8</ele>
        <time>2021-05-29T07:54:31Z</time>
      </trkpt>
      <trkpt lat="45.02108" lon="5.74646">
        <ele>1463.2</ele>
        <time>2021-05-29T07:54:32Z</time>
      </trkpt>
      <trkpt lat="45.02112" lon="5.74648">
        <ele>1462.4</ele>
        <time>2021-05-29T07:54:33Z</time>
      </trkpt>
      <trkpt lat="45.02114" lon="5.7465">
        <ele>1462.4</ele>
        <time>2021-05-29T07:54:34Z</time>
      </trkpt>
      <trkpt lat="45.02116" lon="5.74652">
        <ele>1461.8</ele>
        <time>2021-05-29T07:54:35Z</time>
      </trkpt>
      <trkpt lat="45.02117" lon="5.74653">
        <ele>1461.6</ele>
        <time>2021-05-29T07:54:36Z</time>
      </trkpt>
      <trkpt lat="45.02117" lon="5.74653">
        <ele>1460.8</ele>
        <time>2021-05-29T07:54:37Z</time>
      </trkpt>
      <trkpt lat="45.02117" lon="5.74653">
        <ele>1460</ele>
        <time>2021-05-29T07:54:38Z</time>
      </trkpt>
      <trkpt lat="45.02117" lon="5.74653">
        <ele>1460.2</ele>
        <time>2021-05-29T07:54:39Z</time>
      </trkpt>
      <trkpt lat="45.02117" lon="5.74653">
        <ele>1459.6</ele>
        <time>2021-05-29T07:54:40Z</time>
      </trkpt>
      <trkpt lat="45.02117" lon="5.74653">
        <ele>1459.4</ele>
        <time>2021-05-29T07:54:41Z</time>
      </trkpt>
      <trkpt lat="45.02117" lon="5.74653">
        <ele>1459</ele>
        <time>2021-05-29T07:54:42Z</time>
      </trkpt>
      <trkpt lat="45.02117" lon="5.74653">
        <ele>1458.8</ele>
        <time>2021-05-29T07:54:43Z</time>
      </trkpt>
      <trkpt lat="45.02117" lon="5.74653">
        <ele>1458.6</ele>
        <time>2021-05-29T07:54:44Z</time>
      </trkpt>
      <trkpt lat="45.02117" lon="5.74653">
        <ele>1458.6</ele>
        <time>2021-05-29T07:54:45Z</time>
      </trkpt>
      <trkpt lat="45.02117" lon="5.74653">
        <ele>1458.4</ele>
        <time>2021-05-29T07:54:46Z</time>
      </trkpt>
      <trkpt lat="45.02117" lon="5.74653">
        <ele>1458.4</ele>
        <time>2021-05-29T07:54:47Z</time>
      </trkpt>
      <trkpt lat="45.02117" lon="5.74653">
        <ele>1458.6</ele>
        <time>2021-05-29T07:54:48Z</time>
      </trkpt>
      <trkpt lat="45.02117" lon="5.74656">
        <ele>1458.6</ele>
        <time>2021-05-29T07:54:49Z</time>
      </trkpt>
      <trkpt lat="45.02117" lon="5.74656">
        <ele>1458.6</ele>
        <time>2021-05-29T07:54:50Z</time>
      </trkpt>
      <trkpt lat="45.02119" lon="5.74658">
        <ele>1458.6</ele>
        <time>2021-05-29T07:54:51Z</time>
      </trkpt>
      <trkpt lat="45.0212" lon="5.74661">
        <ele>1458.4</ele>
        <time>2021-05-29T07:54:52Z</time>
      </trkpt>
      <trkpt lat="45.02122" lon="5.74662">
        <ele>1458.2</ele>
        <time>2021-05-29T07:54:53Z</time>
      </trkpt>
      <trkpt lat="45.02123" lon="5.74664">
        <ele>1458</ele>
        <time>2021-05-29T07:54:54Z</time>
      </trkpt>
      <trkpt lat="45.02125" lon="5.74666">
        <ele>1458.2</ele>
        <time>2021-05-29T07:54:55Z</time>
      </trkpt>
      <trkpt lat="45.02126" lon="5.74668">
        <ele>1458</ele>
        <time>2021-05-29T07:54:56Z</time>
      </trkpt>
      <trkpt lat="45.02128" lon="5.74669">
        <ele>1458.2</ele>
        <time>2021-05-29T07:54:57Z</time>
      </trkpt>
      <trkpt lat="45.0213" lon="5.7467">
        <ele>1457.8</ele>
        <time>2021-05-29T07:54:58Z</time>
      </trkpt>
      <trkpt lat="45.02131" lon="5.74672">
        <ele>1457.2</ele>
        <time>2021-05-29T07:54:59Z</time>
      </trkpt>
      <trkpt lat="45.02133" lon="5.74674">
        <ele>1457.2</ele>
        <time>2021-05-29T07:55:00Z</time>
      </trkpt>
      <trkpt lat="45.02135" lon="5.74676">
        <ele>1456.8</ele>
        <time>2021-05-29T07:55:01Z</time>
      </trkpt>
      <trkpt lat="45.02137" lon="5.74678">
        <ele>1456.6</ele>
        <time>2021-05-29T07:55:02Z</time>
      </trkpt>
      <trkpt lat="45.02137" lon="5.74678">
        <ele>1456.6</ele>
        <time>2021-05-29T07:55:03Z</time>
      </trkpt>
      <trkpt lat="45.02139" lon="5.7468">
        <ele>1456.2</ele>
        <time>2021-05-29T07:55:04Z</time>
      </trkpt>
      <trkpt lat="45.02142" lon="5.74685">
        <ele>1456.4</ele>
        <time>2021-05-29T07:55:05Z</time>
      </trkpt>
      <trkpt lat="45.02144" lon="5.74687">
        <ele>1455.8</ele>
        <time>2021-05-29T07:55:06Z</time>
      </trkpt>
      <trkpt lat="45.02145" lon="5.74689">
        <ele>1454.8</ele>
        <time>2021-05-29T07:55:07Z</time>
      </trkpt>
      <trkpt lat="45.02147" lon="5.74691">
        <ele>1455</ele>
        <time>2021-05-29T07:55:08Z</time>
      </trkpt>
      <trkpt lat="45.02148" lon="5.74693">
        <ele>1454.2</ele>
        <time>2021-05-29T07:55:09Z</time>
      </trkpt>
      <trkpt lat="45.02148" lon="5.74693">
        <ele>1454</ele>
        <time>2021-05-29T07:55:10Z</time>
      </trkpt>
      <trkpt lat="45.0215" lon="5.74695">
        <ele>1453.4</ele>
        <time>2021-05-29T07:55:11Z</time>
      </trkpt>
      <trkpt lat="45.02154" lon="5.74698">
        <ele>1452.8</ele>
        <time>2021-05-29T07:55:12Z</time>
      </trkpt>
      <trkpt lat="45.02156" lon="5.747">
        <ele>1453.4</ele>
        <time>2021-05-29T07:55:13Z</time>
      </trkpt>
      <trkpt lat="45.02158" lon="5.74702">
        <ele>1452.2</ele>
        <time>2021-05-29T07:55:14Z</time>
      </trkpt>
      <trkpt lat="45.0216" lon="5.74703">
        <ele>1451.8</ele>
        <time>2021-05-29T07:55:15Z</time>
      </trkpt>
      <trkpt lat="45.02162" lon="5.74704">
        <ele>1450.8</ele>
        <time>2021-05-29T07:55:16Z</time>
      </trkpt>
      <trkpt lat="45.02164" lon="5.74704">
        <ele>1450.6</ele>
        <time>2021-05-29T07:55:17Z</time>
      </trkpt>
      <trkpt lat="45.02166" lon="5.74705">
        <ele>1450.8</ele>
        <time>2021-05-29T07:55:18Z</time>
      </trkpt>
      <trkpt lat="45.02169" lon="5.74706">
        <ele>1450.4</ele>
        <time>2021-05-29T07:55:19Z</time>
      </trkpt>
      <trkpt lat="45.02172" lon="5.74706">
        <ele>1450.2</ele>
        <time>2021-05-29T07:55:20Z</time>
      </trkpt>
      <trkpt lat="45.02175" lon="5.74707">
        <ele>1449.6</ele>
        <time>2021-05-29T07:55:21Z</time>
      </trkpt>
      <trkpt lat="45.02178" lon="5.74708">
        <ele>1449</ele>
        <time>2021-05-29T07:55:22Z</time>
      </trkpt>
      <trkpt lat="45.0218" lon="5.74709">
        <ele>1449.2</ele>
        <time>2021-05-29T07:55:23Z</time>
      </trkpt>
      <trkpt lat="45.02182" lon="5.7471">
        <ele>1448.8</ele>
        <time>2021-05-29T07:55:24Z</time>
      </trkpt>
      <trkpt lat="45.02185" lon="5.74711">
        <ele>1449.2</ele>
        <time>2021-05-29T07:55:25Z</time>
      </trkpt>
      <trkpt lat="45.02189" lon="5.74711">
        <ele>1448.8</ele>
        <time>2021-05-29T07:55:26Z</time>
      </trkpt>
      <trkpt lat="45.02192" lon="5.74711">
        <ele>1448</ele>
        <time>2021-05-29T07:55:27Z</time>
      </trkpt>
      <trkpt lat="45.02195" lon="5.74711">
        <ele>1448</ele>
        <time>2021-05-29T07:55:28Z</time>
      </trkpt>
      <trkpt lat="45.02197" lon="5.74711">
        <ele>1447</ele>
        <time>2021-05-29T07:55:29Z</time>
      </trkpt>
      <trkpt lat="45.02199" lon="5.74711">
        <ele>1447</ele>
        <time>2021-05-29T07:55:30Z</time>
      </trkpt>
      <trkpt lat="45.02201" lon="5.74711">
        <ele>1446.4</ele>
        <time>2021-05-29T07:55:31Z</time>
      </trkpt>
      <trkpt lat="45.02204" lon="5.74711">
        <ele>1445.6</ele>
        <time>2021-05-29T07:55:32Z</time>
      </trkpt>
      <trkpt lat="45.02206" lon="5.74711">
        <ele>1446</ele>
        <time>2021-05-29T07:55:33Z</time>
      </trkpt>
      <trkpt lat="45.02208" lon="5.7471">
        <ele>1445.4</ele>
        <time>2021-05-29T07:55:34Z</time>
      </trkpt>
      <trkpt lat="45.02211" lon="5.74711">
        <ele>1445.6</ele>
        <time>2021-05-29T07:55:35Z</time>
      </trkpt>
      <trkpt lat="45.02213" lon="5.7471">
        <ele>1445</ele>
        <time>2021-05-29T07:55:36Z</time>
      </trkpt>
      <trkpt lat="45.02216" lon="5.74711">
        <ele>1445.2</ele>
        <time>2021-05-29T07:55:37Z</time>
      </trkpt>
      <trkpt lat="45.02218" lon="5.74711">
        <ele>1444.6</ele>
        <time>2021-05-29T07:55:38Z</time>
      </trkpt>
      <trkpt lat="45.02221" lon="5.74712">
        <ele>1443.8</ele>
        <time>2021-05-29T07:55:39Z</time>
      </trkpt>
      <trkpt lat="45.02221" lon="5.74712">
        <ele>1443.8</ele>
        <time>2021-05-29T07:55:40Z</time>
      </trkpt>
      <trkpt lat="45.02221" lon="5.74712">
        <ele>1443.2</ele>
        <time>2021-05-29T07:55:41Z</time>
      </trkpt>
      <trkpt lat="45.02221" lon="5.74712">
        <ele>1443.2</ele>
        <time>2021-05-29T07:55:42Z</time>
      </trkpt>
      <trkpt lat="45.02222" lon="5.74713">
        <ele>1443</ele>
        <time>2021-05-29T07:55:43Z</time>
      </trkpt>
      <trkpt lat="45.02224" lon="5.74713">
        <ele>1442.8</ele>
        <time>2021-05-29T07:55:44Z</time>
      </trkpt>
      <trkpt lat="45.02226" lon="5.74713">
        <ele>1442.8</ele>
        <time>2021-05-29T07:55:45Z</time>
      </trkpt>
      <trkpt lat="45.02227" lon="5.74714">
        <ele>1442.2</ele>
        <time>2021-05-29T07:55:46Z</time>
      </trkpt>
      <trkpt lat="45.02229" lon="5.74714">
        <ele>1442.4</ele>
        <time>2021-05-29T07:55:47Z</time>
      </trkpt>
      <trkpt lat="45.02231" lon="5.74715">
        <ele>1441.8</ele>
        <time>2021-05-29T07:55:48Z</time>
      </trkpt>
      <trkpt lat="45.02233" lon="5.74714">
        <ele>1441.8</ele>
        <time>2021-05-29T07:55:49Z</time>
      </trkpt>
      <trkpt lat="45.02235" lon="5.74714">
        <ele>1441.4</ele>
        <time>2021-05-29T07:55:50Z</time>
      </trkpt>
      <trkpt lat="45.02238" lon="5.74713">
        <ele>1441.8</ele>
        <time>2021-05-29T07:55:51Z</time>
      </trkpt>
      <trkpt lat="45.0224" lon="5.74712">
        <ele>1441</ele>
        <time>2021-05-29T07:55:52Z</time>
      </trkpt>
      <trkpt lat="45.02251" lon="5.74715">
        <ele>1440.4</ele>
        <time>2021-05-29T07:55:53Z</time>
      </trkpt>
      <trkpt lat="45.02252" lon="5.74715">
        <ele>1440.4</ele>
        <time>2021-05-29T07:55:54Z</time>
      </trkpt>
      <trkpt lat="45.02254" lon="5.74716">
        <ele>1439.6</ele>
        <time>2021-05-29T07:55:55Z</time>
      </trkpt>
      <trkpt lat="45.02255" lon="5.74716">
        <ele>1439.2</ele>
        <time>2021-05-29T07:55:56Z</time>
      </trkpt>
      <trkpt lat="45.02259" lon="5.74717">
        <ele>1438.8</ele>
        <time>2021-05-29T07:55:57Z</time>
      </trkpt>
      <trkpt lat="45.02259" lon="5.74717">
        <ele>1439.2</ele>
        <time>2021-05-29T07:55:58Z</time>
      </trkpt>
      <trkpt lat="45.02259" lon="5.74717">
        <ele>1439</ele>
        <time>2021-05-29T07:55:59Z</time>
      </trkpt>
      <trkpt lat="45.02259" lon="5.74717">
        <ele>1439</ele>
        <time>2021-05-29T07:56:00Z</time>
      </trkpt>
      <trkpt lat="45.02261" lon="5.74717">
        <ele>1438.6</ele>
        <time>2021-05-29T07:56:01Z</time>
      </trkpt>
      <trkpt lat="45.02264" lon="5.74718">
        <ele>1438.2</ele>
        <time>2021-05-29T07:56:02Z</time>
      </trkpt>
      <trkpt lat="45.02266" lon="5.74719">
        <ele>1437.8</ele>
        <time>2021-05-29T07:56:03Z</time>
      </trkpt>
      <trkpt lat="45.02268" lon="5.74719">
        <ele>1437.6</ele>
        <time>2021-05-29T07:56:04Z</time>
      </trkpt>
      <trkpt lat="45.0227" lon="5.7472">
        <ele>1437.8</ele>
        <time>2021-05-29T07:56:05Z</time>
      </trkpt>
      <trkpt lat="45.02273" lon="5.74721">
        <ele>1438</ele>
        <time>2021-05-29T07:56:06Z</time>
      </trkpt>
      <trkpt lat="45.02276" lon="5.74722">
        <ele>1438.2</ele>
        <time>2021-05-29T07:56:07Z</time>
      </trkpt>
      <trkpt lat="45.02279" lon="5.74723">
        <ele>1437.8</ele>
        <time>2021-05-29T07:56:08Z</time>
      </trkpt>
      <trkpt lat="45.02282" lon="5.74724">
        <ele>1437.8</ele>
        <time>2021-05-29T07:56:09Z</time>
      </trkpt>
      <trkpt lat="45.02285" lon="5.74725">
        <ele>1437.6</ele>
        <time>2021-05-29T07:56:10Z</time>
      </trkpt>
      <trkpt lat="45.02292" lon="5.74727">
        <ele>1437</ele>
        <time>2021-05-29T07:56:11Z</time>
      </trkpt>
      <trkpt lat="45.02293" lon="5.74727">
        <ele>1437.4</ele>
        <time>2021-05-29T07:56:12Z</time>
      </trkpt>
      <trkpt lat="45.02295" lon="5.74727">
        <ele>1437</ele>
        <time>2021-05-29T07:56:13Z</time>
      </trkpt>
      <trkpt lat="45.02297" lon="5.74727">
        <ele>1437.2</ele>
        <time>2021-05-29T07:56:14Z</time>
      </trkpt>
      <trkpt lat="45.02297" lon="5.74727">
        <ele>1437</ele>
        <time>2021-05-29T07:56:15Z</time>
      </trkpt>
      <trkpt lat="45.02297" lon="5.74727">
        <ele>1436.8</ele>
        <time>2021-05-29T07:56:16Z</time>
      </trkpt>
      <trkpt lat="45.02297" lon="5.74727">
        <ele>1436.6</ele>
        <time>2021-05-29T07:56:17Z</time>
      </trkpt>
      <trkpt lat="45.02299" lon="5.74727">
        <ele>1436</ele>
        <time>2021-05-29T07:56:18Z</time>
      </trkpt>
      <trkpt lat="45.023" lon="5.74728">
        <ele>1436.2</ele>
        <time>2021-05-29T07:56:19Z</time>
      </trkpt>
      <trkpt lat="45.02302" lon="5.74729">
        <ele>1436</ele>
        <time>2021-05-29T07:56:20Z</time>
      </trkpt>
      <trkpt lat="45.02303" lon="5.74729">
        <ele>1436</ele>
        <time>2021-05-29T07:56:21Z</time>
      </trkpt>
      <trkpt lat="45.02304" lon="5.7473">
        <ele>1435.8</ele>
        <time>2021-05-29T07:56:22Z</time>
      </trkpt>
      <trkpt lat="45.02306" lon="5.7473">
        <ele>1435.6</ele>
        <time>2021-05-29T07:56:23Z</time>
      </trkpt>
      <trkpt lat="45.02307" lon="5.74731">
        <ele>1435.4</ele>
        <time>2021-05-29T07:56:24Z</time>
      </trkpt>
      <trkpt lat="45.02308" lon="5.74732">
        <ele>1435.8</ele>
        <time>2021-05-29T07:56:25Z</time>
      </trkpt>
      <trkpt lat="45.02309" lon="5.74732">
        <ele>1436</ele>
        <time>2021-05-29T07:56:26Z</time>
      </trkpt>
      <trkpt lat="45.0231" lon="5.74733">
        <ele>1436</ele>
        <time>2021-05-29T07:56:27Z</time>
      </trkpt>
      <trkpt lat="45.02311" lon="5.74733">
        <ele>1436.2</ele>
        <time>2021-05-29T07:56:28Z</time>
      </trkpt>
      <trkpt lat="45.02312" lon="5.74734">
        <ele>1435.8</ele>
        <time>2021-05-29T07:56:29Z</time>
      </trkpt>
      <trkpt lat="45.02313" lon="5.74735">
        <ele>1435.8</ele>
        <time>2021-05-29T07:56:30Z</time>
      </trkpt>
      <trkpt lat="45.02314" lon="5.74735">
        <ele>1435.2</ele>
        <time>2021-05-29T07:56:31Z</time>
      </trkpt>
      <trkpt lat="45.02315" lon="5.74736">
        <ele>1435</ele>
        <time>2021-05-29T07:56:32Z</time>
      </trkpt>
      <trkpt lat="45.02316" lon="5.74737">
        <ele>1434.8</ele>
        <time>2021-05-29T07:56:33Z</time>
      </trkpt>
      <trkpt lat="45.02317" lon="5.74738">
        <ele>1434.6</ele>
        <time>2021-05-29T07:56:34Z</time>
      </trkpt>
      <trkpt lat="45.02318" lon="5.74739">
        <ele>1434.8</ele>
        <time>2021-05-29T07:56:35Z</time>
      </trkpt>
      <trkpt lat="45.0232" lon="5.7474">
        <ele>1434.6</ele>
        <time>2021-05-29T07:56:36Z</time>
      </trkpt>
      <trkpt lat="45.02321" lon="5.74741">
        <ele>1435.2</ele>
        <time>2021-05-29T07:56:37Z</time>
      </trkpt>
      <trkpt lat="45.02322" lon="5.74741">
        <ele>1435.2</ele>
        <time>2021-05-29T07:56:38Z</time>
      </trkpt>
      <trkpt lat="45.02323" lon="5.74742">
        <ele>1435.6</ele>
        <time>2021-05-29T07:56:39Z</time>
      </trkpt>
      <trkpt lat="45.02324" lon="5.74744">
        <ele>1435.6</ele>
        <time>2021-05-29T07:56:40Z</time>
      </trkpt>
      <trkpt lat="45.02325" lon="5.74745">
        <ele>1435.8</ele>
        <time>2021-05-29T07:56:41Z</time>
      </trkpt>
      <trkpt lat="45.02326" lon="5.74746">
        <ele>1435.8</ele>
        <time>2021-05-29T07:56:42Z</time>
      </trkpt>
      <trkpt lat="45.02326" lon="5.74747">
        <ele>1435.6</ele>
        <time>2021-05-29T07:56:43Z</time>
      </trkpt>
      <trkpt lat="45.02327" lon="5.74748">
        <ele>1436</ele>
        <time>2021-05-29T07:56:44Z</time>
      </trkpt>
      <trkpt lat="45.02328" lon="5.7475">
        <ele>1436.2</ele>
        <time>2021-05-29T07:56:45Z</time>
      </trkpt>
      <trkpt lat="45.02329" lon="5.74751">
        <ele>1436.4</ele>
        <time>2021-05-29T07:56:46Z</time>
      </trkpt>
      <trkpt lat="45.02329" lon="5.74752">
        <ele>1436.4</ele>
        <time>2021-05-29T07:56:47Z</time>
      </trkpt>
      <trkpt lat="45.0233" lon="5.74753">
        <ele>1436.6</ele>
        <time>2021-05-29T07:56:48Z</time>
      </trkpt>
      <trkpt lat="45.02331" lon="5.74754">
        <ele>1436.8</ele>
        <time>2021-05-29T07:56:49Z</time>
      </trkpt>
      <trkpt lat="45.02331" lon="5.74756">
        <ele>1437</ele>
        <time>2021-05-29T07:56:50Z</time>
      </trkpt>
      <trkpt lat="45.02334" lon="5.74755">
        <ele>1437</ele>
        <time>2021-05-29T07:56:51Z</time>
      </trkpt>
      <trkpt lat="45.02336" lon="5.74755">
        <ele>1436.8</ele>
        <time>2021-05-29T07:56:52Z</time>
      </trkpt>
      <trkpt lat="45.02338" lon="5.74754">
        <ele>1436.4</ele>
        <time>2021-05-29T07:56:53Z</time>
      </trkpt>
      <trkpt lat="45.0234" lon="5.74754">
        <ele>1436.8</ele>
        <time>2021-05-29T07:56:54Z</time>
      </trkpt>
      <trkpt lat="45.02342" lon="5.74753">
        <ele>1436.6</ele>
        <time>2021-05-29T07:56:55Z</time>
      </trkpt>
      <trkpt lat="45.02344" lon="5.74753">
        <ele>1436.8</ele>
        <time>2021-05-29T07:56:56Z</time>
      </trkpt>
      <trkpt lat="45.02346" lon="5.74752">
        <ele>1436.6</ele>
        <time>2021-05-29T07:56:57Z</time>
      </trkpt>
      <trkpt lat="45.02347" lon="5.74753">
        <ele>1437</ele>
        <time>2021-05-29T07:56:58Z</time>
      </trkpt>
      <trkpt lat="45.02348" lon="5.74754">
        <ele>1436.6</ele>
        <time>2021-05-29T07:56:59Z</time>
      </trkpt>
      <trkpt lat="45.0235" lon="5.74755">
        <ele>1437</ele>
        <time>2021-05-29T07:57:00Z</time>
      </trkpt>
      <trkpt lat="45.02351" lon="5.74755">
        <ele>1436.8</ele>
        <time>2021-05-29T07:57:01Z</time>
      </trkpt>
      <trkpt lat="45.02352" lon="5.74756">
        <ele>1437.4</ele>
        <time>2021-05-29T07:57:02Z</time>
      </trkpt>
      <trkpt lat="45.02353" lon="5.74757">
        <ele>1437.4</ele>
        <time>2021-05-29T07:57:03Z</time>
      </trkpt>
      <trkpt lat="45.02355" lon="5.74758">
        <ele>1437.8</ele>
        <time>2021-05-29T07:57:04Z</time>
      </trkpt>
      <trkpt lat="45.02356" lon="5.7476">
        <ele>1437.6</ele>
        <time>2021-05-29T07:57:05Z</time>
      </trkpt>
      <trkpt lat="45.02358" lon="5.74762">
        <ele>1437.8</ele>
        <time>2021-05-29T07:57:06Z</time>
      </trkpt>
      <trkpt lat="45.02359" lon="5.74765">
        <ele>1437.8</ele>
        <time>2021-05-29T07:57:07Z</time>
      </trkpt>
      <trkpt lat="45.0236" lon="5.74767">
        <ele>1438</ele>
        <time>2021-05-29T07:57:08Z</time>
      </trkpt>
      <trkpt lat="45.02362" lon="5.7477">
        <ele>1437.8</ele>
        <time>2021-05-29T07:57:09Z</time>
      </trkpt>
      <trkpt lat="45.02364" lon="5.74769">
        <ele>1438</ele>
        <time>2021-05-29T07:57:10Z</time>
      </trkpt>
      <trkpt lat="45.02366" lon="5.74769">
        <ele>1437.8</ele>
        <time>2021-05-29T07:57:11Z</time>
      </trkpt>
      <trkpt lat="45.02368" lon="5.74769">
        <ele>1437.8</ele>
        <time>2021-05-29T07:57:12Z</time>
      </trkpt>
      <trkpt lat="45.0237" lon="5.74769">
        <ele>1438</ele>
        <time>2021-05-29T07:57:13Z</time>
      </trkpt>
      <trkpt lat="45.02372" lon="5.74769">
        <ele>1437.8</ele>
        <time>2021-05-29T07:57:14Z</time>
      </trkpt>
      <trkpt lat="45.02375" lon="5.74769">
        <ele>1438.2</ele>
        <time>2021-05-29T07:57:15Z</time>
      </trkpt>
      <trkpt lat="45.02378" lon="5.7477">
        <ele>1437.8</ele>
        <time>2021-05-29T07:57:16Z</time>
      </trkpt>
      <trkpt lat="45.02381" lon="5.74771">
        <ele>1438</ele>
        <time>2021-05-29T07:57:17Z</time>
      </trkpt>
      <trkpt lat="45.02383" lon="5.74771">
        <ele>1437.6</ele>
        <time>2021-05-29T07:57:18Z</time>
      </trkpt>
      <trkpt lat="45.02386" lon="5.74772">
        <ele>1437.8</ele>
        <time>2021-05-29T07:57:19Z</time>
      </trkpt>
      <trkpt lat="45.0239" lon="5.74775">
        <ele>1437.4</ele>
        <time>2021-05-29T07:57:20Z</time>
      </trkpt>
      <trkpt lat="45.0239" lon="5.74775">
        <ele>1437.4</ele>
        <time>2021-05-29T07:57:21Z</time>
      </trkpt>
      <trkpt lat="45.0239" lon="5.74775">
        <ele>1437.2</ele>
        <time>2021-05-29T07:57:22Z</time>
      </trkpt>
      <trkpt lat="45.02393" lon="5.74777">
        <ele>1437.4</ele>
        <time>2021-05-29T07:57:23Z</time>
      </trkpt>
      <trkpt lat="45.02395" lon="5.74779">
        <ele>1437</ele>
        <time>2021-05-29T07:57:24Z</time>
      </trkpt>
      <trkpt lat="45.02398" lon="5.74781">
        <ele>1437.2</ele>
        <time>2021-05-29T07:57:25Z</time>
      </trkpt>
      <trkpt lat="45.024" lon="5.74782">
        <ele>1437.2</ele>
        <time>2021-05-29T07:57:26Z</time>
      </trkpt>
      <trkpt lat="45.02402" lon="5.74785">
        <ele>1437.2</ele>
        <time>2021-05-29T07:57:27Z</time>
      </trkpt>
      <trkpt lat="45.02404" lon="5.74787">
        <ele>1437.2</ele>
        <time>2021-05-29T07:57:28Z</time>
      </trkpt>
      <trkpt lat="45.02406" lon="5.7479">
        <ele>1437.6</ele>
        <time>2021-05-29T07:57:29Z</time>
      </trkpt>
      <trkpt lat="45.02408" lon="5.74792">
        <ele>1437.6</ele>
        <time>2021-05-29T07:57:30Z</time>
      </trkpt>
      <trkpt lat="45.0241" lon="5.74795">
        <ele>1437.6</ele>
        <time>2021-05-29T07:57:31Z</time>
      </trkpt>
      <trkpt lat="45.02412" lon="5.74797">
        <ele>1437.6</ele>
        <time>2021-05-29T07:57:32Z</time>
      </trkpt>
      <trkpt lat="45.02414" lon="5.748">
        <ele>1437.4</ele>
        <time>2021-05-29T07:57:33Z</time>
      </trkpt>
      <trkpt lat="45.02416" lon="5.74802">
        <ele>1438</ele>
        <time>2021-05-29T07:57:34Z</time>
      </trkpt>
      <trkpt lat="45.02417" lon="5.74803">
        <ele>1437.6</ele>
        <time>2021-05-29T07:57:35Z</time>
      </trkpt>
      <trkpt lat="45.02419" lon="5.74804">
        <ele>1437.8</ele>
        <time>2021-05-29T07:57:36Z</time>
      </trkpt>
      <trkpt lat="45.0242" lon="5.74805">
        <ele>1437.8</ele>
        <time>2021-05-29T07:57:37Z</time>
      </trkpt>
      <trkpt lat="45.02422" lon="5.74805">
        <ele>1438.4</ele>
        <time>2021-05-29T07:57:38Z</time>
      </trkpt>
      <trkpt lat="45.02423" lon="5.74806">
        <ele>1438.4</ele>
        <time>2021-05-29T07:57:39Z</time>
      </trkpt>
      <trkpt lat="45.02425" lon="5.74807">
        <ele>1438.8</ele>
        <time>2021-05-29T07:57:40Z</time>
      </trkpt>
      <trkpt lat="45.02427" lon="5.74808">
        <ele>1438.4</ele>
        <time>2021-05-29T07:57:41Z</time>
      </trkpt>
      <trkpt lat="45.02428" lon="5.74809">
        <ele>1438.6</ele>
        <time>2021-05-29T07:57:42Z</time>
      </trkpt>
      <trkpt lat="45.0243" lon="5.7481">
        <ele>1438.4</ele>
        <time>2021-05-29T07:57:43Z</time>
      </trkpt>
      <trkpt lat="45.02432" lon="5.74811">
        <ele>1438.2</ele>
        <time>2021-05-29T07:57:44Z</time>
      </trkpt>
      <trkpt lat="45.02433" lon="5.74813">
        <ele>1437.8</ele>
        <time>2021-05-29T07:57:45Z</time>
      </trkpt>
      <trkpt lat="45.02435" lon="5.74814">
        <ele>1437.8</ele>
        <time>2021-05-29T07:57:46Z</time>
      </trkpt>
      <trkpt lat="45.02437" lon="5.74814">
        <ele>1438.2</ele>
        <time>2021-05-29T07:57:47Z</time>
      </trkpt>
      <trkpt lat="45.0244" lon="5.74815">
        <ele>1438</ele>
        <time>2021-05-29T07:57:48Z</time>
      </trkpt>
      <trkpt lat="45.02442" lon="5.74816">
        <ele>1438.2</ele>
        <time>2021-05-29T07:57:49Z</time>
      </trkpt>
      <trkpt lat="45.02444" lon="5.74817">
        <ele>1438</ele>
        <time>2021-05-29T07:57:50Z</time>
      </trkpt>
      <trkpt lat="45.02445" lon="5.74818">
        <ele>1438</ele>
        <time>2021-05-29T07:57:51Z</time>
      </trkpt>
      <trkpt lat="45.02447" lon="5.74819">
        <ele>1437.8</ele>
        <time>2021-05-29T07:57:52Z</time>
      </trkpt>
      <trkpt lat="45.02449" lon="5.7482">
        <ele>1437.4</ele>
        <time>2021-05-29T07:57:53Z</time>
      </trkpt>
      <trkpt lat="45.02451" lon="5.74821">
        <ele>1437.6</ele>
        <time>2021-05-29T07:57:54Z</time>
      </trkpt>
      <trkpt lat="45.02453" lon="5.74822">
        <ele>1437.2</ele>
        <time>2021-05-29T07:57:55Z</time>
      </trkpt>
      <trkpt lat="45.02455" lon="5.74823">
        <ele>1437</ele>
        <time>2021-05-29T07:57:56Z</time>
      </trkpt>
      <trkpt lat="45.02457" lon="5.74824">
        <ele>1436.6</ele>
        <time>2021-05-29T07:57:57Z</time>
      </trkpt>
      <trkpt lat="45.02458" lon="5.74825">
        <ele>1436</ele>
        <time>2021-05-29T07:57:58Z</time>
      </trkpt>
      <trkpt lat="45.0246" lon="5.74826">
        <ele>1436</ele>
        <time>2021-05-29T07:57:59Z</time>
      </trkpt>
      <trkpt lat="45.02462" lon="5.74827">
        <ele>1435.6</ele>
        <time>2021-05-29T07:58:00Z</time>
      </trkpt>
      <trkpt lat="45.02464" lon="5.74828">
        <ele>1435.6</ele>
        <time>2021-05-29T07:58:01Z</time>
      </trkpt>
      <trkpt lat="45.02467" lon="5.74828">
        <ele>1435.4</ele>
        <time>2021-05-29T07:58:02Z</time>
      </trkpt>
      <trkpt lat="45.02469" lon="5.74828">
        <ele>1435.6</ele>
        <time>2021-05-29T07:58:03Z</time>
      </trkpt>
      <trkpt lat="45.02472" lon="5.74828">
        <ele>1435.2</ele>
        <time>2021-05-29T07:58:04Z</time>
      </trkpt>
      <trkpt lat="45.02474" lon="5.74829">
        <ele>1435.2</ele>
        <time>2021-05-29T07:58:05Z</time>
      </trkpt>
      <trkpt lat="45.02476" lon="5.74829">
        <ele>1435</ele>
        <time>2021-05-29T07:58:06Z</time>
      </trkpt>
      <trkpt lat="45.02479" lon="5.7483">
        <ele>1434.6</ele>
        <time>2021-05-29T07:58:07Z</time>
      </trkpt>
      <trkpt lat="45.02481" lon="5.7483">
        <ele>1434.8</ele>
        <time>2021-05-29T07:58:08Z</time>
      </trkpt>
      <trkpt lat="45.0249" lon="5.74835">
        <ele>1434.4</ele>
        <time>2021-05-29T07:58:09Z</time>
      </trkpt>
      <trkpt lat="45.0249" lon="5.74835">
        <ele>1434.6</ele>
        <time>2021-05-29T07:58:10Z</time>
      </trkpt>
      <trkpt lat="45.0249" lon="5.74835">
        <ele>1434</ele>
        <time>2021-05-29T07:58:11Z</time>
      </trkpt>
      <trkpt lat="45.0249" lon="5.74835">
        <ele>1433.4</ele>
        <time>2021-05-29T07:58:12Z</time>
      </trkpt>
      <trkpt lat="45.02491" lon="5.74836">
        <ele>1433.4</ele>
        <time>2021-05-29T07:58:13Z</time>
      </trkpt>
      <trkpt lat="45.02493" lon="5.74837">
        <ele>1433</ele>
        <time>2021-05-29T07:58:14Z</time>
      </trkpt>
      <trkpt lat="45.02494" lon="5.74837">
        <ele>1433.2</ele>
        <time>2021-05-29T07:58:15Z</time>
      </trkpt>
      <trkpt lat="45.02496" lon="5.74838">
        <ele>1433.2</ele>
        <time>2021-05-29T07:58:16Z</time>
      </trkpt>
      <trkpt lat="45.02498" lon="5.74839">
        <ele>1433.4</ele>
        <time>2021-05-29T07:58:17Z</time>
      </trkpt>
      <trkpt lat="45.02499" lon="5.7484">
        <ele>1433.2</ele>
        <time>2021-05-29T07:58:18Z</time>
      </trkpt>
      <trkpt lat="45.02501" lon="5.7484">
        <ele>1433.2</ele>
        <time>2021-05-29T07:58:19Z</time>
      </trkpt>
      <trkpt lat="45.02502" lon="5.7484">
        <ele>1432.8</ele>
        <time>2021-05-29T07:58:20Z</time>
      </trkpt>
      <trkpt lat="45.02504" lon="5.74841">
        <ele>1433.2</ele>
        <time>2021-05-29T07:58:21Z</time>
      </trkpt>
      <trkpt lat="45.02505" lon="5.74841">
        <ele>1432.8</ele>
        <time>2021-05-29T07:58:22Z</time>
      </trkpt>
      <trkpt lat="45.02507" lon="5.74841">
        <ele>1432.4</ele>
        <time>2021-05-29T07:58:23Z</time>
      </trkpt>
      <trkpt lat="45.02508" lon="5.74842">
        <ele>1432.4</ele>
        <time>2021-05-29T07:58:24Z</time>
      </trkpt>
      <trkpt lat="45.0251" lon="5.74842">
        <ele>1432</ele>
        <time>2021-05-29T07:58:25Z</time>
      </trkpt>
      <trkpt lat="45.02512" lon="5.74843">
        <ele>1432.2</ele>
        <time>2021-05-29T07:58:26Z</time>
      </trkpt>
      <trkpt lat="45.02514" lon="5.74844">
        <ele>1431.8</ele>
        <time>2021-05-29T07:58:27Z</time>
      </trkpt>
      <trkpt lat="45.02515" lon="5.74844">
        <ele>1431.6</ele>
        <time>2021-05-29T07:58:28Z</time>
      </trkpt>
      <trkpt lat="45.02517" lon="5.74845">
        <ele>1431.2</ele>
        <time>2021-05-29T07:58:29Z</time>
      </trkpt>
      <trkpt lat="45.02519" lon="5.74846">
        <ele>1431</ele>
        <time>2021-05-29T07:58:30Z</time>
      </trkpt>
      <trkpt lat="45.02521" lon="5.74847">
        <ele>1431.4</ele>
        <time>2021-05-29T07:58:31Z</time>
      </trkpt>
      <trkpt lat="45.02523" lon="5.74848">
        <ele>1431</ele>
        <time>2021-05-29T07:58:32Z</time>
      </trkpt>
      <trkpt lat="45.02524" lon="5.74848">
        <ele>1431</ele>
        <time>2021-05-29T07:58:33Z</time>
      </trkpt>
      <trkpt lat="45.02526" lon="5.74849">
        <ele>1430.8</ele>
        <time>2021-05-29T07:58:34Z</time>
      </trkpt>
      <trkpt lat="45.02528" lon="5.7485">
        <ele>1430</ele>
        <time>2021-05-29T07:58:35Z</time>
      </trkpt>
      <trkpt lat="45.0253" lon="5.7485">
        <ele>1430.2</ele>
        <time>2021-05-29T07:58:36Z</time>
      </trkpt>
      <trkpt lat="45.02532" lon="5.74851">
        <ele>1429.8</ele>
        <time>2021-05-29T07:58:37Z</time>
      </trkpt>
      <trkpt lat="45.02534" lon="5.74851">
        <ele>1429.4</ele>
        <time>2021-05-29T07:58:38Z</time>
      </trkpt>
      <trkpt lat="45.02536" lon="5.74852">
        <ele>1429.4</ele>
        <time>2021-05-29T07:58:39Z</time>
      </trkpt>
      <trkpt lat="45.02537" lon="5.74853">
        <ele>1429.4</ele>
        <time>2021-05-29T07:58:40Z</time>
      </trkpt>
      <trkpt lat="45.02539" lon="5.74853">
        <ele>1429.2</ele>
        <time>2021-05-29T07:58:41Z</time>
      </trkpt>
      <trkpt lat="45.02539" lon="5.74853">
        <ele>1428.8</ele>
        <time>2021-05-29T07:58:42Z</time>
      </trkpt>
      <trkpt lat="45.02539" lon="5.74853">
        <ele>1428.4</ele>
        <time>2021-05-29T07:58:43Z</time>
      </trkpt>
      <trkpt lat="45.02539" lon="5.74853">
        <ele>1428.2</ele>
        <time>2021-05-29T07:58:44Z</time>
      </trkpt>
      <trkpt lat="45.0254" lon="5.74855">
        <ele>1428.4</ele>
        <time>2021-05-29T07:58:45Z</time>
      </trkpt>
      <trkpt lat="45.0254" lon="5.74856">
        <ele>1428.6</ele>
        <time>2021-05-29T07:58:46Z</time>
      </trkpt>
      <trkpt lat="45.02541" lon="5.74857">
        <ele>1428.2</ele>
        <time>2021-05-29T07:58:47Z</time>
      </trkpt>
      <trkpt lat="45.02541" lon="5.74859">
        <ele>1428.2</ele>
        <time>2021-05-29T07:58:48Z</time>
      </trkpt>
      <trkpt lat="45.02541" lon="5.7486">
        <ele>1428.4</ele>
        <time>2021-05-29T07:58:49Z</time>
      </trkpt>
      <trkpt lat="45.02542" lon="5.74861">
        <ele>1428.2</ele>
        <time>2021-05-29T07:58:50Z</time>
      </trkpt>
      <trkpt lat="45.02542" lon="5.74863">
        <ele>1428</ele>
        <time>2021-05-29T07:58:51Z</time>
      </trkpt>
      <trkpt lat="45.02543" lon="5.74864">
        <ele>1427.6</ele>
        <time>2021-05-29T07:58:52Z</time>
      </trkpt>
      <trkpt lat="45.02543" lon="5.74865">
        <ele>1428</ele>
        <time>2021-05-29T07:58:53Z</time>
      </trkpt>
      <trkpt lat="45.02544" lon="5.74866">
        <ele>1428</ele>
        <time>2021-05-29T07:58:54Z</time>
      </trkpt>
      <trkpt lat="45.02544" lon="5.74866">
        <ele>1427.8</ele>
        <time>2021-05-29T07:58:55Z</time>
      </trkpt>
      <trkpt lat="45.02545" lon="5.74867">
        <ele>1428</ele>
        <time>2021-05-29T07:58:56Z</time>
      </trkpt>
      <trkpt lat="45.02545" lon="5.74867">
        <ele>1427.8</ele>
        <time>2021-05-29T07:58:57Z</time>
      </trkpt>
      <trkpt lat="45.02546" lon="5.74868">
        <ele>1427.8</ele>
        <time>2021-05-29T07:58:58Z</time>
      </trkpt>
      <trkpt lat="45.02546" lon="5.74868">
        <ele>1428</ele>
        <time>2021-05-29T07:58:59Z</time>
      </trkpt>
      <trkpt lat="45.02547" lon="5.74869">
        <ele>1428</ele>
        <time>2021-05-29T07:59:00Z</time>
      </trkpt>
      <trkpt lat="45.0255" lon="5.74871">
        <ele>1428.2</ele>
        <time>2021-05-29T07:59:01Z</time>
      </trkpt>
      <trkpt lat="45.02554" lon="5.74872">
        <ele>1428.4</ele>
        <time>2021-05-29T07:59:02Z</time>
      </trkpt>
      <trkpt lat="45.02558" lon="5.74874">
        <ele>1428.6</ele>
        <time>2021-05-29T07:59:03Z</time>
      </trkpt>
      <trkpt lat="45.02562" lon="5.74876">
        <ele>1429</ele>
        <time>2021-05-29T07:59:04Z</time>
      </trkpt>
      <trkpt lat="45.02567" lon="5.74878">
        <ele>1429.2</ele>
        <time>2021-05-29T07:59:05Z</time>
      </trkpt>
      <trkpt lat="45.02571" lon="5.7488">
        <ele>1429</ele>
        <time>2021-05-29T07:59:06Z</time>
      </trkpt>
      <trkpt lat="45.02575" lon="5.74882">
        <ele>1429.2</ele>
        <time>2021-05-29T07:59:07Z</time>
      </trkpt>
      <trkpt lat="45.02578" lon="5.74883">
        <ele>1429.2</ele>
        <time>2021-05-29T07:59:08Z</time>
      </trkpt>
      <trkpt lat="45.02581" lon="5.74884">
        <ele>1429.2</ele>
        <time>2021-05-29T07:59:09Z</time>
      </trkpt>
      <trkpt lat="45.02584" lon="5.74885">
        <ele>1429.4</ele>
        <time>2021-05-29T07:59:10Z</time>
      </trkpt>
      <trkpt lat="45.02584" lon="5.74885">
        <ele>1429.4</ele>
        <time>2021-05-29T07:59:11Z</time>
      </trkpt>
      <trkpt lat="45.02584" lon="5.74885">
        <ele>1429.2</ele>
        <time>2021-05-29T07:59:12Z</time>
      </trkpt>
      <trkpt lat="45.02586" lon="5.74885">
        <ele>1429.2</ele>
        <time>2021-05-29T07:59:13Z</time>
      </trkpt>
      <trkpt lat="45.02588" lon="5.74886">
        <ele>1429.2</ele>
        <time>2021-05-29T07:59:14Z</time>
      </trkpt>
      <trkpt lat="45.0259" lon="5.74886">
        <ele>1429.4</ele>
        <time>2021-05-29T07:59:15Z</time>
      </trkpt>
      <trkpt lat="45.02592" lon="5.74886">
        <ele>1429.2</ele>
        <time>2021-05-29T07:59:16Z</time>
      </trkpt>
      <trkpt lat="45.02594" lon="5.74886">
        <ele>1429.2</ele>
        <time>2021-05-29T07:59:17Z</time>
      </trkpt>
      <trkpt lat="45.02594" lon="5.74886">
        <ele>1429.2</ele>
        <time>2021-05-29T07:59:18Z</time>
      </trkpt>
      <trkpt lat="45.02595" lon="5.74886">
        <ele>1429.6</ele>
        <time>2021-05-29T07:59:19Z</time>
      </trkpt>
      <trkpt lat="45.02596" lon="5.74886">
        <ele>1429.4</ele>
        <time>2021-05-29T07:59:20Z</time>
      </trkpt>
      <trkpt lat="45.02597" lon="5.74887">
        <ele>1429.6</ele>
        <time>2021-05-29T07:59:21Z</time>
      </trkpt>
      <trkpt lat="45.02598" lon="5.74887">
        <ele>1429.6</ele>
        <time>2021-05-29T07:59:22Z</time>
      </trkpt>
      <trkpt lat="45.02598" lon="5.74887">
        <ele>1429.8</ele>
        <time>2021-05-29T07:59:23Z</time>
      </trkpt>
      <trkpt lat="45.02599" lon="5.74887">
        <ele>1430</ele>
        <time>2021-05-29T07:59:24Z</time>
      </trkpt>
      <trkpt lat="45.026" lon="5.74887">
        <ele>1429.8</ele>
        <time>2021-05-29T07:59:25Z</time>
      </trkpt>
      <trkpt lat="45.02601" lon="5.74887">
        <ele>1429.8</ele>
        <time>2021-05-29T07:59:26Z</time>
      </trkpt>
      <trkpt lat="45.02601" lon="5.74887">
        <ele>1429.8</ele>
        <time>2021-05-29T07:59:27Z</time>
      </trkpt>
      <trkpt lat="45.02602" lon="5.74887">
        <ele>1430</ele>
        <time>2021-05-29T07:59:28Z</time>
      </trkpt>
      <trkpt lat="45.02603" lon="5.74887">
        <ele>1430.2</ele>
        <time>2021-05-29T07:59:29Z</time>
      </trkpt>
      <trkpt lat="45.02603" lon="5.74886">
        <ele>1430.4</ele>
        <time>2021-05-29T07:59:30Z</time>
      </trkpt>
      <trkpt lat="45.02604" lon="5.74886">
        <ele>1430.4</ele>
        <time>2021-05-29T07:59:31Z</time>
      </trkpt>
      <trkpt lat="45.02604" lon="5.74885">
        <ele>1430.6</ele>
        <time>2021-05-29T07:59:32Z</time>
      </trkpt>
      <trkpt lat="45.02604" lon="5.74885">
        <ele>1430.4</ele>
        <time>2021-05-29T07:59:33Z</time>
      </trkpt>
      <trkpt lat="45.02604" lon="5.74884">
        <ele>1430.2</ele>
        <time>2021-05-29T07:59:34Z</time>
      </trkpt>
      <trkpt lat="45.02605" lon="5.74884">
        <ele>1430.4</ele>
        <time>2021-05-29T07:59:35Z</time>
      </trkpt>
      <trkpt lat="45.02605" lon="5.74883">
        <ele>1430.4</ele>
        <time>2021-05-29T07:59:36Z</time>
      </trkpt>
      <trkpt lat="45.02605" lon="5.74883">
        <ele>1430.2</ele>
        <time>2021-05-29T07:59:37Z</time>
      </trkpt>
      <trkpt lat="45.02606" lon="5.74882">
        <ele>1430.4</ele>
        <time>2021-05-29T07:59:38Z</time>
      </trkpt>
      <trkpt lat="45.02606" lon="5.74881">
        <ele>1430.4</ele>
        <time>2021-05-29T07:59:39Z</time>
      </trkpt>
      <trkpt lat="45.02606" lon="5.74881">
        <ele>1430.4</ele>
        <time>2021-05-29T07:59:40Z</time>
      </trkpt>
      <trkpt lat="45.02607" lon="5.7488">
        <ele>1430.2</ele>
        <time>2021-05-29T07:59:41Z</time>
      </trkpt>
      <trkpt lat="45.02607" lon="5.7488">
        <ele>1430</ele>
        <time>2021-05-29T07:59:42Z</time>
      </trkpt>
      <trkpt lat="45.02607" lon="5.74879">
        <ele>1429.8</ele>
        <time>2021-05-29T07:59:43Z</time>
      </trkpt>
      <trkpt lat="45.02607" lon="5.74879">
        <ele>1429.6</ele>
        <time>2021-05-29T07:59:44Z</time>
      </trkpt>
      <trkpt lat="45.02608" lon="5.74878">
        <ele>1429.2</ele>
        <time>2021-05-29T07:59:45Z</time>
      </trkpt>
      <trkpt lat="45.02608" lon="5.74878">
        <ele>1429</ele>
        <time>2021-05-29T07:59:46Z</time>
      </trkpt>
      <trkpt lat="45.02608" lon="5.74877">
        <ele>1428.6</ele>
        <time>2021-05-29T07:59:47Z</time>
      </trkpt>
      <trkpt lat="45.02609" lon="5.74876">
        <ele>1428.6</ele>
        <time>2021-05-29T07:59:48Z</time>
      </trkpt>
      <trkpt lat="45.0261" lon="5.74876">
        <ele>1428.2</ele>
        <time>2021-05-29T07:59:49Z</time>
      </trkpt>
      <trkpt lat="45.0261" lon="5.74875">
        <ele>1428</ele>
        <time>2021-05-29T07:59:50Z</time>
      </trkpt>
      <trkpt lat="45.02611" lon="5.74874">
        <ele>1427.6</ele>
        <time>2021-05-29T07:59:51Z</time>
      </trkpt>
      <trkpt lat="45.02612" lon="5.74873">
        <ele>1427.6</ele>
        <time>2021-05-29T07:59:52Z</time>
      </trkpt>
      <trkpt lat="45.02613" lon="5.74873">
        <ele>1427.2</ele>
        <time>2021-05-29T07:59:53Z</time>
      </trkpt>
      <trkpt lat="45.02614" lon="5.74872">
        <ele>1427</ele>
        <time>2021-05-29T07:59:54Z</time>
      </trkpt>
      <trkpt lat="45.02615" lon="5.74871">
        <ele>1427</ele>
        <time>2021-05-29T07:59:55Z</time>
      </trkpt>
      <trkpt lat="45.02616" lon="5.7487">
        <ele>1426.6</ele>
        <time>2021-05-29T07:59:56Z</time>
      </trkpt>
      <trkpt lat="45.02617" lon="5.74869">
        <ele>1426.2</ele>
        <time>2021-05-29T07:59:57Z</time>
      </trkpt>
      <trkpt lat="45.02619" lon="5.74867">
        <ele>1426</ele>
        <time>2021-05-29T07:59:58Z</time>
      </trkpt>
      <trkpt lat="45.02622" lon="5.74865">
        <ele>1425.4</ele>
        <time>2021-05-29T08:00:00Z</time>
      </trkpt>
      <trkpt lat="45.02624" lon="5.74863">
        <ele>1425</ele>
        <time>2021-05-29T08:00:01Z</time>
      </trkpt>
      <trkpt lat="45.02626" lon="5.7486">
        <ele>1424.8</ele>
        <time>2021-05-29T08:00:02Z</time>
      </trkpt>
      <trkpt lat="45.02628" lon="5.74858">
        <ele>1424.8</ele>
        <time>2021-05-29T08:00:03Z</time>
      </trkpt>
      <trkpt lat="45.0263" lon="5.74855">
        <ele>1424.6</ele>
        <time>2021-05-29T08:00:04Z</time>
      </trkpt>
      <trkpt lat="45.02632" lon="5.74851">
        <ele>1424.6</ele>
        <time>2021-05-29T08:00:05Z</time>
      </trkpt>
      <trkpt lat="45.02634" lon="5.74848">
        <ele>1424.6</ele>
        <time>2021-05-29T08:00:06Z</time>
      </trkpt>
      <trkpt lat="45.02636" lon="5.74844">
        <ele>1424.6</ele>
        <time>2021-05-29T08:00:07Z</time>
      </trkpt>
      <trkpt lat="45.02638" lon="5.74841">
        <ele>1424.6</ele>
        <time>2021-05-29T08:00:08Z</time>
      </trkpt>
      <trkpt lat="45.0264" lon="5.74838">
        <ele>1424.6</ele>
        <time>2021-05-29T08:00:09Z</time>
      </trkpt>
      <trkpt lat="45.02642" lon="5.74831">
        <ele>1424.6</ele>
        <time>2021-05-29T08:00:10Z</time>
      </trkpt>
      <trkpt lat="45.02643" lon="5.7483">
        <ele>1424.8</ele>
        <time>2021-05-29T08:00:11Z</time>
      </trkpt>
      <trkpt lat="45.02643" lon="5.74828">
        <ele>1424.6</ele>
        <time>2021-05-29T08:00:12Z</time>
      </trkpt>
      <trkpt lat="45.02644" lon="5.74827">
        <ele>1424.6</ele>
        <time>2021-05-29T08:00:13Z</time>
      </trkpt>
      <trkpt lat="45.02645" lon="5.74825">
        <ele>1424.2</ele>
        <time>2021-05-29T08:00:14Z</time>
      </trkpt>
      <trkpt lat="45.02648" lon="5.74819">
        <ele>1424</ele>
        <time>2021-05-29T08:00:15Z</time>
      </trkpt>
      <trkpt lat="45.02648" lon="5.74819">
        <ele>1424</ele>
        <time>2021-05-29T08:00:16Z</time>
      </trkpt>
      <trkpt lat="45.02648" lon="5.74819">
        <ele>1423.8</ele>
        <time>2021-05-29T08:00:17Z</time>
      </trkpt>
      <trkpt lat="45.02649" lon="5.74817">
        <ele>1423.6</ele>
        <time>2021-05-29T08:00:18Z</time>
      </trkpt>
      <trkpt lat="45.02651" lon="5.74815">
        <ele>1423.6</ele>
        <time>2021-05-29T08:00:19Z</time>
      </trkpt>
      <trkpt lat="45.02652" lon="5.74813">
        <ele>1423.6</ele>
        <time>2021-05-29T08:00:20Z</time>
      </trkpt>
      <trkpt lat="45.02654" lon="5.74811">
        <ele>1423.6</ele>
        <time>2021-05-29T08:00:21Z</time>
      </trkpt>
      <trkpt lat="45.02655" lon="5.74809">
        <ele>1423.8</ele>
        <time>2021-05-29T08:00:22Z</time>
      </trkpt>
      <trkpt lat="45.02657" lon="5.74807">
        <ele>1423.6</ele>
        <time>2021-05-29T08:00:23Z</time>
      </trkpt>
      <trkpt lat="45.02658" lon="5.74805">
        <ele>1423.6</ele>
        <time>2021-05-29T08:00:24Z</time>
      </trkpt>
      <trkpt lat="45.0266" lon="5.74803">
        <ele>1423.6</ele>
        <time>2021-05-29T08:00:25Z</time>
      </trkpt>
      <trkpt lat="45.02661" lon="5.74801">
        <ele>1423.8</ele>
        <time>2021-05-29T08:00:26Z</time>
      </trkpt>
      <trkpt lat="45.02663" lon="5.74799">
        <ele>1423.8</ele>
        <time>2021-05-29T08:00:27Z</time>
      </trkpt>
      <trkpt lat="45.02664" lon="5.74798">
        <ele>1423.6</ele>
        <time>2021-05-29T08:00:28Z</time>
      </trkpt>
      <trkpt lat="45.02666" lon="5.74796">
        <ele>1423.4</ele>
        <time>2021-05-29T08:00:29Z</time>
      </trkpt>
      <trkpt lat="45.02667" lon="5.74795">
        <ele>1423.6</ele>
        <time>2021-05-29T08:00:30Z</time>
      </trkpt>
      <trkpt lat="45.02669" lon="5.74793">
        <ele>1423.4</ele>
        <time>2021-05-29T08:00:31Z</time>
      </trkpt>
      <trkpt lat="45.0267" lon="5.74792">
        <ele>1423.4</ele>
        <time>2021-05-29T08:00:32Z</time>
      </trkpt>
      <trkpt lat="45.02672" lon="5.74791">
        <ele>1423.2</ele>
        <time>2021-05-29T08:00:33Z</time>
      </trkpt>
      <trkpt lat="45.02674" lon="5.74789">
        <ele>1423.2</ele>
        <time>2021-05-29T08:00:34Z</time>
      </trkpt>
      <trkpt lat="45.02675" lon="5.74788">
        <ele>1423.2</ele>
        <time>2021-05-29T08:00:35Z</time>
      </trkpt>
      <trkpt lat="45.02677" lon="5.74786">
        <ele>1423</ele>
        <time>2021-05-29T08:00:36Z</time>
      </trkpt>
      <trkpt lat="45.02679" lon="5.74785">
        <ele>1422.8</ele>
        <time>2021-05-29T08:00:37Z</time>
      </trkpt>
      <trkpt lat="45.02682" lon="5.74785">
        <ele>1422.8</ele>
        <time>2021-05-29T08:00:38Z</time>
      </trkpt>
      <trkpt lat="45.02685" lon="5.74784">
        <ele>1422.8</ele>
        <time>2021-05-29T08:00:39Z</time>
      </trkpt>
      <trkpt lat="45.02688" lon="5.74783">
        <ele>1422.6</ele>
        <time>2021-05-29T08:00:40Z</time>
      </trkpt>
      <trkpt lat="45.02691" lon="5.74783">
        <ele>1422.6</ele>
        <time>2021-05-29T08:00:41Z</time>
      </trkpt>
      <trkpt lat="45.02694" lon="5.74782">
        <ele>1422.2</ele>
        <time>2021-05-29T08:00:42Z</time>
      </trkpt>
      <trkpt lat="45.02699" lon="5.74783">
        <ele>1422.6</ele>
        <time>2021-05-29T08:00:43Z</time>
      </trkpt>
      <trkpt lat="45.027" lon="5.74783">
        <ele>1422.6</ele>
        <time>2021-05-29T08:00:44Z</time>
      </trkpt>
      <trkpt lat="45.02702" lon="5.74783">
        <ele>1422.6</ele>
        <time>2021-05-29T08:00:45Z</time>
      </trkpt>
      <trkpt lat="45.02704" lon="5.74784">
        <ele>1422.4</ele>
        <time>2021-05-29T08:00:46Z</time>
      </trkpt>
      <trkpt lat="45.02705" lon="5.74784">
        <ele>1422.4</ele>
        <time>2021-05-29T08:00:47Z</time>
      </trkpt>
      <trkpt lat="45.02712" lon="5.74785">
        <ele>1422</ele>
        <time>2021-05-29T08:00:48Z</time>
      </trkpt>
      <trkpt lat="45.02715" lon="5.74786">
        <ele>1421.6</ele>
        <time>2021-05-29T08:00:49Z</time>
      </trkpt>
      <trkpt lat="45.02717" lon="5.74786">
        <ele>1422</ele>
        <time>2021-05-29T08:00:50Z</time>
      </trkpt>
      <trkpt lat="45.02719" lon="5.74787">
        <ele>1421.8</ele>
        <time>2021-05-29T08:00:51Z</time>
      </trkpt>
      <trkpt lat="45.02719" lon="5.74787">
        <ele>1422.2</ele>
        <time>2021-05-29T08:00:52Z</time>
      </trkpt>
      <trkpt lat="45.02719" lon="5.74787">
        <ele>1422</ele>
        <time>2021-05-29T08:00:53Z</time>
      </trkpt>
      <trkpt lat="45.02719" lon="5.74787">
        <ele>1422.2</ele>
        <time>2021-05-29T08:00:54Z</time>
      </trkpt>
      <trkpt lat="45.02721" lon="5.74787">
        <ele>1421.8</ele>
        <time>2021-05-29T08:00:55Z</time>
      </trkpt>
      <trkpt lat="45.02724" lon="5.74788">
        <ele>1421.4</ele>
        <time>2021-05-29T08:00:56Z</time>
      </trkpt>
      <trkpt lat="45.02726" lon="5.74788">
        <ele>1421</ele>
        <time>2021-05-29T08:00:57Z</time>
      </trkpt>
      <trkpt lat="45.02728" lon="5.74789">
        <ele>1420.8</ele>
        <time>2021-05-29T08:00:58Z</time>
      </trkpt>
      <trkpt lat="45.0273" lon="5.74789">
        <ele>1421</ele>
        <time>2021-05-29T08:00:59Z</time>
      </trkpt>
      <trkpt lat="45.02733" lon="5.7479">
        <ele>1420.8</ele>
        <time>2021-05-29T08:01:00Z</time>
      </trkpt>
      <trkpt lat="45.02735" lon="5.74791">
        <ele>1421</ele>
        <time>2021-05-29T08:01:01Z</time>
      </trkpt>
      <trkpt lat="45.02738" lon="5.74792">
        <ele>1420.6</ele>
        <time>2021-05-29T08:01:02Z</time>
      </trkpt>
      <trkpt lat="45.0274" lon="5.74793">
        <ele>1420.8</ele>
        <time>2021-05-29T08:01:03Z</time>
      </trkpt>
      <trkpt lat="45.02743" lon="5.74793">
        <ele>1420.4</ele>
        <time>2021-05-29T08:01:04Z</time>
      </trkpt>
      <trkpt lat="45.02745" lon="5.74794">
        <ele>1420.4</ele>
        <time>2021-05-29T08:01:05Z</time>
      </trkpt>
      <trkpt lat="45.02747" lon="5.74794">
        <ele>1420.2</ele>
        <time>2021-05-29T08:01:06Z</time>
      </trkpt>
      <trkpt lat="45.02749" lon="5.74795">
        <ele>1420</ele>
        <time>2021-05-29T08:01:07Z</time>
      </trkpt>
      <trkpt lat="45.02751" lon="5.74795">
        <ele>1420.6</ele>
        <time>2021-05-29T08:01:08Z</time>
      </trkpt>
      <trkpt lat="45.02753" lon="5.74795">
        <ele>1420.6</ele>
        <time>2021-05-29T08:01:09Z</time>
      </trkpt>
      <trkpt lat="45.02755" lon="5.74794">
        <ele>1420.8</ele>
        <time>2021-05-29T08:01:10Z</time>
      </trkpt>
      <trkpt lat="45.02757" lon="5.74794">
        <ele>1420.4</ele>
        <time>2021-05-29T08:01:11Z</time>
      </trkpt>
      <trkpt lat="45.02758" lon="5.74794">
        <ele>1420.2</ele>
        <time>2021-05-29T08:01:12Z</time>
      </trkpt>
      <trkpt lat="45.0276" lon="5.74793">
        <ele>1420</ele>
        <time>2021-05-29T08:01:13Z</time>
      </trkpt>
      <trkpt lat="45.02762" lon="5.74793">
        <ele>1419.8</ele>
        <time>2021-05-29T08:01:14Z</time>
      </trkpt>
      <trkpt lat="45.02763" lon="5.74792">
        <ele>1420</ele>
        <time>2021-05-29T08:01:15Z</time>
      </trkpt>
      <trkpt lat="45.02765" lon="5.74791">
        <ele>1419.8</ele>
        <time>2021-05-29T08:01:16Z</time>
      </trkpt>
      <trkpt lat="45.02767" lon="5.7479">
        <ele>1419.4</ele>
        <time>2021-05-29T08:01:17Z</time>
      </trkpt>
      <trkpt lat="45.02768" lon="5.74788">
        <ele>1418.8</ele>
        <time>2021-05-29T08:01:18Z</time>
      </trkpt>
      <trkpt lat="45.0277" lon="5.74787">
        <ele>1418.6</ele>
        <time>2021-05-29T08:01:19Z</time>
      </trkpt>
      <trkpt lat="45.02772" lon="5.74786">
        <ele>1418.8</ele>
        <time>2021-05-29T08:01:20Z</time>
      </trkpt>
      <trkpt lat="45.02775" lon="5.74785">
        <ele>1418.8</ele>
        <time>2021-05-29T08:01:21Z</time>
      </trkpt>
      <trkpt lat="45.02777" lon="5.74783">
        <ele>1418.8</ele>
        <time>2021-05-29T08:01:22Z</time>
      </trkpt>
      <trkpt lat="45.0278" lon="5.74782">
        <ele>1418.4</ele>
        <time>2021-05-29T08:01:23Z</time>
      </trkpt>
      <trkpt lat="45.02782" lon="5.7478">
        <ele>1418.2</ele>
        <time>2021-05-29T08:01:24Z</time>
      </trkpt>
      <trkpt lat="45.02784" lon="5.74779">
        <ele>1417.4</ele>
        <time>2021-05-29T08:01:25Z</time>
      </trkpt>
      <trkpt lat="45.02789" lon="5.74776">
        <ele>1417.4</ele>
        <time>2021-05-29T08:01:26Z</time>
      </trkpt>
      <trkpt lat="45.02789" lon="5.74776">
        <ele>1417.6</ele>
        <time>2021-05-29T08:01:27Z</time>
      </trkpt>
      <trkpt lat="45.02789" lon="5.74776">
        <ele>1417.2</ele>
        <time>2021-05-29T08:01:28Z</time>
      </trkpt>
      <trkpt lat="45.02789" lon="5.74776">
        <ele>1417</ele>
        <time>2021-05-29T08:01:29Z</time>
      </trkpt>
      <trkpt lat="45.0279" lon="5.74775">
        <ele>1416</ele>
        <time>2021-05-29T08:01:30Z</time>
      </trkpt>
      <trkpt lat="45.02792" lon="5.74775">
        <ele>1415.8</ele>
        <time>2021-05-29T08:01:31Z</time>
      </trkpt>
      <trkpt lat="45.02794" lon="5.74775">
        <ele>1416</ele>
        <time>2021-05-29T08:01:32Z</time>
      </trkpt>
      <trkpt lat="45.02796" lon="5.74774">
        <ele>1415.6</ele>
        <time>2021-05-29T08:01:33Z</time>
      </trkpt>
      <trkpt lat="45.02797" lon="5.74774">
        <ele>1415.6</ele>
        <time>2021-05-29T08:01:34Z</time>
      </trkpt>
      <trkpt lat="45.02799" lon="5.74774">
        <ele>1415</ele>
        <time>2021-05-29T08:01:35Z</time>
      </trkpt>
      <trkpt lat="45.02801" lon="5.74773">
        <ele>1414</ele>
        <time>2021-05-29T08:01:36Z</time>
      </trkpt>
      <trkpt lat="45.02803" lon="5.74773">
        <ele>1414.2</ele>
        <time>2021-05-29T08:01:37Z</time>
      </trkpt>
      <trkpt lat="45.02805" lon="5.74772">
        <ele>1413.8</ele>
        <time>2021-05-29T08:01:38Z</time>
      </trkpt>
      <trkpt lat="45.02807" lon="5.74772">
        <ele>1413.6</ele>
        <time>2021-05-29T08:01:39Z</time>
      </trkpt>
      <trkpt lat="45.02808" lon="5.74771">
        <ele>1413.2</ele>
        <time>2021-05-29T08:01:40Z</time>
      </trkpt>
      <trkpt lat="45.0281" lon="5.7477">
        <ele>1412.6</ele>
        <time>2021-05-29T08:01:41Z</time>
      </trkpt>
      <trkpt lat="45.02812" lon="5.74769">
        <ele>1412.2</ele>
        <time>2021-05-29T08:01:42Z</time>
      </trkpt>
      <trkpt lat="45.02814" lon="5.74768">
        <ele>1411.8</ele>
        <time>2021-05-29T08:01:43Z</time>
      </trkpt>
      <trkpt lat="45.02815" lon="5.74768">
        <ele>1411.8</ele>
        <time>2021-05-29T08:01:44Z</time>
      </trkpt>
      <trkpt lat="45.02817" lon="5.74767">
        <ele>1411</ele>
        <time>2021-05-29T08:01:45Z</time>
      </trkpt>
      <trkpt lat="45.02824" lon="5.74767">
        <ele>1410.8</ele>
        <time>2021-05-29T08:01:46Z</time>
      </trkpt>
      <trkpt lat="45.02831" lon="5.74767">
        <ele>1410</ele>
        <time>2021-05-29T08:01:47Z</time>
      </trkpt>
      <trkpt lat="45.02836" lon="5.74767">
        <ele>1409.2</ele>
        <time>2021-05-29T08:01:48Z</time>
      </trkpt>
      <trkpt lat="45.02838" lon="5.74768">
        <ele>1409.6</ele>
        <time>2021-05-29T08:01:49Z</time>
      </trkpt>
      <trkpt lat="45.02841" lon="5.74768">
        <ele>1409.4</ele>
        <time>2021-05-29T08:01:50Z</time>
      </trkpt>
      <trkpt lat="45.02844" lon="5.74768">
        <ele>1409.4</ele>
        <time>2021-05-29T08:01:51Z</time>
      </trkpt>
      <trkpt lat="45.02846" lon="5.74769">
        <ele>1409</ele>
        <time>2021-05-29T08:01:52Z</time>
      </trkpt>
      <trkpt lat="45.02848" lon="5.74769">
        <ele>1408.8</ele>
        <time>2021-05-29T08:01:53Z</time>
      </trkpt>
      <trkpt lat="45.0285" lon="5.74769">
        <ele>1408.4</ele>
        <time>2021-05-29T08:01:54Z</time>
      </trkpt>
      <trkpt lat="45.02852" lon="5.74769">
        <ele>1407.8</ele>
        <time>2021-05-29T08:01:55Z</time>
      </trkpt>
      <trkpt lat="45.02854" lon="5.74768">
        <ele>1408</ele>
        <time>2021-05-29T08:01:56Z</time>
      </trkpt>
      <trkpt lat="45.02856" lon="5.74768">
        <ele>1407.8</ele>
        <time>2021-05-29T08:01:57Z</time>
      </trkpt>
      <trkpt lat="45.02859" lon="5.74767">
        <ele>1407.6</ele>
        <time>2021-05-29T08:01:58Z</time>
      </trkpt>
      <trkpt lat="45.02861" lon="5.74767">
        <ele>1407</ele>
        <time>2021-05-29T08:01:59Z</time>
      </trkpt>
      <trkpt lat="45.02863" lon="5.74766">
        <ele>1406.2</ele>
        <time>2021-05-29T08:02:00Z</time>
      </trkpt>
      <trkpt lat="45.02865" lon="5.74765">
        <ele>1406.2</ele>
        <time>2021-05-29T08:02:01Z</time>
      </trkpt>
      <trkpt lat="45.02868" lon="5.74765">
        <ele>1405.8</ele>
        <time>2021-05-29T08:02:02Z</time>
      </trkpt>
      <trkpt lat="45.02868" lon="5.74765">
        <ele>1405.8</ele>
        <time>2021-05-29T08:02:03Z</time>
      </trkpt>
      <trkpt lat="45.02868" lon="5.74765">
        <ele>1405.2</ele>
        <time>2021-05-29T08:02:04Z</time>
      </trkpt>
      <trkpt lat="45.02868" lon="5.74765">
        <ele>1404.4</ele>
        <time>2021-05-29T08:02:05Z</time>
      </trkpt>
      <trkpt lat="45.0287" lon="5.74763">
        <ele>1404.2</ele>
        <time>2021-05-29T08:02:06Z</time>
      </trkpt>
      <trkpt lat="45.02872" lon="5.74762">
        <ele>1403.6</ele>
        <time>2021-05-29T08:02:07Z</time>
      </trkpt>
      <trkpt lat="45.02874" lon="5.74761">
        <ele>1403.8</ele>
        <time>2021-05-29T08:02:08Z</time>
      </trkpt>
      <trkpt lat="45.02876" lon="5.74759">
        <ele>1403.2</ele>
        <time>2021-05-29T08:02:09Z</time>
      </trkpt>
      <trkpt lat="45.0288" lon="5.74758">
        <ele>1402.4</ele>
        <time>2021-05-29T08:02:10Z</time>
      </trkpt>
      <trkpt lat="45.02884" lon="5.74756">
        <ele>1401.6</ele>
        <time>2021-05-29T08:02:11Z</time>
      </trkpt>
      <trkpt lat="45.02887" lon="5.74755">
        <ele>1401.2</ele>
        <time>2021-05-29T08:02:12Z</time>
      </trkpt>
      <trkpt lat="45.02891" lon="5.74753">
        <ele>1401.2</ele>
        <time>2021-05-29T08:02:13Z</time>
      </trkpt>
      <trkpt lat="45.02896" lon="5.74752">
        <ele>1400.8</ele>
        <time>2021-05-29T08:02:14Z</time>
      </trkpt>
      <trkpt lat="45.02897" lon="5.74752">
        <ele>1400.4</ele>
        <time>2021-05-29T08:02:15Z</time>
      </trkpt>
      <trkpt lat="45.02899" lon="5.74752">
        <ele>1399.8</ele>
        <time>2021-05-29T08:02:16Z</time>
      </trkpt>
      <trkpt lat="45.02901" lon="5.74751">
        <ele>1399</ele>
        <time>2021-05-29T08:02:17Z</time>
      </trkpt>
      <trkpt lat="45.02907" lon="5.7475">
        <ele>1399.2</ele>
        <time>2021-05-29T08:02:18Z</time>
      </trkpt>
      <trkpt lat="45.02907" lon="5.7475">
        <ele>1398.8</ele>
        <time>2021-05-29T08:02:19Z</time>
      </trkpt>
      <trkpt lat="45.02907" lon="5.7475">
        <ele>1398.8</ele>
        <time>2021-05-29T08:02:20Z</time>
      </trkpt>
      <trkpt lat="45.02909" lon="5.7475">
        <ele>1398.2</ele>
        <time>2021-05-29T08:02:21Z</time>
      </trkpt>
      <trkpt lat="45.02912" lon="5.74751">
        <ele>1397.4</ele>
        <time>2021-05-29T08:02:22Z</time>
      </trkpt>
      <trkpt lat="45.02914" lon="5.74751">
        <ele>1397.2</ele>
        <time>2021-05-29T08:02:23Z</time>
      </trkpt>
      <trkpt lat="45.02917" lon="5.74751">
        <ele>1397</ele>
        <time>2021-05-29T08:02:24Z</time>
      </trkpt>
      <trkpt lat="45.02921" lon="5.7475">
        <ele>1397.2</ele>
        <time>2021-05-29T08:02:25Z</time>
      </trkpt>
      <trkpt lat="45.02925" lon="5.7475">
        <ele>1396.8</ele>
        <time>2021-05-29T08:02:26Z</time>
      </trkpt>
      <trkpt lat="45.02929" lon="5.74749">
        <ele>1396.2</ele>
        <time>2021-05-29T08:02:27Z</time>
      </trkpt>
      <trkpt lat="45.02933" lon="5.74748">
        <ele>1395.8</ele>
        <time>2021-05-29T08:02:28Z</time>
      </trkpt>
      <trkpt lat="45.02938" lon="5.74746">
        <ele>1395.4</ele>
        <time>2021-05-29T08:02:29Z</time>
      </trkpt>
      <trkpt lat="45.02939" lon="5.74746">
        <ele>1395.6</ele>
        <time>2021-05-29T08:02:30Z</time>
      </trkpt>
      <trkpt lat="45.0294" lon="5.74746">
        <ele>1395.2</ele>
        <time>2021-05-29T08:02:31Z</time>
      </trkpt>
      <trkpt lat="45.02941" lon="5.74745">
        <ele>1395</ele>
        <time>2021-05-29T08:02:32Z</time>
      </trkpt>
      <trkpt lat="45.02942" lon="5.74745">
        <ele>1394.4</ele>
        <time>2021-05-29T08:02:33Z</time>
      </trkpt>
      <trkpt lat="45.02946" lon="5.74744">
        <ele>1393.8</ele>
        <time>2021-05-29T08:02:34Z</time>
      </trkpt>
      <trkpt lat="45.0295" lon="5.74743">
        <ele>1393.8</ele>
        <time>2021-05-29T08:02:35Z</time>
      </trkpt>
      <trkpt lat="45.02954" lon="5.74742">
        <ele>1393.6</ele>
        <time>2021-05-29T08:02:36Z</time>
      </trkpt>
      <trkpt lat="45.02959" lon="5.74741">
        <ele>1393.6</ele>
        <time>2021-05-29T08:02:37Z</time>
      </trkpt>
      <trkpt lat="45.02959" lon="5.74741">
        <ele>1393.2</ele>
        <time>2021-05-29T08:02:38Z</time>
      </trkpt>
      <trkpt lat="45.02959" lon="5.74741">
        <ele>1393</ele>
        <time>2021-05-29T08:02:39Z</time>
      </trkpt>
      <trkpt lat="45.02959" lon="5.74741">
        <ele>1392.2</ele>
        <time>2021-05-29T08:02:40Z</time>
      </trkpt>
      <trkpt lat="45.02961" lon="5.7474">
        <ele>1392</ele>
        <time>2021-05-29T08:02:41Z</time>
      </trkpt>
      <trkpt lat="45.02964" lon="5.74739">
        <ele>1392.2</ele>
        <time>2021-05-29T08:02:42Z</time>
      </trkpt>
      <trkpt lat="45.02967" lon="5.74738">
        <ele>1392</ele>
        <time>2021-05-29T08:02:43Z</time>
      </trkpt>
      <trkpt lat="45.02969" lon="5.74738">
        <ele>1392</ele>
        <time>2021-05-29T08:02:44Z</time>
      </trkpt>
      <trkpt lat="45.02972" lon="5.74737">
        <ele>1391.6</ele>
        <time>2021-05-29T08:02:45Z</time>
      </trkpt>
      <trkpt lat="45.02975" lon="5.74736">
        <ele>1391.2</ele>
        <time>2021-05-29T08:02:46Z</time>
      </trkpt>
      <trkpt lat="45.02979" lon="5.74736">
        <ele>1391</ele>
        <time>2021-05-29T08:02:47Z</time>
      </trkpt>
      <trkpt lat="45.02982" lon="5.74735">
        <ele>1390.8</ele>
        <time>2021-05-29T08:02:48Z</time>
      </trkpt>
      <trkpt lat="45.02985" lon="5.74734">
        <ele>1390.8</ele>
        <time>2021-05-29T08:02:49Z</time>
      </trkpt>
      <trkpt lat="45.0299" lon="5.74733">
        <ele>1390.4</ele>
        <time>2021-05-29T08:02:50Z</time>
      </trkpt>
      <trkpt lat="45.0299" lon="5.74733">
        <ele>1390.2</ele>
        <time>2021-05-29T08:02:51Z</time>
      </trkpt>
      <trkpt lat="45.0299" lon="5.74733">
        <ele>1389.8</ele>
        <time>2021-05-29T08:02:52Z</time>
      </trkpt>
      <trkpt lat="45.0299" lon="5.74733">
        <ele>1389.4</ele>
        <time>2021-05-29T08:02:53Z</time>
      </trkpt>
      <trkpt lat="45.02992" lon="5.74733">
        <ele>1389.4</ele>
        <time>2021-05-29T08:02:54Z</time>
      </trkpt>
      <trkpt lat="45.02994" lon="5.74733">
        <ele>1389.2</ele>
        <time>2021-05-29T08:02:55Z</time>
      </trkpt>
      <trkpt lat="45.02996" lon="5.74732">
        <ele>1389.4</ele>
        <time>2021-05-29T08:02:56Z</time>
      </trkpt>
      <trkpt lat="45.02998" lon="5.74732">
        <ele>1388.8</ele>
        <time>2021-05-29T08:02:57Z</time>
      </trkpt>
      <trkpt lat="45.03" lon="5.74731">
        <ele>1389</ele>
        <time>2021-05-29T08:02:58Z</time>
      </trkpt>
      <trkpt lat="45.03008" lon="5.74729">
        <ele>1388.6</ele>
        <time>2021-05-29T08:02:59Z</time>
      </trkpt>
      <trkpt lat="45.03011" lon="5.74728">
        <ele>1388.2</ele>
        <time>2021-05-29T08:03:00Z</time>
      </trkpt>
      <trkpt lat="45.03013" lon="5.74728">
        <ele>1388.4</ele>
        <time>2021-05-29T08:03:01Z</time>
      </trkpt>
      <trkpt lat="45.03015" lon="5.74727">
        <ele>1388.2</ele>
        <time>2021-05-29T08:03:02Z</time>
      </trkpt>
      <trkpt lat="45.03017" lon="5.74726">
        <ele>1388.4</ele>
        <time>2021-05-29T08:03:03Z</time>
      </trkpt>
      <trkpt lat="45.0302" lon="5.74725">
        <ele>1388.2</ele>
        <time>2021-05-29T08:03:04Z</time>
      </trkpt>
      <trkpt lat="45.03022" lon="5.74724">
        <ele>1388.2</ele>
        <time>2021-05-29T08:03:05Z</time>
      </trkpt>
      <trkpt lat="45.03024" lon="5.74723">
        <ele>1387.8</ele>
        <time>2021-05-29T08:03:06Z</time>
      </trkpt>
      <trkpt lat="45.0303" lon="5.74721">
        <ele>1387.4</ele>
        <time>2021-05-29T08:03:07Z</time>
      </trkpt>
      <trkpt lat="45.03034" lon="5.7472">
        <ele>1387</ele>
        <time>2021-05-29T08:03:08Z</time>
      </trkpt>
      <trkpt lat="45.03036" lon="5.74719">
        <ele>1386.6</ele>
        <time>2021-05-29T08:03:09Z</time>
      </trkpt>
      <trkpt lat="45.03038" lon="5.74718">
        <ele>1386.8</ele>
        <time>2021-05-29T08:03:10Z</time>
      </trkpt>
      <trkpt lat="45.03038" lon="5.74718">
        <ele>1386.2</ele>
        <time>2021-05-29T08:03:11Z</time>
      </trkpt>
      <trkpt lat="45.03038" lon="5.74718">
        <ele>1386</ele>
        <time>2021-05-29T08:03:12Z</time>
      </trkpt>
      <trkpt lat="45.03038" lon="5.74718">
        <ele>1385.2</ele>
        <time>2021-05-29T08:03:13Z</time>
      </trkpt>
      <trkpt lat="45.0304" lon="5.74718">
        <ele>1384.8</ele>
        <time>2021-05-29T08:03:14Z</time>
      </trkpt>
      <trkpt lat="45.03043" lon="5.74717">
        <ele>1385</ele>
        <time>2021-05-29T08:03:15Z</time>
      </trkpt>
      <trkpt lat="45.03045" lon="5.74716">
        <ele>1384.6</ele>
        <time>2021-05-29T08:03:16Z</time>
      </trkpt>
      <trkpt lat="45.03047" lon="5.74715">
        <ele>1384.4</ele>
        <time>2021-05-29T08:03:17Z</time>
      </trkpt>
      <trkpt lat="45.03051" lon="5.74715">
        <ele>1383.8</ele>
        <time>2021-05-29T08:03:18Z</time>
      </trkpt>
      <trkpt lat="45.03054" lon="5.74714">
        <ele>1383.2</ele>
        <time>2021-05-29T08:03:19Z</time>
      </trkpt>
      <trkpt lat="45.03057" lon="5.74713">
        <ele>1383.4</ele>
        <time>2021-05-29T08:03:20Z</time>
      </trkpt>
      <trkpt lat="45.0306" lon="5.74713">
        <ele>1383</ele>
        <time>2021-05-29T08:03:21Z</time>
      </trkpt>
      <trkpt lat="45.03064" lon="5.74712">
        <ele>1382.6</ele>
        <time>2021-05-29T08:03:22Z</time>
      </trkpt>
      <trkpt lat="45.03069" lon="5.74711">
        <ele>1382.6</ele>
        <time>2021-05-29T08:03:23Z</time>
      </trkpt>
      <trkpt lat="45.0307" lon="5.7471">
        <ele>1382.2</ele>
        <time>2021-05-29T08:03:24Z</time>
      </trkpt>
      <trkpt lat="45.03072" lon="5.7471">
        <ele>1382</ele>
        <time>2021-05-29T08:03:25Z</time>
      </trkpt>
      <trkpt lat="45.03073" lon="5.74709">
        <ele>1381.4</ele>
        <time>2021-05-29T08:03:26Z</time>
      </trkpt>
      <trkpt lat="45.03074" lon="5.74709">
        <ele>1381</ele>
        <time>2021-05-29T08:03:27Z</time>
      </trkpt>
      <trkpt lat="45.03076" lon="5.74708">
        <ele>1380.8</ele>
        <time>2021-05-29T08:03:28Z</time>
      </trkpt>
      <trkpt lat="45.03077" lon="5.74708">
        <ele>1380.2</ele>
        <time>2021-05-29T08:03:29Z</time>
      </trkpt>
      <trkpt lat="45.03078" lon="5.74707">
        <ele>1380.2</ele>
        <time>2021-05-29T08:03:30Z</time>
      </trkpt>
      <trkpt lat="45.0308" lon="5.74707">
        <ele>1379.8</ele>
        <time>2021-05-29T08:03:31Z</time>
      </trkpt>
      <trkpt lat="45.03081" lon="5.74706">
        <ele>1379.4</ele>
        <time>2021-05-29T08:03:32Z</time>
      </trkpt>
      <trkpt lat="45.03082" lon="5.74706">
        <ele>1379.4</ele>
        <time>2021-05-29T08:03:33Z</time>
      </trkpt>
      <trkpt lat="45.03084" lon="5.74705">
        <ele>1379</ele>
        <time>2021-05-29T08:03:34Z</time>
      </trkpt>
      <trkpt lat="45.03085" lon="5.74704">
        <ele>1378.8</ele>
        <time>2021-05-29T08:03:35Z</time>
      </trkpt>
      <trkpt lat="45.03087" lon="5.74704">
        <ele>1378.8</ele>
        <time>2021-05-29T08:03:36Z</time>
      </trkpt>
      <trkpt lat="45.03088" lon="5.74703">
        <ele>1378.6</ele>
        <time>2021-05-29T08:03:37Z</time>
      </trkpt>
      <trkpt lat="45.03089" lon="5.74703">
        <ele>1378.6</ele>
        <time>2021-05-29T08:03:38Z</time>
      </trkpt>
      <trkpt lat="45.03091" lon="5.74702">
        <ele>1378.6</ele>
        <time>2021-05-29T08:03:39Z</time>
      </trkpt>
      <trkpt lat="45.03092" lon="5.74702">
        <ele>1378.2</ele>
        <time>2021-05-29T08:03:40Z</time>
      </trkpt>
      <trkpt lat="45.03093" lon="5.74701">
        <ele>1377.8</ele>
        <time>2021-05-29T08:03:41Z</time>
      </trkpt>
      <trkpt lat="45.03095" lon="5.74701">
        <ele>1377.8</ele>
        <time>2021-05-29T08:03:42Z</time>
      </trkpt>
      <trkpt lat="45.03096" lon="5.747">
        <ele>1377.8</ele>
        <time>2021-05-29T08:03:43Z</time>
      </trkpt>
      <trkpt lat="45.03097" lon="5.747">
        <ele>1377.6</ele>
        <time>2021-05-29T08:03:44Z</time>
      </trkpt>
      <trkpt lat="45.03097" lon="5.747">
        <ele>1377</ele>
        <time>2021-05-29T08:03:45Z</time>
      </trkpt>
      <trkpt lat="45.03097" lon="5.747">
        <ele>1376.4</ele>
        <time>2021-05-29T08:03:46Z</time>
      </trkpt>
      <trkpt lat="45.03097" lon="5.747">
        <ele>1376.6</ele>
        <time>2021-05-29T08:03:47Z</time>
      </trkpt>
      <trkpt lat="45.031" lon="5.74699">
        <ele>1376</ele>
        <time>2021-05-29T08:03:48Z</time>
      </trkpt>
      <trkpt lat="45.03102" lon="5.74698">
        <ele>1375.8</ele>
        <time>2021-05-29T08:03:49Z</time>
      </trkpt>
      <trkpt lat="45.03105" lon="5.74697">
        <ele>1375</ele>
        <time>2021-05-29T08:03:50Z</time>
      </trkpt>
      <trkpt lat="45.03107" lon="5.74696">
        <ele>1374.6</ele>
        <time>2021-05-29T08:03:51Z</time>
      </trkpt>
      <trkpt lat="45.03117" lon="5.74692">
        <ele>1374.4</ele>
        <time>2021-05-29T08:03:52Z</time>
      </trkpt>
      <trkpt lat="45.03118" lon="5.74692">
        <ele>1374</ele>
        <time>2021-05-29T08:03:53Z</time>
      </trkpt>
      <trkpt lat="45.0312" lon="5.74691">
        <ele>1374</ele>
        <time>2021-05-29T08:03:54Z</time>
      </trkpt>
      <trkpt lat="45.03121" lon="5.74691">
        <ele>1373.6</ele>
        <time>2021-05-29T08:03:55Z</time>
      </trkpt>
      <trkpt lat="45.03123" lon="5.74691">
        <ele>1373.4</ele>
        <time>2021-05-29T08:03:56Z</time>
      </trkpt>
      <trkpt lat="45.03128" lon="5.7469">
        <ele>1372.8</ele>
        <time>2021-05-29T08:03:57Z</time>
      </trkpt>
      <trkpt lat="45.03128" lon="5.7469">
        <ele>1372.2</ele>
        <time>2021-05-29T08:03:58Z</time>
      </trkpt>
      <trkpt lat="45.03128" lon="5.7469">
        <ele>1372</ele>
        <time>2021-05-29T08:03:59Z</time>
      </trkpt>
      <trkpt lat="45.03131" lon="5.7469">
        <ele>1371.6</ele>
        <time>2021-05-29T08:04:00Z</time>
      </trkpt>
      <trkpt lat="45.03134" lon="5.7469">
        <ele>1371.8</ele>
        <time>2021-05-29T08:04:01Z</time>
      </trkpt>
      <trkpt lat="45.03136" lon="5.7469">
        <ele>1371.6</ele>
        <time>2021-05-29T08:04:02Z</time>
      </trkpt>
      <trkpt lat="45.03139" lon="5.74691">
        <ele>1371.6</ele>
        <time>2021-05-29T08:04:03Z</time>
      </trkpt>
      <trkpt lat="45.03144" lon="5.7469">
        <ele>1371.2</ele>
        <time>2021-05-29T08:04:04Z</time>
      </trkpt>
      <trkpt lat="45.03148" lon="5.7469">
        <ele>1371.2</ele>
        <time>2021-05-29T08:04:05Z</time>
      </trkpt>
      <trkpt lat="45.03152" lon="5.74689">
        <ele>1371</ele>
        <time>2021-05-29T08:04:06Z</time>
      </trkpt>
      <trkpt lat="45.03157" lon="5.74688">
        <ele>1370.6</ele>
        <time>2021-05-29T08:04:07Z</time>
      </trkpt>
      <trkpt lat="45.03159" lon="5.74688">
        <ele>1370</ele>
        <time>2021-05-29T08:04:08Z</time>
      </trkpt>
      <trkpt lat="45.03161" lon="5.74687">
        <ele>1369</ele>
        <time>2021-05-29T08:04:09Z</time>
      </trkpt>
      <trkpt lat="45.03163" lon="5.74686">
        <ele>1368.8</ele>
        <time>2021-05-29T08:04:10Z</time>
      </trkpt>
      <trkpt lat="45.03165" lon="5.74685">
        <ele>1368.8</ele>
        <time>2021-05-29T08:04:11Z</time>
      </trkpt>
      <trkpt lat="45.03172" lon="5.74682">
        <ele>1367.8</ele>
        <time>2021-05-29T08:04:12Z</time>
      </trkpt>
      <trkpt lat="45.03174" lon="5.74681">
        <ele>1367.6</ele>
        <time>2021-05-29T08:04:13Z</time>
      </trkpt>
      <trkpt lat="45.03179" lon="5.7468">
        <ele>1366.8</ele>
        <time>2021-05-29T08:04:14Z</time>
      </trkpt>
      <trkpt lat="45.0318" lon="5.74679">
        <ele>1365.6</ele>
        <time>2021-05-29T08:04:15Z</time>
      </trkpt>
      <trkpt lat="45.0318" lon="5.74679">
        <ele>1365</ele>
        <time>2021-05-29T08:04:16Z</time>
      </trkpt>
      <trkpt lat="45.03181" lon="5.74679">
        <ele>1364.4</ele>
        <time>2021-05-29T08:04:17Z</time>
      </trkpt>
      <trkpt lat="45.03182" lon="5.74678">
        <ele>1363.6</ele>
        <time>2021-05-29T08:04:18Z</time>
      </trkpt>
      <trkpt lat="45.03183" lon="5.74678">
        <ele>1363.2</ele>
        <time>2021-05-29T08:04:19Z</time>
      </trkpt>
      <trkpt lat="45.03183" lon="5.74678">
        <ele>1363.2</ele>
        <time>2021-05-29T08:04:20Z</time>
      </trkpt>
      <trkpt lat="45.03184" lon="5.74677">
        <ele>1363.2</ele>
        <time>2021-05-29T08:04:21Z</time>
      </trkpt>
      <trkpt lat="45.03185" lon="5.74677">
        <ele>1363</ele>
        <time>2021-05-29T08:04:22Z</time>
      </trkpt>
      <trkpt lat="45.03185" lon="5.74677">
        <ele>1362.8</ele>
        <time>2021-05-29T08:04:23Z</time>
      </trkpt>
      <trkpt lat="45.03186" lon="5.74676">
        <ele>1362.8</ele>
        <time>2021-05-29T08:04:24Z</time>
      </trkpt>
      <trkpt lat="45.03187" lon="5.74676">
        <ele>1362.6</ele>
        <time>2021-05-29T08:04:25Z</time>
      </trkpt>
      <trkpt lat="45.03188" lon="5.74676">
        <ele>1362.8</ele>
        <time>2021-05-29T08:04:26Z</time>
      </trkpt>
      <trkpt lat="45.03188" lon="5.74675">
        <ele>1362.8</ele>
        <time>2021-05-29T08:04:27Z</time>
      </trkpt>
      <trkpt lat="45.03189" lon="5.74675">
        <ele>1362.6</ele>
        <time>2021-05-29T08:04:28Z</time>
      </trkpt>
      <trkpt lat="45.0319" lon="5.74675">
        <ele>1362.6</ele>
        <time>2021-05-29T08:04:29Z</time>
      </trkpt>
      <trkpt lat="45.0319" lon="5.74674">
        <ele>1362.6</ele>
        <time>2021-05-29T08:04:30Z</time>
      </trkpt>
      <trkpt lat="45.03191" lon="5.74674">
        <ele>1362.6</ele>
        <time>2021-05-29T08:04:31Z</time>
      </trkpt>
      <trkpt lat="45.03192" lon="5.74674">
        <ele>1362.6</ele>
        <time>2021-05-29T08:04:32Z</time>
      </trkpt>
      <trkpt lat="45.03193" lon="5.74674">
        <ele>1362.6</ele>
        <time>2021-05-29T08:04:33Z</time>
      </trkpt>
      <trkpt lat="45.03193" lon="5.74673">
        <ele>1362.6</ele>
        <time>2021-05-29T08:04:34Z</time>
      </trkpt>
      <trkpt lat="45.03194" lon="5.74673">
        <ele>1362.6</ele>
        <time>2021-05-29T08:04:35Z</time>
      </trkpt>
      <trkpt lat="45.03195" lon="5.74673">
        <ele>1362.4</ele>
        <time>2021-05-29T08:04:36Z</time>
      </trkpt>
      <trkpt lat="45.03195" lon="5.74672">
        <ele>1362.6</ele>
        <time>2021-05-29T08:04:37Z</time>
      </trkpt>
      <trkpt lat="45.03196" lon="5.74672">
        <ele>1362.6</ele>
        <time>2021-05-29T08:04:38Z</time>
      </trkpt>
      <trkpt lat="45.03197" lon="5.74672">
        <ele>1362.6</ele>
        <time>2021-05-29T08:04:39Z</time>
      </trkpt>
      <trkpt lat="45.03198" lon="5.74671">
        <ele>1362.6</ele>
        <time>2021-05-29T08:04:40Z</time>
      </trkpt>
      <trkpt lat="45.03198" lon="5.74671">
        <ele>1362.6</ele>
        <time>2021-05-29T08:04:41Z</time>
      </trkpt>
      <trkpt lat="45.03199" lon="5.74671">
        <ele>1362.4</ele>
        <time>2021-05-29T08:04:42Z</time>
      </trkpt>
      <trkpt lat="45.032" lon="5.7467">
        <ele>1362.4</ele>
        <time>2021-05-29T08:04:43Z</time>
      </trkpt>
      <trkpt lat="45.032" lon="5.7467">
        <ele>1362.2</ele>
        <time>2021-05-29T08:04:44Z</time>
      </trkpt>
      <trkpt lat="45.03201" lon="5.7467">
        <ele>1361.8</ele>
        <time>2021-05-29T08:04:45Z</time>
      </trkpt>
      <trkpt lat="45.03207" lon="5.74664">
        <ele>1361.4</ele>
        <time>2021-05-29T08:04:46Z</time>
      </trkpt>
      <trkpt lat="45.03212" lon="5.74659">
        <ele>1361</ele>
        <time>2021-05-29T08:04:47Z</time>
      </trkpt>
      <trkpt lat="45.03218" lon="5.74654">
        <ele>1360.4</ele>
        <time>2021-05-29T08:04:48Z</time>
      </trkpt>
      <trkpt lat="45.03223" lon="5.74649">
        <ele>1359.8</ele>
        <time>2021-05-29T08:04:49Z</time>
      </trkpt>
      <trkpt lat="45.03223" lon="5.74649">
        <ele>1359.4</ele>
        <time>2021-05-29T08:04:50Z</time>
      </trkpt>
      <trkpt lat="45.03224" lon="5.74647">
        <ele>1359</ele>
        <time>2021-05-29T08:04:51Z</time>
      </trkpt>
      <trkpt lat="45.03225" lon="5.74646">
        <ele>1358.8</ele>
        <time>2021-05-29T08:04:52Z</time>
      </trkpt>
      <trkpt lat="45.03226" lon="5.74644">
        <ele>1358.6</ele>
        <time>2021-05-29T08:04:53Z</time>
      </trkpt>
      <trkpt lat="45.03227" lon="5.74642">
        <ele>1358.4</ele>
        <time>2021-05-29T08:04:54Z</time>
      </trkpt>
      <trkpt lat="45.03228" lon="5.74641">
        <ele>1357.8</ele>
        <time>2021-05-29T08:04:55Z</time>
      </trkpt>
      <trkpt lat="45.03229" lon="5.74639">
        <ele>1357.4</ele>
        <time>2021-05-29T08:04:56Z</time>
      </trkpt>
      <trkpt lat="45.0323" lon="5.74638">
        <ele>1357</ele>
        <time>2021-05-29T08:04:57Z</time>
      </trkpt>
      <trkpt lat="45.03231" lon="5.74637">
        <ele>1357</ele>
        <time>2021-05-29T08:04:58Z</time>
      </trkpt>
      <trkpt lat="45.03233" lon="5.74635">
        <ele>1356.8</ele>
        <time>2021-05-29T08:04:59Z</time>
      </trkpt>
      <trkpt lat="45.03234" lon="5.74634">
        <ele>1356.6</ele>
        <time>2021-05-29T08:05:00Z</time>
      </trkpt>
      <trkpt lat="45.03236" lon="5.74633">
        <ele>1356.2</ele>
        <time>2021-05-29T08:05:01Z</time>
      </trkpt>
      <trkpt lat="45.03238" lon="5.74632">
        <ele>1356.2</ele>
        <time>2021-05-29T08:05:02Z</time>
      </trkpt>
      <trkpt lat="45.03239" lon="5.74631">
        <ele>1355.8</ele>
        <time>2021-05-29T08:05:03Z</time>
      </trkpt>
      <trkpt lat="45.03241" lon="5.7463">
        <ele>1355.8</ele>
        <time>2021-05-29T08:05:04Z</time>
      </trkpt>
      <trkpt lat="45.03243" lon="5.74629">
        <ele>1355.8</ele>
        <time>2021-05-29T08:05:05Z</time>
      </trkpt>
      <trkpt lat="45.03244" lon="5.74628">
        <ele>1355.4</ele>
        <time>2021-05-29T08:05:06Z</time>
      </trkpt>
      <trkpt lat="45.03246" lon="5.74626">
        <ele>1355</ele>
        <time>2021-05-29T08:05:07Z</time>
      </trkpt>
      <trkpt lat="45.03248" lon="5.74625">
        <ele>1354.6</ele>
        <time>2021-05-29T08:05:08Z</time>
      </trkpt>
      <trkpt lat="45.0325" lon="5.74624">
        <ele>1353.8</ele>
        <time>2021-05-29T08:05:09Z</time>
      </trkpt>
      <trkpt lat="45.03252" lon="5.74623">
        <ele>1353.2</ele>
        <time>2021-05-29T08:05:10Z</time>
      </trkpt>
      <trkpt lat="45.03254" lon="5.74622">
        <ele>1353.2</ele>
        <time>2021-05-29T08:05:11Z</time>
      </trkpt>
      <trkpt lat="45.03256" lon="5.74621">
        <ele>1352.6</ele>
        <time>2021-05-29T08:05:12Z</time>
      </trkpt>
      <trkpt lat="45.03258" lon="5.7462">
        <ele>1352</ele>
        <time>2021-05-29T08:05:13Z</time>
      </trkpt>
      <trkpt lat="45.0326" lon="5.7462">
        <ele>1351.2</ele>
        <time>2021-05-29T08:05:14Z</time>
      </trkpt>
      <trkpt lat="45.03261" lon="5.7462">
        <ele>1351</ele>
        <time>2021-05-29T08:05:15Z</time>
      </trkpt>
      <trkpt lat="45.03263" lon="5.74621">
        <ele>1350.8</ele>
        <time>2021-05-29T08:05:16Z</time>
      </trkpt>
      <trkpt lat="45.03265" lon="5.74621">
        <ele>1350.2</ele>
        <time>2021-05-29T08:05:17Z</time>
      </trkpt>
      <trkpt lat="45.03267" lon="5.74622">
        <ele>1349.8</ele>
        <time>2021-05-29T08:05:18Z</time>
      </trkpt>
      <trkpt lat="45.03269" lon="5.74622">
        <ele>1349.2</ele>
        <time>2021-05-29T08:05:19Z</time>
      </trkpt>
      <trkpt lat="45.0327" lon="5.74623">
        <ele>1348.6</ele>
        <time>2021-05-29T08:05:20Z</time>
      </trkpt>
      <trkpt lat="45.03271" lon="5.74624">
        <ele>1348.6</ele>
        <time>2021-05-29T08:05:21Z</time>
      </trkpt>
      <trkpt lat="45.03272" lon="5.74625">
        <ele>1348.2</ele>
        <time>2021-05-29T08:05:22Z</time>
      </trkpt>
      <trkpt lat="45.03274" lon="5.74626">
        <ele>1347.8</ele>
        <time>2021-05-29T08:05:23Z</time>
      </trkpt>
      <trkpt lat="45.03275" lon="5.74626">
        <ele>1347.2</ele>
        <time>2021-05-29T08:05:24Z</time>
      </trkpt>
      <trkpt lat="45.03276" lon="5.74627">
        <ele>1346.6</ele>
        <time>2021-05-29T08:05:25Z</time>
      </trkpt>
      <trkpt lat="45.03277" lon="5.74628">
        <ele>1346.6</ele>
        <time>2021-05-29T08:05:26Z</time>
      </trkpt>
      <trkpt lat="45.03279" lon="5.74629">
        <ele>1346</ele>
        <time>2021-05-29T08:05:27Z</time>
      </trkpt>
      <trkpt lat="45.03281" lon="5.74629">
        <ele>1345.8</ele>
        <time>2021-05-29T08:05:28Z</time>
      </trkpt>
      <trkpt lat="45.03282" lon="5.74629">
        <ele>1345</ele>
        <time>2021-05-29T08:05:29Z</time>
      </trkpt>
      <trkpt lat="45.03284" lon="5.7463">
        <ele>1344.4</ele>
        <time>2021-05-29T08:05:30Z</time>
      </trkpt>
      <trkpt lat="45.03285" lon="5.7463">
        <ele>1344.4</ele>
        <time>2021-05-29T08:05:31Z</time>
      </trkpt>
      <trkpt lat="45.03287" lon="5.74631">
        <ele>1343.8</ele>
        <time>2021-05-29T08:05:32Z</time>
      </trkpt>
      <trkpt lat="45.03289" lon="5.74631">
        <ele>1343.4</ele>
        <time>2021-05-29T08:05:33Z</time>
      </trkpt>
      <trkpt lat="45.03291" lon="5.74631">
        <ele>1342.8</ele>
        <time>2021-05-29T08:05:34Z</time>
      </trkpt>
      <trkpt lat="45.03293" lon="5.74631">
        <ele>1342.4</ele>
        <time>2021-05-29T08:05:35Z</time>
      </trkpt>
      <trkpt lat="45.03295" lon="5.74631">
        <ele>1342.2</ele>
        <time>2021-05-29T08:05:36Z</time>
      </trkpt>
      <trkpt lat="45.03296" lon="5.74631">
        <ele>1341.6</ele>
        <time>2021-05-29T08:05:37Z</time>
      </trkpt>
      <trkpt lat="45.03299" lon="5.74631">
        <ele>1341.2</ele>
        <time>2021-05-29T08:05:38Z</time>
      </trkpt>
      <trkpt lat="45.03301" lon="5.74631">
        <ele>1340.8</ele>
        <time>2021-05-29T08:05:39Z</time>
      </trkpt>
      <trkpt lat="45.03303" lon="5.74631">
        <ele>1340.2</ele>
        <time>2021-05-29T08:05:40Z</time>
      </trkpt>
      <trkpt lat="45.03305" lon="5.74631">
        <ele>1340.2</ele>
        <time>2021-05-29T08:05:41Z</time>
      </trkpt>
      <trkpt lat="45.03307" lon="5.74631">
        <ele>1339.8</ele>
        <time>2021-05-29T08:05:42Z</time>
      </trkpt>
      <trkpt lat="45.03309" lon="5.74632">
        <ele>1339.2</ele>
        <time>2021-05-29T08:05:43Z</time>
      </trkpt>
      <trkpt lat="45.03311" lon="5.74632">
        <ele>1339.2</ele>
        <time>2021-05-29T08:05:44Z</time>
      </trkpt>
      <trkpt lat="45.03313" lon="5.74633">
        <ele>1338.6</ele>
        <time>2021-05-29T08:05:45Z</time>
      </trkpt>
      <trkpt lat="45.03315" lon="5.74634">
        <ele>1338.4</ele>
        <time>2021-05-29T08:05:46Z</time>
      </trkpt>
      <trkpt lat="45.03317" lon="5.74635">
        <ele>1337.6</ele>
        <time>2021-05-29T08:05:47Z</time>
      </trkpt>
      <trkpt lat="45.0332" lon="5.74636">
        <ele>1337.4</ele>
        <time>2021-05-29T08:05:48Z</time>
      </trkpt>
      <trkpt lat="45.03321" lon="5.74636">
        <ele>1336.6</ele>
        <time>2021-05-29T08:05:49Z</time>
      </trkpt>
      <trkpt lat="45.03323" lon="5.74636">
        <ele>1336</ele>
        <time>2021-05-29T08:05:50Z</time>
      </trkpt>
      <trkpt lat="45.03324" lon="5.74637">
        <ele>1335.8</ele>
        <time>2021-05-29T08:05:51Z</time>
      </trkpt>
      <trkpt lat="45.03325" lon="5.74637">
        <ele>1335.4</ele>
        <time>2021-05-29T08:05:52Z</time>
      </trkpt>
      <trkpt lat="45.03326" lon="5.74638">
        <ele>1335</ele>
        <time>2021-05-29T08:05:53Z</time>
      </trkpt>
      <trkpt lat="45.03327" lon="5.74638">
        <ele>1334</ele>
        <time>2021-05-29T08:05:54Z</time>
      </trkpt>
      <trkpt lat="45.03329" lon="5.74638">
        <ele>1333.4</ele>
        <time>2021-05-29T08:05:55Z</time>
      </trkpt>
      <trkpt lat="45.0333" lon="5.74639">
        <ele>1333.2</ele>
        <time>2021-05-29T08:05:56Z</time>
      </trkpt>
      <trkpt lat="45.03331" lon="5.74639">
        <ele>1332.6</ele>
        <time>2021-05-29T08:05:57Z</time>
      </trkpt>
      <trkpt lat="45.03332" lon="5.7464">
        <ele>1331.8</ele>
        <time>2021-05-29T08:05:58Z</time>
      </trkpt>
      <trkpt lat="45.03337" lon="5.74642">
        <ele>1331.4</ele>
        <time>2021-05-29T08:05:59Z</time>
      </trkpt>
      <trkpt lat="45.03337" lon="5.74642">
        <ele>1330.8</ele>
        <time>2021-05-29T08:06:01Z</time>
      </trkpt>
      <trkpt lat="45.03339" lon="5.74643">
        <ele>1330.2</ele>
        <time>2021-05-29T08:06:02Z</time>
      </trkpt>
      <trkpt lat="45.03341" lon="5.74644">
        <ele>1329.8</ele>
        <time>2021-05-29T08:06:03Z</time>
      </trkpt>
      <trkpt lat="45.03344" lon="5.74645">
        <ele>1329.4</ele>
        <time>2021-05-29T08:06:04Z</time>
      </trkpt>
      <trkpt lat="45.03346" lon="5.74646">
        <ele>1328.8</ele>
        <time>2021-05-29T08:06:05Z</time>
      </trkpt>
      <trkpt lat="45.03347" lon="5.74646">
        <ele>1328.4</ele>
        <time>2021-05-29T08:06:06Z</time>
      </trkpt>
      <trkpt lat="45.03348" lon="5.74646">
        <ele>1328</ele>
        <time>2021-05-29T08:06:07Z</time>
      </trkpt>
      <trkpt lat="45.0335" lon="5.74646">
        <ele>1327.8</ele>
        <time>2021-05-29T08:06:08Z</time>
      </trkpt>
      <trkpt lat="45.03351" lon="5.74646">
        <ele>1327.6</ele>
        <time>2021-05-29T08:06:09Z</time>
      </trkpt>
      <trkpt lat="45.03353" lon="5.74646">
        <ele>1327.2</ele>
        <time>2021-05-29T08:06:10Z</time>
      </trkpt>
      <trkpt lat="45.03354" lon="5.74646">
        <ele>1327</ele>
        <time>2021-05-29T08:06:11Z</time>
      </trkpt>
      <trkpt lat="45.03355" lon="5.74646">
        <ele>1326.8</ele>
        <time>2021-05-29T08:06:12Z</time>
      </trkpt>
      <trkpt lat="45.03357" lon="5.74649">
        <ele>1326.6</ele>
        <time>2021-05-29T08:06:13Z</time>
      </trkpt>
      <trkpt lat="45.03359" lon="5.74652">
        <ele>1326.4</ele>
        <time>2021-05-29T08:06:14Z</time>
      </trkpt>
      <trkpt lat="45.0336" lon="5.74654">
        <ele>1326.4</ele>
        <time>2021-05-29T08:06:15Z</time>
      </trkpt>
      <trkpt lat="45.03362" lon="5.74657">
        <ele>1326.4</ele>
        <time>2021-05-29T08:06:16Z</time>
      </trkpt>
      <trkpt lat="45.03364" lon="5.7466">
        <ele>1326.4</ele>
        <time>2021-05-29T08:06:17Z</time>
      </trkpt>
      <trkpt lat="45.03365" lon="5.74662">
        <ele>1326.4</ele>
        <time>2021-05-29T08:06:18Z</time>
      </trkpt>
      <trkpt lat="45.03366" lon="5.74664">
        <ele>1326.4</ele>
        <time>2021-05-29T08:06:19Z</time>
      </trkpt>
      <trkpt lat="45.03366" lon="5.74666">
        <ele>1326.4</ele>
        <time>2021-05-29T08:06:20Z</time>
      </trkpt>
      <trkpt lat="45.03366" lon="5.74667">
        <ele>1326.4</ele>
        <time>2021-05-29T08:06:21Z</time>
      </trkpt>
      <trkpt lat="45.03366" lon="5.74669">
        <ele>1326.4</ele>
        <time>2021-05-29T08:06:22Z</time>
      </trkpt>
      <trkpt lat="45.03366" lon="5.74671">
        <ele>1326.6</ele>
        <time>2021-05-29T08:06:23Z</time>
      </trkpt>
      <trkpt lat="45.03366" lon="5.74672">
        <ele>1326.6</ele>
        <time>2021-05-29T08:06:24Z</time>
      </trkpt>
      <trkpt lat="45.03367" lon="5.74674">
        <ele>1326.4</ele>
        <time>2021-05-29T08:06:25Z</time>
      </trkpt>
      <trkpt lat="45.03367" lon="5.74676">
        <ele>1326.6</ele>
        <time>2021-05-29T08:06:26Z</time>
      </trkpt>
      <trkpt lat="45.03367" lon="5.74677">
        <ele>1326.6</ele>
        <time>2021-05-29T08:06:27Z</time>
      </trkpt>
      <trkpt lat="45.03367" lon="5.74679">
        <ele>1326.6</ele>
        <time>2021-05-29T08:06:28Z</time>
      </trkpt>
      <trkpt lat="45.03367" lon="5.7468">
        <ele>1326.4</ele>
        <time>2021-05-29T08:06:29Z</time>
      </trkpt>
      <trkpt lat="45.03368" lon="5.74682">
        <ele>1326.4</ele>
        <time>2021-05-29T08:06:30Z</time>
      </trkpt>
      <trkpt lat="45.03368" lon="5.74683">
        <ele>1326.4</ele>
        <time>2021-05-29T08:06:31Z</time>
      </trkpt>
      <trkpt lat="45.03368" lon="5.74684">
        <ele>1326.6</ele>
        <time>2021-05-29T08:06:32Z</time>
      </trkpt>
      <trkpt lat="45.03368" lon="5.74686">
        <ele>1326.6</ele>
        <time>2021-05-29T08:06:33Z</time>
      </trkpt>
      <trkpt lat="45.03369" lon="5.74687">
        <ele>1326.4</ele>
        <time>2021-05-29T08:06:34Z</time>
      </trkpt>
      <trkpt lat="45.03369" lon="5.74689">
        <ele>1326.6</ele>
        <time>2021-05-29T08:06:35Z</time>
      </trkpt>
      <trkpt lat="45.03369" lon="5.7469">
        <ele>1326.4</ele>
        <time>2021-05-29T08:06:36Z</time>
      </trkpt>
      <trkpt lat="45.03369" lon="5.74691">
        <ele>1326.4</ele>
        <time>2021-05-29T08:06:37Z</time>
      </trkpt>
      <trkpt lat="45.03369" lon="5.74692">
        <ele>1326.4</ele>
        <time>2021-05-29T08:06:38Z</time>
      </trkpt>
      <trkpt lat="45.03369" lon="5.74693">
        <ele>1326.6</ele>
        <time>2021-05-29T08:06:39Z</time>
      </trkpt>
      <trkpt lat="45.03369" lon="5.74694">
        <ele>1326.4</ele>
        <time>2021-05-29T08:06:40Z</time>
      </trkpt>
      <trkpt lat="45.03369" lon="5.74695">
        <ele>1326.6</ele>
        <time>2021-05-29T08:06:41Z</time>
      </trkpt>
      <trkpt lat="45.03369" lon="5.74696">
        <ele>1326.4</ele>
        <time>2021-05-29T08:06:42Z</time>
      </trkpt>
      <trkpt lat="45.03369" lon="5.74698">
        <ele>1326.6</ele>
        <time>2021-05-29T08:06:43Z</time>
      </trkpt>
      <trkpt lat="45.03369" lon="5.74699">
        <ele>1326.6</ele>
        <time>2021-05-29T08:06:44Z</time>
      </trkpt>
      <trkpt lat="45.03369" lon="5.747">
        <ele>1326.6</ele>
        <time>2021-05-29T08:06:45Z</time>
      </trkpt>
      <trkpt lat="45.03369" lon="5.74701">
        <ele>1326.6</ele>
        <time>2021-05-29T08:06:46Z</time>
      </trkpt>
      <trkpt lat="45.03369" lon="5.74702">
        <ele>1326.8</ele>
        <time>2021-05-29T08:06:47Z</time>
      </trkpt>
      <trkpt lat="45.03369" lon="5.74703">
        <ele>1326.8</ele>
        <time>2021-05-29T08:06:48Z</time>
      </trkpt>
      <trkpt lat="45.0337" lon="5.74704">
        <ele>1326.8</ele>
        <time>2021-05-29T08:06:49Z</time>
      </trkpt>
      <trkpt lat="45.0337" lon="5.74705">
        <ele>1327</ele>
        <time>2021-05-29T08:06:50Z</time>
      </trkpt>
      <trkpt lat="45.0337" lon="5.74706">
        <ele>1327</ele>
        <time>2021-05-29T08:06:51Z</time>
      </trkpt>
      <trkpt lat="45.0337" lon="5.74707">
        <ele>1327</ele>
        <time>2021-05-29T08:06:52Z</time>
      </trkpt>
      <trkpt lat="45.0337" lon="5.74708">
        <ele>1327</ele>
        <time>2021-05-29T08:06:53Z</time>
      </trkpt>
      <trkpt lat="45.0337" lon="5.7471">
        <ele>1327</ele>
        <time>2021-05-29T08:06:54Z</time>
      </trkpt>
      <trkpt lat="45.03371" lon="5.74711">
        <ele>1327</ele>
        <time>2021-05-29T08:06:55Z</time>
      </trkpt>
      <trkpt lat="45.03371" lon="5.74712">
        <ele>1326.8</ele>
        <time>2021-05-29T08:06:56Z</time>
      </trkpt>
      <trkpt lat="45.03372" lon="5.74713">
        <ele>1326.8</ele>
        <time>2021-05-29T08:06:57Z</time>
      </trkpt>
      <trkpt lat="45.03373" lon="5.74714">
        <ele>1326.8</ele>
        <time>2021-05-29T08:06:58Z</time>
      </trkpt>
      <trkpt lat="45.03374" lon="5.74715">
        <ele>1327</ele>
        <time>2021-05-29T08:06:59Z</time>
      </trkpt>
      <trkpt lat="45.03374" lon="5.74716">
        <ele>1327</ele>
        <time>2021-05-29T08:07:00Z</time>
      </trkpt>
      <trkpt lat="45.03375" lon="5.74717">
        <ele>1327.2</ele>
        <time>2021-05-29T08:07:01Z</time>
      </trkpt>
      <trkpt lat="45.03376" lon="5.74718">
        <ele>1327</ele>
        <time>2021-05-29T08:07:02Z</time>
      </trkpt>
      <trkpt lat="45.03377" lon="5.74719">
        <ele>1327</ele>
        <time>2021-05-29T08:07:03Z</time>
      </trkpt>
      <trkpt lat="45.03377" lon="5.7472">
        <ele>1327</ele>
        <time>2021-05-29T08:07:04Z</time>
      </trkpt>
      <trkpt lat="45.03379" lon="5.7472">
        <ele>1327</ele>
        <time>2021-05-29T08:07:05Z</time>
      </trkpt>
      <trkpt lat="45.0338" lon="5.74721">
        <ele>1326.8</ele>
        <time>2021-05-29T08:07:06Z</time>
      </trkpt>
      <trkpt lat="45.03382" lon="5.74722">
        <ele>1326.8</ele>
        <time>2021-05-29T08:07:07Z</time>
      </trkpt>
      <trkpt lat="45.03383" lon="5.74722">
        <ele>1326.8</ele>
        <time>2021-05-29T08:07:08Z</time>
      </trkpt>
      <trkpt lat="45.03385" lon="5.74723">
        <ele>1326.8</ele>
        <time>2021-05-29T08:07:09Z</time>
      </trkpt>
      <trkpt lat="45.03386" lon="5.74724">
        <ele>1327</ele>
        <time>2021-05-29T08:07:10Z</time>
      </trkpt>
      <trkpt lat="45.03387" lon="5.74724">
        <ele>1327</ele>
        <time>2021-05-29T08:07:11Z</time>
      </trkpt>
      <trkpt lat="45.03387" lon="5.74725">
        <ele>1327</ele>
        <time>2021-05-29T08:07:12Z</time>
      </trkpt>
      <trkpt lat="45.03388" lon="5.74726">
        <ele>1327</ele>
        <time>2021-05-29T08:07:13Z</time>
      </trkpt>
      <trkpt lat="45.03388" lon="5.74727">
        <ele>1327</ele>
        <time>2021-05-29T08:07:14Z</time>
      </trkpt>
      <trkpt lat="45.03389" lon="5.74727">
        <ele>1327</ele>
        <time>2021-05-29T08:07:15Z</time>
      </trkpt>
      <trkpt lat="45.03389" lon="5.74728">
        <ele>1327</ele>
        <time>2021-05-29T08:07:16Z</time>
      </trkpt>
      <trkpt lat="45.0339" lon="5.74729">
        <ele>1327</ele>
        <time>2021-05-29T08:07:17Z</time>
      </trkpt>
      <trkpt lat="45.0339" lon="5.74729">
        <ele>1327.2</ele>
        <time>2021-05-29T08:07:18Z</time>
      </trkpt>
      <trkpt lat="45.03391" lon="5.7473">
        <ele>1327</ele>
        <time>2021-05-29T08:07:19Z</time>
      </trkpt>
      <trkpt lat="45.03391" lon="5.74731">
        <ele>1327</ele>
        <time>2021-05-29T08:07:20Z</time>
      </trkpt>
      <trkpt lat="45.03392" lon="5.74732">
        <ele>1327.2</ele>
        <time>2021-05-29T08:07:21Z</time>
      </trkpt>
      <trkpt lat="45.03392" lon="5.74732">
        <ele>1327.4</ele>
        <time>2021-05-29T08:07:22Z</time>
      </trkpt>
      <trkpt lat="45.03393" lon="5.74733">
        <ele>1327.2</ele>
        <time>2021-05-29T08:07:23Z</time>
      </trkpt>
      <trkpt lat="45.03393" lon="5.74733">
        <ele>1327.4</ele>
        <time>2021-05-29T08:07:24Z</time>
      </trkpt>
      <trkpt lat="45.03394" lon="5.74733">
        <ele>1327.4</ele>
        <time>2021-05-29T08:07:25Z</time>
      </trkpt>
      <trkpt lat="45.03394" lon="5.74733">
        <ele>1327.2</ele>
        <time>2021-05-29T08:07:26Z</time>
      </trkpt>
      <trkpt lat="45.03394" lon="5.74733">
        <ele>1327.4</ele>
        <time>2021-05-29T08:07:27Z</time>
      </trkpt>
      <trkpt lat="45.03395" lon="5.74733">
        <ele>1327.2</ele>
        <time>2021-05-29T08:07:28Z</time>
      </trkpt>
      <trkpt lat="45.03395" lon="5.74733">
        <ele>1327.2</ele>
        <time>2021-05-29T08:07:29Z</time>
      </trkpt>
      <trkpt lat="45.03396" lon="5.74733">
        <ele>1327.2</ele>
        <time>2021-05-29T08:07:30Z</time>
      </trkpt>
      <trkpt lat="45.03396" lon="5.74733">
        <ele>1327.2</ele>
        <time>2021-05-29T08:07:31Z</time>
      </trkpt>
      <trkpt lat="45.03396" lon="5.74732">
        <ele>1327.4</ele>
        <time>2021-05-29T08:07:32Z</time>
      </trkpt>
      <trkpt lat="45.03397" lon="5.74732">
        <ele>1327.4</ele>
        <time>2021-05-29T08:07:33Z</time>
      </trkpt>
      <trkpt lat="45.03397" lon="5.74732">
        <ele>1327.4</ele>
        <time>2021-05-29T08:07:34Z</time>
      </trkpt>
      <trkpt lat="45.03398" lon="5.74732">
        <ele>1327.4</ele>
        <time>2021-05-29T08:07:35Z</time>
      </trkpt>
      <trkpt lat="45.03398" lon="5.74732">
        <ele>1327.4</ele>
        <time>2021-05-29T08:07:36Z</time>
      </trkpt>
      <trkpt lat="45.03398" lon="5.74732">
        <ele>1327.4</ele>
        <time>2021-05-29T08:07:37Z</time>
      </trkpt>
      <trkpt lat="45.03399" lon="5.74732">
        <ele>1327.4</ele>
        <time>2021-05-29T08:07:38Z</time>
      </trkpt>
      <trkpt lat="45.03399" lon="5.74732">
        <ele>1327.6</ele>
        <time>2021-05-29T08:07:39Z</time>
      </trkpt>
      <trkpt lat="45.034" lon="5.74732">
        <ele>1327.6</ele>
        <time>2021-05-29T08:07:40Z</time>
      </trkpt>
      <trkpt lat="45.034" lon="5.74732">
        <ele>1327.6</ele>
        <time>2021-05-29T08:07:41Z</time>
      </trkpt>
      <trkpt lat="45.034" lon="5.74732">
        <ele>1327.6</ele>
        <time>2021-05-29T08:07:42Z</time>
      </trkpt>
      <trkpt lat="45.03401" lon="5.74732">
        <ele>1327.6</ele>
        <time>2021-05-29T08:07:43Z</time>
      </trkpt>
      <trkpt lat="45.03401" lon="5.74732">
        <ele>1327.6</ele>
        <time>2021-05-29T08:07:44Z</time>
      </trkpt>
      <trkpt lat="45.03402" lon="5.74732">
        <ele>1327.6</ele>
        <time>2021-05-29T08:07:45Z</time>
      </trkpt>
      <trkpt lat="45.03402" lon="5.74732">
        <ele>1327.6</ele>
        <time>2021-05-29T08:07:46Z</time>
      </trkpt>
      <trkpt lat="45.03402" lon="5.74731">
        <ele>1327.4</ele>
        <time>2021-05-29T08:07:47Z</time>
      </trkpt>
      <trkpt lat="45.03402" lon="5.74731">
        <ele>1327.4</ele>
        <time>2021-05-29T08:07:48Z</time>
      </trkpt>
      <trkpt lat="45.03402" lon="5.7473">
        <ele>1327.6</ele>
        <time>2021-05-29T08:07:49Z</time>
      </trkpt>
      <trkpt lat="45.03402" lon="5.7473">
        <ele>1327.6</ele>
        <time>2021-05-29T08:07:50Z</time>
      </trkpt>
      <trkpt lat="45.03402" lon="5.74729">
        <ele>1327.4</ele>
        <time>2021-05-29T08:07:51Z</time>
      </trkpt>
      <trkpt lat="45.03402" lon="5.74728">
        <ele>1327.4</ele>
        <time>2021-05-29T08:07:52Z</time>
      </trkpt>
      <trkpt lat="45.03402" lon="5.74728">
        <ele>1327.4</ele>
        <time>2021-05-29T08:07:53Z</time>
      </trkpt>
      <trkpt lat="45.03402" lon="5.74727">
        <ele>1327.4</ele>
        <time>2021-05-29T08:07:54Z</time>
      </trkpt>
      <trkpt lat="45.03402" lon="5.74727">
        <ele>1327.4</ele>
        <time>2021-05-29T08:07:55Z</time>
      </trkpt>
      <trkpt lat="45.03402" lon="5.74726">
        <ele>1327.4</ele>
        <time>2021-05-29T08:07:56Z</time>
      </trkpt>
      <trkpt lat="45.03402" lon="5.74726">
        <ele>1327.4</ele>
        <time>2021-05-29T08:07:57Z</time>
      </trkpt>
      <trkpt lat="45.03402" lon="5.74725">
        <ele>1327.6</ele>
        <time>2021-05-29T08:07:58Z</time>
      </trkpt>
      <trkpt lat="45.03402" lon="5.74725">
        <ele>1327.6</ele>
        <time>2021-05-29T08:07:59Z</time>
      </trkpt>
      <trkpt lat="45.03402" lon="5.74724">
        <ele>1327.6</ele>
        <time>2021-05-29T08:08:00Z</time>
      </trkpt>
      <trkpt lat="45.03402" lon="5.74724">
        <ele>1327.6</ele>
        <time>2021-05-29T08:08:01Z</time>
      </trkpt>
      <trkpt lat="45.03402" lon="5.74723">
        <ele>1327.6</ele>
        <time>2021-05-29T08:08:02Z</time>
      </trkpt>
      <trkpt lat="45.03402" lon="5.74723">
        <ele>1327.6</ele>
        <time>2021-05-29T08:08:03Z</time>
      </trkpt>
      <trkpt lat="45.03402" lon="5.74722">
        <ele>1327.4</ele>
        <time>2021-05-29T08:08:04Z</time>
      </trkpt>
      <trkpt lat="45.03403" lon="5.74722">
        <ele>1327.6</ele>
        <time>2021-05-29T08:08:05Z</time>
      </trkpt>
      <trkpt lat="45.03403" lon="5.74721">
        <ele>1327.6</ele>
        <time>2021-05-29T08:08:06Z</time>
      </trkpt>
      <trkpt lat="45.03403" lon="5.74721">
        <ele>1327.4</ele>
        <time>2021-05-29T08:08:07Z</time>
      </trkpt>
      <trkpt lat="45.03403" lon="5.7472">
        <ele>1327.4</ele>
        <time>2021-05-29T08:08:08Z</time>
      </trkpt>
      <trkpt lat="45.03403" lon="5.7472">
        <ele>1327.6</ele>
        <time>2021-05-29T08:08:09Z</time>
      </trkpt>
      <trkpt lat="45.03403" lon="5.74719">
        <ele>1327.6</ele>
        <time>2021-05-29T08:08:10Z</time>
      </trkpt>
      <trkpt lat="45.03403" lon="5.74719">
        <ele>1327.6</ele>
        <time>2021-05-29T08:08:11Z</time>
      </trkpt>
      <trkpt lat="45.03403" lon="5.74719">
        <ele>1327.6</ele>
        <time>2021-05-29T08:08:12Z</time>
      </trkpt>
      <trkpt lat="45.03403" lon="5.74719">
        <ele>1327.8</ele>
        <time>2021-05-29T08:08:13Z</time>
      </trkpt>
      <trkpt lat="45.03403" lon="5.74719">
        <ele>1327.6</ele>
        <time>2021-05-29T08:08:14Z</time>
      </trkpt>
      <trkpt lat="45.03404" lon="5.74719">
        <ele>1327.6</ele>
        <time>2021-05-29T08:08:15Z</time>
      </trkpt>
      <trkpt lat="45.03404" lon="5.74719">
        <ele>1327.6</ele>
        <time>2021-05-29T08:08:16Z</time>
      </trkpt>
      <trkpt lat="45.03404" lon="5.74719">
        <ele>1327.6</ele>
        <time>2021-05-29T08:08:17Z</time>
      </trkpt>
      <trkpt lat="45.03404" lon="5.74719">
        <ele>1327.6</ele>
        <time>2021-05-29T08:08:18Z</time>
      </trkpt>
      <trkpt lat="45.03404" lon="5.74719">
        <ele>1327.4</ele>
        <time>2021-05-29T08:08:19Z</time>
      </trkpt>
      <trkpt lat="45.03405" lon="5.74719">
        <ele>1327.4</ele>
        <time>2021-05-29T08:08:20Z</time>
      </trkpt>
      <trkpt lat="45.03405" lon="5.74719">
        <ele>1327.4</ele>
        <time>2021-05-29T08:08:21Z</time>
      </trkpt>
      <trkpt lat="45.03405" lon="5.74719">
        <ele>1327.6</ele>
        <time>2021-05-29T08:08:22Z</time>
      </trkpt>
      <trkpt lat="45.03405" lon="5.74719">
        <ele>1327.4</ele>
        <time>2021-05-29T08:08:23Z</time>
      </trkpt>
      <trkpt lat="45.03405" lon="5.74719">
        <ele>1327.2</ele>
        <time>2021-05-29T08:08:24Z</time>
      </trkpt>
      <trkpt lat="45.03406" lon="5.74719">
        <ele>1327.4</ele>
        <time>2021-05-29T08:08:25Z</time>
      </trkpt>
      <trkpt lat="45.03406" lon="5.74719">
        <ele>1327.4</ele>
        <time>2021-05-29T08:08:26Z</time>
      </trkpt>
      <trkpt lat="45.03406" lon="5.74719">
        <ele>1327.4</ele>
        <time>2021-05-29T08:08:27Z</time>
      </trkpt>
      <trkpt lat="45.03406" lon="5.74719">
        <ele>1327.4</ele>
        <time>2021-05-29T08:08:28Z</time>
      </trkpt>
      <trkpt lat="45.03407" lon="5.74719">
        <ele>1327.4</ele>
        <time>2021-05-29T08:08:29Z</time>
      </trkpt>
      <trkpt lat="45.03407" lon="5.74719">
        <ele>1327.2</ele>
        <time>2021-05-29T08:08:30Z</time>
      </trkpt>
      <trkpt lat="45.03407" lon="5.74719">
        <ele>1327.2</ele>
        <time>2021-05-29T08:08:31Z</time>
      </trkpt>
      <trkpt lat="45.03407" lon="5.74719">
        <ele>1327.2</ele>
        <time>2021-05-29T08:08:32Z</time>
      </trkpt>
      <trkpt lat="45.03407" lon="5.74719">
        <ele>1327.4</ele>
        <time>2021-05-29T08:08:33Z</time>
      </trkpt>
      <trkpt lat="45.03408" lon="5.74719">
        <ele>1327.4</ele>
        <time>2021-05-29T08:08:34Z</time>
      </trkpt>
      <trkpt lat="45.03408" lon="5.74719">
        <ele>1327.2</ele>
        <time>2021-05-29T08:08:35Z</time>
      </trkpt>
      <trkpt lat="45.03408" lon="5.74719">
        <ele>1327.2</ele>
        <time>2021-05-29T08:08:36Z</time>
      </trkpt>
      <trkpt lat="45.03408" lon="5.74719">
        <ele>1327.4</ele>
        <time>2021-05-29T08:08:37Z</time>
      </trkpt>
      <trkpt lat="45.03409" lon="5.74719">
        <ele>1327.4</ele>
        <time>2021-05-29T08:08:38Z</time>
      </trkpt>
      <trkpt lat="45.03409" lon="5.74719">
        <ele>1327.4</ele>
        <time>2021-05-29T08:08:39Z</time>
      </trkpt>
      <trkpt lat="45.03409" lon="5.74719">
        <ele>1327.4</ele>
        <time>2021-05-29T08:08:40Z</time>
      </trkpt>
      <trkpt lat="45.03409" lon="5.74719">
        <ele>1327.6</ele>
        <time>2021-05-29T08:08:41Z</time>
      </trkpt>
      <trkpt lat="45.03409" lon="5.74719">
        <ele>1327.6</ele>
        <time>2021-05-29T08:08:42Z</time>
      </trkpt>
      <trkpt lat="45.0341" lon="5.74719">
        <ele>1327.6</ele>
        <time>2021-05-29T08:08:43Z</time>
      </trkpt>
      <trkpt lat="45.0341" lon="5.74719">
        <ele>1327.6</ele>
        <time>2021-05-29T08:08:44Z</time>
      </trkpt>
      <trkpt lat="45.0341" lon="5.74719">
        <ele>1327.6</ele>
        <time>2021-05-29T08:08:45Z</time>
      </trkpt>
      <trkpt lat="45.0341" lon="5.74719">
        <ele>1327.6</ele>
        <time>2021-05-29T08:08:46Z</time>
      </trkpt>
      <trkpt lat="45.0341" lon="5.74719">
        <ele>1327.6</ele>
        <time>2021-05-29T08:08:47Z</time>
      </trkpt>
      <trkpt lat="45.03411" lon="5.74719">
        <ele>1327.4</ele>
        <time>2021-05-29T08:08:48Z</time>
      </trkpt>
      <trkpt lat="45.03411" lon="5.74719">
        <ele>1327.4</ele>
        <time>2021-05-29T08:08:49Z</time>
      </trkpt>
      <trkpt lat="45.03411" lon="5.74718">
        <ele>1327.4</ele>
        <time>2021-05-29T08:08:50Z</time>
      </trkpt>
      <trkpt lat="45.03411" lon="5.74718">
        <ele>1327.2</ele>
        <time>2021-05-29T08:08:51Z</time>
      </trkpt>
      <trkpt lat="45.03412" lon="5.74718">
        <ele>1327.2</ele>
        <time>2021-05-29T08:08:52Z</time>
      </trkpt>
      <trkpt lat="45.03412" lon="5.74718">
        <ele>1326.8</ele>
        <time>2021-05-29T08:08:53Z</time>
      </trkpt>
      <trkpt lat="45.03412" lon="5.74718">
        <ele>1326.8</ele>
        <time>2021-05-29T08:08:54Z</time>
      </trkpt>
      <trkpt lat="45.03412" lon="5.74718">
        <ele>1326.8</ele>
        <time>2021-05-29T08:08:55Z</time>
      </trkpt>
      <trkpt lat="45.03412" lon="5.74718">
        <ele>1326.6</ele>
        <time>2021-05-29T08:08:56Z</time>
      </trkpt>
      <trkpt lat="45.03413" lon="5.74718">
        <ele>1326.6</ele>
        <time>2021-05-29T08:08:57Z</time>
      </trkpt>
      <trkpt lat="45.03413" lon="5.74719">
        <ele>1326.6</ele>
        <time>2021-05-29T08:08:58Z</time>
      </trkpt>
      <trkpt lat="45.03414" lon="5.74719">
        <ele>1326.6</ele>
        <time>2021-05-29T08:08:59Z</time>
      </trkpt>
      <trkpt lat="45.03415" lon="5.74719">
        <ele>1326.6</ele>
        <time>2021-05-29T08:09:00Z</time>
      </trkpt>
      <trkpt lat="45.03416" lon="5.74719">
        <ele>1326.4</ele>
        <time>2021-05-29T08:09:01Z</time>
      </trkpt>
      <trkpt lat="45.03417" lon="5.7472">
        <ele>1326.4</ele>
        <time>2021-05-29T08:09:02Z</time>
      </trkpt>
      <trkpt lat="45.03418" lon="5.7472">
        <ele>1326.4</ele>
        <time>2021-05-29T08:09:03Z</time>
      </trkpt>
      <trkpt lat="45.03418" lon="5.7472">
        <ele>1326.4</ele>
        <time>2021-05-29T08:09:04Z</time>
      </trkpt>
      <trkpt lat="45.03419" lon="5.7472">
        <ele>1326.6</ele>
        <time>2021-05-29T08:09:05Z</time>
      </trkpt>
      <trkpt lat="45.0342" lon="5.7472">
        <ele>1326.4</ele>
        <time>2021-05-29T08:09:06Z</time>
      </trkpt>
      <trkpt lat="45.03421" lon="5.74721">
        <ele>1326.2</ele>
        <time>2021-05-29T08:09:07Z</time>
      </trkpt>
      <trkpt lat="45.03422" lon="5.74721">
        <ele>1326.4</ele>
        <time>2021-05-29T08:09:08Z</time>
      </trkpt>
      <trkpt lat="45.03421" lon="5.7472">
        <ele>1326.6</ele>
        <time>2021-05-29T08:09:09Z</time>
      </trkpt>
      <trkpt lat="45.0342" lon="5.7472">
        <ele>1326.6</ele>
        <time>2021-05-29T08:09:10Z</time>
      </trkpt>
      <trkpt lat="45.03419" lon="5.74719">
        <ele>1326.8</ele>
        <time>2021-05-29T08:09:11Z</time>
      </trkpt>
      <trkpt lat="45.03419" lon="5.74718">
        <ele>1326.6</ele>
        <time>2021-05-29T08:09:12Z</time>
      </trkpt>
      <trkpt lat="45.03418" lon="5.74717">
        <ele>1326.6</ele>
        <time>2021-05-29T08:09:13Z</time>
      </trkpt>
      <trkpt lat="45.03417" lon="5.74717">
        <ele>1326.6</ele>
        <time>2021-05-29T08:09:14Z</time>
      </trkpt>
      <trkpt lat="45.03417" lon="5.74716">
        <ele>1326.4</ele>
        <time>2021-05-29T08:09:15Z</time>
      </trkpt>
      <trkpt lat="45.03416" lon="5.74715">
        <ele>1326.4</ele>
        <time>2021-05-29T08:09:16Z</time>
      </trkpt>
      <trkpt lat="45.03415" lon="5.74715">
        <ele>1326.4</ele>
        <time>2021-05-29T08:09:17Z</time>
      </trkpt>
      <trkpt lat="45.03414" lon="5.74714">
        <ele>1326.6</ele>
        <time>2021-05-29T08:09:18Z</time>
      </trkpt>
      <trkpt lat="45.03414" lon="5.74713">
        <ele>1326.4</ele>
        <time>2021-05-29T08:09:19Z</time>
      </trkpt>
      <trkpt lat="45.03413" lon="5.74712">
        <ele>1326.4</ele>
        <time>2021-05-29T08:09:20Z</time>
      </trkpt>
      <trkpt lat="45.03413" lon="5.74713">
        <ele>1326.4</ele>
        <time>2021-05-29T08:09:21Z</time>
      </trkpt>
      <trkpt lat="45.03414" lon="5.74713">
        <ele>1326.4</ele>
        <time>2021-05-29T08:09:22Z</time>
      </trkpt>
      <trkpt lat="45.03414" lon="5.74713">
        <ele>1326.4</ele>
        <time>2021-05-29T08:09:23Z</time>
      </trkpt>
      <trkpt lat="45.03415" lon="5.74713">
        <ele>1326.2</ele>
        <time>2021-05-29T08:09:24Z</time>
      </trkpt>
      <trkpt lat="45.03415" lon="5.74713">
        <ele>1326.4</ele>
        <time>2021-05-29T08:09:25Z</time>
      </trkpt>
      <trkpt lat="45.03416" lon="5.74713">
        <ele>1326.4</ele>
        <time>2021-05-29T08:09:26Z</time>
      </trkpt>
      <trkpt lat="45.03416" lon="5.74713">
        <ele>1326.2</ele>
        <time>2021-05-29T08:09:27Z</time>
      </trkpt>
      <trkpt lat="45.03417" lon="5.74714">
        <ele>1326.2</ele>
        <time>2021-05-29T08:09:28Z</time>
      </trkpt>
      <trkpt lat="45.03417" lon="5.74714">
        <ele>1326.2</ele>
        <time>2021-05-29T08:09:29Z</time>
      </trkpt>
      <trkpt lat="45.03418" lon="5.74714">
        <ele>1325.8</ele>
        <time>2021-05-29T08:09:30Z</time>
      </trkpt>
      <trkpt lat="45.03418" lon="5.74714">
        <ele>1325.6</ele>
        <time>2021-05-29T08:09:31Z</time>
      </trkpt>
      <trkpt lat="45.03419" lon="5.74714">
        <ele>1325.4</ele>
        <time>2021-05-29T08:09:32Z</time>
      </trkpt>
      <trkpt lat="45.03419" lon="5.74714">
        <ele>1325.4</ele>
        <time>2021-05-29T08:09:33Z</time>
      </trkpt>
      <trkpt lat="45.0342" lon="5.74714">
        <ele>1325.2</ele>
        <time>2021-05-29T08:09:34Z</time>
      </trkpt>
      <trkpt lat="45.0342" lon="5.74715">
        <ele>1325.2</ele>
        <time>2021-05-29T08:09:35Z</time>
      </trkpt>
      <trkpt lat="45.03421" lon="5.74715">
        <ele>1325.2</ele>
        <time>2021-05-29T08:09:36Z</time>
      </trkpt>
      <trkpt lat="45.03421" lon="5.74715">
        <ele>1325.2</ele>
        <time>2021-05-29T08:09:37Z</time>
      </trkpt>
      <trkpt lat="45.03422" lon="5.74715">
        <ele>1325.2</ele>
        <time>2021-05-29T08:09:38Z</time>
      </trkpt>
      <trkpt lat="45.03422" lon="5.74716">
        <ele>1325.2</ele>
        <time>2021-05-29T08:09:39Z</time>
      </trkpt>
      <trkpt lat="45.03421" lon="5.74717">
        <ele>1325.2</ele>
        <time>2021-05-29T08:09:40Z</time>
      </trkpt>
      <trkpt lat="45.03421" lon="5.74719">
        <ele>1325.4</ele>
        <time>2021-05-29T08:09:41Z</time>
      </trkpt>
      <trkpt lat="45.0342" lon="5.7472">
        <ele>1325.4</ele>
        <time>2021-05-29T08:09:42Z</time>
      </trkpt>
      <trkpt lat="45.0342" lon="5.74721">
        <ele>1325.4</ele>
        <time>2021-05-29T08:09:43Z</time>
      </trkpt>
      <trkpt lat="45.0342" lon="5.74722">
        <ele>1325.6</ele>
        <time>2021-05-29T08:09:44Z</time>
      </trkpt>
      <trkpt lat="45.03419" lon="5.74723">
        <ele>1325.4</ele>
        <time>2021-05-29T08:09:45Z</time>
      </trkpt>
      <trkpt lat="45.03419" lon="5.74725">
        <ele>1325.4</ele>
        <time>2021-05-29T08:09:46Z</time>
      </trkpt>
      <trkpt lat="45.03419" lon="5.74726">
        <ele>1325.4</ele>
        <time>2021-05-29T08:09:47Z</time>
      </trkpt>
      <trkpt lat="45.03418" lon="5.74727">
        <ele>1325.4</ele>
        <time>2021-05-29T08:09:48Z</time>
      </trkpt>
      <trkpt lat="45.03418" lon="5.74728">
        <ele>1325.4</ele>
        <time>2021-05-29T08:09:49Z</time>
      </trkpt>
      <trkpt lat="45.03417" lon="5.74729">
        <ele>1325.4</ele>
        <time>2021-05-29T08:09:50Z</time>
      </trkpt>
      <trkpt lat="45.03417" lon="5.74731">
        <ele>1325.4</ele>
        <time>2021-05-29T08:09:51Z</time>
      </trkpt>
      <trkpt lat="45.03416" lon="5.74728">
        <ele>1325.4</ele>
        <time>2021-05-29T08:09:52Z</time>
      </trkpt>
      <trkpt lat="45.03414" lon="5.74726">
        <ele>1325.4</ele>
        <time>2021-05-29T08:09:53Z</time>
      </trkpt>
      <trkpt lat="45.03413" lon="5.74724">
        <ele>1325.4</ele>
        <time>2021-05-29T08:09:54Z</time>
      </trkpt>
      <trkpt lat="45.03412" lon="5.74722">
        <ele>1325.4</ele>
        <time>2021-05-29T08:09:55Z</time>
      </trkpt>
      <trkpt lat="45.03411" lon="5.7472">
        <ele>1325.4</ele>
        <time>2021-05-29T08:09:56Z</time>
      </trkpt>
      <trkpt lat="45.03409" lon="5.74718">
        <ele>1325.4</ele>
        <time>2021-05-29T08:09:57Z</time>
      </trkpt>
      <trkpt lat="45.03408" lon="5.74716">
        <ele>1325.8</ele>
        <time>2021-05-29T08:09:58Z</time>
      </trkpt>
      <trkpt lat="45.03407" lon="5.74714">
        <ele>1326.2</ele>
        <time>2021-05-29T08:10:00Z</time>
      </trkpt>
      <trkpt lat="45.03408" lon="5.74713">
        <ele>1325.6</ele>
        <time>2021-05-29T08:10:01Z</time>
      </trkpt>
      <trkpt lat="45.03409" lon="5.74712">
        <ele>1325.4</ele>
        <time>2021-05-29T08:10:02Z</time>
      </trkpt>
      <trkpt lat="45.0341" lon="5.74711">
        <ele>1325.2</ele>
        <time>2021-05-29T08:10:03Z</time>
      </trkpt>
      <trkpt lat="45.03411" lon="5.7471">
        <ele>1324.8</ele>
        <time>2021-05-29T08:10:04Z</time>
      </trkpt>
      <trkpt lat="45.03412" lon="5.7471">
        <ele>1324.4</ele>
        <time>2021-05-29T08:10:05Z</time>
      </trkpt>
      <trkpt lat="45.03413" lon="5.74709">
        <ele>1324</ele>
        <time>2021-05-29T08:10:06Z</time>
      </trkpt>
      <trkpt lat="45.03414" lon="5.74708">
        <ele>1323.6</ele>
        <time>2021-05-29T08:10:07Z</time>
      </trkpt>
      <trkpt lat="45.03415" lon="5.74707">
        <ele>1323</ele>
        <time>2021-05-29T08:10:08Z</time>
      </trkpt>
      <trkpt lat="45.03416" lon="5.74708">
        <ele>1322.6</ele>
        <time>2021-05-29T08:10:09Z</time>
      </trkpt>
      <trkpt lat="45.03417" lon="5.74708">
        <ele>1322.4</ele>
        <time>2021-05-29T08:10:10Z</time>
      </trkpt>
      <trkpt lat="45.03418" lon="5.74709">
        <ele>1322.2</ele>
        <time>2021-05-29T08:10:11Z</time>
      </trkpt>
      <trkpt lat="45.03419" lon="5.74709">
        <ele>1321.8</ele>
        <time>2021-05-29T08:10:12Z</time>
      </trkpt>
      <trkpt lat="45.0342" lon="5.7471">
        <ele>1321.4</ele>
        <time>2021-05-29T08:10:13Z</time>
      </trkpt>
      <trkpt lat="45.03421" lon="5.7471">
        <ele>1321</ele>
        <time>2021-05-29T08:10:14Z</time>
      </trkpt>
      <trkpt lat="45.03423" lon="5.74711">
        <ele>1320.6</ele>
        <time>2021-05-29T08:10:15Z</time>
      </trkpt>
      <trkpt lat="45.03424" lon="5.74711">
        <ele>1320.4</ele>
        <time>2021-05-29T08:10:16Z</time>
      </trkpt>
      <trkpt lat="45.03425" lon="5.74712">
        <ele>1320</ele>
        <time>2021-05-29T08:10:17Z</time>
      </trkpt>
      <trkpt lat="45.03425" lon="5.74711">
        <ele>1319.4</ele>
        <time>2021-05-29T08:10:18Z</time>
      </trkpt>
      <trkpt lat="45.03426" lon="5.74711">
        <ele>1319.2</ele>
        <time>2021-05-29T08:10:19Z</time>
      </trkpt>
      <trkpt lat="45.03427" lon="5.74711">
        <ele>1318.8</ele>
        <time>2021-05-29T08:10:20Z</time>
      </trkpt>
      <trkpt lat="45.03428" lon="5.74711">
        <ele>1318.6</ele>
        <time>2021-05-29T08:10:21Z</time>
      </trkpt>
      <trkpt lat="45.03429" lon="5.74711">
        <ele>1318</ele>
        <time>2021-05-29T08:10:22Z</time>
      </trkpt>
      <trkpt lat="45.0343" lon="5.74711">
        <ele>1317.6</ele>
        <time>2021-05-29T08:10:23Z</time>
      </trkpt>
      <trkpt lat="45.03431" lon="5.74711">
        <ele>1317</ele>
        <time>2021-05-29T08:10:24Z</time>
      </trkpt>
      <trkpt lat="45.03432" lon="5.74711">
        <ele>1316.6</ele>
        <time>2021-05-29T08:10:25Z</time>
      </trkpt>
      <trkpt lat="45.03433" lon="5.7471">
        <ele>1316</ele>
        <time>2021-05-29T08:10:26Z</time>
      </trkpt>
      <trkpt lat="45.03434" lon="5.7471">
        <ele>1315.8</ele>
        <time>2021-05-29T08:10:27Z</time>
      </trkpt>
      <trkpt lat="45.03435" lon="5.74711">
        <ele>1315.2</ele>
        <time>2021-05-29T08:10:28Z</time>
      </trkpt>
      <trkpt lat="45.03436" lon="5.74711">
        <ele>1315</ele>
        <time>2021-05-29T08:10:29Z</time>
      </trkpt>
      <trkpt lat="45.03437" lon="5.74711">
        <ele>1314.8</ele>
        <time>2021-05-29T08:10:30Z</time>
      </trkpt>
      <trkpt lat="45.03438" lon="5.74711">
        <ele>1314.2</ele>
        <time>2021-05-29T08:10:31Z</time>
      </trkpt>
      <trkpt lat="45.03439" lon="5.74712">
        <ele>1314</ele>
        <time>2021-05-29T08:10:32Z</time>
      </trkpt>
      <trkpt lat="45.0344" lon="5.74712">
        <ele>1313.6</ele>
        <time>2021-05-29T08:10:33Z</time>
      </trkpt>
      <trkpt lat="45.03441" lon="5.74712">
        <ele>1313</ele>
        <time>2021-05-29T08:10:34Z</time>
      </trkpt>
      <trkpt lat="45.03441" lon="5.74712">
        <ele>1312.6</ele>
        <time>2021-05-29T08:10:35Z</time>
      </trkpt>
      <trkpt lat="45.03442" lon="5.74713">
        <ele>1312.2</ele>
        <time>2021-05-29T08:10:36Z</time>
      </trkpt>
      <trkpt lat="45.03443" lon="5.74713">
        <ele>1311.6</ele>
        <time>2021-05-29T08:10:37Z</time>
      </trkpt>
      <trkpt lat="45.03444" lon="5.74713">
        <ele>1311.2</ele>
        <time>2021-05-29T08:10:38Z</time>
      </trkpt>
      <trkpt lat="45.03445" lon="5.74713">
        <ele>1310.6</ele>
        <time>2021-05-29T08:10:39Z</time>
      </trkpt>
      <trkpt lat="45.03445" lon="5.74714">
        <ele>1310</ele>
        <time>2021-05-29T08:10:40Z</time>
      </trkpt>
      <trkpt lat="45.03446" lon="5.74714">
        <ele>1309.4</ele>
        <time>2021-05-29T08:10:41Z</time>
      </trkpt>
      <trkpt lat="45.03447" lon="5.74714">
        <ele>1308.6</ele>
        <time>2021-05-29T08:10:42Z</time>
      </trkpt>
      <trkpt lat="45.03447" lon="5.74714">
        <ele>1308.2</ele>
        <time>2021-05-29T08:10:43Z</time>
      </trkpt>
      <trkpt lat="45.03448" lon="5.74714">
        <ele>1308</ele>
        <time>2021-05-29T08:10:44Z</time>
      </trkpt>
      <trkpt lat="45.03448" lon="5.74715">
        <ele>1307.8</ele>
        <time>2021-05-29T08:10:45Z</time>
      </trkpt>
      <trkpt lat="45.03449" lon="5.74715">
        <ele>1307.8</ele>
        <time>2021-05-29T08:10:46Z</time>
      </trkpt>
      <trkpt lat="45.0345" lon="5.74715">
        <ele>1307.8</ele>
        <time>2021-05-29T08:10:47Z</time>
      </trkpt>
      <trkpt lat="45.0345" lon="5.74715">
        <ele>1307.8</ele>
        <time>2021-05-29T08:10:48Z</time>
      </trkpt>
      <trkpt lat="45.03451" lon="5.74715">
        <ele>1307.6</ele>
        <time>2021-05-29T08:10:49Z</time>
      </trkpt>
      <trkpt lat="45.03452" lon="5.74716">
        <ele>1307.2</ele>
        <time>2021-05-29T08:10:50Z</time>
      </trkpt>
      <trkpt lat="45.03452" lon="5.74716">
        <ele>1307.2</ele>
        <time>2021-05-29T08:10:51Z</time>
      </trkpt>
      <trkpt lat="45.03453" lon="5.74718">
        <ele>1307.2</ele>
        <time>2021-05-29T08:10:52Z</time>
      </trkpt>
      <trkpt lat="45.03455" lon="5.7472">
        <ele>1307.2</ele>
        <time>2021-05-29T08:10:53Z</time>
      </trkpt>
      <trkpt lat="45.03456" lon="5.74722">
        <ele>1307.2</ele>
        <time>2021-05-29T08:10:54Z</time>
      </trkpt>
      <trkpt lat="45.03457" lon="5.74724">
        <ele>1307.6</ele>
        <time>2021-05-29T08:10:55Z</time>
      </trkpt>
      <trkpt lat="45.03458" lon="5.74726">
        <ele>1307.6</ele>
        <time>2021-05-29T08:10:56Z</time>
      </trkpt>
      <trkpt lat="45.03458" lon="5.74726">
        <ele>1307.6</ele>
        <time>2021-05-29T08:10:57Z</time>
      </trkpt>
      <trkpt lat="45.03459" lon="5.74727">
        <ele>1307.6</ele>
        <time>2021-05-29T08:10:58Z</time>
      </trkpt>
      <trkpt lat="45.03459" lon="5.74727">
        <ele>1307.6</ele>
        <time>2021-05-29T08:10:59Z</time>
      </trkpt>
      <trkpt lat="45.0346" lon="5.74727">
        <ele>1307.6</ele>
        <time>2021-05-29T08:11:00Z</time>
      </trkpt>
      <trkpt lat="45.0346" lon="5.74727">
        <ele>1307.6</ele>
        <time>2021-05-29T08:11:01Z</time>
      </trkpt>
      <trkpt lat="45.03461" lon="5.74728">
        <ele>1307.6</ele>
        <time>2021-05-29T08:11:02Z</time>
      </trkpt>
      <trkpt lat="45.03461" lon="5.74728">
        <ele>1307.6</ele>
        <time>2021-05-29T08:11:03Z</time>
      </trkpt>
      <trkpt lat="45.03462" lon="5.74728">
        <ele>1307.6</ele>
        <time>2021-05-29T08:11:04Z</time>
      </trkpt>
      <trkpt lat="45.03463" lon="5.74728">
        <ele>1307.6</ele>
        <time>2021-05-29T08:11:05Z</time>
      </trkpt>
      <trkpt lat="45.03463" lon="5.74729">
        <ele>1307.6</ele>
        <time>2021-05-29T08:11:06Z</time>
      </trkpt>
      <trkpt lat="45.03464" lon="5.74729">
        <ele>1307.4</ele>
        <time>2021-05-29T08:11:07Z</time>
      </trkpt>
      <trkpt lat="45.03464" lon="5.74729">
        <ele>1307.2</ele>
        <time>2021-05-29T08:11:08Z</time>
      </trkpt>
      <trkpt lat="45.03465" lon="5.74729">
        <ele>1307</ele>
        <time>2021-05-29T08:11:09Z</time>
      </trkpt>
      <trkpt lat="45.03465" lon="5.7473">
        <ele>1307</ele>
        <time>2021-05-29T08:11:10Z</time>
      </trkpt>
      <trkpt lat="45.03466" lon="5.7473">
        <ele>1306.6</ele>
        <time>2021-05-29T08:11:11Z</time>
      </trkpt>
      <trkpt lat="45.03466" lon="5.7473">
        <ele>1306.6</ele>
        <time>2021-05-29T08:11:12Z</time>
      </trkpt>
      <trkpt lat="45.03467" lon="5.7473">
        <ele>1306.4</ele>
        <time>2021-05-29T08:11:13Z</time>
      </trkpt>
      <trkpt lat="45.03468" lon="5.7473">
        <ele>1306</ele>
        <time>2021-05-29T08:11:14Z</time>
      </trkpt>
      <trkpt lat="45.0347" lon="5.7473">
        <ele>1305.6</ele>
        <time>2021-05-29T08:11:15Z</time>
      </trkpt>
      <trkpt lat="45.03471" lon="5.7473">
        <ele>1305.4</ele>
        <time>2021-05-29T08:11:16Z</time>
      </trkpt>
      <trkpt lat="45.03473" lon="5.7473">
        <ele>1304.6</ele>
        <time>2021-05-29T08:11:17Z</time>
      </trkpt>
      <trkpt lat="45.03475" lon="5.7473">
        <ele>1303.8</ele>
        <time>2021-05-29T08:11:18Z</time>
      </trkpt>
      <trkpt lat="45.03476" lon="5.7473">
        <ele>1302.8</ele>
        <time>2021-05-29T08:11:19Z</time>
      </trkpt>
      <trkpt lat="45.03478" lon="5.74731">
        <ele>1302</ele>
        <time>2021-05-29T08:11:20Z</time>
      </trkpt>
      <trkpt lat="45.03479" lon="5.74731">
        <ele>1301.4</ele>
        <time>2021-05-29T08:11:21Z</time>
      </trkpt>
      <trkpt lat="45.03481" lon="5.74732">
        <ele>1300.4</ele>
        <time>2021-05-29T08:11:22Z</time>
      </trkpt>
      <trkpt lat="45.03483" lon="5.74732">
        <ele>1299.8</ele>
        <time>2021-05-29T08:11:23Z</time>
      </trkpt>
      <trkpt lat="45.03484" lon="5.74732">
        <ele>1299.2</ele>
        <time>2021-05-29T08:11:24Z</time>
      </trkpt>
      <trkpt lat="45.03486" lon="5.74733">
        <ele>1298.8</ele>
        <time>2021-05-29T08:11:25Z</time>
      </trkpt>
      <trkpt lat="45.03487" lon="5.74733">
        <ele>1298</ele>
        <time>2021-05-29T08:11:26Z</time>
      </trkpt>
      <trkpt lat="45.03488" lon="5.74733">
        <ele>1297.6</ele>
        <time>2021-05-29T08:11:27Z</time>
      </trkpt>
      <trkpt lat="45.03489" lon="5.74733">
        <ele>1296.6</ele>
        <time>2021-05-29T08:11:28Z</time>
      </trkpt>
      <trkpt lat="45.0349" lon="5.74733">
        <ele>1296.2</ele>
        <time>2021-05-29T08:11:29Z</time>
      </trkpt>
      <trkpt lat="45.03491" lon="5.74733">
        <ele>1295.4</ele>
        <time>2021-05-29T08:11:30Z</time>
      </trkpt>
      <trkpt lat="45.03492" lon="5.74733">
        <ele>1295</ele>
        <time>2021-05-29T08:11:31Z</time>
      </trkpt>
      <trkpt lat="45.03493" lon="5.74733">
        <ele>1294.2</ele>
        <time>2021-05-29T08:11:32Z</time>
      </trkpt>
      <trkpt lat="45.03494" lon="5.74734">
        <ele>1293.8</ele>
        <time>2021-05-29T08:11:33Z</time>
      </trkpt>
      <trkpt lat="45.03495" lon="5.74734">
        <ele>1293</ele>
        <time>2021-05-29T08:11:34Z</time>
      </trkpt>
      <trkpt lat="45.03496" lon="5.74733">
        <ele>1292.6</ele>
        <time>2021-05-29T08:11:35Z</time>
      </trkpt>
      <trkpt lat="45.03498" lon="5.74732">
        <ele>1291.6</ele>
        <time>2021-05-29T08:11:36Z</time>
      </trkpt>
      <trkpt lat="45.03499" lon="5.74732">
        <ele>1290.4</ele>
        <time>2021-05-29T08:11:37Z</time>
      </trkpt>
      <trkpt lat="45.035" lon="5.74731">
        <ele>1289.8</ele>
        <time>2021-05-29T08:11:38Z</time>
      </trkpt>
      <trkpt lat="45.03501" lon="5.7473">
        <ele>1289</ele>
        <time>2021-05-29T08:11:39Z</time>
      </trkpt>
      <trkpt lat="45.03503" lon="5.7473">
        <ele>1288.4</ele>
        <time>2021-05-29T08:11:40Z</time>
      </trkpt>
      <trkpt lat="45.03504" lon="5.74729">
        <ele>1287.8</ele>
        <time>2021-05-29T08:11:41Z</time>
      </trkpt>
      <trkpt lat="45.03506" lon="5.7473">
        <ele>1287.6</ele>
        <time>2021-05-29T08:11:42Z</time>
      </trkpt>
      <trkpt lat="45.03508" lon="5.74731">
        <ele>1286.8</ele>
        <time>2021-05-29T08:11:43Z</time>
      </trkpt>
      <trkpt lat="45.0351" lon="5.74732">
        <ele>1286.4</ele>
        <time>2021-05-29T08:11:44Z</time>
      </trkpt>
      <trkpt lat="45.03511" lon="5.74733">
        <ele>1285.4</ele>
        <time>2021-05-29T08:11:45Z</time>
      </trkpt>
      <trkpt lat="45.03513" lon="5.74734">
        <ele>1285</ele>
        <time>2021-05-29T08:11:46Z</time>
      </trkpt>
      <trkpt lat="45.03515" lon="5.74735">
        <ele>1283.8</ele>
        <time>2021-05-29T08:11:47Z</time>
      </trkpt>
      <trkpt lat="45.03517" lon="5.74736">
        <ele>1283.4</ele>
        <time>2021-05-29T08:11:48Z</time>
      </trkpt>
      <trkpt lat="45.03519" lon="5.74737">
        <ele>1282.4</ele>
        <time>2021-05-29T08:11:49Z</time>
      </trkpt>
      <trkpt lat="45.03521" lon="5.74738">
        <ele>1282</ele>
        <time>2021-05-29T08:11:50Z</time>
      </trkpt>
      <trkpt lat="45.03523" lon="5.74739">
        <ele>1281</ele>
        <time>2021-05-29T08:11:51Z</time>
      </trkpt>
      <trkpt lat="45.0353" lon="5.7474">
        <ele>1280.4</ele>
        <time>2021-05-29T08:11:52Z</time>
      </trkpt>
      <trkpt lat="45.03531" lon="5.74741">
        <ele>1279.6</ele>
        <time>2021-05-29T08:11:53Z</time>
      </trkpt>
      <trkpt lat="45.03533" lon="5.74741">
        <ele>1279</ele>
        <time>2021-05-29T08:11:54Z</time>
      </trkpt>
      <trkpt lat="45.03537" lon="5.74744">
        <ele>1278.2</ele>
        <time>2021-05-29T08:11:55Z</time>
      </trkpt>
      <trkpt lat="45.0354" lon="5.74745">
        <ele>1277.4</ele>
        <time>2021-05-29T08:11:56Z</time>
      </trkpt>
      <trkpt lat="45.03543" lon="5.74747">
        <ele>1276.6</ele>
        <time>2021-05-29T08:11:57Z</time>
      </trkpt>
      <trkpt lat="45.03546" lon="5.74748">
        <ele>1275.8</ele>
        <time>2021-05-29T08:11:58Z</time>
      </trkpt>
      <trkpt lat="45.03549" lon="5.74749">
        <ele>1274.6</ele>
        <time>2021-05-29T08:11:59Z</time>
      </trkpt>
      <trkpt lat="45.03552" lon="5.7475">
        <ele>1273.8</ele>
        <time>2021-05-29T08:12:00Z</time>
      </trkpt>
      <trkpt lat="45.03555" lon="5.74751">
        <ele>1273.8</ele>
        <time>2021-05-29T08:12:01Z</time>
      </trkpt>
      <trkpt lat="45.03555" lon="5.74751">
        <ele>1273</ele>
        <time>2021-05-29T08:12:02Z</time>
      </trkpt>
      <trkpt lat="45.03555" lon="5.74751">
        <ele>1272.2</ele>
        <time>2021-05-29T08:12:03Z</time>
      </trkpt>
      <trkpt lat="45.03555" lon="5.74751">
        <ele>1271.4</ele>
        <time>2021-05-29T08:12:04Z</time>
      </trkpt>
      <trkpt lat="45.03557" lon="5.74751">
        <ele>1271</ele>
        <time>2021-05-29T08:12:05Z</time>
      </trkpt>
      <trkpt lat="45.03558" lon="5.74751">
        <ele>1271</ele>
        <time>2021-05-29T08:12:06Z</time>
      </trkpt>
      <trkpt lat="45.03559" lon="5.74751">
        <ele>1270.4</ele>
        <time>2021-05-29T08:12:07Z</time>
      </trkpt>
      <trkpt lat="45.03561" lon="5.74751">
        <ele>1269.8</ele>
        <time>2021-05-29T08:12:08Z</time>
      </trkpt>
      <trkpt lat="45.03562" lon="5.74751">
        <ele>1269</ele>
        <time>2021-05-29T08:12:09Z</time>
      </trkpt>
      <trkpt lat="45.03563" lon="5.74751">
        <ele>1268.2</ele>
        <time>2021-05-29T08:12:10Z</time>
      </trkpt>
      <trkpt lat="45.03565" lon="5.74751">
        <ele>1268.2</ele>
        <time>2021-05-29T08:12:11Z</time>
      </trkpt>
      <trkpt lat="45.03567" lon="5.74751">
        <ele>1267.4</ele>
        <time>2021-05-29T08:12:12Z</time>
      </trkpt>
      <trkpt lat="45.03569" lon="5.74751">
        <ele>1266.8</ele>
        <time>2021-05-29T08:12:13Z</time>
      </trkpt>
      <trkpt lat="45.03571" lon="5.74751">
        <ele>1266.4</ele>
        <time>2021-05-29T08:12:14Z</time>
      </trkpt>
      <trkpt lat="45.03572" lon="5.74752">
        <ele>1265.8</ele>
        <time>2021-05-29T08:12:15Z</time>
      </trkpt>
      <trkpt lat="45.03574" lon="5.74752">
        <ele>1265.4</ele>
        <time>2021-05-29T08:12:16Z</time>
      </trkpt>
      <trkpt lat="45.03576" lon="5.74752">
        <ele>1264.6</ele>
        <time>2021-05-29T08:12:17Z</time>
      </trkpt>
      <trkpt lat="45.03578" lon="5.74753">
        <ele>1263.6</ele>
        <time>2021-05-29T08:12:18Z</time>
      </trkpt>
      <trkpt lat="45.03581" lon="5.74753">
        <ele>1263.6</ele>
        <time>2021-05-29T08:12:19Z</time>
      </trkpt>
      <trkpt lat="45.03583" lon="5.74754">
        <ele>1263</ele>
        <time>2021-05-29T08:12:20Z</time>
      </trkpt>
      <trkpt lat="45.03585" lon="5.74754">
        <ele>1263</ele>
        <time>2021-05-29T08:12:21Z</time>
      </trkpt>
      <trkpt lat="45.03587" lon="5.74755">
        <ele>1262.2</ele>
        <time>2021-05-29T08:12:22Z</time>
      </trkpt>
      <trkpt lat="45.0359" lon="5.74756">
        <ele>1262</ele>
        <time>2021-05-29T08:12:23Z</time>
      </trkpt>
      <trkpt lat="45.03593" lon="5.74757">
        <ele>1261</ele>
        <time>2021-05-29T08:12:24Z</time>
      </trkpt>
      <trkpt lat="45.03596" lon="5.74757">
        <ele>1260.6</ele>
        <time>2021-05-29T08:12:25Z</time>
      </trkpt>
      <trkpt lat="45.03598" lon="5.74757">
        <ele>1260.6</ele>
        <time>2021-05-29T08:12:26Z</time>
      </trkpt>
      <trkpt lat="45.03601" lon="5.74756">
        <ele>1260</ele>
        <time>2021-05-29T08:12:27Z</time>
      </trkpt>
      <trkpt lat="45.03604" lon="5.74755">
        <ele>1259.4</ele>
        <time>2021-05-29T08:12:28Z</time>
      </trkpt>
      <trkpt lat="45.03606" lon="5.74755">
        <ele>1258.8</ele>
        <time>2021-05-29T08:12:29Z</time>
      </trkpt>
      <trkpt lat="45.03608" lon="5.74754">
        <ele>1258</ele>
        <time>2021-05-29T08:12:30Z</time>
      </trkpt>
      <trkpt lat="45.03609" lon="5.74754">
        <ele>1258.2</ele>
        <time>2021-05-29T08:12:31Z</time>
      </trkpt>
      <trkpt lat="45.0361" lon="5.74754">
        <ele>1257.4</ele>
        <time>2021-05-29T08:12:32Z</time>
      </trkpt>
      <trkpt lat="45.03611" lon="5.74754">
        <ele>1256.8</ele>
        <time>2021-05-29T08:12:33Z</time>
      </trkpt>
      <trkpt lat="45.03613" lon="5.74753">
        <ele>1255.6</ele>
        <time>2021-05-29T08:12:34Z</time>
      </trkpt>
      <trkpt lat="45.03614" lon="5.74753">
        <ele>1255</ele>
        <time>2021-05-29T08:12:35Z</time>
      </trkpt>
      <trkpt lat="45.03615" lon="5.74753">
        <ele>1255</ele>
        <time>2021-05-29T08:12:36Z</time>
      </trkpt>
      <trkpt lat="45.03618" lon="5.74751">
        <ele>1254.2</ele>
        <time>2021-05-29T08:12:37Z</time>
      </trkpt>
      <trkpt lat="45.03621" lon="5.7475">
        <ele>1253.4</ele>
        <time>2021-05-29T08:12:38Z</time>
      </trkpt>
      <trkpt lat="45.03624" lon="5.74748">
        <ele>1252.6</ele>
        <time>2021-05-29T08:12:39Z</time>
      </trkpt>
      <trkpt lat="45.03627" lon="5.74746">
        <ele>1251.6</ele>
        <time>2021-05-29T08:12:40Z</time>
      </trkpt>
      <trkpt lat="45.03631" lon="5.74745">
        <ele>1250.8</ele>
        <time>2021-05-29T08:12:41Z</time>
      </trkpt>
      <trkpt lat="45.03635" lon="5.74741">
        <ele>1250.2</ele>
        <time>2021-05-29T08:12:42Z</time>
      </trkpt>
      <trkpt lat="45.03635" lon="5.74741">
        <ele>1249.2</ele>
        <time>2021-05-29T08:12:43Z</time>
      </trkpt>
      <trkpt lat="45.03635" lon="5.74741">
        <ele>1248.8</ele>
        <time>2021-05-29T08:12:44Z</time>
      </trkpt>
      <trkpt lat="45.03635" lon="5.74741">
        <ele>1247.8</ele>
        <time>2021-05-29T08:12:45Z</time>
      </trkpt>
      <trkpt lat="45.03637" lon="5.7474">
        <ele>1246.8</ele>
        <time>2021-05-29T08:12:46Z</time>
      </trkpt>
      <trkpt lat="45.03639" lon="5.74739">
        <ele>1246.2</ele>
        <time>2021-05-29T08:12:47Z</time>
      </trkpt>
      <trkpt lat="45.03641" lon="5.74738">
        <ele>1245.6</ele>
        <time>2021-05-29T08:12:48Z</time>
      </trkpt>
      <trkpt lat="45.03644" lon="5.74736">
        <ele>1244.8</ele>
        <time>2021-05-29T08:12:49Z</time>
      </trkpt>
      <trkpt lat="45.03646" lon="5.74735">
        <ele>1243.8</ele>
        <time>2021-05-29T08:12:50Z</time>
      </trkpt>
      <trkpt lat="45.03648" lon="5.74732">
        <ele>1241.6</ele>
        <time>2021-05-29T08:12:51Z</time>
      </trkpt>
      <trkpt lat="45.03651" lon="5.74729">
        <ele>1240.4</ele>
        <time>2021-05-29T08:12:52Z</time>
      </trkpt>
      <trkpt lat="45.03654" lon="5.74726">
        <ele>1239.2</ele>
        <time>2021-05-29T08:12:53Z</time>
      </trkpt>
      <trkpt lat="45.03657" lon="5.74723">
        <ele>1238.4</ele>
        <time>2021-05-29T08:12:54Z</time>
      </trkpt>
      <trkpt lat="45.03659" lon="5.74721">
        <ele>1237</ele>
        <time>2021-05-29T08:12:55Z</time>
      </trkpt>
      <trkpt lat="45.03661" lon="5.7472">
        <ele>1236.4</ele>
        <time>2021-05-29T08:12:56Z</time>
      </trkpt>
      <trkpt lat="45.03666" lon="5.74716">
        <ele>1235</ele>
        <time>2021-05-29T08:12:57Z</time>
      </trkpt>
      <trkpt lat="45.03666" lon="5.74716">
        <ele>1234.2</ele>
        <time>2021-05-29T08:12:58Z</time>
      </trkpt>
      <trkpt lat="45.03666" lon="5.74716">
        <ele>1233</ele>
        <time>2021-05-29T08:12:59Z</time>
      </trkpt>
      <trkpt lat="45.03668" lon="5.74714">
        <ele>1232.2</ele>
        <time>2021-05-29T08:13:00Z</time>
      </trkpt>
      <trkpt lat="45.03671" lon="5.74712">
        <ele>1230.8</ele>
        <time>2021-05-29T08:13:01Z</time>
      </trkpt>
      <trkpt lat="45.03673" lon="5.7471">
        <ele>1229.6</ele>
        <time>2021-05-29T08:13:02Z</time>
      </trkpt>
      <trkpt lat="45.03675" lon="5.74708">
        <ele>1228.6</ele>
        <time>2021-05-29T08:13:03Z</time>
      </trkpt>
      <trkpt lat="45.03677" lon="5.74707">
        <ele>1227.8</ele>
        <time>2021-05-29T08:13:04Z</time>
      </trkpt>
      <trkpt lat="45.03679" lon="5.74705">
        <ele>1227.4</ele>
        <time>2021-05-29T08:13:05Z</time>
      </trkpt>
      <trkpt lat="45.03681" lon="5.74704">
        <ele>1226.4</ele>
        <time>2021-05-29T08:13:06Z</time>
      </trkpt>
      <trkpt lat="45.03682" lon="5.74702">
        <ele>1225.4</ele>
        <time>2021-05-29T08:13:07Z</time>
      </trkpt>
      <trkpt lat="45.03684" lon="5.74701">
        <ele>1224.8</ele>
        <time>2021-05-29T08:13:08Z</time>
      </trkpt>
      <trkpt lat="45.03685" lon="5.747">
        <ele>1223.8</ele>
        <time>2021-05-29T08:13:09Z</time>
      </trkpt>
      <trkpt lat="45.03686" lon="5.74699">
        <ele>1223</ele>
        <time>2021-05-29T08:13:10Z</time>
      </trkpt>
      <trkpt lat="45.03686" lon="5.74698">
        <ele>1222</ele>
        <time>2021-05-29T08:13:11Z</time>
      </trkpt>
      <trkpt lat="45.03687" lon="5.74697">
        <ele>1221</ele>
        <time>2021-05-29T08:13:12Z</time>
      </trkpt>
      <trkpt lat="45.03688" lon="5.74696">
        <ele>1220.6</ele>
        <time>2021-05-29T08:13:13Z</time>
      </trkpt>
      <trkpt lat="45.03689" lon="5.74696">
        <ele>1220.2</ele>
        <time>2021-05-29T08:13:14Z</time>
      </trkpt>
      <trkpt lat="45.0369" lon="5.74695">
        <ele>1219.6</ele>
        <time>2021-05-29T08:13:15Z</time>
      </trkpt>
      <trkpt lat="45.03691" lon="5.74694">
        <ele>1219</ele>
        <time>2021-05-29T08:13:16Z</time>
      </trkpt>
      <trkpt lat="45.03692" lon="5.74693">
        <ele>1218.6</ele>
        <time>2021-05-29T08:13:17Z</time>
      </trkpt>
      <trkpt lat="45.03692" lon="5.74693">
        <ele>1218.4</ele>
        <time>2021-05-29T08:13:18Z</time>
      </trkpt>
      <trkpt lat="45.03693" lon="5.74693">
        <ele>1218.2</ele>
        <time>2021-05-29T08:13:19Z</time>
      </trkpt>
      <trkpt lat="45.03694" lon="5.74693">
        <ele>1218</ele>
        <time>2021-05-29T08:13:20Z</time>
      </trkpt>
      <trkpt lat="45.03695" lon="5.74694">
        <ele>1217.8</ele>
        <time>2021-05-29T08:13:21Z</time>
      </trkpt>
      <trkpt lat="45.03696" lon="5.74694">
        <ele>1217.8</ele>
        <time>2021-05-29T08:13:22Z</time>
      </trkpt>
      <trkpt lat="45.03697" lon="5.74694">
        <ele>1217.8</ele>
        <time>2021-05-29T08:13:23Z</time>
      </trkpt>
      <trkpt lat="45.03698" lon="5.74694">
        <ele>1217.8</ele>
        <time>2021-05-29T08:13:24Z</time>
      </trkpt>
      <trkpt lat="45.03698" lon="5.74694">
        <ele>1217.8</ele>
        <time>2021-05-29T08:13:25Z</time>
      </trkpt>
      <trkpt lat="45.03699" lon="5.74694">
        <ele>1217.8</ele>
        <time>2021-05-29T08:13:26Z</time>
      </trkpt>
      <trkpt lat="45.037" lon="5.74694">
        <ele>1217.8</ele>
        <time>2021-05-29T08:13:27Z</time>
      </trkpt>
      <trkpt lat="45.03701" lon="5.74695">
        <ele>1217.8</ele>
        <time>2021-05-29T08:13:28Z</time>
      </trkpt>
      <trkpt lat="45.03702" lon="5.74693">
        <ele>1217.8</ele>
        <time>2021-05-29T08:13:29Z</time>
      </trkpt>
      <trkpt lat="45.03702" lon="5.74691">
        <ele>1217.8</ele>
        <time>2021-05-29T08:13:30Z</time>
      </trkpt>
      <trkpt lat="45.03703" lon="5.74689">
        <ele>1217.8</ele>
        <time>2021-05-29T08:13:31Z</time>
      </trkpt>
      <trkpt lat="45.03704" lon="5.74687">
        <ele>1217.8</ele>
        <time>2021-05-29T08:13:32Z</time>
      </trkpt>
      <trkpt lat="45.03705" lon="5.74685">
        <ele>1217.6</ele>
        <time>2021-05-29T08:13:33Z</time>
      </trkpt>
      <trkpt lat="45.03705" lon="5.74683">
        <ele>1217.6</ele>
        <time>2021-05-29T08:13:34Z</time>
      </trkpt>
      <trkpt lat="45.03706" lon="5.74681">
        <ele>1217.6</ele>
        <time>2021-05-29T08:13:35Z</time>
      </trkpt>
      <trkpt lat="45.03707" lon="5.74679">
        <ele>1218.2</ele>
        <time>2021-05-29T08:13:36Z</time>
      </trkpt>
      <trkpt lat="45.03707" lon="5.74677">
        <ele>1218.2</ele>
        <time>2021-05-29T08:13:37Z</time>
      </trkpt>
      <trkpt lat="45.03707" lon="5.74675">
        <ele>1218.4</ele>
        <time>2021-05-29T08:13:38Z</time>
      </trkpt>
      <trkpt lat="45.03708" lon="5.74672">
        <ele>1218.2</ele>
        <time>2021-05-29T08:13:39Z</time>
      </trkpt>
      <trkpt lat="45.03708" lon="5.7467">
        <ele>1218.4</ele>
        <time>2021-05-29T08:13:40Z</time>
      </trkpt>
      <trkpt lat="45.03708" lon="5.74668">
        <ele>1218.2</ele>
        <time>2021-05-29T08:13:41Z</time>
      </trkpt>
      <trkpt lat="45.03708" lon="5.74665">
        <ele>1218.2</ele>
        <time>2021-05-29T08:13:42Z</time>
      </trkpt>
      <trkpt lat="45.03708" lon="5.74663">
        <ele>1218</ele>
        <time>2021-05-29T08:13:43Z</time>
      </trkpt>
      <trkpt lat="45.03707" lon="5.74662">
        <ele>1217.6</ele>
        <time>2021-05-29T08:13:44Z</time>
      </trkpt>
      <trkpt lat="45.03707" lon="5.7466">
        <ele>1217.4</ele>
        <time>2021-05-29T08:13:45Z</time>
      </trkpt>
      <trkpt lat="45.03706" lon="5.74658">
        <ele>1217.2</ele>
        <time>2021-05-29T08:13:46Z</time>
      </trkpt>
      <trkpt lat="45.03706" lon="5.74656">
        <ele>1217.4</ele>
        <time>2021-05-29T08:13:47Z</time>
      </trkpt>
      <trkpt lat="45.03705" lon="5.74655">
        <ele>1217.4</ele>
        <time>2021-05-29T08:13:48Z</time>
      </trkpt>
      <trkpt lat="45.03705" lon="5.74653">
        <ele>1217.8</ele>
        <time>2021-05-29T08:13:49Z</time>
      </trkpt>
      <trkpt lat="45.03705" lon="5.74652">
        <ele>1218</ele>
        <time>2021-05-29T08:13:50Z</time>
      </trkpt>
      <trkpt lat="45.03704" lon="5.74651">
        <ele>1217.8</ele>
        <time>2021-05-29T08:13:51Z</time>
      </trkpt>
      <trkpt lat="45.03704" lon="5.7465">
        <ele>1217.8</ele>
        <time>2021-05-29T08:13:52Z</time>
      </trkpt>
      <trkpt lat="45.03704" lon="5.74649">
        <ele>1217.6</ele>
        <time>2021-05-29T08:13:53Z</time>
      </trkpt>
      <trkpt lat="45.03704" lon="5.74648">
        <ele>1217.6</ele>
        <time>2021-05-29T08:13:54Z</time>
      </trkpt>
      <trkpt lat="45.03704" lon="5.74647">
        <ele>1217.6</ele>
        <time>2021-05-29T08:13:55Z</time>
      </trkpt>
      <trkpt lat="45.03704" lon="5.74646">
        <ele>1217.6</ele>
        <time>2021-05-29T08:13:56Z</time>
      </trkpt>
      <trkpt lat="45.03704" lon="5.74646">
        <ele>1217.8</ele>
        <time>2021-05-29T08:13:57Z</time>
      </trkpt>
      <trkpt lat="45.03704" lon="5.74645">
        <ele>1217.8</ele>
        <time>2021-05-29T08:13:58Z</time>
      </trkpt>
      <trkpt lat="45.03704" lon="5.74644">
        <ele>1217.8</ele>
        <time>2021-05-29T08:13:59Z</time>
      </trkpt>
      <trkpt lat="45.03704" lon="5.74643">
        <ele>1218</ele>
        <time>2021-05-29T08:14:00Z</time>
      </trkpt>
      <trkpt lat="45.03704" lon="5.74642">
        <ele>1218.2</ele>
        <time>2021-05-29T08:14:01Z</time>
      </trkpt>
      <trkpt lat="45.03704" lon="5.74641">
        <ele>1218.4</ele>
        <time>2021-05-29T08:14:02Z</time>
      </trkpt>
      <trkpt lat="45.03704" lon="5.7464">
        <ele>1218.8</ele>
        <time>2021-05-29T08:14:03Z</time>
      </trkpt>
      <trkpt lat="45.03703" lon="5.74637">
        <ele>1218.8</ele>
        <time>2021-05-29T08:14:04Z</time>
      </trkpt>
      <trkpt lat="45.03703" lon="5.74635">
        <ele>1219</ele>
        <time>2021-05-29T08:14:05Z</time>
      </trkpt>
      <trkpt lat="45.03702" lon="5.74632">
        <ele>1218.8</ele>
        <time>2021-05-29T08:14:06Z</time>
      </trkpt>
      <trkpt lat="45.03702" lon="5.74629">
        <ele>1219</ele>
        <time>2021-05-29T08:14:07Z</time>
      </trkpt>
      <trkpt lat="45.03701" lon="5.74627">
        <ele>1218.8</ele>
        <time>2021-05-29T08:14:08Z</time>
      </trkpt>
      <trkpt lat="45.037" lon="5.74623">
        <ele>1219</ele>
        <time>2021-05-29T08:14:09Z</time>
      </trkpt>
      <trkpt lat="45.03699" lon="5.7462">
        <ele>1218.8</ele>
        <time>2021-05-29T08:14:10Z</time>
      </trkpt>
      <trkpt lat="45.03699" lon="5.74617">
        <ele>1218.8</ele>
        <time>2021-05-29T08:14:11Z</time>
      </trkpt>
      <trkpt lat="45.03698" lon="5.74614">
        <ele>1218.8</ele>
        <time>2021-05-29T08:14:12Z</time>
      </trkpt>
      <trkpt lat="45.03698" lon="5.74613">
        <ele>1219.4</ele>
        <time>2021-05-29T08:14:13Z</time>
      </trkpt>
      <trkpt lat="45.03699" lon="5.74612">
        <ele>1219.2</ele>
        <time>2021-05-29T08:14:14Z</time>
      </trkpt>
      <trkpt lat="45.03699" lon="5.74611">
        <ele>1219.4</ele>
        <time>2021-05-29T08:14:15Z</time>
      </trkpt>
      <trkpt lat="45.03699" lon="5.7461">
        <ele>1219</ele>
        <time>2021-05-29T08:14:16Z</time>
      </trkpt>
      <trkpt lat="45.037" lon="5.74608">
        <ele>1218.8</ele>
        <time>2021-05-29T08:14:17Z</time>
      </trkpt>
      <trkpt lat="45.037" lon="5.74607">
        <ele>1218</ele>
        <time>2021-05-29T08:14:18Z</time>
      </trkpt>
      <trkpt lat="45.03701" lon="5.74606">
        <ele>1217.8</ele>
        <time>2021-05-29T08:14:19Z</time>
      </trkpt>
      <trkpt lat="45.03701" lon="5.74605">
        <ele>1217.4</ele>
        <time>2021-05-29T08:14:20Z</time>
      </trkpt>
      <trkpt lat="45.03701" lon="5.74604">
        <ele>1216.8</ele>
        <time>2021-05-29T08:14:21Z</time>
      </trkpt>
      <trkpt lat="45.03702" lon="5.74603">
        <ele>1216.4</ele>
        <time>2021-05-29T08:14:22Z</time>
      </trkpt>
      <trkpt lat="45.03705" lon="5.74598">
        <ele>1215.6</ele>
        <time>2021-05-29T08:14:23Z</time>
      </trkpt>
      <trkpt lat="45.03707" lon="5.74593">
        <ele>1215</ele>
        <time>2021-05-29T08:14:24Z</time>
      </trkpt>
      <trkpt lat="45.0371" lon="5.74589">
        <ele>1214.4</ele>
        <time>2021-05-29T08:14:25Z</time>
      </trkpt>
      <trkpt lat="45.03713" lon="5.74584">
        <ele>1214.6</ele>
        <time>2021-05-29T08:14:26Z</time>
      </trkpt>
      <trkpt lat="45.03715" lon="5.74579">
        <ele>1213.8</ele>
        <time>2021-05-29T08:14:27Z</time>
      </trkpt>
      <trkpt lat="45.03717" lon="5.7458">
        <ele>1213.4</ele>
        <time>2021-05-29T08:14:28Z</time>
      </trkpt>
      <trkpt lat="45.03719" lon="5.74581">
        <ele>1213.2</ele>
        <time>2021-05-29T08:14:29Z</time>
      </trkpt>
      <trkpt lat="45.03721" lon="5.74582">
        <ele>1213.2</ele>
        <time>2021-05-29T08:14:30Z</time>
      </trkpt>
      <trkpt lat="45.03723" lon="5.74583">
        <ele>1212.8</ele>
        <time>2021-05-29T08:14:31Z</time>
      </trkpt>
      <trkpt lat="45.03725" lon="5.74584">
        <ele>1212.6</ele>
        <time>2021-05-29T08:14:32Z</time>
      </trkpt>
      <trkpt lat="45.03726" lon="5.74585">
        <ele>1212.4</ele>
        <time>2021-05-29T08:14:33Z</time>
      </trkpt>
      <trkpt lat="45.03726" lon="5.74585">
        <ele>1212.2</ele>
        <time>2021-05-29T08:14:34Z</time>
      </trkpt>
      <trkpt lat="45.03727" lon="5.74586">
        <ele>1212</ele>
        <time>2021-05-29T08:14:35Z</time>
      </trkpt>
      <trkpt lat="45.03727" lon="5.74587">
        <ele>1212</ele>
        <time>2021-05-29T08:14:36Z</time>
      </trkpt>
      <trkpt lat="45.03728" lon="5.74587">
        <ele>1211.8</ele>
        <time>2021-05-29T08:14:37Z</time>
      </trkpt>
      <trkpt lat="45.03728" lon="5.74588">
        <ele>1211.8</ele>
        <time>2021-05-29T08:14:38Z</time>
      </trkpt>
      <trkpt lat="45.03728" lon="5.74589">
        <ele>1211.6</ele>
        <time>2021-05-29T08:14:39Z</time>
      </trkpt>
      <trkpt lat="45.03729" lon="5.74589">
        <ele>1211.4</ele>
        <time>2021-05-29T08:14:40Z</time>
      </trkpt>
      <trkpt lat="45.03729" lon="5.7459">
        <ele>1211.2</ele>
        <time>2021-05-29T08:14:41Z</time>
      </trkpt>
      <trkpt lat="45.0373" lon="5.74591">
        <ele>1211.4</ele>
        <time>2021-05-29T08:14:42Z</time>
      </trkpt>
      <trkpt lat="45.0373" lon="5.74591">
        <ele>1211</ele>
        <time>2021-05-29T08:14:43Z</time>
      </trkpt>
      <trkpt lat="45.03731" lon="5.74592">
        <ele>1210.6</ele>
        <time>2021-05-29T08:14:44Z</time>
      </trkpt>
      <trkpt lat="45.03731" lon="5.74593">
        <ele>1210.8</ele>
        <time>2021-05-29T08:14:45Z</time>
      </trkpt>
      <trkpt lat="45.03732" lon="5.74593">
        <ele>1210.6</ele>
        <time>2021-05-29T08:14:46Z</time>
      </trkpt>
      <trkpt lat="45.03732" lon="5.74594">
        <ele>1210.6</ele>
        <time>2021-05-29T08:14:47Z</time>
      </trkpt>
      <trkpt lat="45.03734" lon="5.74597">
        <ele>1210.2</ele>
        <time>2021-05-29T08:14:48Z</time>
      </trkpt>
      <trkpt lat="45.03735" lon="5.74599">
        <ele>1209.8</ele>
        <time>2021-05-29T08:14:49Z</time>
      </trkpt>
      <trkpt lat="45.03736" lon="5.74602">
        <ele>1209.8</ele>
        <time>2021-05-29T08:14:50Z</time>
      </trkpt>
      <trkpt lat="45.03738" lon="5.74604">
        <ele>1209.4</ele>
        <time>2021-05-29T08:14:51Z</time>
      </trkpt>
      <trkpt lat="45.03739" lon="5.74607">
        <ele>1209.4</ele>
        <time>2021-05-29T08:14:52Z</time>
      </trkpt>
      <trkpt lat="45.03741" lon="5.74608">
        <ele>1209</ele>
        <time>2021-05-29T08:14:53Z</time>
      </trkpt>
      <trkpt lat="45.03743" lon="5.7461">
        <ele>1208.6</ele>
        <time>2021-05-29T08:14:54Z</time>
      </trkpt>
      <trkpt lat="45.03744" lon="5.74611">
        <ele>1208.6</ele>
        <time>2021-05-29T08:14:55Z</time>
      </trkpt>
      <trkpt lat="45.03746" lon="5.74613">
        <ele>1208.2</ele>
        <time>2021-05-29T08:14:56Z</time>
      </trkpt>
      <trkpt lat="45.03747" lon="5.74614">
        <ele>1208.2</ele>
        <time>2021-05-29T08:14:57Z</time>
      </trkpt>
      <trkpt lat="45.03749" lon="5.74615">
        <ele>1207.8</ele>
        <time>2021-05-29T08:14:58Z</time>
      </trkpt>
      <trkpt lat="45.03751" lon="5.74617">
        <ele>1207.6</ele>
        <time>2021-05-29T08:14:59Z</time>
      </trkpt>
      <trkpt lat="45.03752" lon="5.74618">
        <ele>1207</ele>
        <time>2021-05-29T08:15:00Z</time>
      </trkpt>
      <trkpt lat="45.03754" lon="5.74619">
        <ele>1206.2</ele>
        <time>2021-05-29T08:15:01Z</time>
      </trkpt>
      <trkpt lat="45.03755" lon="5.7462">
        <ele>1206.6</ele>
        <time>2021-05-29T08:15:02Z</time>
      </trkpt>
      <trkpt lat="45.03757" lon="5.74621">
        <ele>1206.2</ele>
        <time>2021-05-29T08:15:03Z</time>
      </trkpt>
      <trkpt lat="45.03759" lon="5.74622">
        <ele>1206</ele>
        <time>2021-05-29T08:15:04Z</time>
      </trkpt>
      <trkpt lat="45.0376" lon="5.74622">
        <ele>1205.4</ele>
        <time>2021-05-29T08:15:05Z</time>
      </trkpt>
      <trkpt lat="45.03762" lon="5.74622">
        <ele>1205</ele>
        <time>2021-05-29T08:15:06Z</time>
      </trkpt>
      <trkpt lat="45.03764" lon="5.74623">
        <ele>1205.2</ele>
        <time>2021-05-29T08:15:07Z</time>
      </trkpt>
      <trkpt lat="45.03765" lon="5.74623">
        <ele>1204.8</ele>
        <time>2021-05-29T08:15:08Z</time>
      </trkpt>
      <trkpt lat="45.03767" lon="5.74623">
        <ele>1205</ele>
        <time>2021-05-29T08:15:09Z</time>
      </trkpt>
      <trkpt lat="45.03769" lon="5.74623">
        <ele>1204.8</ele>
        <time>2021-05-29T08:15:10Z</time>
      </trkpt>
      <trkpt lat="45.0377" lon="5.74623">
        <ele>1204.6</ele>
        <time>2021-05-29T08:15:11Z</time>
      </trkpt>
      <trkpt lat="45.03772" lon="5.74623">
        <ele>1203.6</ele>
        <time>2021-05-29T08:15:12Z</time>
      </trkpt>
      <trkpt lat="45.03774" lon="5.74623">
        <ele>1203.2</ele>
        <time>2021-05-29T08:15:13Z</time>
      </trkpt>
      <trkpt lat="45.03775" lon="5.74623">
        <ele>1203.6</ele>
        <time>2021-05-29T08:15:14Z</time>
      </trkpt>
      <trkpt lat="45.03777" lon="5.74623">
        <ele>1203.4</ele>
        <time>2021-05-29T08:15:15Z</time>
      </trkpt>
      <trkpt lat="45.03779" lon="5.74622">
        <ele>1203.4</ele>
        <time>2021-05-29T08:15:16Z</time>
      </trkpt>
      <trkpt lat="45.03782" lon="5.74622">
        <ele>1203</ele>
        <time>2021-05-29T08:15:17Z</time>
      </trkpt>
      <trkpt lat="45.03784" lon="5.74622">
        <ele>1203</ele>
        <time>2021-05-29T08:15:18Z</time>
      </trkpt>
      <trkpt lat="45.03786" lon="5.74621">
        <ele>1202.6</ele>
        <time>2021-05-29T08:15:19Z</time>
      </trkpt>
      <trkpt lat="45.03788" lon="5.74621">
        <ele>1202</ele>
        <time>2021-05-29T08:15:20Z</time>
      </trkpt>
      <trkpt lat="45.0379" lon="5.74621">
        <ele>1202</ele>
        <time>2021-05-29T08:15:21Z</time>
      </trkpt>
      <trkpt lat="45.03792" lon="5.74621">
        <ele>1201.6</ele>
        <time>2021-05-29T08:15:22Z</time>
      </trkpt>
      <trkpt lat="45.03794" lon="5.74621">
        <ele>1201.6</ele>
        <time>2021-05-29T08:15:23Z</time>
      </trkpt>
      <trkpt lat="45.03796" lon="5.7462">
        <ele>1201.4</ele>
        <time>2021-05-29T08:15:24Z</time>
      </trkpt>
      <trkpt lat="45.03798" lon="5.7462">
        <ele>1201.2</ele>
        <time>2021-05-29T08:15:25Z</time>
      </trkpt>
      <trkpt lat="45.03803" lon="5.74622">
        <ele>1200.8</ele>
        <time>2021-05-29T08:15:26Z</time>
      </trkpt>
      <trkpt lat="45.03807" lon="5.74623">
        <ele>1200.8</ele>
        <time>2021-05-29T08:15:27Z</time>
      </trkpt>
      <trkpt lat="45.03812" lon="5.74625">
        <ele>1200.4</ele>
        <time>2021-05-29T08:15:28Z</time>
      </trkpt>
      <trkpt lat="45.03816" lon="5.74626">
        <ele>1200.2</ele>
        <time>2021-05-29T08:15:29Z</time>
      </trkpt>
      <trkpt lat="45.03821" lon="5.7463">
        <ele>1199.8</ele>
        <time>2021-05-29T08:15:30Z</time>
      </trkpt>
      <trkpt lat="45.03824" lon="5.7463">
        <ele>1199.6</ele>
        <time>2021-05-29T08:15:31Z</time>
      </trkpt>
      <trkpt lat="45.03826" lon="5.7463">
        <ele>1199.4</ele>
        <time>2021-05-29T08:15:32Z</time>
      </trkpt>
      <trkpt lat="45.03831" lon="5.74631">
        <ele>1198.8</ele>
        <time>2021-05-29T08:15:33Z</time>
      </trkpt>
      <trkpt lat="45.03836" lon="5.74631">
        <ele>1198.4</ele>
        <time>2021-05-29T08:15:34Z</time>
      </trkpt>
      <trkpt lat="45.0384" lon="5.74632">
        <ele>1198.2</ele>
        <time>2021-05-29T08:15:35Z</time>
      </trkpt>
      <trkpt lat="45.03845" lon="5.74633">
        <ele>1198</ele>
        <time>2021-05-29T08:15:36Z</time>
      </trkpt>
      <trkpt lat="45.0385" lon="5.74633">
        <ele>1197.8</ele>
        <time>2021-05-29T08:15:37Z</time>
      </trkpt>
      <trkpt lat="45.03855" lon="5.74632">
        <ele>1198.2</ele>
        <time>2021-05-29T08:15:38Z</time>
      </trkpt>
      <trkpt lat="45.03856" lon="5.74633">
        <ele>1198</ele>
        <time>2021-05-29T08:15:39Z</time>
      </trkpt>
      <trkpt lat="45.03858" lon="5.74634">
        <ele>1198.2</ele>
        <time>2021-05-29T08:15:40Z</time>
      </trkpt>
      <trkpt lat="45.03859" lon="5.74635">
        <ele>1198</ele>
        <time>2021-05-29T08:15:41Z</time>
      </trkpt>
      <trkpt lat="45.03864" lon="5.74638">
        <ele>1198.2</ele>
        <time>2021-05-29T08:15:42Z</time>
      </trkpt>
      <trkpt lat="45.03868" lon="5.74641">
        <ele>1198</ele>
        <time>2021-05-29T08:15:43Z</time>
      </trkpt>
      <trkpt lat="45.03872" lon="5.74644">
        <ele>1198.4</ele>
        <time>2021-05-29T08:15:44Z</time>
      </trkpt>
      <trkpt lat="45.03879" lon="5.74649">
        <ele>1198.2</ele>
        <time>2021-05-29T08:15:45Z</time>
      </trkpt>
      <trkpt lat="45.03882" lon="5.74648">
        <ele>1198.4</ele>
        <time>2021-05-29T08:15:46Z</time>
      </trkpt>
      <trkpt lat="45.03887" lon="5.74646">
        <ele>1198</ele>
        <time>2021-05-29T08:15:47Z</time>
      </trkpt>
      <trkpt lat="45.03887" lon="5.74646">
        <ele>1198</ele>
        <time>2021-05-29T08:15:48Z</time>
      </trkpt>
      <trkpt lat="45.03887" lon="5.74646">
        <ele>1197.6</ele>
        <time>2021-05-29T08:15:49Z</time>
      </trkpt>
      <trkpt lat="45.03887" lon="5.74646">
        <ele>1197.6</ele>
        <time>2021-05-29T08:15:50Z</time>
      </trkpt>
      <trkpt lat="45.0389" lon="5.74646">
        <ele>1197.2</ele>
        <time>2021-05-29T08:15:51Z</time>
      </trkpt>
      <trkpt lat="45.03892" lon="5.74646">
        <ele>1196.8</ele>
        <time>2021-05-29T08:15:52Z</time>
      </trkpt>
      <trkpt lat="45.03895" lon="5.74646">
        <ele>1197</ele>
        <time>2021-05-29T08:15:53Z</time>
      </trkpt>
      <trkpt lat="45.03898" lon="5.74646">
        <ele>1196.8</ele>
        <time>2021-05-29T08:15:54Z</time>
      </trkpt>
      <trkpt lat="45.039" lon="5.74646">
        <ele>1197</ele>
        <time>2021-05-29T08:15:55Z</time>
      </trkpt>
      <trkpt lat="45.03903" lon="5.74646">
        <ele>1196.8</ele>
        <time>2021-05-29T08:15:56Z</time>
      </trkpt>
      <trkpt lat="45.03908" lon="5.74646">
        <ele>1197</ele>
        <time>2021-05-29T08:15:57Z</time>
      </trkpt>
      <trkpt lat="45.03909" lon="5.74646">
        <ele>1197</ele>
        <time>2021-05-29T08:15:58Z</time>
      </trkpt>
      <trkpt lat="45.0391" lon="5.74646">
        <ele>1197</ele>
        <time>2021-05-29T08:15:59Z</time>
      </trkpt>
      <trkpt lat="45.03911" lon="5.74647">
        <ele>1196.6</ele>
        <time>2021-05-29T08:16:00Z</time>
      </trkpt>
      <trkpt lat="45.03912" lon="5.74647">
        <ele>1196.8</ele>
        <time>2021-05-29T08:16:01Z</time>
      </trkpt>
      <trkpt lat="45.03916" lon="5.74648">
        <ele>1196.2</ele>
        <time>2021-05-29T08:16:02Z</time>
      </trkpt>
      <trkpt lat="45.03919" lon="5.74649">
        <ele>1196.2</ele>
        <time>2021-05-29T08:16:03Z</time>
      </trkpt>
      <trkpt lat="45.03923" lon="5.7465">
        <ele>1195.8</ele>
        <time>2021-05-29T08:16:04Z</time>
      </trkpt>
      <trkpt lat="45.03928" lon="5.74652">
        <ele>1195.8</ele>
        <time>2021-05-29T08:16:05Z</time>
      </trkpt>
      <trkpt lat="45.0393" lon="5.74653">
        <ele>1195.4</ele>
        <time>2021-05-29T08:16:06Z</time>
      </trkpt>
      <trkpt lat="45.03932" lon="5.74653">
        <ele>1194.8</ele>
        <time>2021-05-29T08:16:07Z</time>
      </trkpt>
      <trkpt lat="45.03934" lon="5.74654">
        <ele>1194.8</ele>
        <time>2021-05-29T08:16:08Z</time>
      </trkpt>
      <trkpt lat="45.03937" lon="5.74655">
        <ele>1194.6</ele>
        <time>2021-05-29T08:16:09Z</time>
      </trkpt>
      <trkpt lat="45.03937" lon="5.74655">
        <ele>1195</ele>
        <time>2021-05-29T08:16:10Z</time>
      </trkpt>
      <trkpt lat="45.03937" lon="5.74655">
        <ele>1194.6</ele>
        <time>2021-05-29T08:16:11Z</time>
      </trkpt>
      <trkpt lat="45.03937" lon="5.74655">
        <ele>1194.8</ele>
        <time>2021-05-29T08:16:12Z</time>
      </trkpt>
      <trkpt lat="45.03939" lon="5.74657">
        <ele>1194.6</ele>
        <time>2021-05-29T08:16:13Z</time>
      </trkpt>
      <trkpt lat="45.03941" lon="5.74658">
        <ele>1194.6</ele>
        <time>2021-05-29T08:16:14Z</time>
      </trkpt>
      <trkpt lat="45.03943" lon="5.74659">
        <ele>1194.4</ele>
        <time>2021-05-29T08:16:15Z</time>
      </trkpt>
      <trkpt lat="45.03945" lon="5.7466">
        <ele>1194.4</ele>
        <time>2021-05-29T08:16:16Z</time>
      </trkpt>
      <trkpt lat="45.03947" lon="5.74661">
        <ele>1194.2</ele>
        <time>2021-05-29T08:16:17Z</time>
      </trkpt>
      <trkpt lat="45.03949" lon="5.74663">
        <ele>1194</ele>
        <time>2021-05-29T08:16:18Z</time>
      </trkpt>
      <trkpt lat="45.0395" lon="5.74664">
        <ele>1193.6</ele>
        <time>2021-05-29T08:16:19Z</time>
      </trkpt>
      <trkpt lat="45.03952" lon="5.74665">
        <ele>1193.2</ele>
        <time>2021-05-29T08:16:20Z</time>
      </trkpt>
      <trkpt lat="45.03954" lon="5.74666">
        <ele>1193.2</ele>
        <time>2021-05-29T08:16:21Z</time>
      </trkpt>
      <trkpt lat="45.03955" lon="5.74667">
        <ele>1193</ele>
        <time>2021-05-29T08:16:22Z</time>
      </trkpt>
      <trkpt lat="45.03957" lon="5.74668">
        <ele>1193</ele>
        <time>2021-05-29T08:16:23Z</time>
      </trkpt>
      <trkpt lat="45.03958" lon="5.7467">
        <ele>1192.6</ele>
        <time>2021-05-29T08:16:24Z</time>
      </trkpt>
      <trkpt lat="45.0396" lon="5.74671">
        <ele>1192.6</ele>
        <time>2021-05-29T08:16:25Z</time>
      </trkpt>
      <trkpt lat="45.03962" lon="5.74672">
        <ele>1192</ele>
        <time>2021-05-29T08:16:26Z</time>
      </trkpt>
      <trkpt lat="45.03964" lon="5.74673">
        <ele>1191.8</ele>
        <time>2021-05-29T08:16:27Z</time>
      </trkpt>
      <trkpt lat="45.03966" lon="5.74675">
        <ele>1191.4</ele>
        <time>2021-05-29T08:16:28Z</time>
      </trkpt>
      <trkpt lat="45.03968" lon="5.74676">
        <ele>1191.2</ele>
        <time>2021-05-29T08:16:29Z</time>
      </trkpt>
      <trkpt lat="45.03971" lon="5.74678">
        <ele>1190.4</ele>
        <time>2021-05-29T08:16:30Z</time>
      </trkpt>
      <trkpt lat="45.03973" lon="5.74679">
        <ele>1190.2</ele>
        <time>2021-05-29T08:16:31Z</time>
      </trkpt>
      <trkpt lat="45.03975" lon="5.74681">
        <ele>1190.4</ele>
        <time>2021-05-29T08:16:32Z</time>
      </trkpt>
      <trkpt lat="45.03977" lon="5.74683">
        <ele>1190</ele>
        <time>2021-05-29T08:16:33Z</time>
      </trkpt>
      <trkpt lat="45.03979" lon="5.74685">
        <ele>1190.4</ele>
        <time>2021-05-29T08:16:34Z</time>
      </trkpt>
      <trkpt lat="45.03982" lon="5.74689">
        <ele>1190.2</ele>
        <time>2021-05-29T08:16:35Z</time>
      </trkpt>
      <trkpt lat="45.03985" lon="5.74693">
        <ele>1190.6</ele>
        <time>2021-05-29T08:16:36Z</time>
      </trkpt>
      <trkpt lat="45.03988" lon="5.74696">
        <ele>1190.4</ele>
        <time>2021-05-29T08:16:37Z</time>
      </trkpt>
      <trkpt lat="45.0399" lon="5.747">
        <ele>1190.6</ele>
        <time>2021-05-29T08:16:38Z</time>
      </trkpt>
      <trkpt lat="45.03995" lon="5.74707">
        <ele>1190.2</ele>
        <time>2021-05-29T08:16:39Z</time>
      </trkpt>
      <trkpt lat="45.03997" lon="5.7471">
        <ele>1190.2</ele>
        <time>2021-05-29T08:16:40Z</time>
      </trkpt>
      <trkpt lat="45.03998" lon="5.74712">
        <ele>1190</ele>
        <time>2021-05-29T08:16:41Z</time>
      </trkpt>
      <trkpt lat="45.03999" lon="5.74714">
        <ele>1189.6</ele>
        <time>2021-05-29T08:16:42Z</time>
      </trkpt>
      <trkpt lat="45.04" lon="5.74717">
        <ele>1188.6</ele>
        <time>2021-05-29T08:16:43Z</time>
      </trkpt>
      <trkpt lat="45.04" lon="5.74717">
        <ele>1188.2</ele>
        <time>2021-05-29T08:16:44Z</time>
      </trkpt>
      <trkpt lat="45.04" lon="5.74717">
        <ele>1188.6</ele>
        <time>2021-05-29T08:16:45Z</time>
      </trkpt>
      <trkpt lat="45.04" lon="5.74717">
        <ele>1188.2</ele>
        <time>2021-05-29T08:16:46Z</time>
      </trkpt>
      <trkpt lat="45.04002" lon="5.7472">
        <ele>1188.2</ele>
        <time>2021-05-29T08:16:47Z</time>
      </trkpt>
      <trkpt lat="45.04003" lon="5.74723">
        <ele>1187.8</ele>
        <time>2021-05-29T08:16:48Z</time>
      </trkpt>
      <trkpt lat="45.04005" lon="5.74726">
        <ele>1188</ele>
        <time>2021-05-29T08:16:49Z</time>
      </trkpt>
      <trkpt lat="45.04006" lon="5.74729">
        <ele>1187.8</ele>
        <time>2021-05-29T08:16:50Z</time>
      </trkpt>
      <trkpt lat="45.04007" lon="5.74735">
        <ele>1187.4</ele>
        <time>2021-05-29T08:16:51Z</time>
      </trkpt>
      <trkpt lat="45.04008" lon="5.74741">
        <ele>1187</ele>
        <time>2021-05-29T08:16:52Z</time>
      </trkpt>
      <trkpt lat="45.0401" lon="5.74746">
        <ele>1186.8</ele>
        <time>2021-05-29T08:16:53Z</time>
      </trkpt>
      <trkpt lat="45.04011" lon="5.74752">
        <ele>1186.2</ele>
        <time>2021-05-29T08:16:54Z</time>
      </trkpt>
      <trkpt lat="45.04012" lon="5.74758">
        <ele>1185.4</ele>
        <time>2021-05-29T08:16:55Z</time>
      </trkpt>
      <trkpt lat="45.04012" lon="5.74758">
        <ele>1185.6</ele>
        <time>2021-05-29T08:16:56Z</time>
      </trkpt>
      <trkpt lat="45.04012" lon="5.74758">
        <ele>1185.2</ele>
        <time>2021-05-29T08:16:57Z</time>
      </trkpt>
      <trkpt lat="45.04012" lon="5.74758">
        <ele>1185.4</ele>
        <time>2021-05-29T08:16:58Z</time>
      </trkpt>
      <trkpt lat="45.04013" lon="5.74761">
        <ele>1185</ele>
        <time>2021-05-29T08:16:59Z</time>
      </trkpt>
      <trkpt lat="45.04013" lon="5.74764">
        <ele>1185.2</ele>
        <time>2021-05-29T08:17:00Z</time>
      </trkpt>
      <trkpt lat="45.04014" lon="5.74766">
        <ele>1184.8</ele>
        <time>2021-05-29T08:17:01Z</time>
      </trkpt>
      <trkpt lat="45.04015" lon="5.74769">
        <ele>1184.6</ele>
        <time>2021-05-29T08:17:02Z</time>
      </trkpt>
      <trkpt lat="45.04016" lon="5.74772">
        <ele>1184.2</ele>
        <time>2021-05-29T08:17:03Z</time>
      </trkpt>
      <trkpt lat="45.04017" lon="5.74774">
        <ele>1183.6</ele>
        <time>2021-05-29T08:17:04Z</time>
      </trkpt>
      <trkpt lat="45.04017" lon="5.74777">
        <ele>1183.6</ele>
        <time>2021-05-29T08:17:05Z</time>
      </trkpt>
      <trkpt lat="45.04018" lon="5.7478">
        <ele>1183.4</ele>
        <time>2021-05-29T08:17:06Z</time>
      </trkpt>
      <trkpt lat="45.04019" lon="5.74782">
        <ele>1183.4</ele>
        <time>2021-05-29T08:17:07Z</time>
      </trkpt>
      <trkpt lat="45.0402" lon="5.74785">
        <ele>1183</ele>
        <time>2021-05-29T08:17:08Z</time>
      </trkpt>
      <trkpt lat="45.04021" lon="5.74787">
        <ele>1182.6</ele>
        <time>2021-05-29T08:17:09Z</time>
      </trkpt>
      <trkpt lat="45.04023" lon="5.7479">
        <ele>1182.4</ele>
        <time>2021-05-29T08:17:10Z</time>
      </trkpt>
      <trkpt lat="45.04024" lon="5.74792">
        <ele>1182</ele>
        <time>2021-05-29T08:17:11Z</time>
      </trkpt>
      <trkpt lat="45.04026" lon="5.74794">
        <ele>1182.4</ele>
        <time>2021-05-29T08:17:12Z</time>
      </trkpt>
      <trkpt lat="45.04027" lon="5.74796">
        <ele>1181.8</ele>
        <time>2021-05-29T08:17:13Z</time>
      </trkpt>
      <trkpt lat="45.04031" lon="5.74799">
        <ele>1181.6</ele>
        <time>2021-05-29T08:17:14Z</time>
      </trkpt>
      <trkpt lat="45.04035" lon="5.74802">
        <ele>1180.8</ele>
        <time>2021-05-29T08:17:15Z</time>
      </trkpt>
      <trkpt lat="45.04038" lon="5.74805">
        <ele>1180.2</ele>
        <time>2021-05-29T08:17:16Z</time>
      </trkpt>
      <trkpt lat="45.04042" lon="5.74807">
        <ele>1180.2</ele>
        <time>2021-05-29T08:17:17Z</time>
      </trkpt>
      <trkpt lat="45.04047" lon="5.7481">
        <ele>1180</ele>
        <time>2021-05-29T08:17:18Z</time>
      </trkpt>
      <trkpt lat="45.04048" lon="5.74811">
        <ele>1180</ele>
        <time>2021-05-29T08:17:19Z</time>
      </trkpt>
      <trkpt lat="45.04048" lon="5.74811">
        <ele>1179.6</ele>
        <time>2021-05-29T08:17:20Z</time>
      </trkpt>
      <trkpt lat="45.04049" lon="5.74812">
        <ele>1179.2</ele>
        <time>2021-05-29T08:17:21Z</time>
      </trkpt>
      <trkpt lat="45.0405" lon="5.74813">
        <ele>1178.8</ele>
        <time>2021-05-29T08:17:22Z</time>
      </trkpt>
      <trkpt lat="45.04053" lon="5.74815">
        <ele>1178.2</ele>
        <time>2021-05-29T08:17:23Z</time>
      </trkpt>
      <trkpt lat="45.04056" lon="5.74818">
        <ele>1178.2</ele>
        <time>2021-05-29T08:17:24Z</time>
      </trkpt>
      <trkpt lat="45.0406" lon="5.7482">
        <ele>1177.8</ele>
        <time>2021-05-29T08:17:25Z</time>
      </trkpt>
      <trkpt lat="45.04063" lon="5.74822">
        <ele>1178</ele>
        <time>2021-05-29T08:17:26Z</time>
      </trkpt>
      <trkpt lat="45.04066" lon="5.74824">
        <ele>1177.4</ele>
        <time>2021-05-29T08:17:27Z</time>
      </trkpt>
      <trkpt lat="45.04067" lon="5.74825">
        <ele>1177</ele>
        <time>2021-05-29T08:17:28Z</time>
      </trkpt>
      <trkpt lat="45.04069" lon="5.74826">
        <ele>1176.6</ele>
        <time>2021-05-29T08:17:29Z</time>
      </trkpt>
      <trkpt lat="45.04073" lon="5.74832">
        <ele>1176.4</ele>
        <time>2021-05-29T08:17:30Z</time>
      </trkpt>
      <trkpt lat="45.04076" lon="5.74838">
        <ele>1176.4</ele>
        <time>2021-05-29T08:17:31Z</time>
      </trkpt>
      <trkpt lat="45.0408" lon="5.74844">
        <ele>1175.8</ele>
        <time>2021-05-29T08:17:32Z</time>
      </trkpt>
      <trkpt lat="45.04083" lon="5.7485">
        <ele>1176</ele>
        <time>2021-05-29T08:17:33Z</time>
      </trkpt>
      <trkpt lat="45.04087" lon="5.74856">
        <ele>1175.4</ele>
        <time>2021-05-29T08:17:34Z</time>
      </trkpt>
      <trkpt lat="45.0409" lon="5.74862">
        <ele>1174.8</ele>
        <time>2021-05-29T08:17:35Z</time>
      </trkpt>
      <trkpt lat="45.04094" lon="5.74868">
        <ele>1174.8</ele>
        <time>2021-05-29T08:17:36Z</time>
      </trkpt>
      <trkpt lat="45.04098" lon="5.74874">
        <ele>1174.4</ele>
        <time>2021-05-29T08:17:37Z</time>
      </trkpt>
      <trkpt lat="45.04101" lon="5.7488">
        <ele>1174</ele>
        <time>2021-05-29T08:17:38Z</time>
      </trkpt>
      <trkpt lat="45.04133" lon="5.74934">
        <ele>1173.4</ele>
        <time>2021-05-29T08:17:39Z</time>
      </trkpt>
      <trkpt lat="45.04133" lon="5.74934">
        <ele>1172.8</ele>
        <time>2021-05-29T08:17:40Z</time>
      </trkpt>
      <trkpt lat="45.04134" lon="5.74937">
        <ele>1172.8</ele>
        <time>2021-05-29T08:17:41Z</time>
      </trkpt>
      <trkpt lat="45.04134" lon="5.7494">
        <ele>1172.4</ele>
        <time>2021-05-29T08:17:42Z</time>
      </trkpt>
      <trkpt lat="45.04135" lon="5.74944">
        <ele>1172.2</ele>
        <time>2021-05-29T08:17:43Z</time>
      </trkpt>
      <trkpt lat="45.04136" lon="5.74947">
        <ele>1172</ele>
        <time>2021-05-29T08:17:44Z</time>
      </trkpt>
      <trkpt lat="45.04136" lon="5.74947">
        <ele>1171.6</ele>
        <time>2021-05-29T08:17:45Z</time>
      </trkpt>
      <trkpt lat="45.04136" lon="5.74947">
        <ele>1171.2</ele>
        <time>2021-05-29T08:17:46Z</time>
      </trkpt>
      <trkpt lat="45.04136" lon="5.74947">
        <ele>1171</ele>
        <time>2021-05-29T08:17:47Z</time>
      </trkpt>
      <trkpt lat="45.04137" lon="5.74947">
        <ele>1170.6</ele>
        <time>2021-05-29T08:17:48Z</time>
      </trkpt>
      <trkpt lat="45.04137" lon="5.74947">
        <ele>1170.2</ele>
        <time>2021-05-29T08:17:49Z</time>
      </trkpt>
      <trkpt lat="45.04137" lon="5.74947">
        <ele>1170</ele>
        <time>2021-05-29T08:17:50Z</time>
      </trkpt>
      <trkpt lat="45.04138" lon="5.74946">
        <ele>1169.8</ele>
        <time>2021-05-29T08:17:51Z</time>
      </trkpt>
      <trkpt lat="45.04138" lon="5.74946">
        <ele>1170</ele>
        <time>2021-05-29T08:17:52Z</time>
      </trkpt>
      <trkpt lat="45.04138" lon="5.74946">
        <ele>1170.4</ele>
        <time>2021-05-29T08:17:53Z</time>
      </trkpt>
      <trkpt lat="45.04139" lon="5.74946">
        <ele>1170.6</ele>
        <time>2021-05-29T08:17:54Z</time>
      </trkpt>
      <trkpt lat="45.04139" lon="5.74946">
        <ele>1170.4</ele>
        <time>2021-05-29T08:17:55Z</time>
      </trkpt>
      <trkpt lat="45.04139" lon="5.74946">
        <ele>1170.2</ele>
        <time>2021-05-29T08:17:56Z</time>
      </trkpt>
      <trkpt lat="45.04139" lon="5.74946">
        <ele>1170</ele>
        <time>2021-05-29T08:17:57Z</time>
      </trkpt>
      <trkpt lat="45.0414" lon="5.74946">
        <ele>1169.8</ele>
        <time>2021-05-29T08:17:58Z</time>
      </trkpt>
      <trkpt lat="45.0414" lon="5.74946">
        <ele>1169.8</ele>
        <time>2021-05-29T08:17:59Z</time>
      </trkpt>
      <trkpt lat="45.0414" lon="5.74946">
        <ele>1169.6</ele>
        <time>2021-05-29T08:18:00Z</time>
      </trkpt>
      <trkpt lat="45.04141" lon="5.74946">
        <ele>1169.6</ele>
        <time>2021-05-29T08:18:01Z</time>
      </trkpt>
      <trkpt lat="45.04141" lon="5.74946">
        <ele>1169.6</ele>
        <time>2021-05-29T08:18:02Z</time>
      </trkpt>
      <trkpt lat="45.04141" lon="5.74946">
        <ele>1169.6</ele>
        <time>2021-05-29T08:18:03Z</time>
      </trkpt>
      <trkpt lat="45.04142" lon="5.74946">
        <ele>1169.8</ele>
        <time>2021-05-29T08:18:04Z</time>
      </trkpt>
      <trkpt lat="45.04142" lon="5.74945">
        <ele>1170</ele>
        <time>2021-05-29T08:18:05Z</time>
      </trkpt>
      <trkpt lat="45.04142" lon="5.74945">
        <ele>1170</ele>
        <time>2021-05-29T08:18:06Z</time>
      </trkpt>
      <trkpt lat="45.04142" lon="5.74945">
        <ele>1169.8</ele>
        <time>2021-05-29T08:18:07Z</time>
      </trkpt>
      <trkpt lat="45.04142" lon="5.74944">
        <ele>1169.8</ele>
        <time>2021-05-29T08:18:08Z</time>
      </trkpt>
      <trkpt lat="45.04141" lon="5.74943">
        <ele>1169.8</ele>
        <time>2021-05-29T08:18:09Z</time>
      </trkpt>
      <trkpt lat="45.04141" lon="5.74942">
        <ele>1169.8</ele>
        <time>2021-05-29T08:18:10Z</time>
      </trkpt>
      <trkpt lat="45.0414" lon="5.74941">
        <ele>1169.8</ele>
        <time>2021-05-29T08:18:11Z</time>
      </trkpt>
      <trkpt lat="45.04139" lon="5.7494">
        <ele>1169.8</ele>
        <time>2021-05-29T08:18:12Z</time>
      </trkpt>
      <trkpt lat="45.04139" lon="5.74939">
        <ele>1169.8</ele>
        <time>2021-05-29T08:18:13Z</time>
      </trkpt>
      <trkpt lat="45.04138" lon="5.74938">
        <ele>1169.8</ele>
        <time>2021-05-29T08:18:14Z</time>
      </trkpt>
      <trkpt lat="45.04138" lon="5.74937">
        <ele>1169.8</ele>
        <time>2021-05-29T08:18:15Z</time>
      </trkpt>
      <trkpt lat="45.04137" lon="5.74936">
        <ele>1169.8</ele>
        <time>2021-05-29T08:18:16Z</time>
      </trkpt>
      <trkpt lat="45.04136" lon="5.74935">
        <ele>1169.8</ele>
        <time>2021-05-29T08:18:17Z</time>
      </trkpt>
      <trkpt lat="45.04136" lon="5.74934">
        <ele>1169.8</ele>
        <time>2021-05-29T08:18:18Z</time>
      </trkpt>
      <trkpt lat="45.04135" lon="5.74933">
        <ele>1169.8</ele>
        <time>2021-05-29T08:18:19Z</time>
      </trkpt>
      <trkpt lat="45.04134" lon="5.74932">
        <ele>1169.8</ele>
        <time>2021-05-29T08:18:20Z</time>
      </trkpt>
      <trkpt lat="45.04133" lon="5.74931">
        <ele>1169.8</ele>
        <time>2021-05-29T08:18:21Z</time>
      </trkpt>
      <trkpt lat="45.04132" lon="5.7493">
        <ele>1169.8</ele>
        <time>2021-05-29T08:18:22Z</time>
      </trkpt>
      <trkpt lat="45.04131" lon="5.74929">
        <ele>1169.8</ele>
        <time>2021-05-29T08:18:23Z</time>
      </trkpt>
      <trkpt lat="45.0413" lon="5.74928">
        <ele>1169.8</ele>
        <time>2021-05-29T08:18:24Z</time>
      </trkpt>
      <trkpt lat="45.04129" lon="5.74927">
        <ele>1169.6</ele>
        <time>2021-05-29T08:18:25Z</time>
      </trkpt>
      <trkpt lat="45.04129" lon="5.74925">
        <ele>1169.6</ele>
        <time>2021-05-29T08:18:26Z</time>
      </trkpt>
      <trkpt lat="45.0413" lon="5.74924">
        <ele>1169.6</ele>
        <time>2021-05-29T08:18:27Z</time>
      </trkpt>
      <trkpt lat="45.0413" lon="5.74923">
        <ele>1169.6</ele>
        <time>2021-05-29T08:18:28Z</time>
      </trkpt>
      <trkpt lat="45.0413" lon="5.74922">
        <ele>1169.4</ele>
        <time>2021-05-29T08:18:29Z</time>
      </trkpt>
      <trkpt lat="45.04131" lon="5.74921">
        <ele>1169.6</ele>
        <time>2021-05-29T08:18:30Z</time>
      </trkpt>
      <trkpt lat="45.04131" lon="5.74919">
        <ele>1169.6</ele>
        <time>2021-05-29T08:18:31Z</time>
      </trkpt>
      <trkpt lat="45.04132" lon="5.74918">
        <ele>1169.4</ele>
        <time>2021-05-29T08:18:32Z</time>
      </trkpt>
      <trkpt lat="45.04132" lon="5.74917">
        <ele>1169.4</ele>
        <time>2021-05-29T08:18:33Z</time>
      </trkpt>
      <trkpt lat="45.04133" lon="5.74916">
        <ele>1169.4</ele>
        <time>2021-05-29T08:18:34Z</time>
      </trkpt>
      <trkpt lat="45.04133" lon="5.74915">
        <ele>1169.4</ele>
        <time>2021-05-29T08:18:35Z</time>
      </trkpt>
      <trkpt lat="45.04133" lon="5.74915">
        <ele>1169.2</ele>
        <time>2021-05-29T08:18:36Z</time>
      </trkpt>
      <trkpt lat="45.04133" lon="5.74915">
        <ele>1169.2</ele>
        <time>2021-05-29T08:18:37Z</time>
      </trkpt>
      <trkpt lat="45.04133" lon="5.74915">
        <ele>1169.2</ele>
        <time>2021-05-29T08:18:38Z</time>
      </trkpt>
      <trkpt lat="45.04134" lon="5.74912">
        <ele>1169</ele>
        <time>2021-05-29T08:18:39Z</time>
      </trkpt>
      <trkpt lat="45.04134" lon="5.74912">
        <ele>1169.2</ele>
        <time>2021-05-29T08:18:40Z</time>
      </trkpt>
      <trkpt lat="45.04134" lon="5.74912">
        <ele>1169.2</ele>
        <time>2021-05-29T08:18:41Z</time>
      </trkpt>
      <trkpt lat="45.04134" lon="5.74912">
        <ele>1169.2</ele>
        <time>2021-05-29T08:18:42Z</time>
      </trkpt>
      <trkpt lat="45.04134" lon="5.74912">
        <ele>1169.4</ele>
        <time>2021-05-29T08:18:43Z</time>
      </trkpt>
      <trkpt lat="45.04134" lon="5.74912">
        <ele>1169.2</ele>
        <time>2021-05-29T08:18:44Z</time>
      </trkpt>
      <trkpt lat="45.04134" lon="5.74912">
        <ele>1169.2</ele>
        <time>2021-05-29T08:18:45Z</time>
      </trkpt>
      <trkpt lat="45.04136" lon="5.74914">
        <ele>1169.2</ele>
        <time>2021-05-29T08:18:46Z</time>
      </trkpt>
      <trkpt lat="45.04136" lon="5.74914">
        <ele>1169.4</ele>
        <time>2021-05-29T08:18:47Z</time>
      </trkpt>
      <trkpt lat="45.04136" lon="5.74914">
        <ele>1169.2</ele>
        <time>2021-05-29T08:18:48Z</time>
      </trkpt>
      <trkpt lat="45.04137" lon="5.74914">
        <ele>1169</ele>
        <time>2021-05-29T08:18:49Z</time>
      </trkpt>
      <trkpt lat="45.04139" lon="5.74915">
        <ele>1168.8</ele>
        <time>2021-05-29T08:18:50Z</time>
      </trkpt>
      <trkpt lat="45.0414" lon="5.74915">
        <ele>1168.6</ele>
        <time>2021-05-29T08:18:51Z</time>
      </trkpt>
      <trkpt lat="45.04141" lon="5.74916">
        <ele>1168.6</ele>
        <time>2021-05-29T08:18:52Z</time>
      </trkpt>
      <trkpt lat="45.04142" lon="5.74917">
        <ele>1168.4</ele>
        <time>2021-05-29T08:18:53Z</time>
      </trkpt>
      <trkpt lat="45.04144" lon="5.74917">
        <ele>1168.2</ele>
        <time>2021-05-29T08:18:54Z</time>
      </trkpt>
      <trkpt lat="45.04145" lon="5.74918">
        <ele>1168</ele>
        <time>2021-05-29T08:18:55Z</time>
      </trkpt>
      <trkpt lat="45.04146" lon="5.74921">
        <ele>1167.8</ele>
        <time>2021-05-29T08:18:56Z</time>
      </trkpt>
      <trkpt lat="45.04147" lon="5.74925">
        <ele>1167.8</ele>
        <time>2021-05-29T08:18:57Z</time>
      </trkpt>
      <trkpt lat="45.04147" lon="5.74928">
        <ele>1167.6</ele>
        <time>2021-05-29T08:18:58Z</time>
      </trkpt>
      <trkpt lat="45.04148" lon="5.74931">
        <ele>1167.4</ele>
        <time>2021-05-29T08:18:59Z</time>
      </trkpt>
      <trkpt lat="45.04149" lon="5.74933">
        <ele>1167.4</ele>
        <time>2021-05-29T08:19:00Z</time>
      </trkpt>
      <trkpt lat="45.0415" lon="5.74936">
        <ele>1167.2</ele>
        <time>2021-05-29T08:19:01Z</time>
      </trkpt>
      <trkpt lat="45.04151" lon="5.74938">
        <ele>1167.4</ele>
        <time>2021-05-29T08:19:02Z</time>
      </trkpt>
      <trkpt lat="45.04152" lon="5.7494">
        <ele>1167.2</ele>
        <time>2021-05-29T08:19:03Z</time>
      </trkpt>
      <trkpt lat="45.04153" lon="5.74942">
        <ele>1167</ele>
        <time>2021-05-29T08:19:04Z</time>
      </trkpt>
      <trkpt lat="45.04154" lon="5.74943">
        <ele>1166.8</ele>
        <time>2021-05-29T08:19:05Z</time>
      </trkpt>
      <trkpt lat="45.04154" lon="5.74942">
        <ele>1166.8</ele>
        <time>2021-05-29T08:19:06Z</time>
      </trkpt>
      <trkpt lat="45.04155" lon="5.74942">
        <ele>1166.8</ele>
        <time>2021-05-29T08:19:07Z</time>
      </trkpt>
      <trkpt lat="45.04155" lon="5.74942">
        <ele>1166.8</ele>
        <time>2021-05-29T08:19:08Z</time>
      </trkpt>
      <trkpt lat="45.04156" lon="5.74942">
        <ele>1166.8</ele>
        <time>2021-05-29T08:19:09Z</time>
      </trkpt>
      <trkpt lat="45.04156" lon="5.74942">
        <ele>1166.8</ele>
        <time>2021-05-29T08:19:10Z</time>
      </trkpt>
      <trkpt lat="45.04157" lon="5.74942">
        <ele>1166.6</ele>
        <time>2021-05-29T08:19:11Z</time>
      </trkpt>
      <trkpt lat="45.04157" lon="5.74941">
        <ele>1166.4</ele>
        <time>2021-05-29T08:19:12Z</time>
      </trkpt>
      <trkpt lat="45.04158" lon="5.74941">
        <ele>1166.4</ele>
        <time>2021-05-29T08:19:13Z</time>
      </trkpt>
      <trkpt lat="45.04158" lon="5.74941">
        <ele>1166.4</ele>
        <time>2021-05-29T08:19:14Z</time>
      </trkpt>
      <trkpt lat="45.04159" lon="5.74941">
        <ele>1166.2</ele>
        <time>2021-05-29T08:19:15Z</time>
      </trkpt>
      <trkpt lat="45.04159" lon="5.74941">
        <ele>1166</ele>
        <time>2021-05-29T08:19:16Z</time>
      </trkpt>
      <trkpt lat="45.0416" lon="5.74941">
        <ele>1166</ele>
        <time>2021-05-29T08:19:17Z</time>
      </trkpt>
      <trkpt lat="45.0416" lon="5.74941">
        <ele>1166</ele>
        <time>2021-05-29T08:19:18Z</time>
      </trkpt>
      <trkpt lat="45.04161" lon="5.7494">
        <ele>1165.8</ele>
        <time>2021-05-29T08:19:19Z</time>
      </trkpt>
      <trkpt lat="45.04161" lon="5.7494">
        <ele>1165.8</ele>
        <time>2021-05-29T08:19:20Z</time>
      </trkpt>
      <trkpt lat="45.04162" lon="5.7494">
        <ele>1165.6</ele>
        <time>2021-05-29T08:19:21Z</time>
      </trkpt>
      <trkpt lat="45.04162" lon="5.7494">
        <ele>1165.6</ele>
        <time>2021-05-29T08:19:22Z</time>
      </trkpt>
      <trkpt lat="45.04163" lon="5.7494">
        <ele>1165.4</ele>
        <time>2021-05-29T08:19:23Z</time>
      </trkpt>
      <trkpt lat="45.04163" lon="5.7494">
        <ele>1165.4</ele>
        <time>2021-05-29T08:19:24Z</time>
      </trkpt>
      <trkpt lat="45.04164" lon="5.74939">
        <ele>1165.4</ele>
        <time>2021-05-29T08:19:25Z</time>
      </trkpt>
      <trkpt lat="45.04164" lon="5.74939">
        <ele>1165.2</ele>
        <time>2021-05-29T08:19:26Z</time>
      </trkpt>
      <trkpt lat="45.04165" lon="5.74939">
        <ele>1165.2</ele>
        <time>2021-05-29T08:19:27Z</time>
      </trkpt>
      <trkpt lat="45.04165" lon="5.74939">
        <ele>1165</ele>
        <time>2021-05-29T08:19:28Z</time>
      </trkpt>
      <trkpt lat="45.04166" lon="5.74939">
        <ele>1165</ele>
        <time>2021-05-29T08:19:29Z</time>
      </trkpt>
      <trkpt lat="45.04166" lon="5.74939">
        <ele>1165</ele>
        <time>2021-05-29T08:19:30Z</time>
      </trkpt>
      <trkpt lat="45.04167" lon="5.74939">
        <ele>1165</ele>
        <time>2021-05-29T08:19:31Z</time>
      </trkpt>
      <trkpt lat="45.04167" lon="5.74938">
        <ele>1165</ele>
        <time>2021-05-29T08:19:32Z</time>
      </trkpt>
      <trkpt lat="45.04168" lon="5.74938">
        <ele>1165</ele>
        <time>2021-05-29T08:19:33Z</time>
      </trkpt>
      <trkpt lat="45.04168" lon="5.74938">
        <ele>1165</ele>
        <time>2021-05-29T08:19:34Z</time>
      </trkpt>
      <trkpt lat="45.04169" lon="5.74938">
        <ele>1165</ele>
        <time>2021-05-29T08:19:35Z</time>
      </trkpt>
      <trkpt lat="45.04169" lon="5.74938">
        <ele>1165.2</ele>
        <time>2021-05-29T08:19:36Z</time>
      </trkpt>
      <trkpt lat="45.0417" lon="5.74938">
        <ele>1165.2</ele>
        <time>2021-05-29T08:19:37Z</time>
      </trkpt>
      <trkpt lat="45.0417" lon="5.74937">
        <ele>1165.2</ele>
        <time>2021-05-29T08:19:38Z</time>
      </trkpt>
      <trkpt lat="45.04171" lon="5.74937">
        <ele>1165</ele>
        <time>2021-05-29T08:19:39Z</time>
      </trkpt>
      <trkpt lat="45.04171" lon="5.74937">
        <ele>1165</ele>
        <time>2021-05-29T08:19:40Z</time>
      </trkpt>
      <trkpt lat="45.04172" lon="5.74937">
        <ele>1165.2</ele>
        <time>2021-05-29T08:19:41Z</time>
      </trkpt>
      <trkpt lat="45.04172" lon="5.74937">
        <ele>1165.2</ele>
        <time>2021-05-29T08:19:42Z</time>
      </trkpt>
      <trkpt lat="45.04173" lon="5.74937">
        <ele>1165</ele>
        <time>2021-05-29T08:19:43Z</time>
      </trkpt>
      <trkpt lat="45.04173" lon="5.74936">
        <ele>1164.8</ele>
        <time>2021-05-29T08:19:44Z</time>
      </trkpt>
      <trkpt lat="45.04174" lon="5.74936">
        <ele>1164.8</ele>
        <time>2021-05-29T08:19:45Z</time>
      </trkpt>
      <trkpt lat="45.04174" lon="5.74936">
        <ele>1165</ele>
        <time>2021-05-29T08:19:46Z</time>
      </trkpt>
      <trkpt lat="45.04175" lon="5.74936">
        <ele>1165</ele>
        <time>2021-05-29T08:19:47Z</time>
      </trkpt>
      <trkpt lat="45.04175" lon="5.74936">
        <ele>1165</ele>
        <time>2021-05-29T08:19:48Z</time>
      </trkpt>
      <trkpt lat="45.04176" lon="5.74936">
        <ele>1165</ele>
        <time>2021-05-29T08:19:49Z</time>
      </trkpt>
      <trkpt lat="45.04176" lon="5.74936">
        <ele>1164.8</ele>
        <time>2021-05-29T08:19:50Z</time>
      </trkpt>
      <trkpt lat="45.04177" lon="5.74935">
        <ele>1165</ele>
        <time>2021-05-29T08:19:51Z</time>
      </trkpt>
      <trkpt lat="45.04177" lon="5.74935">
        <ele>1164.8</ele>
        <time>2021-05-29T08:19:52Z</time>
      </trkpt>
      <trkpt lat="45.04178" lon="5.74935">
        <ele>1164.8</ele>
        <time>2021-05-29T08:19:53Z</time>
      </trkpt>
      <trkpt lat="45.04178" lon="5.74935">
        <ele>1164.6</ele>
        <time>2021-05-29T08:19:54Z</time>
      </trkpt>
      <trkpt lat="45.04179" lon="5.74935">
        <ele>1164.6</ele>
        <time>2021-05-29T08:19:55Z</time>
      </trkpt>
      <trkpt lat="45.04179" lon="5.74935">
        <ele>1164.6</ele>
        <time>2021-05-29T08:19:56Z</time>
      </trkpt>
      <trkpt lat="45.0418" lon="5.74934">
        <ele>1164.4</ele>
        <time>2021-05-29T08:19:57Z</time>
      </trkpt>
      <trkpt lat="45.0418" lon="5.74934">
        <ele>1164.4</ele>
        <time>2021-05-29T08:19:58Z</time>
      </trkpt>
      <trkpt lat="45.0418" lon="5.74934">
        <ele>1164.6</ele>
        <time>2021-05-29T08:20:00Z</time>
      </trkpt>
      <trkpt lat="45.04182" lon="5.74933">
        <ele>1164.6</ele>
        <time>2021-05-29T08:20:01Z</time>
      </trkpt>
      <trkpt lat="45.04183" lon="5.74931">
        <ele>1164.6</ele>
        <time>2021-05-29T08:20:02Z</time>
      </trkpt>
      <trkpt lat="45.04184" lon="5.7493">
        <ele>1164.6</ele>
        <time>2021-05-29T08:20:03Z</time>
      </trkpt>
      <trkpt lat="45.04185" lon="5.74928">
        <ele>1164.6</ele>
        <time>2021-05-29T08:20:04Z</time>
      </trkpt>
      <trkpt lat="45.04187" lon="5.74927">
        <ele>1164.8</ele>
        <time>2021-05-29T08:20:05Z</time>
      </trkpt>
      <trkpt lat="45.04188" lon="5.74925">
        <ele>1164.8</ele>
        <time>2021-05-29T08:20:06Z</time>
      </trkpt>
      <trkpt lat="45.04189" lon="5.74925">
        <ele>1164.8</ele>
        <time>2021-05-29T08:20:07Z</time>
      </trkpt>
      <trkpt lat="45.04189" lon="5.74924">
        <ele>1165</ele>
        <time>2021-05-29T08:20:08Z</time>
      </trkpt>
      <trkpt lat="45.0419" lon="5.74924">
        <ele>1165.2</ele>
        <time>2021-05-29T08:20:09Z</time>
      </trkpt>
      <trkpt lat="45.0419" lon="5.74923">
        <ele>1165.2</ele>
        <time>2021-05-29T08:20:10Z</time>
      </trkpt>
      <trkpt lat="45.04191" lon="5.74923">
        <ele>1165.4</ele>
        <time>2021-05-29T08:20:11Z</time>
      </trkpt>
      <trkpt lat="45.04191" lon="5.74922">
        <ele>1165.6</ele>
        <time>2021-05-29T08:20:12Z</time>
      </trkpt>
      <trkpt lat="45.04192" lon="5.74921">
        <ele>1165.4</ele>
        <time>2021-05-29T08:20:13Z</time>
      </trkpt>
      <trkpt lat="45.04193" lon="5.74921">
        <ele>1165.6</ele>
        <time>2021-05-29T08:20:14Z</time>
      </trkpt>
      <trkpt lat="45.04193" lon="5.7492">
        <ele>1165.6</ele>
        <time>2021-05-29T08:20:15Z</time>
      </trkpt>
      <trkpt lat="45.04194" lon="5.7492">
        <ele>1165.6</ele>
        <time>2021-05-29T08:20:16Z</time>
      </trkpt>
      <trkpt lat="45.04194" lon="5.74919">
        <ele>1165.6</ele>
        <time>2021-05-29T08:20:17Z</time>
      </trkpt>
      <trkpt lat="45.04195" lon="5.74919">
        <ele>1165.6</ele>
        <time>2021-05-29T08:20:18Z</time>
      </trkpt>
      <trkpt lat="45.04195" lon="5.74918">
        <ele>1165.6</ele>
        <time>2021-05-29T08:20:19Z</time>
      </trkpt>
      <trkpt lat="45.04196" lon="5.74918">
        <ele>1165.6</ele>
        <time>2021-05-29T08:20:20Z</time>
      </trkpt>
      <trkpt lat="45.04196" lon="5.74917">
        <ele>1165.8</ele>
        <time>2021-05-29T08:20:21Z</time>
      </trkpt>
      <trkpt lat="45.04196" lon="5.74916">
        <ele>1166</ele>
        <time>2021-05-29T08:20:22Z</time>
      </trkpt>
      <trkpt lat="45.04196" lon="5.74916">
        <ele>1166</ele>
        <time>2021-05-29T08:20:23Z</time>
      </trkpt>
      <trkpt lat="45.04197" lon="5.74915">
        <ele>1166</ele>
        <time>2021-05-29T08:20:24Z</time>
      </trkpt>
      <trkpt lat="45.04197" lon="5.74914">
        <ele>1166.2</ele>
        <time>2021-05-29T08:20:25Z</time>
      </trkpt>
      <trkpt lat="45.04197" lon="5.74914">
        <ele>1166.4</ele>
        <time>2021-05-29T08:20:26Z</time>
      </trkpt>
      <trkpt lat="45.04197" lon="5.74913">
        <ele>1166.4</ele>
        <time>2021-05-29T08:20:27Z</time>
      </trkpt>
      <trkpt lat="45.04197" lon="5.74913">
        <ele>1166.4</ele>
        <time>2021-05-29T08:20:28Z</time>
      </trkpt>
      <trkpt lat="45.04198" lon="5.74912">
        <ele>1166.4</ele>
        <time>2021-05-29T08:20:29Z</time>
      </trkpt>
      <trkpt lat="45.04198" lon="5.74911">
        <ele>1166.4</ele>
        <time>2021-05-29T08:20:30Z</time>
      </trkpt>
      <trkpt lat="45.04198" lon="5.74911">
        <ele>1166.4</ele>
        <time>2021-05-29T08:20:31Z</time>
      </trkpt>
      <trkpt lat="45.04198" lon="5.7491">
        <ele>1166.4</ele>
        <time>2021-05-29T08:20:32Z</time>
      </trkpt>
      <trkpt lat="45.04198" lon="5.74909">
        <ele>1166.4</ele>
        <time>2021-05-29T08:20:33Z</time>
      </trkpt>
      <trkpt lat="45.04198" lon="5.74909">
        <ele>1166.4</ele>
        <time>2021-05-29T08:20:34Z</time>
      </trkpt>
      <trkpt lat="45.04199" lon="5.74908">
        <ele>1166.4</ele>
        <time>2021-05-29T08:20:35Z</time>
      </trkpt>
      <trkpt lat="45.04199" lon="5.74907">
        <ele>1166.6</ele>
        <time>2021-05-29T08:20:36Z</time>
      </trkpt>
      <trkpt lat="45.04199" lon="5.74907">
        <ele>1166.8</ele>
        <time>2021-05-29T08:20:37Z</time>
      </trkpt>
      <trkpt lat="45.04199" lon="5.74906">
        <ele>1167</ele>
        <time>2021-05-29T08:20:38Z</time>
      </trkpt>
      <trkpt lat="45.04199" lon="5.74906">
        <ele>1167.2</ele>
        <time>2021-05-29T08:20:39Z</time>
      </trkpt>
      <trkpt lat="45.04199" lon="5.74905">
        <ele>1167.2</ele>
        <time>2021-05-29T08:20:40Z</time>
      </trkpt>
      <trkpt lat="45.04198" lon="5.74904">
        <ele>1167.4</ele>
        <time>2021-05-29T08:20:41Z</time>
      </trkpt>
      <trkpt lat="45.04198" lon="5.74904">
        <ele>1167.6</ele>
        <time>2021-05-29T08:20:42Z</time>
      </trkpt>
      <trkpt lat="45.04197" lon="5.74903">
        <ele>1168</ele>
        <time>2021-05-29T08:20:43Z</time>
      </trkpt>
      <trkpt lat="45.04196" lon="5.74903">
        <ele>1168.2</ele>
        <time>2021-05-29T08:20:44Z</time>
      </trkpt>
      <trkpt lat="45.04196" lon="5.74902">
        <ele>1168.2</ele>
        <time>2021-05-29T08:20:45Z</time>
      </trkpt>
      <trkpt lat="45.04195" lon="5.74902">
        <ele>1168.6</ele>
        <time>2021-05-29T08:20:46Z</time>
      </trkpt>
      <trkpt lat="45.04195" lon="5.74901">
        <ele>1168.8</ele>
        <time>2021-05-29T08:20:47Z</time>
      </trkpt>
      <trkpt lat="45.04194" lon="5.749">
        <ele>1168.6</ele>
        <time>2021-05-29T08:20:48Z</time>
      </trkpt>
      <trkpt lat="45.04194" lon="5.749">
        <ele>1168.8</ele>
        <time>2021-05-29T08:20:49Z</time>
      </trkpt>
      <trkpt lat="45.04193" lon="5.74899">
        <ele>1169</ele>
        <time>2021-05-29T08:20:50Z</time>
      </trkpt>
      <trkpt lat="45.04192" lon="5.74899">
        <ele>1169</ele>
        <time>2021-05-29T08:20:51Z</time>
      </trkpt>
      <trkpt lat="45.04192" lon="5.74898">
        <ele>1169.2</ele>
        <time>2021-05-29T08:20:52Z</time>
      </trkpt>
      <trkpt lat="45.04191" lon="5.74898">
        <ele>1169.4</ele>
        <time>2021-05-29T08:20:53Z</time>
      </trkpt>
      <trkpt lat="45.04191" lon="5.74896">
        <ele>1169.4</ele>
        <time>2021-05-29T08:20:54Z</time>
      </trkpt>
      <trkpt lat="45.04191" lon="5.74895">
        <ele>1169.6</ele>
        <time>2021-05-29T08:20:55Z</time>
      </trkpt>
      <trkpt lat="45.04191" lon="5.74894">
        <ele>1169.8</ele>
        <time>2021-05-29T08:20:56Z</time>
      </trkpt>
      <trkpt lat="45.04191" lon="5.74892">
        <ele>1170</ele>
        <time>2021-05-29T08:20:57Z</time>
      </trkpt>
      <trkpt lat="45.04191" lon="5.74891">
        <ele>1170</ele>
        <time>2021-05-29T08:20:58Z</time>
      </trkpt>
      <trkpt lat="45.04191" lon="5.7489">
        <ele>1170</ele>
        <time>2021-05-29T08:20:59Z</time>
      </trkpt>
      <trkpt lat="45.0419" lon="5.74889">
        <ele>1170.2</ele>
        <time>2021-05-29T08:21:00Z</time>
      </trkpt>
      <trkpt lat="45.0419" lon="5.74887">
        <ele>1170.4</ele>
        <time>2021-05-29T08:21:01Z</time>
      </trkpt>
      <trkpt lat="45.0419" lon="5.74886">
        <ele>1170.8</ele>
        <time>2021-05-29T08:21:02Z</time>
      </trkpt>
      <trkpt lat="45.0419" lon="5.74885">
        <ele>1171.2</ele>
        <time>2021-05-29T08:21:03Z</time>
      </trkpt>
      <trkpt lat="45.0419" lon="5.74883">
        <ele>1171.2</ele>
        <time>2021-05-29T08:21:04Z</time>
      </trkpt>
      <trkpt lat="45.0419" lon="5.74882">
        <ele>1171.4</ele>
        <time>2021-05-29T08:21:05Z</time>
      </trkpt>
      <trkpt lat="45.04191" lon="5.7488">
        <ele>1171.6</ele>
        <time>2021-05-29T08:21:06Z</time>
      </trkpt>
      <trkpt lat="45.04192" lon="5.74879">
        <ele>1171.8</ele>
        <time>2021-05-29T08:21:07Z</time>
      </trkpt>
      <trkpt lat="45.04193" lon="5.74877">
        <ele>1172</ele>
        <time>2021-05-29T08:21:08Z</time>
      </trkpt>
      <trkpt lat="45.04194" lon="5.74876">
        <ele>1172.2</ele>
        <time>2021-05-29T08:21:09Z</time>
      </trkpt>
      <trkpt lat="45.04195" lon="5.74874">
        <ele>1172.4</ele>
        <time>2021-05-29T08:21:10Z</time>
      </trkpt>
      <trkpt lat="45.04196" lon="5.74872">
        <ele>1172.6</ele>
        <time>2021-05-29T08:21:11Z</time>
      </trkpt>
      <trkpt lat="45.04197" lon="5.74871">
        <ele>1172.6</ele>
        <time>2021-05-29T08:21:12Z</time>
      </trkpt>
      <trkpt lat="45.04197" lon="5.7487">
        <ele>1172.8</ele>
        <time>2021-05-29T08:21:13Z</time>
      </trkpt>
      <trkpt lat="45.04198" lon="5.74869">
        <ele>1172.8</ele>
        <time>2021-05-29T08:21:14Z</time>
      </trkpt>
      <trkpt lat="45.04199" lon="5.74868">
        <ele>1172.8</ele>
        <time>2021-05-29T08:21:15Z</time>
      </trkpt>
      <trkpt lat="45.04199" lon="5.74867">
        <ele>1172.8</ele>
        <time>2021-05-29T08:21:16Z</time>
      </trkpt>
      <trkpt lat="45.042" lon="5.74866">
        <ele>1172.8</ele>
        <time>2021-05-29T08:21:17Z</time>
      </trkpt>
      <trkpt lat="45.04201" lon="5.74865">
        <ele>1173.2</ele>
        <time>2021-05-29T08:21:18Z</time>
      </trkpt>
      <trkpt lat="45.04201" lon="5.74864">
        <ele>1173.2</ele>
        <time>2021-05-29T08:21:19Z</time>
      </trkpt>
      <trkpt lat="45.04202" lon="5.74862">
        <ele>1173.4</ele>
        <time>2021-05-29T08:21:20Z</time>
      </trkpt>
      <trkpt lat="45.04202" lon="5.74862">
        <ele>1173.6</ele>
        <time>2021-05-29T08:21:21Z</time>
      </trkpt>
      <trkpt lat="45.04203" lon="5.74861">
        <ele>1173.8</ele>
        <time>2021-05-29T08:21:22Z</time>
      </trkpt>
      <trkpt lat="45.04203" lon="5.7486">
        <ele>1174.2</ele>
        <time>2021-05-29T08:21:23Z</time>
      </trkpt>
      <trkpt lat="45.04203" lon="5.7486">
        <ele>1174.6</ele>
        <time>2021-05-29T08:21:24Z</time>
      </trkpt>
      <trkpt lat="45.04204" lon="5.74859">
        <ele>1174.8</ele>
        <time>2021-05-29T08:21:25Z</time>
      </trkpt>
      <trkpt lat="45.04204" lon="5.74858">
        <ele>1174.8</ele>
        <time>2021-05-29T08:21:26Z</time>
      </trkpt>
      <trkpt lat="45.04205" lon="5.74858">
        <ele>1175.2</ele>
        <time>2021-05-29T08:21:27Z</time>
      </trkpt>
      <trkpt lat="45.04205" lon="5.74857">
        <ele>1175.4</ele>
        <time>2021-05-29T08:21:28Z</time>
      </trkpt>
      <trkpt lat="45.04205" lon="5.74856">
        <ele>1175.6</ele>
        <time>2021-05-29T08:21:29Z</time>
      </trkpt>
      <trkpt lat="45.04206" lon="5.74856">
        <ele>1175.8</ele>
        <time>2021-05-29T08:21:30Z</time>
      </trkpt>
      <trkpt lat="45.04206" lon="5.74855">
        <ele>1176</ele>
        <time>2021-05-29T08:21:31Z</time>
      </trkpt>
      <trkpt lat="45.04206" lon="5.74854">
        <ele>1176</ele>
        <time>2021-05-29T08:21:32Z</time>
      </trkpt>
      <trkpt lat="45.04207" lon="5.74854">
        <ele>1176.2</ele>
        <time>2021-05-29T08:21:33Z</time>
      </trkpt>
      <trkpt lat="45.04207" lon="5.74853">
        <ele>1176.4</ele>
        <time>2021-05-29T08:21:34Z</time>
      </trkpt>
      <trkpt lat="45.04207" lon="5.74852">
        <ele>1176.6</ele>
        <time>2021-05-29T08:21:35Z</time>
      </trkpt>
      <trkpt lat="45.04208" lon="5.74852">
        <ele>1176.8</ele>
        <time>2021-05-29T08:21:36Z</time>
      </trkpt>
      <trkpt lat="45.04208" lon="5.74851">
        <ele>1176.8</ele>
        <time>2021-05-29T08:21:37Z</time>
      </trkpt>
      <trkpt lat="45.04208" lon="5.7485">
        <ele>1177</ele>
        <time>2021-05-29T08:21:38Z</time>
      </trkpt>
      <trkpt lat="45.04207" lon="5.74849">
        <ele>1177.2</ele>
        <time>2021-05-29T08:21:39Z</time>
      </trkpt>
      <trkpt lat="45.04207" lon="5.74848">
        <ele>1177.4</ele>
        <time>2021-05-29T08:21:40Z</time>
      </trkpt>
      <trkpt lat="45.04207" lon="5.74847">
        <ele>1177.6</ele>
        <time>2021-05-29T08:21:41Z</time>
      </trkpt>
      <trkpt lat="45.04207" lon="5.74847">
        <ele>1177.8</ele>
        <time>2021-05-29T08:21:42Z</time>
      </trkpt>
      <trkpt lat="45.04207" lon="5.74846">
        <ele>1178</ele>
        <time>2021-05-29T08:21:43Z</time>
      </trkpt>
      <trkpt lat="45.04207" lon="5.74845">
        <ele>1178</ele>
        <time>2021-05-29T08:21:44Z</time>
      </trkpt>
      <trkpt lat="45.04207" lon="5.74844">
        <ele>1178.2</ele>
        <time>2021-05-29T08:21:45Z</time>
      </trkpt>
      <trkpt lat="45.04206" lon="5.74843">
        <ele>1178.2</ele>
        <time>2021-05-29T08:21:46Z</time>
      </trkpt>
      <trkpt lat="45.04206" lon="5.74842">
        <ele>1178.4</ele>
        <time>2021-05-29T08:21:47Z</time>
      </trkpt>
      <trkpt lat="45.04206" lon="5.74842">
        <ele>1178.6</ele>
        <time>2021-05-29T08:21:48Z</time>
      </trkpt>
      <trkpt lat="45.04206" lon="5.74841">
        <ele>1178.8</ele>
        <time>2021-05-29T08:21:49Z</time>
      </trkpt>
      <trkpt lat="45.04206" lon="5.7484">
        <ele>1179.2</ele>
        <time>2021-05-29T08:21:50Z</time>
      </trkpt>
      <trkpt lat="45.04206" lon="5.74839">
        <ele>1179.4</ele>
        <time>2021-05-29T08:21:51Z</time>
      </trkpt>
      <trkpt lat="45.04206" lon="5.74838">
        <ele>1179.6</ele>
        <time>2021-05-29T08:21:52Z</time>
      </trkpt>
      <trkpt lat="45.04207" lon="5.74837">
        <ele>1179.6</ele>
        <time>2021-05-29T08:21:53Z</time>
      </trkpt>
      <trkpt lat="45.04207" lon="5.74836">
        <ele>1179.8</ele>
        <time>2021-05-29T08:21:54Z</time>
      </trkpt>
      <trkpt lat="45.04208" lon="5.74835">
        <ele>1180</ele>
        <time>2021-05-29T08:21:55Z</time>
      </trkpt>
      <trkpt lat="45.04208" lon="5.74834">
        <ele>1180.4</ele>
        <time>2021-05-29T08:21:56Z</time>
      </trkpt>
      <trkpt lat="45.04209" lon="5.74833">
        <ele>1180.6</ele>
        <time>2021-05-29T08:21:57Z</time>
      </trkpt>
      <trkpt lat="45.04209" lon="5.74832">
        <ele>1180.6</ele>
        <time>2021-05-29T08:21:58Z</time>
      </trkpt>
      <trkpt lat="45.0421" lon="5.74831">
        <ele>1181</ele>
        <time>2021-05-29T08:21:59Z</time>
      </trkpt>
      <trkpt lat="45.0421" lon="5.7483">
        <ele>1181.4</ele>
        <time>2021-05-29T08:22:00Z</time>
      </trkpt>
      <trkpt lat="45.04211" lon="5.74829">
        <ele>1181.8</ele>
        <time>2021-05-29T08:22:01Z</time>
      </trkpt>
      <trkpt lat="45.04211" lon="5.74828">
        <ele>1181.8</ele>
        <time>2021-05-29T08:22:02Z</time>
      </trkpt>
      <trkpt lat="45.04211" lon="5.74827">
        <ele>1182.2</ele>
        <time>2021-05-29T08:22:03Z</time>
      </trkpt>
      <trkpt lat="45.04211" lon="5.74826">
        <ele>1182.4</ele>
        <time>2021-05-29T08:22:04Z</time>
      </trkpt>
      <trkpt lat="45.04211" lon="5.74825">
        <ele>1182.6</ele>
        <time>2021-05-29T08:22:05Z</time>
      </trkpt>
      <trkpt lat="45.04211" lon="5.74823">
        <ele>1182.8</ele>
        <time>2021-05-29T08:22:06Z</time>
      </trkpt>
      <trkpt lat="45.04211" lon="5.74822">
        <ele>1183</ele>
        <time>2021-05-29T08:22:07Z</time>
      </trkpt>
      <trkpt lat="45.04211" lon="5.74821">
        <ele>1183.2</ele>
        <time>2021-05-29T08:22:08Z</time>
      </trkpt>
      <trkpt lat="45.04212" lon="5.7482">
        <ele>1183.4</ele>
        <time>2021-05-29T08:22:09Z</time>
      </trkpt>
      <trkpt lat="45.04212" lon="5.74818">
        <ele>1183.8</ele>
        <time>2021-05-29T08:22:10Z</time>
      </trkpt>
      <trkpt lat="45.04212" lon="5.74817">
        <ele>1184.2</ele>
        <time>2021-05-29T08:22:11Z</time>
      </trkpt>
      <trkpt lat="45.04212" lon="5.74816">
        <ele>1184.4</ele>
        <time>2021-05-29T08:22:12Z</time>
      </trkpt>
      <trkpt lat="45.04212" lon="5.74814">
        <ele>1184.6</ele>
        <time>2021-05-29T08:22:13Z</time>
      </trkpt>
      <trkpt lat="45.04212" lon="5.74813">
        <ele>1184.6</ele>
        <time>2021-05-29T08:22:14Z</time>
      </trkpt>
      <trkpt lat="45.04212" lon="5.74812">
        <ele>1184.6</ele>
        <time>2021-05-29T08:22:15Z</time>
      </trkpt>
      <trkpt lat="45.04212" lon="5.74811">
        <ele>1185</ele>
        <time>2021-05-29T08:22:16Z</time>
      </trkpt>
      <trkpt lat="45.04212" lon="5.7481">
        <ele>1185.2</ele>
        <time>2021-05-29T08:22:17Z</time>
      </trkpt>
      <trkpt lat="45.04212" lon="5.74809">
        <ele>1185.6</ele>
        <time>2021-05-29T08:22:18Z</time>
      </trkpt>
      <trkpt lat="45.04212" lon="5.74807">
        <ele>1185.8</ele>
        <time>2021-05-29T08:22:19Z</time>
      </trkpt>
      <trkpt lat="45.04212" lon="5.74806">
        <ele>1186</ele>
        <time>2021-05-29T08:22:20Z</time>
      </trkpt>
      <trkpt lat="45.04212" lon="5.74805">
        <ele>1186.4</ele>
        <time>2021-05-29T08:22:21Z</time>
      </trkpt>
      <trkpt lat="45.04212" lon="5.74804">
        <ele>1186.6</ele>
        <time>2021-05-29T08:22:22Z</time>
      </trkpt>
      <trkpt lat="45.04212" lon="5.74803">
        <ele>1187</ele>
        <time>2021-05-29T08:22:23Z</time>
      </trkpt>
      <trkpt lat="45.04212" lon="5.74802">
        <ele>1187.2</ele>
        <time>2021-05-29T08:22:24Z</time>
      </trkpt>
      <trkpt lat="45.04211" lon="5.74801">
        <ele>1187.6</ele>
        <time>2021-05-29T08:22:25Z</time>
      </trkpt>
      <trkpt lat="45.04211" lon="5.748">
        <ele>1187.8</ele>
        <time>2021-05-29T08:22:26Z</time>
      </trkpt>
      <trkpt lat="45.04211" lon="5.748">
        <ele>1188</ele>
        <time>2021-05-29T08:22:27Z</time>
      </trkpt>
      <trkpt lat="45.0421" lon="5.74799">
        <ele>1188.2</ele>
        <time>2021-05-29T08:22:28Z</time>
      </trkpt>
      <trkpt lat="45.0421" lon="5.74798">
        <ele>1188.2</ele>
        <time>2021-05-29T08:22:29Z</time>
      </trkpt>
      <trkpt lat="45.04209" lon="5.74798">
        <ele>1188.4</ele>
        <time>2021-05-29T08:22:30Z</time>
      </trkpt>
      <trkpt lat="45.04209" lon="5.74797">
        <ele>1188.8</ele>
        <time>2021-05-29T08:22:31Z</time>
      </trkpt>
      <trkpt lat="45.04209" lon="5.74796">
        <ele>1189</ele>
        <time>2021-05-29T08:22:32Z</time>
      </trkpt>
      <trkpt lat="45.04208" lon="5.74796">
        <ele>1189.2</ele>
        <time>2021-05-29T08:22:33Z</time>
      </trkpt>
      <trkpt lat="45.04208" lon="5.74795">
        <ele>1189.6</ele>
        <time>2021-05-29T08:22:34Z</time>
      </trkpt>
      <trkpt lat="45.04208" lon="5.74794">
        <ele>1189.8</ele>
        <time>2021-05-29T08:22:35Z</time>
      </trkpt>
      <trkpt lat="45.04207" lon="5.74794">
        <ele>1189.8</ele>
        <time>2021-05-29T08:22:36Z</time>
      </trkpt>
      <trkpt lat="45.04207" lon="5.74793">
        <ele>1190</ele>
        <time>2021-05-29T08:22:37Z</time>
      </trkpt>
      <trkpt lat="45.04207" lon="5.74792">
        <ele>1190.4</ele>
        <time>2021-05-29T08:22:38Z</time>
      </trkpt>
      <trkpt lat="45.04206" lon="5.74792">
        <ele>1190.4</ele>
        <time>2021-05-29T08:22:39Z</time>
      </trkpt>
      <trkpt lat="45.04206" lon="5.74791">
        <ele>1190.8</ele>
        <time>2021-05-29T08:22:40Z</time>
      </trkpt>
      <trkpt lat="45.04206" lon="5.7479">
        <ele>1190.8</ele>
        <time>2021-05-29T08:22:41Z</time>
      </trkpt>
      <trkpt lat="45.04206" lon="5.74788">
        <ele>1191</ele>
        <time>2021-05-29T08:22:42Z</time>
      </trkpt>
      <trkpt lat="45.04206" lon="5.74787">
        <ele>1191.4</ele>
        <time>2021-05-29T08:22:43Z</time>
      </trkpt>
      <trkpt lat="45.04205" lon="5.74786">
        <ele>1191.4</ele>
        <time>2021-05-29T08:22:44Z</time>
      </trkpt>
      <trkpt lat="45.04205" lon="5.74784">
        <ele>1191.8</ele>
        <time>2021-05-29T08:22:45Z</time>
      </trkpt>
      <trkpt lat="45.04205" lon="5.74783">
        <ele>1192</ele>
        <time>2021-05-29T08:22:46Z</time>
      </trkpt>
      <trkpt lat="45.04205" lon="5.74782">
        <ele>1192.2</ele>
        <time>2021-05-29T08:22:47Z</time>
      </trkpt>
      <trkpt lat="45.04205" lon="5.74781">
        <ele>1192.6</ele>
        <time>2021-05-29T08:22:48Z</time>
      </trkpt>
      <trkpt lat="45.04205" lon="5.74779">
        <ele>1192.8</ele>
        <time>2021-05-29T08:22:49Z</time>
      </trkpt>
      <trkpt lat="45.04204" lon="5.74778">
        <ele>1193</ele>
        <time>2021-05-29T08:22:50Z</time>
      </trkpt>
      <trkpt lat="45.04204" lon="5.74777">
        <ele>1193.2</ele>
        <time>2021-05-29T08:22:51Z</time>
      </trkpt>
      <trkpt lat="45.04204" lon="5.74776">
        <ele>1193.4</ele>
        <time>2021-05-29T08:22:52Z</time>
      </trkpt>
      <trkpt lat="45.04203" lon="5.74775">
        <ele>1193.6</ele>
        <time>2021-05-29T08:22:53Z</time>
      </trkpt>
      <trkpt lat="45.04203" lon="5.74775">
        <ele>1193.8</ele>
        <time>2021-05-29T08:22:54Z</time>
      </trkpt>
      <trkpt lat="45.04203" lon="5.74774">
        <ele>1194</ele>
        <time>2021-05-29T08:22:55Z</time>
      </trkpt>
      <trkpt lat="45.04202" lon="5.74773">
        <ele>1194.4</ele>
        <time>2021-05-29T08:22:56Z</time>
      </trkpt>
      <trkpt lat="45.04202" lon="5.74772">
        <ele>1194.4</ele>
        <time>2021-05-29T08:22:57Z</time>
      </trkpt>
      <trkpt lat="45.04201" lon="5.74771">
        <ele>1194.6</ele>
        <time>2021-05-29T08:22:58Z</time>
      </trkpt>
      <trkpt lat="45.04201" lon="5.7477">
        <ele>1194.8</ele>
        <time>2021-05-29T08:22:59Z</time>
      </trkpt>
      <trkpt lat="45.04201" lon="5.7477">
        <ele>1195</ele>
        <time>2021-05-29T08:23:00Z</time>
      </trkpt>
      <trkpt lat="45.042" lon="5.74769">
        <ele>1195.2</ele>
        <time>2021-05-29T08:23:01Z</time>
      </trkpt>
      <trkpt lat="45.042" lon="5.74768">
        <ele>1195.6</ele>
        <time>2021-05-29T08:23:02Z</time>
      </trkpt>
      <trkpt lat="45.04199" lon="5.74767">
        <ele>1196</ele>
        <time>2021-05-29T08:23:03Z</time>
      </trkpt>
      <trkpt lat="45.04199" lon="5.74766">
        <ele>1196.2</ele>
        <time>2021-05-29T08:23:04Z</time>
      </trkpt>
      <trkpt lat="45.04199" lon="5.74764">
        <ele>1196.2</ele>
        <time>2021-05-29T08:23:05Z</time>
      </trkpt>
      <trkpt lat="45.04199" lon="5.74763">
        <ele>1196.4</ele>
        <time>2021-05-29T08:23:06Z</time>
      </trkpt>
      <trkpt lat="45.04198" lon="5.74762">
        <ele>1196.8</ele>
        <time>2021-05-29T08:23:07Z</time>
      </trkpt>
      <trkpt lat="45.04198" lon="5.7476">
        <ele>1196.8</ele>
        <time>2021-05-29T08:23:08Z</time>
      </trkpt>
      <trkpt lat="45.04198" lon="5.74759">
        <ele>1197.2</ele>
        <time>2021-05-29T08:23:09Z</time>
      </trkpt>
      <trkpt lat="45.04198" lon="5.74758">
        <ele>1197.4</ele>
        <time>2021-05-29T08:23:10Z</time>
      </trkpt>
      <trkpt lat="45.04198" lon="5.74756">
        <ele>1197.6</ele>
        <time>2021-05-29T08:23:11Z</time>
      </trkpt>
      <trkpt lat="45.04197" lon="5.74755">
        <ele>1197.8</ele>
        <time>2021-05-29T08:23:12Z</time>
      </trkpt>
      <trkpt lat="45.04197" lon="5.74754">
        <ele>1198.2</ele>
        <time>2021-05-29T08:23:13Z</time>
      </trkpt>
      <trkpt lat="45.04197" lon="5.74752">
        <ele>1198.6</ele>
        <time>2021-05-29T08:23:14Z</time>
      </trkpt>
      <trkpt lat="45.04197" lon="5.74751">
        <ele>1198.8</ele>
        <time>2021-05-29T08:23:15Z</time>
      </trkpt>
      <trkpt lat="45.04196" lon="5.7475">
        <ele>1199</ele>
        <time>2021-05-29T08:23:16Z</time>
      </trkpt>
      <trkpt lat="45.04196" lon="5.74748">
        <ele>1199</ele>
        <time>2021-05-29T08:23:17Z</time>
      </trkpt>
      <trkpt lat="45.04196" lon="5.74747">
        <ele>1199.2</ele>
        <time>2021-05-29T08:23:18Z</time>
      </trkpt>
      <trkpt lat="45.04196" lon="5.74746">
        <ele>1199.4</ele>
        <time>2021-05-29T08:23:19Z</time>
      </trkpt>
      <trkpt lat="45.04196" lon="5.74744">
        <ele>1199.6</ele>
        <time>2021-05-29T08:23:20Z</time>
      </trkpt>
      <trkpt lat="45.04196" lon="5.74743">
        <ele>1199.8</ele>
        <time>2021-05-29T08:23:21Z</time>
      </trkpt>
      <trkpt lat="45.04195" lon="5.74741">
        <ele>1199.8</ele>
        <time>2021-05-29T08:23:22Z</time>
      </trkpt>
      <trkpt lat="45.04195" lon="5.74741">
        <ele>1200.2</ele>
        <time>2021-05-29T08:23:23Z</time>
      </trkpt>
      <trkpt lat="45.04194" lon="5.7474">
        <ele>1200.6</ele>
        <time>2021-05-29T08:23:24Z</time>
      </trkpt>
      <trkpt lat="45.04194" lon="5.74739">
        <ele>1200.8</ele>
        <time>2021-05-29T08:23:25Z</time>
      </trkpt>
      <trkpt lat="45.04193" lon="5.74738">
        <ele>1201</ele>
        <time>2021-05-29T08:23:26Z</time>
      </trkpt>
      <trkpt lat="45.04193" lon="5.74737">
        <ele>1201</ele>
        <time>2021-05-29T08:23:27Z</time>
      </trkpt>
      <trkpt lat="45.04192" lon="5.74737">
        <ele>1201.2</ele>
        <time>2021-05-29T08:23:28Z</time>
      </trkpt>
      <trkpt lat="45.04192" lon="5.74736">
        <ele>1201.4</ele>
        <time>2021-05-29T08:23:29Z</time>
      </trkpt>
      <trkpt lat="45.04191" lon="5.74735">
        <ele>1201.6</ele>
        <time>2021-05-29T08:23:30Z</time>
      </trkpt>
      <trkpt lat="45.04191" lon="5.74734">
        <ele>1202</ele>
        <time>2021-05-29T08:23:31Z</time>
      </trkpt>
      <trkpt lat="45.0419" lon="5.74733">
        <ele>1202.2</ele>
        <time>2021-05-29T08:23:32Z</time>
      </trkpt>
      <trkpt lat="45.0419" lon="5.74733">
        <ele>1202.2</ele>
        <time>2021-05-29T08:23:33Z</time>
      </trkpt>
      <trkpt lat="45.04189" lon="5.74732">
        <ele>1202.4</ele>
        <time>2021-05-29T08:23:34Z</time>
      </trkpt>
      <trkpt lat="45.04189" lon="5.7473">
        <ele>1202.6</ele>
        <time>2021-05-29T08:23:35Z</time>
      </trkpt>
      <trkpt lat="45.04189" lon="5.74729">
        <ele>1202.6</ele>
        <time>2021-05-29T08:23:36Z</time>
      </trkpt>
      <trkpt lat="45.04189" lon="5.74728">
        <ele>1202.8</ele>
        <time>2021-05-29T08:23:37Z</time>
      </trkpt>
      <trkpt lat="45.04189" lon="5.74726">
        <ele>1203</ele>
        <time>2021-05-29T08:23:38Z</time>
      </trkpt>
      <trkpt lat="45.04189" lon="5.74725">
        <ele>1203.2</ele>
        <time>2021-05-29T08:23:39Z</time>
      </trkpt>
      <trkpt lat="45.04188" lon="5.74724">
        <ele>1203.4</ele>
        <time>2021-05-29T08:23:40Z</time>
      </trkpt>
      <trkpt lat="45.04188" lon="5.74722">
        <ele>1203.8</ele>
        <time>2021-05-29T08:23:41Z</time>
      </trkpt>
      <trkpt lat="45.04188" lon="5.74721">
        <ele>1203.8</ele>
        <time>2021-05-29T08:23:42Z</time>
      </trkpt>
      <trkpt lat="45.04188" lon="5.7472">
        <ele>1204</ele>
        <time>2021-05-29T08:23:43Z</time>
      </trkpt>
      <trkpt lat="45.04188" lon="5.74718">
        <ele>1204.2</ele>
        <time>2021-05-29T08:23:44Z</time>
      </trkpt>
      <trkpt lat="45.04187" lon="5.74717">
        <ele>1204.4</ele>
        <time>2021-05-29T08:23:45Z</time>
      </trkpt>
      <trkpt lat="45.04187" lon="5.74716">
        <ele>1204.8</ele>
        <time>2021-05-29T08:23:46Z</time>
      </trkpt>
      <trkpt lat="45.04186" lon="5.74715">
        <ele>1205</ele>
        <time>2021-05-29T08:23:47Z</time>
      </trkpt>
      <trkpt lat="45.04186" lon="5.74713">
        <ele>1205.2</ele>
        <time>2021-05-29T08:23:48Z</time>
      </trkpt>
      <trkpt lat="45.04185" lon="5.74712">
        <ele>1205.6</ele>
        <time>2021-05-29T08:23:49Z</time>
      </trkpt>
      <trkpt lat="45.04185" lon="5.74711">
        <ele>1205.8</ele>
        <time>2021-05-29T08:23:50Z</time>
      </trkpt>
      <trkpt lat="45.04184" lon="5.74709">
        <ele>1206</ele>
        <time>2021-05-29T08:23:51Z</time>
      </trkpt>
      <trkpt lat="45.04184" lon="5.74708">
        <ele>1206.4</ele>
        <time>2021-05-29T08:23:52Z</time>
      </trkpt>
      <trkpt lat="45.04183" lon="5.74707">
        <ele>1206.8</ele>
        <time>2021-05-29T08:23:53Z</time>
      </trkpt>
      <trkpt lat="45.04183" lon="5.74706">
        <ele>1207</ele>
        <time>2021-05-29T08:23:54Z</time>
      </trkpt>
      <trkpt lat="45.04183" lon="5.74705">
        <ele>1207.2</ele>
        <time>2021-05-29T08:23:55Z</time>
      </trkpt>
      <trkpt lat="45.04182" lon="5.74703">
        <ele>1207.4</ele>
        <time>2021-05-29T08:23:56Z</time>
      </trkpt>
      <trkpt lat="45.04182" lon="5.74702">
        <ele>1207.8</ele>
        <time>2021-05-29T08:23:57Z</time>
      </trkpt>
      <trkpt lat="45.04182" lon="5.74701">
        <ele>1208</ele>
        <time>2021-05-29T08:23:58Z</time>
      </trkpt>
      <trkpt lat="45.04181" lon="5.747">
        <ele>1208.2</ele>
        <time>2021-05-29T08:23:59Z</time>
      </trkpt>
      <trkpt lat="45.04181" lon="5.74699">
        <ele>1208.4</ele>
        <time>2021-05-29T08:24:00Z</time>
      </trkpt>
      <trkpt lat="45.04181" lon="5.74698">
        <ele>1208.6</ele>
        <time>2021-05-29T08:24:01Z</time>
      </trkpt>
      <trkpt lat="45.0418" lon="5.74697">
        <ele>1208.8</ele>
        <time>2021-05-29T08:24:02Z</time>
      </trkpt>
      <trkpt lat="45.0418" lon="5.74695">
        <ele>1209.2</ele>
        <time>2021-05-29T08:24:03Z</time>
      </trkpt>
      <trkpt lat="45.0418" lon="5.74694">
        <ele>1209.2</ele>
        <time>2021-05-29T08:24:04Z</time>
      </trkpt>
      <trkpt lat="45.04179" lon="5.74693">
        <ele>1209.6</ele>
        <time>2021-05-29T08:24:05Z</time>
      </trkpt>
      <trkpt lat="45.04179" lon="5.74692">
        <ele>1209.8</ele>
        <time>2021-05-29T08:24:06Z</time>
      </trkpt>
      <trkpt lat="45.04179" lon="5.74691">
        <ele>1210.2</ele>
        <time>2021-05-29T08:24:07Z</time>
      </trkpt>
      <trkpt lat="45.04179" lon="5.7469">
        <ele>1210.4</ele>
        <time>2021-05-29T08:24:08Z</time>
      </trkpt>
      <trkpt lat="45.04178" lon="5.74689">
        <ele>1210.8</ele>
        <time>2021-05-29T08:24:09Z</time>
      </trkpt>
      <trkpt lat="45.04178" lon="5.74688">
        <ele>1210.8</ele>
        <time>2021-05-29T08:24:10Z</time>
      </trkpt>
      <trkpt lat="45.04178" lon="5.74687">
        <ele>1211.2</ele>
        <time>2021-05-29T08:24:11Z</time>
      </trkpt>
      <trkpt lat="45.04178" lon="5.74686">
        <ele>1211.2</ele>
        <time>2021-05-29T08:24:12Z</time>
      </trkpt>
      <trkpt lat="45.04177" lon="5.74685">
        <ele>1211.4</ele>
        <time>2021-05-29T08:24:13Z</time>
      </trkpt>
      <trkpt lat="45.04177" lon="5.74684">
        <ele>1211.6</ele>
        <time>2021-05-29T08:24:14Z</time>
      </trkpt>
      <trkpt lat="45.04177" lon="5.74683">
        <ele>1211.8</ele>
        <time>2021-05-29T08:24:15Z</time>
      </trkpt>
      <trkpt lat="45.04177" lon="5.74682">
        <ele>1211.8</ele>
        <time>2021-05-29T08:24:16Z</time>
      </trkpt>
      <trkpt lat="45.04177" lon="5.74681">
        <ele>1212.2</ele>
        <time>2021-05-29T08:24:17Z</time>
      </trkpt>
      <trkpt lat="45.04177" lon="5.7468">
        <ele>1212.4</ele>
        <time>2021-05-29T08:24:18Z</time>
      </trkpt>
      <trkpt lat="45.04177" lon="5.74679">
        <ele>1212.4</ele>
        <time>2021-05-29T08:24:19Z</time>
      </trkpt>
      <trkpt lat="45.04177" lon="5.74678">
        <ele>1212.8</ele>
        <time>2021-05-29T08:24:20Z</time>
      </trkpt>
      <trkpt lat="45.04177" lon="5.74677">
        <ele>1213.2</ele>
        <time>2021-05-29T08:24:21Z</time>
      </trkpt>
      <trkpt lat="45.04177" lon="5.74676">
        <ele>1213.4</ele>
        <time>2021-05-29T08:24:22Z</time>
      </trkpt>
      <trkpt lat="45.04177" lon="5.74675">
        <ele>1213.6</ele>
        <time>2021-05-29T08:24:23Z</time>
      </trkpt>
      <trkpt lat="45.04177" lon="5.74674">
        <ele>1213.8</ele>
        <time>2021-05-29T08:24:24Z</time>
      </trkpt>
      <trkpt lat="45.04177" lon="5.74673">
        <ele>1213.8</ele>
        <time>2021-05-29T08:24:25Z</time>
      </trkpt>
      <trkpt lat="45.04177" lon="5.74672">
        <ele>1214</ele>
        <time>2021-05-29T08:24:26Z</time>
      </trkpt>
      <trkpt lat="45.04177" lon="5.74671">
        <ele>1214.2</ele>
        <time>2021-05-29T08:24:27Z</time>
      </trkpt>
      <trkpt lat="45.04177" lon="5.7467">
        <ele>1214.2</ele>
        <time>2021-05-29T08:24:28Z</time>
      </trkpt>
      <trkpt lat="45.04177" lon="5.74669">
        <ele>1214.4</ele>
        <time>2021-05-29T08:24:29Z</time>
      </trkpt>
      <trkpt lat="45.04177" lon="5.74668">
        <ele>1214.6</ele>
        <time>2021-05-29T08:24:30Z</time>
      </trkpt>
      <trkpt lat="45.04177" lon="5.74667">
        <ele>1214.8</ele>
        <time>2021-05-29T08:24:31Z</time>
      </trkpt>
      <trkpt lat="45.04178" lon="5.74666">
        <ele>1215</ele>
        <time>2021-05-29T08:24:32Z</time>
      </trkpt>
      <trkpt lat="45.04178" lon="5.74665">
        <ele>1215.2</ele>
        <time>2021-05-29T08:24:33Z</time>
      </trkpt>
      <trkpt lat="45.04179" lon="5.74664">
        <ele>1215.4</ele>
        <time>2021-05-29T08:24:34Z</time>
      </trkpt>
      <trkpt lat="45.04179" lon="5.74663">
        <ele>1215.6</ele>
        <time>2021-05-29T08:24:35Z</time>
      </trkpt>
      <trkpt lat="45.0418" lon="5.74663">
        <ele>1215.8</ele>
        <time>2021-05-29T08:24:36Z</time>
      </trkpt>
      <trkpt lat="45.04181" lon="5.74662">
        <ele>1216.2</ele>
        <time>2021-05-29T08:24:37Z</time>
      </trkpt>
      <trkpt lat="45.04181" lon="5.74661">
        <ele>1216.4</ele>
        <time>2021-05-29T08:24:38Z</time>
      </trkpt>
      <trkpt lat="45.04182" lon="5.7466">
        <ele>1216.4</ele>
        <time>2021-05-29T08:24:39Z</time>
      </trkpt>
      <trkpt lat="45.04182" lon="5.74659">
        <ele>1216.8</ele>
        <time>2021-05-29T08:24:40Z</time>
      </trkpt>
      <trkpt lat="45.04183" lon="5.74658">
        <ele>1217</ele>
        <time>2021-05-29T08:24:41Z</time>
      </trkpt>
      <trkpt lat="45.04183" lon="5.74657">
        <ele>1217.2</ele>
        <time>2021-05-29T08:24:42Z</time>
      </trkpt>
      <trkpt lat="45.04184" lon="5.74657">
        <ele>1217.6</ele>
        <time>2021-05-29T08:24:43Z</time>
      </trkpt>
      <trkpt lat="45.04185" lon="5.74657">
        <ele>1217.8</ele>
        <time>2021-05-29T08:24:44Z</time>
      </trkpt>
      <trkpt lat="45.04185" lon="5.74656">
        <ele>1217.8</ele>
        <time>2021-05-29T08:24:45Z</time>
      </trkpt>
      <trkpt lat="45.04186" lon="5.74656">
        <ele>1218.2</ele>
        <time>2021-05-29T08:24:46Z</time>
      </trkpt>
      <trkpt lat="45.04186" lon="5.74656">
        <ele>1218.4</ele>
        <time>2021-05-29T08:24:47Z</time>
      </trkpt>
      <trkpt lat="45.04187" lon="5.74655">
        <ele>1218.8</ele>
        <time>2021-05-29T08:24:48Z</time>
      </trkpt>
      <trkpt lat="45.04187" lon="5.74655">
        <ele>1218.8</ele>
        <time>2021-05-29T08:24:49Z</time>
      </trkpt>
      <trkpt lat="45.04188" lon="5.74655">
        <ele>1219.2</ele>
        <time>2021-05-29T08:24:50Z</time>
      </trkpt>
      <trkpt lat="45.04188" lon="5.74654">
        <ele>1219.4</ele>
        <time>2021-05-29T08:24:51Z</time>
      </trkpt>
      <trkpt lat="45.04189" lon="5.74654">
        <ele>1219.6</ele>
        <time>2021-05-29T08:24:52Z</time>
      </trkpt>
      <trkpt lat="45.04189" lon="5.74654">
        <ele>1219.8</ele>
        <time>2021-05-29T08:24:53Z</time>
      </trkpt>
      <trkpt lat="45.0419" lon="5.74653">
        <ele>1220</ele>
        <time>2021-05-29T08:24:54Z</time>
      </trkpt>
      <trkpt lat="45.04191" lon="5.74653">
        <ele>1220.2</ele>
        <time>2021-05-29T08:24:55Z</time>
      </trkpt>
      <trkpt lat="45.04191" lon="5.74653">
        <ele>1220.6</ele>
        <time>2021-05-29T08:24:56Z</time>
      </trkpt>
      <trkpt lat="45.04192" lon="5.74652">
        <ele>1220.6</ele>
        <time>2021-05-29T08:24:57Z</time>
      </trkpt>
      <trkpt lat="45.04193" lon="5.74652">
        <ele>1220.8</ele>
        <time>2021-05-29T08:24:58Z</time>
      </trkpt>
      <trkpt lat="45.04194" lon="5.74652">
        <ele>1221.2</ele>
        <time>2021-05-29T08:24:59Z</time>
      </trkpt>
      <trkpt lat="45.04195" lon="5.74652">
        <ele>1221.2</ele>
        <time>2021-05-29T08:25:00Z</time>
      </trkpt>
      <trkpt lat="45.04196" lon="5.74652">
        <ele>1221.4</ele>
        <time>2021-05-29T08:25:01Z</time>
      </trkpt>
      <trkpt lat="45.04197" lon="5.74651">
        <ele>1221.6</ele>
        <time>2021-05-29T08:25:02Z</time>
      </trkpt>
      <trkpt lat="45.04197" lon="5.74651">
        <ele>1222</ele>
        <time>2021-05-29T08:25:03Z</time>
      </trkpt>
      <trkpt lat="45.04198" lon="5.74651">
        <ele>1222.6</ele>
        <time>2021-05-29T08:25:04Z</time>
      </trkpt>
      <trkpt lat="45.04199" lon="5.74651">
        <ele>1223.2</ele>
        <time>2021-05-29T08:25:05Z</time>
      </trkpt>
      <trkpt lat="45.042" lon="5.7465">
        <ele>1223.6</ele>
        <time>2021-05-29T08:25:06Z</time>
      </trkpt>
      <trkpt lat="45.04201" lon="5.7465">
        <ele>1223.4</ele>
        <time>2021-05-29T08:25:07Z</time>
      </trkpt>
      <trkpt lat="45.04202" lon="5.7465">
        <ele>1223.6</ele>
        <time>2021-05-29T08:25:08Z</time>
      </trkpt>
      <trkpt lat="45.04203" lon="5.7465">
        <ele>1223.6</ele>
        <time>2021-05-29T08:25:09Z</time>
      </trkpt>
      <trkpt lat="45.04204" lon="5.74649">
        <ele>1223.6</ele>
        <time>2021-05-29T08:25:10Z</time>
      </trkpt>
      <trkpt lat="45.04204" lon="5.74649">
        <ele>1223.8</ele>
        <time>2021-05-29T08:25:11Z</time>
      </trkpt>
      <trkpt lat="45.04205" lon="5.74649">
        <ele>1224</ele>
        <time>2021-05-29T08:25:12Z</time>
      </trkpt>
      <trkpt lat="45.04206" lon="5.74649">
        <ele>1224.2</ele>
        <time>2021-05-29T08:25:13Z</time>
      </trkpt>
      <trkpt lat="45.04207" lon="5.74648">
        <ele>1224.6</ele>
        <time>2021-05-29T08:25:14Z</time>
      </trkpt>
      <trkpt lat="45.04207" lon="5.74648">
        <ele>1224.8</ele>
        <time>2021-05-29T08:25:15Z</time>
      </trkpt>
      <trkpt lat="45.04208" lon="5.74648">
        <ele>1225</ele>
        <time>2021-05-29T08:25:16Z</time>
      </trkpt>
      <trkpt lat="45.04209" lon="5.74648">
        <ele>1225.2</ele>
        <time>2021-05-29T08:25:17Z</time>
      </trkpt>
      <trkpt lat="45.0421" lon="5.74647">
        <ele>1225.4</ele>
        <time>2021-05-29T08:25:18Z</time>
      </trkpt>
      <trkpt lat="45.0421" lon="5.74647">
        <ele>1225.6</ele>
        <time>2021-05-29T08:25:19Z</time>
      </trkpt>
      <trkpt lat="45.04211" lon="5.74647">
        <ele>1225.8</ele>
        <time>2021-05-29T08:25:20Z</time>
      </trkpt>
      <trkpt lat="45.04212" lon="5.74647">
        <ele>1226</ele>
        <time>2021-05-29T08:25:21Z</time>
      </trkpt>
      <trkpt lat="45.04213" lon="5.74646">
        <ele>1226.2</ele>
        <time>2021-05-29T08:25:22Z</time>
      </trkpt>
      <trkpt lat="45.04214" lon="5.74646">
        <ele>1226.4</ele>
        <time>2021-05-29T08:25:23Z</time>
      </trkpt>
      <trkpt lat="45.04215" lon="5.74645">
        <ele>1226.6</ele>
        <time>2021-05-29T08:25:24Z</time>
      </trkpt>
      <trkpt lat="45.04215" lon="5.74645">
        <ele>1226.8</ele>
        <time>2021-05-29T08:25:25Z</time>
      </trkpt>
      <trkpt lat="45.04216" lon="5.74645">
        <ele>1227</ele>
        <time>2021-05-29T08:25:26Z</time>
      </trkpt>
      <trkpt lat="45.04217" lon="5.74644">
        <ele>1227.2</ele>
        <time>2021-05-29T08:25:27Z</time>
      </trkpt>
      <trkpt lat="45.04218" lon="5.74644">
        <ele>1227.4</ele>
        <time>2021-05-29T08:25:28Z</time>
      </trkpt>
      <trkpt lat="45.04219" lon="5.74644">
        <ele>1227.4</ele>
        <time>2021-05-29T08:25:29Z</time>
      </trkpt>
      <trkpt lat="45.0422" lon="5.74643">
        <ele>1227.6</ele>
        <time>2021-05-29T08:25:30Z</time>
      </trkpt>
      <trkpt lat="45.0422" lon="5.74643">
        <ele>1227.6</ele>
        <time>2021-05-29T08:25:31Z</time>
      </trkpt>
      <trkpt lat="45.04221" lon="5.74642">
        <ele>1227.8</ele>
        <time>2021-05-29T08:25:32Z</time>
      </trkpt>
      <trkpt lat="45.04223" lon="5.74642">
        <ele>1228.2</ele>
        <time>2021-05-29T08:25:33Z</time>
      </trkpt>
      <trkpt lat="45.04224" lon="5.74641">
        <ele>1228.2</ele>
        <time>2021-05-29T08:25:34Z</time>
      </trkpt>
      <trkpt lat="45.04225" lon="5.74641">
        <ele>1228.4</ele>
        <time>2021-05-29T08:25:35Z</time>
      </trkpt>
      <trkpt lat="45.04227" lon="5.7464">
        <ele>1228.6</ele>
        <time>2021-05-29T08:25:36Z</time>
      </trkpt>
      <trkpt lat="45.04228" lon="5.7464">
        <ele>1228.6</ele>
        <time>2021-05-29T08:25:37Z</time>
      </trkpt>
      <trkpt lat="45.0423" lon="5.74639">
        <ele>1228.8</ele>
        <time>2021-05-29T08:25:38Z</time>
      </trkpt>
      <trkpt lat="45.04231" lon="5.74639">
        <ele>1229.2</ele>
        <time>2021-05-29T08:25:39Z</time>
      </trkpt>
      <trkpt lat="45.04232" lon="5.74638">
        <ele>1229.4</ele>
        <time>2021-05-29T08:25:40Z</time>
      </trkpt>
      <trkpt lat="45.04234" lon="5.74637">
        <ele>1229.6</ele>
        <time>2021-05-29T08:25:41Z</time>
      </trkpt>
      <trkpt lat="45.04235" lon="5.74636">
        <ele>1229.8</ele>
        <time>2021-05-29T08:25:42Z</time>
      </trkpt>
      <trkpt lat="45.04236" lon="5.74635">
        <ele>1230.2</ele>
        <time>2021-05-29T08:25:43Z</time>
      </trkpt>
      <trkpt lat="45.04237" lon="5.74634">
        <ele>1230.4</ele>
        <time>2021-05-29T08:25:44Z</time>
      </trkpt>
      <trkpt lat="45.04239" lon="5.74633">
        <ele>1230.8</ele>
        <time>2021-05-29T08:25:45Z</time>
      </trkpt>
      <trkpt lat="45.0424" lon="5.74632">
        <ele>1231.2</ele>
        <time>2021-05-29T08:25:46Z</time>
      </trkpt>
      <trkpt lat="45.04241" lon="5.74632">
        <ele>1231.2</ele>
        <time>2021-05-29T08:25:47Z</time>
      </trkpt>
      <trkpt lat="45.04242" lon="5.74631">
        <ele>1231.4</ele>
        <time>2021-05-29T08:25:48Z</time>
      </trkpt>
      <trkpt lat="45.04243" lon="5.74631">
        <ele>1231.4</ele>
        <time>2021-05-29T08:25:49Z</time>
      </trkpt>
      <trkpt lat="45.04244" lon="5.7463">
        <ele>1231.6</ele>
        <time>2021-05-29T08:25:50Z</time>
      </trkpt>
      <trkpt lat="45.04245" lon="5.74629">
        <ele>1231.6</ele>
        <time>2021-05-29T08:25:51Z</time>
      </trkpt>
      <trkpt lat="45.04246" lon="5.74629">
        <ele>1231.6</ele>
        <time>2021-05-29T08:25:52Z</time>
      </trkpt>
      <trkpt lat="45.04247" lon="5.74628">
        <ele>1231.6</ele>
        <time>2021-05-29T08:25:53Z</time>
      </trkpt>
      <trkpt lat="45.04248" lon="5.74627">
        <ele>1231.6</ele>
        <time>2021-05-29T08:25:54Z</time>
      </trkpt>
      <trkpt lat="45.04249" lon="5.74627">
        <ele>1231.6</ele>
        <time>2021-05-29T08:25:55Z</time>
      </trkpt>
      <trkpt lat="45.0425" lon="5.74626">
        <ele>1231.8</ele>
        <time>2021-05-29T08:25:56Z</time>
      </trkpt>
      <trkpt lat="45.04251" lon="5.74626">
        <ele>1232</ele>
        <time>2021-05-29T08:25:57Z</time>
      </trkpt>
      <trkpt lat="45.04252" lon="5.74625">
        <ele>1232.2</ele>
        <time>2021-05-29T08:25:58Z</time>
      </trkpt>
      <trkpt lat="45.04253" lon="5.74624">
        <ele>1232.2</ele>
        <time>2021-05-29T08:25:59Z</time>
      </trkpt>
      <trkpt lat="45.04253" lon="5.74624">
        <ele>1232.2</ele>
        <time>2021-05-29T08:26:00Z</time>
      </trkpt>
      <trkpt lat="45.04254" lon="5.74623">
        <ele>1232.2</ele>
        <time>2021-05-29T08:26:01Z</time>
      </trkpt>
      <trkpt lat="45.04255" lon="5.74622">
        <ele>1232.4</ele>
        <time>2021-05-29T08:26:02Z</time>
      </trkpt>
      <trkpt lat="45.04256" lon="5.74621">
        <ele>1232.4</ele>
        <time>2021-05-29T08:26:03Z</time>
      </trkpt>
      <trkpt lat="45.04257" lon="5.74621">
        <ele>1232.4</ele>
        <time>2021-05-29T08:26:04Z</time>
      </trkpt>
      <trkpt lat="45.04258" lon="5.7462">
        <ele>1232.6</ele>
        <time>2021-05-29T08:26:05Z</time>
      </trkpt>
      <trkpt lat="45.04259" lon="5.74619">
        <ele>1232.6</ele>
        <time>2021-05-29T08:26:06Z</time>
      </trkpt>
      <trkpt lat="45.0426" lon="5.74619">
        <ele>1232.6</ele>
        <time>2021-05-29T08:26:07Z</time>
      </trkpt>
      <trkpt lat="45.04262" lon="5.74618">
        <ele>1232.4</ele>
        <time>2021-05-29T08:26:08Z</time>
      </trkpt>
      <trkpt lat="45.04263" lon="5.74617">
        <ele>1232.4</ele>
        <time>2021-05-29T08:26:09Z</time>
      </trkpt>
      <trkpt lat="45.04264" lon="5.74617">
        <ele>1232.2</ele>
        <time>2021-05-29T08:26:10Z</time>
      </trkpt>
      <trkpt lat="45.04265" lon="5.74616">
        <ele>1232.2</ele>
        <time>2021-05-29T08:26:11Z</time>
      </trkpt>
      <trkpt lat="45.04267" lon="5.74615">
        <ele>1232</ele>
        <time>2021-05-29T08:26:12Z</time>
      </trkpt>
      <trkpt lat="45.04268" lon="5.74615">
        <ele>1232</ele>
        <time>2021-05-29T08:26:13Z</time>
      </trkpt>
      <trkpt lat="45.04269" lon="5.74614">
        <ele>1232</ele>
        <time>2021-05-29T08:26:14Z</time>
      </trkpt>
      <trkpt lat="45.04269" lon="5.74613">
        <ele>1232.2</ele>
        <time>2021-05-29T08:26:15Z</time>
      </trkpt>
      <trkpt lat="45.0427" lon="5.74613">
        <ele>1232.2</ele>
        <time>2021-05-29T08:26:16Z</time>
      </trkpt>
      <trkpt lat="45.0427" lon="5.74612">
        <ele>1232.2</ele>
        <time>2021-05-29T08:26:17Z</time>
      </trkpt>
      <trkpt lat="45.04271" lon="5.74612">
        <ele>1232.4</ele>
        <time>2021-05-29T08:26:18Z</time>
      </trkpt>
      <trkpt lat="45.04272" lon="5.74611">
        <ele>1232.4</ele>
        <time>2021-05-29T08:26:19Z</time>
      </trkpt>
      <trkpt lat="45.04272" lon="5.74611">
        <ele>1232.6</ele>
        <time>2021-05-29T08:26:20Z</time>
      </trkpt>
      <trkpt lat="45.04273" lon="5.7461">
        <ele>1232.8</ele>
        <time>2021-05-29T08:26:21Z</time>
      </trkpt>
      <trkpt lat="45.04274" lon="5.74609">
        <ele>1232.8</ele>
        <time>2021-05-29T08:26:22Z</time>
      </trkpt>
      <trkpt lat="45.04274" lon="5.74609">
        <ele>1232.8</ele>
        <time>2021-05-29T08:26:23Z</time>
      </trkpt>
      <trkpt lat="45.04275" lon="5.74608">
        <ele>1233</ele>
        <time>2021-05-29T08:26:24Z</time>
      </trkpt>
      <trkpt lat="45.04275" lon="5.74608">
        <ele>1233.2</ele>
        <time>2021-05-29T08:26:25Z</time>
      </trkpt>
      <trkpt lat="45.04276" lon="5.74607">
        <ele>1233.4</ele>
        <time>2021-05-29T08:26:26Z</time>
      </trkpt>
      <trkpt lat="45.04276" lon="5.74606">
        <ele>1233.6</ele>
        <time>2021-05-29T08:26:27Z</time>
      </trkpt>
      <trkpt lat="45.04277" lon="5.74606">
        <ele>1233.8</ele>
        <time>2021-05-29T08:26:28Z</time>
      </trkpt>
      <trkpt lat="45.04277" lon="5.74605">
        <ele>1233.8</ele>
        <time>2021-05-29T08:26:29Z</time>
      </trkpt>
      <trkpt lat="45.04278" lon="5.74604">
        <ele>1234</ele>
        <time>2021-05-29T08:26:30Z</time>
      </trkpt>
      <trkpt lat="45.04278" lon="5.74604">
        <ele>1234.4</ele>
        <time>2021-05-29T08:26:31Z</time>
      </trkpt>
      <trkpt lat="45.04279" lon="5.74603">
        <ele>1234.6</ele>
        <time>2021-05-29T08:26:32Z</time>
      </trkpt>
      <trkpt lat="45.04279" lon="5.74602">
        <ele>1234.6</ele>
        <time>2021-05-29T08:26:33Z</time>
      </trkpt>
      <trkpt lat="45.0428" lon="5.74602">
        <ele>1234.8</ele>
        <time>2021-05-29T08:26:34Z</time>
      </trkpt>
      <trkpt lat="45.0428" lon="5.74601">
        <ele>1235.2</ele>
        <time>2021-05-29T08:26:35Z</time>
      </trkpt>
      <trkpt lat="45.0428" lon="5.746">
        <ele>1235.6</ele>
        <time>2021-05-29T08:26:36Z</time>
      </trkpt>
      <trkpt lat="45.04281" lon="5.746">
        <ele>1235.8</ele>
        <time>2021-05-29T08:26:37Z</time>
      </trkpt>
      <trkpt lat="45.04281" lon="5.74599">
        <ele>1235.8</ele>
        <time>2021-05-29T08:26:38Z</time>
      </trkpt>
      <trkpt lat="45.04282" lon="5.74598">
        <ele>1236</ele>
        <time>2021-05-29T08:26:39Z</time>
      </trkpt>
      <trkpt lat="45.04282" lon="5.74598">
        <ele>1236.2</ele>
        <time>2021-05-29T08:26:40Z</time>
      </trkpt>
      <trkpt lat="45.04283" lon="5.74597">
        <ele>1236.4</ele>
        <time>2021-05-29T08:26:41Z</time>
      </trkpt>
      <trkpt lat="45.04283" lon="5.74596">
        <ele>1236.8</ele>
        <time>2021-05-29T08:26:42Z</time>
      </trkpt>
      <trkpt lat="45.04283" lon="5.74594">
        <ele>1237.2</ele>
        <time>2021-05-29T08:26:43Z</time>
      </trkpt>
      <trkpt lat="45.04283" lon="5.74593">
        <ele>1237.8</ele>
        <time>2021-05-29T08:26:44Z</time>
      </trkpt>
      <trkpt lat="45.04283" lon="5.74592">
        <ele>1237.8</ele>
        <time>2021-05-29T08:26:45Z</time>
      </trkpt>
      <trkpt lat="45.04283" lon="5.74591">
        <ele>1238</ele>
        <time>2021-05-29T08:26:46Z</time>
      </trkpt>
      <trkpt lat="45.04283" lon="5.7459">
        <ele>1238</ele>
        <time>2021-05-29T08:26:47Z</time>
      </trkpt>
      <trkpt lat="45.04283" lon="5.74588">
        <ele>1238.2</ele>
        <time>2021-05-29T08:26:48Z</time>
      </trkpt>
      <trkpt lat="45.04284" lon="5.74587">
        <ele>1238.4</ele>
        <time>2021-05-29T08:26:49Z</time>
      </trkpt>
      <trkpt lat="45.04284" lon="5.74586">
        <ele>1238.6</ele>
        <time>2021-05-29T08:26:50Z</time>
      </trkpt>
      <trkpt lat="45.04284" lon="5.74585">
        <ele>1238.8</ele>
        <time>2021-05-29T08:26:51Z</time>
      </trkpt>
      <trkpt lat="45.04284" lon="5.74584">
        <ele>1239.2</ele>
        <time>2021-05-29T08:26:52Z</time>
      </trkpt>
      <trkpt lat="45.04285" lon="5.74582">
        <ele>1239.4</ele>
        <time>2021-05-29T08:26:53Z</time>
      </trkpt>
      <trkpt lat="45.04285" lon="5.74581">
        <ele>1239.6</ele>
        <time>2021-05-29T08:26:54Z</time>
      </trkpt>
      <trkpt lat="45.04286" lon="5.74579">
        <ele>1239.8</ele>
        <time>2021-05-29T08:26:55Z</time>
      </trkpt>
      <trkpt lat="45.04287" lon="5.74578">
        <ele>1240.2</ele>
        <time>2021-05-29T08:26:56Z</time>
      </trkpt>
      <trkpt lat="45.04287" lon="5.74576">
        <ele>1240.6</ele>
        <time>2021-05-29T08:26:57Z</time>
      </trkpt>
      <trkpt lat="45.04288" lon="5.74574">
        <ele>1240.8</ele>
        <time>2021-05-29T08:26:58Z</time>
      </trkpt>
      <trkpt lat="45.04289" lon="5.74573">
        <ele>1241.2</ele>
        <time>2021-05-29T08:26:59Z</time>
      </trkpt>
      <trkpt lat="45.04289" lon="5.74571">
        <ele>1241.4</ele>
        <time>2021-05-29T08:27:00Z</time>
      </trkpt>
      <trkpt lat="45.04289" lon="5.74571">
        <ele>1241.4</ele>
        <time>2021-05-29T08:27:01Z</time>
      </trkpt>
      <trkpt lat="45.0429" lon="5.7457">
        <ele>1241.6</ele>
        <time>2021-05-29T08:27:02Z</time>
      </trkpt>
      <trkpt lat="45.0429" lon="5.74569">
        <ele>1242.2</ele>
        <time>2021-05-29T08:27:03Z</time>
      </trkpt>
      <trkpt lat="45.0429" lon="5.74568">
        <ele>1242.6</ele>
        <time>2021-05-29T08:27:04Z</time>
      </trkpt>
      <trkpt lat="45.04291" lon="5.74567">
        <ele>1242.8</ele>
        <time>2021-05-29T08:27:05Z</time>
      </trkpt>
      <trkpt lat="45.04291" lon="5.74566">
        <ele>1243</ele>
        <time>2021-05-29T08:27:06Z</time>
      </trkpt>
      <trkpt lat="45.04291" lon="5.74566">
        <ele>1243.2</ele>
        <time>2021-05-29T08:27:07Z</time>
      </trkpt>
      <trkpt lat="45.04292" lon="5.74565">
        <ele>1243.4</ele>
        <time>2021-05-29T08:27:08Z</time>
      </trkpt>
      <trkpt lat="45.04292" lon="5.74564">
        <ele>1243.8</ele>
        <time>2021-05-29T08:27:09Z</time>
      </trkpt>
      <trkpt lat="45.04292" lon="5.74563">
        <ele>1244.4</ele>
        <time>2021-05-29T08:27:10Z</time>
      </trkpt>
      <trkpt lat="45.04293" lon="5.74562">
        <ele>1244.8</ele>
        <time>2021-05-29T08:27:11Z</time>
      </trkpt>
      <trkpt lat="45.04293" lon="5.74561">
        <ele>1244.8</ele>
        <time>2021-05-29T08:27:12Z</time>
      </trkpt>
      <trkpt lat="45.04293" lon="5.7456">
        <ele>1245</ele>
        <time>2021-05-29T08:27:13Z</time>
      </trkpt>
      <trkpt lat="45.04294" lon="5.7456">
        <ele>1245.2</ele>
        <time>2021-05-29T08:27:14Z</time>
      </trkpt>
      <trkpt lat="45.04294" lon="5.74559">
        <ele>1245.8</ele>
        <time>2021-05-29T08:27:15Z</time>
      </trkpt>
      <trkpt lat="45.04294" lon="5.74558">
        <ele>1246</ele>
        <time>2021-05-29T08:27:16Z</time>
      </trkpt>
      <trkpt lat="45.04295" lon="5.74557">
        <ele>1246.2</ele>
        <time>2021-05-29T08:27:17Z</time>
      </trkpt>
      <trkpt lat="45.04295" lon="5.74557">
        <ele>1246.4</ele>
        <time>2021-05-29T08:27:18Z</time>
      </trkpt>
      <trkpt lat="45.04296" lon="5.74556">
        <ele>1246.6</ele>
        <time>2021-05-29T08:27:19Z</time>
      </trkpt>
      <trkpt lat="45.04296" lon="5.74555">
        <ele>1246.8</ele>
        <time>2021-05-29T08:27:20Z</time>
      </trkpt>
      <trkpt lat="45.04296" lon="5.74555">
        <ele>1246.8</ele>
        <time>2021-05-29T08:27:21Z</time>
      </trkpt>
      <trkpt lat="45.04297" lon="5.74554">
        <ele>1247.2</ele>
        <time>2021-05-29T08:27:22Z</time>
      </trkpt>
      <trkpt lat="45.04297" lon="5.74553">
        <ele>1247.4</ele>
        <time>2021-05-29T08:27:23Z</time>
      </trkpt>
      <trkpt lat="45.04298" lon="5.74552">
        <ele>1247.8</ele>
        <time>2021-05-29T08:27:24Z</time>
      </trkpt>
      <trkpt lat="45.04298" lon="5.74552">
        <ele>1248</ele>
        <time>2021-05-29T08:27:25Z</time>
      </trkpt>
      <trkpt lat="45.04299" lon="5.74551">
        <ele>1248.2</ele>
        <time>2021-05-29T08:27:26Z</time>
      </trkpt>
      <trkpt lat="45.04299" lon="5.7455">
        <ele>1248.4</ele>
        <time>2021-05-29T08:27:27Z</time>
      </trkpt>
      <trkpt lat="45.04299" lon="5.74549">
        <ele>1248.8</ele>
        <time>2021-05-29T08:27:28Z</time>
      </trkpt>
      <trkpt lat="45.043" lon="5.74549">
        <ele>1249</ele>
        <time>2021-05-29T08:27:29Z</time>
      </trkpt>
      <trkpt lat="45.04301" lon="5.74549">
        <ele>1249.2</ele>
        <time>2021-05-29T08:27:30Z</time>
      </trkpt>
      <trkpt lat="45.04301" lon="5.74549">
        <ele>1249.4</ele>
        <time>2021-05-29T08:27:31Z</time>
      </trkpt>
      <trkpt lat="45.04302" lon="5.74548">
        <ele>1249.8</ele>
        <time>2021-05-29T08:27:32Z</time>
      </trkpt>
      <trkpt lat="45.04303" lon="5.74548">
        <ele>1250</ele>
        <time>2021-05-29T08:27:33Z</time>
      </trkpt>
      <trkpt lat="45.04303" lon="5.74548">
        <ele>1250.2</ele>
        <time>2021-05-29T08:27:34Z</time>
      </trkpt>
      <trkpt lat="45.04304" lon="5.74547">
        <ele>1250.6</ele>
        <time>2021-05-29T08:27:35Z</time>
      </trkpt>
      <trkpt lat="45.04305" lon="5.74547">
        <ele>1250.8</ele>
        <time>2021-05-29T08:27:36Z</time>
      </trkpt>
      <trkpt lat="45.04306" lon="5.74547">
        <ele>1250.8</ele>
        <time>2021-05-29T08:27:37Z</time>
      </trkpt>
      <trkpt lat="45.04306" lon="5.74546">
        <ele>1251</ele>
        <time>2021-05-29T08:27:38Z</time>
      </trkpt>
      <trkpt lat="45.04307" lon="5.74546">
        <ele>1251.4</ele>
        <time>2021-05-29T08:27:39Z</time>
      </trkpt>
      <trkpt lat="45.04308" lon="5.74546">
        <ele>1251.8</ele>
        <time>2021-05-29T08:27:40Z</time>
      </trkpt>
      <trkpt lat="45.04308" lon="5.74546">
        <ele>1251.8</ele>
        <time>2021-05-29T08:27:41Z</time>
      </trkpt>
      <trkpt lat="45.04308" lon="5.74545">
        <ele>1252.4</ele>
        <time>2021-05-29T08:27:42Z</time>
      </trkpt>
      <trkpt lat="45.04309" lon="5.74544">
        <ele>1252.8</ele>
        <time>2021-05-29T08:27:43Z</time>
      </trkpt>
      <trkpt lat="45.04309" lon="5.74544">
        <ele>1253.2</ele>
        <time>2021-05-29T08:27:44Z</time>
      </trkpt>
      <trkpt lat="45.04309" lon="5.74543">
        <ele>1253.2</ele>
        <time>2021-05-29T08:27:45Z</time>
      </trkpt>
      <trkpt lat="45.04309" lon="5.74543">
        <ele>1253.4</ele>
        <time>2021-05-29T08:27:46Z</time>
      </trkpt>
      <trkpt lat="45.04309" lon="5.74542">
        <ele>1253.8</ele>
        <time>2021-05-29T08:27:47Z</time>
      </trkpt>
      <trkpt lat="45.04309" lon="5.74542">
        <ele>1254</ele>
        <time>2021-05-29T08:27:48Z</time>
      </trkpt>
      <trkpt lat="45.0431" lon="5.74541">
        <ele>1254.4</ele>
        <time>2021-05-29T08:27:49Z</time>
      </trkpt>
      <trkpt lat="45.0431" lon="5.7454">
        <ele>1254.4</ele>
        <time>2021-05-29T08:27:50Z</time>
      </trkpt>
      <trkpt lat="45.0431" lon="5.7454">
        <ele>1254.8</ele>
        <time>2021-05-29T08:27:51Z</time>
      </trkpt>
      <trkpt lat="45.0431" lon="5.74539">
        <ele>1255.2</ele>
        <time>2021-05-29T08:27:52Z</time>
      </trkpt>
      <trkpt lat="45.0431" lon="5.74539">
        <ele>1255.6</ele>
        <time>2021-05-29T08:27:53Z</time>
      </trkpt>
      <trkpt lat="45.0431" lon="5.74538">
        <ele>1256</ele>
        <time>2021-05-29T08:27:54Z</time>
      </trkpt>
      <trkpt lat="45.04311" lon="5.74538">
        <ele>1256.2</ele>
        <time>2021-05-29T08:27:55Z</time>
      </trkpt>
      <trkpt lat="45.04311" lon="5.74537">
        <ele>1256.4</ele>
        <time>2021-05-29T08:27:56Z</time>
      </trkpt>
      <trkpt lat="45.04311" lon="5.74536">
        <ele>1256.6</ele>
        <time>2021-05-29T08:27:57Z</time>
      </trkpt>
      <trkpt lat="45.04311" lon="5.74536">
        <ele>1256.8</ele>
        <time>2021-05-29T08:27:58Z</time>
      </trkpt>
      <trkpt lat="45.04311" lon="5.74535">
        <ele>1257.2</ele>
        <time>2021-05-29T08:27:59Z</time>
      </trkpt>
      <trkpt lat="45.04311" lon="5.74535">
        <ele>1257.6</ele>
        <time>2021-05-29T08:28:00Z</time>
      </trkpt>
      <trkpt lat="45.04311" lon="5.74534">
        <ele>1257.6</ele>
        <time>2021-05-29T08:28:01Z</time>
      </trkpt>
      <trkpt lat="45.04312" lon="5.74534">
        <ele>1257.8</ele>
        <time>2021-05-29T08:28:02Z</time>
      </trkpt>
      <trkpt lat="45.04312" lon="5.74533">
        <ele>1258</ele>
        <time>2021-05-29T08:28:03Z</time>
      </trkpt>
      <trkpt lat="45.04312" lon="5.74532">
        <ele>1258.4</ele>
        <time>2021-05-29T08:28:04Z</time>
      </trkpt>
      <trkpt lat="45.04312" lon="5.74532">
        <ele>1258.6</ele>
        <time>2021-05-29T08:28:05Z</time>
      </trkpt>
      <trkpt lat="45.04312" lon="5.74531">
        <ele>1259</ele>
        <time>2021-05-29T08:28:06Z</time>
      </trkpt>
      <trkpt lat="45.04313" lon="5.7453">
        <ele>1259.2</ele>
        <time>2021-05-29T08:28:07Z</time>
      </trkpt>
      <trkpt lat="45.04313" lon="5.7453">
        <ele>1259.4</ele>
        <time>2021-05-29T08:28:08Z</time>
      </trkpt>
      <trkpt lat="45.04313" lon="5.74529">
        <ele>1259.8</ele>
        <time>2021-05-29T08:28:09Z</time>
      </trkpt>
      <trkpt lat="45.04313" lon="5.74529">
        <ele>1260.4</ele>
        <time>2021-05-29T08:28:10Z</time>
      </trkpt>
      <trkpt lat="45.04313" lon="5.74528">
        <ele>1260.6</ele>
        <time>2021-05-29T08:28:11Z</time>
      </trkpt>
      <trkpt lat="45.04313" lon="5.74528">
        <ele>1260.8</ele>
        <time>2021-05-29T08:28:12Z</time>
      </trkpt>
      <trkpt lat="45.04313" lon="5.74528">
        <ele>1261</ele>
        <time>2021-05-29T08:28:13Z</time>
      </trkpt>
      <trkpt lat="45.04313" lon="5.74528">
        <ele>1261.2</ele>
        <time>2021-05-29T08:28:14Z</time>
      </trkpt>
      <trkpt lat="45.04313" lon="5.74528">
        <ele>1261.4</ele>
        <time>2021-05-29T08:28:15Z</time>
      </trkpt>
      <trkpt lat="45.04315" lon="5.7453">
        <ele>1261.4</ele>
        <time>2021-05-29T08:28:16Z</time>
      </trkpt>
      <trkpt lat="45.04315" lon="5.7453">
        <ele>1261.4</ele>
        <time>2021-05-29T08:28:17Z</time>
      </trkpt>
      <trkpt lat="45.04315" lon="5.7453">
        <ele>1261.6</ele>
        <time>2021-05-29T08:28:18Z</time>
      </trkpt>
      <trkpt lat="45.04315" lon="5.7453">
        <ele>1261.8</ele>
        <time>2021-05-29T08:28:19Z</time>
      </trkpt>
      <trkpt lat="45.04315" lon="5.7453">
        <ele>1261.8</ele>
        <time>2021-05-29T08:28:20Z</time>
      </trkpt>
      <trkpt lat="45.04315" lon="5.7453">
        <ele>1261.8</ele>
        <time>2021-05-29T08:28:21Z</time>
      </trkpt>
      <trkpt lat="45.04317" lon="5.74529">
        <ele>1261.8</ele>
        <time>2021-05-29T08:28:22Z</time>
      </trkpt>
      <trkpt lat="45.04317" lon="5.74529">
        <ele>1261.6</ele>
        <time>2021-05-29T08:28:23Z</time>
      </trkpt>
      <trkpt lat="45.04317" lon="5.74529">
        <ele>1261.6</ele>
        <time>2021-05-29T08:28:24Z</time>
      </trkpt>
      <trkpt lat="45.04319" lon="5.74529">
        <ele>1261.8</ele>
        <time>2021-05-29T08:28:25Z</time>
      </trkpt>
      <trkpt lat="45.04319" lon="5.74529">
        <ele>1261.8</ele>
        <time>2021-05-29T08:28:26Z</time>
      </trkpt>
      <trkpt lat="45.04319" lon="5.74529">
        <ele>1261.8</ele>
        <time>2021-05-29T08:28:27Z</time>
      </trkpt>
      <trkpt lat="45.04319" lon="5.74527">
        <ele>1261.8</ele>
        <time>2021-05-29T08:28:28Z</time>
      </trkpt>
      <trkpt lat="45.04319" lon="5.74526">
        <ele>1262</ele>
        <time>2021-05-29T08:28:29Z</time>
      </trkpt>
      <trkpt lat="45.04319" lon="5.74524">
        <ele>1262</ele>
        <time>2021-05-29T08:28:30Z</time>
      </trkpt>
      <trkpt lat="45.04319" lon="5.74522">
        <ele>1262.2</ele>
        <time>2021-05-29T08:28:31Z</time>
      </trkpt>
      <trkpt lat="45.0432" lon="5.74521">
        <ele>1262.4</ele>
        <time>2021-05-29T08:28:32Z</time>
      </trkpt>
      <trkpt lat="45.0432" lon="5.74519">
        <ele>1262.4</ele>
        <time>2021-05-29T08:28:33Z</time>
      </trkpt>
      <trkpt lat="45.0432" lon="5.74518">
        <ele>1262.6</ele>
        <time>2021-05-29T08:28:34Z</time>
      </trkpt>
      <trkpt lat="45.0432" lon="5.74516">
        <ele>1262.6</ele>
        <time>2021-05-29T08:28:35Z</time>
      </trkpt>
      <trkpt lat="45.0432" lon="5.74515">
        <ele>1262.8</ele>
        <time>2021-05-29T08:28:36Z</time>
      </trkpt>
      <trkpt lat="45.0432" lon="5.74513">
        <ele>1263</ele>
        <time>2021-05-29T08:28:37Z</time>
      </trkpt>
      <trkpt lat="45.0432" lon="5.74512">
        <ele>1263.2</ele>
        <time>2021-05-29T08:28:38Z</time>
      </trkpt>
      <trkpt lat="45.0432" lon="5.7451">
        <ele>1263.4</ele>
        <time>2021-05-29T08:28:39Z</time>
      </trkpt>
      <trkpt lat="45.04321" lon="5.74508">
        <ele>1263.6</ele>
        <time>2021-05-29T08:28:40Z</time>
      </trkpt>
      <trkpt lat="45.04321" lon="5.74507">
        <ele>1264</ele>
        <time>2021-05-29T08:28:41Z</time>
      </trkpt>
      <trkpt lat="45.04321" lon="5.74505">
        <ele>1264.4</ele>
        <time>2021-05-29T08:28:42Z</time>
      </trkpt>
      <trkpt lat="45.04321" lon="5.74504">
        <ele>1264.2</ele>
        <time>2021-05-29T08:28:43Z</time>
      </trkpt>
      <trkpt lat="45.04321" lon="5.74502">
        <ele>1264.4</ele>
        <time>2021-05-29T08:28:44Z</time>
      </trkpt>
      <trkpt lat="45.04322" lon="5.74501">
        <ele>1264.4</ele>
        <time>2021-05-29T08:28:45Z</time>
      </trkpt>
      <trkpt lat="45.04322" lon="5.745">
        <ele>1264.6</ele>
        <time>2021-05-29T08:28:46Z</time>
      </trkpt>
      <trkpt lat="45.04323" lon="5.74499">
        <ele>1264.8</ele>
        <time>2021-05-29T08:28:47Z</time>
      </trkpt>
      <trkpt lat="45.04324" lon="5.74498">
        <ele>1265.2</ele>
        <time>2021-05-29T08:28:48Z</time>
      </trkpt>
      <trkpt lat="45.04324" lon="5.74497">
        <ele>1265.6</ele>
        <time>2021-05-29T08:28:49Z</time>
      </trkpt>
      <trkpt lat="45.04325" lon="5.74496">
        <ele>1265.6</ele>
        <time>2021-05-29T08:28:50Z</time>
      </trkpt>
      <trkpt lat="45.04326" lon="5.74495">
        <ele>1265.8</ele>
        <time>2021-05-29T08:28:51Z</time>
      </trkpt>
      <trkpt lat="45.04327" lon="5.74494">
        <ele>1265.8</ele>
        <time>2021-05-29T08:28:52Z</time>
      </trkpt>
      <trkpt lat="45.04327" lon="5.74492">
        <ele>1266</ele>
        <time>2021-05-29T08:28:53Z</time>
      </trkpt>
      <trkpt lat="45.04327" lon="5.74491">
        <ele>1266</ele>
        <time>2021-05-29T08:28:54Z</time>
      </trkpt>
      <trkpt lat="45.04327" lon="5.7449">
        <ele>1266</ele>
        <time>2021-05-29T08:28:55Z</time>
      </trkpt>
      <trkpt lat="45.04327" lon="5.74489">
        <ele>1266</ele>
        <time>2021-05-29T08:28:56Z</time>
      </trkpt>
      <trkpt lat="45.04327" lon="5.74488">
        <ele>1266.2</ele>
        <time>2021-05-29T08:28:57Z</time>
      </trkpt>
      <trkpt lat="45.04326" lon="5.74487">
        <ele>1266.2</ele>
        <time>2021-05-29T08:28:58Z</time>
      </trkpt>
      <trkpt lat="45.04326" lon="5.74486">
        <ele>1266.2</ele>
        <time>2021-05-29T08:28:59Z</time>
      </trkpt>
      <trkpt lat="45.04326" lon="5.74485">
        <ele>1266</ele>
        <time>2021-05-29T08:29:00Z</time>
      </trkpt>
      <trkpt lat="45.04326" lon="5.74483">
        <ele>1266</ele>
        <time>2021-05-29T08:29:01Z</time>
      </trkpt>
      <trkpt lat="45.04326" lon="5.74482">
        <ele>1266</ele>
        <time>2021-05-29T08:29:02Z</time>
      </trkpt>
      <trkpt lat="45.04326" lon="5.74481">
        <ele>1265.8</ele>
        <time>2021-05-29T08:29:03Z</time>
      </trkpt>
      <trkpt lat="45.04325" lon="5.7448">
        <ele>1265.8</ele>
        <time>2021-05-29T08:29:04Z</time>
      </trkpt>
      <trkpt lat="45.04326" lon="5.74478">
        <ele>1265.4</ele>
        <time>2021-05-29T08:29:05Z</time>
      </trkpt>
      <trkpt lat="45.04327" lon="5.74476">
        <ele>1265.6</ele>
        <time>2021-05-29T08:29:06Z</time>
      </trkpt>
      <trkpt lat="45.04328" lon="5.74474">
        <ele>1265.4</ele>
        <time>2021-05-29T08:29:07Z</time>
      </trkpt>
      <trkpt lat="45.04329" lon="5.74471">
        <ele>1264.8</ele>
        <time>2021-05-29T08:29:08Z</time>
      </trkpt>
      <trkpt lat="45.04329" lon="5.74469">
        <ele>1265</ele>
        <time>2021-05-29T08:29:09Z</time>
      </trkpt>
      <trkpt lat="45.0433" lon="5.74467">
        <ele>1264.4</ele>
        <time>2021-05-29T08:29:10Z</time>
      </trkpt>
      <trkpt lat="45.04332" lon="5.74465">
        <ele>1264</ele>
        <time>2021-05-29T08:29:11Z</time>
      </trkpt>
      <trkpt lat="45.04334" lon="5.74462">
        <ele>1263.2</ele>
        <time>2021-05-29T08:29:12Z</time>
      </trkpt>
      <trkpt lat="45.04336" lon="5.7446">
        <ele>1262.6</ele>
        <time>2021-05-29T08:29:13Z</time>
      </trkpt>
      <trkpt lat="45.04338" lon="5.74457">
        <ele>1262.4</ele>
        <time>2021-05-29T08:29:14Z</time>
      </trkpt>
      <trkpt lat="45.0434" lon="5.74455">
        <ele>1261.6</ele>
        <time>2021-05-29T08:29:15Z</time>
      </trkpt>
      <trkpt lat="45.04342" lon="5.74452">
        <ele>1261.4</ele>
        <time>2021-05-29T08:29:16Z</time>
      </trkpt>
      <trkpt lat="45.04344" lon="5.7445">
        <ele>1260.6</ele>
        <time>2021-05-29T08:29:17Z</time>
      </trkpt>
      <trkpt lat="45.04346" lon="5.74447">
        <ele>1260.2</ele>
        <time>2021-05-29T08:29:18Z</time>
      </trkpt>
      <trkpt lat="45.04347" lon="5.74446">
        <ele>1259.6</ele>
        <time>2021-05-29T08:29:19Z</time>
      </trkpt>
      <trkpt lat="45.04347" lon="5.74445">
        <ele>1259.2</ele>
        <time>2021-05-29T08:29:20Z</time>
      </trkpt>
      <trkpt lat="45.04347" lon="5.74444">
        <ele>1258.2</ele>
        <time>2021-05-29T08:29:21Z</time>
      </trkpt>
      <trkpt lat="45.04347" lon="5.74442">
        <ele>1257.4</ele>
        <time>2021-05-29T08:29:22Z</time>
      </trkpt>
      <trkpt lat="45.04348" lon="5.74441">
        <ele>1257</ele>
        <time>2021-05-29T08:29:23Z</time>
      </trkpt>
      <trkpt lat="45.04348" lon="5.7444">
        <ele>1256.6</ele>
        <time>2021-05-29T08:29:24Z</time>
      </trkpt>
      <trkpt lat="45.04348" lon="5.74439">
        <ele>1256.4</ele>
        <time>2021-05-29T08:29:25Z</time>
      </trkpt>
      <trkpt lat="45.04348" lon="5.74438">
        <ele>1256.2</ele>
        <time>2021-05-29T08:29:26Z</time>
      </trkpt>
      <trkpt lat="45.04349" lon="5.74436">
        <ele>1256.4</ele>
        <time>2021-05-29T08:29:27Z</time>
      </trkpt>
      <trkpt lat="45.04349" lon="5.74435">
        <ele>1256.6</ele>
        <time>2021-05-29T08:29:28Z</time>
      </trkpt>
      <trkpt lat="45.04349" lon="5.74434">
        <ele>1256.6</ele>
        <time>2021-05-29T08:29:29Z</time>
      </trkpt>
      <trkpt lat="45.04348" lon="5.74432">
        <ele>1256.8</ele>
        <time>2021-05-29T08:29:30Z</time>
      </trkpt>
      <trkpt lat="45.04348" lon="5.7443">
        <ele>1257</ele>
        <time>2021-05-29T08:29:31Z</time>
      </trkpt>
      <trkpt lat="45.04347" lon="5.74429">
        <ele>1257</ele>
        <time>2021-05-29T08:29:32Z</time>
      </trkpt>
      <trkpt lat="45.04346" lon="5.74427">
        <ele>1257.2</ele>
        <time>2021-05-29T08:29:33Z</time>
      </trkpt>
      <trkpt lat="45.04345" lon="5.74425">
        <ele>1257.2</ele>
        <time>2021-05-29T08:29:34Z</time>
      </trkpt>
      <trkpt lat="45.04344" lon="5.74424">
        <ele>1257.6</ele>
        <time>2021-05-29T08:29:35Z</time>
      </trkpt>
      <trkpt lat="45.04343" lon="5.74422">
        <ele>1257.8</ele>
        <time>2021-05-29T08:29:36Z</time>
      </trkpt>
      <trkpt lat="45.04344" lon="5.7442">
        <ele>1258</ele>
        <time>2021-05-29T08:29:37Z</time>
      </trkpt>
      <trkpt lat="45.04344" lon="5.74418">
        <ele>1258</ele>
        <time>2021-05-29T08:29:38Z</time>
      </trkpt>
      <trkpt lat="45.04345" lon="5.74416">
        <ele>1258</ele>
        <time>2021-05-29T08:29:39Z</time>
      </trkpt>
      <trkpt lat="45.04345" lon="5.74413">
        <ele>1258</ele>
        <time>2021-05-29T08:29:40Z</time>
      </trkpt>
      <trkpt lat="45.04346" lon="5.74411">
        <ele>1257.8</ele>
        <time>2021-05-29T08:29:41Z</time>
      </trkpt>
      <trkpt lat="45.04346" lon="5.74409">
        <ele>1257.6</ele>
        <time>2021-05-29T08:29:42Z</time>
      </trkpt>
      <trkpt lat="45.04346" lon="5.74408">
        <ele>1257.6</ele>
        <time>2021-05-29T08:29:43Z</time>
      </trkpt>
      <trkpt lat="45.04346" lon="5.74408">
        <ele>1257.6</ele>
        <time>2021-05-29T08:29:44Z</time>
      </trkpt>
      <trkpt lat="45.04347" lon="5.74407">
        <ele>1257.6</ele>
        <time>2021-05-29T08:29:45Z</time>
      </trkpt>
      <trkpt lat="45.04347" lon="5.74406">
        <ele>1257.6</ele>
        <time>2021-05-29T08:29:46Z</time>
      </trkpt>
      <trkpt lat="45.04347" lon="5.74405">
        <ele>1257.8</ele>
        <time>2021-05-29T08:29:47Z</time>
      </trkpt>
      <trkpt lat="45.04347" lon="5.74405">
        <ele>1257.8</ele>
        <time>2021-05-29T08:29:48Z</time>
      </trkpt>
      <trkpt lat="45.04348" lon="5.74404">
        <ele>1257.8</ele>
        <time>2021-05-29T08:29:49Z</time>
      </trkpt>
      <trkpt lat="45.04348" lon="5.74403">
        <ele>1258</ele>
        <time>2021-05-29T08:29:50Z</time>
      </trkpt>
      <trkpt lat="45.04348" lon="5.74402">
        <ele>1258</ele>
        <time>2021-05-29T08:29:51Z</time>
      </trkpt>
      <trkpt lat="45.04348" lon="5.74401">
        <ele>1258.2</ele>
        <time>2021-05-29T08:29:52Z</time>
      </trkpt>
      <trkpt lat="45.04348" lon="5.74401">
        <ele>1258.4</ele>
        <time>2021-05-29T08:29:53Z</time>
      </trkpt>
      <trkpt lat="45.04349" lon="5.744">
        <ele>1258.6</ele>
        <time>2021-05-29T08:29:54Z</time>
      </trkpt>
      <trkpt lat="45.04349" lon="5.74399">
        <ele>1258.8</ele>
        <time>2021-05-29T08:29:55Z</time>
      </trkpt>
      <trkpt lat="45.04349" lon="5.74398">
        <ele>1259</ele>
        <time>2021-05-29T08:29:56Z</time>
      </trkpt>
      <trkpt lat="45.04349" lon="5.74398">
        <ele>1259.2</ele>
        <time>2021-05-29T08:29:57Z</time>
      </trkpt>
      <trkpt lat="45.0435" lon="5.74397">
        <ele>1259.4</ele>
        <time>2021-05-29T08:29:58Z</time>
      </trkpt>
      <trkpt lat="45.0435" lon="5.74396">
        <ele>1259.6</ele>
        <time>2021-05-29T08:30:00Z</time>
      </trkpt>
      <trkpt lat="45.04351" lon="5.74395">
        <ele>1259.6</ele>
        <time>2021-05-29T08:30:01Z</time>
      </trkpt>
      <trkpt lat="45.04351" lon="5.74394">
        <ele>1259.8</ele>
        <time>2021-05-29T08:30:02Z</time>
      </trkpt>
      <trkpt lat="45.04352" lon="5.74393">
        <ele>1260</ele>
        <time>2021-05-29T08:30:03Z</time>
      </trkpt>
      <trkpt lat="45.04352" lon="5.74393">
        <ele>1260</ele>
        <time>2021-05-29T08:30:04Z</time>
      </trkpt>
      <trkpt lat="45.04353" lon="5.74392">
        <ele>1260.4</ele>
        <time>2021-05-29T08:30:05Z</time>
      </trkpt>
      <trkpt lat="45.04353" lon="5.74391">
        <ele>1260.6</ele>
        <time>2021-05-29T08:30:06Z</time>
      </trkpt>
      <trkpt lat="45.04354" lon="5.7439">
        <ele>1260.6</ele>
        <time>2021-05-29T08:30:07Z</time>
      </trkpt>
      <trkpt lat="45.04354" lon="5.74389">
        <ele>1260.6</ele>
        <time>2021-05-29T08:30:08Z</time>
      </trkpt>
      <trkpt lat="45.04354" lon="5.74389">
        <ele>1260.6</ele>
        <time>2021-05-29T08:30:09Z</time>
      </trkpt>
      <trkpt lat="45.04355" lon="5.74388">
        <ele>1261</ele>
        <time>2021-05-29T08:30:10Z</time>
      </trkpt>
      <trkpt lat="45.04355" lon="5.74387">
        <ele>1261.2</ele>
        <time>2021-05-29T08:30:11Z</time>
      </trkpt>
      <trkpt lat="45.04357" lon="5.74385">
        <ele>1261.4</ele>
        <time>2021-05-29T08:30:12Z</time>
      </trkpt>
      <trkpt lat="45.04358" lon="5.74383">
        <ele>1261.4</ele>
        <time>2021-05-29T08:30:13Z</time>
      </trkpt>
      <trkpt lat="45.0436" lon="5.74381">
        <ele>1261.6</ele>
        <time>2021-05-29T08:30:14Z</time>
      </trkpt>
      <trkpt lat="45.04361" lon="5.7438">
        <ele>1262</ele>
        <time>2021-05-29T08:30:15Z</time>
      </trkpt>
      <trkpt lat="45.04363" lon="5.74378">
        <ele>1262.4</ele>
        <time>2021-05-29T08:30:16Z</time>
      </trkpt>
      <trkpt lat="45.04363" lon="5.74377">
        <ele>1262.6</ele>
        <time>2021-05-29T08:30:17Z</time>
      </trkpt>
      <trkpt lat="45.04364" lon="5.74376">
        <ele>1263</ele>
        <time>2021-05-29T08:30:18Z</time>
      </trkpt>
      <trkpt lat="45.04364" lon="5.74375">
        <ele>1263.4</ele>
        <time>2021-05-29T08:30:19Z</time>
      </trkpt>
      <trkpt lat="45.04365" lon="5.74374">
        <ele>1263.6</ele>
        <time>2021-05-29T08:30:20Z</time>
      </trkpt>
      <trkpt lat="45.04365" lon="5.74373">
        <ele>1263.8</ele>
        <time>2021-05-29T08:30:21Z</time>
      </trkpt>
      <trkpt lat="45.04366" lon="5.74372">
        <ele>1264.2</ele>
        <time>2021-05-29T08:30:22Z</time>
      </trkpt>
      <trkpt lat="45.04366" lon="5.74371">
        <ele>1264.4</ele>
        <time>2021-05-29T08:30:23Z</time>
      </trkpt>
      <trkpt lat="45.04367" lon="5.7437">
        <ele>1264.6</ele>
        <time>2021-05-29T08:30:24Z</time>
      </trkpt>
      <trkpt lat="45.04367" lon="5.74369">
        <ele>1264.6</ele>
        <time>2021-05-29T08:30:25Z</time>
      </trkpt>
      <trkpt lat="45.04368" lon="5.74368">
        <ele>1265</ele>
        <time>2021-05-29T08:30:26Z</time>
      </trkpt>
      <trkpt lat="45.04368" lon="5.74367">
        <ele>1265.2</ele>
        <time>2021-05-29T08:30:27Z</time>
      </trkpt>
      <trkpt lat="45.04368" lon="5.74366">
        <ele>1265.6</ele>
        <time>2021-05-29T08:30:28Z</time>
      </trkpt>
      <trkpt lat="45.04369" lon="5.74365">
        <ele>1265.8</ele>
        <time>2021-05-29T08:30:29Z</time>
      </trkpt>
      <trkpt lat="45.04369" lon="5.74364">
        <ele>1266</ele>
        <time>2021-05-29T08:30:30Z</time>
      </trkpt>
      <trkpt lat="45.04369" lon="5.74363">
        <ele>1266.2</ele>
        <time>2021-05-29T08:30:31Z</time>
      </trkpt>
      <trkpt lat="45.04369" lon="5.74363">
        <ele>1266.4</ele>
        <time>2021-05-29T08:30:32Z</time>
      </trkpt>
      <trkpt lat="45.0437" lon="5.74362">
        <ele>1266.6</ele>
        <time>2021-05-29T08:30:33Z</time>
      </trkpt>
      <trkpt lat="45.0437" lon="5.74361">
        <ele>1267</ele>
        <time>2021-05-29T08:30:34Z</time>
      </trkpt>
      <trkpt lat="45.0437" lon="5.7436">
        <ele>1266.8</ele>
        <time>2021-05-29T08:30:35Z</time>
      </trkpt>
      <trkpt lat="45.0437" lon="5.74359">
        <ele>1267.2</ele>
        <time>2021-05-29T08:30:36Z</time>
      </trkpt>
      <trkpt lat="45.0437" lon="5.74358">
        <ele>1267.4</ele>
        <time>2021-05-29T08:30:37Z</time>
      </trkpt>
      <trkpt lat="45.04371" lon="5.74357">
        <ele>1267.6</ele>
        <time>2021-05-29T08:30:38Z</time>
      </trkpt>
      <trkpt lat="45.04371" lon="5.74356">
        <ele>1268</ele>
        <time>2021-05-29T08:30:39Z</time>
      </trkpt>
      <trkpt lat="45.04371" lon="5.74355">
        <ele>1268.2</ele>
        <time>2021-05-29T08:30:40Z</time>
      </trkpt>
      <trkpt lat="45.04371" lon="5.74354">
        <ele>1268.4</ele>
        <time>2021-05-29T08:30:41Z</time>
      </trkpt>
      <trkpt lat="45.04371" lon="5.74354">
        <ele>1268.6</ele>
        <time>2021-05-29T08:30:42Z</time>
      </trkpt>
      <trkpt lat="45.04371" lon="5.74353">
        <ele>1268.6</ele>
        <time>2021-05-29T08:30:43Z</time>
      </trkpt>
      <trkpt lat="45.0437" lon="5.74352">
        <ele>1269</ele>
        <time>2021-05-29T08:30:44Z</time>
      </trkpt>
      <trkpt lat="45.0437" lon="5.74352">
        <ele>1269.4</ele>
        <time>2021-05-29T08:30:45Z</time>
      </trkpt>
      <trkpt lat="45.0437" lon="5.74351">
        <ele>1269.6</ele>
        <time>2021-05-29T08:30:46Z</time>
      </trkpt>
      <trkpt lat="45.0437" lon="5.7435">
        <ele>1269.8</ele>
        <time>2021-05-29T08:30:47Z</time>
      </trkpt>
      <trkpt lat="45.04369" lon="5.7435">
        <ele>1269.8</ele>
        <time>2021-05-29T08:30:48Z</time>
      </trkpt>
      <trkpt lat="45.04369" lon="5.74349">
        <ele>1270.2</ele>
        <time>2021-05-29T08:30:49Z</time>
      </trkpt>
      <trkpt lat="45.04369" lon="5.74348">
        <ele>1270.4</ele>
        <time>2021-05-29T08:30:50Z</time>
      </trkpt>
      <trkpt lat="45.04369" lon="5.74348">
        <ele>1270.8</ele>
        <time>2021-05-29T08:30:51Z</time>
      </trkpt>
      <trkpt lat="45.04368" lon="5.74347">
        <ele>1271</ele>
        <time>2021-05-29T08:30:52Z</time>
      </trkpt>
      <trkpt lat="45.04368" lon="5.74347">
        <ele>1271</ele>
        <time>2021-05-29T08:30:53Z</time>
      </trkpt>
      <trkpt lat="45.04368" lon="5.74346">
        <ele>1271.4</ele>
        <time>2021-05-29T08:30:54Z</time>
      </trkpt>
      <trkpt lat="45.04368" lon="5.74345">
        <ele>1271.6</ele>
        <time>2021-05-29T08:30:55Z</time>
      </trkpt>
      <trkpt lat="45.04367" lon="5.74345">
        <ele>1271.8</ele>
        <time>2021-05-29T08:30:56Z</time>
      </trkpt>
      <trkpt lat="45.04367" lon="5.74344">
        <ele>1272.2</ele>
        <time>2021-05-29T08:30:57Z</time>
      </trkpt>
      <trkpt lat="45.04367" lon="5.74343">
        <ele>1272.6</ele>
        <time>2021-05-29T08:30:58Z</time>
      </trkpt>
      <trkpt lat="45.04366" lon="5.74343">
        <ele>1272.6</ele>
        <time>2021-05-29T08:30:59Z</time>
      </trkpt>
      <trkpt lat="45.04366" lon="5.74342">
        <ele>1273</ele>
        <time>2021-05-29T08:31:00Z</time>
      </trkpt>
      <trkpt lat="45.04365" lon="5.74341">
        <ele>1273.2</ele>
        <time>2021-05-29T08:31:01Z</time>
      </trkpt>
      <trkpt lat="45.04365" lon="5.74341">
        <ele>1273.2</ele>
        <time>2021-05-29T08:31:02Z</time>
      </trkpt>
      <trkpt lat="45.04364" lon="5.7434">
        <ele>1273.4</ele>
        <time>2021-05-29T08:31:03Z</time>
      </trkpt>
      <trkpt lat="45.04364" lon="5.74339">
        <ele>1273.6</ele>
        <time>2021-05-29T08:31:04Z</time>
      </trkpt>
      <trkpt lat="45.04363" lon="5.74338">
        <ele>1274</ele>
        <time>2021-05-29T08:31:05Z</time>
      </trkpt>
      <trkpt lat="45.04363" lon="5.74338">
        <ele>1274</ele>
        <time>2021-05-29T08:31:06Z</time>
      </trkpt>
      <trkpt lat="45.04363" lon="5.74337">
        <ele>1274.2</ele>
        <time>2021-05-29T08:31:07Z</time>
      </trkpt>
      <trkpt lat="45.04362" lon="5.74336">
        <ele>1274.4</ele>
        <time>2021-05-29T08:31:08Z</time>
      </trkpt>
      <trkpt lat="45.04362" lon="5.74336">
        <ele>1274.8</ele>
        <time>2021-05-29T08:31:09Z</time>
      </trkpt>
      <trkpt lat="45.04361" lon="5.74335">
        <ele>1275.4</ele>
        <time>2021-05-29T08:31:10Z</time>
      </trkpt>
      <trkpt lat="45.04361" lon="5.74334">
        <ele>1275.6</ele>
        <time>2021-05-29T08:31:11Z</time>
      </trkpt>
      <trkpt lat="45.0436" lon="5.74333">
        <ele>1275.8</ele>
        <time>2021-05-29T08:31:12Z</time>
      </trkpt>
      <trkpt lat="45.0436" lon="5.74333">
        <ele>1276</ele>
        <time>2021-05-29T08:31:13Z</time>
      </trkpt>
      <trkpt lat="45.04359" lon="5.74332">
        <ele>1276.2</ele>
        <time>2021-05-29T08:31:14Z</time>
      </trkpt>
      <trkpt lat="45.04359" lon="5.74331">
        <ele>1276.4</ele>
        <time>2021-05-29T08:31:15Z</time>
      </trkpt>
      <trkpt lat="45.04358" lon="5.7433">
        <ele>1276.4</ele>
        <time>2021-05-29T08:31:16Z</time>
      </trkpt>
      <trkpt lat="45.04358" lon="5.74329">
        <ele>1276.6</ele>
        <time>2021-05-29T08:31:17Z</time>
      </trkpt>
      <trkpt lat="45.04357" lon="5.74328">
        <ele>1277</ele>
        <time>2021-05-29T08:31:18Z</time>
      </trkpt>
      <trkpt lat="45.04357" lon="5.74327">
        <ele>1277</ele>
        <time>2021-05-29T08:31:19Z</time>
      </trkpt>
      <trkpt lat="45.04357" lon="5.74326">
        <ele>1277.2</ele>
        <time>2021-05-29T08:31:20Z</time>
      </trkpt>
      <trkpt lat="45.04356" lon="5.74325">
        <ele>1277.4</ele>
        <time>2021-05-29T08:31:21Z</time>
      </trkpt>
      <trkpt lat="45.04356" lon="5.74324">
        <ele>1277.6</ele>
        <time>2021-05-29T08:31:22Z</time>
      </trkpt>
      <trkpt lat="45.04355" lon="5.74323">
        <ele>1277.6</ele>
        <time>2021-05-29T08:31:23Z</time>
      </trkpt>
      <trkpt lat="45.04355" lon="5.74323">
        <ele>1277.8</ele>
        <time>2021-05-29T08:31:24Z</time>
      </trkpt>
      <trkpt lat="45.04355" lon="5.74322">
        <ele>1278</ele>
        <time>2021-05-29T08:31:25Z</time>
      </trkpt>
      <trkpt lat="45.04355" lon="5.7432">
        <ele>1278</ele>
        <time>2021-05-29T08:31:26Z</time>
      </trkpt>
      <trkpt lat="45.04356" lon="5.74319">
        <ele>1278.2</ele>
        <time>2021-05-29T08:31:27Z</time>
      </trkpt>
      <trkpt lat="45.04356" lon="5.74318">
        <ele>1278.4</ele>
        <time>2021-05-29T08:31:28Z</time>
      </trkpt>
      <trkpt lat="45.04357" lon="5.74316">
        <ele>1278.6</ele>
        <time>2021-05-29T08:31:29Z</time>
      </trkpt>
      <trkpt lat="45.04357" lon="5.74315">
        <ele>1279</ele>
        <time>2021-05-29T08:31:30Z</time>
      </trkpt>
      <trkpt lat="45.04358" lon="5.74314">
        <ele>1279</ele>
        <time>2021-05-29T08:31:31Z</time>
      </trkpt>
      <trkpt lat="45.04358" lon="5.74313">
        <ele>1279.4</ele>
        <time>2021-05-29T08:31:32Z</time>
      </trkpt>
      <trkpt lat="45.04359" lon="5.74311">
        <ele>1279.6</ele>
        <time>2021-05-29T08:31:33Z</time>
      </trkpt>
      <trkpt lat="45.04359" lon="5.7431">
        <ele>1280</ele>
        <time>2021-05-29T08:31:34Z</time>
      </trkpt>
      <trkpt lat="45.0436" lon="5.74309">
        <ele>1280.4</ele>
        <time>2021-05-29T08:31:35Z</time>
      </trkpt>
      <trkpt lat="45.04362" lon="5.74308">
        <ele>1280.6</ele>
        <time>2021-05-29T08:31:36Z</time>
      </trkpt>
      <trkpt lat="45.04363" lon="5.74306">
        <ele>1280.8</ele>
        <time>2021-05-29T08:31:37Z</time>
      </trkpt>
      <trkpt lat="45.04364" lon="5.74305">
        <ele>1281</ele>
        <time>2021-05-29T08:31:38Z</time>
      </trkpt>
      <trkpt lat="45.04365" lon="5.74304">
        <ele>1281.2</ele>
        <time>2021-05-29T08:31:39Z</time>
      </trkpt>
      <trkpt lat="45.04366" lon="5.74303">
        <ele>1281.6</ele>
        <time>2021-05-29T08:31:40Z</time>
      </trkpt>
      <trkpt lat="45.04368" lon="5.74302">
        <ele>1281.8</ele>
        <time>2021-05-29T08:31:41Z</time>
      </trkpt>
      <trkpt lat="45.04369" lon="5.74299">
        <ele>1282</ele>
        <time>2021-05-29T08:31:42Z</time>
      </trkpt>
      <trkpt lat="45.0437" lon="5.74297">
        <ele>1282.4</ele>
        <time>2021-05-29T08:31:43Z</time>
      </trkpt>
      <trkpt lat="45.04371" lon="5.74295">
        <ele>1283</ele>
        <time>2021-05-29T08:31:44Z</time>
      </trkpt>
      <trkpt lat="45.04373" lon="5.74293">
        <ele>1283.6</ele>
        <time>2021-05-29T08:31:45Z</time>
      </trkpt>
      <trkpt lat="45.04374" lon="5.74291">
        <ele>1283.6</ele>
        <time>2021-05-29T08:31:46Z</time>
      </trkpt>
      <trkpt lat="45.04375" lon="5.74289">
        <ele>1284</ele>
        <time>2021-05-29T08:31:47Z</time>
      </trkpt>
      <trkpt lat="45.04375" lon="5.74289">
        <ele>1284</ele>
        <time>2021-05-29T08:31:48Z</time>
      </trkpt>
      <trkpt lat="45.04375" lon="5.74289">
        <ele>1284</ele>
        <time>2021-05-29T08:31:49Z</time>
      </trkpt>
      <trkpt lat="45.04377" lon="5.74286">
        <ele>1284.2</ele>
        <time>2021-05-29T08:31:50Z</time>
      </trkpt>
      <trkpt lat="45.04377" lon="5.74286">
        <ele>1284.4</ele>
        <time>2021-05-29T08:31:51Z</time>
      </trkpt>
      <trkpt lat="45.04379" lon="5.74284">
        <ele>1284.8</ele>
        <time>2021-05-29T08:31:52Z</time>
      </trkpt>
      <trkpt lat="45.04379" lon="5.74284">
        <ele>1285.2</ele>
        <time>2021-05-29T08:31:53Z</time>
      </trkpt>
      <trkpt lat="45.04379" lon="5.74281">
        <ele>1285.4</ele>
        <time>2021-05-29T08:31:54Z</time>
      </trkpt>
      <trkpt lat="45.04379" lon="5.74281">
        <ele>1285.8</ele>
        <time>2021-05-29T08:31:55Z</time>
      </trkpt>
      <trkpt lat="45.04379" lon="5.74281">
        <ele>1285.8</ele>
        <time>2021-05-29T08:31:56Z</time>
      </trkpt>
      <trkpt lat="45.04381" lon="5.74279">
        <ele>1286</ele>
        <time>2021-05-29T08:31:57Z</time>
      </trkpt>
      <trkpt lat="45.04381" lon="5.74279">
        <ele>1286.4</ele>
        <time>2021-05-29T08:31:58Z</time>
      </trkpt>
      <trkpt lat="45.04381" lon="5.74279">
        <ele>1286.6</ele>
        <time>2021-05-29T08:31:59Z</time>
      </trkpt>
      <trkpt lat="45.04381" lon="5.74279">
        <ele>1287</ele>
        <time>2021-05-29T08:32:00Z</time>
      </trkpt>
      <trkpt lat="45.04382" lon="5.74276">
        <ele>1287.4</ele>
        <time>2021-05-29T08:32:01Z</time>
      </trkpt>
      <trkpt lat="45.04382" lon="5.74276">
        <ele>1287.6</ele>
        <time>2021-05-29T08:32:02Z</time>
      </trkpt>
      <trkpt lat="45.04382" lon="5.74276">
        <ele>1287.8</ele>
        <time>2021-05-29T08:32:03Z</time>
      </trkpt>
      <trkpt lat="45.04382" lon="5.74276">
        <ele>1288</ele>
        <time>2021-05-29T08:32:04Z</time>
      </trkpt>
      <trkpt lat="45.04383" lon="5.74273">
        <ele>1288</ele>
        <time>2021-05-29T08:32:05Z</time>
      </trkpt>
      <trkpt lat="45.04383" lon="5.74273">
        <ele>1288.4</ele>
        <time>2021-05-29T08:32:06Z</time>
      </trkpt>
      <trkpt lat="45.04383" lon="5.74273">
        <ele>1288.6</ele>
        <time>2021-05-29T08:32:07Z</time>
      </trkpt>
      <trkpt lat="45.04383" lon="5.74273">
        <ele>1289.4</ele>
        <time>2021-05-29T08:32:08Z</time>
      </trkpt>
      <trkpt lat="45.04384" lon="5.74271">
        <ele>1289.6</ele>
        <time>2021-05-29T08:32:09Z</time>
      </trkpt>
      <trkpt lat="45.04384" lon="5.74271">
        <ele>1289.6</ele>
        <time>2021-05-29T08:32:10Z</time>
      </trkpt>
      <trkpt lat="45.04384" lon="5.74271">
        <ele>1289.8</ele>
        <time>2021-05-29T08:32:11Z</time>
      </trkpt>
      <trkpt lat="45.04386" lon="5.74269">
        <ele>1290</ele>
        <time>2021-05-29T08:32:12Z</time>
      </trkpt>
      <trkpt lat="45.04386" lon="5.74269">
        <ele>1290.2</ele>
        <time>2021-05-29T08:32:13Z</time>
      </trkpt>
      <trkpt lat="45.04386" lon="5.74269">
        <ele>1290.6</ele>
        <time>2021-05-29T08:32:14Z</time>
      </trkpt>
      <trkpt lat="45.04386" lon="5.74269">
        <ele>1290.8</ele>
        <time>2021-05-29T08:32:15Z</time>
      </trkpt>
      <trkpt lat="45.04387" lon="5.74266">
        <ele>1291</ele>
        <time>2021-05-29T08:32:16Z</time>
      </trkpt>
      <trkpt lat="45.04387" lon="5.74266">
        <ele>1291</ele>
        <time>2021-05-29T08:32:17Z</time>
      </trkpt>
      <trkpt lat="45.04387" lon="5.74266">
        <ele>1291.2</ele>
        <time>2021-05-29T08:32:18Z</time>
      </trkpt>
      <trkpt lat="45.04387" lon="5.74266">
        <ele>1291.4</ele>
        <time>2021-05-29T08:32:19Z</time>
      </trkpt>
      <trkpt lat="45.04387" lon="5.74266">
        <ele>1291.4</ele>
        <time>2021-05-29T08:32:20Z</time>
      </trkpt>
      <trkpt lat="45.04387" lon="5.74266">
        <ele>1291.6</ele>
        <time>2021-05-29T08:32:21Z</time>
      </trkpt>
      <trkpt lat="45.0439" lon="5.74263">
        <ele>1291.8</ele>
        <time>2021-05-29T08:32:22Z</time>
      </trkpt>
      <trkpt lat="45.0439" lon="5.74263">
        <ele>1292</ele>
        <time>2021-05-29T08:32:23Z</time>
      </trkpt>
      <trkpt lat="45.0439" lon="5.74263">
        <ele>1292.4</ele>
        <time>2021-05-29T08:32:24Z</time>
      </trkpt>
      <trkpt lat="45.0439" lon="5.74263">
        <ele>1292.8</ele>
        <time>2021-05-29T08:32:25Z</time>
      </trkpt>
      <trkpt lat="45.0439" lon="5.74263">
        <ele>1293.2</ele>
        <time>2021-05-29T08:32:26Z</time>
      </trkpt>
      <trkpt lat="45.0439" lon="5.74263">
        <ele>1293.6</ele>
        <time>2021-05-29T08:32:27Z</time>
      </trkpt>
      <trkpt lat="45.0439" lon="5.74263">
        <ele>1293.8</ele>
        <time>2021-05-29T08:32:28Z</time>
      </trkpt>
      <trkpt lat="45.04392" lon="5.7426">
        <ele>1294</ele>
        <time>2021-05-29T08:32:29Z</time>
      </trkpt>
      <trkpt lat="45.04392" lon="5.7426">
        <ele>1294.2</ele>
        <time>2021-05-29T08:32:30Z</time>
      </trkpt>
      <trkpt lat="45.04392" lon="5.7426">
        <ele>1294.4</ele>
        <time>2021-05-29T08:32:31Z</time>
      </trkpt>
      <trkpt lat="45.04392" lon="5.7426">
        <ele>1294.8</ele>
        <time>2021-05-29T08:32:32Z</time>
      </trkpt>
      <trkpt lat="45.04392" lon="5.7426">
        <ele>1295</ele>
        <time>2021-05-29T08:32:33Z</time>
      </trkpt>
      <trkpt lat="45.04394" lon="5.74258">
        <ele>1295.2</ele>
        <time>2021-05-29T08:32:34Z</time>
      </trkpt>
      <trkpt lat="45.04394" lon="5.74258">
        <ele>1295.4</ele>
        <time>2021-05-29T08:32:35Z</time>
      </trkpt>
      <trkpt lat="45.04394" lon="5.74258">
        <ele>1295.8</ele>
        <time>2021-05-29T08:32:36Z</time>
      </trkpt>
      <trkpt lat="45.04394" lon="5.74258">
        <ele>1295.8</ele>
        <time>2021-05-29T08:32:37Z</time>
      </trkpt>
      <trkpt lat="45.04395" lon="5.74257">
        <ele>1295.8</ele>
        <time>2021-05-29T08:32:38Z</time>
      </trkpt>
      <trkpt lat="45.04395" lon="5.74257">
        <ele>1296</ele>
        <time>2021-05-29T08:32:39Z</time>
      </trkpt>
      <trkpt lat="45.04396" lon="5.74256">
        <ele>1296.2</ele>
        <time>2021-05-29T08:32:40Z</time>
      </trkpt>
      <trkpt lat="45.04396" lon="5.74256">
        <ele>1296.4</ele>
        <time>2021-05-29T08:32:41Z</time>
      </trkpt>
      <trkpt lat="45.04396" lon="5.74256">
        <ele>1296.6</ele>
        <time>2021-05-29T08:32:42Z</time>
      </trkpt>
      <trkpt lat="45.04397" lon="5.74255">
        <ele>1296.8</ele>
        <time>2021-05-29T08:32:43Z</time>
      </trkpt>
      <trkpt lat="45.04397" lon="5.74255">
        <ele>1297.2</ele>
        <time>2021-05-29T08:32:44Z</time>
      </trkpt>
      <trkpt lat="45.04398" lon="5.74254">
        <ele>1297.4</ele>
        <time>2021-05-29T08:32:45Z</time>
      </trkpt>
      <trkpt lat="45.04398" lon="5.74254">
        <ele>1297.6</ele>
        <time>2021-05-29T08:32:46Z</time>
      </trkpt>
      <trkpt lat="45.04398" lon="5.74254">
        <ele>1297.8</ele>
        <time>2021-05-29T08:32:47Z</time>
      </trkpt>
      <trkpt lat="45.04399" lon="5.74253">
        <ele>1298</ele>
        <time>2021-05-29T08:32:48Z</time>
      </trkpt>
      <trkpt lat="45.04399" lon="5.74253">
        <ele>1298.2</ele>
        <time>2021-05-29T08:32:49Z</time>
      </trkpt>
      <trkpt lat="45.044" lon="5.74252">
        <ele>1298.4</ele>
        <time>2021-05-29T08:32:50Z</time>
      </trkpt>
      <trkpt lat="45.044" lon="5.74252">
        <ele>1298.8</ele>
        <time>2021-05-29T08:32:51Z</time>
      </trkpt>
      <trkpt lat="45.04401" lon="5.74252">
        <ele>1299</ele>
        <time>2021-05-29T08:32:52Z</time>
      </trkpt>
      <trkpt lat="45.04401" lon="5.74251">
        <ele>1299.2</ele>
        <time>2021-05-29T08:32:53Z</time>
      </trkpt>
      <trkpt lat="45.04401" lon="5.74251">
        <ele>1299.6</ele>
        <time>2021-05-29T08:32:54Z</time>
      </trkpt>
      <trkpt lat="45.04402" lon="5.74251">
        <ele>1299.6</ele>
        <time>2021-05-29T08:32:55Z</time>
      </trkpt>
      <trkpt lat="45.04403" lon="5.74251">
        <ele>1300</ele>
        <time>2021-05-29T08:32:56Z</time>
      </trkpt>
      <trkpt lat="45.04404" lon="5.74251">
        <ele>1300.4</ele>
        <time>2021-05-29T08:32:57Z</time>
      </trkpt>
      <trkpt lat="45.04405" lon="5.74251">
        <ele>1300.6</ele>
        <time>2021-05-29T08:32:58Z</time>
      </trkpt>
      <trkpt lat="45.04405" lon="5.74251">
        <ele>1300.8</ele>
        <time>2021-05-29T08:32:59Z</time>
      </trkpt>
      <trkpt lat="45.04406" lon="5.74251">
        <ele>1301.2</ele>
        <time>2021-05-29T08:33:00Z</time>
      </trkpt>
      <trkpt lat="45.04407" lon="5.7425">
        <ele>1301.4</ele>
        <time>2021-05-29T08:33:01Z</time>
      </trkpt>
      <trkpt lat="45.04408" lon="5.7425">
        <ele>1301.8</ele>
        <time>2021-05-29T08:33:02Z</time>
      </trkpt>
      <trkpt lat="45.04408" lon="5.7425">
        <ele>1301.8</ele>
        <time>2021-05-29T08:33:03Z</time>
      </trkpt>
      <trkpt lat="45.04409" lon="5.7425">
        <ele>1302</ele>
        <time>2021-05-29T08:33:04Z</time>
      </trkpt>
      <trkpt lat="45.0441" lon="5.7425">
        <ele>1302.2</ele>
        <time>2021-05-29T08:33:05Z</time>
      </trkpt>
      <trkpt lat="45.04411" lon="5.7425">
        <ele>1302.2</ele>
        <time>2021-05-29T08:33:06Z</time>
      </trkpt>
      <trkpt lat="45.04412" lon="5.7425">
        <ele>1302.4</ele>
        <time>2021-05-29T08:33:07Z</time>
      </trkpt>
      <trkpt lat="45.04412" lon="5.7425">
        <ele>1302.6</ele>
        <time>2021-05-29T08:33:08Z</time>
      </trkpt>
      <trkpt lat="45.04413" lon="5.7425">
        <ele>1302.6</ele>
        <time>2021-05-29T08:33:09Z</time>
      </trkpt>
      <trkpt lat="45.04413" lon="5.74251">
        <ele>1302.8</ele>
        <time>2021-05-29T08:33:10Z</time>
      </trkpt>
      <trkpt lat="45.04414" lon="5.74251">
        <ele>1303</ele>
        <time>2021-05-29T08:33:11Z</time>
      </trkpt>
      <trkpt lat="45.04415" lon="5.74251">
        <ele>1303</ele>
        <time>2021-05-29T08:33:12Z</time>
      </trkpt>
      <trkpt lat="45.04415" lon="5.74251">
        <ele>1303</ele>
        <time>2021-05-29T08:33:13Z</time>
      </trkpt>
      <trkpt lat="45.04416" lon="5.74251">
        <ele>1303</ele>
        <time>2021-05-29T08:33:14Z</time>
      </trkpt>
      <trkpt lat="45.04416" lon="5.74251">
        <ele>1303.2</ele>
        <time>2021-05-29T08:33:15Z</time>
      </trkpt>
      <trkpt lat="45.04417" lon="5.74251">
        <ele>1303.4</ele>
        <time>2021-05-29T08:33:16Z</time>
      </trkpt>
      <trkpt lat="45.04418" lon="5.74251">
        <ele>1303.4</ele>
        <time>2021-05-29T08:33:17Z</time>
      </trkpt>
      <trkpt lat="45.04418" lon="5.74251">
        <ele>1303.6</ele>
        <time>2021-05-29T08:33:18Z</time>
      </trkpt>
      <trkpt lat="45.04419" lon="5.74252">
        <ele>1303.8</ele>
        <time>2021-05-29T08:33:19Z</time>
      </trkpt>
      <trkpt lat="45.04419" lon="5.74252">
        <ele>1304.2</ele>
        <time>2021-05-29T08:33:20Z</time>
      </trkpt>
      <trkpt lat="45.0442" lon="5.74252">
        <ele>1304.6</ele>
        <time>2021-05-29T08:33:21Z</time>
      </trkpt>
      <trkpt lat="45.04421" lon="5.74252">
        <ele>1304.8</ele>
        <time>2021-05-29T08:33:22Z</time>
      </trkpt>
      <trkpt lat="45.04421" lon="5.74251">
        <ele>1304.8</ele>
        <time>2021-05-29T08:33:23Z</time>
      </trkpt>
      <trkpt lat="45.04421" lon="5.74251">
        <ele>1305.2</ele>
        <time>2021-05-29T08:33:24Z</time>
      </trkpt>
      <trkpt lat="45.04421" lon="5.74251">
        <ele>1305.4</ele>
        <time>2021-05-29T08:33:25Z</time>
      </trkpt>
      <trkpt lat="45.04421" lon="5.7425">
        <ele>1305.8</ele>
        <time>2021-05-29T08:33:26Z</time>
      </trkpt>
      <trkpt lat="45.04421" lon="5.7425">
        <ele>1306.2</ele>
        <time>2021-05-29T08:33:27Z</time>
      </trkpt>
      <trkpt lat="45.04422" lon="5.74249">
        <ele>1306.2</ele>
        <time>2021-05-29T08:33:28Z</time>
      </trkpt>
      <trkpt lat="45.04422" lon="5.74249">
        <ele>1306.6</ele>
        <time>2021-05-29T08:33:29Z</time>
      </trkpt>
      <trkpt lat="45.04422" lon="5.74248">
        <ele>1306.8</ele>
        <time>2021-05-29T08:33:30Z</time>
      </trkpt>
      <trkpt lat="45.04422" lon="5.74248">
        <ele>1307.2</ele>
        <time>2021-05-29T08:33:31Z</time>
      </trkpt>
      <trkpt lat="45.04422" lon="5.74247">
        <ele>1307.2</ele>
        <time>2021-05-29T08:33:32Z</time>
      </trkpt>
      <trkpt lat="45.04422" lon="5.74247">
        <ele>1307.6</ele>
        <time>2021-05-29T08:33:33Z</time>
      </trkpt>
      <trkpt lat="45.04423" lon="5.74246">
        <ele>1307.8</ele>
        <time>2021-05-29T08:33:34Z</time>
      </trkpt>
      <trkpt lat="45.04423" lon="5.74246">
        <ele>1307.8</ele>
        <time>2021-05-29T08:33:35Z</time>
      </trkpt>
      <trkpt lat="45.04423" lon="5.74246">
        <ele>1308.2</ele>
        <time>2021-05-29T08:33:36Z</time>
      </trkpt>
      <trkpt lat="45.04423" lon="5.74245">
        <ele>1308.6</ele>
        <time>2021-05-29T08:33:37Z</time>
      </trkpt>
      <trkpt lat="45.04423" lon="5.74245">
        <ele>1309</ele>
        <time>2021-05-29T08:33:38Z</time>
      </trkpt>
      <trkpt lat="45.04423" lon="5.74244">
        <ele>1309.2</ele>
        <time>2021-05-29T08:33:39Z</time>
      </trkpt>
      <trkpt lat="45.04424" lon="5.74244">
        <ele>1309.4</ele>
        <time>2021-05-29T08:33:40Z</time>
      </trkpt>
      <trkpt lat="45.04424" lon="5.74243">
        <ele>1309.8</ele>
        <time>2021-05-29T08:33:41Z</time>
      </trkpt>
      <trkpt lat="45.04424" lon="5.74243">
        <ele>1310</ele>
        <time>2021-05-29T08:33:42Z</time>
      </trkpt>
      <trkpt lat="45.04424" lon="5.74242">
        <ele>1310.2</ele>
        <time>2021-05-29T08:33:43Z</time>
      </trkpt>
      <trkpt lat="45.04424" lon="5.74242">
        <ele>1310.4</ele>
        <time>2021-05-29T08:33:44Z</time>
      </trkpt>
      <trkpt lat="45.04424" lon="5.74241">
        <ele>1310.6</ele>
        <time>2021-05-29T08:33:45Z</time>
      </trkpt>
      <trkpt lat="45.04425" lon="5.74241">
        <ele>1310.8</ele>
        <time>2021-05-29T08:33:46Z</time>
      </trkpt>
      <trkpt lat="45.04425" lon="5.7424">
        <ele>1311</ele>
        <time>2021-05-29T08:33:47Z</time>
      </trkpt>
      <trkpt lat="45.04426" lon="5.7424">
        <ele>1311.2</ele>
        <time>2021-05-29T08:33:48Z</time>
      </trkpt>
      <trkpt lat="45.04427" lon="5.7424">
        <ele>1311.4</ele>
        <time>2021-05-29T08:33:49Z</time>
      </trkpt>
      <trkpt lat="45.04428" lon="5.74239">
        <ele>1311.8</ele>
        <time>2021-05-29T08:33:50Z</time>
      </trkpt>
      <trkpt lat="45.04429" lon="5.74239">
        <ele>1312</ele>
        <time>2021-05-29T08:33:51Z</time>
      </trkpt>
      <trkpt lat="45.0443" lon="5.74239">
        <ele>1312</ele>
        <time>2021-05-29T08:33:52Z</time>
      </trkpt>
      <trkpt lat="45.04432" lon="5.74238">
        <ele>1312.4</ele>
        <time>2021-05-29T08:33:53Z</time>
      </trkpt>
      <trkpt lat="45.04433" lon="5.74238">
        <ele>1312.8</ele>
        <time>2021-05-29T08:33:54Z</time>
      </trkpt>
      <trkpt lat="45.04434" lon="5.74238">
        <ele>1313</ele>
        <time>2021-05-29T08:33:55Z</time>
      </trkpt>
      <trkpt lat="45.04435" lon="5.74237">
        <ele>1313.2</ele>
        <time>2021-05-29T08:33:56Z</time>
      </trkpt>
      <trkpt lat="45.04435" lon="5.74236">
        <ele>1313.4</ele>
        <time>2021-05-29T08:33:57Z</time>
      </trkpt>
      <trkpt lat="45.04436" lon="5.74236">
        <ele>1313.4</ele>
        <time>2021-05-29T08:33:58Z</time>
      </trkpt>
      <trkpt lat="45.04437" lon="5.74235">
        <ele>1313.6</ele>
        <time>2021-05-29T08:33:59Z</time>
      </trkpt>
      <trkpt lat="45.04438" lon="5.74234">
        <ele>1313.8</ele>
        <time>2021-05-29T08:34:00Z</time>
      </trkpt>
      <trkpt lat="45.04438" lon="5.74234">
        <ele>1314</ele>
        <time>2021-05-29T08:34:01Z</time>
      </trkpt>
      <trkpt lat="45.04439" lon="5.74233">
        <ele>1314.4</ele>
        <time>2021-05-29T08:34:02Z</time>
      </trkpt>
      <trkpt lat="45.0444" lon="5.74232">
        <ele>1314.8</ele>
        <time>2021-05-29T08:34:03Z</time>
      </trkpt>
      <trkpt lat="45.04441" lon="5.74232">
        <ele>1314.8</ele>
        <time>2021-05-29T08:34:04Z</time>
      </trkpt>
      <trkpt lat="45.04442" lon="5.74231">
        <ele>1315.2</ele>
        <time>2021-05-29T08:34:05Z</time>
      </trkpt>
      <trkpt lat="45.04442" lon="5.74231">
        <ele>1315.4</ele>
        <time>2021-05-29T08:34:06Z</time>
      </trkpt>
      <trkpt lat="45.04443" lon="5.7423">
        <ele>1315.8</ele>
        <time>2021-05-29T08:34:07Z</time>
      </trkpt>
      <trkpt lat="45.04443" lon="5.74229">
        <ele>1315.8</ele>
        <time>2021-05-29T08:34:08Z</time>
      </trkpt>
      <trkpt lat="45.04443" lon="5.74228">
        <ele>1315.8</ele>
        <time>2021-05-29T08:34:09Z</time>
      </trkpt>
      <trkpt lat="45.04444" lon="5.74227">
        <ele>1315.8</ele>
        <time>2021-05-29T08:34:10Z</time>
      </trkpt>
      <trkpt lat="45.04444" lon="5.74227">
        <ele>1316.4</ele>
        <time>2021-05-29T08:34:11Z</time>
      </trkpt>
      <trkpt lat="45.04444" lon="5.74226">
        <ele>1316.6</ele>
        <time>2021-05-29T08:34:12Z</time>
      </trkpt>
      <trkpt lat="45.04444" lon="5.74225">
        <ele>1316.8</ele>
        <time>2021-05-29T08:34:13Z</time>
      </trkpt>
      <trkpt lat="45.04444" lon="5.74224">
        <ele>1316.8</ele>
        <time>2021-05-29T08:34:14Z</time>
      </trkpt>
      <trkpt lat="45.04444" lon="5.74223">
        <ele>1317.2</ele>
        <time>2021-05-29T08:34:15Z</time>
      </trkpt>
      <trkpt lat="45.04444" lon="5.74222">
        <ele>1317.4</ele>
        <time>2021-05-29T08:34:16Z</time>
      </trkpt>
      <trkpt lat="45.04445" lon="5.74221">
        <ele>1317.6</ele>
        <time>2021-05-29T08:34:17Z</time>
      </trkpt>
      <trkpt lat="45.04445" lon="5.74221">
        <ele>1317.8</ele>
        <time>2021-05-29T08:34:18Z</time>
      </trkpt>
      <trkpt lat="45.04445" lon="5.7422">
        <ele>1318</ele>
        <time>2021-05-29T08:34:19Z</time>
      </trkpt>
      <trkpt lat="45.04445" lon="5.74219">
        <ele>1318.4</ele>
        <time>2021-05-29T08:34:20Z</time>
      </trkpt>
      <trkpt lat="45.04445" lon="5.74218">
        <ele>1318.6</ele>
        <time>2021-05-29T08:34:21Z</time>
      </trkpt>
      <trkpt lat="45.04445" lon="5.74217">
        <ele>1319</ele>
        <time>2021-05-29T08:34:22Z</time>
      </trkpt>
      <trkpt lat="45.04445" lon="5.74216">
        <ele>1319.4</ele>
        <time>2021-05-29T08:34:23Z</time>
      </trkpt>
      <trkpt lat="45.04446" lon="5.74215">
        <ele>1319.4</ele>
        <time>2021-05-29T08:34:24Z</time>
      </trkpt>
      <trkpt lat="45.04446" lon="5.74214">
        <ele>1319.4</ele>
        <time>2021-05-29T08:34:25Z</time>
      </trkpt>
      <trkpt lat="45.04446" lon="5.74214">
        <ele>1319.6</ele>
        <time>2021-05-29T08:34:26Z</time>
      </trkpt>
      <trkpt lat="45.04446" lon="5.74213">
        <ele>1319.8</ele>
        <time>2021-05-29T08:34:27Z</time>
      </trkpt>
      <trkpt lat="45.04447" lon="5.74212">
        <ele>1320</ele>
        <time>2021-05-29T08:34:28Z</time>
      </trkpt>
      <trkpt lat="45.04447" lon="5.74211">
        <ele>1320.2</ele>
        <time>2021-05-29T08:34:29Z</time>
      </trkpt>
      <trkpt lat="45.04447" lon="5.7421">
        <ele>1320.4</ele>
        <time>2021-05-29T08:34:30Z</time>
      </trkpt>
      <trkpt lat="45.04447" lon="5.74209">
        <ele>1320.8</ele>
        <time>2021-05-29T08:34:31Z</time>
      </trkpt>
      <trkpt lat="45.04448" lon="5.74208">
        <ele>1320.8</ele>
        <time>2021-05-29T08:34:32Z</time>
      </trkpt>
      <trkpt lat="45.04448" lon="5.74207">
        <ele>1321</ele>
        <time>2021-05-29T08:34:33Z</time>
      </trkpt>
      <trkpt lat="45.04448" lon="5.74206">
        <ele>1321.2</ele>
        <time>2021-05-29T08:34:34Z</time>
      </trkpt>
      <trkpt lat="45.04448" lon="5.74205">
        <ele>1321.6</ele>
        <time>2021-05-29T08:34:35Z</time>
      </trkpt>
      <trkpt lat="45.04449" lon="5.74204">
        <ele>1321.8</ele>
        <time>2021-05-29T08:34:36Z</time>
      </trkpt>
      <trkpt lat="45.04448" lon="5.74203">
        <ele>1322</ele>
        <time>2021-05-29T08:34:37Z</time>
      </trkpt>
      <trkpt lat="45.04447" lon="5.74203">
        <ele>1322.2</ele>
        <time>2021-05-29T08:34:38Z</time>
      </trkpt>
      <trkpt lat="45.04447" lon="5.74202">
        <ele>1322.4</ele>
        <time>2021-05-29T08:34:39Z</time>
      </trkpt>
      <trkpt lat="45.04446" lon="5.74201">
        <ele>1322.8</ele>
        <time>2021-05-29T08:34:40Z</time>
      </trkpt>
      <trkpt lat="45.04445" lon="5.74201">
        <ele>1323</ele>
        <time>2021-05-29T08:34:41Z</time>
      </trkpt>
      <trkpt lat="45.04445" lon="5.742">
        <ele>1323</ele>
        <time>2021-05-29T08:34:42Z</time>
      </trkpt>
      <trkpt lat="45.04444" lon="5.74199">
        <ele>1323.2</ele>
        <time>2021-05-29T08:34:43Z</time>
      </trkpt>
      <trkpt lat="45.04443" lon="5.74199">
        <ele>1323.4</ele>
        <time>2021-05-29T08:34:44Z</time>
      </trkpt>
      <trkpt lat="45.04442" lon="5.74198">
        <ele>1323.4</ele>
        <time>2021-05-29T08:34:45Z</time>
      </trkpt>
      <trkpt lat="45.04442" lon="5.74197">
        <ele>1323.6</ele>
        <time>2021-05-29T08:34:46Z</time>
      </trkpt>
      <trkpt lat="45.04441" lon="5.74197">
        <ele>1323.6</ele>
        <time>2021-05-29T08:34:47Z</time>
      </trkpt>
      <trkpt lat="45.04441" lon="5.74195">
        <ele>1323.8</ele>
        <time>2021-05-29T08:34:48Z</time>
      </trkpt>
      <trkpt lat="45.04441" lon="5.74194">
        <ele>1324.2</ele>
        <time>2021-05-29T08:34:49Z</time>
      </trkpt>
      <trkpt lat="45.0444" lon="5.74193">
        <ele>1324.2</ele>
        <time>2021-05-29T08:34:50Z</time>
      </trkpt>
      <trkpt lat="45.0444" lon="5.74192">
        <ele>1324.2</ele>
        <time>2021-05-29T08:34:51Z</time>
      </trkpt>
      <trkpt lat="45.0444" lon="5.74191">
        <ele>1324.6</ele>
        <time>2021-05-29T08:34:52Z</time>
      </trkpt>
      <trkpt lat="45.0444" lon="5.7419">
        <ele>1324.8</ele>
        <time>2021-05-29T08:34:53Z</time>
      </trkpt>
      <trkpt lat="45.0444" lon="5.74188">
        <ele>1324.8</ele>
        <time>2021-05-29T08:34:54Z</time>
      </trkpt>
      <trkpt lat="45.04439" lon="5.74187">
        <ele>1325</ele>
        <time>2021-05-29T08:34:55Z</time>
      </trkpt>
      <trkpt lat="45.04439" lon="5.74186">
        <ele>1325.4</ele>
        <time>2021-05-29T08:34:56Z</time>
      </trkpt>
      <trkpt lat="45.04439" lon="5.74185">
        <ele>1325.6</ele>
        <time>2021-05-29T08:34:57Z</time>
      </trkpt>
      <trkpt lat="45.04439" lon="5.74184">
        <ele>1325.8</ele>
        <time>2021-05-29T08:34:58Z</time>
      </trkpt>
      <trkpt lat="45.04438" lon="5.74182">
        <ele>1326</ele>
        <time>2021-05-29T08:34:59Z</time>
      </trkpt>
      <trkpt lat="45.04438" lon="5.74181">
        <ele>1326.2</ele>
        <time>2021-05-29T08:35:00Z</time>
      </trkpt>
      <trkpt lat="45.04438" lon="5.74179">
        <ele>1326.4</ele>
        <time>2021-05-29T08:35:01Z</time>
      </trkpt>
      <trkpt lat="45.04438" lon="5.74177">
        <ele>1326.6</ele>
        <time>2021-05-29T08:35:02Z</time>
      </trkpt>
      <trkpt lat="45.04438" lon="5.74176">
        <ele>1326.6</ele>
        <time>2021-05-29T08:35:03Z</time>
      </trkpt>
      <trkpt lat="45.04438" lon="5.74174">
        <ele>1326.6</ele>
        <time>2021-05-29T08:35:04Z</time>
      </trkpt>
      <trkpt lat="45.04438" lon="5.74173">
        <ele>1326.8</ele>
        <time>2021-05-29T08:35:05Z</time>
      </trkpt>
      <trkpt lat="45.04437" lon="5.74171">
        <ele>1327</ele>
        <time>2021-05-29T08:35:06Z</time>
      </trkpt>
      <trkpt lat="45.04437" lon="5.7417">
        <ele>1327</ele>
        <time>2021-05-29T08:35:07Z</time>
      </trkpt>
      <trkpt lat="45.04437" lon="5.74169">
        <ele>1327</ele>
        <time>2021-05-29T08:35:08Z</time>
      </trkpt>
      <trkpt lat="45.04436" lon="5.74168">
        <ele>1327.2</ele>
        <time>2021-05-29T08:35:09Z</time>
      </trkpt>
      <trkpt lat="45.04436" lon="5.74167">
        <ele>1327.4</ele>
        <time>2021-05-29T08:35:10Z</time>
      </trkpt>
      <trkpt lat="45.04435" lon="5.74166">
        <ele>1327.4</ele>
        <time>2021-05-29T08:35:11Z</time>
      </trkpt>
      <trkpt lat="45.04435" lon="5.74166">
        <ele>1327.4</ele>
        <time>2021-05-29T08:35:12Z</time>
      </trkpt>
      <trkpt lat="45.04434" lon="5.74165">
        <ele>1327.6</ele>
        <time>2021-05-29T08:35:13Z</time>
      </trkpt>
      <trkpt lat="45.04434" lon="5.74164">
        <ele>1327.6</ele>
        <time>2021-05-29T08:35:14Z</time>
      </trkpt>
      <trkpt lat="45.04433" lon="5.74163">
        <ele>1327.6</ele>
        <time>2021-05-29T08:35:15Z</time>
      </trkpt>
      <trkpt lat="45.04433" lon="5.74163">
        <ele>1327.6</ele>
        <time>2021-05-29T08:35:16Z</time>
      </trkpt>
      <trkpt lat="45.04432" lon="5.74162">
        <ele>1327.6</ele>
        <time>2021-05-29T08:35:17Z</time>
      </trkpt>
      <trkpt lat="45.04431" lon="5.74161">
        <ele>1327.8</ele>
        <time>2021-05-29T08:35:18Z</time>
      </trkpt>
      <trkpt lat="45.04431" lon="5.7416">
        <ele>1328.2</ele>
        <time>2021-05-29T08:35:19Z</time>
      </trkpt>
      <trkpt lat="45.0443" lon="5.74159">
        <ele>1328.2</ele>
        <time>2021-05-29T08:35:20Z</time>
      </trkpt>
      <trkpt lat="45.04429" lon="5.74158">
        <ele>1328.6</ele>
        <time>2021-05-29T08:35:21Z</time>
      </trkpt>
      <trkpt lat="45.04427" lon="5.74157">
        <ele>1328.8</ele>
        <time>2021-05-29T08:35:22Z</time>
      </trkpt>
      <trkpt lat="45.04426" lon="5.74155">
        <ele>1329</ele>
        <time>2021-05-29T08:35:23Z</time>
      </trkpt>
      <trkpt lat="45.04424" lon="5.74154">
        <ele>1329</ele>
        <time>2021-05-29T08:35:24Z</time>
      </trkpt>
      <trkpt lat="45.04423" lon="5.74152">
        <ele>1329</ele>
        <time>2021-05-29T08:35:25Z</time>
      </trkpt>
      <trkpt lat="45.04421" lon="5.7415">
        <ele>1329</ele>
        <time>2021-05-29T08:35:26Z</time>
      </trkpt>
      <trkpt lat="45.0442" lon="5.74149">
        <ele>1329.2</ele>
        <time>2021-05-29T08:35:27Z</time>
      </trkpt>
      <trkpt lat="45.0442" lon="5.74148">
        <ele>1329.2</ele>
        <time>2021-05-29T08:35:28Z</time>
      </trkpt>
      <trkpt lat="45.04419" lon="5.74146">
        <ele>1329.2</ele>
        <time>2021-05-29T08:35:29Z</time>
      </trkpt>
      <trkpt lat="45.04419" lon="5.74145">
        <ele>1329.2</ele>
        <time>2021-05-29T08:35:30Z</time>
      </trkpt>
      <trkpt lat="45.04418" lon="5.74144">
        <ele>1329.2</ele>
        <time>2021-05-29T08:35:31Z</time>
      </trkpt>
      <trkpt lat="45.04418" lon="5.74143">
        <ele>1329.4</ele>
        <time>2021-05-29T08:35:32Z</time>
      </trkpt>
      <trkpt lat="45.04417" lon="5.74141">
        <ele>1329.6</ele>
        <time>2021-05-29T08:35:33Z</time>
      </trkpt>
      <trkpt lat="45.04417" lon="5.7414">
        <ele>1329.6</ele>
        <time>2021-05-29T08:35:34Z</time>
      </trkpt>
      <trkpt lat="45.04416" lon="5.74139">
        <ele>1329.8</ele>
        <time>2021-05-29T08:35:35Z</time>
      </trkpt>
      <trkpt lat="45.04416" lon="5.74138">
        <ele>1329.8</ele>
        <time>2021-05-29T08:35:36Z</time>
      </trkpt>
      <trkpt lat="45.04415" lon="5.74137">
        <ele>1329.8</ele>
        <time>2021-05-29T08:35:37Z</time>
      </trkpt>
      <trkpt lat="45.04415" lon="5.74135">
        <ele>1329.8</ele>
        <time>2021-05-29T08:35:38Z</time>
      </trkpt>
      <trkpt lat="45.04414" lon="5.74134">
        <ele>1330</ele>
        <time>2021-05-29T08:35:39Z</time>
      </trkpt>
      <trkpt lat="45.04414" lon="5.74133">
        <ele>1330</ele>
        <time>2021-05-29T08:35:40Z</time>
      </trkpt>
      <trkpt lat="45.04413" lon="5.74132">
        <ele>1330.2</ele>
        <time>2021-05-29T08:35:41Z</time>
      </trkpt>
      <trkpt lat="45.04413" lon="5.74131">
        <ele>1330.2</ele>
        <time>2021-05-29T08:35:42Z</time>
      </trkpt>
      <trkpt lat="45.04412" lon="5.74129">
        <ele>1330.2</ele>
        <time>2021-05-29T08:35:43Z</time>
      </trkpt>
      <trkpt lat="45.04412" lon="5.74128">
        <ele>1330.2</ele>
        <time>2021-05-29T08:35:44Z</time>
      </trkpt>
      <trkpt lat="45.04411" lon="5.74127">
        <ele>1330.4</ele>
        <time>2021-05-29T08:35:45Z</time>
      </trkpt>
      <trkpt lat="45.0441" lon="5.74126">
        <ele>1330.6</ele>
        <time>2021-05-29T08:35:46Z</time>
      </trkpt>
      <trkpt lat="45.0441" lon="5.74125">
        <ele>1330.8</ele>
        <time>2021-05-29T08:35:47Z</time>
      </trkpt>
      <trkpt lat="45.04409" lon="5.74123">
        <ele>1331</ele>
        <time>2021-05-29T08:35:48Z</time>
      </trkpt>
      <trkpt lat="45.04409" lon="5.74122">
        <ele>1331</ele>
        <time>2021-05-29T08:35:49Z</time>
      </trkpt>
      <trkpt lat="45.04408" lon="5.74121">
        <ele>1331</ele>
        <time>2021-05-29T08:35:50Z</time>
      </trkpt>
      <trkpt lat="45.04408" lon="5.7412">
        <ele>1331.2</ele>
        <time>2021-05-29T08:35:51Z</time>
      </trkpt>
      <trkpt lat="45.04407" lon="5.74118">
        <ele>1331.4</ele>
        <time>2021-05-29T08:35:52Z</time>
      </trkpt>
      <trkpt lat="45.04407" lon="5.74117">
        <ele>1331.4</ele>
        <time>2021-05-29T08:35:53Z</time>
      </trkpt>
      <trkpt lat="45.04406" lon="5.74116">
        <ele>1331.4</ele>
        <time>2021-05-29T08:35:54Z</time>
      </trkpt>
      <trkpt lat="45.04406" lon="5.74115">
        <ele>1331.4</ele>
        <time>2021-05-29T08:35:55Z</time>
      </trkpt>
      <trkpt lat="45.04405" lon="5.74114">
        <ele>1331.6</ele>
        <time>2021-05-29T08:35:56Z</time>
      </trkpt>
      <trkpt lat="45.04405" lon="5.74112">
        <ele>1331.4</ele>
        <time>2021-05-29T08:35:57Z</time>
      </trkpt>
      <trkpt lat="45.04404" lon="5.74111">
        <ele>1331.4</ele>
        <time>2021-05-29T08:35:58Z</time>
      </trkpt>
      <trkpt lat="45.04404" lon="5.7411">
        <ele>1331.2</ele>
        <time>2021-05-29T08:35:59Z</time>
      </trkpt>
      <trkpt lat="45.04403" lon="5.74109">
        <ele>1331.2</ele>
        <time>2021-05-29T08:36:00Z</time>
      </trkpt>
      <trkpt lat="45.04403" lon="5.74108">
        <ele>1331.2</ele>
        <time>2021-05-29T08:36:01Z</time>
      </trkpt>
      <trkpt lat="45.04402" lon="5.74106">
        <ele>1331.2</ele>
        <time>2021-05-29T08:36:02Z</time>
      </trkpt>
      <trkpt lat="45.04402" lon="5.74105">
        <ele>1331</ele>
        <time>2021-05-29T08:36:03Z</time>
      </trkpt>
      <trkpt lat="45.04401" lon="5.74104">
        <ele>1331.2</ele>
        <time>2021-05-29T08:36:04Z</time>
      </trkpt>
      <trkpt lat="45.044" lon="5.74103">
        <ele>1331</ele>
        <time>2021-05-29T08:36:05Z</time>
      </trkpt>
      <trkpt lat="45.044" lon="5.74102">
        <ele>1331</ele>
        <time>2021-05-29T08:36:06Z</time>
      </trkpt>
      <trkpt lat="45.04399" lon="5.741">
        <ele>1330.8</ele>
        <time>2021-05-29T08:36:07Z</time>
      </trkpt>
      <trkpt lat="45.04399" lon="5.74099">
        <ele>1331</ele>
        <time>2021-05-29T08:36:08Z</time>
      </trkpt>
      <trkpt lat="45.04398" lon="5.74098">
        <ele>1331</ele>
        <time>2021-05-29T08:36:09Z</time>
      </trkpt>
      <trkpt lat="45.04398" lon="5.74097">
        <ele>1330.8</ele>
        <time>2021-05-29T08:36:10Z</time>
      </trkpt>
      <trkpt lat="45.04397" lon="5.74095">
        <ele>1331.2</ele>
        <time>2021-05-29T08:36:11Z</time>
      </trkpt>
      <trkpt lat="45.04397" lon="5.74094">
        <ele>1331.4</ele>
        <time>2021-05-29T08:36:12Z</time>
      </trkpt>
      <trkpt lat="45.04396" lon="5.74093">
        <ele>1331.6</ele>
        <time>2021-05-29T08:36:13Z</time>
      </trkpt>
      <trkpt lat="45.04396" lon="5.74092">
        <ele>1331.6</ele>
        <time>2021-05-29T08:36:14Z</time>
      </trkpt>
      <trkpt lat="45.04395" lon="5.74091">
        <ele>1331.8</ele>
        <time>2021-05-29T08:36:15Z</time>
      </trkpt>
      <trkpt lat="45.04395" lon="5.74089">
        <ele>1332</ele>
        <time>2021-05-29T08:36:16Z</time>
      </trkpt>
      <trkpt lat="45.04395" lon="5.74089">
        <ele>1332.2</ele>
        <time>2021-05-29T08:36:17Z</time>
      </trkpt>
      <trkpt lat="45.04395" lon="5.74089">
        <ele>1332.6</ele>
        <time>2021-05-29T08:36:18Z</time>
      </trkpt>
      <trkpt lat="45.04395" lon="5.74086">
        <ele>1332.8</ele>
        <time>2021-05-29T08:36:19Z</time>
      </trkpt>
      <trkpt lat="45.04396" lon="5.74083">
        <ele>1333</ele>
        <time>2021-05-29T08:36:20Z</time>
      </trkpt>
      <trkpt lat="45.04397" lon="5.7408">
        <ele>1333.4</ele>
        <time>2021-05-29T08:36:21Z</time>
      </trkpt>
      <trkpt lat="45.04397" lon="5.74077">
        <ele>1333.6</ele>
        <time>2021-05-29T08:36:22Z</time>
      </trkpt>
      <trkpt lat="45.04397" lon="5.74076">
        <ele>1334</ele>
        <time>2021-05-29T08:36:23Z</time>
      </trkpt>
      <trkpt lat="45.04397" lon="5.74074">
        <ele>1334.4</ele>
        <time>2021-05-29T08:36:24Z</time>
      </trkpt>
      <trkpt lat="45.04397" lon="5.74072">
        <ele>1334.4</ele>
        <time>2021-05-29T08:36:25Z</time>
      </trkpt>
      <trkpt lat="45.04397" lon="5.74071">
        <ele>1334.4</ele>
        <time>2021-05-29T08:36:26Z</time>
      </trkpt>
      <trkpt lat="45.04397" lon="5.74069">
        <ele>1334.4</ele>
        <time>2021-05-29T08:36:27Z</time>
      </trkpt>
      <trkpt lat="45.04397" lon="5.74068">
        <ele>1334.6</ele>
        <time>2021-05-29T08:36:28Z</time>
      </trkpt>
      <trkpt lat="45.04397" lon="5.74066">
        <ele>1334.8</ele>
        <time>2021-05-29T08:36:29Z</time>
      </trkpt>
      <trkpt lat="45.04397" lon="5.74065">
        <ele>1335</ele>
        <time>2021-05-29T08:36:30Z</time>
      </trkpt>
      <trkpt lat="45.04397" lon="5.74063">
        <ele>1335.2</ele>
        <time>2021-05-29T08:36:31Z</time>
      </trkpt>
      <trkpt lat="45.04397" lon="5.74062">
        <ele>1335.4</ele>
        <time>2021-05-29T08:36:32Z</time>
      </trkpt>
      <trkpt lat="45.04398" lon="5.7406">
        <ele>1335.6</ele>
        <time>2021-05-29T08:36:33Z</time>
      </trkpt>
      <trkpt lat="45.04399" lon="5.74059">
        <ele>1335.8</ele>
        <time>2021-05-29T08:36:34Z</time>
      </trkpt>
      <trkpt lat="45.04399" lon="5.74057">
        <ele>1335.8</ele>
        <time>2021-05-29T08:36:35Z</time>
      </trkpt>
      <trkpt lat="45.044" lon="5.74056">
        <ele>1336</ele>
        <time>2021-05-29T08:36:36Z</time>
      </trkpt>
      <trkpt lat="45.044" lon="5.74054">
        <ele>1336.2</ele>
        <time>2021-05-29T08:36:37Z</time>
      </trkpt>
      <trkpt lat="45.04401" lon="5.74053">
        <ele>1336.4</ele>
        <time>2021-05-29T08:36:38Z</time>
      </trkpt>
      <trkpt lat="45.04402" lon="5.74051">
        <ele>1336.2</ele>
        <time>2021-05-29T08:36:39Z</time>
      </trkpt>
      <trkpt lat="45.04402" lon="5.7405">
        <ele>1336.4</ele>
        <time>2021-05-29T08:36:40Z</time>
      </trkpt>
      <trkpt lat="45.04403" lon="5.74048">
        <ele>1336.6</ele>
        <time>2021-05-29T08:36:41Z</time>
      </trkpt>
      <trkpt lat="45.04403" lon="5.74046">
        <ele>1336.6</ele>
        <time>2021-05-29T08:36:42Z</time>
      </trkpt>
      <trkpt lat="45.04403" lon="5.74043">
        <ele>1336.8</ele>
        <time>2021-05-29T08:36:43Z</time>
      </trkpt>
      <trkpt lat="45.04404" lon="5.74041">
        <ele>1337</ele>
        <time>2021-05-29T08:36:44Z</time>
      </trkpt>
      <trkpt lat="45.04404" lon="5.74039">
        <ele>1337.2</ele>
        <time>2021-05-29T08:36:45Z</time>
      </trkpt>
      <trkpt lat="45.04404" lon="5.74037">
        <ele>1337.4</ele>
        <time>2021-05-29T08:36:46Z</time>
      </trkpt>
      <trkpt lat="45.04404" lon="5.74036">
        <ele>1337.2</ele>
        <time>2021-05-29T08:36:47Z</time>
      </trkpt>
      <trkpt lat="45.04404" lon="5.74036">
        <ele>1337.4</ele>
        <time>2021-05-29T08:36:48Z</time>
      </trkpt>
      <trkpt lat="45.04404" lon="5.74035">
        <ele>1337.6</ele>
        <time>2021-05-29T08:36:49Z</time>
      </trkpt>
      <trkpt lat="45.04404" lon="5.74034">
        <ele>1337.8</ele>
        <time>2021-05-29T08:36:50Z</time>
      </trkpt>
      <trkpt lat="45.04405" lon="5.74034">
        <ele>1338</ele>
        <time>2021-05-29T08:36:51Z</time>
      </trkpt>
      <trkpt lat="45.04405" lon="5.74033">
        <ele>1338</ele>
        <time>2021-05-29T08:36:52Z</time>
      </trkpt>
      <trkpt lat="45.04405" lon="5.74032">
        <ele>1338.2</ele>
        <time>2021-05-29T08:36:53Z</time>
      </trkpt>
      <trkpt lat="45.04405" lon="5.74031">
        <ele>1338.2</ele>
        <time>2021-05-29T08:36:54Z</time>
      </trkpt>
      <trkpt lat="45.04405" lon="5.74031">
        <ele>1338.2</ele>
        <time>2021-05-29T08:36:55Z</time>
      </trkpt>
      <trkpt lat="45.04405" lon="5.7403">
        <ele>1338.2</ele>
        <time>2021-05-29T08:36:56Z</time>
      </trkpt>
      <trkpt lat="45.04405" lon="5.74029">
        <ele>1338.2</ele>
        <time>2021-05-29T08:36:57Z</time>
      </trkpt>
      <trkpt lat="45.04405" lon="5.74029">
        <ele>1338</ele>
        <time>2021-05-29T08:36:58Z</time>
      </trkpt>
      <trkpt lat="45.04405" lon="5.74028">
        <ele>1338.2</ele>
        <time>2021-05-29T08:36:59Z</time>
      </trkpt>
      <trkpt lat="45.04405" lon="5.74027">
        <ele>1338.2</ele>
        <time>2021-05-29T08:37:00Z</time>
      </trkpt>
      <trkpt lat="45.04405" lon="5.74027">
        <ele>1338.4</ele>
        <time>2021-05-29T08:37:01Z</time>
      </trkpt>
      <trkpt lat="45.04405" lon="5.74026">
        <ele>1338.2</ele>
        <time>2021-05-29T08:37:02Z</time>
      </trkpt>
      <trkpt lat="45.04405" lon="5.74025">
        <ele>1338.2</ele>
        <time>2021-05-29T08:37:03Z</time>
      </trkpt>
      <trkpt lat="45.04405" lon="5.74025">
        <ele>1338.4</ele>
        <time>2021-05-29T08:37:04Z</time>
      </trkpt>
      <trkpt lat="45.04405" lon="5.74024">
        <ele>1338.2</ele>
        <time>2021-05-29T08:37:05Z</time>
      </trkpt>
      <trkpt lat="45.04406" lon="5.74023">
        <ele>1338.4</ele>
        <time>2021-05-29T08:37:06Z</time>
      </trkpt>
      <trkpt lat="45.04407" lon="5.74022">
        <ele>1338.4</ele>
        <time>2021-05-29T08:37:07Z</time>
      </trkpt>
      <trkpt lat="45.04407" lon="5.74022">
        <ele>1338.4</ele>
        <time>2021-05-29T08:37:08Z</time>
      </trkpt>
      <trkpt lat="45.04408" lon="5.74021">
        <ele>1338.4</ele>
        <time>2021-05-29T08:37:09Z</time>
      </trkpt>
      <trkpt lat="45.04409" lon="5.7402">
        <ele>1338.6</ele>
        <time>2021-05-29T08:37:10Z</time>
      </trkpt>
      <trkpt lat="45.04409" lon="5.7402">
        <ele>1338.6</ele>
        <time>2021-05-29T08:37:11Z</time>
      </trkpt>
      <trkpt lat="45.0441" lon="5.74019">
        <ele>1338.8</ele>
        <time>2021-05-29T08:37:12Z</time>
      </trkpt>
      <trkpt lat="45.04411" lon="5.74018">
        <ele>1338.8</ele>
        <time>2021-05-29T08:37:13Z</time>
      </trkpt>
      <trkpt lat="45.04412" lon="5.74017">
        <ele>1339</ele>
        <time>2021-05-29T08:37:14Z</time>
      </trkpt>
      <trkpt lat="45.04412" lon="5.74017">
        <ele>1339</ele>
        <time>2021-05-29T08:37:15Z</time>
      </trkpt>
      <trkpt lat="45.04413" lon="5.74016">
        <ele>1338.8</ele>
        <time>2021-05-29T08:37:16Z</time>
      </trkpt>
      <trkpt lat="45.04414" lon="5.74015">
        <ele>1338.8</ele>
        <time>2021-05-29T08:37:17Z</time>
      </trkpt>
      <trkpt lat="45.04414" lon="5.74015">
        <ele>1339.2</ele>
        <time>2021-05-29T08:37:18Z</time>
      </trkpt>
      <trkpt lat="45.04415" lon="5.74014">
        <ele>1339.2</ele>
        <time>2021-05-29T08:37:19Z</time>
      </trkpt>
      <trkpt lat="45.04416" lon="5.74013">
        <ele>1339.4</ele>
        <time>2021-05-29T08:37:20Z</time>
      </trkpt>
      <trkpt lat="45.04417" lon="5.74012">
        <ele>1339.6</ele>
        <time>2021-05-29T08:37:21Z</time>
      </trkpt>
      <trkpt lat="45.04417" lon="5.74011">
        <ele>1339.4</ele>
        <time>2021-05-29T08:37:22Z</time>
      </trkpt>
      <trkpt lat="45.04418" lon="5.74009">
        <ele>1339.4</ele>
        <time>2021-05-29T08:37:23Z</time>
      </trkpt>
      <trkpt lat="45.04419" lon="5.74008">
        <ele>1339.4</ele>
        <time>2021-05-29T08:37:24Z</time>
      </trkpt>
      <trkpt lat="45.04419" lon="5.74007">
        <ele>1339.6</ele>
        <time>2021-05-29T08:37:25Z</time>
      </trkpt>
      <trkpt lat="45.0442" lon="5.74005">
        <ele>1339.6</ele>
        <time>2021-05-29T08:37:26Z</time>
      </trkpt>
      <trkpt lat="45.04421" lon="5.74004">
        <ele>1339.8</ele>
        <time>2021-05-29T08:37:27Z</time>
      </trkpt>
      <trkpt lat="45.04421" lon="5.74003">
        <ele>1340</ele>
        <time>2021-05-29T08:37:28Z</time>
      </trkpt>
      <trkpt lat="45.04422" lon="5.74001">
        <ele>1340</ele>
        <time>2021-05-29T08:37:29Z</time>
      </trkpt>
      <trkpt lat="45.04424" lon="5.74">
        <ele>1340.2</ele>
        <time>2021-05-29T08:37:30Z</time>
      </trkpt>
      <trkpt lat="45.04425" lon="5.73999">
        <ele>1340.2</ele>
        <time>2021-05-29T08:37:31Z</time>
      </trkpt>
      <trkpt lat="45.04426" lon="5.73997">
        <ele>1340</ele>
        <time>2021-05-29T08:37:32Z</time>
      </trkpt>
      <trkpt lat="45.04427" lon="5.73996">
        <ele>1340</ele>
        <time>2021-05-29T08:37:33Z</time>
      </trkpt>
      <trkpt lat="45.04428" lon="5.73995">
        <ele>1340</ele>
        <time>2021-05-29T08:37:34Z</time>
      </trkpt>
      <trkpt lat="45.04429" lon="5.73994">
        <ele>1340.2</ele>
        <time>2021-05-29T08:37:35Z</time>
      </trkpt>
      <trkpt lat="45.0443" lon="5.73993">
        <ele>1340</ele>
        <time>2021-05-29T08:37:36Z</time>
      </trkpt>
      <trkpt lat="45.04432" lon="5.73993">
        <ele>1340.2</ele>
        <time>2021-05-29T08:37:37Z</time>
      </trkpt>
      <trkpt lat="45.04433" lon="5.73992">
        <ele>1340.4</ele>
        <time>2021-05-29T08:37:38Z</time>
      </trkpt>
      <trkpt lat="45.04435" lon="5.73992">
        <ele>1340.4</ele>
        <time>2021-05-29T08:37:39Z</time>
      </trkpt>
      <trkpt lat="45.04437" lon="5.73991">
        <ele>1340.4</ele>
        <time>2021-05-29T08:37:40Z</time>
      </trkpt>
      <trkpt lat="45.04438" lon="5.73991">
        <ele>1340.6</ele>
        <time>2021-05-29T08:37:41Z</time>
      </trkpt>
      <trkpt lat="45.0444" lon="5.73991">
        <ele>1340.8</ele>
        <time>2021-05-29T08:37:42Z</time>
      </trkpt>
      <trkpt lat="45.04441" lon="5.73992">
        <ele>1340.8</ele>
        <time>2021-05-29T08:37:43Z</time>
      </trkpt>
      <trkpt lat="45.04441" lon="5.73992">
        <ele>1341</ele>
        <time>2021-05-29T08:37:44Z</time>
      </trkpt>
      <trkpt lat="45.04442" lon="5.73993">
        <ele>1341.4</ele>
        <time>2021-05-29T08:37:45Z</time>
      </trkpt>
      <trkpt lat="45.04443" lon="5.73993">
        <ele>1341.4</ele>
        <time>2021-05-29T08:37:46Z</time>
      </trkpt>
      <trkpt lat="45.04444" lon="5.73994">
        <ele>1341.6</ele>
        <time>2021-05-29T08:37:47Z</time>
      </trkpt>
      <trkpt lat="45.04445" lon="5.73994">
        <ele>1341.6</ele>
        <time>2021-05-29T08:37:48Z</time>
      </trkpt>
      <trkpt lat="45.04445" lon="5.73995">
        <ele>1341.8</ele>
        <time>2021-05-29T08:37:49Z</time>
      </trkpt>
      <trkpt lat="45.04446" lon="5.73996">
        <ele>1341.8</ele>
        <time>2021-05-29T08:37:50Z</time>
      </trkpt>
      <trkpt lat="45.04447" lon="5.73996">
        <ele>1342</ele>
        <time>2021-05-29T08:37:51Z</time>
      </trkpt>
      <trkpt lat="45.04448" lon="5.73997">
        <ele>1342</ele>
        <time>2021-05-29T08:37:52Z</time>
      </trkpt>
      <trkpt lat="45.04448" lon="5.73997">
        <ele>1342</ele>
        <time>2021-05-29T08:37:53Z</time>
      </trkpt>
      <trkpt lat="45.04449" lon="5.73998">
        <ele>1342</ele>
        <time>2021-05-29T08:37:54Z</time>
      </trkpt>
      <trkpt lat="45.0445" lon="5.73998">
        <ele>1342</ele>
        <time>2021-05-29T08:37:55Z</time>
      </trkpt>
      <trkpt lat="45.04451" lon="5.73999">
        <ele>1342</ele>
        <time>2021-05-29T08:37:56Z</time>
      </trkpt>
      <trkpt lat="45.04452" lon="5.74">
        <ele>1342</ele>
        <time>2021-05-29T08:37:57Z</time>
      </trkpt>
      <trkpt lat="45.04452" lon="5.74">
        <ele>1342</ele>
        <time>2021-05-29T08:37:58Z</time>
      </trkpt>
      <trkpt lat="45.04453" lon="5.74001">
        <ele>1342.2</ele>
        <time>2021-05-29T08:37:59Z</time>
      </trkpt>
      <trkpt lat="45.04454" lon="5.74001">
        <ele>1342.4</ele>
        <time>2021-05-29T08:38:00Z</time>
      </trkpt>
      <trkpt lat="45.04455" lon="5.74002">
        <ele>1342.6</ele>
        <time>2021-05-29T08:38:01Z</time>
      </trkpt>
      <trkpt lat="45.04456" lon="5.74002">
        <ele>1342.8</ele>
        <time>2021-05-29T08:38:02Z</time>
      </trkpt>
      <trkpt lat="45.04456" lon="5.74003">
        <ele>1343</ele>
        <time>2021-05-29T08:38:03Z</time>
      </trkpt>
      <trkpt lat="45.04457" lon="5.74004">
        <ele>1343</ele>
        <time>2021-05-29T08:38:04Z</time>
      </trkpt>
      <trkpt lat="45.04458" lon="5.74004">
        <ele>1343.2</ele>
        <time>2021-05-29T08:38:05Z</time>
      </trkpt>
      <trkpt lat="45.04459" lon="5.74005">
        <ele>1343.4</ele>
        <time>2021-05-29T08:38:06Z</time>
      </trkpt>
      <trkpt lat="45.0446" lon="5.74005">
        <ele>1343.6</ele>
        <time>2021-05-29T08:38:07Z</time>
      </trkpt>
      <trkpt lat="45.0446" lon="5.74006">
        <ele>1343.8</ele>
        <time>2021-05-29T08:38:08Z</time>
      </trkpt>
      <trkpt lat="45.04461" lon="5.74006">
        <ele>1343.8</ele>
        <time>2021-05-29T08:38:09Z</time>
      </trkpt>
      <trkpt lat="45.04462" lon="5.74007">
        <ele>1344</ele>
        <time>2021-05-29T08:38:10Z</time>
      </trkpt>
      <trkpt lat="45.04463" lon="5.74007">
        <ele>1344</ele>
        <time>2021-05-29T08:38:11Z</time>
      </trkpt>
      <trkpt lat="45.04464" lon="5.74008">
        <ele>1344.2</ele>
        <time>2021-05-29T08:38:12Z</time>
      </trkpt>
      <trkpt lat="45.04464" lon="5.74009">
        <ele>1344</ele>
        <time>2021-05-29T08:38:13Z</time>
      </trkpt>
      <trkpt lat="45.04465" lon="5.74009">
        <ele>1344</ele>
        <time>2021-05-29T08:38:14Z</time>
      </trkpt>
      <trkpt lat="45.04466" lon="5.7401">
        <ele>1344</ele>
        <time>2021-05-29T08:38:15Z</time>
      </trkpt>
      <trkpt lat="45.04467" lon="5.7401">
        <ele>1344</ele>
        <time>2021-05-29T08:38:16Z</time>
      </trkpt>
      <trkpt lat="45.04468" lon="5.74011">
        <ele>1344.2</ele>
        <time>2021-05-29T08:38:17Z</time>
      </trkpt>
      <trkpt lat="45.04468" lon="5.74011">
        <ele>1344.4</ele>
        <time>2021-05-29T08:38:18Z</time>
      </trkpt>
      <trkpt lat="45.04469" lon="5.74012">
        <ele>1344.6</ele>
        <time>2021-05-29T08:38:19Z</time>
      </trkpt>
      <trkpt lat="45.0447" lon="5.74013">
        <ele>1344.8</ele>
        <time>2021-05-29T08:38:20Z</time>
      </trkpt>
      <trkpt lat="45.04471" lon="5.74013">
        <ele>1345</ele>
        <time>2021-05-29T08:38:21Z</time>
      </trkpt>
      <trkpt lat="45.04471" lon="5.74014">
        <ele>1345</ele>
        <time>2021-05-29T08:38:22Z</time>
      </trkpt>
      <trkpt lat="45.04472" lon="5.74014">
        <ele>1345.6</ele>
        <time>2021-05-29T08:38:23Z</time>
      </trkpt>
      <trkpt lat="45.04473" lon="5.74015">
        <ele>1346</ele>
        <time>2021-05-29T08:38:24Z</time>
      </trkpt>
      <trkpt lat="45.04474" lon="5.74015">
        <ele>1346</ele>
        <time>2021-05-29T08:38:25Z</time>
      </trkpt>
      <trkpt lat="45.04475" lon="5.74016">
        <ele>1346</ele>
        <time>2021-05-29T08:38:26Z</time>
      </trkpt>
      <trkpt lat="45.04475" lon="5.74017">
        <ele>1346</ele>
        <time>2021-05-29T08:38:27Z</time>
      </trkpt>
      <trkpt lat="45.04476" lon="5.74017">
        <ele>1346.2</ele>
        <time>2021-05-29T08:38:28Z</time>
      </trkpt>
      <trkpt lat="45.04477" lon="5.74018">
        <ele>1346.6</ele>
        <time>2021-05-29T08:38:29Z</time>
      </trkpt>
      <trkpt lat="45.04478" lon="5.74018">
        <ele>1347</ele>
        <time>2021-05-29T08:38:30Z</time>
      </trkpt>
      <trkpt lat="45.04479" lon="5.74019">
        <ele>1347.2</ele>
        <time>2021-05-29T08:38:31Z</time>
      </trkpt>
      <trkpt lat="45.04479" lon="5.74019">
        <ele>1347.2</ele>
        <time>2021-05-29T08:38:32Z</time>
      </trkpt>
      <trkpt lat="45.0448" lon="5.7402">
        <ele>1347.6</ele>
        <time>2021-05-29T08:38:33Z</time>
      </trkpt>
      <trkpt lat="45.04481" lon="5.74021">
        <ele>1347.8</ele>
        <time>2021-05-29T08:38:34Z</time>
      </trkpt>
      <trkpt lat="45.04482" lon="5.74021">
        <ele>1348</ele>
        <time>2021-05-29T08:38:35Z</time>
      </trkpt>
      <trkpt lat="45.04483" lon="5.74022">
        <ele>1348.2</ele>
        <time>2021-05-29T08:38:36Z</time>
      </trkpt>
      <trkpt lat="45.04483" lon="5.74022">
        <ele>1348.6</ele>
        <time>2021-05-29T08:38:37Z</time>
      </trkpt>
      <trkpt lat="45.04484" lon="5.74023">
        <ele>1348.6</ele>
        <time>2021-05-29T08:38:38Z</time>
      </trkpt>
      <trkpt lat="45.04485" lon="5.74023">
        <ele>1348.6</ele>
        <time>2021-05-29T08:38:39Z</time>
      </trkpt>
      <trkpt lat="45.04486" lon="5.74024">
        <ele>1348.6</ele>
        <time>2021-05-29T08:38:40Z</time>
      </trkpt>
      <trkpt lat="45.04487" lon="5.74025">
        <ele>1348.6</ele>
        <time>2021-05-29T08:38:41Z</time>
      </trkpt>
      <trkpt lat="45.04487" lon="5.74025">
        <ele>1348.6</ele>
        <time>2021-05-29T08:38:42Z</time>
      </trkpt>
      <trkpt lat="45.04488" lon="5.74026">
        <ele>1348.8</ele>
        <time>2021-05-29T08:38:43Z</time>
      </trkpt>
      <trkpt lat="45.04489" lon="5.74026">
        <ele>1349.2</ele>
        <time>2021-05-29T08:38:44Z</time>
      </trkpt>
      <trkpt lat="45.0449" lon="5.74027">
        <ele>1349.2</ele>
        <time>2021-05-29T08:38:45Z</time>
      </trkpt>
      <trkpt lat="45.04491" lon="5.74027">
        <ele>1349.2</ele>
        <time>2021-05-29T08:38:46Z</time>
      </trkpt>
      <trkpt lat="45.04491" lon="5.74028">
        <ele>1349.2</ele>
        <time>2021-05-29T08:38:47Z</time>
      </trkpt>
      <trkpt lat="45.04492" lon="5.74029">
        <ele>1349.2</ele>
        <time>2021-05-29T08:38:48Z</time>
      </trkpt>
      <trkpt lat="45.04493" lon="5.74029">
        <ele>1349.6</ele>
        <time>2021-05-29T08:38:49Z</time>
      </trkpt>
      <trkpt lat="45.04494" lon="5.7403">
        <ele>1349.8</ele>
        <time>2021-05-29T08:38:50Z</time>
      </trkpt>
      <trkpt lat="45.04494" lon="5.7403">
        <ele>1350.2</ele>
        <time>2021-05-29T08:38:51Z</time>
      </trkpt>
      <trkpt lat="45.04495" lon="5.74031">
        <ele>1350.4</ele>
        <time>2021-05-29T08:38:52Z</time>
      </trkpt>
      <trkpt lat="45.04496" lon="5.74031">
        <ele>1350.6</ele>
        <time>2021-05-29T08:38:53Z</time>
      </trkpt>
      <trkpt lat="45.04497" lon="5.74032">
        <ele>1350.8</ele>
        <time>2021-05-29T08:38:54Z</time>
      </trkpt>
      <trkpt lat="45.04498" lon="5.74032">
        <ele>1351</ele>
        <time>2021-05-29T08:38:55Z</time>
      </trkpt>
      <trkpt lat="45.04498" lon="5.74033">
        <ele>1351</ele>
        <time>2021-05-29T08:38:56Z</time>
      </trkpt>
      <trkpt lat="45.04507" lon="5.74033">
        <ele>1351</ele>
        <time>2021-05-29T08:38:57Z</time>
      </trkpt>
      <trkpt lat="45.04508" lon="5.74033">
        <ele>1351</ele>
        <time>2021-05-29T08:38:58Z</time>
      </trkpt>
      <trkpt lat="45.04513" lon="5.74031">
        <ele>1351.2</ele>
        <time>2021-05-29T08:38:59Z</time>
      </trkpt>
      <trkpt lat="45.04513" lon="5.74031">
        <ele>1351.4</ele>
        <time>2021-05-29T08:39:00Z</time>
      </trkpt>
      <trkpt lat="45.04513" lon="5.74031">
        <ele>1351.4</ele>
        <time>2021-05-29T08:39:01Z</time>
      </trkpt>
      <trkpt lat="45.04512" lon="5.74031">
        <ele>1351.4</ele>
        <time>2021-05-29T08:39:02Z</time>
      </trkpt>
      <trkpt lat="45.04512" lon="5.74031">
        <ele>1351.4</ele>
        <time>2021-05-29T08:39:03Z</time>
      </trkpt>
      <trkpt lat="45.04511" lon="5.74031">
        <ele>1351.4</ele>
        <time>2021-05-29T08:39:04Z</time>
      </trkpt>
      <trkpt lat="45.04511" lon="5.74031">
        <ele>1351.4</ele>
        <time>2021-05-29T08:39:05Z</time>
      </trkpt>
      <trkpt lat="45.0451" lon="5.74031">
        <ele>1351.4</ele>
        <time>2021-05-29T08:39:06Z</time>
      </trkpt>
      <trkpt lat="45.0451" lon="5.74032">
        <ele>1351.4</ele>
        <time>2021-05-29T08:39:07Z</time>
      </trkpt>
      <trkpt lat="45.0451" lon="5.74032">
        <ele>1351.6</ele>
        <time>2021-05-29T08:39:08Z</time>
      </trkpt>
      <trkpt lat="45.04509" lon="5.74032">
        <ele>1351.4</ele>
        <time>2021-05-29T08:39:09Z</time>
      </trkpt>
      <trkpt lat="45.04509" lon="5.74032">
        <ele>1351.6</ele>
        <time>2021-05-29T08:39:10Z</time>
      </trkpt>
      <trkpt lat="45.04508" lon="5.74032">
        <ele>1351.4</ele>
        <time>2021-05-29T08:39:11Z</time>
      </trkpt>
      <trkpt lat="45.04508" lon="5.74032">
        <ele>1351.4</ele>
        <time>2021-05-29T08:39:12Z</time>
      </trkpt>
      <trkpt lat="45.04508" lon="5.74033">
        <ele>1351.4</ele>
        <time>2021-05-29T08:39:13Z</time>
      </trkpt>
      <trkpt lat="45.04507" lon="5.74033">
        <ele>1351.4</ele>
        <time>2021-05-29T08:39:14Z</time>
      </trkpt>
      <trkpt lat="45.04507" lon="5.74033">
        <ele>1351.2</ele>
        <time>2021-05-29T08:39:15Z</time>
      </trkpt>
      <trkpt lat="45.04506" lon="5.74033">
        <ele>1351.2</ele>
        <time>2021-05-29T08:39:16Z</time>
      </trkpt>
      <trkpt lat="45.04506" lon="5.74033">
        <ele>1351.2</ele>
        <time>2021-05-29T08:39:17Z</time>
      </trkpt>
      <trkpt lat="45.04506" lon="5.74033">
        <ele>1351.2</ele>
        <time>2021-05-29T08:39:18Z</time>
      </trkpt>
      <trkpt lat="45.04505" lon="5.74034">
        <ele>1351.4</ele>
        <time>2021-05-29T08:39:19Z</time>
      </trkpt>
      <trkpt lat="45.04505" lon="5.74034">
        <ele>1351.4</ele>
        <time>2021-05-29T08:39:20Z</time>
      </trkpt>
      <trkpt lat="45.04504" lon="5.74034">
        <ele>1351.4</ele>
        <time>2021-05-29T08:39:21Z</time>
      </trkpt>
      <trkpt lat="45.04504" lon="5.74034">
        <ele>1351.4</ele>
        <time>2021-05-29T08:39:22Z</time>
      </trkpt>
      <trkpt lat="45.04503" lon="5.74034">
        <ele>1351.6</ele>
        <time>2021-05-29T08:39:23Z</time>
      </trkpt>
      <trkpt lat="45.04504" lon="5.74034">
        <ele>1351.6</ele>
        <time>2021-05-29T08:39:24Z</time>
      </trkpt>
      <trkpt lat="45.04504" lon="5.74034">
        <ele>1351.6</ele>
        <time>2021-05-29T08:39:25Z</time>
      </trkpt>
      <trkpt lat="45.04504" lon="5.74035">
        <ele>1351.4</ele>
        <time>2021-05-29T08:39:26Z</time>
      </trkpt>
      <trkpt lat="45.04505" lon="5.74035">
        <ele>1351.4</ele>
        <time>2021-05-29T08:39:27Z</time>
      </trkpt>
      <trkpt lat="45.04505" lon="5.74035">
        <ele>1351.4</ele>
        <time>2021-05-29T08:39:28Z</time>
      </trkpt>
      <trkpt lat="45.04505" lon="5.74035">
        <ele>1351.4</ele>
        <time>2021-05-29T08:39:29Z</time>
      </trkpt>
      <trkpt lat="45.04505" lon="5.74035">
        <ele>1351.2</ele>
        <time>2021-05-29T08:39:30Z</time>
      </trkpt>
      <trkpt lat="45.04506" lon="5.74035">
        <ele>1351.2</ele>
        <time>2021-05-29T08:39:31Z</time>
      </trkpt>
      <trkpt lat="45.04506" lon="5.74035">
        <ele>1351.4</ele>
        <time>2021-05-29T08:39:32Z</time>
      </trkpt>
      <trkpt lat="45.04506" lon="5.74036">
        <ele>1351.4</ele>
        <time>2021-05-29T08:39:33Z</time>
      </trkpt>
      <trkpt lat="45.04506" lon="5.74036">
        <ele>1351.4</ele>
        <time>2021-05-29T08:39:34Z</time>
      </trkpt>
      <trkpt lat="45.04507" lon="5.74036">
        <ele>1351.2</ele>
        <time>2021-05-29T08:39:35Z</time>
      </trkpt>
      <trkpt lat="45.04507" lon="5.74036">
        <ele>1351.2</ele>
        <time>2021-05-29T08:39:36Z</time>
      </trkpt>
      <trkpt lat="45.04507" lon="5.74036">
        <ele>1351.2</ele>
        <time>2021-05-29T08:39:37Z</time>
      </trkpt>
      <trkpt lat="45.04508" lon="5.74036">
        <ele>1351.2</ele>
        <time>2021-05-29T08:39:38Z</time>
      </trkpt>
      <trkpt lat="45.04508" lon="5.74036">
        <ele>1351.2</ele>
        <time>2021-05-29T08:39:39Z</time>
      </trkpt>
      <trkpt lat="45.04508" lon="5.74037">
        <ele>1351.4</ele>
        <time>2021-05-29T08:39:40Z</time>
      </trkpt>
      <trkpt lat="45.04508" lon="5.74037">
        <ele>1351.4</ele>
        <time>2021-05-29T08:39:41Z</time>
      </trkpt>
      <trkpt lat="45.04509" lon="5.74037">
        <ele>1351.4</ele>
        <time>2021-05-29T08:39:42Z</time>
      </trkpt>
      <trkpt lat="45.04509" lon="5.74037">
        <ele>1351.2</ele>
        <time>2021-05-29T08:39:43Z</time>
      </trkpt>
      <trkpt lat="45.04509" lon="5.74037">
        <ele>1351.2</ele>
        <time>2021-05-29T08:39:44Z</time>
      </trkpt>
      <trkpt lat="45.0451" lon="5.74037">
        <ele>1351.2</ele>
        <time>2021-05-29T08:39:45Z</time>
      </trkpt>
      <trkpt lat="45.0451" lon="5.74037">
        <ele>1351.2</ele>
        <time>2021-05-29T08:39:46Z</time>
      </trkpt>
      <trkpt lat="45.0451" lon="5.74038">
        <ele>1351.2</ele>
        <time>2021-05-29T08:39:47Z</time>
      </trkpt>
      <trkpt lat="45.0451" lon="5.74038">
        <ele>1351.2</ele>
        <time>2021-05-29T08:39:48Z</time>
      </trkpt>
      <trkpt lat="45.04511" lon="5.74038">
        <ele>1351.2</ele>
        <time>2021-05-29T08:39:49Z</time>
      </trkpt>
      <trkpt lat="45.04511" lon="5.74038">
        <ele>1351.2</ele>
        <time>2021-05-29T08:39:50Z</time>
      </trkpt>
      <trkpt lat="45.04511" lon="5.74038">
        <ele>1351.4</ele>
        <time>2021-05-29T08:39:51Z</time>
      </trkpt>
      <trkpt lat="45.04511" lon="5.74038">
        <ele>1351.2</ele>
        <time>2021-05-29T08:39:52Z</time>
      </trkpt>
      <trkpt lat="45.04512" lon="5.74038">
        <ele>1351.2</ele>
        <time>2021-05-29T08:39:53Z</time>
      </trkpt>
      <trkpt lat="45.04512" lon="5.74039">
        <ele>1351.4</ele>
        <time>2021-05-29T08:39:54Z</time>
      </trkpt>
      <trkpt lat="45.04512" lon="5.74039">
        <ele>1351.4</ele>
        <time>2021-05-29T08:39:55Z</time>
      </trkpt>
      <trkpt lat="45.04513" lon="5.74039">
        <ele>1351.4</ele>
        <time>2021-05-29T08:39:56Z</time>
      </trkpt>
      <trkpt lat="45.04513" lon="5.74039">
        <ele>1351.4</ele>
        <time>2021-05-29T08:39:57Z</time>
      </trkpt>
      <trkpt lat="45.04513" lon="5.74039">
        <ele>1351.4</ele>
        <time>2021-05-29T08:39:58Z</time>
      </trkpt>
      <trkpt lat="45.04514" lon="5.7404">
        <ele>1351.4</ele>
        <time>2021-05-29T08:40:00Z</time>
      </trkpt>
      <trkpt lat="45.04514" lon="5.74041">
        <ele>1351.4</ele>
        <time>2021-05-29T08:40:01Z</time>
      </trkpt>
      <trkpt lat="45.04515" lon="5.74042">
        <ele>1351.2</ele>
        <time>2021-05-29T08:40:02Z</time>
      </trkpt>
      <trkpt lat="45.04516" lon="5.74043">
        <ele>1351.2</ele>
        <time>2021-05-29T08:40:03Z</time>
      </trkpt>
      <trkpt lat="45.04516" lon="5.74045">
        <ele>1351.2</ele>
        <time>2021-05-29T08:40:04Z</time>
      </trkpt>
      <trkpt lat="45.04517" lon="5.74046">
        <ele>1351.2</ele>
        <time>2021-05-29T08:40:05Z</time>
      </trkpt>
      <trkpt lat="45.04517" lon="5.74047">
        <ele>1351.4</ele>
        <time>2021-05-29T08:40:06Z</time>
      </trkpt>
      <trkpt lat="45.04518" lon="5.74048">
        <ele>1351.2</ele>
        <time>2021-05-29T08:40:07Z</time>
      </trkpt>
      <trkpt lat="45.04518" lon="5.74049">
        <ele>1351.4</ele>
        <time>2021-05-29T08:40:08Z</time>
      </trkpt>
      <trkpt lat="45.04519" lon="5.7405">
        <ele>1351.2</ele>
        <time>2021-05-29T08:40:09Z</time>
      </trkpt>
      <trkpt lat="45.0452" lon="5.74051">
        <ele>1351.2</ele>
        <time>2021-05-29T08:40:10Z</time>
      </trkpt>
      <trkpt lat="45.0452" lon="5.74052">
        <ele>1351.4</ele>
        <time>2021-05-29T08:40:11Z</time>
      </trkpt>
      <trkpt lat="45.0452" lon="5.74052">
        <ele>1351.4</ele>
        <time>2021-05-29T08:40:12Z</time>
      </trkpt>
      <trkpt lat="45.0452" lon="5.74051">
        <ele>1351.4</ele>
        <time>2021-05-29T08:40:13Z</time>
      </trkpt>
      <trkpt lat="45.0452" lon="5.74051">
        <ele>1351.4</ele>
        <time>2021-05-29T08:40:14Z</time>
      </trkpt>
      <trkpt lat="45.0452" lon="5.7405">
        <ele>1351.4</ele>
        <time>2021-05-29T08:40:15Z</time>
      </trkpt>
      <trkpt lat="45.0452" lon="5.7405">
        <ele>1351.4</ele>
        <time>2021-05-29T08:40:16Z</time>
      </trkpt>
      <trkpt lat="45.0452" lon="5.74049">
        <ele>1351.2</ele>
        <time>2021-05-29T08:40:17Z</time>
      </trkpt>
      <trkpt lat="45.0452" lon="5.74049">
        <ele>1351.2</ele>
        <time>2021-05-29T08:40:18Z</time>
      </trkpt>
      <trkpt lat="45.0452" lon="5.74048">
        <ele>1351</ele>
        <time>2021-05-29T08:40:19Z</time>
      </trkpt>
      <trkpt lat="45.0452" lon="5.74047">
        <ele>1351.2</ele>
        <time>2021-05-29T08:40:20Z</time>
      </trkpt>
      <trkpt lat="45.0452" lon="5.74047">
        <ele>1351.2</ele>
        <time>2021-05-29T08:40:21Z</time>
      </trkpt>
      <trkpt lat="45.0452" lon="5.74046">
        <ele>1351.2</ele>
        <time>2021-05-29T08:40:22Z</time>
      </trkpt>
      <trkpt lat="45.0452" lon="5.74046">
        <ele>1351.4</ele>
        <time>2021-05-29T08:40:23Z</time>
      </trkpt>
      <trkpt lat="45.0452" lon="5.74045">
        <ele>1351.2</ele>
        <time>2021-05-29T08:40:24Z</time>
      </trkpt>
      <trkpt lat="45.0452" lon="5.74045">
        <ele>1351.4</ele>
        <time>2021-05-29T08:40:25Z</time>
      </trkpt>
      <trkpt lat="45.0452" lon="5.74044">
        <ele>1351.4</ele>
        <time>2021-05-29T08:40:26Z</time>
      </trkpt>
      <trkpt lat="45.0452" lon="5.74044">
        <ele>1351.2</ele>
        <time>2021-05-29T08:40:27Z</time>
      </trkpt>
      <trkpt lat="45.0452" lon="5.74043">
        <ele>1351.2</ele>
        <time>2021-05-29T08:40:28Z</time>
      </trkpt>
      <trkpt lat="45.0452" lon="5.74043">
        <ele>1351.2</ele>
        <time>2021-05-29T08:40:29Z</time>
      </trkpt>
      <trkpt lat="45.0452" lon="5.74042">
        <ele>1351.2</ele>
        <time>2021-05-29T08:40:30Z</time>
      </trkpt>
      <trkpt lat="45.0452" lon="5.74042">
        <ele>1351.2</ele>
        <time>2021-05-29T08:40:31Z</time>
      </trkpt>
      <trkpt lat="45.0452" lon="5.74041">
        <ele>1351.2</ele>
        <time>2021-05-29T08:40:32Z</time>
      </trkpt>
      <trkpt lat="45.0452" lon="5.74041">
        <ele>1351.2</ele>
        <time>2021-05-29T08:40:33Z</time>
      </trkpt>
      <trkpt lat="45.0452" lon="5.7404">
        <ele>1351.2</ele>
        <time>2021-05-29T08:40:34Z</time>
      </trkpt>
      <trkpt lat="45.0452" lon="5.7404">
        <ele>1351.4</ele>
        <time>2021-05-29T08:40:35Z</time>
      </trkpt>
      <trkpt lat="45.0452" lon="5.74039">
        <ele>1351.4</ele>
        <time>2021-05-29T08:40:36Z</time>
      </trkpt>
      <trkpt lat="45.0452" lon="5.7404">
        <ele>1351.4</ele>
        <time>2021-05-29T08:40:37Z</time>
      </trkpt>
      <trkpt lat="45.0452" lon="5.7404">
        <ele>1351.4</ele>
        <time>2021-05-29T08:40:38Z</time>
      </trkpt>
      <trkpt lat="45.0452" lon="5.7404">
        <ele>1351.4</ele>
        <time>2021-05-29T08:40:39Z</time>
      </trkpt>
      <trkpt lat="45.0452" lon="5.74041">
        <ele>1351.4</ele>
        <time>2021-05-29T08:40:40Z</time>
      </trkpt>
      <trkpt lat="45.0452" lon="5.74041">
        <ele>1351.4</ele>
        <time>2021-05-29T08:40:41Z</time>
      </trkpt>
      <trkpt lat="45.0452" lon="5.74042">
        <ele>1351.4</ele>
        <time>2021-05-29T08:40:42Z</time>
      </trkpt>
      <trkpt lat="45.04521" lon="5.74042">
        <ele>1351.4</ele>
        <time>2021-05-29T08:40:43Z</time>
      </trkpt>
      <trkpt lat="45.04521" lon="5.74042">
        <ele>1351.4</ele>
        <time>2021-05-29T08:40:44Z</time>
      </trkpt>
      <trkpt lat="45.04521" lon="5.74043">
        <ele>1351.4</ele>
        <time>2021-05-29T08:40:45Z</time>
      </trkpt>
      <trkpt lat="45.04521" lon="5.74043">
        <ele>1351.4</ele>
        <time>2021-05-29T08:40:46Z</time>
      </trkpt>
      <trkpt lat="45.04521" lon="5.74044">
        <ele>1351.4</ele>
        <time>2021-05-29T08:40:47Z</time>
      </trkpt>
      <trkpt lat="45.04521" lon="5.74044">
        <ele>1351.2</ele>
        <time>2021-05-29T08:40:48Z</time>
      </trkpt>
      <trkpt lat="45.04521" lon="5.74044">
        <ele>1351.2</ele>
        <time>2021-05-29T08:40:49Z</time>
      </trkpt>
      <trkpt lat="45.04521" lon="5.74045">
        <ele>1351.2</ele>
        <time>2021-05-29T08:40:50Z</time>
      </trkpt>
      <trkpt lat="45.04521" lon="5.74045">
        <ele>1351.4</ele>
        <time>2021-05-29T08:40:51Z</time>
      </trkpt>
      <trkpt lat="45.04521" lon="5.74046">
        <ele>1351.4</ele>
        <time>2021-05-29T08:40:52Z</time>
      </trkpt>
      <trkpt lat="45.04521" lon="5.74046">
        <ele>1351.4</ele>
        <time>2021-05-29T08:40:53Z</time>
      </trkpt>
      <trkpt lat="45.04521" lon="5.74046">
        <ele>1351.4</ele>
        <time>2021-05-29T08:40:54Z</time>
      </trkpt>
      <trkpt lat="45.04521" lon="5.74047">
        <ele>1351.4</ele>
        <time>2021-05-29T08:40:55Z</time>
      </trkpt>
      <trkpt lat="45.04521" lon="5.74047">
        <ele>1351.2</ele>
        <time>2021-05-29T08:40:56Z</time>
      </trkpt>
      <trkpt lat="45.04521" lon="5.74048">
        <ele>1351.4</ele>
        <time>2021-05-29T08:40:57Z</time>
      </trkpt>
      <trkpt lat="45.04521" lon="5.74048">
        <ele>1351.4</ele>
        <time>2021-05-29T08:40:58Z</time>
      </trkpt>
      <trkpt lat="45.04521" lon="5.74048">
        <ele>1351.2</ele>
        <time>2021-05-29T08:40:59Z</time>
      </trkpt>
      <trkpt lat="45.04521" lon="5.74049">
        <ele>1351.4</ele>
        <time>2021-05-29T08:41:00Z</time>
      </trkpt>
      <trkpt lat="45.04521" lon="5.74049">
        <ele>1351.4</ele>
        <time>2021-05-29T08:41:01Z</time>
      </trkpt>
      <trkpt lat="45.04521" lon="5.7405">
        <ele>1351.2</ele>
        <time>2021-05-29T08:41:02Z</time>
      </trkpt>
      <trkpt lat="45.04521" lon="5.7405">
        <ele>1351.2</ele>
        <time>2021-05-29T08:41:03Z</time>
      </trkpt>
      <trkpt lat="45.04521" lon="5.7405">
        <ele>1351.2</ele>
        <time>2021-05-29T08:41:04Z</time>
      </trkpt>
      <trkpt lat="45.04521" lon="5.74051">
        <ele>1351.2</ele>
        <time>2021-05-29T08:41:05Z</time>
      </trkpt>
      <trkpt lat="45.04521" lon="5.74051">
        <ele>1351.2</ele>
        <time>2021-05-29T08:41:06Z</time>
      </trkpt>
      <trkpt lat="45.04521" lon="5.74052">
        <ele>1351.2</ele>
        <time>2021-05-29T08:41:07Z</time>
      </trkpt>
      <trkpt lat="45.04521" lon="5.74052">
        <ele>1351</ele>
        <time>2021-05-29T08:41:08Z</time>
      </trkpt>
      <trkpt lat="45.04521" lon="5.74052">
        <ele>1351</ele>
        <time>2021-05-29T08:41:09Z</time>
      </trkpt>
      <trkpt lat="45.04522" lon="5.74051">
        <ele>1351</ele>
        <time>2021-05-29T08:41:10Z</time>
      </trkpt>
      <trkpt lat="45.04522" lon="5.74051">
        <ele>1351</ele>
        <time>2021-05-29T08:41:11Z</time>
      </trkpt>
      <trkpt lat="45.04522" lon="5.7405">
        <ele>1351</ele>
        <time>2021-05-29T08:41:12Z</time>
      </trkpt>
      <trkpt lat="45.04522" lon="5.7405">
        <ele>1351</ele>
        <time>2021-05-29T08:41:13Z</time>
      </trkpt>
      <trkpt lat="45.04522" lon="5.7405">
        <ele>1351</ele>
        <time>2021-05-29T08:41:14Z</time>
      </trkpt>
      <trkpt lat="45.04522" lon="5.74049">
        <ele>1351</ele>
        <time>2021-05-29T08:41:15Z</time>
      </trkpt>
      <trkpt lat="45.04522" lon="5.74049">
        <ele>1351</ele>
        <time>2021-05-29T08:41:16Z</time>
      </trkpt>
      <trkpt lat="45.04522" lon="5.74048">
        <ele>1351</ele>
        <time>2021-05-29T08:41:17Z</time>
      </trkpt>
      <trkpt lat="45.04522" lon="5.74048">
        <ele>1351.2</ele>
        <time>2021-05-29T08:41:18Z</time>
      </trkpt>
      <trkpt lat="45.04522" lon="5.74048">
        <ele>1351.2</ele>
        <time>2021-05-29T08:41:19Z</time>
      </trkpt>
      <trkpt lat="45.04522" lon="5.74047">
        <ele>1351.2</ele>
        <time>2021-05-29T08:41:20Z</time>
      </trkpt>
      <trkpt lat="45.04522" lon="5.74047">
        <ele>1351.2</ele>
        <time>2021-05-29T08:41:21Z</time>
      </trkpt>
      <trkpt lat="45.04522" lon="5.74046">
        <ele>1351.2</ele>
        <time>2021-05-29T08:41:22Z</time>
      </trkpt>
      <trkpt lat="45.04522" lon="5.74046">
        <ele>1351.2</ele>
        <time>2021-05-29T08:41:23Z</time>
      </trkpt>
      <trkpt lat="45.04522" lon="5.74046">
        <ele>1351.4</ele>
        <time>2021-05-29T08:41:24Z</time>
      </trkpt>
      <trkpt lat="45.04522" lon="5.74045">
        <ele>1351.2</ele>
        <time>2021-05-29T08:41:25Z</time>
      </trkpt>
      <trkpt lat="45.04522" lon="5.74045">
        <ele>1351.2</ele>
        <time>2021-05-29T08:41:26Z</time>
      </trkpt>
      <trkpt lat="45.04522" lon="5.74044">
        <ele>1351.2</ele>
        <time>2021-05-29T08:41:27Z</time>
      </trkpt>
      <trkpt lat="45.04522" lon="5.74044">
        <ele>1351.4</ele>
        <time>2021-05-29T08:41:28Z</time>
      </trkpt>
      <trkpt lat="45.04522" lon="5.74043">
        <ele>1351.4</ele>
        <time>2021-05-29T08:41:29Z</time>
      </trkpt>
      <trkpt lat="45.04522" lon="5.74043">
        <ele>1351.4</ele>
        <time>2021-05-29T08:41:30Z</time>
      </trkpt>
      <trkpt lat="45.04522" lon="5.74043">
        <ele>1351.6</ele>
        <time>2021-05-29T08:41:31Z</time>
      </trkpt>
      <trkpt lat="45.04522" lon="5.74042">
        <ele>1351.4</ele>
        <time>2021-05-29T08:41:32Z</time>
      </trkpt>
      <trkpt lat="45.04522" lon="5.74042">
        <ele>1351.6</ele>
        <time>2021-05-29T08:41:33Z</time>
      </trkpt>
      <trkpt lat="45.04522" lon="5.74041">
        <ele>1351.6</ele>
        <time>2021-05-29T08:41:34Z</time>
      </trkpt>
      <trkpt lat="45.04522" lon="5.74041">
        <ele>1351.4</ele>
        <time>2021-05-29T08:41:35Z</time>
      </trkpt>
      <trkpt lat="45.04523" lon="5.74041">
        <ele>1351.4</ele>
        <time>2021-05-29T08:41:36Z</time>
      </trkpt>
      <trkpt lat="45.04523" lon="5.7404">
        <ele>1351.4</ele>
        <time>2021-05-29T08:41:37Z</time>
      </trkpt>
      <trkpt lat="45.04523" lon="5.7404">
        <ele>1351.4</ele>
        <time>2021-05-29T08:41:38Z</time>
      </trkpt>
      <trkpt lat="45.04523" lon="5.74039">
        <ele>1351.4</ele>
        <time>2021-05-29T08:41:39Z</time>
      </trkpt>
      <trkpt lat="45.04523" lon="5.74039">
        <ele>1351.4</ele>
        <time>2021-05-29T08:41:40Z</time>
      </trkpt>
      <trkpt lat="45.04522" lon="5.74039">
        <ele>1351.4</ele>
        <time>2021-05-29T08:41:41Z</time>
      </trkpt>
      <trkpt lat="45.04522" lon="5.74038">
        <ele>1351.4</ele>
        <time>2021-05-29T08:41:42Z</time>
      </trkpt>
      <trkpt lat="45.04522" lon="5.74038">
        <ele>1351.4</ele>
        <time>2021-05-29T08:41:43Z</time>
      </trkpt>
      <trkpt lat="45.04521" lon="5.74038">
        <ele>1351.6</ele>
        <time>2021-05-29T08:41:44Z</time>
      </trkpt>
      <trkpt lat="45.04521" lon="5.74038">
        <ele>1351.6</ele>
        <time>2021-05-29T08:41:45Z</time>
      </trkpt>
      <trkpt lat="45.0452" lon="5.74037">
        <ele>1351.6</ele>
        <time>2021-05-29T08:41:46Z</time>
      </trkpt>
      <trkpt lat="45.0452" lon="5.74037">
        <ele>1351.6</ele>
        <time>2021-05-29T08:41:47Z</time>
      </trkpt>
      <trkpt lat="45.0452" lon="5.74037">
        <ele>1351.6</ele>
        <time>2021-05-29T08:41:48Z</time>
      </trkpt>
      <trkpt lat="45.04519" lon="5.74036">
        <ele>1351.6</ele>
        <time>2021-05-29T08:41:49Z</time>
      </trkpt>
      <trkpt lat="45.04519" lon="5.74036">
        <ele>1351.4</ele>
        <time>2021-05-29T08:41:50Z</time>
      </trkpt>
      <trkpt lat="45.04518" lon="5.74036">
        <ele>1351.4</ele>
        <time>2021-05-29T08:41:51Z</time>
      </trkpt>
      <trkpt lat="45.04518" lon="5.74035">
        <ele>1351.6</ele>
        <time>2021-05-29T08:41:52Z</time>
      </trkpt>
      <trkpt lat="45.04518" lon="5.74035">
        <ele>1351.6</ele>
        <time>2021-05-29T08:41:53Z</time>
      </trkpt>
      <trkpt lat="45.04517" lon="5.74035">
        <ele>1351.6</ele>
        <time>2021-05-29T08:41:54Z</time>
      </trkpt>
      <trkpt lat="45.04517" lon="5.74034">
        <ele>1351.6</ele>
        <time>2021-05-29T08:41:55Z</time>
      </trkpt>
      <trkpt lat="45.04517" lon="5.74034">
        <ele>1351.4</ele>
        <time>2021-05-29T08:41:56Z</time>
      </trkpt>
      <trkpt lat="45.04516" lon="5.74034">
        <ele>1351.4</ele>
        <time>2021-05-29T08:41:57Z</time>
      </trkpt>
      <trkpt lat="45.04516" lon="5.74034">
        <ele>1351.6</ele>
        <time>2021-05-29T08:41:58Z</time>
      </trkpt>
      <trkpt lat="45.04515" lon="5.74033">
        <ele>1351.4</ele>
        <time>2021-05-29T08:41:59Z</time>
      </trkpt>
      <trkpt lat="45.04515" lon="5.74033">
        <ele>1351.4</ele>
        <time>2021-05-29T08:42:00Z</time>
      </trkpt>
      <trkpt lat="45.04515" lon="5.74033">
        <ele>1351.4</ele>
        <time>2021-05-29T08:42:01Z</time>
      </trkpt>
      <trkpt lat="45.04515" lon="5.74032">
        <ele>1351.4</ele>
        <time>2021-05-29T08:42:02Z</time>
      </trkpt>
      <trkpt lat="45.04515" lon="5.74031">
        <ele>1351.4</ele>
        <time>2021-05-29T08:42:03Z</time>
      </trkpt>
      <trkpt lat="45.04515" lon="5.7403">
        <ele>1351.4</ele>
        <time>2021-05-29T08:42:04Z</time>
      </trkpt>
      <trkpt lat="45.04515" lon="5.74029">
        <ele>1351.4</ele>
        <time>2021-05-29T08:42:05Z</time>
      </trkpt>
      <trkpt lat="45.04515" lon="5.74028">
        <ele>1351.2</ele>
        <time>2021-05-29T08:42:06Z</time>
      </trkpt>
      <trkpt lat="45.04515" lon="5.74027">
        <ele>1351.2</ele>
        <time>2021-05-29T08:42:07Z</time>
      </trkpt>
      <trkpt lat="45.04515" lon="5.74026">
        <ele>1351.2</ele>
        <time>2021-05-29T08:42:08Z</time>
      </trkpt>
      <trkpt lat="45.04515" lon="5.74025">
        <ele>1351.2</ele>
        <time>2021-05-29T08:42:09Z</time>
      </trkpt>
      <trkpt lat="45.04515" lon="5.74024">
        <ele>1351.2</ele>
        <time>2021-05-29T08:42:10Z</time>
      </trkpt>
      <trkpt lat="45.04515" lon="5.74023">
        <ele>1351.2</ele>
        <time>2021-05-29T08:42:11Z</time>
      </trkpt>
      <trkpt lat="45.04515" lon="5.74022">
        <ele>1351</ele>
        <time>2021-05-29T08:42:12Z</time>
      </trkpt>
      <trkpt lat="45.04515" lon="5.74021">
        <ele>1350.8</ele>
        <time>2021-05-29T08:42:13Z</time>
      </trkpt>
      <trkpt lat="45.04516" lon="5.74021">
        <ele>1350.6</ele>
        <time>2021-05-29T08:42:14Z</time>
      </trkpt>
      <trkpt lat="45.04516" lon="5.7402">
        <ele>1350.6</ele>
        <time>2021-05-29T08:42:15Z</time>
      </trkpt>
      <trkpt lat="45.04516" lon="5.74019">
        <ele>1350.4</ele>
        <time>2021-05-29T08:42:16Z</time>
      </trkpt>
      <trkpt lat="45.04516" lon="5.74017">
        <ele>1350.2</ele>
        <time>2021-05-29T08:42:17Z</time>
      </trkpt>
      <trkpt lat="45.04517" lon="5.74015">
        <ele>1350.2</ele>
        <time>2021-05-29T08:42:18Z</time>
      </trkpt>
      <trkpt lat="45.04517" lon="5.74013">
        <ele>1350</ele>
        <time>2021-05-29T08:42:19Z</time>
      </trkpt>
      <trkpt lat="45.04518" lon="5.74011">
        <ele>1349.8</ele>
        <time>2021-05-29T08:42:20Z</time>
      </trkpt>
      <trkpt lat="45.04519" lon="5.7401">
        <ele>1349.6</ele>
        <time>2021-05-29T08:42:21Z</time>
      </trkpt>
      <trkpt lat="45.04519" lon="5.74008">
        <ele>1349.6</ele>
        <time>2021-05-29T08:42:22Z</time>
      </trkpt>
      <trkpt lat="45.0452" lon="5.74006">
        <ele>1349.6</ele>
        <time>2021-05-29T08:42:23Z</time>
      </trkpt>
      <trkpt lat="45.0452" lon="5.74005">
        <ele>1349.4</ele>
        <time>2021-05-29T08:42:24Z</time>
      </trkpt>
      <trkpt lat="45.04519" lon="5.74004">
        <ele>1349.4</ele>
        <time>2021-05-29T08:42:25Z</time>
      </trkpt>
      <trkpt lat="45.04519" lon="5.74004">
        <ele>1349.2</ele>
        <time>2021-05-29T08:42:26Z</time>
      </trkpt>
      <trkpt lat="45.04519" lon="5.74003">
        <ele>1349.2</ele>
        <time>2021-05-29T08:42:27Z</time>
      </trkpt>
      <trkpt lat="45.04518" lon="5.74002">
        <ele>1349.2</ele>
        <time>2021-05-29T08:42:28Z</time>
      </trkpt>
      <trkpt lat="45.04518" lon="5.74001">
        <ele>1349.2</ele>
        <time>2021-05-29T08:42:29Z</time>
      </trkpt>
      <trkpt lat="45.04518" lon="5.74">
        <ele>1349</ele>
        <time>2021-05-29T08:42:30Z</time>
      </trkpt>
      <trkpt lat="45.04518" lon="5.73999">
        <ele>1349</ele>
        <time>2021-05-29T08:42:31Z</time>
      </trkpt>
      <trkpt lat="45.04517" lon="5.73999">
        <ele>1349</ele>
        <time>2021-05-29T08:42:32Z</time>
      </trkpt>
      <trkpt lat="45.04517" lon="5.73998">
        <ele>1349</ele>
        <time>2021-05-29T08:42:33Z</time>
      </trkpt>
      <trkpt lat="45.04517" lon="5.73997">
        <ele>1349</ele>
        <time>2021-05-29T08:42:34Z</time>
      </trkpt>
      <trkpt lat="45.04517" lon="5.73996">
        <ele>1349.2</ele>
        <time>2021-05-29T08:42:35Z</time>
      </trkpt>
      <trkpt lat="45.04516" lon="5.73995">
        <ele>1349.2</ele>
        <time>2021-05-29T08:42:36Z</time>
      </trkpt>
      <trkpt lat="45.04516" lon="5.73994">
        <ele>1349</ele>
        <time>2021-05-29T08:42:37Z</time>
      </trkpt>
      <trkpt lat="45.04516" lon="5.73993">
        <ele>1349.2</ele>
        <time>2021-05-29T08:42:38Z</time>
      </trkpt>
      <trkpt lat="45.04516" lon="5.73992">
        <ele>1349.2</ele>
        <time>2021-05-29T08:42:39Z</time>
      </trkpt>
      <trkpt lat="45.04515" lon="5.73991">
        <ele>1349.2</ele>
        <time>2021-05-29T08:42:40Z</time>
      </trkpt>
      <trkpt lat="45.04515" lon="5.7399">
        <ele>1349</ele>
        <time>2021-05-29T08:42:41Z</time>
      </trkpt>
      <trkpt lat="45.04515" lon="5.73988">
        <ele>1349</ele>
        <time>2021-05-29T08:42:42Z</time>
      </trkpt>
      <trkpt lat="45.04514" lon="5.73987">
        <ele>1348.8</ele>
        <time>2021-05-29T08:42:43Z</time>
      </trkpt>
      <trkpt lat="45.04514" lon="5.73986">
        <ele>1349</ele>
        <time>2021-05-29T08:42:44Z</time>
      </trkpt>
      <trkpt lat="45.04514" lon="5.73985">
        <ele>1349</ele>
        <time>2021-05-29T08:42:45Z</time>
      </trkpt>
      <trkpt lat="45.04514" lon="5.73983">
        <ele>1349</ele>
        <time>2021-05-29T08:42:46Z</time>
      </trkpt>
      <trkpt lat="45.04513" lon="5.73982">
        <ele>1348.8</ele>
        <time>2021-05-29T08:42:47Z</time>
      </trkpt>
      <trkpt lat="45.04513" lon="5.73981">
        <ele>1348.8</ele>
        <time>2021-05-29T08:42:48Z</time>
      </trkpt>
      <trkpt lat="45.04513" lon="5.7398">
        <ele>1348.6</ele>
        <time>2021-05-29T08:42:49Z</time>
      </trkpt>
      <trkpt lat="45.04513" lon="5.73979">
        <ele>1348.4</ele>
        <time>2021-05-29T08:42:50Z</time>
      </trkpt>
      <trkpt lat="45.04512" lon="5.73978">
        <ele>1348.4</ele>
        <time>2021-05-29T08:42:51Z</time>
      </trkpt>
      <trkpt lat="45.04512" lon="5.73976">
        <ele>1348.4</ele>
        <time>2021-05-29T08:42:52Z</time>
      </trkpt>
      <trkpt lat="45.04512" lon="5.73975">
        <ele>1348</ele>
        <time>2021-05-29T08:42:53Z</time>
      </trkpt>
      <trkpt lat="45.04512" lon="5.73974">
        <ele>1347.8</ele>
        <time>2021-05-29T08:42:54Z</time>
      </trkpt>
      <trkpt lat="45.04511" lon="5.73973">
        <ele>1347.8</ele>
        <time>2021-05-29T08:42:55Z</time>
      </trkpt>
      <trkpt lat="45.04511" lon="5.73972">
        <ele>1347.8</ele>
        <time>2021-05-29T08:42:56Z</time>
      </trkpt>
      <trkpt lat="45.04511" lon="5.73971">
        <ele>1347.8</ele>
        <time>2021-05-29T08:42:57Z</time>
      </trkpt>
      <trkpt lat="45.0451" lon="5.7397">
        <ele>1347.8</ele>
        <time>2021-05-29T08:42:58Z</time>
      </trkpt>
      <trkpt lat="45.0451" lon="5.73969">
        <ele>1347.6</ele>
        <time>2021-05-29T08:42:59Z</time>
      </trkpt>
      <trkpt lat="45.04509" lon="5.73967">
        <ele>1347.6</ele>
        <time>2021-05-29T08:43:00Z</time>
      </trkpt>
      <trkpt lat="45.04508" lon="5.73966">
        <ele>1347.4</ele>
        <time>2021-05-29T08:43:01Z</time>
      </trkpt>
      <trkpt lat="45.04507" lon="5.73965">
        <ele>1347.2</ele>
        <time>2021-05-29T08:43:02Z</time>
      </trkpt>
      <trkpt lat="45.04506" lon="5.73964">
        <ele>1347.2</ele>
        <time>2021-05-29T08:43:03Z</time>
      </trkpt>
      <trkpt lat="45.04505" lon="5.73963">
        <ele>1346.8</ele>
        <time>2021-05-29T08:43:04Z</time>
      </trkpt>
      <trkpt lat="45.04504" lon="5.73962">
        <ele>1346.6</ele>
        <time>2021-05-29T08:43:05Z</time>
      </trkpt>
      <trkpt lat="45.04504" lon="5.73961">
        <ele>1346.4</ele>
        <time>2021-05-29T08:43:06Z</time>
      </trkpt>
      <trkpt lat="45.04503" lon="5.7396">
        <ele>1346.2</ele>
        <time>2021-05-29T08:43:07Z</time>
      </trkpt>
      <trkpt lat="45.04502" lon="5.73959">
        <ele>1346.2</ele>
        <time>2021-05-29T08:43:08Z</time>
      </trkpt>
      <trkpt lat="45.04501" lon="5.73958">
        <ele>1346</ele>
        <time>2021-05-29T08:43:09Z</time>
      </trkpt>
      <trkpt lat="45.045" lon="5.73956">
        <ele>1345.8</ele>
        <time>2021-05-29T08:43:10Z</time>
      </trkpt>
      <trkpt lat="45.04499" lon="5.73955">
        <ele>1345.6</ele>
        <time>2021-05-29T08:43:11Z</time>
      </trkpt>
      <trkpt lat="45.04498" lon="5.73954">
        <ele>1345.6</ele>
        <time>2021-05-29T08:43:12Z</time>
      </trkpt>
      <trkpt lat="45.04497" lon="5.73953">
        <ele>1345.4</ele>
        <time>2021-05-29T08:43:13Z</time>
      </trkpt>
      <trkpt lat="45.04496" lon="5.73952">
        <ele>1345.4</ele>
        <time>2021-05-29T08:43:14Z</time>
      </trkpt>
      <trkpt lat="45.04495" lon="5.73951">
        <ele>1345.2</ele>
        <time>2021-05-29T08:43:15Z</time>
      </trkpt>
      <trkpt lat="45.04495" lon="5.73949">
        <ele>1345.2</ele>
        <time>2021-05-29T08:43:16Z</time>
      </trkpt>
      <trkpt lat="45.04494" lon="5.73947">
        <ele>1345.4</ele>
        <time>2021-05-29T08:43:17Z</time>
      </trkpt>
      <trkpt lat="45.04493" lon="5.73945">
        <ele>1345.2</ele>
        <time>2021-05-29T08:43:18Z</time>
      </trkpt>
      <trkpt lat="45.04492" lon="5.73944">
        <ele>1345.2</ele>
        <time>2021-05-29T08:43:19Z</time>
      </trkpt>
      <trkpt lat="45.04491" lon="5.73942">
        <ele>1345.2</ele>
        <time>2021-05-29T08:43:20Z</time>
      </trkpt>
      <trkpt lat="45.04491" lon="5.73941">
        <ele>1345</ele>
        <time>2021-05-29T08:43:21Z</time>
      </trkpt>
      <trkpt lat="45.04491" lon="5.7394">
        <ele>1345</ele>
        <time>2021-05-29T08:43:22Z</time>
      </trkpt>
      <trkpt lat="45.04491" lon="5.73939">
        <ele>1345.2</ele>
        <time>2021-05-29T08:43:23Z</time>
      </trkpt>
      <trkpt lat="45.04491" lon="5.73938">
        <ele>1345.2</ele>
        <time>2021-05-29T08:43:24Z</time>
      </trkpt>
      <trkpt lat="45.04491" lon="5.73937">
        <ele>1345.2</ele>
        <time>2021-05-29T08:43:25Z</time>
      </trkpt>
      <trkpt lat="45.04492" lon="5.73936">
        <ele>1345</ele>
        <time>2021-05-29T08:43:26Z</time>
      </trkpt>
      <trkpt lat="45.04492" lon="5.73934">
        <ele>1345.2</ele>
        <time>2021-05-29T08:43:27Z</time>
      </trkpt>
      <trkpt lat="45.04492" lon="5.73933">
        <ele>1345</ele>
        <time>2021-05-29T08:43:28Z</time>
      </trkpt>
      <trkpt lat="45.04492" lon="5.73932">
        <ele>1345</ele>
        <time>2021-05-29T08:43:29Z</time>
      </trkpt>
      <trkpt lat="45.04492" lon="5.73931">
        <ele>1345</ele>
        <time>2021-05-29T08:43:30Z</time>
      </trkpt>
      <trkpt lat="45.04492" lon="5.7393">
        <ele>1345</ele>
        <time>2021-05-29T08:43:31Z</time>
      </trkpt>
      <trkpt lat="45.04492" lon="5.73929">
        <ele>1345</ele>
        <time>2021-05-29T08:43:32Z</time>
      </trkpt>
      <trkpt lat="45.04492" lon="5.73929">
        <ele>1345</ele>
        <time>2021-05-29T08:43:33Z</time>
      </trkpt>
      <trkpt lat="45.04492" lon="5.73929">
        <ele>1345</ele>
        <time>2021-05-29T08:43:34Z</time>
      </trkpt>
      <trkpt lat="45.04491" lon="5.73929">
        <ele>1345</ele>
        <time>2021-05-29T08:43:35Z</time>
      </trkpt>
      <trkpt lat="45.04491" lon="5.73929">
        <ele>1345.2</ele>
        <time>2021-05-29T08:43:36Z</time>
      </trkpt>
      <trkpt lat="45.04491" lon="5.73928">
        <ele>1345</ele>
        <time>2021-05-29T08:43:37Z</time>
      </trkpt>
      <trkpt lat="45.04491" lon="5.73928">
        <ele>1345</ele>
        <time>2021-05-29T08:43:38Z</time>
      </trkpt>
      <trkpt lat="45.0449" lon="5.73928">
        <ele>1345</ele>
        <time>2021-05-29T08:43:39Z</time>
      </trkpt>
      <trkpt lat="45.0449" lon="5.73928">
        <ele>1345</ele>
        <time>2021-05-29T08:43:40Z</time>
      </trkpt>
      <trkpt lat="45.0449" lon="5.73928">
        <ele>1345</ele>
        <time>2021-05-29T08:43:41Z</time>
      </trkpt>
      <trkpt lat="45.0449" lon="5.73928">
        <ele>1345</ele>
        <time>2021-05-29T08:43:42Z</time>
      </trkpt>
      <trkpt lat="45.04489" lon="5.73928">
        <ele>1344.8</ele>
        <time>2021-05-29T08:43:43Z</time>
      </trkpt>
      <trkpt lat="45.04489" lon="5.73927">
        <ele>1344.8</ele>
        <time>2021-05-29T08:43:44Z</time>
      </trkpt>
      <trkpt lat="45.04489" lon="5.73927">
        <ele>1344.8</ele>
        <time>2021-05-29T08:43:45Z</time>
      </trkpt>
      <trkpt lat="45.04489" lon="5.73927">
        <ele>1344.8</ele>
        <time>2021-05-29T08:43:46Z</time>
      </trkpt>
      <trkpt lat="45.04488" lon="5.73927">
        <ele>1344.8</ele>
        <time>2021-05-29T08:43:47Z</time>
      </trkpt>
      <trkpt lat="45.04488" lon="5.73927">
        <ele>1345</ele>
        <time>2021-05-29T08:43:48Z</time>
      </trkpt>
      <trkpt lat="45.04488" lon="5.73927">
        <ele>1345</ele>
        <time>2021-05-29T08:43:49Z</time>
      </trkpt>
      <trkpt lat="45.04488" lon="5.73926">
        <ele>1344.8</ele>
        <time>2021-05-29T08:43:50Z</time>
      </trkpt>
      <trkpt lat="45.04488" lon="5.73926">
        <ele>1344.8</ele>
        <time>2021-05-29T08:43:51Z</time>
      </trkpt>
      <trkpt lat="45.04487" lon="5.73926">
        <ele>1344.8</ele>
        <time>2021-05-29T08:43:52Z</time>
      </trkpt>
      <trkpt lat="45.04487" lon="5.73926">
        <ele>1344.8</ele>
        <time>2021-05-29T08:43:53Z</time>
      </trkpt>
      <trkpt lat="45.04487" lon="5.73926">
        <ele>1344.8</ele>
        <time>2021-05-29T08:43:54Z</time>
      </trkpt>
      <trkpt lat="45.04487" lon="5.73926">
        <ele>1344.8</ele>
        <time>2021-05-29T08:43:55Z</time>
      </trkpt>
      <trkpt lat="45.04486" lon="5.73926">
        <ele>1344.6</ele>
        <time>2021-05-29T08:43:56Z</time>
      </trkpt>
      <trkpt lat="45.04486" lon="5.73925">
        <ele>1344.8</ele>
        <time>2021-05-29T08:43:57Z</time>
      </trkpt>
      <trkpt lat="45.04486" lon="5.73925">
        <ele>1344.6</ele>
        <time>2021-05-29T08:43:58Z</time>
      </trkpt>
      <trkpt lat="45.04486" lon="5.73925">
        <ele>1344.6</ele>
        <time>2021-05-29T08:43:59Z</time>
      </trkpt>
      <trkpt lat="45.04485" lon="5.73925">
        <ele>1344.6</ele>
        <time>2021-05-29T08:44:00Z</time>
      </trkpt>
      <trkpt lat="45.04485" lon="5.73925">
        <ele>1344.8</ele>
        <time>2021-05-29T08:44:01Z</time>
      </trkpt>
      <trkpt lat="45.04485" lon="5.73925">
        <ele>1344.8</ele>
        <time>2021-05-29T08:44:02Z</time>
      </trkpt>
      <trkpt lat="45.04485" lon="5.73925">
        <ele>1345</ele>
        <time>2021-05-29T08:44:03Z</time>
      </trkpt>
      <trkpt lat="45.04484" lon="5.73924">
        <ele>1345</ele>
        <time>2021-05-29T08:44:04Z</time>
      </trkpt>
      <trkpt lat="45.04484" lon="5.73924">
        <ele>1345</ele>
        <time>2021-05-29T08:44:05Z</time>
      </trkpt>
      <trkpt lat="45.04484" lon="5.73924">
        <ele>1345</ele>
        <time>2021-05-29T08:44:06Z</time>
      </trkpt>
      <trkpt lat="45.04484" lon="5.73924">
        <ele>1345</ele>
        <time>2021-05-29T08:44:07Z</time>
      </trkpt>
      <trkpt lat="45.04484" lon="5.73924">
        <ele>1345</ele>
        <time>2021-05-29T08:44:08Z</time>
      </trkpt>
      <trkpt lat="45.04485" lon="5.73924">
        <ele>1345.2</ele>
        <time>2021-05-29T08:44:09Z</time>
      </trkpt>
      <trkpt lat="45.04485" lon="5.73925">
        <ele>1345.2</ele>
        <time>2021-05-29T08:44:10Z</time>
      </trkpt>
      <trkpt lat="45.04486" lon="5.73925">
        <ele>1345</ele>
        <time>2021-05-29T08:44:11Z</time>
      </trkpt>
      <trkpt lat="45.04486" lon="5.73925">
        <ele>1345</ele>
        <time>2021-05-29T08:44:12Z</time>
      </trkpt>
      <trkpt lat="45.04487" lon="5.73925">
        <ele>1345</ele>
        <time>2021-05-29T08:44:13Z</time>
      </trkpt>
      <trkpt lat="45.04487" lon="5.73926">
        <ele>1345</ele>
        <time>2021-05-29T08:44:14Z</time>
      </trkpt>
      <trkpt lat="45.04488" lon="5.73926">
        <ele>1344.8</ele>
        <time>2021-05-29T08:44:15Z</time>
      </trkpt>
      <trkpt lat="45.04488" lon="5.73926">
        <ele>1344.6</ele>
        <time>2021-05-29T08:44:16Z</time>
      </trkpt>
      <trkpt lat="45.04489" lon="5.73926">
        <ele>1344.6</ele>
        <time>2021-05-29T08:44:17Z</time>
      </trkpt>
      <trkpt lat="45.04489" lon="5.73926">
        <ele>1344.8</ele>
        <time>2021-05-29T08:44:18Z</time>
      </trkpt>
      <trkpt lat="45.0449" lon="5.73927">
        <ele>1344.6</ele>
        <time>2021-05-29T08:44:19Z</time>
      </trkpt>
      <trkpt lat="45.0449" lon="5.73927">
        <ele>1344.4</ele>
        <time>2021-05-29T08:44:20Z</time>
      </trkpt>
      <trkpt lat="45.04491" lon="5.73927">
        <ele>1344.4</ele>
        <time>2021-05-29T08:44:21Z</time>
      </trkpt>
      <trkpt lat="45.04491" lon="5.73927">
        <ele>1344.6</ele>
        <time>2021-05-29T08:44:22Z</time>
      </trkpt>
      <trkpt lat="45.04491" lon="5.73928">
        <ele>1344.6</ele>
        <time>2021-05-29T08:44:23Z</time>
      </trkpt>
      <trkpt lat="45.04492" lon="5.73928">
        <ele>1344.6</ele>
        <time>2021-05-29T08:44:24Z</time>
      </trkpt>
      <trkpt lat="45.04492" lon="5.73928">
        <ele>1344.8</ele>
        <time>2021-05-29T08:44:25Z</time>
      </trkpt>
      <trkpt lat="45.04492" lon="5.73928">
        <ele>1344.8</ele>
        <time>2021-05-29T08:44:26Z</time>
      </trkpt>
      <trkpt lat="45.04492" lon="5.73928">
        <ele>1344.8</ele>
        <time>2021-05-29T08:44:27Z</time>
      </trkpt>
      <trkpt lat="45.04492" lon="5.73928">
        <ele>1344.8</ele>
        <time>2021-05-29T08:44:28Z</time>
      </trkpt>
      <trkpt lat="45.04491" lon="5.73928">
        <ele>1345</ele>
        <time>2021-05-29T08:44:29Z</time>
      </trkpt>
      <trkpt lat="45.04491" lon="5.73928">
        <ele>1345</ele>
        <time>2021-05-29T08:44:30Z</time>
      </trkpt>
      <trkpt lat="45.04491" lon="5.73928">
        <ele>1344.8</ele>
        <time>2021-05-29T08:44:31Z</time>
      </trkpt>
      <trkpt lat="45.04491" lon="5.73928">
        <ele>1345</ele>
        <time>2021-05-29T08:44:32Z</time>
      </trkpt>
      <trkpt lat="45.0449" lon="5.73929">
        <ele>1344.8</ele>
        <time>2021-05-29T08:44:33Z</time>
      </trkpt>
      <trkpt lat="45.0449" lon="5.73929">
        <ele>1344.8</ele>
        <time>2021-05-29T08:44:34Z</time>
      </trkpt>
      <trkpt lat="45.0449" lon="5.73929">
        <ele>1344.8</ele>
        <time>2021-05-29T08:44:35Z</time>
      </trkpt>
      <trkpt lat="45.0449" lon="5.73929">
        <ele>1344.8</ele>
        <time>2021-05-29T08:44:36Z</time>
      </trkpt>
      <trkpt lat="45.04489" lon="5.73929">
        <ele>1345</ele>
        <time>2021-05-29T08:44:37Z</time>
      </trkpt>
      <trkpt lat="45.04489" lon="5.73929">
        <ele>1345</ele>
        <time>2021-05-29T08:44:38Z</time>
      </trkpt>
      <trkpt lat="45.04489" lon="5.73929">
        <ele>1345.4</ele>
        <time>2021-05-29T08:44:39Z</time>
      </trkpt>
      <trkpt lat="45.04489" lon="5.73929">
        <ele>1345.4</ele>
        <time>2021-05-29T08:44:40Z</time>
      </trkpt>
      <trkpt lat="45.04488" lon="5.73929">
        <ele>1345.6</ele>
        <time>2021-05-29T08:44:41Z</time>
      </trkpt>
      <trkpt lat="45.04488" lon="5.73929">
        <ele>1345.4</ele>
        <time>2021-05-29T08:44:42Z</time>
      </trkpt>
      <trkpt lat="45.04488" lon="5.73929">
        <ele>1345.2</ele>
        <time>2021-05-29T08:44:43Z</time>
      </trkpt>
      <trkpt lat="45.04488" lon="5.73929">
        <ele>1345.2</ele>
        <time>2021-05-29T08:44:44Z</time>
      </trkpt>
      <trkpt lat="45.04487" lon="5.73929">
        <ele>1345.2</ele>
        <time>2021-05-29T08:44:45Z</time>
      </trkpt>
      <trkpt lat="45.04487" lon="5.73929">
        <ele>1345.2</ele>
        <time>2021-05-29T08:44:46Z</time>
      </trkpt>
      <trkpt lat="45.04487" lon="5.73929">
        <ele>1345</ele>
        <time>2021-05-29T08:44:47Z</time>
      </trkpt>
      <trkpt lat="45.04486" lon="5.7393">
        <ele>1345</ele>
        <time>2021-05-29T08:44:48Z</time>
      </trkpt>
      <trkpt lat="45.04486" lon="5.7393">
        <ele>1345</ele>
        <time>2021-05-29T08:44:49Z</time>
      </trkpt>
      <trkpt lat="45.04486" lon="5.7393">
        <ele>1345</ele>
        <time>2021-05-29T08:44:50Z</time>
      </trkpt>
      <trkpt lat="45.04486" lon="5.7393">
        <ele>1345.4</ele>
        <time>2021-05-29T08:44:51Z</time>
      </trkpt>
      <trkpt lat="45.04485" lon="5.7393">
        <ele>1345.2</ele>
        <time>2021-05-29T08:44:52Z</time>
      </trkpt>
      <trkpt lat="45.04485" lon="5.7393">
        <ele>1345.2</ele>
        <time>2021-05-29T08:44:53Z</time>
      </trkpt>
      <trkpt lat="45.04485" lon="5.7393">
        <ele>1345.2</ele>
        <time>2021-05-29T08:44:54Z</time>
      </trkpt>
      <trkpt lat="45.04485" lon="5.7393">
        <ele>1345.2</ele>
        <time>2021-05-29T08:44:55Z</time>
      </trkpt>
      <trkpt lat="45.04484" lon="5.7393">
        <ele>1345</ele>
        <time>2021-05-29T08:44:56Z</time>
      </trkpt>
      <trkpt lat="45.04484" lon="5.7393">
        <ele>1344.8</ele>
        <time>2021-05-29T08:44:57Z</time>
      </trkpt>
      <trkpt lat="45.04484" lon="5.7393">
        <ele>1344.8</ele>
        <time>2021-05-29T08:44:58Z</time>
      </trkpt>
      <trkpt lat="45.04484" lon="5.7393">
        <ele>1344.8</ele>
        <time>2021-05-29T08:44:59Z</time>
      </trkpt>
      <trkpt lat="45.04483" lon="5.7393">
        <ele>1344.8</ele>
        <time>2021-05-29T08:45:00Z</time>
      </trkpt>
      <trkpt lat="45.04483" lon="5.7393">
        <ele>1344.8</ele>
        <time>2021-05-29T08:45:01Z</time>
      </trkpt>
      <trkpt lat="45.04483" lon="5.73931">
        <ele>1344.6</ele>
        <time>2021-05-29T08:45:02Z</time>
      </trkpt>
      <trkpt lat="45.04483" lon="5.73931">
        <ele>1344.6</ele>
        <time>2021-05-29T08:45:03Z</time>
      </trkpt>
      <trkpt lat="45.04484" lon="5.73931">
        <ele>1344.6</ele>
        <time>2021-05-29T08:45:04Z</time>
      </trkpt>
      <trkpt lat="45.04484" lon="5.73931">
        <ele>1344.4</ele>
        <time>2021-05-29T08:45:05Z</time>
      </trkpt>
      <trkpt lat="45.04484" lon="5.73931">
        <ele>1344.4</ele>
        <time>2021-05-29T08:45:06Z</time>
      </trkpt>
      <trkpt lat="45.04485" lon="5.73931">
        <ele>1344.4</ele>
        <time>2021-05-29T08:45:07Z</time>
      </trkpt>
      <trkpt lat="45.04485" lon="5.73931">
        <ele>1344.6</ele>
        <time>2021-05-29T08:45:08Z</time>
      </trkpt>
      <trkpt lat="45.04485" lon="5.73932">
        <ele>1344.8</ele>
        <time>2021-05-29T08:45:09Z</time>
      </trkpt>
      <trkpt lat="45.04486" lon="5.73932">
        <ele>1344.8</ele>
        <time>2021-05-29T08:45:10Z</time>
      </trkpt>
      <trkpt lat="45.04486" lon="5.73932">
        <ele>1344.8</ele>
        <time>2021-05-29T08:45:11Z</time>
      </trkpt>
      <trkpt lat="45.04487" lon="5.73932">
        <ele>1344.8</ele>
        <time>2021-05-29T08:45:12Z</time>
      </trkpt>
      <trkpt lat="45.04487" lon="5.73932">
        <ele>1345</ele>
        <time>2021-05-29T08:45:13Z</time>
      </trkpt>
      <trkpt lat="45.04487" lon="5.73932">
        <ele>1345</ele>
        <time>2021-05-29T08:45:14Z</time>
      </trkpt>
      <trkpt lat="45.04488" lon="5.73932">
        <ele>1345</ele>
        <time>2021-05-29T08:45:15Z</time>
      </trkpt>
      <trkpt lat="45.04488" lon="5.73933">
        <ele>1344.8</ele>
        <time>2021-05-29T08:45:16Z</time>
      </trkpt>
      <trkpt lat="45.04488" lon="5.73933">
        <ele>1345</ele>
        <time>2021-05-29T08:45:17Z</time>
      </trkpt>
      <trkpt lat="45.04489" lon="5.73933">
        <ele>1345</ele>
        <time>2021-05-29T08:45:18Z</time>
      </trkpt>
      <trkpt lat="45.04489" lon="5.73933">
        <ele>1345.2</ele>
        <time>2021-05-29T08:45:19Z</time>
      </trkpt>
      <trkpt lat="45.0449" lon="5.73933">
        <ele>1345</ele>
        <time>2021-05-29T08:45:20Z</time>
      </trkpt>
      <trkpt lat="45.0449" lon="5.73933">
        <ele>1345.2</ele>
        <time>2021-05-29T08:45:21Z</time>
      </trkpt>
      <trkpt lat="45.0449" lon="5.73933">
        <ele>1345.2</ele>
        <time>2021-05-29T08:45:22Z</time>
      </trkpt>
      <trkpt lat="45.04491" lon="5.73934">
        <ele>1345.2</ele>
        <time>2021-05-29T08:45:23Z</time>
      </trkpt>
      <trkpt lat="45.04491" lon="5.73934">
        <ele>1345.2</ele>
        <time>2021-05-29T08:45:24Z</time>
      </trkpt>
      <trkpt lat="45.04491" lon="5.73934">
        <ele>1345.2</ele>
        <time>2021-05-29T08:45:25Z</time>
      </trkpt>
      <trkpt lat="45.04492" lon="5.73934">
        <ele>1345.2</ele>
        <time>2021-05-29T08:45:26Z</time>
      </trkpt>
      <trkpt lat="45.04491" lon="5.73934">
        <ele>1345.4</ele>
        <time>2021-05-29T08:45:27Z</time>
      </trkpt>
      <trkpt lat="45.04491" lon="5.73934">
        <ele>1345.2</ele>
        <time>2021-05-29T08:45:28Z</time>
      </trkpt>
      <trkpt lat="45.04491" lon="5.73934">
        <ele>1345.2</ele>
        <time>2021-05-29T08:45:29Z</time>
      </trkpt>
      <trkpt lat="45.0449" lon="5.73934">
        <ele>1345.2</ele>
        <time>2021-05-29T08:45:30Z</time>
      </trkpt>
      <trkpt lat="45.0449" lon="5.73934">
        <ele>1345</ele>
        <time>2021-05-29T08:45:31Z</time>
      </trkpt>
      <trkpt lat="45.04489" lon="5.73934">
        <ele>1345</ele>
        <time>2021-05-29T08:45:32Z</time>
      </trkpt>
      <trkpt lat="45.04489" lon="5.73933">
        <ele>1345</ele>
        <time>2021-05-29T08:45:33Z</time>
      </trkpt>
      <trkpt lat="45.04488" lon="5.73933">
        <ele>1345</ele>
        <time>2021-05-29T08:45:34Z</time>
      </trkpt>
      <trkpt lat="45.04488" lon="5.73933">
        <ele>1344.8</ele>
        <time>2021-05-29T08:45:35Z</time>
      </trkpt>
      <trkpt lat="45.04488" lon="5.73933">
        <ele>1345</ele>
        <time>2021-05-29T08:45:36Z</time>
      </trkpt>
      <trkpt lat="45.04487" lon="5.73933">
        <ele>1344.8</ele>
        <time>2021-05-29T08:45:37Z</time>
      </trkpt>
      <trkpt lat="45.04487" lon="5.73933">
        <ele>1345</ele>
        <time>2021-05-29T08:45:38Z</time>
      </trkpt>
      <trkpt lat="45.04486" lon="5.73933">
        <ele>1345</ele>
        <time>2021-05-29T08:45:39Z</time>
      </trkpt>
      <trkpt lat="45.04486" lon="5.73933">
        <ele>1345.4</ele>
        <time>2021-05-29T08:45:40Z</time>
      </trkpt>
      <trkpt lat="45.04485" lon="5.73933">
        <ele>1345.4</ele>
        <time>2021-05-29T08:45:41Z</time>
      </trkpt>
      <trkpt lat="45.04485" lon="5.73933">
        <ele>1345.4</ele>
        <time>2021-05-29T08:45:42Z</time>
      </trkpt>
      <trkpt lat="45.04485" lon="5.73933">
        <ele>1345.4</ele>
        <time>2021-05-29T08:45:43Z</time>
      </trkpt>
      <trkpt lat="45.04484" lon="5.73932">
        <ele>1345.4</ele>
        <time>2021-05-29T08:45:44Z</time>
      </trkpt>
      <trkpt lat="45.04484" lon="5.73932">
        <ele>1345.4</ele>
        <time>2021-05-29T08:45:45Z</time>
      </trkpt>
      <trkpt lat="45.04483" lon="5.73932">
        <ele>1345.4</ele>
        <time>2021-05-29T08:45:46Z</time>
      </trkpt>
      <trkpt lat="45.04483" lon="5.73932">
        <ele>1345.4</ele>
        <time>2021-05-29T08:45:47Z</time>
      </trkpt>
      <trkpt lat="45.04482" lon="5.73932">
        <ele>1345.4</ele>
        <time>2021-05-29T08:45:48Z</time>
      </trkpt>
      <trkpt lat="45.04483" lon="5.73931">
        <ele>1345.2</ele>
        <time>2021-05-29T08:45:49Z</time>
      </trkpt>
      <trkpt lat="45.04483" lon="5.7393">
        <ele>1345.2</ele>
        <time>2021-05-29T08:45:50Z</time>
      </trkpt>
      <trkpt lat="45.04484" lon="5.7393">
        <ele>1345.2</ele>
        <time>2021-05-29T08:45:51Z</time>
      </trkpt>
      <trkpt lat="45.04484" lon="5.73929">
        <ele>1345</ele>
        <time>2021-05-29T08:45:52Z</time>
      </trkpt>
      <trkpt lat="45.04485" lon="5.73928">
        <ele>1344.8</ele>
        <time>2021-05-29T08:45:53Z</time>
      </trkpt>
      <trkpt lat="45.04485" lon="5.73927">
        <ele>1344.8</ele>
        <time>2021-05-29T08:45:54Z</time>
      </trkpt>
      <trkpt lat="45.04485" lon="5.73926">
        <ele>1344.8</ele>
        <time>2021-05-29T08:45:55Z</time>
      </trkpt>
      <trkpt lat="45.04486" lon="5.73926">
        <ele>1344.8</ele>
        <time>2021-05-29T08:45:56Z</time>
      </trkpt>
      <trkpt lat="45.04486" lon="5.73925">
        <ele>1344.8</ele>
        <time>2021-05-29T08:45:57Z</time>
      </trkpt>
      <trkpt lat="45.04487" lon="5.73924">
        <ele>1344.8</ele>
        <time>2021-05-29T08:45:58Z</time>
      </trkpt>
      <trkpt lat="45.04487" lon="5.73923">
        <ele>1344.8</ele>
        <time>2021-05-29T08:45:59Z</time>
      </trkpt>
      <trkpt lat="45.04488" lon="5.73922">
        <ele>1344.8</ele>
        <time>2021-05-29T08:46:00Z</time>
      </trkpt>
      <trkpt lat="45.04488" lon="5.73922">
        <ele>1344.8</ele>
        <time>2021-05-29T08:46:01Z</time>
      </trkpt>
      <trkpt lat="45.04489" lon="5.73921">
        <ele>1344.8</ele>
        <time>2021-05-29T08:46:02Z</time>
      </trkpt>
      <trkpt lat="45.0449" lon="5.7392">
        <ele>1344.8</ele>
        <time>2021-05-29T08:46:03Z</time>
      </trkpt>
      <trkpt lat="45.04491" lon="5.73919">
        <ele>1344.8</ele>
        <time>2021-05-29T08:46:04Z</time>
      </trkpt>
      <trkpt lat="45.04492" lon="5.73919">
        <ele>1345</ele>
        <time>2021-05-29T08:46:05Z</time>
      </trkpt>
      <trkpt lat="45.04493" lon="5.73918">
        <ele>1345</ele>
        <time>2021-05-29T08:46:06Z</time>
      </trkpt>
      <trkpt lat="45.04494" lon="5.73917">
        <ele>1345.2</ele>
        <time>2021-05-29T08:46:07Z</time>
      </trkpt>
      <trkpt lat="45.04495" lon="5.73916">
        <ele>1345.2</ele>
        <time>2021-05-29T08:46:08Z</time>
      </trkpt>
      <trkpt lat="45.04496" lon="5.73916">
        <ele>1345.4</ele>
        <time>2021-05-29T08:46:09Z</time>
      </trkpt>
      <trkpt lat="45.04497" lon="5.73916">
        <ele>1345.6</ele>
        <time>2021-05-29T08:46:10Z</time>
      </trkpt>
      <trkpt lat="45.04498" lon="5.73915">
        <ele>1345.6</ele>
        <time>2021-05-29T08:46:11Z</time>
      </trkpt>
      <trkpt lat="45.04499" lon="5.73915">
        <ele>1346</ele>
        <time>2021-05-29T08:46:12Z</time>
      </trkpt>
      <trkpt lat="45.04501" lon="5.73915">
        <ele>1346.2</ele>
        <time>2021-05-29T08:46:13Z</time>
      </trkpt>
      <trkpt lat="45.04502" lon="5.73915">
        <ele>1346.2</ele>
        <time>2021-05-29T08:46:14Z</time>
      </trkpt>
      <trkpt lat="45.04503" lon="5.73914">
        <ele>1346</ele>
        <time>2021-05-29T08:46:15Z</time>
      </trkpt>
      <trkpt lat="45.04504" lon="5.73914">
        <ele>1346</ele>
        <time>2021-05-29T08:46:16Z</time>
      </trkpt>
      <trkpt lat="45.04505" lon="5.73914">
        <ele>1346</ele>
        <time>2021-05-29T08:46:17Z</time>
      </trkpt>
      <trkpt lat="45.04506" lon="5.73914">
        <ele>1345.8</ele>
        <time>2021-05-29T08:46:18Z</time>
      </trkpt>
      <trkpt lat="45.04507" lon="5.73914">
        <ele>1346</ele>
        <time>2021-05-29T08:46:19Z</time>
      </trkpt>
      <trkpt lat="45.04508" lon="5.73913">
        <ele>1346</ele>
        <time>2021-05-29T08:46:20Z</time>
      </trkpt>
      <trkpt lat="45.04509" lon="5.73913">
        <ele>1346</ele>
        <time>2021-05-29T08:46:21Z</time>
      </trkpt>
      <trkpt lat="45.04511" lon="5.73913">
        <ele>1346</ele>
        <time>2021-05-29T08:46:22Z</time>
      </trkpt>
      <trkpt lat="45.04512" lon="5.73913">
        <ele>1346</ele>
        <time>2021-05-29T08:46:23Z</time>
      </trkpt>
      <trkpt lat="45.04513" lon="5.73913">
        <ele>1346</ele>
        <time>2021-05-29T08:46:24Z</time>
      </trkpt>
      <trkpt lat="45.04514" lon="5.73913">
        <ele>1346.2</ele>
        <time>2021-05-29T08:46:25Z</time>
      </trkpt>
      <trkpt lat="45.04515" lon="5.73912">
        <ele>1346.4</ele>
        <time>2021-05-29T08:46:26Z</time>
      </trkpt>
      <trkpt lat="45.04516" lon="5.73911">
        <ele>1346.4</ele>
        <time>2021-05-29T08:46:27Z</time>
      </trkpt>
      <trkpt lat="45.04516" lon="5.7391">
        <ele>1346.4</ele>
        <time>2021-05-29T08:46:28Z</time>
      </trkpt>
      <trkpt lat="45.04517" lon="5.73909">
        <ele>1346.4</ele>
        <time>2021-05-29T08:46:29Z</time>
      </trkpt>
      <trkpt lat="45.04518" lon="5.73908">
        <ele>1346.4</ele>
        <time>2021-05-29T08:46:30Z</time>
      </trkpt>
      <trkpt lat="45.04518" lon="5.73907">
        <ele>1346.2</ele>
        <time>2021-05-29T08:46:31Z</time>
      </trkpt>
      <trkpt lat="45.04519" lon="5.73906">
        <ele>1346.2</ele>
        <time>2021-05-29T08:46:32Z</time>
      </trkpt>
      <trkpt lat="45.0452" lon="5.73905">
        <ele>1346</ele>
        <time>2021-05-29T08:46:33Z</time>
      </trkpt>
      <trkpt lat="45.04521" lon="5.73904">
        <ele>1346</ele>
        <time>2021-05-29T08:46:34Z</time>
      </trkpt>
      <trkpt lat="45.04521" lon="5.73903">
        <ele>1346.2</ele>
        <time>2021-05-29T08:46:35Z</time>
      </trkpt>
      <trkpt lat="45.04522" lon="5.73902">
        <ele>1346</ele>
        <time>2021-05-29T08:46:36Z</time>
      </trkpt>
      <trkpt lat="45.04523" lon="5.73901">
        <ele>1346</ele>
        <time>2021-05-29T08:46:37Z</time>
      </trkpt>
      <trkpt lat="45.04524" lon="5.739">
        <ele>1346.2</ele>
        <time>2021-05-29T08:46:38Z</time>
      </trkpt>
      <trkpt lat="45.04525" lon="5.73898">
        <ele>1346</ele>
        <time>2021-05-29T08:46:39Z</time>
      </trkpt>
      <trkpt lat="45.04526" lon="5.73897">
        <ele>1346</ele>
        <time>2021-05-29T08:46:40Z</time>
      </trkpt>
      <trkpt lat="45.04527" lon="5.73896">
        <ele>1346</ele>
        <time>2021-05-29T08:46:41Z</time>
      </trkpt>
      <trkpt lat="45.04528" lon="5.73894">
        <ele>1346</ele>
        <time>2021-05-29T08:46:42Z</time>
      </trkpt>
      <trkpt lat="45.04529" lon="5.73893">
        <ele>1345.8</ele>
        <time>2021-05-29T08:46:43Z</time>
      </trkpt>
      <trkpt lat="45.0453" lon="5.73893">
        <ele>1345.8</ele>
        <time>2021-05-29T08:46:44Z</time>
      </trkpt>
      <trkpt lat="45.04532" lon="5.73892">
        <ele>1345.8</ele>
        <time>2021-05-29T08:46:45Z</time>
      </trkpt>
      <trkpt lat="45.04533" lon="5.73891">
        <ele>1345.8</ele>
        <time>2021-05-29T08:46:46Z</time>
      </trkpt>
      <trkpt lat="45.04534" lon="5.7389">
        <ele>1345.6</ele>
        <time>2021-05-29T08:46:47Z</time>
      </trkpt>
      <trkpt lat="45.04535" lon="5.73889">
        <ele>1345.6</ele>
        <time>2021-05-29T08:46:48Z</time>
      </trkpt>
      <trkpt lat="45.04536" lon="5.73888">
        <ele>1345.6</ele>
        <time>2021-05-29T08:46:49Z</time>
      </trkpt>
      <trkpt lat="45.04537" lon="5.73887">
        <ele>1345.4</ele>
        <time>2021-05-29T08:46:50Z</time>
      </trkpt>
      <trkpt lat="45.04538" lon="5.73887">
        <ele>1345.2</ele>
        <time>2021-05-29T08:46:51Z</time>
      </trkpt>
      <trkpt lat="45.04539" lon="5.73886">
        <ele>1345</ele>
        <time>2021-05-29T08:46:52Z</time>
      </trkpt>
      <trkpt lat="45.04539" lon="5.73885">
        <ele>1345</ele>
        <time>2021-05-29T08:46:53Z</time>
      </trkpt>
      <trkpt lat="45.0454" lon="5.73884">
        <ele>1345</ele>
        <time>2021-05-29T08:46:54Z</time>
      </trkpt>
      <trkpt lat="45.04541" lon="5.73884">
        <ele>1344.8</ele>
        <time>2021-05-29T08:46:55Z</time>
      </trkpt>
      <trkpt lat="45.04542" lon="5.73883">
        <ele>1344.6</ele>
        <time>2021-05-29T08:46:56Z</time>
      </trkpt>
      <trkpt lat="45.04543" lon="5.73882">
        <ele>1344.6</ele>
        <time>2021-05-29T08:46:57Z</time>
      </trkpt>
      <trkpt lat="45.04544" lon="5.73882">
        <ele>1344.4</ele>
        <time>2021-05-29T08:46:58Z</time>
      </trkpt>
      <trkpt lat="45.04545" lon="5.73881">
        <ele>1344.4</ele>
        <time>2021-05-29T08:46:59Z</time>
      </trkpt>
      <trkpt lat="45.04546" lon="5.7388">
        <ele>1344.4</ele>
        <time>2021-05-29T08:47:00Z</time>
      </trkpt>
      <trkpt lat="45.04547" lon="5.73879">
        <ele>1344.2</ele>
        <time>2021-05-29T08:47:01Z</time>
      </trkpt>
      <trkpt lat="45.04548" lon="5.73878">
        <ele>1344</ele>
        <time>2021-05-29T08:47:02Z</time>
      </trkpt>
      <trkpt lat="45.0455" lon="5.73877">
        <ele>1343.8</ele>
        <time>2021-05-29T08:47:03Z</time>
      </trkpt>
      <trkpt lat="45.04551" lon="5.73876">
        <ele>1343.8</ele>
        <time>2021-05-29T08:47:04Z</time>
      </trkpt>
      <trkpt lat="45.04552" lon="5.73875">
        <ele>1343.6</ele>
        <time>2021-05-29T08:47:05Z</time>
      </trkpt>
      <trkpt lat="45.04554" lon="5.73874">
        <ele>1343.6</ele>
        <time>2021-05-29T08:47:06Z</time>
      </trkpt>
      <trkpt lat="45.04555" lon="5.73873">
        <ele>1343.4</ele>
        <time>2021-05-29T08:47:07Z</time>
      </trkpt>
      <trkpt lat="45.04557" lon="5.73872">
        <ele>1343.4</ele>
        <time>2021-05-29T08:47:08Z</time>
      </trkpt>
      <trkpt lat="45.04558" lon="5.73871">
        <ele>1343.2</ele>
        <time>2021-05-29T08:47:09Z</time>
      </trkpt>
      <trkpt lat="45.0456" lon="5.73869">
        <ele>1343.2</ele>
        <time>2021-05-29T08:47:10Z</time>
      </trkpt>
      <trkpt lat="45.04561" lon="5.73868">
        <ele>1343.2</ele>
        <time>2021-05-29T08:47:11Z</time>
      </trkpt>
      <trkpt lat="45.04563" lon="5.73867">
        <ele>1343</ele>
        <time>2021-05-29T08:47:12Z</time>
      </trkpt>
      <trkpt lat="45.04564" lon="5.73865">
        <ele>1342.8</ele>
        <time>2021-05-29T08:47:13Z</time>
      </trkpt>
      <trkpt lat="45.04564" lon="5.73864">
        <ele>1342.6</ele>
        <time>2021-05-29T08:47:14Z</time>
      </trkpt>
      <trkpt lat="45.04565" lon="5.73863">
        <ele>1342.6</ele>
        <time>2021-05-29T08:47:15Z</time>
      </trkpt>
      <trkpt lat="45.04566" lon="5.73862">
        <ele>1342.4</ele>
        <time>2021-05-29T08:47:16Z</time>
      </trkpt>
      <trkpt lat="45.04566" lon="5.7386">
        <ele>1342.2</ele>
        <time>2021-05-29T08:47:17Z</time>
      </trkpt>
      <trkpt lat="45.04567" lon="5.73859">
        <ele>1342.2</ele>
        <time>2021-05-29T08:47:18Z</time>
      </trkpt>
      <trkpt lat="45.04568" lon="5.73858">
        <ele>1342</ele>
        <time>2021-05-29T08:47:19Z</time>
      </trkpt>
      <trkpt lat="45.04568" lon="5.73857">
        <ele>1342</ele>
        <time>2021-05-29T08:47:20Z</time>
      </trkpt>
      <trkpt lat="45.04569" lon="5.73856">
        <ele>1342</ele>
        <time>2021-05-29T08:47:21Z</time>
      </trkpt>
      <trkpt lat="45.0457" lon="5.73854">
        <ele>1341.8</ele>
        <time>2021-05-29T08:47:22Z</time>
      </trkpt>
      <trkpt lat="45.04571" lon="5.73852">
        <ele>1341.6</ele>
        <time>2021-05-29T08:47:23Z</time>
      </trkpt>
      <trkpt lat="45.04572" lon="5.7385">
        <ele>1341.6</ele>
        <time>2021-05-29T08:47:24Z</time>
      </trkpt>
      <trkpt lat="45.04573" lon="5.73848">
        <ele>1341.4</ele>
        <time>2021-05-29T08:47:25Z</time>
      </trkpt>
      <trkpt lat="45.04574" lon="5.73846">
        <ele>1341.2</ele>
        <time>2021-05-29T08:47:26Z</time>
      </trkpt>
      <trkpt lat="45.04575" lon="5.73844">
        <ele>1341.2</ele>
        <time>2021-05-29T08:47:27Z</time>
      </trkpt>
      <trkpt lat="45.04575" lon="5.73842">
        <ele>1341</ele>
        <time>2021-05-29T08:47:28Z</time>
      </trkpt>
      <trkpt lat="45.04576" lon="5.73841">
        <ele>1340.8</ele>
        <time>2021-05-29T08:47:29Z</time>
      </trkpt>
      <trkpt lat="45.04576" lon="5.7384">
        <ele>1340.6</ele>
        <time>2021-05-29T08:47:30Z</time>
      </trkpt>
      <trkpt lat="45.04576" lon="5.73838">
        <ele>1340.6</ele>
        <time>2021-05-29T08:47:31Z</time>
      </trkpt>
      <trkpt lat="45.04577" lon="5.73837">
        <ele>1340.6</ele>
        <time>2021-05-29T08:47:32Z</time>
      </trkpt>
      <trkpt lat="45.04577" lon="5.73836">
        <ele>1340.4</ele>
        <time>2021-05-29T08:47:33Z</time>
      </trkpt>
      <trkpt lat="45.04578" lon="5.73835">
        <ele>1340.2</ele>
        <time>2021-05-29T08:47:34Z</time>
      </trkpt>
      <trkpt lat="45.04578" lon="5.73833">
        <ele>1340.6</ele>
        <time>2021-05-29T08:47:35Z</time>
      </trkpt>
      <trkpt lat="45.04579" lon="5.73832">
        <ele>1340.6</ele>
        <time>2021-05-29T08:47:36Z</time>
      </trkpt>
      <trkpt lat="45.04579" lon="5.73831">
        <ele>1340.6</ele>
        <time>2021-05-29T08:47:37Z</time>
      </trkpt>
      <trkpt lat="45.0458" lon="5.73829">
        <ele>1340.6</ele>
        <time>2021-05-29T08:47:38Z</time>
      </trkpt>
      <trkpt lat="45.0458" lon="5.73828">
        <ele>1340.4</ele>
        <time>2021-05-29T08:47:39Z</time>
      </trkpt>
      <trkpt lat="45.04581" lon="5.73827">
        <ele>1340.4</ele>
        <time>2021-05-29T08:47:40Z</time>
      </trkpt>
      <trkpt lat="45.04582" lon="5.73825">
        <ele>1340</ele>
        <time>2021-05-29T08:47:41Z</time>
      </trkpt>
      <trkpt lat="45.04582" lon="5.73824">
        <ele>1339.4</ele>
        <time>2021-05-29T08:47:42Z</time>
      </trkpt>
      <trkpt lat="45.04583" lon="5.73823">
        <ele>1339.4</ele>
        <time>2021-05-29T08:47:43Z</time>
      </trkpt>
      <trkpt lat="45.04583" lon="5.73821">
        <ele>1339.4</ele>
        <time>2021-05-29T08:47:44Z</time>
      </trkpt>
      <trkpt lat="45.04584" lon="5.7382">
        <ele>1339</ele>
        <time>2021-05-29T08:47:45Z</time>
      </trkpt>
      <trkpt lat="45.04586" lon="5.73818">
        <ele>1338.8</ele>
        <time>2021-05-29T08:47:46Z</time>
      </trkpt>
      <trkpt lat="45.04587" lon="5.73816">
        <ele>1338.6</ele>
        <time>2021-05-29T08:47:47Z</time>
      </trkpt>
      <trkpt lat="45.04589" lon="5.73814">
        <ele>1338.2</ele>
        <time>2021-05-29T08:47:48Z</time>
      </trkpt>
      <trkpt lat="45.04591" lon="5.73812">
        <ele>1337.6</ele>
        <time>2021-05-29T08:47:49Z</time>
      </trkpt>
      <trkpt lat="45.04592" lon="5.7381">
        <ele>1336.8</ele>
        <time>2021-05-29T08:47:50Z</time>
      </trkpt>
      <trkpt lat="45.04593" lon="5.73808">
        <ele>1336.8</ele>
        <time>2021-05-29T08:47:51Z</time>
      </trkpt>
      <trkpt lat="45.04594" lon="5.73806">
        <ele>1336.6</ele>
        <time>2021-05-29T08:47:52Z</time>
      </trkpt>
      <trkpt lat="45.04595" lon="5.73805">
        <ele>1336.2</ele>
        <time>2021-05-29T08:47:53Z</time>
      </trkpt>
      <trkpt lat="45.04596" lon="5.73803">
        <ele>1335.8</ele>
        <time>2021-05-29T08:47:54Z</time>
      </trkpt>
      <trkpt lat="45.04596" lon="5.73801">
        <ele>1335.4</ele>
        <time>2021-05-29T08:47:55Z</time>
      </trkpt>
      <trkpt lat="45.04597" lon="5.73799">
        <ele>1335.2</ele>
        <time>2021-05-29T08:47:56Z</time>
      </trkpt>
      <trkpt lat="45.04598" lon="5.73797">
        <ele>1335.4</ele>
        <time>2021-05-29T08:47:57Z</time>
      </trkpt>
      <trkpt lat="45.04599" lon="5.73793">
        <ele>1334.8</ele>
        <time>2021-05-29T08:47:58Z</time>
      </trkpt>
      <trkpt lat="45.046" lon="5.73791">
        <ele>1334.8</ele>
        <time>2021-05-29T08:47:59Z</time>
      </trkpt>
      <trkpt lat="45.04601" lon="5.73789">
        <ele>1334</ele>
        <time>2021-05-29T08:48:00Z</time>
      </trkpt>
      <trkpt lat="45.04602" lon="5.73787">
        <ele>1334.2</ele>
        <time>2021-05-29T08:48:01Z</time>
      </trkpt>
      <trkpt lat="45.04602" lon="5.73785">
        <ele>1333.6</ele>
        <time>2021-05-29T08:48:02Z</time>
      </trkpt>
      <trkpt lat="45.04603" lon="5.73783">
        <ele>1333.4</ele>
        <time>2021-05-29T08:48:03Z</time>
      </trkpt>
      <trkpt lat="45.04604" lon="5.73781">
        <ele>1332.6</ele>
        <time>2021-05-29T08:48:04Z</time>
      </trkpt>
      <trkpt lat="45.04604" lon="5.73779">
        <ele>1332.8</ele>
        <time>2021-05-29T08:48:05Z</time>
      </trkpt>
      <trkpt lat="45.04605" lon="5.73777">
        <ele>1332.4</ele>
        <time>2021-05-29T08:48:06Z</time>
      </trkpt>
      <trkpt lat="45.04606" lon="5.73775">
        <ele>1332.2</ele>
        <time>2021-05-29T08:48:07Z</time>
      </trkpt>
      <trkpt lat="45.04606" lon="5.73773">
        <ele>1332</ele>
        <time>2021-05-29T08:48:08Z</time>
      </trkpt>
      <trkpt lat="45.04607" lon="5.73771">
        <ele>1331.4</ele>
        <time>2021-05-29T08:48:09Z</time>
      </trkpt>
      <trkpt lat="45.04608" lon="5.7377">
        <ele>1331.2</ele>
        <time>2021-05-29T08:48:10Z</time>
      </trkpt>
      <trkpt lat="45.04609" lon="5.73768">
        <ele>1330.8</ele>
        <time>2021-05-29T08:48:11Z</time>
      </trkpt>
      <trkpt lat="45.04609" lon="5.73766">
        <ele>1330.4</ele>
        <time>2021-05-29T08:48:12Z</time>
      </trkpt>
      <trkpt lat="45.0461" lon="5.73764">
        <ele>1330.2</ele>
        <time>2021-05-29T08:48:13Z</time>
      </trkpt>
      <trkpt lat="45.04611" lon="5.73762">
        <ele>1329.6</ele>
        <time>2021-05-29T08:48:14Z</time>
      </trkpt>
      <trkpt lat="45.04611" lon="5.7376">
        <ele>1328.6</ele>
        <time>2021-05-29T08:48:15Z</time>
      </trkpt>
      <trkpt lat="45.04612" lon="5.73758">
        <ele>1328.2</ele>
        <time>2021-05-29T08:48:16Z</time>
      </trkpt>
      <trkpt lat="45.04613" lon="5.73756">
        <ele>1328</ele>
        <time>2021-05-29T08:48:17Z</time>
      </trkpt>
      <trkpt lat="45.04613" lon="5.73754">
        <ele>1327.2</ele>
        <time>2021-05-29T08:48:18Z</time>
      </trkpt>
      <trkpt lat="45.04614" lon="5.73752">
        <ele>1327</ele>
        <time>2021-05-29T08:48:19Z</time>
      </trkpt>
      <trkpt lat="45.04615" lon="5.7375">
        <ele>1326.8</ele>
        <time>2021-05-29T08:48:20Z</time>
      </trkpt>
      <trkpt lat="45.04615" lon="5.73748">
        <ele>1325.6</ele>
        <time>2021-05-29T08:48:21Z</time>
      </trkpt>
      <trkpt lat="45.04616" lon="5.73747">
        <ele>1325.4</ele>
        <time>2021-05-29T08:48:22Z</time>
      </trkpt>
      <trkpt lat="45.04617" lon="5.73745">
        <ele>1325.4</ele>
        <time>2021-05-29T08:48:23Z</time>
      </trkpt>
      <trkpt lat="45.04618" lon="5.73743">
        <ele>1324.6</ele>
        <time>2021-05-29T08:48:24Z</time>
      </trkpt>
      <trkpt lat="45.04618" lon="5.73741">
        <ele>1324.2</ele>
        <time>2021-05-29T08:48:25Z</time>
      </trkpt>
      <trkpt lat="45.04619" lon="5.73739">
        <ele>1324</ele>
        <time>2021-05-29T08:48:26Z</time>
      </trkpt>
      <trkpt lat="45.0462" lon="5.73737">
        <ele>1323.4</ele>
        <time>2021-05-29T08:48:27Z</time>
      </trkpt>
      <trkpt lat="45.0462" lon="5.73735">
        <ele>1323</ele>
        <time>2021-05-29T08:48:28Z</time>
      </trkpt>
      <trkpt lat="45.04621" lon="5.73733">
        <ele>1322.6</ele>
        <time>2021-05-29T08:48:29Z</time>
      </trkpt>
      <trkpt lat="45.04622" lon="5.73731">
        <ele>1322</ele>
        <time>2021-05-29T08:48:30Z</time>
      </trkpt>
      <trkpt lat="45.04622" lon="5.73729">
        <ele>1321.8</ele>
        <time>2021-05-29T08:48:31Z</time>
      </trkpt>
      <trkpt lat="45.04623" lon="5.73727">
        <ele>1321.4</ele>
        <time>2021-05-29T08:48:32Z</time>
      </trkpt>
      <trkpt lat="45.04624" lon="5.73726">
        <ele>1321.2</ele>
        <time>2021-05-29T08:48:33Z</time>
      </trkpt>
      <trkpt lat="45.04625" lon="5.73724">
        <ele>1321</ele>
        <time>2021-05-29T08:48:34Z</time>
      </trkpt>
      <trkpt lat="45.04625" lon="5.73722">
        <ele>1320</ele>
        <time>2021-05-29T08:48:35Z</time>
      </trkpt>
      <trkpt lat="45.04626" lon="5.7372">
        <ele>1319.8</ele>
        <time>2021-05-29T08:48:36Z</time>
      </trkpt>
      <trkpt lat="45.04627" lon="5.73718">
        <ele>1319.4</ele>
        <time>2021-05-29T08:48:37Z</time>
      </trkpt>
      <trkpt lat="45.04628" lon="5.73711">
        <ele>1318.6</ele>
        <time>2021-05-29T08:48:38Z</time>
      </trkpt>
      <trkpt lat="45.0463" lon="5.73704">
        <ele>1318.2</ele>
        <time>2021-05-29T08:48:39Z</time>
      </trkpt>
      <trkpt lat="45.04632" lon="5.73696">
        <ele>1317.4</ele>
        <time>2021-05-29T08:48:40Z</time>
      </trkpt>
      <trkpt lat="45.04633" lon="5.73683">
        <ele>1317</ele>
        <time>2021-05-29T08:48:41Z</time>
      </trkpt>
      <trkpt lat="45.04634" lon="5.73679">
        <ele>1316.6</ele>
        <time>2021-05-29T08:48:42Z</time>
      </trkpt>
      <trkpt lat="45.04635" lon="5.73673">
        <ele>1316.2</ele>
        <time>2021-05-29T08:48:43Z</time>
      </trkpt>
      <trkpt lat="45.04635" lon="5.73673">
        <ele>1316.4</ele>
        <time>2021-05-29T08:48:44Z</time>
      </trkpt>
      <trkpt lat="45.04635" lon="5.73673">
        <ele>1316</ele>
        <time>2021-05-29T08:48:45Z</time>
      </trkpt>
      <trkpt lat="45.04636" lon="5.73671">
        <ele>1316</ele>
        <time>2021-05-29T08:48:46Z</time>
      </trkpt>
      <trkpt lat="45.04637" lon="5.73668">
        <ele>1316</ele>
        <time>2021-05-29T08:48:47Z</time>
      </trkpt>
      <trkpt lat="45.04638" lon="5.73666">
        <ele>1315.8</ele>
        <time>2021-05-29T08:48:48Z</time>
      </trkpt>
      <trkpt lat="45.04639" lon="5.73664">
        <ele>1315.8</ele>
        <time>2021-05-29T08:48:49Z</time>
      </trkpt>
      <trkpt lat="45.0464" lon="5.73661">
        <ele>1315.8</ele>
        <time>2021-05-29T08:48:50Z</time>
      </trkpt>
      <trkpt lat="45.04641" lon="5.73662">
        <ele>1315.8</ele>
        <time>2021-05-29T08:48:51Z</time>
      </trkpt>
      <trkpt lat="45.04642" lon="5.73663">
        <ele>1315.8</ele>
        <time>2021-05-29T08:48:52Z</time>
      </trkpt>
      <trkpt lat="45.04643" lon="5.73664">
        <ele>1315.8</ele>
        <time>2021-05-29T08:48:53Z</time>
      </trkpt>
      <trkpt lat="45.04644" lon="5.73665">
        <ele>1315.6</ele>
        <time>2021-05-29T08:48:54Z</time>
      </trkpt>
      <trkpt lat="45.04645" lon="5.73666">
        <ele>1315.6</ele>
        <time>2021-05-29T08:48:55Z</time>
      </trkpt>
      <trkpt lat="45.04646" lon="5.73666">
        <ele>1315.4</ele>
        <time>2021-05-29T08:48:56Z</time>
      </trkpt>
      <trkpt lat="45.04646" lon="5.73667">
        <ele>1315.2</ele>
        <time>2021-05-29T08:48:57Z</time>
      </trkpt>
      <trkpt lat="45.04647" lon="5.73668">
        <ele>1315</ele>
        <time>2021-05-29T08:48:58Z</time>
      </trkpt>
      <trkpt lat="45.04648" lon="5.73668">
        <ele>1315</ele>
        <time>2021-05-29T08:48:59Z</time>
      </trkpt>
      <trkpt lat="45.04649" lon="5.73669">
        <ele>1314.8</ele>
        <time>2021-05-29T08:49:00Z</time>
      </trkpt>
      <trkpt lat="45.0465" lon="5.73669">
        <ele>1314.6</ele>
        <time>2021-05-29T08:49:01Z</time>
      </trkpt>
      <trkpt lat="45.04651" lon="5.7367">
        <ele>1314.4</ele>
        <time>2021-05-29T08:49:02Z</time>
      </trkpt>
      <trkpt lat="45.04652" lon="5.7367">
        <ele>1314.2</ele>
        <time>2021-05-29T08:49:03Z</time>
      </trkpt>
      <trkpt lat="45.04653" lon="5.73671">
        <ele>1314.2</ele>
        <time>2021-05-29T08:49:04Z</time>
      </trkpt>
      <trkpt lat="45.04654" lon="5.73671">
        <ele>1313.8</ele>
        <time>2021-05-29T08:49:05Z</time>
      </trkpt>
      <trkpt lat="45.04655" lon="5.73671">
        <ele>1313.6</ele>
        <time>2021-05-29T08:49:06Z</time>
      </trkpt>
      <trkpt lat="45.04656" lon="5.73672">
        <ele>1313.4</ele>
        <time>2021-05-29T08:49:07Z</time>
      </trkpt>
      <trkpt lat="45.04658" lon="5.73672">
        <ele>1313</ele>
        <time>2021-05-29T08:49:08Z</time>
      </trkpt>
      <trkpt lat="45.0466" lon="5.73673">
        <ele>1313.2</ele>
        <time>2021-05-29T08:49:09Z</time>
      </trkpt>
      <trkpt lat="45.04663" lon="5.73673">
        <ele>1313.2</ele>
        <time>2021-05-29T08:49:10Z</time>
      </trkpt>
      <trkpt lat="45.04665" lon="5.73674">
        <ele>1313.4</ele>
        <time>2021-05-29T08:49:11Z</time>
      </trkpt>
      <trkpt lat="45.04667" lon="5.73674">
        <ele>1313</ele>
        <time>2021-05-29T08:49:12Z</time>
      </trkpt>
      <trkpt lat="45.04669" lon="5.73675">
        <ele>1312.8</ele>
        <time>2021-05-29T08:49:13Z</time>
      </trkpt>
      <trkpt lat="45.04671" lon="5.73675">
        <ele>1312.2</ele>
        <time>2021-05-29T08:49:14Z</time>
      </trkpt>
      <trkpt lat="45.04673" lon="5.73676">
        <ele>1311.8</ele>
        <time>2021-05-29T08:49:15Z</time>
      </trkpt>
      <trkpt lat="45.04675" lon="5.73676">
        <ele>1311.4</ele>
        <time>2021-05-29T08:49:16Z</time>
      </trkpt>
      <trkpt lat="45.04677" lon="5.73676">
        <ele>1311.2</ele>
        <time>2021-05-29T08:49:17Z</time>
      </trkpt>
      <trkpt lat="45.0468" lon="5.73677">
        <ele>1311</ele>
        <time>2021-05-29T08:49:18Z</time>
      </trkpt>
      <trkpt lat="45.04683" lon="5.73678">
        <ele>1310.8</ele>
        <time>2021-05-29T08:49:19Z</time>
      </trkpt>
      <trkpt lat="45.04686" lon="5.73678">
        <ele>1310.6</ele>
        <time>2021-05-29T08:49:20Z</time>
      </trkpt>
      <trkpt lat="45.04689" lon="5.73679">
        <ele>1310.2</ele>
        <time>2021-05-29T08:49:21Z</time>
      </trkpt>
      <trkpt lat="45.04691" lon="5.73679">
        <ele>1309.8</ele>
        <time>2021-05-29T08:49:22Z</time>
      </trkpt>
      <trkpt lat="45.04693" lon="5.73679">
        <ele>1309</ele>
        <time>2021-05-29T08:49:23Z</time>
      </trkpt>
      <trkpt lat="45.04695" lon="5.7368">
        <ele>1308.2</ele>
        <time>2021-05-29T08:49:24Z</time>
      </trkpt>
      <trkpt lat="45.04697" lon="5.7368">
        <ele>1308.4</ele>
        <time>2021-05-29T08:49:25Z</time>
      </trkpt>
      <trkpt lat="45.04699" lon="5.7368">
        <ele>1307.8</ele>
        <time>2021-05-29T08:49:26Z</time>
      </trkpt>
      <trkpt lat="45.04701" lon="5.7368">
        <ele>1307.8</ele>
        <time>2021-05-29T08:49:27Z</time>
      </trkpt>
      <trkpt lat="45.04704" lon="5.73679">
        <ele>1307</ele>
        <time>2021-05-29T08:49:28Z</time>
      </trkpt>
      <trkpt lat="45.04707" lon="5.73679">
        <ele>1307</ele>
        <time>2021-05-29T08:49:29Z</time>
      </trkpt>
      <trkpt lat="45.0471" lon="5.73678">
        <ele>1307.4</ele>
        <time>2021-05-29T08:49:30Z</time>
      </trkpt>
      <trkpt lat="45.04712" lon="5.73679">
        <ele>1306</ele>
        <time>2021-05-29T08:49:31Z</time>
      </trkpt>
      <trkpt lat="45.04714" lon="5.73681">
        <ele>1306</ele>
        <time>2021-05-29T08:49:32Z</time>
      </trkpt>
      <trkpt lat="45.04717" lon="5.73682">
        <ele>1305.6</ele>
        <time>2021-05-29T08:49:33Z</time>
      </trkpt>
      <trkpt lat="45.04719" lon="5.73683">
        <ele>1305.6</ele>
        <time>2021-05-29T08:49:34Z</time>
      </trkpt>
      <trkpt lat="45.04721" lon="5.73684">
        <ele>1305.2</ele>
        <time>2021-05-29T08:49:35Z</time>
      </trkpt>
      <trkpt lat="45.04724" lon="5.73684">
        <ele>1304.8</ele>
        <time>2021-05-29T08:49:36Z</time>
      </trkpt>
      <trkpt lat="45.04726" lon="5.73685">
        <ele>1304</ele>
        <time>2021-05-29T08:49:37Z</time>
      </trkpt>
      <trkpt lat="45.04728" lon="5.73685">
        <ele>1303.2</ele>
        <time>2021-05-29T08:49:38Z</time>
      </trkpt>
      <trkpt lat="45.0473" lon="5.73686">
        <ele>1303.2</ele>
        <time>2021-05-29T08:49:39Z</time>
      </trkpt>
      <trkpt lat="45.04734" lon="5.73688">
        <ele>1302.8</ele>
        <time>2021-05-29T08:49:40Z</time>
      </trkpt>
      <trkpt lat="45.04737" lon="5.73691">
        <ele>1302.6</ele>
        <time>2021-05-29T08:49:41Z</time>
      </trkpt>
      <trkpt lat="45.04741" lon="5.73694">
        <ele>1302</ele>
        <time>2021-05-29T08:49:42Z</time>
      </trkpt>
      <trkpt lat="45.04745" lon="5.73697">
        <ele>1301.2</ele>
        <time>2021-05-29T08:49:43Z</time>
      </trkpt>
      <trkpt lat="45.04748" lon="5.73699">
        <ele>1300.2</ele>
        <time>2021-05-29T08:49:44Z</time>
      </trkpt>
      <trkpt lat="45.04752" lon="5.73702">
        <ele>1299.8</ele>
        <time>2021-05-29T08:49:45Z</time>
      </trkpt>
      <trkpt lat="45.04755" lon="5.73705">
        <ele>1299.6</ele>
        <time>2021-05-29T08:49:46Z</time>
      </trkpt>
      <trkpt lat="45.04759" lon="5.73708">
        <ele>1299.2</ele>
        <time>2021-05-29T08:49:47Z</time>
      </trkpt>
      <trkpt lat="45.04763" lon="5.73711">
        <ele>1299</ele>
        <time>2021-05-29T08:49:48Z</time>
      </trkpt>
      <trkpt lat="45.04765" lon="5.73711">
        <ele>1298.6</ele>
        <time>2021-05-29T08:49:49Z</time>
      </trkpt>
      <trkpt lat="45.04767" lon="5.73711">
        <ele>1297.8</ele>
        <time>2021-05-29T08:49:50Z</time>
      </trkpt>
      <trkpt lat="45.0477" lon="5.73711">
        <ele>1297.4</ele>
        <time>2021-05-29T08:49:51Z</time>
      </trkpt>
      <trkpt lat="45.04772" lon="5.73711">
        <ele>1297</ele>
        <time>2021-05-29T08:49:52Z</time>
      </trkpt>
      <trkpt lat="45.04775" lon="5.73711">
        <ele>1297</ele>
        <time>2021-05-29T08:49:53Z</time>
      </trkpt>
      <trkpt lat="45.04777" lon="5.73712">
        <ele>1296.8</ele>
        <time>2021-05-29T08:49:54Z</time>
      </trkpt>
      <trkpt lat="45.04779" lon="5.73712">
        <ele>1296.6</ele>
        <time>2021-05-29T08:49:55Z</time>
      </trkpt>
      <trkpt lat="45.04782" lon="5.73713">
        <ele>1296.2</ele>
        <time>2021-05-29T08:49:56Z</time>
      </trkpt>
      <trkpt lat="45.04784" lon="5.73713">
        <ele>1295.4</ele>
        <time>2021-05-29T08:49:57Z</time>
      </trkpt>
      <trkpt lat="45.04794" lon="5.73712">
        <ele>1294.6</ele>
        <time>2021-05-29T08:49:58Z</time>
      </trkpt>
      <trkpt lat="45.04794" lon="5.73712">
        <ele>1294.4</ele>
        <time>2021-05-29T08:50:00Z</time>
      </trkpt>
      <trkpt lat="45.04796" lon="5.73712">
        <ele>1293.8</ele>
        <time>2021-05-29T08:50:01Z</time>
      </trkpt>
      <trkpt lat="45.04798" lon="5.73712">
        <ele>1293.6</ele>
        <time>2021-05-29T08:50:02Z</time>
      </trkpt>
      <trkpt lat="45.048" lon="5.73712">
        <ele>1293</ele>
        <time>2021-05-29T08:50:03Z</time>
      </trkpt>
      <trkpt lat="45.04802" lon="5.73712">
        <ele>1292.6</ele>
        <time>2021-05-29T08:50:04Z</time>
      </trkpt>
      <trkpt lat="45.04804" lon="5.73712">
        <ele>1292.4</ele>
        <time>2021-05-29T08:50:05Z</time>
      </trkpt>
      <trkpt lat="45.04807" lon="5.73712">
        <ele>1292</ele>
        <time>2021-05-29T08:50:06Z</time>
      </trkpt>
      <trkpt lat="45.04809" lon="5.73712">
        <ele>1291.8</ele>
        <time>2021-05-29T08:50:07Z</time>
      </trkpt>
      <trkpt lat="45.04811" lon="5.73711">
        <ele>1291</ele>
        <time>2021-05-29T08:50:08Z</time>
      </trkpt>
      <trkpt lat="45.04814" lon="5.73711">
        <ele>1290.4</ele>
        <time>2021-05-29T08:50:09Z</time>
      </trkpt>
      <trkpt lat="45.04816" lon="5.73711">
        <ele>1290.4</ele>
        <time>2021-05-29T08:50:10Z</time>
      </trkpt>
      <trkpt lat="45.04819" lon="5.7371">
        <ele>1290</ele>
        <time>2021-05-29T08:50:11Z</time>
      </trkpt>
      <trkpt lat="45.04822" lon="5.7371">
        <ele>1290</ele>
        <time>2021-05-29T08:50:12Z</time>
      </trkpt>
      <trkpt lat="45.04825" lon="5.73709">
        <ele>1289.6</ele>
        <time>2021-05-29T08:50:13Z</time>
      </trkpt>
      <trkpt lat="45.04827" lon="5.73709">
        <ele>1289.2</ele>
        <time>2021-05-29T08:50:14Z</time>
      </trkpt>
      <trkpt lat="45.04829" lon="5.7371">
        <ele>1288.6</ele>
        <time>2021-05-29T08:50:15Z</time>
      </trkpt>
      <trkpt lat="45.04832" lon="5.7371">
        <ele>1288</ele>
        <time>2021-05-29T08:50:16Z</time>
      </trkpt>
      <trkpt lat="45.04834" lon="5.7371">
        <ele>1287.2</ele>
        <time>2021-05-29T08:50:17Z</time>
      </trkpt>
      <trkpt lat="45.04838" lon="5.73711">
        <ele>1286.8</ele>
        <time>2021-05-29T08:50:18Z</time>
      </trkpt>
      <trkpt lat="45.04842" lon="5.73712">
        <ele>1286.8</ele>
        <time>2021-05-29T08:50:19Z</time>
      </trkpt>
      <trkpt lat="45.04847" lon="5.73712">
        <ele>1286.4</ele>
        <time>2021-05-29T08:50:20Z</time>
      </trkpt>
      <trkpt lat="45.04851" lon="5.73713">
        <ele>1286</ele>
        <time>2021-05-29T08:50:21Z</time>
      </trkpt>
      <trkpt lat="45.04856" lon="5.73715">
        <ele>1285.4</ele>
        <time>2021-05-29T08:50:22Z</time>
      </trkpt>
      <trkpt lat="45.04856" lon="5.73715">
        <ele>1284.6</ele>
        <time>2021-05-29T08:50:23Z</time>
      </trkpt>
      <trkpt lat="45.04856" lon="5.73715">
        <ele>1284.6</ele>
        <time>2021-05-29T08:50:24Z</time>
      </trkpt>
      <trkpt lat="45.04859" lon="5.73715">
        <ele>1284.2</ele>
        <time>2021-05-29T08:50:25Z</time>
      </trkpt>
      <trkpt lat="45.04862" lon="5.73715">
        <ele>1284</ele>
        <time>2021-05-29T08:50:26Z</time>
      </trkpt>
      <trkpt lat="45.04864" lon="5.73716">
        <ele>1283.4</ele>
        <time>2021-05-29T08:50:27Z</time>
      </trkpt>
      <trkpt lat="45.04867" lon="5.73716">
        <ele>1282.8</ele>
        <time>2021-05-29T08:50:28Z</time>
      </trkpt>
      <trkpt lat="45.04869" lon="5.73716">
        <ele>1282.2</ele>
        <time>2021-05-29T08:50:29Z</time>
      </trkpt>
      <trkpt lat="45.04871" lon="5.73716">
        <ele>1281.4</ele>
        <time>2021-05-29T08:50:30Z</time>
      </trkpt>
      <trkpt lat="45.04873" lon="5.73716">
        <ele>1281.2</ele>
        <time>2021-05-29T08:50:31Z</time>
      </trkpt>
      <trkpt lat="45.04875" lon="5.73716">
        <ele>1280.8</ele>
        <time>2021-05-29T08:50:32Z</time>
      </trkpt>
      <trkpt lat="45.04877" lon="5.73715">
        <ele>1280.6</ele>
        <time>2021-05-29T08:50:33Z</time>
      </trkpt>
      <trkpt lat="45.0488" lon="5.73715">
        <ele>1279.8</ele>
        <time>2021-05-29T08:50:34Z</time>
      </trkpt>
      <trkpt lat="45.04882" lon="5.73714">
        <ele>1279</ele>
        <time>2021-05-29T08:50:35Z</time>
      </trkpt>
      <trkpt lat="45.04885" lon="5.73713">
        <ele>1279</ele>
        <time>2021-05-29T08:50:36Z</time>
      </trkpt>
      <trkpt lat="45.04887" lon="5.73713">
        <ele>1278.6</ele>
        <time>2021-05-29T08:50:37Z</time>
      </trkpt>
      <trkpt lat="45.04897" lon="5.7371">
        <ele>1278.4</ele>
        <time>2021-05-29T08:50:38Z</time>
      </trkpt>
      <trkpt lat="45.04897" lon="5.7371">
        <ele>1278</ele>
        <time>2021-05-29T08:50:39Z</time>
      </trkpt>
      <trkpt lat="45.04897" lon="5.7371">
        <ele>1277.6</ele>
        <time>2021-05-29T08:50:40Z</time>
      </trkpt>
      <trkpt lat="45.04899" lon="5.73708">
        <ele>1277.4</ele>
        <time>2021-05-29T08:50:41Z</time>
      </trkpt>
      <trkpt lat="45.04901" lon="5.73707">
        <ele>1276.8</ele>
        <time>2021-05-29T08:50:42Z</time>
      </trkpt>
      <trkpt lat="45.04904" lon="5.73706">
        <ele>1276.8</ele>
        <time>2021-05-29T08:50:43Z</time>
      </trkpt>
      <trkpt lat="45.04906" lon="5.73705">
        <ele>1276.4</ele>
        <time>2021-05-29T08:50:44Z</time>
      </trkpt>
      <trkpt lat="45.04908" lon="5.73703">
        <ele>1276</ele>
        <time>2021-05-29T08:50:45Z</time>
      </trkpt>
      <trkpt lat="45.0491" lon="5.73702">
        <ele>1275.2</ele>
        <time>2021-05-29T08:50:46Z</time>
      </trkpt>
      <trkpt lat="45.04912" lon="5.73701">
        <ele>1274.4</ele>
        <time>2021-05-29T08:50:47Z</time>
      </trkpt>
      <trkpt lat="45.04913" lon="5.737">
        <ele>1274.4</ele>
        <time>2021-05-29T08:50:48Z</time>
      </trkpt>
      <trkpt lat="45.04915" lon="5.73699">
        <ele>1274</ele>
        <time>2021-05-29T08:50:49Z</time>
      </trkpt>
      <trkpt lat="45.04917" lon="5.73698">
        <ele>1273.6</ele>
        <time>2021-05-29T08:50:50Z</time>
      </trkpt>
      <trkpt lat="45.04919" lon="5.73696">
        <ele>1272.8</ele>
        <time>2021-05-29T08:50:51Z</time>
      </trkpt>
      <trkpt lat="45.04922" lon="5.73694">
        <ele>1272.4</ele>
        <time>2021-05-29T08:50:52Z</time>
      </trkpt>
      <trkpt lat="45.04924" lon="5.73692">
        <ele>1271.8</ele>
        <time>2021-05-29T08:50:53Z</time>
      </trkpt>
      <trkpt lat="45.04926" lon="5.7369">
        <ele>1271</ele>
        <time>2021-05-29T08:50:54Z</time>
      </trkpt>
      <trkpt lat="45.04928" lon="5.73689">
        <ele>1271.2</ele>
        <time>2021-05-29T08:50:55Z</time>
      </trkpt>
      <trkpt lat="45.0493" lon="5.73687">
        <ele>1271</ele>
        <time>2021-05-29T08:50:56Z</time>
      </trkpt>
      <trkpt lat="45.04932" lon="5.73685">
        <ele>1271.2</ele>
        <time>2021-05-29T08:50:57Z</time>
      </trkpt>
      <trkpt lat="45.04935" lon="5.73683">
        <ele>1270.8</ele>
        <time>2021-05-29T08:50:58Z</time>
      </trkpt>
      <trkpt lat="45.04937" lon="5.73683">
        <ele>1270.6</ele>
        <time>2021-05-29T08:50:59Z</time>
      </trkpt>
      <trkpt lat="45.0494" lon="5.73682">
        <ele>1270.4</ele>
        <time>2021-05-29T08:51:00Z</time>
      </trkpt>
      <trkpt lat="45.04942" lon="5.73682">
        <ele>1270</ele>
        <time>2021-05-29T08:51:01Z</time>
      </trkpt>
      <trkpt lat="45.04944" lon="5.73681">
        <ele>1270</ele>
        <time>2021-05-29T08:51:02Z</time>
      </trkpt>
      <trkpt lat="45.04946" lon="5.7368">
        <ele>1270</ele>
        <time>2021-05-29T08:51:03Z</time>
      </trkpt>
      <trkpt lat="45.04948" lon="5.7368">
        <ele>1270.2</ele>
        <time>2021-05-29T08:51:04Z</time>
      </trkpt>
      <trkpt lat="45.0495" lon="5.73679">
        <ele>1270</ele>
        <time>2021-05-29T08:51:05Z</time>
      </trkpt>
      <trkpt lat="45.04951" lon="5.73678">
        <ele>1270</ele>
        <time>2021-05-29T08:51:06Z</time>
      </trkpt>
      <trkpt lat="45.04951" lon="5.73678">
        <ele>1270.2</ele>
        <time>2021-05-29T08:51:07Z</time>
      </trkpt>
      <trkpt lat="45.04952" lon="5.73678">
        <ele>1270.2</ele>
        <time>2021-05-29T08:51:08Z</time>
      </trkpt>
      <trkpt lat="45.04952" lon="5.73678">
        <ele>1270.2</ele>
        <time>2021-05-29T08:51:09Z</time>
      </trkpt>
      <trkpt lat="45.04952" lon="5.73679">
        <ele>1270</ele>
        <time>2021-05-29T08:51:10Z</time>
      </trkpt>
      <trkpt lat="45.04952" lon="5.73679">
        <ele>1269.8</ele>
        <time>2021-05-29T08:51:11Z</time>
      </trkpt>
      <trkpt lat="45.04952" lon="5.73679">
        <ele>1269.6</ele>
        <time>2021-05-29T08:51:12Z</time>
      </trkpt>
      <trkpt lat="45.04952" lon="5.73679">
        <ele>1269.4</ele>
        <time>2021-05-29T08:51:13Z</time>
      </trkpt>
      <trkpt lat="45.04952" lon="5.73679">
        <ele>1269.4</ele>
        <time>2021-05-29T08:51:14Z</time>
      </trkpt>
      <trkpt lat="45.04953" lon="5.73679">
        <ele>1269.4</ele>
        <time>2021-05-29T08:51:15Z</time>
      </trkpt>
      <trkpt lat="45.04953" lon="5.73679">
        <ele>1269.6</ele>
        <time>2021-05-29T08:51:16Z</time>
      </trkpt>
      <trkpt lat="45.04953" lon="5.73679">
        <ele>1269.4</ele>
        <time>2021-05-29T08:51:17Z</time>
      </trkpt>
      <trkpt lat="45.04953" lon="5.7368">
        <ele>1269.4</ele>
        <time>2021-05-29T08:51:18Z</time>
      </trkpt>
      <trkpt lat="45.04953" lon="5.7368">
        <ele>1269.4</ele>
        <time>2021-05-29T08:51:19Z</time>
      </trkpt>
      <trkpt lat="45.04953" lon="5.7368">
        <ele>1269.4</ele>
        <time>2021-05-29T08:51:20Z</time>
      </trkpt>
      <trkpt lat="45.04953" lon="5.7368">
        <ele>1269.6</ele>
        <time>2021-05-29T08:51:21Z</time>
      </trkpt>
      <trkpt lat="45.04954" lon="5.7368">
        <ele>1269.4</ele>
        <time>2021-05-29T08:51:22Z</time>
      </trkpt>
      <trkpt lat="45.04954" lon="5.7368">
        <ele>1269.6</ele>
        <time>2021-05-29T08:51:23Z</time>
      </trkpt>
      <trkpt lat="45.04954" lon="5.7368">
        <ele>1269.4</ele>
        <time>2021-05-29T08:51:24Z</time>
      </trkpt>
      <trkpt lat="45.04954" lon="5.7368">
        <ele>1269.6</ele>
        <time>2021-05-29T08:51:25Z</time>
      </trkpt>
      <trkpt lat="45.04954" lon="5.73681">
        <ele>1269.4</ele>
        <time>2021-05-29T08:51:26Z</time>
      </trkpt>
      <trkpt lat="45.04954" lon="5.73681">
        <ele>1269.4</ele>
        <time>2021-05-29T08:51:27Z</time>
      </trkpt>
      <trkpt lat="45.04954" lon="5.73681">
        <ele>1269.4</ele>
        <time>2021-05-29T08:51:28Z</time>
      </trkpt>
      <trkpt lat="45.04955" lon="5.73681">
        <ele>1269.4</ele>
        <time>2021-05-29T08:51:29Z</time>
      </trkpt>
      <trkpt lat="45.04955" lon="5.73681">
        <ele>1269.6</ele>
        <time>2021-05-29T08:51:30Z</time>
      </trkpt>
      <trkpt lat="45.04955" lon="5.73681">
        <ele>1269.6</ele>
        <time>2021-05-29T08:51:31Z</time>
      </trkpt>
      <trkpt lat="45.04955" lon="5.73681">
        <ele>1269.8</ele>
        <time>2021-05-29T08:51:32Z</time>
      </trkpt>
      <trkpt lat="45.04955" lon="5.73681">
        <ele>1269.8</ele>
        <time>2021-05-29T08:51:33Z</time>
      </trkpt>
      <trkpt lat="45.04955" lon="5.73682">
        <ele>1269.8</ele>
        <time>2021-05-29T08:51:34Z</time>
      </trkpt>
      <trkpt lat="45.04955" lon="5.73682">
        <ele>1269.8</ele>
        <time>2021-05-29T08:51:35Z</time>
      </trkpt>
      <trkpt lat="45.04956" lon="5.73682">
        <ele>1269.8</ele>
        <time>2021-05-29T08:51:36Z</time>
      </trkpt>
      <trkpt lat="45.04956" lon="5.73682">
        <ele>1269.8</ele>
        <time>2021-05-29T08:51:37Z</time>
      </trkpt>
      <trkpt lat="45.04956" lon="5.73682">
        <ele>1269.8</ele>
        <time>2021-05-29T08:51:38Z</time>
      </trkpt>
      <trkpt lat="45.04956" lon="5.73682">
        <ele>1270</ele>
        <time>2021-05-29T08:51:39Z</time>
      </trkpt>
      <trkpt lat="45.04956" lon="5.73682">
        <ele>1270.2</ele>
        <time>2021-05-29T08:51:40Z</time>
      </trkpt>
      <trkpt lat="45.04956" lon="5.73682">
        <ele>1270.4</ele>
        <time>2021-05-29T08:51:41Z</time>
      </trkpt>
      <trkpt lat="45.04957" lon="5.73683">
        <ele>1270.2</ele>
        <time>2021-05-29T08:51:42Z</time>
      </trkpt>
      <trkpt lat="45.04957" lon="5.73683">
        <ele>1270.6</ele>
        <time>2021-05-29T08:51:43Z</time>
      </trkpt>
      <trkpt lat="45.04957" lon="5.73683">
        <ele>1270.6</ele>
        <time>2021-05-29T08:51:44Z</time>
      </trkpt>
      <trkpt lat="45.04958" lon="5.73683">
        <ele>1270.6</ele>
        <time>2021-05-29T08:51:45Z</time>
      </trkpt>
      <trkpt lat="45.04958" lon="5.73683">
        <ele>1270.8</ele>
        <time>2021-05-29T08:51:46Z</time>
      </trkpt>
      <trkpt lat="45.04958" lon="5.73683">
        <ele>1270.8</ele>
        <time>2021-05-29T08:51:47Z</time>
      </trkpt>
      <trkpt lat="45.04959" lon="5.73683">
        <ele>1271</ele>
        <time>2021-05-29T08:51:48Z</time>
      </trkpt>
      <trkpt lat="45.04959" lon="5.73683">
        <ele>1270.6</ele>
        <time>2021-05-29T08:51:49Z</time>
      </trkpt>
      <trkpt lat="45.04959" lon="5.73683">
        <ele>1270.4</ele>
        <time>2021-05-29T08:51:50Z</time>
      </trkpt>
      <trkpt lat="45.0496" lon="5.73683">
        <ele>1270.2</ele>
        <time>2021-05-29T08:51:51Z</time>
      </trkpt>
      <trkpt lat="45.0496" lon="5.73683">
        <ele>1270</ele>
        <time>2021-05-29T08:51:52Z</time>
      </trkpt>
      <trkpt lat="45.0496" lon="5.73683">
        <ele>1270</ele>
        <time>2021-05-29T08:51:53Z</time>
      </trkpt>
      <trkpt lat="45.04961" lon="5.73684">
        <ele>1270</ele>
        <time>2021-05-29T08:51:54Z</time>
      </trkpt>
      <trkpt lat="45.04961" lon="5.73684">
        <ele>1270</ele>
        <time>2021-05-29T08:51:55Z</time>
      </trkpt>
      <trkpt lat="45.04962" lon="5.73684">
        <ele>1270</ele>
        <time>2021-05-29T08:51:56Z</time>
      </trkpt>
      <trkpt lat="45.04962" lon="5.73684">
        <ele>1270</ele>
        <time>2021-05-29T08:51:57Z</time>
      </trkpt>
      <trkpt lat="45.04962" lon="5.73684">
        <ele>1270</ele>
        <time>2021-05-29T08:51:58Z</time>
      </trkpt>
      <trkpt lat="45.04963" lon="5.73684">
        <ele>1270</ele>
        <time>2021-05-29T08:51:59Z</time>
      </trkpt>
      <trkpt lat="45.04963" lon="5.73684">
        <ele>1269.8</ele>
        <time>2021-05-29T08:52:00Z</time>
      </trkpt>
      <trkpt lat="45.04963" lon="5.73684">
        <ele>1269.8</ele>
        <time>2021-05-29T08:52:01Z</time>
      </trkpt>
      <trkpt lat="45.04964" lon="5.73684">
        <ele>1269.8</ele>
        <time>2021-05-29T08:52:02Z</time>
      </trkpt>
      <trkpt lat="45.04964" lon="5.73684">
        <ele>1269.6</ele>
        <time>2021-05-29T08:52:03Z</time>
      </trkpt>
      <trkpt lat="45.04964" lon="5.73684">
        <ele>1269.6</ele>
        <time>2021-05-29T08:52:04Z</time>
      </trkpt>
      <trkpt lat="45.04965" lon="5.73684">
        <ele>1269.8</ele>
        <time>2021-05-29T08:52:05Z</time>
      </trkpt>
      <trkpt lat="45.04965" lon="5.73685">
        <ele>1269.8</ele>
        <time>2021-05-29T08:52:06Z</time>
      </trkpt>
      <trkpt lat="45.04965" lon="5.73685">
        <ele>1269.6</ele>
        <time>2021-05-29T08:52:07Z</time>
      </trkpt>
      <trkpt lat="45.04966" lon="5.73685">
        <ele>1269.6</ele>
        <time>2021-05-29T08:52:08Z</time>
      </trkpt>
      <trkpt lat="45.04966" lon="5.73685">
        <ele>1269.6</ele>
        <time>2021-05-29T08:52:09Z</time>
      </trkpt>
      <trkpt lat="45.04967" lon="5.73685">
        <ele>1269.6</ele>
        <time>2021-05-29T08:52:10Z</time>
      </trkpt>
      <trkpt lat="45.04968" lon="5.73685">
        <ele>1269.4</ele>
        <time>2021-05-29T08:52:11Z</time>
      </trkpt>
      <trkpt lat="45.04968" lon="5.73685">
        <ele>1269.4</ele>
        <time>2021-05-29T08:52:12Z</time>
      </trkpt>
      <trkpt lat="45.04969" lon="5.73685">
        <ele>1269.4</ele>
        <time>2021-05-29T08:52:13Z</time>
      </trkpt>
      <trkpt lat="45.04969" lon="5.73685">
        <ele>1269.4</ele>
        <time>2021-05-29T08:52:14Z</time>
      </trkpt>
      <trkpt lat="45.0497" lon="5.73685">
        <ele>1269.4</ele>
        <time>2021-05-29T08:52:15Z</time>
      </trkpt>
      <trkpt lat="45.0497" lon="5.73685">
        <ele>1269.2</ele>
        <time>2021-05-29T08:52:16Z</time>
      </trkpt>
      <trkpt lat="45.04971" lon="5.73685">
        <ele>1269.2</ele>
        <time>2021-05-29T08:52:17Z</time>
      </trkpt>
      <trkpt lat="45.04971" lon="5.73685">
        <ele>1269</ele>
        <time>2021-05-29T08:52:18Z</time>
      </trkpt>
      <trkpt lat="45.04972" lon="5.73685">
        <ele>1269</ele>
        <time>2021-05-29T08:52:19Z</time>
      </trkpt>
      <trkpt lat="45.04973" lon="5.73685">
        <ele>1269.2</ele>
        <time>2021-05-29T08:52:20Z</time>
      </trkpt>
      <trkpt lat="45.04973" lon="5.73685">
        <ele>1269.2</ele>
        <time>2021-05-29T08:52:21Z</time>
      </trkpt>
      <trkpt lat="45.04974" lon="5.73685">
        <ele>1269.4</ele>
        <time>2021-05-29T08:52:22Z</time>
      </trkpt>
      <trkpt lat="45.04974" lon="5.73685">
        <ele>1269.4</ele>
        <time>2021-05-29T08:52:23Z</time>
      </trkpt>
      <trkpt lat="45.04975" lon="5.73685">
        <ele>1269.2</ele>
        <time>2021-05-29T08:52:24Z</time>
      </trkpt>
      <trkpt lat="45.04977" lon="5.73684">
        <ele>1269.2</ele>
        <time>2021-05-29T08:52:25Z</time>
      </trkpt>
      <trkpt lat="45.04979" lon="5.73683">
        <ele>1269</ele>
        <time>2021-05-29T08:52:26Z</time>
      </trkpt>
      <trkpt lat="45.04981" lon="5.73682">
        <ele>1269</ele>
        <time>2021-05-29T08:52:27Z</time>
      </trkpt>
      <trkpt lat="45.04983" lon="5.73681">
        <ele>1269</ele>
        <time>2021-05-29T08:52:28Z</time>
      </trkpt>
      <trkpt lat="45.04985" lon="5.7368">
        <ele>1268.8</ele>
        <time>2021-05-29T08:52:29Z</time>
      </trkpt>
      <trkpt lat="45.04988" lon="5.73679">
        <ele>1268.8</ele>
        <time>2021-05-29T08:52:30Z</time>
      </trkpt>
      <trkpt lat="45.0499" lon="5.73678">
        <ele>1268.8</ele>
        <time>2021-05-29T08:52:31Z</time>
      </trkpt>
      <trkpt lat="45.04993" lon="5.73677">
        <ele>1268.8</ele>
        <time>2021-05-29T08:52:32Z</time>
      </trkpt>
      <trkpt lat="45.04995" lon="5.73677">
        <ele>1268.6</ele>
        <time>2021-05-29T08:52:33Z</time>
      </trkpt>
      <trkpt lat="45.04998" lon="5.73676">
        <ele>1268.6</ele>
        <time>2021-05-29T08:52:34Z</time>
      </trkpt>
      <trkpt lat="45.05" lon="5.73675">
        <ele>1268.6</ele>
        <time>2021-05-29T08:52:35Z</time>
      </trkpt>
      <trkpt lat="45.05002" lon="5.73674">
        <ele>1268.8</ele>
        <time>2021-05-29T08:52:36Z</time>
      </trkpt>
      <trkpt lat="45.05004" lon="5.73673">
        <ele>1269</ele>
        <time>2021-05-29T08:52:37Z</time>
      </trkpt>
      <trkpt lat="45.05006" lon="5.73673">
        <ele>1269.2</ele>
        <time>2021-05-29T08:52:38Z</time>
      </trkpt>
      <trkpt lat="45.05008" lon="5.73672">
        <ele>1269.4</ele>
        <time>2021-05-29T08:52:39Z</time>
      </trkpt>
      <trkpt lat="45.05009" lon="5.73671">
        <ele>1269.8</ele>
        <time>2021-05-29T08:52:40Z</time>
      </trkpt>
      <trkpt lat="45.0501" lon="5.7367">
        <ele>1269.8</ele>
        <time>2021-05-29T08:52:41Z</time>
      </trkpt>
      <trkpt lat="45.05011" lon="5.73669">
        <ele>1270.2</ele>
        <time>2021-05-29T08:52:42Z</time>
      </trkpt>
      <trkpt lat="45.05013" lon="5.73669">
        <ele>1270</ele>
        <time>2021-05-29T08:52:43Z</time>
      </trkpt>
      <trkpt lat="45.05014" lon="5.73668">
        <ele>1270.2</ele>
        <time>2021-05-29T08:52:44Z</time>
      </trkpt>
      <trkpt lat="45.05015" lon="5.73667">
        <ele>1270</ele>
        <time>2021-05-29T08:52:45Z</time>
      </trkpt>
      <trkpt lat="45.05016" lon="5.73666">
        <ele>1270</ele>
        <time>2021-05-29T08:52:46Z</time>
      </trkpt>
      <trkpt lat="45.05017" lon="5.73666">
        <ele>1269.8</ele>
        <time>2021-05-29T08:52:47Z</time>
      </trkpt>
      <trkpt lat="45.05019" lon="5.73666">
        <ele>1270</ele>
        <time>2021-05-29T08:52:48Z</time>
      </trkpt>
      <trkpt lat="45.05021" lon="5.73666">
        <ele>1270</ele>
        <time>2021-05-29T08:52:49Z</time>
      </trkpt>
      <trkpt lat="45.05023" lon="5.73666">
        <ele>1270.4</ele>
        <time>2021-05-29T08:52:50Z</time>
      </trkpt>
      <trkpt lat="45.05025" lon="5.73666">
        <ele>1270.2</ele>
        <time>2021-05-29T08:52:51Z</time>
      </trkpt>
      <trkpt lat="45.05027" lon="5.73667">
        <ele>1270.6</ele>
        <time>2021-05-29T08:52:52Z</time>
      </trkpt>
      <trkpt lat="45.05029" lon="5.73667">
        <ele>1270.2</ele>
        <time>2021-05-29T08:52:53Z</time>
      </trkpt>
      <trkpt lat="45.05031" lon="5.73667">
        <ele>1270.4</ele>
        <time>2021-05-29T08:52:54Z</time>
      </trkpt>
      <trkpt lat="45.05034" lon="5.73666">
        <ele>1270.2</ele>
        <time>2021-05-29T08:52:55Z</time>
      </trkpt>
      <trkpt lat="45.05036" lon="5.73666">
        <ele>1270.2</ele>
        <time>2021-05-29T08:52:56Z</time>
      </trkpt>
      <trkpt lat="45.05039" lon="5.73665">
        <ele>1269.8</ele>
        <time>2021-05-29T08:52:57Z</time>
      </trkpt>
      <trkpt lat="45.0504" lon="5.73665">
        <ele>1270</ele>
        <time>2021-05-29T08:52:58Z</time>
      </trkpt>
      <trkpt lat="45.05041" lon="5.73665">
        <ele>1270</ele>
        <time>2021-05-29T08:52:59Z</time>
      </trkpt>
      <trkpt lat="45.05042" lon="5.73665">
        <ele>1270.2</ele>
        <time>2021-05-29T08:53:00Z</time>
      </trkpt>
      <trkpt lat="45.05044" lon="5.73665">
        <ele>1270.2</ele>
        <time>2021-05-29T08:53:01Z</time>
      </trkpt>
      <trkpt lat="45.05045" lon="5.73664">
        <ele>1270.6</ele>
        <time>2021-05-29T08:53:02Z</time>
      </trkpt>
      <trkpt lat="45.05046" lon="5.73664">
        <ele>1270.6</ele>
        <time>2021-05-29T08:53:03Z</time>
      </trkpt>
      <trkpt lat="45.05048" lon="5.73664">
        <ele>1271</ele>
        <time>2021-05-29T08:53:04Z</time>
      </trkpt>
      <trkpt lat="45.0505" lon="5.73663">
        <ele>1270.8</ele>
        <time>2021-05-29T08:53:05Z</time>
      </trkpt>
      <trkpt lat="45.05052" lon="5.73663">
        <ele>1271</ele>
        <time>2021-05-29T08:53:06Z</time>
      </trkpt>
      <trkpt lat="45.05054" lon="5.73662">
        <ele>1270.8</ele>
        <time>2021-05-29T08:53:07Z</time>
      </trkpt>
      <trkpt lat="45.05056" lon="5.73661">
        <ele>1270.8</ele>
        <time>2021-05-29T08:53:08Z</time>
      </trkpt>
      <trkpt lat="45.05059" lon="5.73661">
        <ele>1270.6</ele>
        <time>2021-05-29T08:53:09Z</time>
      </trkpt>
      <trkpt lat="45.05061" lon="5.7366">
        <ele>1270.6</ele>
        <time>2021-05-29T08:53:10Z</time>
      </trkpt>
      <trkpt lat="45.05063" lon="5.7366">
        <ele>1270.6</ele>
        <time>2021-05-29T08:53:11Z</time>
      </trkpt>
      <trkpt lat="45.05065" lon="5.73659">
        <ele>1270.8</ele>
        <time>2021-05-29T08:53:12Z</time>
      </trkpt>
      <trkpt lat="45.05068" lon="5.73659">
        <ele>1270.8</ele>
        <time>2021-05-29T08:53:13Z</time>
      </trkpt>
      <trkpt lat="45.0507" lon="5.73658">
        <ele>1270.8</ele>
        <time>2021-05-29T08:53:14Z</time>
      </trkpt>
      <trkpt lat="45.05072" lon="5.73658">
        <ele>1270.6</ele>
        <time>2021-05-29T08:53:15Z</time>
      </trkpt>
      <trkpt lat="45.05074" lon="5.73657">
        <ele>1270.6</ele>
        <time>2021-05-29T08:53:16Z</time>
      </trkpt>
      <trkpt lat="45.05077" lon="5.73657">
        <ele>1270.6</ele>
        <time>2021-05-29T08:53:17Z</time>
      </trkpt>
      <trkpt lat="45.05079" lon="5.73657">
        <ele>1270.6</ele>
        <time>2021-05-29T08:53:18Z</time>
      </trkpt>
      <trkpt lat="45.05083" lon="5.73656">
        <ele>1270.8</ele>
        <time>2021-05-29T08:53:19Z</time>
      </trkpt>
      <trkpt lat="45.05087" lon="5.73655">
        <ele>1270.6</ele>
        <time>2021-05-29T08:53:20Z</time>
      </trkpt>
      <trkpt lat="45.05091" lon="5.73654">
        <ele>1270.8</ele>
        <time>2021-05-29T08:53:21Z</time>
      </trkpt>
      <trkpt lat="45.05095" lon="5.73653">
        <ele>1271</ele>
        <time>2021-05-29T08:53:22Z</time>
      </trkpt>
      <trkpt lat="45.051" lon="5.73652">
        <ele>1271</ele>
        <time>2021-05-29T08:53:23Z</time>
      </trkpt>
      <trkpt lat="45.05102" lon="5.73651">
        <ele>1271.2</ele>
        <time>2021-05-29T08:53:24Z</time>
      </trkpt>
      <trkpt lat="45.05104" lon="5.73651">
        <ele>1271.2</ele>
        <time>2021-05-29T08:53:25Z</time>
      </trkpt>
      <trkpt lat="45.05106" lon="5.73651">
        <ele>1271.4</ele>
        <time>2021-05-29T08:53:26Z</time>
      </trkpt>
      <trkpt lat="45.05111" lon="5.73651">
        <ele>1271.8</ele>
        <time>2021-05-29T08:53:27Z</time>
      </trkpt>
      <trkpt lat="45.05111" lon="5.73651">
        <ele>1271.8</ele>
        <time>2021-05-29T08:53:28Z</time>
      </trkpt>
      <trkpt lat="45.05113" lon="5.7365">
        <ele>1272.2</ele>
        <time>2021-05-29T08:53:29Z</time>
      </trkpt>
      <trkpt lat="45.05115" lon="5.73649">
        <ele>1272.4</ele>
        <time>2021-05-29T08:53:30Z</time>
      </trkpt>
      <trkpt lat="45.05118" lon="5.73648">
        <ele>1273</ele>
        <time>2021-05-29T08:53:31Z</time>
      </trkpt>
      <trkpt lat="45.0512" lon="5.73647">
        <ele>1272.8</ele>
        <time>2021-05-29T08:53:32Z</time>
      </trkpt>
      <trkpt lat="45.05122" lon="5.73646">
        <ele>1273.2</ele>
        <time>2021-05-29T08:53:33Z</time>
      </trkpt>
      <trkpt lat="45.05124" lon="5.73644">
        <ele>1273</ele>
        <time>2021-05-29T08:53:34Z</time>
      </trkpt>
      <trkpt lat="45.05126" lon="5.73642">
        <ele>1273.2</ele>
        <time>2021-05-29T08:53:35Z</time>
      </trkpt>
      <trkpt lat="45.05128" lon="5.73641">
        <ele>1273.2</ele>
        <time>2021-05-29T08:53:36Z</time>
      </trkpt>
      <trkpt lat="45.0513" lon="5.73639">
        <ele>1273.4</ele>
        <time>2021-05-29T08:53:37Z</time>
      </trkpt>
      <trkpt lat="45.05133" lon="5.73638">
        <ele>1273.2</ele>
        <time>2021-05-29T08:53:38Z</time>
      </trkpt>
      <trkpt lat="45.05135" lon="5.73637">
        <ele>1273.2</ele>
        <time>2021-05-29T08:53:39Z</time>
      </trkpt>
      <trkpt lat="45.05137" lon="5.73636">
        <ele>1273.2</ele>
        <time>2021-05-29T08:53:40Z</time>
      </trkpt>
      <trkpt lat="45.05139" lon="5.73635">
        <ele>1273</ele>
        <time>2021-05-29T08:53:41Z</time>
      </trkpt>
      <trkpt lat="45.05141" lon="5.73634">
        <ele>1272.8</ele>
        <time>2021-05-29T08:53:42Z</time>
      </trkpt>
      <trkpt lat="45.05143" lon="5.73633">
        <ele>1272.8</ele>
        <time>2021-05-29T08:53:43Z</time>
      </trkpt>
      <trkpt lat="45.05145" lon="5.73633">
        <ele>1272.6</ele>
        <time>2021-05-29T08:53:44Z</time>
      </trkpt>
      <trkpt lat="45.05147" lon="5.73632">
        <ele>1272.2</ele>
        <time>2021-05-29T08:53:45Z</time>
      </trkpt>
      <trkpt lat="45.05149" lon="5.73632">
        <ele>1272.4</ele>
        <time>2021-05-29T08:53:46Z</time>
      </trkpt>
      <trkpt lat="45.05152" lon="5.73631">
        <ele>1272</ele>
        <time>2021-05-29T08:53:47Z</time>
      </trkpt>
      <trkpt lat="45.05155" lon="5.7363">
        <ele>1272.4</ele>
        <time>2021-05-29T08:53:48Z</time>
      </trkpt>
      <trkpt lat="45.05159" lon="5.73629">
        <ele>1272.2</ele>
        <time>2021-05-29T08:53:49Z</time>
      </trkpt>
      <trkpt lat="45.05162" lon="5.73628">
        <ele>1272.6</ele>
        <time>2021-05-29T08:53:50Z</time>
      </trkpt>
      <trkpt lat="45.05166" lon="5.73627">
        <ele>1272.2</ele>
        <time>2021-05-29T08:53:51Z</time>
      </trkpt>
      <trkpt lat="45.0517" lon="5.73627">
        <ele>1272.4</ele>
        <time>2021-05-29T08:53:52Z</time>
      </trkpt>
      <trkpt lat="45.0517" lon="5.73627">
        <ele>1272</ele>
        <time>2021-05-29T08:53:53Z</time>
      </trkpt>
      <trkpt lat="45.05173" lon="5.73626">
        <ele>1272</ele>
        <time>2021-05-29T08:53:54Z</time>
      </trkpt>
      <trkpt lat="45.05176" lon="5.73625">
        <ele>1271.6</ele>
        <time>2021-05-29T08:53:55Z</time>
      </trkpt>
      <trkpt lat="45.05178" lon="5.73625">
        <ele>1271.6</ele>
        <time>2021-05-29T08:53:56Z</time>
      </trkpt>
      <trkpt lat="45.05181" lon="5.73624">
        <ele>1271.6</ele>
        <time>2021-05-29T08:53:57Z</time>
      </trkpt>
      <trkpt lat="45.05182" lon="5.73622">
        <ele>1271.4</ele>
        <time>2021-05-29T08:53:58Z</time>
      </trkpt>
      <trkpt lat="45.05183" lon="5.73621">
        <ele>1271.2</ele>
        <time>2021-05-29T08:53:59Z</time>
      </trkpt>
      <trkpt lat="45.05184" lon="5.73619">
        <ele>1270.6</ele>
        <time>2021-05-29T08:54:00Z</time>
      </trkpt>
      <trkpt lat="45.05186" lon="5.73618">
        <ele>1270.6</ele>
        <time>2021-05-29T08:54:01Z</time>
      </trkpt>
      <trkpt lat="45.05187" lon="5.73616">
        <ele>1270.4</ele>
        <time>2021-05-29T08:54:02Z</time>
      </trkpt>
      <trkpt lat="45.05188" lon="5.73615">
        <ele>1270.2</ele>
        <time>2021-05-29T08:54:03Z</time>
      </trkpt>
      <trkpt lat="45.05189" lon="5.73614">
        <ele>1269.8</ele>
        <time>2021-05-29T08:54:04Z</time>
      </trkpt>
      <trkpt lat="45.0519" lon="5.73613">
        <ele>1270</ele>
        <time>2021-05-29T08:54:05Z</time>
      </trkpt>
      <trkpt lat="45.05191" lon="5.73612">
        <ele>1270</ele>
        <time>2021-05-29T08:54:06Z</time>
      </trkpt>
      <trkpt lat="45.05193" lon="5.73611">
        <ele>1270</ele>
        <time>2021-05-29T08:54:07Z</time>
      </trkpt>
      <trkpt lat="45.05194" lon="5.7361">
        <ele>1269.8</ele>
        <time>2021-05-29T08:54:08Z</time>
      </trkpt>
      <trkpt lat="45.05195" lon="5.73609">
        <ele>1269.2</ele>
        <time>2021-05-29T08:54:09Z</time>
      </trkpt>
      <trkpt lat="45.05196" lon="5.73607">
        <ele>1269.2</ele>
        <time>2021-05-29T08:54:10Z</time>
      </trkpt>
      <trkpt lat="45.05197" lon="5.73606">
        <ele>1269.2</ele>
        <time>2021-05-29T08:54:11Z</time>
      </trkpt>
      <trkpt lat="45.05198" lon="5.73604">
        <ele>1268.6</ele>
        <time>2021-05-29T08:54:12Z</time>
      </trkpt>
      <trkpt lat="45.05199" lon="5.73603">
        <ele>1268</ele>
        <time>2021-05-29T08:54:13Z</time>
      </trkpt>
      <trkpt lat="45.05201" lon="5.73601">
        <ele>1268.2</ele>
        <time>2021-05-29T08:54:14Z</time>
      </trkpt>
      <trkpt lat="45.05202" lon="5.736">
        <ele>1267.8</ele>
        <time>2021-05-29T08:54:15Z</time>
      </trkpt>
      <trkpt lat="45.05203" lon="5.736">
        <ele>1267.8</ele>
        <time>2021-05-29T08:54:16Z</time>
      </trkpt>
      <trkpt lat="45.05205" lon="5.736">
        <ele>1267.2</ele>
        <time>2021-05-29T08:54:17Z</time>
      </trkpt>
      <trkpt lat="45.05207" lon="5.736">
        <ele>1267</ele>
        <time>2021-05-29T08:54:18Z</time>
      </trkpt>
      <trkpt lat="45.05208" lon="5.736">
        <ele>1266.2</ele>
        <time>2021-05-29T08:54:19Z</time>
      </trkpt>
      <trkpt lat="45.0521" lon="5.736">
        <ele>1265.8</ele>
        <time>2021-05-29T08:54:20Z</time>
      </trkpt>
      <trkpt lat="45.05212" lon="5.736">
        <ele>1265.8</ele>
        <time>2021-05-29T08:54:21Z</time>
      </trkpt>
      <trkpt lat="45.05215" lon="5.73603">
        <ele>1265.2</ele>
        <time>2021-05-29T08:54:22Z</time>
      </trkpt>
      <trkpt lat="45.05219" lon="5.73605">
        <ele>1265.4</ele>
        <time>2021-05-29T08:54:23Z</time>
      </trkpt>
      <trkpt lat="45.05222" lon="5.73608">
        <ele>1265</ele>
        <time>2021-05-29T08:54:24Z</time>
      </trkpt>
      <trkpt lat="45.05225" lon="5.73611">
        <ele>1265</ele>
        <time>2021-05-29T08:54:25Z</time>
      </trkpt>
      <trkpt lat="45.05229" lon="5.73613">
        <ele>1264.8</ele>
        <time>2021-05-29T08:54:26Z</time>
      </trkpt>
      <trkpt lat="45.05233" lon="5.73616">
        <ele>1264.8</ele>
        <time>2021-05-29T08:54:27Z</time>
      </trkpt>
      <trkpt lat="45.05233" lon="5.73616">
        <ele>1264.6</ele>
        <time>2021-05-29T08:54:28Z</time>
      </trkpt>
      <trkpt lat="45.05235" lon="5.73618">
        <ele>1264.2</ele>
        <time>2021-05-29T08:54:29Z</time>
      </trkpt>
      <trkpt lat="45.05238" lon="5.73619">
        <ele>1263.6</ele>
        <time>2021-05-29T08:54:30Z</time>
      </trkpt>
      <trkpt lat="45.0524" lon="5.73621">
        <ele>1263.4</ele>
        <time>2021-05-29T08:54:31Z</time>
      </trkpt>
      <trkpt lat="45.05243" lon="5.73622">
        <ele>1262.8</ele>
        <time>2021-05-29T08:54:32Z</time>
      </trkpt>
      <trkpt lat="45.05245" lon="5.73625">
        <ele>1262.6</ele>
        <time>2021-05-29T08:54:33Z</time>
      </trkpt>
      <trkpt lat="45.05247" lon="5.73628">
        <ele>1263</ele>
        <time>2021-05-29T08:54:34Z</time>
      </trkpt>
      <trkpt lat="45.05249" lon="5.73631">
        <ele>1262.8</ele>
        <time>2021-05-29T08:54:35Z</time>
      </trkpt>
      <trkpt lat="45.05252" lon="5.73633">
        <ele>1263</ele>
        <time>2021-05-29T08:54:36Z</time>
      </trkpt>
      <trkpt lat="45.05252" lon="5.73637">
        <ele>1262.4</ele>
        <time>2021-05-29T08:54:37Z</time>
      </trkpt>
      <trkpt lat="45.05253" lon="5.7364">
        <ele>1262.4</ele>
        <time>2021-05-29T08:54:38Z</time>
      </trkpt>
      <trkpt lat="45.05254" lon="5.73643">
        <ele>1262</ele>
        <time>2021-05-29T08:54:39Z</time>
      </trkpt>
      <trkpt lat="45.05255" lon="5.73646">
        <ele>1261.6</ele>
        <time>2021-05-29T08:54:40Z</time>
      </trkpt>
      <trkpt lat="45.05256" lon="5.7365">
        <ele>1261.8</ele>
        <time>2021-05-29T08:54:41Z</time>
      </trkpt>
      <trkpt lat="45.05256" lon="5.73653">
        <ele>1261.6</ele>
        <time>2021-05-29T08:54:42Z</time>
      </trkpt>
      <trkpt lat="45.05256" lon="5.73656">
        <ele>1261.8</ele>
        <time>2021-05-29T08:54:43Z</time>
      </trkpt>
      <trkpt lat="45.05257" lon="5.73659">
        <ele>1261.4</ele>
        <time>2021-05-29T08:54:44Z</time>
      </trkpt>
      <trkpt lat="45.05257" lon="5.73662">
        <ele>1261.4</ele>
        <time>2021-05-29T08:54:45Z</time>
      </trkpt>
      <trkpt lat="45.05256" lon="5.73665">
        <ele>1261</ele>
        <time>2021-05-29T08:54:46Z</time>
      </trkpt>
      <trkpt lat="45.05256" lon="5.73668">
        <ele>1260.6</ele>
        <time>2021-05-29T08:54:47Z</time>
      </trkpt>
      <trkpt lat="45.05256" lon="5.73671">
        <ele>1260.4</ele>
        <time>2021-05-29T08:54:48Z</time>
      </trkpt>
      <trkpt lat="45.05256" lon="5.73674">
        <ele>1260.2</ele>
        <time>2021-05-29T08:54:49Z</time>
      </trkpt>
      <trkpt lat="45.05255" lon="5.73677">
        <ele>1259.6</ele>
        <time>2021-05-29T08:54:50Z</time>
      </trkpt>
      <trkpt lat="45.05254" lon="5.7368">
        <ele>1259.2</ele>
        <time>2021-05-29T08:54:51Z</time>
      </trkpt>
      <trkpt lat="45.05253" lon="5.73683">
        <ele>1259.6</ele>
        <time>2021-05-29T08:54:52Z</time>
      </trkpt>
      <trkpt lat="45.05252" lon="5.73686">
        <ele>1259.2</ele>
        <time>2021-05-29T08:54:53Z</time>
      </trkpt>
      <trkpt lat="45.0525" lon="5.73689">
        <ele>1259.2</ele>
        <time>2021-05-29T08:54:54Z</time>
      </trkpt>
      <trkpt lat="45.05249" lon="5.73692">
        <ele>1258.8</ele>
        <time>2021-05-29T08:54:55Z</time>
      </trkpt>
      <trkpt lat="45.05247" lon="5.73695">
        <ele>1258.8</ele>
        <time>2021-05-29T08:54:56Z</time>
      </trkpt>
      <trkpt lat="45.05246" lon="5.73698">
        <ele>1258.2</ele>
        <time>2021-05-29T08:54:57Z</time>
      </trkpt>
      <trkpt lat="45.05244" lon="5.73701">
        <ele>1257.8</ele>
        <time>2021-05-29T08:54:58Z</time>
      </trkpt>
      <trkpt lat="45.05243" lon="5.73704">
        <ele>1257.8</ele>
        <time>2021-05-29T08:54:59Z</time>
      </trkpt>
      <trkpt lat="45.05241" lon="5.73706">
        <ele>1257.6</ele>
        <time>2021-05-29T08:55:00Z</time>
      </trkpt>
      <trkpt lat="45.0524" lon="5.73709">
        <ele>1257.6</ele>
        <time>2021-05-29T08:55:01Z</time>
      </trkpt>
      <trkpt lat="45.05233" lon="5.7372">
        <ele>1257.2</ele>
        <time>2021-05-29T08:55:02Z</time>
      </trkpt>
      <trkpt lat="45.05233" lon="5.7372">
        <ele>1257.2</ele>
        <time>2021-05-29T08:55:03Z</time>
      </trkpt>
      <trkpt lat="45.05233" lon="5.7372">
        <ele>1257</ele>
        <time>2021-05-29T08:55:04Z</time>
      </trkpt>
      <trkpt lat="45.05233" lon="5.7372">
        <ele>1256.8</ele>
        <time>2021-05-29T08:55:05Z</time>
      </trkpt>
      <trkpt lat="45.05231" lon="5.73723">
        <ele>1256.2</ele>
        <time>2021-05-29T08:55:06Z</time>
      </trkpt>
      <trkpt lat="45.0523" lon="5.73727">
        <ele>1256</ele>
        <time>2021-05-29T08:55:07Z</time>
      </trkpt>
      <trkpt lat="45.05229" lon="5.7373">
        <ele>1255.6</ele>
        <time>2021-05-29T08:55:08Z</time>
      </trkpt>
      <trkpt lat="45.05227" lon="5.73733">
        <ele>1255.4</ele>
        <time>2021-05-29T08:55:09Z</time>
      </trkpt>
      <trkpt lat="45.05226" lon="5.73736">
        <ele>1255</ele>
        <time>2021-05-29T08:55:10Z</time>
      </trkpt>
      <trkpt lat="45.05225" lon="5.73739">
        <ele>1254.6</ele>
        <time>2021-05-29T08:55:11Z</time>
      </trkpt>
      <trkpt lat="45.05223" lon="5.73743">
        <ele>1254.8</ele>
        <time>2021-05-29T08:55:12Z</time>
      </trkpt>
      <trkpt lat="45.05222" lon="5.73746">
        <ele>1254.8</ele>
        <time>2021-05-29T08:55:13Z</time>
      </trkpt>
      <trkpt lat="45.05221" lon="5.73749">
        <ele>1255</ele>
        <time>2021-05-29T08:55:14Z</time>
      </trkpt>
      <trkpt lat="45.05221" lon="5.73751">
        <ele>1254.6</ele>
        <time>2021-05-29T08:55:15Z</time>
      </trkpt>
      <trkpt lat="45.0522" lon="5.73754">
        <ele>1254.6</ele>
        <time>2021-05-29T08:55:16Z</time>
      </trkpt>
      <trkpt lat="45.05219" lon="5.73757">
        <ele>1254</ele>
        <time>2021-05-29T08:55:17Z</time>
      </trkpt>
      <trkpt lat="45.05218" lon="5.7376">
        <ele>1254</ele>
        <time>2021-05-29T08:55:18Z</time>
      </trkpt>
      <trkpt lat="45.05218" lon="5.73762">
        <ele>1253.6</ele>
        <time>2021-05-29T08:55:19Z</time>
      </trkpt>
      <trkpt lat="45.05218" lon="5.73765">
        <ele>1253.4</ele>
        <time>2021-05-29T08:55:20Z</time>
      </trkpt>
      <trkpt lat="45.05217" lon="5.73768">
        <ele>1253.6</ele>
        <time>2021-05-29T08:55:21Z</time>
      </trkpt>
      <trkpt lat="45.05217" lon="5.73771">
        <ele>1253</ele>
        <time>2021-05-29T08:55:22Z</time>
      </trkpt>
      <trkpt lat="45.05217" lon="5.73774">
        <ele>1253.4</ele>
        <time>2021-05-29T08:55:23Z</time>
      </trkpt>
      <trkpt lat="45.05217" lon="5.73777">
        <ele>1252.8</ele>
        <time>2021-05-29T08:55:24Z</time>
      </trkpt>
      <trkpt lat="45.05217" lon="5.73779">
        <ele>1253</ele>
        <time>2021-05-29T08:55:25Z</time>
      </trkpt>
      <trkpt lat="45.05217" lon="5.73782">
        <ele>1252.8</ele>
        <time>2021-05-29T08:55:26Z</time>
      </trkpt>
      <trkpt lat="45.05217" lon="5.73785">
        <ele>1252.8</ele>
        <time>2021-05-29T08:55:27Z</time>
      </trkpt>
      <trkpt lat="45.05217" lon="5.73787">
        <ele>1252.8</ele>
        <time>2021-05-29T08:55:28Z</time>
      </trkpt>
      <trkpt lat="45.05216" lon="5.73791">
        <ele>1252.8</ele>
        <time>2021-05-29T08:55:29Z</time>
      </trkpt>
      <trkpt lat="45.05215" lon="5.73795">
        <ele>1252.4</ele>
        <time>2021-05-29T08:55:30Z</time>
      </trkpt>
      <trkpt lat="45.05214" lon="5.73799">
        <ele>1252.2</ele>
        <time>2021-05-29T08:55:31Z</time>
      </trkpt>
      <trkpt lat="45.05213" lon="5.73803">
        <ele>1251.6</ele>
        <time>2021-05-29T08:55:32Z</time>
      </trkpt>
      <trkpt lat="45.05212" lon="5.73806">
        <ele>1251.4</ele>
        <time>2021-05-29T08:55:33Z</time>
      </trkpt>
      <trkpt lat="45.05211" lon="5.73809">
        <ele>1251.2</ele>
        <time>2021-05-29T08:55:34Z</time>
      </trkpt>
      <trkpt lat="45.05211" lon="5.73812">
        <ele>1250.6</ele>
        <time>2021-05-29T08:55:35Z</time>
      </trkpt>
      <trkpt lat="45.0521" lon="5.73814">
        <ele>1250.8</ele>
        <time>2021-05-29T08:55:36Z</time>
      </trkpt>
      <trkpt lat="45.0521" lon="5.73817">
        <ele>1250.4</ele>
        <time>2021-05-29T08:55:37Z</time>
      </trkpt>
      <trkpt lat="45.05209" lon="5.73819">
        <ele>1250.6</ele>
        <time>2021-05-29T08:55:38Z</time>
      </trkpt>
      <trkpt lat="45.05209" lon="5.73822">
        <ele>1250.4</ele>
        <time>2021-05-29T08:55:39Z</time>
      </trkpt>
      <trkpt lat="45.05208" lon="5.73824">
        <ele>1250.2</ele>
        <time>2021-05-29T08:55:40Z</time>
      </trkpt>
      <trkpt lat="45.05208" lon="5.73827">
        <ele>1249.6</ele>
        <time>2021-05-29T08:55:41Z</time>
      </trkpt>
      <trkpt lat="45.05207" lon="5.73829">
        <ele>1249</ele>
        <time>2021-05-29T08:55:42Z</time>
      </trkpt>
      <trkpt lat="45.05206" lon="5.73832">
        <ele>1249</ele>
        <time>2021-05-29T08:55:43Z</time>
      </trkpt>
      <trkpt lat="45.05206" lon="5.73834">
        <ele>1248.6</ele>
        <time>2021-05-29T08:55:44Z</time>
      </trkpt>
      <trkpt lat="45.05205" lon="5.73837">
        <ele>1248.8</ele>
        <time>2021-05-29T08:55:45Z</time>
      </trkpt>
      <trkpt lat="45.05205" lon="5.73839">
        <ele>1248.4</ele>
        <time>2021-05-29T08:55:46Z</time>
      </trkpt>
      <trkpt lat="45.05204" lon="5.73842">
        <ele>1248.4</ele>
        <time>2021-05-29T08:55:47Z</time>
      </trkpt>
      <trkpt lat="45.05204" lon="5.73844">
        <ele>1247.8</ele>
        <time>2021-05-29T08:55:48Z</time>
      </trkpt>
      <trkpt lat="45.05204" lon="5.73844">
        <ele>1247.4</ele>
        <time>2021-05-29T08:55:49Z</time>
      </trkpt>
      <trkpt lat="45.05204" lon="5.73844">
        <ele>1247</ele>
        <time>2021-05-29T08:55:50Z</time>
      </trkpt>
      <trkpt lat="45.05202" lon="5.73848">
        <ele>1246.6</ele>
        <time>2021-05-29T08:55:51Z</time>
      </trkpt>
      <trkpt lat="45.05201" lon="5.73852">
        <ele>1246.8</ele>
        <time>2021-05-29T08:55:52Z</time>
      </trkpt>
      <trkpt lat="45.05199" lon="5.73855">
        <ele>1246.4</ele>
        <time>2021-05-29T08:55:53Z</time>
      </trkpt>
      <trkpt lat="45.05198" lon="5.73859">
        <ele>1246.4</ele>
        <time>2021-05-29T08:55:54Z</time>
      </trkpt>
      <trkpt lat="45.05197" lon="5.73863">
        <ele>1245.8</ele>
        <time>2021-05-29T08:55:55Z</time>
      </trkpt>
      <trkpt lat="45.05196" lon="5.73866">
        <ele>1245.6</ele>
        <time>2021-05-29T08:55:56Z</time>
      </trkpt>
      <trkpt lat="45.05195" lon="5.73869">
        <ele>1245.2</ele>
        <time>2021-05-29T08:55:57Z</time>
      </trkpt>
      <trkpt lat="45.05194" lon="5.73873">
        <ele>1244.6</ele>
        <time>2021-05-29T08:55:58Z</time>
      </trkpt>
      <trkpt lat="45.05193" lon="5.73876">
        <ele>1244.2</ele>
        <time>2021-05-29T08:55:59Z</time>
      </trkpt>
      <trkpt lat="45.05192" lon="5.73878">
        <ele>1244</ele>
        <time>2021-05-29T08:56:00Z</time>
      </trkpt>
      <trkpt lat="45.05192" lon="5.73881">
        <ele>1244.4</ele>
        <time>2021-05-29T08:56:01Z</time>
      </trkpt>
      <trkpt lat="45.05191" lon="5.73884">
        <ele>1244.4</ele>
        <time>2021-05-29T08:56:02Z</time>
      </trkpt>
      <trkpt lat="45.0519" lon="5.73886">
        <ele>1244.8</ele>
        <time>2021-05-29T08:56:03Z</time>
      </trkpt>
      <trkpt lat="45.05189" lon="5.73889">
        <ele>1244.4</ele>
        <time>2021-05-29T08:56:04Z</time>
      </trkpt>
      <trkpt lat="45.05189" lon="5.73892">
        <ele>1244.2</ele>
        <time>2021-05-29T08:56:05Z</time>
      </trkpt>
      <trkpt lat="45.05188" lon="5.73895">
        <ele>1244</ele>
        <time>2021-05-29T08:56:06Z</time>
      </trkpt>
      <trkpt lat="45.05187" lon="5.73897">
        <ele>1243.8</ele>
        <time>2021-05-29T08:56:07Z</time>
      </trkpt>
      <trkpt lat="45.05187" lon="5.739">
        <ele>1243.4</ele>
        <time>2021-05-29T08:56:08Z</time>
      </trkpt>
      <trkpt lat="45.05187" lon="5.73903">
        <ele>1243.2</ele>
        <time>2021-05-29T08:56:09Z</time>
      </trkpt>
      <trkpt lat="45.05187" lon="5.73906">
        <ele>1243.4</ele>
        <time>2021-05-29T08:56:10Z</time>
      </trkpt>
      <trkpt lat="45.05187" lon="5.73909">
        <ele>1243</ele>
        <time>2021-05-29T08:56:11Z</time>
      </trkpt>
      <trkpt lat="45.05187" lon="5.73911">
        <ele>1243</ele>
        <time>2021-05-29T08:56:12Z</time>
      </trkpt>
      <trkpt lat="45.05187" lon="5.73914">
        <ele>1242.8</ele>
        <time>2021-05-29T08:56:13Z</time>
      </trkpt>
      <trkpt lat="45.05187" lon="5.73917">
        <ele>1242.6</ele>
        <time>2021-05-29T08:56:14Z</time>
      </trkpt>
      <trkpt lat="45.05186" lon="5.73919">
        <ele>1242.4</ele>
        <time>2021-05-29T08:56:15Z</time>
      </trkpt>
      <trkpt lat="45.05186" lon="5.73922">
        <ele>1242</ele>
        <time>2021-05-29T08:56:16Z</time>
      </trkpt>
      <trkpt lat="45.05185" lon="5.73925">
        <ele>1242</ele>
        <time>2021-05-29T08:56:17Z</time>
      </trkpt>
      <trkpt lat="45.05185" lon="5.73927">
        <ele>1241.6</ele>
        <time>2021-05-29T08:56:18Z</time>
      </trkpt>
      <trkpt lat="45.05184" lon="5.73931">
        <ele>1242</ele>
        <time>2021-05-29T08:56:19Z</time>
      </trkpt>
      <trkpt lat="45.05183" lon="5.73934">
        <ele>1241.6</ele>
        <time>2021-05-29T08:56:20Z</time>
      </trkpt>
      <trkpt lat="45.05181" lon="5.73938">
        <ele>1241.6</ele>
        <time>2021-05-29T08:56:21Z</time>
      </trkpt>
      <trkpt lat="45.0518" lon="5.73941">
        <ele>1241.2</ele>
        <time>2021-05-29T08:56:22Z</time>
      </trkpt>
      <trkpt lat="45.05179" lon="5.73944">
        <ele>1240.6</ele>
        <time>2021-05-29T08:56:23Z</time>
      </trkpt>
      <trkpt lat="45.05178" lon="5.73948">
        <ele>1241</ele>
        <time>2021-05-29T08:56:24Z</time>
      </trkpt>
      <trkpt lat="45.05177" lon="5.73951">
        <ele>1240.6</ele>
        <time>2021-05-29T08:56:25Z</time>
      </trkpt>
      <trkpt lat="45.05176" lon="5.73954">
        <ele>1240.6</ele>
        <time>2021-05-29T08:56:26Z</time>
      </trkpt>
      <trkpt lat="45.05174" lon="5.73958">
        <ele>1240.2</ele>
        <time>2021-05-29T08:56:27Z</time>
      </trkpt>
      <trkpt lat="45.05172" lon="5.73963">
        <ele>1240</ele>
        <time>2021-05-29T08:56:28Z</time>
      </trkpt>
      <trkpt lat="45.0517" lon="5.73967">
        <ele>1239.4</ele>
        <time>2021-05-29T08:56:29Z</time>
      </trkpt>
      <trkpt lat="45.05168" lon="5.73972">
        <ele>1238.8</ele>
        <time>2021-05-29T08:56:30Z</time>
      </trkpt>
      <trkpt lat="45.05167" lon="5.73973">
        <ele>1238.8</ele>
        <time>2021-05-29T08:56:31Z</time>
      </trkpt>
      <trkpt lat="45.05166" lon="5.73975">
        <ele>1238.6</ele>
        <time>2021-05-29T08:56:32Z</time>
      </trkpt>
      <trkpt lat="45.05166" lon="5.73976">
        <ele>1238.8</ele>
        <time>2021-05-29T08:56:33Z</time>
      </trkpt>
      <trkpt lat="45.05163" lon="5.73981">
        <ele>1238.6</ele>
        <time>2021-05-29T08:56:34Z</time>
      </trkpt>
      <trkpt lat="45.0516" lon="5.73985">
        <ele>1238.6</ele>
        <time>2021-05-29T08:56:35Z</time>
      </trkpt>
      <trkpt lat="45.05158" lon="5.73989">
        <ele>1238.2</ele>
        <time>2021-05-29T08:56:36Z</time>
      </trkpt>
      <trkpt lat="45.05154" lon="5.73995">
        <ele>1238.2</ele>
        <time>2021-05-29T08:56:37Z</time>
      </trkpt>
      <trkpt lat="45.05154" lon="5.73995">
        <ele>1237.8</ele>
        <time>2021-05-29T08:56:38Z</time>
      </trkpt>
      <trkpt lat="45.05154" lon="5.73995">
        <ele>1237.6</ele>
        <time>2021-05-29T08:56:39Z</time>
      </trkpt>
      <trkpt lat="45.05154" lon="5.73995">
        <ele>1237.6</ele>
        <time>2021-05-29T08:56:40Z</time>
      </trkpt>
      <trkpt lat="45.05152" lon="5.73998">
        <ele>1237.4</ele>
        <time>2021-05-29T08:56:41Z</time>
      </trkpt>
      <trkpt lat="45.0515" lon="5.74002">
        <ele>1237.6</ele>
        <time>2021-05-29T08:56:42Z</time>
      </trkpt>
      <trkpt lat="45.05148" lon="5.74005">
        <ele>1237.2</ele>
        <time>2021-05-29T08:56:43Z</time>
      </trkpt>
      <trkpt lat="45.05146" lon="5.74009">
        <ele>1236.8</ele>
        <time>2021-05-29T08:56:44Z</time>
      </trkpt>
      <trkpt lat="45.05146" lon="5.74009">
        <ele>1236.6</ele>
        <time>2021-05-29T08:56:45Z</time>
      </trkpt>
      <trkpt lat="45.05144" lon="5.74011">
        <ele>1236.4</ele>
        <time>2021-05-29T08:56:46Z</time>
      </trkpt>
      <trkpt lat="45.05142" lon="5.74014">
        <ele>1236.6</ele>
        <time>2021-05-29T08:56:47Z</time>
      </trkpt>
      <trkpt lat="45.05141" lon="5.74017">
        <ele>1236.6</ele>
        <time>2021-05-29T08:56:48Z</time>
      </trkpt>
      <trkpt lat="45.05139" lon="5.7402">
        <ele>1236.4</ele>
        <time>2021-05-29T08:56:49Z</time>
      </trkpt>
      <trkpt lat="45.05138" lon="5.74022">
        <ele>1236.4</ele>
        <time>2021-05-29T08:56:50Z</time>
      </trkpt>
      <trkpt lat="45.05138" lon="5.74024">
        <ele>1236</ele>
        <time>2021-05-29T08:56:51Z</time>
      </trkpt>
      <trkpt lat="45.05137" lon="5.74026">
        <ele>1235.8</ele>
        <time>2021-05-29T08:56:52Z</time>
      </trkpt>
      <trkpt lat="45.05137" lon="5.74028">
        <ele>1235.8</ele>
        <time>2021-05-29T08:56:53Z</time>
      </trkpt>
      <trkpt lat="45.05136" lon="5.7403">
        <ele>1235.2</ele>
        <time>2021-05-29T08:56:54Z</time>
      </trkpt>
      <trkpt lat="45.05135" lon="5.74033">
        <ele>1234.6</ele>
        <time>2021-05-29T08:56:55Z</time>
      </trkpt>
      <trkpt lat="45.05134" lon="5.74034">
        <ele>1234.6</ele>
        <time>2021-05-29T08:56:56Z</time>
      </trkpt>
      <trkpt lat="45.05133" lon="5.74035">
        <ele>1234.4</ele>
        <time>2021-05-29T08:56:57Z</time>
      </trkpt>
      <trkpt lat="45.05132" lon="5.74037">
        <ele>1234.8</ele>
        <time>2021-05-29T08:56:58Z</time>
      </trkpt>
      <trkpt lat="45.05131" lon="5.74038">
        <ele>1234.6</ele>
        <time>2021-05-29T08:56:59Z</time>
      </trkpt>
      <trkpt lat="45.0513" lon="5.7404">
        <ele>1234.6</ele>
        <time>2021-05-29T08:57:00Z</time>
      </trkpt>
      <trkpt lat="45.05129" lon="5.74041">
        <ele>1234.6</ele>
        <time>2021-05-29T08:57:01Z</time>
      </trkpt>
      <trkpt lat="45.05128" lon="5.74042">
        <ele>1234.2</ele>
        <time>2021-05-29T08:57:02Z</time>
      </trkpt>
      <trkpt lat="45.05126" lon="5.74044">
        <ele>1234.4</ele>
        <time>2021-05-29T08:57:03Z</time>
      </trkpt>
      <trkpt lat="45.05125" lon="5.74045">
        <ele>1234.8</ele>
        <time>2021-05-29T08:57:04Z</time>
      </trkpt>
      <trkpt lat="45.05123" lon="5.74046">
        <ele>1235.2</ele>
        <time>2021-05-29T08:57:05Z</time>
      </trkpt>
      <trkpt lat="45.05122" lon="5.74048">
        <ele>1235</ele>
        <time>2021-05-29T08:57:06Z</time>
      </trkpt>
      <trkpt lat="45.0512" lon="5.74049">
        <ele>1235.2</ele>
        <time>2021-05-29T08:57:07Z</time>
      </trkpt>
      <trkpt lat="45.05119" lon="5.7405">
        <ele>1234.8</ele>
        <time>2021-05-29T08:57:08Z</time>
      </trkpt>
      <trkpt lat="45.05117" lon="5.74053">
        <ele>1234.4</ele>
        <time>2021-05-29T08:57:09Z</time>
      </trkpt>
      <trkpt lat="45.05116" lon="5.74056">
        <ele>1234.8</ele>
        <time>2021-05-29T08:57:10Z</time>
      </trkpt>
      <trkpt lat="45.05114" lon="5.74059">
        <ele>1234.8</ele>
        <time>2021-05-29T08:57:11Z</time>
      </trkpt>
      <trkpt lat="45.05113" lon="5.74062">
        <ele>1235</ele>
        <time>2021-05-29T08:57:12Z</time>
      </trkpt>
      <trkpt lat="45.05111" lon="5.74065">
        <ele>1234.8</ele>
        <time>2021-05-29T08:57:13Z</time>
      </trkpt>
      <trkpt lat="45.0511" lon="5.74068">
        <ele>1235</ele>
        <time>2021-05-29T08:57:14Z</time>
      </trkpt>
      <trkpt lat="45.05109" lon="5.74071">
        <ele>1234.6</ele>
        <time>2021-05-29T08:57:15Z</time>
      </trkpt>
      <trkpt lat="45.05107" lon="5.74073">
        <ele>1234.4</ele>
        <time>2021-05-29T08:57:16Z</time>
      </trkpt>
      <trkpt lat="45.05106" lon="5.74075">
        <ele>1234.2</ele>
        <time>2021-05-29T08:57:17Z</time>
      </trkpt>
      <trkpt lat="45.05105" lon="5.74076">
        <ele>1234</ele>
        <time>2021-05-29T08:57:18Z</time>
      </trkpt>
      <trkpt lat="45.05103" lon="5.74078">
        <ele>1234.2</ele>
        <time>2021-05-29T08:57:19Z</time>
      </trkpt>
      <trkpt lat="45.05102" lon="5.74079">
        <ele>1234.2</ele>
        <time>2021-05-29T08:57:20Z</time>
      </trkpt>
      <trkpt lat="45.05101" lon="5.74081">
        <ele>1234.6</ele>
        <time>2021-05-29T08:57:21Z</time>
      </trkpt>
      <trkpt lat="45.051" lon="5.74082">
        <ele>1234.4</ele>
        <time>2021-05-29T08:57:22Z</time>
      </trkpt>
      <trkpt lat="45.05099" lon="5.74084">
        <ele>1234.4</ele>
        <time>2021-05-29T08:57:23Z</time>
      </trkpt>
      <trkpt lat="45.05098" lon="5.74086">
        <ele>1234</ele>
        <time>2021-05-29T08:57:24Z</time>
      </trkpt>
      <trkpt lat="45.05097" lon="5.74088">
        <ele>1233.6</ele>
        <time>2021-05-29T08:57:25Z</time>
      </trkpt>
      <trkpt lat="45.05096" lon="5.7409">
        <ele>1233.8</ele>
        <time>2021-05-29T08:57:26Z</time>
      </trkpt>
      <trkpt lat="45.05095" lon="5.74092">
        <ele>1233.6</ele>
        <time>2021-05-29T08:57:27Z</time>
      </trkpt>
      <trkpt lat="45.05094" lon="5.74094">
        <ele>1233.6</ele>
        <time>2021-05-29T08:57:28Z</time>
      </trkpt>
      <trkpt lat="45.05093" lon="5.74097">
        <ele>1233.2</ele>
        <time>2021-05-29T08:57:29Z</time>
      </trkpt>
      <trkpt lat="45.05092" lon="5.74099">
        <ele>1233.4</ele>
        <time>2021-05-29T08:57:30Z</time>
      </trkpt>
      <trkpt lat="45.0509" lon="5.74102">
        <ele>1232.6</ele>
        <time>2021-05-29T08:57:31Z</time>
      </trkpt>
      <trkpt lat="45.05089" lon="5.74104">
        <ele>1232.2</ele>
        <time>2021-05-29T08:57:32Z</time>
      </trkpt>
      <trkpt lat="45.05088" lon="5.74107">
        <ele>1232.6</ele>
        <time>2021-05-29T08:57:33Z</time>
      </trkpt>
      <trkpt lat="45.05086" lon="5.7411">
        <ele>1232.2</ele>
        <time>2021-05-29T08:57:34Z</time>
      </trkpt>
      <trkpt lat="45.05085" lon="5.74113">
        <ele>1232.2</ele>
        <time>2021-05-29T08:57:35Z</time>
      </trkpt>
      <trkpt lat="45.05083" lon="5.74115">
        <ele>1231.4</ele>
        <time>2021-05-29T08:57:36Z</time>
      </trkpt>
      <trkpt lat="45.05082" lon="5.74118">
        <ele>1231.4</ele>
        <time>2021-05-29T08:57:37Z</time>
      </trkpt>
      <trkpt lat="45.0508" lon="5.7412">
        <ele>1231.2</ele>
        <time>2021-05-29T08:57:38Z</time>
      </trkpt>
      <trkpt lat="45.05078" lon="5.74122">
        <ele>1231.4</ele>
        <time>2021-05-29T08:57:39Z</time>
      </trkpt>
      <trkpt lat="45.05077" lon="5.74124">
        <ele>1231</ele>
        <time>2021-05-29T08:57:40Z</time>
      </trkpt>
      <trkpt lat="45.05075" lon="5.74126">
        <ele>1231</ele>
        <time>2021-05-29T08:57:41Z</time>
      </trkpt>
      <trkpt lat="45.05073" lon="5.74128">
        <ele>1230.8</ele>
        <time>2021-05-29T08:57:42Z</time>
      </trkpt>
      <trkpt lat="45.05073" lon="5.74132">
        <ele>1230.6</ele>
        <time>2021-05-29T08:57:43Z</time>
      </trkpt>
      <trkpt lat="45.05073" lon="5.74136">
        <ele>1230.8</ele>
        <time>2021-05-29T08:57:44Z</time>
      </trkpt>
      <trkpt lat="45.05073" lon="5.7414">
        <ele>1230.6</ele>
        <time>2021-05-29T08:57:45Z</time>
      </trkpt>
      <trkpt lat="45.05073" lon="5.74144">
        <ele>1230.2</ele>
        <time>2021-05-29T08:57:46Z</time>
      </trkpt>
      <trkpt lat="45.05073" lon="5.74148">
        <ele>1230.2</ele>
        <time>2021-05-29T08:57:47Z</time>
      </trkpt>
      <trkpt lat="45.05073" lon="5.74153">
        <ele>1230.2</ele>
        <time>2021-05-29T08:57:48Z</time>
      </trkpt>
      <trkpt lat="45.05073" lon="5.74157">
        <ele>1230.4</ele>
        <time>2021-05-29T08:57:49Z</time>
      </trkpt>
      <trkpt lat="45.05073" lon="5.74161">
        <ele>1230.2</ele>
        <time>2021-05-29T08:57:50Z</time>
      </trkpt>
      <trkpt lat="45.05073" lon="5.74165">
        <ele>1229.8</ele>
        <time>2021-05-29T08:57:51Z</time>
      </trkpt>
      <trkpt lat="45.05073" lon="5.74169">
        <ele>1229</ele>
        <time>2021-05-29T08:57:52Z</time>
      </trkpt>
      <trkpt lat="45.05073" lon="5.74173">
        <ele>1228.4</ele>
        <time>2021-05-29T08:57:53Z</time>
      </trkpt>
      <trkpt lat="45.05073" lon="5.74177">
        <ele>1227.2</ele>
        <time>2021-05-29T08:57:54Z</time>
      </trkpt>
      <trkpt lat="45.05073" lon="5.74182">
        <ele>1226.6</ele>
        <time>2021-05-29T08:57:55Z</time>
      </trkpt>
      <trkpt lat="45.05073" lon="5.74186">
        <ele>1225.8</ele>
        <time>2021-05-29T08:57:56Z</time>
      </trkpt>
      <trkpt lat="45.05074" lon="5.7419">
        <ele>1225.4</ele>
        <time>2021-05-29T08:57:57Z</time>
      </trkpt>
      <trkpt lat="45.05074" lon="5.74193">
        <ele>1225.2</ele>
        <time>2021-05-29T08:57:58Z</time>
      </trkpt>
      <trkpt lat="45.05074" lon="5.74197">
        <ele>1224.4</ele>
        <time>2021-05-29T08:57:59Z</time>
      </trkpt>
      <trkpt lat="45.05074" lon="5.74201">
        <ele>1224</ele>
        <time>2021-05-29T08:58:00Z</time>
      </trkpt>
      <trkpt lat="45.05074" lon="5.74205">
        <ele>1223.4</ele>
        <time>2021-05-29T08:58:01Z</time>
      </trkpt>
      <trkpt lat="45.05073" lon="5.74208">
        <ele>1222.8</ele>
        <time>2021-05-29T08:58:02Z</time>
      </trkpt>
      <trkpt lat="45.05073" lon="5.74212">
        <ele>1222.2</ele>
        <time>2021-05-29T08:58:03Z</time>
      </trkpt>
      <trkpt lat="45.05072" lon="5.74215">
        <ele>1220.8</ele>
        <time>2021-05-29T08:58:04Z</time>
      </trkpt>
      <trkpt lat="45.05071" lon="5.74219">
        <ele>1220.4</ele>
        <time>2021-05-29T08:58:05Z</time>
      </trkpt>
      <trkpt lat="45.0507" lon="5.74222">
        <ele>1220.2</ele>
        <time>2021-05-29T08:58:06Z</time>
      </trkpt>
      <trkpt lat="45.05069" lon="5.74225">
        <ele>1219.8</ele>
        <time>2021-05-29T08:58:07Z</time>
      </trkpt>
      <trkpt lat="45.05068" lon="5.74228">
        <ele>1219.2</ele>
        <time>2021-05-29T08:58:08Z</time>
      </trkpt>
      <trkpt lat="45.05066" lon="5.74232">
        <ele>1218.4</ele>
        <time>2021-05-29T08:58:09Z</time>
      </trkpt>
      <trkpt lat="45.05065" lon="5.74235">
        <ele>1218</ele>
        <time>2021-05-29T08:58:10Z</time>
      </trkpt>
      <trkpt lat="45.05063" lon="5.74238">
        <ele>1217.8</ele>
        <time>2021-05-29T08:58:11Z</time>
      </trkpt>
      <trkpt lat="45.05062" lon="5.74242">
        <ele>1217</ele>
        <time>2021-05-29T08:58:12Z</time>
      </trkpt>
      <trkpt lat="45.05061" lon="5.74243">
        <ele>1216.4</ele>
        <time>2021-05-29T08:58:13Z</time>
      </trkpt>
      <trkpt lat="45.0506" lon="5.74244">
        <ele>1216.4</ele>
        <time>2021-05-29T08:58:14Z</time>
      </trkpt>
      <trkpt lat="45.05059" lon="5.74246">
        <ele>1216</ele>
        <time>2021-05-29T08:58:15Z</time>
      </trkpt>
      <trkpt lat="45.05059" lon="5.74247">
        <ele>1215.4</ele>
        <time>2021-05-29T08:58:16Z</time>
      </trkpt>
      <trkpt lat="45.05058" lon="5.74249">
        <ele>1214.6</ele>
        <time>2021-05-29T08:58:17Z</time>
      </trkpt>
      <trkpt lat="45.05057" lon="5.7425">
        <ele>1214.2</ele>
        <time>2021-05-29T08:58:18Z</time>
      </trkpt>
      <trkpt lat="45.05056" lon="5.74252">
        <ele>1214</ele>
        <time>2021-05-29T08:58:19Z</time>
      </trkpt>
      <trkpt lat="45.05055" lon="5.74253">
        <ele>1213.6</ele>
        <time>2021-05-29T08:58:20Z</time>
      </trkpt>
      <trkpt lat="45.05055" lon="5.74254">
        <ele>1213.6</ele>
        <time>2021-05-29T08:58:21Z</time>
      </trkpt>
      <trkpt lat="45.05054" lon="5.74255">
        <ele>1213.2</ele>
        <time>2021-05-29T08:58:22Z</time>
      </trkpt>
      <trkpt lat="45.05054" lon="5.74256">
        <ele>1212.8</ele>
        <time>2021-05-29T08:58:23Z</time>
      </trkpt>
      <trkpt lat="45.05053" lon="5.74257">
        <ele>1212.2</ele>
        <time>2021-05-29T08:58:24Z</time>
      </trkpt>
      <trkpt lat="45.05053" lon="5.74258">
        <ele>1211.4</ele>
        <time>2021-05-29T08:58:25Z</time>
      </trkpt>
      <trkpt lat="45.05052" lon="5.74259">
        <ele>1211.2</ele>
        <time>2021-05-29T08:58:26Z</time>
      </trkpt>
      <trkpt lat="45.05051" lon="5.7426">
        <ele>1210.6</ele>
        <time>2021-05-29T08:58:27Z</time>
      </trkpt>
      <trkpt lat="45.05051" lon="5.74261">
        <ele>1210</ele>
        <time>2021-05-29T08:58:28Z</time>
      </trkpt>
      <trkpt lat="45.0505" lon="5.74263">
        <ele>1209.6</ele>
        <time>2021-05-29T08:58:29Z</time>
      </trkpt>
      <trkpt lat="45.05049" lon="5.74263">
        <ele>1209.2</ele>
        <time>2021-05-29T08:58:30Z</time>
      </trkpt>
      <trkpt lat="45.05048" lon="5.74264">
        <ele>1208.4</ele>
        <time>2021-05-29T08:58:31Z</time>
      </trkpt>
      <trkpt lat="45.05046" lon="5.74264">
        <ele>1208</ele>
        <time>2021-05-29T08:58:32Z</time>
      </trkpt>
      <trkpt lat="45.05045" lon="5.74265">
        <ele>1207.6</ele>
        <time>2021-05-29T08:58:33Z</time>
      </trkpt>
      <trkpt lat="45.05044" lon="5.74266">
        <ele>1207.6</ele>
        <time>2021-05-29T08:58:34Z</time>
      </trkpt>
      <trkpt lat="45.05043" lon="5.74266">
        <ele>1206.8</ele>
        <time>2021-05-29T08:58:35Z</time>
      </trkpt>
      <trkpt lat="45.05041" lon="5.74267">
        <ele>1206.4</ele>
        <time>2021-05-29T08:58:36Z</time>
      </trkpt>
      <trkpt lat="45.0504" lon="5.7427">
        <ele>1205.6</ele>
        <time>2021-05-29T08:58:37Z</time>
      </trkpt>
      <trkpt lat="45.05039" lon="5.74273">
        <ele>1205.2</ele>
        <time>2021-05-29T08:58:38Z</time>
      </trkpt>
      <trkpt lat="45.05038" lon="5.74276">
        <ele>1205</ele>
        <time>2021-05-29T08:58:39Z</time>
      </trkpt>
      <trkpt lat="45.05037" lon="5.74279">
        <ele>1204.8</ele>
        <time>2021-05-29T08:58:40Z</time>
      </trkpt>
      <trkpt lat="45.05035" lon="5.74282">
        <ele>1204</ele>
        <time>2021-05-29T08:58:41Z</time>
      </trkpt>
      <trkpt lat="45.05033" lon="5.74284">
        <ele>1203.8</ele>
        <time>2021-05-29T08:58:42Z</time>
      </trkpt>
      <trkpt lat="45.05031" lon="5.74287">
        <ele>1203.6</ele>
        <time>2021-05-29T08:58:43Z</time>
      </trkpt>
      <trkpt lat="45.05028" lon="5.7429">
        <ele>1203.4</ele>
        <time>2021-05-29T08:58:44Z</time>
      </trkpt>
      <trkpt lat="45.05026" lon="5.74293">
        <ele>1202.8</ele>
        <time>2021-05-29T08:58:45Z</time>
      </trkpt>
      <trkpt lat="45.05024" lon="5.74296">
        <ele>1202</ele>
        <time>2021-05-29T08:58:46Z</time>
      </trkpt>
      <trkpt lat="45.0502" lon="5.74298">
        <ele>1201.8</ele>
        <time>2021-05-29T08:58:47Z</time>
      </trkpt>
      <trkpt lat="45.0502" lon="5.74298">
        <ele>1201.2</ele>
        <time>2021-05-29T08:58:48Z</time>
      </trkpt>
      <trkpt lat="45.05018" lon="5.743">
        <ele>1200.6</ele>
        <time>2021-05-29T08:58:49Z</time>
      </trkpt>
      <trkpt lat="45.05016" lon="5.74302">
        <ele>1200.2</ele>
        <time>2021-05-29T08:58:50Z</time>
      </trkpt>
      <trkpt lat="45.05013" lon="5.74304">
        <ele>1199.8</ele>
        <time>2021-05-29T08:58:51Z</time>
      </trkpt>
      <trkpt lat="45.05011" lon="5.74305">
        <ele>1198.8</ele>
        <time>2021-05-29T08:58:52Z</time>
      </trkpt>
      <trkpt lat="45.0501" lon="5.74307">
        <ele>1198.6</ele>
        <time>2021-05-29T08:58:53Z</time>
      </trkpt>
      <trkpt lat="45.05008" lon="5.74309">
        <ele>1198.2</ele>
        <time>2021-05-29T08:58:54Z</time>
      </trkpt>
      <trkpt lat="45.05007" lon="5.74311">
        <ele>1197.4</ele>
        <time>2021-05-29T08:58:55Z</time>
      </trkpt>
      <trkpt lat="45.05006" lon="5.74313">
        <ele>1197.2</ele>
        <time>2021-05-29T08:58:56Z</time>
      </trkpt>
      <trkpt lat="45.05005" lon="5.74314">
        <ele>1196.6</ele>
        <time>2021-05-29T08:58:57Z</time>
      </trkpt>
      <trkpt lat="45.05003" lon="5.74316">
        <ele>1195.8</ele>
        <time>2021-05-29T08:58:58Z</time>
      </trkpt>
      <trkpt lat="45.05002" lon="5.74319">
        <ele>1195</ele>
        <time>2021-05-29T08:58:59Z</time>
      </trkpt>
      <trkpt lat="45.05" lon="5.74321">
        <ele>1194.4</ele>
        <time>2021-05-29T08:59:00Z</time>
      </trkpt>
      <trkpt lat="45.04998" lon="5.74323">
        <ele>1194.6</ele>
        <time>2021-05-29T08:59:01Z</time>
      </trkpt>
      <trkpt lat="45.04996" lon="5.74326">
        <ele>1194.2</ele>
        <time>2021-05-29T08:59:02Z</time>
      </trkpt>
      <trkpt lat="45.04995" lon="5.74328">
        <ele>1193.6</ele>
        <time>2021-05-29T08:59:03Z</time>
      </trkpt>
      <trkpt lat="45.04993" lon="5.7433">
        <ele>1193</ele>
        <time>2021-05-29T08:59:04Z</time>
      </trkpt>
      <trkpt lat="45.04991" lon="5.74333">
        <ele>1193</ele>
        <time>2021-05-29T08:59:05Z</time>
      </trkpt>
      <trkpt lat="45.04989" lon="5.74335">
        <ele>1193</ele>
        <time>2021-05-29T08:59:06Z</time>
      </trkpt>
      <trkpt lat="45.04987" lon="5.74337">
        <ele>1192.6</ele>
        <time>2021-05-29T08:59:07Z</time>
      </trkpt>
      <trkpt lat="45.04985" lon="5.74339">
        <ele>1192</ele>
        <time>2021-05-29T08:59:08Z</time>
      </trkpt>
      <trkpt lat="45.04982" lon="5.74342">
        <ele>1191.8</ele>
        <time>2021-05-29T08:59:09Z</time>
      </trkpt>
      <trkpt lat="45.0498" lon="5.74344">
        <ele>1191.4</ele>
        <time>2021-05-29T08:59:10Z</time>
      </trkpt>
      <trkpt lat="45.04977" lon="5.74347">
        <ele>1191.4</ele>
        <time>2021-05-29T08:59:11Z</time>
      </trkpt>
      <trkpt lat="45.04975" lon="5.74349">
        <ele>1190.8</ele>
        <time>2021-05-29T08:59:12Z</time>
      </trkpt>
      <trkpt lat="45.0497" lon="5.74351">
        <ele>1190</ele>
        <time>2021-05-29T08:59:13Z</time>
      </trkpt>
      <trkpt lat="45.0497" lon="5.74351">
        <ele>1190</ele>
        <time>2021-05-29T08:59:14Z</time>
      </trkpt>
      <trkpt lat="45.0497" lon="5.74351">
        <ele>1189.8</ele>
        <time>2021-05-29T08:59:15Z</time>
      </trkpt>
      <trkpt lat="45.04967" lon="5.74353">
        <ele>1189.6</ele>
        <time>2021-05-29T08:59:16Z</time>
      </trkpt>
      <trkpt lat="45.04963" lon="5.74355">
        <ele>1189</ele>
        <time>2021-05-29T08:59:17Z</time>
      </trkpt>
      <trkpt lat="45.0496" lon="5.74357">
        <ele>1188.8</ele>
        <time>2021-05-29T08:59:18Z</time>
      </trkpt>
      <trkpt lat="45.04957" lon="5.74358">
        <ele>1188.2</ele>
        <time>2021-05-29T08:59:19Z</time>
      </trkpt>
      <trkpt lat="45.04954" lon="5.7436">
        <ele>1188</ele>
        <time>2021-05-29T08:59:20Z</time>
      </trkpt>
      <trkpt lat="45.04952" lon="5.74361">
        <ele>1188</ele>
        <time>2021-05-29T08:59:21Z</time>
      </trkpt>
      <trkpt lat="45.0495" lon="5.74363">
        <ele>1187.8</ele>
        <time>2021-05-29T08:59:22Z</time>
      </trkpt>
      <trkpt lat="45.04948" lon="5.74364">
        <ele>1187.4</ele>
        <time>2021-05-29T08:59:23Z</time>
      </trkpt>
      <trkpt lat="45.04946" lon="5.74366">
        <ele>1186.6</ele>
        <time>2021-05-29T08:59:24Z</time>
      </trkpt>
      <trkpt lat="45.04944" lon="5.74368">
        <ele>1186.4</ele>
        <time>2021-05-29T08:59:25Z</time>
      </trkpt>
      <trkpt lat="45.04942" lon="5.7437">
        <ele>1186.8</ele>
        <time>2021-05-29T08:59:26Z</time>
      </trkpt>
      <trkpt lat="45.0494" lon="5.74372">
        <ele>1186.4</ele>
        <time>2021-05-29T08:59:27Z</time>
      </trkpt>
      <trkpt lat="45.04937" lon="5.74374">
        <ele>1186.2</ele>
        <time>2021-05-29T08:59:28Z</time>
      </trkpt>
      <trkpt lat="45.04936" lon="5.74375">
        <ele>1186.4</ele>
        <time>2021-05-29T08:59:29Z</time>
      </trkpt>
      <trkpt lat="45.04935" lon="5.74376">
        <ele>1186.2</ele>
        <time>2021-05-29T08:59:30Z</time>
      </trkpt>
      <trkpt lat="45.04934" lon="5.74377">
        <ele>1185.6</ele>
        <time>2021-05-29T08:59:31Z</time>
      </trkpt>
      <trkpt lat="45.04933" lon="5.74379">
        <ele>1185.4</ele>
        <time>2021-05-29T08:59:32Z</time>
      </trkpt>
      <trkpt lat="45.04932" lon="5.7438">
        <ele>1185</ele>
        <time>2021-05-29T08:59:33Z</time>
      </trkpt>
      <trkpt lat="45.0493" lon="5.74381">
        <ele>1185.2</ele>
        <time>2021-05-29T08:59:34Z</time>
      </trkpt>
      <trkpt lat="45.04929" lon="5.74382">
        <ele>1184.8</ele>
        <time>2021-05-29T08:59:35Z</time>
      </trkpt>
      <trkpt lat="45.04928" lon="5.74383">
        <ele>1184.4</ele>
        <time>2021-05-29T08:59:36Z</time>
      </trkpt>
      <trkpt lat="45.04926" lon="5.74384">
        <ele>1184.6</ele>
        <time>2021-05-29T08:59:37Z</time>
      </trkpt>
      <trkpt lat="45.04924" lon="5.74384">
        <ele>1184.4</ele>
        <time>2021-05-29T08:59:38Z</time>
      </trkpt>
      <trkpt lat="45.04922" lon="5.74385">
        <ele>1184.2</ele>
        <time>2021-05-29T08:59:39Z</time>
      </trkpt>
      <trkpt lat="45.04921" lon="5.74386">
        <ele>1183.6</ele>
        <time>2021-05-29T08:59:40Z</time>
      </trkpt>
      <trkpt lat="45.04919" lon="5.74386">
        <ele>1183.4</ele>
        <time>2021-05-29T08:59:41Z</time>
      </trkpt>
      <trkpt lat="45.04918" lon="5.74386">
        <ele>1183.4</ele>
        <time>2021-05-29T08:59:42Z</time>
      </trkpt>
      <trkpt lat="45.04917" lon="5.74386">
        <ele>1183.4</ele>
        <time>2021-05-29T08:59:43Z</time>
      </trkpt>
      <trkpt lat="45.04916" lon="5.74386">
        <ele>1183.4</ele>
        <time>2021-05-29T08:59:44Z</time>
      </trkpt>
      <trkpt lat="45.04915" lon="5.74385">
        <ele>1182.8</ele>
        <time>2021-05-29T08:59:45Z</time>
      </trkpt>
      <trkpt lat="45.04914" lon="5.74385">
        <ele>1182.6</ele>
        <time>2021-05-29T08:59:46Z</time>
      </trkpt>
      <trkpt lat="45.04913" lon="5.74385">
        <ele>1182.2</ele>
        <time>2021-05-29T08:59:47Z</time>
      </trkpt>
      <trkpt lat="45.04911" lon="5.74385">
        <ele>1182.2</ele>
        <time>2021-05-29T08:59:48Z</time>
      </trkpt>
      <trkpt lat="45.0491" lon="5.74386">
        <ele>1182</ele>
        <time>2021-05-29T08:59:49Z</time>
      </trkpt>
      <trkpt lat="45.04909" lon="5.74386">
        <ele>1182.2</ele>
        <time>2021-05-29T08:59:50Z</time>
      </trkpt>
      <trkpt lat="45.04908" lon="5.74387">
        <ele>1181.6</ele>
        <time>2021-05-29T08:59:51Z</time>
      </trkpt>
      <trkpt lat="45.04907" lon="5.74388">
        <ele>1181</ele>
        <time>2021-05-29T08:59:52Z</time>
      </trkpt>
      <trkpt lat="45.04905" lon="5.74389">
        <ele>1180</ele>
        <time>2021-05-29T08:59:53Z</time>
      </trkpt>
      <trkpt lat="45.04904" lon="5.7439">
        <ele>1179.6</ele>
        <time>2021-05-29T08:59:54Z</time>
      </trkpt>
      <trkpt lat="45.04903" lon="5.74391">
        <ele>1179.2</ele>
        <time>2021-05-29T08:59:55Z</time>
      </trkpt>
      <trkpt lat="45.04902" lon="5.74391">
        <ele>1178.6</ele>
        <time>2021-05-29T08:59:56Z</time>
      </trkpt>
      <trkpt lat="45.04902" lon="5.74391">
        <ele>1178</ele>
        <time>2021-05-29T08:59:57Z</time>
      </trkpt>
      <trkpt lat="45.04899" lon="5.74393">
        <ele>1178.2</ele>
        <time>2021-05-29T08:59:58Z</time>
      </trkpt>
      <trkpt lat="45.04892" lon="5.74397">
        <ele>1177.6</ele>
        <time>2021-05-29T09:00:00Z</time>
      </trkpt>
      <trkpt lat="45.04891" lon="5.74398">
        <ele>1177.4</ele>
        <time>2021-05-29T09:00:01Z</time>
      </trkpt>
      <trkpt lat="45.0489" lon="5.744">
        <ele>1177.2</ele>
        <time>2021-05-29T09:00:02Z</time>
      </trkpt>
      <trkpt lat="45.04889" lon="5.74402">
        <ele>1177.2</ele>
        <time>2021-05-29T09:00:03Z</time>
      </trkpt>
      <trkpt lat="45.04888" lon="5.74404">
        <ele>1176.4</ele>
        <time>2021-05-29T09:00:04Z</time>
      </trkpt>
      <trkpt lat="45.04887" lon="5.74405">
        <ele>1175.8</ele>
        <time>2021-05-29T09:00:05Z</time>
      </trkpt>
      <trkpt lat="45.04886" lon="5.74407">
        <ele>1175</ele>
        <time>2021-05-29T09:00:06Z</time>
      </trkpt>
      <trkpt lat="45.04884" lon="5.74409">
        <ele>1174.8</ele>
        <time>2021-05-29T09:00:07Z</time>
      </trkpt>
      <trkpt lat="45.04883" lon="5.74411">
        <ele>1174.4</ele>
        <time>2021-05-29T09:00:08Z</time>
      </trkpt>
      <trkpt lat="45.04881" lon="5.74412">
        <ele>1174</ele>
        <time>2021-05-29T09:00:09Z</time>
      </trkpt>
      <trkpt lat="45.04879" lon="5.74414">
        <ele>1173.6</ele>
        <time>2021-05-29T09:00:10Z</time>
      </trkpt>
      <trkpt lat="45.04877" lon="5.74416">
        <ele>1173.2</ele>
        <time>2021-05-29T09:00:11Z</time>
      </trkpt>
      <trkpt lat="45.04876" lon="5.74418">
        <ele>1173</ele>
        <time>2021-05-29T09:00:12Z</time>
      </trkpt>
      <trkpt lat="45.04874" lon="5.74421">
        <ele>1172.8</ele>
        <time>2021-05-29T09:00:13Z</time>
      </trkpt>
      <trkpt lat="45.04872" lon="5.74423">
        <ele>1172.6</ele>
        <time>2021-05-29T09:00:14Z</time>
      </trkpt>
      <trkpt lat="45.0487" lon="5.74425">
        <ele>1172</ele>
        <time>2021-05-29T09:00:15Z</time>
      </trkpt>
      <trkpt lat="45.04869" lon="5.74426">
        <ele>1171.6</ele>
        <time>2021-05-29T09:00:16Z</time>
      </trkpt>
      <trkpt lat="45.04867" lon="5.74427">
        <ele>1171.4</ele>
        <time>2021-05-29T09:00:17Z</time>
      </trkpt>
      <trkpt lat="45.04866" lon="5.74428">
        <ele>1171.2</ele>
        <time>2021-05-29T09:00:18Z</time>
      </trkpt>
      <trkpt lat="45.04864" lon="5.74429">
        <ele>1171</ele>
        <time>2021-05-29T09:00:19Z</time>
      </trkpt>
      <trkpt lat="45.04863" lon="5.7443">
        <ele>1170.6</ele>
        <time>2021-05-29T09:00:20Z</time>
      </trkpt>
      <trkpt lat="45.04862" lon="5.74431">
        <ele>1170.4</ele>
        <time>2021-05-29T09:00:21Z</time>
      </trkpt>
      <trkpt lat="45.04861" lon="5.74434">
        <ele>1170.4</ele>
        <time>2021-05-29T09:00:22Z</time>
      </trkpt>
      <trkpt lat="45.0486" lon="5.74436">
        <ele>1170</ele>
        <time>2021-05-29T09:00:23Z</time>
      </trkpt>
      <trkpt lat="45.04859" lon="5.74439">
        <ele>1169.8</ele>
        <time>2021-05-29T09:00:24Z</time>
      </trkpt>
      <trkpt lat="45.04858" lon="5.74441">
        <ele>1169</ele>
        <time>2021-05-29T09:00:25Z</time>
      </trkpt>
      <trkpt lat="45.04857" lon="5.74444">
        <ele>1167.8</ele>
        <time>2021-05-29T09:00:26Z</time>
      </trkpt>
      <trkpt lat="45.04855" lon="5.74446">
        <ele>1167.8</ele>
        <time>2021-05-29T09:00:27Z</time>
      </trkpt>
      <trkpt lat="45.04854" lon="5.74449">
        <ele>1167.2</ele>
        <time>2021-05-29T09:00:28Z</time>
      </trkpt>
      <trkpt lat="45.04853" lon="5.74451">
        <ele>1166.6</ele>
        <time>2021-05-29T09:00:29Z</time>
      </trkpt>
      <trkpt lat="45.04851" lon="5.74454">
        <ele>1166.2</ele>
        <time>2021-05-29T09:00:30Z</time>
      </trkpt>
      <trkpt lat="45.04851" lon="5.74455">
        <ele>1165</ele>
        <time>2021-05-29T09:00:31Z</time>
      </trkpt>
      <trkpt lat="45.0485" lon="5.74457">
        <ele>1165</ele>
        <time>2021-05-29T09:00:32Z</time>
      </trkpt>
      <trkpt lat="45.04849" lon="5.74458">
        <ele>1164.2</ele>
        <time>2021-05-29T09:00:33Z</time>
      </trkpt>
      <trkpt lat="45.04849" lon="5.7446">
        <ele>1164</ele>
        <time>2021-05-29T09:00:34Z</time>
      </trkpt>
      <trkpt lat="45.04848" lon="5.74461">
        <ele>1163.2</ele>
        <time>2021-05-29T09:00:35Z</time>
      </trkpt>
      <trkpt lat="45.04848" lon="5.74462">
        <ele>1162.4</ele>
        <time>2021-05-29T09:00:36Z</time>
      </trkpt>
      <trkpt lat="45.04847" lon="5.74464">
        <ele>1161.8</ele>
        <time>2021-05-29T09:00:37Z</time>
      </trkpt>
      <trkpt lat="45.04846" lon="5.74465">
        <ele>1160.8</ele>
        <time>2021-05-29T09:00:38Z</time>
      </trkpt>
      <trkpt lat="45.04846" lon="5.74467">
        <ele>1160.8</ele>
        <time>2021-05-29T09:00:39Z</time>
      </trkpt>
      <trkpt lat="45.04847" lon="5.74469">
        <ele>1160.2</ele>
        <time>2021-05-29T09:00:40Z</time>
      </trkpt>
      <trkpt lat="45.04847" lon="5.7447">
        <ele>1160</ele>
        <time>2021-05-29T09:00:41Z</time>
      </trkpt>
      <trkpt lat="45.04847" lon="5.74472">
        <ele>1159</ele>
        <time>2021-05-29T09:00:42Z</time>
      </trkpt>
      <trkpt lat="45.04847" lon="5.74474">
        <ele>1158.2</ele>
        <time>2021-05-29T09:00:43Z</time>
      </trkpt>
      <trkpt lat="45.04847" lon="5.74475">
        <ele>1157.8</ele>
        <time>2021-05-29T09:00:44Z</time>
      </trkpt>
      <trkpt lat="45.04847" lon="5.74477">
        <ele>1157.2</ele>
        <time>2021-05-29T09:00:45Z</time>
      </trkpt>
      <trkpt lat="45.04847" lon="5.74479">
        <ele>1156.8</ele>
        <time>2021-05-29T09:00:46Z</time>
      </trkpt>
      <trkpt lat="45.04849" lon="5.74482">
        <ele>1156</ele>
        <time>2021-05-29T09:00:47Z</time>
      </trkpt>
      <trkpt lat="45.0485" lon="5.74485">
        <ele>1155.4</ele>
        <time>2021-05-29T09:00:48Z</time>
      </trkpt>
      <trkpt lat="45.04851" lon="5.74489">
        <ele>1154.6</ele>
        <time>2021-05-29T09:00:49Z</time>
      </trkpt>
      <trkpt lat="45.04852" lon="5.74492">
        <ele>1153.6</ele>
        <time>2021-05-29T09:00:50Z</time>
      </trkpt>
      <trkpt lat="45.04854" lon="5.74494">
        <ele>1153.4</ele>
        <time>2021-05-29T09:00:51Z</time>
      </trkpt>
      <trkpt lat="45.04855" lon="5.74495">
        <ele>1152.6</ele>
        <time>2021-05-29T09:00:52Z</time>
      </trkpt>
      <trkpt lat="45.04856" lon="5.74497">
        <ele>1151.8</ele>
        <time>2021-05-29T09:00:53Z</time>
      </trkpt>
      <trkpt lat="45.04857" lon="5.74499">
        <ele>1151.6</ele>
        <time>2021-05-29T09:00:54Z</time>
      </trkpt>
      <trkpt lat="45.04858" lon="5.745">
        <ele>1151</ele>
        <time>2021-05-29T09:00:55Z</time>
      </trkpt>
      <trkpt lat="45.04859" lon="5.74502">
        <ele>1150.8</ele>
        <time>2021-05-29T09:00:56Z</time>
      </trkpt>
      <trkpt lat="45.04861" lon="5.74503">
        <ele>1150.4</ele>
        <time>2021-05-29T09:00:57Z</time>
      </trkpt>
      <trkpt lat="45.04862" lon="5.74503">
        <ele>1150.2</ele>
        <time>2021-05-29T09:00:58Z</time>
      </trkpt>
      <trkpt lat="45.04863" lon="5.74504">
        <ele>1149</ele>
        <time>2021-05-29T09:00:59Z</time>
      </trkpt>
      <trkpt lat="45.04865" lon="5.74505">
        <ele>1148.4</ele>
        <time>2021-05-29T09:01:00Z</time>
      </trkpt>
      <trkpt lat="45.04866" lon="5.74506">
        <ele>1147.6</ele>
        <time>2021-05-29T09:01:01Z</time>
      </trkpt>
      <trkpt lat="45.04867" lon="5.74506">
        <ele>1146.6</ele>
        <time>2021-05-29T09:01:02Z</time>
      </trkpt>
      <trkpt lat="45.04869" lon="5.74507">
        <ele>1145.8</ele>
        <time>2021-05-29T09:01:03Z</time>
      </trkpt>
      <trkpt lat="45.04871" lon="5.74503">
        <ele>1145</ele>
        <time>2021-05-29T09:01:04Z</time>
      </trkpt>
      <trkpt lat="45.04872" lon="5.74499">
        <ele>1144.6</ele>
        <time>2021-05-29T09:01:05Z</time>
      </trkpt>
      <trkpt lat="45.04874" lon="5.74496">
        <ele>1144.2</ele>
        <time>2021-05-29T09:01:06Z</time>
      </trkpt>
      <trkpt lat="45.04876" lon="5.74492">
        <ele>1143.2</ele>
        <time>2021-05-29T09:01:08Z</time>
      </trkpt>
      <trkpt lat="45.04878" lon="5.74488">
        <ele>1142.8</ele>
        <time>2021-05-29T09:01:09Z</time>
      </trkpt>
      <trkpt lat="45.0488" lon="5.74484">
        <ele>1142</ele>
        <time>2021-05-29T09:01:10Z</time>
      </trkpt>
      <trkpt lat="45.04881" lon="5.74477">
        <ele>1141.6</ele>
        <time>2021-05-29T09:01:11Z</time>
      </trkpt>
      <trkpt lat="45.04881" lon="5.74477">
        <ele>1141</ele>
        <time>2021-05-29T09:01:12Z</time>
      </trkpt>
      <trkpt lat="45.04881" lon="5.74476">
        <ele>1140</ele>
        <time>2021-05-29T09:01:13Z</time>
      </trkpt>
      <trkpt lat="45.04882" lon="5.74475">
        <ele>1139.6</ele>
        <time>2021-05-29T09:01:14Z</time>
      </trkpt>
      <trkpt lat="45.04882" lon="5.74474">
        <ele>1139</ele>
        <time>2021-05-29T09:01:15Z</time>
      </trkpt>
      <trkpt lat="45.04883" lon="5.74473">
        <ele>1138.4</ele>
        <time>2021-05-29T09:01:16Z</time>
      </trkpt>
      <trkpt lat="45.04883" lon="5.74472">
        <ele>1138</ele>
        <time>2021-05-29T09:01:17Z</time>
      </trkpt>
      <trkpt lat="45.04884" lon="5.74471">
        <ele>1137.4</ele>
        <time>2021-05-29T09:01:18Z</time>
      </trkpt>
      <trkpt lat="45.04884" lon="5.7447">
        <ele>1136.8</ele>
        <time>2021-05-29T09:01:19Z</time>
      </trkpt>
      <trkpt lat="45.04885" lon="5.74469">
        <ele>1136.2</ele>
        <time>2021-05-29T09:01:20Z</time>
      </trkpt>
      <trkpt lat="45.04885" lon="5.74468">
        <ele>1135.4</ele>
        <time>2021-05-29T09:01:21Z</time>
      </trkpt>
      <trkpt lat="45.04886" lon="5.74467">
        <ele>1135.2</ele>
        <time>2021-05-29T09:01:22Z</time>
      </trkpt>
      <trkpt lat="45.04886" lon="5.74466">
        <ele>1134.2</ele>
        <time>2021-05-29T09:01:23Z</time>
      </trkpt>
      <trkpt lat="45.04887" lon="5.7447">
        <ele>1133.8</ele>
        <time>2021-05-29T09:01:24Z</time>
      </trkpt>
      <trkpt lat="45.04888" lon="5.74474">
        <ele>1133.2</ele>
        <time>2021-05-29T09:01:25Z</time>
      </trkpt>
      <trkpt lat="45.04889" lon="5.74478">
        <ele>1132.6</ele>
        <time>2021-05-29T09:01:26Z</time>
      </trkpt>
      <trkpt lat="45.0489" lon="5.74482">
        <ele>1131.6</ele>
        <time>2021-05-29T09:01:27Z</time>
      </trkpt>
      <trkpt lat="45.04893" lon="5.74485">
        <ele>1131.4</ele>
        <time>2021-05-29T09:01:28Z</time>
      </trkpt>
      <trkpt lat="45.04896" lon="5.74488">
        <ele>1131</ele>
        <time>2021-05-29T09:01:29Z</time>
      </trkpt>
      <trkpt lat="45.04899" lon="5.7449">
        <ele>1130.2</ele>
        <time>2021-05-29T09:01:30Z</time>
      </trkpt>
      <trkpt lat="45.04901" lon="5.74493">
        <ele>1129.4</ele>
        <time>2021-05-29T09:01:31Z</time>
      </trkpt>
      <trkpt lat="45.04904" lon="5.74496">
        <ele>1128.8</ele>
        <time>2021-05-29T09:01:32Z</time>
      </trkpt>
      <trkpt lat="45.04909" lon="5.74498">
        <ele>1128</ele>
        <time>2021-05-29T09:01:33Z</time>
      </trkpt>
      <trkpt lat="45.04909" lon="5.74498">
        <ele>1128</ele>
        <time>2021-05-29T09:01:34Z</time>
      </trkpt>
      <trkpt lat="45.04909" lon="5.74498">
        <ele>1127.6</ele>
        <time>2021-05-29T09:01:35Z</time>
      </trkpt>
      <trkpt lat="45.04911" lon="5.745">
        <ele>1127.2</ele>
        <time>2021-05-29T09:01:36Z</time>
      </trkpt>
      <trkpt lat="45.04912" lon="5.74503">
        <ele>1126.8</ele>
        <time>2021-05-29T09:01:37Z</time>
      </trkpt>
      <trkpt lat="45.04914" lon="5.74505">
        <ele>1126.4</ele>
        <time>2021-05-29T09:01:38Z</time>
      </trkpt>
      <trkpt lat="45.04915" lon="5.74507">
        <ele>1125.6</ele>
        <time>2021-05-29T09:01:39Z</time>
      </trkpt>
      <trkpt lat="45.04918" lon="5.7452">
        <ele>1124.8</ele>
        <time>2021-05-29T09:01:40Z</time>
      </trkpt>
      <trkpt lat="45.04918" lon="5.7452">
        <ele>1124.2</ele>
        <time>2021-05-29T09:01:41Z</time>
      </trkpt>
      <trkpt lat="45.04918" lon="5.7452">
        <ele>1123.8</ele>
        <time>2021-05-29T09:01:42Z</time>
      </trkpt>
      <trkpt lat="45.04919" lon="5.74522">
        <ele>1123</ele>
        <time>2021-05-29T09:01:43Z</time>
      </trkpt>
      <trkpt lat="45.04919" lon="5.74524">
        <ele>1122.6</ele>
        <time>2021-05-29T09:01:44Z</time>
      </trkpt>
      <trkpt lat="45.0492" lon="5.74526">
        <ele>1122.2</ele>
        <time>2021-05-29T09:01:45Z</time>
      </trkpt>
      <trkpt lat="45.0492" lon="5.74528">
        <ele>1121.8</ele>
        <time>2021-05-29T09:01:46Z</time>
      </trkpt>
      <trkpt lat="45.04921" lon="5.7453">
        <ele>1121.2</ele>
        <time>2021-05-29T09:01:47Z</time>
      </trkpt>
      <trkpt lat="45.04921" lon="5.74532">
        <ele>1120.6</ele>
        <time>2021-05-29T09:01:48Z</time>
      </trkpt>
      <trkpt lat="45.04921" lon="5.74534">
        <ele>1120</ele>
        <time>2021-05-29T09:01:49Z</time>
      </trkpt>
      <trkpt lat="45.0492" lon="5.74535">
        <ele>1119</ele>
        <time>2021-05-29T09:01:50Z</time>
      </trkpt>
      <trkpt lat="45.0492" lon="5.74537">
        <ele>1118.6</ele>
        <time>2021-05-29T09:01:51Z</time>
      </trkpt>
      <trkpt lat="45.0492" lon="5.74538">
        <ele>1118.2</ele>
        <time>2021-05-29T09:01:52Z</time>
      </trkpt>
      <trkpt lat="45.04919" lon="5.7454">
        <ele>1117.8</ele>
        <time>2021-05-29T09:01:53Z</time>
      </trkpt>
      <trkpt lat="45.04919" lon="5.74541">
        <ele>1117.4</ele>
        <time>2021-05-29T09:01:54Z</time>
      </trkpt>
      <trkpt lat="45.04919" lon="5.74543">
        <ele>1116.6</ele>
        <time>2021-05-29T09:01:55Z</time>
      </trkpt>
      <trkpt lat="45.04918" lon="5.74544">
        <ele>1116</ele>
        <time>2021-05-29T09:01:56Z</time>
      </trkpt>
      <trkpt lat="45.04918" lon="5.74546">
        <ele>1115.8</ele>
        <time>2021-05-29T09:01:57Z</time>
      </trkpt>
      <trkpt lat="45.04917" lon="5.74548">
        <ele>1115</ele>
        <time>2021-05-29T09:01:58Z</time>
      </trkpt>
      <trkpt lat="45.04916" lon="5.74549">
        <ele>1114.2</ele>
        <time>2021-05-29T09:01:59Z</time>
      </trkpt>
      <trkpt lat="45.04915" lon="5.74551">
        <ele>1114</ele>
        <time>2021-05-29T09:02:00Z</time>
      </trkpt>
      <trkpt lat="45.04914" lon="5.74553">
        <ele>1113.2</ele>
        <time>2021-05-29T09:02:01Z</time>
      </trkpt>
      <trkpt lat="45.04914" lon="5.74555">
        <ele>1112</ele>
        <time>2021-05-29T09:02:02Z</time>
      </trkpt>
      <trkpt lat="45.04913" lon="5.74556">
        <ele>1112</ele>
        <time>2021-05-29T09:02:03Z</time>
      </trkpt>
      <trkpt lat="45.04912" lon="5.74558">
        <ele>1111.4</ele>
        <time>2021-05-29T09:02:04Z</time>
      </trkpt>
      <trkpt lat="45.04912" lon="5.7456">
        <ele>1111</ele>
        <time>2021-05-29T09:02:05Z</time>
      </trkpt>
      <trkpt lat="45.04911" lon="5.74562">
        <ele>1110.2</ele>
        <time>2021-05-29T09:02:06Z</time>
      </trkpt>
      <trkpt lat="45.04911" lon="5.74564">
        <ele>1109.2</ele>
        <time>2021-05-29T09:02:07Z</time>
      </trkpt>
      <trkpt lat="45.0491" lon="5.74566">
        <ele>1108.6</ele>
        <time>2021-05-29T09:02:08Z</time>
      </trkpt>
      <trkpt lat="45.0491" lon="5.74568">
        <ele>1108</ele>
        <time>2021-05-29T09:02:09Z</time>
      </trkpt>
      <trkpt lat="45.04909" lon="5.7457">
        <ele>1107.8</ele>
        <time>2021-05-29T09:02:10Z</time>
      </trkpt>
      <trkpt lat="45.04909" lon="5.74571">
        <ele>1107.2</ele>
        <time>2021-05-29T09:02:11Z</time>
      </trkpt>
      <trkpt lat="45.04909" lon="5.7457">
        <ele>1106.4</ele>
        <time>2021-05-29T09:02:12Z</time>
      </trkpt>
      <trkpt lat="45.04909" lon="5.74568">
        <ele>1106</ele>
        <time>2021-05-29T09:02:13Z</time>
      </trkpt>
      <trkpt lat="45.0491" lon="5.74566">
        <ele>1105.6</ele>
        <time>2021-05-29T09:02:14Z</time>
      </trkpt>
      <trkpt lat="45.0491" lon="5.74564">
        <ele>1105</ele>
        <time>2021-05-29T09:02:15Z</time>
      </trkpt>
      <trkpt lat="45.0491" lon="5.74562">
        <ele>1104.8</ele>
        <time>2021-05-29T09:02:16Z</time>
      </trkpt>
      <trkpt lat="45.0491" lon="5.7456">
        <ele>1104.6</ele>
        <time>2021-05-29T09:02:17Z</time>
      </trkpt>
      <trkpt lat="45.04911" lon="5.74558">
        <ele>1104.2</ele>
        <time>2021-05-29T09:02:18Z</time>
      </trkpt>
      <trkpt lat="45.04912" lon="5.74558">
        <ele>1103.8</ele>
        <time>2021-05-29T09:02:19Z</time>
      </trkpt>
      <trkpt lat="45.04913" lon="5.74559">
        <ele>1103.2</ele>
        <time>2021-05-29T09:02:20Z</time>
      </trkpt>
      <trkpt lat="45.04915" lon="5.74559">
        <ele>1102.8</ele>
        <time>2021-05-29T09:02:21Z</time>
      </trkpt>
      <trkpt lat="45.04916" lon="5.7456">
        <ele>1102</ele>
        <time>2021-05-29T09:02:22Z</time>
      </trkpt>
      <trkpt lat="45.04918" lon="5.7456">
        <ele>1101.2</ele>
        <time>2021-05-29T09:02:23Z</time>
      </trkpt>
      <trkpt lat="45.04919" lon="5.7456">
        <ele>1101</ele>
        <time>2021-05-29T09:02:24Z</time>
      </trkpt>
      <trkpt lat="45.0492" lon="5.74561">
        <ele>1100.4</ele>
        <time>2021-05-29T09:02:25Z</time>
      </trkpt>
      <trkpt lat="45.04922" lon="5.74561">
        <ele>1100</ele>
        <time>2021-05-29T09:02:26Z</time>
      </trkpt>
      <trkpt lat="45.04923" lon="5.74563">
        <ele>1099.2</ele>
        <time>2021-05-29T09:02:27Z</time>
      </trkpt>
      <trkpt lat="45.04925" lon="5.74564">
        <ele>1098.8</ele>
        <time>2021-05-29T09:02:28Z</time>
      </trkpt>
      <trkpt lat="45.04926" lon="5.74565">
        <ele>1098.2</ele>
        <time>2021-05-29T09:02:29Z</time>
      </trkpt>
      <trkpt lat="45.04928" lon="5.74567">
        <ele>1097.8</ele>
        <time>2021-05-29T09:02:30Z</time>
      </trkpt>
      <trkpt lat="45.0493" lon="5.74568">
        <ele>1097.2</ele>
        <time>2021-05-29T09:02:31Z</time>
      </trkpt>
      <trkpt lat="45.04931" lon="5.74569">
        <ele>1096.6</ele>
        <time>2021-05-29T09:02:32Z</time>
      </trkpt>
      <trkpt lat="45.04933" lon="5.7457">
        <ele>1096.4</ele>
        <time>2021-05-29T09:02:33Z</time>
      </trkpt>
      <trkpt lat="45.04934" lon="5.7457">
        <ele>1095.4</ele>
        <time>2021-05-29T09:02:34Z</time>
      </trkpt>
      <trkpt lat="45.04936" lon="5.74571">
        <ele>1094.8</ele>
        <time>2021-05-29T09:02:35Z</time>
      </trkpt>
      <trkpt lat="45.04937" lon="5.74572">
        <ele>1094.2</ele>
        <time>2021-05-29T09:02:36Z</time>
      </trkpt>
      <trkpt lat="45.04939" lon="5.74572">
        <ele>1093.6</ele>
        <time>2021-05-29T09:02:37Z</time>
      </trkpt>
      <trkpt lat="45.0494" lon="5.74573">
        <ele>1092.6</ele>
        <time>2021-05-29T09:02:38Z</time>
      </trkpt>
      <trkpt lat="45.04942" lon="5.74574">
        <ele>1092.4</ele>
        <time>2021-05-29T09:02:39Z</time>
      </trkpt>
      <trkpt lat="45.04945" lon="5.74575">
        <ele>1092.2</ele>
        <time>2021-05-29T09:02:40Z</time>
      </trkpt>
      <trkpt lat="45.04947" lon="5.74577">
        <ele>1091.8</ele>
        <time>2021-05-29T09:02:41Z</time>
      </trkpt>
      <trkpt lat="45.04949" lon="5.74578">
        <ele>1091.4</ele>
        <time>2021-05-29T09:02:42Z</time>
      </trkpt>
      <trkpt lat="45.04951" lon="5.74579">
        <ele>1090.8</ele>
        <time>2021-05-29T09:02:43Z</time>
      </trkpt>
      <trkpt lat="45.04952" lon="5.74581">
        <ele>1090.4</ele>
        <time>2021-05-29T09:02:44Z</time>
      </trkpt>
      <trkpt lat="45.04954" lon="5.74582">
        <ele>1090</ele>
        <time>2021-05-29T09:02:45Z</time>
      </trkpt>
      <trkpt lat="45.04956" lon="5.74583">
        <ele>1089.6</ele>
        <time>2021-05-29T09:02:46Z</time>
      </trkpt>
      <trkpt lat="45.04958" lon="5.74585">
        <ele>1089.2</ele>
        <time>2021-05-29T09:02:47Z</time>
      </trkpt>
      <trkpt lat="45.04957" lon="5.74593">
        <ele>1088.2</ele>
        <time>2021-05-29T09:02:48Z</time>
      </trkpt>
      <trkpt lat="45.04956" lon="5.746">
        <ele>1087.6</ele>
        <time>2021-05-29T09:02:49Z</time>
      </trkpt>
      <trkpt lat="45.04954" lon="5.74608">
        <ele>1087.4</ele>
        <time>2021-05-29T09:02:50Z</time>
      </trkpt>
      <trkpt lat="45.04953" lon="5.74615">
        <ele>1086.8</ele>
        <time>2021-05-29T09:02:51Z</time>
      </trkpt>
      <trkpt lat="45.04953" lon="5.74615">
        <ele>1086</ele>
        <time>2021-05-29T09:02:52Z</time>
      </trkpt>
      <trkpt lat="45.04953" lon="5.74615">
        <ele>1086</ele>
        <time>2021-05-29T09:02:53Z</time>
      </trkpt>
      <trkpt lat="45.04953" lon="5.74618">
        <ele>1085.4</ele>
        <time>2021-05-29T09:02:54Z</time>
      </trkpt>
      <trkpt lat="45.04953" lon="5.74621">
        <ele>1084.8</ele>
        <time>2021-05-29T09:02:55Z</time>
      </trkpt>
      <trkpt lat="45.04954" lon="5.74624">
        <ele>1084.4</ele>
        <time>2021-05-29T09:02:56Z</time>
      </trkpt>
      <trkpt lat="45.04954" lon="5.74627">
        <ele>1084</ele>
        <time>2021-05-29T09:02:57Z</time>
      </trkpt>
      <trkpt lat="45.04954" lon="5.7463">
        <ele>1083.4</ele>
        <time>2021-05-29T09:02:58Z</time>
      </trkpt>
      <trkpt lat="45.04954" lon="5.74631">
        <ele>1083</ele>
        <time>2021-05-29T09:02:59Z</time>
      </trkpt>
      <trkpt lat="45.04954" lon="5.74633">
        <ele>1082.8</ele>
        <time>2021-05-29T09:03:00Z</time>
      </trkpt>
      <trkpt lat="45.04955" lon="5.74634">
        <ele>1082.2</ele>
        <time>2021-05-29T09:03:01Z</time>
      </trkpt>
      <trkpt lat="45.04955" lon="5.74635">
        <ele>1081.6</ele>
        <time>2021-05-29T09:03:02Z</time>
      </trkpt>
      <trkpt lat="45.04955" lon="5.74637">
        <ele>1080.8</ele>
        <time>2021-05-29T09:03:03Z</time>
      </trkpt>
      <trkpt lat="45.04955" lon="5.74638">
        <ele>1080.8</ele>
        <time>2021-05-29T09:03:04Z</time>
      </trkpt>
      <trkpt lat="45.04956" lon="5.7464">
        <ele>1080.2</ele>
        <time>2021-05-29T09:03:05Z</time>
      </trkpt>
      <trkpt lat="45.04956" lon="5.74641">
        <ele>1079.8</ele>
        <time>2021-05-29T09:03:06Z</time>
      </trkpt>
      <trkpt lat="45.04956" lon="5.74643">
        <ele>1079.2</ele>
        <time>2021-05-29T09:03:07Z</time>
      </trkpt>
      <trkpt lat="45.04954" lon="5.74645">
        <ele>1078.8</ele>
        <time>2021-05-29T09:03:08Z</time>
      </trkpt>
      <trkpt lat="45.04952" lon="5.74646">
        <ele>1078.2</ele>
        <time>2021-05-29T09:03:09Z</time>
      </trkpt>
      <trkpt lat="45.04951" lon="5.74648">
        <ele>1077.6</ele>
        <time>2021-05-29T09:03:10Z</time>
      </trkpt>
      <trkpt lat="45.04949" lon="5.7465">
        <ele>1077.6</ele>
        <time>2021-05-29T09:03:11Z</time>
      </trkpt>
      <trkpt lat="45.04947" lon="5.74652">
        <ele>1077.4</ele>
        <time>2021-05-29T09:03:12Z</time>
      </trkpt>
      <trkpt lat="45.04945" lon="5.74654">
        <ele>1077.2</ele>
        <time>2021-05-29T09:03:13Z</time>
      </trkpt>
      <trkpt lat="45.04943" lon="5.74656">
        <ele>1076.8</ele>
        <time>2021-05-29T09:03:14Z</time>
      </trkpt>
      <trkpt lat="45.04941" lon="5.74658">
        <ele>1076.6</ele>
        <time>2021-05-29T09:03:15Z</time>
      </trkpt>
      <trkpt lat="45.04939" lon="5.7466">
        <ele>1076.4</ele>
        <time>2021-05-29T09:03:16Z</time>
      </trkpt>
      <trkpt lat="45.04937" lon="5.74662">
        <ele>1076.4</ele>
        <time>2021-05-29T09:03:17Z</time>
      </trkpt>
      <trkpt lat="45.04935" lon="5.74663">
        <ele>1076.4</ele>
        <time>2021-05-29T09:03:18Z</time>
      </trkpt>
      <trkpt lat="45.04934" lon="5.74665">
        <ele>1076.6</ele>
        <time>2021-05-29T09:03:19Z</time>
      </trkpt>
      <trkpt lat="45.04932" lon="5.74667">
        <ele>1076.4</ele>
        <time>2021-05-29T09:03:20Z</time>
      </trkpt>
      <trkpt lat="45.0493" lon="5.74669">
        <ele>1076.2</ele>
        <time>2021-05-29T09:03:21Z</time>
      </trkpt>
      <trkpt lat="45.04928" lon="5.74671">
        <ele>1076.2</ele>
        <time>2021-05-29T09:03:22Z</time>
      </trkpt>
      <trkpt lat="45.04926" lon="5.74673">
        <ele>1076.2</ele>
        <time>2021-05-29T09:03:23Z</time>
      </trkpt>
      <trkpt lat="45.04924" lon="5.74675">
        <ele>1076.4</ele>
        <time>2021-05-29T09:03:24Z</time>
      </trkpt>
      <trkpt lat="45.04922" lon="5.74677">
        <ele>1076.2</ele>
        <time>2021-05-29T09:03:25Z</time>
      </trkpt>
      <trkpt lat="45.0492" lon="5.74679">
        <ele>1076.2</ele>
        <time>2021-05-29T09:03:26Z</time>
      </trkpt>
      <trkpt lat="45.04919" lon="5.74669">
        <ele>1076.2</ele>
        <time>2021-05-29T09:03:27Z</time>
      </trkpt>
      <trkpt lat="45.04917" lon="5.74659">
        <ele>1076.2</ele>
        <time>2021-05-29T09:03:28Z</time>
      </trkpt>
      <trkpt lat="45.0492" lon="5.74652">
        <ele>1076.2</ele>
        <time>2021-05-29T09:03:29Z</time>
      </trkpt>
      <trkpt lat="45.04922" lon="5.74649">
        <ele>1076.2</ele>
        <time>2021-05-29T09:03:30Z</time>
      </trkpt>
      <trkpt lat="45.04924" lon="5.74646">
        <ele>1076.4</ele>
        <time>2021-05-29T09:03:31Z</time>
      </trkpt>
      <trkpt lat="45.04927" lon="5.7464">
        <ele>1076.4</ele>
        <time>2021-05-29T09:03:32Z</time>
      </trkpt>
      <trkpt lat="45.04927" lon="5.7464">
        <ele>1076.2</ele>
        <time>2021-05-29T09:03:33Z</time>
      </trkpt>
      <trkpt lat="45.04928" lon="5.74641">
        <ele>1076</ele>
        <time>2021-05-29T09:03:34Z</time>
      </trkpt>
      <trkpt lat="45.04929" lon="5.74643">
        <ele>1075.8</ele>
        <time>2021-05-29T09:03:35Z</time>
      </trkpt>
      <trkpt lat="45.04929" lon="5.74644">
        <ele>1075.2</ele>
        <time>2021-05-29T09:03:36Z</time>
      </trkpt>
      <trkpt lat="45.0493" lon="5.74646">
        <ele>1075.2</ele>
        <time>2021-05-29T09:03:37Z</time>
      </trkpt>
      <trkpt lat="45.04931" lon="5.74647">
        <ele>1075</ele>
        <time>2021-05-29T09:03:38Z</time>
      </trkpt>
      <trkpt lat="45.04931" lon="5.74649">
        <ele>1074.8</ele>
        <time>2021-05-29T09:03:39Z</time>
      </trkpt>
      <trkpt lat="45.04932" lon="5.7465">
        <ele>1074.4</ele>
        <time>2021-05-29T09:03:40Z</time>
      </trkpt>
      <trkpt lat="45.04933" lon="5.74652">
        <ele>1074.2</ele>
        <time>2021-05-29T09:03:41Z</time>
      </trkpt>
      <trkpt lat="45.04933" lon="5.74657">
        <ele>1073.8</ele>
        <time>2021-05-29T09:03:42Z</time>
      </trkpt>
      <trkpt lat="45.04934" lon="5.74662">
        <ele>1073.6</ele>
        <time>2021-05-29T09:03:43Z</time>
      </trkpt>
      <trkpt lat="45.04935" lon="5.74667">
        <ele>1073</ele>
        <time>2021-05-29T09:03:44Z</time>
      </trkpt>
      <trkpt lat="45.04935" lon="5.74672">
        <ele>1072.4</ele>
        <time>2021-05-29T09:03:45Z</time>
      </trkpt>
      <trkpt lat="45.04935" lon="5.74672">
        <ele>1072</ele>
        <time>2021-05-29T09:03:46Z</time>
      </trkpt>
      <trkpt lat="45.04935" lon="5.74672">
        <ele>1071.6</ele>
        <time>2021-05-29T09:03:47Z</time>
      </trkpt>
      <trkpt lat="45.04936" lon="5.74672">
        <ele>1071</ele>
        <time>2021-05-29T09:03:48Z</time>
      </trkpt>
      <trkpt lat="45.04936" lon="5.74672">
        <ele>1070.4</ele>
        <time>2021-05-29T09:03:49Z</time>
      </trkpt>
      <trkpt lat="45.04937" lon="5.74672">
        <ele>1069.6</ele>
        <time>2021-05-29T09:03:50Z</time>
      </trkpt>
      <trkpt lat="45.04937" lon="5.74672">
        <ele>1069.2</ele>
        <time>2021-05-29T09:03:51Z</time>
      </trkpt>
      <trkpt lat="45.04938" lon="5.74672">
        <ele>1068.4</ele>
        <time>2021-05-29T09:03:52Z</time>
      </trkpt>
      <trkpt lat="45.04938" lon="5.74672">
        <ele>1068</ele>
        <time>2021-05-29T09:03:53Z</time>
      </trkpt>
      <trkpt lat="45.04939" lon="5.74672">
        <ele>1067.4</ele>
        <time>2021-05-29T09:03:54Z</time>
      </trkpt>
      <trkpt lat="45.04939" lon="5.74672">
        <ele>1066.8</ele>
        <time>2021-05-29T09:03:55Z</time>
      </trkpt>
      <trkpt lat="45.0494" lon="5.74672">
        <ele>1066.2</ele>
        <time>2021-05-29T09:03:56Z</time>
      </trkpt>
      <trkpt lat="45.0494" lon="5.74672">
        <ele>1065.4</ele>
        <time>2021-05-29T09:03:57Z</time>
      </trkpt>
      <trkpt lat="45.04941" lon="5.74672">
        <ele>1065.4</ele>
        <time>2021-05-29T09:03:58Z</time>
      </trkpt>
      <trkpt lat="45.04941" lon="5.74672">
        <ele>1064.6</ele>
        <time>2021-05-29T09:03:59Z</time>
      </trkpt>
      <trkpt lat="45.04942" lon="5.74672">
        <ele>1064.2</ele>
        <time>2021-05-29T09:04:00Z</time>
      </trkpt>
      <trkpt lat="45.04942" lon="5.74672">
        <ele>1063.4</ele>
        <time>2021-05-29T09:04:01Z</time>
      </trkpt>
      <trkpt lat="45.04943" lon="5.74672">
        <ele>1062.8</ele>
        <time>2021-05-29T09:04:02Z</time>
      </trkpt>
      <trkpt lat="45.04943" lon="5.74672">
        <ele>1062.4</ele>
        <time>2021-05-29T09:04:03Z</time>
      </trkpt>
      <trkpt lat="45.04944" lon="5.74672">
        <ele>1061.6</ele>
        <time>2021-05-29T09:04:04Z</time>
      </trkpt>
      <trkpt lat="45.04944" lon="5.74672">
        <ele>1061.2</ele>
        <time>2021-05-29T09:04:05Z</time>
      </trkpt>
      <trkpt lat="45.04944" lon="5.74672">
        <ele>1060.8</ele>
        <time>2021-05-29T09:04:06Z</time>
      </trkpt>
      <trkpt lat="45.04945" lon="5.74672">
        <ele>1060.2</ele>
        <time>2021-05-29T09:04:07Z</time>
      </trkpt>
      <trkpt lat="45.04945" lon="5.74672">
        <ele>1059.4</ele>
        <time>2021-05-29T09:04:08Z</time>
      </trkpt>
      <trkpt lat="45.04947" lon="5.74671">
        <ele>1058.6</ele>
        <time>2021-05-29T09:04:09Z</time>
      </trkpt>
      <trkpt lat="45.04948" lon="5.74671">
        <ele>1058.4</ele>
        <time>2021-05-29T09:04:10Z</time>
      </trkpt>
      <trkpt lat="45.04949" lon="5.74671">
        <ele>1058</ele>
        <time>2021-05-29T09:04:11Z</time>
      </trkpt>
      <trkpt lat="45.04951" lon="5.74671">
        <ele>1057.2</ele>
        <time>2021-05-29T09:04:12Z</time>
      </trkpt>
      <trkpt lat="45.04952" lon="5.7467">
        <ele>1057</ele>
        <time>2021-05-29T09:04:13Z</time>
      </trkpt>
      <trkpt lat="45.04954" lon="5.7467">
        <ele>1056.6</ele>
        <time>2021-05-29T09:04:14Z</time>
      </trkpt>
      <trkpt lat="45.04955" lon="5.7467">
        <ele>1055.8</ele>
        <time>2021-05-29T09:04:15Z</time>
      </trkpt>
      <trkpt lat="45.04957" lon="5.74669">
        <ele>1055.4</ele>
        <time>2021-05-29T09:04:16Z</time>
      </trkpt>
      <trkpt lat="45.04959" lon="5.74669">
        <ele>1055.2</ele>
        <time>2021-05-29T09:04:17Z</time>
      </trkpt>
      <trkpt lat="45.04962" lon="5.74668">
        <ele>1054.6</ele>
        <time>2021-05-29T09:04:18Z</time>
      </trkpt>
      <trkpt lat="45.04964" lon="5.74668">
        <ele>1053.6</ele>
        <time>2021-05-29T09:04:19Z</time>
      </trkpt>
      <trkpt lat="45.04966" lon="5.74668">
        <ele>1053.6</ele>
        <time>2021-05-29T09:04:20Z</time>
      </trkpt>
      <trkpt lat="45.04968" lon="5.74668">
        <ele>1053.2</ele>
        <time>2021-05-29T09:04:21Z</time>
      </trkpt>
      <trkpt lat="45.04971" lon="5.74668">
        <ele>1052.4</ele>
        <time>2021-05-29T09:04:22Z</time>
      </trkpt>
      <trkpt lat="45.04973" lon="5.74668">
        <ele>1052.2</ele>
        <time>2021-05-29T09:04:23Z</time>
      </trkpt>
      <trkpt lat="45.04982" lon="5.74668">
        <ele>1051.8</ele>
        <time>2021-05-29T09:04:24Z</time>
      </trkpt>
      <trkpt lat="45.04982" lon="5.74668">
        <ele>1051.4</ele>
        <time>2021-05-29T09:04:25Z</time>
      </trkpt>
      <trkpt lat="45.04982" lon="5.74668">
        <ele>1050.6</ele>
        <time>2021-05-29T09:04:26Z</time>
      </trkpt>
      <trkpt lat="45.04985" lon="5.74668">
        <ele>1050.2</ele>
        <time>2021-05-29T09:04:27Z</time>
      </trkpt>
      <trkpt lat="45.04988" lon="5.74668">
        <ele>1050</ele>
        <time>2021-05-29T09:04:28Z</time>
      </trkpt>
      <trkpt lat="45.0499" lon="5.74667">
        <ele>1049.4</ele>
        <time>2021-05-29T09:04:29Z</time>
      </trkpt>
      <trkpt lat="45.04993" lon="5.74667">
        <ele>1048.6</ele>
        <time>2021-05-29T09:04:30Z</time>
      </trkpt>
      <trkpt lat="45.04995" lon="5.74666">
        <ele>1048.8</ele>
        <time>2021-05-29T09:04:31Z</time>
      </trkpt>
      <trkpt lat="45.04998" lon="5.74665">
        <ele>1048.2</ele>
        <time>2021-05-29T09:04:32Z</time>
      </trkpt>
      <trkpt lat="45.05" lon="5.74665">
        <ele>1047.6</ele>
        <time>2021-05-29T09:04:33Z</time>
      </trkpt>
      <trkpt lat="45.05002" lon="5.74664">
        <ele>1047.8</ele>
        <time>2021-05-29T09:04:34Z</time>
      </trkpt>
      <trkpt lat="45.05005" lon="5.74664">
        <ele>1047.4</ele>
        <time>2021-05-29T09:04:35Z</time>
      </trkpt>
      <trkpt lat="45.05008" lon="5.74663">
        <ele>1046.6</ele>
        <time>2021-05-29T09:04:36Z</time>
      </trkpt>
      <trkpt lat="45.05011" lon="5.74663">
        <ele>1046.4</ele>
        <time>2021-05-29T09:04:37Z</time>
      </trkpt>
      <trkpt lat="45.05014" lon="5.74663">
        <ele>1046</ele>
        <time>2021-05-29T09:04:38Z</time>
      </trkpt>
      <trkpt lat="45.05017" lon="5.74664">
        <ele>1045.8</ele>
        <time>2021-05-29T09:04:39Z</time>
      </trkpt>
      <trkpt lat="45.05019" lon="5.74664">
        <ele>1045.6</ele>
        <time>2021-05-29T09:04:40Z</time>
      </trkpt>
      <trkpt lat="45.05022" lon="5.74665">
        <ele>1045</ele>
        <time>2021-05-29T09:04:41Z</time>
      </trkpt>
      <trkpt lat="45.05025" lon="5.74666">
        <ele>1044.6</ele>
        <time>2021-05-29T09:04:42Z</time>
      </trkpt>
      <trkpt lat="45.05028" lon="5.74667">
        <ele>1044.4</ele>
        <time>2021-05-29T09:04:43Z</time>
      </trkpt>
      <trkpt lat="45.05031" lon="5.74668">
        <ele>1044.2</ele>
        <time>2021-05-29T09:04:44Z</time>
      </trkpt>
      <trkpt lat="45.05035" lon="5.7467">
        <ele>1044</ele>
        <time>2021-05-29T09:04:45Z</time>
      </trkpt>
      <trkpt lat="45.05035" lon="5.7467">
        <ele>1044</ele>
        <time>2021-05-29T09:04:46Z</time>
      </trkpt>
      <trkpt lat="45.05035" lon="5.7467">
        <ele>1044</ele>
        <time>2021-05-29T09:04:47Z</time>
      </trkpt>
      <trkpt lat="45.05038" lon="5.74672">
        <ele>1043.8</ele>
        <time>2021-05-29T09:04:48Z</time>
      </trkpt>
      <trkpt lat="45.05041" lon="5.74674">
        <ele>1043.6</ele>
        <time>2021-05-29T09:04:49Z</time>
      </trkpt>
      <trkpt lat="45.05044" lon="5.74676">
        <ele>1043.8</ele>
        <time>2021-05-29T09:04:50Z</time>
      </trkpt>
      <trkpt lat="45.05047" lon="5.74678">
        <ele>1043.8</ele>
        <time>2021-05-29T09:04:51Z</time>
      </trkpt>
      <trkpt lat="45.05049" lon="5.74677">
        <ele>1043.8</ele>
        <time>2021-05-29T09:04:52Z</time>
      </trkpt>
      <trkpt lat="45.05051" lon="5.74676">
        <ele>1044.2</ele>
        <time>2021-05-29T09:04:53Z</time>
      </trkpt>
      <trkpt lat="45.05053" lon="5.74676">
        <ele>1043.8</ele>
        <time>2021-05-29T09:04:54Z</time>
      </trkpt>
      <trkpt lat="45.05056" lon="5.74675">
        <ele>1043.8</ele>
        <time>2021-05-29T09:04:55Z</time>
      </trkpt>
      <trkpt lat="45.05058" lon="5.74674">
        <ele>1044</ele>
        <time>2021-05-29T09:04:56Z</time>
      </trkpt>
      <trkpt lat="45.0506" lon="5.74674">
        <ele>1044</ele>
        <time>2021-05-29T09:04:57Z</time>
      </trkpt>
      <trkpt lat="45.05062" lon="5.74673">
        <ele>1043.8</ele>
        <time>2021-05-29T09:04:58Z</time>
      </trkpt>
      <trkpt lat="45.05064" lon="5.74672">
        <ele>1044</ele>
        <time>2021-05-29T09:04:59Z</time>
      </trkpt>
      <trkpt lat="45.05067" lon="5.74671">
        <ele>1043.8</ele>
        <time>2021-05-29T09:05:00Z</time>
      </trkpt>
      <trkpt lat="45.05073" lon="5.74672">
        <ele>1043.8</ele>
        <time>2021-05-29T09:05:01Z</time>
      </trkpt>
      <trkpt lat="45.05073" lon="5.74672">
        <ele>1043.8</ele>
        <time>2021-05-29T09:05:02Z</time>
      </trkpt>
      <trkpt lat="45.05073" lon="5.74672">
        <ele>1043.8</ele>
        <time>2021-05-29T09:05:03Z</time>
      </trkpt>
      <trkpt lat="45.05073" lon="5.74672">
        <ele>1043.6</ele>
        <time>2021-05-29T09:05:04Z</time>
      </trkpt>
      <trkpt lat="45.05074" lon="5.7467">
        <ele>1043.8</ele>
        <time>2021-05-29T09:05:05Z</time>
      </trkpt>
      <trkpt lat="45.05075" lon="5.74668">
        <ele>1043.8</ele>
        <time>2021-05-29T09:05:06Z</time>
      </trkpt>
      <trkpt lat="45.05075" lon="5.74665">
        <ele>1043.6</ele>
        <time>2021-05-29T09:05:07Z</time>
      </trkpt>
      <trkpt lat="45.05076" lon="5.74663">
        <ele>1043.8</ele>
        <time>2021-05-29T09:05:08Z</time>
      </trkpt>
      <trkpt lat="45.05077" lon="5.74661">
        <ele>1043.8</ele>
        <time>2021-05-29T09:05:09Z</time>
      </trkpt>
      <trkpt lat="45.05077" lon="5.74661">
        <ele>1043.8</ele>
        <time>2021-05-29T09:05:10Z</time>
      </trkpt>
      <trkpt lat="45.05077" lon="5.74661">
        <ele>1043.8</ele>
        <time>2021-05-29T09:05:11Z</time>
      </trkpt>
      <trkpt lat="45.05078" lon="5.74661">
        <ele>1043.8</ele>
        <time>2021-05-29T09:05:12Z</time>
      </trkpt>
      <trkpt lat="45.05078" lon="5.74662">
        <ele>1043.8</ele>
        <time>2021-05-29T09:05:13Z</time>
      </trkpt>
      <trkpt lat="45.05078" lon="5.74662">
        <ele>1044</ele>
        <time>2021-05-29T09:05:14Z</time>
      </trkpt>
      <trkpt lat="45.05079" lon="5.74662">
        <ele>1044</ele>
        <time>2021-05-29T09:05:15Z</time>
      </trkpt>
      <trkpt lat="45.05079" lon="5.74662">
        <ele>1044</ele>
        <time>2021-05-29T09:05:16Z</time>
      </trkpt>
      <trkpt lat="45.05079" lon="5.74663">
        <ele>1044.2</ele>
        <time>2021-05-29T09:05:17Z</time>
      </trkpt>
      <trkpt lat="45.0508" lon="5.74663">
        <ele>1044.2</ele>
        <time>2021-05-29T09:05:18Z</time>
      </trkpt>
      <trkpt lat="45.0508" lon="5.74663">
        <ele>1044.2</ele>
        <time>2021-05-29T09:05:19Z</time>
      </trkpt>
      <trkpt lat="45.0508" lon="5.74663">
        <ele>1044.2</ele>
        <time>2021-05-29T09:05:20Z</time>
      </trkpt>
      <trkpt lat="45.05081" lon="5.74664">
        <ele>1044</ele>
        <time>2021-05-29T09:05:21Z</time>
      </trkpt>
      <trkpt lat="45.05081" lon="5.74664">
        <ele>1044</ele>
        <time>2021-05-29T09:05:22Z</time>
      </trkpt>
      <trkpt lat="45.05081" lon="5.74664">
        <ele>1043.8</ele>
        <time>2021-05-29T09:05:23Z</time>
      </trkpt>
      <trkpt lat="45.05082" lon="5.74664">
        <ele>1044</ele>
        <time>2021-05-29T09:05:24Z</time>
      </trkpt>
      <trkpt lat="45.05082" lon="5.74665">
        <ele>1043.6</ele>
        <time>2021-05-29T09:05:25Z</time>
      </trkpt>
      <trkpt lat="45.05082" lon="5.74665">
        <ele>1043.4</ele>
        <time>2021-05-29T09:05:26Z</time>
      </trkpt>
      <trkpt lat="45.05083" lon="5.74665">
        <ele>1043.4</ele>
        <time>2021-05-29T09:05:27Z</time>
      </trkpt>
      <trkpt lat="45.05083" lon="5.74665">
        <ele>1042.8</ele>
        <time>2021-05-29T09:05:28Z</time>
      </trkpt>
      <trkpt lat="45.05083" lon="5.74666">
        <ele>1042.2</ele>
        <time>2021-05-29T09:05:29Z</time>
      </trkpt>
      <trkpt lat="45.05084" lon="5.74666">
        <ele>1042</ele>
        <time>2021-05-29T09:05:30Z</time>
      </trkpt>
      <trkpt lat="45.05084" lon="5.74666">
        <ele>1041.8</ele>
        <time>2021-05-29T09:05:31Z</time>
      </trkpt>
      <trkpt lat="45.05084" lon="5.74666">
        <ele>1041.2</ele>
        <time>2021-05-29T09:05:32Z</time>
      </trkpt>
      <trkpt lat="45.05085" lon="5.74667">
        <ele>1041</ele>
        <time>2021-05-29T09:05:33Z</time>
      </trkpt>
      <trkpt lat="45.05085" lon="5.74667">
        <ele>1040.6</ele>
        <time>2021-05-29T09:05:34Z</time>
      </trkpt>
      <trkpt lat="45.05086" lon="5.74669">
        <ele>1040.6</ele>
        <time>2021-05-29T09:05:35Z</time>
      </trkpt>
      <trkpt lat="45.05087" lon="5.74671">
        <ele>1040.2</ele>
        <time>2021-05-29T09:05:36Z</time>
      </trkpt>
      <trkpt lat="45.05088" lon="5.74674">
        <ele>1040</ele>
        <time>2021-05-29T09:05:37Z</time>
      </trkpt>
      <trkpt lat="45.05089" lon="5.74676">
        <ele>1039.8</ele>
        <time>2021-05-29T09:05:38Z</time>
      </trkpt>
      <trkpt lat="45.0509" lon="5.74678">
        <ele>1039.4</ele>
        <time>2021-05-29T09:05:39Z</time>
      </trkpt>
      <trkpt lat="45.05092" lon="5.74679">
        <ele>1039</ele>
        <time>2021-05-29T09:05:40Z</time>
      </trkpt>
      <trkpt lat="45.05094" lon="5.7468">
        <ele>1038.4</ele>
        <time>2021-05-29T09:05:41Z</time>
      </trkpt>
      <trkpt lat="45.05095" lon="5.74681">
        <ele>1038</ele>
        <time>2021-05-29T09:05:42Z</time>
      </trkpt>
      <trkpt lat="45.05097" lon="5.74681">
        <ele>1037.6</ele>
        <time>2021-05-29T09:05:43Z</time>
      </trkpt>
      <trkpt lat="45.05099" lon="5.74682">
        <ele>1037.4</ele>
        <time>2021-05-29T09:05:44Z</time>
      </trkpt>
      <trkpt lat="45.05105" lon="5.7468">
        <ele>1036.8</ele>
        <time>2021-05-29T09:05:45Z</time>
      </trkpt>
      <trkpt lat="45.05111" lon="5.74678">
        <ele>1036.4</ele>
        <time>2021-05-29T09:05:46Z</time>
      </trkpt>
      <trkpt lat="45.05111" lon="5.74678">
        <ele>1035.6</ele>
        <time>2021-05-29T09:05:47Z</time>
      </trkpt>
      <trkpt lat="45.05113" lon="5.74679">
        <ele>1034.8</ele>
        <time>2021-05-29T09:05:48Z</time>
      </trkpt>
      <trkpt lat="45.05116" lon="5.74679">
        <ele>1034.2</ele>
        <time>2021-05-29T09:05:49Z</time>
      </trkpt>
      <trkpt lat="45.05118" lon="5.74679">
        <ele>1033.2</ele>
        <time>2021-05-29T09:05:50Z</time>
      </trkpt>
      <trkpt lat="45.05121" lon="5.74679">
        <ele>1032.4</ele>
        <time>2021-05-29T09:05:51Z</time>
      </trkpt>
      <trkpt lat="45.05124" lon="5.74678">
        <ele>1032.2</ele>
        <time>2021-05-29T09:05:52Z</time>
      </trkpt>
      <trkpt lat="45.05128" lon="5.74677">
        <ele>1031.6</ele>
        <time>2021-05-29T09:05:53Z</time>
      </trkpt>
      <trkpt lat="45.05132" lon="5.74676">
        <ele>1031</ele>
        <time>2021-05-29T09:05:54Z</time>
      </trkpt>
      <trkpt lat="45.05136" lon="5.74675">
        <ele>1030.2</ele>
        <time>2021-05-29T09:05:55Z</time>
      </trkpt>
      <trkpt lat="45.0514" lon="5.74675">
        <ele>1029.8</ele>
        <time>2021-05-29T09:05:56Z</time>
      </trkpt>
      <trkpt lat="45.0514" lon="5.74675">
        <ele>1029.2</ele>
        <time>2021-05-29T09:05:57Z</time>
      </trkpt>
      <trkpt lat="45.0514" lon="5.74675">
        <ele>1028.6</ele>
        <time>2021-05-29T09:05:58Z</time>
      </trkpt>
      <trkpt lat="45.05143" lon="5.74675">
        <ele>1028.2</ele>
        <time>2021-05-29T09:05:59Z</time>
      </trkpt>
      <trkpt lat="45.05145" lon="5.74675">
        <ele>1027.8</ele>
        <time>2021-05-29T09:06:00Z</time>
      </trkpt>
      <trkpt lat="45.05147" lon="5.74675">
        <ele>1027.2</ele>
        <time>2021-05-29T09:06:01Z</time>
      </trkpt>
      <trkpt lat="45.0515" lon="5.74675">
        <ele>1026.6</ele>
        <time>2021-05-29T09:06:02Z</time>
      </trkpt>
      <trkpt lat="45.05151" lon="5.74674">
        <ele>1026.2</ele>
        <time>2021-05-29T09:06:03Z</time>
      </trkpt>
      <trkpt lat="45.05153" lon="5.74672">
        <ele>1025.8</ele>
        <time>2021-05-29T09:06:04Z</time>
      </trkpt>
      <trkpt lat="45.05155" lon="5.74671">
        <ele>1025</ele>
        <time>2021-05-29T09:06:05Z</time>
      </trkpt>
      <trkpt lat="45.05157" lon="5.74669">
        <ele>1024.2</ele>
        <time>2021-05-29T09:06:06Z</time>
      </trkpt>
      <trkpt lat="45.05159" lon="5.74668">
        <ele>1023.4</ele>
        <time>2021-05-29T09:06:07Z</time>
      </trkpt>
      <trkpt lat="45.05161" lon="5.74668">
        <ele>1023</ele>
        <time>2021-05-29T09:06:08Z</time>
      </trkpt>
      <trkpt lat="45.05163" lon="5.74668">
        <ele>1022.6</ele>
        <time>2021-05-29T09:06:09Z</time>
      </trkpt>
      <trkpt lat="45.05165" lon="5.74669">
        <ele>1022</ele>
        <time>2021-05-29T09:06:10Z</time>
      </trkpt>
      <trkpt lat="45.05167" lon="5.74669">
        <ele>1021.4</ele>
        <time>2021-05-29T09:06:11Z</time>
      </trkpt>
      <trkpt lat="45.05168" lon="5.7467">
        <ele>1020.2</ele>
        <time>2021-05-29T09:06:12Z</time>
      </trkpt>
      <trkpt lat="45.05177" lon="5.74664">
        <ele>1020</ele>
        <time>2021-05-29T09:06:13Z</time>
      </trkpt>
      <trkpt lat="45.05177" lon="5.74664">
        <ele>1019.4</ele>
        <time>2021-05-29T09:06:14Z</time>
      </trkpt>
      <trkpt lat="45.05177" lon="5.74664">
        <ele>1018.6</ele>
        <time>2021-05-29T09:06:15Z</time>
      </trkpt>
      <trkpt lat="45.05179" lon="5.74662">
        <ele>1018.4</ele>
        <time>2021-05-29T09:06:16Z</time>
      </trkpt>
      <trkpt lat="45.05181" lon="5.7466">
        <ele>1018</ele>
        <time>2021-05-29T09:06:17Z</time>
      </trkpt>
      <trkpt lat="45.05184" lon="5.74657">
        <ele>1017.6</ele>
        <time>2021-05-29T09:06:18Z</time>
      </trkpt>
      <trkpt lat="45.05186" lon="5.74655">
        <ele>1016.8</ele>
        <time>2021-05-29T09:06:19Z</time>
      </trkpt>
      <trkpt lat="45.05188" lon="5.74655">
        <ele>1016.4</ele>
        <time>2021-05-29T09:06:20Z</time>
      </trkpt>
      <trkpt lat="45.0519" lon="5.74655">
        <ele>1016.2</ele>
        <time>2021-05-29T09:06:21Z</time>
      </trkpt>
      <trkpt lat="45.05192" lon="5.74655">
        <ele>1015.6</ele>
        <time>2021-05-29T09:06:22Z</time>
      </trkpt>
      <trkpt lat="45.05194" lon="5.74655">
        <ele>1015</ele>
        <time>2021-05-29T09:06:23Z</time>
      </trkpt>
      <trkpt lat="45.05196" lon="5.74654">
        <ele>1014.8</ele>
        <time>2021-05-29T09:06:24Z</time>
      </trkpt>
      <trkpt lat="45.052" lon="5.74654">
        <ele>1014.2</ele>
        <time>2021-05-29T09:06:25Z</time>
      </trkpt>
      <trkpt lat="45.05203" lon="5.74653">
        <ele>1013.6</ele>
        <time>2021-05-29T09:06:26Z</time>
      </trkpt>
      <trkpt lat="45.05205" lon="5.74652">
        <ele>1013.2</ele>
        <time>2021-05-29T09:06:27Z</time>
      </trkpt>
      <trkpt lat="45.05207" lon="5.74652">
        <ele>1012.8</ele>
        <time>2021-05-29T09:06:28Z</time>
      </trkpt>
      <trkpt lat="45.0521" lon="5.74651">
        <ele>1012.2</ele>
        <time>2021-05-29T09:06:29Z</time>
      </trkpt>
      <trkpt lat="45.05212" lon="5.7465">
        <ele>1011.4</ele>
        <time>2021-05-29T09:06:30Z</time>
      </trkpt>
      <trkpt lat="45.05214" lon="5.7465">
        <ele>1010.8</ele>
        <time>2021-05-29T09:06:31Z</time>
      </trkpt>
      <trkpt lat="45.05222" lon="5.74646">
        <ele>1009.6</ele>
        <time>2021-05-29T09:06:32Z</time>
      </trkpt>
      <trkpt lat="45.05224" lon="5.74646">
        <ele>1009.2</ele>
        <time>2021-05-29T09:06:33Z</time>
      </trkpt>
      <trkpt lat="45.05228" lon="5.74644">
        <ele>1009</ele>
        <time>2021-05-29T09:06:34Z</time>
      </trkpt>
      <trkpt lat="45.05228" lon="5.74644">
        <ele>1008.2</ele>
        <time>2021-05-29T09:06:35Z</time>
      </trkpt>
      <trkpt lat="45.05228" lon="5.74644">
        <ele>1007.8</ele>
        <time>2021-05-29T09:06:36Z</time>
      </trkpt>
      <trkpt lat="45.05229" lon="5.74644">
        <ele>1007</ele>
        <time>2021-05-29T09:06:37Z</time>
      </trkpt>
      <trkpt lat="45.0523" lon="5.74643">
        <ele>1006.6</ele>
        <time>2021-05-29T09:06:38Z</time>
      </trkpt>
      <trkpt lat="45.05231" lon="5.74643">
        <ele>1005.8</ele>
        <time>2021-05-29T09:06:39Z</time>
      </trkpt>
      <trkpt lat="45.05232" lon="5.74642">
        <ele>1004</ele>
        <time>2021-05-29T09:06:40Z</time>
      </trkpt>
      <trkpt lat="45.05233" lon="5.74641">
        <ele>1004</ele>
        <time>2021-05-29T09:06:41Z</time>
      </trkpt>
      <trkpt lat="45.05234" lon="5.74641">
        <ele>1003.6</ele>
        <time>2021-05-29T09:06:42Z</time>
      </trkpt>
      <trkpt lat="45.05235" lon="5.7464">
        <ele>1003.6</ele>
        <time>2021-05-29T09:06:43Z</time>
      </trkpt>
      <trkpt lat="45.05236" lon="5.74639">
        <ele>1003.2</ele>
        <time>2021-05-29T09:06:44Z</time>
      </trkpt>
      <trkpt lat="45.05237" lon="5.74639">
        <ele>1002.8</ele>
        <time>2021-05-29T09:06:45Z</time>
      </trkpt>
      <trkpt lat="45.05236" lon="5.74638">
        <ele>1002</ele>
        <time>2021-05-29T09:06:46Z</time>
      </trkpt>
      <trkpt lat="45.05235" lon="5.74637">
        <ele>1001.2</ele>
        <time>2021-05-29T09:06:47Z</time>
      </trkpt>
      <trkpt lat="45.05234" lon="5.74636">
        <ele>1000.6</ele>
        <time>2021-05-29T09:06:48Z</time>
      </trkpt>
      <trkpt lat="45.05233" lon="5.74636">
        <ele>1000</ele>
        <time>2021-05-29T09:06:49Z</time>
      </trkpt>
      <trkpt lat="45.05232" lon="5.74635">
        <ele>999.6</ele>
        <time>2021-05-29T09:06:50Z</time>
      </trkpt>
      <trkpt lat="45.05232" lon="5.74634">
        <ele>998.6</ele>
        <time>2021-05-29T09:06:51Z</time>
      </trkpt>
      <trkpt lat="45.0523" lon="5.74639">
        <ele>998.6</ele>
        <time>2021-05-29T09:06:52Z</time>
      </trkpt>
      <trkpt lat="45.05228" lon="5.74644">
        <ele>998.2</ele>
        <time>2021-05-29T09:06:53Z</time>
      </trkpt>
      <trkpt lat="45.05224" lon="5.74657">
        <ele>998</ele>
        <time>2021-05-29T09:06:54Z</time>
      </trkpt>
      <trkpt lat="45.05224" lon="5.74661">
        <ele>997.4</ele>
        <time>2021-05-29T09:06:55Z</time>
      </trkpt>
      <trkpt lat="45.05223" lon="5.74666">
        <ele>997</ele>
        <time>2021-05-29T09:06:56Z</time>
      </trkpt>
      <trkpt lat="45.05222" lon="5.74669">
        <ele>995.8</ele>
        <time>2021-05-29T09:06:57Z</time>
      </trkpt>
      <trkpt lat="45.05221" lon="5.74672">
        <ele>995.6</ele>
        <time>2021-05-29T09:06:58Z</time>
      </trkpt>
      <trkpt lat="45.05218" lon="5.74679">
        <ele>994.6</ele>
        <time>2021-05-29T09:06:59Z</time>
      </trkpt>
      <trkpt lat="45.05218" lon="5.74679">
        <ele>994.6</ele>
        <time>2021-05-29T09:07:00Z</time>
      </trkpt>
      <trkpt lat="45.05217" lon="5.74681">
        <ele>994</ele>
        <time>2021-05-29T09:07:01Z</time>
      </trkpt>
      <trkpt lat="45.05216" lon="5.74682">
        <ele>993.4</ele>
        <time>2021-05-29T09:07:02Z</time>
      </trkpt>
      <trkpt lat="45.05214" lon="5.74684">
        <ele>992.6</ele>
        <time>2021-05-29T09:07:03Z</time>
      </trkpt>
      <trkpt lat="45.05213" lon="5.74686">
        <ele>992.4</ele>
        <time>2021-05-29T09:07:04Z</time>
      </trkpt>
      <trkpt lat="45.05212" lon="5.74688">
        <ele>992</ele>
        <time>2021-05-29T09:07:05Z</time>
      </trkpt>
      <trkpt lat="45.0521" lon="5.74689">
        <ele>991.6</ele>
        <time>2021-05-29T09:07:06Z</time>
      </trkpt>
      <trkpt lat="45.05211" lon="5.74689">
        <ele>991.2</ele>
        <time>2021-05-29T09:07:07Z</time>
      </trkpt>
      <trkpt lat="45.05212" lon="5.74688">
        <ele>990.6</ele>
        <time>2021-05-29T09:07:08Z</time>
      </trkpt>
      <trkpt lat="45.05213" lon="5.74688">
        <ele>990.2</ele>
        <time>2021-05-29T09:07:09Z</time>
      </trkpt>
      <trkpt lat="45.05214" lon="5.74688">
        <ele>989.6</ele>
        <time>2021-05-29T09:07:10Z</time>
      </trkpt>
      <trkpt lat="45.05215" lon="5.74687">
        <ele>989.2</ele>
        <time>2021-05-29T09:07:11Z</time>
      </trkpt>
      <trkpt lat="45.05216" lon="5.74687">
        <ele>988.6</ele>
        <time>2021-05-29T09:07:12Z</time>
      </trkpt>
      <trkpt lat="45.05216" lon="5.74686">
        <ele>988</ele>
        <time>2021-05-29T09:07:13Z</time>
      </trkpt>
      <trkpt lat="45.05217" lon="5.74686">
        <ele>987.4</ele>
        <time>2021-05-29T09:07:14Z</time>
      </trkpt>
      <trkpt lat="45.05218" lon="5.74686">
        <ele>986.4</ele>
        <time>2021-05-29T09:07:15Z</time>
      </trkpt>
      <trkpt lat="45.05219" lon="5.74685">
        <ele>986.4</ele>
        <time>2021-05-29T09:07:16Z</time>
      </trkpt>
      <trkpt lat="45.0522" lon="5.74685">
        <ele>986</ele>
        <time>2021-05-29T09:07:17Z</time>
      </trkpt>
      <trkpt lat="45.05221" lon="5.74684">
        <ele>984.6</ele>
        <time>2021-05-29T09:07:18Z</time>
      </trkpt>
      <trkpt lat="45.05222" lon="5.74683">
        <ele>983.6</ele>
        <time>2021-05-29T09:07:19Z</time>
      </trkpt>
      <trkpt lat="45.05223" lon="5.74682">
        <ele>983.4</ele>
        <time>2021-05-29T09:07:20Z</time>
      </trkpt>
      <trkpt lat="45.05224" lon="5.7468">
        <ele>983.2</ele>
        <time>2021-05-29T09:07:21Z</time>
      </trkpt>
      <trkpt lat="45.05225" lon="5.74679">
        <ele>983</ele>
        <time>2021-05-29T09:07:22Z</time>
      </trkpt>
      <trkpt lat="45.05227" lon="5.74678">
        <ele>982.6</ele>
        <time>2021-05-29T09:07:23Z</time>
      </trkpt>
      <trkpt lat="45.05228" lon="5.74677">
        <ele>982.2</ele>
        <time>2021-05-29T09:07:24Z</time>
      </trkpt>
      <trkpt lat="45.05229" lon="5.74676">
        <ele>981.2</ele>
        <time>2021-05-29T09:07:25Z</time>
      </trkpt>
      <trkpt lat="45.05231" lon="5.74677">
        <ele>981</ele>
        <time>2021-05-29T09:07:26Z</time>
      </trkpt>
      <trkpt lat="45.05233" lon="5.74678">
        <ele>980.6</ele>
        <time>2021-05-29T09:07:27Z</time>
      </trkpt>
      <trkpt lat="45.05235" lon="5.74679">
        <ele>979.8</ele>
        <time>2021-05-29T09:07:28Z</time>
      </trkpt>
      <trkpt lat="45.05238" lon="5.7468">
        <ele>979.6</ele>
        <time>2021-05-29T09:07:29Z</time>
      </trkpt>
      <trkpt lat="45.05238" lon="5.74682">
        <ele>979</ele>
        <time>2021-05-29T09:07:30Z</time>
      </trkpt>
      <trkpt lat="45.05238" lon="5.74684">
        <ele>978.4</ele>
        <time>2021-05-29T09:07:31Z</time>
      </trkpt>
      <trkpt lat="45.05239" lon="5.74686">
        <ele>977.8</ele>
        <time>2021-05-29T09:07:32Z</time>
      </trkpt>
      <trkpt lat="45.05239" lon="5.74689">
        <ele>977.2</ele>
        <time>2021-05-29T09:07:33Z</time>
      </trkpt>
      <trkpt lat="45.05239" lon="5.74691">
        <ele>976.8</ele>
        <time>2021-05-29T09:07:34Z</time>
      </trkpt>
      <trkpt lat="45.0524" lon="5.74693">
        <ele>975.4</ele>
        <time>2021-05-29T09:07:35Z</time>
      </trkpt>
      <trkpt lat="45.0524" lon="5.74696">
        <ele>974.8</ele>
        <time>2021-05-29T09:07:36Z</time>
      </trkpt>
      <trkpt lat="45.0524" lon="5.74698">
        <ele>974</ele>
        <time>2021-05-29T09:07:37Z</time>
      </trkpt>
      <trkpt lat="45.0524" lon="5.747">
        <ele>973.4</ele>
        <time>2021-05-29T09:07:38Z</time>
      </trkpt>
      <trkpt lat="45.05241" lon="5.74701">
        <ele>973.2</ele>
        <time>2021-05-29T09:07:39Z</time>
      </trkpt>
      <trkpt lat="45.05241" lon="5.74702">
        <ele>972.2</ele>
        <time>2021-05-29T09:07:40Z</time>
      </trkpt>
      <trkpt lat="45.05241" lon="5.74703">
        <ele>971.6</ele>
        <time>2021-05-29T09:07:41Z</time>
      </trkpt>
      <trkpt lat="45.05241" lon="5.74703">
        <ele>970.8</ele>
        <time>2021-05-29T09:07:42Z</time>
      </trkpt>
      <trkpt lat="45.05241" lon="5.74704">
        <ele>971</ele>
        <time>2021-05-29T09:07:43Z</time>
      </trkpt>
      <trkpt lat="45.05242" lon="5.74705">
        <ele>970.6</ele>
        <time>2021-05-29T09:07:44Z</time>
      </trkpt>
      <trkpt lat="45.05242" lon="5.74706">
        <ele>969.6</ele>
        <time>2021-05-29T09:07:45Z</time>
      </trkpt>
      <trkpt lat="45.05242" lon="5.74707">
        <ele>969.8</ele>
        <time>2021-05-29T09:07:46Z</time>
      </trkpt>
      <trkpt lat="45.05242" lon="5.74708">
        <ele>969.2</ele>
        <time>2021-05-29T09:07:47Z</time>
      </trkpt>
      <trkpt lat="45.05242" lon="5.74708">
        <ele>968.6</ele>
        <time>2021-05-29T09:07:48Z</time>
      </trkpt>
      <trkpt lat="45.05243" lon="5.74709">
        <ele>967.8</ele>
        <time>2021-05-29T09:07:49Z</time>
      </trkpt>
      <trkpt lat="45.05243" lon="5.7471">
        <ele>967.6</ele>
        <time>2021-05-29T09:07:50Z</time>
      </trkpt>
      <trkpt lat="45.05243" lon="5.74711">
        <ele>967.2</ele>
        <time>2021-05-29T09:07:51Z</time>
      </trkpt>
      <trkpt lat="45.05243" lon="5.74712">
        <ele>966.6</ele>
        <time>2021-05-29T09:07:52Z</time>
      </trkpt>
      <trkpt lat="45.05243" lon="5.74712">
        <ele>965.8</ele>
        <time>2021-05-29T09:07:53Z</time>
      </trkpt>
      <trkpt lat="45.05246" lon="5.74712">
        <ele>965</ele>
        <time>2021-05-29T09:07:54Z</time>
      </trkpt>
      <trkpt lat="45.05248" lon="5.74711">
        <ele>964.2</ele>
        <time>2021-05-29T09:07:55Z</time>
      </trkpt>
      <trkpt lat="45.05251" lon="5.74711">
        <ele>963</ele>
        <time>2021-05-29T09:07:56Z</time>
      </trkpt>
      <trkpt lat="45.05253" lon="5.7471">
        <ele>962.4</ele>
        <time>2021-05-29T09:07:57Z</time>
      </trkpt>
      <trkpt lat="45.05261" lon="5.74708">
        <ele>961.8</ele>
        <time>2021-05-29T09:07:58Z</time>
      </trkpt>
      <trkpt lat="45.05268" lon="5.74705">
        <ele>961.8</ele>
        <time>2021-05-29T09:07:59Z</time>
      </trkpt>
      <trkpt lat="45.05268" lon="5.74705">
        <ele>961.6</ele>
        <time>2021-05-29T09:08:00Z</time>
      </trkpt>
      <trkpt lat="45.0527" lon="5.74706">
        <ele>961</ele>
        <time>2021-05-29T09:08:01Z</time>
      </trkpt>
      <trkpt lat="45.05272" lon="5.74707">
        <ele>960.4</ele>
        <time>2021-05-29T09:08:02Z</time>
      </trkpt>
      <trkpt lat="45.05274" lon="5.74707">
        <ele>959.8</ele>
        <time>2021-05-29T09:08:03Z</time>
      </trkpt>
      <trkpt lat="45.05276" lon="5.74708">
        <ele>959</ele>
        <time>2021-05-29T09:08:04Z</time>
      </trkpt>
      <trkpt lat="45.05278" lon="5.74709">
        <ele>959</ele>
        <time>2021-05-29T09:08:05Z</time>
      </trkpt>
      <trkpt lat="45.05279" lon="5.74709">
        <ele>958.4</ele>
        <time>2021-05-29T09:08:06Z</time>
      </trkpt>
      <trkpt lat="45.0528" lon="5.7471">
        <ele>957.8</ele>
        <time>2021-05-29T09:08:07Z</time>
      </trkpt>
      <trkpt lat="45.05282" lon="5.7471">
        <ele>957.2</ele>
        <time>2021-05-29T09:08:08Z</time>
      </trkpt>
      <trkpt lat="45.05283" lon="5.7471">
        <ele>956.4</ele>
        <time>2021-05-29T09:08:09Z</time>
      </trkpt>
      <trkpt lat="45.05285" lon="5.74711">
        <ele>956.4</ele>
        <time>2021-05-29T09:08:10Z</time>
      </trkpt>
      <trkpt lat="45.05286" lon="5.74711">
        <ele>955</ele>
        <time>2021-05-29T09:08:11Z</time>
      </trkpt>
      <trkpt lat="45.05288" lon="5.74711">
        <ele>955</ele>
        <time>2021-05-29T09:08:12Z</time>
      </trkpt>
      <trkpt lat="45.0529" lon="5.74712">
        <ele>954.6</ele>
        <time>2021-05-29T09:08:13Z</time>
      </trkpt>
      <trkpt lat="45.05291" lon="5.74712">
        <ele>954.4</ele>
        <time>2021-05-29T09:08:14Z</time>
      </trkpt>
      <trkpt lat="45.05293" lon="5.74712">
        <ele>953.6</ele>
        <time>2021-05-29T09:08:15Z</time>
      </trkpt>
      <trkpt lat="45.05295" lon="5.74712">
        <ele>953.4</ele>
        <time>2021-05-29T09:08:16Z</time>
      </trkpt>
      <trkpt lat="45.05297" lon="5.74712">
        <ele>952.8</ele>
        <time>2021-05-29T09:08:17Z</time>
      </trkpt>
      <trkpt lat="45.05299" lon="5.74712">
        <ele>952.4</ele>
        <time>2021-05-29T09:08:18Z</time>
      </trkpt>
      <trkpt lat="45.05301" lon="5.74712">
        <ele>951.6</ele>
        <time>2021-05-29T09:08:19Z</time>
      </trkpt>
      <trkpt lat="45.05302" lon="5.74712">
        <ele>951.2</ele>
        <time>2021-05-29T09:08:20Z</time>
      </trkpt>
      <trkpt lat="45.05304" lon="5.74712">
        <ele>950.4</ele>
        <time>2021-05-29T09:08:21Z</time>
      </trkpt>
      <trkpt lat="45.05306" lon="5.74712">
        <ele>949.8</ele>
        <time>2021-05-29T09:08:22Z</time>
      </trkpt>
      <trkpt lat="45.05308" lon="5.74712">
        <ele>949.2</ele>
        <time>2021-05-29T09:08:23Z</time>
      </trkpt>
      <trkpt lat="45.05309" lon="5.74712">
        <ele>948.6</ele>
        <time>2021-05-29T09:08:24Z</time>
      </trkpt>
      <trkpt lat="45.0531" lon="5.74711">
        <ele>947.6</ele>
        <time>2021-05-29T09:08:25Z</time>
      </trkpt>
      <trkpt lat="45.0531" lon="5.74711">
        <ele>946.8</ele>
        <time>2021-05-29T09:08:26Z</time>
      </trkpt>
      <trkpt lat="45.05311" lon="5.74711">
        <ele>946.6</ele>
        <time>2021-05-29T09:08:27Z</time>
      </trkpt>
      <trkpt lat="45.05312" lon="5.74711">
        <ele>946.2</ele>
        <time>2021-05-29T09:08:28Z</time>
      </trkpt>
      <trkpt lat="45.05313" lon="5.74711">
        <ele>945.6</ele>
        <time>2021-05-29T09:08:29Z</time>
      </trkpt>
      <trkpt lat="45.05314" lon="5.74711">
        <ele>945.4</ele>
        <time>2021-05-29T09:08:30Z</time>
      </trkpt>
      <trkpt lat="45.05314" lon="5.74711">
        <ele>944.2</ele>
        <time>2021-05-29T09:08:31Z</time>
      </trkpt>
      <trkpt lat="45.05315" lon="5.74711">
        <ele>943.8</ele>
        <time>2021-05-29T09:08:32Z</time>
      </trkpt>
      <trkpt lat="45.05316" lon="5.74711">
        <ele>943.2</ele>
        <time>2021-05-29T09:08:33Z</time>
      </trkpt>
      <trkpt lat="45.05317" lon="5.74711">
        <ele>942.4</ele>
        <time>2021-05-29T09:08:34Z</time>
      </trkpt>
      <trkpt lat="45.05318" lon="5.74711">
        <ele>942</ele>
        <time>2021-05-29T09:08:35Z</time>
      </trkpt>
      <trkpt lat="45.05319" lon="5.74712">
        <ele>941.2</ele>
        <time>2021-05-29T09:08:36Z</time>
      </trkpt>
      <trkpt lat="45.0532" lon="5.74712">
        <ele>941</ele>
        <time>2021-05-29T09:08:37Z</time>
      </trkpt>
      <trkpt lat="45.05321" lon="5.74713">
        <ele>940.6</ele>
        <time>2021-05-29T09:08:38Z</time>
      </trkpt>
      <trkpt lat="45.05322" lon="5.74714">
        <ele>940</ele>
        <time>2021-05-29T09:08:39Z</time>
      </trkpt>
      <trkpt lat="45.05323" lon="5.74714">
        <ele>939.8</ele>
        <time>2021-05-29T09:08:40Z</time>
      </trkpt>
      <trkpt lat="45.05325" lon="5.74715">
        <ele>939.6</ele>
        <time>2021-05-29T09:08:41Z</time>
      </trkpt>
      <trkpt lat="45.05326" lon="5.74715">
        <ele>939.2</ele>
        <time>2021-05-29T09:08:42Z</time>
      </trkpt>
      <trkpt lat="45.05327" lon="5.74716">
        <ele>939</ele>
        <time>2021-05-29T09:08:43Z</time>
      </trkpt>
      <trkpt lat="45.05328" lon="5.74718">
        <ele>938.6</ele>
        <time>2021-05-29T09:08:44Z</time>
      </trkpt>
      <trkpt lat="45.05329" lon="5.74721">
        <ele>938</ele>
        <time>2021-05-29T09:08:45Z</time>
      </trkpt>
      <trkpt lat="45.0533" lon="5.74723">
        <ele>937</ele>
        <time>2021-05-29T09:08:46Z</time>
      </trkpt>
      <trkpt lat="45.05331" lon="5.74725">
        <ele>936.8</ele>
        <time>2021-05-29T09:08:47Z</time>
      </trkpt>
      <trkpt lat="45.05332" lon="5.74728">
        <ele>936.4</ele>
        <time>2021-05-29T09:08:48Z</time>
      </trkpt>
      <trkpt lat="45.05333" lon="5.74729">
        <ele>936.2</ele>
        <time>2021-05-29T09:08:49Z</time>
      </trkpt>
      <trkpt lat="45.05334" lon="5.7473">
        <ele>935.6</ele>
        <time>2021-05-29T09:08:50Z</time>
      </trkpt>
      <trkpt lat="45.05335" lon="5.74732">
        <ele>935.2</ele>
        <time>2021-05-29T09:08:51Z</time>
      </trkpt>
      <trkpt lat="45.05336" lon="5.74733">
        <ele>934.4</ele>
        <time>2021-05-29T09:08:52Z</time>
      </trkpt>
      <trkpt lat="45.05337" lon="5.74735">
        <ele>933.8</ele>
        <time>2021-05-29T09:08:53Z</time>
      </trkpt>
      <trkpt lat="45.05338" lon="5.74736">
        <ele>933.4</ele>
        <time>2021-05-29T09:08:54Z</time>
      </trkpt>
      <trkpt lat="45.05339" lon="5.74737">
        <ele>932.4</ele>
        <time>2021-05-29T09:08:55Z</time>
      </trkpt>
      <trkpt lat="45.05341" lon="5.74739">
        <ele>932.6</ele>
        <time>2021-05-29T09:08:56Z</time>
      </trkpt>
      <trkpt lat="45.05343" lon="5.74741">
        <ele>932.2</ele>
        <time>2021-05-29T09:08:57Z</time>
      </trkpt>
      <trkpt lat="45.05345" lon="5.74743">
        <ele>931.6</ele>
        <time>2021-05-29T09:08:58Z</time>
      </trkpt>
      <trkpt lat="45.05347" lon="5.74744">
        <ele>931.2</ele>
        <time>2021-05-29T09:08:59Z</time>
      </trkpt>
      <trkpt lat="45.05349" lon="5.74745">
        <ele>930.8</ele>
        <time>2021-05-29T09:09:00Z</time>
      </trkpt>
      <trkpt lat="45.0535" lon="5.74747">
        <ele>930.4</ele>
        <time>2021-05-29T09:09:01Z</time>
      </trkpt>
      <trkpt lat="45.05352" lon="5.74748">
        <ele>929.8</ele>
        <time>2021-05-29T09:09:02Z</time>
      </trkpt>
      <trkpt lat="45.05353" lon="5.74749">
        <ele>929.6</ele>
        <time>2021-05-29T09:09:03Z</time>
      </trkpt>
      <trkpt lat="45.05355" lon="5.7475">
        <ele>929.2</ele>
        <time>2021-05-29T09:09:04Z</time>
      </trkpt>
      <trkpt lat="45.05356" lon="5.74751">
        <ele>928.8</ele>
        <time>2021-05-29T09:09:05Z</time>
      </trkpt>
      <trkpt lat="45.05357" lon="5.74752">
        <ele>928</ele>
        <time>2021-05-29T09:09:06Z</time>
      </trkpt>
      <trkpt lat="45.05358" lon="5.74753">
        <ele>927.6</ele>
        <time>2021-05-29T09:09:07Z</time>
      </trkpt>
      <trkpt lat="45.05359" lon="5.74754">
        <ele>927.2</ele>
        <time>2021-05-29T09:09:08Z</time>
      </trkpt>
      <trkpt lat="45.0536" lon="5.74755">
        <ele>926.6</ele>
        <time>2021-05-29T09:09:09Z</time>
      </trkpt>
      <trkpt lat="45.05361" lon="5.74756">
        <ele>926.4</ele>
        <time>2021-05-29T09:09:10Z</time>
      </trkpt>
      <trkpt lat="45.05362" lon="5.74757">
        <ele>926</ele>
        <time>2021-05-29T09:09:11Z</time>
      </trkpt>
      <trkpt lat="45.05363" lon="5.74758">
        <ele>926.2</ele>
        <time>2021-05-29T09:09:12Z</time>
      </trkpt>
      <trkpt lat="45.05365" lon="5.74759">
        <ele>925.8</ele>
        <time>2021-05-29T09:09:13Z</time>
      </trkpt>
      <trkpt lat="45.05367" lon="5.7476">
        <ele>925.6</ele>
        <time>2021-05-29T09:09:14Z</time>
      </trkpt>
      <trkpt lat="45.05369" lon="5.74762">
        <ele>925</ele>
        <time>2021-05-29T09:09:15Z</time>
      </trkpt>
      <trkpt lat="45.0537" lon="5.74763">
        <ele>924.2</ele>
        <time>2021-05-29T09:09:16Z</time>
      </trkpt>
      <trkpt lat="45.05372" lon="5.74764">
        <ele>923.6</ele>
        <time>2021-05-29T09:09:17Z</time>
      </trkpt>
      <trkpt lat="45.05374" lon="5.74762">
        <ele>923.2</ele>
        <time>2021-05-29T09:09:18Z</time>
      </trkpt>
      <trkpt lat="45.05375" lon="5.74761">
        <ele>922.6</ele>
        <time>2021-05-29T09:09:19Z</time>
      </trkpt>
      <trkpt lat="45.05377" lon="5.74759">
        <ele>922.4</ele>
        <time>2021-05-29T09:09:20Z</time>
      </trkpt>
      <trkpt lat="45.05379" lon="5.74758">
        <ele>922</ele>
        <time>2021-05-29T09:09:21Z</time>
      </trkpt>
      <trkpt lat="45.0538" lon="5.74757">
        <ele>921.4</ele>
        <time>2021-05-29T09:09:22Z</time>
      </trkpt>
      <trkpt lat="45.05382" lon="5.74757">
        <ele>921</ele>
        <time>2021-05-29T09:09:23Z</time>
      </trkpt>
      <trkpt lat="45.05384" lon="5.74758">
        <ele>920.2</ele>
        <time>2021-05-29T09:09:24Z</time>
      </trkpt>
      <trkpt lat="45.05386" lon="5.74758">
        <ele>920</ele>
        <time>2021-05-29T09:09:25Z</time>
      </trkpt>
      <trkpt lat="45.05388" lon="5.74759">
        <ele>919.6</ele>
        <time>2021-05-29T09:09:26Z</time>
      </trkpt>
      <trkpt lat="45.05389" lon="5.7476">
        <ele>919.4</ele>
        <time>2021-05-29T09:09:27Z</time>
      </trkpt>
      <trkpt lat="45.05391" lon="5.7476">
        <ele>918.6</ele>
        <time>2021-05-29T09:09:28Z</time>
      </trkpt>
      <trkpt lat="45.05393" lon="5.7476">
        <ele>918</ele>
        <time>2021-05-29T09:09:29Z</time>
      </trkpt>
      <trkpt lat="45.05394" lon="5.7476">
        <ele>917.4</ele>
        <time>2021-05-29T09:09:30Z</time>
      </trkpt>
      <trkpt lat="45.05396" lon="5.7476">
        <ele>916.6</ele>
        <time>2021-05-29T09:09:31Z</time>
      </trkpt>
      <trkpt lat="45.05398" lon="5.74761">
        <ele>915.6</ele>
        <time>2021-05-29T09:09:32Z</time>
      </trkpt>
      <trkpt lat="45.05399" lon="5.74761">
        <ele>915.2</ele>
        <time>2021-05-29T09:09:33Z</time>
      </trkpt>
      <trkpt lat="45.05401" lon="5.74761">
        <ele>915.2</ele>
        <time>2021-05-29T09:09:34Z</time>
      </trkpt>
      <trkpt lat="45.05403" lon="5.74762">
        <ele>914.8</ele>
        <time>2021-05-29T09:09:35Z</time>
      </trkpt>
      <trkpt lat="45.05404" lon="5.74762">
        <ele>914.4</ele>
        <time>2021-05-29T09:09:36Z</time>
      </trkpt>
      <trkpt lat="45.05406" lon="5.74762">
        <ele>913.4</ele>
        <time>2021-05-29T09:09:37Z</time>
      </trkpt>
      <trkpt lat="45.05407" lon="5.74763">
        <ele>912.6</ele>
        <time>2021-05-29T09:09:38Z</time>
      </trkpt>
      <trkpt lat="45.05409" lon="5.74763">
        <ele>911.8</ele>
        <time>2021-05-29T09:09:39Z</time>
      </trkpt>
      <trkpt lat="45.0541" lon="5.74764">
        <ele>911.2</ele>
        <time>2021-05-29T09:09:40Z</time>
      </trkpt>
      <trkpt lat="45.05412" lon="5.74764">
        <ele>910.8</ele>
        <time>2021-05-29T09:09:41Z</time>
      </trkpt>
      <trkpt lat="45.05414" lon="5.74765">
        <ele>910.6</ele>
        <time>2021-05-29T09:09:42Z</time>
      </trkpt>
      <trkpt lat="45.05416" lon="5.74766">
        <ele>910.2</ele>
        <time>2021-05-29T09:09:43Z</time>
      </trkpt>
      <trkpt lat="45.05417" lon="5.74766">
        <ele>909.4</ele>
        <time>2021-05-29T09:09:44Z</time>
      </trkpt>
      <trkpt lat="45.05419" lon="5.74767">
        <ele>909.2</ele>
        <time>2021-05-29T09:09:45Z</time>
      </trkpt>
      <trkpt lat="45.05421" lon="5.74766">
        <ele>908.8</ele>
        <time>2021-05-29T09:09:46Z</time>
      </trkpt>
      <trkpt lat="45.05422" lon="5.74766">
        <ele>908.4</ele>
        <time>2021-05-29T09:09:47Z</time>
      </trkpt>
      <trkpt lat="45.05424" lon="5.74765">
        <ele>908</ele>
        <time>2021-05-29T09:09:48Z</time>
      </trkpt>
      <trkpt lat="45.05425" lon="5.74765">
        <ele>907.6</ele>
        <time>2021-05-29T09:09:49Z</time>
      </trkpt>
      <trkpt lat="45.05427" lon="5.74764">
        <ele>906.8</ele>
        <time>2021-05-29T09:09:50Z</time>
      </trkpt>
      <trkpt lat="45.05428" lon="5.74764">
        <ele>906.2</ele>
        <time>2021-05-29T09:09:51Z</time>
      </trkpt>
      <trkpt lat="45.0543" lon="5.74764">
        <ele>905.8</ele>
        <time>2021-05-29T09:09:52Z</time>
      </trkpt>
      <trkpt lat="45.05432" lon="5.74763">
        <ele>905.4</ele>
        <time>2021-05-29T09:09:53Z</time>
      </trkpt>
      <trkpt lat="45.05434" lon="5.74763">
        <ele>904.8</ele>
        <time>2021-05-29T09:09:54Z</time>
      </trkpt>
      <trkpt lat="45.05435" lon="5.74763">
        <ele>904.4</ele>
        <time>2021-05-29T09:09:55Z</time>
      </trkpt>
      <trkpt lat="45.05437" lon="5.74763">
        <ele>903.8</ele>
        <time>2021-05-29T09:09:56Z</time>
      </trkpt>
      <trkpt lat="45.05439" lon="5.74762">
        <ele>903.4</ele>
        <time>2021-05-29T09:09:57Z</time>
      </trkpt>
      <trkpt lat="45.05441" lon="5.74762">
        <ele>902.6</ele>
        <time>2021-05-29T09:09:58Z</time>
      </trkpt>
      <trkpt lat="45.05444" lon="5.74763">
        <ele>901.2</ele>
        <time>2021-05-29T09:10:00Z</time>
      </trkpt>
      <trkpt lat="45.05446" lon="5.74763">
        <ele>900</ele>
        <time>2021-05-29T09:10:01Z</time>
      </trkpt>
      <trkpt lat="45.05449" lon="5.74764">
        <ele>898.6</ele>
        <time>2021-05-29T09:10:02Z</time>
      </trkpt>
      <trkpt lat="45.05452" lon="5.74764">
        <ele>897.6</ele>
        <time>2021-05-29T09:10:03Z</time>
      </trkpt>
      <trkpt lat="45.05454" lon="5.74766">
        <ele>897.8</ele>
        <time>2021-05-29T09:10:04Z</time>
      </trkpt>
      <trkpt lat="45.05456" lon="5.74768">
        <ele>897.4</ele>
        <time>2021-05-29T09:10:05Z</time>
      </trkpt>
      <trkpt lat="45.05458" lon="5.74769">
        <ele>897.2</ele>
        <time>2021-05-29T09:10:06Z</time>
      </trkpt>
      <trkpt lat="45.0546" lon="5.74771">
        <ele>896.4</ele>
        <time>2021-05-29T09:10:07Z</time>
      </trkpt>
      <trkpt lat="45.05461" lon="5.74771">
        <ele>895.4</ele>
        <time>2021-05-29T09:10:08Z</time>
      </trkpt>
      <trkpt lat="45.05462" lon="5.74772">
        <ele>894.2</ele>
        <time>2021-05-29T09:10:09Z</time>
      </trkpt>
      <trkpt lat="45.05463" lon="5.74772">
        <ele>893.8</ele>
        <time>2021-05-29T09:10:10Z</time>
      </trkpt>
      <trkpt lat="45.05464" lon="5.74773">
        <ele>893.8</ele>
        <time>2021-05-29T09:10:11Z</time>
      </trkpt>
      <trkpt lat="45.05466" lon="5.74773">
        <ele>893.2</ele>
        <time>2021-05-29T09:10:12Z</time>
      </trkpt>
      <trkpt lat="45.05467" lon="5.74774">
        <ele>892.8</ele>
        <time>2021-05-29T09:10:13Z</time>
      </trkpt>
      <trkpt lat="45.05468" lon="5.74774">
        <ele>892.2</ele>
        <time>2021-05-29T09:10:14Z</time>
      </trkpt>
      <trkpt lat="45.05469" lon="5.74775">
        <ele>891.4</ele>
        <time>2021-05-29T09:10:15Z</time>
      </trkpt>
      <trkpt lat="45.0547" lon="5.74775">
        <ele>890.4</ele>
        <time>2021-05-29T09:10:16Z</time>
      </trkpt>
      <trkpt lat="45.05471" lon="5.74776">
        <ele>890.2</ele>
        <time>2021-05-29T09:10:17Z</time>
      </trkpt>
      <trkpt lat="45.05473" lon="5.74778">
        <ele>890</ele>
        <time>2021-05-29T09:10:18Z</time>
      </trkpt>
      <trkpt lat="45.05476" lon="5.7478">
        <ele>889.6</ele>
        <time>2021-05-29T09:10:19Z</time>
      </trkpt>
      <trkpt lat="45.05478" lon="5.74782">
        <ele>889.2</ele>
        <time>2021-05-29T09:10:20Z</time>
      </trkpt>
      <trkpt lat="45.0548" lon="5.74784">
        <ele>888.6</ele>
        <time>2021-05-29T09:10:21Z</time>
      </trkpt>
      <trkpt lat="45.05482" lon="5.74785">
        <ele>888</ele>
        <time>2021-05-29T09:10:22Z</time>
      </trkpt>
      <trkpt lat="45.05484" lon="5.74787">
        <ele>888</ele>
        <time>2021-05-29T09:10:23Z</time>
      </trkpt>
      <trkpt lat="45.05486" lon="5.74788">
        <ele>887.6</ele>
        <time>2021-05-29T09:10:24Z</time>
      </trkpt>
      <trkpt lat="45.05488" lon="5.7479">
        <ele>887.6</ele>
        <time>2021-05-29T09:10:25Z</time>
      </trkpt>
      <trkpt lat="45.0549" lon="5.74791">
        <ele>886.8</ele>
        <time>2021-05-29T09:10:26Z</time>
      </trkpt>
      <trkpt lat="45.05491" lon="5.74794">
        <ele>887</ele>
        <time>2021-05-29T09:10:27Z</time>
      </trkpt>
      <trkpt lat="45.05493" lon="5.74796">
        <ele>886.8</ele>
        <time>2021-05-29T09:10:28Z</time>
      </trkpt>
      <trkpt lat="45.05495" lon="5.74798">
        <ele>886.4</ele>
        <time>2021-05-29T09:10:29Z</time>
      </trkpt>
      <trkpt lat="45.05496" lon="5.74801">
        <ele>885.8</ele>
        <time>2021-05-29T09:10:30Z</time>
      </trkpt>
      <trkpt lat="45.055" lon="5.74803">
        <ele>885.2</ele>
        <time>2021-05-29T09:10:31Z</time>
      </trkpt>
      <trkpt lat="45.05503" lon="5.74805">
        <ele>885</ele>
        <time>2021-05-29T09:10:32Z</time>
      </trkpt>
      <trkpt lat="45.05506" lon="5.74807">
        <ele>884.6</ele>
        <time>2021-05-29T09:10:33Z</time>
      </trkpt>
      <trkpt lat="45.05509" lon="5.74809">
        <ele>884</ele>
        <time>2021-05-29T09:10:34Z</time>
      </trkpt>
      <trkpt lat="45.05511" lon="5.74811">
        <ele>883.4</ele>
        <time>2021-05-29T09:10:35Z</time>
      </trkpt>
      <trkpt lat="45.05513" lon="5.74812">
        <ele>882.6</ele>
        <time>2021-05-29T09:10:36Z</time>
      </trkpt>
      <trkpt lat="45.05515" lon="5.74814">
        <ele>882.4</ele>
        <time>2021-05-29T09:10:37Z</time>
      </trkpt>
      <trkpt lat="45.05517" lon="5.74816">
        <ele>882</ele>
        <time>2021-05-29T09:10:38Z</time>
      </trkpt>
      <trkpt lat="45.05518" lon="5.74818">
        <ele>881.4</ele>
        <time>2021-05-29T09:10:39Z</time>
      </trkpt>
      <trkpt lat="45.05519" lon="5.7482">
        <ele>880.6</ele>
        <time>2021-05-29T09:10:40Z</time>
      </trkpt>
      <trkpt lat="45.0552" lon="5.74821">
        <ele>879.8</ele>
        <time>2021-05-29T09:10:41Z</time>
      </trkpt>
      <trkpt lat="45.05521" lon="5.74823">
        <ele>879.2</ele>
        <time>2021-05-29T09:10:42Z</time>
      </trkpt>
      <trkpt lat="45.05522" lon="5.74825">
        <ele>878.8</ele>
        <time>2021-05-29T09:10:43Z</time>
      </trkpt>
      <trkpt lat="45.05524" lon="5.74827">
        <ele>878.4</ele>
        <time>2021-05-29T09:10:44Z</time>
      </trkpt>
      <trkpt lat="45.05525" lon="5.74829">
        <ele>877.4</ele>
        <time>2021-05-29T09:10:45Z</time>
      </trkpt>
      <trkpt lat="45.05527" lon="5.74831">
        <ele>877.2</ele>
        <time>2021-05-29T09:10:46Z</time>
      </trkpt>
      <trkpt lat="45.05529" lon="5.74834">
        <ele>877</ele>
        <time>2021-05-29T09:10:47Z</time>
      </trkpt>
      <trkpt lat="45.05531" lon="5.74836">
        <ele>876.6</ele>
        <time>2021-05-29T09:10:48Z</time>
      </trkpt>
      <trkpt lat="45.05531" lon="5.7484">
        <ele>876</ele>
        <time>2021-05-29T09:10:49Z</time>
      </trkpt>
      <trkpt lat="45.0553" lon="5.74845">
        <ele>875.4</ele>
        <time>2021-05-29T09:10:50Z</time>
      </trkpt>
      <trkpt lat="45.0553" lon="5.7485">
        <ele>875</ele>
        <time>2021-05-29T09:10:51Z</time>
      </trkpt>
      <trkpt lat="45.05529" lon="5.74854">
        <ele>874.4</ele>
        <time>2021-05-29T09:10:52Z</time>
      </trkpt>
      <trkpt lat="45.05529" lon="5.74859">
        <ele>873.8</ele>
        <time>2021-05-29T09:10:53Z</time>
      </trkpt>
      <trkpt lat="45.05524" lon="5.74867">
        <ele>873</ele>
        <time>2021-05-29T09:10:54Z</time>
      </trkpt>
      <trkpt lat="45.05524" lon="5.74867">
        <ele>872.4</ele>
        <time>2021-05-29T09:10:55Z</time>
      </trkpt>
      <trkpt lat="45.05524" lon="5.74867">
        <ele>872</ele>
        <time>2021-05-29T09:10:56Z</time>
      </trkpt>
      <trkpt lat="45.05524" lon="5.74871">
        <ele>871.4</ele>
        <time>2021-05-29T09:10:57Z</time>
      </trkpt>
      <trkpt lat="45.05524" lon="5.74874">
        <ele>871</ele>
        <time>2021-05-29T09:10:58Z</time>
      </trkpt>
      <trkpt lat="45.05524" lon="5.74878">
        <ele>870.4</ele>
        <time>2021-05-29T09:10:59Z</time>
      </trkpt>
      <trkpt lat="45.05525" lon="5.74881">
        <ele>869.8</ele>
        <time>2021-05-29T09:11:00Z</time>
      </trkpt>
      <trkpt lat="45.0552" lon="5.74883">
        <ele>869.2</ele>
        <time>2021-05-29T09:11:01Z</time>
      </trkpt>
      <trkpt lat="45.05516" lon="5.74886">
        <ele>868.2</ele>
        <time>2021-05-29T09:11:02Z</time>
      </trkpt>
      <trkpt lat="45.05512" lon="5.74888">
        <ele>867.6</ele>
        <time>2021-05-29T09:11:03Z</time>
      </trkpt>
      <trkpt lat="45.05507" lon="5.7489">
        <ele>866.6</ele>
        <time>2021-05-29T09:11:04Z</time>
      </trkpt>
      <trkpt lat="45.05503" lon="5.74893">
        <ele>865.8</ele>
        <time>2021-05-29T09:11:05Z</time>
      </trkpt>
      <trkpt lat="45.05499" lon="5.74895">
        <ele>865</ele>
        <time>2021-05-29T09:11:06Z</time>
      </trkpt>
      <trkpt lat="45.05494" lon="5.74897">
        <ele>865</ele>
        <time>2021-05-29T09:11:07Z</time>
      </trkpt>
      <trkpt lat="45.05493" lon="5.74899">
        <ele>864.4</ele>
        <time>2021-05-29T09:11:08Z</time>
      </trkpt>
      <trkpt lat="45.05492" lon="5.74901">
        <ele>864</ele>
        <time>2021-05-29T09:11:09Z</time>
      </trkpt>
      <trkpt lat="45.05491" lon="5.74903">
        <ele>863.4</ele>
        <time>2021-05-29T09:11:10Z</time>
      </trkpt>
      <trkpt lat="45.0549" lon="5.74905">
        <ele>863.2</ele>
        <time>2021-05-29T09:11:11Z</time>
      </trkpt>
      <trkpt lat="45.05489" lon="5.74907">
        <ele>862.6</ele>
        <time>2021-05-29T09:11:12Z</time>
      </trkpt>
      <trkpt lat="45.05486" lon="5.74915">
        <ele>862</ele>
        <time>2021-05-29T09:11:13Z</time>
      </trkpt>
      <trkpt lat="45.05484" lon="5.74921">
        <ele>861.2</ele>
        <time>2021-05-29T09:11:14Z</time>
      </trkpt>
      <trkpt lat="45.05484" lon="5.74921">
        <ele>860.6</ele>
        <time>2021-05-29T09:11:15Z</time>
      </trkpt>
      <trkpt lat="45.05484" lon="5.74921">
        <ele>860.2</ele>
        <time>2021-05-29T09:11:16Z</time>
      </trkpt>
      <trkpt lat="45.05482" lon="5.74922">
        <ele>859.6</ele>
        <time>2021-05-29T09:11:17Z</time>
      </trkpt>
      <trkpt lat="45.05481" lon="5.74923">
        <ele>859</ele>
        <time>2021-05-29T09:11:18Z</time>
      </trkpt>
      <trkpt lat="45.05479" lon="5.74924">
        <ele>858.6</ele>
        <time>2021-05-29T09:11:19Z</time>
      </trkpt>
      <trkpt lat="45.05477" lon="5.74925">
        <ele>858</ele>
        <time>2021-05-29T09:11:20Z</time>
      </trkpt>
      <trkpt lat="45.05475" lon="5.74927">
        <ele>857.8</ele>
        <time>2021-05-29T09:11:21Z</time>
      </trkpt>
      <trkpt lat="45.05474" lon="5.74929">
        <ele>857.4</ele>
        <time>2021-05-29T09:11:22Z</time>
      </trkpt>
      <trkpt lat="45.05472" lon="5.74931">
        <ele>857.2</ele>
        <time>2021-05-29T09:11:23Z</time>
      </trkpt>
      <trkpt lat="45.0547" lon="5.74933">
        <ele>856.4</ele>
        <time>2021-05-29T09:11:24Z</time>
      </trkpt>
      <trkpt lat="45.05469" lon="5.74935">
        <ele>855.4</ele>
        <time>2021-05-29T09:11:25Z</time>
      </trkpt>
      <trkpt lat="45.05469" lon="5.74948">
        <ele>855.4</ele>
        <time>2021-05-29T09:11:26Z</time>
      </trkpt>
      <trkpt lat="45.05469" lon="5.74948">
        <ele>854.8</ele>
        <time>2021-05-29T09:11:27Z</time>
      </trkpt>
      <trkpt lat="45.05469" lon="5.74948">
        <ele>854.8</ele>
        <time>2021-05-29T09:11:28Z</time>
      </trkpt>
      <trkpt lat="45.05469" lon="5.74948">
        <ele>854.2</ele>
        <time>2021-05-29T09:11:29Z</time>
      </trkpt>
      <trkpt lat="45.05467" lon="5.74951">
        <ele>853.6</ele>
        <time>2021-05-29T09:11:30Z</time>
      </trkpt>
      <trkpt lat="45.05465" lon="5.74953">
        <ele>852.8</ele>
        <time>2021-05-29T09:11:31Z</time>
      </trkpt>
      <trkpt lat="45.05463" lon="5.74956">
        <ele>852</ele>
        <time>2021-05-29T09:11:32Z</time>
      </trkpt>
      <trkpt lat="45.05461" lon="5.74959">
        <ele>851.4</ele>
        <time>2021-05-29T09:11:33Z</time>
      </trkpt>
      <trkpt lat="45.05458" lon="5.74961">
        <ele>851</ele>
        <time>2021-05-29T09:11:34Z</time>
      </trkpt>
      <trkpt lat="45.05456" lon="5.74964">
        <ele>850.6</ele>
        <time>2021-05-29T09:11:35Z</time>
      </trkpt>
      <trkpt lat="45.05454" lon="5.74967">
        <ele>849.8</ele>
        <time>2021-05-29T09:11:36Z</time>
      </trkpt>
      <trkpt lat="45.05452" lon="5.74969">
        <ele>849.2</ele>
        <time>2021-05-29T09:11:37Z</time>
      </trkpt>
      <trkpt lat="45.05452" lon="5.74973">
        <ele>848.8</ele>
        <time>2021-05-29T09:11:38Z</time>
      </trkpt>
      <trkpt lat="45.05453" lon="5.74976">
        <ele>848.2</ele>
        <time>2021-05-29T09:11:39Z</time>
      </trkpt>
      <trkpt lat="45.05453" lon="5.74979">
        <ele>847.8</ele>
        <time>2021-05-29T09:11:40Z</time>
      </trkpt>
      <trkpt lat="45.05453" lon="5.74983">
        <ele>847</ele>
        <time>2021-05-29T09:11:41Z</time>
      </trkpt>
      <trkpt lat="45.05451" lon="5.74989">
        <ele>846</ele>
        <time>2021-05-29T09:11:42Z</time>
      </trkpt>
      <trkpt lat="45.05449" lon="5.74996">
        <ele>845.8</ele>
        <time>2021-05-29T09:11:43Z</time>
      </trkpt>
      <trkpt lat="45.05447" lon="5.75002">
        <ele>845.2</ele>
        <time>2021-05-29T09:11:44Z</time>
      </trkpt>
      <trkpt lat="45.05444" lon="5.75008">
        <ele>844.8</ele>
        <time>2021-05-29T09:11:45Z</time>
      </trkpt>
      <trkpt lat="45.05442" lon="5.75018">
        <ele>844</ele>
        <time>2021-05-29T09:11:46Z</time>
      </trkpt>
      <trkpt lat="45.05442" lon="5.7502">
        <ele>843.6</ele>
        <time>2021-05-29T09:11:47Z</time>
      </trkpt>
      <trkpt lat="45.05442" lon="5.75023">
        <ele>843.6</ele>
        <time>2021-05-29T09:11:48Z</time>
      </trkpt>
      <trkpt lat="45.05443" lon="5.75029">
        <ele>843</ele>
        <time>2021-05-29T09:11:49Z</time>
      </trkpt>
      <trkpt lat="45.05443" lon="5.75029">
        <ele>843</ele>
        <time>2021-05-29T09:11:50Z</time>
      </trkpt>
      <trkpt lat="45.05443" lon="5.75029">
        <ele>842.4</ele>
        <time>2021-05-29T09:11:51Z</time>
      </trkpt>
      <trkpt lat="45.05442" lon="5.75032">
        <ele>842</ele>
        <time>2021-05-29T09:11:52Z</time>
      </trkpt>
      <trkpt lat="45.05442" lon="5.75035">
        <ele>842</ele>
        <time>2021-05-29T09:11:53Z</time>
      </trkpt>
      <trkpt lat="45.05441" lon="5.75038">
        <ele>841.4</ele>
        <time>2021-05-29T09:11:54Z</time>
      </trkpt>
      <trkpt lat="45.05441" lon="5.75041">
        <ele>840.8</ele>
        <time>2021-05-29T09:11:55Z</time>
      </trkpt>
      <trkpt lat="45.05441" lon="5.75044">
        <ele>840.2</ele>
        <time>2021-05-29T09:11:56Z</time>
      </trkpt>
      <trkpt lat="45.0544" lon="5.75048">
        <ele>839.8</ele>
        <time>2021-05-29T09:11:57Z</time>
      </trkpt>
      <trkpt lat="45.0544" lon="5.75051">
        <ele>839.8</ele>
        <time>2021-05-29T09:11:58Z</time>
      </trkpt>
      <trkpt lat="45.05439" lon="5.75054">
        <ele>839.4</ele>
        <time>2021-05-29T09:11:59Z</time>
      </trkpt>
      <trkpt lat="45.05439" lon="5.75057">
        <ele>839.4</ele>
        <time>2021-05-29T09:12:00Z</time>
      </trkpt>
      <trkpt lat="45.05436" lon="5.75061">
        <ele>839</ele>
        <time>2021-05-29T09:12:01Z</time>
      </trkpt>
      <trkpt lat="45.05436" lon="5.75061">
        <ele>838.8</ele>
        <time>2021-05-29T09:12:02Z</time>
      </trkpt>
      <trkpt lat="45.05436" lon="5.75061">
        <ele>838.8</ele>
        <time>2021-05-29T09:12:03Z</time>
      </trkpt>
      <trkpt lat="45.05436" lon="5.75061">
        <ele>838.6</ele>
        <time>2021-05-29T09:12:04Z</time>
      </trkpt>
      <trkpt lat="45.05435" lon="5.75064">
        <ele>838.8</ele>
        <time>2021-05-29T09:12:05Z</time>
      </trkpt>
      <trkpt lat="45.05434" lon="5.75066">
        <ele>838.4</ele>
        <time>2021-05-29T09:12:06Z</time>
      </trkpt>
      <trkpt lat="45.05434" lon="5.75068">
        <ele>838</ele>
        <time>2021-05-29T09:12:07Z</time>
      </trkpt>
      <trkpt lat="45.05433" lon="5.7507">
        <ele>837.8</ele>
        <time>2021-05-29T09:12:08Z</time>
      </trkpt>
      <trkpt lat="45.05433" lon="5.75073">
        <ele>837.6</ele>
        <time>2021-05-29T09:12:09Z</time>
      </trkpt>
      <trkpt lat="45.05432" lon="5.75075">
        <ele>837.8</ele>
        <time>2021-05-29T09:12:10Z</time>
      </trkpt>
      <trkpt lat="45.0543" lon="5.75078">
        <ele>837.6</ele>
        <time>2021-05-29T09:12:11Z</time>
      </trkpt>
      <trkpt lat="45.05429" lon="5.7508">
        <ele>838</ele>
        <time>2021-05-29T09:12:12Z</time>
      </trkpt>
      <trkpt lat="45.05428" lon="5.75082">
        <ele>837.6</ele>
        <time>2021-05-29T09:12:13Z</time>
      </trkpt>
      <trkpt lat="45.05426" lon="5.75083">
        <ele>837.2</ele>
        <time>2021-05-29T09:12:14Z</time>
      </trkpt>
      <trkpt lat="45.05425" lon="5.75085">
        <ele>837.4</ele>
        <time>2021-05-29T09:12:15Z</time>
      </trkpt>
      <trkpt lat="45.05424" lon="5.75086">
        <ele>837.2</ele>
        <time>2021-05-29T09:12:16Z</time>
      </trkpt>
      <trkpt lat="45.05422" lon="5.75088">
        <ele>837.2</ele>
        <time>2021-05-29T09:12:17Z</time>
      </trkpt>
      <trkpt lat="45.05421" lon="5.7509">
        <ele>837</ele>
        <time>2021-05-29T09:12:18Z</time>
      </trkpt>
      <trkpt lat="45.0542" lon="5.75091">
        <ele>836.8</ele>
        <time>2021-05-29T09:12:19Z</time>
      </trkpt>
      <trkpt lat="45.05418" lon="5.75093">
        <ele>836.6</ele>
        <time>2021-05-29T09:12:20Z</time>
      </trkpt>
      <trkpt lat="45.05417" lon="5.75094">
        <ele>836</ele>
        <time>2021-05-29T09:12:21Z</time>
      </trkpt>
      <trkpt lat="45.05416" lon="5.75096">
        <ele>836.2</ele>
        <time>2021-05-29T09:12:22Z</time>
      </trkpt>
      <trkpt lat="45.05415" lon="5.75098">
        <ele>836</ele>
        <time>2021-05-29T09:12:23Z</time>
      </trkpt>
      <trkpt lat="45.05413" lon="5.75099">
        <ele>836.2</ele>
        <time>2021-05-29T09:12:24Z</time>
      </trkpt>
      <trkpt lat="45.05412" lon="5.75101">
        <ele>836</ele>
        <time>2021-05-29T09:12:25Z</time>
      </trkpt>
      <trkpt lat="45.05411" lon="5.75103">
        <ele>835.8</ele>
        <time>2021-05-29T09:12:26Z</time>
      </trkpt>
      <trkpt lat="45.05409" lon="5.75104">
        <ele>835.6</ele>
        <time>2021-05-29T09:12:27Z</time>
      </trkpt>
      <trkpt lat="45.05408" lon="5.75106">
        <ele>835.2</ele>
        <time>2021-05-29T09:12:28Z</time>
      </trkpt>
      <trkpt lat="45.05407" lon="5.75107">
        <ele>834.8</ele>
        <time>2021-05-29T09:12:29Z</time>
      </trkpt>
      <trkpt lat="45.05406" lon="5.75109">
        <ele>834.4</ele>
        <time>2021-05-29T09:12:30Z</time>
      </trkpt>
      <trkpt lat="45.05404" lon="5.75111">
        <ele>834.2</ele>
        <time>2021-05-29T09:12:31Z</time>
      </trkpt>
      <trkpt lat="45.05403" lon="5.75112">
        <ele>833.8</ele>
        <time>2021-05-29T09:12:32Z</time>
      </trkpt>
      <trkpt lat="45.05402" lon="5.75114">
        <ele>833.8</ele>
        <time>2021-05-29T09:12:33Z</time>
      </trkpt>
      <trkpt lat="45.054" lon="5.75115">
        <ele>833.8</ele>
        <time>2021-05-29T09:12:34Z</time>
      </trkpt>
      <trkpt lat="45.05399" lon="5.75117">
        <ele>834</ele>
        <time>2021-05-29T09:12:35Z</time>
      </trkpt>
      <trkpt lat="45.05398" lon="5.75119">
        <ele>833.8</ele>
        <time>2021-05-29T09:12:36Z</time>
      </trkpt>
      <trkpt lat="45.05396" lon="5.7512">
        <ele>833.8</ele>
        <time>2021-05-29T09:12:37Z</time>
      </trkpt>
      <trkpt lat="45.05395" lon="5.75122">
        <ele>833.4</ele>
        <time>2021-05-29T09:12:38Z</time>
      </trkpt>
      <trkpt lat="45.05394" lon="5.75123">
        <ele>833.4</ele>
        <time>2021-05-29T09:12:39Z</time>
      </trkpt>
      <trkpt lat="45.05393" lon="5.75125">
        <ele>832.8</ele>
        <time>2021-05-29T09:12:40Z</time>
      </trkpt>
      <trkpt lat="45.05391" lon="5.75127">
        <ele>832.4</ele>
        <time>2021-05-29T09:12:41Z</time>
      </trkpt>
      <trkpt lat="45.0539" lon="5.75128">
        <ele>831.8</ele>
        <time>2021-05-29T09:12:42Z</time>
      </trkpt>
      <trkpt lat="45.05389" lon="5.7513">
        <ele>831.6</ele>
        <time>2021-05-29T09:12:43Z</time>
      </trkpt>
      <trkpt lat="45.05387" lon="5.75131">
        <ele>831.8</ele>
        <time>2021-05-29T09:12:44Z</time>
      </trkpt>
      <trkpt lat="45.05386" lon="5.75133">
        <ele>831.6</ele>
        <time>2021-05-29T09:12:45Z</time>
      </trkpt>
      <trkpt lat="45.05385" lon="5.75135">
        <ele>831.8</ele>
        <time>2021-05-29T09:12:46Z</time>
      </trkpt>
      <trkpt lat="45.05383" lon="5.75136">
        <ele>831.6</ele>
        <time>2021-05-29T09:12:47Z</time>
      </trkpt>
      <trkpt lat="45.05382" lon="5.75138">
        <ele>831.6</ele>
        <time>2021-05-29T09:12:48Z</time>
      </trkpt>
      <trkpt lat="45.05381" lon="5.7514">
        <ele>831.2</ele>
        <time>2021-05-29T09:12:49Z</time>
      </trkpt>
      <trkpt lat="45.0538" lon="5.75141">
        <ele>831</ele>
        <time>2021-05-29T09:12:50Z</time>
      </trkpt>
      <trkpt lat="45.05332" lon="5.75195">
        <ele>830.6</ele>
        <time>2021-05-29T09:12:51Z</time>
      </trkpt>
      <trkpt lat="45.05332" lon="5.75195">
        <ele>830.2</ele>
        <time>2021-05-29T09:12:52Z</time>
      </trkpt>
      <trkpt lat="45.05331" lon="5.75199">
        <ele>830.6</ele>
        <time>2021-05-29T09:12:53Z</time>
      </trkpt>
      <trkpt lat="45.0533" lon="5.75202">
        <ele>830.2</ele>
        <time>2021-05-29T09:12:54Z</time>
      </trkpt>
      <trkpt lat="45.05329" lon="5.75205">
        <ele>830.4</ele>
        <time>2021-05-29T09:12:55Z</time>
      </trkpt>
      <trkpt lat="45.05328" lon="5.75208">
        <ele>830.2</ele>
        <time>2021-05-29T09:12:56Z</time>
      </trkpt>
      <trkpt lat="45.05326" lon="5.75215">
        <ele>830.4</ele>
        <time>2021-05-29T09:12:57Z</time>
      </trkpt>
      <trkpt lat="45.05323" lon="5.75221">
        <ele>830</ele>
        <time>2021-05-29T09:12:58Z</time>
      </trkpt>
      <trkpt lat="45.05321" lon="5.75228">
        <ele>830</ele>
        <time>2021-05-29T09:12:59Z</time>
      </trkpt>
      <trkpt lat="45.05318" lon="5.75234">
        <ele>829.6</ele>
        <time>2021-05-29T09:13:00Z</time>
      </trkpt>
      <trkpt lat="45.05316" lon="5.75241">
        <ele>829.2</ele>
        <time>2021-05-29T09:13:01Z</time>
      </trkpt>
      <trkpt lat="45.05313" lon="5.75248">
        <ele>829.4</ele>
        <time>2021-05-29T09:13:02Z</time>
      </trkpt>
      <trkpt lat="45.05311" lon="5.75254">
        <ele>829.2</ele>
        <time>2021-05-29T09:13:03Z</time>
      </trkpt>
      <trkpt lat="45.05308" lon="5.75261">
        <ele>829.6</ele>
        <time>2021-05-29T09:13:04Z</time>
      </trkpt>
      <trkpt lat="45.05307" lon="5.75264">
        <ele>829.4</ele>
        <time>2021-05-29T09:13:05Z</time>
      </trkpt>
      <trkpt lat="45.05306" lon="5.75267">
        <ele>829.6</ele>
        <time>2021-05-29T09:13:06Z</time>
      </trkpt>
      <trkpt lat="45.05306" lon="5.7527">
        <ele>829.2</ele>
        <time>2021-05-29T09:13:07Z</time>
      </trkpt>
      <trkpt lat="45.05305" lon="5.75273">
        <ele>829</ele>
        <time>2021-05-29T09:13:08Z</time>
      </trkpt>
      <trkpt lat="45.05303" lon="5.75276">
        <ele>829</ele>
        <time>2021-05-29T09:13:09Z</time>
      </trkpt>
      <trkpt lat="45.05301" lon="5.75279">
        <ele>828.6</ele>
        <time>2021-05-29T09:13:10Z</time>
      </trkpt>
      <trkpt lat="45.05299" lon="5.75282">
        <ele>828.8</ele>
        <time>2021-05-29T09:13:11Z</time>
      </trkpt>
      <trkpt lat="45.05298" lon="5.75285">
        <ele>828.6</ele>
        <time>2021-05-29T09:13:12Z</time>
      </trkpt>
      <trkpt lat="45.05296" lon="5.75288">
        <ele>828.8</ele>
        <time>2021-05-29T09:13:13Z</time>
      </trkpt>
      <trkpt lat="45.05295" lon="5.75291">
        <ele>828.6</ele>
        <time>2021-05-29T09:13:14Z</time>
      </trkpt>
      <trkpt lat="45.05293" lon="5.75295">
        <ele>828.8</ele>
        <time>2021-05-29T09:13:15Z</time>
      </trkpt>
      <trkpt lat="45.05291" lon="5.75298">
        <ele>828.6</ele>
        <time>2021-05-29T09:13:16Z</time>
      </trkpt>
      <trkpt lat="45.05289" lon="5.75301">
        <ele>828.4</ele>
        <time>2021-05-29T09:13:17Z</time>
      </trkpt>
      <trkpt lat="45.05286" lon="5.75305">
        <ele>828</ele>
        <time>2021-05-29T09:13:18Z</time>
      </trkpt>
      <trkpt lat="45.05283" lon="5.75308">
        <ele>827.8</ele>
        <time>2021-05-29T09:13:19Z</time>
      </trkpt>
      <trkpt lat="45.05281" lon="5.75312">
        <ele>827.2</ele>
        <time>2021-05-29T09:13:20Z</time>
      </trkpt>
      <trkpt lat="45.05278" lon="5.75315">
        <ele>826.8</ele>
        <time>2021-05-29T09:13:21Z</time>
      </trkpt>
      <trkpt lat="45.05275" lon="5.75319">
        <ele>826.4</ele>
        <time>2021-05-29T09:13:22Z</time>
      </trkpt>
      <trkpt lat="45.05273" lon="5.75322">
        <ele>826.2</ele>
        <time>2021-05-29T09:13:23Z</time>
      </trkpt>
      <trkpt lat="45.0527" lon="5.75326">
        <ele>826.4</ele>
        <time>2021-05-29T09:13:24Z</time>
      </trkpt>
      <trkpt lat="45.05267" lon="5.7533">
        <ele>826.6</ele>
        <time>2021-05-29T09:13:25Z</time>
      </trkpt>
      <trkpt lat="45.05267" lon="5.7533">
        <ele>826.8</ele>
        <time>2021-05-29T09:13:26Z</time>
      </trkpt>
      <trkpt lat="45.05267" lon="5.7533">
        <ele>826.8</ele>
        <time>2021-05-29T09:13:27Z</time>
      </trkpt>
      <trkpt lat="45.05267" lon="5.7533">
        <ele>827</ele>
        <time>2021-05-29T09:13:28Z</time>
      </trkpt>
      <trkpt lat="45.05264" lon="5.75332">
        <ele>826.8</ele>
        <time>2021-05-29T09:13:29Z</time>
      </trkpt>
      <trkpt lat="45.05262" lon="5.75334">
        <ele>827</ele>
        <time>2021-05-29T09:13:30Z</time>
      </trkpt>
      <trkpt lat="45.05259" lon="5.75336">
        <ele>826.6</ele>
        <time>2021-05-29T09:13:31Z</time>
      </trkpt>
      <trkpt lat="45.05257" lon="5.75338">
        <ele>826.4</ele>
        <time>2021-05-29T09:13:32Z</time>
      </trkpt>
      <trkpt lat="45.05254" lon="5.7534">
        <ele>826.2</ele>
        <time>2021-05-29T09:13:33Z</time>
      </trkpt>
      <trkpt lat="45.05252" lon="5.75342">
        <ele>825.8</ele>
        <time>2021-05-29T09:13:34Z</time>
      </trkpt>
      <trkpt lat="45.05249" lon="5.75344">
        <ele>825.2</ele>
        <time>2021-05-29T09:13:35Z</time>
      </trkpt>
      <trkpt lat="45.05247" lon="5.75346">
        <ele>824.8</ele>
        <time>2021-05-29T09:13:36Z</time>
      </trkpt>
      <trkpt lat="45.05244" lon="5.75348">
        <ele>825.2</ele>
        <time>2021-05-29T09:13:37Z</time>
      </trkpt>
      <trkpt lat="45.05242" lon="5.7535">
        <ele>824.8</ele>
        <time>2021-05-29T09:13:38Z</time>
      </trkpt>
      <trkpt lat="45.05239" lon="5.75352">
        <ele>825.2</ele>
        <time>2021-05-29T09:13:39Z</time>
      </trkpt>
      <trkpt lat="45.05237" lon="5.75354">
        <ele>825</ele>
        <time>2021-05-29T09:13:40Z</time>
      </trkpt>
      <trkpt lat="45.05236" lon="5.75356">
        <ele>825.4</ele>
        <time>2021-05-29T09:13:41Z</time>
      </trkpt>
      <trkpt lat="45.05236" lon="5.75359">
        <ele>825.4</ele>
        <time>2021-05-29T09:13:42Z</time>
      </trkpt>
      <trkpt lat="45.05235" lon="5.75361">
        <ele>825.4</ele>
        <time>2021-05-29T09:13:43Z</time>
      </trkpt>
      <trkpt lat="45.05234" lon="5.75364">
        <ele>825.2</ele>
        <time>2021-05-29T09:13:44Z</time>
      </trkpt>
      <trkpt lat="45.05234" lon="5.75366">
        <ele>825</ele>
        <time>2021-05-29T09:13:45Z</time>
      </trkpt>
      <trkpt lat="45.05233" lon="5.75368">
        <ele>824.8</ele>
        <time>2021-05-29T09:13:46Z</time>
      </trkpt>
      <trkpt lat="45.05231" lon="5.75369">
        <ele>824.6</ele>
        <time>2021-05-29T09:13:47Z</time>
      </trkpt>
      <trkpt lat="45.0523" lon="5.75368">
        <ele>824.6</ele>
        <time>2021-05-29T09:13:48Z</time>
      </trkpt>
      <trkpt lat="45.05229" lon="5.75367">
        <ele>824.2</ele>
        <time>2021-05-29T09:13:49Z</time>
      </trkpt>
      <trkpt lat="45.05228" lon="5.75366">
        <ele>824.8</ele>
        <time>2021-05-29T09:13:50Z</time>
      </trkpt>
      <trkpt lat="45.05227" lon="5.75365">
        <ele>824.6</ele>
        <time>2021-05-29T09:13:51Z</time>
      </trkpt>
      <trkpt lat="45.05226" lon="5.75364">
        <ele>825</ele>
        <time>2021-05-29T09:13:52Z</time>
      </trkpt>
      <trkpt lat="45.05224" lon="5.75362">
        <ele>824.8</ele>
        <time>2021-05-29T09:13:53Z</time>
      </trkpt>
      <trkpt lat="45.05223" lon="5.75361">
        <ele>825.2</ele>
        <time>2021-05-29T09:13:54Z</time>
      </trkpt>
      <trkpt lat="45.05222" lon="5.7536">
        <ele>825.2</ele>
        <time>2021-05-29T09:13:55Z</time>
      </trkpt>
      <trkpt lat="45.05221" lon="5.75359">
        <ele>825.4</ele>
        <time>2021-05-29T09:13:56Z</time>
      </trkpt>
      <trkpt lat="45.0522" lon="5.75358">
        <ele>825.2</ele>
        <time>2021-05-29T09:13:57Z</time>
      </trkpt>
      <trkpt lat="45.05219" lon="5.75357">
        <ele>825.4</ele>
        <time>2021-05-29T09:13:58Z</time>
      </trkpt>
      <trkpt lat="45.05217" lon="5.75355">
        <ele>825</ele>
        <time>2021-05-29T09:13:59Z</time>
      </trkpt>
      <trkpt lat="45.05216" lon="5.75354">
        <ele>825</ele>
        <time>2021-05-29T09:14:00Z</time>
      </trkpt>
      <trkpt lat="45.05215" lon="5.75353">
        <ele>824.6</ele>
        <time>2021-05-29T09:14:01Z</time>
      </trkpt>
      <trkpt lat="45.05214" lon="5.75352">
        <ele>824.4</ele>
        <time>2021-05-29T09:14:02Z</time>
      </trkpt>
      <trkpt lat="45.05213" lon="5.75351">
        <ele>824.2</ele>
        <time>2021-05-29T09:14:03Z</time>
      </trkpt>
      <trkpt lat="45.05211" lon="5.7535">
        <ele>823.8</ele>
        <time>2021-05-29T09:14:04Z</time>
      </trkpt>
      <trkpt lat="45.0521" lon="5.75348">
        <ele>824</ele>
        <time>2021-05-29T09:14:05Z</time>
      </trkpt>
      <trkpt lat="45.05209" lon="5.75347">
        <ele>823.6</ele>
        <time>2021-05-29T09:14:06Z</time>
      </trkpt>
      <trkpt lat="45.05208" lon="5.75346">
        <ele>823.6</ele>
        <time>2021-05-29T09:14:07Z</time>
      </trkpt>
      <trkpt lat="45.05207" lon="5.75345">
        <ele>823.4</ele>
        <time>2021-05-29T09:14:08Z</time>
      </trkpt>
      <trkpt lat="45.05206" lon="5.75344">
        <ele>823.4</ele>
        <time>2021-05-29T09:14:09Z</time>
      </trkpt>
      <trkpt lat="45.05204" lon="5.75343">
        <ele>823</ele>
        <time>2021-05-29T09:14:10Z</time>
      </trkpt>
      <trkpt lat="45.05184" lon="5.75294">
        <ele>822.8</ele>
        <time>2021-05-29T09:14:11Z</time>
      </trkpt>
      <trkpt lat="45.05182" lon="5.75292">
        <ele>822.4</ele>
        <time>2021-05-29T09:14:12Z</time>
      </trkpt>
      <trkpt lat="45.05174" lon="5.75288">
        <ele>822.2</ele>
        <time>2021-05-29T09:14:13Z</time>
      </trkpt>
      <trkpt lat="45.05171" lon="5.75287">
        <ele>822.2</ele>
        <time>2021-05-29T09:14:14Z</time>
      </trkpt>
      <trkpt lat="45.05166" lon="5.75286">
        <ele>822.2</ele>
        <time>2021-05-29T09:14:15Z</time>
      </trkpt>
      <trkpt lat="45.05164" lon="5.75287">
        <ele>822.6</ele>
        <time>2021-05-29T09:14:16Z</time>
      </trkpt>
      <trkpt lat="45.05162" lon="5.75287">
        <ele>822.6</ele>
        <time>2021-05-29T09:14:17Z</time>
      </trkpt>
      <trkpt lat="45.05158" lon="5.75288">
        <ele>822.6</ele>
        <time>2021-05-29T09:14:18Z</time>
      </trkpt>
      <trkpt lat="45.05154" lon="5.7529">
        <ele>822.4</ele>
        <time>2021-05-29T09:14:19Z</time>
      </trkpt>
      <trkpt lat="45.0515" lon="5.75291">
        <ele>822.6</ele>
        <time>2021-05-29T09:14:20Z</time>
      </trkpt>
      <trkpt lat="45.05146" lon="5.75292">
        <ele>822.4</ele>
        <time>2021-05-29T09:14:21Z</time>
      </trkpt>
      <trkpt lat="45.05142" lon="5.75291">
        <ele>822.6</ele>
        <time>2021-05-29T09:14:22Z</time>
      </trkpt>
      <trkpt lat="45.05139" lon="5.75291">
        <ele>822.4</ele>
        <time>2021-05-29T09:14:23Z</time>
      </trkpt>
      <trkpt lat="45.05129" lon="5.7529">
        <ele>822.2</ele>
        <time>2021-05-29T09:14:24Z</time>
      </trkpt>
      <trkpt lat="45.05127" lon="5.7529">
        <ele>822.6</ele>
        <time>2021-05-29T09:14:25Z</time>
      </trkpt>
      <trkpt lat="45.05121" lon="5.7529">
        <ele>822.4</ele>
        <time>2021-05-29T09:14:26Z</time>
      </trkpt>
      <trkpt lat="45.05121" lon="5.75291">
        <ele>822.6</ele>
        <time>2021-05-29T09:14:27Z</time>
      </trkpt>
      <trkpt lat="45.05121" lon="5.75292">
        <ele>822.2</ele>
        <time>2021-05-29T09:14:28Z</time>
      </trkpt>
      <trkpt lat="45.05121" lon="5.75292">
        <ele>822.2</ele>
        <time>2021-05-29T09:14:29Z</time>
      </trkpt>
      <trkpt lat="45.05121" lon="5.75293">
        <ele>821.8</ele>
        <time>2021-05-29T09:14:30Z</time>
      </trkpt>
      <trkpt lat="45.0512" lon="5.75294">
        <ele>821.2</ele>
        <time>2021-05-29T09:14:31Z</time>
      </trkpt>
      <trkpt lat="45.0512" lon="5.75294">
        <ele>821.4</ele>
        <time>2021-05-29T09:14:32Z</time>
      </trkpt>
      <trkpt lat="45.0512" lon="5.75295">
        <ele>821</ele>
        <time>2021-05-29T09:14:33Z</time>
      </trkpt>
      <trkpt lat="45.0512" lon="5.75296">
        <ele>821</ele>
        <time>2021-05-29T09:14:34Z</time>
      </trkpt>
      <trkpt lat="45.0512" lon="5.75297">
        <ele>820.6</ele>
        <time>2021-05-29T09:14:35Z</time>
      </trkpt>
      <trkpt lat="45.05119" lon="5.75297">
        <ele>820.6</ele>
        <time>2021-05-29T09:14:36Z</time>
      </trkpt>
      <trkpt lat="45.05119" lon="5.75298">
        <ele>820</ele>
        <time>2021-05-29T09:14:37Z</time>
      </trkpt>
      <trkpt lat="45.05119" lon="5.75299">
        <ele>819.6</ele>
        <time>2021-05-29T09:14:38Z</time>
      </trkpt>
      <trkpt lat="45.05119" lon="5.753">
        <ele>819.2</ele>
        <time>2021-05-29T09:14:39Z</time>
      </trkpt>
      <trkpt lat="45.05119" lon="5.753">
        <ele>818.6</ele>
        <time>2021-05-29T09:14:40Z</time>
      </trkpt>
      <trkpt lat="45.05118" lon="5.75301">
        <ele>818.8</ele>
        <time>2021-05-29T09:14:41Z</time>
      </trkpt>
      <trkpt lat="45.05118" lon="5.75302">
        <ele>818.6</ele>
        <time>2021-05-29T09:14:42Z</time>
      </trkpt>
      <trkpt lat="45.05118" lon="5.75302">
        <ele>818.8</ele>
        <time>2021-05-29T09:14:43Z</time>
      </trkpt>
      <trkpt lat="45.05118" lon="5.75303">
        <ele>818.2</ele>
        <time>2021-05-29T09:14:44Z</time>
      </trkpt>
      <trkpt lat="45.05118" lon="5.75304">
        <ele>818</ele>
        <time>2021-05-29T09:14:45Z</time>
      </trkpt>
      <trkpt lat="45.05118" lon="5.75305">
        <ele>817.4</ele>
        <time>2021-05-29T09:14:46Z</time>
      </trkpt>
      <trkpt lat="45.05117" lon="5.75305">
        <ele>816.8</ele>
        <time>2021-05-29T09:14:47Z</time>
      </trkpt>
      <trkpt lat="45.05117" lon="5.75306">
        <ele>816.6</ele>
        <time>2021-05-29T09:14:48Z</time>
      </trkpt>
      <trkpt lat="45.05117" lon="5.75307">
        <ele>816.4</ele>
        <time>2021-05-29T09:14:49Z</time>
      </trkpt>
      <trkpt lat="45.05117" lon="5.75307">
        <ele>816.4</ele>
        <time>2021-05-29T09:14:50Z</time>
      </trkpt>
      <trkpt lat="45.05117" lon="5.75308">
        <ele>816</ele>
        <time>2021-05-29T09:14:51Z</time>
      </trkpt>
      <trkpt lat="45.05116" lon="5.75309">
        <ele>816</ele>
        <time>2021-05-29T09:14:52Z</time>
      </trkpt>
      <trkpt lat="45.05116" lon="5.7531">
        <ele>815.6</ele>
        <time>2021-05-29T09:14:53Z</time>
      </trkpt>
      <trkpt lat="45.05116" lon="5.7531">
        <ele>815.4</ele>
        <time>2021-05-29T09:14:54Z</time>
      </trkpt>
      <trkpt lat="45.05116" lon="5.75311">
        <ele>815</ele>
        <time>2021-05-29T09:14:55Z</time>
      </trkpt>
      <trkpt lat="45.05116" lon="5.75312">
        <ele>814.6</ele>
        <time>2021-05-29T09:14:56Z</time>
      </trkpt>
      <trkpt lat="45.05116" lon="5.75312">
        <ele>814.4</ele>
        <time>2021-05-29T09:14:57Z</time>
      </trkpt>
      <trkpt lat="45.05115" lon="5.75313">
        <ele>814.2</ele>
        <time>2021-05-29T09:14:58Z</time>
      </trkpt>
      <trkpt lat="45.05115" lon="5.75314">
        <ele>814.4</ele>
        <time>2021-05-29T09:14:59Z</time>
      </trkpt>
      <trkpt lat="45.05115" lon="5.75315">
        <ele>814</ele>
        <time>2021-05-29T09:15:00Z</time>
      </trkpt>
      <trkpt lat="45.05115" lon="5.75315">
        <ele>814.4</ele>
        <time>2021-05-29T09:15:01Z</time>
      </trkpt>
      <trkpt lat="45.05115" lon="5.75316">
        <ele>814.2</ele>
        <time>2021-05-29T09:15:02Z</time>
      </trkpt>
      <trkpt lat="45.05114" lon="5.75317">
        <ele>814.4</ele>
        <time>2021-05-29T09:15:03Z</time>
      </trkpt>
      <trkpt lat="45.05114" lon="5.75317">
        <ele>814</ele>
        <time>2021-05-29T09:15:04Z</time>
      </trkpt>
      <trkpt lat="45.05114" lon="5.75318">
        <ele>814.2</ele>
        <time>2021-05-29T09:15:05Z</time>
      </trkpt>
      <trkpt lat="45.05114" lon="5.75319">
        <ele>813.8</ele>
        <time>2021-05-29T09:15:06Z</time>
      </trkpt>
      <trkpt lat="45.05114" lon="5.7532">
        <ele>813.8</ele>
        <time>2021-05-29T09:15:07Z</time>
      </trkpt>
      <trkpt lat="45.05114" lon="5.7532">
        <ele>813.4</ele>
        <time>2021-05-29T09:15:08Z</time>
      </trkpt>
      <trkpt lat="45.05113" lon="5.75321">
        <ele>813.2</ele>
        <time>2021-05-29T09:15:09Z</time>
      </trkpt>
      <trkpt lat="45.05113" lon="5.75322">
        <ele>812.8</ele>
        <time>2021-05-29T09:15:10Z</time>
      </trkpt>
      <trkpt lat="45.05113" lon="5.75323">
        <ele>812.4</ele>
        <time>2021-05-29T09:15:11Z</time>
      </trkpt>
      <trkpt lat="45.05113" lon="5.75323">
        <ele>812.2</ele>
        <time>2021-05-29T09:15:12Z</time>
      </trkpt>
      <trkpt lat="45.05113" lon="5.75324">
        <ele>812</ele>
        <time>2021-05-29T09:15:13Z</time>
      </trkpt>
      <trkpt lat="45.05112" lon="5.75325">
        <ele>811.8</ele>
        <time>2021-05-29T09:15:14Z</time>
      </trkpt>
      <trkpt lat="45.05112" lon="5.75325">
        <ele>811.4</ele>
        <time>2021-05-29T09:15:15Z</time>
      </trkpt>
      <trkpt lat="45.05112" lon="5.75326">
        <ele>811.6</ele>
        <time>2021-05-29T09:15:16Z</time>
      </trkpt>
      <trkpt lat="45.05112" lon="5.75327">
        <ele>811.6</ele>
        <time>2021-05-29T09:15:17Z</time>
      </trkpt>
      <trkpt lat="45.05112" lon="5.75328">
        <ele>811.8</ele>
        <time>2021-05-29T09:15:18Z</time>
      </trkpt>
      <trkpt lat="45.05111" lon="5.75328">
        <ele>811.6</ele>
        <time>2021-05-29T09:15:19Z</time>
      </trkpt>
      <trkpt lat="45.05111" lon="5.75329">
        <ele>811.8</ele>
        <time>2021-05-29T09:15:20Z</time>
      </trkpt>
      <trkpt lat="45.05111" lon="5.7533">
        <ele>811.8</ele>
        <time>2021-05-29T09:15:21Z</time>
      </trkpt>
      <trkpt lat="45.05111" lon="5.7533">
        <ele>811.8</ele>
        <time>2021-05-29T09:15:22Z</time>
      </trkpt>
      <trkpt lat="45.05111" lon="5.75331">
        <ele>811.6</ele>
        <time>2021-05-29T09:15:23Z</time>
      </trkpt>
      <trkpt lat="45.05111" lon="5.75332">
        <ele>811.6</ele>
        <time>2021-05-29T09:15:24Z</time>
      </trkpt>
      <trkpt lat="45.0511" lon="5.75333">
        <ele>811.2</ele>
        <time>2021-05-29T09:15:25Z</time>
      </trkpt>
      <trkpt lat="45.0511" lon="5.75333">
        <ele>811</ele>
        <time>2021-05-29T09:15:26Z</time>
      </trkpt>
      <trkpt lat="45.0511" lon="5.75334">
        <ele>810.8</ele>
        <time>2021-05-29T09:15:27Z</time>
      </trkpt>
      <trkpt lat="45.0511" lon="5.75335">
        <ele>810.6</ele>
        <time>2021-05-29T09:15:28Z</time>
      </trkpt>
      <trkpt lat="45.0511" lon="5.75335">
        <ele>810.2</ele>
        <time>2021-05-29T09:15:29Z</time>
      </trkpt>
      <trkpt lat="45.05109" lon="5.75336">
        <ele>809.8</ele>
        <time>2021-05-29T09:15:30Z</time>
      </trkpt>
      <trkpt lat="45.05109" lon="5.75337">
        <ele>810</ele>
        <time>2021-05-29T09:15:31Z</time>
      </trkpt>
      <trkpt lat="45.05109" lon="5.75338">
        <ele>809.8</ele>
        <time>2021-05-29T09:15:32Z</time>
      </trkpt>
      <trkpt lat="45.05109" lon="5.75338">
        <ele>810</ele>
        <time>2021-05-29T09:15:33Z</time>
      </trkpt>
      <trkpt lat="45.05109" lon="5.75339">
        <ele>809.8</ele>
        <time>2021-05-29T09:15:34Z</time>
      </trkpt>
      <trkpt lat="45.05109" lon="5.7534">
        <ele>810</ele>
        <time>2021-05-29T09:15:35Z</time>
      </trkpt>
      <trkpt lat="45.05108" lon="5.75341">
        <ele>809.8</ele>
        <time>2021-05-29T09:15:36Z</time>
      </trkpt>
      <trkpt lat="45.05108" lon="5.75341">
        <ele>810</ele>
        <time>2021-05-29T09:15:37Z</time>
      </trkpt>
      <trkpt lat="45.05108" lon="5.75342">
        <ele>809.6</ele>
        <time>2021-05-29T09:15:38Z</time>
      </trkpt>
      <trkpt lat="45.05108" lon="5.75343">
        <ele>810</ele>
        <time>2021-05-29T09:15:39Z</time>
      </trkpt>
      <trkpt lat="45.05108" lon="5.75343">
        <ele>809.6</ele>
        <time>2021-05-29T09:15:40Z</time>
      </trkpt>
      <trkpt lat="45.05107" lon="5.75344">
        <ele>809.4</ele>
        <time>2021-05-29T09:15:41Z</time>
      </trkpt>
      <trkpt lat="45.05107" lon="5.75345">
        <ele>809.2</ele>
        <time>2021-05-29T09:15:42Z</time>
      </trkpt>
      <trkpt lat="45.05107" lon="5.75346">
        <ele>808.8</ele>
        <time>2021-05-29T09:15:43Z</time>
      </trkpt>
      <trkpt lat="45.05107" lon="5.75346">
        <ele>808.8</ele>
        <time>2021-05-29T09:15:44Z</time>
      </trkpt>
      <trkpt lat="45.05107" lon="5.75347">
        <ele>808.6</ele>
        <time>2021-05-29T09:15:45Z</time>
      </trkpt>
      <trkpt lat="45.05107" lon="5.75348">
        <ele>808.6</ele>
        <time>2021-05-29T09:15:46Z</time>
      </trkpt>
      <trkpt lat="45.05106" lon="5.75348">
        <ele>808.6</ele>
        <time>2021-05-29T09:15:47Z</time>
      </trkpt>
      <trkpt lat="45.05106" lon="5.75349">
        <ele>809</ele>
        <time>2021-05-29T09:15:48Z</time>
      </trkpt>
      <trkpt lat="45.05106" lon="5.7535">
        <ele>808.6</ele>
        <time>2021-05-29T09:15:49Z</time>
      </trkpt>
      <trkpt lat="45.05106" lon="5.75351">
        <ele>808.6</ele>
        <time>2021-05-29T09:15:50Z</time>
      </trkpt>
      <trkpt lat="45.05106" lon="5.75351">
        <ele>808.4</ele>
        <time>2021-05-29T09:15:51Z</time>
      </trkpt>
      <trkpt lat="45.05105" lon="5.75352">
        <ele>808.4</ele>
        <time>2021-05-29T09:15:52Z</time>
      </trkpt>
      <trkpt lat="45.05105" lon="5.75353">
        <ele>808</ele>
        <time>2021-05-29T09:15:53Z</time>
      </trkpt>
      <trkpt lat="45.05105" lon="5.75353">
        <ele>808</ele>
        <time>2021-05-29T09:15:54Z</time>
      </trkpt>
      <trkpt lat="45.05105" lon="5.75354">
        <ele>807.8</ele>
        <time>2021-05-29T09:15:55Z</time>
      </trkpt>
      <trkpt lat="45.05105" lon="5.75355">
        <ele>807.6</ele>
        <time>2021-05-29T09:15:56Z</time>
      </trkpt>
      <trkpt lat="45.05105" lon="5.75356">
        <ele>807.2</ele>
        <time>2021-05-29T09:15:57Z</time>
      </trkpt>
      <trkpt lat="45.05104" lon="5.75356">
        <ele>806.8</ele>
        <time>2021-05-29T09:15:58Z</time>
      </trkpt>
      <trkpt lat="45.05104" lon="5.75357">
        <ele>806.8</ele>
        <time>2021-05-29T09:15:59Z</time>
      </trkpt>
      <trkpt lat="45.05104" lon="5.75358">
        <ele>806.8</ele>
        <time>2021-05-29T09:16:00Z</time>
      </trkpt>
      <trkpt lat="45.05104" lon="5.75358">
        <ele>807</ele>
        <time>2021-05-29T09:16:01Z</time>
      </trkpt>
      <trkpt lat="45.05104" lon="5.75359">
        <ele>807</ele>
        <time>2021-05-29T09:16:02Z</time>
      </trkpt>
      <trkpt lat="45.05103" lon="5.7536">
        <ele>807.2</ele>
        <time>2021-05-29T09:16:03Z</time>
      </trkpt>
      <trkpt lat="45.05103" lon="5.75361">
        <ele>807</ele>
        <time>2021-05-29T09:16:04Z</time>
      </trkpt>
      <trkpt lat="45.05103" lon="5.75361">
        <ele>807</ele>
        <time>2021-05-29T09:16:05Z</time>
      </trkpt>
      <trkpt lat="45.05103" lon="5.75362">
        <ele>807</ele>
        <time>2021-05-29T09:16:06Z</time>
      </trkpt>
      <trkpt lat="45.05103" lon="5.75363">
        <ele>807.2</ele>
        <time>2021-05-29T09:16:07Z</time>
      </trkpt>
      <trkpt lat="45.05102" lon="5.75364">
        <ele>807.2</ele>
        <time>2021-05-29T09:16:08Z</time>
      </trkpt>
      <trkpt lat="45.05102" lon="5.75364">
        <ele>807.4</ele>
        <time>2021-05-29T09:16:09Z</time>
      </trkpt>
      <trkpt lat="45.05102" lon="5.75365">
        <ele>807.4</ele>
        <time>2021-05-29T09:16:10Z</time>
      </trkpt>
      <trkpt lat="45.05102" lon="5.75366">
        <ele>807.6</ele>
        <time>2021-05-29T09:16:11Z</time>
      </trkpt>
      <trkpt lat="45.05102" lon="5.75366">
        <ele>807.2</ele>
        <time>2021-05-29T09:16:12Z</time>
      </trkpt>
      <trkpt lat="45.05102" lon="5.75367">
        <ele>807.4</ele>
        <time>2021-05-29T09:16:13Z</time>
      </trkpt>
      <trkpt lat="45.05101" lon="5.75368">
        <ele>807.2</ele>
        <time>2021-05-29T09:16:14Z</time>
      </trkpt>
      <trkpt lat="45.05101" lon="5.75369">
        <ele>807.2</ele>
        <time>2021-05-29T09:16:15Z</time>
      </trkpt>
      <trkpt lat="45.05101" lon="5.75369">
        <ele>807</ele>
        <time>2021-05-29T09:16:16Z</time>
      </trkpt>
      <trkpt lat="45.05101" lon="5.7537">
        <ele>806.6</ele>
        <time>2021-05-29T09:16:17Z</time>
      </trkpt>
      <trkpt lat="45.05101" lon="5.75371">
        <ele>806.6</ele>
        <time>2021-05-29T09:16:18Z</time>
      </trkpt>
      <trkpt lat="45.051" lon="5.75371">
        <ele>806.4</ele>
        <time>2021-05-29T09:16:19Z</time>
      </trkpt>
      <trkpt lat="45.051" lon="5.75372">
        <ele>807</ele>
        <time>2021-05-29T09:16:20Z</time>
      </trkpt>
      <trkpt lat="45.051" lon="5.75373">
        <ele>807</ele>
        <time>2021-05-29T09:16:21Z</time>
      </trkpt>
      <trkpt lat="45.051" lon="5.75374">
        <ele>807</ele>
        <time>2021-05-29T09:16:22Z</time>
      </trkpt>
      <trkpt lat="45.051" lon="5.75374">
        <ele>806.8</ele>
        <time>2021-05-29T09:16:23Z</time>
      </trkpt>
      <trkpt lat="45.051" lon="5.75375">
        <ele>807</ele>
        <time>2021-05-29T09:16:24Z</time>
      </trkpt>
      <trkpt lat="45.05099" lon="5.75376">
        <ele>806.8</ele>
        <time>2021-05-29T09:16:25Z</time>
      </trkpt>
      <trkpt lat="45.05081" lon="5.75449">
        <ele>806.8</ele>
        <time>2021-05-29T09:16:26Z</time>
      </trkpt>
      <trkpt lat="45.05081" lon="5.7545">
        <ele>806.4</ele>
        <time>2021-05-29T09:16:27Z</time>
      </trkpt>
      <trkpt lat="45.05081" lon="5.75452">
        <ele>806.4</ele>
        <time>2021-05-29T09:16:28Z</time>
      </trkpt>
      <trkpt lat="45.05081" lon="5.75454">
        <ele>806.2</ele>
        <time>2021-05-29T09:16:29Z</time>
      </trkpt>
      <trkpt lat="45.05081" lon="5.75455">
        <ele>805.8</ele>
        <time>2021-05-29T09:16:30Z</time>
      </trkpt>
      <trkpt lat="45.05081" lon="5.75457">
        <ele>805.8</ele>
        <time>2021-05-29T09:16:31Z</time>
      </trkpt>
      <trkpt lat="45.05081" lon="5.75459">
        <ele>805.4</ele>
        <time>2021-05-29T09:16:32Z</time>
      </trkpt>
      <trkpt lat="45.05081" lon="5.7546">
        <ele>805.6</ele>
        <time>2021-05-29T09:16:33Z</time>
      </trkpt>
      <trkpt lat="45.0508" lon="5.75462">
        <ele>805.4</ele>
        <time>2021-05-29T09:16:34Z</time>
      </trkpt>
      <trkpt lat="45.0508" lon="5.75464">
        <ele>805.6</ele>
        <time>2021-05-29T09:16:35Z</time>
      </trkpt>
      <trkpt lat="45.0508" lon="5.75465">
        <ele>805.4</ele>
        <time>2021-05-29T09:16:36Z</time>
      </trkpt>
      <trkpt lat="45.0508" lon="5.75467">
        <ele>805.2</ele>
        <time>2021-05-29T09:16:37Z</time>
      </trkpt>
      <trkpt lat="45.0508" lon="5.75469">
        <ele>804.8</ele>
        <time>2021-05-29T09:16:38Z</time>
      </trkpt>
      <trkpt lat="45.0508" lon="5.7547">
        <ele>804.8</ele>
        <time>2021-05-29T09:16:39Z</time>
      </trkpt>
      <trkpt lat="45.0508" lon="5.75472">
        <ele>804.4</ele>
        <time>2021-05-29T09:16:40Z</time>
      </trkpt>
      <trkpt lat="45.0508" lon="5.75474">
        <ele>804.4</ele>
        <time>2021-05-29T09:16:41Z</time>
      </trkpt>
      <trkpt lat="45.0508" lon="5.75475">
        <ele>803.8</ele>
        <time>2021-05-29T09:16:42Z</time>
      </trkpt>
      <trkpt lat="45.0508" lon="5.75477">
        <ele>803.6</ele>
        <time>2021-05-29T09:16:43Z</time>
      </trkpt>
      <trkpt lat="45.0508" lon="5.75479">
        <ele>803.8</ele>
        <time>2021-05-29T09:16:44Z</time>
      </trkpt>
      <trkpt lat="45.0508" lon="5.7548">
        <ele>803.6</ele>
        <time>2021-05-29T09:16:45Z</time>
      </trkpt>
      <trkpt lat="45.05079" lon="5.75482">
        <ele>803.8</ele>
        <time>2021-05-29T09:16:46Z</time>
      </trkpt>
      <trkpt lat="45.05079" lon="5.75484">
        <ele>803.6</ele>
        <time>2021-05-29T09:16:47Z</time>
      </trkpt>
      <trkpt lat="45.05079" lon="5.75485">
        <ele>804</ele>
        <time>2021-05-29T09:16:48Z</time>
      </trkpt>
      <trkpt lat="45.05079" lon="5.75487">
        <ele>804</ele>
        <time>2021-05-29T09:16:49Z</time>
      </trkpt>
      <trkpt lat="45.05079" lon="5.75489">
        <ele>804.4</ele>
        <time>2021-05-29T09:16:50Z</time>
      </trkpt>
      <trkpt lat="45.05079" lon="5.7549">
        <ele>804.2</ele>
        <time>2021-05-29T09:16:51Z</time>
      </trkpt>
      <trkpt lat="45.05079" lon="5.75492">
        <ele>804.4</ele>
        <time>2021-05-29T09:16:52Z</time>
      </trkpt>
      <trkpt lat="45.05079" lon="5.75494">
        <ele>804.2</ele>
        <time>2021-05-29T09:16:53Z</time>
      </trkpt>
      <trkpt lat="45.05079" lon="5.75495">
        <ele>804.4</ele>
        <time>2021-05-29T09:16:54Z</time>
      </trkpt>
      <trkpt lat="45.05079" lon="5.75497">
        <ele>804.4</ele>
        <time>2021-05-29T09:16:55Z</time>
      </trkpt>
      <trkpt lat="45.05079" lon="5.75499">
        <ele>804.4</ele>
        <time>2021-05-29T09:16:56Z</time>
      </trkpt>
      <trkpt lat="45.05078" lon="5.755">
        <ele>804.2</ele>
        <time>2021-05-29T09:16:57Z</time>
      </trkpt>
      <trkpt lat="45.05078" lon="5.75502">
        <ele>804</ele>
        <time>2021-05-29T09:16:58Z</time>
      </trkpt>
      <trkpt lat="45.05078" lon="5.75504">
        <ele>803.8</ele>
        <time>2021-05-29T09:16:59Z</time>
      </trkpt>
      <trkpt lat="45.05078" lon="5.75505">
        <ele>804</ele>
        <time>2021-05-29T09:17:00Z</time>
      </trkpt>
      <trkpt lat="45.05078" lon="5.75507">
        <ele>803.8</ele>
        <time>2021-05-29T09:17:01Z</time>
      </trkpt>
      <trkpt lat="45.05078" lon="5.75509">
        <ele>803.8</ele>
        <time>2021-05-29T09:17:02Z</time>
      </trkpt>
      <trkpt lat="45.05075" lon="5.75568">
        <ele>803.6</ele>
        <time>2021-05-29T09:17:03Z</time>
      </trkpt>
      <trkpt lat="45.05075" lon="5.75568">
        <ele>803.8</ele>
        <time>2021-05-29T09:17:04Z</time>
      </trkpt>
      <trkpt lat="45.05074" lon="5.75571">
        <ele>803.8</ele>
        <time>2021-05-29T09:17:05Z</time>
      </trkpt>
      <trkpt lat="45.05072" lon="5.75574">
        <ele>803.8</ele>
        <time>2021-05-29T09:17:06Z</time>
      </trkpt>
      <trkpt lat="45.05071" lon="5.75576">
        <ele>803.8</ele>
        <time>2021-05-29T09:17:07Z</time>
      </trkpt>
      <trkpt lat="45.0507" lon="5.75579">
        <ele>804.2</ele>
        <time>2021-05-29T09:17:08Z</time>
      </trkpt>
      <trkpt lat="45.05068" lon="5.75581">
        <ele>804.2</ele>
        <time>2021-05-29T09:17:09Z</time>
      </trkpt>
      <trkpt lat="45.05067" lon="5.75584">
        <ele>804.4</ele>
        <time>2021-05-29T09:17:10Z</time>
      </trkpt>
      <trkpt lat="45.05066" lon="5.75586">
        <ele>804.6</ele>
        <time>2021-05-29T09:17:11Z</time>
      </trkpt>
      <trkpt lat="45.05065" lon="5.75588">
        <ele>804.6</ele>
        <time>2021-05-29T09:17:12Z</time>
      </trkpt>
      <trkpt lat="45.05063" lon="5.7559">
        <ele>804.6</ele>
        <time>2021-05-29T09:17:13Z</time>
      </trkpt>
      <trkpt lat="45.05062" lon="5.75593">
        <ele>804.6</ele>
        <time>2021-05-29T09:17:14Z</time>
      </trkpt>
      <trkpt lat="45.05054" lon="5.75602">
        <ele>804.8</ele>
        <time>2021-05-29T09:17:15Z</time>
      </trkpt>
      <trkpt lat="45.05054" lon="5.75602">
        <ele>804.8</ele>
        <time>2021-05-29T09:17:16Z</time>
      </trkpt>
      <trkpt lat="45.05054" lon="5.75602">
        <ele>805</ele>
        <time>2021-05-29T09:17:17Z</time>
      </trkpt>
      <trkpt lat="45.05053" lon="5.75604">
        <ele>805</ele>
        <time>2021-05-29T09:17:18Z</time>
      </trkpt>
      <trkpt lat="45.05051" lon="5.75606">
        <ele>805.4</ele>
        <time>2021-05-29T09:17:19Z</time>
      </trkpt>
      <trkpt lat="45.05049" lon="5.75608">
        <ele>805.4</ele>
        <time>2021-05-29T09:17:20Z</time>
      </trkpt>
      <trkpt lat="45.05047" lon="5.7561">
        <ele>806</ele>
        <time>2021-05-29T09:17:21Z</time>
      </trkpt>
      <trkpt lat="45.05046" lon="5.75612">
        <ele>806.2</ele>
        <time>2021-05-29T09:17:22Z</time>
      </trkpt>
      <trkpt lat="45.05044" lon="5.75614">
        <ele>806.8</ele>
        <time>2021-05-29T09:17:23Z</time>
      </trkpt>
      <trkpt lat="45.05042" lon="5.75615">
        <ele>807.2</ele>
        <time>2021-05-29T09:17:24Z</time>
      </trkpt>
      <trkpt lat="45.0504" lon="5.75617">
        <ele>807.6</ele>
        <time>2021-05-29T09:17:25Z</time>
      </trkpt>
      <trkpt lat="45.05038" lon="5.75618">
        <ele>807.6</ele>
        <time>2021-05-29T09:17:26Z</time>
      </trkpt>
      <trkpt lat="45.05036" lon="5.7562">
        <ele>808.2</ele>
        <time>2021-05-29T09:17:27Z</time>
      </trkpt>
      <trkpt lat="45.05035" lon="5.75622">
        <ele>808.2</ele>
        <time>2021-05-29T09:17:28Z</time>
      </trkpt>
      <trkpt lat="45.05033" lon="5.75623">
        <ele>808.4</ele>
        <time>2021-05-29T09:17:29Z</time>
      </trkpt>
      <trkpt lat="45.05032" lon="5.75625">
        <ele>808.4</ele>
        <time>2021-05-29T09:17:30Z</time>
      </trkpt>
      <trkpt lat="45.0503" lon="5.75627">
        <ele>809</ele>
        <time>2021-05-29T09:17:31Z</time>
      </trkpt>
      <trkpt lat="45.05028" lon="5.75629">
        <ele>808.8</ele>
        <time>2021-05-29T09:17:32Z</time>
      </trkpt>
      <trkpt lat="45.05027" lon="5.75633">
        <ele>809.2</ele>
        <time>2021-05-29T09:17:33Z</time>
      </trkpt>
      <trkpt lat="45.05025" lon="5.75638">
        <ele>808.8</ele>
        <time>2021-05-29T09:17:34Z</time>
      </trkpt>
      <trkpt lat="45.05024" lon="5.75643">
        <ele>808.8</ele>
        <time>2021-05-29T09:17:35Z</time>
      </trkpt>
      <trkpt lat="45.05022" lon="5.75648">
        <ele>808.6</ele>
        <time>2021-05-29T09:17:36Z</time>
      </trkpt>
      <trkpt lat="45.0502" lon="5.75653">
        <ele>808.8</ele>
        <time>2021-05-29T09:17:37Z</time>
      </trkpt>
      <trkpt lat="45.05019" lon="5.75657">
        <ele>808.6</ele>
        <time>2021-05-29T09:17:38Z</time>
      </trkpt>
      <trkpt lat="45.05017" lon="5.75662">
        <ele>808.8</ele>
        <time>2021-05-29T09:17:39Z</time>
      </trkpt>
      <trkpt lat="45.05015" lon="5.75667">
        <ele>808.8</ele>
        <time>2021-05-29T09:17:40Z</time>
      </trkpt>
      <trkpt lat="45.05014" lon="5.75668">
        <ele>808.8</ele>
        <time>2021-05-29T09:17:41Z</time>
      </trkpt>
      <trkpt lat="45.05013" lon="5.75669">
        <ele>808.6</ele>
        <time>2021-05-29T09:17:42Z</time>
      </trkpt>
      <trkpt lat="45.05012" lon="5.75671">
        <ele>808.6</ele>
        <time>2021-05-29T09:17:43Z</time>
      </trkpt>
      <trkpt lat="45.0501" lon="5.75672">
        <ele>808.4</ele>
        <time>2021-05-29T09:17:44Z</time>
      </trkpt>
      <trkpt lat="45.05009" lon="5.75673">
        <ele>808.6</ele>
        <time>2021-05-29T09:17:45Z</time>
      </trkpt>
      <trkpt lat="45.05008" lon="5.75674">
        <ele>808.4</ele>
        <time>2021-05-29T09:17:46Z</time>
      </trkpt>
      <trkpt lat="45.05007" lon="5.75676">
        <ele>808.8</ele>
        <time>2021-05-29T09:17:47Z</time>
      </trkpt>
      <trkpt lat="45.05005" lon="5.75677">
        <ele>808.8</ele>
        <time>2021-05-29T09:17:48Z</time>
      </trkpt>
      <trkpt lat="45.05004" lon="5.75678">
        <ele>809</ele>
        <time>2021-05-29T09:17:49Z</time>
      </trkpt>
      <trkpt lat="45.05003" lon="5.7568">
        <ele>809</ele>
        <time>2021-05-29T09:17:50Z</time>
      </trkpt>
      <trkpt lat="45.05002" lon="5.75681">
        <ele>809.2</ele>
        <time>2021-05-29T09:17:51Z</time>
      </trkpt>
      <trkpt lat="45.05001" lon="5.75682">
        <ele>809</ele>
        <time>2021-05-29T09:17:52Z</time>
      </trkpt>
      <trkpt lat="45.04999" lon="5.75683">
        <ele>809.4</ele>
        <time>2021-05-29T09:17:53Z</time>
      </trkpt>
      <trkpt lat="45.04998" lon="5.75685">
        <ele>809.2</ele>
        <time>2021-05-29T09:17:54Z</time>
      </trkpt>
      <trkpt lat="45.04997" lon="5.75686">
        <ele>809.2</ele>
        <time>2021-05-29T09:17:55Z</time>
      </trkpt>
      <trkpt lat="45.04996" lon="5.75687">
        <ele>809</ele>
        <time>2021-05-29T09:17:56Z</time>
      </trkpt>
      <trkpt lat="45.04994" lon="5.75688">
        <ele>808.8</ele>
        <time>2021-05-29T09:17:57Z</time>
      </trkpt>
      <trkpt lat="45.04993" lon="5.7569">
        <ele>808.6</ele>
        <time>2021-05-29T09:17:58Z</time>
      </trkpt>
      <trkpt lat="45.04992" lon="5.75691">
        <ele>808.6</ele>
        <time>2021-05-29T09:17:59Z</time>
      </trkpt>
      <trkpt lat="45.04991" lon="5.75692">
        <ele>808.8</ele>
        <time>2021-05-29T09:18:00Z</time>
      </trkpt>
      <trkpt lat="45.04989" lon="5.75693">
        <ele>808.4</ele>
        <time>2021-05-29T09:18:01Z</time>
      </trkpt>
      <trkpt lat="45.04988" lon="5.75695">
        <ele>808.8</ele>
        <time>2021-05-29T09:18:02Z</time>
      </trkpt>
      <trkpt lat="45.04987" lon="5.75696">
        <ele>808.6</ele>
        <time>2021-05-29T09:18:03Z</time>
      </trkpt>
      <trkpt lat="45.04986" lon="5.75697">
        <ele>809</ele>
        <time>2021-05-29T09:18:04Z</time>
      </trkpt>
      <trkpt lat="45.04985" lon="5.75699">
        <ele>808.8</ele>
        <time>2021-05-29T09:18:05Z</time>
      </trkpt>
      <trkpt lat="45.04983" lon="5.757">
        <ele>809.2</ele>
        <time>2021-05-29T09:18:06Z</time>
      </trkpt>
      <trkpt lat="45.04982" lon="5.75701">
        <ele>809</ele>
        <time>2021-05-29T09:18:07Z</time>
      </trkpt>
      <trkpt lat="45.04981" lon="5.75702">
        <ele>809.6</ele>
        <time>2021-05-29T09:18:08Z</time>
      </trkpt>
      <trkpt lat="45.0498" lon="5.75704">
        <ele>809.6</ele>
        <time>2021-05-29T09:18:09Z</time>
      </trkpt>
      <trkpt lat="45.04978" lon="5.75705">
        <ele>810.2</ele>
        <time>2021-05-29T09:18:10Z</time>
      </trkpt>
      <trkpt lat="45.04977" lon="5.75706">
        <ele>810.2</ele>
        <time>2021-05-29T09:18:11Z</time>
      </trkpt>
      <trkpt lat="45.04976" lon="5.75707">
        <ele>810.6</ele>
        <time>2021-05-29T09:18:12Z</time>
      </trkpt>
      <trkpt lat="45.04975" lon="5.75709">
        <ele>810.6</ele>
        <time>2021-05-29T09:18:13Z</time>
      </trkpt>
      <trkpt lat="45.04973" lon="5.7571">
        <ele>811</ele>
        <time>2021-05-29T09:18:14Z</time>
      </trkpt>
      <trkpt lat="45.04972" lon="5.75711">
        <ele>810.8</ele>
        <time>2021-05-29T09:18:15Z</time>
      </trkpt>
      <trkpt lat="45.04971" lon="5.75712">
        <ele>811.2</ele>
        <time>2021-05-29T09:18:16Z</time>
      </trkpt>
      <trkpt lat="45.0497" lon="5.75714">
        <ele>811</ele>
        <time>2021-05-29T09:18:17Z</time>
      </trkpt>
      <trkpt lat="45.04969" lon="5.75715">
        <ele>811.4</ele>
        <time>2021-05-29T09:18:18Z</time>
      </trkpt>
      <trkpt lat="45.04967" lon="5.75716">
        <ele>811.2</ele>
        <time>2021-05-29T09:18:19Z</time>
      </trkpt>
      <trkpt lat="45.04966" lon="5.75718">
        <ele>811.4</ele>
        <time>2021-05-29T09:18:20Z</time>
      </trkpt>
      <trkpt lat="45.04965" lon="5.75719">
        <ele>811.2</ele>
        <time>2021-05-29T09:18:21Z</time>
      </trkpt>
      <trkpt lat="45.04964" lon="5.7572">
        <ele>811.4</ele>
        <time>2021-05-29T09:18:22Z</time>
      </trkpt>
      <trkpt lat="45.04962" lon="5.75721">
        <ele>811.2</ele>
        <time>2021-05-29T09:18:23Z</time>
      </trkpt>
      <trkpt lat="45.04961" lon="5.75723">
        <ele>811.2</ele>
        <time>2021-05-29T09:18:24Z</time>
      </trkpt>
      <trkpt lat="45.0496" lon="5.75724">
        <ele>811</ele>
        <time>2021-05-29T09:18:25Z</time>
      </trkpt>
      <trkpt lat="45.04959" lon="5.75725">
        <ele>811.4</ele>
        <time>2021-05-29T09:18:26Z</time>
      </trkpt>
      <trkpt lat="45.04957" lon="5.75726">
        <ele>811.2</ele>
        <time>2021-05-29T09:18:27Z</time>
      </trkpt>
      <trkpt lat="45.04956" lon="5.75728">
        <ele>811.2</ele>
        <time>2021-05-29T09:18:28Z</time>
      </trkpt>
      <trkpt lat="45.04955" lon="5.75729">
        <ele>811</ele>
        <time>2021-05-29T09:18:29Z</time>
      </trkpt>
      <trkpt lat="45.04954" lon="5.7573">
        <ele>811.2</ele>
        <time>2021-05-29T09:18:30Z</time>
      </trkpt>
      <trkpt lat="45.04953" lon="5.75731">
        <ele>810.6</ele>
        <time>2021-05-29T09:18:31Z</time>
      </trkpt>
      <trkpt lat="45.04951" lon="5.75733">
        <ele>810.6</ele>
        <time>2021-05-29T09:18:32Z</time>
      </trkpt>
      <trkpt lat="45.0495" lon="5.75734">
        <ele>810.4</ele>
        <time>2021-05-29T09:18:33Z</time>
      </trkpt>
      <trkpt lat="45.04949" lon="5.75735">
        <ele>810.2</ele>
        <time>2021-05-29T09:18:34Z</time>
      </trkpt>
      <trkpt lat="45.04948" lon="5.75737">
        <ele>810.2</ele>
        <time>2021-05-29T09:18:35Z</time>
      </trkpt>
      <trkpt lat="45.04946" lon="5.75738">
        <ele>810</ele>
        <time>2021-05-29T09:18:36Z</time>
      </trkpt>
      <trkpt lat="45.04945" lon="5.75739">
        <ele>810.4</ele>
        <time>2021-05-29T09:18:37Z</time>
      </trkpt>
      <trkpt lat="45.04944" lon="5.7574">
        <ele>810.4</ele>
        <time>2021-05-29T09:18:38Z</time>
      </trkpt>
      <trkpt lat="45.04943" lon="5.75742">
        <ele>810.8</ele>
        <time>2021-05-29T09:18:39Z</time>
      </trkpt>
      <trkpt lat="45.04941" lon="5.75743">
        <ele>810.6</ele>
        <time>2021-05-29T09:18:40Z</time>
      </trkpt>
      <trkpt lat="45.0494" lon="5.75744">
        <ele>810.8</ele>
        <time>2021-05-29T09:18:41Z</time>
      </trkpt>
      <trkpt lat="45.04939" lon="5.75745">
        <ele>810.6</ele>
        <time>2021-05-29T09:18:42Z</time>
      </trkpt>
      <trkpt lat="45.04938" lon="5.75747">
        <ele>810.8</ele>
        <time>2021-05-29T09:18:43Z</time>
      </trkpt>
      <trkpt lat="45.04937" lon="5.75748">
        <ele>810.4</ele>
        <time>2021-05-29T09:18:44Z</time>
      </trkpt>
      <trkpt lat="45.04935" lon="5.75749">
        <ele>810.2</ele>
        <time>2021-05-29T09:18:45Z</time>
      </trkpt>
      <trkpt lat="45.04934" lon="5.7575">
        <ele>810</ele>
        <time>2021-05-29T09:18:46Z</time>
      </trkpt>
      <trkpt lat="45.04853" lon="5.75834">
        <ele>810</ele>
        <time>2021-05-29T09:18:47Z</time>
      </trkpt>
      <trkpt lat="45.04852" lon="5.75836">
        <ele>809.6</ele>
        <time>2021-05-29T09:18:48Z</time>
      </trkpt>
      <trkpt lat="45.0485" lon="5.75838">
        <ele>809.2</ele>
        <time>2021-05-29T09:18:49Z</time>
      </trkpt>
      <trkpt lat="45.04849" lon="5.75841">
        <ele>809.4</ele>
        <time>2021-05-29T09:18:50Z</time>
      </trkpt>
      <trkpt lat="45.04845" lon="5.75847">
        <ele>809.4</ele>
        <time>2021-05-29T09:18:51Z</time>
      </trkpt>
      <trkpt lat="45.04842" lon="5.75854">
        <ele>809.6</ele>
        <time>2021-05-29T09:18:52Z</time>
      </trkpt>
      <trkpt lat="45.04838" lon="5.7586">
        <ele>809.4</ele>
        <time>2021-05-29T09:18:53Z</time>
      </trkpt>
      <trkpt lat="45.04837" lon="5.75861">
        <ele>809.6</ele>
        <time>2021-05-29T09:18:54Z</time>
      </trkpt>
      <trkpt lat="45.04836" lon="5.75862">
        <ele>809.4</ele>
        <time>2021-05-29T09:18:55Z</time>
      </trkpt>
      <trkpt lat="45.04835" lon="5.75863">
        <ele>809.4</ele>
        <time>2021-05-29T09:18:56Z</time>
      </trkpt>
      <trkpt lat="45.04834" lon="5.75864">
        <ele>809.2</ele>
        <time>2021-05-29T09:18:57Z</time>
      </trkpt>
      <trkpt lat="45.04833" lon="5.75865">
        <ele>809.2</ele>
        <time>2021-05-29T09:18:58Z</time>
      </trkpt>
      <trkpt lat="45.04832" lon="5.75866">
        <ele>808.8</ele>
        <time>2021-05-29T09:18:59Z</time>
      </trkpt>
      <trkpt lat="45.04831" lon="5.75867">
        <ele>808.8</ele>
        <time>2021-05-29T09:19:00Z</time>
      </trkpt>
      <trkpt lat="45.0483" lon="5.75868">
        <ele>808.6</ele>
        <time>2021-05-29T09:19:01Z</time>
      </trkpt>
      <trkpt lat="45.04829" lon="5.75868">
        <ele>808.2</ele>
        <time>2021-05-29T09:19:02Z</time>
      </trkpt>
      <trkpt lat="45.04828" lon="5.75869">
        <ele>808.2</ele>
        <time>2021-05-29T09:19:03Z</time>
      </trkpt>
      <trkpt lat="45.04827" lon="5.7587">
        <ele>808.2</ele>
        <time>2021-05-29T09:19:04Z</time>
      </trkpt>
      <trkpt lat="45.04826" lon="5.75871">
        <ele>807.6</ele>
        <time>2021-05-29T09:19:05Z</time>
      </trkpt>
      <trkpt lat="45.04825" lon="5.75872">
        <ele>807.6</ele>
        <time>2021-05-29T09:19:06Z</time>
      </trkpt>
      <trkpt lat="45.04824" lon="5.75873">
        <ele>808</ele>
        <time>2021-05-29T09:19:07Z</time>
      </trkpt>
      <trkpt lat="45.04823" lon="5.75874">
        <ele>808</ele>
        <time>2021-05-29T09:19:08Z</time>
      </trkpt>
      <trkpt lat="45.04822" lon="5.75875">
        <ele>808.2</ele>
        <time>2021-05-29T09:19:09Z</time>
      </trkpt>
      <trkpt lat="45.04821" lon="5.75876">
        <ele>808</ele>
        <time>2021-05-29T09:19:10Z</time>
      </trkpt>
      <trkpt lat="45.04821" lon="5.75877">
        <ele>808.4</ele>
        <time>2021-05-29T09:19:11Z</time>
      </trkpt>
      <trkpt lat="45.0482" lon="5.75878">
        <ele>808.2</ele>
        <time>2021-05-29T09:19:12Z</time>
      </trkpt>
      <trkpt lat="45.04819" lon="5.75879">
        <ele>808.4</ele>
        <time>2021-05-29T09:19:13Z</time>
      </trkpt>
      <trkpt lat="45.04818" lon="5.7588">
        <ele>808</ele>
        <time>2021-05-29T09:19:14Z</time>
      </trkpt>
      <trkpt lat="45.04817" lon="5.75881">
        <ele>808.2</ele>
        <time>2021-05-29T09:19:15Z</time>
      </trkpt>
      <trkpt lat="45.04816" lon="5.75881">
        <ele>807.8</ele>
        <time>2021-05-29T09:19:16Z</time>
      </trkpt>
      <trkpt lat="45.04815" lon="5.75882">
        <ele>807.6</ele>
        <time>2021-05-29T09:19:17Z</time>
      </trkpt>
      <trkpt lat="45.04814" lon="5.75883">
        <ele>807.4</ele>
        <time>2021-05-29T09:19:18Z</time>
      </trkpt>
      <trkpt lat="45.04813" lon="5.75884">
        <ele>807</ele>
        <time>2021-05-29T09:19:19Z</time>
      </trkpt>
      <trkpt lat="45.04812" lon="5.75885">
        <ele>807</ele>
        <time>2021-05-29T09:19:20Z</time>
      </trkpt>
      <trkpt lat="45.04811" lon="5.75886">
        <ele>806.8</ele>
        <time>2021-05-29T09:19:21Z</time>
      </trkpt>
      <trkpt lat="45.0481" lon="5.75887">
        <ele>807</ele>
        <time>2021-05-29T09:19:22Z</time>
      </trkpt>
      <trkpt lat="45.04809" lon="5.75888">
        <ele>807</ele>
        <time>2021-05-29T09:19:23Z</time>
      </trkpt>
      <trkpt lat="45.04808" lon="5.75889">
        <ele>807.4</ele>
        <time>2021-05-29T09:19:24Z</time>
      </trkpt>
      <trkpt lat="45.04807" lon="5.7589">
        <ele>807.4</ele>
        <time>2021-05-29T09:19:25Z</time>
      </trkpt>
      <trkpt lat="45.04806" lon="5.75891">
        <ele>807.6</ele>
        <time>2021-05-29T09:19:26Z</time>
      </trkpt>
      <trkpt lat="45.04805" lon="5.75892">
        <ele>807.4</ele>
        <time>2021-05-29T09:19:27Z</time>
      </trkpt>
      <trkpt lat="45.04804" lon="5.75893">
        <ele>807.4</ele>
        <time>2021-05-29T09:19:28Z</time>
      </trkpt>
      <trkpt lat="45.04803" lon="5.75893">
        <ele>807</ele>
        <time>2021-05-29T09:19:29Z</time>
      </trkpt>
      <trkpt lat="45.04802" lon="5.75894">
        <ele>806.8</ele>
        <time>2021-05-29T09:19:30Z</time>
      </trkpt>
      <trkpt lat="45.04801" lon="5.75895">
        <ele>806.4</ele>
        <time>2021-05-29T09:19:31Z</time>
      </trkpt>
      <trkpt lat="45.048" lon="5.75896">
        <ele>806</ele>
        <time>2021-05-29T09:19:32Z</time>
      </trkpt>
      <trkpt lat="45.04799" lon="5.75897">
        <ele>806.2</ele>
        <time>2021-05-29T09:19:33Z</time>
      </trkpt>
      <trkpt lat="45.04798" lon="5.75898">
        <ele>806.2</ele>
        <time>2021-05-29T09:19:34Z</time>
      </trkpt>
      <trkpt lat="45.04797" lon="5.75899">
        <ele>806.6</ele>
        <time>2021-05-29T09:19:35Z</time>
      </trkpt>
      <trkpt lat="45.04796" lon="5.759">
        <ele>806.4</ele>
        <time>2021-05-29T09:19:36Z</time>
      </trkpt>
      <trkpt lat="45.04795" lon="5.75901">
        <ele>807</ele>
        <time>2021-05-29T09:19:37Z</time>
      </trkpt>
      <trkpt lat="45.04794" lon="5.75902">
        <ele>807</ele>
        <time>2021-05-29T09:19:38Z</time>
      </trkpt>
      <trkpt lat="45.04794" lon="5.75903">
        <ele>807.2</ele>
        <time>2021-05-29T09:19:39Z</time>
      </trkpt>
      <trkpt lat="45.04793" lon="5.75904">
        <ele>806.8</ele>
        <time>2021-05-29T09:19:40Z</time>
      </trkpt>
      <trkpt lat="45.04792" lon="5.75905">
        <ele>806.6</ele>
        <time>2021-05-29T09:19:41Z</time>
      </trkpt>
      <trkpt lat="45.04791" lon="5.75906">
        <ele>806.2</ele>
        <time>2021-05-29T09:19:42Z</time>
      </trkpt>
      <trkpt lat="45.0479" lon="5.75906">
        <ele>806</ele>
        <time>2021-05-29T09:19:43Z</time>
      </trkpt>
      <trkpt lat="45.04789" lon="5.75907">
        <ele>805.6</ele>
        <time>2021-05-29T09:19:44Z</time>
      </trkpt>
      <trkpt lat="45.04788" lon="5.75908">
        <ele>805.2</ele>
        <time>2021-05-29T09:19:45Z</time>
      </trkpt>
      <trkpt lat="45.04787" lon="5.75909">
        <ele>804.8</ele>
        <time>2021-05-29T09:19:46Z</time>
      </trkpt>
      <trkpt lat="45.04786" lon="5.7591">
        <ele>804.6</ele>
        <time>2021-05-29T09:19:47Z</time>
      </trkpt>
      <trkpt lat="45.04785" lon="5.75911">
        <ele>804.8</ele>
        <time>2021-05-29T09:19:48Z</time>
      </trkpt>
      <trkpt lat="45.04784" lon="5.75912">
        <ele>805.4</ele>
        <time>2021-05-29T09:19:49Z</time>
      </trkpt>
      <trkpt lat="45.04783" lon="5.75913">
        <ele>805.8</ele>
        <time>2021-05-29T09:19:50Z</time>
      </trkpt>
      <trkpt lat="45.04782" lon="5.75914">
        <ele>805.8</ele>
        <time>2021-05-29T09:19:51Z</time>
      </trkpt>
      <trkpt lat="45.04726" lon="5.75967">
        <ele>805.8</ele>
        <time>2021-05-29T09:19:52Z</time>
      </trkpt>
      <trkpt lat="45.04725" lon="5.75972">
        <ele>805.4</ele>
        <time>2021-05-29T09:19:53Z</time>
      </trkpt>
      <trkpt lat="45.04724" lon="5.75977">
        <ele>805.2</ele>
        <time>2021-05-29T09:19:54Z</time>
      </trkpt>
      <trkpt lat="45.04722" lon="5.75986">
        <ele>804.8</ele>
        <time>2021-05-29T09:19:55Z</time>
      </trkpt>
      <trkpt lat="45.04721" lon="5.75991">
        <ele>804.2</ele>
        <time>2021-05-29T09:19:56Z</time>
      </trkpt>
      <trkpt lat="45.0472" lon="5.75994">
        <ele>804.6</ele>
        <time>2021-05-29T09:19:57Z</time>
      </trkpt>
      <trkpt lat="45.04719" lon="5.75996">
        <ele>804.6</ele>
        <time>2021-05-29T09:19:58Z</time>
      </trkpt>
      <trkpt lat="45.04719" lon="5.75999">
        <ele>804.8</ele>
        <time>2021-05-29T09:20:00Z</time>
      </trkpt>
      <trkpt lat="45.04719" lon="5.76002">
        <ele>805.4</ele>
        <time>2021-05-29T09:20:01Z</time>
      </trkpt>
      <trkpt lat="45.04718" lon="5.76005">
        <ele>805.4</ele>
        <time>2021-05-29T09:20:02Z</time>
      </trkpt>
      <trkpt lat="45.04718" lon="5.76014">
        <ele>805.8</ele>
        <time>2021-05-29T09:20:03Z</time>
      </trkpt>
      <trkpt lat="45.04717" lon="5.76016">
        <ele>805.6</ele>
        <time>2021-05-29T09:20:04Z</time>
      </trkpt>
      <trkpt lat="45.04717" lon="5.76017">
        <ele>805.6</ele>
        <time>2021-05-29T09:20:05Z</time>
      </trkpt>
      <trkpt lat="45.04716" lon="5.76024">
        <ele>805.6</ele>
        <time>2021-05-29T09:20:06Z</time>
      </trkpt>
      <trkpt lat="45.04715" lon="5.76026">
        <ele>806</ele>
        <time>2021-05-29T09:20:07Z</time>
      </trkpt>
      <trkpt lat="45.04714" lon="5.76027">
        <ele>805.6</ele>
        <time>2021-05-29T09:20:08Z</time>
      </trkpt>
      <trkpt lat="45.04713" lon="5.76029">
        <ele>805.6</ele>
        <time>2021-05-29T09:20:09Z</time>
      </trkpt>
      <trkpt lat="45.04713" lon="5.76031">
        <ele>805.6</ele>
        <time>2021-05-29T09:20:10Z</time>
      </trkpt>
      <trkpt lat="45.04709" lon="5.76039">
        <ele>805.4</ele>
        <time>2021-05-29T09:20:11Z</time>
      </trkpt>
      <trkpt lat="45.04708" lon="5.7604">
        <ele>805.6</ele>
        <time>2021-05-29T09:20:12Z</time>
      </trkpt>
      <trkpt lat="45.04708" lon="5.76041">
        <ele>805.6</ele>
        <time>2021-05-29T09:20:13Z</time>
      </trkpt>
      <trkpt lat="45.04706" lon="5.76047">
        <ele>806.2</ele>
        <time>2021-05-29T09:20:14Z</time>
      </trkpt>
      <trkpt lat="45.04705" lon="5.7605">
        <ele>806.2</ele>
        <time>2021-05-29T09:20:15Z</time>
      </trkpt>
      <trkpt lat="45.04704" lon="5.76054">
        <ele>806.6</ele>
        <time>2021-05-29T09:20:16Z</time>
      </trkpt>
      <trkpt lat="45.04704" lon="5.76057">
        <ele>806.6</ele>
        <time>2021-05-29T09:20:17Z</time>
      </trkpt>
      <trkpt lat="45.04703" lon="5.7606">
        <ele>806.8</ele>
        <time>2021-05-29T09:20:18Z</time>
      </trkpt>
      <trkpt lat="45.04703" lon="5.7606">
        <ele>806.4</ele>
        <time>2021-05-29T09:20:19Z</time>
      </trkpt>
      <trkpt lat="45.04703" lon="5.7606">
        <ele>806.4</ele>
        <time>2021-05-29T09:20:20Z</time>
      </trkpt>
      <trkpt lat="45.04703" lon="5.7606">
        <ele>806.2</ele>
        <time>2021-05-29T09:20:21Z</time>
      </trkpt>
      <trkpt lat="45.04702" lon="5.76062">
        <ele>806.2</ele>
        <time>2021-05-29T09:20:22Z</time>
      </trkpt>
      <trkpt lat="45.04701" lon="5.76065">
        <ele>806</ele>
        <time>2021-05-29T09:20:23Z</time>
      </trkpt>
      <trkpt lat="45.047" lon="5.76068">
        <ele>805.6</ele>
        <time>2021-05-29T09:20:24Z</time>
      </trkpt>
      <trkpt lat="45.04699" lon="5.7607">
        <ele>806.2</ele>
        <time>2021-05-29T09:20:25Z</time>
      </trkpt>
      <trkpt lat="45.04698" lon="5.76073">
        <ele>806.2</ele>
        <time>2021-05-29T09:20:26Z</time>
      </trkpt>
      <trkpt lat="45.04696" lon="5.76078">
        <ele>806.6</ele>
        <time>2021-05-29T09:20:27Z</time>
      </trkpt>
      <trkpt lat="45.04694" lon="5.76083">
        <ele>806.4</ele>
        <time>2021-05-29T09:20:28Z</time>
      </trkpt>
      <trkpt lat="45.04692" lon="5.76088">
        <ele>806.8</ele>
        <time>2021-05-29T09:20:29Z</time>
      </trkpt>
      <trkpt lat="45.0469" lon="5.76092">
        <ele>806.8</ele>
        <time>2021-05-29T09:20:30Z</time>
      </trkpt>
      <trkpt lat="45.04686" lon="5.76099">
        <ele>807.2</ele>
        <time>2021-05-29T09:20:31Z</time>
      </trkpt>
      <trkpt lat="45.04686" lon="5.76099">
        <ele>807</ele>
        <time>2021-05-29T09:20:32Z</time>
      </trkpt>
      <trkpt lat="45.04686" lon="5.76099">
        <ele>807.2</ele>
        <time>2021-05-29T09:20:33Z</time>
      </trkpt>
      <trkpt lat="45.04686" lon="5.76099">
        <ele>806.8</ele>
        <time>2021-05-29T09:20:34Z</time>
      </trkpt>
      <trkpt lat="45.04684" lon="5.76102">
        <ele>806.8</ele>
        <time>2021-05-29T09:20:35Z</time>
      </trkpt>
      <trkpt lat="45.04683" lon="5.76105">
        <ele>806.6</ele>
        <time>2021-05-29T09:20:36Z</time>
      </trkpt>
      <trkpt lat="45.04681" lon="5.76108">
        <ele>806.2</ele>
        <time>2021-05-29T09:20:37Z</time>
      </trkpt>
      <trkpt lat="45.0468" lon="5.76111">
        <ele>806.4</ele>
        <time>2021-05-29T09:20:38Z</time>
      </trkpt>
      <trkpt lat="45.04679" lon="5.76113">
        <ele>806.4</ele>
        <time>2021-05-29T09:20:39Z</time>
      </trkpt>
      <trkpt lat="45.04678" lon="5.76114">
        <ele>806.8</ele>
        <time>2021-05-29T09:20:40Z</time>
      </trkpt>
      <trkpt lat="45.04677" lon="5.76115">
        <ele>807</ele>
        <time>2021-05-29T09:20:41Z</time>
      </trkpt>
      <trkpt lat="45.04676" lon="5.76117">
        <ele>807.2</ele>
        <time>2021-05-29T09:20:42Z</time>
      </trkpt>
      <trkpt lat="45.04676" lon="5.76118">
        <ele>807</ele>
        <time>2021-05-29T09:20:43Z</time>
      </trkpt>
      <trkpt lat="45.04675" lon="5.7612">
        <ele>807.2</ele>
        <time>2021-05-29T09:20:44Z</time>
      </trkpt>
      <trkpt lat="45.04674" lon="5.76121">
        <ele>807.2</ele>
        <time>2021-05-29T09:20:45Z</time>
      </trkpt>
      <trkpt lat="45.04673" lon="5.76123">
        <ele>807</ele>
        <time>2021-05-29T09:20:46Z</time>
      </trkpt>
      <trkpt lat="45.04672" lon="5.76124">
        <ele>807</ele>
        <time>2021-05-29T09:20:47Z</time>
      </trkpt>
      <trkpt lat="45.04671" lon="5.76126">
        <ele>806.8</ele>
        <time>2021-05-29T09:20:48Z</time>
      </trkpt>
      <trkpt lat="45.0467" lon="5.76128">
        <ele>806.6</ele>
        <time>2021-05-29T09:20:49Z</time>
      </trkpt>
      <trkpt lat="45.04668" lon="5.7613">
        <ele>806.4</ele>
        <time>2021-05-29T09:20:50Z</time>
      </trkpt>
      <trkpt lat="45.04665" lon="5.76135">
        <ele>806.6</ele>
        <time>2021-05-29T09:20:51Z</time>
      </trkpt>
      <trkpt lat="45.04663" lon="5.76139">
        <ele>806.6</ele>
        <time>2021-05-29T09:20:52Z</time>
      </trkpt>
      <trkpt lat="45.04661" lon="5.76143">
        <ele>806.8</ele>
        <time>2021-05-29T09:20:53Z</time>
      </trkpt>
      <trkpt lat="45.04659" lon="5.76146">
        <ele>806.6</ele>
        <time>2021-05-29T09:20:54Z</time>
      </trkpt>
      <trkpt lat="45.04657" lon="5.7615">
        <ele>806.8</ele>
        <time>2021-05-29T09:20:55Z</time>
      </trkpt>
      <trkpt lat="45.04655" lon="5.76154">
        <ele>806.4</ele>
        <time>2021-05-29T09:20:56Z</time>
      </trkpt>
      <trkpt lat="45.04653" lon="5.76157">
        <ele>806.8</ele>
        <time>2021-05-29T09:20:57Z</time>
      </trkpt>
      <trkpt lat="45.0465" lon="5.76161">
        <ele>806.6</ele>
        <time>2021-05-29T09:20:58Z</time>
      </trkpt>
      <trkpt lat="45.04648" lon="5.76165">
        <ele>807</ele>
        <time>2021-05-29T09:20:59Z</time>
      </trkpt>
      <trkpt lat="45.04646" lon="5.76168">
        <ele>806.8</ele>
        <time>2021-05-29T09:21:00Z</time>
      </trkpt>
      <trkpt lat="45.04644" lon="5.76172">
        <ele>807</ele>
        <time>2021-05-29T09:21:01Z</time>
      </trkpt>
      <trkpt lat="45.04642" lon="5.76176">
        <ele>806.8</ele>
        <time>2021-05-29T09:21:02Z</time>
      </trkpt>
      <trkpt lat="45.0464" lon="5.76179">
        <ele>806.8</ele>
        <time>2021-05-29T09:21:03Z</time>
      </trkpt>
      <trkpt lat="45.04638" lon="5.76183">
        <ele>806.2</ele>
        <time>2021-05-29T09:21:04Z</time>
      </trkpt>
      <trkpt lat="45.04636" lon="5.76186">
        <ele>806</ele>
        <time>2021-05-29T09:21:05Z</time>
      </trkpt>
      <trkpt lat="45.04633" lon="5.7619">
        <ele>805.6</ele>
        <time>2021-05-29T09:21:06Z</time>
      </trkpt>
      <trkpt lat="45.04631" lon="5.76194">
        <ele>805.2</ele>
        <time>2021-05-29T09:21:07Z</time>
      </trkpt>
      <trkpt lat="45.04629" lon="5.76197">
        <ele>805.4</ele>
        <time>2021-05-29T09:21:08Z</time>
      </trkpt>
      <trkpt lat="45.04627" lon="5.76201">
        <ele>805.2</ele>
        <time>2021-05-29T09:21:09Z</time>
      </trkpt>
      <trkpt lat="45.04625" lon="5.76205">
        <ele>805.6</ele>
        <time>2021-05-29T09:21:10Z</time>
      </trkpt>
      <trkpt lat="45.04623" lon="5.76208">
        <ele>805.4</ele>
        <time>2021-05-29T09:21:11Z</time>
      </trkpt>
      <trkpt lat="45.04621" lon="5.76212">
        <ele>805.6</ele>
        <time>2021-05-29T09:21:12Z</time>
      </trkpt>
      <trkpt lat="45.04619" lon="5.76216">
        <ele>805.2</ele>
        <time>2021-05-29T09:21:13Z</time>
      </trkpt>
      <trkpt lat="45.04617" lon="5.76219">
        <ele>805.2</ele>
        <time>2021-05-29T09:21:14Z</time>
      </trkpt>
      <trkpt lat="45.04614" lon="5.76223">
        <ele>805</ele>
        <time>2021-05-29T09:21:15Z</time>
      </trkpt>
      <trkpt lat="45.04612" lon="5.76227">
        <ele>804.8</ele>
        <time>2021-05-29T09:21:16Z</time>
      </trkpt>
      <trkpt lat="45.0461" lon="5.7623">
        <ele>804.4</ele>
        <time>2021-05-29T09:21:17Z</time>
      </trkpt>
      <trkpt lat="45.04608" lon="5.76234">
        <ele>804.2</ele>
        <time>2021-05-29T09:21:18Z</time>
      </trkpt>
      <trkpt lat="45.04606" lon="5.76238">
        <ele>804</ele>
        <time>2021-05-29T09:21:19Z</time>
      </trkpt>
      <trkpt lat="45.04604" lon="5.76241">
        <ele>803.4</ele>
        <time>2021-05-29T09:21:20Z</time>
      </trkpt>
      <trkpt lat="45.04602" lon="5.76245">
        <ele>803.6</ele>
        <time>2021-05-29T09:21:21Z</time>
      </trkpt>
      <trkpt lat="45.046" lon="5.76249">
        <ele>803.4</ele>
        <time>2021-05-29T09:21:22Z</time>
      </trkpt>
      <trkpt lat="45.04597" lon="5.76252">
        <ele>803.8</ele>
        <time>2021-05-29T09:21:23Z</time>
      </trkpt>
      <trkpt lat="45.04595" lon="5.76256">
        <ele>803.6</ele>
        <time>2021-05-29T09:21:24Z</time>
      </trkpt>
      <trkpt lat="45.04593" lon="5.76259">
        <ele>803.8</ele>
        <time>2021-05-29T09:21:25Z</time>
      </trkpt>
      <trkpt lat="45.04591" lon="5.76263">
        <ele>803.6</ele>
        <time>2021-05-29T09:21:26Z</time>
      </trkpt>
      <trkpt lat="45.04589" lon="5.76267">
        <ele>804</ele>
        <time>2021-05-29T09:21:27Z</time>
      </trkpt>
      <trkpt lat="45.04587" lon="5.7627">
        <ele>803.8</ele>
        <time>2021-05-29T09:21:28Z</time>
      </trkpt>
      <trkpt lat="45.04585" lon="5.76274">
        <ele>804</ele>
        <time>2021-05-29T09:21:29Z</time>
      </trkpt>
      <trkpt lat="45.04583" lon="5.76278">
        <ele>803.6</ele>
        <time>2021-05-29T09:21:30Z</time>
      </trkpt>
      <trkpt lat="45.04581" lon="5.76281">
        <ele>803.6</ele>
        <time>2021-05-29T09:21:31Z</time>
      </trkpt>
      <trkpt lat="45.04578" lon="5.76285">
        <ele>803.2</ele>
        <time>2021-05-29T09:21:32Z</time>
      </trkpt>
      <trkpt lat="45.04576" lon="5.76289">
        <ele>803.2</ele>
        <time>2021-05-29T09:21:33Z</time>
      </trkpt>
      <trkpt lat="45.04574" lon="5.76292">
        <ele>803</ele>
        <time>2021-05-29T09:21:34Z</time>
      </trkpt>
      <trkpt lat="45.04572" lon="5.76296">
        <ele>802.6</ele>
        <time>2021-05-29T09:21:35Z</time>
      </trkpt>
      <trkpt lat="45.0457" lon="5.763">
        <ele>802.4</ele>
        <time>2021-05-29T09:21:36Z</time>
      </trkpt>
      <trkpt lat="45.04568" lon="5.76303">
        <ele>801.8</ele>
        <time>2021-05-29T09:21:37Z</time>
      </trkpt>
      <trkpt lat="45.04566" lon="5.76307">
        <ele>801.6</ele>
        <time>2021-05-29T09:21:38Z</time>
      </trkpt>
      <trkpt lat="45.04564" lon="5.76311">
        <ele>801.2</ele>
        <time>2021-05-29T09:21:39Z</time>
      </trkpt>
      <trkpt lat="45.04561" lon="5.76314">
        <ele>801.4</ele>
        <time>2021-05-29T09:21:40Z</time>
      </trkpt>
      <trkpt lat="45.04559" lon="5.76318">
        <ele>801.2</ele>
        <time>2021-05-29T09:21:41Z</time>
      </trkpt>
      <trkpt lat="45.04557" lon="5.76321">
        <ele>801.6</ele>
        <time>2021-05-29T09:21:42Z</time>
      </trkpt>
      <trkpt lat="45.04555" lon="5.76325">
        <ele>801.4</ele>
        <time>2021-05-29T09:21:43Z</time>
      </trkpt>
      <trkpt lat="45.04553" lon="5.76329">
        <ele>801.6</ele>
        <time>2021-05-29T09:21:44Z</time>
      </trkpt>
      <trkpt lat="45.04551" lon="5.76332">
        <ele>801.4</ele>
        <time>2021-05-29T09:21:45Z</time>
      </trkpt>
      <trkpt lat="45.04549" lon="5.76336">
        <ele>801.8</ele>
        <time>2021-05-29T09:21:46Z</time>
      </trkpt>
      <trkpt lat="45.04547" lon="5.7634">
        <ele>801.6</ele>
        <time>2021-05-29T09:21:47Z</time>
      </trkpt>
      <trkpt lat="45.04545" lon="5.76343">
        <ele>801.8</ele>
        <time>2021-05-29T09:21:48Z</time>
      </trkpt>
      <trkpt lat="45.04542" lon="5.76347">
        <ele>801.6</ele>
        <time>2021-05-29T09:21:49Z</time>
      </trkpt>
      <trkpt lat="45.0454" lon="5.76351">
        <ele>801.8</ele>
        <time>2021-05-29T09:21:50Z</time>
      </trkpt>
      <trkpt lat="45.04538" lon="5.76354">
        <ele>801.4</ele>
        <time>2021-05-29T09:21:51Z</time>
      </trkpt>
      <trkpt lat="45.04536" lon="5.76358">
        <ele>801.4</ele>
        <time>2021-05-29T09:21:52Z</time>
      </trkpt>
      <trkpt lat="45.04534" lon="5.76362">
        <ele>801</ele>
        <time>2021-05-29T09:21:53Z</time>
      </trkpt>
      <trkpt lat="45.04532" lon="5.76365">
        <ele>800.8</ele>
        <time>2021-05-29T09:21:54Z</time>
      </trkpt>
      <trkpt lat="45.0453" lon="5.76369">
        <ele>800.6</ele>
        <time>2021-05-29T09:21:55Z</time>
      </trkpt>
      <trkpt lat="45.04528" lon="5.76373">
        <ele>800</ele>
        <time>2021-05-29T09:21:56Z</time>
      </trkpt>
      <trkpt lat="45.04525" lon="5.76376">
        <ele>800.2</ele>
        <time>2021-05-29T09:21:57Z</time>
      </trkpt>
      <trkpt lat="45.04523" lon="5.7638">
        <ele>800</ele>
        <time>2021-05-29T09:21:58Z</time>
      </trkpt>
      <trkpt lat="45.04521" lon="5.76384">
        <ele>800.4</ele>
        <time>2021-05-29T09:21:59Z</time>
      </trkpt>
      <trkpt lat="45.04519" lon="5.76387">
        <ele>800.2</ele>
        <time>2021-05-29T09:22:00Z</time>
      </trkpt>
      <trkpt lat="45.04517" lon="5.76391">
        <ele>800.2</ele>
        <time>2021-05-29T09:22:01Z</time>
      </trkpt>
      <trkpt lat="45.04515" lon="5.76394">
        <ele>799.8</ele>
        <time>2021-05-29T09:22:02Z</time>
      </trkpt>
      <trkpt lat="45.04513" lon="5.76398">
        <ele>799.4</ele>
        <time>2021-05-29T09:22:03Z</time>
      </trkpt>
      <trkpt lat="45.04511" lon="5.76402">
        <ele>799.4</ele>
        <time>2021-05-29T09:22:04Z</time>
      </trkpt>
      <trkpt lat="45.04509" lon="5.76405">
        <ele>799</ele>
        <time>2021-05-29T09:22:05Z</time>
      </trkpt>
      <trkpt lat="45.04506" lon="5.76409">
        <ele>799.2</ele>
        <time>2021-05-29T09:22:06Z</time>
      </trkpt>
      <trkpt lat="45.04504" lon="5.76413">
        <ele>798.8</ele>
        <time>2021-05-29T09:22:07Z</time>
      </trkpt>
      <trkpt lat="45.04502" lon="5.76416">
        <ele>798.6</ele>
        <time>2021-05-29T09:22:08Z</time>
      </trkpt>
      <trkpt lat="45.045" lon="5.7642">
        <ele>798.2</ele>
        <time>2021-05-29T09:22:09Z</time>
      </trkpt>
      <trkpt lat="45.04498" lon="5.76424">
        <ele>797.4</ele>
        <time>2021-05-29T09:22:10Z</time>
      </trkpt>
      <trkpt lat="45.04496" lon="5.76427">
        <ele>797.4</ele>
        <time>2021-05-29T09:22:11Z</time>
      </trkpt>
      <trkpt lat="45.04494" lon="5.76431">
        <ele>797.4</ele>
        <time>2021-05-29T09:22:12Z</time>
      </trkpt>
      <trkpt lat="45.04492" lon="5.76435">
        <ele>797.4</ele>
        <time>2021-05-29T09:22:13Z</time>
      </trkpt>
      <trkpt lat="45.04489" lon="5.76438">
        <ele>797</ele>
        <time>2021-05-29T09:22:14Z</time>
      </trkpt>
      <trkpt lat="45.04487" lon="5.76442">
        <ele>796.4</ele>
        <time>2021-05-29T09:22:15Z</time>
      </trkpt>
      <trkpt lat="45.04485" lon="5.76446">
        <ele>795.6</ele>
        <time>2021-05-29T09:22:16Z</time>
      </trkpt>
      <trkpt lat="45.04483" lon="5.76449">
        <ele>795.2</ele>
        <time>2021-05-29T09:22:17Z</time>
      </trkpt>
      <trkpt lat="45.04481" lon="5.76453">
        <ele>795</ele>
        <time>2021-05-29T09:22:18Z</time>
      </trkpt>
      <trkpt lat="45.04479" lon="5.76457">
        <ele>794.8</ele>
        <time>2021-05-29T09:22:19Z</time>
      </trkpt>
      <trkpt lat="45.04477" lon="5.7646">
        <ele>794.2</ele>
        <time>2021-05-29T09:22:20Z</time>
      </trkpt>
      <trkpt lat="45.04287" lon="5.76787">
        <ele>794</ele>
        <time>2021-05-29T09:22:21Z</time>
      </trkpt>
      <trkpt lat="45.04288" lon="5.76794">
        <ele>793.8</ele>
        <time>2021-05-29T09:22:22Z</time>
      </trkpt>
      <trkpt lat="45.0429" lon="5.76804">
        <ele>793.8</ele>
        <time>2021-05-29T09:22:23Z</time>
      </trkpt>
      <trkpt lat="45.04291" lon="5.76806">
        <ele>793.4</ele>
        <time>2021-05-29T09:22:24Z</time>
      </trkpt>
      <trkpt lat="45.04292" lon="5.76807">
        <ele>792.4</ele>
        <time>2021-05-29T09:22:25Z</time>
      </trkpt>
      <trkpt lat="45.04294" lon="5.76813">
        <ele>792.6</ele>
        <time>2021-05-29T09:22:26Z</time>
      </trkpt>
      <trkpt lat="45.04301" lon="5.76799">
        <ele>792.2</ele>
        <time>2021-05-29T09:22:27Z</time>
      </trkpt>
      <trkpt lat="45.04308" lon="5.76785">
        <ele>792.2</ele>
        <time>2021-05-29T09:22:28Z</time>
      </trkpt>
      <trkpt lat="45.04315" lon="5.76771">
        <ele>791.8</ele>
        <time>2021-05-29T09:22:29Z</time>
      </trkpt>
      <trkpt lat="45.04322" lon="5.76756">
        <ele>791.2</ele>
        <time>2021-05-29T09:22:30Z</time>
      </trkpt>
      <trkpt lat="45.04329" lon="5.76742">
        <ele>790.8</ele>
        <time>2021-05-29T09:22:31Z</time>
      </trkpt>
      <trkpt lat="45.04336" lon="5.76728">
        <ele>790.6</ele>
        <time>2021-05-29T09:22:32Z</time>
      </trkpt>
      <trkpt lat="45.04344" lon="5.76714">
        <ele>790.4</ele>
        <time>2021-05-29T09:22:33Z</time>
      </trkpt>
      <trkpt lat="45.04351" lon="5.76699">
        <ele>790.2</ele>
        <time>2021-05-29T09:22:34Z</time>
      </trkpt>
      <trkpt lat="45.04358" lon="5.76685">
        <ele>790</ele>
        <time>2021-05-29T09:22:35Z</time>
      </trkpt>
      <trkpt lat="45.04365" lon="5.76671">
        <ele>790</ele>
        <time>2021-05-29T09:22:36Z</time>
      </trkpt>
      <trkpt lat="45.04372" lon="5.76657">
        <ele>790</ele>
        <time>2021-05-29T09:22:37Z</time>
      </trkpt>
      <trkpt lat="45.04379" lon="5.76642">
        <ele>789.8</ele>
        <time>2021-05-29T09:22:38Z</time>
      </trkpt>
      <trkpt lat="45.04386" lon="5.76628">
        <ele>789.6</ele>
        <time>2021-05-29T09:22:39Z</time>
      </trkpt>
      <trkpt lat="45.04393" lon="5.76614">
        <ele>790</ele>
        <time>2021-05-29T09:22:40Z</time>
      </trkpt>
      <trkpt lat="45.04401" lon="5.766">
        <ele>789.6</ele>
        <time>2021-05-29T09:22:41Z</time>
      </trkpt>
      <trkpt lat="45.04507" lon="5.76386">
        <ele>789.8</ele>
        <time>2021-05-29T09:22:42Z</time>
      </trkpt>
      <trkpt lat="45.04507" lon="5.76386">
        <ele>789.4</ele>
        <time>2021-05-29T09:22:43Z</time>
      </trkpt>
      <trkpt lat="45.04506" lon="5.76385">
        <ele>789</ele>
        <time>2021-05-29T09:22:44Z</time>
      </trkpt>
      <trkpt lat="45.04504" lon="5.76384">
        <ele>788.8</ele>
        <time>2021-05-29T09:22:45Z</time>
      </trkpt>
      <trkpt lat="45.04502" lon="5.76383">
        <ele>788.4</ele>
        <time>2021-05-29T09:22:46Z</time>
      </trkpt>
      <trkpt lat="45.045" lon="5.76382">
        <ele>788.6</ele>
        <time>2021-05-29T09:22:47Z</time>
      </trkpt>
      <trkpt lat="45.04498" lon="5.76381">
        <ele>788.6</ele>
        <time>2021-05-29T09:22:48Z</time>
      </trkpt>
      <trkpt lat="45.04504" lon="5.76391">
        <ele>788.4</ele>
        <time>2021-05-29T09:22:49Z</time>
      </trkpt>
      <trkpt lat="45.04499" lon="5.76394">
        <ele>788</ele>
        <time>2021-05-29T09:22:50Z</time>
      </trkpt>
      <trkpt lat="45.04494" lon="5.76397">
        <ele>787.8</ele>
        <time>2021-05-29T09:22:51Z</time>
      </trkpt>
      <trkpt lat="45.04489" lon="5.76399">
        <ele>787.8</ele>
        <time>2021-05-29T09:22:52Z</time>
      </trkpt>
      <trkpt lat="45.04484" lon="5.76402">
        <ele>787.6</ele>
        <time>2021-05-29T09:22:53Z</time>
      </trkpt>
      <trkpt lat="45.04479" lon="5.76405">
        <ele>787.6</ele>
        <time>2021-05-29T09:22:54Z</time>
      </trkpt>
      <trkpt lat="45.04474" lon="5.76408">
        <ele>787.6</ele>
        <time>2021-05-29T09:22:55Z</time>
      </trkpt>
      <trkpt lat="45.04469" lon="5.76411">
        <ele>787.6</ele>
        <time>2021-05-29T09:22:56Z</time>
      </trkpt>
      <trkpt lat="45.04464" lon="5.76413">
        <ele>787.6</ele>
        <time>2021-05-29T09:22:57Z</time>
      </trkpt>
      <trkpt lat="45.04459" lon="5.76416">
        <ele>787.6</ele>
        <time>2021-05-29T09:22:58Z</time>
      </trkpt>
      <trkpt lat="45.04454" lon="5.76419">
        <ele>787.4</ele>
        <time>2021-05-29T09:22:59Z</time>
      </trkpt>
      <trkpt lat="45.04449" lon="5.76422">
        <ele>787.4</ele>
        <time>2021-05-29T09:23:00Z</time>
      </trkpt>
      <trkpt lat="45.04444" lon="5.76425">
        <ele>787.4</ele>
        <time>2021-05-29T09:23:01Z</time>
      </trkpt>
      <trkpt lat="45.04439" lon="5.76427">
        <ele>787.4</ele>
        <time>2021-05-29T09:23:02Z</time>
      </trkpt>
      <trkpt lat="45.04434" lon="5.7643">
        <ele>787.4</ele>
        <time>2021-05-29T09:23:03Z</time>
      </trkpt>
      <trkpt lat="45.04429" lon="5.76433">
        <ele>787.4</ele>
        <time>2021-05-29T09:23:04Z</time>
      </trkpt>
      <trkpt lat="45.04424" lon="5.76436">
        <ele>787.4</ele>
        <time>2021-05-29T09:23:05Z</time>
      </trkpt>
      <trkpt lat="45.04419" lon="5.76439">
        <ele>787.4</ele>
        <time>2021-05-29T09:23:06Z</time>
      </trkpt>
      <trkpt lat="45.04414" lon="5.76441">
        <ele>787.4</ele>
        <time>2021-05-29T09:23:07Z</time>
      </trkpt>
      <trkpt lat="45.04409" lon="5.76444">
        <ele>787.4</ele>
        <time>2021-05-29T09:23:08Z</time>
      </trkpt>
      <trkpt lat="45.04404" lon="5.76447">
        <ele>787.4</ele>
        <time>2021-05-29T09:23:09Z</time>
      </trkpt>
      <trkpt lat="45.04399" lon="5.7645">
        <ele>787.2</ele>
        <time>2021-05-29T09:23:10Z</time>
      </trkpt>
      <trkpt lat="45.04394" lon="5.76453">
        <ele>787.4</ele>
        <time>2021-05-29T09:23:11Z</time>
      </trkpt>
      <trkpt lat="45.04389" lon="5.76455">
        <ele>787.2</ele>
        <time>2021-05-29T09:23:12Z</time>
      </trkpt>
      <trkpt lat="45.04384" lon="5.76458">
        <ele>787.4</ele>
        <time>2021-05-29T09:23:13Z</time>
      </trkpt>
      <trkpt lat="45.04379" lon="5.76461">
        <ele>787.4</ele>
        <time>2021-05-29T09:23:14Z</time>
      </trkpt>
      <trkpt lat="45.04374" lon="5.76464">
        <ele>787.6</ele>
        <time>2021-05-29T09:23:15Z</time>
      </trkpt>
      <trkpt lat="45.04369" lon="5.76467">
        <ele>787.8</ele>
        <time>2021-05-29T09:23:16Z</time>
      </trkpt>
      <trkpt lat="45.04364" lon="5.76469">
        <ele>787.8</ele>
        <time>2021-05-29T09:23:17Z</time>
      </trkpt>
      <trkpt lat="45.04359" lon="5.76472">
        <ele>787.8</ele>
        <time>2021-05-29T09:23:18Z</time>
      </trkpt>
      <trkpt lat="45.04354" lon="5.76475">
        <ele>787.8</ele>
        <time>2021-05-29T09:23:19Z</time>
      </trkpt>
      <trkpt lat="45.04349" lon="5.76478">
        <ele>787.8</ele>
        <time>2021-05-29T09:23:20Z</time>
      </trkpt>
      <trkpt lat="45.04344" lon="5.76481">
        <ele>787.8</ele>
        <time>2021-05-29T09:23:21Z</time>
      </trkpt>
      <trkpt lat="45.04339" lon="5.76483">
        <ele>787.8</ele>
        <time>2021-05-29T09:23:22Z</time>
      </trkpt>
      <trkpt lat="45.04334" lon="5.76486">
        <ele>787.8</ele>
        <time>2021-05-29T09:23:23Z</time>
      </trkpt>
      <trkpt lat="45.04329" lon="5.76489">
        <ele>788</ele>
        <time>2021-05-29T09:23:24Z</time>
      </trkpt>
      <trkpt lat="45.04324" lon="5.76492">
        <ele>787.8</ele>
        <time>2021-05-29T09:23:25Z</time>
      </trkpt>
      <trkpt lat="45.04319" lon="5.76495">
        <ele>788</ele>
        <time>2021-05-29T09:23:26Z</time>
      </trkpt>
      <trkpt lat="45.04314" lon="5.76497">
        <ele>788</ele>
        <time>2021-05-29T09:23:27Z</time>
      </trkpt>
      <trkpt lat="45.04309" lon="5.765">
        <ele>788</ele>
        <time>2021-05-29T09:23:28Z</time>
      </trkpt>
      <trkpt lat="45.04304" lon="5.76503">
        <ele>788</ele>
        <time>2021-05-29T09:23:29Z</time>
      </trkpt>
      <trkpt lat="45.04299" lon="5.76506">
        <ele>787.8</ele>
        <time>2021-05-29T09:23:30Z</time>
      </trkpt>
      <trkpt lat="45.04294" lon="5.76509">
        <ele>787.8</ele>
        <time>2021-05-29T09:23:31Z</time>
      </trkpt>
      <trkpt lat="45.04289" lon="5.76511">
        <ele>787.8</ele>
        <time>2021-05-29T09:23:32Z</time>
      </trkpt>
      <trkpt lat="45.04284" lon="5.76514">
        <ele>787.8</ele>
        <time>2021-05-29T09:23:33Z</time>
      </trkpt>
      <trkpt lat="45.04279" lon="5.76517">
        <ele>788.2</ele>
        <time>2021-05-29T09:23:34Z</time>
      </trkpt>
      <trkpt lat="45.04274" lon="5.7652">
        <ele>788.4</ele>
        <time>2021-05-29T09:23:35Z</time>
      </trkpt>
      <trkpt lat="45.04269" lon="5.76523">
        <ele>788.6</ele>
        <time>2021-05-29T09:23:36Z</time>
      </trkpt>
      <trkpt lat="45.04264" lon="5.76525">
        <ele>788.6</ele>
        <time>2021-05-29T09:23:37Z</time>
      </trkpt>
      <trkpt lat="45.04259" lon="5.76528">
        <ele>788.6</ele>
        <time>2021-05-29T09:23:38Z</time>
      </trkpt>
      <trkpt lat="45.04254" lon="5.76531">
        <ele>788.8</ele>
        <time>2021-05-29T09:23:39Z</time>
      </trkpt>
      <trkpt lat="45.04249" lon="5.76534">
        <ele>788.8</ele>
        <time>2021-05-29T09:23:40Z</time>
      </trkpt>
      <trkpt lat="45.04244" lon="5.76537">
        <ele>788.8</ele>
        <time>2021-05-29T09:23:41Z</time>
      </trkpt>
      <trkpt lat="45.04239" lon="5.76539">
        <ele>788.4</ele>
        <time>2021-05-29T09:23:42Z</time>
      </trkpt>
      <trkpt lat="45.04234" lon="5.76542">
        <ele>788.4</ele>
        <time>2021-05-29T09:23:43Z</time>
      </trkpt>
      <trkpt lat="45.04229" lon="5.76545">
        <ele>788.4</ele>
        <time>2021-05-29T09:23:44Z</time>
      </trkpt>
      <trkpt lat="45.04224" lon="5.76548">
        <ele>788.4</ele>
        <time>2021-05-29T09:23:45Z</time>
      </trkpt>
      <trkpt lat="45.04219" lon="5.76551">
        <ele>788.6</ele>
        <time>2021-05-29T09:23:46Z</time>
      </trkpt>
      <trkpt lat="45.04214" lon="5.76553">
        <ele>788.6</ele>
        <time>2021-05-29T09:23:47Z</time>
      </trkpt>
      <trkpt lat="45.04209" lon="5.76556">
        <ele>788.6</ele>
        <time>2021-05-29T09:23:48Z</time>
      </trkpt>
      <trkpt lat="45.03913" lon="5.76721">
        <ele>788.8</ele>
        <time>2021-05-29T09:23:49Z</time>
      </trkpt>
      <trkpt lat="45.03913" lon="5.76721">
        <ele>789</ele>
        <time>2021-05-29T09:23:50Z</time>
      </trkpt>
      <trkpt lat="45.03914" lon="5.76721">
        <ele>789</ele>
        <time>2021-05-29T09:23:51Z</time>
      </trkpt>
      <trkpt lat="45.03915" lon="5.76721">
        <ele>789</ele>
        <time>2021-05-29T09:23:52Z</time>
      </trkpt>
      <trkpt lat="45.03916" lon="5.76721">
        <ele>788.6</ele>
        <time>2021-05-29T09:23:53Z</time>
      </trkpt>
      <trkpt lat="45.03917" lon="5.76721">
        <ele>788.6</ele>
        <time>2021-05-29T09:23:54Z</time>
      </trkpt>
      <trkpt lat="45.03917" lon="5.7672">
        <ele>788.2</ele>
        <time>2021-05-29T09:23:55Z</time>
      </trkpt>
      <trkpt lat="45.03918" lon="5.7672">
        <ele>788</ele>
        <time>2021-05-29T09:23:56Z</time>
      </trkpt>
      <trkpt lat="45.03919" lon="5.7672">
        <ele>788</ele>
        <time>2021-05-29T09:23:57Z</time>
      </trkpt>
      <trkpt lat="45.0392" lon="5.7672">
        <ele>788</ele>
        <time>2021-05-29T09:23:58Z</time>
      </trkpt>
      <trkpt lat="45.03921" lon="5.7672">
        <ele>788</ele>
        <time>2021-05-29T09:23:59Z</time>
      </trkpt>
      <trkpt lat="45.03922" lon="5.76719">
        <ele>788.2</ele>
        <time>2021-05-29T09:24:00Z</time>
      </trkpt>
      <trkpt lat="45.03921" lon="5.76715">
        <ele>788.2</ele>
        <time>2021-05-29T09:24:01Z</time>
      </trkpt>
      <trkpt lat="45.03921" lon="5.7671">
        <ele>788.4</ele>
        <time>2021-05-29T09:24:02Z</time>
      </trkpt>
      <trkpt lat="45.0392" lon="5.76705">
        <ele>788.6</ele>
        <time>2021-05-29T09:24:03Z</time>
      </trkpt>
      <trkpt lat="45.0392" lon="5.767">
        <ele>788.6</ele>
        <time>2021-05-29T09:24:04Z</time>
      </trkpt>
      <trkpt lat="45.03919" lon="5.76695">
        <ele>788.6</ele>
        <time>2021-05-29T09:24:05Z</time>
      </trkpt>
      <trkpt lat="45.03919" lon="5.76691">
        <ele>788.6</ele>
        <time>2021-05-29T09:24:06Z</time>
      </trkpt>
      <trkpt lat="45.03918" lon="5.76686">
        <ele>788.8</ele>
        <time>2021-05-29T09:24:07Z</time>
      </trkpt>
      <trkpt lat="45.03917" lon="5.76681">
        <ele>789</ele>
        <time>2021-05-29T09:24:08Z</time>
      </trkpt>
      <trkpt lat="45.03917" lon="5.76676">
        <ele>788.8</ele>
        <time>2021-05-29T09:24:09Z</time>
      </trkpt>
      <trkpt lat="45.03916" lon="5.76671">
        <ele>789</ele>
        <time>2021-05-29T09:24:10Z</time>
      </trkpt>
      <trkpt lat="45.03913" lon="5.76676">
        <ele>788.8</ele>
        <time>2021-05-29T09:24:11Z</time>
      </trkpt>
      <trkpt lat="45.03911" lon="5.76681">
        <ele>788.8</ele>
        <time>2021-05-29T09:24:12Z</time>
      </trkpt>
      <trkpt lat="45.03908" lon="5.76686">
        <ele>788.8</ele>
        <time>2021-05-29T09:24:13Z</time>
      </trkpt>
      <trkpt lat="45.03905" lon="5.76691">
        <ele>789</ele>
        <time>2021-05-29T09:24:14Z</time>
      </trkpt>
      <trkpt lat="45.03902" lon="5.76695">
        <ele>789</ele>
        <time>2021-05-29T09:24:15Z</time>
      </trkpt>
      <trkpt lat="45.03899" lon="5.767">
        <ele>789.2</ele>
        <time>2021-05-29T09:24:16Z</time>
      </trkpt>
      <trkpt lat="45.03897" lon="5.76705">
        <ele>789.4</ele>
        <time>2021-05-29T09:24:17Z</time>
      </trkpt>
      <trkpt lat="45.03892" lon="5.76708">
        <ele>789.4</ele>
        <time>2021-05-29T09:24:18Z</time>
      </trkpt>
      <trkpt lat="45.03892" lon="5.76708">
        <ele>789.4</ele>
        <time>2021-05-29T09:24:19Z</time>
      </trkpt>
      <trkpt lat="45.03892" lon="5.76708">
        <ele>789.6</ele>
        <time>2021-05-29T09:24:20Z</time>
      </trkpt>
      <trkpt lat="45.03892" lon="5.76708">
        <ele>789.8</ele>
        <time>2021-05-29T09:24:21Z</time>
      </trkpt>
      <trkpt lat="45.03895" lon="5.76707">
        <ele>790</ele>
        <time>2021-05-29T09:24:22Z</time>
      </trkpt>
      <trkpt lat="45.03898" lon="5.76707">
        <ele>790</ele>
        <time>2021-05-29T09:24:23Z</time>
      </trkpt>
      <trkpt lat="45.039" lon="5.76706">
        <ele>790</ele>
        <time>2021-05-29T09:24:24Z</time>
      </trkpt>
      <trkpt lat="45.03903" lon="5.76706">
        <ele>790</ele>
        <time>2021-05-29T09:24:25Z</time>
      </trkpt>
      <trkpt lat="45.03906" lon="5.76705">
        <ele>790</ele>
        <time>2021-05-29T09:24:26Z</time>
      </trkpt>
      <trkpt lat="45.03908" lon="5.76705">
        <ele>789.8</ele>
        <time>2021-05-29T09:24:27Z</time>
      </trkpt>
      <trkpt lat="45.03911" lon="5.76704">
        <ele>789.8</ele>
        <time>2021-05-29T09:24:28Z</time>
      </trkpt>
      <trkpt lat="45.03914" lon="5.76704">
        <ele>789.8</ele>
        <time>2021-05-29T09:24:29Z</time>
      </trkpt>
      <trkpt lat="45.03916" lon="5.76704">
        <ele>789.8</ele>
        <time>2021-05-29T09:24:30Z</time>
      </trkpt>
      <trkpt lat="45.03919" lon="5.76703">
        <ele>790</ele>
        <time>2021-05-29T09:24:31Z</time>
      </trkpt>
      <trkpt lat="45.03928" lon="5.76706">
        <ele>790</ele>
        <time>2021-05-29T09:24:32Z</time>
      </trkpt>
      <trkpt lat="45.03937" lon="5.76708">
        <ele>789.8</ele>
        <time>2021-05-29T09:24:33Z</time>
      </trkpt>
      <trkpt lat="45.03946" lon="5.76711">
        <ele>789.6</ele>
        <time>2021-05-29T09:24:34Z</time>
      </trkpt>
      <trkpt lat="45.03955" lon="5.76714">
        <ele>789.6</ele>
        <time>2021-05-29T09:24:35Z</time>
      </trkpt>
      <trkpt lat="45.03964" lon="5.76717">
        <ele>789.6</ele>
        <time>2021-05-29T09:24:36Z</time>
      </trkpt>
      <trkpt lat="45.03973" lon="5.76719">
        <ele>789.6</ele>
        <time>2021-05-29T09:24:37Z</time>
      </trkpt>
      <trkpt lat="45.03982" lon="5.76722">
        <ele>789.6</ele>
        <time>2021-05-29T09:24:38Z</time>
      </trkpt>
      <trkpt lat="45.03991" lon="5.76725">
        <ele>789.6</ele>
        <time>2021-05-29T09:24:39Z</time>
      </trkpt>
      <trkpt lat="45.04" lon="5.76727">
        <ele>789.6</ele>
        <time>2021-05-29T09:24:40Z</time>
      </trkpt>
      <trkpt lat="45.0401" lon="5.7673">
        <ele>789.4</ele>
        <time>2021-05-29T09:24:41Z</time>
      </trkpt>
      <trkpt lat="45.04019" lon="5.76733">
        <ele>789.4</ele>
        <time>2021-05-29T09:24:42Z</time>
      </trkpt>
      <trkpt lat="45.04028" lon="5.76736">
        <ele>789.2</ele>
        <time>2021-05-29T09:24:43Z</time>
      </trkpt>
      <trkpt lat="45.04037" lon="5.76738">
        <ele>789</ele>
        <time>2021-05-29T09:24:44Z</time>
      </trkpt>
      <trkpt lat="45.04046" lon="5.76741">
        <ele>789.2</ele>
        <time>2021-05-29T09:24:45Z</time>
      </trkpt>
      <trkpt lat="45.04055" lon="5.76744">
        <ele>789</ele>
        <time>2021-05-29T09:24:46Z</time>
      </trkpt>
      <trkpt lat="45.04064" lon="5.76746">
        <ele>789</ele>
        <time>2021-05-29T09:24:47Z</time>
      </trkpt>
      <trkpt lat="45.04073" lon="5.76749">
        <ele>789</ele>
        <time>2021-05-29T09:24:48Z</time>
      </trkpt>
      <trkpt lat="45.04082" lon="5.76752">
        <ele>788.8</ele>
        <time>2021-05-29T09:24:49Z</time>
      </trkpt>
      <trkpt lat="45.04091" lon="5.76755">
        <ele>788.8</ele>
        <time>2021-05-29T09:24:50Z</time>
      </trkpt>
      <trkpt lat="45.041" lon="5.76757">
        <ele>788.6</ele>
        <time>2021-05-29T09:24:51Z</time>
      </trkpt>
      <trkpt lat="45.04109" lon="5.7676">
        <ele>788.4</ele>
        <time>2021-05-29T09:24:52Z</time>
      </trkpt>
      <trkpt lat="45.04118" lon="5.76763">
        <ele>788.4</ele>
        <time>2021-05-29T09:24:53Z</time>
      </trkpt>
      <trkpt lat="45.04318" lon="5.76823">
        <ele>788.2</ele>
        <time>2021-05-29T09:24:54Z</time>
      </trkpt>
      <trkpt lat="45.0432" lon="5.7682">
        <ele>788</ele>
        <time>2021-05-29T09:24:55Z</time>
      </trkpt>
      <trkpt lat="45.04325" lon="5.76816">
        <ele>788.2</ele>
        <time>2021-05-29T09:24:56Z</time>
      </trkpt>
      <trkpt lat="45.04325" lon="5.76816">
        <ele>788</ele>
        <time>2021-05-29T09:24:57Z</time>
      </trkpt>
      <trkpt lat="45.04325" lon="5.76816">
        <ele>788</ele>
        <time>2021-05-29T09:24:58Z</time>
      </trkpt>
      <trkpt lat="45.04326" lon="5.76819">
        <ele>788</ele>
        <time>2021-05-29T09:24:59Z</time>
      </trkpt>
      <trkpt lat="45.04326" lon="5.76822">
        <ele>788.2</ele>
        <time>2021-05-29T09:25:00Z</time>
      </trkpt>
      <trkpt lat="45.04326" lon="5.76825">
        <ele>788</ele>
        <time>2021-05-29T09:25:01Z</time>
      </trkpt>
      <trkpt lat="45.04327" lon="5.76828">
        <ele>788.2</ele>
        <time>2021-05-29T09:25:02Z</time>
      </trkpt>
      <trkpt lat="45.04327" lon="5.76831">
        <ele>788.2</ele>
        <time>2021-05-29T09:25:03Z</time>
      </trkpt>
      <trkpt lat="45.04325" lon="5.76833">
        <ele>788.4</ele>
        <time>2021-05-29T09:25:04Z</time>
      </trkpt>
      <trkpt lat="45.04323" lon="5.76835">
        <ele>788.4</ele>
        <time>2021-05-29T09:25:05Z</time>
      </trkpt>
      <trkpt lat="45.04322" lon="5.76837">
        <ele>788.4</ele>
        <time>2021-05-29T09:25:06Z</time>
      </trkpt>
      <trkpt lat="45.0432" lon="5.76838">
        <ele>788.6</ele>
        <time>2021-05-29T09:25:07Z</time>
      </trkpt>
      <trkpt lat="45.04318" lon="5.7684">
        <ele>788.6</ele>
        <time>2021-05-29T09:25:08Z</time>
      </trkpt>
      <trkpt lat="45.04327" lon="5.76823">
        <ele>788.8</ele>
        <time>2021-05-29T09:25:09Z</time>
      </trkpt>
      <trkpt lat="45.04336" lon="5.76805">
        <ele>788.4</ele>
        <time>2021-05-29T09:25:10Z</time>
      </trkpt>
      <trkpt lat="45.04344" lon="5.76788">
        <ele>788.4</ele>
        <time>2021-05-29T09:25:11Z</time>
      </trkpt>
      <trkpt lat="45.04353" lon="5.7677">
        <ele>788</ele>
        <time>2021-05-29T09:25:12Z</time>
      </trkpt>
      <trkpt lat="45.04362" lon="5.76753">
        <ele>787.6</ele>
        <time>2021-05-29T09:25:13Z</time>
      </trkpt>
      <trkpt lat="45.0437" lon="5.76735">
        <ele>787.4</ele>
        <time>2021-05-29T09:25:14Z</time>
      </trkpt>
      <trkpt lat="45.04379" lon="5.76718">
        <ele>787.4</ele>
        <time>2021-05-29T09:25:15Z</time>
      </trkpt>
      <trkpt lat="45.04388" lon="5.767">
        <ele>787</ele>
        <time>2021-05-29T09:25:16Z</time>
      </trkpt>
      <trkpt lat="45.04396" lon="5.76683">
        <ele>786.6</ele>
        <time>2021-05-29T09:25:17Z</time>
      </trkpt>
      <trkpt lat="45.04475" lon="5.76526">
        <ele>786.2</ele>
        <time>2021-05-29T09:25:18Z</time>
      </trkpt>
      <trkpt lat="45.04475" lon="5.76526">
        <ele>786</ele>
        <time>2021-05-29T09:25:19Z</time>
      </trkpt>
      <trkpt lat="45.04475" lon="5.76526">
        <ele>786</ele>
        <time>2021-05-29T09:25:20Z</time>
      </trkpt>
      <trkpt lat="45.04476" lon="5.76527">
        <ele>786</ele>
        <time>2021-05-29T09:25:21Z</time>
      </trkpt>
      <trkpt lat="45.04478" lon="5.76529">
        <ele>785.8</ele>
        <time>2021-05-29T09:25:22Z</time>
      </trkpt>
      <trkpt lat="45.04479" lon="5.76531">
        <ele>785.4</ele>
        <time>2021-05-29T09:25:23Z</time>
      </trkpt>
      <trkpt lat="45.04481" lon="5.76532">
        <ele>785.2</ele>
        <time>2021-05-29T09:25:24Z</time>
      </trkpt>
      <trkpt lat="45.04482" lon="5.76534">
        <ele>785</ele>
        <time>2021-05-29T09:25:25Z</time>
      </trkpt>
      <trkpt lat="45.04481" lon="5.76535">
        <ele>785</ele>
        <time>2021-05-29T09:25:26Z</time>
      </trkpt>
      <trkpt lat="45.0448" lon="5.76536">
        <ele>784.4</ele>
        <time>2021-05-29T09:25:27Z</time>
      </trkpt>
      <trkpt lat="45.04479" lon="5.76538">
        <ele>784.2</ele>
        <time>2021-05-29T09:25:28Z</time>
      </trkpt>
      <trkpt lat="45.04478" lon="5.76539">
        <ele>784.2</ele>
        <time>2021-05-29T09:25:29Z</time>
      </trkpt>
      <trkpt lat="45.04477" lon="5.7654">
        <ele>783.8</ele>
        <time>2021-05-29T09:25:30Z</time>
      </trkpt>
      <trkpt lat="45.04476" lon="5.76542">
        <ele>783.8</ele>
        <time>2021-05-29T09:25:31Z</time>
      </trkpt>
      <trkpt lat="45.04475" lon="5.76543">
        <ele>783.6</ele>
        <time>2021-05-29T09:25:32Z</time>
      </trkpt>
      <trkpt lat="45.04474" lon="5.76544">
        <ele>783.4</ele>
        <time>2021-05-29T09:25:33Z</time>
      </trkpt>
      <trkpt lat="45.04473" lon="5.76545">
        <ele>783.4</ele>
        <time>2021-05-29T09:25:34Z</time>
      </trkpt>
      <trkpt lat="45.04472" lon="5.76547">
        <ele>782.8</ele>
        <time>2021-05-29T09:25:35Z</time>
      </trkpt>
      <trkpt lat="45.04471" lon="5.76548">
        <ele>782.6</ele>
        <time>2021-05-29T09:25:36Z</time>
      </trkpt>
      <trkpt lat="45.0447" lon="5.76549">
        <ele>782.2</ele>
        <time>2021-05-29T09:25:37Z</time>
      </trkpt>
      <trkpt lat="45.04469" lon="5.76551">
        <ele>782</ele>
        <time>2021-05-29T09:25:38Z</time>
      </trkpt>
      <trkpt lat="45.04468" lon="5.76552">
        <ele>781.4</ele>
        <time>2021-05-29T09:25:39Z</time>
      </trkpt>
      <trkpt lat="45.04467" lon="5.76553">
        <ele>780.8</ele>
        <time>2021-05-29T09:25:40Z</time>
      </trkpt>
      <trkpt lat="45.04466" lon="5.76555">
        <ele>780.4</ele>
        <time>2021-05-29T09:25:41Z</time>
      </trkpt>
      <trkpt lat="45.0445" lon="5.76576">
        <ele>780.4</ele>
        <time>2021-05-29T09:25:42Z</time>
      </trkpt>
      <trkpt lat="45.04449" lon="5.76582">
        <ele>780</ele>
        <time>2021-05-29T09:25:43Z</time>
      </trkpt>
      <trkpt lat="45.04448" lon="5.76588">
        <ele>779.6</ele>
        <time>2021-05-29T09:25:44Z</time>
      </trkpt>
      <trkpt lat="45.04448" lon="5.76588">
        <ele>779.8</ele>
        <time>2021-05-29T09:25:45Z</time>
      </trkpt>
      <trkpt lat="45.04448" lon="5.76588">
        <ele>779.2</ele>
        <time>2021-05-29T09:25:46Z</time>
      </trkpt>
      <trkpt lat="45.04449" lon="5.7659">
        <ele>779.6</ele>
        <time>2021-05-29T09:25:47Z</time>
      </trkpt>
      <trkpt lat="45.04449" lon="5.76592">
        <ele>779.2</ele>
        <time>2021-05-29T09:25:48Z</time>
      </trkpt>
      <trkpt lat="45.0445" lon="5.76594">
        <ele>779.6</ele>
        <time>2021-05-29T09:25:49Z</time>
      </trkpt>
      <trkpt lat="45.0445" lon="5.76596">
        <ele>779.2</ele>
        <time>2021-05-29T09:25:50Z</time>
      </trkpt>
      <trkpt lat="45.04451" lon="5.76598">
        <ele>779.4</ele>
        <time>2021-05-29T09:25:51Z</time>
      </trkpt>
      <trkpt lat="45.04451" lon="5.766">
        <ele>779.2</ele>
        <time>2021-05-29T09:25:52Z</time>
      </trkpt>
      <trkpt lat="45.04452" lon="5.76602">
        <ele>779.4</ele>
        <time>2021-05-29T09:25:53Z</time>
      </trkpt>
      <trkpt lat="45.04451" lon="5.76605">
        <ele>779.4</ele>
        <time>2021-05-29T09:25:54Z</time>
      </trkpt>
      <trkpt lat="45.04451" lon="5.76609">
        <ele>779.6</ele>
        <time>2021-05-29T09:25:55Z</time>
      </trkpt>
      <trkpt lat="45.04451" lon="5.76612">
        <ele>779.4</ele>
        <time>2021-05-29T09:25:56Z</time>
      </trkpt>
      <trkpt lat="45.0445" lon="5.76615">
        <ele>780</ele>
        <time>2021-05-29T09:25:57Z</time>
      </trkpt>
      <trkpt lat="45.0445" lon="5.76618">
        <ele>780</ele>
        <time>2021-05-29T09:25:58Z</time>
      </trkpt>
      <trkpt lat="45.04449" lon="5.76621">
        <ele>780.6</ele>
        <time>2021-05-29T09:25:59Z</time>
      </trkpt>
      <trkpt lat="45.04448" lon="5.76622">
        <ele>780.4</ele>
        <time>2021-05-29T09:26:00Z</time>
      </trkpt>
      <trkpt lat="45.04447" lon="5.76623">
        <ele>780.6</ele>
        <time>2021-05-29T09:26:01Z</time>
      </trkpt>
      <trkpt lat="45.04447" lon="5.76624">
        <ele>781</ele>
        <time>2021-05-29T09:26:02Z</time>
      </trkpt>
      <trkpt lat="45.04446" lon="5.76625">
        <ele>781.4</ele>
        <time>2021-05-29T09:26:03Z</time>
      </trkpt>
      <trkpt lat="45.04445" lon="5.76625">
        <ele>781.2</ele>
        <time>2021-05-29T09:26:04Z</time>
      </trkpt>
      <trkpt lat="45.04444" lon="5.76626">
        <ele>781.2</ele>
        <time>2021-05-29T09:26:05Z</time>
      </trkpt>
      <trkpt lat="45.04444" lon="5.76627">
        <ele>781</ele>
        <time>2021-05-29T09:26:06Z</time>
      </trkpt>
      <trkpt lat="45.04443" lon="5.76628">
        <ele>781.4</ele>
        <time>2021-05-29T09:26:07Z</time>
      </trkpt>
      <trkpt lat="45.04442" lon="5.76629">
        <ele>781.6</ele>
        <time>2021-05-29T09:26:08Z</time>
      </trkpt>
      <trkpt lat="45.04442" lon="5.76629">
        <ele>782.2</ele>
        <time>2021-05-29T09:26:09Z</time>
      </trkpt>
      <trkpt lat="45.04441" lon="5.7663">
        <ele>782.4</ele>
        <time>2021-05-29T09:26:10Z</time>
      </trkpt>
      <trkpt lat="45.0444" lon="5.76631">
        <ele>782.6</ele>
        <time>2021-05-29T09:26:11Z</time>
      </trkpt>
      <trkpt lat="45.0444" lon="5.76632">
        <ele>782.4</ele>
        <time>2021-05-29T09:26:12Z</time>
      </trkpt>
      <trkpt lat="45.04439" lon="5.76633">
        <ele>782</ele>
        <time>2021-05-29T09:26:13Z</time>
      </trkpt>
      <trkpt lat="45.04438" lon="5.76633">
        <ele>781.6</ele>
        <time>2021-05-29T09:26:14Z</time>
      </trkpt>
      <trkpt lat="45.04437" lon="5.76634">
        <ele>781</ele>
        <time>2021-05-29T09:26:15Z</time>
      </trkpt>
      <trkpt lat="45.04437" lon="5.76635">
        <ele>780.8</ele>
        <time>2021-05-29T09:26:16Z</time>
      </trkpt>
      <trkpt lat="45.04436" lon="5.76636">
        <ele>780.6</ele>
        <time>2021-05-29T09:26:17Z</time>
      </trkpt>
      <trkpt lat="45.04435" lon="5.76636">
        <ele>780.6</ele>
        <time>2021-05-29T09:26:18Z</time>
      </trkpt>
      <trkpt lat="45.04435" lon="5.76637">
        <ele>780</ele>
        <time>2021-05-29T09:26:19Z</time>
      </trkpt>
      <trkpt lat="45.04434" lon="5.76638">
        <ele>779.8</ele>
        <time>2021-05-29T09:26:20Z</time>
      </trkpt>
      <trkpt lat="45.04433" lon="5.76639">
        <ele>779.6</ele>
        <time>2021-05-29T09:26:21Z</time>
      </trkpt>
      <trkpt lat="45.04433" lon="5.7664">
        <ele>778.8</ele>
        <time>2021-05-29T09:26:22Z</time>
      </trkpt>
      <trkpt lat="45.04432" lon="5.7664">
        <ele>778.6</ele>
        <time>2021-05-29T09:26:23Z</time>
      </trkpt>
      <trkpt lat="45.04431" lon="5.76641">
        <ele>778</ele>
        <time>2021-05-29T09:26:24Z</time>
      </trkpt>
      <trkpt lat="45.0443" lon="5.76642">
        <ele>777.6</ele>
        <time>2021-05-29T09:26:25Z</time>
      </trkpt>
      <trkpt lat="45.0443" lon="5.76643">
        <ele>776.8</ele>
        <time>2021-05-29T09:26:26Z</time>
      </trkpt>
      <trkpt lat="45.04429" lon="5.76644">
        <ele>775.8</ele>
        <time>2021-05-29T09:26:27Z</time>
      </trkpt>
      <trkpt lat="45.04428" lon="5.76644">
        <ele>775.6</ele>
        <time>2021-05-29T09:26:28Z</time>
      </trkpt>
      <trkpt lat="45.04416" lon="5.76646">
        <ele>774.8</ele>
        <time>2021-05-29T09:26:29Z</time>
      </trkpt>
      <trkpt lat="45.04416" lon="5.76646">
        <ele>774.4</ele>
        <time>2021-05-29T09:26:30Z</time>
      </trkpt>
      <trkpt lat="45.04416" lon="5.76644">
        <ele>774</ele>
        <time>2021-05-29T09:26:31Z</time>
      </trkpt>
      <trkpt lat="45.04416" lon="5.76642">
        <ele>773.2</ele>
        <time>2021-05-29T09:26:32Z</time>
      </trkpt>
      <trkpt lat="45.04417" lon="5.7664">
        <ele>772.6</ele>
        <time>2021-05-29T09:26:33Z</time>
      </trkpt>
      <trkpt lat="45.04417" lon="5.76638">
        <ele>772</ele>
        <time>2021-05-29T09:26:34Z</time>
      </trkpt>
      <trkpt lat="45.04417" lon="5.76637">
        <ele>771.8</ele>
        <time>2021-05-29T09:26:35Z</time>
      </trkpt>
      <trkpt lat="45.04417" lon="5.76635">
        <ele>771.2</ele>
        <time>2021-05-29T09:26:36Z</time>
      </trkpt>
      <trkpt lat="45.04417" lon="5.76633">
        <ele>770.6</ele>
        <time>2021-05-29T09:26:37Z</time>
      </trkpt>
      <trkpt lat="45.04419" lon="5.76631">
        <ele>770.2</ele>
        <time>2021-05-29T09:26:38Z</time>
      </trkpt>
      <trkpt lat="45.04421" lon="5.7663">
        <ele>769.8</ele>
        <time>2021-05-29T09:26:39Z</time>
      </trkpt>
      <trkpt lat="45.04422" lon="5.76628">
        <ele>769.6</ele>
        <time>2021-05-29T09:26:40Z</time>
      </trkpt>
      <trkpt lat="45.04424" lon="5.76627">
        <ele>769</ele>
        <time>2021-05-29T09:26:41Z</time>
      </trkpt>
      <trkpt lat="45.04426" lon="5.76626">
        <ele>768.2</ele>
        <time>2021-05-29T09:26:42Z</time>
      </trkpt>
      <trkpt lat="45.04428" lon="5.76624">
        <ele>768.2</ele>
        <time>2021-05-29T09:26:43Z</time>
      </trkpt>
      <trkpt lat="45.04429" lon="5.76622">
        <ele>767.8</ele>
        <time>2021-05-29T09:26:44Z</time>
      </trkpt>
      <trkpt lat="45.04431" lon="5.7662">
        <ele>767.2</ele>
        <time>2021-05-29T09:26:45Z</time>
      </trkpt>
      <trkpt lat="45.04433" lon="5.76619">
        <ele>767</ele>
        <time>2021-05-29T09:26:46Z</time>
      </trkpt>
      <trkpt lat="45.04435" lon="5.76617">
        <ele>766.6</ele>
        <time>2021-05-29T09:26:47Z</time>
      </trkpt>
      <trkpt lat="45.04438" lon="5.76615">
        <ele>766.2</ele>
        <time>2021-05-29T09:26:48Z</time>
      </trkpt>
      <trkpt lat="45.0444" lon="5.76613">
        <ele>765.6</ele>
        <time>2021-05-29T09:26:49Z</time>
      </trkpt>
      <trkpt lat="45.04442" lon="5.76611">
        <ele>765</ele>
        <time>2021-05-29T09:26:50Z</time>
      </trkpt>
      <trkpt lat="45.04442" lon="5.76613">
        <ele>764.2</ele>
        <time>2021-05-29T09:26:51Z</time>
      </trkpt>
      <trkpt lat="45.04443" lon="5.76616">
        <ele>763.6</ele>
        <time>2021-05-29T09:26:52Z</time>
      </trkpt>
      <trkpt lat="45.04444" lon="5.76618">
        <ele>763</ele>
        <time>2021-05-29T09:26:53Z</time>
      </trkpt>
      <trkpt lat="45.04445" lon="5.7662">
        <ele>762</ele>
        <time>2021-05-29T09:26:54Z</time>
      </trkpt>
      <trkpt lat="45.04446" lon="5.76623">
        <ele>761.4</ele>
        <time>2021-05-29T09:26:55Z</time>
      </trkpt>
      <trkpt lat="45.04447" lon="5.76625">
        <ele>761</ele>
        <time>2021-05-29T09:26:56Z</time>
      </trkpt>
      <trkpt lat="45.04447" lon="5.76627">
        <ele>760.8</ele>
        <time>2021-05-29T09:26:57Z</time>
      </trkpt>
      <trkpt lat="45.04448" lon="5.76629">
        <ele>760.2</ele>
        <time>2021-05-29T09:26:58Z</time>
      </trkpt>
      <trkpt lat="45.04449" lon="5.76632">
        <ele>759.8</ele>
        <time>2021-05-29T09:26:59Z</time>
      </trkpt>
      <trkpt lat="45.0445" lon="5.76634">
        <ele>758.8</ele>
        <time>2021-05-29T09:27:00Z</time>
      </trkpt>
      <trkpt lat="45.04451" lon="5.76636">
        <ele>758</ele>
        <time>2021-05-29T09:27:01Z</time>
      </trkpt>
      <trkpt lat="45.04451" lon="5.76638">
        <ele>757</ele>
        <time>2021-05-29T09:27:02Z</time>
      </trkpt>
      <trkpt lat="45.04452" lon="5.76641">
        <ele>756.4</ele>
        <time>2021-05-29T09:27:03Z</time>
      </trkpt>
      <trkpt lat="45.04453" lon="5.76643">
        <ele>755</ele>
        <time>2021-05-29T09:27:04Z</time>
      </trkpt>
      <trkpt lat="45.04454" lon="5.76645">
        <ele>754</ele>
        <time>2021-05-29T09:27:05Z</time>
      </trkpt>
      <trkpt lat="45.04455" lon="5.76648">
        <ele>753.2</ele>
        <time>2021-05-29T09:27:06Z</time>
      </trkpt>
      <trkpt lat="45.04456" lon="5.7665">
        <ele>752.4</ele>
        <time>2021-05-29T09:27:07Z</time>
      </trkpt>
      <trkpt lat="45.04456" lon="5.76652">
        <ele>751.2</ele>
        <time>2021-05-29T09:27:08Z</time>
      </trkpt>
      <trkpt lat="45.04457" lon="5.76654">
        <ele>750.6</ele>
        <time>2021-05-29T09:27:09Z</time>
      </trkpt>
      <trkpt lat="45.04458" lon="5.76657">
        <ele>750.4</ele>
        <time>2021-05-29T09:27:10Z</time>
      </trkpt>
      <trkpt lat="45.04459" lon="5.76659">
        <ele>749.8</ele>
        <time>2021-05-29T09:27:11Z</time>
      </trkpt>
      <trkpt lat="45.0446" lon="5.76661">
        <ele>749.2</ele>
        <time>2021-05-29T09:27:12Z</time>
      </trkpt>
      <trkpt lat="45.04461" lon="5.76664">
        <ele>748.4</ele>
        <time>2021-05-29T09:27:13Z</time>
      </trkpt>
      <trkpt lat="45.04461" lon="5.76666">
        <ele>747.8</ele>
        <time>2021-05-29T09:27:14Z</time>
      </trkpt>
      <trkpt lat="45.04462" lon="5.76668">
        <ele>747.2</ele>
        <time>2021-05-29T09:27:15Z</time>
      </trkpt>
      <trkpt lat="45.04463" lon="5.7667">
        <ele>746.6</ele>
        <time>2021-05-29T09:27:16Z</time>
      </trkpt>
      <trkpt lat="45.04464" lon="5.76673">
        <ele>745.8</ele>
        <time>2021-05-29T09:27:17Z</time>
      </trkpt>
      <trkpt lat="45.04465" lon="5.76675">
        <ele>745.4</ele>
        <time>2021-05-29T09:27:18Z</time>
      </trkpt>
      <trkpt lat="45.04465" lon="5.76677">
        <ele>744.8</ele>
        <time>2021-05-29T09:27:19Z</time>
      </trkpt>
      <trkpt lat="45.04466" lon="5.76679">
        <ele>744.4</ele>
        <time>2021-05-29T09:27:20Z</time>
      </trkpt>
      <trkpt lat="45.04467" lon="5.76682">
        <ele>743.6</ele>
        <time>2021-05-29T09:27:21Z</time>
      </trkpt>
      <trkpt lat="45.04468" lon="5.76684">
        <ele>742.8</ele>
        <time>2021-05-29T09:27:22Z</time>
      </trkpt>
      <trkpt lat="45.04469" lon="5.76686">
        <ele>742.6</ele>
        <time>2021-05-29T09:27:23Z</time>
      </trkpt>
      <trkpt lat="45.0447" lon="5.76689">
        <ele>741.8</ele>
        <time>2021-05-29T09:27:24Z</time>
      </trkpt>
      <trkpt lat="45.04497" lon="5.76766">
        <ele>741.6</ele>
        <time>2021-05-29T09:27:25Z</time>
      </trkpt>
      <trkpt lat="45.04496" lon="5.76766">
        <ele>741.2</ele>
        <time>2021-05-29T09:27:26Z</time>
      </trkpt>
      <trkpt lat="45.04495" lon="5.76767">
        <ele>740.6</ele>
        <time>2021-05-29T09:27:27Z</time>
      </trkpt>
      <trkpt lat="45.04494" lon="5.76767">
        <ele>740.4</ele>
        <time>2021-05-29T09:27:28Z</time>
      </trkpt>
      <trkpt lat="45.04493" lon="5.76768">
        <ele>739.8</ele>
        <time>2021-05-29T09:27:29Z</time>
      </trkpt>
      <trkpt lat="45.04492" lon="5.76768">
        <ele>739.8</ele>
        <time>2021-05-29T09:27:30Z</time>
      </trkpt>
      <trkpt lat="45.04491" lon="5.76769">
        <ele>739</ele>
        <time>2021-05-29T09:27:31Z</time>
      </trkpt>
      <trkpt lat="45.0449" lon="5.76769">
        <ele>738.4</ele>
        <time>2021-05-29T09:27:32Z</time>
      </trkpt>
      <trkpt lat="45.04489" lon="5.76769">
        <ele>738</ele>
        <time>2021-05-29T09:27:33Z</time>
      </trkpt>
      <trkpt lat="45.04488" lon="5.7677">
        <ele>737.6</ele>
        <time>2021-05-29T09:27:34Z</time>
      </trkpt>
      <trkpt lat="45.04487" lon="5.7677">
        <ele>737.6</ele>
        <time>2021-05-29T09:27:35Z</time>
      </trkpt>
      <trkpt lat="45.04486" lon="5.76771">
        <ele>737.2</ele>
        <time>2021-05-29T09:27:36Z</time>
      </trkpt>
      <trkpt lat="45.04485" lon="5.76771">
        <ele>736.8</ele>
        <time>2021-05-29T09:27:37Z</time>
      </trkpt>
      <trkpt lat="45.04484" lon="5.76772">
        <ele>736.4</ele>
        <time>2021-05-29T09:27:38Z</time>
      </trkpt>
      <trkpt lat="45.04482" lon="5.76772">
        <ele>736</ele>
        <time>2021-05-29T09:27:39Z</time>
      </trkpt>
      <trkpt lat="45.04481" lon="5.76772">
        <ele>736</ele>
        <time>2021-05-29T09:27:40Z</time>
      </trkpt>
      <trkpt lat="45.0448" lon="5.76773">
        <ele>736</ele>
        <time>2021-05-29T09:27:41Z</time>
      </trkpt>
      <trkpt lat="45.04479" lon="5.76773">
        <ele>736</ele>
        <time>2021-05-29T09:27:42Z</time>
      </trkpt>
      <trkpt lat="45.04478" lon="5.76774">
        <ele>735.6</ele>
        <time>2021-05-29T09:27:43Z</time>
      </trkpt>
      <trkpt lat="45.04477" lon="5.76774">
        <ele>735.6</ele>
        <time>2021-05-29T09:27:44Z</time>
      </trkpt>
      <trkpt lat="45.04476" lon="5.76775">
        <ele>735</ele>
        <time>2021-05-29T09:27:45Z</time>
      </trkpt>
      <trkpt lat="45.04475" lon="5.76775">
        <ele>734.4</ele>
        <time>2021-05-29T09:27:46Z</time>
      </trkpt>
      <trkpt lat="45.04474" lon="5.76775">
        <ele>734.4</ele>
        <time>2021-05-29T09:27:47Z</time>
      </trkpt>
      <trkpt lat="45.04473" lon="5.76776">
        <ele>734.2</ele>
        <time>2021-05-29T09:27:48Z</time>
      </trkpt>
      <trkpt lat="45.04472" lon="5.76776">
        <ele>734</ele>
        <time>2021-05-29T09:27:49Z</time>
      </trkpt>
      <trkpt lat="45.04471" lon="5.76777">
        <ele>733.6</ele>
        <time>2021-05-29T09:27:50Z</time>
      </trkpt>
      <trkpt lat="45.0447" lon="5.76777">
        <ele>733</ele>
        <time>2021-05-29T09:27:51Z</time>
      </trkpt>
      <trkpt lat="45.04469" lon="5.76778">
        <ele>732</ele>
        <time>2021-05-29T09:27:52Z</time>
      </trkpt>
      <trkpt lat="45.0444" lon="5.76789">
        <ele>731</ele>
        <time>2021-05-29T09:27:53Z</time>
      </trkpt>
      <trkpt lat="45.0444" lon="5.76789">
        <ele>730.6</ele>
        <time>2021-05-29T09:27:54Z</time>
      </trkpt>
      <trkpt lat="45.04442" lon="5.76791">
        <ele>730.2</ele>
        <time>2021-05-29T09:27:55Z</time>
      </trkpt>
      <trkpt lat="45.04443" lon="5.76793">
        <ele>729.8</ele>
        <time>2021-05-29T09:27:56Z</time>
      </trkpt>
      <trkpt lat="45.04445" lon="5.76795">
        <ele>729.6</ele>
        <time>2021-05-29T09:27:57Z</time>
      </trkpt>
      <trkpt lat="45.04447" lon="5.76797">
        <ele>729.4</ele>
        <time>2021-05-29T09:27:58Z</time>
      </trkpt>
      <trkpt lat="45.04453" lon="5.76802">
        <ele>729</ele>
        <time>2021-05-29T09:27:59Z</time>
      </trkpt>
      <trkpt lat="45.04458" lon="5.76806">
        <ele>727.8</ele>
        <time>2021-05-29T09:28:00Z</time>
      </trkpt>
      <trkpt lat="45.04463" lon="5.7681">
        <ele>727.4</ele>
        <time>2021-05-29T09:28:01Z</time>
      </trkpt>
      <trkpt lat="45.04469" lon="5.76815">
        <ele>726.4</ele>
        <time>2021-05-29T09:28:02Z</time>
      </trkpt>
      <trkpt lat="45.04475" lon="5.76821">
        <ele>726.2</ele>
        <time>2021-05-29T09:28:03Z</time>
      </trkpt>
      <trkpt lat="45.04476" lon="5.76822">
        <ele>725.4</ele>
        <time>2021-05-29T09:28:04Z</time>
      </trkpt>
      <trkpt lat="45.04478" lon="5.76824">
        <ele>724.6</ele>
        <time>2021-05-29T09:28:05Z</time>
      </trkpt>
      <trkpt lat="45.04481" lon="5.76828">
        <ele>723.8</ele>
        <time>2021-05-29T09:28:06Z</time>
      </trkpt>
      <trkpt lat="45.04483" lon="5.76829">
        <ele>723.4</ele>
        <time>2021-05-29T09:28:07Z</time>
      </trkpt>
      <trkpt lat="45.04484" lon="5.76829">
        <ele>722.6</ele>
        <time>2021-05-29T09:28:08Z</time>
      </trkpt>
      <trkpt lat="45.04486" lon="5.76829">
        <ele>722.2</ele>
        <time>2021-05-29T09:28:09Z</time>
      </trkpt>
      <trkpt lat="45.0449" lon="5.7683">
        <ele>721.8</ele>
        <time>2021-05-29T09:28:10Z</time>
      </trkpt>
      <trkpt lat="45.04495" lon="5.76831">
        <ele>720.2</ele>
        <time>2021-05-29T09:28:11Z</time>
      </trkpt>
      <trkpt lat="45.04499" lon="5.76832">
        <ele>719.8</ele>
        <time>2021-05-29T09:28:12Z</time>
      </trkpt>
      <trkpt lat="45.04504" lon="5.76834">
        <ele>718</ele>
        <time>2021-05-29T09:28:13Z</time>
      </trkpt>
      <trkpt lat="45.04509" lon="5.76834">
        <ele>717.6</ele>
        <time>2021-05-29T09:28:14Z</time>
      </trkpt>
      <trkpt lat="45.04511" lon="5.76832">
        <ele>716.4</ele>
        <time>2021-05-29T09:28:15Z</time>
      </trkpt>
      <trkpt lat="45.04514" lon="5.7683">
        <ele>716.2</ele>
        <time>2021-05-29T09:28:16Z</time>
      </trkpt>
      <trkpt lat="45.04516" lon="5.76828">
        <ele>715.2</ele>
        <time>2021-05-29T09:28:17Z</time>
      </trkpt>
      <trkpt lat="45.04518" lon="5.76826">
        <ele>715</ele>
        <time>2021-05-29T09:28:18Z</time>
      </trkpt>
      <trkpt lat="45.0452" lon="5.76824">
        <ele>714.2</ele>
        <time>2021-05-29T09:28:19Z</time>
      </trkpt>
      <trkpt lat="45.04522" lon="5.76822">
        <ele>713.6</ele>
        <time>2021-05-29T09:28:20Z</time>
      </trkpt>
      <trkpt lat="45.04525" lon="5.7682">
        <ele>712.6</ele>
        <time>2021-05-29T09:28:21Z</time>
      </trkpt>
      <trkpt lat="45.04527" lon="5.76818">
        <ele>711.8</ele>
        <time>2021-05-29T09:28:22Z</time>
      </trkpt>
      <trkpt lat="45.04529" lon="5.76816">
        <ele>711.4</ele>
        <time>2021-05-29T09:28:23Z</time>
      </trkpt>
      <trkpt lat="45.04531" lon="5.76814">
        <ele>710.8</ele>
        <time>2021-05-29T09:28:24Z</time>
      </trkpt>
      <trkpt lat="45.04533" lon="5.76812">
        <ele>710.4</ele>
        <time>2021-05-29T09:28:25Z</time>
      </trkpt>
      <trkpt lat="45.04536" lon="5.7681">
        <ele>709.6</ele>
        <time>2021-05-29T09:28:26Z</time>
      </trkpt>
      <trkpt lat="45.04538" lon="5.76808">
        <ele>708.8</ele>
        <time>2021-05-29T09:28:27Z</time>
      </trkpt>
      <trkpt lat="45.0454" lon="5.76806">
        <ele>708.4</ele>
        <time>2021-05-29T09:28:28Z</time>
      </trkpt>
      <trkpt lat="45.04542" lon="5.76804">
        <ele>707.6</ele>
        <time>2021-05-29T09:28:29Z</time>
      </trkpt>
      <trkpt lat="45.04544" lon="5.76802">
        <ele>706.8</ele>
        <time>2021-05-29T09:28:30Z</time>
      </trkpt>
      <trkpt lat="45.04547" lon="5.768">
        <ele>706.2</ele>
        <time>2021-05-29T09:28:31Z</time>
      </trkpt>
      <trkpt lat="45.04549" lon="5.76798">
        <ele>705.6</ele>
        <time>2021-05-29T09:28:32Z</time>
      </trkpt>
      <trkpt lat="45.04551" lon="5.76796">
        <ele>705</ele>
        <time>2021-05-29T09:28:33Z</time>
      </trkpt>
      <trkpt lat="45.04553" lon="5.76794">
        <ele>704.4</ele>
        <time>2021-05-29T09:28:34Z</time>
      </trkpt>
      <trkpt lat="45.04555" lon="5.76792">
        <ele>703.4</ele>
        <time>2021-05-29T09:28:35Z</time>
      </trkpt>
      <trkpt lat="45.04558" lon="5.76791">
        <ele>702.4</ele>
        <time>2021-05-29T09:28:36Z</time>
      </trkpt>
      <trkpt lat="45.0456" lon="5.76789">
        <ele>702</ele>
        <time>2021-05-29T09:28:37Z</time>
      </trkpt>
      <trkpt lat="45.04562" lon="5.76787">
        <ele>701.4</ele>
        <time>2021-05-29T09:28:38Z</time>
      </trkpt>
      <trkpt lat="45.04564" lon="5.76785">
        <ele>701</ele>
        <time>2021-05-29T09:28:39Z</time>
      </trkpt>
      <trkpt lat="45.04566" lon="5.76783">
        <ele>700.2</ele>
        <time>2021-05-29T09:28:40Z</time>
      </trkpt>
      <trkpt lat="45.04569" lon="5.76781">
        <ele>699.2</ele>
        <time>2021-05-29T09:28:41Z</time>
      </trkpt>
      <trkpt lat="45.04571" lon="5.76779">
        <ele>699</ele>
        <time>2021-05-29T09:28:42Z</time>
      </trkpt>
      <trkpt lat="45.04573" lon="5.76777">
        <ele>698.4</ele>
        <time>2021-05-29T09:28:43Z</time>
      </trkpt>
      <trkpt lat="45.04575" lon="5.76775">
        <ele>698</ele>
        <time>2021-05-29T09:28:44Z</time>
      </trkpt>
      <trkpt lat="45.04577" lon="5.76773">
        <ele>697.2</ele>
        <time>2021-05-29T09:28:45Z</time>
      </trkpt>
      <trkpt lat="45.0458" lon="5.76771">
        <ele>696.6</ele>
        <time>2021-05-29T09:28:46Z</time>
      </trkpt>
      <trkpt lat="45.04582" lon="5.76769">
        <ele>695.8</ele>
        <time>2021-05-29T09:28:47Z</time>
      </trkpt>
      <trkpt lat="45.04584" lon="5.76767">
        <ele>694.8</ele>
        <time>2021-05-29T09:28:48Z</time>
      </trkpt>
      <trkpt lat="45.04586" lon="5.76765">
        <ele>694.2</ele>
        <time>2021-05-29T09:28:49Z</time>
      </trkpt>
      <trkpt lat="45.04663" lon="5.76696">
        <ele>693.4</ele>
        <time>2021-05-29T09:28:50Z</time>
      </trkpt>
      <trkpt lat="45.04666" lon="5.76702">
        <ele>692.8</ele>
        <time>2021-05-29T09:28:51Z</time>
      </trkpt>
      <trkpt lat="45.04668" lon="5.76709">
        <ele>692.4</ele>
        <time>2021-05-29T09:28:52Z</time>
      </trkpt>
      <trkpt lat="45.04668" lon="5.76709">
        <ele>691.6</ele>
        <time>2021-05-29T09:28:53Z</time>
      </trkpt>
      <trkpt lat="45.04668" lon="5.76709">
        <ele>690.6</ele>
        <time>2021-05-29T09:28:54Z</time>
      </trkpt>
      <trkpt lat="45.04669" lon="5.76711">
        <ele>690.6</ele>
        <time>2021-05-29T09:28:55Z</time>
      </trkpt>
      <trkpt lat="45.0467" lon="5.76713">
        <ele>690.2</ele>
        <time>2021-05-29T09:28:56Z</time>
      </trkpt>
      <trkpt lat="45.04672" lon="5.76716">
        <ele>689.8</ele>
        <time>2021-05-29T09:28:57Z</time>
      </trkpt>
      <trkpt lat="45.04673" lon="5.76718">
        <ele>689</ele>
        <time>2021-05-29T09:28:58Z</time>
      </trkpt>
      <trkpt lat="45.04674" lon="5.76721">
        <ele>688.8</ele>
        <time>2021-05-29T09:28:59Z</time>
      </trkpt>
      <trkpt lat="45.04676" lon="5.76719">
        <ele>688.8</ele>
        <time>2021-05-29T09:29:00Z</time>
      </trkpt>
      <trkpt lat="45.04677" lon="5.76718">
        <ele>688.4</ele>
        <time>2021-05-29T09:29:01Z</time>
      </trkpt>
      <trkpt lat="45.04679" lon="5.76717">
        <ele>688.2</ele>
        <time>2021-05-29T09:29:02Z</time>
      </trkpt>
      <trkpt lat="45.04681" lon="5.76715">
        <ele>688</ele>
        <time>2021-05-29T09:29:03Z</time>
      </trkpt>
      <trkpt lat="45.04683" lon="5.76714">
        <ele>687.4</ele>
        <time>2021-05-29T09:29:04Z</time>
      </trkpt>
      <trkpt lat="45.04684" lon="5.76713">
        <ele>686.8</ele>
        <time>2021-05-29T09:29:05Z</time>
      </trkpt>
      <trkpt lat="45.04684" lon="5.76713">
        <ele>686</ele>
        <time>2021-05-29T09:29:06Z</time>
      </trkpt>
      <trkpt lat="45.04685" lon="5.76712">
        <ele>685.2</ele>
        <time>2021-05-29T09:29:07Z</time>
      </trkpt>
      <trkpt lat="45.04686" lon="5.76711">
        <ele>684.8</ele>
        <time>2021-05-29T09:29:08Z</time>
      </trkpt>
      <trkpt lat="45.04687" lon="5.76711">
        <ele>684.4</ele>
        <time>2021-05-29T09:29:09Z</time>
      </trkpt>
      <trkpt lat="45.04688" lon="5.7671">
        <ele>684</ele>
        <time>2021-05-29T09:29:10Z</time>
      </trkpt>
      <trkpt lat="45.04689" lon="5.76709">
        <ele>683.4</ele>
        <time>2021-05-29T09:29:11Z</time>
      </trkpt>
      <trkpt lat="45.0469" lon="5.76709">
        <ele>683</ele>
        <time>2021-05-29T09:29:12Z</time>
      </trkpt>
      <trkpt lat="45.04691" lon="5.76708">
        <ele>682.8</ele>
        <time>2021-05-29T09:29:13Z</time>
      </trkpt>
      <trkpt lat="45.04692" lon="5.76707">
        <ele>682.2</ele>
        <time>2021-05-29T09:29:14Z</time>
      </trkpt>
      <trkpt lat="45.04692" lon="5.76709">
        <ele>682</ele>
        <time>2021-05-29T09:29:15Z</time>
      </trkpt>
      <trkpt lat="45.04693" lon="5.7671">
        <ele>681.4</ele>
        <time>2021-05-29T09:29:16Z</time>
      </trkpt>
      <trkpt lat="45.04694" lon="5.76712">
        <ele>681</ele>
        <time>2021-05-29T09:29:17Z</time>
      </trkpt>
      <trkpt lat="45.04695" lon="5.76713">
        <ele>680.2</ele>
        <time>2021-05-29T09:29:18Z</time>
      </trkpt>
      <trkpt lat="45.04696" lon="5.76715">
        <ele>679.6</ele>
        <time>2021-05-29T09:29:19Z</time>
      </trkpt>
      <trkpt lat="45.04697" lon="5.76716">
        <ele>679</ele>
        <time>2021-05-29T09:29:20Z</time>
      </trkpt>
      <trkpt lat="45.04698" lon="5.76718">
        <ele>678.2</ele>
        <time>2021-05-29T09:29:21Z</time>
      </trkpt>
      <trkpt lat="45.04699" lon="5.76719">
        <ele>678.4</ele>
        <time>2021-05-29T09:29:22Z</time>
      </trkpt>
      <trkpt lat="45.04701" lon="5.76721">
        <ele>677.8</ele>
        <time>2021-05-29T09:29:23Z</time>
      </trkpt>
      <trkpt lat="45.04702" lon="5.76722">
        <ele>677.6</ele>
        <time>2021-05-29T09:29:24Z</time>
      </trkpt>
      <trkpt lat="45.04704" lon="5.76723">
        <ele>677</ele>
        <time>2021-05-29T09:29:25Z</time>
      </trkpt>
      <trkpt lat="45.04706" lon="5.76724">
        <ele>676.8</ele>
        <time>2021-05-29T09:29:26Z</time>
      </trkpt>
      <trkpt lat="45.04708" lon="5.76726">
        <ele>676.2</ele>
        <time>2021-05-29T09:29:27Z</time>
      </trkpt>
      <trkpt lat="45.04709" lon="5.76727">
        <ele>676</ele>
        <time>2021-05-29T09:29:28Z</time>
      </trkpt>
      <trkpt lat="45.04711" lon="5.76729">
        <ele>675.4</ele>
        <time>2021-05-29T09:29:29Z</time>
      </trkpt>
      <trkpt lat="45.04712" lon="5.76731">
        <ele>674.8</ele>
        <time>2021-05-29T09:29:30Z</time>
      </trkpt>
      <trkpt lat="45.04713" lon="5.76733">
        <ele>674.2</ele>
        <time>2021-05-29T09:29:31Z</time>
      </trkpt>
      <trkpt lat="45.04714" lon="5.76735">
        <ele>673.6</ele>
        <time>2021-05-29T09:29:32Z</time>
      </trkpt>
      <trkpt lat="45.04715" lon="5.76738">
        <ele>672.6</ele>
        <time>2021-05-29T09:29:33Z</time>
      </trkpt>
      <trkpt lat="45.04715" lon="5.76739">
        <ele>672</ele>
        <time>2021-05-29T09:29:34Z</time>
      </trkpt>
      <trkpt lat="45.04715" lon="5.76741">
        <ele>671.8</ele>
        <time>2021-05-29T09:29:35Z</time>
      </trkpt>
      <trkpt lat="45.04715" lon="5.76742">
        <ele>671</ele>
        <time>2021-05-29T09:29:36Z</time>
      </trkpt>
      <trkpt lat="45.04716" lon="5.76744">
        <ele>670.6</ele>
        <time>2021-05-29T09:29:37Z</time>
      </trkpt>
      <trkpt lat="45.04716" lon="5.76745">
        <ele>670.6</ele>
        <time>2021-05-29T09:29:38Z</time>
      </trkpt>
      <trkpt lat="45.04716" lon="5.76747">
        <ele>670.2</ele>
        <time>2021-05-29T09:29:39Z</time>
      </trkpt>
      <trkpt lat="45.04716" lon="5.76748">
        <ele>669.6</ele>
        <time>2021-05-29T09:29:40Z</time>
      </trkpt>
      <trkpt lat="45.04716" lon="5.76749">
        <ele>669</ele>
        <time>2021-05-29T09:29:41Z</time>
      </trkpt>
      <trkpt lat="45.04716" lon="5.76751">
        <ele>668.6</ele>
        <time>2021-05-29T09:29:42Z</time>
      </trkpt>
      <trkpt lat="45.04717" lon="5.76752">
        <ele>668.2</ele>
        <time>2021-05-29T09:29:43Z</time>
      </trkpt>
      <trkpt lat="45.04717" lon="5.76754">
        <ele>667.8</ele>
        <time>2021-05-29T09:29:44Z</time>
      </trkpt>
      <trkpt lat="45.04717" lon="5.76755">
        <ele>667.6</ele>
        <time>2021-05-29T09:29:45Z</time>
      </trkpt>
      <trkpt lat="45.04717" lon="5.76757">
        <ele>666.8</ele>
        <time>2021-05-29T09:29:46Z</time>
      </trkpt>
      <trkpt lat="45.04717" lon="5.76758">
        <ele>666.4</ele>
        <time>2021-05-29T09:29:47Z</time>
      </trkpt>
      <trkpt lat="45.04717" lon="5.76759">
        <ele>666.4</ele>
        <time>2021-05-29T09:29:48Z</time>
      </trkpt>
      <trkpt lat="45.04718" lon="5.76761">
        <ele>666</ele>
        <time>2021-05-29T09:29:49Z</time>
      </trkpt>
      <trkpt lat="45.04718" lon="5.76762">
        <ele>665.8</ele>
        <time>2021-05-29T09:29:50Z</time>
      </trkpt>
      <trkpt lat="45.04718" lon="5.76762">
        <ele>665.2</ele>
        <time>2021-05-29T09:29:51Z</time>
      </trkpt>
      <trkpt lat="45.04716" lon="5.76762">
        <ele>664.4</ele>
        <time>2021-05-29T09:29:52Z</time>
      </trkpt>
      <trkpt lat="45.04714" lon="5.76762">
        <ele>663.8</ele>
        <time>2021-05-29T09:29:53Z</time>
      </trkpt>
      <trkpt lat="45.04712" lon="5.76762">
        <ele>663.4</ele>
        <time>2021-05-29T09:29:54Z</time>
      </trkpt>
      <trkpt lat="45.0471" lon="5.76762">
        <ele>663.2</ele>
        <time>2021-05-29T09:29:55Z</time>
      </trkpt>
      <trkpt lat="45.04708" lon="5.76762">
        <ele>662.4</ele>
        <time>2021-05-29T09:29:56Z</time>
      </trkpt>
      <trkpt lat="45.04706" lon="5.76762">
        <ele>661.8</ele>
        <time>2021-05-29T09:29:57Z</time>
      </trkpt>
      <trkpt lat="45.04705" lon="5.76762">
        <ele>661.8</ele>
        <time>2021-05-29T09:29:58Z</time>
      </trkpt>
      <trkpt lat="45.04705" lon="5.76765">
        <ele>660.8</ele>
        <time>2021-05-29T09:30:00Z</time>
      </trkpt>
      <trkpt lat="45.04706" lon="5.76768">
        <ele>660</ele>
        <time>2021-05-29T09:30:01Z</time>
      </trkpt>
      <trkpt lat="45.04707" lon="5.76771">
        <ele>659.6</ele>
        <time>2021-05-29T09:30:02Z</time>
      </trkpt>
      <trkpt lat="45.04708" lon="5.76774">
        <ele>659.6</ele>
        <time>2021-05-29T09:30:03Z</time>
      </trkpt>
      <trkpt lat="45.04708" lon="5.76777">
        <ele>659</ele>
        <time>2021-05-29T09:30:04Z</time>
      </trkpt>
      <trkpt lat="45.04709" lon="5.76779">
        <ele>658.4</ele>
        <time>2021-05-29T09:30:05Z</time>
      </trkpt>
      <trkpt lat="45.04709" lon="5.76781">
        <ele>658.2</ele>
        <time>2021-05-29T09:30:06Z</time>
      </trkpt>
      <trkpt lat="45.04709" lon="5.76784">
        <ele>657.8</ele>
        <time>2021-05-29T09:30:07Z</time>
      </trkpt>
      <trkpt lat="45.04709" lon="5.76786">
        <ele>657.8</ele>
        <time>2021-05-29T09:30:08Z</time>
      </trkpt>
      <trkpt lat="45.04709" lon="5.76788">
        <ele>657.2</ele>
        <time>2021-05-29T09:30:09Z</time>
      </trkpt>
      <trkpt lat="45.0471" lon="5.7679">
        <ele>656.8</ele>
        <time>2021-05-29T09:30:10Z</time>
      </trkpt>
      <trkpt lat="45.0471" lon="5.76793">
        <ele>656.2</ele>
        <time>2021-05-29T09:30:11Z</time>
      </trkpt>
      <trkpt lat="45.04711" lon="5.76798">
        <ele>655.8</ele>
        <time>2021-05-29T09:30:12Z</time>
      </trkpt>
      <trkpt lat="45.04712" lon="5.76804">
        <ele>655.8</ele>
        <time>2021-05-29T09:30:13Z</time>
      </trkpt>
      <trkpt lat="45.04713" lon="5.76809">
        <ele>655.4</ele>
        <time>2021-05-29T09:30:14Z</time>
      </trkpt>
      <trkpt lat="45.04714" lon="5.76815">
        <ele>654.6</ele>
        <time>2021-05-29T09:30:15Z</time>
      </trkpt>
      <trkpt lat="45.04717" lon="5.7682">
        <ele>654.8</ele>
        <time>2021-05-29T09:30:16Z</time>
      </trkpt>
      <trkpt lat="45.04717" lon="5.76822">
        <ele>654.4</ele>
        <time>2021-05-29T09:30:17Z</time>
      </trkpt>
      <trkpt lat="45.04717" lon="5.76824">
        <ele>654</ele>
        <time>2021-05-29T09:30:18Z</time>
      </trkpt>
      <trkpt lat="45.04718" lon="5.76825">
        <ele>653.4</ele>
        <time>2021-05-29T09:30:19Z</time>
      </trkpt>
      <trkpt lat="45.04718" lon="5.76831">
        <ele>652.6</ele>
        <time>2021-05-29T09:30:20Z</time>
      </trkpt>
      <trkpt lat="45.04719" lon="5.76836">
        <ele>652.4</ele>
        <time>2021-05-29T09:30:21Z</time>
      </trkpt>
      <trkpt lat="45.0472" lon="5.76841">
        <ele>652</ele>
        <time>2021-05-29T09:30:22Z</time>
      </trkpt>
      <trkpt lat="45.0472" lon="5.76846">
        <ele>651.4</ele>
        <time>2021-05-29T09:30:23Z</time>
      </trkpt>
      <trkpt lat="45.04721" lon="5.76849">
        <ele>650.4</ele>
        <time>2021-05-29T09:30:24Z</time>
      </trkpt>
      <trkpt lat="45.04722" lon="5.76852">
        <ele>650.2</ele>
        <time>2021-05-29T09:30:25Z</time>
      </trkpt>
      <trkpt lat="45.04723" lon="5.76855">
        <ele>650.2</ele>
        <time>2021-05-29T09:30:26Z</time>
      </trkpt>
      <trkpt lat="45.04724" lon="5.76858">
        <ele>649.6</ele>
        <time>2021-05-29T09:30:27Z</time>
      </trkpt>
      <trkpt lat="45.04726" lon="5.76861">
        <ele>649.2</ele>
        <time>2021-05-29T09:30:28Z</time>
      </trkpt>
      <trkpt lat="45.04727" lon="5.76864">
        <ele>648.8</ele>
        <time>2021-05-29T09:30:29Z</time>
      </trkpt>
      <trkpt lat="45.04728" lon="5.76867">
        <ele>648.4</ele>
        <time>2021-05-29T09:30:30Z</time>
      </trkpt>
      <trkpt lat="45.04729" lon="5.7687">
        <ele>648.2</ele>
        <time>2021-05-29T09:30:31Z</time>
      </trkpt>
      <trkpt lat="45.04731" lon="5.76873">
        <ele>647.8</ele>
        <time>2021-05-29T09:30:32Z</time>
      </trkpt>
      <trkpt lat="45.04731" lon="5.76875">
        <ele>647.2</ele>
        <time>2021-05-29T09:30:33Z</time>
      </trkpt>
      <trkpt lat="45.04731" lon="5.76877">
        <ele>647.4</ele>
        <time>2021-05-29T09:30:34Z</time>
      </trkpt>
      <trkpt lat="45.04731" lon="5.7688">
        <ele>647.2</ele>
        <time>2021-05-29T09:30:35Z</time>
      </trkpt>
      <trkpt lat="45.04731" lon="5.76882">
        <ele>647</ele>
        <time>2021-05-29T09:30:36Z</time>
      </trkpt>
      <trkpt lat="45.04731" lon="5.76884">
        <ele>646.2</ele>
        <time>2021-05-29T09:30:37Z</time>
      </trkpt>
      <trkpt lat="45.04732" lon="5.76886">
        <ele>645.6</ele>
        <time>2021-05-29T09:30:38Z</time>
      </trkpt>
      <trkpt lat="45.04732" lon="5.76888">
        <ele>645.6</ele>
        <time>2021-05-29T09:30:39Z</time>
      </trkpt>
      <trkpt lat="45.04732" lon="5.7689">
        <ele>645</ele>
        <time>2021-05-29T09:30:40Z</time>
      </trkpt>
      <trkpt lat="45.04732" lon="5.76893">
        <ele>644.4</ele>
        <time>2021-05-29T09:30:41Z</time>
      </trkpt>
      <trkpt lat="45.04732" lon="5.76895">
        <ele>643.6</ele>
        <time>2021-05-29T09:30:42Z</time>
      </trkpt>
      <trkpt lat="45.04733" lon="5.76897">
        <ele>643</ele>
        <time>2021-05-29T09:30:43Z</time>
      </trkpt>
      <trkpt lat="45.04733" lon="5.76899">
        <ele>643.2</ele>
        <time>2021-05-29T09:30:44Z</time>
      </trkpt>
      <trkpt lat="45.04733" lon="5.76901">
        <ele>642.8</ele>
        <time>2021-05-29T09:30:45Z</time>
      </trkpt>
      <trkpt lat="45.04733" lon="5.76903">
        <ele>642</ele>
        <time>2021-05-29T09:30:46Z</time>
      </trkpt>
      <trkpt lat="45.04733" lon="5.76905">
        <ele>641.8</ele>
        <time>2021-05-29T09:30:47Z</time>
      </trkpt>
      <trkpt lat="45.04733" lon="5.76908">
        <ele>641.4</ele>
        <time>2021-05-29T09:30:48Z</time>
      </trkpt>
      <trkpt lat="45.04734" lon="5.7691">
        <ele>641</ele>
        <time>2021-05-29T09:30:49Z</time>
      </trkpt>
      <trkpt lat="45.04734" lon="5.76912">
        <ele>640.4</ele>
        <time>2021-05-29T09:30:50Z</time>
      </trkpt>
      <trkpt lat="45.04737" lon="5.76951">
        <ele>639.6</ele>
        <time>2021-05-29T09:30:51Z</time>
      </trkpt>
      <trkpt lat="45.04741" lon="5.76955">
        <ele>639.8</ele>
        <time>2021-05-29T09:30:52Z</time>
      </trkpt>
      <trkpt lat="45.04745" lon="5.76958">
        <ele>639.6</ele>
        <time>2021-05-29T09:30:53Z</time>
      </trkpt>
      <trkpt lat="45.04745" lon="5.76958">
        <ele>639.2</ele>
        <time>2021-05-29T09:30:54Z</time>
      </trkpt>
      <trkpt lat="45.04745" lon="5.76958">
        <ele>638.8</ele>
        <time>2021-05-29T09:30:55Z</time>
      </trkpt>
      <trkpt lat="45.04746" lon="5.7696">
        <ele>638.2</ele>
        <time>2021-05-29T09:30:56Z</time>
      </trkpt>
      <trkpt lat="45.04747" lon="5.76962">
        <ele>638.2</ele>
        <time>2021-05-29T09:30:57Z</time>
      </trkpt>
      <trkpt lat="45.04748" lon="5.76964">
        <ele>637.8</ele>
        <time>2021-05-29T09:30:58Z</time>
      </trkpt>
      <trkpt lat="45.04749" lon="5.76966">
        <ele>637.2</ele>
        <time>2021-05-29T09:30:59Z</time>
      </trkpt>
      <trkpt lat="45.0475" lon="5.76968">
        <ele>637.2</ele>
        <time>2021-05-29T09:31:00Z</time>
      </trkpt>
      <trkpt lat="45.04751" lon="5.7697">
        <ele>636.8</ele>
        <time>2021-05-29T09:31:01Z</time>
      </trkpt>
      <trkpt lat="45.04752" lon="5.76973">
        <ele>636.8</ele>
        <time>2021-05-29T09:31:02Z</time>
      </trkpt>
      <trkpt lat="45.04753" lon="5.76976">
        <ele>636.6</ele>
        <time>2021-05-29T09:31:03Z</time>
      </trkpt>
      <trkpt lat="45.04755" lon="5.76979">
        <ele>636.4</ele>
        <time>2021-05-29T09:31:04Z</time>
      </trkpt>
      <trkpt lat="45.04756" lon="5.76982">
        <ele>635.8</ele>
        <time>2021-05-29T09:31:05Z</time>
      </trkpt>
      <trkpt lat="45.04757" lon="5.76984">
        <ele>635.6</ele>
        <time>2021-05-29T09:31:06Z</time>
      </trkpt>
      <trkpt lat="45.04758" lon="5.76986">
        <ele>635</ele>
        <time>2021-05-29T09:31:07Z</time>
      </trkpt>
      <trkpt lat="45.0476" lon="5.76988">
        <ele>634.2</ele>
        <time>2021-05-29T09:31:08Z</time>
      </trkpt>
      <trkpt lat="45.04761" lon="5.76991">
        <ele>634.2</ele>
        <time>2021-05-29T09:31:09Z</time>
      </trkpt>
      <trkpt lat="45.04762" lon="5.76993">
        <ele>634</ele>
        <time>2021-05-29T09:31:10Z</time>
      </trkpt>
      <trkpt lat="45.04764" lon="5.76995">
        <ele>633.4</ele>
        <time>2021-05-29T09:31:11Z</time>
      </trkpt>
      <trkpt lat="45.04765" lon="5.76997">
        <ele>632.6</ele>
        <time>2021-05-29T09:31:12Z</time>
      </trkpt>
      <trkpt lat="45.04767" lon="5.76998">
        <ele>632.2</ele>
        <time>2021-05-29T09:31:13Z</time>
      </trkpt>
      <trkpt lat="45.04768" lon="5.77">
        <ele>631.8</ele>
        <time>2021-05-29T09:31:14Z</time>
      </trkpt>
      <trkpt lat="45.0477" lon="5.77002">
        <ele>631.4</ele>
        <time>2021-05-29T09:31:15Z</time>
      </trkpt>
      <trkpt lat="45.04771" lon="5.77005">
        <ele>631</ele>
        <time>2021-05-29T09:31:16Z</time>
      </trkpt>
      <trkpt lat="45.04771" lon="5.77007">
        <ele>631</ele>
        <time>2021-05-29T09:31:17Z</time>
      </trkpt>
      <trkpt lat="45.04772" lon="5.7701">
        <ele>630.8</ele>
        <time>2021-05-29T09:31:18Z</time>
      </trkpt>
      <trkpt lat="45.04772" lon="5.77013">
        <ele>630.2</ele>
        <time>2021-05-29T09:31:19Z</time>
      </trkpt>
      <trkpt lat="45.04773" lon="5.77015">
        <ele>629.8</ele>
        <time>2021-05-29T09:31:20Z</time>
      </trkpt>
      <trkpt lat="45.04772" lon="5.77018">
        <ele>629.6</ele>
        <time>2021-05-29T09:31:21Z</time>
      </trkpt>
      <trkpt lat="45.04771" lon="5.77021">
        <ele>629.2</ele>
        <time>2021-05-29T09:31:22Z</time>
      </trkpt>
      <trkpt lat="45.04771" lon="5.77023">
        <ele>629</ele>
        <time>2021-05-29T09:31:23Z</time>
      </trkpt>
      <trkpt lat="45.0477" lon="5.77026">
        <ele>628.6</ele>
        <time>2021-05-29T09:31:24Z</time>
      </trkpt>
      <trkpt lat="45.04769" lon="5.77029">
        <ele>628</ele>
        <time>2021-05-29T09:31:25Z</time>
      </trkpt>
      <trkpt lat="45.04769" lon="5.77032">
        <ele>627.6</ele>
        <time>2021-05-29T09:31:26Z</time>
      </trkpt>
      <trkpt lat="45.04768" lon="5.77035">
        <ele>627.6</ele>
        <time>2021-05-29T09:31:27Z</time>
      </trkpt>
      <trkpt lat="45.04768" lon="5.77038">
        <ele>627.4</ele>
        <time>2021-05-29T09:31:28Z</time>
      </trkpt>
      <trkpt lat="45.04767" lon="5.77041">
        <ele>627.2</ele>
        <time>2021-05-29T09:31:29Z</time>
      </trkpt>
      <trkpt lat="45.04766" lon="5.77045">
        <ele>626.6</ele>
        <time>2021-05-29T09:31:30Z</time>
      </trkpt>
      <trkpt lat="45.04766" lon="5.77049">
        <ele>626</ele>
        <time>2021-05-29T09:31:31Z</time>
      </trkpt>
      <trkpt lat="45.04765" lon="5.77053">
        <ele>625.4</ele>
        <time>2021-05-29T09:31:32Z</time>
      </trkpt>
      <trkpt lat="45.04765" lon="5.77057">
        <ele>625</ele>
        <time>2021-05-29T09:31:33Z</time>
      </trkpt>
      <trkpt lat="45.04766" lon="5.77058">
        <ele>624.4</ele>
        <time>2021-05-29T09:31:34Z</time>
      </trkpt>
      <trkpt lat="45.04767" lon="5.77059">
        <ele>623.8</ele>
        <time>2021-05-29T09:31:35Z</time>
      </trkpt>
      <trkpt lat="45.04769" lon="5.7706">
        <ele>623.6</ele>
        <time>2021-05-29T09:31:36Z</time>
      </trkpt>
      <trkpt lat="45.0477" lon="5.77061">
        <ele>623.4</ele>
        <time>2021-05-29T09:31:37Z</time>
      </trkpt>
      <trkpt lat="45.04771" lon="5.77062">
        <ele>622.8</ele>
        <time>2021-05-29T09:31:38Z</time>
      </trkpt>
      <trkpt lat="45.04772" lon="5.77063">
        <ele>622.2</ele>
        <time>2021-05-29T09:31:39Z</time>
      </trkpt>
      <trkpt lat="45.04773" lon="5.77064">
        <ele>622</ele>
        <time>2021-05-29T09:31:40Z</time>
      </trkpt>
      <trkpt lat="45.04775" lon="5.77065">
        <ele>621.4</ele>
        <time>2021-05-29T09:31:41Z</time>
      </trkpt>
      <trkpt lat="45.04777" lon="5.77064">
        <ele>621.6</ele>
        <time>2021-05-29T09:31:42Z</time>
      </trkpt>
      <trkpt lat="45.0478" lon="5.77064">
        <ele>621</ele>
        <time>2021-05-29T09:31:43Z</time>
      </trkpt>
      <trkpt lat="45.04783" lon="5.77063">
        <ele>620.4</ele>
        <time>2021-05-29T09:31:44Z</time>
      </trkpt>
      <trkpt lat="45.04786" lon="5.77062">
        <ele>619.6</ele>
        <time>2021-05-29T09:31:45Z</time>
      </trkpt>
      <trkpt lat="45.04787" lon="5.77061">
        <ele>618.6</ele>
        <time>2021-05-29T09:31:46Z</time>
      </trkpt>
      <trkpt lat="45.04789" lon="5.77061">
        <ele>618.8</ele>
        <time>2021-05-29T09:31:47Z</time>
      </trkpt>
      <trkpt lat="45.04791" lon="5.7706">
        <ele>618.6</ele>
        <time>2021-05-29T09:31:48Z</time>
      </trkpt>
      <trkpt lat="45.04793" lon="5.77059">
        <ele>618.2</ele>
        <time>2021-05-29T09:31:49Z</time>
      </trkpt>
      <trkpt lat="45.04794" lon="5.77058">
        <ele>617.6</ele>
        <time>2021-05-29T09:31:50Z</time>
      </trkpt>
      <trkpt lat="45.04796" lon="5.77058">
        <ele>616.8</ele>
        <time>2021-05-29T09:31:51Z</time>
      </trkpt>
      <trkpt lat="45.04798" lon="5.77057">
        <ele>616.2</ele>
        <time>2021-05-29T09:31:52Z</time>
      </trkpt>
      <trkpt lat="45.048" lon="5.77056">
        <ele>616.2</ele>
        <time>2021-05-29T09:31:53Z</time>
      </trkpt>
      <trkpt lat="45.04802" lon="5.77055">
        <ele>616.2</ele>
        <time>2021-05-29T09:31:54Z</time>
      </trkpt>
      <trkpt lat="45.04804" lon="5.77055">
        <ele>615.8</ele>
        <time>2021-05-29T09:31:55Z</time>
      </trkpt>
      <trkpt lat="45.04806" lon="5.77056">
        <ele>615.4</ele>
        <time>2021-05-29T09:31:56Z</time>
      </trkpt>
      <trkpt lat="45.04808" lon="5.77056">
        <ele>615</ele>
        <time>2021-05-29T09:31:57Z</time>
      </trkpt>
      <trkpt lat="45.04811" lon="5.77057">
        <ele>614.8</ele>
        <time>2021-05-29T09:31:58Z</time>
      </trkpt>
      <trkpt lat="45.04813" lon="5.77058">
        <ele>614.2</ele>
        <time>2021-05-29T09:31:59Z</time>
      </trkpt>
      <trkpt lat="45.04817" lon="5.77057">
        <ele>613.2</ele>
        <time>2021-05-29T09:32:00Z</time>
      </trkpt>
      <trkpt lat="45.04821" lon="5.77057">
        <ele>613.4</ele>
        <time>2021-05-29T09:32:01Z</time>
      </trkpt>
      <trkpt lat="45.04825" lon="5.77056">
        <ele>613</ele>
        <time>2021-05-29T09:32:02Z</time>
      </trkpt>
      <trkpt lat="45.04829" lon="5.77055">
        <ele>613</ele>
        <time>2021-05-29T09:32:03Z</time>
      </trkpt>
      <trkpt lat="45.04832" lon="5.7705">
        <ele>612.6</ele>
        <time>2021-05-29T09:32:04Z</time>
      </trkpt>
      <trkpt lat="45.04834" lon="5.77049">
        <ele>612.2</ele>
        <time>2021-05-29T09:32:05Z</time>
      </trkpt>
      <trkpt lat="45.04835" lon="5.77048">
        <ele>612.4</ele>
        <time>2021-05-29T09:32:06Z</time>
      </trkpt>
      <trkpt lat="45.04837" lon="5.77047">
        <ele>612.4</ele>
        <time>2021-05-29T09:32:07Z</time>
      </trkpt>
      <trkpt lat="45.04838" lon="5.77047">
        <ele>612.6</ele>
        <time>2021-05-29T09:32:08Z</time>
      </trkpt>
      <trkpt lat="45.04839" lon="5.77046">
        <ele>612.4</ele>
        <time>2021-05-29T09:32:09Z</time>
      </trkpt>
      <trkpt lat="45.04841" lon="5.77045">
        <ele>612</ele>
        <time>2021-05-29T09:32:10Z</time>
      </trkpt>
      <trkpt lat="45.04842" lon="5.77044">
        <ele>611.8</ele>
        <time>2021-05-29T09:32:11Z</time>
      </trkpt>
      <trkpt lat="45.04844" lon="5.77043">
        <ele>611.4</ele>
        <time>2021-05-29T09:32:12Z</time>
      </trkpt>
      <trkpt lat="45.04845" lon="5.77042">
        <ele>611.6</ele>
        <time>2021-05-29T09:32:13Z</time>
      </trkpt>
      <trkpt lat="45.04846" lon="5.77042">
        <ele>611.2</ele>
        <time>2021-05-29T09:32:14Z</time>
      </trkpt>
      <trkpt lat="45.04848" lon="5.77041">
        <ele>610.6</ele>
        <time>2021-05-29T09:32:15Z</time>
      </trkpt>
      <trkpt lat="45.04849" lon="5.7704">
        <ele>610.2</ele>
        <time>2021-05-29T09:32:16Z</time>
      </trkpt>
      <trkpt lat="45.04851" lon="5.77039">
        <ele>609.8</ele>
        <time>2021-05-29T09:32:17Z</time>
      </trkpt>
      <trkpt lat="45.04852" lon="5.77038">
        <ele>609.8</ele>
        <time>2021-05-29T09:32:18Z</time>
      </trkpt>
      <trkpt lat="45.04853" lon="5.77037">
        <ele>609.4</ele>
        <time>2021-05-29T09:32:19Z</time>
      </trkpt>
      <trkpt lat="45.04855" lon="5.77037">
        <ele>609</ele>
        <time>2021-05-29T09:32:20Z</time>
      </trkpt>
      <trkpt lat="45.04856" lon="5.77036">
        <ele>608.4</ele>
        <time>2021-05-29T09:32:21Z</time>
      </trkpt>
      <trkpt lat="45.04858" lon="5.77035">
        <ele>607.8</ele>
        <time>2021-05-29T09:32:22Z</time>
      </trkpt>
      <trkpt lat="45.04859" lon="5.77034">
        <ele>607.8</ele>
        <time>2021-05-29T09:32:23Z</time>
      </trkpt>
      <trkpt lat="45.0486" lon="5.77033">
        <ele>607.4</ele>
        <time>2021-05-29T09:32:24Z</time>
      </trkpt>
      <trkpt lat="45.04862" lon="5.77032">
        <ele>607.2</ele>
        <time>2021-05-29T09:32:25Z</time>
      </trkpt>
      <trkpt lat="45.04863" lon="5.77032">
        <ele>606.6</ele>
        <time>2021-05-29T09:32:26Z</time>
      </trkpt>
      <trkpt lat="45.04865" lon="5.77031">
        <ele>606.6</ele>
        <time>2021-05-29T09:32:27Z</time>
      </trkpt>
      <trkpt lat="45.04866" lon="5.7703">
        <ele>606</ele>
        <time>2021-05-29T09:32:28Z</time>
      </trkpt>
      <trkpt lat="45.04867" lon="5.77029">
        <ele>605.8</ele>
        <time>2021-05-29T09:32:29Z</time>
      </trkpt>
      <trkpt lat="45.04869" lon="5.77028">
        <ele>605.4</ele>
        <time>2021-05-29T09:32:30Z</time>
      </trkpt>
      <trkpt lat="45.0487" lon="5.77028">
        <ele>604.4</ele>
        <time>2021-05-29T09:32:31Z</time>
      </trkpt>
      <trkpt lat="45.04872" lon="5.77027">
        <ele>604.2</ele>
        <time>2021-05-29T09:32:32Z</time>
      </trkpt>
      <trkpt lat="45.04873" lon="5.77026">
        <ele>603.4</ele>
        <time>2021-05-29T09:32:33Z</time>
      </trkpt>
      <trkpt lat="45.04874" lon="5.77025">
        <ele>603.2</ele>
        <time>2021-05-29T09:32:34Z</time>
      </trkpt>
      <trkpt lat="45.04876" lon="5.77024">
        <ele>602.6</ele>
        <time>2021-05-29T09:32:35Z</time>
      </trkpt>
      <trkpt lat="45.04877" lon="5.77023">
        <ele>601.6</ele>
        <time>2021-05-29T09:32:36Z</time>
      </trkpt>
      <trkpt lat="45.04879" lon="5.77023">
        <ele>600.6</ele>
        <time>2021-05-29T09:32:37Z</time>
      </trkpt>
      <trkpt lat="45.0488" lon="5.77022">
        <ele>600</ele>
        <time>2021-05-29T09:32:38Z</time>
      </trkpt>
      <trkpt lat="45.04881" lon="5.77021">
        <ele>600</ele>
        <time>2021-05-29T09:32:39Z</time>
      </trkpt>
      <trkpt lat="45.04883" lon="5.7702">
        <ele>599.4</ele>
        <time>2021-05-29T09:32:40Z</time>
      </trkpt>
      <trkpt lat="45.04884" lon="5.77019">
        <ele>599.2</ele>
        <time>2021-05-29T09:32:41Z</time>
      </trkpt>
      <trkpt lat="45.04886" lon="5.77018">
        <ele>598.6</ele>
        <time>2021-05-29T09:32:42Z</time>
      </trkpt>
      <trkpt lat="45.04887" lon="5.77018">
        <ele>597.8</ele>
        <time>2021-05-29T09:32:43Z</time>
      </trkpt>
      <trkpt lat="45.04888" lon="5.77017">
        <ele>597.6</ele>
        <time>2021-05-29T09:32:44Z</time>
      </trkpt>
      <trkpt lat="45.0489" lon="5.77016">
        <ele>597.4</ele>
        <time>2021-05-29T09:32:45Z</time>
      </trkpt>
      <trkpt lat="45.04891" lon="5.77015">
        <ele>597</ele>
        <time>2021-05-29T09:32:46Z</time>
      </trkpt>
      <trkpt lat="45.04893" lon="5.77014">
        <ele>596.6</ele>
        <time>2021-05-29T09:32:47Z</time>
      </trkpt>
      <trkpt lat="45.04894" lon="5.77013">
        <ele>596</ele>
        <time>2021-05-29T09:32:48Z</time>
      </trkpt>
      <trkpt lat="45.04896" lon="5.77013">
        <ele>595.4</ele>
        <time>2021-05-29T09:32:49Z</time>
      </trkpt>
      <trkpt lat="45.04897" lon="5.77012">
        <ele>594.2</ele>
        <time>2021-05-29T09:32:50Z</time>
      </trkpt>
      <trkpt lat="45.04898" lon="5.77011">
        <ele>594</ele>
        <time>2021-05-29T09:32:51Z</time>
      </trkpt>
      <trkpt lat="45.049" lon="5.7701">
        <ele>593.6</ele>
        <time>2021-05-29T09:32:52Z</time>
      </trkpt>
      <trkpt lat="45.04901" lon="5.77009">
        <ele>593.6</ele>
        <time>2021-05-29T09:32:53Z</time>
      </trkpt>
      <trkpt lat="45.04903" lon="5.77008">
        <ele>593.2</ele>
        <time>2021-05-29T09:32:54Z</time>
      </trkpt>
      <trkpt lat="45.04904" lon="5.77008">
        <ele>592.4</ele>
        <time>2021-05-29T09:32:55Z</time>
      </trkpt>
      <trkpt lat="45.04905" lon="5.77007">
        <ele>591.8</ele>
        <time>2021-05-29T09:32:56Z</time>
      </trkpt>
      <trkpt lat="45.04907" lon="5.77006">
        <ele>591.8</ele>
        <time>2021-05-29T09:32:57Z</time>
      </trkpt>
      <trkpt lat="45.04908" lon="5.77005">
        <ele>591.2</ele>
        <time>2021-05-29T09:32:58Z</time>
      </trkpt>
      <trkpt lat="45.0491" lon="5.77004">
        <ele>590.8</ele>
        <time>2021-05-29T09:32:59Z</time>
      </trkpt>
      <trkpt lat="45.04911" lon="5.77004">
        <ele>590.2</ele>
        <time>2021-05-29T09:33:00Z</time>
      </trkpt>
      <trkpt lat="45.04912" lon="5.77003">
        <ele>589.6</ele>
        <time>2021-05-29T09:33:01Z</time>
      </trkpt>
      <trkpt lat="45.04914" lon="5.77002">
        <ele>589.2</ele>
        <time>2021-05-29T09:33:02Z</time>
      </trkpt>
      <trkpt lat="45.04915" lon="5.77001">
        <ele>588.6</ele>
        <time>2021-05-29T09:33:03Z</time>
      </trkpt>
      <trkpt lat="45.04917" lon="5.77">
        <ele>587.8</ele>
        <time>2021-05-29T09:33:04Z</time>
      </trkpt>
      <trkpt lat="45.04918" lon="5.76999">
        <ele>587</ele>
        <time>2021-05-29T09:33:05Z</time>
      </trkpt>
      <trkpt lat="45.04919" lon="5.76999">
        <ele>587</ele>
        <time>2021-05-29T09:33:06Z</time>
      </trkpt>
      <trkpt lat="45.04921" lon="5.76998">
        <ele>586.2</ele>
        <time>2021-05-29T09:33:07Z</time>
      </trkpt>
      <trkpt lat="45.04922" lon="5.76997">
        <ele>586</ele>
        <time>2021-05-29T09:33:08Z</time>
      </trkpt>
      <trkpt lat="45.04924" lon="5.76996">
        <ele>585.4</ele>
        <time>2021-05-29T09:33:09Z</time>
      </trkpt>
      <trkpt lat="45.04925" lon="5.76995">
        <ele>585</ele>
        <time>2021-05-29T09:33:10Z</time>
      </trkpt>
      <trkpt lat="45.04926" lon="5.76994">
        <ele>584.2</ele>
        <time>2021-05-29T09:33:11Z</time>
      </trkpt>
      <trkpt lat="45.04928" lon="5.76994">
        <ele>583.8</ele>
        <time>2021-05-29T09:33:12Z</time>
      </trkpt>
      <trkpt lat="45.04929" lon="5.76993">
        <ele>583.8</ele>
        <time>2021-05-29T09:33:13Z</time>
      </trkpt>
      <trkpt lat="45.04931" lon="5.76992">
        <ele>583.2</ele>
        <time>2021-05-29T09:33:14Z</time>
      </trkpt>
      <trkpt lat="45.04932" lon="5.76991">
        <ele>582.8</ele>
        <time>2021-05-29T09:33:15Z</time>
      </trkpt>
      <trkpt lat="45.04933" lon="5.7699">
        <ele>582.4</ele>
        <time>2021-05-29T09:33:16Z</time>
      </trkpt>
      <trkpt lat="45.04935" lon="5.76989">
        <ele>582</ele>
        <time>2021-05-29T09:33:17Z</time>
      </trkpt>
      <trkpt lat="45.04936" lon="5.76989">
        <ele>582</ele>
        <time>2021-05-29T09:33:18Z</time>
      </trkpt>
      <trkpt lat="45.04938" lon="5.76988">
        <ele>581.2</ele>
        <time>2021-05-29T09:33:19Z</time>
      </trkpt>
      <trkpt lat="45.04939" lon="5.76987">
        <ele>580.6</ele>
        <time>2021-05-29T09:33:20Z</time>
      </trkpt>
      <trkpt lat="45.0494" lon="5.76986">
        <ele>580.6</ele>
        <time>2021-05-29T09:33:21Z</time>
      </trkpt>
      <trkpt lat="45.04942" lon="5.76985">
        <ele>580.2</ele>
        <time>2021-05-29T09:33:22Z</time>
      </trkpt>
      <trkpt lat="45.04943" lon="5.76984">
        <ele>580</ele>
        <time>2021-05-29T09:33:23Z</time>
      </trkpt>
      <trkpt lat="45.04945" lon="5.76984">
        <ele>579.6</ele>
        <time>2021-05-29T09:33:24Z</time>
      </trkpt>
      <trkpt lat="45.04946" lon="5.76983">
        <ele>579.2</ele>
        <time>2021-05-29T09:33:25Z</time>
      </trkpt>
      <trkpt lat="45.04947" lon="5.76982">
        <ele>578.6</ele>
        <time>2021-05-29T09:33:26Z</time>
      </trkpt>
      <trkpt lat="45.04949" lon="5.76981">
        <ele>578.2</ele>
        <time>2021-05-29T09:33:27Z</time>
      </trkpt>
      <trkpt lat="45.0495" lon="5.7698">
        <ele>578.2</ele>
        <time>2021-05-29T09:33:28Z</time>
      </trkpt>
      <trkpt lat="45.04952" lon="5.7698">
        <ele>577.6</ele>
        <time>2021-05-29T09:33:29Z</time>
      </trkpt>
      <trkpt lat="45.04953" lon="5.76979">
        <ele>577.6</ele>
        <time>2021-05-29T09:33:30Z</time>
      </trkpt>
      <trkpt lat="45.04954" lon="5.76978">
        <ele>577</ele>
        <time>2021-05-29T09:33:31Z</time>
      </trkpt>
      <trkpt lat="45.04956" lon="5.76977">
        <ele>576.4</ele>
        <time>2021-05-29T09:33:32Z</time>
      </trkpt>
      <trkpt lat="45.04957" lon="5.76976">
        <ele>576.6</ele>
        <time>2021-05-29T09:33:33Z</time>
      </trkpt>
      <trkpt lat="45.04959" lon="5.76975">
        <ele>576.4</ele>
        <time>2021-05-29T09:33:34Z</time>
      </trkpt>
      <trkpt lat="45.0496" lon="5.76975">
        <ele>576.2</ele>
        <time>2021-05-29T09:33:35Z</time>
      </trkpt>
      <trkpt lat="45.04961" lon="5.76974">
        <ele>575.8</ele>
        <time>2021-05-29T09:33:36Z</time>
      </trkpt>
      <trkpt lat="45.04963" lon="5.76973">
        <ele>575.4</ele>
        <time>2021-05-29T09:33:37Z</time>
      </trkpt>
      <trkpt lat="45.04964" lon="5.76972">
        <ele>575.2</ele>
        <time>2021-05-29T09:33:38Z</time>
      </trkpt>
      <trkpt lat="45.04966" lon="5.76971">
        <ele>574.8</ele>
        <time>2021-05-29T09:33:39Z</time>
      </trkpt>
      <trkpt lat="45.04967" lon="5.7697">
        <ele>574.8</ele>
        <time>2021-05-29T09:33:40Z</time>
      </trkpt>
      <trkpt lat="45.04968" lon="5.7697">
        <ele>574.2</ele>
        <time>2021-05-29T09:33:41Z</time>
      </trkpt>
      <trkpt lat="45.0497" lon="5.76969">
        <ele>573.8</ele>
        <time>2021-05-29T09:33:42Z</time>
      </trkpt>
      <trkpt lat="45.04971" lon="5.76968">
        <ele>573.6</ele>
        <time>2021-05-29T09:33:43Z</time>
      </trkpt>
      <trkpt lat="45.04973" lon="5.76967">
        <ele>573.2</ele>
        <time>2021-05-29T09:33:44Z</time>
      </trkpt>
      <trkpt lat="45.04974" lon="5.76966">
        <ele>573</ele>
        <time>2021-05-29T09:33:45Z</time>
      </trkpt>
      <trkpt lat="45.04975" lon="5.76965">
        <ele>572.4</ele>
        <time>2021-05-29T09:33:46Z</time>
      </trkpt>
      <trkpt lat="45.04977" lon="5.76965">
        <ele>572</ele>
        <time>2021-05-29T09:33:47Z</time>
      </trkpt>
      <trkpt lat="45.04978" lon="5.76964">
        <ele>571.8</ele>
        <time>2021-05-29T09:33:48Z</time>
      </trkpt>
      <trkpt lat="45.0498" lon="5.76963">
        <ele>571.2</ele>
        <time>2021-05-29T09:33:49Z</time>
      </trkpt>
      <trkpt lat="45.04981" lon="5.76962">
        <ele>570.8</ele>
        <time>2021-05-29T09:33:50Z</time>
      </trkpt>
      <trkpt lat="45.04983" lon="5.76961">
        <ele>570.4</ele>
        <time>2021-05-29T09:33:51Z</time>
      </trkpt>
      <trkpt lat="45.04984" lon="5.7696">
        <ele>569.8</ele>
        <time>2021-05-29T09:33:52Z</time>
      </trkpt>
      <trkpt lat="45.04985" lon="5.7696">
        <ele>569.4</ele>
        <time>2021-05-29T09:33:53Z</time>
      </trkpt>
      <trkpt lat="45.04987" lon="5.76959">
        <ele>568.8</ele>
        <time>2021-05-29T09:33:54Z</time>
      </trkpt>
      <trkpt lat="45.04988" lon="5.76958">
        <ele>568.4</ele>
        <time>2021-05-29T09:33:55Z</time>
      </trkpt>
      <trkpt lat="45.0499" lon="5.76957">
        <ele>568.4</ele>
        <time>2021-05-29T09:33:56Z</time>
      </trkpt>
      <trkpt lat="45.04991" lon="5.76956">
        <ele>567.8</ele>
        <time>2021-05-29T09:33:57Z</time>
      </trkpt>
      <trkpt lat="45.04992" lon="5.76956">
        <ele>567</ele>
        <time>2021-05-29T09:33:58Z</time>
      </trkpt>
      <trkpt lat="45.04994" lon="5.76955">
        <ele>566.6</ele>
        <time>2021-05-29T09:33:59Z</time>
      </trkpt>
      <trkpt lat="45.04995" lon="5.76954">
        <ele>566.2</ele>
        <time>2021-05-29T09:34:00Z</time>
      </trkpt>
      <trkpt lat="45.04997" lon="5.76953">
        <ele>566.2</ele>
        <time>2021-05-29T09:34:01Z</time>
      </trkpt>
      <trkpt lat="45.04998" lon="5.76952">
        <ele>565.6</ele>
        <time>2021-05-29T09:34:02Z</time>
      </trkpt>
      <trkpt lat="45.04999" lon="5.76951">
        <ele>564.8</ele>
        <time>2021-05-29T09:34:03Z</time>
      </trkpt>
      <trkpt lat="45.05001" lon="5.76951">
        <ele>565</ele>
        <time>2021-05-29T09:34:04Z</time>
      </trkpt>
      <trkpt lat="45.05002" lon="5.7695">
        <ele>564.4</ele>
        <time>2021-05-29T09:34:05Z</time>
      </trkpt>
      <trkpt lat="45.05004" lon="5.76949">
        <ele>564</ele>
        <time>2021-05-29T09:34:06Z</time>
      </trkpt>
      <trkpt lat="45.05005" lon="5.76948">
        <ele>563.4</ele>
        <time>2021-05-29T09:34:07Z</time>
      </trkpt>
      <trkpt lat="45.05006" lon="5.76947">
        <ele>562.8</ele>
        <time>2021-05-29T09:34:08Z</time>
      </trkpt>
      <trkpt lat="45.05008" lon="5.76946">
        <ele>562.6</ele>
        <time>2021-05-29T09:34:09Z</time>
      </trkpt>
      <trkpt lat="45.05009" lon="5.76946">
        <ele>562</ele>
        <time>2021-05-29T09:34:10Z</time>
      </trkpt>
      <trkpt lat="45.05011" lon="5.76945">
        <ele>561</ele>
        <time>2021-05-29T09:34:11Z</time>
      </trkpt>
      <trkpt lat="45.05012" lon="5.76944">
        <ele>561.2</ele>
        <time>2021-05-29T09:34:12Z</time>
      </trkpt>
      <trkpt lat="45.05013" lon="5.76943">
        <ele>560.6</ele>
        <time>2021-05-29T09:34:13Z</time>
      </trkpt>
      <trkpt lat="45.05015" lon="5.76942">
        <ele>560.2</ele>
        <time>2021-05-29T09:34:14Z</time>
      </trkpt>
      <trkpt lat="45.05016" lon="5.76941">
        <ele>559.6</ele>
        <time>2021-05-29T09:34:15Z</time>
      </trkpt>
      <trkpt lat="45.05018" lon="5.76941">
        <ele>559.2</ele>
        <time>2021-05-29T09:34:16Z</time>
      </trkpt>
      <trkpt lat="45.05019" lon="5.7694">
        <ele>559</ele>
        <time>2021-05-29T09:34:17Z</time>
      </trkpt>
      <trkpt lat="45.0502" lon="5.76939">
        <ele>558.2</ele>
        <time>2021-05-29T09:34:18Z</time>
      </trkpt>
      <trkpt lat="45.05022" lon="5.76938">
        <ele>557.2</ele>
        <time>2021-05-29T09:34:19Z</time>
      </trkpt>
      <trkpt lat="45.05023" lon="5.76937">
        <ele>557</ele>
        <time>2021-05-29T09:34:20Z</time>
      </trkpt>
      <trkpt lat="45.05025" lon="5.76936">
        <ele>556.4</ele>
        <time>2021-05-29T09:34:21Z</time>
      </trkpt>
      <trkpt lat="45.05026" lon="5.76936">
        <ele>556.2</ele>
        <time>2021-05-29T09:34:22Z</time>
      </trkpt>
      <trkpt lat="45.05027" lon="5.76935">
        <ele>555.6</ele>
        <time>2021-05-29T09:34:23Z</time>
      </trkpt>
      <trkpt lat="45.05029" lon="5.76934">
        <ele>555</ele>
        <time>2021-05-29T09:34:24Z</time>
      </trkpt>
      <trkpt lat="45.0503" lon="5.76933">
        <ele>554.2</ele>
        <time>2021-05-29T09:34:25Z</time>
      </trkpt>
      <trkpt lat="45.05032" lon="5.76932">
        <ele>553.6</ele>
        <time>2021-05-29T09:34:26Z</time>
      </trkpt>
      <trkpt lat="45.05033" lon="5.76932">
        <ele>553</ele>
        <time>2021-05-29T09:34:27Z</time>
      </trkpt>
      <trkpt lat="45.05034" lon="5.76931">
        <ele>552.6</ele>
        <time>2021-05-29T09:34:28Z</time>
      </trkpt>
      <trkpt lat="45.05036" lon="5.7693">
        <ele>551.8</ele>
        <time>2021-05-29T09:34:29Z</time>
      </trkpt>
      <trkpt lat="45.05037" lon="5.76929">
        <ele>550.8</ele>
        <time>2021-05-29T09:34:30Z</time>
      </trkpt>
      <trkpt lat="45.05242" lon="5.76808">
        <ele>550.2</ele>
        <time>2021-05-29T09:34:31Z</time>
      </trkpt>
      <trkpt lat="45.05242" lon="5.76808">
        <ele>549.8</ele>
        <time>2021-05-29T09:34:32Z</time>
      </trkpt>
      <trkpt lat="45.05243" lon="5.76808">
        <ele>549.6</ele>
        <time>2021-05-29T09:34:33Z</time>
      </trkpt>
      <trkpt lat="45.05245" lon="5.76808">
        <ele>549</ele>
        <time>2021-05-29T09:34:34Z</time>
      </trkpt>
      <trkpt lat="45.05246" lon="5.76808">
        <ele>548.6</ele>
        <time>2021-05-29T09:34:35Z</time>
      </trkpt>
      <trkpt lat="45.05247" lon="5.76808">
        <ele>548</ele>
        <time>2021-05-29T09:34:36Z</time>
      </trkpt>
      <trkpt lat="45.05249" lon="5.76808">
        <ele>547.2</ele>
        <time>2021-05-29T09:34:37Z</time>
      </trkpt>
      <trkpt lat="45.0525" lon="5.76808">
        <ele>546.2</ele>
        <time>2021-05-29T09:34:38Z</time>
      </trkpt>
      <trkpt lat="45.05251" lon="5.76808">
        <ele>546.2</ele>
        <time>2021-05-29T09:34:39Z</time>
      </trkpt>
      <trkpt lat="45.05252" lon="5.76808">
        <ele>545.8</ele>
        <time>2021-05-29T09:34:40Z</time>
      </trkpt>
      <trkpt lat="45.05255" lon="5.76808">
        <ele>545.4</ele>
        <time>2021-05-29T09:34:41Z</time>
      </trkpt>
      <trkpt lat="45.05257" lon="5.76808">
        <ele>545.4</ele>
        <time>2021-05-29T09:34:42Z</time>
      </trkpt>
      <trkpt lat="45.05259" lon="5.76808">
        <ele>545</ele>
        <time>2021-05-29T09:34:43Z</time>
      </trkpt>
      <trkpt lat="45.05262" lon="5.76809">
        <ele>544</ele>
        <time>2021-05-29T09:34:44Z</time>
      </trkpt>
      <trkpt lat="45.05263" lon="5.76808">
        <ele>543</ele>
        <time>2021-05-29T09:34:45Z</time>
      </trkpt>
      <trkpt lat="45.05264" lon="5.76807">
        <ele>542.8</ele>
        <time>2021-05-29T09:34:46Z</time>
      </trkpt>
      <trkpt lat="45.05266" lon="5.76806">
        <ele>542.8</ele>
        <time>2021-05-29T09:34:47Z</time>
      </trkpt>
      <trkpt lat="45.05267" lon="5.76806">
        <ele>542.4</ele>
        <time>2021-05-29T09:34:48Z</time>
      </trkpt>
      <trkpt lat="45.05269" lon="5.76805">
        <ele>542.2</ele>
        <time>2021-05-29T09:34:49Z</time>
      </trkpt>
      <trkpt lat="45.0527" lon="5.76804">
        <ele>541.6</ele>
        <time>2021-05-29T09:34:50Z</time>
      </trkpt>
      <trkpt lat="45.05272" lon="5.76804">
        <ele>541.4</ele>
        <time>2021-05-29T09:34:51Z</time>
      </trkpt>
      <trkpt lat="45.05274" lon="5.76802">
        <ele>540.8</ele>
        <time>2021-05-29T09:34:52Z</time>
      </trkpt>
      <trkpt lat="45.05276" lon="5.76801">
        <ele>540.6</ele>
        <time>2021-05-29T09:34:53Z</time>
      </trkpt>
      <trkpt lat="45.05278" lon="5.768">
        <ele>540</ele>
        <time>2021-05-29T09:34:54Z</time>
      </trkpt>
      <trkpt lat="45.0528" lon="5.76799">
        <ele>539.4</ele>
        <time>2021-05-29T09:34:55Z</time>
      </trkpt>
      <trkpt lat="45.05283" lon="5.76797">
        <ele>539</ele>
        <time>2021-05-29T09:34:56Z</time>
      </trkpt>
      <trkpt lat="45.05286" lon="5.76796">
        <ele>538.4</ele>
        <time>2021-05-29T09:34:57Z</time>
      </trkpt>
      <trkpt lat="45.05288" lon="5.76795">
        <ele>538</ele>
        <time>2021-05-29T09:34:58Z</time>
      </trkpt>
      <trkpt lat="45.05291" lon="5.76793">
        <ele>538</ele>
        <time>2021-05-29T09:34:59Z</time>
      </trkpt>
      <trkpt lat="45.05293" lon="5.76793">
        <ele>537.8</ele>
        <time>2021-05-29T09:35:00Z</time>
      </trkpt>
      <trkpt lat="45.05295" lon="5.76792">
        <ele>537.8</ele>
        <time>2021-05-29T09:35:01Z</time>
      </trkpt>
      <trkpt lat="45.05297" lon="5.76791">
        <ele>537.4</ele>
        <time>2021-05-29T09:35:02Z</time>
      </trkpt>
      <trkpt lat="45.053" lon="5.7679">
        <ele>536.6</ele>
        <time>2021-05-29T09:35:03Z</time>
      </trkpt>
      <trkpt lat="45.05302" lon="5.7679">
        <ele>536</ele>
        <time>2021-05-29T09:35:04Z</time>
      </trkpt>
      <trkpt lat="45.05304" lon="5.76788">
        <ele>535.6</ele>
        <time>2021-05-29T09:35:05Z</time>
      </trkpt>
      <trkpt lat="45.05306" lon="5.76787">
        <ele>535.6</ele>
        <time>2021-05-29T09:35:06Z</time>
      </trkpt>
      <trkpt lat="45.05308" lon="5.76785">
        <ele>535</ele>
        <time>2021-05-29T09:35:07Z</time>
      </trkpt>
      <trkpt lat="45.0531" lon="5.76784">
        <ele>534.4</ele>
        <time>2021-05-29T09:35:08Z</time>
      </trkpt>
      <trkpt lat="45.05312" lon="5.76784">
        <ele>534.6</ele>
        <time>2021-05-29T09:35:09Z</time>
      </trkpt>
      <trkpt lat="45.05314" lon="5.76784">
        <ele>534.2</ele>
        <time>2021-05-29T09:35:10Z</time>
      </trkpt>
      <trkpt lat="45.05316" lon="5.76784">
        <ele>533.8</ele>
        <time>2021-05-29T09:35:11Z</time>
      </trkpt>
      <trkpt lat="45.05319" lon="5.76784">
        <ele>533</ele>
        <time>2021-05-29T09:35:12Z</time>
      </trkpt>
      <trkpt lat="45.05321" lon="5.76784">
        <ele>532.8</ele>
        <time>2021-05-29T09:35:13Z</time>
      </trkpt>
      <trkpt lat="45.05323" lon="5.76782">
        <ele>532.2</ele>
        <time>2021-05-29T09:35:14Z</time>
      </trkpt>
      <trkpt lat="45.05326" lon="5.7678">
        <ele>531.2</ele>
        <time>2021-05-29T09:35:15Z</time>
      </trkpt>
      <trkpt lat="45.05328" lon="5.76777">
        <ele>530.8</ele>
        <time>2021-05-29T09:35:16Z</time>
      </trkpt>
      <trkpt lat="45.05331" lon="5.76775">
        <ele>530.6</ele>
        <time>2021-05-29T09:35:17Z</time>
      </trkpt>
      <trkpt lat="45.05332" lon="5.76775">
        <ele>531</ele>
        <time>2021-05-29T09:35:18Z</time>
      </trkpt>
      <trkpt lat="45.05334" lon="5.76774">
        <ele>531</ele>
        <time>2021-05-29T09:35:19Z</time>
      </trkpt>
      <trkpt lat="45.05336" lon="5.76774">
        <ele>530.4</ele>
        <time>2021-05-29T09:35:20Z</time>
      </trkpt>
      <trkpt lat="45.05338" lon="5.76773">
        <ele>530.6</ele>
        <time>2021-05-29T09:35:21Z</time>
      </trkpt>
      <trkpt lat="45.0534" lon="5.76773">
        <ele>530.2</ele>
        <time>2021-05-29T09:35:22Z</time>
      </trkpt>
      <trkpt lat="45.05342" lon="5.76771">
        <ele>529.8</ele>
        <time>2021-05-29T09:35:23Z</time>
      </trkpt>
      <trkpt lat="45.05344" lon="5.7677">
        <ele>530</ele>
        <time>2021-05-29T09:35:24Z</time>
      </trkpt>
      <trkpt lat="45.05346" lon="5.76768">
        <ele>529.8</ele>
        <time>2021-05-29T09:35:25Z</time>
      </trkpt>
      <trkpt lat="45.05348" lon="5.76767">
        <ele>529.6</ele>
        <time>2021-05-29T09:35:26Z</time>
      </trkpt>
      <trkpt lat="45.0535" lon="5.76767">
        <ele>529.2</ele>
        <time>2021-05-29T09:35:27Z</time>
      </trkpt>
      <trkpt lat="45.05353" lon="5.76766">
        <ele>528.8</ele>
        <time>2021-05-29T09:35:28Z</time>
      </trkpt>
      <trkpt lat="45.05355" lon="5.76766">
        <ele>527.6</ele>
        <time>2021-05-29T09:35:29Z</time>
      </trkpt>
      <trkpt lat="45.05357" lon="5.76766">
        <ele>527.6</ele>
        <time>2021-05-29T09:35:30Z</time>
      </trkpt>
      <trkpt lat="45.05359" lon="5.76764">
        <ele>527.6</ele>
        <time>2021-05-29T09:35:31Z</time>
      </trkpt>
      <trkpt lat="45.05361" lon="5.76763">
        <ele>527.2</ele>
        <time>2021-05-29T09:35:32Z</time>
      </trkpt>
      <trkpt lat="45.05362" lon="5.76761">
        <ele>526.2</ele>
        <time>2021-05-29T09:35:33Z</time>
      </trkpt>
      <trkpt lat="45.05364" lon="5.7676">
        <ele>526.4</ele>
        <time>2021-05-29T09:35:34Z</time>
      </trkpt>
      <trkpt lat="45.05366" lon="5.76758">
        <ele>526.2</ele>
        <time>2021-05-29T09:35:35Z</time>
      </trkpt>
      <trkpt lat="45.05368" lon="5.76758">
        <ele>525.8</ele>
        <time>2021-05-29T09:35:36Z</time>
      </trkpt>
      <trkpt lat="45.05371" lon="5.76757">
        <ele>526</ele>
        <time>2021-05-29T09:35:37Z</time>
      </trkpt>
      <trkpt lat="45.05373" lon="5.76756">
        <ele>525.8</ele>
        <time>2021-05-29T09:35:38Z</time>
      </trkpt>
      <trkpt lat="45.05376" lon="5.76755">
        <ele>526.2</ele>
        <time>2021-05-29T09:35:39Z</time>
      </trkpt>
      <trkpt lat="45.05378" lon="5.76755">
        <ele>525.4</ele>
        <time>2021-05-29T09:35:40Z</time>
      </trkpt>
      <trkpt lat="45.0538" lon="5.76755">
        <ele>525.6</ele>
        <time>2021-05-29T09:35:41Z</time>
      </trkpt>
      <trkpt lat="45.05382" lon="5.76754">
        <ele>525.6</ele>
        <time>2021-05-29T09:35:42Z</time>
      </trkpt>
      <trkpt lat="45.05383" lon="5.76754">
        <ele>525.6</ele>
        <time>2021-05-29T09:35:43Z</time>
      </trkpt>
      <trkpt lat="45.05385" lon="5.76754">
        <ele>525.4</ele>
        <time>2021-05-29T09:35:44Z</time>
      </trkpt>
      <trkpt lat="45.05387" lon="5.76753">
        <ele>525</ele>
        <time>2021-05-29T09:35:45Z</time>
      </trkpt>
      <trkpt lat="45.05389" lon="5.76753">
        <ele>524.4</ele>
        <time>2021-05-29T09:35:46Z</time>
      </trkpt>
      <trkpt lat="45.05391" lon="5.76752">
        <ele>523.4</ele>
        <time>2021-05-29T09:35:47Z</time>
      </trkpt>
      <trkpt lat="45.05393" lon="5.76752">
        <ele>523.6</ele>
        <time>2021-05-29T09:35:48Z</time>
      </trkpt>
      <trkpt lat="45.05395" lon="5.76751">
        <ele>523.2</ele>
        <time>2021-05-29T09:35:49Z</time>
      </trkpt>
      <trkpt lat="45.05397" lon="5.7675">
        <ele>523.2</ele>
        <time>2021-05-29T09:35:50Z</time>
      </trkpt>
      <trkpt lat="45.05398" lon="5.76748">
        <ele>522.8</ele>
        <time>2021-05-29T09:35:51Z</time>
      </trkpt>
      <trkpt lat="45.054" lon="5.76747">
        <ele>522.2</ele>
        <time>2021-05-29T09:35:52Z</time>
      </trkpt>
      <trkpt lat="45.05401" lon="5.76746">
        <ele>521.4</ele>
        <time>2021-05-29T09:35:53Z</time>
      </trkpt>
      <trkpt lat="45.05403" lon="5.76744">
        <ele>521.4</ele>
        <time>2021-05-29T09:35:54Z</time>
      </trkpt>
      <trkpt lat="45.05405" lon="5.76743">
        <ele>521.6</ele>
        <time>2021-05-29T09:35:55Z</time>
      </trkpt>
      <trkpt lat="45.05406" lon="5.76742">
        <ele>521.2</ele>
        <time>2021-05-29T09:35:56Z</time>
      </trkpt>
      <trkpt lat="45.05407" lon="5.7674">
        <ele>521</ele>
        <time>2021-05-29T09:35:57Z</time>
      </trkpt>
      <trkpt lat="45.05408" lon="5.76739">
        <ele>520.2</ele>
        <time>2021-05-29T09:35:58Z</time>
      </trkpt>
      <trkpt lat="45.05408" lon="5.76737">
        <ele>519.8</ele>
        <time>2021-05-29T09:35:59Z</time>
      </trkpt>
      <trkpt lat="45.05409" lon="5.76736">
        <ele>518.8</ele>
        <time>2021-05-29T09:36:00Z</time>
      </trkpt>
      <trkpt lat="45.0541" lon="5.76735">
        <ele>518.2</ele>
        <time>2021-05-29T09:36:01Z</time>
      </trkpt>
      <trkpt lat="45.05411" lon="5.76733">
        <ele>517.8</ele>
        <time>2021-05-29T09:36:02Z</time>
      </trkpt>
      <trkpt lat="45.05411" lon="5.76732">
        <ele>517.4</ele>
        <time>2021-05-29T09:36:03Z</time>
      </trkpt>
      <trkpt lat="45.05412" lon="5.7673">
        <ele>516.6</ele>
        <time>2021-05-29T09:36:04Z</time>
      </trkpt>
      <trkpt lat="45.05413" lon="5.76729">
        <ele>515.8</ele>
        <time>2021-05-29T09:36:05Z</time>
      </trkpt>
      <trkpt lat="45.05414" lon="5.76727">
        <ele>515.6</ele>
        <time>2021-05-29T09:36:06Z</time>
      </trkpt>
      <trkpt lat="45.05414" lon="5.76726">
        <ele>515.4</ele>
        <time>2021-05-29T09:36:07Z</time>
      </trkpt>
      <trkpt lat="45.05415" lon="5.76724">
        <ele>515.6</ele>
        <time>2021-05-29T09:36:08Z</time>
      </trkpt>
      <trkpt lat="45.05416" lon="5.76723">
        <ele>515.4</ele>
        <time>2021-05-29T09:36:09Z</time>
      </trkpt>
      <trkpt lat="45.05417" lon="5.76722">
        <ele>515.4</ele>
        <time>2021-05-29T09:36:10Z</time>
      </trkpt>
      <trkpt lat="45.05417" lon="5.7672">
        <ele>515.2</ele>
        <time>2021-05-29T09:36:11Z</time>
      </trkpt>
      <trkpt lat="45.05418" lon="5.76719">
        <ele>515</ele>
        <time>2021-05-29T09:36:12Z</time>
      </trkpt>
      <trkpt lat="45.05419" lon="5.76717">
        <ele>514.8</ele>
        <time>2021-05-29T09:36:13Z</time>
      </trkpt>
      <trkpt lat="45.0542" lon="5.76716">
        <ele>514.8</ele>
        <time>2021-05-29T09:36:14Z</time>
      </trkpt>
      <trkpt lat="45.0542" lon="5.76714">
        <ele>514.6</ele>
        <time>2021-05-29T09:36:15Z</time>
      </trkpt>
      <trkpt lat="45.05421" lon="5.76713">
        <ele>514.4</ele>
        <time>2021-05-29T09:36:16Z</time>
      </trkpt>
      <trkpt lat="45.05422" lon="5.76711">
        <ele>514.2</ele>
        <time>2021-05-29T09:36:17Z</time>
      </trkpt>
      <trkpt lat="45.05423" lon="5.7671">
        <ele>514.2</ele>
        <time>2021-05-29T09:36:18Z</time>
      </trkpt>
      <trkpt lat="45.05422" lon="5.76712">
        <ele>514.4</ele>
        <time>2021-05-29T09:36:19Z</time>
      </trkpt>
      <trkpt lat="45.05421" lon="5.76714">
        <ele>514.4</ele>
        <time>2021-05-29T09:36:20Z</time>
      </trkpt>
      <trkpt lat="45.05421" lon="5.76716">
        <ele>514.6</ele>
        <time>2021-05-29T09:36:21Z</time>
      </trkpt>
      <trkpt lat="45.0542" lon="5.76718">
        <ele>514.8</ele>
        <time>2021-05-29T09:36:22Z</time>
      </trkpt>
      <trkpt lat="45.0542" lon="5.76721">
        <ele>514.6</ele>
        <time>2021-05-29T09:36:23Z</time>
      </trkpt>
      <trkpt lat="45.05419" lon="5.76723">
        <ele>514.6</ele>
        <time>2021-05-29T09:36:24Z</time>
      </trkpt>
      <trkpt lat="45.05417" lon="5.76723">
        <ele>514.2</ele>
        <time>2021-05-29T09:36:25Z</time>
      </trkpt>
      <trkpt lat="45.05415" lon="5.76724">
        <ele>514.4</ele>
        <time>2021-05-29T09:36:26Z</time>
      </trkpt>
      <trkpt lat="45.05413" lon="5.76725">
        <ele>514.4</ele>
        <time>2021-05-29T09:36:27Z</time>
      </trkpt>
      <trkpt lat="45.05411" lon="5.76726">
        <ele>514.6</ele>
        <time>2021-05-29T09:36:28Z</time>
      </trkpt>
      <trkpt lat="45.05409" lon="5.76726">
        <ele>514.8</ele>
        <time>2021-05-29T09:36:29Z</time>
      </trkpt>
      <trkpt lat="45.05408" lon="5.76727">
        <ele>515</ele>
        <time>2021-05-29T09:36:30Z</time>
      </trkpt>
      <trkpt lat="45.05406" lon="5.76727">
        <ele>515</ele>
        <time>2021-05-29T09:36:31Z</time>
      </trkpt>
      <trkpt lat="45.05405" lon="5.76728">
        <ele>515.2</ele>
        <time>2021-05-29T09:36:32Z</time>
      </trkpt>
      <trkpt lat="45.05404" lon="5.76728">
        <ele>515.2</ele>
        <time>2021-05-29T09:36:33Z</time>
      </trkpt>
      <trkpt lat="45.05403" lon="5.76728">
        <ele>515.4</ele>
        <time>2021-05-29T09:36:34Z</time>
      </trkpt>
      <trkpt lat="45.05402" lon="5.76729">
        <ele>515.2</ele>
        <time>2021-05-29T09:36:35Z</time>
      </trkpt>
      <trkpt lat="45.05401" lon="5.76729">
        <ele>515.4</ele>
        <time>2021-05-29T09:36:36Z</time>
      </trkpt>
      <trkpt lat="45.05399" lon="5.76729">
        <ele>515.4</ele>
        <time>2021-05-29T09:36:37Z</time>
      </trkpt>
      <trkpt lat="45.05397" lon="5.76729">
        <ele>515.4</ele>
        <time>2021-05-29T09:36:38Z</time>
      </trkpt>
      <trkpt lat="45.05395" lon="5.76728">
        <ele>515.4</ele>
        <time>2021-05-29T09:36:39Z</time>
      </trkpt>
      <trkpt lat="45.05392" lon="5.76727">
        <ele>515.6</ele>
        <time>2021-05-29T09:36:40Z</time>
      </trkpt>
      <trkpt lat="45.0539" lon="5.76726">
        <ele>515.8</ele>
        <time>2021-05-29T09:36:41Z</time>
      </trkpt>
      <trkpt lat="45.05388" lon="5.76726">
        <ele>516</ele>
        <time>2021-05-29T09:36:42Z</time>
      </trkpt>
      <trkpt lat="45.05386" lon="5.76726">
        <ele>516.2</ele>
        <time>2021-05-29T09:36:43Z</time>
      </trkpt>
      <trkpt lat="45.05384" lon="5.76726">
        <ele>516</ele>
        <time>2021-05-29T09:36:44Z</time>
      </trkpt>
      <trkpt lat="45.05382" lon="5.76726">
        <ele>516.2</ele>
        <time>2021-05-29T09:36:45Z</time>
      </trkpt>
      <trkpt lat="45.0538" lon="5.76726">
        <ele>516.4</ele>
        <time>2021-05-29T09:36:46Z</time>
      </trkpt>
      <trkpt lat="45.0538" lon="5.76726">
        <ele>516.4</ele>
        <time>2021-05-29T09:36:47Z</time>
      </trkpt>
      <trkpt lat="45.05379" lon="5.76725">
        <ele>516.6</ele>
        <time>2021-05-29T09:36:48Z</time>
      </trkpt>
      <trkpt lat="45.05378" lon="5.76725">
        <ele>517</ele>
        <time>2021-05-29T09:36:49Z</time>
      </trkpt>
      <trkpt lat="45.05378" lon="5.76724">
        <ele>517.2</ele>
        <time>2021-05-29T09:36:50Z</time>
      </trkpt>
      <trkpt lat="45.05377" lon="5.76724">
        <ele>517.2</ele>
        <time>2021-05-29T09:36:51Z</time>
      </trkpt>
      <trkpt lat="45.05376" lon="5.76724">
        <ele>517.4</ele>
        <time>2021-05-29T09:36:52Z</time>
      </trkpt>
      <trkpt lat="45.05376" lon="5.76723">
        <ele>517.4</ele>
        <time>2021-05-29T09:36:53Z</time>
      </trkpt>
      <trkpt lat="45.05375" lon="5.76723">
        <ele>517.6</ele>
        <time>2021-05-29T09:36:54Z</time>
      </trkpt>
      <trkpt lat="45.05375" lon="5.76723">
        <ele>517.8</ele>
        <time>2021-05-29T09:36:55Z</time>
      </trkpt>
      <trkpt lat="45.05374" lon="5.76722">
        <ele>517.8</ele>
        <time>2021-05-29T09:36:56Z</time>
      </trkpt>
      <trkpt lat="45.05373" lon="5.76722">
        <ele>518</ele>
        <time>2021-05-29T09:36:57Z</time>
      </trkpt>
      <trkpt lat="45.05373" lon="5.76721">
        <ele>518</ele>
        <time>2021-05-29T09:36:58Z</time>
      </trkpt>
      <trkpt lat="45.05372" lon="5.76721">
        <ele>518.2</ele>
        <time>2021-05-29T09:36:59Z</time>
      </trkpt>
      <trkpt lat="45.05371" lon="5.76721">
        <ele>518.2</ele>
        <time>2021-05-29T09:37:00Z</time>
      </trkpt>
      <trkpt lat="45.05371" lon="5.7672">
        <ele>518.2</ele>
        <time>2021-05-29T09:37:01Z</time>
      </trkpt>
      <trkpt lat="45.0537" lon="5.7672">
        <ele>518.2</ele>
        <time>2021-05-29T09:37:02Z</time>
      </trkpt>
      <trkpt lat="45.05369" lon="5.76719">
        <ele>518.4</ele>
        <time>2021-05-29T09:37:03Z</time>
      </trkpt>
      <trkpt lat="45.05369" lon="5.76719">
        <ele>518.4</ele>
        <time>2021-05-29T09:37:04Z</time>
      </trkpt>
      <trkpt lat="45.05368" lon="5.76719">
        <ele>518.4</ele>
        <time>2021-05-29T09:37:05Z</time>
      </trkpt>
      <trkpt lat="45.05367" lon="5.76718">
        <ele>518.6</ele>
        <time>2021-05-29T09:37:06Z</time>
      </trkpt>
      <trkpt lat="45.05367" lon="5.76718">
        <ele>519.2</ele>
        <time>2021-05-29T09:37:07Z</time>
      </trkpt>
      <trkpt lat="45.05366" lon="5.76717">
        <ele>519.2</ele>
        <time>2021-05-29T09:37:08Z</time>
      </trkpt>
      <trkpt lat="45.05366" lon="5.76717">
        <ele>519.6</ele>
        <time>2021-05-29T09:37:09Z</time>
      </trkpt>
      <trkpt lat="45.05365" lon="5.76717">
        <ele>519.8</ele>
        <time>2021-05-29T09:37:10Z</time>
      </trkpt>
      <trkpt lat="45.05364" lon="5.76716">
        <ele>520.2</ele>
        <time>2021-05-29T09:37:11Z</time>
      </trkpt>
      <trkpt lat="45.05364" lon="5.76716">
        <ele>520.4</ele>
        <time>2021-05-29T09:37:12Z</time>
      </trkpt>
      <trkpt lat="45.05363" lon="5.76715">
        <ele>520.6</ele>
        <time>2021-05-29T09:37:13Z</time>
      </trkpt>
      <trkpt lat="45.05362" lon="5.76715">
        <ele>521</ele>
        <time>2021-05-29T09:37:14Z</time>
      </trkpt>
      <trkpt lat="45.05362" lon="5.76715">
        <ele>521.4</ele>
        <time>2021-05-29T09:37:15Z</time>
      </trkpt>
      <trkpt lat="45.05361" lon="5.76714">
        <ele>521.6</ele>
        <time>2021-05-29T09:37:16Z</time>
      </trkpt>
      <trkpt lat="45.0536" lon="5.76714">
        <ele>522</ele>
        <time>2021-05-29T09:37:17Z</time>
      </trkpt>
      <trkpt lat="45.0536" lon="5.76714">
        <ele>521.8</ele>
        <time>2021-05-29T09:37:18Z</time>
      </trkpt>
      <trkpt lat="45.05359" lon="5.76713">
        <ele>522</ele>
        <time>2021-05-29T09:37:19Z</time>
      </trkpt>
      <trkpt lat="45.05358" lon="5.76713">
        <ele>522</ele>
        <time>2021-05-29T09:37:20Z</time>
      </trkpt>
      <trkpt lat="45.05358" lon="5.76712">
        <ele>522.2</ele>
        <time>2021-05-29T09:37:21Z</time>
      </trkpt>
      <trkpt lat="45.05357" lon="5.76712">
        <ele>522.4</ele>
        <time>2021-05-29T09:37:22Z</time>
      </trkpt>
      <trkpt lat="45.05356" lon="5.76713">
        <ele>522.4</ele>
        <time>2021-05-29T09:37:23Z</time>
      </trkpt>
      <trkpt lat="45.05355" lon="5.76713">
        <ele>522.6</ele>
        <time>2021-05-29T09:37:24Z</time>
      </trkpt>
      <trkpt lat="45.05354" lon="5.76713">
        <ele>522.6</ele>
        <time>2021-05-29T09:37:25Z</time>
      </trkpt>
      <trkpt lat="45.05353" lon="5.76713">
        <ele>522.8</ele>
        <time>2021-05-29T09:37:26Z</time>
      </trkpt>
      <trkpt lat="45.05352" lon="5.76713">
        <ele>523.4</ele>
        <time>2021-05-29T09:37:27Z</time>
      </trkpt>
      <trkpt lat="45.05351" lon="5.76713">
        <ele>524</ele>
        <time>2021-05-29T09:37:28Z</time>
      </trkpt>
      <trkpt lat="45.0535" lon="5.76713">
        <ele>524.4</ele>
        <time>2021-05-29T09:37:29Z</time>
      </trkpt>
      <trkpt lat="45.05349" lon="5.76713">
        <ele>524.6</ele>
        <time>2021-05-29T09:37:30Z</time>
      </trkpt>
      <trkpt lat="45.05348" lon="5.76713">
        <ele>524.8</ele>
        <time>2021-05-29T09:37:31Z</time>
      </trkpt>
      <trkpt lat="45.05348" lon="5.76711">
        <ele>524.8</ele>
        <time>2021-05-29T09:37:32Z</time>
      </trkpt>
      <trkpt lat="45.05348" lon="5.7671">
        <ele>524.8</ele>
        <time>2021-05-29T09:37:33Z</time>
      </trkpt>
      <trkpt lat="45.05349" lon="5.76708">
        <ele>525</ele>
        <time>2021-05-29T09:37:34Z</time>
      </trkpt>
      <trkpt lat="45.05349" lon="5.76706">
        <ele>525</ele>
        <time>2021-05-29T09:37:35Z</time>
      </trkpt>
      <trkpt lat="45.05349" lon="5.76704">
        <ele>525.2</ele>
        <time>2021-05-29T09:37:36Z</time>
      </trkpt>
      <trkpt lat="45.05349" lon="5.76703">
        <ele>525.4</ele>
        <time>2021-05-29T09:37:37Z</time>
      </trkpt>
      <trkpt lat="45.05349" lon="5.76701">
        <ele>525.6</ele>
        <time>2021-05-29T09:37:38Z</time>
      </trkpt>
      <trkpt lat="45.05349" lon="5.76699">
        <ele>525.8</ele>
        <time>2021-05-29T09:37:39Z</time>
      </trkpt>
      <trkpt lat="45.05347" lon="5.76699">
        <ele>526</ele>
        <time>2021-05-29T09:37:40Z</time>
      </trkpt>
      <trkpt lat="45.05346" lon="5.76699">
        <ele>526.2</ele>
        <time>2021-05-29T09:37:41Z</time>
      </trkpt>
      <trkpt lat="45.05344" lon="5.767">
        <ele>526.6</ele>
        <time>2021-05-29T09:37:42Z</time>
      </trkpt>
      <trkpt lat="45.05342" lon="5.767">
        <ele>527</ele>
        <time>2021-05-29T09:37:43Z</time>
      </trkpt>
      <trkpt lat="45.0534" lon="5.767">
        <ele>527.6</ele>
        <time>2021-05-29T09:37:44Z</time>
      </trkpt>
      <trkpt lat="45.05339" lon="5.767">
        <ele>527.6</ele>
        <time>2021-05-29T09:37:45Z</time>
      </trkpt>
      <trkpt lat="45.05337" lon="5.76701">
        <ele>527.8</ele>
        <time>2021-05-29T09:37:46Z</time>
      </trkpt>
      <trkpt lat="45.05337" lon="5.76703">
        <ele>528</ele>
        <time>2021-05-29T09:37:47Z</time>
      </trkpt>
      <trkpt lat="45.05337" lon="5.76705">
        <ele>528</ele>
        <time>2021-05-29T09:37:48Z</time>
      </trkpt>
      <trkpt lat="45.05337" lon="5.76706">
        <ele>527.8</ele>
        <time>2021-05-29T09:37:49Z</time>
      </trkpt>
      <trkpt lat="45.05338" lon="5.76707">
        <ele>528</ele>
        <time>2021-05-29T09:37:50Z</time>
      </trkpt>
      <trkpt lat="45.05338" lon="5.76709">
        <ele>528</ele>
        <time>2021-05-29T09:37:51Z</time>
      </trkpt>
      <trkpt lat="45.05338" lon="5.7671">
        <ele>528.2</ele>
        <time>2021-05-29T09:37:52Z</time>
      </trkpt>
      <trkpt lat="45.05338" lon="5.76712">
        <ele>528.4</ele>
        <time>2021-05-29T09:37:53Z</time>
      </trkpt>
      <trkpt lat="45.05338" lon="5.76713">
        <ele>528.6</ele>
        <time>2021-05-29T09:37:54Z</time>
      </trkpt>
      <trkpt lat="45.05339" lon="5.76714">
        <ele>528.6</ele>
        <time>2021-05-29T09:37:55Z</time>
      </trkpt>
      <trkpt lat="45.05339" lon="5.76716">
        <ele>529</ele>
        <time>2021-05-29T09:37:56Z</time>
      </trkpt>
      <trkpt lat="45.05339" lon="5.76717">
        <ele>529.2</ele>
        <time>2021-05-29T09:37:57Z</time>
      </trkpt>
      <trkpt lat="45.05339" lon="5.76718">
        <ele>529.2</ele>
        <time>2021-05-29T09:37:58Z</time>
      </trkpt>
      <trkpt lat="45.05339" lon="5.7672">
        <ele>529.4</ele>
        <time>2021-05-29T09:37:59Z</time>
      </trkpt>
      <trkpt lat="45.0534" lon="5.76721">
        <ele>529.4</ele>
        <time>2021-05-29T09:38:00Z</time>
      </trkpt>
      <trkpt lat="45.0534" lon="5.76723">
        <ele>529.4</ele>
        <time>2021-05-29T09:38:01Z</time>
      </trkpt>
      <trkpt lat="45.0534" lon="5.76724">
        <ele>529.4</ele>
        <time>2021-05-29T09:38:02Z</time>
      </trkpt>
      <trkpt lat="45.0534" lon="5.76725">
        <ele>529</ele>
        <time>2021-05-29T09:38:03Z</time>
      </trkpt>
      <trkpt lat="45.0534" lon="5.76727">
        <ele>529</ele>
        <time>2021-05-29T09:38:04Z</time>
      </trkpt>
      <trkpt lat="45.0534" lon="5.76728">
        <ele>528.8</ele>
        <time>2021-05-29T09:38:05Z</time>
      </trkpt>
      <trkpt lat="45.0534" lon="5.76728">
        <ele>528.8</ele>
        <time>2021-05-29T09:38:06Z</time>
      </trkpt>
      <trkpt lat="45.0534" lon="5.76728">
        <ele>529.2</ele>
        <time>2021-05-29T09:38:07Z</time>
      </trkpt>
      <trkpt lat="45.05339" lon="5.76732">
        <ele>529.4</ele>
        <time>2021-05-29T09:38:08Z</time>
      </trkpt>
      <trkpt lat="45.05338" lon="5.76735">
        <ele>529.6</ele>
        <time>2021-05-29T09:38:09Z</time>
      </trkpt>
      <trkpt lat="45.05337" lon="5.76738">
        <ele>529.6</ele>
        <time>2021-05-29T09:38:10Z</time>
      </trkpt>
      <trkpt lat="45.05336" lon="5.76741">
        <ele>529.8</ele>
        <time>2021-05-29T09:38:11Z</time>
      </trkpt>
      <trkpt lat="45.05335" lon="5.76745">
        <ele>530</ele>
        <time>2021-05-29T09:38:12Z</time>
      </trkpt>
      <trkpt lat="45.05333" lon="5.76748">
        <ele>530.2</ele>
        <time>2021-05-29T09:38:13Z</time>
      </trkpt>
      <trkpt lat="45.0533" lon="5.76754">
        <ele>530.2</ele>
        <time>2021-05-29T09:38:14Z</time>
      </trkpt>
      <trkpt lat="45.0533" lon="5.76754">
        <ele>530.4</ele>
        <time>2021-05-29T09:38:15Z</time>
      </trkpt>
      <trkpt lat="45.05329" lon="5.76757">
        <ele>530.4</ele>
        <time>2021-05-29T09:38:16Z</time>
      </trkpt>
      <trkpt lat="45.05328" lon="5.76761">
        <ele>530.4</ele>
        <time>2021-05-29T09:38:17Z</time>
      </trkpt>
      <trkpt lat="45.05327" lon="5.76765">
        <ele>530.8</ele>
        <time>2021-05-29T09:38:18Z</time>
      </trkpt>
      <trkpt lat="45.05326" lon="5.76768">
        <ele>530.8</ele>
        <time>2021-05-29T09:38:19Z</time>
      </trkpt>
      <trkpt lat="45.05325" lon="5.76772">
        <ele>531</ele>
        <time>2021-05-29T09:38:20Z</time>
      </trkpt>
      <trkpt lat="45.05327" lon="5.76768">
        <ele>531.4</ele>
        <time>2021-05-29T09:38:21Z</time>
      </trkpt>
      <trkpt lat="45.05329" lon="5.76764">
        <ele>531.6</ele>
        <time>2021-05-29T09:38:22Z</time>
      </trkpt>
      <trkpt lat="45.05331" lon="5.7676">
        <ele>531.6</ele>
        <time>2021-05-29T09:38:23Z</time>
      </trkpt>
      <trkpt lat="45.05333" lon="5.76756">
        <ele>531.8</ele>
        <time>2021-05-29T09:38:24Z</time>
      </trkpt>
      <trkpt lat="45.05335" lon="5.76752">
        <ele>532</ele>
        <time>2021-05-29T09:38:25Z</time>
      </trkpt>
      <trkpt lat="45.05341" lon="5.76747">
        <ele>532.4</ele>
        <time>2021-05-29T09:38:26Z</time>
      </trkpt>
      <trkpt lat="45.05346" lon="5.76743">
        <ele>532.4</ele>
        <time>2021-05-29T09:38:27Z</time>
      </trkpt>
      <trkpt lat="45.0535" lon="5.76741">
        <ele>532.6</ele>
        <time>2021-05-29T09:38:28Z</time>
      </trkpt>
      <trkpt lat="45.05354" lon="5.76738">
        <ele>533</ele>
        <time>2021-05-29T09:38:29Z</time>
      </trkpt>
      <trkpt lat="45.0536" lon="5.76735">
        <ele>533.2</ele>
        <time>2021-05-29T09:38:30Z</time>
      </trkpt>
      <trkpt lat="45.05362" lon="5.76736">
        <ele>533.4</ele>
        <time>2021-05-29T09:38:31Z</time>
      </trkpt>
      <trkpt lat="45.05365" lon="5.76737">
        <ele>533.6</ele>
        <time>2021-05-29T09:38:32Z</time>
      </trkpt>
      <trkpt lat="45.05369" lon="5.7674">
        <ele>534</ele>
        <time>2021-05-29T09:38:33Z</time>
      </trkpt>
      <trkpt lat="45.05369" lon="5.7674">
        <ele>534.2</ele>
        <time>2021-05-29T09:38:34Z</time>
      </trkpt>
      <trkpt lat="45.05369" lon="5.7674">
        <ele>534.6</ele>
        <time>2021-05-29T09:38:35Z</time>
      </trkpt>
      <trkpt lat="45.05372" lon="5.76742">
        <ele>534.8</ele>
        <time>2021-05-29T09:38:36Z</time>
      </trkpt>
      <trkpt lat="45.05375" lon="5.76744">
        <ele>535</ele>
        <time>2021-05-29T09:38:37Z</time>
      </trkpt>
      <trkpt lat="45.05378" lon="5.76746">
        <ele>535.2</ele>
        <time>2021-05-29T09:38:38Z</time>
      </trkpt>
      <trkpt lat="45.05381" lon="5.76748">
        <ele>535.4</ele>
        <time>2021-05-29T09:38:39Z</time>
      </trkpt>
      <trkpt lat="45.05383" lon="5.76751">
        <ele>535.4</ele>
        <time>2021-05-29T09:38:40Z</time>
      </trkpt>
      <trkpt lat="45.05386" lon="5.76753">
        <ele>535.4</ele>
        <time>2021-05-29T09:38:41Z</time>
      </trkpt>
      <trkpt lat="45.05389" lon="5.76755">
        <ele>535.4</ele>
        <time>2021-05-29T09:38:42Z</time>
      </trkpt>
      <trkpt lat="45.05392" lon="5.76757">
        <ele>535.4</ele>
        <time>2021-05-29T09:38:43Z</time>
      </trkpt>
      <trkpt lat="45.05395" lon="5.76759">
        <ele>535.4</ele>
        <time>2021-05-29T09:38:44Z</time>
      </trkpt>
      <trkpt lat="45.05398" lon="5.76761">
        <ele>535.4</ele>
        <time>2021-05-29T09:38:45Z</time>
      </trkpt>
      <trkpt lat="45.054" lon="5.76763">
        <ele>535.2</ele>
        <time>2021-05-29T09:38:46Z</time>
      </trkpt>
      <trkpt lat="45.05403" lon="5.76766">
        <ele>535.2</ele>
        <time>2021-05-29T09:38:47Z</time>
      </trkpt>
      <trkpt lat="45.05406" lon="5.76768">
        <ele>535</ele>
        <time>2021-05-29T09:38:48Z</time>
      </trkpt>
      <trkpt lat="45.05409" lon="5.7677">
        <ele>535</ele>
        <time>2021-05-29T09:38:49Z</time>
      </trkpt>
      <trkpt lat="45.05412" lon="5.76772">
        <ele>535.2</ele>
        <time>2021-05-29T09:38:50Z</time>
      </trkpt>
      <trkpt lat="45.05414" lon="5.76774">
        <ele>535</ele>
        <time>2021-05-29T09:38:51Z</time>
      </trkpt>
      <trkpt lat="45.05415" lon="5.76776">
        <ele>535.4</ele>
        <time>2021-05-29T09:38:52Z</time>
      </trkpt>
      <trkpt lat="45.05416" lon="5.76778">
        <ele>535.6</ele>
        <time>2021-05-29T09:38:53Z</time>
      </trkpt>
      <trkpt lat="45.05417" lon="5.7678">
        <ele>535.8</ele>
        <time>2021-05-29T09:38:54Z</time>
      </trkpt>
      <trkpt lat="45.05418" lon="5.76781">
        <ele>536.2</ele>
        <time>2021-05-29T09:38:55Z</time>
      </trkpt>
      <trkpt lat="45.05419" lon="5.76783">
        <ele>536.2</ele>
        <time>2021-05-29T09:38:56Z</time>
      </trkpt>
      <trkpt lat="45.0542" lon="5.76785">
        <ele>536</ele>
        <time>2021-05-29T09:38:57Z</time>
      </trkpt>
      <trkpt lat="45.05421" lon="5.76787">
        <ele>536.4</ele>
        <time>2021-05-29T09:38:58Z</time>
      </trkpt>
      <trkpt lat="45.05422" lon="5.76787">
        <ele>536.6</ele>
        <time>2021-05-29T09:38:59Z</time>
      </trkpt>
      <trkpt lat="45.05423" lon="5.76788">
        <ele>536.4</ele>
        <time>2021-05-29T09:39:00Z</time>
      </trkpt>
      <trkpt lat="45.05423" lon="5.76789">
        <ele>536.8</ele>
        <time>2021-05-29T09:39:01Z</time>
      </trkpt>
      <trkpt lat="45.05424" lon="5.7679">
        <ele>536.8</ele>
        <time>2021-05-29T09:39:02Z</time>
      </trkpt>
      <trkpt lat="45.05425" lon="5.7679">
        <ele>537.2</ele>
        <time>2021-05-29T09:39:03Z</time>
      </trkpt>
      <trkpt lat="45.05425" lon="5.76791">
        <ele>537.2</ele>
        <time>2021-05-29T09:39:04Z</time>
      </trkpt>
      <trkpt lat="45.05426" lon="5.76792">
        <ele>537.6</ele>
        <time>2021-05-29T09:39:05Z</time>
      </trkpt>
      <trkpt lat="45.05427" lon="5.76793">
        <ele>537.8</ele>
        <time>2021-05-29T09:39:06Z</time>
      </trkpt>
      <trkpt lat="45.05427" lon="5.76793">
        <ele>537.8</ele>
        <time>2021-05-29T09:39:07Z</time>
      </trkpt>
      <trkpt lat="45.05428" lon="5.76794">
        <ele>538</ele>
        <time>2021-05-29T09:39:08Z</time>
      </trkpt>
      <trkpt lat="45.05429" lon="5.76795">
        <ele>538.2</ele>
        <time>2021-05-29T09:39:09Z</time>
      </trkpt>
      <trkpt lat="45.0543" lon="5.76796">
        <ele>538.6</ele>
        <time>2021-05-29T09:39:10Z</time>
      </trkpt>
      <trkpt lat="45.05432" lon="5.76797">
        <ele>538.8</ele>
        <time>2021-05-29T09:39:11Z</time>
      </trkpt>
      <trkpt lat="45.05433" lon="5.76798">
        <ele>539</ele>
        <time>2021-05-29T09:39:12Z</time>
      </trkpt>
      <trkpt lat="45.05435" lon="5.768">
        <ele>539.2</ele>
        <time>2021-05-29T09:39:13Z</time>
      </trkpt>
      <trkpt lat="45.05436" lon="5.76801">
        <ele>539.2</ele>
        <time>2021-05-29T09:39:14Z</time>
      </trkpt>
      <trkpt lat="45.05437" lon="5.76802">
        <ele>539.6</ele>
        <time>2021-05-29T09:39:15Z</time>
      </trkpt>
      <trkpt lat="45.0544" lon="5.76802">
        <ele>539.8</ele>
        <time>2021-05-29T09:39:16Z</time>
      </trkpt>
      <trkpt lat="45.05442" lon="5.76803">
        <ele>540</ele>
        <time>2021-05-29T09:39:17Z</time>
      </trkpt>
      <trkpt lat="45.05445" lon="5.76803">
        <ele>540.2</ele>
        <time>2021-05-29T09:39:18Z</time>
      </trkpt>
      <trkpt lat="45.05447" lon="5.76803">
        <ele>540.2</ele>
        <time>2021-05-29T09:39:19Z</time>
      </trkpt>
      <trkpt lat="45.05439" lon="5.76813">
        <ele>540.6</ele>
        <time>2021-05-29T09:39:20Z</time>
      </trkpt>
      <trkpt lat="45.05431" lon="5.7682">
        <ele>540.8</ele>
        <time>2021-05-29T09:39:21Z</time>
      </trkpt>
      <trkpt lat="45.05423" lon="5.76828">
        <ele>541</ele>
        <time>2021-05-29T09:39:22Z</time>
      </trkpt>
      <trkpt lat="45.05415" lon="5.76836">
        <ele>541.4</ele>
        <time>2021-05-29T09:39:23Z</time>
      </trkpt>
      <trkpt lat="45.05407" lon="5.76843">
        <ele>541.8</ele>
        <time>2021-05-29T09:39:24Z</time>
      </trkpt>
      <trkpt lat="45.05399" lon="5.76851">
        <ele>542.2</ele>
        <time>2021-05-29T09:39:25Z</time>
      </trkpt>
      <trkpt lat="45.05391" lon="5.76859">
        <ele>542.6</ele>
        <time>2021-05-29T09:39:26Z</time>
      </trkpt>
      <trkpt lat="45.05383" lon="5.76866">
        <ele>542.8</ele>
        <time>2021-05-29T09:39:27Z</time>
      </trkpt>
      <trkpt lat="45.05375" lon="5.76874">
        <ele>542.6</ele>
        <time>2021-05-29T09:39:28Z</time>
      </trkpt>
      <trkpt lat="45.05367" lon="5.76882">
        <ele>542.6</ele>
        <time>2021-05-29T09:39:29Z</time>
      </trkpt>
      <trkpt lat="45.05359" lon="5.76889">
        <ele>542.6</ele>
        <time>2021-05-29T09:39:30Z</time>
      </trkpt>
      <trkpt lat="45.05351" lon="5.76897">
        <ele>542.8</ele>
        <time>2021-05-29T09:39:31Z</time>
      </trkpt>
      <trkpt lat="45.05343" lon="5.76905">
        <ele>542.6</ele>
        <time>2021-05-29T09:39:32Z</time>
      </trkpt>
      <trkpt lat="45.05335" lon="5.76912">
        <ele>542.4</ele>
        <time>2021-05-29T09:39:33Z</time>
      </trkpt>
      <trkpt lat="45.05327" lon="5.7692">
        <ele>542.4</ele>
        <time>2021-05-29T09:39:34Z</time>
      </trkpt>
      <trkpt lat="45.05319" lon="5.76928">
        <ele>542.2</ele>
        <time>2021-05-29T09:39:35Z</time>
      </trkpt>
      <trkpt lat="45.05311" lon="5.76935">
        <ele>542</ele>
        <time>2021-05-29T09:39:36Z</time>
      </trkpt>
      <trkpt lat="45.05303" lon="5.76943">
        <ele>541.6</ele>
        <time>2021-05-29T09:39:37Z</time>
      </trkpt>
      <trkpt lat="45.05295" lon="5.76951">
        <ele>541.4</ele>
        <time>2021-05-29T09:39:38Z</time>
      </trkpt>
      <trkpt lat="45.05287" lon="5.76958">
        <ele>541.4</ele>
        <time>2021-05-29T09:39:39Z</time>
      </trkpt>
      <trkpt lat="45.05279" lon="5.76966">
        <ele>541.2</ele>
        <time>2021-05-29T09:39:40Z</time>
      </trkpt>
      <trkpt lat="45.05271" lon="5.76974">
        <ele>541.4</ele>
        <time>2021-05-29T09:39:41Z</time>
      </trkpt>
      <trkpt lat="45.05263" lon="5.76981">
        <ele>541.4</ele>
        <time>2021-05-29T09:39:42Z</time>
      </trkpt>
      <trkpt lat="45.05255" lon="5.76989">
        <ele>541.4</ele>
        <time>2021-05-29T09:39:43Z</time>
      </trkpt>
      <trkpt lat="45.05247" lon="5.76997">
        <ele>541</ele>
        <time>2021-05-29T09:39:44Z</time>
      </trkpt>
      <trkpt lat="45.05239" lon="5.77004">
        <ele>540.6</ele>
        <time>2021-05-29T09:39:45Z</time>
      </trkpt>
      <trkpt lat="45.05231" lon="5.77012">
        <ele>540.4</ele>
        <time>2021-05-29T09:39:46Z</time>
      </trkpt>
      <trkpt lat="45.05223" lon="5.7702">
        <ele>539.6</ele>
        <time>2021-05-29T09:39:47Z</time>
      </trkpt>
      <trkpt lat="45.05214" lon="5.77027">
        <ele>539.8</ele>
        <time>2021-05-29T09:39:48Z</time>
      </trkpt>
      <trkpt lat="45.05206" lon="5.77035">
        <ele>539.2</ele>
        <time>2021-05-29T09:39:49Z</time>
      </trkpt>
      <trkpt lat="45.05198" lon="5.77043">
        <ele>539.4</ele>
        <time>2021-05-29T09:39:50Z</time>
      </trkpt>
      <trkpt lat="45.0519" lon="5.7705">
        <ele>539</ele>
        <time>2021-05-29T09:39:51Z</time>
      </trkpt>
      <trkpt lat="45.05182" lon="5.77058">
        <ele>538.6</ele>
        <time>2021-05-29T09:39:52Z</time>
      </trkpt>
      <trkpt lat="45.05174" lon="5.77066">
        <ele>538.4</ele>
        <time>2021-05-29T09:39:53Z</time>
      </trkpt>
      <trkpt lat="45.05166" lon="5.77073">
        <ele>538.2</ele>
        <time>2021-05-29T09:39:54Z</time>
      </trkpt>
      <trkpt lat="45.05158" lon="5.77081">
        <ele>538</ele>
        <time>2021-05-29T09:39:55Z</time>
      </trkpt>
      <trkpt lat="45.0515" lon="5.77089">
        <ele>537.8</ele>
        <time>2021-05-29T09:39:56Z</time>
      </trkpt>
      <trkpt lat="45.05142" lon="5.77096">
        <ele>537.8</ele>
        <time>2021-05-29T09:39:57Z</time>
      </trkpt>
      <trkpt lat="45.05134" lon="5.77104">
        <ele>538</ele>
        <time>2021-05-29T09:39:58Z</time>
      </trkpt>
      <trkpt lat="45.05126" lon="5.77112">
        <ele>538.4</ele>
        <time>2021-05-29T09:40:00Z</time>
      </trkpt>
      <trkpt lat="45.05118" lon="5.77119">
        <ele>538.6</ele>
        <time>2021-05-29T09:40:01Z</time>
      </trkpt>
      <trkpt lat="45.0511" lon="5.77127">
        <ele>538.6</ele>
        <time>2021-05-29T09:40:02Z</time>
      </trkpt>
      <trkpt lat="45.05102" lon="5.77134">
        <ele>539</ele>
        <time>2021-05-29T09:40:03Z</time>
      </trkpt>
      <trkpt lat="45.05094" lon="5.77142">
        <ele>539</ele>
        <time>2021-05-29T09:40:04Z</time>
      </trkpt>
      <trkpt lat="45.05086" lon="5.7715">
        <ele>539.4</ele>
        <time>2021-05-29T09:40:05Z</time>
      </trkpt>
      <trkpt lat="45.05078" lon="5.77157">
        <ele>539.2</ele>
        <time>2021-05-29T09:40:06Z</time>
      </trkpt>
      <trkpt lat="45.0507" lon="5.77165">
        <ele>539.4</ele>
        <time>2021-05-29T09:40:07Z</time>
      </trkpt>
      <trkpt lat="45.05062" lon="5.77173">
        <ele>539.4</ele>
        <time>2021-05-29T09:40:08Z</time>
      </trkpt>
      <trkpt lat="45.05054" lon="5.7718">
        <ele>539.6</ele>
        <time>2021-05-29T09:40:09Z</time>
      </trkpt>
      <trkpt lat="45.05046" lon="5.77188">
        <ele>539.4</ele>
        <time>2021-05-29T09:40:10Z</time>
      </trkpt>
      <trkpt lat="45.05038" lon="5.77196">
        <ele>539.4</ele>
        <time>2021-05-29T09:40:11Z</time>
      </trkpt>
      <trkpt lat="45.0503" lon="5.77203">
        <ele>539.2</ele>
        <time>2021-05-29T09:40:12Z</time>
      </trkpt>
      <trkpt lat="45.05022" lon="5.77211">
        <ele>539.2</ele>
        <time>2021-05-29T09:40:13Z</time>
      </trkpt>
      <trkpt lat="45.05014" lon="5.77219">
        <ele>539.4</ele>
        <time>2021-05-29T09:40:14Z</time>
      </trkpt>
      <trkpt lat="45.05006" lon="5.77226">
        <ele>539.2</ele>
        <time>2021-05-29T09:40:15Z</time>
      </trkpt>
      <trkpt lat="45.04998" lon="5.77234">
        <ele>539.2</ele>
        <time>2021-05-29T09:40:16Z</time>
      </trkpt>
      <trkpt lat="45.0499" lon="5.77242">
        <ele>539</ele>
        <time>2021-05-29T09:40:17Z</time>
      </trkpt>
      <trkpt lat="45.04982" lon="5.77249">
        <ele>539</ele>
        <time>2021-05-29T09:40:18Z</time>
      </trkpt>
      <trkpt lat="45.04974" lon="5.77257">
        <ele>539</ele>
        <time>2021-05-29T09:40:19Z</time>
      </trkpt>
      <trkpt lat="45.04966" lon="5.77265">
        <ele>539</ele>
        <time>2021-05-29T09:40:20Z</time>
      </trkpt>
      <trkpt lat="45.04958" lon="5.77272">
        <ele>539</ele>
        <time>2021-05-29T09:40:21Z</time>
      </trkpt>
      <trkpt lat="45.0495" lon="5.7728">
        <ele>538.8</ele>
        <time>2021-05-29T09:40:22Z</time>
      </trkpt>
      <trkpt lat="45.04942" lon="5.77288">
        <ele>538.8</ele>
        <time>2021-05-29T09:40:23Z</time>
      </trkpt>
      <trkpt lat="45.04934" lon="5.77295">
        <ele>538.6</ele>
        <time>2021-05-29T09:40:24Z</time>
      </trkpt>
      <trkpt lat="45.04926" lon="5.77303">
        <ele>538.8</ele>
        <time>2021-05-29T09:40:25Z</time>
      </trkpt>
      <trkpt lat="45.04918" lon="5.77311">
        <ele>539</ele>
        <time>2021-05-29T09:40:26Z</time>
      </trkpt>
      <trkpt lat="45.04909" lon="5.77318">
        <ele>539</ele>
        <time>2021-05-29T09:40:27Z</time>
      </trkpt>
      <trkpt lat="45.04901" lon="5.77326">
        <ele>538.8</ele>
        <time>2021-05-29T09:40:28Z</time>
      </trkpt>
      <trkpt lat="45.04893" lon="5.77334">
        <ele>539</ele>
        <time>2021-05-29T09:40:29Z</time>
      </trkpt>
      <trkpt lat="45.04885" lon="5.77341">
        <ele>538.8</ele>
        <time>2021-05-29T09:40:30Z</time>
      </trkpt>
      <trkpt lat="45.04877" lon="5.77349">
        <ele>538.8</ele>
        <time>2021-05-29T09:40:31Z</time>
      </trkpt>
      <trkpt lat="45.04869" lon="5.77357">
        <ele>539</ele>
        <time>2021-05-29T09:40:32Z</time>
      </trkpt>
      <trkpt lat="45.04861" lon="5.77364">
        <ele>539</ele>
        <time>2021-05-29T09:40:33Z</time>
      </trkpt>
      <trkpt lat="45.04853" lon="5.77372">
        <ele>539</ele>
        <time>2021-05-29T09:40:34Z</time>
      </trkpt>
      <trkpt lat="45.04845" lon="5.7738">
        <ele>539</ele>
        <time>2021-05-29T09:40:35Z</time>
      </trkpt>
      <trkpt lat="45.04837" lon="5.77387">
        <ele>539</ele>
        <time>2021-05-29T09:40:36Z</time>
      </trkpt>
      <trkpt lat="45.04829" lon="5.77395">
        <ele>539</ele>
        <time>2021-05-29T09:40:37Z</time>
      </trkpt>
      <trkpt lat="45.04821" lon="5.77403">
        <ele>539</ele>
        <time>2021-05-29T09:40:38Z</time>
      </trkpt>
      <trkpt lat="45.04813" lon="5.7741">
        <ele>539.2</ele>
        <time>2021-05-29T09:40:39Z</time>
      </trkpt>
      <trkpt lat="45.04805" lon="5.77418">
        <ele>539</ele>
        <time>2021-05-29T09:40:40Z</time>
      </trkpt>
      <trkpt lat="45.04797" lon="5.77426">
        <ele>539.2</ele>
        <time>2021-05-29T09:40:41Z</time>
      </trkpt>
      <trkpt lat="45.04789" lon="5.77433">
        <ele>539</ele>
        <time>2021-05-29T09:40:42Z</time>
      </trkpt>
      <trkpt lat="45.04781" lon="5.77441">
        <ele>539.2</ele>
        <time>2021-05-29T09:40:43Z</time>
      </trkpt>
      <trkpt lat="45.04773" lon="5.77448">
        <ele>539.2</ele>
        <time>2021-05-29T09:40:44Z</time>
      </trkpt>
      <trkpt lat="45.04765" lon="5.77456">
        <ele>539.2</ele>
        <time>2021-05-29T09:40:45Z</time>
      </trkpt>
      <trkpt lat="45.04757" lon="5.77464">
        <ele>539.4</ele>
        <time>2021-05-29T09:40:46Z</time>
      </trkpt>
      <trkpt lat="45.04749" lon="5.77471">
        <ele>539.2</ele>
        <time>2021-05-29T09:40:47Z</time>
      </trkpt>
      <trkpt lat="45.04048" lon="5.78127">
        <ele>539.2</ele>
        <time>2021-05-29T09:40:48Z</time>
      </trkpt>
      <trkpt lat="45.04051" lon="5.78124">
        <ele>539.4</ele>
        <time>2021-05-29T09:40:49Z</time>
      </trkpt>
      <trkpt lat="45.04054" lon="5.78121">
        <ele>539.4</ele>
        <time>2021-05-29T09:40:50Z</time>
      </trkpt>
      <trkpt lat="45.04057" lon="5.78117">
        <ele>539.8</ele>
        <time>2021-05-29T09:40:51Z</time>
      </trkpt>
      <trkpt lat="45.0406" lon="5.78114">
        <ele>539.6</ele>
        <time>2021-05-29T09:40:52Z</time>
      </trkpt>
      <trkpt lat="45.04063" lon="5.78111">
        <ele>539.6</ele>
        <time>2021-05-29T09:40:53Z</time>
      </trkpt>
      <trkpt lat="45.04066" lon="5.78107">
        <ele>539.8</ele>
        <time>2021-05-29T09:40:54Z</time>
      </trkpt>
      <trkpt lat="45.04069" lon="5.78104">
        <ele>539.8</ele>
        <time>2021-05-29T09:40:55Z</time>
      </trkpt>
      <trkpt lat="45.04072" lon="5.78101">
        <ele>539.8</ele>
        <time>2021-05-29T09:40:56Z</time>
      </trkpt>
      <trkpt lat="45.04076" lon="5.78098">
        <ele>539.8</ele>
        <time>2021-05-29T09:40:57Z</time>
      </trkpt>
      <trkpt lat="45.04079" lon="5.78094">
        <ele>540</ele>
        <time>2021-05-29T09:40:58Z</time>
      </trkpt>
      <trkpt lat="45.04082" lon="5.78091">
        <ele>540.2</ele>
        <time>2021-05-29T09:40:59Z</time>
      </trkpt>
      <trkpt lat="45.04085" lon="5.78088">
        <ele>540.2</ele>
        <time>2021-05-29T09:41:00Z</time>
      </trkpt>
      <trkpt lat="45.04088" lon="5.78085">
        <ele>540.2</ele>
        <time>2021-05-29T09:41:01Z</time>
      </trkpt>
      <trkpt lat="45.04091" lon="5.78081">
        <ele>540.2</ele>
        <time>2021-05-29T09:41:02Z</time>
      </trkpt>
      <trkpt lat="45.04094" lon="5.78078">
        <ele>540.2</ele>
        <time>2021-05-29T09:41:03Z</time>
      </trkpt>
      <trkpt lat="45.04097" lon="5.78075">
        <ele>539.8</ele>
        <time>2021-05-29T09:41:04Z</time>
      </trkpt>
      <trkpt lat="45.041" lon="5.78071">
        <ele>539.8</ele>
        <time>2021-05-29T09:41:05Z</time>
      </trkpt>
      <trkpt lat="45.04103" lon="5.78068">
        <ele>539.4</ele>
        <time>2021-05-29T09:41:06Z</time>
      </trkpt>
      <trkpt lat="45.04106" lon="5.78065">
        <ele>538.8</ele>
        <time>2021-05-29T09:41:07Z</time>
      </trkpt>
      <trkpt lat="45.04109" lon="5.78062">
        <ele>538.2</ele>
        <time>2021-05-29T09:41:08Z</time>
      </trkpt>
      <trkpt lat="45.04112" lon="5.78058">
        <ele>538</ele>
        <time>2021-05-29T09:41:09Z</time>
      </trkpt>
      <trkpt lat="45.04115" lon="5.78055">
        <ele>538.4</ele>
        <time>2021-05-29T09:41:10Z</time>
      </trkpt>
      <trkpt lat="45.04118" lon="5.78052">
        <ele>538.2</ele>
        <time>2021-05-29T09:41:11Z</time>
      </trkpt>
      <trkpt lat="45.04122" lon="5.78049">
        <ele>538.4</ele>
        <time>2021-05-29T09:41:12Z</time>
      </trkpt>
      <trkpt lat="45.04125" lon="5.78045">
        <ele>538.2</ele>
        <time>2021-05-29T09:41:13Z</time>
      </trkpt>
      <trkpt lat="45.04128" lon="5.78042">
        <ele>538</ele>
        <time>2021-05-29T09:41:14Z</time>
      </trkpt>
      <trkpt lat="45.04131" lon="5.78039">
        <ele>537.4</ele>
        <time>2021-05-29T09:41:15Z</time>
      </trkpt>
      <trkpt lat="45.04134" lon="5.78035">
        <ele>536.8</ele>
        <time>2021-05-29T09:41:16Z</time>
      </trkpt>
      <trkpt lat="45.04137" lon="5.78032">
        <ele>536.8</ele>
        <time>2021-05-29T09:41:17Z</time>
      </trkpt>
      <trkpt lat="45.0414" lon="5.78029">
        <ele>536.4</ele>
        <time>2021-05-29T09:41:18Z</time>
      </trkpt>
      <trkpt lat="45.04143" lon="5.78026">
        <ele>536</ele>
        <time>2021-05-29T09:41:19Z</time>
      </trkpt>
      <trkpt lat="45.04146" lon="5.78022">
        <ele>535.4</ele>
        <time>2021-05-29T09:41:20Z</time>
      </trkpt>
      <trkpt lat="45.04149" lon="5.78019">
        <ele>535</ele>
        <time>2021-05-29T09:41:21Z</time>
      </trkpt>
      <trkpt lat="45.04152" lon="5.78016">
        <ele>534.4</ele>
        <time>2021-05-29T09:41:22Z</time>
      </trkpt>
      <trkpt lat="45.04155" lon="5.78013">
        <ele>534.2</ele>
        <time>2021-05-29T09:41:23Z</time>
      </trkpt>
      <trkpt lat="45.04158" lon="5.78009">
        <ele>533</ele>
        <time>2021-05-29T09:41:24Z</time>
      </trkpt>
      <trkpt lat="45.04161" lon="5.78006">
        <ele>532</ele>
        <time>2021-05-29T09:41:25Z</time>
      </trkpt>
      <trkpt lat="45.04165" lon="5.78003">
        <ele>531.2</ele>
        <time>2021-05-29T09:41:26Z</time>
      </trkpt>
      <trkpt lat="45.04168" lon="5.78">
        <ele>530.4</ele>
        <time>2021-05-29T09:41:27Z</time>
      </trkpt>
      <trkpt lat="45.04171" lon="5.77996">
        <ele>530.4</ele>
        <time>2021-05-29T09:41:28Z</time>
      </trkpt>
      <trkpt lat="45.04174" lon="5.77993">
        <ele>529.8</ele>
        <time>2021-05-29T09:41:29Z</time>
      </trkpt>
      <trkpt lat="45.04177" lon="5.7799">
        <ele>529.6</ele>
        <time>2021-05-29T09:41:30Z</time>
      </trkpt>
      <trkpt lat="45.0418" lon="5.77986">
        <ele>529.2</ele>
        <time>2021-05-29T09:41:31Z</time>
      </trkpt>
      <trkpt lat="45.04183" lon="5.77983">
        <ele>529.2</ele>
        <time>2021-05-29T09:41:32Z</time>
      </trkpt>
      <trkpt lat="45.04186" lon="5.7798">
        <ele>528.6</ele>
        <time>2021-05-29T09:41:33Z</time>
      </trkpt>
      <trkpt lat="45.04189" lon="5.77977">
        <ele>528.6</ele>
        <time>2021-05-29T09:41:34Z</time>
      </trkpt>
      <trkpt lat="45.04192" lon="5.77973">
        <ele>528.2</ele>
        <time>2021-05-29T09:41:35Z</time>
      </trkpt>
      <trkpt lat="45.04195" lon="5.7797">
        <ele>528.2</ele>
        <time>2021-05-29T09:41:36Z</time>
      </trkpt>
      <trkpt lat="45.04198" lon="5.77967">
        <ele>527.8</ele>
        <time>2021-05-29T09:41:37Z</time>
      </trkpt>
      <trkpt lat="45.04201" lon="5.77964">
        <ele>527.8</ele>
        <time>2021-05-29T09:41:38Z</time>
      </trkpt>
      <trkpt lat="45.04204" lon="5.7796">
        <ele>527.6</ele>
        <time>2021-05-29T09:41:39Z</time>
      </trkpt>
      <trkpt lat="45.04207" lon="5.77957">
        <ele>527.6</ele>
        <time>2021-05-29T09:41:40Z</time>
      </trkpt>
      <trkpt lat="45.04211" lon="5.77954">
        <ele>527.2</ele>
        <time>2021-05-29T09:41:41Z</time>
      </trkpt>
      <trkpt lat="45.04214" lon="5.7795">
        <ele>527.2</ele>
        <time>2021-05-29T09:41:42Z</time>
      </trkpt>
      <trkpt lat="45.04217" lon="5.77947">
        <ele>527</ele>
        <time>2021-05-29T09:41:43Z</time>
      </trkpt>
      <trkpt lat="45.0422" lon="5.77944">
        <ele>527</ele>
        <time>2021-05-29T09:41:44Z</time>
      </trkpt>
      <trkpt lat="45.04223" lon="5.77941">
        <ele>526.6</ele>
        <time>2021-05-29T09:41:45Z</time>
      </trkpt>
      <trkpt lat="45.04226" lon="5.77937">
        <ele>526.6</ele>
        <time>2021-05-29T09:41:46Z</time>
      </trkpt>
      <trkpt lat="45.04229" lon="5.77934">
        <ele>526.2</ele>
        <time>2021-05-29T09:41:47Z</time>
      </trkpt>
      <trkpt lat="45.04232" lon="5.77931">
        <ele>525.6</ele>
        <time>2021-05-29T09:41:48Z</time>
      </trkpt>
      <trkpt lat="45.04235" lon="5.77928">
        <ele>525.6</ele>
        <time>2021-05-29T09:41:49Z</time>
      </trkpt>
      <trkpt lat="45.04238" lon="5.77924">
        <ele>525.2</ele>
        <time>2021-05-29T09:41:50Z</time>
      </trkpt>
      <trkpt lat="45.04241" lon="5.77921">
        <ele>525.4</ele>
        <time>2021-05-29T09:41:51Z</time>
      </trkpt>
      <trkpt lat="45.04244" lon="5.77918">
        <ele>525</ele>
        <time>2021-05-29T09:41:52Z</time>
      </trkpt>
      <trkpt lat="45.04247" lon="5.77915">
        <ele>524.8</ele>
        <time>2021-05-29T09:41:53Z</time>
      </trkpt>
      <trkpt lat="45.0425" lon="5.77911">
        <ele>524.2</ele>
        <time>2021-05-29T09:41:54Z</time>
      </trkpt>
      <trkpt lat="45.04253" lon="5.77908">
        <ele>524.2</ele>
        <time>2021-05-29T09:41:55Z</time>
      </trkpt>
      <trkpt lat="45.04257" lon="5.77905">
        <ele>523.4</ele>
        <time>2021-05-29T09:41:56Z</time>
      </trkpt>
      <trkpt lat="45.0426" lon="5.77901">
        <ele>522.6</ele>
        <time>2021-05-29T09:41:57Z</time>
      </trkpt>
      <trkpt lat="45.04263" lon="5.77898">
        <ele>522.4</ele>
        <time>2021-05-29T09:41:58Z</time>
      </trkpt>
      <trkpt lat="45.04266" lon="5.77895">
        <ele>522</ele>
        <time>2021-05-29T09:41:59Z</time>
      </trkpt>
      <trkpt lat="45.04269" lon="5.77892">
        <ele>521.8</ele>
        <time>2021-05-29T09:42:00Z</time>
      </trkpt>
      <trkpt lat="45.04272" lon="5.77888">
        <ele>521.2</ele>
        <time>2021-05-29T09:42:01Z</time>
      </trkpt>
      <trkpt lat="45.04275" lon="5.77885">
        <ele>520.4</ele>
        <time>2021-05-29T09:42:02Z</time>
      </trkpt>
      <trkpt lat="45.04278" lon="5.77882">
        <ele>519.6</ele>
        <time>2021-05-29T09:42:03Z</time>
      </trkpt>
      <trkpt lat="45.04281" lon="5.77879">
        <ele>518.8</ele>
        <time>2021-05-29T09:42:04Z</time>
      </trkpt>
      <trkpt lat="45.04284" lon="5.77875">
        <ele>517.6</ele>
        <time>2021-05-29T09:42:05Z</time>
      </trkpt>
      <trkpt lat="45.04287" lon="5.77872">
        <ele>516.8</ele>
        <time>2021-05-29T09:42:06Z</time>
      </trkpt>
      <trkpt lat="45.0429" lon="5.77869">
        <ele>515.8</ele>
        <time>2021-05-29T09:42:07Z</time>
      </trkpt>
      <trkpt lat="45.04293" lon="5.77865">
        <ele>514.8</ele>
        <time>2021-05-29T09:42:08Z</time>
      </trkpt>
      <trkpt lat="45.04296" lon="5.77862">
        <ele>514.2</ele>
        <time>2021-05-29T09:42:09Z</time>
      </trkpt>
      <trkpt lat="45.04299" lon="5.77859">
        <ele>513.4</ele>
        <time>2021-05-29T09:42:10Z</time>
      </trkpt>
      <trkpt lat="45.04303" lon="5.77856">
        <ele>512.6</ele>
        <time>2021-05-29T09:42:11Z</time>
      </trkpt>
      <trkpt lat="45.04306" lon="5.77852">
        <ele>511.8</ele>
        <time>2021-05-29T09:42:12Z</time>
      </trkpt>
      <trkpt lat="45.04309" lon="5.77849">
        <ele>510.8</ele>
        <time>2021-05-29T09:42:13Z</time>
      </trkpt>
      <trkpt lat="45.04312" lon="5.77846">
        <ele>511</ele>
        <time>2021-05-29T09:42:14Z</time>
      </trkpt>
      <trkpt lat="45.04315" lon="5.77843">
        <ele>510.4</ele>
        <time>2021-05-29T09:42:15Z</time>
      </trkpt>
      <trkpt lat="45.04318" lon="5.77839">
        <ele>510.2</ele>
        <time>2021-05-29T09:42:16Z</time>
      </trkpt>
      <trkpt lat="45.04321" lon="5.77836">
        <ele>509.8</ele>
        <time>2021-05-29T09:42:17Z</time>
      </trkpt>
      <trkpt lat="45.04324" lon="5.77833">
        <ele>508.6</ele>
        <time>2021-05-29T09:42:18Z</time>
      </trkpt>
      <trkpt lat="45.04327" lon="5.77829">
        <ele>507.6</ele>
        <time>2021-05-29T09:42:19Z</time>
      </trkpt>
      <trkpt lat="45.0433" lon="5.77826">
        <ele>506.6</ele>
        <time>2021-05-29T09:42:20Z</time>
      </trkpt>
      <trkpt lat="45.04333" lon="5.77823">
        <ele>506.4</ele>
        <time>2021-05-29T09:42:21Z</time>
      </trkpt>
      <trkpt lat="45.04336" lon="5.7782">
        <ele>506</ele>
        <time>2021-05-29T09:42:22Z</time>
      </trkpt>
      <trkpt lat="45.04339" lon="5.77816">
        <ele>505.8</ele>
        <time>2021-05-29T09:42:23Z</time>
      </trkpt>
      <trkpt lat="45.04342" lon="5.77813">
        <ele>505.2</ele>
        <time>2021-05-29T09:42:24Z</time>
      </trkpt>
      <trkpt lat="45.04345" lon="5.7781">
        <ele>504.2</ele>
        <time>2021-05-29T09:42:25Z</time>
      </trkpt>
      <trkpt lat="45.04349" lon="5.77807">
        <ele>504.2</ele>
        <time>2021-05-29T09:42:26Z</time>
      </trkpt>
      <trkpt lat="45.04352" lon="5.77803">
        <ele>503.6</ele>
        <time>2021-05-29T09:42:27Z</time>
      </trkpt>
      <trkpt lat="45.04355" lon="5.778">
        <ele>503.4</ele>
        <time>2021-05-29T09:42:28Z</time>
      </trkpt>
      <trkpt lat="45.04358" lon="5.77797">
        <ele>502.8</ele>
        <time>2021-05-29T09:42:29Z</time>
      </trkpt>
      <trkpt lat="45.04361" lon="5.77794">
        <ele>502.2</ele>
        <time>2021-05-29T09:42:30Z</time>
      </trkpt>
      <trkpt lat="45.04364" lon="5.7779">
        <ele>501.6</ele>
        <time>2021-05-29T09:42:31Z</time>
      </trkpt>
      <trkpt lat="45.04367" lon="5.77787">
        <ele>500.6</ele>
        <time>2021-05-29T09:42:32Z</time>
      </trkpt>
      <trkpt lat="45.0437" lon="5.77784">
        <ele>500.6</ele>
        <time>2021-05-29T09:42:33Z</time>
      </trkpt>
      <trkpt lat="45.04373" lon="5.7778">
        <ele>500.2</ele>
        <time>2021-05-29T09:42:34Z</time>
      </trkpt>
      <trkpt lat="45.04376" lon="5.77777">
        <ele>499.8</ele>
        <time>2021-05-29T09:42:35Z</time>
      </trkpt>
      <trkpt lat="45.04379" lon="5.77774">
        <ele>499.2</ele>
        <time>2021-05-29T09:42:36Z</time>
      </trkpt>
      <trkpt lat="45.04382" lon="5.77771">
        <ele>498.2</ele>
        <time>2021-05-29T09:42:37Z</time>
      </trkpt>
      <trkpt lat="45.04385" lon="5.77767">
        <ele>498</ele>
        <time>2021-05-29T09:42:38Z</time>
      </trkpt>
      <trkpt lat="45.04388" lon="5.77764">
        <ele>497.4</ele>
        <time>2021-05-29T09:42:39Z</time>
      </trkpt>
      <trkpt lat="45.04391" lon="5.77761">
        <ele>497.2</ele>
        <time>2021-05-29T09:42:40Z</time>
      </trkpt>
      <trkpt lat="45.04395" lon="5.77758">
        <ele>496.6</ele>
        <time>2021-05-29T09:42:41Z</time>
      </trkpt>
      <trkpt lat="45.04398" lon="5.77754">
        <ele>496.2</ele>
        <time>2021-05-29T09:42:42Z</time>
      </trkpt>
      <trkpt lat="45.04401" lon="5.77751">
        <ele>495.6</ele>
        <time>2021-05-29T09:42:43Z</time>
      </trkpt>
      <trkpt lat="45.04404" lon="5.77748">
        <ele>494.8</ele>
        <time>2021-05-29T09:42:44Z</time>
      </trkpt>
      <trkpt lat="45.04407" lon="5.77744">
        <ele>494.8</ele>
        <time>2021-05-29T09:42:45Z</time>
      </trkpt>
      <trkpt lat="45.0441" lon="5.77741">
        <ele>494.4</ele>
        <time>2021-05-29T09:42:46Z</time>
      </trkpt>
      <trkpt lat="45.04413" lon="5.77738">
        <ele>494.2</ele>
        <time>2021-05-29T09:42:47Z</time>
      </trkpt>
      <trkpt lat="45.04416" lon="5.77735">
        <ele>493.8</ele>
        <time>2021-05-29T09:42:48Z</time>
      </trkpt>
      <trkpt lat="45.04419" lon="5.77731">
        <ele>493</ele>
        <time>2021-05-29T09:42:49Z</time>
      </trkpt>
      <trkpt lat="45.04422" lon="5.77728">
        <ele>492.4</ele>
        <time>2021-05-29T09:42:50Z</time>
      </trkpt>
      <trkpt lat="45.04425" lon="5.77725">
        <ele>492.2</ele>
        <time>2021-05-29T09:42:51Z</time>
      </trkpt>
      <trkpt lat="45.04428" lon="5.77722">
        <ele>491.8</ele>
        <time>2021-05-29T09:42:52Z</time>
      </trkpt>
      <trkpt lat="45.04431" lon="5.77718">
        <ele>490.6</ele>
        <time>2021-05-29T09:42:53Z</time>
      </trkpt>
      <trkpt lat="45.04434" lon="5.77715">
        <ele>490.4</ele>
        <time>2021-05-29T09:42:54Z</time>
      </trkpt>
      <trkpt lat="45.04437" lon="5.77712">
        <ele>489.8</ele>
        <time>2021-05-29T09:42:55Z</time>
      </trkpt>
      <trkpt lat="45.04441" lon="5.77708">
        <ele>489.6</ele>
        <time>2021-05-29T09:42:56Z</time>
      </trkpt>
      <trkpt lat="45.04444" lon="5.77705">
        <ele>489</ele>
        <time>2021-05-29T09:42:57Z</time>
      </trkpt>
      <trkpt lat="45.04447" lon="5.77702">
        <ele>488.6</ele>
        <time>2021-05-29T09:42:58Z</time>
      </trkpt>
      <trkpt lat="45.0445" lon="5.77699">
        <ele>487.6</ele>
        <time>2021-05-29T09:42:59Z</time>
      </trkpt>
      <trkpt lat="45.04453" lon="5.77695">
        <ele>486.6</ele>
        <time>2021-05-29T09:43:00Z</time>
      </trkpt>
      <trkpt lat="45.04456" lon="5.77692">
        <ele>486.4</ele>
        <time>2021-05-29T09:43:01Z</time>
      </trkpt>
      <trkpt lat="45.04459" lon="5.77689">
        <ele>485.8</ele>
        <time>2021-05-29T09:43:02Z</time>
      </trkpt>
      <trkpt lat="45.04462" lon="5.77686">
        <ele>485.4</ele>
        <time>2021-05-29T09:43:03Z</time>
      </trkpt>
      <trkpt lat="45.04465" lon="5.77682">
        <ele>484.4</ele>
        <time>2021-05-29T09:43:04Z</time>
      </trkpt>
      <trkpt lat="45.04468" lon="5.77679">
        <ele>483.8</ele>
        <time>2021-05-29T09:43:05Z</time>
      </trkpt>
      <trkpt lat="45.04471" lon="5.77676">
        <ele>483.6</ele>
        <time>2021-05-29T09:43:06Z</time>
      </trkpt>
      <trkpt lat="45.04474" lon="5.77673">
        <ele>483.2</ele>
        <time>2021-05-29T09:43:07Z</time>
      </trkpt>
      <trkpt lat="45.04477" lon="5.77669">
        <ele>483.2</ele>
        <time>2021-05-29T09:43:08Z</time>
      </trkpt>
      <trkpt lat="45.0448" lon="5.77666">
        <ele>483</ele>
        <time>2021-05-29T09:43:09Z</time>
      </trkpt>
      <trkpt lat="45.04483" lon="5.77663">
        <ele>482.8</ele>
        <time>2021-05-29T09:43:10Z</time>
      </trkpt>
      <trkpt lat="45.04487" lon="5.77659">
        <ele>482.8</ele>
        <time>2021-05-29T09:43:11Z</time>
      </trkpt>
      <trkpt lat="45.0449" lon="5.77656">
        <ele>482.6</ele>
        <time>2021-05-29T09:43:12Z</time>
      </trkpt>
      <trkpt lat="45.04493" lon="5.77653">
        <ele>482.4</ele>
        <time>2021-05-29T09:43:13Z</time>
      </trkpt>
      <trkpt lat="45.04496" lon="5.7765">
        <ele>482.8</ele>
        <time>2021-05-29T09:43:14Z</time>
      </trkpt>
      <trkpt lat="45.04499" lon="5.77646">
        <ele>482.8</ele>
        <time>2021-05-29T09:43:15Z</time>
      </trkpt>
      <trkpt lat="45.04502" lon="5.77643">
        <ele>483</ele>
        <time>2021-05-29T09:43:16Z</time>
      </trkpt>
      <trkpt lat="45.04505" lon="5.7764">
        <ele>482.6</ele>
        <time>2021-05-29T09:43:17Z</time>
      </trkpt>
      <trkpt lat="45.04508" lon="5.77637">
        <ele>482.4</ele>
        <time>2021-05-29T09:43:18Z</time>
      </trkpt>
      <trkpt lat="45.04511" lon="5.77633">
        <ele>482</ele>
        <time>2021-05-29T09:43:19Z</time>
      </trkpt>
      <trkpt lat="45.04514" lon="5.7763">
        <ele>481.4</ele>
        <time>2021-05-29T09:43:20Z</time>
      </trkpt>
      <trkpt lat="45.04517" lon="5.77627">
        <ele>481.8</ele>
        <time>2021-05-29T09:43:21Z</time>
      </trkpt>
      <trkpt lat="45.0452" lon="5.77623">
        <ele>481.4</ele>
        <time>2021-05-29T09:43:22Z</time>
      </trkpt>
      <trkpt lat="45.04523" lon="5.7762">
        <ele>481.4</ele>
        <time>2021-05-29T09:43:23Z</time>
      </trkpt>
      <trkpt lat="45.04526" lon="5.77617">
        <ele>481</ele>
        <time>2021-05-29T09:43:24Z</time>
      </trkpt>
      <trkpt lat="45.04529" lon="5.77614">
        <ele>480.4</ele>
        <time>2021-05-29T09:43:25Z</time>
      </trkpt>
      <trkpt lat="45.04533" lon="5.7761">
        <ele>480.2</ele>
        <time>2021-05-29T09:43:26Z</time>
      </trkpt>
      <trkpt lat="45.04536" lon="5.77607">
        <ele>479.8</ele>
        <time>2021-05-29T09:43:27Z</time>
      </trkpt>
      <trkpt lat="45.04539" lon="5.77604">
        <ele>479.4</ele>
        <time>2021-05-29T09:43:28Z</time>
      </trkpt>
      <trkpt lat="45.04542" lon="5.77601">
        <ele>479</ele>
        <time>2021-05-29T09:43:29Z</time>
      </trkpt>
      <trkpt lat="45.04545" lon="5.77597">
        <ele>478.6</ele>
        <time>2021-05-29T09:43:30Z</time>
      </trkpt>
      <trkpt lat="45.04548" lon="5.77594">
        <ele>477.8</ele>
        <time>2021-05-29T09:43:31Z</time>
      </trkpt>
      <trkpt lat="45.04551" lon="5.77591">
        <ele>477.2</ele>
        <time>2021-05-29T09:43:32Z</time>
      </trkpt>
      <trkpt lat="45.04554" lon="5.77587">
        <ele>476.2</ele>
        <time>2021-05-29T09:43:33Z</time>
      </trkpt>
      <trkpt lat="45.04557" lon="5.77584">
        <ele>475</ele>
        <time>2021-05-29T09:43:34Z</time>
      </trkpt>
      <trkpt lat="45.0456" lon="5.77581">
        <ele>474.8</ele>
        <time>2021-05-29T09:43:35Z</time>
      </trkpt>
      <trkpt lat="45.04563" lon="5.77578">
        <ele>474.2</ele>
        <time>2021-05-29T09:43:36Z</time>
      </trkpt>
      <trkpt lat="45.04566" lon="5.77574">
        <ele>473.8</ele>
        <time>2021-05-29T09:43:37Z</time>
      </trkpt>
      <trkpt lat="45.04569" lon="5.77571">
        <ele>473.2</ele>
        <time>2021-05-29T09:43:38Z</time>
      </trkpt>
      <trkpt lat="45.04572" lon="5.77568">
        <ele>472.6</ele>
        <time>2021-05-29T09:43:39Z</time>
      </trkpt>
      <trkpt lat="45.04576" lon="5.77565">
        <ele>472</ele>
        <time>2021-05-29T09:43:40Z</time>
      </trkpt>
      <trkpt lat="45.04579" lon="5.77561">
        <ele>471.2</ele>
        <time>2021-05-29T09:43:41Z</time>
      </trkpt>
      <trkpt lat="45.04582" lon="5.77558">
        <ele>470.8</ele>
        <time>2021-05-29T09:43:42Z</time>
      </trkpt>
      <trkpt lat="45.04585" lon="5.77555">
        <ele>470.2</ele>
        <time>2021-05-29T09:43:43Z</time>
      </trkpt>
      <trkpt lat="45.04588" lon="5.77552">
        <ele>470.2</ele>
        <time>2021-05-29T09:43:44Z</time>
      </trkpt>
      <trkpt lat="45.04591" lon="5.77548">
        <ele>469.8</ele>
        <time>2021-05-29T09:43:45Z</time>
      </trkpt>
      <trkpt lat="45.04594" lon="5.77545">
        <ele>469.8</ele>
        <time>2021-05-29T09:43:46Z</time>
      </trkpt>
      <trkpt lat="45.04597" lon="5.77542">
        <ele>469.6</ele>
        <time>2021-05-29T09:43:47Z</time>
      </trkpt>
      <trkpt lat="45.046" lon="5.77538">
        <ele>469.8</ele>
        <time>2021-05-29T09:43:48Z</time>
      </trkpt>
      <trkpt lat="45.04603" lon="5.77535">
        <ele>469.6</ele>
        <time>2021-05-29T09:43:49Z</time>
      </trkpt>
      <trkpt lat="45.04606" lon="5.77532">
        <ele>469.8</ele>
        <time>2021-05-29T09:43:50Z</time>
      </trkpt>
      <trkpt lat="45.04609" lon="5.77529">
        <ele>469.6</ele>
        <time>2021-05-29T09:43:51Z</time>
      </trkpt>
      <trkpt lat="45.04612" lon="5.77525">
        <ele>469.8</ele>
        <time>2021-05-29T09:43:52Z</time>
      </trkpt>
      <trkpt lat="45.04615" lon="5.77522">
        <ele>469.4</ele>
        <time>2021-05-29T09:43:53Z</time>
      </trkpt>
      <trkpt lat="45.04618" lon="5.77519">
        <ele>469.4</ele>
        <time>2021-05-29T09:43:54Z</time>
      </trkpt>
      <trkpt lat="45.04622" lon="5.77516">
        <ele>468.8</ele>
        <time>2021-05-29T09:43:55Z</time>
      </trkpt>
      <trkpt lat="45.04625" lon="5.77512">
        <ele>468.4</ele>
        <time>2021-05-29T09:43:56Z</time>
      </trkpt>
      <trkpt lat="45.04628" lon="5.77509">
        <ele>467.8</ele>
        <time>2021-05-29T09:43:57Z</time>
      </trkpt>
      <trkpt lat="45.04631" lon="5.77506">
        <ele>467.8</ele>
        <time>2021-05-29T09:43:58Z</time>
      </trkpt>
      <trkpt lat="45.04634" lon="5.77502">
        <ele>468</ele>
        <time>2021-05-29T09:43:59Z</time>
      </trkpt>
      <trkpt lat="45.04637" lon="5.77499">
        <ele>467.8</ele>
        <time>2021-05-29T09:44:00Z</time>
      </trkpt>
      <trkpt lat="45.0464" lon="5.77496">
        <ele>468</ele>
        <time>2021-05-29T09:44:01Z</time>
      </trkpt>
      <trkpt lat="45.04643" lon="5.77493">
        <ele>467.8</ele>
        <time>2021-05-29T09:44:02Z</time>
      </trkpt>
      <trkpt lat="45.04646" lon="5.77489">
        <ele>467.8</ele>
        <time>2021-05-29T09:44:03Z</time>
      </trkpt>
      <trkpt lat="45.04649" lon="5.77486">
        <ele>467.4</ele>
        <time>2021-05-29T09:44:04Z</time>
      </trkpt>
      <trkpt lat="45.04652" lon="5.77483">
        <ele>467.2</ele>
        <time>2021-05-29T09:44:05Z</time>
      </trkpt>
      <trkpt lat="45.04655" lon="5.7748">
        <ele>466.8</ele>
        <time>2021-05-29T09:44:06Z</time>
      </trkpt>
      <trkpt lat="45.05263" lon="5.76832">
        <ele>466.4</ele>
        <time>2021-05-29T09:44:07Z</time>
      </trkpt>
      <trkpt lat="45.05267" lon="5.76835">
        <ele>466.4</ele>
        <time>2021-05-29T09:44:08Z</time>
      </trkpt>
      <trkpt lat="45.05271" lon="5.76838">
        <ele>466</ele>
        <time>2021-05-29T09:44:09Z</time>
      </trkpt>
      <trkpt lat="45.05271" lon="5.76838">
        <ele>465.6</ele>
        <time>2021-05-29T09:44:10Z</time>
      </trkpt>
      <trkpt lat="45.05271" lon="5.76838">
        <ele>465</ele>
        <time>2021-05-29T09:44:11Z</time>
      </trkpt>
      <trkpt lat="45.05272" lon="5.76842">
        <ele>464.4</ele>
        <time>2021-05-29T09:44:12Z</time>
      </trkpt>
      <trkpt lat="45.05273" lon="5.76846">
        <ele>463.6</ele>
        <time>2021-05-29T09:44:13Z</time>
      </trkpt>
      <trkpt lat="45.05275" lon="5.76849">
        <ele>463</ele>
        <time>2021-05-29T09:44:14Z</time>
      </trkpt>
      <trkpt lat="45.05276" lon="5.76853">
        <ele>462.2</ele>
        <time>2021-05-29T09:44:15Z</time>
      </trkpt>
      <trkpt lat="45.05276" lon="5.76857">
        <ele>461.2</ele>
        <time>2021-05-29T09:44:16Z</time>
      </trkpt>
      <trkpt lat="45.05277" lon="5.7686">
        <ele>461</ele>
        <time>2021-05-29T09:44:17Z</time>
      </trkpt>
      <trkpt lat="45.05278" lon="5.76863">
        <ele>460.2</ele>
        <time>2021-05-29T09:44:18Z</time>
      </trkpt>
      <trkpt lat="45.05278" lon="5.76866">
        <ele>460</ele>
        <time>2021-05-29T09:44:19Z</time>
      </trkpt>
      <trkpt lat="45.0528" lon="5.76868">
        <ele>459.4</ele>
        <time>2021-05-29T09:44:20Z</time>
      </trkpt>
      <trkpt lat="45.05281" lon="5.7687">
        <ele>459</ele>
        <time>2021-05-29T09:44:21Z</time>
      </trkpt>
      <trkpt lat="45.05283" lon="5.76872">
        <ele>458.4</ele>
        <time>2021-05-29T09:44:22Z</time>
      </trkpt>
      <trkpt lat="45.05285" lon="5.76874">
        <ele>457.8</ele>
        <time>2021-05-29T09:44:23Z</time>
      </trkpt>
      <trkpt lat="45.05286" lon="5.76875">
        <ele>457</ele>
        <time>2021-05-29T09:44:24Z</time>
      </trkpt>
      <trkpt lat="45.05287" lon="5.76877">
        <ele>456.6</ele>
        <time>2021-05-29T09:44:25Z</time>
      </trkpt>
      <trkpt lat="45.05289" lon="5.76878">
        <ele>455.8</ele>
        <time>2021-05-29T09:44:26Z</time>
      </trkpt>
      <trkpt lat="45.0529" lon="5.76879">
        <ele>455.2</ele>
        <time>2021-05-29T09:44:27Z</time>
      </trkpt>
      <trkpt lat="45.05291" lon="5.76881">
        <ele>454.6</ele>
        <time>2021-05-29T09:44:28Z</time>
      </trkpt>
      <trkpt lat="45.05292" lon="5.76882">
        <ele>454</ele>
        <time>2021-05-29T09:44:29Z</time>
      </trkpt>
      <trkpt lat="45.05293" lon="5.76884">
        <ele>453.2</ele>
        <time>2021-05-29T09:44:30Z</time>
      </trkpt>
      <trkpt lat="45.05295" lon="5.76886">
        <ele>452.8</ele>
        <time>2021-05-29T09:44:31Z</time>
      </trkpt>
      <trkpt lat="45.05297" lon="5.76888">
        <ele>452.4</ele>
        <time>2021-05-29T09:44:32Z</time>
      </trkpt>
      <trkpt lat="45.05299" lon="5.7689">
        <ele>452.2</ele>
        <time>2021-05-29T09:44:33Z</time>
      </trkpt>
      <trkpt lat="45.053" lon="5.76892">
        <ele>451.6</ele>
        <time>2021-05-29T09:44:34Z</time>
      </trkpt>
      <trkpt lat="45.05307" lon="5.76897">
        <ele>451.4</ele>
        <time>2021-05-29T09:44:35Z</time>
      </trkpt>
      <trkpt lat="45.05314" lon="5.76903">
        <ele>451</ele>
        <time>2021-05-29T09:44:36Z</time>
      </trkpt>
      <trkpt lat="45.05317" lon="5.76906">
        <ele>451</ele>
        <time>2021-05-29T09:44:37Z</time>
      </trkpt>
      <trkpt lat="45.05318" lon="5.76907">
        <ele>450.6</ele>
        <time>2021-05-29T09:44:38Z</time>
      </trkpt>
      <trkpt lat="45.05319" lon="5.76908">
        <ele>450.6</ele>
        <time>2021-05-29T09:44:39Z</time>
      </trkpt>
      <trkpt lat="45.0532" lon="5.76909">
        <ele>450.2</ele>
        <time>2021-05-29T09:44:40Z</time>
      </trkpt>
      <trkpt lat="45.0532" lon="5.7691">
        <ele>450.2</ele>
        <time>2021-05-29T09:44:41Z</time>
      </trkpt>
      <trkpt lat="45.05324" lon="5.76915">
        <ele>449.8</ele>
        <time>2021-05-29T09:44:42Z</time>
      </trkpt>
      <trkpt lat="45.05327" lon="5.7692">
        <ele>449.6</ele>
        <time>2021-05-29T09:44:43Z</time>
      </trkpt>
      <trkpt lat="45.0533" lon="5.76924">
        <ele>449.4</ele>
        <time>2021-05-29T09:44:44Z</time>
      </trkpt>
      <trkpt lat="45.05335" lon="5.76931">
        <ele>449.4</ele>
        <time>2021-05-29T09:44:45Z</time>
      </trkpt>
      <trkpt lat="45.05336" lon="5.76933">
        <ele>449.2</ele>
        <time>2021-05-29T09:44:46Z</time>
      </trkpt>
      <trkpt lat="45.05337" lon="5.76935">
        <ele>449.2</ele>
        <time>2021-05-29T09:44:47Z</time>
      </trkpt>
      <trkpt lat="45.05339" lon="5.76941">
        <ele>448.6</ele>
        <time>2021-05-29T09:44:48Z</time>
      </trkpt>
      <trkpt lat="45.05339" lon="5.76942">
        <ele>448.4</ele>
        <time>2021-05-29T09:44:49Z</time>
      </trkpt>
      <trkpt lat="45.0534" lon="5.76944">
        <ele>448.2</ele>
        <time>2021-05-29T09:44:50Z</time>
      </trkpt>
      <trkpt lat="45.05341" lon="5.76946">
        <ele>447.8</ele>
        <time>2021-05-29T09:44:51Z</time>
      </trkpt>
      <trkpt lat="45.05344" lon="5.7695">
        <ele>447.4</ele>
        <time>2021-05-29T09:44:52Z</time>
      </trkpt>
      <trkpt lat="45.05347" lon="5.76955">
        <ele>447.2</ele>
        <time>2021-05-29T09:44:53Z</time>
      </trkpt>
      <trkpt lat="45.05349" lon="5.76959">
        <ele>447.2</ele>
        <time>2021-05-29T09:44:54Z</time>
      </trkpt>
      <trkpt lat="45.05355" lon="5.76966">
        <ele>446.8</ele>
        <time>2021-05-29T09:44:55Z</time>
      </trkpt>
      <trkpt lat="45.05356" lon="5.76967">
        <ele>447.2</ele>
        <time>2021-05-29T09:44:56Z</time>
      </trkpt>
      <trkpt lat="45.05357" lon="5.76969">
        <ele>447</ele>
        <time>2021-05-29T09:44:57Z</time>
      </trkpt>
      <trkpt lat="45.05361" lon="5.76973">
        <ele>447.4</ele>
        <time>2021-05-29T09:44:58Z</time>
      </trkpt>
      <trkpt lat="45.05361" lon="5.76973">
        <ele>447</ele>
        <time>2021-05-29T09:44:59Z</time>
      </trkpt>
      <trkpt lat="45.05361" lon="5.76973">
        <ele>447</ele>
        <time>2021-05-29T09:45:00Z</time>
      </trkpt>
      <trkpt lat="45.05362" lon="5.76973">
        <ele>446.8</ele>
        <time>2021-05-29T09:45:01Z</time>
      </trkpt>
      <trkpt lat="45.05364" lon="5.76973">
        <ele>447</ele>
        <time>2021-05-29T09:45:02Z</time>
      </trkpt>
      <trkpt lat="45.05365" lon="5.76973">
        <ele>446.8</ele>
        <time>2021-05-29T09:45:03Z</time>
      </trkpt>
      <trkpt lat="45.05367" lon="5.76973">
        <ele>446.8</ele>
        <time>2021-05-29T09:45:04Z</time>
      </trkpt>
      <trkpt lat="45.05368" lon="5.76973">
        <ele>446</ele>
        <time>2021-05-29T09:45:05Z</time>
      </trkpt>
      <trkpt lat="45.0537" lon="5.76973">
        <ele>445.8</ele>
        <time>2021-05-29T09:45:06Z</time>
      </trkpt>
      <trkpt lat="45.05371" lon="5.76974">
        <ele>445</ele>
        <time>2021-05-29T09:45:07Z</time>
      </trkpt>
      <trkpt lat="45.05373" lon="5.76969">
        <ele>444.8</ele>
        <time>2021-05-29T09:45:08Z</time>
      </trkpt>
      <trkpt lat="45.05374" lon="5.76964">
        <ele>444.2</ele>
        <time>2021-05-29T09:45:09Z</time>
      </trkpt>
      <trkpt lat="45.05376" lon="5.7696">
        <ele>443.6</ele>
        <time>2021-05-29T09:45:10Z</time>
      </trkpt>
      <trkpt lat="45.05378" lon="5.76955">
        <ele>443.2</ele>
        <time>2021-05-29T09:45:11Z</time>
      </trkpt>
      <trkpt lat="45.0538" lon="5.7695">
        <ele>442.6</ele>
        <time>2021-05-29T09:45:12Z</time>
      </trkpt>
      <trkpt lat="45.05381" lon="5.76948">
        <ele>442</ele>
        <time>2021-05-29T09:45:13Z</time>
      </trkpt>
      <trkpt lat="45.05383" lon="5.76947">
        <ele>441.6</ele>
        <time>2021-05-29T09:45:14Z</time>
      </trkpt>
      <trkpt lat="45.05384" lon="5.76945">
        <ele>441.6</ele>
        <time>2021-05-29T09:45:15Z</time>
      </trkpt>
      <trkpt lat="45.05387" lon="5.76941">
        <ele>441</ele>
        <time>2021-05-29T09:45:16Z</time>
      </trkpt>
      <trkpt lat="45.0539" lon="5.76937">
        <ele>440.6</ele>
        <time>2021-05-29T09:45:17Z</time>
      </trkpt>
      <trkpt lat="45.05393" lon="5.76932">
        <ele>440.4</ele>
        <time>2021-05-29T09:45:18Z</time>
      </trkpt>
      <trkpt lat="45.05399" lon="5.76925">
        <ele>440</ele>
        <time>2021-05-29T09:45:19Z</time>
      </trkpt>
      <trkpt lat="45.054" lon="5.76923">
        <ele>439.8</ele>
        <time>2021-05-29T09:45:20Z</time>
      </trkpt>
      <trkpt lat="45.05401" lon="5.76921">
        <ele>439.6</ele>
        <time>2021-05-29T09:45:21Z</time>
      </trkpt>
      <trkpt lat="45.05406" lon="5.76913">
        <ele>439.4</ele>
        <time>2021-05-29T09:45:22Z</time>
      </trkpt>
      <trkpt lat="45.05407" lon="5.76912">
        <ele>439.2</ele>
        <time>2021-05-29T09:45:23Z</time>
      </trkpt>
      <trkpt lat="45.05408" lon="5.7691">
        <ele>439.2</ele>
        <time>2021-05-29T09:45:24Z</time>
      </trkpt>
      <trkpt lat="45.05411" lon="5.76906">
        <ele>439</ele>
        <time>2021-05-29T09:45:25Z</time>
      </trkpt>
      <trkpt lat="45.05411" lon="5.76906">
        <ele>439.2</ele>
        <time>2021-05-29T09:45:26Z</time>
      </trkpt>
      <trkpt lat="45.05411" lon="5.76906">
        <ele>438.8</ele>
        <time>2021-05-29T09:45:27Z</time>
      </trkpt>
      <trkpt lat="45.05413" lon="5.76904">
        <ele>439</ele>
        <time>2021-05-29T09:45:28Z</time>
      </trkpt>
      <trkpt lat="45.05415" lon="5.76901">
        <ele>438.8</ele>
        <time>2021-05-29T09:45:29Z</time>
      </trkpt>
      <trkpt lat="45.05417" lon="5.76899">
        <ele>438.8</ele>
        <time>2021-05-29T09:45:30Z</time>
      </trkpt>
      <trkpt lat="45.05419" lon="5.76897">
        <ele>438.4</ele>
        <time>2021-05-29T09:45:31Z</time>
      </trkpt>
      <trkpt lat="45.05422" lon="5.76895">
        <ele>438.4</ele>
        <time>2021-05-29T09:45:32Z</time>
      </trkpt>
      <trkpt lat="45.05424" lon="5.76893">
        <ele>438</ele>
        <time>2021-05-29T09:45:33Z</time>
      </trkpt>
      <trkpt lat="45.05427" lon="5.76891">
        <ele>438.2</ele>
        <time>2021-05-29T09:45:34Z</time>
      </trkpt>
      <trkpt lat="45.05429" lon="5.7689">
        <ele>437.8</ele>
        <time>2021-05-29T09:45:35Z</time>
      </trkpt>
      <trkpt lat="45.05431" lon="5.76887">
        <ele>438</ele>
        <time>2021-05-29T09:45:36Z</time>
      </trkpt>
      <trkpt lat="45.05433" lon="5.76885">
        <ele>437.8</ele>
        <time>2021-05-29T09:45:37Z</time>
      </trkpt>
      <trkpt lat="45.05435" lon="5.76883">
        <ele>438</ele>
        <time>2021-05-29T09:45:38Z</time>
      </trkpt>
      <trkpt lat="45.05437" lon="5.76881">
        <ele>437.6</ele>
        <time>2021-05-29T09:45:39Z</time>
      </trkpt>
      <trkpt lat="45.05441" lon="5.76879">
        <ele>438.2</ele>
        <time>2021-05-29T09:45:40Z</time>
      </trkpt>
      <trkpt lat="45.05444" lon="5.76876">
        <ele>437.8</ele>
        <time>2021-05-29T09:45:41Z</time>
      </trkpt>
      <trkpt lat="45.05448" lon="5.76874">
        <ele>438.2</ele>
        <time>2021-05-29T09:45:42Z</time>
      </trkpt>
      <trkpt lat="45.05451" lon="5.76871">
        <ele>438</ele>
        <time>2021-05-29T09:45:43Z</time>
      </trkpt>
      <trkpt lat="45.05456" lon="5.76868">
        <ele>438.2</ele>
        <time>2021-05-29T09:45:44Z</time>
      </trkpt>
      <trkpt lat="45.05456" lon="5.76868">
        <ele>438</ele>
        <time>2021-05-29T09:45:45Z</time>
      </trkpt>
      <trkpt lat="45.05456" lon="5.76868">
        <ele>438.2</ele>
        <time>2021-05-29T09:45:46Z</time>
      </trkpt>
      <trkpt lat="45.05456" lon="5.76868">
        <ele>437.8</ele>
        <time>2021-05-29T09:45:47Z</time>
      </trkpt>
      <trkpt lat="45.05459" lon="5.76866">
        <ele>438</ele>
        <time>2021-05-29T09:45:48Z</time>
      </trkpt>
      <trkpt lat="45.05463" lon="5.76865">
        <ele>437.6</ele>
        <time>2021-05-29T09:45:49Z</time>
      </trkpt>
      <trkpt lat="45.05466" lon="5.76863">
        <ele>438</ele>
        <time>2021-05-29T09:45:50Z</time>
      </trkpt>
      <trkpt lat="45.05469" lon="5.76862">
        <ele>437.6</ele>
        <time>2021-05-29T09:45:51Z</time>
      </trkpt>
      <trkpt lat="45.05473" lon="5.76861">
        <ele>437.6</ele>
        <time>2021-05-29T09:45:52Z</time>
      </trkpt>
      <trkpt lat="45.05476" lon="5.76859">
        <ele>437.2</ele>
        <time>2021-05-29T09:45:53Z</time>
      </trkpt>
      <trkpt lat="45.05483" lon="5.76857">
        <ele>437.4</ele>
        <time>2021-05-29T09:45:54Z</time>
      </trkpt>
      <trkpt lat="45.05486" lon="5.76856">
        <ele>437</ele>
        <time>2021-05-29T09:45:55Z</time>
      </trkpt>
      <trkpt lat="45.05489" lon="5.76856">
        <ele>437.2</ele>
        <time>2021-05-29T09:45:56Z</time>
      </trkpt>
      <trkpt lat="45.05492" lon="5.76855">
        <ele>437.2</ele>
        <time>2021-05-29T09:45:57Z</time>
      </trkpt>
      <trkpt lat="45.05494" lon="5.76855">
        <ele>437.2</ele>
        <time>2021-05-29T09:45:58Z</time>
      </trkpt>
      <trkpt lat="45.05495" lon="5.76855">
        <ele>437</ele>
        <time>2021-05-29T09:45:59Z</time>
      </trkpt>
      <trkpt lat="45.05499" lon="5.76855">
        <ele>437</ele>
        <time>2021-05-29T09:46:00Z</time>
      </trkpt>
      <trkpt lat="45.05502" lon="5.76855">
        <ele>436.8</ele>
        <time>2021-05-29T09:46:01Z</time>
      </trkpt>
      <trkpt lat="45.05505" lon="5.76855">
        <ele>437</ele>
        <time>2021-05-29T09:46:02Z</time>
      </trkpt>
      <trkpt lat="45.05507" lon="5.76855">
        <ele>436.2</ele>
        <time>2021-05-29T09:46:03Z</time>
      </trkpt>
      <trkpt lat="45.05512" lon="5.76856">
        <ele>436.4</ele>
        <time>2021-05-29T09:46:04Z</time>
      </trkpt>
      <trkpt lat="45.05513" lon="5.76856">
        <ele>436</ele>
        <time>2021-05-29T09:46:05Z</time>
      </trkpt>
      <trkpt lat="45.05516" lon="5.76857">
        <ele>436.2</ele>
        <time>2021-05-29T09:46:06Z</time>
      </trkpt>
      <trkpt lat="45.05521" lon="5.76858">
        <ele>436</ele>
        <time>2021-05-29T09:46:07Z</time>
      </trkpt>
      <trkpt lat="45.05526" lon="5.76858">
        <ele>436</ele>
        <time>2021-05-29T09:46:08Z</time>
      </trkpt>
      <trkpt lat="45.05528" lon="5.76859">
        <ele>435.8</ele>
        <time>2021-05-29T09:46:09Z</time>
      </trkpt>
      <trkpt lat="45.0553" lon="5.76859">
        <ele>435.8</ele>
        <time>2021-05-29T09:46:10Z</time>
      </trkpt>
      <trkpt lat="45.05533" lon="5.76859">
        <ele>435.8</ele>
        <time>2021-05-29T09:46:11Z</time>
      </trkpt>
      <trkpt lat="45.05536" lon="5.7686">
        <ele>435.8</ele>
        <time>2021-05-29T09:46:12Z</time>
      </trkpt>
      <trkpt lat="45.05539" lon="5.7686">
        <ele>435.8</ele>
        <time>2021-05-29T09:46:13Z</time>
      </trkpt>
      <trkpt lat="45.05543" lon="5.76861">
        <ele>435.6</ele>
        <time>2021-05-29T09:46:14Z</time>
      </trkpt>
      <trkpt lat="45.05548" lon="5.76863">
        <ele>435.6</ele>
        <time>2021-05-29T09:46:15Z</time>
      </trkpt>
      <trkpt lat="45.05551" lon="5.76863">
        <ele>435.6</ele>
        <time>2021-05-29T09:46:16Z</time>
      </trkpt>
      <trkpt lat="45.05553" lon="5.76864">
        <ele>435.6</ele>
        <time>2021-05-29T09:46:17Z</time>
      </trkpt>
      <trkpt lat="45.05555" lon="5.76865">
        <ele>435.4</ele>
        <time>2021-05-29T09:46:18Z</time>
      </trkpt>
      <trkpt lat="45.05557" lon="5.76865">
        <ele>435.4</ele>
        <time>2021-05-29T09:46:19Z</time>
      </trkpt>
      <trkpt lat="45.0556" lon="5.76866">
        <ele>435.2</ele>
        <time>2021-05-29T09:46:20Z</time>
      </trkpt>
      <trkpt lat="45.05563" lon="5.76867">
        <ele>435.2</ele>
        <time>2021-05-29T09:46:21Z</time>
      </trkpt>
      <trkpt lat="45.05563" lon="5.76867">
        <ele>435.2</ele>
        <time>2021-05-29T09:46:22Z</time>
      </trkpt>
      <trkpt lat="45.05563" lon="5.76867">
        <ele>435.4</ele>
        <time>2021-05-29T09:46:23Z</time>
      </trkpt>
      <trkpt lat="45.05566" lon="5.76867">
        <ele>435.2</ele>
        <time>2021-05-29T09:46:24Z</time>
      </trkpt>
      <trkpt lat="45.05568" lon="5.76868">
        <ele>435.6</ele>
        <time>2021-05-29T09:46:25Z</time>
      </trkpt>
      <trkpt lat="45.05571" lon="5.76869">
        <ele>435.2</ele>
        <time>2021-05-29T09:46:26Z</time>
      </trkpt>
      <trkpt lat="45.05574" lon="5.7687">
        <ele>435.4</ele>
        <time>2021-05-29T09:46:27Z</time>
      </trkpt>
      <trkpt lat="45.05578" lon="5.7687">
        <ele>435.2</ele>
        <time>2021-05-29T09:46:28Z</time>
      </trkpt>
      <trkpt lat="45.05582" lon="5.76871">
        <ele>435.4</ele>
        <time>2021-05-29T09:46:29Z</time>
      </trkpt>
      <trkpt lat="45.05586" lon="5.76871">
        <ele>435</ele>
        <time>2021-05-29T09:46:30Z</time>
      </trkpt>
      <trkpt lat="45.0559" lon="5.76872">
        <ele>435.2</ele>
        <time>2021-05-29T09:46:31Z</time>
      </trkpt>
      <trkpt lat="45.05594" lon="5.76872">
        <ele>435</ele>
        <time>2021-05-29T09:46:32Z</time>
      </trkpt>
      <trkpt lat="45.05594" lon="5.76872">
        <ele>435.2</ele>
        <time>2021-05-29T09:46:33Z</time>
      </trkpt>
      <trkpt lat="45.05594" lon="5.76872">
        <ele>435</ele>
        <time>2021-05-29T09:46:34Z</time>
      </trkpt>
      <trkpt lat="45.05596" lon="5.76873">
        <ele>435.2</ele>
        <time>2021-05-29T09:46:35Z</time>
      </trkpt>
      <trkpt lat="45.05599" lon="5.76875">
        <ele>435</ele>
        <time>2021-05-29T09:46:36Z</time>
      </trkpt>
      <trkpt lat="45.05601" lon="5.76876">
        <ele>435</ele>
        <time>2021-05-29T09:46:37Z</time>
      </trkpt>
      <trkpt lat="45.05603" lon="5.76877">
        <ele>434.8</ele>
        <time>2021-05-29T09:46:38Z</time>
      </trkpt>
      <trkpt lat="45.05606" lon="5.76878">
        <ele>435.2</ele>
        <time>2021-05-29T09:46:39Z</time>
      </trkpt>
      <trkpt lat="45.05608" lon="5.76878">
        <ele>435.2</ele>
        <time>2021-05-29T09:46:40Z</time>
      </trkpt>
      <trkpt lat="45.0561" lon="5.76877">
        <ele>435.4</ele>
        <time>2021-05-29T09:46:41Z</time>
      </trkpt>
      <trkpt lat="45.05612" lon="5.76877">
        <ele>435.2</ele>
        <time>2021-05-29T09:46:42Z</time>
      </trkpt>
      <trkpt lat="45.05615" lon="5.76876">
        <ele>435.6</ele>
        <time>2021-05-29T09:46:43Z</time>
      </trkpt>
      <trkpt lat="45.05623" lon="5.76873">
        <ele>435.4</ele>
        <time>2021-05-29T09:46:44Z</time>
      </trkpt>
      <trkpt lat="45.05623" lon="5.76873">
        <ele>435.6</ele>
        <time>2021-05-29T09:46:45Z</time>
      </trkpt>
      <trkpt lat="45.05623" lon="5.76873">
        <ele>435.4</ele>
        <time>2021-05-29T09:46:46Z</time>
      </trkpt>
      <trkpt lat="45.05623" lon="5.76873">
        <ele>435.4</ele>
        <time>2021-05-29T09:46:47Z</time>
      </trkpt>
      <trkpt lat="45.05626" lon="5.76873">
        <ele>435.2</ele>
        <time>2021-05-29T09:46:48Z</time>
      </trkpt>
      <trkpt lat="45.05628" lon="5.76873">
        <ele>435.2</ele>
        <time>2021-05-29T09:46:49Z</time>
      </trkpt>
      <trkpt lat="45.05631" lon="5.76873">
        <ele>435</ele>
        <time>2021-05-29T09:46:50Z</time>
      </trkpt>
      <trkpt lat="45.05633" lon="5.76873">
        <ele>435.2</ele>
        <time>2021-05-29T09:46:51Z</time>
      </trkpt>
      <trkpt lat="45.05637" lon="5.76876">
        <ele>434.8</ele>
        <time>2021-05-29T09:46:52Z</time>
      </trkpt>
      <trkpt lat="45.0564" lon="5.7688">
        <ele>435.2</ele>
        <time>2021-05-29T09:46:53Z</time>
      </trkpt>
      <trkpt lat="45.05644" lon="5.76883">
        <ele>434.8</ele>
        <time>2021-05-29T09:46:54Z</time>
      </trkpt>
      <trkpt lat="45.05647" lon="5.76886">
        <ele>435</ele>
        <time>2021-05-29T09:46:55Z</time>
      </trkpt>
      <trkpt lat="45.05651" lon="5.7689">
        <ele>434.4</ele>
        <time>2021-05-29T09:46:56Z</time>
      </trkpt>
      <trkpt lat="45.05651" lon="5.7689">
        <ele>434.4</ele>
        <time>2021-05-29T09:46:57Z</time>
      </trkpt>
      <trkpt lat="45.05651" lon="5.7689">
        <ele>434.2</ele>
        <time>2021-05-29T09:46:58Z</time>
      </trkpt>
      <trkpt lat="45.05653" lon="5.76893">
        <ele>434.2</ele>
        <time>2021-05-29T09:46:59Z</time>
      </trkpt>
      <trkpt lat="45.05655" lon="5.76895">
        <ele>434.4</ele>
        <time>2021-05-29T09:47:00Z</time>
      </trkpt>
      <trkpt lat="45.05657" lon="5.76898">
        <ele>434.4</ele>
        <time>2021-05-29T09:47:01Z</time>
      </trkpt>
      <trkpt lat="45.05659" lon="5.76901">
        <ele>434.6</ele>
        <time>2021-05-29T09:47:02Z</time>
      </trkpt>
      <trkpt lat="45.05661" lon="5.76902">
        <ele>434.6</ele>
        <time>2021-05-29T09:47:03Z</time>
      </trkpt>
      <trkpt lat="45.05662" lon="5.76904">
        <ele>435</ele>
        <time>2021-05-29T09:47:04Z</time>
      </trkpt>
      <trkpt lat="45.05664" lon="5.76905">
        <ele>435.2</ele>
        <time>2021-05-29T09:47:05Z</time>
      </trkpt>
      <trkpt lat="45.05666" lon="5.76907">
        <ele>435.4</ele>
        <time>2021-05-29T09:47:06Z</time>
      </trkpt>
      <trkpt lat="45.05668" lon="5.76908">
        <ele>435.4</ele>
        <time>2021-05-29T09:47:07Z</time>
      </trkpt>
      <trkpt lat="45.0567" lon="5.7691">
        <ele>435.8</ele>
        <time>2021-05-29T09:47:08Z</time>
      </trkpt>
      <trkpt lat="45.05671" lon="5.76912">
        <ele>435.8</ele>
        <time>2021-05-29T09:47:09Z</time>
      </trkpt>
      <trkpt lat="45.05673" lon="5.76914">
        <ele>436</ele>
        <time>2021-05-29T09:47:10Z</time>
      </trkpt>
      <trkpt lat="45.05675" lon="5.76916">
        <ele>436</ele>
        <time>2021-05-29T09:47:11Z</time>
      </trkpt>
      <trkpt lat="45.05677" lon="5.76918">
        <ele>436.4</ele>
        <time>2021-05-29T09:47:12Z</time>
      </trkpt>
      <trkpt lat="45.05679" lon="5.76921">
        <ele>436.4</ele>
        <time>2021-05-29T09:47:13Z</time>
      </trkpt>
      <trkpt lat="45.05681" lon="5.76923">
        <ele>436.8</ele>
        <time>2021-05-29T09:47:14Z</time>
      </trkpt>
      <trkpt lat="45.05683" lon="5.76926">
        <ele>436.6</ele>
        <time>2021-05-29T09:47:15Z</time>
      </trkpt>
      <trkpt lat="45.05685" lon="5.76928">
        <ele>437</ele>
        <time>2021-05-29T09:47:16Z</time>
      </trkpt>
      <trkpt lat="45.05686" lon="5.7693">
        <ele>436.6</ele>
        <time>2021-05-29T09:47:17Z</time>
      </trkpt>
      <trkpt lat="45.05688" lon="5.76933">
        <ele>436.8</ele>
        <time>2021-05-29T09:47:18Z</time>
      </trkpt>
      <trkpt lat="45.05691" lon="5.76936">
        <ele>436.6</ele>
        <time>2021-05-29T09:47:19Z</time>
      </trkpt>
      <trkpt lat="45.05692" lon="5.76938">
        <ele>436.6</ele>
        <time>2021-05-29T09:47:20Z</time>
      </trkpt>
      <trkpt lat="45.05694" lon="5.7694">
        <ele>436.2</ele>
        <time>2021-05-29T09:47:21Z</time>
      </trkpt>
      <trkpt lat="45.05695" lon="5.76941">
        <ele>436</ele>
        <time>2021-05-29T09:47:22Z</time>
      </trkpt>
      <trkpt lat="45.057" lon="5.76947">
        <ele>435.6</ele>
        <time>2021-05-29T09:47:23Z</time>
      </trkpt>
      <trkpt lat="45.05702" lon="5.76948">
        <ele>435.6</ele>
        <time>2021-05-29T09:47:24Z</time>
      </trkpt>
      <trkpt lat="45.05703" lon="5.76949">
        <ele>435.6</ele>
        <time>2021-05-29T09:47:25Z</time>
      </trkpt>
      <trkpt lat="45.05705" lon="5.76951">
        <ele>435.6</ele>
        <time>2021-05-29T09:47:26Z</time>
      </trkpt>
      <trkpt lat="45.05708" lon="5.76953">
        <ele>435.4</ele>
        <time>2021-05-29T09:47:27Z</time>
      </trkpt>
      <trkpt lat="45.0571" lon="5.76955">
        <ele>435</ele>
        <time>2021-05-29T09:47:28Z</time>
      </trkpt>
      <trkpt lat="45.05712" lon="5.76958">
        <ele>434.8</ele>
        <time>2021-05-29T09:47:29Z</time>
      </trkpt>
      <trkpt lat="45.05715" lon="5.7696">
        <ele>434.6</ele>
        <time>2021-05-29T09:47:30Z</time>
      </trkpt>
      <trkpt lat="45.05717" lon="5.76963">
        <ele>434.4</ele>
        <time>2021-05-29T09:47:31Z</time>
      </trkpt>
      <trkpt lat="45.05719" lon="5.76965">
        <ele>434.2</ele>
        <time>2021-05-29T09:47:32Z</time>
      </trkpt>
      <trkpt lat="45.0572" lon="5.76968">
        <ele>433.8</ele>
        <time>2021-05-29T09:47:33Z</time>
      </trkpt>
      <trkpt lat="45.0572" lon="5.76968">
        <ele>434</ele>
        <time>2021-05-29T09:47:34Z</time>
      </trkpt>
      <trkpt lat="45.05719" lon="5.76972">
        <ele>433.6</ele>
        <time>2021-05-29T09:47:35Z</time>
      </trkpt>
      <trkpt lat="45.05717" lon="5.76977">
        <ele>433.6</ele>
        <time>2021-05-29T09:47:36Z</time>
      </trkpt>
      <trkpt lat="45.05717" lon="5.76977">
        <ele>433.2</ele>
        <time>2021-05-29T09:47:37Z</time>
      </trkpt>
      <trkpt lat="45.05716" lon="5.7698">
        <ele>433.2</ele>
        <time>2021-05-29T09:47:38Z</time>
      </trkpt>
      <trkpt lat="45.05715" lon="5.76983">
        <ele>432.4</ele>
        <time>2021-05-29T09:47:39Z</time>
      </trkpt>
      <trkpt lat="45.05713" lon="5.76987">
        <ele>432.4</ele>
        <time>2021-05-29T09:47:40Z</time>
      </trkpt>
      <trkpt lat="45.05712" lon="5.7699">
        <ele>432</ele>
        <time>2021-05-29T09:47:41Z</time>
      </trkpt>
      <trkpt lat="45.05711" lon="5.76993">
        <ele>431.8</ele>
        <time>2021-05-29T09:47:42Z</time>
      </trkpt>
      <trkpt lat="45.05708" lon="5.76999">
        <ele>431.4</ele>
        <time>2021-05-29T09:47:43Z</time>
      </trkpt>
      <trkpt lat="45.05708" lon="5.76999">
        <ele>431.2</ele>
        <time>2021-05-29T09:47:44Z</time>
      </trkpt>
      <trkpt lat="45.05706" lon="5.77002">
        <ele>431</ele>
        <time>2021-05-29T09:47:45Z</time>
      </trkpt>
      <trkpt lat="45.05705" lon="5.77009">
        <ele>431</ele>
        <time>2021-05-29T09:47:46Z</time>
      </trkpt>
      <trkpt lat="45.05704" lon="5.77011">
        <ele>431</ele>
        <time>2021-05-29T09:47:47Z</time>
      </trkpt>
      <trkpt lat="45.05703" lon="5.77014">
        <ele>430.6</ele>
        <time>2021-05-29T09:47:48Z</time>
      </trkpt>
      <trkpt lat="45.05702" lon="5.77017">
        <ele>430.4</ele>
        <time>2021-05-29T09:47:49Z</time>
      </trkpt>
      <trkpt lat="45.05701" lon="5.7702">
        <ele>430</ele>
        <time>2021-05-29T09:47:50Z</time>
      </trkpt>
      <trkpt lat="45.05699" lon="5.77024">
        <ele>430.2</ele>
        <time>2021-05-29T09:47:51Z</time>
      </trkpt>
      <trkpt lat="45.05698" lon="5.77028">
        <ele>430</ele>
        <time>2021-05-29T09:47:52Z</time>
      </trkpt>
      <trkpt lat="45.05696" lon="5.77031">
        <ele>430</ele>
        <time>2021-05-29T09:47:53Z</time>
      </trkpt>
      <trkpt lat="45.05695" lon="5.77036">
        <ele>429.6</ele>
        <time>2021-05-29T09:47:54Z</time>
      </trkpt>
      <trkpt lat="45.05694" lon="5.77039">
        <ele>429.8</ele>
        <time>2021-05-29T09:47:55Z</time>
      </trkpt>
      <trkpt lat="45.05693" lon="5.77042">
        <ele>429.4</ele>
        <time>2021-05-29T09:47:56Z</time>
      </trkpt>
      <trkpt lat="45.05693" lon="5.77042">
        <ele>429.6</ele>
        <time>2021-05-29T09:47:57Z</time>
      </trkpt>
      <trkpt lat="45.05691" lon="5.77045">
        <ele>429.2</ele>
        <time>2021-05-29T09:47:58Z</time>
      </trkpt>
      <trkpt lat="45.05689" lon="5.77052">
        <ele>429.2</ele>
        <time>2021-05-29T09:47:59Z</time>
      </trkpt>
      <trkpt lat="45.05688" lon="5.77055">
        <ele>429</ele>
        <time>2021-05-29T09:48:00Z</time>
      </trkpt>
      <trkpt lat="45.05688" lon="5.77058">
        <ele>429.2</ele>
        <time>2021-05-29T09:48:01Z</time>
      </trkpt>
      <trkpt lat="45.05687" lon="5.7706">
        <ele>429</ele>
        <time>2021-05-29T09:48:02Z</time>
      </trkpt>
      <trkpt lat="45.05686" lon="5.77066">
        <ele>429</ele>
        <time>2021-05-29T09:48:03Z</time>
      </trkpt>
      <trkpt lat="45.05686" lon="5.77067">
        <ele>428.6</ele>
        <time>2021-05-29T09:48:04Z</time>
      </trkpt>
      <trkpt lat="45.05686" lon="5.77067">
        <ele>428.8</ele>
        <time>2021-05-29T09:48:05Z</time>
      </trkpt>
      <trkpt lat="45.05686" lon="5.77072">
        <ele>428.4</ele>
        <time>2021-05-29T09:48:06Z</time>
      </trkpt>
      <trkpt lat="45.05686" lon="5.77072">
        <ele>428.4</ele>
        <time>2021-05-29T09:48:07Z</time>
      </trkpt>
      <trkpt lat="45.05686" lon="5.77075">
        <ele>428</ele>
        <time>2021-05-29T09:48:08Z</time>
      </trkpt>
      <trkpt lat="45.05686" lon="5.77075">
        <ele>427.8</ele>
        <time>2021-05-29T09:48:09Z</time>
      </trkpt>
      <trkpt lat="45.05686" lon="5.77077">
        <ele>427</ele>
        <time>2021-05-29T09:48:10Z</time>
      </trkpt>
      <trkpt lat="45.05686" lon="5.77077">
        <ele>426.6</ele>
        <time>2021-05-29T09:48:11Z</time>
      </trkpt>
      <trkpt lat="45.05686" lon="5.77077">
        <ele>426.2</ele>
        <time>2021-05-29T09:48:12Z</time>
      </trkpt>
      <trkpt lat="45.05687" lon="5.7708">
        <ele>425.8</ele>
        <time>2021-05-29T09:48:13Z</time>
      </trkpt>
      <trkpt lat="45.05689" lon="5.77082">
        <ele>425.6</ele>
        <time>2021-05-29T09:48:14Z</time>
      </trkpt>
      <trkpt lat="45.0569" lon="5.77084">
        <ele>425.6</ele>
        <time>2021-05-29T09:48:15Z</time>
      </trkpt>
      <trkpt lat="45.05691" lon="5.77086">
        <ele>425.4</ele>
        <time>2021-05-29T09:48:16Z</time>
      </trkpt>
      <trkpt lat="45.05692" lon="5.77088">
        <ele>425.6</ele>
        <time>2021-05-29T09:48:17Z</time>
      </trkpt>
      <trkpt lat="45.05693" lon="5.7709">
        <ele>425.4</ele>
        <time>2021-05-29T09:48:18Z</time>
      </trkpt>
      <trkpt lat="45.05695" lon="5.77092">
        <ele>425.4</ele>
        <time>2021-05-29T09:48:19Z</time>
      </trkpt>
      <trkpt lat="45.05697" lon="5.77094">
        <ele>425.2</ele>
        <time>2021-05-29T09:48:20Z</time>
      </trkpt>
      <trkpt lat="45.05699" lon="5.77095">
        <ele>424.8</ele>
        <time>2021-05-29T09:48:21Z</time>
      </trkpt>
      <trkpt lat="45.05701" lon="5.77097">
        <ele>424.8</ele>
        <time>2021-05-29T09:48:22Z</time>
      </trkpt>
      <trkpt lat="45.05703" lon="5.77098">
        <ele>424.6</ele>
        <time>2021-05-29T09:48:23Z</time>
      </trkpt>
      <trkpt lat="45.05704" lon="5.77099">
        <ele>424.4</ele>
        <time>2021-05-29T09:48:24Z</time>
      </trkpt>
      <trkpt lat="45.05705" lon="5.771">
        <ele>424.2</ele>
        <time>2021-05-29T09:48:25Z</time>
      </trkpt>
      <trkpt lat="45.05706" lon="5.77101">
        <ele>424.6</ele>
        <time>2021-05-29T09:48:26Z</time>
      </trkpt>
      <trkpt lat="45.05707" lon="5.77102">
        <ele>424.2</ele>
        <time>2021-05-29T09:48:27Z</time>
      </trkpt>
      <trkpt lat="45.05708" lon="5.77103">
        <ele>424.2</ele>
        <time>2021-05-29T09:48:28Z</time>
      </trkpt>
      <trkpt lat="45.05709" lon="5.77103">
        <ele>424.4</ele>
        <time>2021-05-29T09:48:29Z</time>
      </trkpt>
      <trkpt lat="45.05709" lon="5.77104">
        <ele>424.4</ele>
        <time>2021-05-29T09:48:30Z</time>
      </trkpt>
      <trkpt lat="45.05709" lon="5.77104">
        <ele>424.6</ele>
        <time>2021-05-29T09:48:31Z</time>
      </trkpt>
      <trkpt lat="45.05709" lon="5.77104">
        <ele>424.6</ele>
        <time>2021-05-29T09:48:32Z</time>
      </trkpt>
      <trkpt lat="45.05709" lon="5.77105">
        <ele>424.8</ele>
        <time>2021-05-29T09:48:33Z</time>
      </trkpt>
      <trkpt lat="45.05709" lon="5.77105">
        <ele>424.8</ele>
        <time>2021-05-29T09:48:34Z</time>
      </trkpt>
      <trkpt lat="45.05708" lon="5.77105">
        <ele>424.6</ele>
        <time>2021-05-29T09:48:35Z</time>
      </trkpt>
      <trkpt lat="45.05708" lon="5.77106">
        <ele>424.2</ele>
        <time>2021-05-29T09:48:36Z</time>
      </trkpt>
      <trkpt lat="45.05708" lon="5.77106">
        <ele>424.2</ele>
        <time>2021-05-29T09:48:37Z</time>
      </trkpt>
      <trkpt lat="45.05708" lon="5.77106">
        <ele>424.2</ele>
        <time>2021-05-29T09:48:38Z</time>
      </trkpt>
      <trkpt lat="45.05708" lon="5.77107">
        <ele>424</ele>
        <time>2021-05-29T09:48:39Z</time>
      </trkpt>
      <trkpt lat="45.05708" lon="5.77107">
        <ele>424</ele>
        <time>2021-05-29T09:48:40Z</time>
      </trkpt>
      <trkpt lat="45.05707" lon="5.77108">
        <ele>423.8</ele>
        <time>2021-05-29T09:48:41Z</time>
      </trkpt>
      <trkpt lat="45.05707" lon="5.77108">
        <ele>423.8</ele>
        <time>2021-05-29T09:48:42Z</time>
      </trkpt>
      <trkpt lat="45.05707" lon="5.77108">
        <ele>423.8</ele>
        <time>2021-05-29T09:48:43Z</time>
      </trkpt>
      <trkpt lat="45.05707" lon="5.77109">
        <ele>423.8</ele>
        <time>2021-05-29T09:48:44Z</time>
      </trkpt>
      <trkpt lat="45.05707" lon="5.77109">
        <ele>423.6</ele>
        <time>2021-05-29T09:48:45Z</time>
      </trkpt>
      <trkpt lat="45.05707" lon="5.77109">
        <ele>423.6</ele>
        <time>2021-05-29T09:48:46Z</time>
      </trkpt>
      <trkpt lat="45.05707" lon="5.7711">
        <ele>423.4</ele>
        <time>2021-05-29T09:48:47Z</time>
      </trkpt>
      <trkpt lat="45.05706" lon="5.7711">
        <ele>423.4</ele>
        <time>2021-05-29T09:48:48Z</time>
      </trkpt>
      <trkpt lat="45.05706" lon="5.7711">
        <ele>423.4</ele>
        <time>2021-05-29T09:48:49Z</time>
      </trkpt>
      <trkpt lat="45.05706" lon="5.77111">
        <ele>423.4</ele>
        <time>2021-05-29T09:48:50Z</time>
      </trkpt>
      <trkpt lat="45.05706" lon="5.77111">
        <ele>423.4</ele>
        <time>2021-05-29T09:48:51Z</time>
      </trkpt>
      <trkpt lat="45.05706" lon="5.77111">
        <ele>423.4</ele>
        <time>2021-05-29T09:48:52Z</time>
      </trkpt>
      <trkpt lat="45.05706" lon="5.77112">
        <ele>423.4</ele>
        <time>2021-05-29T09:48:53Z</time>
      </trkpt>
      <trkpt lat="45.05705" lon="5.77112">
        <ele>423.4</ele>
        <time>2021-05-29T09:48:54Z</time>
      </trkpt>
      <trkpt lat="45.05705" lon="5.77112">
        <ele>423.6</ele>
        <time>2021-05-29T09:48:55Z</time>
      </trkpt>
      <trkpt lat="45.05705" lon="5.77113">
        <ele>423.6</ele>
        <time>2021-05-29T09:48:56Z</time>
      </trkpt>
      <trkpt lat="45.05705" lon="5.77113">
        <ele>423.6</ele>
        <time>2021-05-29T09:48:57Z</time>
      </trkpt>
      <trkpt lat="45.05705" lon="5.77113">
        <ele>423.4</ele>
        <time>2021-05-29T09:48:58Z</time>
      </trkpt>
      <trkpt lat="45.05705" lon="5.77114">
        <ele>423.4</ele>
        <time>2021-05-29T09:48:59Z</time>
      </trkpt>
      <trkpt lat="45.05705" lon="5.77114">
        <ele>423.4</ele>
        <time>2021-05-29T09:49:00Z</time>
      </trkpt>
      <trkpt lat="45.05704" lon="5.77114">
        <ele>423.2</ele>
        <time>2021-05-29T09:49:01Z</time>
      </trkpt>
      <trkpt lat="45.05704" lon="5.77114">
        <ele>423.2</ele>
        <time>2021-05-29T09:49:02Z</time>
      </trkpt>
      <trkpt lat="45.05705" lon="5.77115">
        <ele>423.4</ele>
        <time>2021-05-29T09:49:03Z</time>
      </trkpt>
      <trkpt lat="45.05705" lon="5.77115">
        <ele>423.4</ele>
        <time>2021-05-29T09:49:04Z</time>
      </trkpt>
      <trkpt lat="45.05705" lon="5.77115">
        <ele>423.4</ele>
        <time>2021-05-29T09:49:05Z</time>
      </trkpt>
      <trkpt lat="45.05705" lon="5.77115">
        <ele>423.6</ele>
        <time>2021-05-29T09:49:06Z</time>
      </trkpt>
      <trkpt lat="45.05705" lon="5.77115">
        <ele>423.6</ele>
        <time>2021-05-29T09:49:07Z</time>
      </trkpt>
      <trkpt lat="45.05705" lon="5.77115">
        <ele>423.6</ele>
        <time>2021-05-29T09:49:08Z</time>
      </trkpt>
      <trkpt lat="45.05705" lon="5.77116">
        <ele>423.6</ele>
        <time>2021-05-29T09:49:09Z</time>
      </trkpt>
      <trkpt lat="45.05705" lon="5.77116">
        <ele>423.6</ele>
        <time>2021-05-29T09:49:10Z</time>
      </trkpt>
      <trkpt lat="45.05705" lon="5.77116">
        <ele>423.6</ele>
        <time>2021-05-29T09:49:11Z</time>
      </trkpt>
      <trkpt lat="45.05705" lon="5.77116">
        <ele>423.6</ele>
        <time>2021-05-29T09:49:12Z</time>
      </trkpt>
      <trkpt lat="45.05705" lon="5.77116">
        <ele>423.8</ele>
        <time>2021-05-29T09:49:13Z</time>
      </trkpt>
      <trkpt lat="45.05705" lon="5.77116">
        <ele>423.8</ele>
        <time>2021-05-29T09:49:14Z</time>
      </trkpt>
      <trkpt lat="45.05705" lon="5.77116">
        <ele>423.4</ele>
        <time>2021-05-29T09:49:15Z</time>
      </trkpt>
      <trkpt lat="45.05706" lon="5.77117">
        <ele>423</ele>
        <time>2021-05-29T09:49:16Z</time>
      </trkpt>
      <trkpt lat="45.05706" lon="5.77117">
        <ele>422.8</ele>
        <time>2021-05-29T09:49:17Z</time>
      </trkpt>
      <trkpt lat="45.05706" lon="5.77117">
        <ele>422.6</ele>
        <time>2021-05-29T09:49:18Z</time>
      </trkpt>
      <trkpt lat="45.05706" lon="5.77117">
        <ele>422.2</ele>
        <time>2021-05-29T09:49:19Z</time>
      </trkpt>
      <trkpt lat="45.05706" lon="5.77117">
        <ele>422.4</ele>
        <time>2021-05-29T09:49:20Z</time>
      </trkpt>
      <trkpt lat="45.05706" lon="5.77117">
        <ele>422.2</ele>
        <time>2021-05-29T09:49:21Z</time>
      </trkpt>
      <trkpt lat="45.05706" lon="5.77118">
        <ele>422.4</ele>
        <time>2021-05-29T09:49:22Z</time>
      </trkpt>
      <trkpt lat="45.05706" lon="5.77118">
        <ele>422.2</ele>
        <time>2021-05-29T09:49:23Z</time>
      </trkpt>
      <trkpt lat="45.05706" lon="5.77118">
        <ele>422.2</ele>
        <time>2021-05-29T09:49:24Z</time>
      </trkpt>
      <trkpt lat="45.05706" lon="5.77118">
        <ele>422.6</ele>
        <time>2021-05-29T09:49:25Z</time>
      </trkpt>
      <trkpt lat="45.05706" lon="5.77118">
        <ele>422.8</ele>
        <time>2021-05-29T09:49:26Z</time>
      </trkpt>
      <trkpt lat="45.05706" lon="5.77118">
        <ele>424</ele>
        <time>2021-05-29T09:49:27Z</time>
      </trkpt>
      <trkpt lat="45.05706" lon="5.77119">
        <ele>423.4</ele>
        <time>2021-05-29T09:49:28Z</time>
      </trkpt>
      <trkpt lat="45.05707" lon="5.77119">
        <ele>423</ele>
        <time>2021-05-29T09:49:29Z</time>
      </trkpt>
      <trkpt lat="45.05707" lon="5.77119">
        <ele>422.8</ele>
        <time>2021-05-29T09:49:30Z</time>
      </trkpt>
      <trkpt lat="45.05707" lon="5.77119">
        <ele>422.6</ele>
        <time>2021-05-29T09:49:31Z</time>
      </trkpt>
      <trkpt lat="45.05707" lon="5.77119">
        <ele>422.4</ele>
        <time>2021-05-29T09:49:32Z</time>
      </trkpt>
      <trkpt lat="45.05707" lon="5.77119">
        <ele>422.2</ele>
        <time>2021-05-29T09:49:33Z</time>
      </trkpt>
      <trkpt lat="45.05707" lon="5.7712">
        <ele>422.2</ele>
        <time>2021-05-29T09:49:34Z</time>
      </trkpt>
      <trkpt lat="45.05707" lon="5.7712">
        <ele>422.4</ele>
        <time>2021-05-29T09:49:35Z</time>
      </trkpt>
      <trkpt lat="45.05707" lon="5.7712">
        <ele>422.4</ele>
        <time>2021-05-29T09:49:36Z</time>
      </trkpt>
      <trkpt lat="45.05707" lon="5.7712">
        <ele>422.4</ele>
        <time>2021-05-29T09:49:37Z</time>
      </trkpt>
      <trkpt lat="45.05707" lon="5.7712">
        <ele>422.4</ele>
        <time>2021-05-29T09:49:38Z</time>
      </trkpt>
      <trkpt lat="45.05707" lon="5.7712">
        <ele>422</ele>
        <time>2021-05-29T09:49:39Z</time>
      </trkpt>
      <trkpt lat="45.05707" lon="5.77121">
        <ele>422</ele>
        <time>2021-05-29T09:49:40Z</time>
      </trkpt>
      <trkpt lat="45.05708" lon="5.77121">
        <ele>422</ele>
        <time>2021-05-29T09:49:41Z</time>
      </trkpt>
      <trkpt lat="45.05708" lon="5.77121">
        <ele>422</ele>
        <time>2021-05-29T09:49:42Z</time>
      </trkpt>
      <trkpt lat="45.05708" lon="5.77121">
        <ele>421.8</ele>
        <time>2021-05-29T09:49:43Z</time>
      </trkpt>
      <trkpt lat="45.05708" lon="5.77121">
        <ele>421.8</ele>
        <time>2021-05-29T09:49:44Z</time>
      </trkpt>
      <trkpt lat="45.05708" lon="5.77121">
        <ele>421.6</ele>
        <time>2021-05-29T09:49:45Z</time>
      </trkpt>
      <trkpt lat="45.05708" lon="5.77121">
        <ele>421.6</ele>
        <time>2021-05-29T09:49:46Z</time>
      </trkpt>
      <trkpt lat="45.05708" lon="5.77122">
        <ele>421.6</ele>
        <time>2021-05-29T09:49:47Z</time>
      </trkpt>
      <trkpt lat="45.05708" lon="5.77122">
        <ele>421.6</ele>
        <time>2021-05-29T09:49:48Z</time>
      </trkpt>
      <trkpt lat="45.05708" lon="5.77122">
        <ele>421.4</ele>
        <time>2021-05-29T09:49:49Z</time>
      </trkpt>
      <trkpt lat="45.05708" lon="5.77122">
        <ele>421.4</ele>
        <time>2021-05-29T09:49:50Z</time>
      </trkpt>
      <trkpt lat="45.05708" lon="5.77122">
        <ele>421.2</ele>
        <time>2021-05-29T09:49:51Z</time>
      </trkpt>
      <trkpt lat="45.05708" lon="5.77122">
        <ele>421.4</ele>
        <time>2021-05-29T09:49:52Z</time>
      </trkpt>
      <trkpt lat="45.05708" lon="5.77123">
        <ele>421.4</ele>
        <time>2021-05-29T09:49:53Z</time>
      </trkpt>
      <trkpt lat="45.05709" lon="5.77123">
        <ele>421.4</ele>
        <time>2021-05-29T09:49:54Z</time>
      </trkpt>
      <trkpt lat="45.05709" lon="5.77123">
        <ele>421.4</ele>
        <time>2021-05-29T09:49:55Z</time>
      </trkpt>
      <trkpt lat="45.05709" lon="5.77123">
        <ele>421.4</ele>
        <time>2021-05-29T09:49:56Z</time>
      </trkpt>
      <trkpt lat="45.05709" lon="5.77123">
        <ele>421.4</ele>
        <time>2021-05-29T09:49:57Z</time>
      </trkpt>
      <trkpt lat="45.05709" lon="5.77123">
        <ele>421.2</ele>
        <time>2021-05-29T09:49:58Z</time>
      </trkpt>
      <trkpt lat="45.05709" lon="5.77124">
        <ele>421</ele>
        <time>2021-05-29T09:50:00Z</time>
      </trkpt>
      <trkpt lat="45.05709" lon="5.77124">
        <ele>421</ele>
        <time>2021-05-29T09:50:01Z</time>
      </trkpt>
      <trkpt lat="45.05709" lon="5.77124">
        <ele>420.8</ele>
        <time>2021-05-29T09:50:02Z</time>
      </trkpt>
      <trkpt lat="45.05709" lon="5.77124">
        <ele>421</ele>
        <time>2021-05-29T09:50:03Z</time>
      </trkpt>
      <trkpt lat="45.05709" lon="5.77124">
        <ele>420.8</ele>
        <time>2021-05-29T09:50:04Z</time>
      </trkpt>
      <trkpt lat="45.05709" lon="5.77124">
        <ele>420.8</ele>
        <time>2021-05-29T09:50:05Z</time>
      </trkpt>
      <trkpt lat="45.05709" lon="5.77125">
        <ele>420.8</ele>
        <time>2021-05-29T09:50:06Z</time>
      </trkpt>
      <trkpt lat="45.0571" lon="5.77125">
        <ele>420.8</ele>
        <time>2021-05-29T09:50:07Z</time>
      </trkpt>
      <trkpt lat="45.0571" lon="5.77125">
        <ele>420.8</ele>
        <time>2021-05-29T09:50:08Z</time>
      </trkpt>
      <trkpt lat="45.0571" lon="5.77125">
        <ele>420.8</ele>
        <time>2021-05-29T09:50:09Z</time>
      </trkpt>
      <trkpt lat="45.0571" lon="5.77125">
        <ele>421</ele>
        <time>2021-05-29T09:50:10Z</time>
      </trkpt>
      <trkpt lat="45.0571" lon="5.77126">
        <ele>420.8</ele>
        <time>2021-05-29T09:50:11Z</time>
      </trkpt>
      <trkpt lat="45.05709" lon="5.77127">
        <ele>421</ele>
        <time>2021-05-29T09:50:12Z</time>
      </trkpt>
      <trkpt lat="45.05709" lon="5.77128">
        <ele>421</ele>
        <time>2021-05-29T09:50:13Z</time>
      </trkpt>
      <trkpt lat="45.05709" lon="5.77129">
        <ele>421.2</ele>
        <time>2021-05-29T09:50:14Z</time>
      </trkpt>
      <trkpt lat="45.05709" lon="5.7713">
        <ele>421.2</ele>
        <time>2021-05-29T09:50:15Z</time>
      </trkpt>
      <trkpt lat="45.05709" lon="5.77131">
        <ele>421</ele>
        <time>2021-05-29T09:50:16Z</time>
      </trkpt>
      <trkpt lat="45.05709" lon="5.77132">
        <ele>421</ele>
        <time>2021-05-29T09:50:17Z</time>
      </trkpt>
      <trkpt lat="45.05708" lon="5.77133">
        <ele>421</ele>
        <time>2021-05-29T09:50:18Z</time>
      </trkpt>
      <trkpt lat="45.05708" lon="5.77134">
        <ele>421</ele>
        <time>2021-05-29T09:50:19Z</time>
      </trkpt>
      <trkpt lat="45.05708" lon="5.77135">
        <ele>421</ele>
        <time>2021-05-29T09:50:20Z</time>
      </trkpt>
      <trkpt lat="45.05708" lon="5.77136">
        <ele>421</ele>
        <time>2021-05-29T09:50:21Z</time>
      </trkpt>
      <trkpt lat="45.05708" lon="5.77137">
        <ele>420.8</ele>
        <time>2021-05-29T09:50:22Z</time>
      </trkpt>
      <trkpt lat="45.05708" lon="5.77138">
        <ele>421</ele>
        <time>2021-05-29T09:50:23Z</time>
      </trkpt>
      <trkpt lat="45.05707" lon="5.7714">
        <ele>420.8</ele>
        <time>2021-05-29T09:50:24Z</time>
      </trkpt>
      <trkpt lat="45.05707" lon="5.77142">
        <ele>420.8</ele>
        <time>2021-05-29T09:50:25Z</time>
      </trkpt>
      <trkpt lat="45.05707" lon="5.77145">
        <ele>421</ele>
        <time>2021-05-29T09:50:26Z</time>
      </trkpt>
      <trkpt lat="45.05707" lon="5.77147">
        <ele>421</ele>
        <time>2021-05-29T09:50:27Z</time>
      </trkpt>
      <trkpt lat="45.05706" lon="5.77149">
        <ele>421.4</ele>
        <time>2021-05-29T09:50:28Z</time>
      </trkpt>
      <trkpt lat="45.05706" lon="5.77151">
        <ele>421.6</ele>
        <time>2021-05-29T09:50:29Z</time>
      </trkpt>
      <trkpt lat="45.05705" lon="5.77153">
        <ele>421.6</ele>
        <time>2021-05-29T09:50:30Z</time>
      </trkpt>
      <trkpt lat="45.05705" lon="5.77154">
        <ele>421.4</ele>
        <time>2021-05-29T09:50:31Z</time>
      </trkpt>
      <trkpt lat="45.05704" lon="5.77156">
        <ele>421.2</ele>
        <time>2021-05-29T09:50:32Z</time>
      </trkpt>
      <trkpt lat="45.05703" lon="5.77157">
        <ele>421</ele>
        <time>2021-05-29T09:50:33Z</time>
      </trkpt>
      <trkpt lat="45.05703" lon="5.77159">
        <ele>421</ele>
        <time>2021-05-29T09:50:34Z</time>
      </trkpt>
      <trkpt lat="45.05702" lon="5.7716">
        <ele>421.2</ele>
        <time>2021-05-29T09:50:35Z</time>
      </trkpt>
      <trkpt lat="45.05701" lon="5.77162">
        <ele>421.2</ele>
        <time>2021-05-29T09:50:36Z</time>
      </trkpt>
      <trkpt lat="45.057" lon="5.77163">
        <ele>421.4</ele>
        <time>2021-05-29T09:50:37Z</time>
      </trkpt>
      <trkpt lat="45.05699" lon="5.77165">
        <ele>421.4</ele>
        <time>2021-05-29T09:50:38Z</time>
      </trkpt>
      <trkpt lat="45.05699" lon="5.77166">
        <ele>421.4</ele>
        <time>2021-05-29T09:50:39Z</time>
      </trkpt>
      <trkpt lat="45.05698" lon="5.77168">
        <ele>421.4</ele>
        <time>2021-05-29T09:50:40Z</time>
      </trkpt>
      <trkpt lat="45.05697" lon="5.77169">
        <ele>421.4</ele>
        <time>2021-05-29T09:50:41Z</time>
      </trkpt>
      <trkpt lat="45.05696" lon="5.77171">
        <ele>421.4</ele>
        <time>2021-05-29T09:50:42Z</time>
      </trkpt>
      <trkpt lat="45.05695" lon="5.77172">
        <ele>421.4</ele>
        <time>2021-05-29T09:50:43Z</time>
      </trkpt>
      <trkpt lat="45.05694" lon="5.77174">
        <ele>421.4</ele>
        <time>2021-05-29T09:50:44Z</time>
      </trkpt>
      <trkpt lat="45.05692" lon="5.77176">
        <ele>421.4</ele>
        <time>2021-05-29T09:50:45Z</time>
      </trkpt>
      <trkpt lat="45.05691" lon="5.77178">
        <ele>421.4</ele>
        <time>2021-05-29T09:50:46Z</time>
      </trkpt>
      <trkpt lat="45.05689" lon="5.77179">
        <ele>421.4</ele>
        <time>2021-05-29T09:50:47Z</time>
      </trkpt>
      <trkpt lat="45.05688" lon="5.77181">
        <ele>421.4</ele>
        <time>2021-05-29T09:50:48Z</time>
      </trkpt>
      <trkpt lat="45.05687" lon="5.77183">
        <ele>421.4</ele>
        <time>2021-05-29T09:50:49Z</time>
      </trkpt>
      <trkpt lat="45.05687" lon="5.77184">
        <ele>421.4</ele>
        <time>2021-05-29T09:50:50Z</time>
      </trkpt>
      <trkpt lat="45.05686" lon="5.77186">
        <ele>421.2</ele>
        <time>2021-05-29T09:50:51Z</time>
      </trkpt>
      <trkpt lat="45.05686" lon="5.77188">
        <ele>421.2</ele>
        <time>2021-05-29T09:50:52Z</time>
      </trkpt>
      <trkpt lat="45.05685" lon="5.77189">
        <ele>421.4</ele>
        <time>2021-05-29T09:50:53Z</time>
      </trkpt>
      <trkpt lat="45.05685" lon="5.77191">
        <ele>421.4</ele>
        <time>2021-05-29T09:50:54Z</time>
      </trkpt>
      <trkpt lat="45.05684" lon="5.77193">
        <ele>421.4</ele>
        <time>2021-05-29T09:50:55Z</time>
      </trkpt>
      <trkpt lat="45.05684" lon="5.77194">
        <ele>421.4</ele>
        <time>2021-05-29T09:50:56Z</time>
      </trkpt>
      <trkpt lat="45.05683" lon="5.77196">
        <ele>421.4</ele>
        <time>2021-05-29T09:50:57Z</time>
      </trkpt>
      <trkpt lat="45.05683" lon="5.77198">
        <ele>421.2</ele>
        <time>2021-05-29T09:50:58Z</time>
      </trkpt>
      <trkpt lat="45.05683" lon="5.77201">
        <ele>421.2</ele>
        <time>2021-05-29T09:50:59Z</time>
      </trkpt>
      <trkpt lat="45.05682" lon="5.77203">
        <ele>421.2</ele>
        <time>2021-05-29T09:51:00Z</time>
      </trkpt>
      <trkpt lat="45.05682" lon="5.77205">
        <ele>421.2</ele>
        <time>2021-05-29T09:51:01Z</time>
      </trkpt>
      <trkpt lat="45.05683" lon="5.77206">
        <ele>421.2</ele>
        <time>2021-05-29T09:51:02Z</time>
      </trkpt>
      <trkpt lat="45.05684" lon="5.77206">
        <ele>421.2</ele>
        <time>2021-05-29T09:51:03Z</time>
      </trkpt>
      <trkpt lat="45.05684" lon="5.77207">
        <ele>421.2</ele>
        <time>2021-05-29T09:51:04Z</time>
      </trkpt>
      <trkpt lat="45.05685" lon="5.77208">
        <ele>421.2</ele>
        <time>2021-05-29T09:51:05Z</time>
      </trkpt>
      <trkpt lat="45.05686" lon="5.77209">
        <ele>421.2</ele>
        <time>2021-05-29T09:51:06Z</time>
      </trkpt>
      <trkpt lat="45.05686" lon="5.7721">
        <ele>421.4</ele>
        <time>2021-05-29T09:51:07Z</time>
      </trkpt>
      <trkpt lat="45.05687" lon="5.7721">
        <ele>421.4</ele>
        <time>2021-05-29T09:51:08Z</time>
      </trkpt>
      <trkpt lat="45.05688" lon="5.77211">
        <ele>421.4</ele>
        <time>2021-05-29T09:51:09Z</time>
      </trkpt>
      <trkpt lat="45.05688" lon="5.77212">
        <ele>421.4</ele>
        <time>2021-05-29T09:51:10Z</time>
      </trkpt>
      <trkpt lat="45.05689" lon="5.77213">
        <ele>421.4</ele>
        <time>2021-05-29T09:51:11Z</time>
      </trkpt>
      <trkpt lat="45.0569" lon="5.77214">
        <ele>421.4</ele>
        <time>2021-05-29T09:51:12Z</time>
      </trkpt>
      <trkpt lat="45.05692" lon="5.77216">
        <ele>421.4</ele>
        <time>2021-05-29T09:51:13Z</time>
      </trkpt>
      <trkpt lat="45.05693" lon="5.77219">
        <ele>421.2</ele>
        <time>2021-05-29T09:51:14Z</time>
      </trkpt>
      <trkpt lat="45.05695" lon="5.77221">
        <ele>421</ele>
        <time>2021-05-29T09:51:15Z</time>
      </trkpt>
      <trkpt lat="45.05697" lon="5.77224">
        <ele>421</ele>
        <time>2021-05-29T09:51:16Z</time>
      </trkpt>
      <trkpt lat="45.05698" lon="5.77227">
        <ele>421</ele>
        <time>2021-05-29T09:51:17Z</time>
      </trkpt>
      <trkpt lat="45.05698" lon="5.77229">
        <ele>421</ele>
        <time>2021-05-29T09:51:18Z</time>
      </trkpt>
      <trkpt lat="45.05699" lon="5.77232">
        <ele>421</ele>
        <time>2021-05-29T09:51:19Z</time>
      </trkpt>
      <trkpt lat="45.057" lon="5.77235">
        <ele>421</ele>
        <time>2021-05-29T09:51:20Z</time>
      </trkpt>
      <trkpt lat="45.057" lon="5.77238">
        <ele>421.2</ele>
        <time>2021-05-29T09:51:21Z</time>
      </trkpt>
      <trkpt lat="45.057" lon="5.77239">
        <ele>421.4</ele>
        <time>2021-05-29T09:51:22Z</time>
      </trkpt>
      <trkpt lat="45.057" lon="5.7724">
        <ele>421.2</ele>
        <time>2021-05-29T09:51:23Z</time>
      </trkpt>
      <trkpt lat="45.05699" lon="5.77241">
        <ele>421.2</ele>
        <time>2021-05-29T09:51:24Z</time>
      </trkpt>
      <trkpt lat="45.05699" lon="5.77243">
        <ele>421.2</ele>
        <time>2021-05-29T09:51:25Z</time>
      </trkpt>
      <trkpt lat="45.05699" lon="5.77244">
        <ele>421.2</ele>
        <time>2021-05-29T09:51:26Z</time>
      </trkpt>
      <trkpt lat="45.05698" lon="5.77245">
        <ele>421.2</ele>
        <time>2021-05-29T09:51:27Z</time>
      </trkpt>
      <trkpt lat="45.05698" lon="5.77246">
        <ele>421.4</ele>
        <time>2021-05-29T09:51:28Z</time>
      </trkpt>
      <trkpt lat="45.05698" lon="5.77248">
        <ele>421.6</ele>
        <time>2021-05-29T09:51:29Z</time>
      </trkpt>
      <trkpt lat="45.05697" lon="5.77249">
        <ele>421.8</ele>
        <time>2021-05-29T09:51:30Z</time>
      </trkpt>
      <trkpt lat="45.05697" lon="5.7725">
        <ele>421.8</ele>
        <time>2021-05-29T09:51:31Z</time>
      </trkpt>
      <trkpt lat="45.05697" lon="5.77252">
        <ele>422</ele>
        <time>2021-05-29T09:51:32Z</time>
      </trkpt>
      <trkpt lat="45.05697" lon="5.77254">
        <ele>421.8</ele>
        <time>2021-05-29T09:51:33Z</time>
      </trkpt>
      <trkpt lat="45.05698" lon="5.77257">
        <ele>421.8</ele>
        <time>2021-05-29T09:51:34Z</time>
      </trkpt>
      <trkpt lat="45.05698" lon="5.77259">
        <ele>421.8</ele>
        <time>2021-05-29T09:51:35Z</time>
      </trkpt>
      <trkpt lat="45.05698" lon="5.77261">
        <ele>421.8</ele>
        <time>2021-05-29T09:51:36Z</time>
      </trkpt>
      <trkpt lat="45.05699" lon="5.77263">
        <ele>421.8</ele>
        <time>2021-05-29T09:51:37Z</time>
      </trkpt>
      <trkpt lat="45.05699" lon="5.77265">
        <ele>422</ele>
        <time>2021-05-29T09:51:38Z</time>
      </trkpt>
      <trkpt lat="45.05699" lon="5.77267">
        <ele>422</ele>
        <time>2021-05-29T09:51:39Z</time>
      </trkpt>
      <trkpt lat="45.057" lon="5.77269">
        <ele>422</ele>
        <time>2021-05-29T09:51:40Z</time>
      </trkpt>
      <trkpt lat="45.057" lon="5.77271">
        <ele>422</ele>
        <time>2021-05-29T09:51:41Z</time>
      </trkpt>
      <trkpt lat="45.057" lon="5.77273">
        <ele>422.2</ele>
        <time>2021-05-29T09:51:42Z</time>
      </trkpt>
      <trkpt lat="45.05701" lon="5.77275">
        <ele>422.2</ele>
        <time>2021-05-29T09:51:43Z</time>
      </trkpt>
      <trkpt lat="45.05701" lon="5.77277">
        <ele>422.2</ele>
        <time>2021-05-29T09:51:44Z</time>
      </trkpt>
      <trkpt lat="45.05702" lon="5.77279">
        <ele>422.2</ele>
        <time>2021-05-29T09:51:45Z</time>
      </trkpt>
      <trkpt lat="45.05703" lon="5.77281">
        <ele>422.2</ele>
        <time>2021-05-29T09:51:46Z</time>
      </trkpt>
      <trkpt lat="45.05704" lon="5.77283">
        <ele>422</ele>
        <time>2021-05-29T09:51:47Z</time>
      </trkpt>
      <trkpt lat="45.05705" lon="5.77286">
        <ele>422</ele>
        <time>2021-05-29T09:51:48Z</time>
      </trkpt>
      <trkpt lat="45.05706" lon="5.77288">
        <ele>422.2</ele>
        <time>2021-05-29T09:51:49Z</time>
      </trkpt>
      <trkpt lat="45.05707" lon="5.7729">
        <ele>422.4</ele>
        <time>2021-05-29T09:51:50Z</time>
      </trkpt>
      <trkpt lat="45.05709" lon="5.77292">
        <ele>422.6</ele>
        <time>2021-05-29T09:51:51Z</time>
      </trkpt>
      <trkpt lat="45.0571" lon="5.77295">
        <ele>422.6</ele>
        <time>2021-05-29T09:51:52Z</time>
      </trkpt>
      <trkpt lat="45.05711" lon="5.77297">
        <ele>422.4</ele>
        <time>2021-05-29T09:51:53Z</time>
      </trkpt>
      <trkpt lat="45.05712" lon="5.77299">
        <ele>422.4</ele>
        <time>2021-05-29T09:51:54Z</time>
      </trkpt>
      <trkpt lat="45.05713" lon="5.77301">
        <ele>422.4</ele>
        <time>2021-05-29T09:51:55Z</time>
      </trkpt>
      <trkpt lat="45.05713" lon="5.77303">
        <ele>422.4</ele>
        <time>2021-05-29T09:51:56Z</time>
      </trkpt>
      <trkpt lat="45.05714" lon="5.77305">
        <ele>422.4</ele>
        <time>2021-05-29T09:51:57Z</time>
      </trkpt>
      <trkpt lat="45.05714" lon="5.77307">
        <ele>422.2</ele>
        <time>2021-05-29T09:51:58Z</time>
      </trkpt>
      <trkpt lat="45.05715" lon="5.77309">
        <ele>422.2</ele>
        <time>2021-05-29T09:51:59Z</time>
      </trkpt>
      <trkpt lat="45.05716" lon="5.77311">
        <ele>422.2</ele>
        <time>2021-05-29T09:52:00Z</time>
      </trkpt>
      <trkpt lat="45.05716" lon="5.77313">
        <ele>422.6</ele>
        <time>2021-05-29T09:52:01Z</time>
      </trkpt>
      <trkpt lat="45.05716" lon="5.77314">
        <ele>422.8</ele>
        <time>2021-05-29T09:52:02Z</time>
      </trkpt>
      <trkpt lat="45.05717" lon="5.77316">
        <ele>423</ele>
        <time>2021-05-29T09:52:03Z</time>
      </trkpt>
      <trkpt lat="45.05717" lon="5.77318">
        <ele>423</ele>
        <time>2021-05-29T09:52:04Z</time>
      </trkpt>
      <trkpt lat="45.05718" lon="5.77319">
        <ele>423.4</ele>
        <time>2021-05-29T09:52:05Z</time>
      </trkpt>
      <trkpt lat="45.05718" lon="5.77321">
        <ele>423.6</ele>
        <time>2021-05-29T09:52:06Z</time>
      </trkpt>
      <trkpt lat="45.05719" lon="5.77323">
        <ele>423.8</ele>
        <time>2021-05-29T09:52:07Z</time>
      </trkpt>
      <trkpt lat="45.05719" lon="5.77324">
        <ele>423.8</ele>
        <time>2021-05-29T09:52:08Z</time>
      </trkpt>
      <trkpt lat="45.0572" lon="5.77327">
        <ele>423.8</ele>
        <time>2021-05-29T09:52:09Z</time>
      </trkpt>
      <trkpt lat="45.05721" lon="5.77329">
        <ele>423.8</ele>
        <time>2021-05-29T09:52:10Z</time>
      </trkpt>
      <trkpt lat="45.05722" lon="5.77332">
        <ele>423.6</ele>
        <time>2021-05-29T09:52:11Z</time>
      </trkpt>
      <trkpt lat="45.05722" lon="5.77334">
        <ele>423.2</ele>
        <time>2021-05-29T09:52:12Z</time>
      </trkpt>
      <trkpt lat="45.05723" lon="5.77336">
        <ele>423</ele>
        <time>2021-05-29T09:52:13Z</time>
      </trkpt>
      <trkpt lat="45.05724" lon="5.77339">
        <ele>422.8</ele>
        <time>2021-05-29T09:52:14Z</time>
      </trkpt>
      <trkpt lat="45.05725" lon="5.7734">
        <ele>422.6</ele>
        <time>2021-05-29T09:52:15Z</time>
      </trkpt>
      <trkpt lat="45.05725" lon="5.77342">
        <ele>422.6</ele>
        <time>2021-05-29T09:52:16Z</time>
      </trkpt>
      <trkpt lat="45.05726" lon="5.77343">
        <ele>422.4</ele>
        <time>2021-05-29T09:52:17Z</time>
      </trkpt>
      <trkpt lat="45.05726" lon="5.77344">
        <ele>422.4</ele>
        <time>2021-05-29T09:52:18Z</time>
      </trkpt>
      <trkpt lat="45.05727" lon="5.77345">
        <ele>422.2</ele>
        <time>2021-05-29T09:52:19Z</time>
      </trkpt>
      <trkpt lat="45.05728" lon="5.77346">
        <ele>422.2</ele>
        <time>2021-05-29T09:52:20Z</time>
      </trkpt>
      <trkpt lat="45.05728" lon="5.77347">
        <ele>422.2</ele>
        <time>2021-05-29T09:52:21Z</time>
      </trkpt>
      <trkpt lat="45.05729" lon="5.77349">
        <ele>422</ele>
        <time>2021-05-29T09:52:22Z</time>
      </trkpt>
      <trkpt lat="45.05729" lon="5.7735">
        <ele>421.8</ele>
        <time>2021-05-29T09:52:23Z</time>
      </trkpt>
      <trkpt lat="45.0573" lon="5.77351">
        <ele>421.8</ele>
        <time>2021-05-29T09:52:24Z</time>
      </trkpt>
      <trkpt lat="45.0573" lon="5.77352">
        <ele>421.8</ele>
        <time>2021-05-29T09:52:25Z</time>
      </trkpt>
      <trkpt lat="45.05731" lon="5.77353">
        <ele>421.8</ele>
        <time>2021-05-29T09:52:26Z</time>
      </trkpt>
      <trkpt lat="45.05732" lon="5.77354">
        <ele>422</ele>
        <time>2021-05-29T09:52:27Z</time>
      </trkpt>
      <trkpt lat="45.05732" lon="5.77356">
        <ele>422</ele>
        <time>2021-05-29T09:52:28Z</time>
      </trkpt>
      <trkpt lat="45.05733" lon="5.77357">
        <ele>422</ele>
        <time>2021-05-29T09:52:29Z</time>
      </trkpt>
      <trkpt lat="45.05733" lon="5.77358">
        <ele>421.8</ele>
        <time>2021-05-29T09:52:30Z</time>
      </trkpt>
      <trkpt lat="45.05734" lon="5.77359">
        <ele>421.8</ele>
        <time>2021-05-29T09:52:31Z</time>
      </trkpt>
      <trkpt lat="45.05734" lon="5.7736">
        <ele>421.8</ele>
        <time>2021-05-29T09:52:32Z</time>
      </trkpt>
      <trkpt lat="45.05735" lon="5.77361">
        <ele>421.8</ele>
        <time>2021-05-29T09:52:33Z</time>
      </trkpt>
      <trkpt lat="45.05736" lon="5.77363">
        <ele>421.6</ele>
        <time>2021-05-29T09:52:34Z</time>
      </trkpt>
      <trkpt lat="45.05736" lon="5.77364">
        <ele>421.6</ele>
        <time>2021-05-29T09:52:35Z</time>
      </trkpt>
      <trkpt lat="45.05737" lon="5.77365">
        <ele>421.8</ele>
        <time>2021-05-29T09:52:36Z</time>
      </trkpt>
      <trkpt lat="45.05737" lon="5.77366">
        <ele>421.6</ele>
        <time>2021-05-29T09:52:37Z</time>
      </trkpt>
      <trkpt lat="45.05738" lon="5.77367">
        <ele>422</ele>
        <time>2021-05-29T09:52:38Z</time>
      </trkpt>
      <trkpt lat="45.05738" lon="5.77368">
        <ele>422</ele>
        <time>2021-05-29T09:52:39Z</time>
      </trkpt>
      <trkpt lat="45.05739" lon="5.7737">
        <ele>422</ele>
        <time>2021-05-29T09:52:40Z</time>
      </trkpt>
      <trkpt lat="45.0574" lon="5.77371">
        <ele>422</ele>
        <time>2021-05-29T09:52:41Z</time>
      </trkpt>
      <trkpt lat="45.0574" lon="5.77372">
        <ele>422</ele>
        <time>2021-05-29T09:52:42Z</time>
      </trkpt>
      <trkpt lat="45.05741" lon="5.77373">
        <ele>421.8</ele>
        <time>2021-05-29T09:52:43Z</time>
      </trkpt>
      <trkpt lat="45.05741" lon="5.77374">
        <ele>421.8</ele>
        <time>2021-05-29T09:52:44Z</time>
      </trkpt>
      <trkpt lat="45.05742" lon="5.77375">
        <ele>421.6</ele>
        <time>2021-05-29T09:52:45Z</time>
      </trkpt>
      <trkpt lat="45.05742" lon="5.77377">
        <ele>421.2</ele>
        <time>2021-05-29T09:52:46Z</time>
      </trkpt>
      <trkpt lat="45.05743" lon="5.77378">
        <ele>420.8</ele>
        <time>2021-05-29T09:52:47Z</time>
      </trkpt>
      <trkpt lat="45.05744" lon="5.77379">
        <ele>420.4</ele>
        <time>2021-05-29T09:52:48Z</time>
      </trkpt>
      <trkpt lat="45.05744" lon="5.7738">
        <ele>420.2</ele>
        <time>2021-05-29T09:52:49Z</time>
      </trkpt>
      <trkpt lat="45.05745" lon="5.77381">
        <ele>419.8</ele>
        <time>2021-05-29T09:52:50Z</time>
      </trkpt>
      <trkpt lat="45.05745" lon="5.77382">
        <ele>419.6</ele>
        <time>2021-05-29T09:52:51Z</time>
      </trkpt>
      <trkpt lat="45.05746" lon="5.77384">
        <ele>419.6</ele>
        <time>2021-05-29T09:52:52Z</time>
      </trkpt>
      <trkpt lat="45.05747" lon="5.77385">
        <ele>419.4</ele>
        <time>2021-05-29T09:52:53Z</time>
      </trkpt>
      <trkpt lat="45.05747" lon="5.77386">
        <ele>419.2</ele>
        <time>2021-05-29T09:52:54Z</time>
      </trkpt>
      <trkpt lat="45.05748" lon="5.77387">
        <ele>419.2</ele>
        <time>2021-05-29T09:52:55Z</time>
      </trkpt>
      <trkpt lat="45.05748" lon="5.77388">
        <ele>419</ele>
        <time>2021-05-29T09:52:56Z</time>
      </trkpt>
      <trkpt lat="45.05749" lon="5.7739">
        <ele>419</ele>
        <time>2021-05-29T09:52:57Z</time>
      </trkpt>
      <trkpt lat="45.05749" lon="5.77391">
        <ele>418.8</ele>
        <time>2021-05-29T09:52:58Z</time>
      </trkpt>
      <trkpt lat="45.0575" lon="5.77392">
        <ele>418.8</ele>
        <time>2021-05-29T09:52:59Z</time>
      </trkpt>
      <trkpt lat="45.05751" lon="5.77393">
        <ele>418.8</ele>
        <time>2021-05-29T09:53:00Z</time>
      </trkpt>
      <trkpt lat="45.05751" lon="5.77394">
        <ele>418.8</ele>
        <time>2021-05-29T09:53:01Z</time>
      </trkpt>
      <trkpt lat="45.05752" lon="5.77395">
        <ele>418.6</ele>
        <time>2021-05-29T09:53:02Z</time>
      </trkpt>
      <trkpt lat="45.05752" lon="5.77397">
        <ele>418.6</ele>
        <time>2021-05-29T09:53:03Z</time>
      </trkpt>
      <trkpt lat="45.05753" lon="5.77398">
        <ele>418.6</ele>
        <time>2021-05-29T09:53:04Z</time>
      </trkpt>
      <trkpt lat="45.05753" lon="5.77399">
        <ele>418.4</ele>
        <time>2021-05-29T09:53:05Z</time>
      </trkpt>
      <trkpt lat="45.05754" lon="5.774">
        <ele>418.4</ele>
        <time>2021-05-29T09:53:06Z</time>
      </trkpt>
      <trkpt lat="45.05755" lon="5.77401">
        <ele>418.6</ele>
        <time>2021-05-29T09:53:07Z</time>
      </trkpt>
      <trkpt lat="45.05755" lon="5.77402">
        <ele>418.6</ele>
        <time>2021-05-29T09:53:08Z</time>
      </trkpt>
      <trkpt lat="45.05756" lon="5.77404">
        <ele>418.6</ele>
        <time>2021-05-29T09:53:09Z</time>
      </trkpt>
      <trkpt lat="45.05756" lon="5.77405">
        <ele>418.6</ele>
        <time>2021-05-29T09:53:10Z</time>
      </trkpt>
      <trkpt lat="45.05757" lon="5.77406">
        <ele>418.4</ele>
        <time>2021-05-29T09:53:11Z</time>
      </trkpt>
      <trkpt lat="45.05757" lon="5.77407">
        <ele>418.6</ele>
        <time>2021-05-29T09:53:12Z</time>
      </trkpt>
      <trkpt lat="45.05758" lon="5.77408">
        <ele>418.6</ele>
        <time>2021-05-29T09:53:13Z</time>
      </trkpt>
      <trkpt lat="45.05759" lon="5.77409">
        <ele>418.6</ele>
        <time>2021-05-29T09:53:14Z</time>
      </trkpt>
      <trkpt lat="45.05759" lon="5.77411">
        <ele>418.6</ele>
        <time>2021-05-29T09:53:15Z</time>
      </trkpt>
      <trkpt lat="45.05759" lon="5.77411">
        <ele>418.6</ele>
        <time>2021-05-29T09:53:16Z</time>
      </trkpt>
      <trkpt lat="45.05759" lon="5.77411">
        <ele>418.8</ele>
        <time>2021-05-29T09:53:17Z</time>
      </trkpt>
      <trkpt lat="45.0576" lon="5.77412">
        <ele>418.8</ele>
        <time>2021-05-29T09:53:18Z</time>
      </trkpt>
      <trkpt lat="45.0576" lon="5.77413">
        <ele>418.6</ele>
        <time>2021-05-29T09:53:19Z</time>
      </trkpt>
      <trkpt lat="45.05761" lon="5.77415">
        <ele>418.4</ele>
        <time>2021-05-29T09:53:20Z</time>
      </trkpt>
      <trkpt lat="45.05762" lon="5.77416">
        <ele>418.4</ele>
        <time>2021-05-29T09:53:21Z</time>
      </trkpt>
      <trkpt lat="45.05762" lon="5.77418">
        <ele>418.6</ele>
        <time>2021-05-29T09:53:22Z</time>
      </trkpt>
      <trkpt lat="45.05763" lon="5.77419">
        <ele>418.6</ele>
        <time>2021-05-29T09:53:23Z</time>
      </trkpt>
      <trkpt lat="45.05764" lon="5.77421">
        <ele>418.4</ele>
        <time>2021-05-29T09:53:24Z</time>
      </trkpt>
      <trkpt lat="45.05764" lon="5.77422">
        <ele>418.2</ele>
        <time>2021-05-29T09:53:25Z</time>
      </trkpt>
      <trkpt lat="45.05765" lon="5.77426">
        <ele>418.2</ele>
        <time>2021-05-29T09:53:26Z</time>
      </trkpt>
      <trkpt lat="45.05766" lon="5.77429">
        <ele>418.2</ele>
        <time>2021-05-29T09:53:27Z</time>
      </trkpt>
      <trkpt lat="45.05767" lon="5.77433">
        <ele>418</ele>
        <time>2021-05-29T09:53:28Z</time>
      </trkpt>
      <trkpt lat="45.05768" lon="5.77436">
        <ele>418</ele>
        <time>2021-05-29T09:53:29Z</time>
      </trkpt>
      <trkpt lat="45.05769" lon="5.77439">
        <ele>418</ele>
        <time>2021-05-29T09:53:30Z</time>
      </trkpt>
      <trkpt lat="45.0577" lon="5.77441">
        <ele>417.8</ele>
        <time>2021-05-29T09:53:31Z</time>
      </trkpt>
      <trkpt lat="45.05771" lon="5.77444">
        <ele>417.8</ele>
        <time>2021-05-29T09:53:32Z</time>
      </trkpt>
      <trkpt lat="45.05772" lon="5.77446">
        <ele>417.6</ele>
        <time>2021-05-29T09:53:33Z</time>
      </trkpt>
      <trkpt lat="45.05773" lon="5.77448">
        <ele>417.6</ele>
        <time>2021-05-29T09:53:34Z</time>
      </trkpt>
      <trkpt lat="45.05773" lon="5.77451">
        <ele>417.6</ele>
        <time>2021-05-29T09:53:35Z</time>
      </trkpt>
      <trkpt lat="45.05773" lon="5.77453">
        <ele>417.6</ele>
        <time>2021-05-29T09:53:36Z</time>
      </trkpt>
      <trkpt lat="45.05774" lon="5.77455">
        <ele>417.4</ele>
        <time>2021-05-29T09:53:37Z</time>
      </trkpt>
      <trkpt lat="45.05774" lon="5.77457">
        <ele>417.4</ele>
        <time>2021-05-29T09:53:38Z</time>
      </trkpt>
      <trkpt lat="45.05775" lon="5.77459">
        <ele>417.4</ele>
        <time>2021-05-29T09:53:39Z</time>
      </trkpt>
      <trkpt lat="45.05775" lon="5.77462">
        <ele>417.4</ele>
        <time>2021-05-29T09:53:40Z</time>
      </trkpt>
      <trkpt lat="45.05775" lon="5.77464">
        <ele>417.4</ele>
        <time>2021-05-29T09:53:41Z</time>
      </trkpt>
      <trkpt lat="45.05775" lon="5.77467">
        <ele>417.2</ele>
        <time>2021-05-29T09:53:42Z</time>
      </trkpt>
      <trkpt lat="45.05775" lon="5.7747">
        <ele>417.2</ele>
        <time>2021-05-29T09:53:43Z</time>
      </trkpt>
      <trkpt lat="45.05775" lon="5.77473">
        <ele>417.2</ele>
        <time>2021-05-29T09:53:44Z</time>
      </trkpt>
      <trkpt lat="45.05775" lon="5.77476">
        <ele>417</ele>
        <time>2021-05-29T09:53:45Z</time>
      </trkpt>
      <trkpt lat="45.05775" lon="5.77479">
        <ele>417</ele>
        <time>2021-05-29T09:53:46Z</time>
      </trkpt>
      <trkpt lat="45.05775" lon="5.77481">
        <ele>417</ele>
        <time>2021-05-29T09:53:47Z</time>
      </trkpt>
      <trkpt lat="45.05775" lon="5.77481">
        <ele>417.4</ele>
        <time>2021-05-29T09:53:48Z</time>
      </trkpt>
      <trkpt lat="45.05776" lon="5.77486">
        <ele>417.8</ele>
        <time>2021-05-29T09:53:49Z</time>
      </trkpt>
      <trkpt lat="45.05776" lon="5.77486">
        <ele>417.8</ele>
        <time>2021-05-29T09:53:50Z</time>
      </trkpt>
      <trkpt lat="45.05777" lon="5.77491">
        <ele>417.8</ele>
        <time>2021-05-29T09:53:51Z</time>
      </trkpt>
      <trkpt lat="45.05777" lon="5.77491">
        <ele>417.6</ele>
        <time>2021-05-29T09:53:52Z</time>
      </trkpt>
      <trkpt lat="45.05779" lon="5.77494">
        <ele>417</ele>
        <time>2021-05-29T09:53:53Z</time>
      </trkpt>
      <trkpt lat="45.0578" lon="5.77496">
        <ele>416.8</ele>
        <time>2021-05-29T09:53:54Z</time>
      </trkpt>
      <trkpt lat="45.0578" lon="5.77498">
        <ele>416.6</ele>
        <time>2021-05-29T09:53:55Z</time>
      </trkpt>
      <trkpt lat="45.05781" lon="5.775">
        <ele>416.8</ele>
        <time>2021-05-29T09:53:56Z</time>
      </trkpt>
      <trkpt lat="45.05781" lon="5.775">
        <ele>416.8</ele>
        <time>2021-05-29T09:53:57Z</time>
      </trkpt>
      <trkpt lat="45.05781" lon="5.775">
        <ele>416.6</ele>
        <time>2021-05-29T09:53:58Z</time>
      </trkpt>
      <trkpt lat="45.05781" lon="5.77501">
        <ele>416.2</ele>
        <time>2021-05-29T09:53:59Z</time>
      </trkpt>
      <trkpt lat="45.05781" lon="5.77502">
        <ele>416</ele>
        <time>2021-05-29T09:54:00Z</time>
      </trkpt>
      <trkpt lat="45.05782" lon="5.77503">
        <ele>415.8</ele>
        <time>2021-05-29T09:54:01Z</time>
      </trkpt>
      <trkpt lat="45.05782" lon="5.77504">
        <ele>415.8</ele>
        <time>2021-05-29T09:54:02Z</time>
      </trkpt>
      <trkpt lat="45.05782" lon="5.77504">
        <ele>415.8</ele>
        <time>2021-05-29T09:54:03Z</time>
      </trkpt>
      <trkpt lat="45.05782" lon="5.77505">
        <ele>415.8</ele>
        <time>2021-05-29T09:54:04Z</time>
      </trkpt>
      <trkpt lat="45.05782" lon="5.77506">
        <ele>415.8</ele>
        <time>2021-05-29T09:54:05Z</time>
      </trkpt>
      <trkpt lat="45.05783" lon="5.77507">
        <ele>416</ele>
        <time>2021-05-29T09:54:06Z</time>
      </trkpt>
      <trkpt lat="45.05783" lon="5.77508">
        <ele>415.8</ele>
        <time>2021-05-29T09:54:07Z</time>
      </trkpt>
      <trkpt lat="45.05783" lon="5.77509">
        <ele>415.8</ele>
        <time>2021-05-29T09:54:08Z</time>
      </trkpt>
      <trkpt lat="45.05783" lon="5.7751">
        <ele>416</ele>
        <time>2021-05-29T09:54:09Z</time>
      </trkpt>
      <trkpt lat="45.05784" lon="5.77511">
        <ele>416</ele>
        <time>2021-05-29T09:54:10Z</time>
      </trkpt>
      <trkpt lat="45.05784" lon="5.77512">
        <ele>416</ele>
        <time>2021-05-29T09:54:11Z</time>
      </trkpt>
      <trkpt lat="45.05785" lon="5.77514">
        <ele>415.8</ele>
        <time>2021-05-29T09:54:12Z</time>
      </trkpt>
      <trkpt lat="45.05785" lon="5.77515">
        <ele>415.8</ele>
        <time>2021-05-29T09:54:13Z</time>
      </trkpt>
      <trkpt lat="45.05786" lon="5.77517">
        <ele>415.6</ele>
        <time>2021-05-29T09:54:14Z</time>
      </trkpt>
      <trkpt lat="45.05787" lon="5.77518">
        <ele>415.6</ele>
        <time>2021-05-29T09:54:15Z</time>
      </trkpt>
      <trkpt lat="45.05788" lon="5.7752">
        <ele>415.6</ele>
        <time>2021-05-29T09:54:16Z</time>
      </trkpt>
      <trkpt lat="45.05789" lon="5.77521">
        <ele>415.4</ele>
        <time>2021-05-29T09:54:17Z</time>
      </trkpt>
      <trkpt lat="45.05789" lon="5.77523">
        <ele>415.4</ele>
        <time>2021-05-29T09:54:18Z</time>
      </trkpt>
      <trkpt lat="45.05789" lon="5.77526">
        <ele>415.2</ele>
        <time>2021-05-29T09:54:19Z</time>
      </trkpt>
      <trkpt lat="45.05788" lon="5.7753">
        <ele>415</ele>
        <time>2021-05-29T09:54:20Z</time>
      </trkpt>
      <trkpt lat="45.05788" lon="5.77533">
        <ele>415</ele>
        <time>2021-05-29T09:54:21Z</time>
      </trkpt>
      <trkpt lat="45.05787" lon="5.77537">
        <ele>415</ele>
        <time>2021-05-29T09:54:22Z</time>
      </trkpt>
      <trkpt lat="45.05787" lon="5.77539">
        <ele>414.8</ele>
        <time>2021-05-29T09:54:23Z</time>
      </trkpt>
      <trkpt lat="45.05787" lon="5.7754">
        <ele>414.6</ele>
        <time>2021-05-29T09:54:24Z</time>
      </trkpt>
      <trkpt lat="45.05787" lon="5.77542">
        <ele>414.6</ele>
        <time>2021-05-29T09:54:25Z</time>
      </trkpt>
      <trkpt lat="45.05787" lon="5.77544">
        <ele>414.4</ele>
        <time>2021-05-29T09:54:26Z</time>
      </trkpt>
      <trkpt lat="45.05787" lon="5.77546">
        <ele>414.4</ele>
        <time>2021-05-29T09:54:27Z</time>
      </trkpt>
      <trkpt lat="45.05787" lon="5.77548">
        <ele>414.4</ele>
        <time>2021-05-29T09:54:28Z</time>
      </trkpt>
      <trkpt lat="45.05786" lon="5.7755">
        <ele>414.4</ele>
        <time>2021-05-29T09:54:29Z</time>
      </trkpt>
      <trkpt lat="45.05786" lon="5.77552">
        <ele>414.4</ele>
        <time>2021-05-29T09:54:30Z</time>
      </trkpt>
      <trkpt lat="45.05786" lon="5.77554">
        <ele>414.4</ele>
        <time>2021-05-29T09:54:31Z</time>
      </trkpt>
      <trkpt lat="45.05787" lon="5.77557">
        <ele>414.4</ele>
        <time>2021-05-29T09:54:32Z</time>
      </trkpt>
      <trkpt lat="45.05788" lon="5.7756">
        <ele>414.2</ele>
        <time>2021-05-29T09:54:33Z</time>
      </trkpt>
      <trkpt lat="45.05789" lon="5.77563">
        <ele>414.2</ele>
        <time>2021-05-29T09:54:34Z</time>
      </trkpt>
      <trkpt lat="45.0579" lon="5.77566">
        <ele>413.8</ele>
        <time>2021-05-29T09:54:35Z</time>
      </trkpt>
      <trkpt lat="45.0579" lon="5.77569">
        <ele>413.6</ele>
        <time>2021-05-29T09:54:36Z</time>
      </trkpt>
      <trkpt lat="45.05791" lon="5.77571">
        <ele>413.2</ele>
        <time>2021-05-29T09:54:37Z</time>
      </trkpt>
      <trkpt lat="45.05792" lon="5.77573">
        <ele>413.2</ele>
        <time>2021-05-29T09:54:38Z</time>
      </trkpt>
      <trkpt lat="45.05793" lon="5.77575">
        <ele>413</ele>
        <time>2021-05-29T09:54:39Z</time>
      </trkpt>
      <trkpt lat="45.05793" lon="5.77577">
        <ele>412.8</ele>
        <time>2021-05-29T09:54:40Z</time>
      </trkpt>
      <trkpt lat="45.05794" lon="5.77579">
        <ele>412.8</ele>
        <time>2021-05-29T09:54:41Z</time>
      </trkpt>
      <trkpt lat="45.05795" lon="5.7758">
        <ele>413</ele>
        <time>2021-05-29T09:54:42Z</time>
      </trkpt>
      <trkpt lat="45.05796" lon="5.77582">
        <ele>412.8</ele>
        <time>2021-05-29T09:54:43Z</time>
      </trkpt>
      <trkpt lat="45.05796" lon="5.77584">
        <ele>412.6</ele>
        <time>2021-05-29T09:54:44Z</time>
      </trkpt>
      <trkpt lat="45.05797" lon="5.77585">
        <ele>412.4</ele>
        <time>2021-05-29T09:54:45Z</time>
      </trkpt>
      <trkpt lat="45.05798" lon="5.77587">
        <ele>412.2</ele>
        <time>2021-05-29T09:54:46Z</time>
      </trkpt>
      <trkpt lat="45.05799" lon="5.77588">
        <ele>412.2</ele>
        <time>2021-05-29T09:54:47Z</time>
      </trkpt>
      <trkpt lat="45.058" lon="5.7759">
        <ele>412.2</ele>
        <time>2021-05-29T09:54:48Z</time>
      </trkpt>
      <trkpt lat="45.058" lon="5.77591">
        <ele>412</ele>
        <time>2021-05-29T09:54:49Z</time>
      </trkpt>
      <trkpt lat="45.05801" lon="5.77593">
        <ele>412</ele>
        <time>2021-05-29T09:54:50Z</time>
      </trkpt>
      <trkpt lat="45.05801" lon="5.77594">
        <ele>412.2</ele>
        <time>2021-05-29T09:54:51Z</time>
      </trkpt>
      <trkpt lat="45.05801" lon="5.77596">
        <ele>412.2</ele>
        <time>2021-05-29T09:54:52Z</time>
      </trkpt>
      <trkpt lat="45.05801" lon="5.77597">
        <ele>412</ele>
        <time>2021-05-29T09:54:53Z</time>
      </trkpt>
      <trkpt lat="45.05801" lon="5.77598">
        <ele>412.2</ele>
        <time>2021-05-29T09:54:54Z</time>
      </trkpt>
      <trkpt lat="45.05801" lon="5.776">
        <ele>412</ele>
        <time>2021-05-29T09:54:55Z</time>
      </trkpt>
      <trkpt lat="45.05801" lon="5.77601">
        <ele>412</ele>
        <time>2021-05-29T09:54:56Z</time>
      </trkpt>
      <trkpt lat="45.05801" lon="5.77603">
        <ele>411.8</ele>
        <time>2021-05-29T09:54:57Z</time>
      </trkpt>
      <trkpt lat="45.05802" lon="5.77604">
        <ele>411.8</ele>
        <time>2021-05-29T09:54:58Z</time>
      </trkpt>
      <trkpt lat="45.05802" lon="5.77606">
        <ele>411.6</ele>
        <time>2021-05-29T09:54:59Z</time>
      </trkpt>
      <trkpt lat="45.05802" lon="5.77607">
        <ele>411.6</ele>
        <time>2021-05-29T09:55:00Z</time>
      </trkpt>
      <trkpt lat="45.05802" lon="5.77609">
        <ele>411.6</ele>
        <time>2021-05-29T09:55:01Z</time>
      </trkpt>
      <trkpt lat="45.05802" lon="5.77611">
        <ele>411.6</ele>
        <time>2021-05-29T09:55:02Z</time>
      </trkpt>
      <trkpt lat="45.05802" lon="5.77612">
        <ele>411.4</ele>
        <time>2021-05-29T09:55:03Z</time>
      </trkpt>
      <trkpt lat="45.05802" lon="5.77614">
        <ele>411.2</ele>
        <time>2021-05-29T09:55:04Z</time>
      </trkpt>
      <trkpt lat="45.05802" lon="5.77616">
        <ele>411.2</ele>
        <time>2021-05-29T09:55:05Z</time>
      </trkpt>
      <trkpt lat="45.05802" lon="5.77618">
        <ele>411</ele>
        <time>2021-05-29T09:55:06Z</time>
      </trkpt>
      <trkpt lat="45.05802" lon="5.77619">
        <ele>410.8</ele>
        <time>2021-05-29T09:55:07Z</time>
      </trkpt>
      <trkpt lat="45.05803" lon="5.77621">
        <ele>410.8</ele>
        <time>2021-05-29T09:55:08Z</time>
      </trkpt>
      <trkpt lat="45.05803" lon="5.77623">
        <ele>410.6</ele>
        <time>2021-05-29T09:55:09Z</time>
      </trkpt>
      <trkpt lat="45.05803" lon="5.77625">
        <ele>410.4</ele>
        <time>2021-05-29T09:55:10Z</time>
      </trkpt>
      <trkpt lat="45.05803" lon="5.77627">
        <ele>410.4</ele>
        <time>2021-05-29T09:55:11Z</time>
      </trkpt>
      <trkpt lat="45.05804" lon="5.7763">
        <ele>410.4</ele>
        <time>2021-05-29T09:55:12Z</time>
      </trkpt>
      <trkpt lat="45.05804" lon="5.77632">
        <ele>410.2</ele>
        <time>2021-05-29T09:55:13Z</time>
      </trkpt>
      <trkpt lat="45.05804" lon="5.77634">
        <ele>410.2</ele>
        <time>2021-05-29T09:55:14Z</time>
      </trkpt>
      <trkpt lat="45.05805" lon="5.77636">
        <ele>410.2</ele>
        <time>2021-05-29T09:55:15Z</time>
      </trkpt>
      <trkpt lat="45.05807" lon="5.77639">
        <ele>410.2</ele>
        <time>2021-05-29T09:55:16Z</time>
      </trkpt>
      <trkpt lat="45.05808" lon="5.77641">
        <ele>410</ele>
        <time>2021-05-29T09:55:17Z</time>
      </trkpt>
      <trkpt lat="45.05809" lon="5.77644">
        <ele>410</ele>
        <time>2021-05-29T09:55:18Z</time>
      </trkpt>
      <trkpt lat="45.05809" lon="5.77646">
        <ele>409.8</ele>
        <time>2021-05-29T09:55:19Z</time>
      </trkpt>
      <trkpt lat="45.05809" lon="5.77647">
        <ele>409.8</ele>
        <time>2021-05-29T09:55:20Z</time>
      </trkpt>
      <trkpt lat="45.05809" lon="5.77649">
        <ele>409.8</ele>
        <time>2021-05-29T09:55:21Z</time>
      </trkpt>
      <trkpt lat="45.05809" lon="5.7765">
        <ele>409.6</ele>
        <time>2021-05-29T09:55:22Z</time>
      </trkpt>
      <trkpt lat="45.05809" lon="5.77652">
        <ele>409.6</ele>
        <time>2021-05-29T09:55:23Z</time>
      </trkpt>
      <trkpt lat="45.05809" lon="5.77653">
        <ele>409.6</ele>
        <time>2021-05-29T09:55:24Z</time>
      </trkpt>
      <trkpt lat="45.05808" lon="5.77655">
        <ele>409.6</ele>
        <time>2021-05-29T09:55:25Z</time>
      </trkpt>
      <trkpt lat="45.05808" lon="5.77656">
        <ele>409.4</ele>
        <time>2021-05-29T09:55:26Z</time>
      </trkpt>
      <trkpt lat="45.05808" lon="5.77658">
        <ele>409.4</ele>
        <time>2021-05-29T09:55:27Z</time>
      </trkpt>
      <trkpt lat="45.05808" lon="5.77659">
        <ele>409.4</ele>
        <time>2021-05-29T09:55:28Z</time>
      </trkpt>
      <trkpt lat="45.0581" lon="5.77661">
        <ele>409.2</ele>
        <time>2021-05-29T09:55:29Z</time>
      </trkpt>
      <trkpt lat="45.05812" lon="5.77664">
        <ele>409</ele>
        <time>2021-05-29T09:55:30Z</time>
      </trkpt>
      <trkpt lat="45.05813" lon="5.77666">
        <ele>409</ele>
        <time>2021-05-29T09:55:31Z</time>
      </trkpt>
      <trkpt lat="45.05815" lon="5.77668">
        <ele>409</ele>
        <time>2021-05-29T09:55:32Z</time>
      </trkpt>
      <trkpt lat="45.05817" lon="5.77671">
        <ele>408.8</ele>
        <time>2021-05-29T09:55:33Z</time>
      </trkpt>
      <trkpt lat="45.05818" lon="5.77674">
        <ele>408.8</ele>
        <time>2021-05-29T09:55:34Z</time>
      </trkpt>
      <trkpt lat="45.0582" lon="5.77677">
        <ele>409</ele>
        <time>2021-05-29T09:55:35Z</time>
      </trkpt>
      <trkpt lat="45.05821" lon="5.7768">
        <ele>409.4</ele>
        <time>2021-05-29T09:55:36Z</time>
      </trkpt>
      <trkpt lat="45.05822" lon="5.77681">
        <ele>409.6</ele>
        <time>2021-05-29T09:55:37Z</time>
      </trkpt>
      <trkpt lat="45.05824" lon="5.77683">
        <ele>409.8</ele>
        <time>2021-05-29T09:55:38Z</time>
      </trkpt>
      <trkpt lat="45.05826" lon="5.77684">
        <ele>409.8</ele>
        <time>2021-05-29T09:55:39Z</time>
      </trkpt>
      <trkpt lat="45.05827" lon="5.77686">
        <ele>409.8</ele>
        <time>2021-05-29T09:55:40Z</time>
      </trkpt>
      <trkpt lat="45.05829" lon="5.77687">
        <ele>409.6</ele>
        <time>2021-05-29T09:55:41Z</time>
      </trkpt>
      <trkpt lat="45.0583" lon="5.77689">
        <ele>409.8</ele>
        <time>2021-05-29T09:55:42Z</time>
      </trkpt>
      <trkpt lat="45.0583" lon="5.7769">
        <ele>409.4</ele>
        <time>2021-05-29T09:55:43Z</time>
      </trkpt>
      <trkpt lat="45.05831" lon="5.77691">
        <ele>409.2</ele>
        <time>2021-05-29T09:55:44Z</time>
      </trkpt>
      <trkpt lat="45.05832" lon="5.77693">
        <ele>408.8</ele>
        <time>2021-05-29T09:55:45Z</time>
      </trkpt>
      <trkpt lat="45.05833" lon="5.77694">
        <ele>408.6</ele>
        <time>2021-05-29T09:55:46Z</time>
      </trkpt>
      <trkpt lat="45.05834" lon="5.77696">
        <ele>408.6</ele>
        <time>2021-05-29T09:55:47Z</time>
      </trkpt>
      <trkpt lat="45.05835" lon="5.77697">
        <ele>408.4</ele>
        <time>2021-05-29T09:55:48Z</time>
      </trkpt>
      <trkpt lat="45.05835" lon="5.77698">
        <ele>408.4</ele>
        <time>2021-05-29T09:55:49Z</time>
      </trkpt>
      <trkpt lat="45.05837" lon="5.77702">
        <ele>408.4</ele>
        <time>2021-05-29T09:55:50Z</time>
      </trkpt>
      <trkpt lat="45.05838" lon="5.77705">
        <ele>408.2</ele>
        <time>2021-05-29T09:55:51Z</time>
      </trkpt>
      <trkpt lat="45.05839" lon="5.77708">
        <ele>408.4</ele>
        <time>2021-05-29T09:55:52Z</time>
      </trkpt>
      <trkpt lat="45.05841" lon="5.77711">
        <ele>408.4</ele>
        <time>2021-05-29T09:55:53Z</time>
      </trkpt>
      <trkpt lat="45.0584" lon="5.77713">
        <ele>408.4</ele>
        <time>2021-05-29T09:55:54Z</time>
      </trkpt>
      <trkpt lat="45.05839" lon="5.77715">
        <ele>408.6</ele>
        <time>2021-05-29T09:55:55Z</time>
      </trkpt>
      <trkpt lat="45.05839" lon="5.77717">
        <ele>408.6</ele>
        <time>2021-05-29T09:55:56Z</time>
      </trkpt>
      <trkpt lat="45.05838" lon="5.77719">
        <ele>408.6</ele>
        <time>2021-05-29T09:55:57Z</time>
      </trkpt>
      <trkpt lat="45.05838" lon="5.77721">
        <ele>408.6</ele>
        <time>2021-05-29T09:55:58Z</time>
      </trkpt>
      <trkpt lat="45.05837" lon="5.77723">
        <ele>408.6</ele>
        <time>2021-05-29T09:55:59Z</time>
      </trkpt>
      <trkpt lat="45.05836" lon="5.77725">
        <ele>408.6</ele>
        <time>2021-05-29T09:56:00Z</time>
      </trkpt>
      <trkpt lat="45.05837" lon="5.77726">
        <ele>408.8</ele>
        <time>2021-05-29T09:56:01Z</time>
      </trkpt>
      <trkpt lat="45.05838" lon="5.77728">
        <ele>408.8</ele>
        <time>2021-05-29T09:56:02Z</time>
      </trkpt>
      <trkpt lat="45.05839" lon="5.77729">
        <ele>408.8</ele>
        <time>2021-05-29T09:56:03Z</time>
      </trkpt>
      <trkpt lat="45.0584" lon="5.7773">
        <ele>408.6</ele>
        <time>2021-05-29T09:56:04Z</time>
      </trkpt>
      <trkpt lat="45.05841" lon="5.77732">
        <ele>408.6</ele>
        <time>2021-05-29T09:56:05Z</time>
      </trkpt>
      <trkpt lat="45.05841" lon="5.77733">
        <ele>408.4</ele>
        <time>2021-05-29T09:56:06Z</time>
      </trkpt>
      <trkpt lat="45.05842" lon="5.77734">
        <ele>408.4</ele>
        <time>2021-05-29T09:56:07Z</time>
      </trkpt>
      <trkpt lat="45.05843" lon="5.77736">
        <ele>408.4</ele>
        <time>2021-05-29T09:56:08Z</time>
      </trkpt>
      <trkpt lat="45.05845" lon="5.77735">
        <ele>408.2</ele>
        <time>2021-05-29T09:56:09Z</time>
      </trkpt>
      <trkpt lat="45.05847" lon="5.77735">
        <ele>408</ele>
        <time>2021-05-29T09:56:10Z</time>
      </trkpt>
      <trkpt lat="45.05848" lon="5.77735">
        <ele>408</ele>
        <time>2021-05-29T09:56:11Z</time>
      </trkpt>
      <trkpt lat="45.0585" lon="5.77735">
        <ele>407.8</ele>
        <time>2021-05-29T09:56:12Z</time>
      </trkpt>
      <trkpt lat="45.05852" lon="5.77735">
        <ele>407.8</ele>
        <time>2021-05-29T09:56:13Z</time>
      </trkpt>
      <trkpt lat="45.05854" lon="5.77735">
        <ele>407.8</ele>
        <time>2021-05-29T09:56:14Z</time>
      </trkpt>
      <trkpt lat="45.05855" lon="5.77734">
        <ele>407.8</ele>
        <time>2021-05-29T09:56:15Z</time>
      </trkpt>
      <trkpt lat="45.05856" lon="5.77732">
        <ele>407.6</ele>
        <time>2021-05-29T09:56:16Z</time>
      </trkpt>
      <trkpt lat="45.05857" lon="5.7773">
        <ele>407.8</ele>
        <time>2021-05-29T09:56:17Z</time>
      </trkpt>
      <trkpt lat="45.05859" lon="5.77729">
        <ele>407.8</ele>
        <time>2021-05-29T09:56:18Z</time>
      </trkpt>
      <trkpt lat="45.0586" lon="5.77727">
        <ele>407.6</ele>
        <time>2021-05-29T09:56:19Z</time>
      </trkpt>
      <trkpt lat="45.05861" lon="5.77726">
        <ele>407.8</ele>
        <time>2021-05-29T09:56:20Z</time>
      </trkpt>
      <trkpt lat="45.05863" lon="5.77724">
        <ele>407.8</ele>
        <time>2021-05-29T09:56:21Z</time>
      </trkpt>
      <trkpt lat="45.05865" lon="5.77723">
        <ele>407.8</ele>
        <time>2021-05-29T09:56:22Z</time>
      </trkpt>
      <trkpt lat="45.05867" lon="5.77721">
        <ele>407.8</ele>
        <time>2021-05-29T09:56:23Z</time>
      </trkpt>
      <trkpt lat="45.05869" lon="5.77719">
        <ele>408</ele>
        <time>2021-05-29T09:56:24Z</time>
      </trkpt>
      <trkpt lat="45.05872" lon="5.77717">
        <ele>407.8</ele>
        <time>2021-05-29T09:56:25Z</time>
      </trkpt>
      <trkpt lat="45.05874" lon="5.77715">
        <ele>408</ele>
        <time>2021-05-29T09:56:26Z</time>
      </trkpt>
      <trkpt lat="45.05876" lon="5.77713">
        <ele>407.8</ele>
        <time>2021-05-29T09:56:27Z</time>
      </trkpt>
      <trkpt lat="45.05879" lon="5.77711">
        <ele>407.8</ele>
        <time>2021-05-29T09:56:28Z</time>
      </trkpt>
      <trkpt lat="45.05881" lon="5.77709">
        <ele>407.6</ele>
        <time>2021-05-29T09:56:29Z</time>
      </trkpt>
      <trkpt lat="45.05883" lon="5.77707">
        <ele>407.8</ele>
        <time>2021-05-29T09:56:30Z</time>
      </trkpt>
      <trkpt lat="45.05886" lon="5.77704">
        <ele>407.6</ele>
        <time>2021-05-29T09:56:31Z</time>
      </trkpt>
      <trkpt lat="45.05888" lon="5.77702">
        <ele>407.8</ele>
        <time>2021-05-29T09:56:32Z</time>
      </trkpt>
      <trkpt lat="45.0589" lon="5.777">
        <ele>407.6</ele>
        <time>2021-05-29T09:56:33Z</time>
      </trkpt>
      <trkpt lat="45.05891" lon="5.77697">
        <ele>407.8</ele>
        <time>2021-05-29T09:56:34Z</time>
      </trkpt>
      <trkpt lat="45.05892" lon="5.77695">
        <ele>407.4</ele>
        <time>2021-05-29T09:56:35Z</time>
      </trkpt>
      <trkpt lat="45.05894" lon="5.77693">
        <ele>407.8</ele>
        <time>2021-05-29T09:56:36Z</time>
      </trkpt>
      <trkpt lat="45.05895" lon="5.7769">
        <ele>407.4</ele>
        <time>2021-05-29T09:56:37Z</time>
      </trkpt>
      <trkpt lat="45.05898" lon="5.77688">
        <ele>407.4</ele>
        <time>2021-05-29T09:56:38Z</time>
      </trkpt>
      <trkpt lat="45.059" lon="5.77685">
        <ele>407</ele>
        <time>2021-05-29T09:56:39Z</time>
      </trkpt>
      <trkpt lat="45.05902" lon="5.77683">
        <ele>407</ele>
        <time>2021-05-29T09:56:40Z</time>
      </trkpt>
      <trkpt lat="45.05905" lon="5.7768">
        <ele>406.4</ele>
        <time>2021-05-29T09:56:41Z</time>
      </trkpt>
      <trkpt lat="45.05907" lon="5.77678">
        <ele>406.2</ele>
        <time>2021-05-29T09:56:42Z</time>
      </trkpt>
      <trkpt lat="45.05909" lon="5.77676">
        <ele>406</ele>
        <time>2021-05-29T09:56:43Z</time>
      </trkpt>
      <trkpt lat="45.05912" lon="5.77674">
        <ele>405.8</ele>
        <time>2021-05-29T09:56:44Z</time>
      </trkpt>
      <trkpt lat="45.05914" lon="5.77672">
        <ele>406</ele>
        <time>2021-05-29T09:56:45Z</time>
      </trkpt>
      <trkpt lat="45.05916" lon="5.7767">
        <ele>405.8</ele>
        <time>2021-05-29T09:56:46Z</time>
      </trkpt>
      <trkpt lat="45.05917" lon="5.77669">
        <ele>406</ele>
        <time>2021-05-29T09:56:47Z</time>
      </trkpt>
      <trkpt lat="45.05919" lon="5.77667">
        <ele>405.8</ele>
        <time>2021-05-29T09:56:48Z</time>
      </trkpt>
      <trkpt lat="45.0592" lon="5.77665">
        <ele>406.2</ele>
        <time>2021-05-29T09:56:49Z</time>
      </trkpt>
      <trkpt lat="45.05922" lon="5.77663">
        <ele>406.2</ele>
        <time>2021-05-29T09:56:50Z</time>
      </trkpt>
      <trkpt lat="45.05931" lon="5.7766">
        <ele>406.4</ele>
        <time>2021-05-29T09:56:51Z</time>
      </trkpt>
      <trkpt lat="45.05931" lon="5.7766">
        <ele>406.4</ele>
        <time>2021-05-29T09:56:52Z</time>
      </trkpt>
      <trkpt lat="45.05931" lon="5.7766">
        <ele>406.8</ele>
        <time>2021-05-29T09:56:53Z</time>
      </trkpt>
      <trkpt lat="45.05933" lon="5.77658">
        <ele>406.6</ele>
        <time>2021-05-29T09:56:54Z</time>
      </trkpt>
      <trkpt lat="45.05935" lon="5.77657">
        <ele>407</ele>
        <time>2021-05-29T09:56:55Z</time>
      </trkpt>
      <trkpt lat="45.05938" lon="5.77655">
        <ele>406.6</ele>
        <time>2021-05-29T09:56:56Z</time>
      </trkpt>
      <trkpt lat="45.0594" lon="5.77653">
        <ele>406.8</ele>
        <time>2021-05-29T09:56:57Z</time>
      </trkpt>
      <trkpt lat="45.05944" lon="5.77651">
        <ele>406.4</ele>
        <time>2021-05-29T09:56:58Z</time>
      </trkpt>
      <trkpt lat="45.05947" lon="5.77649">
        <ele>406.6</ele>
        <time>2021-05-29T09:56:59Z</time>
      </trkpt>
      <trkpt lat="45.05951" lon="5.77647">
        <ele>406</ele>
        <time>2021-05-29T09:57:00Z</time>
      </trkpt>
      <trkpt lat="45.05955" lon="5.77645">
        <ele>406</ele>
        <time>2021-05-29T09:57:01Z</time>
      </trkpt>
      <trkpt lat="45.05959" lon="5.77643">
        <ele>405.6</ele>
        <time>2021-05-29T09:57:02Z</time>
      </trkpt>
      <trkpt lat="45.05962" lon="5.77641">
        <ele>405.4</ele>
        <time>2021-05-29T09:57:03Z</time>
      </trkpt>
      <trkpt lat="45.05965" lon="5.77639">
        <ele>405</ele>
        <time>2021-05-29T09:57:04Z</time>
      </trkpt>
      <trkpt lat="45.05967" lon="5.77637">
        <ele>404.8</ele>
        <time>2021-05-29T09:57:05Z</time>
      </trkpt>
      <trkpt lat="45.05967" lon="5.77637">
        <ele>405</ele>
        <time>2021-05-29T09:57:06Z</time>
      </trkpt>
      <trkpt lat="45.05967" lon="5.77637">
        <ele>404.8</ele>
        <time>2021-05-29T09:57:07Z</time>
      </trkpt>
      <trkpt lat="45.05969" lon="5.77635">
        <ele>405</ele>
        <time>2021-05-29T09:57:08Z</time>
      </trkpt>
      <trkpt lat="45.05971" lon="5.77634">
        <ele>405</ele>
        <time>2021-05-29T09:57:09Z</time>
      </trkpt>
      <trkpt lat="45.05973" lon="5.77632">
        <ele>405.2</ele>
        <time>2021-05-29T09:57:10Z</time>
      </trkpt>
      <trkpt lat="45.05975" lon="5.77631">
        <ele>405</ele>
        <time>2021-05-29T09:57:11Z</time>
      </trkpt>
      <trkpt lat="45.05977" lon="5.77629">
        <ele>405.2</ele>
        <time>2021-05-29T09:57:12Z</time>
      </trkpt>
      <trkpt lat="45.05979" lon="5.77628">
        <ele>405</ele>
        <time>2021-05-29T09:57:13Z</time>
      </trkpt>
      <trkpt lat="45.05982" lon="5.77627">
        <ele>405</ele>
        <time>2021-05-29T09:57:14Z</time>
      </trkpt>
      <trkpt lat="45.05984" lon="5.77626">
        <ele>405</ele>
        <time>2021-05-29T09:57:15Z</time>
      </trkpt>
      <trkpt lat="45.05986" lon="5.77625">
        <ele>405.2</ele>
        <time>2021-05-29T09:57:16Z</time>
      </trkpt>
      <trkpt lat="45.05989" lon="5.77625">
        <ele>404.8</ele>
        <time>2021-05-29T09:57:17Z</time>
      </trkpt>
      <trkpt lat="45.05992" lon="5.77625">
        <ele>404.8</ele>
        <time>2021-05-29T09:57:18Z</time>
      </trkpt>
      <trkpt lat="45.05995" lon="5.77625">
        <ele>404.4</ele>
        <time>2021-05-29T09:57:19Z</time>
      </trkpt>
      <trkpt lat="45.05997" lon="5.77624">
        <ele>404.4</ele>
        <time>2021-05-29T09:57:20Z</time>
      </trkpt>
      <trkpt lat="45.06001" lon="5.77624">
        <ele>404.4</ele>
        <time>2021-05-29T09:57:21Z</time>
      </trkpt>
      <trkpt lat="45.06005" lon="5.77623">
        <ele>404.4</ele>
        <time>2021-05-29T09:57:22Z</time>
      </trkpt>
      <trkpt lat="45.0601" lon="5.77622">
        <ele>404.4</ele>
        <time>2021-05-29T09:57:23Z</time>
      </trkpt>
      <trkpt lat="45.06014" lon="5.77621">
        <ele>404.6</ele>
        <time>2021-05-29T09:57:24Z</time>
      </trkpt>
      <trkpt lat="45.06018" lon="5.77622">
        <ele>404.4</ele>
        <time>2021-05-29T09:57:25Z</time>
      </trkpt>
      <trkpt lat="45.06018" lon="5.77622">
        <ele>404.6</ele>
        <time>2021-05-29T09:57:26Z</time>
      </trkpt>
      <trkpt lat="45.06018" lon="5.77622">
        <ele>404.6</ele>
        <time>2021-05-29T09:57:27Z</time>
      </trkpt>
      <trkpt lat="45.06021" lon="5.77621">
        <ele>404.6</ele>
        <time>2021-05-29T09:57:28Z</time>
      </trkpt>
      <trkpt lat="45.06024" lon="5.77621">
        <ele>404.4</ele>
        <time>2021-05-29T09:57:29Z</time>
      </trkpt>
      <trkpt lat="45.06027" lon="5.77621">
        <ele>404.6</ele>
        <time>2021-05-29T09:57:30Z</time>
      </trkpt>
      <trkpt lat="45.06029" lon="5.7762">
        <ele>404.2</ele>
        <time>2021-05-29T09:57:31Z</time>
      </trkpt>
      <trkpt lat="45.06032" lon="5.7762">
        <ele>404.4</ele>
        <time>2021-05-29T09:57:32Z</time>
      </trkpt>
      <trkpt lat="45.06034" lon="5.77619">
        <ele>404.2</ele>
        <time>2021-05-29T09:57:33Z</time>
      </trkpt>
      <trkpt lat="45.06036" lon="5.77619">
        <ele>404.2</ele>
        <time>2021-05-29T09:57:34Z</time>
      </trkpt>
      <trkpt lat="45.06038" lon="5.77618">
        <ele>404</ele>
        <time>2021-05-29T09:57:35Z</time>
      </trkpt>
      <trkpt lat="45.06041" lon="5.77618">
        <ele>404</ele>
        <time>2021-05-29T09:57:36Z</time>
      </trkpt>
      <trkpt lat="45.06043" lon="5.77617">
        <ele>403.4</ele>
        <time>2021-05-29T09:57:37Z</time>
      </trkpt>
      <trkpt lat="45.06046" lon="5.77617">
        <ele>403.6</ele>
        <time>2021-05-29T09:57:38Z</time>
      </trkpt>
      <trkpt lat="45.06048" lon="5.77617">
        <ele>403.4</ele>
        <time>2021-05-29T09:57:39Z</time>
      </trkpt>
      <trkpt lat="45.06051" lon="5.77617">
        <ele>403.4</ele>
        <time>2021-05-29T09:57:40Z</time>
      </trkpt>
      <trkpt lat="45.06053" lon="5.77616">
        <ele>402.8</ele>
        <time>2021-05-29T09:57:41Z</time>
      </trkpt>
      <trkpt lat="45.06056" lon="5.77615">
        <ele>402.8</ele>
        <time>2021-05-29T09:57:42Z</time>
      </trkpt>
      <trkpt lat="45.06058" lon="5.77614">
        <ele>402.6</ele>
        <time>2021-05-29T09:57:43Z</time>
      </trkpt>
      <trkpt lat="45.0606" lon="5.77614">
        <ele>402.6</ele>
        <time>2021-05-29T09:57:44Z</time>
      </trkpt>
      <trkpt lat="45.06062" lon="5.77612">
        <ele>402.2</ele>
        <time>2021-05-29T09:57:45Z</time>
      </trkpt>
      <trkpt lat="45.06064" lon="5.77611">
        <ele>402.2</ele>
        <time>2021-05-29T09:57:46Z</time>
      </trkpt>
      <trkpt lat="45.06067" lon="5.7761">
        <ele>401.8</ele>
        <time>2021-05-29T09:57:47Z</time>
      </trkpt>
      <trkpt lat="45.06069" lon="5.77609">
        <ele>401.8</ele>
        <time>2021-05-29T09:57:48Z</time>
      </trkpt>
      <trkpt lat="45.06072" lon="5.77607">
        <ele>401.6</ele>
        <time>2021-05-29T09:57:49Z</time>
      </trkpt>
      <trkpt lat="45.06076" lon="5.77605">
        <ele>401.6</ele>
        <time>2021-05-29T09:57:50Z</time>
      </trkpt>
      <trkpt lat="45.06079" lon="5.77603">
        <ele>401.8</ele>
        <time>2021-05-29T09:57:51Z</time>
      </trkpt>
      <trkpt lat="45.06083" lon="5.77601">
        <ele>402</ele>
        <time>2021-05-29T09:57:52Z</time>
      </trkpt>
      <trkpt lat="45.06087" lon="5.77599">
        <ele>402.4</ele>
        <time>2021-05-29T09:57:53Z</time>
      </trkpt>
      <trkpt lat="45.06087" lon="5.77599">
        <ele>402.4</ele>
        <time>2021-05-29T09:57:54Z</time>
      </trkpt>
      <trkpt lat="45.06087" lon="5.77599">
        <ele>402.8</ele>
        <time>2021-05-29T09:57:55Z</time>
      </trkpt>
      <trkpt lat="45.06089" lon="5.77599">
        <ele>402.4</ele>
        <time>2021-05-29T09:57:56Z</time>
      </trkpt>
      <trkpt lat="45.06092" lon="5.77599">
        <ele>402.8</ele>
        <time>2021-05-29T09:57:57Z</time>
      </trkpt>
      <trkpt lat="45.06094" lon="5.77599">
        <ele>402.6</ele>
        <time>2021-05-29T09:57:58Z</time>
      </trkpt>
      <trkpt lat="45.06096" lon="5.77598">
        <ele>402.8</ele>
        <time>2021-05-29T09:57:59Z</time>
      </trkpt>
      <trkpt lat="45.06099" lon="5.77598">
        <ele>402.6</ele>
        <time>2021-05-29T09:58:00Z</time>
      </trkpt>
      <trkpt lat="45.06102" lon="5.77598">
        <ele>402.8</ele>
        <time>2021-05-29T09:58:01Z</time>
      </trkpt>
      <trkpt lat="45.06105" lon="5.77598">
        <ele>402.4</ele>
        <time>2021-05-29T09:58:02Z</time>
      </trkpt>
      <trkpt lat="45.06107" lon="5.77598">
        <ele>402.6</ele>
        <time>2021-05-29T09:58:03Z</time>
      </trkpt>
      <trkpt lat="45.06109" lon="5.77597">
        <ele>402.4</ele>
        <time>2021-05-29T09:58:04Z</time>
      </trkpt>
      <trkpt lat="45.06111" lon="5.77597">
        <ele>402.6</ele>
        <time>2021-05-29T09:58:05Z</time>
      </trkpt>
      <trkpt lat="45.06113" lon="5.77596">
        <ele>402.6</ele>
        <time>2021-05-29T09:58:06Z</time>
      </trkpt>
      <trkpt lat="45.06116" lon="5.77595">
        <ele>402.8</ele>
        <time>2021-05-29T09:58:07Z</time>
      </trkpt>
      <trkpt lat="45.06118" lon="5.77594">
        <ele>402.4</ele>
        <time>2021-05-29T09:58:08Z</time>
      </trkpt>
      <trkpt lat="45.0612" lon="5.77594">
        <ele>402.6</ele>
        <time>2021-05-29T09:58:09Z</time>
      </trkpt>
      <trkpt lat="45.06123" lon="5.77593">
        <ele>402.2</ele>
        <time>2021-05-29T09:58:10Z</time>
      </trkpt>
      <trkpt lat="45.06125" lon="5.77593">
        <ele>402.2</ele>
        <time>2021-05-29T09:58:11Z</time>
      </trkpt>
      <trkpt lat="45.06128" lon="5.77593">
        <ele>401.8</ele>
        <time>2021-05-29T09:58:12Z</time>
      </trkpt>
      <trkpt lat="45.0613" lon="5.77592">
        <ele>401.6</ele>
        <time>2021-05-29T09:58:13Z</time>
      </trkpt>
      <trkpt lat="45.06133" lon="5.77592">
        <ele>401.4</ele>
        <time>2021-05-29T09:58:14Z</time>
      </trkpt>
      <trkpt lat="45.06135" lon="5.77592">
        <ele>401.4</ele>
        <time>2021-05-29T09:58:15Z</time>
      </trkpt>
      <trkpt lat="45.06138" lon="5.77591">
        <ele>401.2</ele>
        <time>2021-05-29T09:58:16Z</time>
      </trkpt>
      <trkpt lat="45.0614" lon="5.7759">
        <ele>401.2</ele>
        <time>2021-05-29T09:58:17Z</time>
      </trkpt>
      <trkpt lat="45.06142" lon="5.77589">
        <ele>400.6</ele>
        <time>2021-05-29T09:58:18Z</time>
      </trkpt>
      <trkpt lat="45.06144" lon="5.77589">
        <ele>400.6</ele>
        <time>2021-05-29T09:58:19Z</time>
      </trkpt>
      <trkpt lat="45.06146" lon="5.77588">
        <ele>400.4</ele>
        <time>2021-05-29T09:58:20Z</time>
      </trkpt>
      <trkpt lat="45.06156" lon="5.77586">
        <ele>400.6</ele>
        <time>2021-05-29T09:58:21Z</time>
      </trkpt>
      <trkpt lat="45.06156" lon="5.77586">
        <ele>400.4</ele>
        <time>2021-05-29T09:58:22Z</time>
      </trkpt>
      <trkpt lat="45.06156" lon="5.77586">
        <ele>400.4</ele>
        <time>2021-05-29T09:58:23Z</time>
      </trkpt>
      <trkpt lat="45.06158" lon="5.77586">
        <ele>399.8</ele>
        <time>2021-05-29T09:58:24Z</time>
      </trkpt>
      <trkpt lat="45.06161" lon="5.77587">
        <ele>399.6</ele>
        <time>2021-05-29T09:58:25Z</time>
      </trkpt>
      <trkpt lat="45.06163" lon="5.77587">
        <ele>399.2</ele>
        <time>2021-05-29T09:58:26Z</time>
      </trkpt>
      <trkpt lat="45.06166" lon="5.77587">
        <ele>399</ele>
        <time>2021-05-29T09:58:27Z</time>
      </trkpt>
      <trkpt lat="45.06168" lon="5.77586">
        <ele>398.6</ele>
        <time>2021-05-29T09:58:28Z</time>
      </trkpt>
      <trkpt lat="45.0617" lon="5.77586">
        <ele>398.8</ele>
        <time>2021-05-29T09:58:29Z</time>
      </trkpt>
      <trkpt lat="45.06172" lon="5.77585">
        <ele>398.4</ele>
        <time>2021-05-29T09:58:30Z</time>
      </trkpt>
      <trkpt lat="45.06175" lon="5.77584">
        <ele>398.8</ele>
        <time>2021-05-29T09:58:31Z</time>
      </trkpt>
      <trkpt lat="45.06177" lon="5.77584">
        <ele>398.4</ele>
        <time>2021-05-29T09:58:32Z</time>
      </trkpt>
      <trkpt lat="45.0618" lon="5.77584">
        <ele>398.8</ele>
        <time>2021-05-29T09:58:33Z</time>
      </trkpt>
      <trkpt lat="45.06182" lon="5.77585">
        <ele>398.2</ele>
        <time>2021-05-29T09:58:34Z</time>
      </trkpt>
      <trkpt lat="45.06185" lon="5.77585">
        <ele>398.6</ele>
        <time>2021-05-29T09:58:35Z</time>
      </trkpt>
      <trkpt lat="45.06195" lon="5.77584">
        <ele>398.2</ele>
        <time>2021-05-29T09:58:36Z</time>
      </trkpt>
      <trkpt lat="45.06195" lon="5.77584">
        <ele>398.4</ele>
        <time>2021-05-29T09:58:37Z</time>
      </trkpt>
      <trkpt lat="45.06195" lon="5.77584">
        <ele>398</ele>
        <time>2021-05-29T09:58:38Z</time>
      </trkpt>
      <trkpt lat="45.06197" lon="5.77584">
        <ele>398.4</ele>
        <time>2021-05-29T09:58:39Z</time>
      </trkpt>
      <trkpt lat="45.062" lon="5.77584">
        <ele>398</ele>
        <time>2021-05-29T09:58:40Z</time>
      </trkpt>
      <trkpt lat="45.06203" lon="5.77584">
        <ele>398.2</ele>
        <time>2021-05-29T09:58:41Z</time>
      </trkpt>
      <trkpt lat="45.06206" lon="5.77585">
        <ele>398</ele>
        <time>2021-05-29T09:58:42Z</time>
      </trkpt>
      <trkpt lat="45.0621" lon="5.77584">
        <ele>398.4</ele>
        <time>2021-05-29T09:58:43Z</time>
      </trkpt>
      <trkpt lat="45.06214" lon="5.77584">
        <ele>398.2</ele>
        <time>2021-05-29T09:58:44Z</time>
      </trkpt>
      <trkpt lat="45.06218" lon="5.77584">
        <ele>398.4</ele>
        <time>2021-05-29T09:58:45Z</time>
      </trkpt>
      <trkpt lat="45.06222" lon="5.77584">
        <ele>398.2</ele>
        <time>2021-05-29T09:58:46Z</time>
      </trkpt>
      <trkpt lat="45.06227" lon="5.77585">
        <ele>398.4</ele>
        <time>2021-05-29T09:58:47Z</time>
      </trkpt>
      <trkpt lat="45.06229" lon="5.77585">
        <ele>398</ele>
        <time>2021-05-29T09:58:48Z</time>
      </trkpt>
      <trkpt lat="45.06231" lon="5.77585">
        <ele>398.4</ele>
        <time>2021-05-29T09:58:49Z</time>
      </trkpt>
      <trkpt lat="45.06232" lon="5.77586">
        <ele>398.2</ele>
        <time>2021-05-29T09:58:50Z</time>
      </trkpt>
      <trkpt lat="45.06237" lon="5.77587">
        <ele>398.2</ele>
        <time>2021-05-29T09:58:51Z</time>
      </trkpt>
      <trkpt lat="45.0624" lon="5.77587">
        <ele>397.8</ele>
        <time>2021-05-29T09:58:52Z</time>
      </trkpt>
      <trkpt lat="45.06243" lon="5.77587">
        <ele>398</ele>
        <time>2021-05-29T09:58:53Z</time>
      </trkpt>
      <trkpt lat="45.06248" lon="5.77588">
        <ele>397.8</ele>
        <time>2021-05-29T09:58:54Z</time>
      </trkpt>
      <trkpt lat="45.06248" lon="5.77588">
        <ele>397.8</ele>
        <time>2021-05-29T09:58:55Z</time>
      </trkpt>
      <trkpt lat="45.06251" lon="5.77588">
        <ele>397.6</ele>
        <time>2021-05-29T09:58:56Z</time>
      </trkpt>
      <trkpt lat="45.06253" lon="5.77588">
        <ele>397.8</ele>
        <time>2021-05-29T09:58:57Z</time>
      </trkpt>
      <trkpt lat="45.06256" lon="5.77588">
        <ele>397.6</ele>
        <time>2021-05-29T09:58:58Z</time>
      </trkpt>
      <trkpt lat="45.06259" lon="5.77588">
        <ele>397.8</ele>
        <time>2021-05-29T09:58:59Z</time>
      </trkpt>
      <trkpt lat="45.06261" lon="5.77588">
        <ele>397.4</ele>
        <time>2021-05-29T09:59:00Z</time>
      </trkpt>
      <trkpt lat="45.06263" lon="5.77588">
        <ele>397.6</ele>
        <time>2021-05-29T09:59:01Z</time>
      </trkpt>
      <trkpt lat="45.06266" lon="5.77589">
        <ele>397.2</ele>
        <time>2021-05-29T09:59:02Z</time>
      </trkpt>
      <trkpt lat="45.06268" lon="5.77589">
        <ele>397.4</ele>
        <time>2021-05-29T09:59:03Z</time>
      </trkpt>
      <trkpt lat="45.06271" lon="5.77589">
        <ele>396.8</ele>
        <time>2021-05-29T09:59:04Z</time>
      </trkpt>
      <trkpt lat="45.06274" lon="5.7759">
        <ele>397</ele>
        <time>2021-05-29T09:59:05Z</time>
      </trkpt>
      <trkpt lat="45.06277" lon="5.7759">
        <ele>396.6</ele>
        <time>2021-05-29T09:59:06Z</time>
      </trkpt>
      <trkpt lat="45.06279" lon="5.7759">
        <ele>396.8</ele>
        <time>2021-05-29T09:59:07Z</time>
      </trkpt>
      <trkpt lat="45.06281" lon="5.77591">
        <ele>396.6</ele>
        <time>2021-05-29T09:59:08Z</time>
      </trkpt>
      <trkpt lat="45.06283" lon="5.77592">
        <ele>396.6</ele>
        <time>2021-05-29T09:59:09Z</time>
      </trkpt>
      <trkpt lat="45.06285" lon="5.77592">
        <ele>396.4</ele>
        <time>2021-05-29T09:59:10Z</time>
      </trkpt>
      <trkpt lat="45.06287" lon="5.77593">
        <ele>396.4</ele>
        <time>2021-05-29T09:59:11Z</time>
      </trkpt>
      <trkpt lat="45.06289" lon="5.77593">
        <ele>396</ele>
        <time>2021-05-29T09:59:12Z</time>
      </trkpt>
      <trkpt lat="45.06292" lon="5.77595">
        <ele>396</ele>
        <time>2021-05-29T09:59:13Z</time>
      </trkpt>
      <trkpt lat="45.06294" lon="5.77596">
        <ele>395.8</ele>
        <time>2021-05-29T09:59:14Z</time>
      </trkpt>
      <trkpt lat="45.06297" lon="5.77597">
        <ele>395.8</ele>
        <time>2021-05-29T09:59:15Z</time>
      </trkpt>
      <trkpt lat="45.06299" lon="5.77598">
        <ele>395.4</ele>
        <time>2021-05-29T09:59:16Z</time>
      </trkpt>
      <trkpt lat="45.06302" lon="5.77599">
        <ele>395.6</ele>
        <time>2021-05-29T09:59:17Z</time>
      </trkpt>
      <trkpt lat="45.06305" lon="5.77599">
        <ele>395</ele>
        <time>2021-05-29T09:59:18Z</time>
      </trkpt>
      <trkpt lat="45.06307" lon="5.77599">
        <ele>394.8</ele>
        <time>2021-05-29T09:59:19Z</time>
      </trkpt>
      <trkpt lat="45.0631" lon="5.776">
        <ele>394.4</ele>
        <time>2021-05-29T09:59:20Z</time>
      </trkpt>
      <trkpt lat="45.06313" lon="5.77599">
        <ele>394.6</ele>
        <time>2021-05-29T09:59:21Z</time>
      </trkpt>
      <trkpt lat="45.06315" lon="5.77599">
        <ele>394.2</ele>
        <time>2021-05-29T09:59:22Z</time>
      </trkpt>
      <trkpt lat="45.06318" lon="5.77599">
        <ele>394.6</ele>
        <time>2021-05-29T09:59:23Z</time>
      </trkpt>
      <trkpt lat="45.06321" lon="5.77599">
        <ele>394.2</ele>
        <time>2021-05-29T09:59:24Z</time>
      </trkpt>
      <trkpt lat="45.06323" lon="5.77599">
        <ele>394.4</ele>
        <time>2021-05-29T09:59:25Z</time>
      </trkpt>
      <trkpt lat="45.06326" lon="5.77598">
        <ele>393.8</ele>
        <time>2021-05-29T09:59:26Z</time>
      </trkpt>
      <trkpt lat="45.06328" lon="5.77598">
        <ele>394.4</ele>
        <time>2021-05-29T09:59:27Z</time>
      </trkpt>
      <trkpt lat="45.06331" lon="5.77598">
        <ele>394</ele>
        <time>2021-05-29T09:59:28Z</time>
      </trkpt>
      <trkpt lat="45.06334" lon="5.77598">
        <ele>394.2</ele>
        <time>2021-05-29T09:59:29Z</time>
      </trkpt>
      <trkpt lat="45.06337" lon="5.77599">
        <ele>394</ele>
        <time>2021-05-29T09:59:30Z</time>
      </trkpt>
      <trkpt lat="45.0634" lon="5.77599">
        <ele>394.2</ele>
        <time>2021-05-29T09:59:31Z</time>
      </trkpt>
      <trkpt lat="45.06343" lon="5.776">
        <ele>394</ele>
        <time>2021-05-29T09:59:32Z</time>
      </trkpt>
      <trkpt lat="45.06345" lon="5.776">
        <ele>394.2</ele>
        <time>2021-05-29T09:59:33Z</time>
      </trkpt>
      <trkpt lat="45.06348" lon="5.77601">
        <ele>394</ele>
        <time>2021-05-29T09:59:34Z</time>
      </trkpt>
      <trkpt lat="45.0635" lon="5.77601">
        <ele>394.2</ele>
        <time>2021-05-29T09:59:35Z</time>
      </trkpt>
      <trkpt lat="45.06353" lon="5.77602">
        <ele>394</ele>
        <time>2021-05-29T09:59:36Z</time>
      </trkpt>
      <trkpt lat="45.06355" lon="5.77602">
        <ele>394.2</ele>
        <time>2021-05-29T09:59:37Z</time>
      </trkpt>
      <trkpt lat="45.06358" lon="5.77603">
        <ele>394</ele>
        <time>2021-05-29T09:59:38Z</time>
      </trkpt>
      <trkpt lat="45.0636" lon="5.77604">
        <ele>394</ele>
        <time>2021-05-29T09:59:39Z</time>
      </trkpt>
      <trkpt lat="45.06363" lon="5.77604">
        <ele>393.6</ele>
        <time>2021-05-29T09:59:40Z</time>
      </trkpt>
      <trkpt lat="45.06366" lon="5.77605">
        <ele>393.8</ele>
        <time>2021-05-29T09:59:41Z</time>
      </trkpt>
      <trkpt lat="45.06368" lon="5.77605">
        <ele>393.4</ele>
        <time>2021-05-29T09:59:42Z</time>
      </trkpt>
      <trkpt lat="45.0637" lon="5.77605">
        <ele>393.4</ele>
        <time>2021-05-29T09:59:43Z</time>
      </trkpt>
      <trkpt lat="45.06373" lon="5.77606">
        <ele>393</ele>
        <time>2021-05-29T09:59:44Z</time>
      </trkpt>
      <trkpt lat="45.06376" lon="5.77606">
        <ele>393</ele>
        <time>2021-05-29T09:59:45Z</time>
      </trkpt>
      <trkpt lat="45.06379" lon="5.77607">
        <ele>392.6</ele>
        <time>2021-05-29T09:59:46Z</time>
      </trkpt>
      <trkpt lat="45.06382" lon="5.77607">
        <ele>392.6</ele>
        <time>2021-05-29T09:59:47Z</time>
      </trkpt>
      <trkpt lat="45.06385" lon="5.77607">
        <ele>392.4</ele>
        <time>2021-05-29T09:59:48Z</time>
      </trkpt>
      <trkpt lat="45.06387" lon="5.77607">
        <ele>392.4</ele>
        <time>2021-05-29T09:59:49Z</time>
      </trkpt>
      <trkpt lat="45.06389" lon="5.77606">
        <ele>392</ele>
        <time>2021-05-29T09:59:50Z</time>
      </trkpt>
      <trkpt lat="45.06391" lon="5.77606">
        <ele>392</ele>
        <time>2021-05-29T09:59:51Z</time>
      </trkpt>
      <trkpt lat="45.06394" lon="5.77605">
        <ele>391.8</ele>
        <time>2021-05-29T09:59:52Z</time>
      </trkpt>
      <trkpt lat="45.06396" lon="5.77605">
        <ele>391.8</ele>
        <time>2021-05-29T09:59:53Z</time>
      </trkpt>
      <trkpt lat="45.06398" lon="5.77605">
        <ele>391.4</ele>
        <time>2021-05-29T09:59:54Z</time>
      </trkpt>
      <trkpt lat="45.064" lon="5.77605">
        <ele>391.6</ele>
        <time>2021-05-29T09:59:55Z</time>
      </trkpt>
      <trkpt lat="45.06402" lon="5.77605">
        <ele>391.2</ele>
        <time>2021-05-29T09:59:56Z</time>
      </trkpt>
      <trkpt lat="45.06404" lon="5.77606">
        <ele>391.2</ele>
        <time>2021-05-29T09:59:57Z</time>
      </trkpt>
      <trkpt lat="45.06406" lon="5.77606">
        <ele>391</ele>
        <time>2021-05-29T09:59:58Z</time>
      </trkpt>
      <trkpt lat="45.06415" lon="5.77609">
        <ele>391</ele>
        <time>2021-05-29T09:59:59Z</time>
      </trkpt>
      <trkpt lat="45.06415" lon="5.77609">
        <ele>391</ele>
        <time>2021-05-29T10:00:00Z</time>
      </trkpt>
      <trkpt lat="45.06415" lon="5.77609">
        <ele>391.4</ele>
        <time>2021-05-29T10:00:01Z</time>
      </trkpt>
      <trkpt lat="45.06418" lon="5.7761">
        <ele>391.2</ele>
        <time>2021-05-29T10:00:02Z</time>
      </trkpt>
      <trkpt lat="45.0642" lon="5.77611">
        <ele>391.4</ele>
        <time>2021-05-29T10:00:03Z</time>
      </trkpt>
      <trkpt lat="45.06423" lon="5.77612">
        <ele>391.2</ele>
        <time>2021-05-29T10:00:04Z</time>
      </trkpt>
      <trkpt lat="45.06425" lon="5.77614">
        <ele>391.2</ele>
        <time>2021-05-29T10:00:05Z</time>
      </trkpt>
      <trkpt lat="45.06429" lon="5.77615">
        <ele>391.2</ele>
        <time>2021-05-29T10:00:06Z</time>
      </trkpt>
      <trkpt lat="45.06433" lon="5.77617">
        <ele>391.2</ele>
        <time>2021-05-29T10:00:07Z</time>
      </trkpt>
      <trkpt lat="45.06437" lon="5.77619">
        <ele>391</ele>
        <time>2021-05-29T10:00:08Z</time>
      </trkpt>
      <trkpt lat="45.06441" lon="5.7762">
        <ele>391.2</ele>
        <time>2021-05-29T10:00:09Z</time>
      </trkpt>
      <trkpt lat="45.06445" lon="5.77623">
        <ele>391</ele>
        <time>2021-05-29T10:00:10Z</time>
      </trkpt>
      <trkpt lat="45.06449" lon="5.77624">
        <ele>391.2</ele>
        <time>2021-05-29T10:00:11Z</time>
      </trkpt>
      <trkpt lat="45.06452" lon="5.77625">
        <ele>391</ele>
        <time>2021-05-29T10:00:12Z</time>
      </trkpt>
      <trkpt lat="45.06455" lon="5.77626">
        <ele>391.2</ele>
        <time>2021-05-29T10:00:13Z</time>
      </trkpt>
      <trkpt lat="45.06455" lon="5.77626">
        <ele>390.8</ele>
        <time>2021-05-29T10:00:14Z</time>
      </trkpt>
      <trkpt lat="45.06455" lon="5.77626">
        <ele>391</ele>
        <time>2021-05-29T10:00:15Z</time>
      </trkpt>
      <trkpt lat="45.06458" lon="5.77627">
        <ele>390.8</ele>
        <time>2021-05-29T10:00:16Z</time>
      </trkpt>
      <trkpt lat="45.0646" lon="5.77627">
        <ele>391</ele>
        <time>2021-05-29T10:00:17Z</time>
      </trkpt>
      <trkpt lat="45.06463" lon="5.77627">
        <ele>390.6</ele>
        <time>2021-05-29T10:00:18Z</time>
      </trkpt>
      <trkpt lat="45.06466" lon="5.77628">
        <ele>390.8</ele>
        <time>2021-05-29T10:00:19Z</time>
      </trkpt>
      <trkpt lat="45.06468" lon="5.77628">
        <ele>390.6</ele>
        <time>2021-05-29T10:00:20Z</time>
      </trkpt>
      <trkpt lat="45.06471" lon="5.77627">
        <ele>390.6</ele>
        <time>2021-05-29T10:00:21Z</time>
      </trkpt>
      <trkpt lat="45.06474" lon="5.77627">
        <ele>390.4</ele>
        <time>2021-05-29T10:00:22Z</time>
      </trkpt>
      <trkpt lat="45.06477" lon="5.77627">
        <ele>390.6</ele>
        <time>2021-05-29T10:00:23Z</time>
      </trkpt>
      <trkpt lat="45.06479" lon="5.77628">
        <ele>390.2</ele>
        <time>2021-05-29T10:00:24Z</time>
      </trkpt>
      <trkpt lat="45.06482" lon="5.77628">
        <ele>390.2</ele>
        <time>2021-05-29T10:00:25Z</time>
      </trkpt>
      <trkpt lat="45.06485" lon="5.77629">
        <ele>390</ele>
        <time>2021-05-29T10:00:26Z</time>
      </trkpt>
      <trkpt lat="45.06488" lon="5.7763">
        <ele>390</ele>
        <time>2021-05-29T10:00:27Z</time>
      </trkpt>
      <trkpt lat="45.0649" lon="5.7763">
        <ele>389.6</ele>
        <time>2021-05-29T10:00:28Z</time>
      </trkpt>
      <trkpt lat="45.06492" lon="5.7763">
        <ele>389.6</ele>
        <time>2021-05-29T10:00:29Z</time>
      </trkpt>
      <trkpt lat="45.06495" lon="5.77629">
        <ele>389.4</ele>
        <time>2021-05-29T10:00:30Z</time>
      </trkpt>
      <trkpt lat="45.06497" lon="5.77629">
        <ele>389.8</ele>
        <time>2021-05-29T10:00:31Z</time>
      </trkpt>
      <trkpt lat="45.06499" lon="5.77629">
        <ele>389.4</ele>
        <time>2021-05-29T10:00:32Z</time>
      </trkpt>
      <trkpt lat="45.06502" lon="5.77629">
        <ele>389.4</ele>
        <time>2021-05-29T10:00:33Z</time>
      </trkpt>
      <trkpt lat="45.06504" lon="5.77629">
        <ele>389</ele>
        <time>2021-05-29T10:00:34Z</time>
      </trkpt>
      <trkpt lat="45.06506" lon="5.77629">
        <ele>389.2</ele>
        <time>2021-05-29T10:00:35Z</time>
      </trkpt>
      <trkpt lat="45.06508" lon="5.77628">
        <ele>388.8</ele>
        <time>2021-05-29T10:00:36Z</time>
      </trkpt>
      <trkpt lat="45.06511" lon="5.77627">
        <ele>388.6</ele>
        <time>2021-05-29T10:00:37Z</time>
      </trkpt>
      <trkpt lat="45.06513" lon="5.77625">
        <ele>388.4</ele>
        <time>2021-05-29T10:00:38Z</time>
      </trkpt>
      <trkpt lat="45.06515" lon="5.77624">
        <ele>388.4</ele>
        <time>2021-05-29T10:00:39Z</time>
      </trkpt>
      <trkpt lat="45.06517" lon="5.77622">
        <ele>388</ele>
        <time>2021-05-29T10:00:40Z</time>
      </trkpt>
      <trkpt lat="45.06519" lon="5.77621">
        <ele>388</ele>
        <time>2021-05-29T10:00:41Z</time>
      </trkpt>
      <trkpt lat="45.06522" lon="5.77619">
        <ele>387.6</ele>
        <time>2021-05-29T10:00:42Z</time>
      </trkpt>
      <trkpt lat="45.06524" lon="5.77618">
        <ele>387.6</ele>
        <time>2021-05-29T10:00:43Z</time>
      </trkpt>
      <trkpt lat="45.06525" lon="5.77615">
        <ele>387.4</ele>
        <time>2021-05-29T10:00:44Z</time>
      </trkpt>
      <trkpt lat="45.06527" lon="5.77613">
        <ele>387.6</ele>
        <time>2021-05-29T10:00:45Z</time>
      </trkpt>
      <trkpt lat="45.06529" lon="5.77611">
        <ele>387.4</ele>
        <time>2021-05-29T10:00:46Z</time>
      </trkpt>
      <trkpt lat="45.06531" lon="5.77609">
        <ele>387.4</ele>
        <time>2021-05-29T10:00:47Z</time>
      </trkpt>
      <trkpt lat="45.06534" lon="5.77605">
        <ele>387.2</ele>
        <time>2021-05-29T10:00:48Z</time>
      </trkpt>
      <trkpt lat="45.06537" lon="5.77602">
        <ele>387.4</ele>
        <time>2021-05-29T10:00:49Z</time>
      </trkpt>
      <trkpt lat="45.0654" lon="5.77599">
        <ele>387.4</ele>
        <time>2021-05-29T10:00:50Z</time>
      </trkpt>
      <trkpt lat="45.06543" lon="5.77596">
        <ele>387.4</ele>
        <time>2021-05-29T10:00:51Z</time>
      </trkpt>
      <trkpt lat="45.06548" lon="5.77592">
        <ele>387</ele>
        <time>2021-05-29T10:00:52Z</time>
      </trkpt>
      <trkpt lat="45.06548" lon="5.77592">
        <ele>387.2</ele>
        <time>2021-05-29T10:00:53Z</time>
      </trkpt>
      <trkpt lat="45.06548" lon="5.77592">
        <ele>387</ele>
        <time>2021-05-29T10:00:54Z</time>
      </trkpt>
      <trkpt lat="45.0655" lon="5.7759">
        <ele>387.4</ele>
        <time>2021-05-29T10:00:55Z</time>
      </trkpt>
      <trkpt lat="45.06552" lon="5.77588">
        <ele>387</ele>
        <time>2021-05-29T10:00:56Z</time>
      </trkpt>
      <trkpt lat="45.06554" lon="5.77585">
        <ele>387.2</ele>
        <time>2021-05-29T10:00:57Z</time>
      </trkpt>
      <trkpt lat="45.06556" lon="5.77583">
        <ele>386.8</ele>
        <time>2021-05-29T10:00:58Z</time>
      </trkpt>
      <trkpt lat="45.06558" lon="5.7758">
        <ele>386.8</ele>
        <time>2021-05-29T10:00:59Z</time>
      </trkpt>
      <trkpt lat="45.0656" lon="5.77578">
        <ele>386.4</ele>
        <time>2021-05-29T10:01:00Z</time>
      </trkpt>
      <trkpt lat="45.06562" lon="5.77575">
        <ele>386.6</ele>
        <time>2021-05-29T10:01:01Z</time>
      </trkpt>
      <trkpt lat="45.06563" lon="5.77573">
        <ele>386.4</ele>
        <time>2021-05-29T10:01:02Z</time>
      </trkpt>
      <trkpt lat="45.06566" lon="5.77572">
        <ele>386.4</ele>
        <time>2021-05-29T10:01:03Z</time>
      </trkpt>
      <trkpt lat="45.06569" lon="5.77572">
        <ele>386.2</ele>
        <time>2021-05-29T10:01:04Z</time>
      </trkpt>
      <trkpt lat="45.06571" lon="5.77572">
        <ele>386.2</ele>
        <time>2021-05-29T10:01:05Z</time>
      </trkpt>
      <trkpt lat="45.06574" lon="5.77571">
        <ele>386</ele>
        <time>2021-05-29T10:01:06Z</time>
      </trkpt>
      <trkpt lat="45.06576" lon="5.77569">
        <ele>386.2</ele>
        <time>2021-05-29T10:01:07Z</time>
      </trkpt>
      <trkpt lat="45.06577" lon="5.77568">
        <ele>385.8</ele>
        <time>2021-05-29T10:01:08Z</time>
      </trkpt>
      <trkpt lat="45.06579" lon="5.77566">
        <ele>385.8</ele>
        <time>2021-05-29T10:01:09Z</time>
      </trkpt>
      <trkpt lat="45.06581" lon="5.77564">
        <ele>385.6</ele>
        <time>2021-05-29T10:01:10Z</time>
      </trkpt>
      <trkpt lat="45.06583" lon="5.77563">
        <ele>385.6</ele>
        <time>2021-05-29T10:01:11Z</time>
      </trkpt>
      <trkpt lat="45.06585" lon="5.77561">
        <ele>385.4</ele>
        <time>2021-05-29T10:01:12Z</time>
      </trkpt>
      <trkpt lat="45.06587" lon="5.7756">
        <ele>385</ele>
        <time>2021-05-29T10:01:13Z</time>
      </trkpt>
      <trkpt lat="45.0659" lon="5.77558">
        <ele>384.8</ele>
        <time>2021-05-29T10:01:14Z</time>
      </trkpt>
      <trkpt lat="45.06592" lon="5.77557">
        <ele>384.8</ele>
        <time>2021-05-29T10:01:15Z</time>
      </trkpt>
      <trkpt lat="45.06594" lon="5.77556">
        <ele>384.6</ele>
        <time>2021-05-29T10:01:16Z</time>
      </trkpt>
      <trkpt lat="45.06596" lon="5.77555">
        <ele>384.6</ele>
        <time>2021-05-29T10:01:17Z</time>
      </trkpt>
      <trkpt lat="45.06598" lon="5.77554">
        <ele>384.6</ele>
        <time>2021-05-29T10:01:18Z</time>
      </trkpt>
      <trkpt lat="45.066" lon="5.77553">
        <ele>385</ele>
        <time>2021-05-29T10:01:19Z</time>
      </trkpt>
      <trkpt lat="45.06602" lon="5.77553">
        <ele>385</ele>
        <time>2021-05-29T10:01:20Z</time>
      </trkpt>
      <trkpt lat="45.06603" lon="5.77552">
        <ele>385</ele>
        <time>2021-05-29T10:01:21Z</time>
      </trkpt>
      <trkpt lat="45.06605" lon="5.77552">
        <ele>385</ele>
        <time>2021-05-29T10:01:22Z</time>
      </trkpt>
      <trkpt lat="45.06606" lon="5.77552">
        <ele>385.2</ele>
        <time>2021-05-29T10:01:23Z</time>
      </trkpt>
      <trkpt lat="45.06608" lon="5.77552">
        <ele>385.2</ele>
        <time>2021-05-29T10:01:24Z</time>
      </trkpt>
      <trkpt lat="45.06609" lon="5.77552">
        <ele>385.2</ele>
        <time>2021-05-29T10:01:25Z</time>
      </trkpt>
      <trkpt lat="45.06611" lon="5.77552">
        <ele>385</ele>
        <time>2021-05-29T10:01:26Z</time>
      </trkpt>
      <trkpt lat="45.06613" lon="5.77553">
        <ele>385.4</ele>
        <time>2021-05-29T10:01:27Z</time>
      </trkpt>
      <trkpt lat="45.06616" lon="5.77554">
        <ele>385.4</ele>
        <time>2021-05-29T10:01:28Z</time>
      </trkpt>
      <trkpt lat="45.06619" lon="5.77555">
        <ele>385.6</ele>
        <time>2021-05-29T10:01:29Z</time>
      </trkpt>
      <trkpt lat="45.06621" lon="5.77556">
        <ele>385.6</ele>
        <time>2021-05-29T10:01:30Z</time>
      </trkpt>
      <trkpt lat="45.06624" lon="5.77557">
        <ele>385.8</ele>
        <time>2021-05-29T10:01:31Z</time>
      </trkpt>
      <trkpt lat="45.06626" lon="5.77558">
        <ele>385.8</ele>
        <time>2021-05-29T10:01:32Z</time>
      </trkpt>
      <trkpt lat="45.06628" lon="5.77559">
        <ele>386.2</ele>
        <time>2021-05-29T10:01:33Z</time>
      </trkpt>
      <trkpt lat="45.0663" lon="5.7756">
        <ele>386</ele>
        <time>2021-05-29T10:01:34Z</time>
      </trkpt>
      <trkpt lat="45.06632" lon="5.77561">
        <ele>386.8</ele>
        <time>2021-05-29T10:01:35Z</time>
      </trkpt>
      <trkpt lat="45.06634" lon="5.77562">
        <ele>386.6</ele>
        <time>2021-05-29T10:01:36Z</time>
      </trkpt>
      <trkpt lat="45.06636" lon="5.77563">
        <ele>387</ele>
        <time>2021-05-29T10:01:37Z</time>
      </trkpt>
      <trkpt lat="45.06637" lon="5.77564">
        <ele>387.2</ele>
        <time>2021-05-29T10:01:38Z</time>
      </trkpt>
      <trkpt lat="45.06639" lon="5.77565">
        <ele>387.6</ele>
        <time>2021-05-29T10:01:39Z</time>
      </trkpt>
      <trkpt lat="45.06643" lon="5.77566">
        <ele>387.2</ele>
        <time>2021-05-29T10:01:40Z</time>
      </trkpt>
      <trkpt lat="45.06646" lon="5.77567">
        <ele>387.2</ele>
        <time>2021-05-29T10:01:41Z</time>
      </trkpt>
      <trkpt lat="45.0665" lon="5.77569">
        <ele>387</ele>
        <time>2021-05-29T10:01:42Z</time>
      </trkpt>
      <trkpt lat="45.06653" lon="5.7757">
        <ele>386.8</ele>
        <time>2021-05-29T10:01:43Z</time>
      </trkpt>
      <trkpt lat="45.06658" lon="5.77571">
        <ele>386.2</ele>
        <time>2021-05-29T10:01:44Z</time>
      </trkpt>
      <trkpt lat="45.06661" lon="5.77572">
        <ele>385.8</ele>
        <time>2021-05-29T10:01:45Z</time>
      </trkpt>
      <trkpt lat="45.06664" lon="5.77572">
        <ele>385.4</ele>
        <time>2021-05-29T10:01:46Z</time>
      </trkpt>
      <trkpt lat="45.06667" lon="5.77572">
        <ele>385</ele>
        <time>2021-05-29T10:01:47Z</time>
      </trkpt>
      <trkpt lat="45.06669" lon="5.77573">
        <ele>384.6</ele>
        <time>2021-05-29T10:01:48Z</time>
      </trkpt>
      <trkpt lat="45.06671" lon="5.77573">
        <ele>384</ele>
        <time>2021-05-29T10:01:49Z</time>
      </trkpt>
      <trkpt lat="45.06672" lon="5.77574">
        <ele>384.2</ele>
        <time>2021-05-29T10:01:50Z</time>
      </trkpt>
      <trkpt lat="45.06678" lon="5.77575">
        <ele>384</ele>
        <time>2021-05-29T10:01:51Z</time>
      </trkpt>
      <trkpt lat="45.0668" lon="5.77576">
        <ele>384.6</ele>
        <time>2021-05-29T10:01:52Z</time>
      </trkpt>
      <trkpt lat="45.06682" lon="5.77577">
        <ele>384.2</ele>
        <time>2021-05-29T10:01:53Z</time>
      </trkpt>
      <trkpt lat="45.06686" lon="5.77579">
        <ele>384.6</ele>
        <time>2021-05-29T10:01:54Z</time>
      </trkpt>
      <trkpt lat="45.0669" lon="5.77581">
        <ele>384.2</ele>
        <time>2021-05-29T10:01:55Z</time>
      </trkpt>
      <trkpt lat="45.06694" lon="5.77583">
        <ele>384.2</ele>
        <time>2021-05-29T10:01:56Z</time>
      </trkpt>
      <trkpt lat="45.06698" lon="5.77586">
        <ele>384</ele>
        <time>2021-05-29T10:01:57Z</time>
      </trkpt>
      <trkpt lat="45.06698" lon="5.77586">
        <ele>383.8</ele>
        <time>2021-05-29T10:01:58Z</time>
      </trkpt>
      <trkpt lat="45.06698" lon="5.77586">
        <ele>383.6</ele>
        <time>2021-05-29T10:01:59Z</time>
      </trkpt>
      <trkpt lat="45.067" lon="5.77588">
        <ele>383.6</ele>
        <time>2021-05-29T10:02:00Z</time>
      </trkpt>
      <trkpt lat="45.06703" lon="5.77591">
        <ele>383.2</ele>
        <time>2021-05-29T10:02:01Z</time>
      </trkpt>
      <trkpt lat="45.06705" lon="5.77594">
        <ele>383.2</ele>
        <time>2021-05-29T10:02:02Z</time>
      </trkpt>
      <trkpt lat="45.06707" lon="5.77596">
        <ele>383</ele>
        <time>2021-05-29T10:02:03Z</time>
      </trkpt>
      <trkpt lat="45.06709" lon="5.77598">
        <ele>383</ele>
        <time>2021-05-29T10:02:04Z</time>
      </trkpt>
      <trkpt lat="45.06712" lon="5.776">
        <ele>382.8</ele>
        <time>2021-05-29T10:02:05Z</time>
      </trkpt>
      <trkpt lat="45.06714" lon="5.77602">
        <ele>382.8</ele>
        <time>2021-05-29T10:02:06Z</time>
      </trkpt>
      <trkpt lat="45.06716" lon="5.77605">
        <ele>382.6</ele>
        <time>2021-05-29T10:02:07Z</time>
      </trkpt>
      <trkpt lat="45.06716" lon="5.77607">
        <ele>382.4</ele>
        <time>2021-05-29T10:02:08Z</time>
      </trkpt>
      <trkpt lat="45.06717" lon="5.77609">
        <ele>382.4</ele>
        <time>2021-05-29T10:02:09Z</time>
      </trkpt>
      <trkpt lat="45.06717" lon="5.77612">
        <ele>382.4</ele>
        <time>2021-05-29T10:02:10Z</time>
      </trkpt>
      <trkpt lat="45.06718" lon="5.77614">
        <ele>382.4</ele>
        <time>2021-05-29T10:02:11Z</time>
      </trkpt>
      <trkpt lat="45.06718" lon="5.77616">
        <ele>382.6</ele>
        <time>2021-05-29T10:02:12Z</time>
      </trkpt>
      <trkpt lat="45.06719" lon="5.77619">
        <ele>382.4</ele>
        <time>2021-05-29T10:02:13Z</time>
      </trkpt>
      <trkpt lat="45.06718" lon="5.7762">
        <ele>382.4</ele>
        <time>2021-05-29T10:02:14Z</time>
      </trkpt>
      <trkpt lat="45.06717" lon="5.77621">
        <ele>382.2</ele>
        <time>2021-05-29T10:02:15Z</time>
      </trkpt>
      <trkpt lat="45.06716" lon="5.77622">
        <ele>382</ele>
        <time>2021-05-29T10:02:16Z</time>
      </trkpt>
      <trkpt lat="45.06715" lon="5.77623">
        <ele>382</ele>
        <time>2021-05-29T10:02:17Z</time>
      </trkpt>
      <trkpt lat="45.06714" lon="5.77624">
        <ele>382</ele>
        <time>2021-05-29T10:02:18Z</time>
      </trkpt>
      <trkpt lat="45.06714" lon="5.77625">
        <ele>382</ele>
        <time>2021-05-29T10:02:19Z</time>
      </trkpt>
      <trkpt lat="45.06713" lon="5.77627">
        <ele>382</ele>
        <time>2021-05-29T10:02:20Z</time>
      </trkpt>
      <trkpt lat="45.06712" lon="5.77628">
        <ele>381.8</ele>
        <time>2021-05-29T10:02:21Z</time>
      </trkpt>
      <trkpt lat="45.06711" lon="5.77629">
        <ele>381.8</ele>
        <time>2021-05-29T10:02:22Z</time>
      </trkpt>
      <trkpt lat="45.0671" lon="5.77629">
        <ele>381.8</ele>
        <time>2021-05-29T10:02:23Z</time>
      </trkpt>
      <trkpt lat="45.06709" lon="5.7763">
        <ele>382</ele>
        <time>2021-05-29T10:02:24Z</time>
      </trkpt>
      <trkpt lat="45.06708" lon="5.77631">
        <ele>382.2</ele>
        <time>2021-05-29T10:02:25Z</time>
      </trkpt>
      <trkpt lat="45.06707" lon="5.77631">
        <ele>382.2</ele>
        <time>2021-05-29T10:02:26Z</time>
      </trkpt>
      <trkpt lat="45.06705" lon="5.77632">
        <ele>382.2</ele>
        <time>2021-05-29T10:02:27Z</time>
      </trkpt>
      <trkpt lat="45.06704" lon="5.77632">
        <ele>382.2</ele>
        <time>2021-05-29T10:02:28Z</time>
      </trkpt>
      <trkpt lat="45.06703" lon="5.77633">
        <ele>382.4</ele>
        <time>2021-05-29T10:02:29Z</time>
      </trkpt>
      <trkpt lat="45.06702" lon="5.77634">
        <ele>382.6</ele>
        <time>2021-05-29T10:02:30Z</time>
      </trkpt>
      <trkpt lat="45.067" lon="5.77633">
        <ele>383</ele>
        <time>2021-05-29T10:02:31Z</time>
      </trkpt>
      <trkpt lat="45.06699" lon="5.77633">
        <ele>383.4</ele>
        <time>2021-05-29T10:02:32Z</time>
      </trkpt>
      <trkpt lat="45.06698" lon="5.77633">
        <ele>383.8</ele>
        <time>2021-05-29T10:02:33Z</time>
      </trkpt>
      <trkpt lat="45.06696" lon="5.77632">
        <ele>384.2</ele>
        <time>2021-05-29T10:02:34Z</time>
      </trkpt>
      <trkpt lat="45.06695" lon="5.77632">
        <ele>384.4</ele>
        <time>2021-05-29T10:02:35Z</time>
      </trkpt>
      <trkpt lat="45.06693" lon="5.77631">
        <ele>384.6</ele>
        <time>2021-05-29T10:02:36Z</time>
      </trkpt>
      <trkpt lat="45.06692" lon="5.77631">
        <ele>385</ele>
        <time>2021-05-29T10:02:37Z</time>
      </trkpt>
      <trkpt lat="45.06691" lon="5.77631">
        <ele>385.2</ele>
        <time>2021-05-29T10:02:38Z</time>
      </trkpt>
      <trkpt lat="45.0669" lon="5.77632">
        <ele>385.4</ele>
        <time>2021-05-29T10:02:39Z</time>
      </trkpt>
      <trkpt lat="45.0669" lon="5.77632">
        <ele>385.6</ele>
        <time>2021-05-29T10:02:40Z</time>
      </trkpt>
      <trkpt lat="45.06689" lon="5.77632">
        <ele>386</ele>
        <time>2021-05-29T10:02:41Z</time>
      </trkpt>
      <trkpt lat="45.06688" lon="5.77632">
        <ele>386.2</ele>
        <time>2021-05-29T10:02:42Z</time>
      </trkpt>
      <trkpt lat="45.06688" lon="5.77633">
        <ele>386.2</ele>
        <time>2021-05-29T10:02:43Z</time>
      </trkpt>
      <trkpt lat="45.06687" lon="5.77633">
        <ele>386.4</ele>
        <time>2021-05-29T10:02:44Z</time>
      </trkpt>
      <trkpt lat="45.06686" lon="5.77633">
        <ele>386.4</ele>
        <time>2021-05-29T10:02:45Z</time>
      </trkpt>
      <trkpt lat="45.06686" lon="5.77633">
        <ele>386.4</ele>
        <time>2021-05-29T10:02:46Z</time>
      </trkpt>
      <trkpt lat="45.06685" lon="5.77633">
        <ele>386.8</ele>
        <time>2021-05-29T10:02:47Z</time>
      </trkpt>
      <trkpt lat="45.06684" lon="5.77634">
        <ele>386.8</ele>
        <time>2021-05-29T10:02:48Z</time>
      </trkpt>
      <trkpt lat="45.06684" lon="5.77634">
        <ele>387</ele>
        <time>2021-05-29T10:02:49Z</time>
      </trkpt>
      <trkpt lat="45.06683" lon="5.77634">
        <ele>387.4</ele>
        <time>2021-05-29T10:02:50Z</time>
      </trkpt>
      <trkpt lat="45.06682" lon="5.77634">
        <ele>387.6</ele>
        <time>2021-05-29T10:02:51Z</time>
      </trkpt>
      <trkpt lat="45.06681" lon="5.77635">
        <ele>387.6</ele>
        <time>2021-05-29T10:02:52Z</time>
      </trkpt>
      <trkpt lat="45.0668" lon="5.77636">
        <ele>387.8</ele>
        <time>2021-05-29T10:02:53Z</time>
      </trkpt>
      <trkpt lat="45.0668" lon="5.77636">
        <ele>387.8</ele>
        <time>2021-05-29T10:02:54Z</time>
      </trkpt>
      <trkpt lat="45.06679" lon="5.77637">
        <ele>388</ele>
        <time>2021-05-29T10:02:55Z</time>
      </trkpt>
      <trkpt lat="45.06678" lon="5.77637">
        <ele>388</ele>
        <time>2021-05-29T10:02:56Z</time>
      </trkpt>
      <trkpt lat="45.06677" lon="5.77638">
        <ele>388.2</ele>
        <time>2021-05-29T10:02:57Z</time>
      </trkpt>
      <trkpt lat="45.06676" lon="5.77639">
        <ele>388.4</ele>
        <time>2021-05-29T10:02:58Z</time>
      </trkpt>
      <trkpt lat="45.06675" lon="5.77639">
        <ele>388.8</ele>
        <time>2021-05-29T10:02:59Z</time>
      </trkpt>
      <trkpt lat="45.06675" lon="5.7764">
        <ele>388.8</ele>
        <time>2021-05-29T10:03:00Z</time>
      </trkpt>
      <trkpt lat="45.06674" lon="5.7764">
        <ele>388.8</ele>
        <time>2021-05-29T10:03:01Z</time>
      </trkpt>
      <trkpt lat="45.06673" lon="5.7764">
        <ele>389</ele>
        <time>2021-05-29T10:03:02Z</time>
      </trkpt>
      <trkpt lat="45.06673" lon="5.7764">
        <ele>389</ele>
        <time>2021-05-29T10:03:03Z</time>
      </trkpt>
      <trkpt lat="45.06672" lon="5.7764">
        <ele>389.2</ele>
        <time>2021-05-29T10:03:04Z</time>
      </trkpt>
      <trkpt lat="45.06672" lon="5.7764">
        <ele>389.4</ele>
        <time>2021-05-29T10:03:05Z</time>
      </trkpt>
      <trkpt lat="45.06671" lon="5.7764">
        <ele>389.6</ele>
        <time>2021-05-29T10:03:06Z</time>
      </trkpt>
      <trkpt lat="45.06671" lon="5.7764">
        <ele>389.8</ele>
        <time>2021-05-29T10:03:07Z</time>
      </trkpt>
      <trkpt lat="45.0667" lon="5.7764">
        <ele>389.8</ele>
        <time>2021-05-29T10:03:08Z</time>
      </trkpt>
      <trkpt lat="45.0667" lon="5.7764">
        <ele>390</ele>
        <time>2021-05-29T10:03:09Z</time>
      </trkpt>
      <trkpt lat="45.06669" lon="5.7764">
        <ele>390.4</ele>
        <time>2021-05-29T10:03:10Z</time>
      </trkpt>
      <trkpt lat="45.06669" lon="5.7764">
        <ele>390.4</ele>
        <time>2021-05-29T10:03:11Z</time>
      </trkpt>
      <trkpt lat="45.06668" lon="5.7764">
        <ele>390.8</ele>
        <time>2021-05-29T10:03:12Z</time>
      </trkpt>
      <trkpt lat="45.06668" lon="5.7764">
        <ele>391.2</ele>
        <time>2021-05-29T10:03:13Z</time>
      </trkpt>
      <trkpt lat="45.06667" lon="5.7764">
        <ele>391.6</ele>
        <time>2021-05-29T10:03:14Z</time>
      </trkpt>
      <trkpt lat="45.06666" lon="5.7764">
        <ele>391.8</ele>
        <time>2021-05-29T10:03:15Z</time>
      </trkpt>
      <trkpt lat="45.06666" lon="5.7764">
        <ele>391.8</ele>
        <time>2021-05-29T10:03:16Z</time>
      </trkpt>
      <trkpt lat="45.06665" lon="5.7764">
        <ele>391.8</ele>
        <time>2021-05-29T10:03:17Z</time>
      </trkpt>
      <trkpt lat="45.06665" lon="5.7764">
        <ele>392.2</ele>
        <time>2021-05-29T10:03:18Z</time>
      </trkpt>
      <trkpt lat="45.06664" lon="5.7764">
        <ele>392.4</ele>
        <time>2021-05-29T10:03:19Z</time>
      </trkpt>
      <trkpt lat="45.06663" lon="5.77639">
        <ele>392.6</ele>
        <time>2021-05-29T10:03:20Z</time>
      </trkpt>
      <trkpt lat="45.06662" lon="5.77638">
        <ele>392.8</ele>
        <time>2021-05-29T10:03:21Z</time>
      </trkpt>
      <trkpt lat="45.06661" lon="5.77637">
        <ele>393.2</ele>
        <time>2021-05-29T10:03:22Z</time>
      </trkpt>
      <trkpt lat="45.0666" lon="5.77637">
        <ele>393.2</ele>
        <time>2021-05-29T10:03:23Z</time>
      </trkpt>
      <trkpt lat="45.06659" lon="5.77636">
        <ele>393.4</ele>
        <time>2021-05-29T10:03:24Z</time>
      </trkpt>
      <trkpt lat="45.06658" lon="5.77635">
        <ele>393.8</ele>
        <time>2021-05-29T10:03:25Z</time>
      </trkpt>
      <trkpt lat="45.06656" lon="5.77634">
        <ele>394.2</ele>
        <time>2021-05-29T10:03:26Z</time>
      </trkpt>
      <trkpt lat="45.06657" lon="5.77634">
        <ele>394.6</ele>
        <time>2021-05-29T10:03:27Z</time>
      </trkpt>
      <trkpt lat="45.06657" lon="5.77635">
        <ele>394.6</ele>
        <time>2021-05-29T10:03:28Z</time>
      </trkpt>
      <trkpt lat="45.06658" lon="5.77635">
        <ele>395</ele>
        <time>2021-05-29T10:03:29Z</time>
      </trkpt>
      <trkpt lat="45.06658" lon="5.77635">
        <ele>395.2</ele>
        <time>2021-05-29T10:03:30Z</time>
      </trkpt>
      <trkpt lat="45.06658" lon="5.77635">
        <ele>395.6</ele>
        <time>2021-05-29T10:03:31Z</time>
      </trkpt>
      <trkpt lat="45.06659" lon="5.77636">
        <ele>395.8</ele>
        <time>2021-05-29T10:03:32Z</time>
      </trkpt>
      <trkpt lat="45.06659" lon="5.77636">
        <ele>396</ele>
        <time>2021-05-29T10:03:33Z</time>
      </trkpt>
      <trkpt lat="45.0666" lon="5.77636">
        <ele>396.2</ele>
        <time>2021-05-29T10:03:34Z</time>
      </trkpt>
      <trkpt lat="45.0666" lon="5.77636">
        <ele>396.2</ele>
        <time>2021-05-29T10:03:35Z</time>
      </trkpt>
      <trkpt lat="45.0666" lon="5.77637">
        <ele>396.4</ele>
        <time>2021-05-29T10:03:36Z</time>
      </trkpt>
      <trkpt lat="45.06661" lon="5.77637">
        <ele>396.2</ele>
        <time>2021-05-29T10:03:37Z</time>
      </trkpt>
      <trkpt lat="45.06661" lon="5.77637">
        <ele>396.2</ele>
        <time>2021-05-29T10:03:38Z</time>
      </trkpt>
      <trkpt lat="45.06662" lon="5.77638">
        <ele>396</ele>
        <time>2021-05-29T10:03:39Z</time>
      </trkpt>
      <trkpt lat="45.06662" lon="5.77638">
        <ele>395.8</ele>
        <time>2021-05-29T10:03:40Z</time>
      </trkpt>
      <trkpt lat="45.06663" lon="5.77638">
        <ele>395.6</ele>
        <time>2021-05-29T10:03:41Z</time>
      </trkpt>
      <trkpt lat="45.06663" lon="5.77638">
        <ele>395.2</ele>
        <time>2021-05-29T10:03:42Z</time>
      </trkpt>
      <trkpt lat="45.06663" lon="5.77639">
        <ele>395.2</ele>
        <time>2021-05-29T10:03:43Z</time>
      </trkpt>
      <trkpt lat="45.06664" lon="5.77639">
        <ele>395.2</ele>
        <time>2021-05-29T10:03:44Z</time>
      </trkpt>
      <trkpt lat="45.06664" lon="5.77639">
        <ele>395.2</ele>
        <time>2021-05-29T10:03:45Z</time>
      </trkpt>
      <trkpt lat="45.06665" lon="5.77639">
        <ele>395</ele>
        <time>2021-05-29T10:03:46Z</time>
      </trkpt>
      <trkpt lat="45.06665" lon="5.7764">
        <ele>395</ele>
        <time>2021-05-29T10:03:47Z</time>
      </trkpt>
      <trkpt lat="45.06665" lon="5.7764">
        <ele>395</ele>
        <time>2021-05-29T10:03:48Z</time>
      </trkpt>
      <trkpt lat="45.06665" lon="5.7764">
        <ele>394.8</ele>
        <time>2021-05-29T10:03:49Z</time>
      </trkpt>
      <trkpt lat="45.06664" lon="5.7764">
        <ele>394.8</ele>
        <time>2021-05-29T10:03:50Z</time>
      </trkpt>
      <trkpt lat="45.06663" lon="5.7764">
        <ele>394.8</ele>
        <time>2021-05-29T10:03:51Z</time>
      </trkpt>
      <trkpt lat="45.06662" lon="5.77639">
        <ele>394.8</ele>
        <time>2021-05-29T10:03:52Z</time>
      </trkpt>
      <trkpt lat="45.06661" lon="5.77639">
        <ele>394.6</ele>
        <time>2021-05-29T10:03:53Z</time>
      </trkpt>
      <trkpt lat="45.06661" lon="5.77639">
        <ele>394.6</ele>
        <time>2021-05-29T10:03:54Z</time>
      </trkpt>
      <trkpt lat="45.0666" lon="5.77639">
        <ele>394.6</ele>
        <time>2021-05-29T10:03:55Z</time>
      </trkpt>
      <trkpt lat="45.06659" lon="5.77639">
        <ele>394.6</ele>
        <time>2021-05-29T10:03:56Z</time>
      </trkpt>
      <trkpt lat="45.06658" lon="5.77639">
        <ele>394.6</ele>
        <time>2021-05-29T10:03:57Z</time>
      </trkpt>
      <trkpt lat="45.06658" lon="5.77639">
        <ele>394.6</ele>
        <time>2021-05-29T10:03:58Z</time>
      </trkpt>
      <trkpt lat="45.06657" lon="5.77639">
        <ele>394.6</ele>
        <time>2021-05-29T10:03:59Z</time>
      </trkpt>
      <trkpt lat="45.06656" lon="5.77639">
        <ele>394.8</ele>
        <time>2021-05-29T10:04:00Z</time>
      </trkpt>
      <trkpt lat="45.06655" lon="5.77638">
        <ele>394.8</ele>
        <time>2021-05-29T10:04:01Z</time>
      </trkpt>
      <trkpt lat="45.06654" lon="5.77638">
        <ele>395</ele>
        <time>2021-05-29T10:04:02Z</time>
      </trkpt>
      <trkpt lat="45.06652" lon="5.77637">
        <ele>395.4</ele>
        <time>2021-05-29T10:04:03Z</time>
      </trkpt>
      <trkpt lat="45.0665" lon="5.77637">
        <ele>395.4</ele>
        <time>2021-05-29T10:04:04Z</time>
      </trkpt>
      <trkpt lat="45.06649" lon="5.77636">
        <ele>395.4</ele>
        <time>2021-05-29T10:04:05Z</time>
      </trkpt>
      <trkpt lat="45.06647" lon="5.77636">
        <ele>395.4</ele>
        <time>2021-05-29T10:04:06Z</time>
      </trkpt>
      <trkpt lat="45.06646" lon="5.77635">
        <ele>395.6</ele>
        <time>2021-05-29T10:04:07Z</time>
      </trkpt>
      <trkpt lat="45.06644" lon="5.77635">
        <ele>395.6</ele>
        <time>2021-05-29T10:04:08Z</time>
      </trkpt>
      <trkpt lat="45.06642" lon="5.77635">
        <ele>395.6</ele>
        <time>2021-05-29T10:04:09Z</time>
      </trkpt>
      <trkpt lat="45.06641" lon="5.77634">
        <ele>395.6</ele>
        <time>2021-05-29T10:04:10Z</time>
      </trkpt>
      <trkpt lat="45.06639" lon="5.77634">
        <ele>395.8</ele>
        <time>2021-05-29T10:04:11Z</time>
      </trkpt>
      <trkpt lat="45.06637" lon="5.77634">
        <ele>396</ele>
        <time>2021-05-29T10:04:12Z</time>
      </trkpt>
      <trkpt lat="45.06636" lon="5.77633">
        <ele>396</ele>
        <time>2021-05-29T10:04:13Z</time>
      </trkpt>
      <trkpt lat="45.06636" lon="5.77633">
        <ele>396.2</ele>
        <time>2021-05-29T10:04:14Z</time>
      </trkpt>
      <trkpt lat="45.06637" lon="5.77633">
        <ele>396.4</ele>
        <time>2021-05-29T10:04:15Z</time>
      </trkpt>
      <trkpt lat="45.06637" lon="5.77632">
        <ele>396.4</ele>
        <time>2021-05-29T10:04:16Z</time>
      </trkpt>
      <trkpt lat="45.06638" lon="5.77632">
        <ele>396.6</ele>
        <time>2021-05-29T10:04:17Z</time>
      </trkpt>
      <trkpt lat="45.06638" lon="5.77632">
        <ele>396.6</ele>
        <time>2021-05-29T10:04:18Z</time>
      </trkpt>
      <trkpt lat="45.06639" lon="5.77631">
        <ele>396.6</ele>
        <time>2021-05-29T10:04:19Z</time>
      </trkpt>
      <trkpt lat="45.06639" lon="5.77631">
        <ele>396.4</ele>
        <time>2021-05-29T10:04:20Z</time>
      </trkpt>
      <trkpt lat="45.0664" lon="5.7763">
        <ele>396.4</ele>
        <time>2021-05-29T10:04:21Z</time>
      </trkpt>
      <trkpt lat="45.0664" lon="5.7763">
        <ele>396.2</ele>
        <time>2021-05-29T10:04:22Z</time>
      </trkpt>
      <trkpt lat="45.06641" lon="5.7763">
        <ele>396.2</ele>
        <time>2021-05-29T10:04:23Z</time>
      </trkpt>
      <trkpt lat="45.06641" lon="5.77629">
        <ele>396.2</ele>
        <time>2021-05-29T10:04:24Z</time>
      </trkpt>
      <trkpt lat="45.06642" lon="5.77629">
        <ele>396.2</ele>
        <time>2021-05-29T10:04:25Z</time>
      </trkpt>
      <trkpt lat="45.06642" lon="5.77629">
        <ele>396</ele>
        <time>2021-05-29T10:04:26Z</time>
      </trkpt>
      <trkpt lat="45.06643" lon="5.77628">
        <ele>395.8</ele>
        <time>2021-05-29T10:04:27Z</time>
      </trkpt>
      <trkpt lat="45.06643" lon="5.77628">
        <ele>395.4</ele>
        <time>2021-05-29T10:04:28Z</time>
      </trkpt>
      <trkpt lat="45.06644" lon="5.77628">
        <ele>395.2</ele>
        <time>2021-05-29T10:04:29Z</time>
      </trkpt>
      <trkpt lat="45.06644" lon="5.77627">
        <ele>394.6</ele>
        <time>2021-05-29T10:04:30Z</time>
      </trkpt>
      <trkpt lat="45.06646" lon="5.77627">
        <ele>394.4</ele>
        <time>2021-05-29T10:04:31Z</time>
      </trkpt>
      <trkpt lat="45.06647" lon="5.77627">
        <ele>394</ele>
        <time>2021-05-29T10:04:32Z</time>
      </trkpt>
      <trkpt lat="45.06648" lon="5.77627">
        <ele>393.4</ele>
        <time>2021-05-29T10:04:33Z</time>
      </trkpt>
      <trkpt lat="45.06649" lon="5.77627">
        <ele>393.4</ele>
        <time>2021-05-29T10:04:34Z</time>
      </trkpt>
      <trkpt lat="45.06651" lon="5.77627">
        <ele>393</ele>
        <time>2021-05-29T10:04:35Z</time>
      </trkpt>
      <trkpt lat="45.06652" lon="5.77627">
        <ele>392.6</ele>
        <time>2021-05-29T10:04:36Z</time>
      </trkpt>
      <trkpt lat="45.06653" lon="5.77627">
        <ele>392.2</ele>
        <time>2021-05-29T10:04:37Z</time>
      </trkpt>
      <trkpt lat="45.06654" lon="5.77627">
        <ele>392</ele>
        <time>2021-05-29T10:04:38Z</time>
      </trkpt>
      <trkpt lat="45.06656" lon="5.77627">
        <ele>391.2</ele>
        <time>2021-05-29T10:04:39Z</time>
      </trkpt>
      <trkpt lat="45.06657" lon="5.77628">
        <ele>390.2</ele>
        <time>2021-05-29T10:04:40Z</time>
      </trkpt>
      <trkpt lat="45.06658" lon="5.77629">
        <ele>390.2</ele>
        <time>2021-05-29T10:04:41Z</time>
      </trkpt>
      <trkpt lat="45.0666" lon="5.7763">
        <ele>389.8</ele>
        <time>2021-05-29T10:04:42Z</time>
      </trkpt>
      <trkpt lat="45.06661" lon="5.7763">
        <ele>389.4</ele>
        <time>2021-05-29T10:04:43Z</time>
      </trkpt>
      <trkpt lat="45.06662" lon="5.77631">
        <ele>388.8</ele>
        <time>2021-05-29T10:04:44Z</time>
      </trkpt>
      <trkpt lat="45.06664" lon="5.77632">
        <ele>388.2</ele>
        <time>2021-05-29T10:04:45Z</time>
      </trkpt>
      <trkpt lat="45.06664" lon="5.77632">
        <ele>387.8</ele>
        <time>2021-05-29T10:04:46Z</time>
      </trkpt>
      <trkpt lat="45.06665" lon="5.77632">
        <ele>387.2</ele>
        <time>2021-05-29T10:04:47Z</time>
      </trkpt>
      <trkpt lat="45.06666" lon="5.77632">
        <ele>387</ele>
        <time>2021-05-29T10:04:48Z</time>
      </trkpt>
      <trkpt lat="45.06666" lon="5.77632">
        <ele>386.8</ele>
        <time>2021-05-29T10:04:49Z</time>
      </trkpt>
      <trkpt lat="45.06667" lon="5.77632">
        <ele>386.6</ele>
        <time>2021-05-29T10:04:50Z</time>
      </trkpt>
      <trkpt lat="45.06667" lon="5.77633">
        <ele>386.4</ele>
        <time>2021-05-29T10:04:51Z</time>
      </trkpt>
      <trkpt lat="45.06668" lon="5.77633">
        <ele>386.4</ele>
        <time>2021-05-29T10:04:52Z</time>
      </trkpt>
      <trkpt lat="45.06669" lon="5.77633">
        <ele>386.4</ele>
        <time>2021-05-29T10:04:53Z</time>
      </trkpt>
      <trkpt lat="45.06669" lon="5.77633">
        <ele>386.2</ele>
        <time>2021-05-29T10:04:54Z</time>
      </trkpt>
      <trkpt lat="45.0667" lon="5.77633">
        <ele>386</ele>
        <time>2021-05-29T10:04:55Z</time>
      </trkpt>
      <trkpt lat="45.06671" lon="5.77633">
        <ele>386</ele>
        <time>2021-05-29T10:04:56Z</time>
      </trkpt>
      <trkpt lat="45.06671" lon="5.77633">
        <ele>385.8</ele>
        <time>2021-05-29T10:04:57Z</time>
      </trkpt>
      <trkpt lat="45.06672" lon="5.77634">
        <ele>386</ele>
        <time>2021-05-29T10:04:58Z</time>
      </trkpt>
      <trkpt lat="45.06672" lon="5.77634">
        <ele>386</ele>
        <time>2021-05-29T10:04:59Z</time>
      </trkpt>
      <trkpt lat="45.06673" lon="5.77634">
        <ele>385.8</ele>
        <time>2021-05-29T10:05:00Z</time>
      </trkpt>
      <trkpt lat="45.06674" lon="5.77634">
        <ele>385.6</ele>
        <time>2021-05-29T10:05:01Z</time>
      </trkpt>
      <trkpt lat="45.06674" lon="5.77634">
        <ele>385.8</ele>
        <time>2021-05-29T10:05:02Z</time>
      </trkpt>
      <trkpt lat="45.06676" lon="5.77636">
        <ele>385.6</ele>
        <time>2021-05-29T10:05:03Z</time>
      </trkpt>
      <trkpt lat="45.06679" lon="5.77638">
        <ele>385.6</ele>
        <time>2021-05-29T10:05:04Z</time>
      </trkpt>
      <trkpt lat="45.06681" lon="5.77639">
        <ele>385.4</ele>
        <time>2021-05-29T10:05:05Z</time>
      </trkpt>
      <trkpt lat="45.06683" lon="5.77641">
        <ele>385.4</ele>
        <time>2021-05-29T10:05:06Z</time>
      </trkpt>
      <trkpt lat="45.06684" lon="5.77643">
        <ele>385.4</ele>
        <time>2021-05-29T10:05:07Z</time>
      </trkpt>
      <trkpt lat="45.06686" lon="5.77644">
        <ele>385.2</ele>
        <time>2021-05-29T10:05:08Z</time>
      </trkpt>
      <trkpt lat="45.06688" lon="5.77645">
        <ele>385.2</ele>
        <time>2021-05-29T10:05:09Z</time>
      </trkpt>
      <trkpt lat="45.06689" lon="5.77647">
        <ele>385.4</ele>
        <time>2021-05-29T10:05:10Z</time>
      </trkpt>
      <trkpt lat="45.06691" lon="5.77648">
        <ele>385.2</ele>
        <time>2021-05-29T10:05:11Z</time>
      </trkpt>
      <trkpt lat="45.06692" lon="5.7765">
        <ele>385.6</ele>
        <time>2021-05-29T10:05:12Z</time>
      </trkpt>
      <trkpt lat="45.06692" lon="5.77651">
        <ele>385.6</ele>
        <time>2021-05-29T10:05:13Z</time>
      </trkpt>
      <trkpt lat="45.06693" lon="5.77652">
        <ele>385.6</ele>
        <time>2021-05-29T10:05:14Z</time>
      </trkpt>
      <trkpt lat="45.06694" lon="5.77654">
        <ele>385.6</ele>
        <time>2021-05-29T10:05:15Z</time>
      </trkpt>
      <trkpt lat="45.06695" lon="5.77655">
        <ele>385.8</ele>
        <time>2021-05-29T10:05:16Z</time>
      </trkpt>
      <trkpt lat="45.06696" lon="5.77657">
        <ele>386</ele>
        <time>2021-05-29T10:05:17Z</time>
      </trkpt>
      <trkpt lat="45.06696" lon="5.77658">
        <ele>386.2</ele>
        <time>2021-05-29T10:05:18Z</time>
      </trkpt>
      <trkpt lat="45.06697" lon="5.77659">
        <ele>386.4</ele>
        <time>2021-05-29T10:05:19Z</time>
      </trkpt>
      <trkpt lat="45.06697" lon="5.77662">
        <ele>386.6</ele>
        <time>2021-05-29T10:05:20Z</time>
      </trkpt>
      <trkpt lat="45.06697" lon="5.77664">
        <ele>387</ele>
        <time>2021-05-29T10:05:21Z</time>
      </trkpt>
      <trkpt lat="45.06696" lon="5.77666">
        <ele>387.4</ele>
        <time>2021-05-29T10:05:22Z</time>
      </trkpt>
      <trkpt lat="45.06696" lon="5.77668">
        <ele>387.4</ele>
        <time>2021-05-29T10:05:23Z</time>
      </trkpt>
      <trkpt lat="45.06696" lon="5.77671">
        <ele>387.4</ele>
        <time>2021-05-29T10:05:24Z</time>
      </trkpt>
      <trkpt lat="45.06696" lon="5.77673">
        <ele>387.6</ele>
        <time>2021-05-29T10:05:25Z</time>
      </trkpt>
      <trkpt lat="45.06696" lon="5.77674">
        <ele>387.6</ele>
        <time>2021-05-29T10:05:26Z</time>
      </trkpt>
      <trkpt lat="45.06695" lon="5.77676">
        <ele>387.8</ele>
        <time>2021-05-29T10:05:27Z</time>
      </trkpt>
      <trkpt lat="45.06695" lon="5.77677">
        <ele>388</ele>
        <time>2021-05-29T10:05:28Z</time>
      </trkpt>
      <trkpt lat="45.06695" lon="5.77679">
        <ele>388.6</ele>
        <time>2021-05-29T10:05:29Z</time>
      </trkpt>
      <trkpt lat="45.06695" lon="5.7768">
        <ele>388.8</ele>
        <time>2021-05-29T10:05:30Z</time>
      </trkpt>
      <trkpt lat="45.06695" lon="5.77681">
        <ele>388.8</ele>
        <time>2021-05-29T10:05:31Z</time>
      </trkpt>
      <trkpt lat="45.06695" lon="5.77683">
        <ele>389</ele>
        <time>2021-05-29T10:05:32Z</time>
      </trkpt>
      <trkpt lat="45.06695" lon="5.77684">
        <ele>389.2</ele>
        <time>2021-05-29T10:05:33Z</time>
      </trkpt>
      <trkpt lat="45.06695" lon="5.77686">
        <ele>389.6</ele>
        <time>2021-05-29T10:05:34Z</time>
      </trkpt>
      <trkpt lat="45.06694" lon="5.77687">
        <ele>389.8</ele>
        <time>2021-05-29T10:05:35Z</time>
      </trkpt>
      <trkpt lat="45.06694" lon="5.77687">
        <ele>390.2</ele>
        <time>2021-05-29T10:05:36Z</time>
      </trkpt>
      <trkpt lat="45.06694" lon="5.77688">
        <ele>390.4</ele>
        <time>2021-05-29T10:05:37Z</time>
      </trkpt>
      <trkpt lat="45.06694" lon="5.77689">
        <ele>390.6</ele>
        <time>2021-05-29T10:05:38Z</time>
      </trkpt>
      <trkpt lat="45.06694" lon="5.7769">
        <ele>390.8</ele>
        <time>2021-05-29T10:05:39Z</time>
      </trkpt>
      <trkpt lat="45.06694" lon="5.7769">
        <ele>391</ele>
        <time>2021-05-29T10:05:40Z</time>
      </trkpt>
      <trkpt lat="45.06694" lon="5.77691">
        <ele>391.4</ele>
        <time>2021-05-29T10:05:41Z</time>
      </trkpt>
      <trkpt lat="45.06693" lon="5.77692">
        <ele>391.6</ele>
        <time>2021-05-29T10:05:42Z</time>
      </trkpt>
      <trkpt lat="45.06693" lon="5.77693">
        <ele>392</ele>
        <time>2021-05-29T10:05:43Z</time>
      </trkpt>
      <trkpt lat="45.06693" lon="5.77694">
        <ele>392.2</ele>
        <time>2021-05-29T10:05:44Z</time>
      </trkpt>
      <trkpt lat="45.06693" lon="5.77694">
        <ele>392.6</ele>
        <time>2021-05-29T10:05:45Z</time>
      </trkpt>
      <trkpt lat="45.06693" lon="5.77695">
        <ele>392.6</ele>
        <time>2021-05-29T10:05:46Z</time>
      </trkpt>
      <trkpt lat="45.06693" lon="5.77696">
        <ele>393</ele>
        <time>2021-05-29T10:05:47Z</time>
      </trkpt>
      <trkpt lat="45.06692" lon="5.77697">
        <ele>393.2</ele>
        <time>2021-05-29T10:05:48Z</time>
      </trkpt>
      <trkpt lat="45.06692" lon="5.77698">
        <ele>393.4</ele>
        <time>2021-05-29T10:05:49Z</time>
      </trkpt>
      <trkpt lat="45.06692" lon="5.77698">
        <ele>393.6</ele>
        <time>2021-05-29T10:05:50Z</time>
      </trkpt>
      <trkpt lat="45.06692" lon="5.777">
        <ele>393.8</ele>
        <time>2021-05-29T10:05:51Z</time>
      </trkpt>
      <trkpt lat="45.06692" lon="5.77701">
        <ele>394.2</ele>
        <time>2021-05-29T10:05:52Z</time>
      </trkpt>
      <trkpt lat="45.06692" lon="5.77702">
        <ele>394.4</ele>
        <time>2021-05-29T10:05:53Z</time>
      </trkpt>
      <trkpt lat="45.06692" lon="5.77704">
        <ele>394.4</ele>
        <time>2021-05-29T10:05:54Z</time>
      </trkpt>
      <trkpt lat="45.06692" lon="5.77705">
        <ele>394.6</ele>
        <time>2021-05-29T10:05:55Z</time>
      </trkpt>
      <trkpt lat="45.06692" lon="5.77706">
        <ele>395</ele>
        <time>2021-05-29T10:05:56Z</time>
      </trkpt>
      <trkpt lat="45.06692" lon="5.77708">
        <ele>395.2</ele>
        <time>2021-05-29T10:05:57Z</time>
      </trkpt>
      <trkpt lat="45.06692" lon="5.77709">
        <ele>395.4</ele>
        <time>2021-05-29T10:05:58Z</time>
      </trkpt>
      <trkpt lat="45.06692" lon="5.7771">
        <ele>395.6</ele>
        <time>2021-05-29T10:05:59Z</time>
      </trkpt>
      <trkpt lat="45.06692" lon="5.77712">
        <ele>396</ele>
        <time>2021-05-29T10:06:00Z</time>
      </trkpt>
      <trkpt lat="45.06692" lon="5.77713">
        <ele>396.4</ele>
        <time>2021-05-29T10:06:01Z</time>
      </trkpt>
      <trkpt lat="45.06692" lon="5.77714">
        <ele>396.6</ele>
        <time>2021-05-29T10:06:02Z</time>
      </trkpt>
      <trkpt lat="45.06691" lon="5.77715">
        <ele>396.8</ele>
        <time>2021-05-29T10:06:03Z</time>
      </trkpt>
      <trkpt lat="45.06691" lon="5.77716">
        <ele>397</ele>
        <time>2021-05-29T10:06:04Z</time>
      </trkpt>
      <trkpt lat="45.06691" lon="5.77717">
        <ele>397.2</ele>
        <time>2021-05-29T10:06:05Z</time>
      </trkpt>
      <trkpt lat="45.0669" lon="5.77718">
        <ele>397.4</ele>
        <time>2021-05-29T10:06:06Z</time>
      </trkpt>
      <trkpt lat="45.0669" lon="5.77719">
        <ele>397.8</ele>
        <time>2021-05-29T10:06:07Z</time>
      </trkpt>
      <trkpt lat="45.0669" lon="5.7772">
        <ele>398</ele>
        <time>2021-05-29T10:06:08Z</time>
      </trkpt>
      <trkpt lat="45.06689" lon="5.77721">
        <ele>398.2</ele>
        <time>2021-05-29T10:06:09Z</time>
      </trkpt>
      <trkpt lat="45.06689" lon="5.77722">
        <ele>398.4</ele>
        <time>2021-05-29T10:06:10Z</time>
      </trkpt>
      <trkpt lat="45.06689" lon="5.77723">
        <ele>398.8</ele>
        <time>2021-05-29T10:06:11Z</time>
      </trkpt>
      <trkpt lat="45.06688" lon="5.77724">
        <ele>398.8</ele>
        <time>2021-05-29T10:06:12Z</time>
      </trkpt>
      <trkpt lat="45.06687" lon="5.77725">
        <ele>399.2</ele>
        <time>2021-05-29T10:06:13Z</time>
      </trkpt>
      <trkpt lat="45.06686" lon="5.77725">
        <ele>399.4</ele>
        <time>2021-05-29T10:06:14Z</time>
      </trkpt>
      <trkpt lat="45.06684" lon="5.77726">
        <ele>399.8</ele>
        <time>2021-05-29T10:06:15Z</time>
      </trkpt>
      <trkpt lat="45.06683" lon="5.77726">
        <ele>400</ele>
        <time>2021-05-29T10:06:16Z</time>
      </trkpt>
      <trkpt lat="45.06682" lon="5.77727">
        <ele>400.2</ele>
        <time>2021-05-29T10:06:17Z</time>
      </trkpt>
      <trkpt lat="45.06681" lon="5.77727">
        <ele>400.4</ele>
        <time>2021-05-29T10:06:18Z</time>
      </trkpt>
      <trkpt lat="45.06679" lon="5.77728">
        <ele>400.6</ele>
        <time>2021-05-29T10:06:19Z</time>
      </trkpt>
      <trkpt lat="45.06678" lon="5.77728">
        <ele>400.8</ele>
        <time>2021-05-29T10:06:20Z</time>
      </trkpt>
      <trkpt lat="45.06677" lon="5.77729">
        <ele>401</ele>
        <time>2021-05-29T10:06:21Z</time>
      </trkpt>
      <trkpt lat="45.06676" lon="5.7773">
        <ele>401.4</ele>
        <time>2021-05-29T10:06:22Z</time>
      </trkpt>
      <trkpt lat="45.06675" lon="5.77731">
        <ele>401.6</ele>
        <time>2021-05-29T10:06:23Z</time>
      </trkpt>
      <trkpt lat="45.06674" lon="5.77732">
        <ele>401.8</ele>
        <time>2021-05-29T10:06:24Z</time>
      </trkpt>
      <trkpt lat="45.06673" lon="5.77733">
        <ele>402.2</ele>
        <time>2021-05-29T10:06:25Z</time>
      </trkpt>
      <trkpt lat="45.06671" lon="5.77734">
        <ele>402.4</ele>
        <time>2021-05-29T10:06:26Z</time>
      </trkpt>
      <trkpt lat="45.0667" lon="5.77735">
        <ele>402.4</ele>
        <time>2021-05-29T10:06:27Z</time>
      </trkpt>
      <trkpt lat="45.06669" lon="5.77735">
        <ele>402.8</ele>
        <time>2021-05-29T10:06:28Z</time>
      </trkpt>
      <trkpt lat="45.06667" lon="5.77736">
        <ele>403</ele>
        <time>2021-05-29T10:06:29Z</time>
      </trkpt>
      <trkpt lat="45.06665" lon="5.77736">
        <ele>403.2</ele>
        <time>2021-05-29T10:06:30Z</time>
      </trkpt>
      <trkpt lat="45.06663" lon="5.77736">
        <ele>403.4</ele>
        <time>2021-05-29T10:06:31Z</time>
      </trkpt>
      <trkpt lat="45.06661" lon="5.77737">
        <ele>403.6</ele>
        <time>2021-05-29T10:06:32Z</time>
      </trkpt>
      <trkpt lat="45.0666" lon="5.77737">
        <ele>404.2</ele>
        <time>2021-05-29T10:06:33Z</time>
      </trkpt>
      <trkpt lat="45.06659" lon="5.77737">
        <ele>404</ele>
        <time>2021-05-29T10:06:34Z</time>
      </trkpt>
      <trkpt lat="45.06658" lon="5.77737">
        <ele>404.6</ele>
        <time>2021-05-29T10:06:35Z</time>
      </trkpt>
      <trkpt lat="45.06657" lon="5.77737">
        <ele>404.8</ele>
        <time>2021-05-29T10:06:36Z</time>
      </trkpt>
      <trkpt lat="45.06656" lon="5.77737">
        <ele>405.2</ele>
        <time>2021-05-29T10:06:37Z</time>
      </trkpt>
      <trkpt lat="45.06655" lon="5.77737">
        <ele>405.4</ele>
        <time>2021-05-29T10:06:38Z</time>
      </trkpt>
      <trkpt lat="45.06654" lon="5.77737">
        <ele>405.8</ele>
        <time>2021-05-29T10:06:39Z</time>
      </trkpt>
      <trkpt lat="45.06653" lon="5.77737">
        <ele>405.6</ele>
        <time>2021-05-29T10:06:40Z</time>
      </trkpt>
      <trkpt lat="45.06651" lon="5.77737">
        <ele>406</ele>
        <time>2021-05-29T10:06:41Z</time>
      </trkpt>
      <trkpt lat="45.06651" lon="5.77737">
        <ele>406.2</ele>
        <time>2021-05-29T10:06:42Z</time>
      </trkpt>
      <trkpt lat="45.0665" lon="5.77737">
        <ele>406.4</ele>
        <time>2021-05-29T10:06:43Z</time>
      </trkpt>
      <trkpt lat="45.06649" lon="5.77737">
        <ele>406.8</ele>
        <time>2021-05-29T10:06:44Z</time>
      </trkpt>
      <trkpt lat="45.06648" lon="5.77737">
        <ele>407.2</ele>
        <time>2021-05-29T10:06:45Z</time>
      </trkpt>
      <trkpt lat="45.06647" lon="5.77737">
        <ele>407.4</ele>
        <time>2021-05-29T10:06:46Z</time>
      </trkpt>
      <trkpt lat="45.06646" lon="5.77737">
        <ele>407.8</ele>
        <time>2021-05-29T10:06:47Z</time>
      </trkpt>
      <trkpt lat="45.06645" lon="5.77737">
        <ele>408.2</ele>
        <time>2021-05-29T10:06:48Z</time>
      </trkpt>
      <trkpt lat="45.06644" lon="5.77737">
        <ele>408.2</ele>
        <time>2021-05-29T10:06:49Z</time>
      </trkpt>
      <trkpt lat="45.06643" lon="5.77737">
        <ele>408.4</ele>
        <time>2021-05-29T10:06:50Z</time>
      </trkpt>
      <trkpt lat="45.06642" lon="5.77737">
        <ele>408.4</ele>
        <time>2021-05-29T10:06:51Z</time>
      </trkpt>
      <trkpt lat="45.06641" lon="5.77737">
        <ele>408.6</ele>
        <time>2021-05-29T10:06:52Z</time>
      </trkpt>
      <trkpt lat="45.06641" lon="5.77737">
        <ele>409</ele>
        <time>2021-05-29T10:06:53Z</time>
      </trkpt>
      <trkpt lat="45.0664" lon="5.77737">
        <ele>409.4</ele>
        <time>2021-05-29T10:06:54Z</time>
      </trkpt>
      <trkpt lat="45.06639" lon="5.77738">
        <ele>409.6</ele>
        <time>2021-05-29T10:06:55Z</time>
      </trkpt>
      <trkpt lat="45.06638" lon="5.77738">
        <ele>409.8</ele>
        <time>2021-05-29T10:06:56Z</time>
      </trkpt>
      <trkpt lat="45.06637" lon="5.77738">
        <ele>410.2</ele>
        <time>2021-05-29T10:06:57Z</time>
      </trkpt>
      <trkpt lat="45.06636" lon="5.77738">
        <ele>410.6</ele>
        <time>2021-05-29T10:06:58Z</time>
      </trkpt>
      <trkpt lat="45.06635" lon="5.77739">
        <ele>411</ele>
        <time>2021-05-29T10:06:59Z</time>
      </trkpt>
      <trkpt lat="45.06634" lon="5.77739">
        <ele>411.2</ele>
        <time>2021-05-29T10:07:00Z</time>
      </trkpt>
      <trkpt lat="45.06633" lon="5.77739">
        <ele>411.2</ele>
        <time>2021-05-29T10:07:01Z</time>
      </trkpt>
      <trkpt lat="45.06633" lon="5.7774">
        <ele>411.4</ele>
        <time>2021-05-29T10:07:02Z</time>
      </trkpt>
      <trkpt lat="45.06632" lon="5.7774">
        <ele>411.4</ele>
        <time>2021-05-29T10:07:03Z</time>
      </trkpt>
      <trkpt lat="45.06631" lon="5.7774">
        <ele>411.8</ele>
        <time>2021-05-29T10:07:04Z</time>
      </trkpt>
      <trkpt lat="45.0663" lon="5.7774">
        <ele>412</ele>
        <time>2021-05-29T10:07:05Z</time>
      </trkpt>
      <trkpt lat="45.06629" lon="5.7774">
        <ele>412.4</ele>
        <time>2021-05-29T10:07:06Z</time>
      </trkpt>
      <trkpt lat="45.06628" lon="5.7774">
        <ele>412.6</ele>
        <time>2021-05-29T10:07:07Z</time>
      </trkpt>
      <trkpt lat="45.06627" lon="5.77741">
        <ele>412.8</ele>
        <time>2021-05-29T10:07:08Z</time>
      </trkpt>
      <trkpt lat="45.06627" lon="5.77741">
        <ele>413.2</ele>
        <time>2021-05-29T10:07:09Z</time>
      </trkpt>
      <trkpt lat="45.06626" lon="5.77741">
        <ele>413.6</ele>
        <time>2021-05-29T10:07:10Z</time>
      </trkpt>
      <trkpt lat="45.06625" lon="5.77741">
        <ele>414</ele>
        <time>2021-05-29T10:07:11Z</time>
      </trkpt>
      <trkpt lat="45.06624" lon="5.77741">
        <ele>414.2</ele>
        <time>2021-05-29T10:07:12Z</time>
      </trkpt>
      <trkpt lat="45.06623" lon="5.77741">
        <ele>414.4</ele>
        <time>2021-05-29T10:07:13Z</time>
      </trkpt>
      <trkpt lat="45.06622" lon="5.77741">
        <ele>414.6</ele>
        <time>2021-05-29T10:07:14Z</time>
      </trkpt>
      <trkpt lat="45.06621" lon="5.77741">
        <ele>414.8</ele>
        <time>2021-05-29T10:07:15Z</time>
      </trkpt>
      <trkpt lat="45.0662" lon="5.77741">
        <ele>414.8</ele>
        <time>2021-05-29T10:07:16Z</time>
      </trkpt>
      <trkpt lat="45.06619" lon="5.77741">
        <ele>415</ele>
        <time>2021-05-29T10:07:17Z</time>
      </trkpt>
      <trkpt lat="45.06618" lon="5.77741">
        <ele>415</ele>
        <time>2021-05-29T10:07:18Z</time>
      </trkpt>
      <trkpt lat="45.06617" lon="5.77741">
        <ele>415.4</ele>
        <time>2021-05-29T10:07:19Z</time>
      </trkpt>
      <trkpt lat="45.06616" lon="5.77741">
        <ele>415.6</ele>
        <time>2021-05-29T10:07:20Z</time>
      </trkpt>
      <trkpt lat="45.06615" lon="5.77741">
        <ele>415.6</ele>
        <time>2021-05-29T10:07:21Z</time>
      </trkpt>
      <trkpt lat="45.06614" lon="5.77741">
        <ele>415.8</ele>
        <time>2021-05-29T10:07:22Z</time>
      </trkpt>
      <trkpt lat="45.06613" lon="5.77741">
        <ele>416.2</ele>
        <time>2021-05-29T10:07:23Z</time>
      </trkpt>
      <trkpt lat="45.06612" lon="5.77741">
        <ele>416.2</ele>
        <time>2021-05-29T10:07:24Z</time>
      </trkpt>
      <trkpt lat="45.06611" lon="5.77741">
        <ele>416.4</ele>
        <time>2021-05-29T10:07:25Z</time>
      </trkpt>
      <trkpt lat="45.0661" lon="5.77741">
        <ele>416.8</ele>
        <time>2021-05-29T10:07:26Z</time>
      </trkpt>
      <trkpt lat="45.06609" lon="5.77741">
        <ele>416.8</ele>
        <time>2021-05-29T10:07:27Z</time>
      </trkpt>
      <trkpt lat="45.06608" lon="5.7774">
        <ele>417.2</ele>
        <time>2021-05-29T10:07:28Z</time>
      </trkpt>
      <trkpt lat="45.06607" lon="5.7774">
        <ele>417.4</ele>
        <time>2021-05-29T10:07:29Z</time>
      </trkpt>
      <trkpt lat="45.06606" lon="5.7774">
        <ele>417.6</ele>
        <time>2021-05-29T10:07:30Z</time>
      </trkpt>
      <trkpt lat="45.06604" lon="5.7774">
        <ele>417.8</ele>
        <time>2021-05-29T10:07:31Z</time>
      </trkpt>
      <trkpt lat="45.06603" lon="5.7774">
        <ele>418</ele>
        <time>2021-05-29T10:07:32Z</time>
      </trkpt>
      <trkpt lat="45.06602" lon="5.7774">
        <ele>418</ele>
        <time>2021-05-29T10:07:33Z</time>
      </trkpt>
      <trkpt lat="45.06601" lon="5.7774">
        <ele>418.4</ele>
        <time>2021-05-29T10:07:34Z</time>
      </trkpt>
      <trkpt lat="45.06599" lon="5.77739">
        <ele>418.6</ele>
        <time>2021-05-29T10:07:35Z</time>
      </trkpt>
      <trkpt lat="45.06598" lon="5.77739">
        <ele>418.8</ele>
        <time>2021-05-29T10:07:36Z</time>
      </trkpt>
      <trkpt lat="45.06597" lon="5.77739">
        <ele>419</ele>
        <time>2021-05-29T10:07:37Z</time>
      </trkpt>
      <trkpt lat="45.06596" lon="5.77739">
        <ele>419</ele>
        <time>2021-05-29T10:07:38Z</time>
      </trkpt>
      <trkpt lat="45.06594" lon="5.77739">
        <ele>419.4</ele>
        <time>2021-05-29T10:07:39Z</time>
      </trkpt>
      <trkpt lat="45.06593" lon="5.77739">
        <ele>419.2</ele>
        <time>2021-05-29T10:07:40Z</time>
      </trkpt>
      <trkpt lat="45.06592" lon="5.77739">
        <ele>419</ele>
        <time>2021-05-29T10:07:41Z</time>
      </trkpt>
      <trkpt lat="45.0659" lon="5.77739">
        <ele>419</ele>
        <time>2021-05-29T10:07:42Z</time>
      </trkpt>
      <trkpt lat="45.06589" lon="5.7774">
        <ele>419</ele>
        <time>2021-05-29T10:07:43Z</time>
      </trkpt>
      <trkpt lat="45.06588" lon="5.7774">
        <ele>418.8</ele>
        <time>2021-05-29T10:07:44Z</time>
      </trkpt>
      <trkpt lat="45.06587" lon="5.7774">
        <ele>419</ele>
        <time>2021-05-29T10:07:45Z</time>
      </trkpt>
      <trkpt lat="45.06585" lon="5.7774">
        <ele>418.8</ele>
        <time>2021-05-29T10:07:46Z</time>
      </trkpt>
      <trkpt lat="45.06585" lon="5.77741">
        <ele>418.8</ele>
        <time>2021-05-29T10:07:47Z</time>
      </trkpt>
      <trkpt lat="45.06584" lon="5.77741">
        <ele>419</ele>
        <time>2021-05-29T10:07:48Z</time>
      </trkpt>
      <trkpt lat="45.06583" lon="5.77742">
        <ele>419.2</ele>
        <time>2021-05-29T10:07:49Z</time>
      </trkpt>
      <trkpt lat="45.06583" lon="5.77742">
        <ele>419.4</ele>
        <time>2021-05-29T10:07:50Z</time>
      </trkpt>
      <trkpt lat="45.06582" lon="5.77743">
        <ele>419.4</ele>
        <time>2021-05-29T10:07:51Z</time>
      </trkpt>
      <trkpt lat="45.06581" lon="5.77743">
        <ele>419.6</ele>
        <time>2021-05-29T10:07:52Z</time>
      </trkpt>
      <trkpt lat="45.06581" lon="5.77744">
        <ele>419.4</ele>
        <time>2021-05-29T10:07:53Z</time>
      </trkpt>
      <trkpt lat="45.0658" lon="5.77744">
        <ele>419.4</ele>
        <time>2021-05-29T10:07:54Z</time>
      </trkpt>
      <trkpt lat="45.06579" lon="5.77745">
        <ele>419.4</ele>
        <time>2021-05-29T10:07:55Z</time>
      </trkpt>
      <trkpt lat="45.06579" lon="5.77745">
        <ele>419.4</ele>
        <time>2021-05-29T10:07:56Z</time>
      </trkpt>
      <trkpt lat="45.06578" lon="5.77746">
        <ele>419.4</ele>
        <time>2021-05-29T10:07:57Z</time>
      </trkpt>
      <trkpt lat="45.06577" lon="5.77746">
        <ele>419.4</ele>
        <time>2021-05-29T10:07:58Z</time>
      </trkpt>
      <trkpt lat="45.06577" lon="5.77747">
        <ele>419.4</ele>
        <time>2021-05-29T10:07:59Z</time>
      </trkpt>
      <trkpt lat="45.06576" lon="5.77748">
        <ele>419.4</ele>
        <time>2021-05-29T10:08:00Z</time>
      </trkpt>
      <trkpt lat="45.06575" lon="5.77749">
        <ele>419.2</ele>
        <time>2021-05-29T10:08:01Z</time>
      </trkpt>
      <trkpt lat="45.06575" lon="5.7775">
        <ele>419.2</ele>
        <time>2021-05-29T10:08:02Z</time>
      </trkpt>
      <trkpt lat="45.06574" lon="5.77751">
        <ele>419.4</ele>
        <time>2021-05-29T10:08:03Z</time>
      </trkpt>
      <trkpt lat="45.06573" lon="5.77752">
        <ele>419.2</ele>
        <time>2021-05-29T10:08:04Z</time>
      </trkpt>
      <trkpt lat="45.06573" lon="5.77753">
        <ele>419.4</ele>
        <time>2021-05-29T10:08:05Z</time>
      </trkpt>
      <trkpt lat="45.06572" lon="5.77754">
        <ele>419.4</ele>
        <time>2021-05-29T10:08:06Z</time>
      </trkpt>
      <trkpt lat="45.06571" lon="5.77755">
        <ele>419.6</ele>
        <time>2021-05-29T10:08:07Z</time>
      </trkpt>
      <trkpt lat="45.06571" lon="5.77756">
        <ele>419.8</ele>
        <time>2021-05-29T10:08:08Z</time>
      </trkpt>
      <trkpt lat="45.06568" lon="5.77756">
        <ele>420</ele>
        <time>2021-05-29T10:08:09Z</time>
      </trkpt>
      <trkpt lat="45.06566" lon="5.77756">
        <ele>420</ele>
        <time>2021-05-29T10:08:10Z</time>
      </trkpt>
      <trkpt lat="45.06564" lon="5.77756">
        <ele>419.8</ele>
        <time>2021-05-29T10:08:11Z</time>
      </trkpt>
      <trkpt lat="45.06562" lon="5.77756">
        <ele>420</ele>
        <time>2021-05-29T10:08:12Z</time>
      </trkpt>
      <trkpt lat="45.0656" lon="5.77756">
        <ele>420.2</ele>
        <time>2021-05-29T10:08:13Z</time>
      </trkpt>
      <trkpt lat="45.06559" lon="5.77756">
        <ele>420.4</ele>
        <time>2021-05-29T10:08:14Z</time>
      </trkpt>
      <trkpt lat="45.06557" lon="5.77756">
        <ele>420.6</ele>
        <time>2021-05-29T10:08:15Z</time>
      </trkpt>
      <trkpt lat="45.06556" lon="5.77756">
        <ele>420.8</ele>
        <time>2021-05-29T10:08:16Z</time>
      </trkpt>
      <trkpt lat="45.06555" lon="5.77756">
        <ele>420.8</ele>
        <time>2021-05-29T10:08:17Z</time>
      </trkpt>
      <trkpt lat="45.06553" lon="5.77756">
        <ele>421.2</ele>
        <time>2021-05-29T10:08:18Z</time>
      </trkpt>
      <trkpt lat="45.06552" lon="5.77756">
        <ele>421.6</ele>
        <time>2021-05-29T10:08:19Z</time>
      </trkpt>
      <trkpt lat="45.06551" lon="5.77756">
        <ele>421.6</ele>
        <time>2021-05-29T10:08:20Z</time>
      </trkpt>
      <trkpt lat="45.0655" lon="5.77756">
        <ele>422</ele>
        <time>2021-05-29T10:08:21Z</time>
      </trkpt>
      <trkpt lat="45.06548" lon="5.77757">
        <ele>422.2</ele>
        <time>2021-05-29T10:08:22Z</time>
      </trkpt>
      <trkpt lat="45.06547" lon="5.77757">
        <ele>422.4</ele>
        <time>2021-05-29T10:08:23Z</time>
      </trkpt>
      <trkpt lat="45.06546" lon="5.77758">
        <ele>422.6</ele>
        <time>2021-05-29T10:08:24Z</time>
      </trkpt>
      <trkpt lat="45.06545" lon="5.77758">
        <ele>422.8</ele>
        <time>2021-05-29T10:08:25Z</time>
      </trkpt>
      <trkpt lat="45.06543" lon="5.77759">
        <ele>422.8</ele>
        <time>2021-05-29T10:08:26Z</time>
      </trkpt>
      <trkpt lat="45.06542" lon="5.7776">
        <ele>422.8</ele>
        <time>2021-05-29T10:08:27Z</time>
      </trkpt>
      <trkpt lat="45.06541" lon="5.7776">
        <ele>423</ele>
        <time>2021-05-29T10:08:28Z</time>
      </trkpt>
      <trkpt lat="45.0654" lon="5.77761">
        <ele>423</ele>
        <time>2021-05-29T10:08:29Z</time>
      </trkpt>
      <trkpt lat="45.06539" lon="5.77761">
        <ele>423.2</ele>
        <time>2021-05-29T10:08:30Z</time>
      </trkpt>
      <trkpt lat="45.06538" lon="5.77762">
        <ele>423.6</ele>
        <time>2021-05-29T10:08:31Z</time>
      </trkpt>
      <trkpt lat="45.06538" lon="5.77762">
        <ele>424</ele>
        <time>2021-05-29T10:08:32Z</time>
      </trkpt>
      <trkpt lat="45.06537" lon="5.77763">
        <ele>424.2</ele>
        <time>2021-05-29T10:08:33Z</time>
      </trkpt>
      <trkpt lat="45.06536" lon="5.77763">
        <ele>424.4</ele>
        <time>2021-05-29T10:08:34Z</time>
      </trkpt>
      <trkpt lat="45.06535" lon="5.77764">
        <ele>424.6</ele>
        <time>2021-05-29T10:08:35Z</time>
      </trkpt>
      <trkpt lat="45.06534" lon="5.77765">
        <ele>425</ele>
        <time>2021-05-29T10:08:36Z</time>
      </trkpt>
      <trkpt lat="45.06533" lon="5.77765">
        <ele>425.2</ele>
        <time>2021-05-29T10:08:37Z</time>
      </trkpt>
      <trkpt lat="45.06532" lon="5.77766">
        <ele>425.6</ele>
        <time>2021-05-29T10:08:38Z</time>
      </trkpt>
      <trkpt lat="45.06532" lon="5.77767">
        <ele>425.6</ele>
        <time>2021-05-29T10:08:39Z</time>
      </trkpt>
      <trkpt lat="45.06531" lon="5.77768">
        <ele>425.6</ele>
        <time>2021-05-29T10:08:40Z</time>
      </trkpt>
      <trkpt lat="45.0653" lon="5.77769">
        <ele>425.8</ele>
        <time>2021-05-29T10:08:41Z</time>
      </trkpt>
      <trkpt lat="45.0653" lon="5.7777">
        <ele>426.2</ele>
        <time>2021-05-29T10:08:42Z</time>
      </trkpt>
      <trkpt lat="45.06529" lon="5.77771">
        <ele>426.4</ele>
        <time>2021-05-29T10:08:43Z</time>
      </trkpt>
      <trkpt lat="45.06528" lon="5.77772">
        <ele>426.6</ele>
        <time>2021-05-29T10:08:44Z</time>
      </trkpt>
      <trkpt lat="45.06528" lon="5.77773">
        <ele>427</ele>
        <time>2021-05-29T10:08:45Z</time>
      </trkpt>
      <trkpt lat="45.06527" lon="5.77774">
        <ele>427.2</ele>
        <time>2021-05-29T10:08:46Z</time>
      </trkpt>
      <trkpt lat="45.06526" lon="5.77775">
        <ele>427.4</ele>
        <time>2021-05-29T10:08:47Z</time>
      </trkpt>
      <trkpt lat="45.06525" lon="5.77775">
        <ele>427.6</ele>
        <time>2021-05-29T10:08:48Z</time>
      </trkpt>
      <trkpt lat="45.06524" lon="5.77775">
        <ele>428</ele>
        <time>2021-05-29T10:08:49Z</time>
      </trkpt>
      <trkpt lat="45.06523" lon="5.77775">
        <ele>428.2</ele>
        <time>2021-05-29T10:08:50Z</time>
      </trkpt>
      <trkpt lat="45.06522" lon="5.77775">
        <ele>428.4</ele>
        <time>2021-05-29T10:08:51Z</time>
      </trkpt>
      <trkpt lat="45.06521" lon="5.77775">
        <ele>428.6</ele>
        <time>2021-05-29T10:08:52Z</time>
      </trkpt>
      <trkpt lat="45.0652" lon="5.77776">
        <ele>428.8</ele>
        <time>2021-05-29T10:08:53Z</time>
      </trkpt>
      <trkpt lat="45.06519" lon="5.77776">
        <ele>428.8</ele>
        <time>2021-05-29T10:08:54Z</time>
      </trkpt>
      <trkpt lat="45.06518" lon="5.77776">
        <ele>428.8</ele>
        <time>2021-05-29T10:08:55Z</time>
      </trkpt>
      <trkpt lat="45.06517" lon="5.77776">
        <ele>429</ele>
        <time>2021-05-29T10:08:56Z</time>
      </trkpt>
      <trkpt lat="45.06516" lon="5.77777">
        <ele>429.2</ele>
        <time>2021-05-29T10:08:57Z</time>
      </trkpt>
      <trkpt lat="45.06515" lon="5.77777">
        <ele>429.4</ele>
        <time>2021-05-29T10:08:58Z</time>
      </trkpt>
      <trkpt lat="45.06514" lon="5.77778">
        <ele>429.6</ele>
        <time>2021-05-29T10:08:59Z</time>
      </trkpt>
      <trkpt lat="45.06513" lon="5.77779">
        <ele>429.6</ele>
        <time>2021-05-29T10:09:00Z</time>
      </trkpt>
      <trkpt lat="45.06513" lon="5.77779">
        <ele>429.8</ele>
        <time>2021-05-29T10:09:01Z</time>
      </trkpt>
      <trkpt lat="45.06512" lon="5.7778">
        <ele>430</ele>
        <time>2021-05-29T10:09:02Z</time>
      </trkpt>
      <trkpt lat="45.06511" lon="5.77781">
        <ele>430.2</ele>
        <time>2021-05-29T10:09:03Z</time>
      </trkpt>
      <trkpt lat="45.0651" lon="5.77781">
        <ele>430.2</ele>
        <time>2021-05-29T10:09:04Z</time>
      </trkpt>
      <trkpt lat="45.06509" lon="5.77782">
        <ele>430.6</ele>
        <time>2021-05-29T10:09:05Z</time>
      </trkpt>
      <trkpt lat="45.06508" lon="5.77782">
        <ele>430.8</ele>
        <time>2021-05-29T10:09:06Z</time>
      </trkpt>
      <trkpt lat="45.06508" lon="5.77784">
        <ele>431.2</ele>
        <time>2021-05-29T10:09:07Z</time>
      </trkpt>
      <trkpt lat="45.06507" lon="5.77785">
        <ele>431.4</ele>
        <time>2021-05-29T10:09:08Z</time>
      </trkpt>
      <trkpt lat="45.06507" lon="5.77786">
        <ele>431.6</ele>
        <time>2021-05-29T10:09:09Z</time>
      </trkpt>
      <trkpt lat="45.06506" lon="5.77787">
        <ele>432</ele>
        <time>2021-05-29T10:09:10Z</time>
      </trkpt>
      <trkpt lat="45.06506" lon="5.77788">
        <ele>432</ele>
        <time>2021-05-29T10:09:11Z</time>
      </trkpt>
      <trkpt lat="45.06505" lon="5.77789">
        <ele>432.4</ele>
        <time>2021-05-29T10:09:12Z</time>
      </trkpt>
      <trkpt lat="45.06504" lon="5.7779">
        <ele>432.6</ele>
        <time>2021-05-29T10:09:13Z</time>
      </trkpt>
      <trkpt lat="45.06504" lon="5.77791">
        <ele>432.8</ele>
        <time>2021-05-29T10:09:14Z</time>
      </trkpt>
      <trkpt lat="45.06503" lon="5.77793">
        <ele>433</ele>
        <time>2021-05-29T10:09:15Z</time>
      </trkpt>
      <trkpt lat="45.06503" lon="5.77794">
        <ele>433</ele>
        <time>2021-05-29T10:09:16Z</time>
      </trkpt>
      <trkpt lat="45.06503" lon="5.77795">
        <ele>433.4</ele>
        <time>2021-05-29T10:09:17Z</time>
      </trkpt>
      <trkpt lat="45.06502" lon="5.77795">
        <ele>433.6</ele>
        <time>2021-05-29T10:09:18Z</time>
      </trkpt>
      <trkpt lat="45.06502" lon="5.77796">
        <ele>434</ele>
        <time>2021-05-29T10:09:19Z</time>
      </trkpt>
      <trkpt lat="45.06502" lon="5.77797">
        <ele>434.2</ele>
        <time>2021-05-29T10:09:20Z</time>
      </trkpt>
      <trkpt lat="45.06502" lon="5.77798">
        <ele>434.4</ele>
        <time>2021-05-29T10:09:21Z</time>
      </trkpt>
      <trkpt lat="45.06501" lon="5.77798">
        <ele>434.6</ele>
        <time>2021-05-29T10:09:22Z</time>
      </trkpt>
      <trkpt lat="45.06501" lon="5.77799">
        <ele>434.8</ele>
        <time>2021-05-29T10:09:23Z</time>
      </trkpt>
      <trkpt lat="45.06501" lon="5.778">
        <ele>435</ele>
        <time>2021-05-29T10:09:24Z</time>
      </trkpt>
      <trkpt lat="45.06501" lon="5.77801">
        <ele>435.2</ele>
        <time>2021-05-29T10:09:25Z</time>
      </trkpt>
      <trkpt lat="45.065" lon="5.77802">
        <ele>435.6</ele>
        <time>2021-05-29T10:09:26Z</time>
      </trkpt>
      <trkpt lat="45.065" lon="5.77802">
        <ele>435.8</ele>
        <time>2021-05-29T10:09:27Z</time>
      </trkpt>
      <trkpt lat="45.065" lon="5.77803">
        <ele>436.2</ele>
        <time>2021-05-29T10:09:28Z</time>
      </trkpt>
      <trkpt lat="45.065" lon="5.77804">
        <ele>436.6</ele>
        <time>2021-05-29T10:09:29Z</time>
      </trkpt>
      <trkpt lat="45.06499" lon="5.77805">
        <ele>437</ele>
        <time>2021-05-29T10:09:30Z</time>
      </trkpt>
      <trkpt lat="45.06499" lon="5.77805">
        <ele>437.2</ele>
        <time>2021-05-29T10:09:31Z</time>
      </trkpt>
      <trkpt lat="45.06499" lon="5.77806">
        <ele>437.2</ele>
        <time>2021-05-29T10:09:32Z</time>
      </trkpt>
      <trkpt lat="45.06498" lon="5.77807">
        <ele>437.4</ele>
        <time>2021-05-29T10:09:33Z</time>
      </trkpt>
      <trkpt lat="45.06498" lon="5.77808">
        <ele>437.6</ele>
        <time>2021-05-29T10:09:34Z</time>
      </trkpt>
      <trkpt lat="45.06497" lon="5.7781">
        <ele>438</ele>
        <time>2021-05-29T10:09:35Z</time>
      </trkpt>
      <trkpt lat="45.06496" lon="5.77811">
        <ele>438.2</ele>
        <time>2021-05-29T10:09:36Z</time>
      </trkpt>
      <trkpt lat="45.06496" lon="5.77812">
        <ele>438.4</ele>
        <time>2021-05-29T10:09:37Z</time>
      </trkpt>
      <trkpt lat="45.06495" lon="5.77813">
        <ele>438.6</ele>
        <time>2021-05-29T10:09:38Z</time>
      </trkpt>
      <trkpt lat="45.06495" lon="5.77814">
        <ele>439</ele>
        <time>2021-05-29T10:09:39Z</time>
      </trkpt>
      <trkpt lat="45.06494" lon="5.77815">
        <ele>439.2</ele>
        <time>2021-05-29T10:09:40Z</time>
      </trkpt>
      <trkpt lat="45.06493" lon="5.77816">
        <ele>439.2</ele>
        <time>2021-05-29T10:09:41Z</time>
      </trkpt>
      <trkpt lat="45.06492" lon="5.77817">
        <ele>439.4</ele>
        <time>2021-05-29T10:09:42Z</time>
      </trkpt>
      <trkpt lat="45.06491" lon="5.77818">
        <ele>439.6</ele>
        <time>2021-05-29T10:09:43Z</time>
      </trkpt>
      <trkpt lat="45.0649" lon="5.77819">
        <ele>440</ele>
        <time>2021-05-29T10:09:44Z</time>
      </trkpt>
      <trkpt lat="45.06489" lon="5.77819">
        <ele>440.2</ele>
        <time>2021-05-29T10:09:45Z</time>
      </trkpt>
      <trkpt lat="45.06489" lon="5.7782">
        <ele>440.4</ele>
        <time>2021-05-29T10:09:46Z</time>
      </trkpt>
      <trkpt lat="45.06488" lon="5.77821">
        <ele>440.6</ele>
        <time>2021-05-29T10:09:47Z</time>
      </trkpt>
      <trkpt lat="45.06487" lon="5.77821">
        <ele>441</ele>
        <time>2021-05-29T10:09:48Z</time>
      </trkpt>
      <trkpt lat="45.06486" lon="5.77822">
        <ele>441.2</ele>
        <time>2021-05-29T10:09:49Z</time>
      </trkpt>
      <trkpt lat="45.06485" lon="5.77823">
        <ele>441.4</ele>
        <time>2021-05-29T10:09:50Z</time>
      </trkpt>
      <trkpt lat="45.06483" lon="5.77823">
        <ele>441.6</ele>
        <time>2021-05-29T10:09:51Z</time>
      </trkpt>
      <trkpt lat="45.06482" lon="5.77824">
        <ele>442</ele>
        <time>2021-05-29T10:09:52Z</time>
      </trkpt>
      <trkpt lat="45.0648" lon="5.77824">
        <ele>442.2</ele>
        <time>2021-05-29T10:09:53Z</time>
      </trkpt>
      <trkpt lat="45.06479" lon="5.77824">
        <ele>442.4</ele>
        <time>2021-05-29T10:09:54Z</time>
      </trkpt>
      <trkpt lat="45.06478" lon="5.77825">
        <ele>442.4</ele>
        <time>2021-05-29T10:09:55Z</time>
      </trkpt>
      <trkpt lat="45.06476" lon="5.77825">
        <ele>442.6</ele>
        <time>2021-05-29T10:09:56Z</time>
      </trkpt>
      <trkpt lat="45.06475" lon="5.77825">
        <ele>443</ele>
        <time>2021-05-29T10:09:57Z</time>
      </trkpt>
      <trkpt lat="45.06474" lon="5.77827">
        <ele>443.2</ele>
        <time>2021-05-29T10:09:58Z</time>
      </trkpt>
      <trkpt lat="45.06474" lon="5.77828">
        <ele>443.6</ele>
        <time>2021-05-29T10:10:00Z</time>
      </trkpt>
      <trkpt lat="45.06473" lon="5.7783">
        <ele>443.8</ele>
        <time>2021-05-29T10:10:01Z</time>
      </trkpt>
      <trkpt lat="45.06472" lon="5.77831">
        <ele>444.2</ele>
        <time>2021-05-29T10:10:02Z</time>
      </trkpt>
      <trkpt lat="45.06471" lon="5.77832">
        <ele>444.2</ele>
        <time>2021-05-29T10:10:03Z</time>
      </trkpt>
      <trkpt lat="45.06471" lon="5.77834">
        <ele>444.6</ele>
        <time>2021-05-29T10:10:04Z</time>
      </trkpt>
      <trkpt lat="45.0647" lon="5.77835">
        <ele>444.8</ele>
        <time>2021-05-29T10:10:05Z</time>
      </trkpt>
      <trkpt lat="45.06469" lon="5.77837">
        <ele>445</ele>
        <time>2021-05-29T10:10:06Z</time>
      </trkpt>
      <trkpt lat="45.06469" lon="5.77838">
        <ele>445.2</ele>
        <time>2021-05-29T10:10:07Z</time>
      </trkpt>
      <trkpt lat="45.06469" lon="5.7784">
        <ele>445.2</ele>
        <time>2021-05-29T10:10:08Z</time>
      </trkpt>
      <trkpt lat="45.06469" lon="5.77841">
        <ele>445.2</ele>
        <time>2021-05-29T10:10:09Z</time>
      </trkpt>
      <trkpt lat="45.06469" lon="5.77843">
        <ele>445.2</ele>
        <time>2021-05-29T10:10:10Z</time>
      </trkpt>
      <trkpt lat="45.06469" lon="5.77845">
        <ele>445.4</ele>
        <time>2021-05-29T10:10:11Z</time>
      </trkpt>
      <trkpt lat="45.06469" lon="5.77846">
        <ele>445.6</ele>
        <time>2021-05-29T10:10:12Z</time>
      </trkpt>
      <trkpt lat="45.06469" lon="5.77848">
        <ele>445.6</ele>
        <time>2021-05-29T10:10:13Z</time>
      </trkpt>
      <trkpt lat="45.06469" lon="5.77849">
        <ele>445.8</ele>
        <time>2021-05-29T10:10:14Z</time>
      </trkpt>
      <trkpt lat="45.06469" lon="5.77851">
        <ele>446</ele>
        <time>2021-05-29T10:10:15Z</time>
      </trkpt>
      <trkpt lat="45.06469" lon="5.77852">
        <ele>446</ele>
        <time>2021-05-29T10:10:16Z</time>
      </trkpt>
      <trkpt lat="45.06469" lon="5.77854">
        <ele>446</ele>
        <time>2021-05-29T10:10:17Z</time>
      </trkpt>
      <trkpt lat="45.06469" lon="5.77855">
        <ele>446.4</ele>
        <time>2021-05-29T10:10:18Z</time>
      </trkpt>
      <trkpt lat="45.06469" lon="5.77856">
        <ele>446.6</ele>
        <time>2021-05-29T10:10:19Z</time>
      </trkpt>
      <trkpt lat="45.06468" lon="5.77858">
        <ele>447</ele>
        <time>2021-05-29T10:10:20Z</time>
      </trkpt>
      <trkpt lat="45.06468" lon="5.77859">
        <ele>447.4</ele>
        <time>2021-05-29T10:10:21Z</time>
      </trkpt>
      <trkpt lat="45.06468" lon="5.7786">
        <ele>447.6</ele>
        <time>2021-05-29T10:10:22Z</time>
      </trkpt>
      <trkpt lat="45.06468" lon="5.77862">
        <ele>447.8</ele>
        <time>2021-05-29T10:10:23Z</time>
      </trkpt>
      <trkpt lat="45.06468" lon="5.77863">
        <ele>447.6</ele>
        <time>2021-05-29T10:10:24Z</time>
      </trkpt>
      <trkpt lat="45.06468" lon="5.77865">
        <ele>447.8</ele>
        <time>2021-05-29T10:10:25Z</time>
      </trkpt>
      <trkpt lat="45.06468" lon="5.77866">
        <ele>448</ele>
        <time>2021-05-29T10:10:26Z</time>
      </trkpt>
      <trkpt lat="45.06467" lon="5.77867">
        <ele>448.2</ele>
        <time>2021-05-29T10:10:27Z</time>
      </trkpt>
      <trkpt lat="45.06467" lon="5.77869">
        <ele>448.4</ele>
        <time>2021-05-29T10:10:28Z</time>
      </trkpt>
      <trkpt lat="45.06467" lon="5.7787">
        <ele>448.6</ele>
        <time>2021-05-29T10:10:29Z</time>
      </trkpt>
      <trkpt lat="45.06467" lon="5.77872">
        <ele>448.8</ele>
        <time>2021-05-29T10:10:30Z</time>
      </trkpt>
      <trkpt lat="45.06466" lon="5.77873">
        <ele>449</ele>
        <time>2021-05-29T10:10:31Z</time>
      </trkpt>
      <trkpt lat="45.06466" lon="5.77875">
        <ele>449.2</ele>
        <time>2021-05-29T10:10:32Z</time>
      </trkpt>
      <trkpt lat="45.06466" lon="5.77876">
        <ele>449.6</ele>
        <time>2021-05-29T10:10:33Z</time>
      </trkpt>
      <trkpt lat="45.06466" lon="5.77878">
        <ele>450</ele>
        <time>2021-05-29T10:10:34Z</time>
      </trkpt>
      <trkpt lat="45.06466" lon="5.77879">
        <ele>450.2</ele>
        <time>2021-05-29T10:10:35Z</time>
      </trkpt>
      <trkpt lat="45.06466" lon="5.77881">
        <ele>450.6</ele>
        <time>2021-05-29T10:10:36Z</time>
      </trkpt>
      <trkpt lat="45.06466" lon="5.77882">
        <ele>451</ele>
        <time>2021-05-29T10:10:37Z</time>
      </trkpt>
      <trkpt lat="45.06467" lon="5.77883">
        <ele>451.2</ele>
        <time>2021-05-29T10:10:38Z</time>
      </trkpt>
      <trkpt lat="45.06467" lon="5.77885">
        <ele>451.2</ele>
        <time>2021-05-29T10:10:39Z</time>
      </trkpt>
      <trkpt lat="45.06467" lon="5.77886">
        <ele>451.4</ele>
        <time>2021-05-29T10:10:40Z</time>
      </trkpt>
      <trkpt lat="45.06467" lon="5.77888">
        <ele>451.4</ele>
        <time>2021-05-29T10:10:41Z</time>
      </trkpt>
      <trkpt lat="45.06467" lon="5.77889">
        <ele>451.8</ele>
        <time>2021-05-29T10:10:42Z</time>
      </trkpt>
      <trkpt lat="45.06467" lon="5.77891">
        <ele>452</ele>
        <time>2021-05-29T10:10:43Z</time>
      </trkpt>
      <trkpt lat="45.06467" lon="5.77892">
        <ele>452.4</ele>
        <time>2021-05-29T10:10:44Z</time>
      </trkpt>
      <trkpt lat="45.06467" lon="5.77893">
        <ele>452.6</ele>
        <time>2021-05-29T10:10:45Z</time>
      </trkpt>
      <trkpt lat="45.06466" lon="5.77894">
        <ele>452.8</ele>
        <time>2021-05-29T10:10:46Z</time>
      </trkpt>
      <trkpt lat="45.06466" lon="5.77895">
        <ele>453</ele>
        <time>2021-05-29T10:10:47Z</time>
      </trkpt>
      <trkpt lat="45.06466" lon="5.77896">
        <ele>453.2</ele>
        <time>2021-05-29T10:10:48Z</time>
      </trkpt>
      <trkpt lat="45.06466" lon="5.77897">
        <ele>453.6</ele>
        <time>2021-05-29T10:10:49Z</time>
      </trkpt>
      <trkpt lat="45.06466" lon="5.77898">
        <ele>453.8</ele>
        <time>2021-05-29T10:10:50Z</time>
      </trkpt>
      <trkpt lat="45.06465" lon="5.77899">
        <ele>454.2</ele>
        <time>2021-05-29T10:10:51Z</time>
      </trkpt>
      <trkpt lat="45.06465" lon="5.779">
        <ele>454.2</ele>
        <time>2021-05-29T10:10:52Z</time>
      </trkpt>
      <trkpt lat="45.06465" lon="5.77901">
        <ele>454.4</ele>
        <time>2021-05-29T10:10:53Z</time>
      </trkpt>
      <trkpt lat="45.06465" lon="5.77902">
        <ele>454.8</ele>
        <time>2021-05-29T10:10:54Z</time>
      </trkpt>
      <trkpt lat="45.06465" lon="5.77904">
        <ele>455</ele>
        <time>2021-05-29T10:10:55Z</time>
      </trkpt>
      <trkpt lat="45.06464" lon="5.77905">
        <ele>455.4</ele>
        <time>2021-05-29T10:10:56Z</time>
      </trkpt>
      <trkpt lat="45.06463" lon="5.77905">
        <ele>455.6</ele>
        <time>2021-05-29T10:10:57Z</time>
      </trkpt>
      <trkpt lat="45.06462" lon="5.77905">
        <ele>455.6</ele>
        <time>2021-05-29T10:10:58Z</time>
      </trkpt>
      <trkpt lat="45.0646" lon="5.77905">
        <ele>455.8</ele>
        <time>2021-05-29T10:10:59Z</time>
      </trkpt>
      <trkpt lat="45.06459" lon="5.77905">
        <ele>456.2</ele>
        <time>2021-05-29T10:11:00Z</time>
      </trkpt>
      <trkpt lat="45.06457" lon="5.77905">
        <ele>456.4</ele>
        <time>2021-05-29T10:11:01Z</time>
      </trkpt>
      <trkpt lat="45.06456" lon="5.77905">
        <ele>456.6</ele>
        <time>2021-05-29T10:11:02Z</time>
      </trkpt>
      <trkpt lat="45.06455" lon="5.77905">
        <ele>457</ele>
        <time>2021-05-29T10:11:03Z</time>
      </trkpt>
      <trkpt lat="45.06454" lon="5.77906">
        <ele>457.2</ele>
        <time>2021-05-29T10:11:04Z</time>
      </trkpt>
      <trkpt lat="45.06454" lon="5.77907">
        <ele>457.6</ele>
        <time>2021-05-29T10:11:05Z</time>
      </trkpt>
      <trkpt lat="45.06453" lon="5.77908">
        <ele>457.8</ele>
        <time>2021-05-29T10:11:06Z</time>
      </trkpt>
      <trkpt lat="45.06453" lon="5.77908">
        <ele>458</ele>
        <time>2021-05-29T10:11:07Z</time>
      </trkpt>
      <trkpt lat="45.06453" lon="5.77909">
        <ele>458.2</ele>
        <time>2021-05-29T10:11:08Z</time>
      </trkpt>
      <trkpt lat="45.06452" lon="5.7791">
        <ele>458.6</ele>
        <time>2021-05-29T10:11:09Z</time>
      </trkpt>
      <trkpt lat="45.06452" lon="5.77911">
        <ele>458.6</ele>
        <time>2021-05-29T10:11:10Z</time>
      </trkpt>
      <trkpt lat="45.06452" lon="5.77912">
        <ele>459</ele>
        <time>2021-05-29T10:11:11Z</time>
      </trkpt>
      <trkpt lat="45.06451" lon="5.77913">
        <ele>459.2</ele>
        <time>2021-05-29T10:11:12Z</time>
      </trkpt>
      <trkpt lat="45.06451" lon="5.77914">
        <ele>459.4</ele>
        <time>2021-05-29T10:11:13Z</time>
      </trkpt>
      <trkpt lat="45.0645" lon="5.77914">
        <ele>459.6</ele>
        <time>2021-05-29T10:11:14Z</time>
      </trkpt>
      <trkpt lat="45.0645" lon="5.77915">
        <ele>459.6</ele>
        <time>2021-05-29T10:11:15Z</time>
      </trkpt>
      <trkpt lat="45.0645" lon="5.77916">
        <ele>459.8</ele>
        <time>2021-05-29T10:11:16Z</time>
      </trkpt>
      <trkpt lat="45.06449" lon="5.77917">
        <ele>460.2</ele>
        <time>2021-05-29T10:11:17Z</time>
      </trkpt>
      <trkpt lat="45.06449" lon="5.77918">
        <ele>460.2</ele>
        <time>2021-05-29T10:11:18Z</time>
      </trkpt>
      <trkpt lat="45.06449" lon="5.77919">
        <ele>460.4</ele>
        <time>2021-05-29T10:11:19Z</time>
      </trkpt>
      <trkpt lat="45.06448" lon="5.7792">
        <ele>460.6</ele>
        <time>2021-05-29T10:11:20Z</time>
      </trkpt>
      <trkpt lat="45.06448" lon="5.77921">
        <ele>460.8</ele>
        <time>2021-05-29T10:11:21Z</time>
      </trkpt>
      <trkpt lat="45.06448" lon="5.77922">
        <ele>461</ele>
        <time>2021-05-29T10:11:22Z</time>
      </trkpt>
      <trkpt lat="45.06448" lon="5.77924">
        <ele>461.2</ele>
        <time>2021-05-29T10:11:23Z</time>
      </trkpt>
      <trkpt lat="45.06447" lon="5.77925">
        <ele>461.4</ele>
        <time>2021-05-29T10:11:24Z</time>
      </trkpt>
      <trkpt lat="45.06447" lon="5.77926">
        <ele>461.6</ele>
        <time>2021-05-29T10:11:25Z</time>
      </trkpt>
      <trkpt lat="45.06447" lon="5.77927">
        <ele>461.8</ele>
        <time>2021-05-29T10:11:26Z</time>
      </trkpt>
      <trkpt lat="45.06446" lon="5.77928">
        <ele>462.2</ele>
        <time>2021-05-29T10:11:27Z</time>
      </trkpt>
      <trkpt lat="45.06445" lon="5.77928">
        <ele>462.4</ele>
        <time>2021-05-29T10:11:28Z</time>
      </trkpt>
      <trkpt lat="45.06444" lon="5.77929">
        <ele>462.6</ele>
        <time>2021-05-29T10:11:29Z</time>
      </trkpt>
      <trkpt lat="45.06443" lon="5.77929">
        <ele>462.6</ele>
        <time>2021-05-29T10:11:30Z</time>
      </trkpt>
      <trkpt lat="45.06442" lon="5.7793">
        <ele>462.8</ele>
        <time>2021-05-29T10:11:31Z</time>
      </trkpt>
      <trkpt lat="45.06441" lon="5.7793">
        <ele>463.2</ele>
        <time>2021-05-29T10:11:32Z</time>
      </trkpt>
      <trkpt lat="45.0644" lon="5.77931">
        <ele>463.4</ele>
        <time>2021-05-29T10:11:33Z</time>
      </trkpt>
      <trkpt lat="45.06438" lon="5.77931">
        <ele>463.4</ele>
        <time>2021-05-29T10:11:34Z</time>
      </trkpt>
      <trkpt lat="45.06437" lon="5.77931">
        <ele>463.6</ele>
        <time>2021-05-29T10:11:35Z</time>
      </trkpt>
      <trkpt lat="45.06437" lon="5.77933">
        <ele>464</ele>
        <time>2021-05-29T10:11:36Z</time>
      </trkpt>
      <trkpt lat="45.06436" lon="5.77934">
        <ele>464.2</ele>
        <time>2021-05-29T10:11:37Z</time>
      </trkpt>
      <trkpt lat="45.06436" lon="5.77936">
        <ele>464.6</ele>
        <time>2021-05-29T10:11:38Z</time>
      </trkpt>
      <trkpt lat="45.06435" lon="5.77937">
        <ele>465</ele>
        <time>2021-05-29T10:11:39Z</time>
      </trkpt>
      <trkpt lat="45.06435" lon="5.77939">
        <ele>465</ele>
        <time>2021-05-29T10:11:40Z</time>
      </trkpt>
      <trkpt lat="45.06434" lon="5.7794">
        <ele>465.4</ele>
        <time>2021-05-29T10:11:41Z</time>
      </trkpt>
      <trkpt lat="45.06434" lon="5.77941">
        <ele>465.8</ele>
        <time>2021-05-29T10:11:42Z</time>
      </trkpt>
      <trkpt lat="45.06433" lon="5.77943">
        <ele>466.2</ele>
        <time>2021-05-29T10:11:43Z</time>
      </trkpt>
      <trkpt lat="45.06433" lon="5.77944">
        <ele>466.4</ele>
        <time>2021-05-29T10:11:44Z</time>
      </trkpt>
      <trkpt lat="45.06432" lon="5.77945">
        <ele>466.6</ele>
        <time>2021-05-29T10:11:45Z</time>
      </trkpt>
      <trkpt lat="45.06432" lon="5.77946">
        <ele>467</ele>
        <time>2021-05-29T10:11:46Z</time>
      </trkpt>
      <trkpt lat="45.06432" lon="5.77947">
        <ele>467.4</ele>
        <time>2021-05-29T10:11:47Z</time>
      </trkpt>
      <trkpt lat="45.06431" lon="5.77948">
        <ele>467.8</ele>
        <time>2021-05-29T10:11:48Z</time>
      </trkpt>
      <trkpt lat="45.06431" lon="5.77949">
        <ele>468.2</ele>
        <time>2021-05-29T10:11:49Z</time>
      </trkpt>
      <trkpt lat="45.06431" lon="5.77951">
        <ele>468.4</ele>
        <time>2021-05-29T10:11:50Z</time>
      </trkpt>
      <trkpt lat="45.0643" lon="5.77952">
        <ele>468.4</ele>
        <time>2021-05-29T10:11:51Z</time>
      </trkpt>
      <trkpt lat="45.0643" lon="5.77953">
        <ele>468.8</ele>
        <time>2021-05-29T10:11:52Z</time>
      </trkpt>
      <trkpt lat="45.0643" lon="5.77954">
        <ele>468.8</ele>
        <time>2021-05-29T10:11:53Z</time>
      </trkpt>
      <trkpt lat="45.06429" lon="5.77955">
        <ele>469</ele>
        <time>2021-05-29T10:11:54Z</time>
      </trkpt>
      <trkpt lat="45.06429" lon="5.77956">
        <ele>469.4</ele>
        <time>2021-05-29T10:11:55Z</time>
      </trkpt>
      <trkpt lat="45.06428" lon="5.77957">
        <ele>469.4</ele>
        <time>2021-05-29T10:11:56Z</time>
      </trkpt>
      <trkpt lat="45.06428" lon="5.77958">
        <ele>469.6</ele>
        <time>2021-05-29T10:11:57Z</time>
      </trkpt>
      <trkpt lat="45.06427" lon="5.77959">
        <ele>469.4</ele>
        <time>2021-05-29T10:11:58Z</time>
      </trkpt>
      <trkpt lat="45.06427" lon="5.7796">
        <ele>469.4</ele>
        <time>2021-05-29T10:11:59Z</time>
      </trkpt>
      <trkpt lat="45.06427" lon="5.77961">
        <ele>469.6</ele>
        <time>2021-05-29T10:12:00Z</time>
      </trkpt>
      <trkpt lat="45.06426" lon="5.77962">
        <ele>470</ele>
        <time>2021-05-29T10:12:01Z</time>
      </trkpt>
      <trkpt lat="45.06426" lon="5.77963">
        <ele>470</ele>
        <time>2021-05-29T10:12:02Z</time>
      </trkpt>
      <trkpt lat="45.06425" lon="5.77964">
        <ele>470</ele>
        <time>2021-05-29T10:12:03Z</time>
      </trkpt>
      <trkpt lat="45.06425" lon="5.77965">
        <ele>469.8</ele>
        <time>2021-05-29T10:12:04Z</time>
      </trkpt>
      <trkpt lat="45.06424" lon="5.77966">
        <ele>469.8</ele>
        <time>2021-05-29T10:12:05Z</time>
      </trkpt>
      <trkpt lat="45.06424" lon="5.77967">
        <ele>470</ele>
        <time>2021-05-29T10:12:06Z</time>
      </trkpt>
      <trkpt lat="45.06423" lon="5.77968">
        <ele>470.2</ele>
        <time>2021-05-29T10:12:07Z</time>
      </trkpt>
      <trkpt lat="45.06422" lon="5.77969">
        <ele>470.4</ele>
        <time>2021-05-29T10:12:08Z</time>
      </trkpt>
      <trkpt lat="45.06421" lon="5.77969">
        <ele>470.4</ele>
        <time>2021-05-29T10:12:09Z</time>
      </trkpt>
      <trkpt lat="45.0642" lon="5.7797">
        <ele>470.6</ele>
        <time>2021-05-29T10:12:10Z</time>
      </trkpt>
      <trkpt lat="45.06418" lon="5.7797">
        <ele>470.6</ele>
        <time>2021-05-29T10:12:11Z</time>
      </trkpt>
      <trkpt lat="45.06417" lon="5.77971">
        <ele>470.8</ele>
        <time>2021-05-29T10:12:12Z</time>
      </trkpt>
      <trkpt lat="45.06416" lon="5.77971">
        <ele>470.8</ele>
        <time>2021-05-29T10:12:13Z</time>
      </trkpt>
      <trkpt lat="45.06415" lon="5.77972">
        <ele>471</ele>
        <time>2021-05-29T10:12:14Z</time>
      </trkpt>
      <trkpt lat="45.06414" lon="5.77973">
        <ele>471.2</ele>
        <time>2021-05-29T10:12:15Z</time>
      </trkpt>
      <trkpt lat="45.06413" lon="5.77974">
        <ele>471.4</ele>
        <time>2021-05-29T10:12:16Z</time>
      </trkpt>
      <trkpt lat="45.06412" lon="5.77974">
        <ele>471.8</ele>
        <time>2021-05-29T10:12:17Z</time>
      </trkpt>
      <trkpt lat="45.06411" lon="5.77975">
        <ele>471.8</ele>
        <time>2021-05-29T10:12:18Z</time>
      </trkpt>
      <trkpt lat="45.0641" lon="5.77976">
        <ele>472</ele>
        <time>2021-05-29T10:12:19Z</time>
      </trkpt>
      <trkpt lat="45.06408" lon="5.77976">
        <ele>472</ele>
        <time>2021-05-29T10:12:20Z</time>
      </trkpt>
      <trkpt lat="45.06407" lon="5.77977">
        <ele>472</ele>
        <time>2021-05-29T10:12:21Z</time>
      </trkpt>
      <trkpt lat="45.06406" lon="5.77978">
        <ele>472.2</ele>
        <time>2021-05-29T10:12:22Z</time>
      </trkpt>
      <trkpt lat="45.06406" lon="5.77979">
        <ele>472.4</ele>
        <time>2021-05-29T10:12:23Z</time>
      </trkpt>
      <trkpt lat="45.06405" lon="5.7798">
        <ele>472.6</ele>
        <time>2021-05-29T10:12:24Z</time>
      </trkpt>
      <trkpt lat="45.06404" lon="5.77981">
        <ele>472.6</ele>
        <time>2021-05-29T10:12:25Z</time>
      </trkpt>
      <trkpt lat="45.06404" lon="5.77982">
        <ele>472.8</ele>
        <time>2021-05-29T10:12:26Z</time>
      </trkpt>
      <trkpt lat="45.06403" lon="5.77983">
        <ele>473</ele>
        <time>2021-05-29T10:12:27Z</time>
      </trkpt>
      <trkpt lat="45.06403" lon="5.77984">
        <ele>473</ele>
        <time>2021-05-29T10:12:28Z</time>
      </trkpt>
      <trkpt lat="45.06402" lon="5.77985">
        <ele>473.2</ele>
        <time>2021-05-29T10:12:29Z</time>
      </trkpt>
      <trkpt lat="45.06402" lon="5.77986">
        <ele>473.4</ele>
        <time>2021-05-29T10:12:30Z</time>
      </trkpt>
      <trkpt lat="45.06401" lon="5.77987">
        <ele>473.8</ele>
        <time>2021-05-29T10:12:31Z</time>
      </trkpt>
      <trkpt lat="45.064" lon="5.77988">
        <ele>473.8</ele>
        <time>2021-05-29T10:12:32Z</time>
      </trkpt>
      <trkpt lat="45.06399" lon="5.77988">
        <ele>474</ele>
        <time>2021-05-29T10:12:33Z</time>
      </trkpt>
      <trkpt lat="45.06398" lon="5.77989">
        <ele>474.2</ele>
        <time>2021-05-29T10:12:34Z</time>
      </trkpt>
      <trkpt lat="45.06397" lon="5.77989">
        <ele>474.2</ele>
        <time>2021-05-29T10:12:35Z</time>
      </trkpt>
      <trkpt lat="45.06396" lon="5.7799">
        <ele>474.2</ele>
        <time>2021-05-29T10:12:36Z</time>
      </trkpt>
      <trkpt lat="45.06395" lon="5.7799">
        <ele>474.6</ele>
        <time>2021-05-29T10:12:37Z</time>
      </trkpt>
      <trkpt lat="45.06394" lon="5.77991">
        <ele>474.8</ele>
        <time>2021-05-29T10:12:38Z</time>
      </trkpt>
      <trkpt lat="45.06393" lon="5.77991">
        <ele>474.8</ele>
        <time>2021-05-29T10:12:39Z</time>
      </trkpt>
      <trkpt lat="45.06392" lon="5.77992">
        <ele>475</ele>
        <time>2021-05-29T10:12:40Z</time>
      </trkpt>
      <trkpt lat="45.06391" lon="5.77992">
        <ele>475</ele>
        <time>2021-05-29T10:12:41Z</time>
      </trkpt>
      <trkpt lat="45.0639" lon="5.77992">
        <ele>475</ele>
        <time>2021-05-29T10:12:42Z</time>
      </trkpt>
      <trkpt lat="45.06389" lon="5.77992">
        <ele>475.2</ele>
        <time>2021-05-29T10:12:43Z</time>
      </trkpt>
      <trkpt lat="45.06387" lon="5.77992">
        <ele>475.2</ele>
        <time>2021-05-29T10:12:44Z</time>
      </trkpt>
      <trkpt lat="45.06386" lon="5.77992">
        <ele>475.4</ele>
        <time>2021-05-29T10:12:45Z</time>
      </trkpt>
      <trkpt lat="45.06385" lon="5.77991">
        <ele>475.6</ele>
        <time>2021-05-29T10:12:46Z</time>
      </trkpt>
      <trkpt lat="45.06384" lon="5.77991">
        <ele>475.8</ele>
        <time>2021-05-29T10:12:47Z</time>
      </trkpt>
      <trkpt lat="45.06383" lon="5.77991">
        <ele>475.8</ele>
        <time>2021-05-29T10:12:48Z</time>
      </trkpt>
      <trkpt lat="45.06382" lon="5.77991">
        <ele>476</ele>
        <time>2021-05-29T10:12:49Z</time>
      </trkpt>
      <trkpt lat="45.06381" lon="5.77991">
        <ele>476</ele>
        <time>2021-05-29T10:12:50Z</time>
      </trkpt>
      <trkpt lat="45.0638" lon="5.77992">
        <ele>476</ele>
        <time>2021-05-29T10:12:51Z</time>
      </trkpt>
      <trkpt lat="45.0638" lon="5.77993">
        <ele>476.4</ele>
        <time>2021-05-29T10:12:52Z</time>
      </trkpt>
      <trkpt lat="45.06379" lon="5.77993">
        <ele>476.6</ele>
        <time>2021-05-29T10:12:53Z</time>
      </trkpt>
      <trkpt lat="45.06378" lon="5.77994">
        <ele>476.8</ele>
        <time>2021-05-29T10:12:54Z</time>
      </trkpt>
      <trkpt lat="45.06378" lon="5.77995">
        <ele>476.8</ele>
        <time>2021-05-29T10:12:55Z</time>
      </trkpt>
      <trkpt lat="45.06377" lon="5.77995">
        <ele>477</ele>
        <time>2021-05-29T10:12:56Z</time>
      </trkpt>
      <trkpt lat="45.06376" lon="5.77996">
        <ele>476.8</ele>
        <time>2021-05-29T10:12:57Z</time>
      </trkpt>
      <trkpt lat="45.06376" lon="5.77997">
        <ele>476.8</ele>
        <time>2021-05-29T10:12:58Z</time>
      </trkpt>
      <trkpt lat="45.06375" lon="5.77997">
        <ele>477</ele>
        <time>2021-05-29T10:12:59Z</time>
      </trkpt>
      <trkpt lat="45.06375" lon="5.77998">
        <ele>477.2</ele>
        <time>2021-05-29T10:13:00Z</time>
      </trkpt>
      <trkpt lat="45.06374" lon="5.77999">
        <ele>477.4</ele>
        <time>2021-05-29T10:13:01Z</time>
      </trkpt>
      <trkpt lat="45.06373" lon="5.78">
        <ele>477.6</ele>
        <time>2021-05-29T10:13:02Z</time>
      </trkpt>
      <trkpt lat="45.06372" lon="5.78001">
        <ele>477.6</ele>
        <time>2021-05-29T10:13:03Z</time>
      </trkpt>
      <trkpt lat="45.06371" lon="5.78002">
        <ele>477.8</ele>
        <time>2021-05-29T10:13:04Z</time>
      </trkpt>
      <trkpt lat="45.0637" lon="5.78003">
        <ele>477.8</ele>
        <time>2021-05-29T10:13:05Z</time>
      </trkpt>
      <trkpt lat="45.06369" lon="5.78004">
        <ele>478.2</ele>
        <time>2021-05-29T10:13:06Z</time>
      </trkpt>
      <trkpt lat="45.06368" lon="5.78005">
        <ele>478.2</ele>
        <time>2021-05-29T10:13:07Z</time>
      </trkpt>
      <trkpt lat="45.06367" lon="5.78006">
        <ele>478.4</ele>
        <time>2021-05-29T10:13:08Z</time>
      </trkpt>
      <trkpt lat="45.06366" lon="5.78007">
        <ele>478.6</ele>
        <time>2021-05-29T10:13:09Z</time>
      </trkpt>
      <trkpt lat="45.06365" lon="5.78008">
        <ele>478.6</ele>
        <time>2021-05-29T10:13:10Z</time>
      </trkpt>
      <trkpt lat="45.06363" lon="5.78008">
        <ele>478.8</ele>
        <time>2021-05-29T10:13:11Z</time>
      </trkpt>
      <trkpt lat="45.06362" lon="5.78009">
        <ele>478.8</ele>
        <time>2021-05-29T10:13:12Z</time>
      </trkpt>
      <trkpt lat="45.06361" lon="5.7801">
        <ele>478.8</ele>
        <time>2021-05-29T10:13:13Z</time>
      </trkpt>
      <trkpt lat="45.0636" lon="5.78011">
        <ele>479</ele>
        <time>2021-05-29T10:13:14Z</time>
      </trkpt>
      <trkpt lat="45.06358" lon="5.78011">
        <ele>479.2</ele>
        <time>2021-05-29T10:13:15Z</time>
      </trkpt>
      <trkpt lat="45.06357" lon="5.78012">
        <ele>479.2</ele>
        <time>2021-05-29T10:13:16Z</time>
      </trkpt>
      <trkpt lat="45.06356" lon="5.78013">
        <ele>479.2</ele>
        <time>2021-05-29T10:13:17Z</time>
      </trkpt>
      <trkpt lat="45.06356" lon="5.78013">
        <ele>479.2</ele>
        <time>2021-05-29T10:13:18Z</time>
      </trkpt>
      <trkpt lat="45.06355" lon="5.78014">
        <ele>479</ele>
        <time>2021-05-29T10:13:19Z</time>
      </trkpt>
      <trkpt lat="45.06355" lon="5.78015">
        <ele>479</ele>
        <time>2021-05-29T10:13:20Z</time>
      </trkpt>
      <trkpt lat="45.06354" lon="5.78016">
        <ele>478.8</ele>
        <time>2021-05-29T10:13:21Z</time>
      </trkpt>
      <trkpt lat="45.06354" lon="5.78016">
        <ele>478.8</ele>
        <time>2021-05-29T10:13:22Z</time>
      </trkpt>
      <trkpt lat="45.06353" lon="5.78017">
        <ele>479</ele>
        <time>2021-05-29T10:13:23Z</time>
      </trkpt>
      <trkpt lat="45.06353" lon="5.78018">
        <ele>479.2</ele>
        <time>2021-05-29T10:13:24Z</time>
      </trkpt>
      <trkpt lat="45.06352" lon="5.78018">
        <ele>479.4</ele>
        <time>2021-05-29T10:13:25Z</time>
      </trkpt>
      <trkpt lat="45.06351" lon="5.78019">
        <ele>479.4</ele>
        <time>2021-05-29T10:13:26Z</time>
      </trkpt>
      <trkpt lat="45.06351" lon="5.7802">
        <ele>479.8</ele>
        <time>2021-05-29T10:13:27Z</time>
      </trkpt>
      <trkpt lat="45.0635" lon="5.7802">
        <ele>480</ele>
        <time>2021-05-29T10:13:28Z</time>
      </trkpt>
      <trkpt lat="45.06349" lon="5.78021">
        <ele>479.8</ele>
        <time>2021-05-29T10:13:29Z</time>
      </trkpt>
      <trkpt lat="45.06348" lon="5.78022">
        <ele>479.6</ele>
        <time>2021-05-29T10:13:30Z</time>
      </trkpt>
      <trkpt lat="45.06347" lon="5.78023">
        <ele>479.6</ele>
        <time>2021-05-29T10:13:31Z</time>
      </trkpt>
      <trkpt lat="45.06346" lon="5.78023">
        <ele>479.8</ele>
        <time>2021-05-29T10:13:32Z</time>
      </trkpt>
      <trkpt lat="45.06345" lon="5.78024">
        <ele>479.8</ele>
        <time>2021-05-29T10:13:33Z</time>
      </trkpt>
      <trkpt lat="45.06344" lon="5.78025">
        <ele>480.2</ele>
        <time>2021-05-29T10:13:34Z</time>
      </trkpt>
      <trkpt lat="45.06343" lon="5.78025">
        <ele>480.6</ele>
        <time>2021-05-29T10:13:35Z</time>
      </trkpt>
      <trkpt lat="45.06342" lon="5.78026">
        <ele>480.8</ele>
        <time>2021-05-29T10:13:36Z</time>
      </trkpt>
      <trkpt lat="45.06342" lon="5.78027">
        <ele>480.6</ele>
        <time>2021-05-29T10:13:37Z</time>
      </trkpt>
      <trkpt lat="45.06341" lon="5.78027">
        <ele>480.8</ele>
        <time>2021-05-29T10:13:38Z</time>
      </trkpt>
      <trkpt lat="45.0634" lon="5.78028">
        <ele>481</ele>
        <time>2021-05-29T10:13:39Z</time>
      </trkpt>
      <trkpt lat="45.0634" lon="5.78029">
        <ele>481.2</ele>
        <time>2021-05-29T10:13:40Z</time>
      </trkpt>
      <trkpt lat="45.06339" lon="5.78029">
        <ele>481.2</ele>
        <time>2021-05-29T10:13:41Z</time>
      </trkpt>
      <trkpt lat="45.06338" lon="5.7803">
        <ele>481.4</ele>
        <time>2021-05-29T10:13:42Z</time>
      </trkpt>
      <trkpt lat="45.06338" lon="5.78031">
        <ele>481.6</ele>
        <time>2021-05-29T10:13:43Z</time>
      </trkpt>
      <trkpt lat="45.06337" lon="5.78031">
        <ele>481.6</ele>
        <time>2021-05-29T10:13:44Z</time>
      </trkpt>
      <trkpt lat="45.06337" lon="5.78032">
        <ele>481.8</ele>
        <time>2021-05-29T10:13:45Z</time>
      </trkpt>
      <trkpt lat="45.06336" lon="5.78032">
        <ele>481.6</ele>
        <time>2021-05-29T10:13:46Z</time>
      </trkpt>
      <trkpt lat="45.06335" lon="5.78033">
        <ele>481.8</ele>
        <time>2021-05-29T10:13:47Z</time>
      </trkpt>
      <trkpt lat="45.06335" lon="5.78034">
        <ele>482</ele>
        <time>2021-05-29T10:13:48Z</time>
      </trkpt>
      <trkpt lat="45.06334" lon="5.78034">
        <ele>482</ele>
        <time>2021-05-29T10:13:49Z</time>
      </trkpt>
      <trkpt lat="45.06333" lon="5.78034">
        <ele>482</ele>
        <time>2021-05-29T10:13:50Z</time>
      </trkpt>
      <trkpt lat="45.06332" lon="5.78034">
        <ele>482</ele>
        <time>2021-05-29T10:13:51Z</time>
      </trkpt>
      <trkpt lat="45.06331" lon="5.78034">
        <ele>482.2</ele>
        <time>2021-05-29T10:13:52Z</time>
      </trkpt>
      <trkpt lat="45.0633" lon="5.78034">
        <ele>482.2</ele>
        <time>2021-05-29T10:13:53Z</time>
      </trkpt>
      <trkpt lat="45.06329" lon="5.78034">
        <ele>482.6</ele>
        <time>2021-05-29T10:13:54Z</time>
      </trkpt>
      <trkpt lat="45.06328" lon="5.78034">
        <ele>483</ele>
        <time>2021-05-29T10:13:55Z</time>
      </trkpt>
      <trkpt lat="45.06327" lon="5.78034">
        <ele>483</ele>
        <time>2021-05-29T10:13:56Z</time>
      </trkpt>
      <trkpt lat="45.06326" lon="5.78034">
        <ele>483</ele>
        <time>2021-05-29T10:13:57Z</time>
      </trkpt>
      <trkpt lat="45.06325" lon="5.78034">
        <ele>483.2</ele>
        <time>2021-05-29T10:13:58Z</time>
      </trkpt>
      <trkpt lat="45.06324" lon="5.78035">
        <ele>483.2</ele>
        <time>2021-05-29T10:13:59Z</time>
      </trkpt>
      <trkpt lat="45.06323" lon="5.78036">
        <ele>483.4</ele>
        <time>2021-05-29T10:14:00Z</time>
      </trkpt>
      <trkpt lat="45.06322" lon="5.78036">
        <ele>483.6</ele>
        <time>2021-05-29T10:14:01Z</time>
      </trkpt>
      <trkpt lat="45.06322" lon="5.78037">
        <ele>483.6</ele>
        <time>2021-05-29T10:14:02Z</time>
      </trkpt>
      <trkpt lat="45.06321" lon="5.78038">
        <ele>484.2</ele>
        <time>2021-05-29T10:14:03Z</time>
      </trkpt>
      <trkpt lat="45.0632" lon="5.78038">
        <ele>484.2</ele>
        <time>2021-05-29T10:14:04Z</time>
      </trkpt>
      <trkpt lat="45.06319" lon="5.78039">
        <ele>484.2</ele>
        <time>2021-05-29T10:14:05Z</time>
      </trkpt>
      <trkpt lat="45.06318" lon="5.7804">
        <ele>484.4</ele>
        <time>2021-05-29T10:14:06Z</time>
      </trkpt>
      <trkpt lat="45.06317" lon="5.78041">
        <ele>484.8</ele>
        <time>2021-05-29T10:14:07Z</time>
      </trkpt>
      <trkpt lat="45.06315" lon="5.78041">
        <ele>484.8</ele>
        <time>2021-05-29T10:14:08Z</time>
      </trkpt>
      <trkpt lat="45.06314" lon="5.78041">
        <ele>485</ele>
        <time>2021-05-29T10:14:09Z</time>
      </trkpt>
      <trkpt lat="45.06312" lon="5.78041">
        <ele>485.4</ele>
        <time>2021-05-29T10:14:10Z</time>
      </trkpt>
      <trkpt lat="45.06311" lon="5.78041">
        <ele>485.6</ele>
        <time>2021-05-29T10:14:11Z</time>
      </trkpt>
      <trkpt lat="45.06309" lon="5.78041">
        <ele>485.6</ele>
        <time>2021-05-29T10:14:12Z</time>
      </trkpt>
      <trkpt lat="45.06308" lon="5.78041">
        <ele>485.6</ele>
        <time>2021-05-29T10:14:13Z</time>
      </trkpt>
      <trkpt lat="45.06307" lon="5.78042">
        <ele>485.8</ele>
        <time>2021-05-29T10:14:14Z</time>
      </trkpt>
      <trkpt lat="45.06307" lon="5.78043">
        <ele>486</ele>
        <time>2021-05-29T10:14:15Z</time>
      </trkpt>
      <trkpt lat="45.06306" lon="5.78044">
        <ele>486.4</ele>
        <time>2021-05-29T10:14:16Z</time>
      </trkpt>
      <trkpt lat="45.06306" lon="5.78044">
        <ele>486.8</ele>
        <time>2021-05-29T10:14:17Z</time>
      </trkpt>
      <trkpt lat="45.06306" lon="5.78045">
        <ele>486.8</ele>
        <time>2021-05-29T10:14:18Z</time>
      </trkpt>
      <trkpt lat="45.06305" lon="5.78046">
        <ele>486.8</ele>
        <time>2021-05-29T10:14:19Z</time>
      </trkpt>
      <trkpt lat="45.06305" lon="5.78047">
        <ele>487</ele>
        <time>2021-05-29T10:14:20Z</time>
      </trkpt>
      <trkpt lat="45.06304" lon="5.78048">
        <ele>487.2</ele>
        <time>2021-05-29T10:14:21Z</time>
      </trkpt>
      <trkpt lat="45.06304" lon="5.78048">
        <ele>487.4</ele>
        <time>2021-05-29T10:14:22Z</time>
      </trkpt>
      <trkpt lat="45.06303" lon="5.78049">
        <ele>487.4</ele>
        <time>2021-05-29T10:14:23Z</time>
      </trkpt>
      <trkpt lat="45.06303" lon="5.7805">
        <ele>487.6</ele>
        <time>2021-05-29T10:14:24Z</time>
      </trkpt>
      <trkpt lat="45.06303" lon="5.78051">
        <ele>488.2</ele>
        <time>2021-05-29T10:14:25Z</time>
      </trkpt>
      <trkpt lat="45.06302" lon="5.78052">
        <ele>488.2</ele>
        <time>2021-05-29T10:14:26Z</time>
      </trkpt>
      <trkpt lat="45.06302" lon="5.78052">
        <ele>488.4</ele>
        <time>2021-05-29T10:14:27Z</time>
      </trkpt>
      <trkpt lat="45.06301" lon="5.78053">
        <ele>488.6</ele>
        <time>2021-05-29T10:14:28Z</time>
      </trkpt>
      <trkpt lat="45.06301" lon="5.78054">
        <ele>489</ele>
        <time>2021-05-29T10:14:29Z</time>
      </trkpt>
      <trkpt lat="45.063" lon="5.78054">
        <ele>489.2</ele>
        <time>2021-05-29T10:14:30Z</time>
      </trkpt>
      <trkpt lat="45.063" lon="5.78055">
        <ele>489.4</ele>
        <time>2021-05-29T10:14:31Z</time>
      </trkpt>
      <trkpt lat="45.063" lon="5.78056">
        <ele>489.8</ele>
        <time>2021-05-29T10:14:32Z</time>
      </trkpt>
      <trkpt lat="45.06299" lon="5.78056">
        <ele>490.4</ele>
        <time>2021-05-29T10:14:33Z</time>
      </trkpt>
      <trkpt lat="45.06299" lon="5.78057">
        <ele>490.6</ele>
        <time>2021-05-29T10:14:34Z</time>
      </trkpt>
      <trkpt lat="45.06298" lon="5.78058">
        <ele>491</ele>
        <time>2021-05-29T10:14:35Z</time>
      </trkpt>
      <trkpt lat="45.06298" lon="5.78058">
        <ele>491</ele>
        <time>2021-05-29T10:14:36Z</time>
      </trkpt>
      <trkpt lat="45.06298" lon="5.78059">
        <ele>491.2</ele>
        <time>2021-05-29T10:14:37Z</time>
      </trkpt>
      <trkpt lat="45.06297" lon="5.7806">
        <ele>491.2</ele>
        <time>2021-05-29T10:14:38Z</time>
      </trkpt>
      <trkpt lat="45.06297" lon="5.7806">
        <ele>491.4</ele>
        <time>2021-05-29T10:14:39Z</time>
      </trkpt>
      <trkpt lat="45.06296" lon="5.78061">
        <ele>491.8</ele>
        <time>2021-05-29T10:14:40Z</time>
      </trkpt>
      <trkpt lat="45.06296" lon="5.78062">
        <ele>492.2</ele>
        <time>2021-05-29T10:14:41Z</time>
      </trkpt>
      <trkpt lat="45.06296" lon="5.78063">
        <ele>492.6</ele>
        <time>2021-05-29T10:14:42Z</time>
      </trkpt>
      <trkpt lat="45.06296" lon="5.78063">
        <ele>492.8</ele>
        <time>2021-05-29T10:14:43Z</time>
      </trkpt>
      <trkpt lat="45.06296" lon="5.78064">
        <ele>493.2</ele>
        <time>2021-05-29T10:14:44Z</time>
      </trkpt>
      <trkpt lat="45.06296" lon="5.78065">
        <ele>493.2</ele>
        <time>2021-05-29T10:14:45Z</time>
      </trkpt>
      <trkpt lat="45.06296" lon="5.78066">
        <ele>493.2</ele>
        <time>2021-05-29T10:14:46Z</time>
      </trkpt>
      <trkpt lat="45.06296" lon="5.78067">
        <ele>493.4</ele>
        <time>2021-05-29T10:14:47Z</time>
      </trkpt>
      <trkpt lat="45.06297" lon="5.78068">
        <ele>493.4</ele>
        <time>2021-05-29T10:14:48Z</time>
      </trkpt>
      <trkpt lat="45.06297" lon="5.78069">
        <ele>493.6</ele>
        <time>2021-05-29T10:14:49Z</time>
      </trkpt>
      <trkpt lat="45.06297" lon="5.7807">
        <ele>493.8</ele>
        <time>2021-05-29T10:14:50Z</time>
      </trkpt>
      <trkpt lat="45.06297" lon="5.7807">
        <ele>494.2</ele>
        <time>2021-05-29T10:14:51Z</time>
      </trkpt>
      <trkpt lat="45.06297" lon="5.78071">
        <ele>494.2</ele>
        <time>2021-05-29T10:14:52Z</time>
      </trkpt>
      <trkpt lat="45.06297" lon="5.78072">
        <ele>494.4</ele>
        <time>2021-05-29T10:14:53Z</time>
      </trkpt>
      <trkpt lat="45.06297" lon="5.78073">
        <ele>494.6</ele>
        <time>2021-05-29T10:14:54Z</time>
      </trkpt>
      <trkpt lat="45.06297" lon="5.78074">
        <ele>494.8</ele>
        <time>2021-05-29T10:14:55Z</time>
      </trkpt>
      <trkpt lat="45.06297" lon="5.78075">
        <ele>495.2</ele>
        <time>2021-05-29T10:14:56Z</time>
      </trkpt>
      <trkpt lat="45.06297" lon="5.78076">
        <ele>495.2</ele>
        <time>2021-05-29T10:14:57Z</time>
      </trkpt>
      <trkpt lat="45.06297" lon="5.78078">
        <ele>495.6</ele>
        <time>2021-05-29T10:14:58Z</time>
      </trkpt>
      <trkpt lat="45.06297" lon="5.7808">
        <ele>495.8</ele>
        <time>2021-05-29T10:14:59Z</time>
      </trkpt>
      <trkpt lat="45.06297" lon="5.78081">
        <ele>495.8</ele>
        <time>2021-05-29T10:15:00Z</time>
      </trkpt>
      <trkpt lat="45.06297" lon="5.78083">
        <ele>496</ele>
        <time>2021-05-29T10:15:01Z</time>
      </trkpt>
      <trkpt lat="45.06297" lon="5.78085">
        <ele>496.2</ele>
        <time>2021-05-29T10:15:02Z</time>
      </trkpt>
      <trkpt lat="45.06298" lon="5.78087">
        <ele>496.4</ele>
        <time>2021-05-29T10:15:03Z</time>
      </trkpt>
      <trkpt lat="45.06298" lon="5.78089">
        <ele>496.6</ele>
        <time>2021-05-29T10:15:04Z</time>
      </trkpt>
      <trkpt lat="45.06297" lon="5.78089">
        <ele>496.6</ele>
        <time>2021-05-29T10:15:05Z</time>
      </trkpt>
      <trkpt lat="45.06296" lon="5.7809">
        <ele>496.8</ele>
        <time>2021-05-29T10:15:06Z</time>
      </trkpt>
      <trkpt lat="45.06295" lon="5.7809">
        <ele>496.8</ele>
        <time>2021-05-29T10:15:07Z</time>
      </trkpt>
      <trkpt lat="45.06294" lon="5.7809">
        <ele>497</ele>
        <time>2021-05-29T10:15:08Z</time>
      </trkpt>
      <trkpt lat="45.06293" lon="5.78091">
        <ele>497.2</ele>
        <time>2021-05-29T10:15:09Z</time>
      </trkpt>
      <trkpt lat="45.06292" lon="5.78091">
        <ele>497.4</ele>
        <time>2021-05-29T10:15:10Z</time>
      </trkpt>
      <trkpt lat="45.06291" lon="5.78091">
        <ele>497.8</ele>
        <time>2021-05-29T10:15:11Z</time>
      </trkpt>
      <trkpt lat="45.0629" lon="5.78092">
        <ele>498</ele>
        <time>2021-05-29T10:15:12Z</time>
      </trkpt>
      <trkpt lat="45.06289" lon="5.78093">
        <ele>498</ele>
        <time>2021-05-29T10:15:13Z</time>
      </trkpt>
      <trkpt lat="45.06288" lon="5.78094">
        <ele>498.2</ele>
        <time>2021-05-29T10:15:14Z</time>
      </trkpt>
      <trkpt lat="45.06287" lon="5.78095">
        <ele>498.4</ele>
        <time>2021-05-29T10:15:15Z</time>
      </trkpt>
      <trkpt lat="45.06287" lon="5.78095">
        <ele>498.8</ele>
        <time>2021-05-29T10:15:16Z</time>
      </trkpt>
      <trkpt lat="45.06286" lon="5.78096">
        <ele>498.8</ele>
        <time>2021-05-29T10:15:17Z</time>
      </trkpt>
      <trkpt lat="45.06285" lon="5.78097">
        <ele>499</ele>
        <time>2021-05-29T10:15:18Z</time>
      </trkpt>
      <trkpt lat="45.06285" lon="5.78098">
        <ele>499</ele>
        <time>2021-05-29T10:15:19Z</time>
      </trkpt>
      <trkpt lat="45.06284" lon="5.78099">
        <ele>499.4</ele>
        <time>2021-05-29T10:15:20Z</time>
      </trkpt>
      <trkpt lat="45.06283" lon="5.781">
        <ele>499.4</ele>
        <time>2021-05-29T10:15:21Z</time>
      </trkpt>
      <trkpt lat="45.06283" lon="5.78101">
        <ele>499.6</ele>
        <time>2021-05-29T10:15:22Z</time>
      </trkpt>
      <trkpt lat="45.06282" lon="5.78101">
        <ele>499.8</ele>
        <time>2021-05-29T10:15:23Z</time>
      </trkpt>
      <trkpt lat="45.06281" lon="5.78102">
        <ele>500</ele>
        <time>2021-05-29T10:15:24Z</time>
      </trkpt>
      <trkpt lat="45.0628" lon="5.78103">
        <ele>500</ele>
        <time>2021-05-29T10:15:25Z</time>
      </trkpt>
      <trkpt lat="45.0628" lon="5.78104">
        <ele>500</ele>
        <time>2021-05-29T10:15:26Z</time>
      </trkpt>
      <trkpt lat="45.06279" lon="5.78105">
        <ele>500</ele>
        <time>2021-05-29T10:15:27Z</time>
      </trkpt>
      <trkpt lat="45.06278" lon="5.78106">
        <ele>500.2</ele>
        <time>2021-05-29T10:15:28Z</time>
      </trkpt>
      <trkpt lat="45.06278" lon="5.78107">
        <ele>500.4</ele>
        <time>2021-05-29T10:15:29Z</time>
      </trkpt>
      <trkpt lat="45.06277" lon="5.78107">
        <ele>500.8</ele>
        <time>2021-05-29T10:15:30Z</time>
      </trkpt>
      <trkpt lat="45.06276" lon="5.78108">
        <ele>501</ele>
        <time>2021-05-29T10:15:31Z</time>
      </trkpt>
      <trkpt lat="45.06276" lon="5.78109">
        <ele>501.2</ele>
        <time>2021-05-29T10:15:32Z</time>
      </trkpt>
      <trkpt lat="45.06275" lon="5.7811">
        <ele>501.2</ele>
        <time>2021-05-29T10:15:33Z</time>
      </trkpt>
      <trkpt lat="45.06274" lon="5.78111">
        <ele>501.6</ele>
        <time>2021-05-29T10:15:34Z</time>
      </trkpt>
      <trkpt lat="45.06273" lon="5.78112">
        <ele>501.8</ele>
        <time>2021-05-29T10:15:35Z</time>
      </trkpt>
      <trkpt lat="45.06273" lon="5.78113">
        <ele>502</ele>
        <time>2021-05-29T10:15:36Z</time>
      </trkpt>
      <trkpt lat="45.06272" lon="5.78113">
        <ele>502</ele>
        <time>2021-05-29T10:15:37Z</time>
      </trkpt>
      <trkpt lat="45.06271" lon="5.78114">
        <ele>502.2</ele>
        <time>2021-05-29T10:15:38Z</time>
      </trkpt>
      <trkpt lat="45.06271" lon="5.78115">
        <ele>502.6</ele>
        <time>2021-05-29T10:15:39Z</time>
      </trkpt>
      <trkpt lat="45.0627" lon="5.78116">
        <ele>503</ele>
        <time>2021-05-29T10:15:40Z</time>
      </trkpt>
      <trkpt lat="45.06269" lon="5.78117">
        <ele>503.2</ele>
        <time>2021-05-29T10:15:41Z</time>
      </trkpt>
      <trkpt lat="45.06269" lon="5.78118">
        <ele>503.4</ele>
        <time>2021-05-29T10:15:42Z</time>
      </trkpt>
      <trkpt lat="45.06268" lon="5.78119">
        <ele>503.4</ele>
        <time>2021-05-29T10:15:43Z</time>
      </trkpt>
      <trkpt lat="45.06267" lon="5.78119">
        <ele>503.4</ele>
        <time>2021-05-29T10:15:44Z</time>
      </trkpt>
      <trkpt lat="45.06267" lon="5.7812">
        <ele>503.8</ele>
        <time>2021-05-29T10:15:45Z</time>
      </trkpt>
      <trkpt lat="45.06266" lon="5.78121">
        <ele>504</ele>
        <time>2021-05-29T10:15:46Z</time>
      </trkpt>
      <trkpt lat="45.06265" lon="5.78122">
        <ele>504</ele>
        <time>2021-05-29T10:15:47Z</time>
      </trkpt>
      <trkpt lat="45.06264" lon="5.78123">
        <ele>504.2</ele>
        <time>2021-05-29T10:15:48Z</time>
      </trkpt>
      <trkpt lat="45.06264" lon="5.78124">
        <ele>504.2</ele>
        <time>2021-05-29T10:15:49Z</time>
      </trkpt>
      <trkpt lat="45.06263" lon="5.78125">
        <ele>504.4</ele>
        <time>2021-05-29T10:15:50Z</time>
      </trkpt>
      <trkpt lat="45.06262" lon="5.78125">
        <ele>504.6</ele>
        <time>2021-05-29T10:15:51Z</time>
      </trkpt>
      <trkpt lat="45.06262" lon="5.78126">
        <ele>504.8</ele>
        <time>2021-05-29T10:15:52Z</time>
      </trkpt>
      <trkpt lat="45.06261" lon="5.78127">
        <ele>505.2</ele>
        <time>2021-05-29T10:15:53Z</time>
      </trkpt>
      <trkpt lat="45.0626" lon="5.78128">
        <ele>505.4</ele>
        <time>2021-05-29T10:15:54Z</time>
      </trkpt>
      <trkpt lat="45.0626" lon="5.78129">
        <ele>505.6</ele>
        <time>2021-05-29T10:15:55Z</time>
      </trkpt>
      <trkpt lat="45.06259" lon="5.7813">
        <ele>505.8</ele>
        <time>2021-05-29T10:15:56Z</time>
      </trkpt>
      <trkpt lat="45.06258" lon="5.78131">
        <ele>506</ele>
        <time>2021-05-29T10:15:57Z</time>
      </trkpt>
      <trkpt lat="45.06258" lon="5.78131">
        <ele>506.2</ele>
        <time>2021-05-29T10:15:58Z</time>
      </trkpt>
      <trkpt lat="45.06257" lon="5.78132">
        <ele>506.2</ele>
        <time>2021-05-29T10:15:59Z</time>
      </trkpt>
      <trkpt lat="45.06256" lon="5.78133">
        <ele>506.2</ele>
        <time>2021-05-29T10:16:00Z</time>
      </trkpt>
      <trkpt lat="45.06255" lon="5.78134">
        <ele>506.2</ele>
        <time>2021-05-29T10:16:01Z</time>
      </trkpt>
      <trkpt lat="45.06255" lon="5.78134">
        <ele>506.2</ele>
        <time>2021-05-29T10:16:02Z</time>
      </trkpt>
      <trkpt lat="45.06255" lon="5.78134">
        <ele>506.2</ele>
        <time>2021-05-29T10:16:03Z</time>
      </trkpt>
      <trkpt lat="45.06256" lon="5.78136">
        <ele>506.2</ele>
        <time>2021-05-29T10:16:04Z</time>
      </trkpt>
      <trkpt lat="45.06256" lon="5.78137">
        <ele>506.4</ele>
        <time>2021-05-29T10:16:05Z</time>
      </trkpt>
      <trkpt lat="45.06256" lon="5.78139">
        <ele>506.8</ele>
        <time>2021-05-29T10:16:06Z</time>
      </trkpt>
      <trkpt lat="45.06256" lon="5.7814">
        <ele>507</ele>
        <time>2021-05-29T10:16:07Z</time>
      </trkpt>
      <trkpt lat="45.06256" lon="5.78141">
        <ele>507.2</ele>
        <time>2021-05-29T10:16:08Z</time>
      </trkpt>
      <trkpt lat="45.06256" lon="5.78143">
        <ele>507.2</ele>
        <time>2021-05-29T10:16:09Z</time>
      </trkpt>
      <trkpt lat="45.06256" lon="5.78144">
        <ele>507.2</ele>
        <time>2021-05-29T10:16:10Z</time>
      </trkpt>
      <trkpt lat="45.06256" lon="5.78146">
        <ele>507.4</ele>
        <time>2021-05-29T10:16:11Z</time>
      </trkpt>
      <trkpt lat="45.06256" lon="5.78147">
        <ele>507.6</ele>
        <time>2021-05-29T10:16:12Z</time>
      </trkpt>
      <trkpt lat="45.06256" lon="5.78149">
        <ele>508</ele>
        <time>2021-05-29T10:16:13Z</time>
      </trkpt>
      <trkpt lat="45.06256" lon="5.7815">
        <ele>508</ele>
        <time>2021-05-29T10:16:14Z</time>
      </trkpt>
      <trkpt lat="45.06255" lon="5.78151">
        <ele>508</ele>
        <time>2021-05-29T10:16:15Z</time>
      </trkpt>
      <trkpt lat="45.06255" lon="5.78152">
        <ele>508.2</ele>
        <time>2021-05-29T10:16:16Z</time>
      </trkpt>
      <trkpt lat="45.06255" lon="5.78153">
        <ele>508.2</ele>
        <time>2021-05-29T10:16:17Z</time>
      </trkpt>
      <trkpt lat="45.06255" lon="5.78154">
        <ele>508.2</ele>
        <time>2021-05-29T10:16:18Z</time>
      </trkpt>
      <trkpt lat="45.06255" lon="5.78155">
        <ele>508.6</ele>
        <time>2021-05-29T10:16:19Z</time>
      </trkpt>
      <trkpt lat="45.06254" lon="5.78157">
        <ele>508.8</ele>
        <time>2021-05-29T10:16:20Z</time>
      </trkpt>
      <trkpt lat="45.06254" lon="5.78158">
        <ele>509</ele>
        <time>2021-05-29T10:16:21Z</time>
      </trkpt>
      <trkpt lat="45.06254" lon="5.78159">
        <ele>509.2</ele>
        <time>2021-05-29T10:16:22Z</time>
      </trkpt>
      <trkpt lat="45.06254" lon="5.7816">
        <ele>509.4</ele>
        <time>2021-05-29T10:16:23Z</time>
      </trkpt>
      <trkpt lat="45.06255" lon="5.78163">
        <ele>509.4</ele>
        <time>2021-05-29T10:16:24Z</time>
      </trkpt>
      <trkpt lat="45.06256" lon="5.78165">
        <ele>509.8</ele>
        <time>2021-05-29T10:16:25Z</time>
      </trkpt>
      <trkpt lat="45.06257" lon="5.78168">
        <ele>510</ele>
        <time>2021-05-29T10:16:26Z</time>
      </trkpt>
      <trkpt lat="45.06258" lon="5.7817">
        <ele>510.2</ele>
        <time>2021-05-29T10:16:27Z</time>
      </trkpt>
      <trkpt lat="45.06258" lon="5.78173">
        <ele>510.4</ele>
        <time>2021-05-29T10:16:28Z</time>
      </trkpt>
      <trkpt lat="45.06259" lon="5.78174">
        <ele>510.8</ele>
        <time>2021-05-29T10:16:29Z</time>
      </trkpt>
      <trkpt lat="45.06259" lon="5.78176">
        <ele>511.2</ele>
        <time>2021-05-29T10:16:30Z</time>
      </trkpt>
      <trkpt lat="45.06259" lon="5.78177">
        <ele>511.4</ele>
        <time>2021-05-29T10:16:31Z</time>
      </trkpt>
      <trkpt lat="45.06259" lon="5.78179">
        <ele>511.8</ele>
        <time>2021-05-29T10:16:32Z</time>
      </trkpt>
      <trkpt lat="45.06259" lon="5.7818">
        <ele>512.2</ele>
        <time>2021-05-29T10:16:33Z</time>
      </trkpt>
      <trkpt lat="45.06259" lon="5.78182">
        <ele>512.4</ele>
        <time>2021-05-29T10:16:34Z</time>
      </trkpt>
      <trkpt lat="45.06259" lon="5.78183">
        <ele>512.6</ele>
        <time>2021-05-29T10:16:35Z</time>
      </trkpt>
      <trkpt lat="45.0626" lon="5.78185">
        <ele>512.8</ele>
        <time>2021-05-29T10:16:36Z</time>
      </trkpt>
      <trkpt lat="45.0626" lon="5.78186">
        <ele>513</ele>
        <time>2021-05-29T10:16:37Z</time>
      </trkpt>
      <trkpt lat="45.0626" lon="5.78186">
        <ele>513.4</ele>
        <time>2021-05-29T10:16:38Z</time>
      </trkpt>
      <trkpt lat="45.0626" lon="5.78187">
        <ele>513.8</ele>
        <time>2021-05-29T10:16:39Z</time>
      </trkpt>
      <trkpt lat="45.06261" lon="5.78188">
        <ele>513.8</ele>
        <time>2021-05-29T10:16:40Z</time>
      </trkpt>
      <trkpt lat="45.06261" lon="5.78188">
        <ele>514.2</ele>
        <time>2021-05-29T10:16:41Z</time>
      </trkpt>
      <trkpt lat="45.06261" lon="5.78189">
        <ele>514.6</ele>
        <time>2021-05-29T10:16:42Z</time>
      </trkpt>
      <trkpt lat="45.06262" lon="5.78189">
        <ele>514.8</ele>
        <time>2021-05-29T10:16:43Z</time>
      </trkpt>
      <trkpt lat="45.06262" lon="5.7819">
        <ele>515</ele>
        <time>2021-05-29T10:16:44Z</time>
      </trkpt>
      <trkpt lat="45.06262" lon="5.7819">
        <ele>515.2</ele>
        <time>2021-05-29T10:16:45Z</time>
      </trkpt>
      <trkpt lat="45.06263" lon="5.78191">
        <ele>515.2</ele>
        <time>2021-05-29T10:16:46Z</time>
      </trkpt>
      <trkpt lat="45.06263" lon="5.78191">
        <ele>515.6</ele>
        <time>2021-05-29T10:16:47Z</time>
      </trkpt>
      <trkpt lat="45.06263" lon="5.78192">
        <ele>515.8</ele>
        <time>2021-05-29T10:16:48Z</time>
      </trkpt>
      <trkpt lat="45.06264" lon="5.78192">
        <ele>516.2</ele>
        <time>2021-05-29T10:16:49Z</time>
      </trkpt>
      <trkpt lat="45.06264" lon="5.78193">
        <ele>516.6</ele>
        <time>2021-05-29T10:16:50Z</time>
      </trkpt>
      <trkpt lat="45.06264" lon="5.78193">
        <ele>517</ele>
        <time>2021-05-29T10:16:51Z</time>
      </trkpt>
      <trkpt lat="45.06264" lon="5.78194">
        <ele>517</ele>
        <time>2021-05-29T10:16:52Z</time>
      </trkpt>
      <trkpt lat="45.06265" lon="5.78194">
        <ele>517.2</ele>
        <time>2021-05-29T10:16:53Z</time>
      </trkpt>
      <trkpt lat="45.06265" lon="5.78195">
        <ele>517.2</ele>
        <time>2021-05-29T10:16:54Z</time>
      </trkpt>
      <trkpt lat="45.06265" lon="5.78195">
        <ele>517.4</ele>
        <time>2021-05-29T10:16:55Z</time>
      </trkpt>
      <trkpt lat="45.06266" lon="5.78196">
        <ele>517.8</ele>
        <time>2021-05-29T10:16:56Z</time>
      </trkpt>
      <trkpt lat="45.06266" lon="5.78196">
        <ele>517.8</ele>
        <time>2021-05-29T10:16:57Z</time>
      </trkpt>
      <trkpt lat="45.06266" lon="5.78196">
        <ele>517.8</ele>
        <time>2021-05-29T10:16:58Z</time>
      </trkpt>
      <trkpt lat="45.06267" lon="5.78197">
        <ele>518.2</ele>
        <time>2021-05-29T10:16:59Z</time>
      </trkpt>
      <trkpt lat="45.06267" lon="5.78197">
        <ele>518.6</ele>
        <time>2021-05-29T10:17:00Z</time>
      </trkpt>
      <trkpt lat="45.06267" lon="5.78197">
        <ele>518.6</ele>
        <time>2021-05-29T10:17:01Z</time>
      </trkpt>
      <trkpt lat="45.06267" lon="5.78197">
        <ele>519</ele>
        <time>2021-05-29T10:17:02Z</time>
      </trkpt>
      <trkpt lat="45.06267" lon="5.78197">
        <ele>518.8</ele>
        <time>2021-05-29T10:17:03Z</time>
      </trkpt>
      <trkpt lat="45.06268" lon="5.78197">
        <ele>519</ele>
        <time>2021-05-29T10:17:04Z</time>
      </trkpt>
      <trkpt lat="45.06268" lon="5.78197">
        <ele>519</ele>
        <time>2021-05-29T10:17:05Z</time>
      </trkpt>
      <trkpt lat="45.06268" lon="5.78198">
        <ele>519.4</ele>
        <time>2021-05-29T10:17:06Z</time>
      </trkpt>
      <trkpt lat="45.06268" lon="5.78198">
        <ele>519.6</ele>
        <time>2021-05-29T10:17:07Z</time>
      </trkpt>
      <trkpt lat="45.06269" lon="5.78198">
        <ele>520</ele>
        <time>2021-05-29T10:17:08Z</time>
      </trkpt>
      <trkpt lat="45.06269" lon="5.78198">
        <ele>520.4</ele>
        <time>2021-05-29T10:17:09Z</time>
      </trkpt>
      <trkpt lat="45.06269" lon="5.78198">
        <ele>520.6</ele>
        <time>2021-05-29T10:17:10Z</time>
      </trkpt>
      <trkpt lat="45.06269" lon="5.78198">
        <ele>520.8</ele>
        <time>2021-05-29T10:17:11Z</time>
      </trkpt>
      <trkpt lat="45.0627" lon="5.78198">
        <ele>521</ele>
        <time>2021-05-29T10:17:12Z</time>
      </trkpt>
      <trkpt lat="45.0627" lon="5.78199">
        <ele>521.4</ele>
        <time>2021-05-29T10:17:13Z</time>
      </trkpt>
      <trkpt lat="45.0627" lon="5.78199">
        <ele>521.6</ele>
        <time>2021-05-29T10:17:14Z</time>
      </trkpt>
      <trkpt lat="45.0627" lon="5.78199">
        <ele>522.2</ele>
        <time>2021-05-29T10:17:15Z</time>
      </trkpt>
      <trkpt lat="45.06271" lon="5.78199">
        <ele>522.4</ele>
        <time>2021-05-29T10:17:16Z</time>
      </trkpt>
      <trkpt lat="45.06271" lon="5.78199">
        <ele>522.8</ele>
        <time>2021-05-29T10:17:17Z</time>
      </trkpt>
      <trkpt lat="45.06271" lon="5.78199">
        <ele>523.2</ele>
        <time>2021-05-29T10:17:18Z</time>
      </trkpt>
      <trkpt lat="45.06271" lon="5.78199">
        <ele>523.6</ele>
        <time>2021-05-29T10:17:19Z</time>
      </trkpt>
      <trkpt lat="45.06272" lon="5.782">
        <ele>523.8</ele>
        <time>2021-05-29T10:17:20Z</time>
      </trkpt>
      <trkpt lat="45.06272" lon="5.782">
        <ele>523.8</ele>
        <time>2021-05-29T10:17:21Z</time>
      </trkpt>
      <trkpt lat="45.06272" lon="5.782">
        <ele>523.8</ele>
        <time>2021-05-29T10:17:22Z</time>
      </trkpt>
      <trkpt lat="45.06272" lon="5.782">
        <ele>524.4</ele>
        <time>2021-05-29T10:17:23Z</time>
      </trkpt>
      <trkpt lat="45.06272" lon="5.782">
        <ele>524.6</ele>
        <time>2021-05-29T10:17:24Z</time>
      </trkpt>
      <trkpt lat="45.06273" lon="5.782">
        <ele>524.8</ele>
        <time>2021-05-29T10:17:25Z</time>
      </trkpt>
      <trkpt lat="45.06273" lon="5.782">
        <ele>525</ele>
        <time>2021-05-29T10:17:26Z</time>
      </trkpt>
      <trkpt lat="45.06273" lon="5.782">
        <ele>525.2</ele>
        <time>2021-05-29T10:17:27Z</time>
      </trkpt>
      <trkpt lat="45.06273" lon="5.78201">
        <ele>525.2</ele>
        <time>2021-05-29T10:17:28Z</time>
      </trkpt>
      <trkpt lat="45.06274" lon="5.78201">
        <ele>525.2</ele>
        <time>2021-05-29T10:17:29Z</time>
      </trkpt>
      <trkpt lat="45.06274" lon="5.78201">
        <ele>525.6</ele>
        <time>2021-05-29T10:17:30Z</time>
      </trkpt>
      <trkpt lat="45.06274" lon="5.78201">
        <ele>525.8</ele>
        <time>2021-05-29T10:17:31Z</time>
      </trkpt>
      <trkpt lat="45.06274" lon="5.78201">
        <ele>526.2</ele>
        <time>2021-05-29T10:17:32Z</time>
      </trkpt>
      <trkpt lat="45.06275" lon="5.78201">
        <ele>526.6</ele>
        <time>2021-05-29T10:17:33Z</time>
      </trkpt>
      <trkpt lat="45.06275" lon="5.78201">
        <ele>527</ele>
        <time>2021-05-29T10:17:34Z</time>
      </trkpt>
      <trkpt lat="45.06275" lon="5.78202">
        <ele>527.2</ele>
        <time>2021-05-29T10:17:35Z</time>
      </trkpt>
      <trkpt lat="45.06275" lon="5.78203">
        <ele>527.4</ele>
        <time>2021-05-29T10:17:36Z</time>
      </trkpt>
      <trkpt lat="45.06275" lon="5.78204">
        <ele>527.6</ele>
        <time>2021-05-29T10:17:37Z</time>
      </trkpt>
      <trkpt lat="45.06275" lon="5.78205">
        <ele>527.8</ele>
        <time>2021-05-29T10:17:38Z</time>
      </trkpt>
      <trkpt lat="45.06275" lon="5.78206">
        <ele>528</ele>
        <time>2021-05-29T10:17:39Z</time>
      </trkpt>
      <trkpt lat="45.06275" lon="5.78207">
        <ele>528.4</ele>
        <time>2021-05-29T10:17:40Z</time>
      </trkpt>
      <trkpt lat="45.06276" lon="5.78207">
        <ele>528.8</ele>
        <time>2021-05-29T10:17:41Z</time>
      </trkpt>
      <trkpt lat="45.06276" lon="5.78208">
        <ele>529.2</ele>
        <time>2021-05-29T10:17:42Z</time>
      </trkpt>
      <trkpt lat="45.06276" lon="5.78209">
        <ele>529.4</ele>
        <time>2021-05-29T10:17:43Z</time>
      </trkpt>
      <trkpt lat="45.06276" lon="5.7821">
        <ele>529.4</ele>
        <time>2021-05-29T10:17:44Z</time>
      </trkpt>
      <trkpt lat="45.06276" lon="5.78211">
        <ele>529.4</ele>
        <time>2021-05-29T10:17:45Z</time>
      </trkpt>
      <trkpt lat="45.06276" lon="5.78212">
        <ele>530</ele>
        <time>2021-05-29T10:17:46Z</time>
      </trkpt>
      <trkpt lat="45.06276" lon="5.78212">
        <ele>530.2</ele>
        <time>2021-05-29T10:17:47Z</time>
      </trkpt>
      <trkpt lat="45.06276" lon="5.78213">
        <ele>530.4</ele>
        <time>2021-05-29T10:17:48Z</time>
      </trkpt>
      <trkpt lat="45.06276" lon="5.78214">
        <ele>530.6</ele>
        <time>2021-05-29T10:17:49Z</time>
      </trkpt>
      <trkpt lat="45.06276" lon="5.78215">
        <ele>531</ele>
        <time>2021-05-29T10:17:50Z</time>
      </trkpt>
      <trkpt lat="45.06275" lon="5.78216">
        <ele>531.2</ele>
        <time>2021-05-29T10:17:51Z</time>
      </trkpt>
      <trkpt lat="45.06275" lon="5.78217">
        <ele>531.4</ele>
        <time>2021-05-29T10:17:52Z</time>
      </trkpt>
      <trkpt lat="45.06275" lon="5.78218">
        <ele>531.4</ele>
        <time>2021-05-29T10:17:53Z</time>
      </trkpt>
      <trkpt lat="45.06274" lon="5.78219">
        <ele>531.8</ele>
        <time>2021-05-29T10:17:54Z</time>
      </trkpt>
      <trkpt lat="45.06274" lon="5.7822">
        <ele>532.2</ele>
        <time>2021-05-29T10:17:55Z</time>
      </trkpt>
      <trkpt lat="45.06273" lon="5.78221">
        <ele>532.4</ele>
        <time>2021-05-29T10:17:56Z</time>
      </trkpt>
      <trkpt lat="45.06273" lon="5.78222">
        <ele>532.6</ele>
        <time>2021-05-29T10:17:57Z</time>
      </trkpt>
      <trkpt lat="45.06272" lon="5.78223">
        <ele>533</ele>
        <time>2021-05-29T10:17:58Z</time>
      </trkpt>
      <trkpt lat="45.06272" lon="5.78224">
        <ele>533.2</ele>
        <time>2021-05-29T10:17:59Z</time>
      </trkpt>
      <trkpt lat="45.06271" lon="5.78225">
        <ele>533.6</ele>
        <time>2021-05-29T10:18:00Z</time>
      </trkpt>
      <trkpt lat="45.06271" lon="5.78226">
        <ele>533.8</ele>
        <time>2021-05-29T10:18:01Z</time>
      </trkpt>
      <trkpt lat="45.06271" lon="5.78227">
        <ele>534</ele>
        <time>2021-05-29T10:18:02Z</time>
      </trkpt>
      <trkpt lat="45.0627" lon="5.78228">
        <ele>534.2</ele>
        <time>2021-05-29T10:18:03Z</time>
      </trkpt>
      <trkpt lat="45.0627" lon="5.78229">
        <ele>534.4</ele>
        <time>2021-05-29T10:18:04Z</time>
      </trkpt>
      <trkpt lat="45.0627" lon="5.7823">
        <ele>534.6</ele>
        <time>2021-05-29T10:18:05Z</time>
      </trkpt>
      <trkpt lat="45.06269" lon="5.7823">
        <ele>535</ele>
        <time>2021-05-29T10:18:06Z</time>
      </trkpt>
      <trkpt lat="45.06269" lon="5.78231">
        <ele>535.2</ele>
        <time>2021-05-29T10:18:07Z</time>
      </trkpt>
      <trkpt lat="45.06268" lon="5.78232">
        <ele>535.4</ele>
        <time>2021-05-29T10:18:08Z</time>
      </trkpt>
      <trkpt lat="45.06268" lon="5.78233">
        <ele>535.6</ele>
        <time>2021-05-29T10:18:09Z</time>
      </trkpt>
      <trkpt lat="45.06268" lon="5.78234">
        <ele>535.8</ele>
        <time>2021-05-29T10:18:10Z</time>
      </trkpt>
      <trkpt lat="45.06267" lon="5.78235">
        <ele>536</ele>
        <time>2021-05-29T10:18:11Z</time>
      </trkpt>
      <trkpt lat="45.06267" lon="5.78236">
        <ele>536.2</ele>
        <time>2021-05-29T10:18:12Z</time>
      </trkpt>
      <trkpt lat="45.06266" lon="5.78237">
        <ele>536.6</ele>
        <time>2021-05-29T10:18:13Z</time>
      </trkpt>
      <trkpt lat="45.06266" lon="5.78237">
        <ele>536.8</ele>
        <time>2021-05-29T10:18:14Z</time>
      </trkpt>
      <trkpt lat="45.06266" lon="5.78239">
        <ele>537.2</ele>
        <time>2021-05-29T10:18:15Z</time>
      </trkpt>
      <trkpt lat="45.06266" lon="5.7824">
        <ele>537.4</ele>
        <time>2021-05-29T10:18:16Z</time>
      </trkpt>
      <trkpt lat="45.06266" lon="5.78242">
        <ele>537.6</ele>
        <time>2021-05-29T10:18:17Z</time>
      </trkpt>
      <trkpt lat="45.06266" lon="5.78243">
        <ele>537.8</ele>
        <time>2021-05-29T10:18:18Z</time>
      </trkpt>
      <trkpt lat="45.06266" lon="5.78245">
        <ele>538</ele>
        <time>2021-05-29T10:18:19Z</time>
      </trkpt>
      <trkpt lat="45.06266" lon="5.78246">
        <ele>538.2</ele>
        <time>2021-05-29T10:18:20Z</time>
      </trkpt>
      <trkpt lat="45.06266" lon="5.78247">
        <ele>538.6</ele>
        <time>2021-05-29T10:18:21Z</time>
      </trkpt>
      <trkpt lat="45.06266" lon="5.78249">
        <ele>538.8</ele>
        <time>2021-05-29T10:18:22Z</time>
      </trkpt>
      <trkpt lat="45.06266" lon="5.7825">
        <ele>539.2</ele>
        <time>2021-05-29T10:18:23Z</time>
      </trkpt>
      <trkpt lat="45.06266" lon="5.78252">
        <ele>539.4</ele>
        <time>2021-05-29T10:18:24Z</time>
      </trkpt>
      <trkpt lat="45.06266" lon="5.78252">
        <ele>539.6</ele>
        <time>2021-05-29T10:18:25Z</time>
      </trkpt>
      <trkpt lat="45.06265" lon="5.78253">
        <ele>540</ele>
        <time>2021-05-29T10:18:26Z</time>
      </trkpt>
      <trkpt lat="45.06265" lon="5.78253">
        <ele>540.2</ele>
        <time>2021-05-29T10:18:27Z</time>
      </trkpt>
      <trkpt lat="45.06264" lon="5.78254">
        <ele>540.6</ele>
        <time>2021-05-29T10:18:28Z</time>
      </trkpt>
      <trkpt lat="45.06264" lon="5.78255">
        <ele>540.6</ele>
        <time>2021-05-29T10:18:29Z</time>
      </trkpt>
      <trkpt lat="45.06263" lon="5.78255">
        <ele>541</ele>
        <time>2021-05-29T10:18:30Z</time>
      </trkpt>
      <trkpt lat="45.06263" lon="5.78256">
        <ele>541.2</ele>
        <time>2021-05-29T10:18:31Z</time>
      </trkpt>
      <trkpt lat="45.06262" lon="5.78256">
        <ele>541.4</ele>
        <time>2021-05-29T10:18:32Z</time>
      </trkpt>
      <trkpt lat="45.06262" lon="5.78257">
        <ele>541.6</ele>
        <time>2021-05-29T10:18:33Z</time>
      </trkpt>
      <trkpt lat="45.06261" lon="5.78258">
        <ele>541.8</ele>
        <time>2021-05-29T10:18:34Z</time>
      </trkpt>
      <trkpt lat="45.06261" lon="5.78258">
        <ele>542</ele>
        <time>2021-05-29T10:18:35Z</time>
      </trkpt>
      <trkpt lat="45.0626" lon="5.78259">
        <ele>542.2</ele>
        <time>2021-05-29T10:18:36Z</time>
      </trkpt>
      <trkpt lat="45.0626" lon="5.78259">
        <ele>542.4</ele>
        <time>2021-05-29T10:18:37Z</time>
      </trkpt>
      <trkpt lat="45.06259" lon="5.7826">
        <ele>542.6</ele>
        <time>2021-05-29T10:18:38Z</time>
      </trkpt>
      <trkpt lat="45.06259" lon="5.78261">
        <ele>542.8</ele>
        <time>2021-05-29T10:18:39Z</time>
      </trkpt>
      <trkpt lat="45.06258" lon="5.78261">
        <ele>543</ele>
        <time>2021-05-29T10:18:40Z</time>
      </trkpt>
      <trkpt lat="45.06258" lon="5.78262">
        <ele>543.2</ele>
        <time>2021-05-29T10:18:41Z</time>
      </trkpt>
      <trkpt lat="45.06257" lon="5.78263">
        <ele>543.2</ele>
        <time>2021-05-29T10:18:42Z</time>
      </trkpt>
      <trkpt lat="45.06257" lon="5.78263">
        <ele>543.6</ele>
        <time>2021-05-29T10:18:43Z</time>
      </trkpt>
      <trkpt lat="45.06257" lon="5.78264">
        <ele>544.2</ele>
        <time>2021-05-29T10:18:44Z</time>
      </trkpt>
      <trkpt lat="45.06256" lon="5.78265">
        <ele>544.4</ele>
        <time>2021-05-29T10:18:45Z</time>
      </trkpt>
      <trkpt lat="45.06256" lon="5.78265">
        <ele>544.4</ele>
        <time>2021-05-29T10:18:46Z</time>
      </trkpt>
      <trkpt lat="45.06256" lon="5.78266">
        <ele>544.8</ele>
        <time>2021-05-29T10:18:47Z</time>
      </trkpt>
      <trkpt lat="45.06255" lon="5.78267">
        <ele>545</ele>
        <time>2021-05-29T10:18:48Z</time>
      </trkpt>
      <trkpt lat="45.06255" lon="5.78267">
        <ele>545.2</ele>
        <time>2021-05-29T10:18:49Z</time>
      </trkpt>
      <trkpt lat="45.06254" lon="5.78268">
        <ele>545.6</ele>
        <time>2021-05-29T10:18:50Z</time>
      </trkpt>
      <trkpt lat="45.06254" lon="5.78269">
        <ele>545.8</ele>
        <time>2021-05-29T10:18:51Z</time>
      </trkpt>
      <trkpt lat="45.06254" lon="5.78269">
        <ele>546.2</ele>
        <time>2021-05-29T10:18:52Z</time>
      </trkpt>
      <trkpt lat="45.06253" lon="5.7827">
        <ele>546.4</ele>
        <time>2021-05-29T10:18:53Z</time>
      </trkpt>
      <trkpt lat="45.06253" lon="5.78271">
        <ele>546.6</ele>
        <time>2021-05-29T10:18:54Z</time>
      </trkpt>
      <trkpt lat="45.06253" lon="5.78271">
        <ele>546.8</ele>
        <time>2021-05-29T10:18:55Z</time>
      </trkpt>
      <trkpt lat="45.06253" lon="5.78272">
        <ele>547</ele>
        <time>2021-05-29T10:18:56Z</time>
      </trkpt>
      <trkpt lat="45.06252" lon="5.78273">
        <ele>547.2</ele>
        <time>2021-05-29T10:18:57Z</time>
      </trkpt>
      <trkpt lat="45.06252" lon="5.78274">
        <ele>547.6</ele>
        <time>2021-05-29T10:18:58Z</time>
      </trkpt>
      <trkpt lat="45.06252" lon="5.78274">
        <ele>548.2</ele>
        <time>2021-05-29T10:18:59Z</time>
      </trkpt>
      <trkpt lat="45.06252" lon="5.78275">
        <ele>548.2</ele>
        <time>2021-05-29T10:19:00Z</time>
      </trkpt>
      <trkpt lat="45.06252" lon="5.78276">
        <ele>548.6</ele>
        <time>2021-05-29T10:19:01Z</time>
      </trkpt>
      <trkpt lat="45.06252" lon="5.78277">
        <ele>548.8</ele>
        <time>2021-05-29T10:19:02Z</time>
      </trkpt>
      <trkpt lat="45.06252" lon="5.78278">
        <ele>549.4</ele>
        <time>2021-05-29T10:19:03Z</time>
      </trkpt>
      <trkpt lat="45.06252" lon="5.78278">
        <ele>549.8</ele>
        <time>2021-05-29T10:19:04Z</time>
      </trkpt>
      <trkpt lat="45.06252" lon="5.78279">
        <ele>550</ele>
        <time>2021-05-29T10:19:05Z</time>
      </trkpt>
      <trkpt lat="45.06252" lon="5.7828">
        <ele>550.2</ele>
        <time>2021-05-29T10:19:06Z</time>
      </trkpt>
      <trkpt lat="45.06252" lon="5.78281">
        <ele>550.2</ele>
        <time>2021-05-29T10:19:07Z</time>
      </trkpt>
      <trkpt lat="45.06251" lon="5.78282">
        <ele>550.2</ele>
        <time>2021-05-29T10:19:08Z</time>
      </trkpt>
      <trkpt lat="45.06251" lon="5.78282">
        <ele>550.4</ele>
        <time>2021-05-29T10:19:09Z</time>
      </trkpt>
      <trkpt lat="45.06251" lon="5.78283">
        <ele>551</ele>
        <time>2021-05-29T10:19:10Z</time>
      </trkpt>
      <trkpt lat="45.06251" lon="5.78284">
        <ele>551</ele>
        <time>2021-05-29T10:19:11Z</time>
      </trkpt>
      <trkpt lat="45.06252" lon="5.78284">
        <ele>551.2</ele>
        <time>2021-05-29T10:19:12Z</time>
      </trkpt>
      <trkpt lat="45.06252" lon="5.78284">
        <ele>551.2</ele>
        <time>2021-05-29T10:19:13Z</time>
      </trkpt>
      <trkpt lat="45.06252" lon="5.78284">
        <ele>551.6</ele>
        <time>2021-05-29T10:19:14Z</time>
      </trkpt>
      <trkpt lat="45.06253" lon="5.78284">
        <ele>551.6</ele>
        <time>2021-05-29T10:19:15Z</time>
      </trkpt>
      <trkpt lat="45.06253" lon="5.78284">
        <ele>552</ele>
        <time>2021-05-29T10:19:16Z</time>
      </trkpt>
      <trkpt lat="45.06253" lon="5.78284">
        <ele>552.2</ele>
        <time>2021-05-29T10:19:17Z</time>
      </trkpt>
      <trkpt lat="45.06254" lon="5.78284">
        <ele>552.6</ele>
        <time>2021-05-29T10:19:18Z</time>
      </trkpt>
      <trkpt lat="45.06254" lon="5.78284">
        <ele>552.6</ele>
        <time>2021-05-29T10:19:19Z</time>
      </trkpt>
      <trkpt lat="45.06254" lon="5.78284">
        <ele>553</ele>
        <time>2021-05-29T10:19:20Z</time>
      </trkpt>
      <trkpt lat="45.06255" lon="5.78284">
        <ele>553.8</ele>
        <time>2021-05-29T10:19:21Z</time>
      </trkpt>
      <trkpt lat="45.06255" lon="5.78284">
        <ele>553.8</ele>
        <time>2021-05-29T10:19:22Z</time>
      </trkpt>
      <trkpt lat="45.06255" lon="5.78283">
        <ele>554</ele>
        <time>2021-05-29T10:19:23Z</time>
      </trkpt>
      <trkpt lat="45.06256" lon="5.78283">
        <ele>554.4</ele>
        <time>2021-05-29T10:19:24Z</time>
      </trkpt>
      <trkpt lat="45.06256" lon="5.78283">
        <ele>554.6</ele>
        <time>2021-05-29T10:19:25Z</time>
      </trkpt>
      <trkpt lat="45.06256" lon="5.78283">
        <ele>555</ele>
        <time>2021-05-29T10:19:26Z</time>
      </trkpt>
      <trkpt lat="45.06257" lon="5.78283">
        <ele>555</ele>
        <time>2021-05-29T10:19:27Z</time>
      </trkpt>
      <trkpt lat="45.06257" lon="5.78283">
        <ele>555.4</ele>
        <time>2021-05-29T10:19:28Z</time>
      </trkpt>
      <trkpt lat="45.06257" lon="5.78283">
        <ele>555.4</ele>
        <time>2021-05-29T10:19:29Z</time>
      </trkpt>
      <trkpt lat="45.06258" lon="5.78283">
        <ele>555.6</ele>
        <time>2021-05-29T10:19:30Z</time>
      </trkpt>
      <trkpt lat="45.06258" lon="5.78283">
        <ele>555.6</ele>
        <time>2021-05-29T10:19:31Z</time>
      </trkpt>
      <trkpt lat="45.06259" lon="5.78283">
        <ele>556</ele>
        <time>2021-05-29T10:19:32Z</time>
      </trkpt>
      <trkpt lat="45.06259" lon="5.78283">
        <ele>556.4</ele>
        <time>2021-05-29T10:19:33Z</time>
      </trkpt>
      <trkpt lat="45.06259" lon="5.78283">
        <ele>556.6</ele>
        <time>2021-05-29T10:19:34Z</time>
      </trkpt>
      <trkpt lat="45.0626" lon="5.78283">
        <ele>557</ele>
        <time>2021-05-29T10:19:35Z</time>
      </trkpt>
      <trkpt lat="45.0626" lon="5.78283">
        <ele>557.4</ele>
        <time>2021-05-29T10:19:36Z</time>
      </trkpt>
      <trkpt lat="45.0626" lon="5.78283">
        <ele>557.6</ele>
        <time>2021-05-29T10:19:37Z</time>
      </trkpt>
      <trkpt lat="45.06261" lon="5.78283">
        <ele>558</ele>
        <time>2021-05-29T10:19:38Z</time>
      </trkpt>
      <trkpt lat="45.06261" lon="5.78284">
        <ele>558.4</ele>
        <time>2021-05-29T10:19:39Z</time>
      </trkpt>
      <trkpt lat="45.06262" lon="5.78285">
        <ele>558.6</ele>
        <time>2021-05-29T10:19:40Z</time>
      </trkpt>
      <trkpt lat="45.06262" lon="5.78286">
        <ele>558.8</ele>
        <time>2021-05-29T10:19:41Z</time>
      </trkpt>
      <trkpt lat="45.06263" lon="5.78287">
        <ele>559.2</ele>
        <time>2021-05-29T10:19:42Z</time>
      </trkpt>
      <trkpt lat="45.06264" lon="5.78288">
        <ele>559.4</ele>
        <time>2021-05-29T10:19:43Z</time>
      </trkpt>
      <trkpt lat="45.06264" lon="5.78289">
        <ele>559.6</ele>
        <time>2021-05-29T10:19:44Z</time>
      </trkpt>
      <trkpt lat="45.06265" lon="5.7829">
        <ele>560</ele>
        <time>2021-05-29T10:19:45Z</time>
      </trkpt>
      <trkpt lat="45.06265" lon="5.78291">
        <ele>560.2</ele>
        <time>2021-05-29T10:19:46Z</time>
      </trkpt>
      <trkpt lat="45.06266" lon="5.78292">
        <ele>560.6</ele>
        <time>2021-05-29T10:19:47Z</time>
      </trkpt>
      <trkpt lat="45.06266" lon="5.78293">
        <ele>560.8</ele>
        <time>2021-05-29T10:19:48Z</time>
      </trkpt>
      <trkpt lat="45.06267" lon="5.78293">
        <ele>561.2</ele>
        <time>2021-05-29T10:19:49Z</time>
      </trkpt>
      <trkpt lat="45.06267" lon="5.78293">
        <ele>561.6</ele>
        <time>2021-05-29T10:19:50Z</time>
      </trkpt>
      <trkpt lat="45.06268" lon="5.78294">
        <ele>561.6</ele>
        <time>2021-05-29T10:19:51Z</time>
      </trkpt>
      <trkpt lat="45.06268" lon="5.78294">
        <ele>561.8</ele>
        <time>2021-05-29T10:19:52Z</time>
      </trkpt>
      <trkpt lat="45.06269" lon="5.78294">
        <ele>562.2</ele>
        <time>2021-05-29T10:19:53Z</time>
      </trkpt>
      <trkpt lat="45.06269" lon="5.78295">
        <ele>562.6</ele>
        <time>2021-05-29T10:19:54Z</time>
      </trkpt>
      <trkpt lat="45.0627" lon="5.78295">
        <ele>562.8</ele>
        <time>2021-05-29T10:19:55Z</time>
      </trkpt>
      <trkpt lat="45.0627" lon="5.78295">
        <ele>563</ele>
        <time>2021-05-29T10:19:56Z</time>
      </trkpt>
      <trkpt lat="45.0627" lon="5.78295">
        <ele>563.2</ele>
        <time>2021-05-29T10:19:57Z</time>
      </trkpt>
      <trkpt lat="45.06271" lon="5.78296">
        <ele>563.4</ele>
        <time>2021-05-29T10:19:58Z</time>
      </trkpt>
      <trkpt lat="45.06271" lon="5.78296">
        <ele>564</ele>
        <time>2021-05-29T10:20:00Z</time>
      </trkpt>
      <trkpt lat="45.06272" lon="5.78296">
        <ele>564</ele>
        <time>2021-05-29T10:20:01Z</time>
      </trkpt>
      <trkpt lat="45.06272" lon="5.78297">
        <ele>564.4</ele>
        <time>2021-05-29T10:20:02Z</time>
      </trkpt>
      <trkpt lat="45.06273" lon="5.78297">
        <ele>564.6</ele>
        <time>2021-05-29T10:20:03Z</time>
      </trkpt>
      <trkpt lat="45.06273" lon="5.78297">
        <ele>564.6</ele>
        <time>2021-05-29T10:20:04Z</time>
      </trkpt>
      <trkpt lat="45.06274" lon="5.78297">
        <ele>565</ele>
        <time>2021-05-29T10:20:05Z</time>
      </trkpt>
      <trkpt lat="45.06274" lon="5.78298">
        <ele>565.4</ele>
        <time>2021-05-29T10:20:06Z</time>
      </trkpt>
      <trkpt lat="45.06274" lon="5.78298">
        <ele>566</ele>
        <time>2021-05-29T10:20:07Z</time>
      </trkpt>
      <trkpt lat="45.06275" lon="5.78298">
        <ele>566.6</ele>
        <time>2021-05-29T10:20:08Z</time>
      </trkpt>
      <trkpt lat="45.06275" lon="5.78299">
        <ele>567</ele>
        <time>2021-05-29T10:20:09Z</time>
      </trkpt>
      <trkpt lat="45.06276" lon="5.783">
        <ele>567.2</ele>
        <time>2021-05-29T10:20:10Z</time>
      </trkpt>
      <trkpt lat="45.06277" lon="5.783">
        <ele>567.4</ele>
        <time>2021-05-29T10:20:11Z</time>
      </trkpt>
      <trkpt lat="45.06277" lon="5.78301">
        <ele>567.8</ele>
        <time>2021-05-29T10:20:12Z</time>
      </trkpt>
      <trkpt lat="45.06278" lon="5.78302">
        <ele>568.2</ele>
        <time>2021-05-29T10:20:13Z</time>
      </trkpt>
      <trkpt lat="45.06279" lon="5.78303">
        <ele>568.4</ele>
        <time>2021-05-29T10:20:14Z</time>
      </trkpt>
      <trkpt lat="45.0628" lon="5.78304">
        <ele>568.4</ele>
        <time>2021-05-29T10:20:15Z</time>
      </trkpt>
      <trkpt lat="45.0628" lon="5.78305">
        <ele>568.4</ele>
        <time>2021-05-29T10:20:16Z</time>
      </trkpt>
      <trkpt lat="45.06281" lon="5.78306">
        <ele>568.6</ele>
        <time>2021-05-29T10:20:17Z</time>
      </trkpt>
      <trkpt lat="45.06282" lon="5.78307">
        <ele>569</ele>
        <time>2021-05-29T10:20:18Z</time>
      </trkpt>
      <trkpt lat="45.06282" lon="5.78307">
        <ele>569.4</ele>
        <time>2021-05-29T10:20:19Z</time>
      </trkpt>
      <trkpt lat="45.06283" lon="5.78307">
        <ele>569.6</ele>
        <time>2021-05-29T10:20:20Z</time>
      </trkpt>
      <trkpt lat="45.06283" lon="5.78307">
        <ele>569.6</ele>
        <time>2021-05-29T10:20:21Z</time>
      </trkpt>
      <trkpt lat="45.06284" lon="5.78307">
        <ele>570</ele>
        <time>2021-05-29T10:20:22Z</time>
      </trkpt>
      <trkpt lat="45.06285" lon="5.78307">
        <ele>570</ele>
        <time>2021-05-29T10:20:23Z</time>
      </trkpt>
      <trkpt lat="45.06285" lon="5.78307">
        <ele>570.4</ele>
        <time>2021-05-29T10:20:24Z</time>
      </trkpt>
      <trkpt lat="45.06286" lon="5.78307">
        <ele>570.8</ele>
        <time>2021-05-29T10:20:25Z</time>
      </trkpt>
      <trkpt lat="45.06286" lon="5.78307">
        <ele>570.8</ele>
        <time>2021-05-29T10:20:26Z</time>
      </trkpt>
      <trkpt lat="45.06287" lon="5.78307">
        <ele>571.2</ele>
        <time>2021-05-29T10:20:27Z</time>
      </trkpt>
      <trkpt lat="45.06287" lon="5.78307">
        <ele>571.4</ele>
        <time>2021-05-29T10:20:28Z</time>
      </trkpt>
      <trkpt lat="45.06288" lon="5.78307">
        <ele>571.6</ele>
        <time>2021-05-29T10:20:29Z</time>
      </trkpt>
      <trkpt lat="45.06288" lon="5.78307">
        <ele>572</ele>
        <time>2021-05-29T10:20:30Z</time>
      </trkpt>
      <trkpt lat="45.06289" lon="5.78307">
        <ele>572.2</ele>
        <time>2021-05-29T10:20:31Z</time>
      </trkpt>
      <trkpt lat="45.06289" lon="5.78307">
        <ele>572.6</ele>
        <time>2021-05-29T10:20:32Z</time>
      </trkpt>
      <trkpt lat="45.0629" lon="5.78307">
        <ele>573</ele>
        <time>2021-05-29T10:20:33Z</time>
      </trkpt>
      <trkpt lat="45.0629" lon="5.78307">
        <ele>573.2</ele>
        <time>2021-05-29T10:20:34Z</time>
      </trkpt>
      <trkpt lat="45.06291" lon="5.78307">
        <ele>573.4</ele>
        <time>2021-05-29T10:20:35Z</time>
      </trkpt>
      <trkpt lat="45.06292" lon="5.78307">
        <ele>574</ele>
        <time>2021-05-29T10:20:36Z</time>
      </trkpt>
      <trkpt lat="45.06292" lon="5.78307">
        <ele>574.4</ele>
        <time>2021-05-29T10:20:37Z</time>
      </trkpt>
      <trkpt lat="45.06293" lon="5.78307">
        <ele>574.4</ele>
        <time>2021-05-29T10:20:38Z</time>
      </trkpt>
      <trkpt lat="45.06293" lon="5.78306">
        <ele>574.6</ele>
        <time>2021-05-29T10:20:39Z</time>
      </trkpt>
      <trkpt lat="45.06294" lon="5.78306">
        <ele>574.8</ele>
        <time>2021-05-29T10:20:40Z</time>
      </trkpt>
      <trkpt lat="45.06294" lon="5.78306">
        <ele>575.2</ele>
        <time>2021-05-29T10:20:41Z</time>
      </trkpt>
      <trkpt lat="45.06295" lon="5.78306">
        <ele>575.6</ele>
        <time>2021-05-29T10:20:42Z</time>
      </trkpt>
      <trkpt lat="45.06295" lon="5.78306">
        <ele>575.8</ele>
        <time>2021-05-29T10:20:43Z</time>
      </trkpt>
      <trkpt lat="45.06296" lon="5.78306">
        <ele>576.2</ele>
        <time>2021-05-29T10:20:44Z</time>
      </trkpt>
      <trkpt lat="45.06297" lon="5.78306">
        <ele>576.2</ele>
        <time>2021-05-29T10:20:45Z</time>
      </trkpt>
      <trkpt lat="45.06297" lon="5.78306">
        <ele>576.6</ele>
        <time>2021-05-29T10:20:46Z</time>
      </trkpt>
      <trkpt lat="45.06298" lon="5.78306">
        <ele>576.8</ele>
        <time>2021-05-29T10:20:47Z</time>
      </trkpt>
      <trkpt lat="45.06298" lon="5.78306">
        <ele>577.2</ele>
        <time>2021-05-29T10:20:48Z</time>
      </trkpt>
      <trkpt lat="45.06299" lon="5.78306">
        <ele>577.6</ele>
        <time>2021-05-29T10:20:49Z</time>
      </trkpt>
      <trkpt lat="45.06299" lon="5.78306">
        <ele>577.8</ele>
        <time>2021-05-29T10:20:50Z</time>
      </trkpt>
      <trkpt lat="45.063" lon="5.78306">
        <ele>578</ele>
        <time>2021-05-29T10:20:51Z</time>
      </trkpt>
      <trkpt lat="45.063" lon="5.78306">
        <ele>578</ele>
        <time>2021-05-29T10:20:52Z</time>
      </trkpt>
      <trkpt lat="45.06301" lon="5.78305">
        <ele>578.2</ele>
        <time>2021-05-29T10:20:53Z</time>
      </trkpt>
      <trkpt lat="45.06302" lon="5.78305">
        <ele>578.4</ele>
        <time>2021-05-29T10:20:54Z</time>
      </trkpt>
      <trkpt lat="45.06302" lon="5.78305">
        <ele>578.8</ele>
        <time>2021-05-29T10:20:55Z</time>
      </trkpt>
      <trkpt lat="45.06303" lon="5.78305">
        <ele>579</ele>
        <time>2021-05-29T10:20:56Z</time>
      </trkpt>
      <trkpt lat="45.06304" lon="5.78304">
        <ele>579.2</ele>
        <time>2021-05-29T10:20:57Z</time>
      </trkpt>
      <trkpt lat="45.06305" lon="5.78304">
        <ele>579.2</ele>
        <time>2021-05-29T10:20:58Z</time>
      </trkpt>
      <trkpt lat="45.06306" lon="5.78304">
        <ele>579.6</ele>
        <time>2021-05-29T10:20:59Z</time>
      </trkpt>
      <trkpt lat="45.06306" lon="5.78304">
        <ele>580</ele>
        <time>2021-05-29T10:21:00Z</time>
      </trkpt>
      <trkpt lat="45.06307" lon="5.78303">
        <ele>580</ele>
        <time>2021-05-29T10:21:01Z</time>
      </trkpt>
      <trkpt lat="45.06308" lon="5.78303">
        <ele>580.2</ele>
        <time>2021-05-29T10:21:02Z</time>
      </trkpt>
      <trkpt lat="45.06309" lon="5.78303">
        <ele>580.4</ele>
        <time>2021-05-29T10:21:03Z</time>
      </trkpt>
      <trkpt lat="45.06309" lon="5.78303">
        <ele>580.8</ele>
        <time>2021-05-29T10:21:04Z</time>
      </trkpt>
      <trkpt lat="45.0631" lon="5.78302">
        <ele>581</ele>
        <time>2021-05-29T10:21:05Z</time>
      </trkpt>
      <trkpt lat="45.06311" lon="5.78302">
        <ele>581.2</ele>
        <time>2021-05-29T10:21:06Z</time>
      </trkpt>
      <trkpt lat="45.06312" lon="5.78303">
        <ele>581.4</ele>
        <time>2021-05-29T10:21:07Z</time>
      </trkpt>
      <trkpt lat="45.06313" lon="5.78303">
        <ele>581.6</ele>
        <time>2021-05-29T10:21:08Z</time>
      </trkpt>
      <trkpt lat="45.06314" lon="5.78303">
        <ele>582</ele>
        <time>2021-05-29T10:21:09Z</time>
      </trkpt>
      <trkpt lat="45.06315" lon="5.78303">
        <ele>582.4</ele>
        <time>2021-05-29T10:21:10Z</time>
      </trkpt>
      <trkpt lat="45.06316" lon="5.78303">
        <ele>582.4</ele>
        <time>2021-05-29T10:21:11Z</time>
      </trkpt>
      <trkpt lat="45.06317" lon="5.78303">
        <ele>582.6</ele>
        <time>2021-05-29T10:21:12Z</time>
      </trkpt>
      <trkpt lat="45.06318" lon="5.78303">
        <ele>583</ele>
        <time>2021-05-29T10:21:13Z</time>
      </trkpt>
      <trkpt lat="45.06319" lon="5.78304">
        <ele>583.2</ele>
        <time>2021-05-29T10:21:14Z</time>
      </trkpt>
      <trkpt lat="45.0632" lon="5.78303">
        <ele>583.4</ele>
        <time>2021-05-29T10:21:15Z</time>
      </trkpt>
      <trkpt lat="45.06321" lon="5.78302">
        <ele>583.6</ele>
        <time>2021-05-29T10:21:16Z</time>
      </trkpt>
      <trkpt lat="45.06322" lon="5.78302">
        <ele>583.8</ele>
        <time>2021-05-29T10:21:17Z</time>
      </trkpt>
      <trkpt lat="45.06322" lon="5.78301">
        <ele>583.8</ele>
        <time>2021-05-29T10:21:18Z</time>
      </trkpt>
      <trkpt lat="45.06323" lon="5.783">
        <ele>583.8</ele>
        <time>2021-05-29T10:21:19Z</time>
      </trkpt>
      <trkpt lat="45.06324" lon="5.783">
        <ele>584</ele>
        <time>2021-05-29T10:21:20Z</time>
      </trkpt>
      <trkpt lat="45.06325" lon="5.78299">
        <ele>584.2</ele>
        <time>2021-05-29T10:21:21Z</time>
      </trkpt>
      <trkpt lat="45.06325" lon="5.78299">
        <ele>584.2</ele>
        <time>2021-05-29T10:21:22Z</time>
      </trkpt>
      <trkpt lat="45.06326" lon="5.78298">
        <ele>584.2</ele>
        <time>2021-05-29T10:21:23Z</time>
      </trkpt>
      <trkpt lat="45.06327" lon="5.78297">
        <ele>584.4</ele>
        <time>2021-05-29T10:21:24Z</time>
      </trkpt>
      <trkpt lat="45.06328" lon="5.78297">
        <ele>584.4</ele>
        <time>2021-05-29T10:21:25Z</time>
      </trkpt>
      <trkpt lat="45.06328" lon="5.78296">
        <ele>584.8</ele>
        <time>2021-05-29T10:21:26Z</time>
      </trkpt>
      <trkpt lat="45.0633" lon="5.78295">
        <ele>584.8</ele>
        <time>2021-05-29T10:21:27Z</time>
      </trkpt>
      <trkpt lat="45.06331" lon="5.78295">
        <ele>585.2</ele>
        <time>2021-05-29T10:21:28Z</time>
      </trkpt>
      <trkpt lat="45.06332" lon="5.78294">
        <ele>585.2</ele>
        <time>2021-05-29T10:21:29Z</time>
      </trkpt>
      <trkpt lat="45.06333" lon="5.78294">
        <ele>585.6</ele>
        <time>2021-05-29T10:21:30Z</time>
      </trkpt>
      <trkpt lat="45.06334" lon="5.78293">
        <ele>585.8</ele>
        <time>2021-05-29T10:21:31Z</time>
      </trkpt>
      <trkpt lat="45.06336" lon="5.78293">
        <ele>586</ele>
        <time>2021-05-29T10:21:32Z</time>
      </trkpt>
      <trkpt lat="45.06337" lon="5.78292">
        <ele>586</ele>
        <time>2021-05-29T10:21:33Z</time>
      </trkpt>
      <trkpt lat="45.06338" lon="5.78292">
        <ele>586</ele>
        <time>2021-05-29T10:21:34Z</time>
      </trkpt>
      <trkpt lat="45.0634" lon="5.78291">
        <ele>586.2</ele>
        <time>2021-05-29T10:21:35Z</time>
      </trkpt>
      <trkpt lat="45.06341" lon="5.78291">
        <ele>586.2</ele>
        <time>2021-05-29T10:21:36Z</time>
      </trkpt>
      <trkpt lat="45.06343" lon="5.78291">
        <ele>586.4</ele>
        <time>2021-05-29T10:21:37Z</time>
      </trkpt>
      <trkpt lat="45.06345" lon="5.78291">
        <ele>586.4</ele>
        <time>2021-05-29T10:21:38Z</time>
      </trkpt>
      <trkpt lat="45.06346" lon="5.78291">
        <ele>586.4</ele>
        <time>2021-05-29T10:21:39Z</time>
      </trkpt>
      <trkpt lat="45.06348" lon="5.78291">
        <ele>586.4</ele>
        <time>2021-05-29T10:21:40Z</time>
      </trkpt>
      <trkpt lat="45.06349" lon="5.7829">
        <ele>586.6</ele>
        <time>2021-05-29T10:21:41Z</time>
      </trkpt>
      <trkpt lat="45.06351" lon="5.78289">
        <ele>586.8</ele>
        <time>2021-05-29T10:21:42Z</time>
      </trkpt>
      <trkpt lat="45.06352" lon="5.78289">
        <ele>586.8</ele>
        <time>2021-05-29T10:21:43Z</time>
      </trkpt>
      <trkpt lat="45.06353" lon="5.78288">
        <ele>587</ele>
        <time>2021-05-29T10:21:44Z</time>
      </trkpt>
      <trkpt lat="45.06354" lon="5.78288">
        <ele>587</ele>
        <time>2021-05-29T10:21:45Z</time>
      </trkpt>
      <trkpt lat="45.06356" lon="5.78287">
        <ele>587.2</ele>
        <time>2021-05-29T10:21:46Z</time>
      </trkpt>
      <trkpt lat="45.06357" lon="5.78286">
        <ele>587.2</ele>
        <time>2021-05-29T10:21:47Z</time>
      </trkpt>
      <trkpt lat="45.06358" lon="5.78287">
        <ele>587.2</ele>
        <time>2021-05-29T10:21:48Z</time>
      </trkpt>
      <trkpt lat="45.06359" lon="5.78287">
        <ele>587.6</ele>
        <time>2021-05-29T10:21:49Z</time>
      </trkpt>
      <trkpt lat="45.06361" lon="5.78287">
        <ele>587.8</ele>
        <time>2021-05-29T10:21:50Z</time>
      </trkpt>
      <trkpt lat="45.06362" lon="5.78288">
        <ele>588</ele>
        <time>2021-05-29T10:21:51Z</time>
      </trkpt>
      <trkpt lat="45.06363" lon="5.78288">
        <ele>588</ele>
        <time>2021-05-29T10:21:52Z</time>
      </trkpt>
      <trkpt lat="45.06364" lon="5.78289">
        <ele>588.2</ele>
        <time>2021-05-29T10:21:53Z</time>
      </trkpt>
      <trkpt lat="45.06365" lon="5.78289">
        <ele>588.4</ele>
        <time>2021-05-29T10:21:54Z</time>
      </trkpt>
      <trkpt lat="45.06367" lon="5.78289">
        <ele>588.4</ele>
        <time>2021-05-29T10:21:55Z</time>
      </trkpt>
      <trkpt lat="45.06368" lon="5.7829">
        <ele>588.6</ele>
        <time>2021-05-29T10:21:56Z</time>
      </trkpt>
      <trkpt lat="45.06369" lon="5.7829">
        <ele>588.6</ele>
        <time>2021-05-29T10:21:57Z</time>
      </trkpt>
      <trkpt lat="45.06371" lon="5.7829">
        <ele>588.8</ele>
        <time>2021-05-29T10:21:58Z</time>
      </trkpt>
      <trkpt lat="45.06372" lon="5.7829">
        <ele>588.8</ele>
        <time>2021-05-29T10:21:59Z</time>
      </trkpt>
      <trkpt lat="45.06374" lon="5.7829">
        <ele>589</ele>
        <time>2021-05-29T10:22:00Z</time>
      </trkpt>
      <trkpt lat="45.06375" lon="5.78291">
        <ele>589.2</ele>
        <time>2021-05-29T10:22:01Z</time>
      </trkpt>
      <trkpt lat="45.06377" lon="5.78291">
        <ele>589.6</ele>
        <time>2021-05-29T10:22:02Z</time>
      </trkpt>
      <trkpt lat="45.06378" lon="5.78291">
        <ele>589.6</ele>
        <time>2021-05-29T10:22:03Z</time>
      </trkpt>
      <trkpt lat="45.06379" lon="5.78292">
        <ele>589.8</ele>
        <time>2021-05-29T10:22:04Z</time>
      </trkpt>
      <trkpt lat="45.0638" lon="5.78293">
        <ele>590</ele>
        <time>2021-05-29T10:22:05Z</time>
      </trkpt>
      <trkpt lat="45.06382" lon="5.78293">
        <ele>589.8</ele>
        <time>2021-05-29T10:22:06Z</time>
      </trkpt>
      <trkpt lat="45.06383" lon="5.78294">
        <ele>590</ele>
        <time>2021-05-29T10:22:07Z</time>
      </trkpt>
      <trkpt lat="45.06384" lon="5.78295">
        <ele>590</ele>
        <time>2021-05-29T10:22:08Z</time>
      </trkpt>
      <trkpt lat="45.06385" lon="5.78295">
        <ele>590.2</ele>
        <time>2021-05-29T10:22:09Z</time>
      </trkpt>
      <trkpt lat="45.06386" lon="5.78296">
        <ele>590.2</ele>
        <time>2021-05-29T10:22:10Z</time>
      </trkpt>
      <trkpt lat="45.06388" lon="5.78298">
        <ele>590.4</ele>
        <time>2021-05-29T10:22:11Z</time>
      </trkpt>
      <trkpt lat="45.06389" lon="5.78299">
        <ele>590.4</ele>
        <time>2021-05-29T10:22:12Z</time>
      </trkpt>
      <trkpt lat="45.06391" lon="5.78301">
        <ele>590.4</ele>
        <time>2021-05-29T10:22:13Z</time>
      </trkpt>
      <trkpt lat="45.06392" lon="5.78303">
        <ele>590.4</ele>
        <time>2021-05-29T10:22:14Z</time>
      </trkpt>
      <trkpt lat="45.06394" lon="5.78304">
        <ele>590.6</ele>
        <time>2021-05-29T10:22:15Z</time>
      </trkpt>
      <trkpt lat="45.06395" lon="5.78305">
        <ele>590.8</ele>
        <time>2021-05-29T10:22:16Z</time>
      </trkpt>
      <trkpt lat="45.06396" lon="5.78305">
        <ele>591</ele>
        <time>2021-05-29T10:22:17Z</time>
      </trkpt>
      <trkpt lat="45.06397" lon="5.78306">
        <ele>591</ele>
        <time>2021-05-29T10:22:18Z</time>
      </trkpt>
      <trkpt lat="45.06398" lon="5.78306">
        <ele>590.6</ele>
        <time>2021-05-29T10:22:19Z</time>
      </trkpt>
      <trkpt lat="45.06399" lon="5.78307">
        <ele>590.2</ele>
        <time>2021-05-29T10:22:20Z</time>
      </trkpt>
      <trkpt lat="45.064" lon="5.78307">
        <ele>590.2</ele>
        <time>2021-05-29T10:22:21Z</time>
      </trkpt>
      <trkpt lat="45.06401" lon="5.78308">
        <ele>590</ele>
        <time>2021-05-29T10:22:22Z</time>
      </trkpt>
      <trkpt lat="45.06402" lon="5.78308">
        <ele>589.4</ele>
        <time>2021-05-29T10:22:23Z</time>
      </trkpt>
      <trkpt lat="45.06404" lon="5.78309">
        <ele>589.6</ele>
        <time>2021-05-29T10:22:24Z</time>
      </trkpt>
      <trkpt lat="45.06405" lon="5.78309">
        <ele>589</ele>
        <time>2021-05-29T10:22:25Z</time>
      </trkpt>
      <trkpt lat="45.06407" lon="5.7831">
        <ele>588.8</ele>
        <time>2021-05-29T10:22:26Z</time>
      </trkpt>
      <trkpt lat="45.06409" lon="5.78311">
        <ele>588.6</ele>
        <time>2021-05-29T10:22:27Z</time>
      </trkpt>
      <trkpt lat="45.0641" lon="5.78311">
        <ele>588.4</ele>
        <time>2021-05-29T10:22:28Z</time>
      </trkpt>
      <trkpt lat="45.06412" lon="5.78312">
        <ele>588</ele>
        <time>2021-05-29T10:22:29Z</time>
      </trkpt>
      <trkpt lat="45.06414" lon="5.78311">
        <ele>587.8</ele>
        <time>2021-05-29T10:22:30Z</time>
      </trkpt>
      <trkpt lat="45.06416" lon="5.78309">
        <ele>587.2</ele>
        <time>2021-05-29T10:22:31Z</time>
      </trkpt>
      <trkpt lat="45.06418" lon="5.78308">
        <ele>587</ele>
        <time>2021-05-29T10:22:32Z</time>
      </trkpt>
      <trkpt lat="45.06421" lon="5.78307">
        <ele>586.4</ele>
        <time>2021-05-29T10:22:33Z</time>
      </trkpt>
      <trkpt lat="45.06429" lon="5.78304">
        <ele>586.4</ele>
        <time>2021-05-29T10:22:34Z</time>
      </trkpt>
      <trkpt lat="45.06429" lon="5.78304">
        <ele>586</ele>
        <time>2021-05-29T10:22:35Z</time>
      </trkpt>
      <trkpt lat="45.06429" lon="5.78304">
        <ele>586</ele>
        <time>2021-05-29T10:22:36Z</time>
      </trkpt>
      <trkpt lat="45.06432" lon="5.78302">
        <ele>585.6</ele>
        <time>2021-05-29T10:22:37Z</time>
      </trkpt>
      <trkpt lat="45.06434" lon="5.783">
        <ele>585.6</ele>
        <time>2021-05-29T10:22:38Z</time>
      </trkpt>
      <trkpt lat="45.06437" lon="5.78298">
        <ele>585.2</ele>
        <time>2021-05-29T10:22:39Z</time>
      </trkpt>
      <trkpt lat="45.06439" lon="5.78296">
        <ele>585.4</ele>
        <time>2021-05-29T10:22:40Z</time>
      </trkpt>
      <trkpt lat="45.06441" lon="5.78295">
        <ele>585.2</ele>
        <time>2021-05-29T10:22:41Z</time>
      </trkpt>
      <trkpt lat="45.06443" lon="5.78293">
        <ele>585.2</ele>
        <time>2021-05-29T10:22:42Z</time>
      </trkpt>
      <trkpt lat="45.06445" lon="5.78292">
        <ele>585.2</ele>
        <time>2021-05-29T10:22:43Z</time>
      </trkpt>
      <trkpt lat="45.06447" lon="5.78291">
        <ele>585.4</ele>
        <time>2021-05-29T10:22:44Z</time>
      </trkpt>
      <trkpt lat="45.06449" lon="5.78289">
        <ele>585.6</ele>
        <time>2021-05-29T10:22:45Z</time>
      </trkpt>
      <trkpt lat="45.0645" lon="5.78287">
        <ele>586</ele>
        <time>2021-05-29T10:22:46Z</time>
      </trkpt>
      <trkpt lat="45.06451" lon="5.78286">
        <ele>586.2</ele>
        <time>2021-05-29T10:22:47Z</time>
      </trkpt>
      <trkpt lat="45.06453" lon="5.78284">
        <ele>586.8</ele>
        <time>2021-05-29T10:22:48Z</time>
      </trkpt>
      <trkpt lat="45.06454" lon="5.78282">
        <ele>587</ele>
        <time>2021-05-29T10:22:49Z</time>
      </trkpt>
      <trkpt lat="45.06455" lon="5.7828">
        <ele>587</ele>
        <time>2021-05-29T10:22:50Z</time>
      </trkpt>
      <trkpt lat="45.06457" lon="5.78281">
        <ele>587.2</ele>
        <time>2021-05-29T10:22:51Z</time>
      </trkpt>
      <trkpt lat="45.06459" lon="5.78282">
        <ele>587.6</ele>
        <time>2021-05-29T10:22:52Z</time>
      </trkpt>
      <trkpt lat="45.06461" lon="5.78283">
        <ele>587.8</ele>
        <time>2021-05-29T10:22:53Z</time>
      </trkpt>
      <trkpt lat="45.06463" lon="5.78284">
        <ele>588</ele>
        <time>2021-05-29T10:22:54Z</time>
      </trkpt>
      <trkpt lat="45.06465" lon="5.78284">
        <ele>588.4</ele>
        <time>2021-05-29T10:22:55Z</time>
      </trkpt>
      <trkpt lat="45.06467" lon="5.78285">
        <ele>588.4</ele>
        <time>2021-05-29T10:22:56Z</time>
      </trkpt>
      <trkpt lat="45.06469" lon="5.78286">
        <ele>588.6</ele>
        <time>2021-05-29T10:22:57Z</time>
      </trkpt>
      <trkpt lat="45.06472" lon="5.78278">
        <ele>588.6</ele>
        <time>2021-05-29T10:22:58Z</time>
      </trkpt>
      <trkpt lat="45.06475" lon="5.7827">
        <ele>588.8</ele>
        <time>2021-05-29T10:22:59Z</time>
      </trkpt>
      <trkpt lat="45.06479" lon="5.78258">
        <ele>588.8</ele>
        <time>2021-05-29T10:39:00Z</time>
      </trkpt>
      <trkpt lat="45.06481" lon="5.78253">
        <ele>572.2</ele>
        <time>2021-05-29T10:39:01Z</time>
      </trkpt>
      <trkpt lat="45.06484" lon="5.78245">
        <ele>572.4</ele>
        <time>2021-05-29T10:39:02Z</time>
      </trkpt>
      <trkpt lat="45.06487" lon="5.78237">
        <ele>572.6</ele>
        <time>2021-05-29T10:39:03Z</time>
      </trkpt>
      <trkpt lat="45.06486" lon="5.78239">
        <ele>572.8</ele>
        <time>2021-05-29T10:39:04Z</time>
      </trkpt>
      <trkpt lat="45.06485" lon="5.7824">
        <ele>573</ele>
        <time>2021-05-29T10:39:05Z</time>
      </trkpt>
      <trkpt lat="45.06485" lon="5.78242">
        <ele>572.8</ele>
        <time>2021-05-29T10:39:06Z</time>
      </trkpt>
      <trkpt lat="45.06484" lon="5.78244">
        <ele>572.8</ele>
        <time>2021-05-29T10:39:07Z</time>
      </trkpt>
      <trkpt lat="45.06483" lon="5.78245">
        <ele>572.8</ele>
        <time>2021-05-29T10:39:08Z</time>
      </trkpt>
      <trkpt lat="45.06483" lon="5.78247">
        <ele>572.8</ele>
        <time>2021-05-29T10:39:09Z</time>
      </trkpt>
      <trkpt lat="45.06482" lon="5.78249">
        <ele>573</ele>
        <time>2021-05-29T10:39:10Z</time>
      </trkpt>
      <trkpt lat="45.06483" lon="5.78248">
        <ele>573.2</ele>
        <time>2021-05-29T10:39:11Z</time>
      </trkpt>
      <trkpt lat="45.06483" lon="5.78248">
        <ele>573.2</ele>
        <time>2021-05-29T10:39:12Z</time>
      </trkpt>
      <trkpt lat="45.06484" lon="5.78247">
        <ele>573.4</ele>
        <time>2021-05-29T10:39:13Z</time>
      </trkpt>
      <trkpt lat="45.06484" lon="5.78247">
        <ele>573.6</ele>
        <time>2021-05-29T10:39:14Z</time>
      </trkpt>
      <trkpt lat="45.06484" lon="5.78247">
        <ele>573.8</ele>
        <time>2021-05-29T10:39:15Z</time>
      </trkpt>
      <trkpt lat="45.06485" lon="5.78246">
        <ele>574.2</ele>
        <time>2021-05-29T10:39:16Z</time>
      </trkpt>
      <trkpt lat="45.06485" lon="5.78246">
        <ele>574.4</ele>
        <time>2021-05-29T10:39:17Z</time>
      </trkpt>
      <trkpt lat="45.06486" lon="5.78245">
        <ele>574.2</ele>
        <time>2021-05-29T10:39:18Z</time>
      </trkpt>
      <trkpt lat="45.06486" lon="5.78245">
        <ele>574.2</ele>
        <time>2021-05-29T10:39:19Z</time>
      </trkpt>
      <trkpt lat="45.06487" lon="5.78245">
        <ele>574</ele>
        <time>2021-05-29T10:39:20Z</time>
      </trkpt>
      <trkpt lat="45.06487" lon="5.78244">
        <ele>574.2</ele>
        <time>2021-05-29T10:39:21Z</time>
      </trkpt>
      <trkpt lat="45.06488" lon="5.78244">
        <ele>574.2</ele>
        <time>2021-05-29T10:39:22Z</time>
      </trkpt>
      <trkpt lat="45.06488" lon="5.78243">
        <ele>574.2</ele>
        <time>2021-05-29T10:39:23Z</time>
      </trkpt>
      <trkpt lat="45.06489" lon="5.78243">
        <ele>574.2</ele>
        <time>2021-05-29T10:39:24Z</time>
      </trkpt>
      <trkpt lat="45.06489" lon="5.78242">
        <ele>574.2</ele>
        <time>2021-05-29T10:39:25Z</time>
      </trkpt>
      <trkpt lat="45.06489" lon="5.78242">
        <ele>574.2</ele>
        <time>2021-05-29T10:39:26Z</time>
      </trkpt>
      <trkpt lat="45.0649" lon="5.78242">
        <ele>574.8</ele>
        <time>2021-05-29T10:39:27Z</time>
      </trkpt>
      <trkpt lat="45.0649" lon="5.78241">
        <ele>575</ele>
        <time>2021-05-29T10:39:28Z</time>
      </trkpt>
      <trkpt lat="45.06491" lon="5.78241">
        <ele>575.2</ele>
        <time>2021-05-29T10:39:29Z</time>
      </trkpt>
      <trkpt lat="45.06492" lon="5.78242">
        <ele>575.2</ele>
        <time>2021-05-29T10:39:30Z</time>
      </trkpt>
      <trkpt lat="45.06492" lon="5.78242">
        <ele>575.2</ele>
        <time>2021-05-29T10:39:31Z</time>
      </trkpt>
      <trkpt lat="45.06493" lon="5.78242">
        <ele>575.2</ele>
        <time>2021-05-29T10:39:32Z</time>
      </trkpt>
      <trkpt lat="45.06494" lon="5.78242">
        <ele>575.4</ele>
        <time>2021-05-29T10:39:33Z</time>
      </trkpt>
      <trkpt lat="45.06494" lon="5.78243">
        <ele>575.4</ele>
        <time>2021-05-29T10:39:34Z</time>
      </trkpt>
      <trkpt lat="45.06495" lon="5.78243">
        <ele>575.6</ele>
        <time>2021-05-29T10:39:35Z</time>
      </trkpt>
      <trkpt lat="45.06496" lon="5.78243">
        <ele>575.4</ele>
        <time>2021-05-29T10:39:36Z</time>
      </trkpt>
      <trkpt lat="45.06496" lon="5.78243">
        <ele>575.4</ele>
        <time>2021-05-29T10:39:37Z</time>
      </trkpt>
      <trkpt lat="45.06497" lon="5.78244">
        <ele>575.4</ele>
        <time>2021-05-29T10:39:38Z</time>
      </trkpt>
      <trkpt lat="45.06498" lon="5.78244">
        <ele>575.6</ele>
        <time>2021-05-29T10:39:39Z</time>
      </trkpt>
      <trkpt lat="45.06498" lon="5.78244">
        <ele>575.8</ele>
        <time>2021-05-29T10:39:40Z</time>
      </trkpt>
      <trkpt lat="45.06499" lon="5.78244">
        <ele>575.8</ele>
        <time>2021-05-29T10:39:41Z</time>
      </trkpt>
      <trkpt lat="45.065" lon="5.78245">
        <ele>576</ele>
        <time>2021-05-29T10:39:42Z</time>
      </trkpt>
      <trkpt lat="45.06502" lon="5.78246">
        <ele>576</ele>
        <time>2021-05-29T10:39:43Z</time>
      </trkpt>
      <trkpt lat="45.06503" lon="5.78247">
        <ele>576</ele>
        <time>2021-05-29T10:39:44Z</time>
      </trkpt>
      <trkpt lat="45.06505" lon="5.78248">
        <ele>576</ele>
        <time>2021-05-29T10:39:45Z</time>
      </trkpt>
      <trkpt lat="45.06507" lon="5.78249">
        <ele>576.2</ele>
        <time>2021-05-29T10:39:46Z</time>
      </trkpt>
      <trkpt lat="45.06509" lon="5.7825">
        <ele>576.4</ele>
        <time>2021-05-29T10:39:47Z</time>
      </trkpt>
      <trkpt lat="45.0651" lon="5.7825">
        <ele>576.6</ele>
        <time>2021-05-29T10:39:48Z</time>
      </trkpt>
      <trkpt lat="45.0651" lon="5.78251">
        <ele>576.8</ele>
        <time>2021-05-29T10:39:49Z</time>
      </trkpt>
      <trkpt lat="45.06511" lon="5.78251">
        <ele>576.8</ele>
        <time>2021-05-29T10:39:50Z</time>
      </trkpt>
      <trkpt lat="45.06512" lon="5.78252">
        <ele>577.2</ele>
        <time>2021-05-29T10:39:51Z</time>
      </trkpt>
      <trkpt lat="45.06513" lon="5.78252">
        <ele>577.2</ele>
        <time>2021-05-29T10:39:52Z</time>
      </trkpt>
      <trkpt lat="45.06514" lon="5.78253">
        <ele>577</ele>
        <time>2021-05-29T10:39:53Z</time>
      </trkpt>
      <trkpt lat="45.06515" lon="5.78253">
        <ele>577.2</ele>
        <time>2021-05-29T10:39:54Z</time>
      </trkpt>
      <trkpt lat="45.06515" lon="5.78254">
        <ele>577.6</ele>
        <time>2021-05-29T10:39:55Z</time>
      </trkpt>
      <trkpt lat="45.06516" lon="5.78254">
        <ele>577.6</ele>
        <time>2021-05-29T10:39:56Z</time>
      </trkpt>
      <trkpt lat="45.06517" lon="5.78255">
        <ele>577.8</ele>
        <time>2021-05-29T10:39:57Z</time>
      </trkpt>
      <trkpt lat="45.06518" lon="5.78256">
        <ele>577.8</ele>
        <time>2021-05-29T10:39:58Z</time>
      </trkpt>
      <trkpt lat="45.06519" lon="5.78257">
        <ele>578</ele>
        <time>2021-05-29T10:40:00Z</time>
      </trkpt>
      <trkpt lat="45.0652" lon="5.78259">
        <ele>578.2</ele>
        <time>2021-05-29T10:40:01Z</time>
      </trkpt>
      <trkpt lat="45.06521" lon="5.7826">
        <ele>578.4</ele>
        <time>2021-05-29T10:40:02Z</time>
      </trkpt>
      <trkpt lat="45.06522" lon="5.78261">
        <ele>578.8</ele>
        <time>2021-05-29T10:40:03Z</time>
      </trkpt>
      <trkpt lat="45.06523" lon="5.78263">
        <ele>579</ele>
        <time>2021-05-29T10:40:04Z</time>
      </trkpt>
      <trkpt lat="45.06524" lon="5.78264">
        <ele>579.2</ele>
        <time>2021-05-29T10:40:05Z</time>
      </trkpt>
      <trkpt lat="45.06525" lon="5.78265">
        <ele>579.4</ele>
        <time>2021-05-29T10:40:06Z</time>
      </trkpt>
      <trkpt lat="45.06526" lon="5.78267">
        <ele>579.8</ele>
        <time>2021-05-29T10:40:07Z</time>
      </trkpt>
      <trkpt lat="45.06527" lon="5.78268">
        <ele>579.6</ele>
        <time>2021-05-29T10:40:08Z</time>
      </trkpt>
      <trkpt lat="45.06528" lon="5.7827">
        <ele>579.6</ele>
        <time>2021-05-29T10:40:09Z</time>
      </trkpt>
      <trkpt lat="45.0653" lon="5.78271">
        <ele>579.8</ele>
        <time>2021-05-29T10:40:10Z</time>
      </trkpt>
      <trkpt lat="45.06531" lon="5.78272">
        <ele>579.4</ele>
        <time>2021-05-29T10:40:11Z</time>
      </trkpt>
      <trkpt lat="45.06532" lon="5.78273">
        <ele>579.6</ele>
        <time>2021-05-29T10:40:12Z</time>
      </trkpt>
      <trkpt lat="45.06534" lon="5.78274">
        <ele>579.6</ele>
        <time>2021-05-29T10:40:13Z</time>
      </trkpt>
      <trkpt lat="45.06535" lon="5.78276">
        <ele>579.8</ele>
        <time>2021-05-29T10:40:14Z</time>
      </trkpt>
      <trkpt lat="45.06536" lon="5.78277">
        <ele>579.6</ele>
        <time>2021-05-29T10:40:15Z</time>
      </trkpt>
      <trkpt lat="45.06538" lon="5.78278">
        <ele>579.6</ele>
        <time>2021-05-29T10:40:16Z</time>
      </trkpt>
      <trkpt lat="45.06539" lon="5.78279">
        <ele>579.6</ele>
        <time>2021-05-29T10:40:17Z</time>
      </trkpt>
      <trkpt lat="45.0654" lon="5.78281">
        <ele>579.6</ele>
        <time>2021-05-29T10:40:18Z</time>
      </trkpt>
      <trkpt lat="45.06542" lon="5.78282">
        <ele>579.6</ele>
        <time>2021-05-29T10:40:19Z</time>
      </trkpt>
      <trkpt lat="45.06543" lon="5.78283">
        <ele>579.4</ele>
        <time>2021-05-29T10:40:20Z</time>
      </trkpt>
      <trkpt lat="45.06544" lon="5.78284">
        <ele>579.4</ele>
        <time>2021-05-29T10:40:21Z</time>
      </trkpt>
      <trkpt lat="45.06546" lon="5.78285">
        <ele>579.6</ele>
        <time>2021-05-29T10:40:22Z</time>
      </trkpt>
      <trkpt lat="45.06548" lon="5.78286">
        <ele>579.6</ele>
        <time>2021-05-29T10:40:23Z</time>
      </trkpt>
      <trkpt lat="45.06549" lon="5.78288">
        <ele>579.6</ele>
        <time>2021-05-29T10:40:24Z</time>
      </trkpt>
      <trkpt lat="45.06551" lon="5.78289">
        <ele>579.4</ele>
        <time>2021-05-29T10:40:25Z</time>
      </trkpt>
      <trkpt lat="45.06553" lon="5.7829">
        <ele>579.4</ele>
        <time>2021-05-29T10:40:26Z</time>
      </trkpt>
      <trkpt lat="45.06554" lon="5.7829">
        <ele>579.2</ele>
        <time>2021-05-29T10:40:27Z</time>
      </trkpt>
      <trkpt lat="45.06555" lon="5.7829">
        <ele>579</ele>
        <time>2021-05-29T10:40:28Z</time>
      </trkpt>
      <trkpt lat="45.06556" lon="5.7829">
        <ele>578.8</ele>
        <time>2021-05-29T10:40:29Z</time>
      </trkpt>
      <trkpt lat="45.06557" lon="5.7829">
        <ele>578.6</ele>
        <time>2021-05-29T10:40:30Z</time>
      </trkpt>
      <trkpt lat="45.06558" lon="5.7829">
        <ele>578.2</ele>
        <time>2021-05-29T10:40:31Z</time>
      </trkpt>
      <trkpt lat="45.0656" lon="5.78291">
        <ele>578.2</ele>
        <time>2021-05-29T10:40:32Z</time>
      </trkpt>
      <trkpt lat="45.06561" lon="5.78291">
        <ele>578</ele>
        <time>2021-05-29T10:40:33Z</time>
      </trkpt>
      <trkpt lat="45.06562" lon="5.78291">
        <ele>578</ele>
        <time>2021-05-29T10:40:34Z</time>
      </trkpt>
      <trkpt lat="45.06563" lon="5.78291">
        <ele>577.8</ele>
        <time>2021-05-29T10:40:35Z</time>
      </trkpt>
      <trkpt lat="45.06564" lon="5.78291">
        <ele>577.4</ele>
        <time>2021-05-29T10:40:36Z</time>
      </trkpt>
      <trkpt lat="45.06566" lon="5.7829">
        <ele>577.2</ele>
        <time>2021-05-29T10:40:37Z</time>
      </trkpt>
      <trkpt lat="45.06567" lon="5.7829">
        <ele>577.2</ele>
        <time>2021-05-29T10:40:38Z</time>
      </trkpt>
      <trkpt lat="45.06568" lon="5.78289">
        <ele>576.8</ele>
        <time>2021-05-29T10:40:39Z</time>
      </trkpt>
      <trkpt lat="45.0657" lon="5.78289">
        <ele>576.6</ele>
        <time>2021-05-29T10:40:40Z</time>
      </trkpt>
      <trkpt lat="45.06571" lon="5.78288">
        <ele>576.2</ele>
        <time>2021-05-29T10:40:41Z</time>
      </trkpt>
      <trkpt lat="45.06573" lon="5.78287">
        <ele>576</ele>
        <time>2021-05-29T10:40:42Z</time>
      </trkpt>
      <trkpt lat="45.06574" lon="5.78287">
        <ele>575.8</ele>
        <time>2021-05-29T10:40:43Z</time>
      </trkpt>
      <trkpt lat="45.06576" lon="5.78287">
        <ele>575.6</ele>
        <time>2021-05-29T10:40:44Z</time>
      </trkpt>
      <trkpt lat="45.06577" lon="5.78287">
        <ele>575</ele>
        <time>2021-05-29T10:40:45Z</time>
      </trkpt>
      <trkpt lat="45.06579" lon="5.78287">
        <ele>574.8</ele>
        <time>2021-05-29T10:40:46Z</time>
      </trkpt>
      <trkpt lat="45.06581" lon="5.78287">
        <ele>574.4</ele>
        <time>2021-05-29T10:40:47Z</time>
      </trkpt>
      <trkpt lat="45.06582" lon="5.78287">
        <ele>574.4</ele>
        <time>2021-05-29T10:40:48Z</time>
      </trkpt>
      <trkpt lat="45.06583" lon="5.78286">
        <ele>574.2</ele>
        <time>2021-05-29T10:40:49Z</time>
      </trkpt>
      <trkpt lat="45.06584" lon="5.78285">
        <ele>574</ele>
        <time>2021-05-29T10:40:50Z</time>
      </trkpt>
      <trkpt lat="45.06585" lon="5.78284">
        <ele>573.6</ele>
        <time>2021-05-29T10:40:51Z</time>
      </trkpt>
      <trkpt lat="45.06587" lon="5.78283">
        <ele>573.2</ele>
        <time>2021-05-29T10:40:52Z</time>
      </trkpt>
      <trkpt lat="45.06588" lon="5.78282">
        <ele>572.8</ele>
        <time>2021-05-29T10:40:53Z</time>
      </trkpt>
      <trkpt lat="45.06589" lon="5.78281">
        <ele>572.6</ele>
        <time>2021-05-29T10:40:54Z</time>
      </trkpt>
      <trkpt lat="45.0659" lon="5.7828">
        <ele>572.4</ele>
        <time>2021-05-29T10:40:55Z</time>
      </trkpt>
      <trkpt lat="45.06592" lon="5.78279">
        <ele>571.8</ele>
        <time>2021-05-29T10:40:56Z</time>
      </trkpt>
      <trkpt lat="45.06593" lon="5.78278">
        <ele>571.4</ele>
        <time>2021-05-29T10:40:57Z</time>
      </trkpt>
      <trkpt lat="45.06595" lon="5.78277">
        <ele>571.2</ele>
        <time>2021-05-29T10:40:58Z</time>
      </trkpt>
      <trkpt lat="45.06597" lon="5.78277">
        <ele>570.8</ele>
        <time>2021-05-29T10:40:59Z</time>
      </trkpt>
      <trkpt lat="45.06598" lon="5.78276">
        <ele>570.6</ele>
        <time>2021-05-29T10:41:00Z</time>
      </trkpt>
      <trkpt lat="45.066" lon="5.78276">
        <ele>570.4</ele>
        <time>2021-05-29T10:41:01Z</time>
      </trkpt>
      <trkpt lat="45.06603" lon="5.78276">
        <ele>570.2</ele>
        <time>2021-05-29T10:41:02Z</time>
      </trkpt>
      <trkpt lat="45.06605" lon="5.78276">
        <ele>569.8</ele>
        <time>2021-05-29T10:41:03Z</time>
      </trkpt>
      <trkpt lat="45.06607" lon="5.78276">
        <ele>569.8</ele>
        <time>2021-05-29T10:41:04Z</time>
      </trkpt>
      <trkpt lat="45.06609" lon="5.78276">
        <ele>569.4</ele>
        <time>2021-05-29T10:41:05Z</time>
      </trkpt>
      <trkpt lat="45.06611" lon="5.78276">
        <ele>569</ele>
        <time>2021-05-29T10:41:06Z</time>
      </trkpt>
      <trkpt lat="45.06613" lon="5.78276">
        <ele>568.6</ele>
        <time>2021-05-29T10:41:07Z</time>
      </trkpt>
      <trkpt lat="45.06616" lon="5.78277">
        <ele>568.6</ele>
        <time>2021-05-29T10:41:08Z</time>
      </trkpt>
      <trkpt lat="45.06618" lon="5.78277">
        <ele>568.4</ele>
        <time>2021-05-29T10:41:09Z</time>
      </trkpt>
      <trkpt lat="45.06619" lon="5.78278">
        <ele>568.2</ele>
        <time>2021-05-29T10:41:10Z</time>
      </trkpt>
      <trkpt lat="45.0662" lon="5.78279">
        <ele>567.8</ele>
        <time>2021-05-29T10:41:11Z</time>
      </trkpt>
      <trkpt lat="45.06622" lon="5.7828">
        <ele>567.6</ele>
        <time>2021-05-29T10:41:12Z</time>
      </trkpt>
      <trkpt lat="45.06623" lon="5.78282">
        <ele>567.4</ele>
        <time>2021-05-29T10:41:13Z</time>
      </trkpt>
      <trkpt lat="45.06624" lon="5.78283">
        <ele>567.2</ele>
        <time>2021-05-29T10:41:14Z</time>
      </trkpt>
      <trkpt lat="45.06625" lon="5.78284">
        <ele>567</ele>
        <time>2021-05-29T10:41:15Z</time>
      </trkpt>
      <trkpt lat="45.06626" lon="5.78285">
        <ele>566.8</ele>
        <time>2021-05-29T10:41:16Z</time>
      </trkpt>
      <trkpt lat="45.06628" lon="5.78287">
        <ele>566.6</ele>
        <time>2021-05-29T10:41:17Z</time>
      </trkpt>
      <trkpt lat="45.06629" lon="5.78288">
        <ele>566.4</ele>
        <time>2021-05-29T10:41:18Z</time>
      </trkpt>
      <trkpt lat="45.06631" lon="5.78289">
        <ele>565.8</ele>
        <time>2021-05-29T10:41:19Z</time>
      </trkpt>
      <trkpt lat="45.06632" lon="5.78291">
        <ele>565.6</ele>
        <time>2021-05-29T10:41:20Z</time>
      </trkpt>
      <trkpt lat="45.06634" lon="5.78292">
        <ele>565.4</ele>
        <time>2021-05-29T10:41:21Z</time>
      </trkpt>
      <trkpt lat="45.06635" lon="5.78293">
        <ele>565.2</ele>
        <time>2021-05-29T10:41:22Z</time>
      </trkpt>
      <trkpt lat="45.06636" lon="5.78294">
        <ele>564.8</ele>
        <time>2021-05-29T10:41:23Z</time>
      </trkpt>
      <trkpt lat="45.06637" lon="5.78294">
        <ele>564.6</ele>
        <time>2021-05-29T10:41:24Z</time>
      </trkpt>
      <trkpt lat="45.06638" lon="5.78294">
        <ele>564.4</ele>
        <time>2021-05-29T10:41:25Z</time>
      </trkpt>
      <trkpt lat="45.06639" lon="5.78295">
        <ele>564</ele>
        <time>2021-05-29T10:41:26Z</time>
      </trkpt>
      <trkpt lat="45.06641" lon="5.78295">
        <ele>563.8</ele>
        <time>2021-05-29T10:41:27Z</time>
      </trkpt>
      <trkpt lat="45.06642" lon="5.78295">
        <ele>563.6</ele>
        <time>2021-05-29T10:41:28Z</time>
      </trkpt>
      <trkpt lat="45.06643" lon="5.78295">
        <ele>563</ele>
        <time>2021-05-29T10:41:29Z</time>
      </trkpt>
      <trkpt lat="45.06644" lon="5.78296">
        <ele>562.8</ele>
        <time>2021-05-29T10:41:30Z</time>
      </trkpt>
      <trkpt lat="45.06645" lon="5.78296">
        <ele>562.6</ele>
        <time>2021-05-29T10:41:31Z</time>
      </trkpt>
      <trkpt lat="45.06647" lon="5.78296">
        <ele>562.4</ele>
        <time>2021-05-29T10:41:32Z</time>
      </trkpt>
      <trkpt lat="45.06648" lon="5.78297">
        <ele>562.2</ele>
        <time>2021-05-29T10:41:33Z</time>
      </trkpt>
      <trkpt lat="45.06649" lon="5.78297">
        <ele>561.8</ele>
        <time>2021-05-29T10:41:34Z</time>
      </trkpt>
      <trkpt lat="45.06651" lon="5.78297">
        <ele>561.6</ele>
        <time>2021-05-29T10:41:35Z</time>
      </trkpt>
      <trkpt lat="45.06652" lon="5.78297">
        <ele>561.6</ele>
        <time>2021-05-29T10:41:36Z</time>
      </trkpt>
      <trkpt lat="45.06654" lon="5.78297">
        <ele>561.2</ele>
        <time>2021-05-29T10:41:37Z</time>
      </trkpt>
      <trkpt lat="45.06655" lon="5.78298">
        <ele>560.8</ele>
        <time>2021-05-29T10:41:38Z</time>
      </trkpt>
      <trkpt lat="45.06658" lon="5.78299">
        <ele>560.6</ele>
        <time>2021-05-29T10:41:39Z</time>
      </trkpt>
      <trkpt lat="45.0666" lon="5.78301">
        <ele>560</ele>
        <time>2021-05-29T10:41:40Z</time>
      </trkpt>
      <trkpt lat="45.06662" lon="5.78302">
        <ele>560</ele>
        <time>2021-05-29T10:41:41Z</time>
      </trkpt>
      <trkpt lat="45.06665" lon="5.78303">
        <ele>559.6</ele>
        <time>2021-05-29T10:41:42Z</time>
      </trkpt>
      <trkpt lat="45.06667" lon="5.78305">
        <ele>559.2</ele>
        <time>2021-05-29T10:41:43Z</time>
      </trkpt>
      <trkpt lat="45.06669" lon="5.78306">
        <ele>559.4</ele>
        <time>2021-05-29T10:41:44Z</time>
      </trkpt>
      <trkpt lat="45.06671" lon="5.78308">
        <ele>559</ele>
        <time>2021-05-29T10:41:45Z</time>
      </trkpt>
      <trkpt lat="45.06674" lon="5.7831">
        <ele>558.8</ele>
        <time>2021-05-29T10:41:46Z</time>
      </trkpt>
      <trkpt lat="45.06676" lon="5.7831">
        <ele>558.2</ele>
        <time>2021-05-29T10:41:47Z</time>
      </trkpt>
      <trkpt lat="45.06678" lon="5.78311">
        <ele>557.6</ele>
        <time>2021-05-29T10:41:48Z</time>
      </trkpt>
      <trkpt lat="45.0668" lon="5.78312">
        <ele>557.8</ele>
        <time>2021-05-29T10:41:49Z</time>
      </trkpt>
      <trkpt lat="45.06682" lon="5.78313">
        <ele>557.2</ele>
        <time>2021-05-29T10:41:50Z</time>
      </trkpt>
      <trkpt lat="45.06684" lon="5.78314">
        <ele>556.8</ele>
        <time>2021-05-29T10:41:51Z</time>
      </trkpt>
      <trkpt lat="45.06687" lon="5.78316">
        <ele>556.4</ele>
        <time>2021-05-29T10:41:52Z</time>
      </trkpt>
      <trkpt lat="45.06689" lon="5.78317">
        <ele>555.6</ele>
        <time>2021-05-29T10:41:53Z</time>
      </trkpt>
      <trkpt lat="45.06692" lon="5.78319">
        <ele>555.2</ele>
        <time>2021-05-29T10:41:54Z</time>
      </trkpt>
      <trkpt lat="45.06694" lon="5.78321">
        <ele>555</ele>
        <time>2021-05-29T10:41:55Z</time>
      </trkpt>
      <trkpt lat="45.06696" lon="5.78322">
        <ele>555.2</ele>
        <time>2021-05-29T10:41:56Z</time>
      </trkpt>
      <trkpt lat="45.06698" lon="5.78323">
        <ele>555</ele>
        <time>2021-05-29T10:41:57Z</time>
      </trkpt>
      <trkpt lat="45.06699" lon="5.78324">
        <ele>555</ele>
        <time>2021-05-29T10:41:58Z</time>
      </trkpt>
      <trkpt lat="45.06701" lon="5.78325">
        <ele>554.8</ele>
        <time>2021-05-29T10:41:59Z</time>
      </trkpt>
      <trkpt lat="45.06703" lon="5.78326">
        <ele>554.4</ele>
        <time>2021-05-29T10:42:00Z</time>
      </trkpt>
      <trkpt lat="45.06705" lon="5.78327">
        <ele>554</ele>
        <time>2021-05-29T10:42:01Z</time>
      </trkpt>
      <trkpt lat="45.06707" lon="5.78328">
        <ele>553.4</ele>
        <time>2021-05-29T10:42:02Z</time>
      </trkpt>
      <trkpt lat="45.06709" lon="5.7833">
        <ele>553.4</ele>
        <time>2021-05-29T10:42:03Z</time>
      </trkpt>
      <trkpt lat="45.06711" lon="5.78331">
        <ele>553.2</ele>
        <time>2021-05-29T10:42:04Z</time>
      </trkpt>
      <trkpt lat="45.06714" lon="5.78334">
        <ele>553.2</ele>
        <time>2021-05-29T10:42:05Z</time>
      </trkpt>
      <trkpt lat="45.06716" lon="5.78336">
        <ele>553</ele>
        <time>2021-05-29T10:42:06Z</time>
      </trkpt>
      <trkpt lat="45.06718" lon="5.78339">
        <ele>553</ele>
        <time>2021-05-29T10:42:07Z</time>
      </trkpt>
      <trkpt lat="45.0672" lon="5.78341">
        <ele>552.4</ele>
        <time>2021-05-29T10:42:08Z</time>
      </trkpt>
      <trkpt lat="45.06722" lon="5.78343">
        <ele>551.6</ele>
        <time>2021-05-29T10:42:09Z</time>
      </trkpt>
      <trkpt lat="45.06724" lon="5.78346">
        <ele>551.4</ele>
        <time>2021-05-29T10:42:10Z</time>
      </trkpt>
      <trkpt lat="45.06726" lon="5.78348">
        <ele>551.2</ele>
        <time>2021-05-29T10:42:11Z</time>
      </trkpt>
      <trkpt lat="45.06727" lon="5.7835">
        <ele>551</ele>
        <time>2021-05-29T10:42:12Z</time>
      </trkpt>
      <trkpt lat="45.06729" lon="5.78352">
        <ele>550.4</ele>
        <time>2021-05-29T10:42:13Z</time>
      </trkpt>
      <trkpt lat="45.06731" lon="5.78354">
        <ele>549.8</ele>
        <time>2021-05-29T10:42:14Z</time>
      </trkpt>
      <trkpt lat="45.06733" lon="5.78356">
        <ele>549.8</ele>
        <time>2021-05-29T10:42:15Z</time>
      </trkpt>
      <trkpt lat="45.06735" lon="5.78358">
        <ele>549.2</ele>
        <time>2021-05-29T10:42:16Z</time>
      </trkpt>
      <trkpt lat="45.06736" lon="5.78358">
        <ele>549</ele>
        <time>2021-05-29T10:42:17Z</time>
      </trkpt>
      <trkpt lat="45.06738" lon="5.78359">
        <ele>548.8</ele>
        <time>2021-05-29T10:42:18Z</time>
      </trkpt>
      <trkpt lat="45.0674" lon="5.7836">
        <ele>548.6</ele>
        <time>2021-05-29T10:42:19Z</time>
      </trkpt>
      <trkpt lat="45.06742" lon="5.7836">
        <ele>548.2</ele>
        <time>2021-05-29T10:42:20Z</time>
      </trkpt>
      <trkpt lat="45.06744" lon="5.78361">
        <ele>547.6</ele>
        <time>2021-05-29T10:42:21Z</time>
      </trkpt>
      <trkpt lat="45.06745" lon="5.7836">
        <ele>547.4</ele>
        <time>2021-05-29T10:42:22Z</time>
      </trkpt>
      <trkpt lat="45.06747" lon="5.78358">
        <ele>547.2</ele>
        <time>2021-05-29T10:42:23Z</time>
      </trkpt>
      <trkpt lat="45.06749" lon="5.78357">
        <ele>546.8</ele>
        <time>2021-05-29T10:42:24Z</time>
      </trkpt>
      <trkpt lat="45.06751" lon="5.78356">
        <ele>546.2</ele>
        <time>2021-05-29T10:42:25Z</time>
      </trkpt>
      <trkpt lat="45.06752" lon="5.78355">
        <ele>546</ele>
        <time>2021-05-29T10:42:26Z</time>
      </trkpt>
      <trkpt lat="45.06755" lon="5.78355">
        <ele>545.6</ele>
        <time>2021-05-29T10:42:27Z</time>
      </trkpt>
      <trkpt lat="45.06758" lon="5.78355">
        <ele>545.4</ele>
        <time>2021-05-29T10:42:28Z</time>
      </trkpt>
      <trkpt lat="45.06761" lon="5.78355">
        <ele>545.2</ele>
        <time>2021-05-29T10:42:29Z</time>
      </trkpt>
      <trkpt lat="45.06763" lon="5.78356">
        <ele>544.8</ele>
        <time>2021-05-29T10:42:30Z</time>
      </trkpt>
      <trkpt lat="45.06766" lon="5.78356">
        <ele>544.8</ele>
        <time>2021-05-29T10:42:31Z</time>
      </trkpt>
      <trkpt lat="45.06768" lon="5.78356">
        <ele>544.6</ele>
        <time>2021-05-29T10:42:32Z</time>
      </trkpt>
      <trkpt lat="45.06771" lon="5.78356">
        <ele>544.8</ele>
        <time>2021-05-29T10:42:33Z</time>
      </trkpt>
      <trkpt lat="45.06773" lon="5.78357">
        <ele>544.6</ele>
        <time>2021-05-29T10:42:34Z</time>
      </trkpt>
      <trkpt lat="45.06776" lon="5.78356">
        <ele>544.4</ele>
        <time>2021-05-29T10:42:35Z</time>
      </trkpt>
      <trkpt lat="45.06778" lon="5.78356">
        <ele>544</ele>
        <time>2021-05-29T10:42:36Z</time>
      </trkpt>
      <trkpt lat="45.06781" lon="5.78355">
        <ele>543.6</ele>
        <time>2021-05-29T10:42:37Z</time>
      </trkpt>
      <trkpt lat="45.06783" lon="5.78354">
        <ele>543.2</ele>
        <time>2021-05-29T10:42:38Z</time>
      </trkpt>
      <trkpt lat="45.06786" lon="5.78354">
        <ele>542.6</ele>
        <time>2021-05-29T10:42:39Z</time>
      </trkpt>
      <trkpt lat="45.06788" lon="5.78354">
        <ele>542.8</ele>
        <time>2021-05-29T10:42:40Z</time>
      </trkpt>
      <trkpt lat="45.0679" lon="5.78354">
        <ele>542.8</ele>
        <time>2021-05-29T10:42:41Z</time>
      </trkpt>
      <trkpt lat="45.06793" lon="5.78354">
        <ele>542.8</ele>
        <time>2021-05-29T10:42:42Z</time>
      </trkpt>
      <trkpt lat="45.06796" lon="5.78354">
        <ele>542.6</ele>
        <time>2021-05-29T10:42:43Z</time>
      </trkpt>
      <trkpt lat="45.06799" lon="5.78355">
        <ele>542.6</ele>
        <time>2021-05-29T10:42:44Z</time>
      </trkpt>
      <trkpt lat="45.06802" lon="5.78355">
        <ele>542.4</ele>
        <time>2021-05-29T10:42:45Z</time>
      </trkpt>
      <trkpt lat="45.06806" lon="5.78356">
        <ele>542.4</ele>
        <time>2021-05-29T10:42:46Z</time>
      </trkpt>
      <trkpt lat="45.06809" lon="5.78357">
        <ele>542.2</ele>
        <time>2021-05-29T10:42:47Z</time>
      </trkpt>
      <trkpt lat="45.06814" lon="5.78357">
        <ele>541.8</ele>
        <time>2021-05-29T10:42:48Z</time>
      </trkpt>
      <trkpt lat="45.06814" lon="5.78357">
        <ele>541.4</ele>
        <time>2021-05-29T10:42:49Z</time>
      </trkpt>
      <trkpt lat="45.06814" lon="5.78357">
        <ele>541</ele>
        <time>2021-05-29T10:42:50Z</time>
      </trkpt>
      <trkpt lat="45.06817" lon="5.78357">
        <ele>540.8</ele>
        <time>2021-05-29T10:42:51Z</time>
      </trkpt>
      <trkpt lat="45.06819" lon="5.78357">
        <ele>540.2</ele>
        <time>2021-05-29T10:42:52Z</time>
      </trkpt>
      <trkpt lat="45.06822" lon="5.78357">
        <ele>540.6</ele>
        <time>2021-05-29T10:42:53Z</time>
      </trkpt>
      <trkpt lat="45.06824" lon="5.78357">
        <ele>540.4</ele>
        <time>2021-05-29T10:42:54Z</time>
      </trkpt>
      <trkpt lat="45.06827" lon="5.78356">
        <ele>540.4</ele>
        <time>2021-05-29T10:42:55Z</time>
      </trkpt>
      <trkpt lat="45.06829" lon="5.78356">
        <ele>540.2</ele>
        <time>2021-05-29T10:42:56Z</time>
      </trkpt>
      <trkpt lat="45.06832" lon="5.78356">
        <ele>540.2</ele>
        <time>2021-05-29T10:42:57Z</time>
      </trkpt>
      <trkpt lat="45.06835" lon="5.78356">
        <ele>540</ele>
        <time>2021-05-29T10:42:58Z</time>
      </trkpt>
      <trkpt lat="45.06837" lon="5.78356">
        <ele>540</ele>
        <time>2021-05-29T10:42:59Z</time>
      </trkpt>
      <trkpt lat="45.0684" lon="5.78357">
        <ele>539.8</ele>
        <time>2021-05-29T10:43:00Z</time>
      </trkpt>
      <trkpt lat="45.06842" lon="5.78357">
        <ele>540</ele>
        <time>2021-05-29T10:43:01Z</time>
      </trkpt>
      <trkpt lat="45.06845" lon="5.78358">
        <ele>539.8</ele>
        <time>2021-05-29T10:43:02Z</time>
      </trkpt>
      <trkpt lat="45.06851" lon="5.78364">
        <ele>540.2</ele>
        <time>2021-05-29T10:43:03Z</time>
      </trkpt>
      <trkpt lat="45.06857" lon="5.78369">
        <ele>540</ele>
        <time>2021-05-29T10:43:04Z</time>
      </trkpt>
      <trkpt lat="45.06858" lon="5.78371">
        <ele>540</ele>
        <time>2021-05-29T10:43:05Z</time>
      </trkpt>
      <trkpt lat="45.06863" lon="5.78377">
        <ele>539.8</ele>
        <time>2021-05-29T10:43:06Z</time>
      </trkpt>
      <trkpt lat="45.06863" lon="5.78377">
        <ele>540</ele>
        <time>2021-05-29T10:43:07Z</time>
      </trkpt>
      <trkpt lat="45.06863" lon="5.78377">
        <ele>540</ele>
        <time>2021-05-29T10:43:08Z</time>
      </trkpt>
      <trkpt lat="45.06865" lon="5.7838">
        <ele>540.4</ele>
        <time>2021-05-29T10:43:09Z</time>
      </trkpt>
      <trkpt lat="45.06867" lon="5.78383">
        <ele>540.4</ele>
        <time>2021-05-29T10:43:10Z</time>
      </trkpt>
      <trkpt lat="45.0687" lon="5.78385">
        <ele>540.6</ele>
        <time>2021-05-29T10:43:11Z</time>
      </trkpt>
      <trkpt lat="45.06872" lon="5.78388">
        <ele>540.6</ele>
        <time>2021-05-29T10:43:12Z</time>
      </trkpt>
      <trkpt lat="45.06874" lon="5.78391">
        <ele>540.8</ele>
        <time>2021-05-29T10:43:13Z</time>
      </trkpt>
      <trkpt lat="45.06877" lon="5.78396">
        <ele>540.8</ele>
        <time>2021-05-29T10:43:14Z</time>
      </trkpt>
      <trkpt lat="45.06877" lon="5.78397">
        <ele>541.4</ele>
        <time>2021-05-29T10:43:15Z</time>
      </trkpt>
      <trkpt lat="45.06878" lon="5.78399">
        <ele>541.4</ele>
        <time>2021-05-29T10:43:16Z</time>
      </trkpt>
      <trkpt lat="45.06878" lon="5.784">
        <ele>541.6</ele>
        <time>2021-05-29T10:43:17Z</time>
      </trkpt>
      <trkpt lat="45.06879" lon="5.78401">
        <ele>541.4</ele>
        <time>2021-05-29T10:43:18Z</time>
      </trkpt>
      <trkpt lat="45.0688" lon="5.78406">
        <ele>541.4</ele>
        <time>2021-05-29T10:43:19Z</time>
      </trkpt>
      <trkpt lat="45.06882" lon="5.78411">
        <ele>541.4</ele>
        <time>2021-05-29T10:43:20Z</time>
      </trkpt>
      <trkpt lat="45.06883" lon="5.78416">
        <ele>541.2</ele>
        <time>2021-05-29T10:43:21Z</time>
      </trkpt>
      <trkpt lat="45.06885" lon="5.7842">
        <ele>541</ele>
        <time>2021-05-29T10:43:22Z</time>
      </trkpt>
      <trkpt lat="45.06888" lon="5.78431">
        <ele>541.2</ele>
        <time>2021-05-29T10:43:23Z</time>
      </trkpt>
      <trkpt lat="45.06889" lon="5.78433">
        <ele>541</ele>
        <time>2021-05-29T10:43:24Z</time>
      </trkpt>
      <trkpt lat="45.0689" lon="5.78436">
        <ele>540.8</ele>
        <time>2021-05-29T10:43:25Z</time>
      </trkpt>
      <trkpt lat="45.06892" lon="5.78443">
        <ele>540.6</ele>
        <time>2021-05-29T10:43:26Z</time>
      </trkpt>
      <trkpt lat="45.06892" lon="5.78443">
        <ele>540.6</ele>
        <time>2021-05-29T10:43:27Z</time>
      </trkpt>
      <trkpt lat="45.06892" lon="5.78443">
        <ele>540.2</ele>
        <time>2021-05-29T10:43:28Z</time>
      </trkpt>
      <trkpt lat="45.06894" lon="5.78446">
        <ele>539.8</ele>
        <time>2021-05-29T10:43:29Z</time>
      </trkpt>
      <trkpt lat="45.06895" lon="5.78449">
        <ele>539.4</ele>
        <time>2021-05-29T10:43:30Z</time>
      </trkpt>
      <trkpt lat="45.06896" lon="5.78453">
        <ele>539.2</ele>
        <time>2021-05-29T10:43:31Z</time>
      </trkpt>
      <trkpt lat="45.06897" lon="5.78456">
        <ele>539</ele>
        <time>2021-05-29T10:43:32Z</time>
      </trkpt>
      <trkpt lat="45.06899" lon="5.78457">
        <ele>539.4</ele>
        <time>2021-05-29T10:43:33Z</time>
      </trkpt>
      <trkpt lat="45.069" lon="5.78459">
        <ele>539.4</ele>
        <time>2021-05-29T10:43:34Z</time>
      </trkpt>
      <trkpt lat="45.06901" lon="5.78461">
        <ele>539.6</ele>
        <time>2021-05-29T10:43:35Z</time>
      </trkpt>
      <trkpt lat="45.06902" lon="5.78463">
        <ele>539.6</ele>
        <time>2021-05-29T10:43:36Z</time>
      </trkpt>
      <trkpt lat="45.06904" lon="5.78465">
        <ele>539.6</ele>
        <time>2021-05-29T10:43:37Z</time>
      </trkpt>
      <trkpt lat="45.06905" lon="5.78467">
        <ele>539.6</ele>
        <time>2021-05-29T10:43:38Z</time>
      </trkpt>
      <trkpt lat="45.06906" lon="5.78469">
        <ele>539.8</ele>
        <time>2021-05-29T10:43:39Z</time>
      </trkpt>
      <trkpt lat="45.06908" lon="5.78471">
        <ele>539.6</ele>
        <time>2021-05-29T10:43:40Z</time>
      </trkpt>
      <trkpt lat="45.06909" lon="5.78474">
        <ele>539.6</ele>
        <time>2021-05-29T10:43:41Z</time>
      </trkpt>
      <trkpt lat="45.06911" lon="5.78476">
        <ele>539.4</ele>
        <time>2021-05-29T10:43:42Z</time>
      </trkpt>
      <trkpt lat="45.0692" lon="5.78484">
        <ele>539.6</ele>
        <time>2021-05-29T10:43:43Z</time>
      </trkpt>
      <trkpt lat="45.0692" lon="5.78484">
        <ele>539.8</ele>
        <time>2021-05-29T10:43:44Z</time>
      </trkpt>
      <trkpt lat="45.0692" lon="5.78484">
        <ele>539.4</ele>
        <time>2021-05-29T10:43:45Z</time>
      </trkpt>
      <trkpt lat="45.0692" lon="5.78484">
        <ele>539.2</ele>
        <time>2021-05-29T10:43:46Z</time>
      </trkpt>
      <trkpt lat="45.06921" lon="5.78486">
        <ele>539</ele>
        <time>2021-05-29T10:43:47Z</time>
      </trkpt>
      <trkpt lat="45.06923" lon="5.78489">
        <ele>539.4</ele>
        <time>2021-05-29T10:43:48Z</time>
      </trkpt>
      <trkpt lat="45.06924" lon="5.78491">
        <ele>539</ele>
        <time>2021-05-29T10:43:49Z</time>
      </trkpt>
      <trkpt lat="45.06925" lon="5.78494">
        <ele>539.6</ele>
        <time>2021-05-29T10:43:50Z</time>
      </trkpt>
      <trkpt lat="45.06927" lon="5.78496">
        <ele>539.6</ele>
        <time>2021-05-29T10:43:51Z</time>
      </trkpt>
      <trkpt lat="45.06928" lon="5.78498">
        <ele>540</ele>
        <time>2021-05-29T10:43:52Z</time>
      </trkpt>
      <trkpt lat="45.06928" lon="5.78501">
        <ele>539.8</ele>
        <time>2021-05-29T10:43:53Z</time>
      </trkpt>
      <trkpt lat="45.06929" lon="5.78503">
        <ele>540.4</ele>
        <time>2021-05-29T10:43:54Z</time>
      </trkpt>
      <trkpt lat="45.0693" lon="5.78505">
        <ele>540.2</ele>
        <time>2021-05-29T10:43:55Z</time>
      </trkpt>
      <trkpt lat="45.0693" lon="5.78508">
        <ele>540.4</ele>
        <time>2021-05-29T10:43:56Z</time>
      </trkpt>
      <trkpt lat="45.06931" lon="5.7851">
        <ele>540.4</ele>
        <time>2021-05-29T10:43:57Z</time>
      </trkpt>
      <trkpt lat="45.06934" lon="5.78514">
        <ele>540.6</ele>
        <time>2021-05-29T10:43:58Z</time>
      </trkpt>
      <trkpt lat="45.06936" lon="5.78518">
        <ele>540.4</ele>
        <time>2021-05-29T10:43:59Z</time>
      </trkpt>
      <trkpt lat="45.06939" lon="5.78522">
        <ele>540.6</ele>
        <time>2021-05-29T10:44:00Z</time>
      </trkpt>
      <trkpt lat="45.06942" lon="5.78526">
        <ele>540.4</ele>
        <time>2021-05-29T10:44:01Z</time>
      </trkpt>
      <trkpt lat="45.06944" lon="5.78531">
        <ele>540.4</ele>
        <time>2021-05-29T10:44:02Z</time>
      </trkpt>
      <trkpt lat="45.06947" lon="5.78535">
        <ele>540.4</ele>
        <time>2021-05-29T10:44:03Z</time>
      </trkpt>
      <trkpt lat="45.06951" lon="5.7854">
        <ele>540.4</ele>
        <time>2021-05-29T10:44:04Z</time>
      </trkpt>
      <trkpt lat="45.06951" lon="5.7854">
        <ele>540.4</ele>
        <time>2021-05-29T10:44:05Z</time>
      </trkpt>
      <trkpt lat="45.06951" lon="5.7854">
        <ele>540.6</ele>
        <time>2021-05-29T10:44:06Z</time>
      </trkpt>
      <trkpt lat="45.06953" lon="5.78541">
        <ele>540.4</ele>
        <time>2021-05-29T10:44:07Z</time>
      </trkpt>
      <trkpt lat="45.06954" lon="5.78542">
        <ele>540.4</ele>
        <time>2021-05-29T10:44:08Z</time>
      </trkpt>
      <trkpt lat="45.06955" lon="5.78543">
        <ele>540.2</ele>
        <time>2021-05-29T10:44:09Z</time>
      </trkpt>
      <trkpt lat="45.06956" lon="5.78543">
        <ele>540</ele>
        <time>2021-05-29T10:44:10Z</time>
      </trkpt>
      <trkpt lat="45.06958" lon="5.78544">
        <ele>540.4</ele>
        <time>2021-05-29T10:44:11Z</time>
      </trkpt>
      <trkpt lat="45.06959" lon="5.78545">
        <ele>540.4</ele>
        <time>2021-05-29T10:44:12Z</time>
      </trkpt>
      <trkpt lat="45.0696" lon="5.78546">
        <ele>541</ele>
        <time>2021-05-29T10:44:13Z</time>
      </trkpt>
      <trkpt lat="45.06961" lon="5.78547">
        <ele>541</ele>
        <time>2021-05-29T10:44:14Z</time>
      </trkpt>
      <trkpt lat="45.06962" lon="5.78547">
        <ele>541.4</ele>
        <time>2021-05-29T10:44:15Z</time>
      </trkpt>
      <trkpt lat="45.06963" lon="5.78547">
        <ele>541.4</ele>
        <time>2021-05-29T10:44:16Z</time>
      </trkpt>
      <trkpt lat="45.06964" lon="5.78548">
        <ele>541.6</ele>
        <time>2021-05-29T10:44:17Z</time>
      </trkpt>
      <trkpt lat="45.06966" lon="5.78548">
        <ele>541.4</ele>
        <time>2021-05-29T10:44:18Z</time>
      </trkpt>
      <trkpt lat="45.06967" lon="5.78549">
        <ele>541.6</ele>
        <time>2021-05-29T10:44:19Z</time>
      </trkpt>
      <trkpt lat="45.06968" lon="5.78549">
        <ele>541.4</ele>
        <time>2021-05-29T10:44:20Z</time>
      </trkpt>
      <trkpt lat="45.06969" lon="5.7855">
        <ele>541.6</ele>
        <time>2021-05-29T10:44:21Z</time>
      </trkpt>
      <trkpt lat="45.06971" lon="5.78552">
        <ele>541.2</ele>
        <time>2021-05-29T10:44:22Z</time>
      </trkpt>
      <trkpt lat="45.06974" lon="5.78554">
        <ele>541</ele>
        <time>2021-05-29T10:44:23Z</time>
      </trkpt>
      <trkpt lat="45.06976" lon="5.78557">
        <ele>541</ele>
        <time>2021-05-29T10:44:24Z</time>
      </trkpt>
      <trkpt lat="45.06979" lon="5.78559">
        <ele>541</ele>
        <time>2021-05-29T10:44:25Z</time>
      </trkpt>
      <trkpt lat="45.06981" lon="5.78561">
        <ele>540.8</ele>
        <time>2021-05-29T10:44:26Z</time>
      </trkpt>
      <trkpt lat="45.06983" lon="5.78562">
        <ele>540.8</ele>
        <time>2021-05-29T10:44:27Z</time>
      </trkpt>
      <trkpt lat="45.06985" lon="5.78564">
        <ele>540.8</ele>
        <time>2021-05-29T10:44:28Z</time>
      </trkpt>
      <trkpt lat="45.06987" lon="5.78565">
        <ele>540.8</ele>
        <time>2021-05-29T10:44:29Z</time>
      </trkpt>
      <trkpt lat="45.06995" lon="5.78574">
        <ele>541</ele>
        <time>2021-05-29T10:44:30Z</time>
      </trkpt>
      <trkpt lat="45.06995" lon="5.78574">
        <ele>540.8</ele>
        <time>2021-05-29T10:44:31Z</time>
      </trkpt>
      <trkpt lat="45.06995" lon="5.78574">
        <ele>541.4</ele>
        <time>2021-05-29T10:44:32Z</time>
      </trkpt>
      <trkpt lat="45.06996" lon="5.78577">
        <ele>541.4</ele>
        <time>2021-05-29T10:44:33Z</time>
      </trkpt>
      <trkpt lat="45.06998" lon="5.78579">
        <ele>541.8</ele>
        <time>2021-05-29T10:44:34Z</time>
      </trkpt>
      <trkpt lat="45.07" lon="5.78581">
        <ele>541.8</ele>
        <time>2021-05-29T10:44:35Z</time>
      </trkpt>
      <trkpt lat="45.07001" lon="5.78584">
        <ele>542.2</ele>
        <time>2021-05-29T10:44:36Z</time>
      </trkpt>
      <trkpt lat="45.07003" lon="5.78586">
        <ele>542.2</ele>
        <time>2021-05-29T10:44:37Z</time>
      </trkpt>
      <trkpt lat="45.07004" lon="5.78588">
        <ele>542.4</ele>
        <time>2021-05-29T10:44:38Z</time>
      </trkpt>
      <trkpt lat="45.07005" lon="5.7859">
        <ele>542.2</ele>
        <time>2021-05-29T10:44:39Z</time>
      </trkpt>
      <trkpt lat="45.07007" lon="5.78592">
        <ele>542.2</ele>
        <time>2021-05-29T10:44:40Z</time>
      </trkpt>
      <trkpt lat="45.07008" lon="5.78594">
        <ele>542.2</ele>
        <time>2021-05-29T10:44:41Z</time>
      </trkpt>
      <trkpt lat="45.07016" lon="5.78603">
        <ele>542.2</ele>
        <time>2021-05-29T10:44:42Z</time>
      </trkpt>
      <trkpt lat="45.07018" lon="5.78605">
        <ele>542</ele>
        <time>2021-05-29T10:44:43Z</time>
      </trkpt>
      <trkpt lat="45.0702" lon="5.78607">
        <ele>541.8</ele>
        <time>2021-05-29T10:44:44Z</time>
      </trkpt>
      <trkpt lat="45.07022" lon="5.78609">
        <ele>542</ele>
        <time>2021-05-29T10:44:45Z</time>
      </trkpt>
      <trkpt lat="45.07027" lon="5.78615">
        <ele>541.8</ele>
        <time>2021-05-29T10:44:46Z</time>
      </trkpt>
      <trkpt lat="45.07029" lon="5.78617">
        <ele>542.2</ele>
        <time>2021-05-29T10:44:47Z</time>
      </trkpt>
      <trkpt lat="45.07032" lon="5.78622">
        <ele>542.2</ele>
        <time>2021-05-29T10:44:48Z</time>
      </trkpt>
      <trkpt lat="45.07032" lon="5.78622">
        <ele>542.6</ele>
        <time>2021-05-29T10:44:49Z</time>
      </trkpt>
      <trkpt lat="45.07032" lon="5.78622">
        <ele>542.8</ele>
        <time>2021-05-29T10:44:50Z</time>
      </trkpt>
      <trkpt lat="45.07034" lon="5.78624">
        <ele>543.2</ele>
        <time>2021-05-29T10:44:51Z</time>
      </trkpt>
      <trkpt lat="45.07035" lon="5.78627">
        <ele>543.2</ele>
        <time>2021-05-29T10:44:52Z</time>
      </trkpt>
      <trkpt lat="45.07037" lon="5.78629">
        <ele>543.4</ele>
        <time>2021-05-29T10:44:53Z</time>
      </trkpt>
      <trkpt lat="45.07039" lon="5.78632">
        <ele>543.2</ele>
        <time>2021-05-29T10:44:54Z</time>
      </trkpt>
      <trkpt lat="45.0704" lon="5.78633">
        <ele>543.4</ele>
        <time>2021-05-29T10:44:55Z</time>
      </trkpt>
      <trkpt lat="45.07041" lon="5.78634">
        <ele>543.2</ele>
        <time>2021-05-29T10:44:56Z</time>
      </trkpt>
      <trkpt lat="45.07043" lon="5.78635">
        <ele>543.2</ele>
        <time>2021-05-29T10:44:57Z</time>
      </trkpt>
      <trkpt lat="45.07044" lon="5.78636">
        <ele>543.2</ele>
        <time>2021-05-29T10:44:58Z</time>
      </trkpt>
      <trkpt lat="45.07045" lon="5.78637">
        <ele>543</ele>
        <time>2021-05-29T10:44:59Z</time>
      </trkpt>
      <trkpt lat="45.07047" lon="5.78638">
        <ele>543.2</ele>
        <time>2021-05-29T10:45:00Z</time>
      </trkpt>
      <trkpt lat="45.07049" lon="5.78638">
        <ele>543</ele>
        <time>2021-05-29T10:45:01Z</time>
      </trkpt>
      <trkpt lat="45.0705" lon="5.78638">
        <ele>543.4</ele>
        <time>2021-05-29T10:45:02Z</time>
      </trkpt>
      <trkpt lat="45.07052" lon="5.78639">
        <ele>543.6</ele>
        <time>2021-05-29T10:45:03Z</time>
      </trkpt>
      <trkpt lat="45.07054" lon="5.78639">
        <ele>544.2</ele>
        <time>2021-05-29T10:45:04Z</time>
      </trkpt>
      <trkpt lat="45.07056" lon="5.78639">
        <ele>544.2</ele>
        <time>2021-05-29T10:45:05Z</time>
      </trkpt>
      <trkpt lat="45.07058" lon="5.7864">
        <ele>544.6</ele>
        <time>2021-05-29T10:45:06Z</time>
      </trkpt>
      <trkpt lat="45.07061" lon="5.78641">
        <ele>544.6</ele>
        <time>2021-05-29T10:45:07Z</time>
      </trkpt>
      <trkpt lat="45.07063" lon="5.78642">
        <ele>544.8</ele>
        <time>2021-05-29T10:45:08Z</time>
      </trkpt>
      <trkpt lat="45.07065" lon="5.78644">
        <ele>544.6</ele>
        <time>2021-05-29T10:45:09Z</time>
      </trkpt>
      <trkpt lat="45.07068" lon="5.78645">
        <ele>544.8</ele>
        <time>2021-05-29T10:45:10Z</time>
      </trkpt>
      <trkpt lat="45.0707" lon="5.78646">
        <ele>544.4</ele>
        <time>2021-05-29T10:45:11Z</time>
      </trkpt>
      <trkpt lat="45.07072" lon="5.78648">
        <ele>544.4</ele>
        <time>2021-05-29T10:45:12Z</time>
      </trkpt>
      <trkpt lat="45.07074" lon="5.78649">
        <ele>544.4</ele>
        <time>2021-05-29T10:45:13Z</time>
      </trkpt>
      <trkpt lat="45.07076" lon="5.78651">
        <ele>544.2</ele>
        <time>2021-05-29T10:45:14Z</time>
      </trkpt>
      <trkpt lat="45.07078" lon="5.78653">
        <ele>543.8</ele>
        <time>2021-05-29T10:45:15Z</time>
      </trkpt>
      <trkpt lat="45.0708" lon="5.78656">
        <ele>543.8</ele>
        <time>2021-05-29T10:45:16Z</time>
      </trkpt>
      <trkpt lat="45.07083" lon="5.78658">
        <ele>543.4</ele>
        <time>2021-05-29T10:45:17Z</time>
      </trkpt>
      <trkpt lat="45.07085" lon="5.7866">
        <ele>543.2</ele>
        <time>2021-05-29T10:45:18Z</time>
      </trkpt>
      <trkpt lat="45.07087" lon="5.78663">
        <ele>543.6</ele>
        <time>2021-05-29T10:45:19Z</time>
      </trkpt>
      <trkpt lat="45.0709" lon="5.78665">
        <ele>543.6</ele>
        <time>2021-05-29T10:45:20Z</time>
      </trkpt>
      <trkpt lat="45.07092" lon="5.78667">
        <ele>544</ele>
        <time>2021-05-29T10:45:21Z</time>
      </trkpt>
      <trkpt lat="45.07096" lon="5.78669">
        <ele>544.2</ele>
        <time>2021-05-29T10:45:22Z</time>
      </trkpt>
      <trkpt lat="45.07099" lon="5.78671">
        <ele>544.6</ele>
        <time>2021-05-29T10:45:23Z</time>
      </trkpt>
      <trkpt lat="45.07103" lon="5.78672">
        <ele>544.6</ele>
        <time>2021-05-29T10:45:24Z</time>
      </trkpt>
      <trkpt lat="45.07106" lon="5.78674">
        <ele>545</ele>
        <time>2021-05-29T10:45:25Z</time>
      </trkpt>
      <trkpt lat="45.0711" lon="5.78677">
        <ele>544.8</ele>
        <time>2021-05-29T10:45:26Z</time>
      </trkpt>
      <trkpt lat="45.0711" lon="5.78677">
        <ele>545.2</ele>
        <time>2021-05-29T10:45:27Z</time>
      </trkpt>
      <trkpt lat="45.0711" lon="5.78677">
        <ele>545</ele>
        <time>2021-05-29T10:45:28Z</time>
      </trkpt>
      <trkpt lat="45.07113" lon="5.78677">
        <ele>545.2</ele>
        <time>2021-05-29T10:45:29Z</time>
      </trkpt>
      <trkpt lat="45.07115" lon="5.78677">
        <ele>544.8</ele>
        <time>2021-05-29T10:45:30Z</time>
      </trkpt>
      <trkpt lat="45.07118" lon="5.78677">
        <ele>545</ele>
        <time>2021-05-29T10:45:31Z</time>
      </trkpt>
      <trkpt lat="45.0712" lon="5.78677">
        <ele>544.8</ele>
        <time>2021-05-29T10:45:32Z</time>
      </trkpt>
      <trkpt lat="45.07123" lon="5.78677">
        <ele>545</ele>
        <time>2021-05-29T10:45:33Z</time>
      </trkpt>
      <trkpt lat="45.07126" lon="5.78677">
        <ele>544.8</ele>
        <time>2021-05-29T10:45:34Z</time>
      </trkpt>
      <trkpt lat="45.07128" lon="5.78677">
        <ele>545</ele>
        <time>2021-05-29T10:45:35Z</time>
      </trkpt>
      <trkpt lat="45.07131" lon="5.78677">
        <ele>544.6</ele>
        <time>2021-05-29T10:45:36Z</time>
      </trkpt>
      <trkpt lat="45.07133" lon="5.78678">
        <ele>544.6</ele>
        <time>2021-05-29T10:45:37Z</time>
      </trkpt>
      <trkpt lat="45.07135" lon="5.78678">
        <ele>544.2</ele>
        <time>2021-05-29T10:45:38Z</time>
      </trkpt>
      <trkpt lat="45.07137" lon="5.78678">
        <ele>543.8</ele>
        <time>2021-05-29T10:45:39Z</time>
      </trkpt>
      <trkpt lat="45.07139" lon="5.78678">
        <ele>544.4</ele>
        <time>2021-05-29T10:45:40Z</time>
      </trkpt>
      <trkpt lat="45.07141" lon="5.78678">
        <ele>544.2</ele>
        <time>2021-05-29T10:45:41Z</time>
      </trkpt>
      <trkpt lat="45.07144" lon="5.78678">
        <ele>544.4</ele>
        <time>2021-05-29T10:45:42Z</time>
      </trkpt>
      <trkpt lat="45.07147" lon="5.78678">
        <ele>544.2</ele>
        <time>2021-05-29T10:45:43Z</time>
      </trkpt>
      <trkpt lat="45.0715" lon="5.78679">
        <ele>544.6</ele>
        <time>2021-05-29T10:45:44Z</time>
      </trkpt>
      <trkpt lat="45.07153" lon="5.78679">
        <ele>544.6</ele>
        <time>2021-05-29T10:45:45Z</time>
      </trkpt>
      <trkpt lat="45.07156" lon="5.7868">
        <ele>544.6</ele>
        <time>2021-05-29T10:45:46Z</time>
      </trkpt>
      <trkpt lat="45.07158" lon="5.78681">
        <ele>544.4</ele>
        <time>2021-05-29T10:45:47Z</time>
      </trkpt>
      <trkpt lat="45.0716" lon="5.78682">
        <ele>544.4</ele>
        <time>2021-05-29T10:45:48Z</time>
      </trkpt>
      <trkpt lat="45.07163" lon="5.78684">
        <ele>544.2</ele>
        <time>2021-05-29T10:45:49Z</time>
      </trkpt>
      <trkpt lat="45.0717" lon="5.78692">
        <ele>544.2</ele>
        <time>2021-05-29T10:45:50Z</time>
      </trkpt>
      <trkpt lat="45.0717" lon="5.78692">
        <ele>543.8</ele>
        <time>2021-05-29T10:45:51Z</time>
      </trkpt>
      <trkpt lat="45.0717" lon="5.78692">
        <ele>543.6</ele>
        <time>2021-05-29T10:45:52Z</time>
      </trkpt>
      <trkpt lat="45.07172" lon="5.78694">
        <ele>544</ele>
        <time>2021-05-29T10:45:53Z</time>
      </trkpt>
      <trkpt lat="45.07174" lon="5.78696">
        <ele>543.8</ele>
        <time>2021-05-29T10:45:54Z</time>
      </trkpt>
      <trkpt lat="45.07176" lon="5.78698">
        <ele>544</ele>
        <time>2021-05-29T10:45:55Z</time>
      </trkpt>
      <trkpt lat="45.07178" lon="5.787">
        <ele>543.8</ele>
        <time>2021-05-29T10:45:56Z</time>
      </trkpt>
      <trkpt lat="45.0718" lon="5.78701">
        <ele>544.4</ele>
        <time>2021-05-29T10:45:57Z</time>
      </trkpt>
      <trkpt lat="45.07182" lon="5.78703">
        <ele>544</ele>
        <time>2021-05-29T10:45:58Z</time>
      </trkpt>
      <trkpt lat="45.07184" lon="5.78704">
        <ele>544.2</ele>
        <time>2021-05-29T10:45:59Z</time>
      </trkpt>
      <trkpt lat="45.07185" lon="5.78706">
        <ele>544</ele>
        <time>2021-05-29T10:46:00Z</time>
      </trkpt>
      <trkpt lat="45.07187" lon="5.78707">
        <ele>544</ele>
        <time>2021-05-29T10:46:01Z</time>
      </trkpt>
      <trkpt lat="45.0719" lon="5.78709">
        <ele>543.6</ele>
        <time>2021-05-29T10:46:02Z</time>
      </trkpt>
      <trkpt lat="45.07192" lon="5.78711">
        <ele>543.6</ele>
        <time>2021-05-29T10:46:03Z</time>
      </trkpt>
      <trkpt lat="45.07195" lon="5.78712">
        <ele>543.2</ele>
        <time>2021-05-29T10:46:04Z</time>
      </trkpt>
      <trkpt lat="45.07197" lon="5.78714">
        <ele>542.8</ele>
        <time>2021-05-29T10:46:05Z</time>
      </trkpt>
      <trkpt lat="45.07199" lon="5.78715">
        <ele>542.4</ele>
        <time>2021-05-29T10:46:06Z</time>
      </trkpt>
      <trkpt lat="45.07202" lon="5.78716">
        <ele>542</ele>
        <time>2021-05-29T10:46:07Z</time>
      </trkpt>
      <trkpt lat="45.07204" lon="5.78718">
        <ele>542.2</ele>
        <time>2021-05-29T10:46:08Z</time>
      </trkpt>
      <trkpt lat="45.07207" lon="5.78719">
        <ele>542.2</ele>
        <time>2021-05-29T10:46:09Z</time>
      </trkpt>
      <trkpt lat="45.07209" lon="5.78719">
        <ele>542.8</ele>
        <time>2021-05-29T10:46:10Z</time>
      </trkpt>
      <trkpt lat="45.07211" lon="5.78719">
        <ele>542.8</ele>
        <time>2021-05-29T10:46:11Z</time>
      </trkpt>
      <trkpt lat="45.07214" lon="5.7872">
        <ele>543</ele>
        <time>2021-05-29T10:46:12Z</time>
      </trkpt>
      <trkpt lat="45.07216" lon="5.7872">
        <ele>542.8</ele>
        <time>2021-05-29T10:46:13Z</time>
      </trkpt>
      <trkpt lat="45.07219" lon="5.78721">
        <ele>542.8</ele>
        <time>2021-05-29T10:46:14Z</time>
      </trkpt>
      <trkpt lat="45.07221" lon="5.78722">
        <ele>542.4</ele>
        <time>2021-05-29T10:46:15Z</time>
      </trkpt>
      <trkpt lat="45.07224" lon="5.78723">
        <ele>542.2</ele>
        <time>2021-05-29T10:46:16Z</time>
      </trkpt>
      <trkpt lat="45.07226" lon="5.78724">
        <ele>541.8</ele>
        <time>2021-05-29T10:46:17Z</time>
      </trkpt>
      <trkpt lat="45.07229" lon="5.78725">
        <ele>541.6</ele>
        <time>2021-05-29T10:46:18Z</time>
      </trkpt>
      <trkpt lat="45.07231" lon="5.78725">
        <ele>541.4</ele>
        <time>2021-05-29T10:46:19Z</time>
      </trkpt>
      <trkpt lat="45.07233" lon="5.78726">
        <ele>541.2</ele>
        <time>2021-05-29T10:46:20Z</time>
      </trkpt>
      <trkpt lat="45.07235" lon="5.78726">
        <ele>541.4</ele>
        <time>2021-05-29T10:46:21Z</time>
      </trkpt>
      <trkpt lat="45.07238" lon="5.78727">
        <ele>541.4</ele>
        <time>2021-05-29T10:46:22Z</time>
      </trkpt>
      <trkpt lat="45.0724" lon="5.78729">
        <ele>541.8</ele>
        <time>2021-05-29T10:46:23Z</time>
      </trkpt>
      <trkpt lat="45.07243" lon="5.7873">
        <ele>541.6</ele>
        <time>2021-05-29T10:46:24Z</time>
      </trkpt>
      <trkpt lat="45.07245" lon="5.78732">
        <ele>541.8</ele>
        <time>2021-05-29T10:46:25Z</time>
      </trkpt>
      <trkpt lat="45.07248" lon="5.78733">
        <ele>541.6</ele>
        <time>2021-05-29T10:46:26Z</time>
      </trkpt>
      <trkpt lat="45.0725" lon="5.78735">
        <ele>541.6</ele>
        <time>2021-05-29T10:46:27Z</time>
      </trkpt>
      <trkpt lat="45.07253" lon="5.78736">
        <ele>541.2</ele>
        <time>2021-05-29T10:46:28Z</time>
      </trkpt>
      <trkpt lat="45.07255" lon="5.78738">
        <ele>540.8</ele>
        <time>2021-05-29T10:46:29Z</time>
      </trkpt>
      <trkpt lat="45.07258" lon="5.7874">
        <ele>540.4</ele>
        <time>2021-05-29T10:46:30Z</time>
      </trkpt>
      <trkpt lat="45.07262" lon="5.78743">
        <ele>540.2</ele>
        <time>2021-05-29T10:46:31Z</time>
      </trkpt>
      <trkpt lat="45.07265" lon="5.78745">
        <ele>540</ele>
        <time>2021-05-29T10:46:32Z</time>
      </trkpt>
      <trkpt lat="45.07269" lon="5.78748">
        <ele>539.6</ele>
        <time>2021-05-29T10:46:33Z</time>
      </trkpt>
      <trkpt lat="45.07273" lon="5.78752">
        <ele>539.6</ele>
        <time>2021-05-29T10:46:34Z</time>
      </trkpt>
      <trkpt lat="45.07273" lon="5.78752">
        <ele>539.4</ele>
        <time>2021-05-29T10:46:35Z</time>
      </trkpt>
      <trkpt lat="45.07273" lon="5.78752">
        <ele>539.4</ele>
        <time>2021-05-29T10:46:36Z</time>
      </trkpt>
      <trkpt lat="45.07275" lon="5.78754">
        <ele>539.4</ele>
        <time>2021-05-29T10:46:37Z</time>
      </trkpt>
      <trkpt lat="45.07278" lon="5.78756">
        <ele>539.8</ele>
        <time>2021-05-29T10:46:38Z</time>
      </trkpt>
      <trkpt lat="45.0728" lon="5.78758">
        <ele>539.6</ele>
        <time>2021-05-29T10:46:39Z</time>
      </trkpt>
      <trkpt lat="45.07283" lon="5.78759">
        <ele>539.8</ele>
        <time>2021-05-29T10:46:40Z</time>
      </trkpt>
      <trkpt lat="45.07286" lon="5.78761">
        <ele>539.6</ele>
        <time>2021-05-29T10:46:41Z</time>
      </trkpt>
      <trkpt lat="45.07289" lon="5.78763">
        <ele>539.8</ele>
        <time>2021-05-29T10:46:42Z</time>
      </trkpt>
      <trkpt lat="45.07291" lon="5.78764">
        <ele>539.2</ele>
        <time>2021-05-29T10:46:43Z</time>
      </trkpt>
      <trkpt lat="45.07294" lon="5.78766">
        <ele>539</ele>
        <time>2021-05-29T10:46:44Z</time>
      </trkpt>
      <trkpt lat="45.07297" lon="5.78767">
        <ele>539.2</ele>
        <time>2021-05-29T10:46:45Z</time>
      </trkpt>
      <trkpt lat="45.073" lon="5.78768">
        <ele>539</ele>
        <time>2021-05-29T10:46:46Z</time>
      </trkpt>
      <trkpt lat="45.07302" lon="5.78769">
        <ele>539.2</ele>
        <time>2021-05-29T10:46:47Z</time>
      </trkpt>
      <trkpt lat="45.07305" lon="5.7877">
        <ele>539.2</ele>
        <time>2021-05-29T10:46:48Z</time>
      </trkpt>
      <trkpt lat="45.07307" lon="5.78771">
        <ele>539.2</ele>
        <time>2021-05-29T10:46:49Z</time>
      </trkpt>
      <trkpt lat="45.0731" lon="5.78773">
        <ele>538.8</ele>
        <time>2021-05-29T10:46:50Z</time>
      </trkpt>
      <trkpt lat="45.07312" lon="5.78775">
        <ele>538.4</ele>
        <time>2021-05-29T10:46:51Z</time>
      </trkpt>
      <trkpt lat="45.07314" lon="5.78777">
        <ele>538</ele>
        <time>2021-05-29T10:46:52Z</time>
      </trkpt>
      <trkpt lat="45.07323" lon="5.78779">
        <ele>537.6</ele>
        <time>2021-05-29T10:46:53Z</time>
      </trkpt>
      <trkpt lat="45.07326" lon="5.7878">
        <ele>537.6</ele>
        <time>2021-05-29T10:46:54Z</time>
      </trkpt>
      <trkpt lat="45.07329" lon="5.78781">
        <ele>537</ele>
        <time>2021-05-29T10:46:55Z</time>
      </trkpt>
      <trkpt lat="45.07332" lon="5.78783">
        <ele>537</ele>
        <time>2021-05-29T10:46:56Z</time>
      </trkpt>
      <trkpt lat="45.07332" lon="5.78783">
        <ele>536.2</ele>
        <time>2021-05-29T10:46:57Z</time>
      </trkpt>
      <trkpt lat="45.07332" lon="5.78783">
        <ele>535.4</ele>
        <time>2021-05-29T10:46:58Z</time>
      </trkpt>
      <trkpt lat="45.07334" lon="5.78784">
        <ele>535.2</ele>
        <time>2021-05-29T10:46:59Z</time>
      </trkpt>
      <trkpt lat="45.07336" lon="5.78785">
        <ele>534.8</ele>
        <time>2021-05-29T10:47:00Z</time>
      </trkpt>
      <trkpt lat="45.07339" lon="5.78787">
        <ele>534.4</ele>
        <time>2021-05-29T10:47:01Z</time>
      </trkpt>
      <trkpt lat="45.07341" lon="5.78788">
        <ele>533.6</ele>
        <time>2021-05-29T10:47:02Z</time>
      </trkpt>
      <trkpt lat="45.0735" lon="5.78789">
        <ele>533</ele>
        <time>2021-05-29T10:47:03Z</time>
      </trkpt>
      <trkpt lat="45.0735" lon="5.78789">
        <ele>532.8</ele>
        <time>2021-05-29T10:47:04Z</time>
      </trkpt>
      <trkpt lat="45.0735" lon="5.78789">
        <ele>532.2</ele>
        <time>2021-05-29T10:47:05Z</time>
      </trkpt>
      <trkpt lat="45.07352" lon="5.78789">
        <ele>532</ele>
        <time>2021-05-29T10:47:06Z</time>
      </trkpt>
      <trkpt lat="45.07354" lon="5.78789">
        <ele>531.4</ele>
        <time>2021-05-29T10:47:07Z</time>
      </trkpt>
      <trkpt lat="45.07356" lon="5.78789">
        <ele>530.8</ele>
        <time>2021-05-29T10:47:08Z</time>
      </trkpt>
      <trkpt lat="45.07358" lon="5.78789">
        <ele>529.6</ele>
        <time>2021-05-29T10:47:09Z</time>
      </trkpt>
      <trkpt lat="45.0736" lon="5.78788">
        <ele>529.2</ele>
        <time>2021-05-29T10:47:10Z</time>
      </trkpt>
      <trkpt lat="45.07362" lon="5.78789">
        <ele>529.4</ele>
        <time>2021-05-29T10:47:11Z</time>
      </trkpt>
      <trkpt lat="45.07364" lon="5.78789">
        <ele>528.8</ele>
        <time>2021-05-29T10:47:12Z</time>
      </trkpt>
      <trkpt lat="45.07366" lon="5.7879">
        <ele>528.6</ele>
        <time>2021-05-29T10:47:13Z</time>
      </trkpt>
      <trkpt lat="45.07368" lon="5.7879">
        <ele>528</ele>
        <time>2021-05-29T10:47:14Z</time>
      </trkpt>
      <trkpt lat="45.0737" lon="5.7879">
        <ele>527.2</ele>
        <time>2021-05-29T10:47:15Z</time>
      </trkpt>
      <trkpt lat="45.07371" lon="5.78791">
        <ele>527</ele>
        <time>2021-05-29T10:47:16Z</time>
      </trkpt>
      <trkpt lat="45.07374" lon="5.78791">
        <ele>526.6</ele>
        <time>2021-05-29T10:47:17Z</time>
      </trkpt>
      <trkpt lat="45.07377" lon="5.78792">
        <ele>526.2</ele>
        <time>2021-05-29T10:47:18Z</time>
      </trkpt>
      <trkpt lat="45.0738" lon="5.78792">
        <ele>525.4</ele>
        <time>2021-05-29T10:47:19Z</time>
      </trkpt>
      <trkpt lat="45.07382" lon="5.78792">
        <ele>524.8</ele>
        <time>2021-05-29T10:47:20Z</time>
      </trkpt>
      <trkpt lat="45.07385" lon="5.78792">
        <ele>524.4</ele>
        <time>2021-05-29T10:47:21Z</time>
      </trkpt>
      <trkpt lat="45.07387" lon="5.78791">
        <ele>524</ele>
        <time>2021-05-29T10:47:22Z</time>
      </trkpt>
      <trkpt lat="45.07389" lon="5.7879">
        <ele>523.8</ele>
        <time>2021-05-29T10:47:23Z</time>
      </trkpt>
      <trkpt lat="45.07391" lon="5.78789">
        <ele>523.2</ele>
        <time>2021-05-29T10:47:24Z</time>
      </trkpt>
      <trkpt lat="45.07393" lon="5.78788">
        <ele>522.4</ele>
        <time>2021-05-29T10:47:25Z</time>
      </trkpt>
      <trkpt lat="45.07395" lon="5.78787">
        <ele>522.2</ele>
        <time>2021-05-29T10:47:26Z</time>
      </trkpt>
      <trkpt lat="45.07397" lon="5.78785">
        <ele>521.6</ele>
        <time>2021-05-29T10:47:27Z</time>
      </trkpt>
      <trkpt lat="45.07398" lon="5.78783">
        <ele>521.4</ele>
        <time>2021-05-29T10:47:28Z</time>
      </trkpt>
      <trkpt lat="45.074" lon="5.78781">
        <ele>520.6</ele>
        <time>2021-05-29T10:47:29Z</time>
      </trkpt>
      <trkpt lat="45.07402" lon="5.78779">
        <ele>520</ele>
        <time>2021-05-29T10:47:30Z</time>
      </trkpt>
      <trkpt lat="45.07403" lon="5.78778">
        <ele>519.6</ele>
        <time>2021-05-29T10:47:31Z</time>
      </trkpt>
      <trkpt lat="45.07405" lon="5.78777">
        <ele>519</ele>
        <time>2021-05-29T10:47:32Z</time>
      </trkpt>
      <trkpt lat="45.07406" lon="5.78777">
        <ele>519</ele>
        <time>2021-05-29T10:47:33Z</time>
      </trkpt>
      <trkpt lat="45.07408" lon="5.78776">
        <ele>518.2</ele>
        <time>2021-05-29T10:47:34Z</time>
      </trkpt>
      <trkpt lat="45.07409" lon="5.78775">
        <ele>517.8</ele>
        <time>2021-05-29T10:47:35Z</time>
      </trkpt>
      <trkpt lat="45.07411" lon="5.78774">
        <ele>517.2</ele>
        <time>2021-05-29T10:47:36Z</time>
      </trkpt>
      <trkpt lat="45.07413" lon="5.78774">
        <ele>516.6</ele>
        <time>2021-05-29T10:47:37Z</time>
      </trkpt>
      <trkpt lat="45.07415" lon="5.78774">
        <ele>516.6</ele>
        <time>2021-05-29T10:47:38Z</time>
      </trkpt>
      <trkpt lat="45.07416" lon="5.78774">
        <ele>516.2</ele>
        <time>2021-05-29T10:47:39Z</time>
      </trkpt>
      <trkpt lat="45.07418" lon="5.78774">
        <ele>516</ele>
        <time>2021-05-29T10:47:40Z</time>
      </trkpt>
      <trkpt lat="45.0742" lon="5.78774">
        <ele>515.6</ele>
        <time>2021-05-29T10:47:41Z</time>
      </trkpt>
      <trkpt lat="45.07422" lon="5.78774">
        <ele>515.2</ele>
        <time>2021-05-29T10:47:42Z</time>
      </trkpt>
      <trkpt lat="45.07426" lon="5.78774">
        <ele>514.4</ele>
        <time>2021-05-29T10:47:43Z</time>
      </trkpt>
      <trkpt lat="45.0743" lon="5.78775">
        <ele>514</ele>
        <time>2021-05-29T10:47:44Z</time>
      </trkpt>
      <trkpt lat="45.07434" lon="5.78775">
        <ele>514</ele>
        <time>2021-05-29T10:47:45Z</time>
      </trkpt>
      <trkpt lat="45.07439" lon="5.78775">
        <ele>513.6</ele>
        <time>2021-05-29T10:47:46Z</time>
      </trkpt>
      <trkpt lat="45.07444" lon="5.78775">
        <ele>513.6</ele>
        <time>2021-05-29T10:47:47Z</time>
      </trkpt>
      <trkpt lat="45.07445" lon="5.78776">
        <ele>513</ele>
        <time>2021-05-29T10:47:48Z</time>
      </trkpt>
      <trkpt lat="45.07446" lon="5.78777">
        <ele>512.6</ele>
        <time>2021-05-29T10:47:49Z</time>
      </trkpt>
      <trkpt lat="45.07447" lon="5.78777">
        <ele>512.4</ele>
        <time>2021-05-29T10:47:50Z</time>
      </trkpt>
      <trkpt lat="45.07448" lon="5.78778">
        <ele>511.8</ele>
        <time>2021-05-29T10:47:51Z</time>
      </trkpt>
      <trkpt lat="45.07451" lon="5.78781">
        <ele>511.8</ele>
        <time>2021-05-29T10:47:52Z</time>
      </trkpt>
      <trkpt lat="45.07455" lon="5.78783">
        <ele>511.6</ele>
        <time>2021-05-29T10:47:53Z</time>
      </trkpt>
      <trkpt lat="45.07459" lon="5.78786">
        <ele>511.4</ele>
        <time>2021-05-29T10:47:54Z</time>
      </trkpt>
      <trkpt lat="45.07462" lon="5.78789">
        <ele>511</ele>
        <time>2021-05-29T10:47:55Z</time>
      </trkpt>
      <trkpt lat="45.07466" lon="5.78791">
        <ele>510.8</ele>
        <time>2021-05-29T10:47:56Z</time>
      </trkpt>
      <trkpt lat="45.07469" lon="5.78795">
        <ele>510.6</ele>
        <time>2021-05-29T10:47:57Z</time>
      </trkpt>
      <trkpt lat="45.0747" lon="5.78797">
        <ele>510.6</ele>
        <time>2021-05-29T10:47:58Z</time>
      </trkpt>
      <trkpt lat="45.07471" lon="5.78799">
        <ele>510.2</ele>
        <time>2021-05-29T10:47:59Z</time>
      </trkpt>
      <trkpt lat="45.07472" lon="5.78802">
        <ele>510.2</ele>
        <time>2021-05-29T10:48:00Z</time>
      </trkpt>
      <trkpt lat="45.07475" lon="5.78808">
        <ele>509.8</ele>
        <time>2021-05-29T10:48:01Z</time>
      </trkpt>
      <trkpt lat="45.07475" lon="5.78808">
        <ele>509.4</ele>
        <time>2021-05-29T10:48:02Z</time>
      </trkpt>
      <trkpt lat="45.07475" lon="5.78808">
        <ele>509.4</ele>
        <time>2021-05-29T10:48:03Z</time>
      </trkpt>
      <trkpt lat="45.07476" lon="5.7881">
        <ele>509.2</ele>
        <time>2021-05-29T10:48:04Z</time>
      </trkpt>
      <trkpt lat="45.07478" lon="5.78813">
        <ele>509.6</ele>
        <time>2021-05-29T10:48:05Z</time>
      </trkpt>
      <trkpt lat="45.07479" lon="5.78815">
        <ele>509.6</ele>
        <time>2021-05-29T10:48:06Z</time>
      </trkpt>
      <trkpt lat="45.0748" lon="5.78817">
        <ele>509.4</ele>
        <time>2021-05-29T10:48:07Z</time>
      </trkpt>
      <trkpt lat="45.07481" lon="5.7882">
        <ele>508.8</ele>
        <time>2021-05-29T10:48:08Z</time>
      </trkpt>
      <trkpt lat="45.07483" lon="5.7882">
        <ele>508.2</ele>
        <time>2021-05-29T10:48:09Z</time>
      </trkpt>
      <trkpt lat="45.07484" lon="5.78821">
        <ele>508.2</ele>
        <time>2021-05-29T10:48:10Z</time>
      </trkpt>
      <trkpt lat="45.07486" lon="5.78821">
        <ele>507.8</ele>
        <time>2021-05-29T10:48:11Z</time>
      </trkpt>
      <trkpt lat="45.07487" lon="5.78822">
        <ele>507.8</ele>
        <time>2021-05-29T10:48:12Z</time>
      </trkpt>
      <trkpt lat="45.07489" lon="5.78822">
        <ele>507.2</ele>
        <time>2021-05-29T10:48:13Z</time>
      </trkpt>
      <trkpt lat="45.0749" lon="5.78823">
        <ele>506.4</ele>
        <time>2021-05-29T10:48:14Z</time>
      </trkpt>
      <trkpt lat="45.07492" lon="5.78823">
        <ele>506.2</ele>
        <time>2021-05-29T10:48:15Z</time>
      </trkpt>
      <trkpt lat="45.07494" lon="5.78824">
        <ele>505.8</ele>
        <time>2021-05-29T10:48:16Z</time>
      </trkpt>
      <trkpt lat="45.07496" lon="5.78824">
        <ele>505.4</ele>
        <time>2021-05-29T10:48:17Z</time>
      </trkpt>
      <trkpt lat="45.07497" lon="5.78825">
        <ele>504.8</ele>
        <time>2021-05-29T10:48:18Z</time>
      </trkpt>
      <trkpt lat="45.07499" lon="5.78826">
        <ele>504.4</ele>
        <time>2021-05-29T10:48:19Z</time>
      </trkpt>
      <trkpt lat="45.07501" lon="5.78826">
        <ele>503.4</ele>
        <time>2021-05-29T10:48:20Z</time>
      </trkpt>
      <trkpt lat="45.07504" lon="5.78826">
        <ele>502.6</ele>
        <time>2021-05-29T10:48:21Z</time>
      </trkpt>
      <trkpt lat="45.07506" lon="5.78825">
        <ele>502.6</ele>
        <time>2021-05-29T10:48:22Z</time>
      </trkpt>
      <trkpt lat="45.07509" lon="5.78825">
        <ele>502</ele>
        <time>2021-05-29T10:48:23Z</time>
      </trkpt>
      <trkpt lat="45.07511" lon="5.78824">
        <ele>501.8</ele>
        <time>2021-05-29T10:48:24Z</time>
      </trkpt>
      <trkpt lat="45.07514" lon="5.78824">
        <ele>501.2</ele>
        <time>2021-05-29T10:48:25Z</time>
      </trkpt>
      <trkpt lat="45.07517" lon="5.78823">
        <ele>501</ele>
        <time>2021-05-29T10:48:26Z</time>
      </trkpt>
      <trkpt lat="45.07519" lon="5.78822">
        <ele>500.4</ele>
        <time>2021-05-29T10:48:27Z</time>
      </trkpt>
      <trkpt lat="45.07522" lon="5.78821">
        <ele>500</ele>
        <time>2021-05-29T10:48:28Z</time>
      </trkpt>
      <trkpt lat="45.07526" lon="5.7882">
        <ele>499.4</ele>
        <time>2021-05-29T10:48:29Z</time>
      </trkpt>
      <trkpt lat="45.0753" lon="5.78819">
        <ele>499</ele>
        <time>2021-05-29T10:48:30Z</time>
      </trkpt>
      <trkpt lat="45.07535" lon="5.78818">
        <ele>498.8</ele>
        <time>2021-05-29T10:48:31Z</time>
      </trkpt>
      <trkpt lat="45.07539" lon="5.78818">
        <ele>498.2</ele>
        <time>2021-05-29T10:48:32Z</time>
      </trkpt>
      <trkpt lat="45.07545" lon="5.78817">
        <ele>498.4</ele>
        <time>2021-05-29T10:48:33Z</time>
      </trkpt>
      <trkpt lat="45.07545" lon="5.78817">
        <ele>498.4</ele>
        <time>2021-05-29T10:48:34Z</time>
      </trkpt>
      <trkpt lat="45.07545" lon="5.78817">
        <ele>498.6</ele>
        <time>2021-05-29T10:48:35Z</time>
      </trkpt>
      <trkpt lat="45.07545" lon="5.78817">
        <ele>498.2</ele>
        <time>2021-05-29T10:48:36Z</time>
      </trkpt>
      <trkpt lat="45.07547" lon="5.78818">
        <ele>498.2</ele>
        <time>2021-05-29T10:48:37Z</time>
      </trkpt>
      <trkpt lat="45.0755" lon="5.78818">
        <ele>497.8</ele>
        <time>2021-05-29T10:48:38Z</time>
      </trkpt>
      <trkpt lat="45.07553" lon="5.78819">
        <ele>497.2</ele>
        <time>2021-05-29T10:48:39Z</time>
      </trkpt>
      <trkpt lat="45.07555" lon="5.78819">
        <ele>497.4</ele>
        <time>2021-05-29T10:48:40Z</time>
      </trkpt>
      <trkpt lat="45.07558" lon="5.78819">
        <ele>497</ele>
        <time>2021-05-29T10:48:41Z</time>
      </trkpt>
      <trkpt lat="45.07561" lon="5.78819">
        <ele>497</ele>
        <time>2021-05-29T10:48:42Z</time>
      </trkpt>
      <trkpt lat="45.07564" lon="5.78819">
        <ele>496.4</ele>
        <time>2021-05-29T10:48:43Z</time>
      </trkpt>
      <trkpt lat="45.07566" lon="5.7882">
        <ele>495.6</ele>
        <time>2021-05-29T10:48:44Z</time>
      </trkpt>
      <trkpt lat="45.07569" lon="5.7882">
        <ele>495.4</ele>
        <time>2021-05-29T10:48:45Z</time>
      </trkpt>
      <trkpt lat="45.07571" lon="5.7882">
        <ele>494.8</ele>
        <time>2021-05-29T10:48:46Z</time>
      </trkpt>
      <trkpt lat="45.07574" lon="5.7882">
        <ele>495</ele>
        <time>2021-05-29T10:48:47Z</time>
      </trkpt>
      <trkpt lat="45.07576" lon="5.7882">
        <ele>494.6</ele>
        <time>2021-05-29T10:48:48Z</time>
      </trkpt>
      <trkpt lat="45.07579" lon="5.78821">
        <ele>494.2</ele>
        <time>2021-05-29T10:48:49Z</time>
      </trkpt>
      <trkpt lat="45.07581" lon="5.78821">
        <ele>493.6</ele>
        <time>2021-05-29T10:48:50Z</time>
      </trkpt>
      <trkpt lat="45.07584" lon="5.78821">
        <ele>492.8</ele>
        <time>2021-05-29T10:48:51Z</time>
      </trkpt>
      <trkpt lat="45.07586" lon="5.78821">
        <ele>492.6</ele>
        <time>2021-05-29T10:48:52Z</time>
      </trkpt>
      <trkpt lat="45.07588" lon="5.78822">
        <ele>492.4</ele>
        <time>2021-05-29T10:48:53Z</time>
      </trkpt>
      <trkpt lat="45.0759" lon="5.78823">
        <ele>492.2</ele>
        <time>2021-05-29T10:48:54Z</time>
      </trkpt>
      <trkpt lat="45.07592" lon="5.78825">
        <ele>491.8</ele>
        <time>2021-05-29T10:48:55Z</time>
      </trkpt>
      <trkpt lat="45.07594" lon="5.78826">
        <ele>491.4</ele>
        <time>2021-05-29T10:48:56Z</time>
      </trkpt>
      <trkpt lat="45.07596" lon="5.78827">
        <ele>490.6</ele>
        <time>2021-05-29T10:48:57Z</time>
      </trkpt>
      <trkpt lat="45.07598" lon="5.78829">
        <ele>490.2</ele>
        <time>2021-05-29T10:48:58Z</time>
      </trkpt>
      <trkpt lat="45.076" lon="5.78831">
        <ele>490.2</ele>
        <time>2021-05-29T10:48:59Z</time>
      </trkpt>
      <trkpt lat="45.07602" lon="5.78833">
        <ele>490</ele>
        <time>2021-05-29T10:49:00Z</time>
      </trkpt>
      <trkpt lat="45.07605" lon="5.78835">
        <ele>489.8</ele>
        <time>2021-05-29T10:49:01Z</time>
      </trkpt>
      <trkpt lat="45.07613" lon="5.78847">
        <ele>489.4</ele>
        <time>2021-05-29T10:49:02Z</time>
      </trkpt>
      <trkpt lat="45.07614" lon="5.78847">
        <ele>489.4</ele>
        <time>2021-05-29T10:49:03Z</time>
      </trkpt>
      <trkpt lat="45.07615" lon="5.78848">
        <ele>488.8</ele>
        <time>2021-05-29T10:49:04Z</time>
      </trkpt>
      <trkpt lat="45.07616" lon="5.78849">
        <ele>488</ele>
        <time>2021-05-29T10:49:05Z</time>
      </trkpt>
      <trkpt lat="45.07619" lon="5.78853">
        <ele>488.2</ele>
        <time>2021-05-29T10:49:06Z</time>
      </trkpt>
      <trkpt lat="45.0762" lon="5.78855">
        <ele>487.6</ele>
        <time>2021-05-29T10:49:07Z</time>
      </trkpt>
      <trkpt lat="45.07622" lon="5.78857">
        <ele>487.6</ele>
        <time>2021-05-29T10:49:08Z</time>
      </trkpt>
      <trkpt lat="45.07623" lon="5.78859">
        <ele>487.2</ele>
        <time>2021-05-29T10:49:09Z</time>
      </trkpt>
      <trkpt lat="45.07626" lon="5.78865">
        <ele>486.8</ele>
        <time>2021-05-29T10:49:10Z</time>
      </trkpt>
      <trkpt lat="45.07626" lon="5.78865">
        <ele>486.4</ele>
        <time>2021-05-29T10:49:11Z</time>
      </trkpt>
      <trkpt lat="45.07626" lon="5.78865">
        <ele>486.2</ele>
        <time>2021-05-29T10:49:12Z</time>
      </trkpt>
      <trkpt lat="45.07627" lon="5.78867">
        <ele>485.6</ele>
        <time>2021-05-29T10:49:13Z</time>
      </trkpt>
      <trkpt lat="45.07629" lon="5.7887">
        <ele>484.8</ele>
        <time>2021-05-29T10:49:14Z</time>
      </trkpt>
      <trkpt lat="45.07631" lon="5.78872">
        <ele>485</ele>
        <time>2021-05-29T10:49:15Z</time>
      </trkpt>
      <trkpt lat="45.07633" lon="5.78875">
        <ele>484.6</ele>
        <time>2021-05-29T10:49:16Z</time>
      </trkpt>
      <trkpt lat="45.07635" lon="5.78877">
        <ele>485</ele>
        <time>2021-05-29T10:49:17Z</time>
      </trkpt>
      <trkpt lat="45.07637" lon="5.7888">
        <ele>484.6</ele>
        <time>2021-05-29T10:49:18Z</time>
      </trkpt>
      <trkpt lat="45.07639" lon="5.78883">
        <ele>484.8</ele>
        <time>2021-05-29T10:49:19Z</time>
      </trkpt>
      <trkpt lat="45.0764" lon="5.78886">
        <ele>484.2</ele>
        <time>2021-05-29T10:49:20Z</time>
      </trkpt>
      <trkpt lat="45.07643" lon="5.78889">
        <ele>483.6</ele>
        <time>2021-05-29T10:49:21Z</time>
      </trkpt>
      <trkpt lat="45.07645" lon="5.78892">
        <ele>483</ele>
        <time>2021-05-29T10:49:22Z</time>
      </trkpt>
      <trkpt lat="45.07647" lon="5.78895">
        <ele>482.6</ele>
        <time>2021-05-29T10:49:23Z</time>
      </trkpt>
      <trkpt lat="45.0765" lon="5.78898">
        <ele>482.8</ele>
        <time>2021-05-29T10:49:24Z</time>
      </trkpt>
      <trkpt lat="45.07652" lon="5.78901">
        <ele>482.8</ele>
        <time>2021-05-29T10:49:25Z</time>
      </trkpt>
      <trkpt lat="45.07657" lon="5.78905">
        <ele>483</ele>
        <time>2021-05-29T10:49:26Z</time>
      </trkpt>
      <trkpt lat="45.07657" lon="5.78905">
        <ele>482.8</ele>
        <time>2021-05-29T10:49:27Z</time>
      </trkpt>
      <trkpt lat="45.07657" lon="5.78905">
        <ele>482.6</ele>
        <time>2021-05-29T10:49:28Z</time>
      </trkpt>
      <trkpt lat="45.07657" lon="5.78905">
        <ele>482.2</ele>
        <time>2021-05-29T10:49:29Z</time>
      </trkpt>
      <trkpt lat="45.07659" lon="5.78906">
        <ele>482</ele>
        <time>2021-05-29T10:49:30Z</time>
      </trkpt>
      <trkpt lat="45.07661" lon="5.78907">
        <ele>481.4</ele>
        <time>2021-05-29T10:49:31Z</time>
      </trkpt>
      <trkpt lat="45.07663" lon="5.78909">
        <ele>480.8</ele>
        <time>2021-05-29T10:49:32Z</time>
      </trkpt>
      <trkpt lat="45.07665" lon="5.7891">
        <ele>481</ele>
        <time>2021-05-29T10:49:33Z</time>
      </trkpt>
      <trkpt lat="45.07667" lon="5.78912">
        <ele>480.6</ele>
        <time>2021-05-29T10:49:34Z</time>
      </trkpt>
      <trkpt lat="45.07668" lon="5.78914">
        <ele>480.6</ele>
        <time>2021-05-29T10:49:35Z</time>
      </trkpt>
      <trkpt lat="45.0767" lon="5.78915">
        <ele>480.4</ele>
        <time>2021-05-29T10:49:36Z</time>
      </trkpt>
      <trkpt lat="45.07672" lon="5.78917">
        <ele>480</ele>
        <time>2021-05-29T10:49:37Z</time>
      </trkpt>
      <trkpt lat="45.07673" lon="5.78919">
        <ele>479.4</ele>
        <time>2021-05-29T10:49:38Z</time>
      </trkpt>
      <trkpt lat="45.07678" lon="5.78929">
        <ele>478.6</ele>
        <time>2021-05-29T10:49:39Z</time>
      </trkpt>
      <trkpt lat="45.07683" lon="5.7894">
        <ele>478.8</ele>
        <time>2021-05-29T10:49:40Z</time>
      </trkpt>
      <trkpt lat="45.07689" lon="5.78951">
        <ele>478.2</ele>
        <time>2021-05-29T10:49:41Z</time>
      </trkpt>
      <trkpt lat="45.07694" lon="5.78961">
        <ele>478</ele>
        <time>2021-05-29T10:49:42Z</time>
      </trkpt>
      <trkpt lat="45.07699" lon="5.78972">
        <ele>477.4</ele>
        <time>2021-05-29T10:49:43Z</time>
      </trkpt>
      <trkpt lat="45.07704" lon="5.78983">
        <ele>476.8</ele>
        <time>2021-05-29T10:49:44Z</time>
      </trkpt>
      <trkpt lat="45.07714" lon="5.79002">
        <ele>476.6</ele>
        <time>2021-05-29T10:49:45Z</time>
      </trkpt>
      <trkpt lat="45.07716" lon="5.79006">
        <ele>476</ele>
        <time>2021-05-29T10:49:46Z</time>
      </trkpt>
      <trkpt lat="45.07717" lon="5.79009">
        <ele>476</ele>
        <time>2021-05-29T10:49:47Z</time>
      </trkpt>
      <trkpt lat="45.07718" lon="5.79012">
        <ele>475.4</ele>
        <time>2021-05-29T10:49:48Z</time>
      </trkpt>
      <trkpt lat="45.07722" lon="5.79023">
        <ele>475</ele>
        <time>2021-05-29T10:49:49Z</time>
      </trkpt>
      <trkpt lat="45.07723" lon="5.79025">
        <ele>474</ele>
        <time>2021-05-29T10:49:50Z</time>
      </trkpt>
      <trkpt lat="45.07725" lon="5.79034">
        <ele>473.4</ele>
        <time>2021-05-29T10:49:51Z</time>
      </trkpt>
      <trkpt lat="45.07726" lon="5.79036">
        <ele>473.8</ele>
        <time>2021-05-29T10:49:52Z</time>
      </trkpt>
      <trkpt lat="45.07727" lon="5.79038">
        <ele>473.2</ele>
        <time>2021-05-29T10:49:53Z</time>
      </trkpt>
      <trkpt lat="45.07729" lon="5.79045">
        <ele>473</ele>
        <time>2021-05-29T10:49:54Z</time>
      </trkpt>
      <trkpt lat="45.07729" lon="5.79045">
        <ele>472.4</ele>
        <time>2021-05-29T10:49:55Z</time>
      </trkpt>
      <trkpt lat="45.07729" lon="5.79045">
        <ele>471.8</ele>
        <time>2021-05-29T10:49:56Z</time>
      </trkpt>
      <trkpt lat="45.07729" lon="5.79045">
        <ele>471.2</ele>
        <time>2021-05-29T10:49:57Z</time>
      </trkpt>
      <trkpt lat="45.07731" lon="5.79049">
        <ele>470.6</ele>
        <time>2021-05-29T10:49:58Z</time>
      </trkpt>
      <trkpt lat="45.07734" lon="5.79059">
        <ele>470.2</ele>
        <time>2021-05-29T10:50:00Z</time>
      </trkpt>
      <trkpt lat="45.07736" lon="5.79061">
        <ele>470</ele>
        <time>2021-05-29T10:50:01Z</time>
      </trkpt>
      <trkpt lat="45.07738" lon="5.79063">
        <ele>469.6</ele>
        <time>2021-05-29T10:50:02Z</time>
      </trkpt>
      <trkpt lat="45.07739" lon="5.79066">
        <ele>469</ele>
        <time>2021-05-29T10:50:03Z</time>
      </trkpt>
      <trkpt lat="45.07741" lon="5.79068">
        <ele>468.2</ele>
        <time>2021-05-29T10:50:04Z</time>
      </trkpt>
      <trkpt lat="45.07749" lon="5.79074">
        <ele>467.8</ele>
        <time>2021-05-29T10:50:05Z</time>
      </trkpt>
      <trkpt lat="45.07752" lon="5.79076">
        <ele>467.8</ele>
        <time>2021-05-29T10:50:06Z</time>
      </trkpt>
      <trkpt lat="45.07755" lon="5.79078">
        <ele>467.2</ele>
        <time>2021-05-29T10:50:07Z</time>
      </trkpt>
      <trkpt lat="45.07758" lon="5.79079">
        <ele>466.6</ele>
        <time>2021-05-29T10:50:08Z</time>
      </trkpt>
      <trkpt lat="45.0776" lon="5.7908">
        <ele>466</ele>
        <time>2021-05-29T10:50:09Z</time>
      </trkpt>
      <trkpt lat="45.07761" lon="5.7908">
        <ele>465.4</ele>
        <time>2021-05-29T10:50:10Z</time>
      </trkpt>
      <trkpt lat="45.07762" lon="5.79081">
        <ele>465.2</ele>
        <time>2021-05-29T10:50:11Z</time>
      </trkpt>
      <trkpt lat="45.07765" lon="5.79082">
        <ele>464.8</ele>
        <time>2021-05-29T10:50:12Z</time>
      </trkpt>
      <trkpt lat="45.07769" lon="5.79084">
        <ele>464.2</ele>
        <time>2021-05-29T10:50:13Z</time>
      </trkpt>
      <trkpt lat="45.07772" lon="5.79086">
        <ele>463.4</ele>
        <time>2021-05-29T10:50:14Z</time>
      </trkpt>
      <trkpt lat="45.07781" lon="5.7909">
        <ele>462.6</ele>
        <time>2021-05-29T10:50:16Z</time>
      </trkpt>
      <trkpt lat="45.07783" lon="5.79091">
        <ele>462.2</ele>
        <time>2021-05-29T10:50:17Z</time>
      </trkpt>
      <trkpt lat="45.07784" lon="5.79091">
        <ele>461.8</ele>
        <time>2021-05-29T10:50:18Z</time>
      </trkpt>
      <trkpt lat="45.07789" lon="5.79094">
        <ele>461.4</ele>
        <time>2021-05-29T10:50:19Z</time>
      </trkpt>
      <trkpt lat="45.07792" lon="5.79095">
        <ele>460.8</ele>
        <time>2021-05-29T10:50:20Z</time>
      </trkpt>
      <trkpt lat="45.07795" lon="5.79096">
        <ele>460.2</ele>
        <time>2021-05-29T10:50:21Z</time>
      </trkpt>
      <trkpt lat="45.07798" lon="5.79097">
        <ele>459.2</ele>
        <time>2021-05-29T10:50:22Z</time>
      </trkpt>
      <trkpt lat="45.07801" lon="5.791">
        <ele>459</ele>
        <time>2021-05-29T10:50:23Z</time>
      </trkpt>
      <trkpt lat="45.07803" lon="5.79103">
        <ele>458.4</ele>
        <time>2021-05-29T10:50:24Z</time>
      </trkpt>
      <trkpt lat="45.07806" lon="5.79106">
        <ele>458.6</ele>
        <time>2021-05-29T10:50:25Z</time>
      </trkpt>
      <trkpt lat="45.07806" lon="5.79106">
        <ele>458</ele>
        <time>2021-05-29T10:50:26Z</time>
      </trkpt>
      <trkpt lat="45.07806" lon="5.79106">
        <ele>457.6</ele>
        <time>2021-05-29T10:50:27Z</time>
      </trkpt>
      <trkpt lat="45.07808" lon="5.79107">
        <ele>457</ele>
        <time>2021-05-29T10:50:28Z</time>
      </trkpt>
      <trkpt lat="45.07811" lon="5.79109">
        <ele>456.2</ele>
        <time>2021-05-29T10:50:29Z</time>
      </trkpt>
      <trkpt lat="45.07813" lon="5.7911">
        <ele>455.8</ele>
        <time>2021-05-29T10:50:30Z</time>
      </trkpt>
      <trkpt lat="45.07816" lon="5.79112">
        <ele>455.4</ele>
        <time>2021-05-29T10:50:31Z</time>
      </trkpt>
      <trkpt lat="45.07819" lon="5.79116">
        <ele>455.2</ele>
        <time>2021-05-29T10:50:32Z</time>
      </trkpt>
      <trkpt lat="45.07822" lon="5.7912">
        <ele>454.8</ele>
        <time>2021-05-29T10:50:33Z</time>
      </trkpt>
      <trkpt lat="45.07825" lon="5.79123">
        <ele>455</ele>
        <time>2021-05-29T10:50:34Z</time>
      </trkpt>
      <trkpt lat="45.07828" lon="5.79127">
        <ele>454.8</ele>
        <time>2021-05-29T10:50:35Z</time>
      </trkpt>
      <trkpt lat="45.0783" lon="5.79133">
        <ele>454.6</ele>
        <time>2021-05-29T10:50:36Z</time>
      </trkpt>
      <trkpt lat="45.07831" lon="5.79135">
        <ele>454.4</ele>
        <time>2021-05-29T10:50:37Z</time>
      </trkpt>
      <trkpt lat="45.07832" lon="5.79137">
        <ele>454</ele>
        <time>2021-05-29T10:50:38Z</time>
      </trkpt>
      <trkpt lat="45.07833" lon="5.79139">
        <ele>453.6</ele>
        <time>2021-05-29T10:50:39Z</time>
      </trkpt>
      <trkpt lat="45.07835" lon="5.79145">
        <ele>453</ele>
        <time>2021-05-29T10:50:40Z</time>
      </trkpt>
      <trkpt lat="45.07835" lon="5.79145">
        <ele>452.8</ele>
        <time>2021-05-29T10:50:41Z</time>
      </trkpt>
      <trkpt lat="45.07837" lon="5.79148">
        <ele>452.2</ele>
        <time>2021-05-29T10:50:42Z</time>
      </trkpt>
      <trkpt lat="45.0784" lon="5.7915">
        <ele>452.4</ele>
        <time>2021-05-29T10:50:43Z</time>
      </trkpt>
      <trkpt lat="45.07842" lon="5.79153">
        <ele>452</ele>
        <time>2021-05-29T10:50:44Z</time>
      </trkpt>
      <trkpt lat="45.07844" lon="5.79156">
        <ele>452.2</ele>
        <time>2021-05-29T10:50:45Z</time>
      </trkpt>
      <trkpt lat="45.07846" lon="5.79158">
        <ele>452</ele>
        <time>2021-05-29T10:50:46Z</time>
      </trkpt>
      <trkpt lat="45.07849" lon="5.7916">
        <ele>452</ele>
        <time>2021-05-29T10:50:47Z</time>
      </trkpt>
      <trkpt lat="45.07851" lon="5.79161">
        <ele>451.6</ele>
        <time>2021-05-29T10:50:48Z</time>
      </trkpt>
      <trkpt lat="45.07854" lon="5.79163">
        <ele>451.4</ele>
        <time>2021-05-29T10:50:49Z</time>
      </trkpt>
      <trkpt lat="45.07856" lon="5.79164">
        <ele>450.8</ele>
        <time>2021-05-29T10:50:50Z</time>
      </trkpt>
      <trkpt lat="45.07859" lon="5.79165">
        <ele>449.8</ele>
        <time>2021-05-29T10:50:51Z</time>
      </trkpt>
      <trkpt lat="45.07861" lon="5.79166">
        <ele>449.8</ele>
        <time>2021-05-29T10:50:52Z</time>
      </trkpt>
      <trkpt lat="45.07863" lon="5.79166">
        <ele>449.6</ele>
        <time>2021-05-29T10:50:53Z</time>
      </trkpt>
      <trkpt lat="45.07866" lon="5.79167">
        <ele>449.4</ele>
        <time>2021-05-29T10:50:54Z</time>
      </trkpt>
      <trkpt lat="45.07868" lon="5.79167">
        <ele>448.8</ele>
        <time>2021-05-29T10:50:55Z</time>
      </trkpt>
      <trkpt lat="45.0787" lon="5.79168">
        <ele>448.2</ele>
        <time>2021-05-29T10:50:56Z</time>
      </trkpt>
      <trkpt lat="45.07873" lon="5.79168">
        <ele>447.8</ele>
        <time>2021-05-29T10:50:57Z</time>
      </trkpt>
      <trkpt lat="45.07875" lon="5.79169">
        <ele>447.4</ele>
        <time>2021-05-29T10:50:58Z</time>
      </trkpt>
      <trkpt lat="45.07878" lon="5.79169">
        <ele>447.4</ele>
        <time>2021-05-29T10:50:59Z</time>
      </trkpt>
      <trkpt lat="45.0788" lon="5.79169">
        <ele>446.6</ele>
        <time>2021-05-29T10:51:00Z</time>
      </trkpt>
      <trkpt lat="45.07883" lon="5.79169">
        <ele>446.2</ele>
        <time>2021-05-29T10:51:01Z</time>
      </trkpt>
      <trkpt lat="45.07887" lon="5.79167">
        <ele>445.6</ele>
        <time>2021-05-29T10:51:02Z</time>
      </trkpt>
      <trkpt lat="45.07891" lon="5.79166">
        <ele>444.8</ele>
        <time>2021-05-29T10:51:03Z</time>
      </trkpt>
      <trkpt lat="45.07895" lon="5.79165">
        <ele>444.6</ele>
        <time>2021-05-29T10:51:04Z</time>
      </trkpt>
      <trkpt lat="45.079" lon="5.79163">
        <ele>444.2</ele>
        <time>2021-05-29T10:51:05Z</time>
      </trkpt>
      <trkpt lat="45.07905" lon="5.79162">
        <ele>444</ele>
        <time>2021-05-29T10:51:06Z</time>
      </trkpt>
      <trkpt lat="45.07905" lon="5.79162">
        <ele>443.2</ele>
        <time>2021-05-29T10:51:07Z</time>
      </trkpt>
      <trkpt lat="45.07905" lon="5.79162">
        <ele>442.8</ele>
        <time>2021-05-29T10:51:08Z</time>
      </trkpt>
      <trkpt lat="45.07908" lon="5.79161">
        <ele>442</ele>
        <time>2021-05-29T10:51:09Z</time>
      </trkpt>
      <trkpt lat="45.0791" lon="5.79159">
        <ele>441.2</ele>
        <time>2021-05-29T10:51:10Z</time>
      </trkpt>
      <trkpt lat="45.07912" lon="5.79158">
        <ele>441.4</ele>
        <time>2021-05-29T10:51:11Z</time>
      </trkpt>
      <trkpt lat="45.07915" lon="5.79157">
        <ele>440.6</ele>
        <time>2021-05-29T10:51:12Z</time>
      </trkpt>
      <trkpt lat="45.07916" lon="5.79156">
        <ele>440.2</ele>
        <time>2021-05-29T10:51:13Z</time>
      </trkpt>
      <trkpt lat="45.07917" lon="5.79156">
        <ele>439.4</ele>
        <time>2021-05-29T10:51:14Z</time>
      </trkpt>
      <trkpt lat="45.07919" lon="5.79155">
        <ele>438.4</ele>
        <time>2021-05-29T10:51:15Z</time>
      </trkpt>
      <trkpt lat="45.0792" lon="5.79154">
        <ele>438.4</ele>
        <time>2021-05-29T10:51:16Z</time>
      </trkpt>
      <trkpt lat="45.07921" lon="5.79154">
        <ele>438</ele>
        <time>2021-05-29T10:51:17Z</time>
      </trkpt>
      <trkpt lat="45.07922" lon="5.79153">
        <ele>437.6</ele>
        <time>2021-05-29T10:51:18Z</time>
      </trkpt>
      <trkpt lat="45.07924" lon="5.79152">
        <ele>436.8</ele>
        <time>2021-05-29T10:51:19Z</time>
      </trkpt>
      <trkpt lat="45.07925" lon="5.79152">
        <ele>436.2</ele>
        <time>2021-05-29T10:51:20Z</time>
      </trkpt>
      <trkpt lat="45.07927" lon="5.79153">
        <ele>435.8</ele>
        <time>2021-05-29T10:51:21Z</time>
      </trkpt>
      <trkpt lat="45.07929" lon="5.79153">
        <ele>435.4</ele>
        <time>2021-05-29T10:51:22Z</time>
      </trkpt>
      <trkpt lat="45.07931" lon="5.79153">
        <ele>435.2</ele>
        <time>2021-05-29T10:51:23Z</time>
      </trkpt>
      <trkpt lat="45.07932" lon="5.79153">
        <ele>434.4</ele>
        <time>2021-05-29T10:51:24Z</time>
      </trkpt>
      <trkpt lat="45.07934" lon="5.79153">
        <ele>433.8</ele>
        <time>2021-05-29T10:51:25Z</time>
      </trkpt>
      <trkpt lat="45.07936" lon="5.79154">
        <ele>433.6</ele>
        <time>2021-05-29T10:51:26Z</time>
      </trkpt>
      <trkpt lat="45.07938" lon="5.79154">
        <ele>433</ele>
        <time>2021-05-29T10:51:27Z</time>
      </trkpt>
      <trkpt lat="45.0794" lon="5.79154">
        <ele>432.8</ele>
        <time>2021-05-29T10:51:28Z</time>
      </trkpt>
      <trkpt lat="45.07942" lon="5.79154">
        <ele>432.2</ele>
        <time>2021-05-29T10:51:29Z</time>
      </trkpt>
      <trkpt lat="45.07945" lon="5.79155">
        <ele>431.6</ele>
        <time>2021-05-29T10:51:30Z</time>
      </trkpt>
      <trkpt lat="45.07944" lon="5.79154">
        <ele>431</ele>
        <time>2021-05-29T10:51:31Z</time>
      </trkpt>
      <trkpt lat="45.07944" lon="5.79152">
        <ele>430.6</ele>
        <time>2021-05-29T10:51:32Z</time>
      </trkpt>
      <trkpt lat="45.07944" lon="5.79151">
        <ele>430.4</ele>
        <time>2021-05-29T10:51:33Z</time>
      </trkpt>
      <trkpt lat="45.07943" lon="5.7915">
        <ele>430</ele>
        <time>2021-05-29T10:51:34Z</time>
      </trkpt>
      <trkpt lat="45.07943" lon="5.79149">
        <ele>429.6</ele>
        <time>2021-05-29T10:51:35Z</time>
      </trkpt>
      <trkpt lat="45.07942" lon="5.79148">
        <ele>428.8</ele>
        <time>2021-05-29T10:51:36Z</time>
      </trkpt>
      <trkpt lat="45.07942" lon="5.79146">
        <ele>427.8</ele>
        <time>2021-05-29T10:51:37Z</time>
      </trkpt>
      <trkpt lat="45.07942" lon="5.79145">
        <ele>427.8</ele>
        <time>2021-05-29T10:51:38Z</time>
      </trkpt>
      <trkpt lat="45.07941" lon="5.79144">
        <ele>427.4</ele>
        <time>2021-05-29T10:51:39Z</time>
      </trkpt>
      <trkpt lat="45.07941" lon="5.79143">
        <ele>427</ele>
        <time>2021-05-29T10:51:40Z</time>
      </trkpt>
      <trkpt lat="45.0794" lon="5.79142">
        <ele>426.2</ele>
        <time>2021-05-29T10:51:41Z</time>
      </trkpt>
      <trkpt lat="45.07938" lon="5.79141">
        <ele>425.4</ele>
        <time>2021-05-29T10:51:42Z</time>
      </trkpt>
      <trkpt lat="45.07937" lon="5.7914">
        <ele>425.4</ele>
        <time>2021-05-29T10:51:43Z</time>
      </trkpt>
      <trkpt lat="45.07935" lon="5.79139">
        <ele>424.8</ele>
        <time>2021-05-29T10:51:44Z</time>
      </trkpt>
      <trkpt lat="45.07934" lon="5.79138">
        <ele>424.8</ele>
        <time>2021-05-29T10:51:45Z</time>
      </trkpt>
      <trkpt lat="45.07933" lon="5.79137">
        <ele>424</ele>
        <time>2021-05-29T10:51:46Z</time>
      </trkpt>
      <trkpt lat="45.07931" lon="5.79136">
        <ele>423.4</ele>
        <time>2021-05-29T10:51:47Z</time>
      </trkpt>
      <trkpt lat="45.0793" lon="5.79135">
        <ele>423</ele>
        <time>2021-05-29T10:51:48Z</time>
      </trkpt>
      <trkpt lat="45.07928" lon="5.79133">
        <ele>422.2</ele>
        <time>2021-05-29T10:51:49Z</time>
      </trkpt>
      <trkpt lat="45.07927" lon="5.79131">
        <ele>422</ele>
        <time>2021-05-29T10:51:50Z</time>
      </trkpt>
      <trkpt lat="45.07925" lon="5.79129">
        <ele>421.2</ele>
        <time>2021-05-29T10:51:51Z</time>
      </trkpt>
      <trkpt lat="45.07923" lon="5.79127">
        <ele>420.8</ele>
        <time>2021-05-29T10:51:52Z</time>
      </trkpt>
      <trkpt lat="45.07921" lon="5.79126">
        <ele>420.2</ele>
        <time>2021-05-29T10:51:53Z</time>
      </trkpt>
      <trkpt lat="45.07919" lon="5.79124">
        <ele>419</ele>
        <time>2021-05-29T10:51:54Z</time>
      </trkpt>
      <trkpt lat="45.07917" lon="5.79123">
        <ele>419.2</ele>
        <time>2021-05-29T10:51:55Z</time>
      </trkpt>
      <trkpt lat="45.07915" lon="5.79121">
        <ele>419</ele>
        <time>2021-05-29T10:51:56Z</time>
      </trkpt>
      <trkpt lat="45.07914" lon="5.79118">
        <ele>418.6</ele>
        <time>2021-05-29T10:51:57Z</time>
      </trkpt>
      <trkpt lat="45.07913" lon="5.79115">
        <ele>417.8</ele>
        <time>2021-05-29T10:51:58Z</time>
      </trkpt>
      <trkpt lat="45.07912" lon="5.79112">
        <ele>417</ele>
        <time>2021-05-29T10:51:59Z</time>
      </trkpt>
      <trkpt lat="45.07912" lon="5.79109">
        <ele>417</ele>
        <time>2021-05-29T10:52:00Z</time>
      </trkpt>
      <trkpt lat="45.07911" lon="5.79106">
        <ele>416.4</ele>
        <time>2021-05-29T10:52:01Z</time>
      </trkpt>
      <trkpt lat="45.07909" lon="5.79102">
        <ele>416.2</ele>
        <time>2021-05-29T10:52:02Z</time>
      </trkpt>
      <trkpt lat="45.07908" lon="5.79099">
        <ele>415.4</ele>
        <time>2021-05-29T10:52:03Z</time>
      </trkpt>
      <trkpt lat="45.07907" lon="5.79096">
        <ele>415</ele>
        <time>2021-05-29T10:52:04Z</time>
      </trkpt>
      <trkpt lat="45.07906" lon="5.7909">
        <ele>414.4</ele>
        <time>2021-05-29T10:52:05Z</time>
      </trkpt>
      <trkpt lat="45.07906" lon="5.79084">
        <ele>414</ele>
        <time>2021-05-29T10:52:06Z</time>
      </trkpt>
      <trkpt lat="45.07905" lon="5.79078">
        <ele>413.8</ele>
        <time>2021-05-29T10:52:07Z</time>
      </trkpt>
      <trkpt lat="45.07904" lon="5.79072">
        <ele>413.2</ele>
        <time>2021-05-29T10:52:08Z</time>
      </trkpt>
      <trkpt lat="45.07903" lon="5.79066">
        <ele>412.6</ele>
        <time>2021-05-29T10:52:09Z</time>
      </trkpt>
      <trkpt lat="45.07903" lon="5.79066">
        <ele>411.8</ele>
        <time>2021-05-29T10:52:10Z</time>
      </trkpt>
      <trkpt lat="45.07903" lon="5.79066">
        <ele>411.4</ele>
        <time>2021-05-29T10:52:11Z</time>
      </trkpt>
      <trkpt lat="45.07904" lon="5.79062">
        <ele>411.4</ele>
        <time>2021-05-29T10:52:12Z</time>
      </trkpt>
      <trkpt lat="45.07906" lon="5.79058">
        <ele>411</ele>
        <time>2021-05-29T10:52:13Z</time>
      </trkpt>
      <trkpt lat="45.07908" lon="5.79053">
        <ele>410.8</ele>
        <time>2021-05-29T10:52:14Z</time>
      </trkpt>
      <trkpt lat="45.07909" lon="5.79049">
        <ele>410.2</ele>
        <time>2021-05-29T10:52:15Z</time>
      </trkpt>
      <trkpt lat="45.07914" lon="5.79048">
        <ele>409.4</ele>
        <time>2021-05-29T10:52:16Z</time>
      </trkpt>
      <trkpt lat="45.07914" lon="5.79048">
        <ele>408.8</ele>
        <time>2021-05-29T10:52:17Z</time>
      </trkpt>
      <trkpt lat="45.07914" lon="5.79048">
        <ele>408.6</ele>
        <time>2021-05-29T10:52:18Z</time>
      </trkpt>
      <trkpt lat="45.07915" lon="5.79048">
        <ele>409</ele>
        <time>2021-05-29T10:52:19Z</time>
      </trkpt>
      <trkpt lat="45.07916" lon="5.79049">
        <ele>409.2</ele>
        <time>2021-05-29T10:52:20Z</time>
      </trkpt>
      <trkpt lat="45.07918" lon="5.7905">
        <ele>409.2</ele>
        <time>2021-05-29T10:52:21Z</time>
      </trkpt>
      <trkpt lat="45.07919" lon="5.7905">
        <ele>409.2</ele>
        <time>2021-05-29T10:52:22Z</time>
      </trkpt>
      <trkpt lat="45.0792" lon="5.79051">
        <ele>409.6</ele>
        <time>2021-05-29T10:52:23Z</time>
      </trkpt>
      <trkpt lat="45.07921" lon="5.79051">
        <ele>409.4</ele>
        <time>2021-05-29T10:52:24Z</time>
      </trkpt>
      <trkpt lat="45.07923" lon="5.79052">
        <ele>409.8</ele>
        <time>2021-05-29T10:52:25Z</time>
      </trkpt>
      <trkpt lat="45.07923" lon="5.79054">
        <ele>409.6</ele>
        <time>2021-05-29T10:52:26Z</time>
      </trkpt>
      <trkpt lat="45.07924" lon="5.79055">
        <ele>409.8</ele>
        <time>2021-05-29T10:52:27Z</time>
      </trkpt>
      <trkpt lat="45.07924" lon="5.79057">
        <ele>409.8</ele>
        <time>2021-05-29T10:52:28Z</time>
      </trkpt>
      <trkpt lat="45.07925" lon="5.79058">
        <ele>410</ele>
        <time>2021-05-29T10:52:29Z</time>
      </trkpt>
      <trkpt lat="45.07925" lon="5.7906">
        <ele>409.8</ele>
        <time>2021-05-29T10:52:30Z</time>
      </trkpt>
      <trkpt lat="45.07926" lon="5.79061">
        <ele>410.2</ele>
        <time>2021-05-29T10:52:31Z</time>
      </trkpt>
      <trkpt lat="45.07927" lon="5.79063">
        <ele>410.6</ele>
        <time>2021-05-29T10:52:32Z</time>
      </trkpt>
      <trkpt lat="45.07927" lon="5.79065">
        <ele>411</ele>
        <time>2021-05-29T10:52:33Z</time>
      </trkpt>
      <trkpt lat="45.07928" lon="5.79066">
        <ele>411.2</ele>
        <time>2021-05-29T10:52:34Z</time>
      </trkpt>
      <trkpt lat="45.07929" lon="5.79068">
        <ele>411.6</ele>
        <time>2021-05-29T10:52:35Z</time>
      </trkpt>
      <trkpt lat="45.07929" lon="5.7907">
        <ele>411.4</ele>
        <time>2021-05-29T10:52:36Z</time>
      </trkpt>
      <trkpt lat="45.0793" lon="5.79071">
        <ele>411.6</ele>
        <time>2021-05-29T10:52:37Z</time>
      </trkpt>
      <trkpt lat="45.07931" lon="5.79073">
        <ele>411.4</ele>
        <time>2021-05-29T10:52:38Z</time>
      </trkpt>
      <trkpt lat="45.07932" lon="5.79075">
        <ele>411.6</ele>
        <time>2021-05-29T10:52:39Z</time>
      </trkpt>
      <trkpt lat="45.07933" lon="5.79077">
        <ele>411.6</ele>
        <time>2021-05-29T10:52:40Z</time>
      </trkpt>
      <trkpt lat="45.07934" lon="5.79078">
        <ele>412</ele>
        <time>2021-05-29T10:52:41Z</time>
      </trkpt>
      <trkpt lat="45.07934" lon="5.7908">
        <ele>412</ele>
        <time>2021-05-29T10:52:42Z</time>
      </trkpt>
      <trkpt lat="45.07937" lon="5.79082">
        <ele>412.4</ele>
        <time>2021-05-29T10:52:43Z</time>
      </trkpt>
      <trkpt lat="45.07939" lon="5.79085">
        <ele>412.4</ele>
        <time>2021-05-29T10:52:44Z</time>
      </trkpt>
      <trkpt lat="45.07941" lon="5.79087">
        <ele>412.6</ele>
        <time>2021-05-29T10:52:45Z</time>
      </trkpt>
      <trkpt lat="45.07943" lon="5.7909">
        <ele>412.6</ele>
        <time>2021-05-29T10:52:46Z</time>
      </trkpt>
      <trkpt lat="45.07945" lon="5.79092">
        <ele>412.6</ele>
        <time>2021-05-29T10:52:47Z</time>
      </trkpt>
      <trkpt lat="45.07947" lon="5.79095">
        <ele>412.6</ele>
        <time>2021-05-29T10:52:48Z</time>
      </trkpt>
      <trkpt lat="45.07949" lon="5.79097">
        <ele>412.8</ele>
        <time>2021-05-29T10:52:49Z</time>
      </trkpt>
      <trkpt lat="45.07951" lon="5.791">
        <ele>412.8</ele>
        <time>2021-05-29T10:52:50Z</time>
      </trkpt>
      <trkpt lat="45.07953" lon="5.79101">
        <ele>412.8</ele>
        <time>2021-05-29T10:52:51Z</time>
      </trkpt>
      <trkpt lat="45.07955" lon="5.79102">
        <ele>413.2</ele>
        <time>2021-05-29T10:52:52Z</time>
      </trkpt>
      <trkpt lat="45.07957" lon="5.79104">
        <ele>413.2</ele>
        <time>2021-05-29T10:52:53Z</time>
      </trkpt>
      <trkpt lat="45.07958" lon="5.79105">
        <ele>413.4</ele>
        <time>2021-05-29T10:52:54Z</time>
      </trkpt>
      <trkpt lat="45.0796" lon="5.79106">
        <ele>413.4</ele>
        <time>2021-05-29T10:52:55Z</time>
      </trkpt>
      <trkpt lat="45.07962" lon="5.79108">
        <ele>413.6</ele>
        <time>2021-05-29T10:52:56Z</time>
      </trkpt>
      <trkpt lat="45.07964" lon="5.79109">
        <ele>413.8</ele>
        <time>2021-05-29T10:52:57Z</time>
      </trkpt>
      <trkpt lat="45.07965" lon="5.79111">
        <ele>414</ele>
        <time>2021-05-29T10:52:58Z</time>
      </trkpt>
      <trkpt lat="45.07967" lon="5.79112">
        <ele>414.2</ele>
        <time>2021-05-29T10:52:59Z</time>
      </trkpt>
      <trkpt lat="45.07969" lon="5.79114">
        <ele>415.2</ele>
        <time>2021-05-29T10:53:00Z</time>
      </trkpt>
      <trkpt lat="45.0797" lon="5.79116">
        <ele>415.6</ele>
        <time>2021-05-29T10:53:01Z</time>
      </trkpt>
      <trkpt lat="45.07972" lon="5.79118">
        <ele>416.2</ele>
        <time>2021-05-29T10:53:02Z</time>
      </trkpt>
      <trkpt lat="45.07973" lon="5.79119">
        <ele>416.2</ele>
        <time>2021-05-29T10:53:03Z</time>
      </trkpt>
      <trkpt lat="45.07974" lon="5.79121">
        <ele>416.6</ele>
        <time>2021-05-29T10:53:04Z</time>
      </trkpt>
      <trkpt lat="45.07976" lon="5.79123">
        <ele>416.6</ele>
        <time>2021-05-29T10:53:05Z</time>
      </trkpt>
      <trkpt lat="45.07977" lon="5.79124">
        <ele>417</ele>
        <time>2021-05-29T10:53:06Z</time>
      </trkpt>
      <trkpt lat="45.07978" lon="5.79125">
        <ele>417.2</ele>
        <time>2021-05-29T10:53:07Z</time>
      </trkpt>
      <trkpt lat="45.07979" lon="5.79126">
        <ele>417.4</ele>
        <time>2021-05-29T10:53:08Z</time>
      </trkpt>
      <trkpt lat="45.0798" lon="5.79127">
        <ele>417.6</ele>
        <time>2021-05-29T10:53:09Z</time>
      </trkpt>
      <trkpt lat="45.07981" lon="5.79128">
        <ele>417.6</ele>
        <time>2021-05-29T10:53:10Z</time>
      </trkpt>
      <trkpt lat="45.07981" lon="5.79129">
        <ele>417.8</ele>
        <time>2021-05-29T10:53:11Z</time>
      </trkpt>
      <trkpt lat="45.07982" lon="5.79129">
        <ele>418.2</ele>
        <time>2021-05-29T10:53:12Z</time>
      </trkpt>
      <trkpt lat="45.07983" lon="5.7913">
        <ele>418.8</ele>
        <time>2021-05-29T10:53:13Z</time>
      </trkpt>
      <trkpt lat="45.07984" lon="5.79131">
        <ele>419.2</ele>
        <time>2021-05-29T10:53:14Z</time>
      </trkpt>
      <trkpt lat="45.07985" lon="5.79131">
        <ele>419.4</ele>
        <time>2021-05-29T10:53:15Z</time>
      </trkpt>
      <trkpt lat="45.07986" lon="5.79132">
        <ele>419.8</ele>
        <time>2021-05-29T10:53:16Z</time>
      </trkpt>
      <trkpt lat="45.07987" lon="5.79132">
        <ele>420</ele>
        <time>2021-05-29T10:53:17Z</time>
      </trkpt>
      <trkpt lat="45.07988" lon="5.79132">
        <ele>420</ele>
        <time>2021-05-29T10:53:18Z</time>
      </trkpt>
      <trkpt lat="45.07989" lon="5.79132">
        <ele>419.8</ele>
        <time>2021-05-29T10:53:19Z</time>
      </trkpt>
      <trkpt lat="45.0799" lon="5.79132">
        <ele>419.8</ele>
        <time>2021-05-29T10:53:20Z</time>
      </trkpt>
      <trkpt lat="45.07991" lon="5.79133">
        <ele>419.6</ele>
        <time>2021-05-29T10:53:21Z</time>
      </trkpt>
      <trkpt lat="45.07992" lon="5.79133">
        <ele>419.8</ele>
        <time>2021-05-29T10:53:22Z</time>
      </trkpt>
      <trkpt lat="45.07992" lon="5.79133">
        <ele>419.6</ele>
        <time>2021-05-29T10:53:23Z</time>
      </trkpt>
      <trkpt lat="45.07993" lon="5.79133">
        <ele>420</ele>
        <time>2021-05-29T10:53:24Z</time>
      </trkpt>
      <trkpt lat="45.07995" lon="5.79134">
        <ele>420</ele>
        <time>2021-05-29T10:53:25Z</time>
      </trkpt>
      <trkpt lat="45.07996" lon="5.79135">
        <ele>420.2</ele>
        <time>2021-05-29T10:53:26Z</time>
      </trkpt>
      <trkpt lat="45.07997" lon="5.79136">
        <ele>420.4</ele>
        <time>2021-05-29T10:53:27Z</time>
      </trkpt>
      <trkpt lat="45.07998" lon="5.79137">
        <ele>420.6</ele>
        <time>2021-05-29T10:53:28Z</time>
      </trkpt>
      <trkpt lat="45.07999" lon="5.79138">
        <ele>421</ele>
        <time>2021-05-29T10:53:29Z</time>
      </trkpt>
      <trkpt lat="45.08001" lon="5.79139">
        <ele>421.2</ele>
        <time>2021-05-29T10:53:30Z</time>
      </trkpt>
      <trkpt lat="45.08002" lon="5.7914">
        <ele>421.4</ele>
        <time>2021-05-29T10:53:31Z</time>
      </trkpt>
      <trkpt lat="45.08003" lon="5.79142">
        <ele>421.6</ele>
        <time>2021-05-29T10:53:32Z</time>
      </trkpt>
      <trkpt lat="45.08004" lon="5.79144">
        <ele>421.8</ele>
        <time>2021-05-29T10:53:33Z</time>
      </trkpt>
      <trkpt lat="45.08005" lon="5.79146">
        <ele>422</ele>
        <time>2021-05-29T10:53:34Z</time>
      </trkpt>
      <trkpt lat="45.08006" lon="5.79148">
        <ele>422.2</ele>
        <time>2021-05-29T10:53:35Z</time>
      </trkpt>
      <trkpt lat="45.08007" lon="5.7915">
        <ele>422.2</ele>
        <time>2021-05-29T10:53:36Z</time>
      </trkpt>
      <trkpt lat="45.08008" lon="5.79152">
        <ele>422.4</ele>
        <time>2021-05-29T10:53:37Z</time>
      </trkpt>
      <trkpt lat="45.08009" lon="5.79153">
        <ele>422.6</ele>
        <time>2021-05-29T10:53:38Z</time>
      </trkpt>
      <trkpt lat="45.0801" lon="5.79154">
        <ele>422.6</ele>
        <time>2021-05-29T10:53:39Z</time>
      </trkpt>
      <trkpt lat="45.08011" lon="5.79156">
        <ele>422.8</ele>
        <time>2021-05-29T10:53:40Z</time>
      </trkpt>
      <trkpt lat="45.08012" lon="5.79157">
        <ele>423</ele>
        <time>2021-05-29T10:53:41Z</time>
      </trkpt>
      <trkpt lat="45.08013" lon="5.79159">
        <ele>423.2</ele>
        <time>2021-05-29T10:53:42Z</time>
      </trkpt>
      <trkpt lat="45.08014" lon="5.7916">
        <ele>423.6</ele>
        <time>2021-05-29T10:53:43Z</time>
      </trkpt>
      <trkpt lat="45.08015" lon="5.79161">
        <ele>424</ele>
        <time>2021-05-29T10:53:44Z</time>
      </trkpt>
      <trkpt lat="45.08015" lon="5.79162">
        <ele>424.2</ele>
        <time>2021-05-29T10:53:45Z</time>
      </trkpt>
      <trkpt lat="45.08015" lon="5.79163">
        <ele>424.4</ele>
        <time>2021-05-29T10:53:46Z</time>
      </trkpt>
      <trkpt lat="45.08016" lon="5.79164">
        <ele>424.8</ele>
        <time>2021-05-29T10:53:47Z</time>
      </trkpt>
      <trkpt lat="45.08016" lon="5.79165">
        <ele>425.2</ele>
        <time>2021-05-29T10:53:48Z</time>
      </trkpt>
      <trkpt lat="45.08016" lon="5.79166">
        <ele>425.6</ele>
        <time>2021-05-29T10:53:49Z</time>
      </trkpt>
      <trkpt lat="45.08017" lon="5.79167">
        <ele>425.8</ele>
        <time>2021-05-29T10:53:50Z</time>
      </trkpt>
      <trkpt lat="45.08017" lon="5.79168">
        <ele>426.2</ele>
        <time>2021-05-29T10:53:51Z</time>
      </trkpt>
      <trkpt lat="45.08017" lon="5.79169">
        <ele>426.4</ele>
        <time>2021-05-29T10:53:52Z</time>
      </trkpt>
      <trkpt lat="45.08018" lon="5.7917">
        <ele>426.6</ele>
        <time>2021-05-29T10:53:53Z</time>
      </trkpt>
      <trkpt lat="45.08018" lon="5.79171">
        <ele>426.6</ele>
        <time>2021-05-29T10:53:54Z</time>
      </trkpt>
      <trkpt lat="45.08018" lon="5.79172">
        <ele>426.8</ele>
        <time>2021-05-29T10:53:55Z</time>
      </trkpt>
      <trkpt lat="45.08019" lon="5.79173">
        <ele>427.2</ele>
        <time>2021-05-29T10:53:56Z</time>
      </trkpt>
      <trkpt lat="45.08019" lon="5.79174">
        <ele>427.6</ele>
        <time>2021-05-29T10:53:57Z</time>
      </trkpt>
      <trkpt lat="45.0802" lon="5.79174">
        <ele>427.8</ele>
        <time>2021-05-29T10:53:58Z</time>
      </trkpt>
      <trkpt lat="45.08021" lon="5.79175">
        <ele>428</ele>
        <time>2021-05-29T10:53:59Z</time>
      </trkpt>
      <trkpt lat="45.08022" lon="5.79176">
        <ele>428.2</ele>
        <time>2021-05-29T10:54:00Z</time>
      </trkpt>
      <trkpt lat="45.08023" lon="5.79177">
        <ele>428.2</ele>
        <time>2021-05-29T10:54:01Z</time>
      </trkpt>
      <trkpt lat="45.08025" lon="5.79178">
        <ele>428.6</ele>
        <time>2021-05-29T10:54:02Z</time>
      </trkpt>
      <trkpt lat="45.08026" lon="5.79179">
        <ele>429</ele>
        <time>2021-05-29T10:54:03Z</time>
      </trkpt>
      <trkpt lat="45.08027" lon="5.7918">
        <ele>429.2</ele>
        <time>2021-05-29T10:54:04Z</time>
      </trkpt>
      <trkpt lat="45.08029" lon="5.79181">
        <ele>429.4</ele>
        <time>2021-05-29T10:54:05Z</time>
      </trkpt>
      <trkpt lat="45.0803" lon="5.79182">
        <ele>429.6</ele>
        <time>2021-05-29T10:54:06Z</time>
      </trkpt>
      <trkpt lat="45.08031" lon="5.79182">
        <ele>430</ele>
        <time>2021-05-29T10:54:07Z</time>
      </trkpt>
      <trkpt lat="45.08032" lon="5.79183">
        <ele>430.4</ele>
        <time>2021-05-29T10:54:08Z</time>
      </trkpt>
      <trkpt lat="45.08033" lon="5.79184">
        <ele>430.8</ele>
        <time>2021-05-29T10:54:09Z</time>
      </trkpt>
      <trkpt lat="45.08034" lon="5.79185">
        <ele>430.8</ele>
        <time>2021-05-29T10:54:10Z</time>
      </trkpt>
      <trkpt lat="45.08035" lon="5.79185">
        <ele>431</ele>
        <time>2021-05-29T10:54:11Z</time>
      </trkpt>
      <trkpt lat="45.08036" lon="5.79186">
        <ele>431.4</ele>
        <time>2021-05-29T10:54:12Z</time>
      </trkpt>
      <trkpt lat="45.08038" lon="5.79187">
        <ele>431.6</ele>
        <time>2021-05-29T10:54:13Z</time>
      </trkpt>
      <trkpt lat="45.08038" lon="5.79189">
        <ele>431.8</ele>
        <time>2021-05-29T10:54:14Z</time>
      </trkpt>
      <trkpt lat="45.08038" lon="5.7919">
        <ele>431.8</ele>
        <time>2021-05-29T10:54:15Z</time>
      </trkpt>
      <trkpt lat="45.08039" lon="5.79192">
        <ele>432</ele>
        <time>2021-05-29T10:54:16Z</time>
      </trkpt>
      <trkpt lat="45.08039" lon="5.79194">
        <ele>432.2</ele>
        <time>2021-05-29T10:54:17Z</time>
      </trkpt>
      <trkpt lat="45.0804" lon="5.79196">
        <ele>432.4</ele>
        <time>2021-05-29T10:54:18Z</time>
      </trkpt>
      <trkpt lat="45.0804" lon="5.79197">
        <ele>432.4</ele>
        <time>2021-05-29T10:54:19Z</time>
      </trkpt>
      <trkpt lat="45.08041" lon="5.79199">
        <ele>432.6</ele>
        <time>2021-05-29T10:54:20Z</time>
      </trkpt>
      <trkpt lat="45.08041" lon="5.79201">
        <ele>432.8</ele>
        <time>2021-05-29T10:54:21Z</time>
      </trkpt>
      <trkpt lat="45.08042" lon="5.79202">
        <ele>433</ele>
        <time>2021-05-29T10:54:22Z</time>
      </trkpt>
      <trkpt lat="45.08042" lon="5.79204">
        <ele>433.2</ele>
        <time>2021-05-29T10:54:23Z</time>
      </trkpt>
      <trkpt lat="45.08043" lon="5.79205">
        <ele>433.2</ele>
        <time>2021-05-29T10:54:24Z</time>
      </trkpt>
      <trkpt lat="45.08043" lon="5.79206">
        <ele>433.2</ele>
        <time>2021-05-29T10:54:25Z</time>
      </trkpt>
      <trkpt lat="45.08044" lon="5.79208">
        <ele>433.2</ele>
        <time>2021-05-29T10:54:26Z</time>
      </trkpt>
      <trkpt lat="45.08045" lon="5.79209">
        <ele>433.2</ele>
        <time>2021-05-29T10:54:27Z</time>
      </trkpt>
      <trkpt lat="45.08045" lon="5.79211">
        <ele>433.4</ele>
        <time>2021-05-29T10:54:28Z</time>
      </trkpt>
      <trkpt lat="45.08046" lon="5.79212">
        <ele>433.4</ele>
        <time>2021-05-29T10:54:29Z</time>
      </trkpt>
      <trkpt lat="45.08046" lon="5.79213">
        <ele>433.8</ele>
        <time>2021-05-29T10:54:30Z</time>
      </trkpt>
      <trkpt lat="45.08047" lon="5.79215">
        <ele>434.2</ele>
        <time>2021-05-29T10:54:31Z</time>
      </trkpt>
      <trkpt lat="45.08047" lon="5.79216">
        <ele>434.2</ele>
        <time>2021-05-29T10:54:32Z</time>
      </trkpt>
      <trkpt lat="45.08047" lon="5.79218">
        <ele>434.6</ele>
        <time>2021-05-29T10:54:33Z</time>
      </trkpt>
      <trkpt lat="45.08048" lon="5.79219">
        <ele>434.8</ele>
        <time>2021-05-29T10:54:34Z</time>
      </trkpt>
      <trkpt lat="45.08048" lon="5.79221">
        <ele>435</ele>
        <time>2021-05-29T10:54:35Z</time>
      </trkpt>
      <trkpt lat="45.08049" lon="5.79222">
        <ele>435.2</ele>
        <time>2021-05-29T10:54:36Z</time>
      </trkpt>
      <trkpt lat="45.08049" lon="5.79223">
        <ele>435.4</ele>
        <time>2021-05-29T10:54:37Z</time>
      </trkpt>
      <trkpt lat="45.0805" lon="5.79225">
        <ele>435.8</ele>
        <time>2021-05-29T10:54:38Z</time>
      </trkpt>
      <trkpt lat="45.0805" lon="5.79226">
        <ele>436</ele>
        <time>2021-05-29T10:54:39Z</time>
      </trkpt>
      <trkpt lat="45.0805" lon="5.79227">
        <ele>436.4</ele>
        <time>2021-05-29T10:54:40Z</time>
      </trkpt>
      <trkpt lat="45.08051" lon="5.79229">
        <ele>436.6</ele>
        <time>2021-05-29T10:54:41Z</time>
      </trkpt>
      <trkpt lat="45.08051" lon="5.7923">
        <ele>436.8</ele>
        <time>2021-05-29T10:54:42Z</time>
      </trkpt>
      <trkpt lat="45.08052" lon="5.79231">
        <ele>437</ele>
        <time>2021-05-29T10:54:43Z</time>
      </trkpt>
      <trkpt lat="45.08052" lon="5.79233">
        <ele>437.2</ele>
        <time>2021-05-29T10:54:44Z</time>
      </trkpt>
      <trkpt lat="45.08053" lon="5.79234">
        <ele>437.6</ele>
        <time>2021-05-29T10:54:45Z</time>
      </trkpt>
      <trkpt lat="45.08053" lon="5.79235">
        <ele>437.8</ele>
        <time>2021-05-29T10:54:46Z</time>
      </trkpt>
      <trkpt lat="45.08053" lon="5.79237">
        <ele>437.8</ele>
        <time>2021-05-29T10:54:47Z</time>
      </trkpt>
      <trkpt lat="45.08054" lon="5.79238">
        <ele>438</ele>
        <time>2021-05-29T10:54:48Z</time>
      </trkpt>
      <trkpt lat="45.08054" lon="5.79239">
        <ele>438.2</ele>
        <time>2021-05-29T10:54:49Z</time>
      </trkpt>
      <trkpt lat="45.08055" lon="5.7924">
        <ele>438.6</ele>
        <time>2021-05-29T10:54:50Z</time>
      </trkpt>
      <trkpt lat="45.08055" lon="5.79241">
        <ele>439</ele>
        <time>2021-05-29T10:54:51Z</time>
      </trkpt>
      <trkpt lat="45.08056" lon="5.79242">
        <ele>439.2</ele>
        <time>2021-05-29T10:54:52Z</time>
      </trkpt>
      <trkpt lat="45.08056" lon="5.79243">
        <ele>439.2</ele>
        <time>2021-05-29T10:54:53Z</time>
      </trkpt>
      <trkpt lat="45.08057" lon="5.79244">
        <ele>439.6</ele>
        <time>2021-05-29T10:54:54Z</time>
      </trkpt>
      <trkpt lat="45.08057" lon="5.79245">
        <ele>439.8</ele>
        <time>2021-05-29T10:54:55Z</time>
      </trkpt>
      <trkpt lat="45.08058" lon="5.79246">
        <ele>440</ele>
        <time>2021-05-29T10:54:56Z</time>
      </trkpt>
      <trkpt lat="45.08058" lon="5.79247">
        <ele>440</ele>
        <time>2021-05-29T10:54:57Z</time>
      </trkpt>
      <trkpt lat="45.08059" lon="5.79248">
        <ele>440.2</ele>
        <time>2021-05-29T10:54:58Z</time>
      </trkpt>
      <trkpt lat="45.08059" lon="5.79249">
        <ele>440.6</ele>
        <time>2021-05-29T10:54:59Z</time>
      </trkpt>
      <trkpt lat="45.0806" lon="5.79249">
        <ele>440.6</ele>
        <time>2021-05-29T10:55:00Z</time>
      </trkpt>
      <trkpt lat="45.08061" lon="5.7925">
        <ele>440.8</ele>
        <time>2021-05-29T10:55:01Z</time>
      </trkpt>
      <trkpt lat="45.08062" lon="5.7925">
        <ele>441</ele>
        <time>2021-05-29T10:55:02Z</time>
      </trkpt>
      <trkpt lat="45.08062" lon="5.79251">
        <ele>441.2</ele>
        <time>2021-05-29T10:55:03Z</time>
      </trkpt>
      <trkpt lat="45.08063" lon="5.79252">
        <ele>441.4</ele>
        <time>2021-05-29T10:55:04Z</time>
      </trkpt>
      <trkpt lat="45.08064" lon="5.79252">
        <ele>441.6</ele>
        <time>2021-05-29T10:55:05Z</time>
      </trkpt>
      <trkpt lat="45.08064" lon="5.79253">
        <ele>441.4</ele>
        <time>2021-05-29T10:55:06Z</time>
      </trkpt>
      <trkpt lat="45.08065" lon="5.79253">
        <ele>441.6</ele>
        <time>2021-05-29T10:55:07Z</time>
      </trkpt>
      <trkpt lat="45.08066" lon="5.79254">
        <ele>441.8</ele>
        <time>2021-05-29T10:55:08Z</time>
      </trkpt>
      <trkpt lat="45.08067" lon="5.79254">
        <ele>442.2</ele>
        <time>2021-05-29T10:55:09Z</time>
      </trkpt>
      <trkpt lat="45.08067" lon="5.79255">
        <ele>442.4</ele>
        <time>2021-05-29T10:55:10Z</time>
      </trkpt>
      <trkpt lat="45.08068" lon="5.79256">
        <ele>442.6</ele>
        <time>2021-05-29T10:55:11Z</time>
      </trkpt>
      <trkpt lat="45.08068" lon="5.79257">
        <ele>442.8</ele>
        <time>2021-05-29T10:55:12Z</time>
      </trkpt>
      <trkpt lat="45.08069" lon="5.79258">
        <ele>443</ele>
        <time>2021-05-29T10:55:13Z</time>
      </trkpt>
      <trkpt lat="45.08069" lon="5.79259">
        <ele>443.4</ele>
        <time>2021-05-29T10:55:14Z</time>
      </trkpt>
      <trkpt lat="45.08069" lon="5.7926">
        <ele>443.6</ele>
        <time>2021-05-29T10:55:15Z</time>
      </trkpt>
      <trkpt lat="45.08069" lon="5.79262">
        <ele>443.8</ele>
        <time>2021-05-29T10:55:16Z</time>
      </trkpt>
      <trkpt lat="45.0807" lon="5.79263">
        <ele>444.2</ele>
        <time>2021-05-29T10:55:17Z</time>
      </trkpt>
      <trkpt lat="45.0807" lon="5.79264">
        <ele>444.2</ele>
        <time>2021-05-29T10:55:18Z</time>
      </trkpt>
      <trkpt lat="45.0807" lon="5.79265">
        <ele>444.2</ele>
        <time>2021-05-29T10:55:19Z</time>
      </trkpt>
      <trkpt lat="45.0807" lon="5.79267">
        <ele>444.4</ele>
        <time>2021-05-29T10:55:20Z</time>
      </trkpt>
      <trkpt lat="45.08071" lon="5.79268">
        <ele>444.6</ele>
        <time>2021-05-29T10:55:21Z</time>
      </trkpt>
      <trkpt lat="45.08071" lon="5.79268">
        <ele>445</ele>
        <time>2021-05-29T10:55:22Z</time>
      </trkpt>
      <trkpt lat="45.08072" lon="5.79269">
        <ele>445.2</ele>
        <time>2021-05-29T10:55:23Z</time>
      </trkpt>
      <trkpt lat="45.08072" lon="5.7927">
        <ele>445.6</ele>
        <time>2021-05-29T10:55:24Z</time>
      </trkpt>
      <trkpt lat="45.08073" lon="5.7927">
        <ele>445.8</ele>
        <time>2021-05-29T10:55:25Z</time>
      </trkpt>
      <trkpt lat="45.08074" lon="5.79271">
        <ele>446.2</ele>
        <time>2021-05-29T10:55:26Z</time>
      </trkpt>
      <trkpt lat="45.08074" lon="5.79272">
        <ele>446.4</ele>
        <time>2021-05-29T10:55:27Z</time>
      </trkpt>
      <trkpt lat="45.08075" lon="5.79272">
        <ele>446.6</ele>
        <time>2021-05-29T10:55:28Z</time>
      </trkpt>
      <trkpt lat="45.08075" lon="5.79273">
        <ele>446.8</ele>
        <time>2021-05-29T10:55:29Z</time>
      </trkpt>
      <trkpt lat="45.08076" lon="5.79274">
        <ele>447</ele>
        <time>2021-05-29T10:55:30Z</time>
      </trkpt>
      <trkpt lat="45.08076" lon="5.79274">
        <ele>447.4</ele>
        <time>2021-05-29T10:55:31Z</time>
      </trkpt>
      <trkpt lat="45.08077" lon="5.79275">
        <ele>447.8</ele>
        <time>2021-05-29T10:55:32Z</time>
      </trkpt>
      <trkpt lat="45.08078" lon="5.79276">
        <ele>448</ele>
        <time>2021-05-29T10:55:33Z</time>
      </trkpt>
      <trkpt lat="45.08079" lon="5.79276">
        <ele>448.4</ele>
        <time>2021-05-29T10:55:34Z</time>
      </trkpt>
      <trkpt lat="45.0808" lon="5.79276">
        <ele>448.6</ele>
        <time>2021-05-29T10:55:35Z</time>
      </trkpt>
      <trkpt lat="45.08081" lon="5.79277">
        <ele>448.6</ele>
        <time>2021-05-29T10:55:36Z</time>
      </trkpt>
      <trkpt lat="45.08082" lon="5.79277">
        <ele>448.6</ele>
        <time>2021-05-29T10:55:37Z</time>
      </trkpt>
      <trkpt lat="45.08083" lon="5.79277">
        <ele>448.8</ele>
        <time>2021-05-29T10:55:38Z</time>
      </trkpt>
      <trkpt lat="45.08084" lon="5.79278">
        <ele>449</ele>
        <time>2021-05-29T10:55:39Z</time>
      </trkpt>
      <trkpt lat="45.08085" lon="5.79278">
        <ele>449.2</ele>
        <time>2021-05-29T10:55:40Z</time>
      </trkpt>
      <trkpt lat="45.08086" lon="5.79278">
        <ele>449.4</ele>
        <time>2021-05-29T10:55:41Z</time>
      </trkpt>
      <trkpt lat="45.08087" lon="5.79278">
        <ele>449.6</ele>
        <time>2021-05-29T10:55:42Z</time>
      </trkpt>
      <trkpt lat="45.08088" lon="5.79279">
        <ele>450</ele>
        <time>2021-05-29T10:55:43Z</time>
      </trkpt>
      <trkpt lat="45.08089" lon="5.7928">
        <ele>450.2</ele>
        <time>2021-05-29T10:55:44Z</time>
      </trkpt>
      <trkpt lat="45.0809" lon="5.7928">
        <ele>450.4</ele>
        <time>2021-05-29T10:55:45Z</time>
      </trkpt>
      <trkpt lat="45.08091" lon="5.79281">
        <ele>450.6</ele>
        <time>2021-05-29T10:55:46Z</time>
      </trkpt>
      <trkpt lat="45.08092" lon="5.79281">
        <ele>450.8</ele>
        <time>2021-05-29T10:55:47Z</time>
      </trkpt>
      <trkpt lat="45.08093" lon="5.79282">
        <ele>451</ele>
        <time>2021-05-29T10:55:48Z</time>
      </trkpt>
      <trkpt lat="45.08094" lon="5.79282">
        <ele>451.2</ele>
        <time>2021-05-29T10:55:49Z</time>
      </trkpt>
      <trkpt lat="45.08095" lon="5.79283">
        <ele>451.6</ele>
        <time>2021-05-29T10:55:50Z</time>
      </trkpt>
      <trkpt lat="45.08096" lon="5.79284">
        <ele>452</ele>
        <time>2021-05-29T10:55:51Z</time>
      </trkpt>
      <trkpt lat="45.08097" lon="5.79284">
        <ele>452.4</ele>
        <time>2021-05-29T10:55:52Z</time>
      </trkpt>
      <trkpt lat="45.08099" lon="5.79286">
        <ele>452.4</ele>
        <time>2021-05-29T10:55:53Z</time>
      </trkpt>
      <trkpt lat="45.081" lon="5.79287">
        <ele>452.6</ele>
        <time>2021-05-29T10:55:54Z</time>
      </trkpt>
      <trkpt lat="45.08102" lon="5.79289">
        <ele>453</ele>
        <time>2021-05-29T10:55:55Z</time>
      </trkpt>
      <trkpt lat="45.08103" lon="5.7929">
        <ele>453.2</ele>
        <time>2021-05-29T10:55:56Z</time>
      </trkpt>
      <trkpt lat="45.08105" lon="5.79292">
        <ele>453.4</ele>
        <time>2021-05-29T10:55:57Z</time>
      </trkpt>
      <trkpt lat="45.08106" lon="5.79293">
        <ele>453.8</ele>
        <time>2021-05-29T10:55:58Z</time>
      </trkpt>
      <trkpt lat="45.08107" lon="5.79294">
        <ele>454.2</ele>
        <time>2021-05-29T10:55:59Z</time>
      </trkpt>
      <trkpt lat="45.08108" lon="5.79295">
        <ele>454.6</ele>
        <time>2021-05-29T10:56:00Z</time>
      </trkpt>
      <trkpt lat="45.08108" lon="5.79296">
        <ele>455</ele>
        <time>2021-05-29T10:56:01Z</time>
      </trkpt>
      <trkpt lat="45.08109" lon="5.79297">
        <ele>455.2</ele>
        <time>2021-05-29T10:56:02Z</time>
      </trkpt>
      <trkpt lat="45.0811" lon="5.79298">
        <ele>455.2</ele>
        <time>2021-05-29T10:56:03Z</time>
      </trkpt>
      <trkpt lat="45.08111" lon="5.79299">
        <ele>455.4</ele>
        <time>2021-05-29T10:56:04Z</time>
      </trkpt>
      <trkpt lat="45.08112" lon="5.79299">
        <ele>455.8</ele>
        <time>2021-05-29T10:56:05Z</time>
      </trkpt>
      <trkpt lat="45.08112" lon="5.79301">
        <ele>456.2</ele>
        <time>2021-05-29T10:56:06Z</time>
      </trkpt>
      <trkpt lat="45.08112" lon="5.79302">
        <ele>456.6</ele>
        <time>2021-05-29T10:56:07Z</time>
      </trkpt>
      <trkpt lat="45.08112" lon="5.79303">
        <ele>456.8</ele>
        <time>2021-05-29T10:56:08Z</time>
      </trkpt>
      <trkpt lat="45.08112" lon="5.79305">
        <ele>457</ele>
        <time>2021-05-29T10:56:09Z</time>
      </trkpt>
      <trkpt lat="45.08111" lon="5.79306">
        <ele>457</ele>
        <time>2021-05-29T10:56:10Z</time>
      </trkpt>
      <trkpt lat="45.08111" lon="5.79307">
        <ele>457.2</ele>
        <time>2021-05-29T10:56:11Z</time>
      </trkpt>
      <trkpt lat="45.08111" lon="5.79309">
        <ele>457.2</ele>
        <time>2021-05-29T10:56:12Z</time>
      </trkpt>
      <trkpt lat="45.08111" lon="5.7931">
        <ele>457.4</ele>
        <time>2021-05-29T10:56:13Z</time>
      </trkpt>
      <trkpt lat="45.08111" lon="5.79312">
        <ele>457.8</ele>
        <time>2021-05-29T10:56:14Z</time>
      </trkpt>
      <trkpt lat="45.08111" lon="5.79313">
        <ele>458</ele>
        <time>2021-05-29T10:56:15Z</time>
      </trkpt>
      <trkpt lat="45.08109" lon="5.79313">
        <ele>458.4</ele>
        <time>2021-05-29T10:56:16Z</time>
      </trkpt>
      <trkpt lat="45.08107" lon="5.79313">
        <ele>458.6</ele>
        <time>2021-05-29T10:56:17Z</time>
      </trkpt>
      <trkpt lat="45.08105" lon="5.79313">
        <ele>458.8</ele>
        <time>2021-05-29T10:56:18Z</time>
      </trkpt>
      <trkpt lat="45.08103" lon="5.79313">
        <ele>459.2</ele>
        <time>2021-05-29T10:56:19Z</time>
      </trkpt>
      <trkpt lat="45.08101" lon="5.79314">
        <ele>459.4</ele>
        <time>2021-05-29T10:56:20Z</time>
      </trkpt>
      <trkpt lat="45.08099" lon="5.79315">
        <ele>459.8</ele>
        <time>2021-05-29T10:56:21Z</time>
      </trkpt>
      <trkpt lat="45.08097" lon="5.79316">
        <ele>460.2</ele>
        <time>2021-05-29T10:56:22Z</time>
      </trkpt>
      <trkpt lat="45.08095" lon="5.79317">
        <ele>460.2</ele>
        <time>2021-05-29T10:56:23Z</time>
      </trkpt>
      <trkpt lat="45.08094" lon="5.79318">
        <ele>460.4</ele>
        <time>2021-05-29T10:56:24Z</time>
      </trkpt>
      <trkpt lat="45.08092" lon="5.79319">
        <ele>460.6</ele>
        <time>2021-05-29T10:56:25Z</time>
      </trkpt>
      <trkpt lat="45.0809" lon="5.7932">
        <ele>460.8</ele>
        <time>2021-05-29T10:56:26Z</time>
      </trkpt>
      <trkpt lat="45.08089" lon="5.79321">
        <ele>461</ele>
        <time>2021-05-29T10:56:27Z</time>
      </trkpt>
      <trkpt lat="45.08088" lon="5.79322">
        <ele>461.2</ele>
        <time>2021-05-29T10:56:28Z</time>
      </trkpt>
      <trkpt lat="45.08087" lon="5.79322">
        <ele>461.4</ele>
        <time>2021-05-29T10:56:29Z</time>
      </trkpt>
      <trkpt lat="45.08086" lon="5.79323">
        <ele>461.6</ele>
        <time>2021-05-29T10:56:30Z</time>
      </trkpt>
      <trkpt lat="45.08085" lon="5.79324">
        <ele>461.8</ele>
        <time>2021-05-29T10:56:31Z</time>
      </trkpt>
      <trkpt lat="45.08083" lon="5.79325">
        <ele>462</ele>
        <time>2021-05-29T10:56:32Z</time>
      </trkpt>
      <trkpt lat="45.08082" lon="5.79326">
        <ele>462.2</ele>
        <time>2021-05-29T10:56:33Z</time>
      </trkpt>
      <trkpt lat="45.08081" lon="5.79326">
        <ele>462.4</ele>
        <time>2021-05-29T10:56:34Z</time>
      </trkpt>
      <trkpt lat="45.0808" lon="5.79327">
        <ele>462.6</ele>
        <time>2021-05-29T10:56:35Z</time>
      </trkpt>
      <trkpt lat="45.08079" lon="5.79328">
        <ele>463.2</ele>
        <time>2021-05-29T10:56:36Z</time>
      </trkpt>
      <trkpt lat="45.08078" lon="5.79328">
        <ele>463.4</ele>
        <time>2021-05-29T10:56:37Z</time>
      </trkpt>
      <trkpt lat="45.08077" lon="5.79329">
        <ele>463.6</ele>
        <time>2021-05-29T10:56:38Z</time>
      </trkpt>
      <trkpt lat="45.08076" lon="5.7933">
        <ele>463.8</ele>
        <time>2021-05-29T10:56:39Z</time>
      </trkpt>
      <trkpt lat="45.08075" lon="5.7933">
        <ele>464.2</ele>
        <time>2021-05-29T10:56:40Z</time>
      </trkpt>
      <trkpt lat="45.08075" lon="5.79331">
        <ele>464.2</ele>
        <time>2021-05-29T10:56:41Z</time>
      </trkpt>
      <trkpt lat="45.08075" lon="5.79331">
        <ele>464.6</ele>
        <time>2021-05-29T10:56:42Z</time>
      </trkpt>
      <trkpt lat="45.08075" lon="5.79331">
        <ele>464.8</ele>
        <time>2021-05-29T10:56:43Z</time>
      </trkpt>
      <trkpt lat="45.08075" lon="5.79332">
        <ele>465</ele>
        <time>2021-05-29T10:56:44Z</time>
      </trkpt>
      <trkpt lat="45.08076" lon="5.79332">
        <ele>465.2</ele>
        <time>2021-05-29T10:56:45Z</time>
      </trkpt>
      <trkpt lat="45.08076" lon="5.79333">
        <ele>465.4</ele>
        <time>2021-05-29T10:56:46Z</time>
      </trkpt>
      <trkpt lat="45.08076" lon="5.79333">
        <ele>465.8</ele>
        <time>2021-05-29T10:56:47Z</time>
      </trkpt>
      <trkpt lat="45.08076" lon="5.79333">
        <ele>466.4</ele>
        <time>2021-05-29T10:56:48Z</time>
      </trkpt>
      <trkpt lat="45.08076" lon="5.79334">
        <ele>466.8</ele>
        <time>2021-05-29T10:56:49Z</time>
      </trkpt>
      <trkpt lat="45.08076" lon="5.79334">
        <ele>467.4</ele>
        <time>2021-05-29T10:56:50Z</time>
      </trkpt>
      <trkpt lat="45.08077" lon="5.79334">
        <ele>467.4</ele>
        <time>2021-05-29T10:56:51Z</time>
      </trkpt>
      <trkpt lat="45.08077" lon="5.79335">
        <ele>467.4</ele>
        <time>2021-05-29T10:56:52Z</time>
      </trkpt>
      <trkpt lat="45.08077" lon="5.79335">
        <ele>467.6</ele>
        <time>2021-05-29T10:56:53Z</time>
      </trkpt>
      <trkpt lat="45.08077" lon="5.79336">
        <ele>467.6</ele>
        <time>2021-05-29T10:56:54Z</time>
      </trkpt>
      <trkpt lat="45.08077" lon="5.79336">
        <ele>467.8</ele>
        <time>2021-05-29T10:56:55Z</time>
      </trkpt>
      <trkpt lat="45.08077" lon="5.79336">
        <ele>467.8</ele>
        <time>2021-05-29T10:56:56Z</time>
      </trkpt>
      <trkpt lat="45.08078" lon="5.79337">
        <ele>468.2</ele>
        <time>2021-05-29T10:56:57Z</time>
      </trkpt>
      <trkpt lat="45.08078" lon="5.79337">
        <ele>468.6</ele>
        <time>2021-05-29T10:56:58Z</time>
      </trkpt>
      <trkpt lat="45.08078" lon="5.79338">
        <ele>468.8</ele>
        <time>2021-05-29T10:56:59Z</time>
      </trkpt>
      <trkpt lat="45.08078" lon="5.79338">
        <ele>469</ele>
        <time>2021-05-29T10:57:00Z</time>
      </trkpt>
      <trkpt lat="45.08078" lon="5.79338">
        <ele>469.4</ele>
        <time>2021-05-29T10:57:01Z</time>
      </trkpt>
      <trkpt lat="45.08078" lon="5.79339">
        <ele>469.6</ele>
        <time>2021-05-29T10:57:02Z</time>
      </trkpt>
      <trkpt lat="45.08078" lon="5.79339">
        <ele>470</ele>
        <time>2021-05-29T10:57:03Z</time>
      </trkpt>
      <trkpt lat="45.08079" lon="5.79339">
        <ele>470.2</ele>
        <time>2021-05-29T10:57:04Z</time>
      </trkpt>
      <trkpt lat="45.08079" lon="5.7934">
        <ele>470.2</ele>
        <time>2021-05-29T10:57:05Z</time>
      </trkpt>
      <trkpt lat="45.08079" lon="5.7934">
        <ele>470.4</ele>
        <time>2021-05-29T10:57:06Z</time>
      </trkpt>
      <trkpt lat="45.08079" lon="5.79341">
        <ele>470.6</ele>
        <time>2021-05-29T10:57:07Z</time>
      </trkpt>
      <trkpt lat="45.08079" lon="5.79341">
        <ele>470.8</ele>
        <time>2021-05-29T10:57:08Z</time>
      </trkpt>
      <trkpt lat="45.08079" lon="5.79341">
        <ele>470.8</ele>
        <time>2021-05-29T10:57:09Z</time>
      </trkpt>
      <trkpt lat="45.0808" lon="5.79342">
        <ele>471.2</ele>
        <time>2021-05-29T10:57:10Z</time>
      </trkpt>
      <trkpt lat="45.0808" lon="5.79342">
        <ele>471.2</ele>
        <time>2021-05-29T10:57:11Z</time>
      </trkpt>
      <trkpt lat="45.0808" lon="5.79343">
        <ele>471.6</ele>
        <time>2021-05-29T10:57:12Z</time>
      </trkpt>
      <trkpt lat="45.08081" lon="5.79344">
        <ele>472</ele>
        <time>2021-05-29T10:57:13Z</time>
      </trkpt>
      <trkpt lat="45.08082" lon="5.79345">
        <ele>472</ele>
        <time>2021-05-29T10:57:14Z</time>
      </trkpt>
      <trkpt lat="45.08083" lon="5.79346">
        <ele>472.2</ele>
        <time>2021-05-29T10:57:15Z</time>
      </trkpt>
      <trkpt lat="45.08084" lon="5.79347">
        <ele>472.4</ele>
        <time>2021-05-29T10:57:16Z</time>
      </trkpt>
      <trkpt lat="45.08085" lon="5.79348">
        <ele>472.6</ele>
        <time>2021-05-29T10:57:17Z</time>
      </trkpt>
      <trkpt lat="45.08086" lon="5.79349">
        <ele>472.8</ele>
        <time>2021-05-29T10:57:18Z</time>
      </trkpt>
      <trkpt lat="45.08087" lon="5.7935">
        <ele>473</ele>
        <time>2021-05-29T10:57:19Z</time>
      </trkpt>
      <trkpt lat="45.08088" lon="5.79351">
        <ele>473.2</ele>
        <time>2021-05-29T10:57:20Z</time>
      </trkpt>
      <trkpt lat="45.08089" lon="5.79352">
        <ele>473.4</ele>
        <time>2021-05-29T10:57:21Z</time>
      </trkpt>
      <trkpt lat="45.0809" lon="5.79352">
        <ele>473.6</ele>
        <time>2021-05-29T10:57:22Z</time>
      </trkpt>
      <trkpt lat="45.08091" lon="5.79353">
        <ele>473.8</ele>
        <time>2021-05-29T10:57:23Z</time>
      </trkpt>
      <trkpt lat="45.08091" lon="5.79354">
        <ele>474.4</ele>
        <time>2021-05-29T10:57:24Z</time>
      </trkpt>
      <trkpt lat="45.08092" lon="5.79355">
        <ele>474.8</ele>
        <time>2021-05-29T10:57:25Z</time>
      </trkpt>
      <trkpt lat="45.08093" lon="5.79356">
        <ele>475</ele>
        <time>2021-05-29T10:57:26Z</time>
      </trkpt>
      <trkpt lat="45.08094" lon="5.79357">
        <ele>475.2</ele>
        <time>2021-05-29T10:57:27Z</time>
      </trkpt>
      <trkpt lat="45.08095" lon="5.79358">
        <ele>475.4</ele>
        <time>2021-05-29T10:57:28Z</time>
      </trkpt>
      <trkpt lat="45.08095" lon="5.79358">
        <ele>475.6</ele>
        <time>2021-05-29T10:57:29Z</time>
      </trkpt>
      <trkpt lat="45.08096" lon="5.7936">
        <ele>476</ele>
        <time>2021-05-29T10:57:30Z</time>
      </trkpt>
      <trkpt lat="45.08097" lon="5.79361">
        <ele>476.2</ele>
        <time>2021-05-29T10:57:31Z</time>
      </trkpt>
      <trkpt lat="45.08097" lon="5.79362">
        <ele>476.2</ele>
        <time>2021-05-29T10:57:32Z</time>
      </trkpt>
      <trkpt lat="45.08098" lon="5.79363">
        <ele>476.4</ele>
        <time>2021-05-29T10:57:33Z</time>
      </trkpt>
      <trkpt lat="45.08099" lon="5.79364">
        <ele>476.4</ele>
        <time>2021-05-29T10:57:34Z</time>
      </trkpt>
      <trkpt lat="45.08099" lon="5.79365">
        <ele>476.6</ele>
        <time>2021-05-29T10:57:35Z</time>
      </trkpt>
      <trkpt lat="45.081" lon="5.79366">
        <ele>477</ele>
        <time>2021-05-29T10:57:36Z</time>
      </trkpt>
      <trkpt lat="45.08101" lon="5.79368">
        <ele>477</ele>
        <time>2021-05-29T10:57:37Z</time>
      </trkpt>
      <trkpt lat="45.08101" lon="5.79369">
        <ele>477.2</ele>
        <time>2021-05-29T10:57:38Z</time>
      </trkpt>
      <trkpt lat="45.08102" lon="5.7937">
        <ele>477.4</ele>
        <time>2021-05-29T10:57:39Z</time>
      </trkpt>
      <trkpt lat="45.08103" lon="5.79372">
        <ele>477.6</ele>
        <time>2021-05-29T10:57:40Z</time>
      </trkpt>
      <trkpt lat="45.08104" lon="5.79373">
        <ele>477.8</ele>
        <time>2021-05-29T10:57:41Z</time>
      </trkpt>
      <trkpt lat="45.08105" lon="5.79375">
        <ele>478</ele>
        <time>2021-05-29T10:57:42Z</time>
      </trkpt>
      <trkpt lat="45.08106" lon="5.79377">
        <ele>478</ele>
        <time>2021-05-29T10:57:43Z</time>
      </trkpt>
      <trkpt lat="45.08107" lon="5.79379">
        <ele>478.2</ele>
        <time>2021-05-29T10:57:44Z</time>
      </trkpt>
      <trkpt lat="45.08108" lon="5.7938">
        <ele>478.4</ele>
        <time>2021-05-29T10:57:45Z</time>
      </trkpt>
      <trkpt lat="45.08108" lon="5.79382">
        <ele>478.6</ele>
        <time>2021-05-29T10:57:46Z</time>
      </trkpt>
      <trkpt lat="45.08109" lon="5.79384">
        <ele>479</ele>
        <time>2021-05-29T10:57:47Z</time>
      </trkpt>
      <trkpt lat="45.08109" lon="5.79386">
        <ele>479.2</ele>
        <time>2021-05-29T10:57:48Z</time>
      </trkpt>
      <trkpt lat="45.08109" lon="5.79388">
        <ele>479.4</ele>
        <time>2021-05-29T10:57:49Z</time>
      </trkpt>
      <trkpt lat="45.0811" lon="5.7939">
        <ele>479.8</ele>
        <time>2021-05-29T10:57:50Z</time>
      </trkpt>
      <trkpt lat="45.0811" lon="5.79392">
        <ele>479.8</ele>
        <time>2021-05-29T10:57:51Z</time>
      </trkpt>
      <trkpt lat="45.0811" lon="5.79393">
        <ele>480</ele>
        <time>2021-05-29T10:57:52Z</time>
      </trkpt>
      <trkpt lat="45.08111" lon="5.79396">
        <ele>480.2</ele>
        <time>2021-05-29T10:57:53Z</time>
      </trkpt>
      <trkpt lat="45.08111" lon="5.79398">
        <ele>480.2</ele>
        <time>2021-05-29T10:57:54Z</time>
      </trkpt>
      <trkpt lat="45.08112" lon="5.794">
        <ele>480.6</ele>
        <time>2021-05-29T10:57:55Z</time>
      </trkpt>
      <trkpt lat="45.08112" lon="5.79402">
        <ele>480.8</ele>
        <time>2021-05-29T10:57:56Z</time>
      </trkpt>
      <trkpt lat="45.08112" lon="5.79404">
        <ele>481</ele>
        <time>2021-05-29T10:57:57Z</time>
      </trkpt>
      <trkpt lat="45.08113" lon="5.79406">
        <ele>481</ele>
        <time>2021-05-29T10:57:58Z</time>
      </trkpt>
      <trkpt lat="45.08112" lon="5.79408">
        <ele>481.4</ele>
        <time>2021-05-29T10:57:59Z</time>
      </trkpt>
      <trkpt lat="45.08112" lon="5.7941">
        <ele>481.4</ele>
        <time>2021-05-29T10:58:00Z</time>
      </trkpt>
      <trkpt lat="45.08112" lon="5.79412">
        <ele>481.4</ele>
        <time>2021-05-29T10:58:01Z</time>
      </trkpt>
      <trkpt lat="45.08112" lon="5.79413">
        <ele>481.4</ele>
        <time>2021-05-29T10:58:02Z</time>
      </trkpt>
      <trkpt lat="45.08112" lon="5.79415">
        <ele>481.6</ele>
        <time>2021-05-29T10:58:03Z</time>
      </trkpt>
      <trkpt lat="45.08111" lon="5.79417">
        <ele>481.8</ele>
        <time>2021-05-29T10:58:04Z</time>
      </trkpt>
      <trkpt lat="45.08111" lon="5.79419">
        <ele>482</ele>
        <time>2021-05-29T10:58:05Z</time>
      </trkpt>
      <trkpt lat="45.08111" lon="5.79421">
        <ele>482.2</ele>
        <time>2021-05-29T10:58:06Z</time>
      </trkpt>
      <trkpt lat="45.08111" lon="5.79422">
        <ele>482.4</ele>
        <time>2021-05-29T10:58:07Z</time>
      </trkpt>
      <trkpt lat="45.08112" lon="5.79424">
        <ele>482.8</ele>
        <time>2021-05-29T10:58:08Z</time>
      </trkpt>
      <trkpt lat="45.08112" lon="5.79426">
        <ele>483.2</ele>
        <time>2021-05-29T10:58:09Z</time>
      </trkpt>
      <trkpt lat="45.08112" lon="5.79427">
        <ele>483.4</ele>
        <time>2021-05-29T10:58:10Z</time>
      </trkpt>
      <trkpt lat="45.08112" lon="5.79429">
        <ele>483.4</ele>
        <time>2021-05-29T10:58:11Z</time>
      </trkpt>
      <trkpt lat="45.08112" lon="5.7943">
        <ele>483.8</ele>
        <time>2021-05-29T10:58:12Z</time>
      </trkpt>
      <trkpt lat="45.08112" lon="5.79432">
        <ele>484</ele>
        <time>2021-05-29T10:58:13Z</time>
      </trkpt>
      <trkpt lat="45.08112" lon="5.79434">
        <ele>484.2</ele>
        <time>2021-05-29T10:58:14Z</time>
      </trkpt>
      <trkpt lat="45.08112" lon="5.79435">
        <ele>484.6</ele>
        <time>2021-05-29T10:58:15Z</time>
      </trkpt>
      <trkpt lat="45.08112" lon="5.79436">
        <ele>484.8</ele>
        <time>2021-05-29T10:58:16Z</time>
      </trkpt>
      <trkpt lat="45.08112" lon="5.79438">
        <ele>485</ele>
        <time>2021-05-29T10:58:17Z</time>
      </trkpt>
      <trkpt lat="45.08112" lon="5.79439">
        <ele>485.4</ele>
        <time>2021-05-29T10:58:18Z</time>
      </trkpt>
      <trkpt lat="45.08112" lon="5.7944">
        <ele>485.8</ele>
        <time>2021-05-29T10:58:19Z</time>
      </trkpt>
      <trkpt lat="45.08112" lon="5.79442">
        <ele>486</ele>
        <time>2021-05-29T10:58:20Z</time>
      </trkpt>
      <trkpt lat="45.08112" lon="5.79443">
        <ele>486.2</ele>
        <time>2021-05-29T10:58:21Z</time>
      </trkpt>
      <trkpt lat="45.08112" lon="5.79444">
        <ele>486.4</ele>
        <time>2021-05-29T10:58:22Z</time>
      </trkpt>
      <trkpt lat="45.08112" lon="5.79446">
        <ele>486.4</ele>
        <time>2021-05-29T10:58:23Z</time>
      </trkpt>
      <trkpt lat="45.08112" lon="5.79447">
        <ele>486.4</ele>
        <time>2021-05-29T10:58:24Z</time>
      </trkpt>
      <trkpt lat="45.08113" lon="5.79449">
        <ele>486.6</ele>
        <time>2021-05-29T10:58:25Z</time>
      </trkpt>
      <trkpt lat="45.08113" lon="5.7945">
        <ele>486.8</ele>
        <time>2021-05-29T10:58:26Z</time>
      </trkpt>
      <trkpt lat="45.08114" lon="5.79452">
        <ele>486.8</ele>
        <time>2021-05-29T10:58:27Z</time>
      </trkpt>
      <trkpt lat="45.08114" lon="5.79453">
        <ele>486.8</ele>
        <time>2021-05-29T10:58:28Z</time>
      </trkpt>
      <trkpt lat="45.08114" lon="5.79455">
        <ele>487.2</ele>
        <time>2021-05-29T10:58:29Z</time>
      </trkpt>
      <trkpt lat="45.08115" lon="5.79456">
        <ele>487.4</ele>
        <time>2021-05-29T10:58:30Z</time>
      </trkpt>
      <trkpt lat="45.08115" lon="5.79457">
        <ele>487.8</ele>
        <time>2021-05-29T10:58:31Z</time>
      </trkpt>
      <trkpt lat="45.08115" lon="5.79459">
        <ele>488.2</ele>
        <time>2021-05-29T10:58:32Z</time>
      </trkpt>
      <trkpt lat="45.08116" lon="5.7946">
        <ele>488.4</ele>
        <time>2021-05-29T10:58:33Z</time>
      </trkpt>
      <trkpt lat="45.08116" lon="5.79461">
        <ele>488.6</ele>
        <time>2021-05-29T10:58:34Z</time>
      </trkpt>
      <trkpt lat="45.08117" lon="5.79462">
        <ele>488.8</ele>
        <time>2021-05-29T10:58:35Z</time>
      </trkpt>
      <trkpt lat="45.08117" lon="5.79463">
        <ele>489</ele>
        <time>2021-05-29T10:58:36Z</time>
      </trkpt>
      <trkpt lat="45.08118" lon="5.79464">
        <ele>489</ele>
        <time>2021-05-29T10:58:37Z</time>
      </trkpt>
      <trkpt lat="45.08118" lon="5.79465">
        <ele>489.4</ele>
        <time>2021-05-29T10:58:38Z</time>
      </trkpt>
      <trkpt lat="45.08118" lon="5.79466">
        <ele>489.6</ele>
        <time>2021-05-29T10:58:39Z</time>
      </trkpt>
      <trkpt lat="45.08119" lon="5.79467">
        <ele>489.8</ele>
        <time>2021-05-29T10:58:40Z</time>
      </trkpt>
      <trkpt lat="45.08119" lon="5.79468">
        <ele>490.2</ele>
        <time>2021-05-29T10:58:41Z</time>
      </trkpt>
      <trkpt lat="45.0812" lon="5.79469">
        <ele>490.4</ele>
        <time>2021-05-29T10:58:42Z</time>
      </trkpt>
      <trkpt lat="45.0812" lon="5.7947">
        <ele>490.6</ele>
        <time>2021-05-29T10:58:43Z</time>
      </trkpt>
      <trkpt lat="45.08121" lon="5.79471">
        <ele>490.6</ele>
        <time>2021-05-29T10:58:44Z</time>
      </trkpt>
      <trkpt lat="45.08122" lon="5.79472">
        <ele>490.8</ele>
        <time>2021-05-29T10:58:45Z</time>
      </trkpt>
      <trkpt lat="45.08123" lon="5.79473">
        <ele>490.8</ele>
        <time>2021-05-29T10:58:46Z</time>
      </trkpt>
      <trkpt lat="45.08124" lon="5.79474">
        <ele>491</ele>
        <time>2021-05-29T10:58:47Z</time>
      </trkpt>
      <trkpt lat="45.08124" lon="5.79475">
        <ele>491</ele>
        <time>2021-05-29T10:58:48Z</time>
      </trkpt>
      <trkpt lat="45.08125" lon="5.79477">
        <ele>491.2</ele>
        <time>2021-05-29T10:58:49Z</time>
      </trkpt>
      <trkpt lat="45.08126" lon="5.79478">
        <ele>491.4</ele>
        <time>2021-05-29T10:58:50Z</time>
      </trkpt>
      <trkpt lat="45.08127" lon="5.79479">
        <ele>491.8</ele>
        <time>2021-05-29T10:58:51Z</time>
      </trkpt>
      <trkpt lat="45.08128" lon="5.7948">
        <ele>492.2</ele>
        <time>2021-05-29T10:58:52Z</time>
      </trkpt>
      <trkpt lat="45.08129" lon="5.79481">
        <ele>492.4</ele>
        <time>2021-05-29T10:58:53Z</time>
      </trkpt>
      <trkpt lat="45.08129" lon="5.79482">
        <ele>492.6</ele>
        <time>2021-05-29T10:58:54Z</time>
      </trkpt>
      <trkpt lat="45.0813" lon="5.79483">
        <ele>492.8</ele>
        <time>2021-05-29T10:58:55Z</time>
      </trkpt>
      <trkpt lat="45.08131" lon="5.79484">
        <ele>492.8</ele>
        <time>2021-05-29T10:58:56Z</time>
      </trkpt>
      <trkpt lat="45.08132" lon="5.79485">
        <ele>493.2</ele>
        <time>2021-05-29T10:58:57Z</time>
      </trkpt>
      <trkpt lat="45.08133" lon="5.79486">
        <ele>493.6</ele>
        <time>2021-05-29T10:58:58Z</time>
      </trkpt>
      <trkpt lat="45.08134" lon="5.79487">
        <ele>493.8</ele>
        <time>2021-05-29T10:58:59Z</time>
      </trkpt>
      <trkpt lat="45.08134" lon="5.79488">
        <ele>494</ele>
        <time>2021-05-29T10:59:00Z</time>
      </trkpt>
      <trkpt lat="45.08135" lon="5.79489">
        <ele>494.2</ele>
        <time>2021-05-29T10:59:01Z</time>
      </trkpt>
      <trkpt lat="45.08135" lon="5.7949">
        <ele>494.2</ele>
        <time>2021-05-29T10:59:02Z</time>
      </trkpt>
      <trkpt lat="45.08136" lon="5.79491">
        <ele>494.4</ele>
        <time>2021-05-29T10:59:03Z</time>
      </trkpt>
      <trkpt lat="45.08136" lon="5.79492">
        <ele>494.6</ele>
        <time>2021-05-29T10:59:04Z</time>
      </trkpt>
      <trkpt lat="45.08136" lon="5.79493">
        <ele>494.6</ele>
        <time>2021-05-29T10:59:05Z</time>
      </trkpt>
      <trkpt lat="45.08137" lon="5.79494">
        <ele>494.8</ele>
        <time>2021-05-29T10:59:06Z</time>
      </trkpt>
      <trkpt lat="45.08137" lon="5.79495">
        <ele>494.8</ele>
        <time>2021-05-29T10:59:07Z</time>
      </trkpt>
      <trkpt lat="45.08138" lon="5.79496">
        <ele>495</ele>
        <time>2021-05-29T10:59:08Z</time>
      </trkpt>
      <trkpt lat="45.08138" lon="5.79497">
        <ele>495.2</ele>
        <time>2021-05-29T10:59:09Z</time>
      </trkpt>
      <trkpt lat="45.08139" lon="5.79498">
        <ele>495.6</ele>
        <time>2021-05-29T10:59:10Z</time>
      </trkpt>
      <trkpt lat="45.08139" lon="5.795">
        <ele>495.8</ele>
        <time>2021-05-29T10:59:11Z</time>
      </trkpt>
      <trkpt lat="45.0814" lon="5.79501">
        <ele>496.2</ele>
        <time>2021-05-29T10:59:12Z</time>
      </trkpt>
      <trkpt lat="45.08141" lon="5.79502">
        <ele>496.6</ele>
        <time>2021-05-29T10:59:13Z</time>
      </trkpt>
      <trkpt lat="45.08142" lon="5.79503">
        <ele>496.8</ele>
        <time>2021-05-29T10:59:14Z</time>
      </trkpt>
      <trkpt lat="45.08142" lon="5.79504">
        <ele>497</ele>
        <time>2021-05-29T10:59:15Z</time>
      </trkpt>
      <trkpt lat="45.08143" lon="5.79505">
        <ele>496.8</ele>
        <time>2021-05-29T10:59:16Z</time>
      </trkpt>
      <trkpt lat="45.08144" lon="5.79507">
        <ele>497.2</ele>
        <time>2021-05-29T10:59:17Z</time>
      </trkpt>
      <trkpt lat="45.08145" lon="5.79508">
        <ele>497.6</ele>
        <time>2021-05-29T10:59:18Z</time>
      </trkpt>
      <trkpt lat="45.08145" lon="5.79509">
        <ele>498</ele>
        <time>2021-05-29T10:59:19Z</time>
      </trkpt>
      <trkpt lat="45.08146" lon="5.7951">
        <ele>498.4</ele>
        <time>2021-05-29T10:59:20Z</time>
      </trkpt>
      <trkpt lat="45.08147" lon="5.79512">
        <ele>498.8</ele>
        <time>2021-05-29T10:59:21Z</time>
      </trkpt>
      <trkpt lat="45.08148" lon="5.79514">
        <ele>499</ele>
        <time>2021-05-29T10:59:22Z</time>
      </trkpt>
      <trkpt lat="45.08148" lon="5.79515">
        <ele>499</ele>
        <time>2021-05-29T10:59:23Z</time>
      </trkpt>
      <trkpt lat="45.08149" lon="5.79517">
        <ele>499</ele>
        <time>2021-05-29T10:59:24Z</time>
      </trkpt>
      <trkpt lat="45.08149" lon="5.79518">
        <ele>499</ele>
        <time>2021-05-29T10:59:25Z</time>
      </trkpt>
      <trkpt lat="45.0815" lon="5.7952">
        <ele>499.2</ele>
        <time>2021-05-29T10:59:26Z</time>
      </trkpt>
      <trkpt lat="45.0815" lon="5.79521">
        <ele>499.4</ele>
        <time>2021-05-29T10:59:27Z</time>
      </trkpt>
      <trkpt lat="45.08151" lon="5.79523">
        <ele>499.8</ele>
        <time>2021-05-29T10:59:28Z</time>
      </trkpt>
      <trkpt lat="45.08151" lon="5.79524">
        <ele>500.2</ele>
        <time>2021-05-29T10:59:29Z</time>
      </trkpt>
      <trkpt lat="45.08152" lon="5.79526">
        <ele>500.4</ele>
        <time>2021-05-29T10:59:30Z</time>
      </trkpt>
      <trkpt lat="45.08152" lon="5.79527">
        <ele>500.6</ele>
        <time>2021-05-29T10:59:31Z</time>
      </trkpt>
      <trkpt lat="45.08153" lon="5.79529">
        <ele>501</ele>
        <time>2021-05-29T10:59:32Z</time>
      </trkpt>
      <trkpt lat="45.08153" lon="5.79531">
        <ele>501</ele>
        <time>2021-05-29T10:59:33Z</time>
      </trkpt>
      <trkpt lat="45.08154" lon="5.79532">
        <ele>501.2</ele>
        <time>2021-05-29T10:59:34Z</time>
      </trkpt>
      <trkpt lat="45.08154" lon="5.79534">
        <ele>501.2</ele>
        <time>2021-05-29T10:59:35Z</time>
      </trkpt>
      <trkpt lat="45.08155" lon="5.79535">
        <ele>501.6</ele>
        <time>2021-05-29T10:59:36Z</time>
      </trkpt>
      <trkpt lat="45.08155" lon="5.79537">
        <ele>501.8</ele>
        <time>2021-05-29T10:59:37Z</time>
      </trkpt>
      <trkpt lat="45.08156" lon="5.79538">
        <ele>502</ele>
        <time>2021-05-29T10:59:38Z</time>
      </trkpt>
      <trkpt lat="45.08156" lon="5.7954">
        <ele>502.2</ele>
        <time>2021-05-29T10:59:39Z</time>
      </trkpt>
      <trkpt lat="45.08157" lon="5.79541">
        <ele>502.4</ele>
        <time>2021-05-29T10:59:40Z</time>
      </trkpt>
      <trkpt lat="45.08157" lon="5.79543">
        <ele>502.6</ele>
        <time>2021-05-29T10:59:41Z</time>
      </trkpt>
      <trkpt lat="45.08158" lon="5.79544">
        <ele>502.6</ele>
        <time>2021-05-29T10:59:42Z</time>
      </trkpt>
      <trkpt lat="45.08158" lon="5.79546">
        <ele>502.8</ele>
        <time>2021-05-29T10:59:43Z</time>
      </trkpt>
      <trkpt lat="45.08159" lon="5.79547">
        <ele>502.8</ele>
        <time>2021-05-29T10:59:44Z</time>
      </trkpt>
      <trkpt lat="45.0816" lon="5.79549">
        <ele>502.8</ele>
        <time>2021-05-29T10:59:45Z</time>
      </trkpt>
      <trkpt lat="45.0816" lon="5.79551">
        <ele>503</ele>
        <time>2021-05-29T10:59:46Z</time>
      </trkpt>
      <trkpt lat="45.08161" lon="5.79552">
        <ele>503.2</ele>
        <time>2021-05-29T10:59:47Z</time>
      </trkpt>
      <trkpt lat="45.08161" lon="5.79554">
        <ele>503.4</ele>
        <time>2021-05-29T10:59:48Z</time>
      </trkpt>
      <trkpt lat="45.08162" lon="5.79555">
        <ele>503.6</ele>
        <time>2021-05-29T10:59:49Z</time>
      </trkpt>
      <trkpt lat="45.08162" lon="5.79557">
        <ele>504</ele>
        <time>2021-05-29T10:59:50Z</time>
      </trkpt>
      <trkpt lat="45.08163" lon="5.79558">
        <ele>504</ele>
        <time>2021-05-29T10:59:51Z</time>
      </trkpt>
      <trkpt lat="45.08163" lon="5.7956">
        <ele>504.2</ele>
        <time>2021-05-29T10:59:52Z</time>
      </trkpt>
      <trkpt lat="45.08164" lon="5.79561">
        <ele>504.4</ele>
        <time>2021-05-29T10:59:53Z</time>
      </trkpt>
      <trkpt lat="45.08164" lon="5.79563">
        <ele>504.6</ele>
        <time>2021-05-29T10:59:54Z</time>
      </trkpt>
      <trkpt lat="45.08165" lon="5.79564">
        <ele>504.8</ele>
        <time>2021-05-29T10:59:55Z</time>
      </trkpt>
      <trkpt lat="45.08165" lon="5.79566">
        <ele>504.8</ele>
        <time>2021-05-29T10:59:56Z</time>
      </trkpt>
      <trkpt lat="45.08166" lon="5.79567">
        <ele>505</ele>
        <time>2021-05-29T10:59:57Z</time>
      </trkpt>
      <trkpt lat="45.08166" lon="5.79567">
        <ele>505</ele>
        <time>2021-05-29T10:59:58Z</time>
      </trkpt>
      <trkpt lat="45.08166" lon="5.79567">
        <ele>505.4</ele>
        <time>2021-05-29T11:00:00Z</time>
      </trkpt>
      <trkpt lat="45.08166" lon="5.79569">
        <ele>505.4</ele>
        <time>2021-05-29T11:00:01Z</time>
      </trkpt>
      <trkpt lat="45.08167" lon="5.7957">
        <ele>505.6</ele>
        <time>2021-05-29T11:00:02Z</time>
      </trkpt>
      <trkpt lat="45.08167" lon="5.79571">
        <ele>506</ele>
        <time>2021-05-29T11:00:03Z</time>
      </trkpt>
      <trkpt lat="45.08168" lon="5.79572">
        <ele>506.4</ele>
        <time>2021-05-29T11:00:04Z</time>
      </trkpt>
      <trkpt lat="45.08169" lon="5.79573">
        <ele>506.8</ele>
        <time>2021-05-29T11:00:05Z</time>
      </trkpt>
      <trkpt lat="45.08169" lon="5.79574">
        <ele>507.2</ele>
        <time>2021-05-29T11:00:06Z</time>
      </trkpt>
      <trkpt lat="45.0817" lon="5.79575">
        <ele>507.4</ele>
        <time>2021-05-29T11:00:07Z</time>
      </trkpt>
      <trkpt lat="45.0817" lon="5.79576">
        <ele>507.6</ele>
        <time>2021-05-29T11:00:08Z</time>
      </trkpt>
      <trkpt lat="45.08171" lon="5.79577">
        <ele>507.8</ele>
        <time>2021-05-29T11:00:09Z</time>
      </trkpt>
      <trkpt lat="45.08171" lon="5.79578">
        <ele>508</ele>
        <time>2021-05-29T11:00:10Z</time>
      </trkpt>
      <trkpt lat="45.08172" lon="5.7958">
        <ele>508.2</ele>
        <time>2021-05-29T11:00:11Z</time>
      </trkpt>
      <trkpt lat="45.08172" lon="5.79581">
        <ele>508.4</ele>
        <time>2021-05-29T11:00:12Z</time>
      </trkpt>
      <trkpt lat="45.08172" lon="5.79582">
        <ele>508.6</ele>
        <time>2021-05-29T11:00:13Z</time>
      </trkpt>
      <trkpt lat="45.08172" lon="5.79583">
        <ele>508.8</ele>
        <time>2021-05-29T11:00:14Z</time>
      </trkpt>
      <trkpt lat="45.08172" lon="5.79584">
        <ele>509</ele>
        <time>2021-05-29T11:00:15Z</time>
      </trkpt>
      <trkpt lat="45.08172" lon="5.79585">
        <ele>509.2</ele>
        <time>2021-05-29T11:00:16Z</time>
      </trkpt>
      <trkpt lat="45.08173" lon="5.79586">
        <ele>509.2</ele>
        <time>2021-05-29T11:00:17Z</time>
      </trkpt>
      <trkpt lat="45.08173" lon="5.79588">
        <ele>509.4</ele>
        <time>2021-05-29T11:00:18Z</time>
      </trkpt>
      <trkpt lat="45.08173" lon="5.79589">
        <ele>509.8</ele>
        <time>2021-05-29T11:00:19Z</time>
      </trkpt>
      <trkpt lat="45.08173" lon="5.7959">
        <ele>510</ele>
        <time>2021-05-29T11:00:20Z</time>
      </trkpt>
      <trkpt lat="45.08173" lon="5.79591">
        <ele>510.4</ele>
        <time>2021-05-29T11:00:21Z</time>
      </trkpt>
      <trkpt lat="45.08173" lon="5.79592">
        <ele>510.8</ele>
        <time>2021-05-29T11:00:22Z</time>
      </trkpt>
      <trkpt lat="45.08174" lon="5.79593">
        <ele>511</ele>
        <time>2021-05-29T11:00:23Z</time>
      </trkpt>
      <trkpt lat="45.08174" lon="5.79595">
        <ele>511</ele>
        <time>2021-05-29T11:00:24Z</time>
      </trkpt>
      <trkpt lat="45.08175" lon="5.79596">
        <ele>511.6</ele>
        <time>2021-05-29T11:00:25Z</time>
      </trkpt>
      <trkpt lat="45.08175" lon="5.79597">
        <ele>511.8</ele>
        <time>2021-05-29T11:00:26Z</time>
      </trkpt>
      <trkpt lat="45.08176" lon="5.79598">
        <ele>512</ele>
        <time>2021-05-29T11:00:27Z</time>
      </trkpt>
      <trkpt lat="45.08176" lon="5.796">
        <ele>512.2</ele>
        <time>2021-05-29T11:00:28Z</time>
      </trkpt>
      <trkpt lat="45.08177" lon="5.79601">
        <ele>512.4</ele>
        <time>2021-05-29T11:00:29Z</time>
      </trkpt>
      <trkpt lat="45.08177" lon="5.79602">
        <ele>512.6</ele>
        <time>2021-05-29T11:00:30Z</time>
      </trkpt>
      <trkpt lat="45.08178" lon="5.79603">
        <ele>512.8</ele>
        <time>2021-05-29T11:00:31Z</time>
      </trkpt>
      <trkpt lat="45.08179" lon="5.79604">
        <ele>513</ele>
        <time>2021-05-29T11:00:32Z</time>
      </trkpt>
      <trkpt lat="45.0818" lon="5.79606">
        <ele>513.2</ele>
        <time>2021-05-29T11:00:33Z</time>
      </trkpt>
      <trkpt lat="45.0818" lon="5.79607">
        <ele>513.4</ele>
        <time>2021-05-29T11:00:34Z</time>
      </trkpt>
      <trkpt lat="45.08181" lon="5.79608">
        <ele>513.4</ele>
        <time>2021-05-29T11:00:35Z</time>
      </trkpt>
      <trkpt lat="45.08182" lon="5.79609">
        <ele>513.8</ele>
        <time>2021-05-29T11:00:36Z</time>
      </trkpt>
      <trkpt lat="45.08183" lon="5.79611">
        <ele>514</ele>
        <time>2021-05-29T11:00:37Z</time>
      </trkpt>
      <trkpt lat="45.08184" lon="5.79612">
        <ele>514.2</ele>
        <time>2021-05-29T11:00:38Z</time>
      </trkpt>
      <trkpt lat="45.08184" lon="5.79613">
        <ele>514.4</ele>
        <time>2021-05-29T11:00:39Z</time>
      </trkpt>
      <trkpt lat="45.08185" lon="5.79614">
        <ele>514.4</ele>
        <time>2021-05-29T11:00:40Z</time>
      </trkpt>
      <trkpt lat="45.08187" lon="5.79614">
        <ele>514.8</ele>
        <time>2021-05-29T11:00:41Z</time>
      </trkpt>
      <trkpt lat="45.08188" lon="5.79615">
        <ele>515</ele>
        <time>2021-05-29T11:00:42Z</time>
      </trkpt>
      <trkpt lat="45.08189" lon="5.79616">
        <ele>515.2</ele>
        <time>2021-05-29T11:00:43Z</time>
      </trkpt>
      <trkpt lat="45.0819" lon="5.79616">
        <ele>515.6</ele>
        <time>2021-05-29T11:00:44Z</time>
      </trkpt>
      <trkpt lat="45.08191" lon="5.79617">
        <ele>515.8</ele>
        <time>2021-05-29T11:00:45Z</time>
      </trkpt>
      <trkpt lat="45.08192" lon="5.79618">
        <ele>516</ele>
        <time>2021-05-29T11:00:46Z</time>
      </trkpt>
      <trkpt lat="45.08193" lon="5.79618">
        <ele>516</ele>
        <time>2021-05-29T11:00:47Z</time>
      </trkpt>
      <trkpt lat="45.08194" lon="5.79619">
        <ele>516</ele>
        <time>2021-05-29T11:00:48Z</time>
      </trkpt>
      <trkpt lat="45.08195" lon="5.7962">
        <ele>516.2</ele>
        <time>2021-05-29T11:00:49Z</time>
      </trkpt>
      <trkpt lat="45.08196" lon="5.79621">
        <ele>516.4</ele>
        <time>2021-05-29T11:00:50Z</time>
      </trkpt>
      <trkpt lat="45.08198" lon="5.79622">
        <ele>516.6</ele>
        <time>2021-05-29T11:00:51Z</time>
      </trkpt>
      <trkpt lat="45.08199" lon="5.79622">
        <ele>517</ele>
        <time>2021-05-29T11:00:52Z</time>
      </trkpt>
      <trkpt lat="45.082" lon="5.79623">
        <ele>517.2</ele>
        <time>2021-05-29T11:00:53Z</time>
      </trkpt>
      <trkpt lat="45.08201" lon="5.79624">
        <ele>517.4</ele>
        <time>2021-05-29T11:00:54Z</time>
      </trkpt>
      <trkpt lat="45.08202" lon="5.79625">
        <ele>517.6</ele>
        <time>2021-05-29T11:00:55Z</time>
      </trkpt>
      <trkpt lat="45.08203" lon="5.79626">
        <ele>517.8</ele>
        <time>2021-05-29T11:00:56Z</time>
      </trkpt>
      <trkpt lat="45.08204" lon="5.79627">
        <ele>518</ele>
        <time>2021-05-29T11:00:57Z</time>
      </trkpt>
      <trkpt lat="45.08205" lon="5.79628">
        <ele>518</ele>
        <time>2021-05-29T11:00:58Z</time>
      </trkpt>
      <trkpt lat="45.08207" lon="5.79629">
        <ele>518.2</ele>
        <time>2021-05-29T11:00:59Z</time>
      </trkpt>
      <trkpt lat="45.08208" lon="5.79629">
        <ele>518.4</ele>
        <time>2021-05-29T11:01:00Z</time>
      </trkpt>
      <trkpt lat="45.08209" lon="5.7963">
        <ele>518.4</ele>
        <time>2021-05-29T11:01:01Z</time>
      </trkpt>
      <trkpt lat="45.0821" lon="5.79631">
        <ele>518.8</ele>
        <time>2021-05-29T11:01:02Z</time>
      </trkpt>
      <trkpt lat="45.08211" lon="5.79632">
        <ele>519</ele>
        <time>2021-05-29T11:01:03Z</time>
      </trkpt>
      <trkpt lat="45.08212" lon="5.79633">
        <ele>519</ele>
        <time>2021-05-29T11:01:04Z</time>
      </trkpt>
      <trkpt lat="45.08213" lon="5.79634">
        <ele>519.2</ele>
        <time>2021-05-29T11:01:05Z</time>
      </trkpt>
      <trkpt lat="45.08214" lon="5.79636">
        <ele>519.2</ele>
        <time>2021-05-29T11:01:06Z</time>
      </trkpt>
      <trkpt lat="45.08216" lon="5.79637">
        <ele>519.4</ele>
        <time>2021-05-29T11:01:07Z</time>
      </trkpt>
      <trkpt lat="45.08217" lon="5.79638">
        <ele>519.4</ele>
        <time>2021-05-29T11:01:08Z</time>
      </trkpt>
      <trkpt lat="45.08218" lon="5.79639">
        <ele>519.8</ele>
        <time>2021-05-29T11:01:09Z</time>
      </trkpt>
      <trkpt lat="45.08219" lon="5.7964">
        <ele>520</ele>
        <time>2021-05-29T11:01:10Z</time>
      </trkpt>
      <trkpt lat="45.0822" lon="5.79641">
        <ele>520.4</ele>
        <time>2021-05-29T11:01:11Z</time>
      </trkpt>
      <trkpt lat="45.08221" lon="5.79642">
        <ele>520.4</ele>
        <time>2021-05-29T11:01:12Z</time>
      </trkpt>
      <trkpt lat="45.08221" lon="5.79643">
        <ele>520.6</ele>
        <time>2021-05-29T11:01:13Z</time>
      </trkpt>
      <trkpt lat="45.08222" lon="5.79645">
        <ele>520.8</ele>
        <time>2021-05-29T11:01:14Z</time>
      </trkpt>
      <trkpt lat="45.08223" lon="5.79646">
        <ele>521</ele>
        <time>2021-05-29T11:01:15Z</time>
      </trkpt>
      <trkpt lat="45.08224" lon="5.79647">
        <ele>521.2</ele>
        <time>2021-05-29T11:01:16Z</time>
      </trkpt>
      <trkpt lat="45.08225" lon="5.79648">
        <ele>521.2</ele>
        <time>2021-05-29T11:01:17Z</time>
      </trkpt>
      <trkpt lat="45.08226" lon="5.79649">
        <ele>521.2</ele>
        <time>2021-05-29T11:01:18Z</time>
      </trkpt>
      <trkpt lat="45.08227" lon="5.79651">
        <ele>521.4</ele>
        <time>2021-05-29T11:01:19Z</time>
      </trkpt>
      <trkpt lat="45.08229" lon="5.79652">
        <ele>521.4</ele>
        <time>2021-05-29T11:01:20Z</time>
      </trkpt>
      <trkpt lat="45.0823" lon="5.79654">
        <ele>521.6</ele>
        <time>2021-05-29T11:01:21Z</time>
      </trkpt>
      <trkpt lat="45.08232" lon="5.79655">
        <ele>521.6</ele>
        <time>2021-05-29T11:01:22Z</time>
      </trkpt>
      <trkpt lat="45.08233" lon="5.79657">
        <ele>521.8</ele>
        <time>2021-05-29T11:01:23Z</time>
      </trkpt>
      <trkpt lat="45.08234" lon="5.79657">
        <ele>522</ele>
        <time>2021-05-29T11:01:24Z</time>
      </trkpt>
      <trkpt lat="45.08235" lon="5.79658">
        <ele>522</ele>
        <time>2021-05-29T11:01:25Z</time>
      </trkpt>
      <trkpt lat="45.08236" lon="5.79659">
        <ele>522</ele>
        <time>2021-05-29T11:01:26Z</time>
      </trkpt>
      <trkpt lat="45.08237" lon="5.79659">
        <ele>522.2</ele>
        <time>2021-05-29T11:01:27Z</time>
      </trkpt>
      <trkpt lat="45.08238" lon="5.7966">
        <ele>522.4</ele>
        <time>2021-05-29T11:01:28Z</time>
      </trkpt>
      <trkpt lat="45.08239" lon="5.79661">
        <ele>522.6</ele>
        <time>2021-05-29T11:01:29Z</time>
      </trkpt>
      <trkpt lat="45.0824" lon="5.79661">
        <ele>522.8</ele>
        <time>2021-05-29T11:01:30Z</time>
      </trkpt>
      <trkpt lat="45.08241" lon="5.79662">
        <ele>523</ele>
        <time>2021-05-29T11:01:31Z</time>
      </trkpt>
      <trkpt lat="45.08242" lon="5.79663">
        <ele>523.2</ele>
        <time>2021-05-29T11:01:32Z</time>
      </trkpt>
      <trkpt lat="45.08243" lon="5.79663">
        <ele>523.2</ele>
        <time>2021-05-29T11:01:33Z</time>
      </trkpt>
      <trkpt lat="45.08244" lon="5.79663">
        <ele>523.8</ele>
        <time>2021-05-29T11:01:34Z</time>
      </trkpt>
      <trkpt lat="45.08246" lon="5.79663">
        <ele>524</ele>
        <time>2021-05-29T11:01:35Z</time>
      </trkpt>
      <trkpt lat="45.08247" lon="5.79663">
        <ele>524.4</ele>
        <time>2021-05-29T11:01:36Z</time>
      </trkpt>
      <trkpt lat="45.08248" lon="5.79663">
        <ele>524.6</ele>
        <time>2021-05-29T11:01:37Z</time>
      </trkpt>
      <trkpt lat="45.0825" lon="5.79663">
        <ele>524.8</ele>
        <time>2021-05-29T11:01:38Z</time>
      </trkpt>
      <trkpt lat="45.08251" lon="5.79664">
        <ele>525.2</ele>
        <time>2021-05-29T11:01:39Z</time>
      </trkpt>
      <trkpt lat="45.08251" lon="5.79665">
        <ele>525.4</ele>
        <time>2021-05-29T11:01:40Z</time>
      </trkpt>
      <trkpt lat="45.08251" lon="5.79666">
        <ele>525.8</ele>
        <time>2021-05-29T11:01:41Z</time>
      </trkpt>
      <trkpt lat="45.08252" lon="5.79667">
        <ele>526</ele>
        <time>2021-05-29T11:01:42Z</time>
      </trkpt>
      <trkpt lat="45.08252" lon="5.79669">
        <ele>526.2</ele>
        <time>2021-05-29T11:01:43Z</time>
      </trkpt>
      <trkpt lat="45.08252" lon="5.7967">
        <ele>526.2</ele>
        <time>2021-05-29T11:01:44Z</time>
      </trkpt>
      <trkpt lat="45.08253" lon="5.79671">
        <ele>526.2</ele>
        <time>2021-05-29T11:01:45Z</time>
      </trkpt>
      <trkpt lat="45.08253" lon="5.79672">
        <ele>526.8</ele>
        <time>2021-05-29T11:01:46Z</time>
      </trkpt>
      <trkpt lat="45.08253" lon="5.79674">
        <ele>527</ele>
        <time>2021-05-29T11:01:47Z</time>
      </trkpt>
      <trkpt lat="45.08253" lon="5.79675">
        <ele>527.2</ele>
        <time>2021-05-29T11:01:48Z</time>
      </trkpt>
      <trkpt lat="45.08254" lon="5.79676">
        <ele>527.6</ele>
        <time>2021-05-29T11:01:49Z</time>
      </trkpt>
      <trkpt lat="45.08253" lon="5.79678">
        <ele>527.8</ele>
        <time>2021-05-29T11:01:50Z</time>
      </trkpt>
      <trkpt lat="45.08252" lon="5.79679">
        <ele>528</ele>
        <time>2021-05-29T11:01:51Z</time>
      </trkpt>
      <trkpt lat="45.08251" lon="5.7968">
        <ele>528</ele>
        <time>2021-05-29T11:01:52Z</time>
      </trkpt>
      <trkpt lat="45.0825" lon="5.79681">
        <ele>528.2</ele>
        <time>2021-05-29T11:01:53Z</time>
      </trkpt>
      <trkpt lat="45.08249" lon="5.79683">
        <ele>528.2</ele>
        <time>2021-05-29T11:01:54Z</time>
      </trkpt>
      <trkpt lat="45.08248" lon="5.79684">
        <ele>528.2</ele>
        <time>2021-05-29T11:01:55Z</time>
      </trkpt>
      <trkpt lat="45.08247" lon="5.79685">
        <ele>528.4</ele>
        <time>2021-05-29T11:01:56Z</time>
      </trkpt>
      <trkpt lat="45.08246" lon="5.79686">
        <ele>528.6</ele>
        <time>2021-05-29T11:01:57Z</time>
      </trkpt>
      <trkpt lat="45.08245" lon="5.79688">
        <ele>528.6</ele>
        <time>2021-05-29T11:01:58Z</time>
      </trkpt>
      <trkpt lat="45.08244" lon="5.79689">
        <ele>528.8</ele>
        <time>2021-05-29T11:01:59Z</time>
      </trkpt>
      <trkpt lat="45.08243" lon="5.79691">
        <ele>529</ele>
        <time>2021-05-29T11:02:00Z</time>
      </trkpt>
      <trkpt lat="45.08243" lon="5.79692">
        <ele>529.2</ele>
        <time>2021-05-29T11:02:01Z</time>
      </trkpt>
      <trkpt lat="45.08242" lon="5.79694">
        <ele>529.6</ele>
        <time>2021-05-29T11:02:02Z</time>
      </trkpt>
      <trkpt lat="45.08241" lon="5.79695">
        <ele>529.6</ele>
        <time>2021-05-29T11:02:03Z</time>
      </trkpt>
      <trkpt lat="45.08239" lon="5.79695">
        <ele>529.8</ele>
        <time>2021-05-29T11:02:04Z</time>
      </trkpt>
      <trkpt lat="45.08237" lon="5.79695">
        <ele>530</ele>
        <time>2021-05-29T11:02:05Z</time>
      </trkpt>
      <trkpt lat="45.08235" lon="5.79696">
        <ele>530.2</ele>
        <time>2021-05-29T11:02:06Z</time>
      </trkpt>
      <trkpt lat="45.08234" lon="5.79696">
        <ele>530.4</ele>
        <time>2021-05-29T11:02:07Z</time>
      </trkpt>
      <trkpt lat="45.08232" lon="5.79696">
        <ele>530.6</ele>
        <time>2021-05-29T11:02:08Z</time>
      </trkpt>
      <trkpt lat="45.08229" lon="5.79696">
        <ele>530.4</ele>
        <time>2021-05-29T11:02:09Z</time>
      </trkpt>
      <trkpt lat="45.08227" lon="5.79696">
        <ele>530.6</ele>
        <time>2021-05-29T11:02:10Z</time>
      </trkpt>
      <trkpt lat="45.08225" lon="5.79696">
        <ele>530.8</ele>
        <time>2021-05-29T11:02:11Z</time>
      </trkpt>
      <trkpt lat="45.08222" lon="5.79696">
        <ele>530.8</ele>
        <time>2021-05-29T11:02:12Z</time>
      </trkpt>
      <trkpt lat="45.08221" lon="5.79696">
        <ele>531</ele>
        <time>2021-05-29T11:02:13Z</time>
      </trkpt>
      <trkpt lat="45.08219" lon="5.79696">
        <ele>531.2</ele>
        <time>2021-05-29T11:02:14Z</time>
      </trkpt>
      <trkpt lat="45.08218" lon="5.79696">
        <ele>531.4</ele>
        <time>2021-05-29T11:02:15Z</time>
      </trkpt>
      <trkpt lat="45.08217" lon="5.79696">
        <ele>531.4</ele>
        <time>2021-05-29T11:02:16Z</time>
      </trkpt>
      <trkpt lat="45.08215" lon="5.79697">
        <ele>531.6</ele>
        <time>2021-05-29T11:02:17Z</time>
      </trkpt>
      <trkpt lat="45.08214" lon="5.79697">
        <ele>531.8</ele>
        <time>2021-05-29T11:02:18Z</time>
      </trkpt>
      <trkpt lat="45.08213" lon="5.79697">
        <ele>532</ele>
        <time>2021-05-29T11:02:19Z</time>
      </trkpt>
      <trkpt lat="45.08212" lon="5.79696">
        <ele>532</ele>
        <time>2021-05-29T11:02:20Z</time>
      </trkpt>
      <trkpt lat="45.08211" lon="5.79696">
        <ele>532.2</ele>
        <time>2021-05-29T11:02:21Z</time>
      </trkpt>
      <trkpt lat="45.0821" lon="5.79695">
        <ele>532.4</ele>
        <time>2021-05-29T11:02:22Z</time>
      </trkpt>
      <trkpt lat="45.08209" lon="5.79694">
        <ele>532.6</ele>
        <time>2021-05-29T11:02:23Z</time>
      </trkpt>
      <trkpt lat="45.08208" lon="5.79694">
        <ele>532.8</ele>
        <time>2021-05-29T11:02:24Z</time>
      </trkpt>
      <trkpt lat="45.08207" lon="5.79693">
        <ele>532.8</ele>
        <time>2021-05-29T11:02:25Z</time>
      </trkpt>
      <trkpt lat="45.08206" lon="5.79693">
        <ele>533.2</ele>
        <time>2021-05-29T11:02:26Z</time>
      </trkpt>
      <trkpt lat="45.08205" lon="5.79692">
        <ele>533.6</ele>
        <time>2021-05-29T11:02:27Z</time>
      </trkpt>
      <trkpt lat="45.08204" lon="5.79691">
        <ele>533.8</ele>
        <time>2021-05-29T11:02:28Z</time>
      </trkpt>
      <trkpt lat="45.08203" lon="5.79691">
        <ele>534.2</ele>
        <time>2021-05-29T11:02:29Z</time>
      </trkpt>
      <trkpt lat="45.08202" lon="5.7969">
        <ele>534.4</ele>
        <time>2021-05-29T11:02:30Z</time>
      </trkpt>
      <trkpt lat="45.08201" lon="5.79689">
        <ele>534.6</ele>
        <time>2021-05-29T11:02:31Z</time>
      </trkpt>
      <trkpt lat="45.082" lon="5.79689">
        <ele>535</ele>
        <time>2021-05-29T11:02:32Z</time>
      </trkpt>
      <trkpt lat="45.08199" lon="5.79688">
        <ele>535.4</ele>
        <time>2021-05-29T11:02:33Z</time>
      </trkpt>
      <trkpt lat="45.08199" lon="5.79687">
        <ele>535.4</ele>
        <time>2021-05-29T11:02:34Z</time>
      </trkpt>
      <trkpt lat="45.08198" lon="5.79686">
        <ele>535.6</ele>
        <time>2021-05-29T11:02:35Z</time>
      </trkpt>
      <trkpt lat="45.08197" lon="5.79686">
        <ele>535.8</ele>
        <time>2021-05-29T11:02:36Z</time>
      </trkpt>
      <trkpt lat="45.08196" lon="5.79685">
        <ele>536.2</ele>
        <time>2021-05-29T11:02:37Z</time>
      </trkpt>
      <trkpt lat="45.08195" lon="5.79685">
        <ele>536.4</ele>
        <time>2021-05-29T11:02:38Z</time>
      </trkpt>
      <trkpt lat="45.08193" lon="5.79684">
        <ele>536.6</ele>
        <time>2021-05-29T11:02:39Z</time>
      </trkpt>
      <trkpt lat="45.08192" lon="5.79684">
        <ele>537</ele>
        <time>2021-05-29T11:02:40Z</time>
      </trkpt>
      <trkpt lat="45.08191" lon="5.79684">
        <ele>537.2</ele>
        <time>2021-05-29T11:02:41Z</time>
      </trkpt>
      <trkpt lat="45.08189" lon="5.79683">
        <ele>537.6</ele>
        <time>2021-05-29T11:02:42Z</time>
      </trkpt>
      <trkpt lat="45.08188" lon="5.79683">
        <ele>537.8</ele>
        <time>2021-05-29T11:02:43Z</time>
      </trkpt>
      <trkpt lat="45.08187" lon="5.79683">
        <ele>537.8</ele>
        <time>2021-05-29T11:02:44Z</time>
      </trkpt>
      <trkpt lat="45.08186" lon="5.79682">
        <ele>538.2</ele>
        <time>2021-05-29T11:02:45Z</time>
      </trkpt>
      <trkpt lat="45.08186" lon="5.79683">
        <ele>538.2</ele>
        <time>2021-05-29T11:02:46Z</time>
      </trkpt>
      <trkpt lat="45.08186" lon="5.79683">
        <ele>538.4</ele>
        <time>2021-05-29T11:02:47Z</time>
      </trkpt>
      <trkpt lat="45.08187" lon="5.79684">
        <ele>538.4</ele>
        <time>2021-05-29T11:02:48Z</time>
      </trkpt>
      <trkpt lat="45.08187" lon="5.79685">
        <ele>538.6</ele>
        <time>2021-05-29T11:02:49Z</time>
      </trkpt>
      <trkpt lat="45.08188" lon="5.79685">
        <ele>539</ele>
        <time>2021-05-29T11:02:50Z</time>
      </trkpt>
      <trkpt lat="45.08188" lon="5.79686">
        <ele>539.2</ele>
        <time>2021-05-29T11:02:51Z</time>
      </trkpt>
      <trkpt lat="45.08189" lon="5.79686">
        <ele>539.6</ele>
        <time>2021-05-29T11:02:52Z</time>
      </trkpt>
      <trkpt lat="45.08189" lon="5.79687">
        <ele>539.8</ele>
        <time>2021-05-29T11:02:53Z</time>
      </trkpt>
      <trkpt lat="45.0819" lon="5.79688">
        <ele>540.2</ele>
        <time>2021-05-29T11:02:54Z</time>
      </trkpt>
      <trkpt lat="45.0819" lon="5.79688">
        <ele>540.2</ele>
        <time>2021-05-29T11:02:55Z</time>
      </trkpt>
      <trkpt lat="45.08191" lon="5.79689">
        <ele>540.4</ele>
        <time>2021-05-29T11:02:56Z</time>
      </trkpt>
      <trkpt lat="45.08191" lon="5.79689">
        <ele>540.4</ele>
        <time>2021-05-29T11:02:57Z</time>
      </trkpt>
      <trkpt lat="45.08191" lon="5.7969">
        <ele>540.6</ele>
        <time>2021-05-29T11:02:58Z</time>
      </trkpt>
      <trkpt lat="45.08192" lon="5.7969">
        <ele>540.8</ele>
        <time>2021-05-29T11:02:59Z</time>
      </trkpt>
      <trkpt lat="45.08192" lon="5.79691">
        <ele>541</ele>
        <time>2021-05-29T11:03:00Z</time>
      </trkpt>
      <trkpt lat="45.08193" lon="5.79692">
        <ele>541</ele>
        <time>2021-05-29T11:03:01Z</time>
      </trkpt>
      <trkpt lat="45.08194" lon="5.79692">
        <ele>541.2</ele>
        <time>2021-05-29T11:03:02Z</time>
      </trkpt>
      <trkpt lat="45.08195" lon="5.79693">
        <ele>541.4</ele>
        <time>2021-05-29T11:03:03Z</time>
      </trkpt>
      <trkpt lat="45.08196" lon="5.79694">
        <ele>541.6</ele>
        <time>2021-05-29T11:03:04Z</time>
      </trkpt>
      <trkpt lat="45.08197" lon="5.79695">
        <ele>542</ele>
        <time>2021-05-29T11:03:05Z</time>
      </trkpt>
      <trkpt lat="45.08197" lon="5.79696">
        <ele>542.4</ele>
        <time>2021-05-29T11:03:06Z</time>
      </trkpt>
      <trkpt lat="45.08198" lon="5.79697">
        <ele>542.6</ele>
        <time>2021-05-29T11:03:07Z</time>
      </trkpt>
      <trkpt lat="45.08199" lon="5.79698">
        <ele>542.8</ele>
        <time>2021-05-29T11:03:08Z</time>
      </trkpt>
      <trkpt lat="45.082" lon="5.79699">
        <ele>543.2</ele>
        <time>2021-05-29T11:03:09Z</time>
      </trkpt>
      <trkpt lat="45.08201" lon="5.797">
        <ele>543.4</ele>
        <time>2021-05-29T11:03:10Z</time>
      </trkpt>
      <trkpt lat="45.08202" lon="5.79702">
        <ele>543.6</ele>
        <time>2021-05-29T11:03:11Z</time>
      </trkpt>
      <trkpt lat="45.08203" lon="5.79703">
        <ele>543.8</ele>
        <time>2021-05-29T11:03:12Z</time>
      </trkpt>
      <trkpt lat="45.08203" lon="5.79704">
        <ele>544.2</ele>
        <time>2021-05-29T11:03:13Z</time>
      </trkpt>
      <trkpt lat="45.08204" lon="5.79706">
        <ele>544.4</ele>
        <time>2021-05-29T11:03:14Z</time>
      </trkpt>
      <trkpt lat="45.08205" lon="5.79707">
        <ele>544.4</ele>
        <time>2021-05-29T11:03:15Z</time>
      </trkpt>
      <trkpt lat="45.08206" lon="5.79708">
        <ele>544.6</ele>
        <time>2021-05-29T11:03:16Z</time>
      </trkpt>
      <trkpt lat="45.08206" lon="5.7971">
        <ele>544.8</ele>
        <time>2021-05-29T11:03:17Z</time>
      </trkpt>
      <trkpt lat="45.08207" lon="5.79711">
        <ele>544.8</ele>
        <time>2021-05-29T11:03:18Z</time>
      </trkpt>
      <trkpt lat="45.08208" lon="5.79712">
        <ele>545.2</ele>
        <time>2021-05-29T11:03:19Z</time>
      </trkpt>
      <trkpt lat="45.08209" lon="5.79713">
        <ele>545.4</ele>
        <time>2021-05-29T11:03:20Z</time>
      </trkpt>
      <trkpt lat="45.08211" lon="5.79714">
        <ele>545.8</ele>
        <time>2021-05-29T11:03:21Z</time>
      </trkpt>
      <trkpt lat="45.08212" lon="5.79715">
        <ele>546</ele>
        <time>2021-05-29T11:03:22Z</time>
      </trkpt>
      <trkpt lat="45.08213" lon="5.79717">
        <ele>546.4</ele>
        <time>2021-05-29T11:03:23Z</time>
      </trkpt>
      <trkpt lat="45.08214" lon="5.79718">
        <ele>546.6</ele>
        <time>2021-05-29T11:03:24Z</time>
      </trkpt>
      <trkpt lat="45.08215" lon="5.79719">
        <ele>547</ele>
        <time>2021-05-29T11:03:25Z</time>
      </trkpt>
      <trkpt lat="45.08215" lon="5.7972">
        <ele>547.4</ele>
        <time>2021-05-29T11:03:26Z</time>
      </trkpt>
      <trkpt lat="45.08216" lon="5.79721">
        <ele>547.6</ele>
        <time>2021-05-29T11:03:27Z</time>
      </trkpt>
      <trkpt lat="45.08217" lon="5.79722">
        <ele>547.6</ele>
        <time>2021-05-29T11:03:28Z</time>
      </trkpt>
      <trkpt lat="45.08218" lon="5.79723">
        <ele>547.8</ele>
        <time>2021-05-29T11:03:29Z</time>
      </trkpt>
      <trkpt lat="45.08219" lon="5.79724">
        <ele>548</ele>
        <time>2021-05-29T11:03:30Z</time>
      </trkpt>
      <trkpt lat="45.08219" lon="5.79725">
        <ele>548.2</ele>
        <time>2021-05-29T11:03:31Z</time>
      </trkpt>
      <trkpt lat="45.0822" lon="5.79726">
        <ele>548.2</ele>
        <time>2021-05-29T11:03:32Z</time>
      </trkpt>
      <trkpt lat="45.08221" lon="5.79727">
        <ele>548.6</ele>
        <time>2021-05-29T11:03:33Z</time>
      </trkpt>
      <trkpt lat="45.08222" lon="5.79727">
        <ele>548.8</ele>
        <time>2021-05-29T11:03:34Z</time>
      </trkpt>
      <trkpt lat="45.08222" lon="5.79729">
        <ele>548.8</ele>
        <time>2021-05-29T11:03:35Z</time>
      </trkpt>
      <trkpt lat="45.08223" lon="5.7973">
        <ele>549</ele>
        <time>2021-05-29T11:03:36Z</time>
      </trkpt>
      <trkpt lat="45.08223" lon="5.79731">
        <ele>549.2</ele>
        <time>2021-05-29T11:03:37Z</time>
      </trkpt>
      <trkpt lat="45.08224" lon="5.79732">
        <ele>549.4</ele>
        <time>2021-05-29T11:03:38Z</time>
      </trkpt>
      <trkpt lat="45.08225" lon="5.79734">
        <ele>549.8</ele>
        <time>2021-05-29T11:03:39Z</time>
      </trkpt>
      <trkpt lat="45.08225" lon="5.79735">
        <ele>550</ele>
        <time>2021-05-29T11:03:40Z</time>
      </trkpt>
      <trkpt lat="45.08226" lon="5.79736">
        <ele>550.4</ele>
        <time>2021-05-29T11:03:41Z</time>
      </trkpt>
      <trkpt lat="45.08226" lon="5.79737">
        <ele>550.6</ele>
        <time>2021-05-29T11:03:42Z</time>
      </trkpt>
      <trkpt lat="45.08227" lon="5.79739">
        <ele>550.8</ele>
        <time>2021-05-29T11:03:43Z</time>
      </trkpt>
      <trkpt lat="45.08227" lon="5.7974">
        <ele>551</ele>
        <time>2021-05-29T11:03:44Z</time>
      </trkpt>
      <trkpt lat="45.08228" lon="5.79741">
        <ele>551.4</ele>
        <time>2021-05-29T11:03:45Z</time>
      </trkpt>
      <trkpt lat="45.08228" lon="5.79743">
        <ele>551.6</ele>
        <time>2021-05-29T11:03:46Z</time>
      </trkpt>
      <trkpt lat="45.08229" lon="5.79744">
        <ele>552</ele>
        <time>2021-05-29T11:03:47Z</time>
      </trkpt>
      <trkpt lat="45.08229" lon="5.79745">
        <ele>552</ele>
        <time>2021-05-29T11:03:48Z</time>
      </trkpt>
      <trkpt lat="45.0823" lon="5.79746">
        <ele>552.2</ele>
        <time>2021-05-29T11:03:49Z</time>
      </trkpt>
      <trkpt lat="45.0823" lon="5.79748">
        <ele>552.4</ele>
        <time>2021-05-29T11:03:50Z</time>
      </trkpt>
      <trkpt lat="45.08231" lon="5.79749">
        <ele>552.4</ele>
        <time>2021-05-29T11:03:51Z</time>
      </trkpt>
      <trkpt lat="45.08231" lon="5.7975">
        <ele>552.6</ele>
        <time>2021-05-29T11:03:52Z</time>
      </trkpt>
      <trkpt lat="45.08232" lon="5.79751">
        <ele>553.4</ele>
        <time>2021-05-29T11:03:53Z</time>
      </trkpt>
      <trkpt lat="45.08233" lon="5.79751">
        <ele>554</ele>
        <time>2021-05-29T11:03:54Z</time>
      </trkpt>
      <trkpt lat="45.08234" lon="5.79752">
        <ele>554</ele>
        <time>2021-05-29T11:03:55Z</time>
      </trkpt>
      <trkpt lat="45.08235" lon="5.79752">
        <ele>554</ele>
        <time>2021-05-29T11:03:56Z</time>
      </trkpt>
      <trkpt lat="45.08236" lon="5.79753">
        <ele>554.2</ele>
        <time>2021-05-29T11:03:57Z</time>
      </trkpt>
      <trkpt lat="45.08237" lon="5.79753">
        <ele>554.4</ele>
        <time>2021-05-29T11:03:58Z</time>
      </trkpt>
      <trkpt lat="45.08238" lon="5.79753">
        <ele>554.8</ele>
        <time>2021-05-29T11:03:59Z</time>
      </trkpt>
      <trkpt lat="45.08239" lon="5.79754">
        <ele>555</ele>
        <time>2021-05-29T11:04:00Z</time>
      </trkpt>
      <trkpt lat="45.0824" lon="5.79754">
        <ele>555.4</ele>
        <time>2021-05-29T11:04:01Z</time>
      </trkpt>
      <trkpt lat="45.08241" lon="5.79755">
        <ele>555.6</ele>
        <time>2021-05-29T11:04:02Z</time>
      </trkpt>
      <trkpt lat="45.08241" lon="5.79754">
        <ele>556</ele>
        <time>2021-05-29T11:04:03Z</time>
      </trkpt>
      <trkpt lat="45.08241" lon="5.79753">
        <ele>556.2</ele>
        <time>2021-05-29T11:04:04Z</time>
      </trkpt>
      <trkpt lat="45.08242" lon="5.79753">
        <ele>556.2</ele>
        <time>2021-05-29T11:04:05Z</time>
      </trkpt>
      <trkpt lat="45.08242" lon="5.79752">
        <ele>556.4</ele>
        <time>2021-05-29T11:04:06Z</time>
      </trkpt>
      <trkpt lat="45.08242" lon="5.79751">
        <ele>556.6</ele>
        <time>2021-05-29T11:04:07Z</time>
      </trkpt>
      <trkpt lat="45.08243" lon="5.79751">
        <ele>556.6</ele>
        <time>2021-05-29T11:04:08Z</time>
      </trkpt>
      <trkpt lat="45.08243" lon="5.7975">
        <ele>556.8</ele>
        <time>2021-05-29T11:04:09Z</time>
      </trkpt>
      <trkpt lat="45.08243" lon="5.79749">
        <ele>556.8</ele>
        <time>2021-05-29T11:04:10Z</time>
      </trkpt>
      <trkpt lat="45.08244" lon="5.79749">
        <ele>557</ele>
        <time>2021-05-29T11:04:11Z</time>
      </trkpt>
      <trkpt lat="45.08244" lon="5.79748">
        <ele>557.2</ele>
        <time>2021-05-29T11:04:12Z</time>
      </trkpt>
      <trkpt lat="45.08244" lon="5.79747">
        <ele>557.6</ele>
        <time>2021-05-29T11:04:13Z</time>
      </trkpt>
      <trkpt lat="45.08245" lon="5.79747">
        <ele>557.6</ele>
        <time>2021-05-29T11:04:14Z</time>
      </trkpt>
      <trkpt lat="45.08245" lon="5.79746">
        <ele>557.8</ele>
        <time>2021-05-29T11:04:15Z</time>
      </trkpt>
      <trkpt lat="45.08245" lon="5.79745">
        <ele>557.8</ele>
        <time>2021-05-29T11:04:16Z</time>
      </trkpt>
      <trkpt lat="45.08246" lon="5.79745">
        <ele>558</ele>
        <time>2021-05-29T11:04:17Z</time>
      </trkpt>
      <trkpt lat="45.08246" lon="5.79744">
        <ele>558.6</ele>
        <time>2021-05-29T11:04:18Z</time>
      </trkpt>
      <trkpt lat="45.08246" lon="5.79743">
        <ele>559.2</ele>
        <time>2021-05-29T11:04:19Z</time>
      </trkpt>
      <trkpt lat="45.08247" lon="5.79744">
        <ele>559.6</ele>
        <time>2021-05-29T11:04:20Z</time>
      </trkpt>
      <trkpt lat="45.08247" lon="5.79745">
        <ele>560</ele>
        <time>2021-05-29T11:04:21Z</time>
      </trkpt>
      <trkpt lat="45.08248" lon="5.79746">
        <ele>560</ele>
        <time>2021-05-29T11:04:22Z</time>
      </trkpt>
      <trkpt lat="45.08249" lon="5.79747">
        <ele>560</ele>
        <time>2021-05-29T11:04:23Z</time>
      </trkpt>
      <trkpt lat="45.08249" lon="5.79748">
        <ele>560.2</ele>
        <time>2021-05-29T11:04:24Z</time>
      </trkpt>
      <trkpt lat="45.0825" lon="5.79749">
        <ele>560.2</ele>
        <time>2021-05-29T11:04:25Z</time>
      </trkpt>
      <trkpt lat="45.0825" lon="5.79749">
        <ele>560.4</ele>
        <time>2021-05-29T11:04:26Z</time>
      </trkpt>
      <trkpt lat="45.08251" lon="5.7975">
        <ele>560.8</ele>
        <time>2021-05-29T11:04:27Z</time>
      </trkpt>
      <trkpt lat="45.08252" lon="5.79751">
        <ele>561</ele>
        <time>2021-05-29T11:04:28Z</time>
      </trkpt>
      <trkpt lat="45.08252" lon="5.79752">
        <ele>561.2</ele>
        <time>2021-05-29T11:04:29Z</time>
      </trkpt>
      <trkpt lat="45.08253" lon="5.79753">
        <ele>561.6</ele>
        <time>2021-05-29T11:04:30Z</time>
      </trkpt>
      <trkpt lat="45.08253" lon="5.79754">
        <ele>561.8</ele>
        <time>2021-05-29T11:04:31Z</time>
      </trkpt>
      <trkpt lat="45.08254" lon="5.79755">
        <ele>561.8</ele>
        <time>2021-05-29T11:04:32Z</time>
      </trkpt>
      <trkpt lat="45.08254" lon="5.79757">
        <ele>562.2</ele>
        <time>2021-05-29T11:04:33Z</time>
      </trkpt>
      <trkpt lat="45.08254" lon="5.79758">
        <ele>562.6</ele>
        <time>2021-05-29T11:04:34Z</time>
      </trkpt>
      <trkpt lat="45.08254" lon="5.7976">
        <ele>563</ele>
        <time>2021-05-29T11:04:35Z</time>
      </trkpt>
      <trkpt lat="45.08254" lon="5.79761">
        <ele>563.4</ele>
        <time>2021-05-29T11:04:36Z</time>
      </trkpt>
      <trkpt lat="45.08254" lon="5.79763">
        <ele>563.6</ele>
        <time>2021-05-29T11:04:37Z</time>
      </trkpt>
      <trkpt lat="45.08255" lon="5.79764">
        <ele>563.8</ele>
        <time>2021-05-29T11:04:38Z</time>
      </trkpt>
      <trkpt lat="45.08255" lon="5.79766">
        <ele>563.6</ele>
        <time>2021-05-29T11:04:39Z</time>
      </trkpt>
      <trkpt lat="45.08255" lon="5.79767">
        <ele>563.8</ele>
        <time>2021-05-29T11:04:40Z</time>
      </trkpt>
      <trkpt lat="45.08254" lon="5.79769">
        <ele>564</ele>
        <time>2021-05-29T11:04:41Z</time>
      </trkpt>
      <trkpt lat="45.08254" lon="5.79771">
        <ele>564</ele>
        <time>2021-05-29T11:04:42Z</time>
      </trkpt>
      <trkpt lat="45.08253" lon="5.79772">
        <ele>564.4</ele>
        <time>2021-05-29T11:04:43Z</time>
      </trkpt>
      <trkpt lat="45.08252" lon="5.79774">
        <ele>564.8</ele>
        <time>2021-05-29T11:04:44Z</time>
      </trkpt>
      <trkpt lat="45.08252" lon="5.79775">
        <ele>565</ele>
        <time>2021-05-29T11:04:45Z</time>
      </trkpt>
      <trkpt lat="45.08251" lon="5.79777">
        <ele>565.4</ele>
        <time>2021-05-29T11:04:46Z</time>
      </trkpt>
      <trkpt lat="45.08251" lon="5.79778">
        <ele>565.4</ele>
        <time>2021-05-29T11:04:47Z</time>
      </trkpt>
      <trkpt lat="45.0825" lon="5.7978">
        <ele>565.6</ele>
        <time>2021-05-29T11:04:48Z</time>
      </trkpt>
      <trkpt lat="45.08249" lon="5.79782">
        <ele>566.2</ele>
        <time>2021-05-29T11:04:49Z</time>
      </trkpt>
      <trkpt lat="45.08248" lon="5.79784">
        <ele>566.4</ele>
        <time>2021-05-29T11:04:50Z</time>
      </trkpt>
      <trkpt lat="45.08248" lon="5.79785">
        <ele>566.8</ele>
        <time>2021-05-29T11:04:51Z</time>
      </trkpt>
      <trkpt lat="45.08247" lon="5.79787">
        <ele>567</ele>
        <time>2021-05-29T11:04:52Z</time>
      </trkpt>
      <trkpt lat="45.08246" lon="5.79789">
        <ele>567.2</ele>
        <time>2021-05-29T11:04:53Z</time>
      </trkpt>
      <trkpt lat="45.08245" lon="5.79791">
        <ele>567.4</ele>
        <time>2021-05-29T11:04:54Z</time>
      </trkpt>
      <trkpt lat="45.08245" lon="5.79793">
        <ele>567.6</ele>
        <time>2021-05-29T11:04:55Z</time>
      </trkpt>
      <trkpt lat="45.08244" lon="5.79795">
        <ele>567.6</ele>
        <time>2021-05-29T11:04:56Z</time>
      </trkpt>
      <trkpt lat="45.08243" lon="5.79797">
        <ele>567.8</ele>
        <time>2021-05-29T11:04:57Z</time>
      </trkpt>
      <trkpt lat="45.08242" lon="5.79799">
        <ele>568</ele>
        <time>2021-05-29T11:04:58Z</time>
      </trkpt>
      <trkpt lat="45.08241" lon="5.79801">
        <ele>568</ele>
        <time>2021-05-29T11:04:59Z</time>
      </trkpt>
      <trkpt lat="45.0824" lon="5.79803">
        <ele>568.2</ele>
        <time>2021-05-29T11:05:00Z</time>
      </trkpt>
      <trkpt lat="45.08239" lon="5.79803">
        <ele>568.2</ele>
        <time>2021-05-29T11:05:01Z</time>
      </trkpt>
      <trkpt lat="45.08238" lon="5.79804">
        <ele>568.4</ele>
        <time>2021-05-29T11:05:02Z</time>
      </trkpt>
      <trkpt lat="45.08236" lon="5.79804">
        <ele>568.6</ele>
        <time>2021-05-29T11:05:03Z</time>
      </trkpt>
      <trkpt lat="45.08235" lon="5.79804">
        <ele>569</ele>
        <time>2021-05-29T11:05:04Z</time>
      </trkpt>
      <trkpt lat="45.08234" lon="5.79805">
        <ele>569.2</ele>
        <time>2021-05-29T11:05:05Z</time>
      </trkpt>
      <trkpt lat="45.08233" lon="5.79805">
        <ele>569.6</ele>
        <time>2021-05-29T11:05:06Z</time>
      </trkpt>
      <trkpt lat="45.08231" lon="5.79805">
        <ele>569.8</ele>
        <time>2021-05-29T11:05:07Z</time>
      </trkpt>
      <trkpt lat="45.08231" lon="5.79807">
        <ele>570</ele>
        <time>2021-05-29T11:05:08Z</time>
      </trkpt>
      <trkpt lat="45.08231" lon="5.79808">
        <ele>570</ele>
        <time>2021-05-29T11:05:09Z</time>
      </trkpt>
      <trkpt lat="45.08231" lon="5.79809">
        <ele>570.4</ele>
        <time>2021-05-29T11:05:10Z</time>
      </trkpt>
      <trkpt lat="45.08231" lon="5.7981">
        <ele>570.6</ele>
        <time>2021-05-29T11:05:11Z</time>
      </trkpt>
      <trkpt lat="45.08232" lon="5.79811">
        <ele>571.2</ele>
        <time>2021-05-29T11:05:12Z</time>
      </trkpt>
      <trkpt lat="45.08232" lon="5.79812">
        <ele>571.4</ele>
        <time>2021-05-29T11:05:13Z</time>
      </trkpt>
      <trkpt lat="45.08232" lon="5.79813">
        <ele>571.6</ele>
        <time>2021-05-29T11:05:14Z</time>
      </trkpt>
      <trkpt lat="45.08232" lon="5.79814">
        <ele>572</ele>
        <time>2021-05-29T11:05:15Z</time>
      </trkpt>
      <trkpt lat="45.08232" lon="5.79815">
        <ele>572.4</ele>
        <time>2021-05-29T11:05:16Z</time>
      </trkpt>
      <trkpt lat="45.08232" lon="5.79816">
        <ele>572.6</ele>
        <time>2021-05-29T11:05:17Z</time>
      </trkpt>
      <trkpt lat="45.08232" lon="5.79817">
        <ele>572.6</ele>
        <time>2021-05-29T11:05:18Z</time>
      </trkpt>
      <trkpt lat="45.08232" lon="5.79818">
        <ele>572.8</ele>
        <time>2021-05-29T11:05:19Z</time>
      </trkpt>
      <trkpt lat="45.08233" lon="5.79819">
        <ele>573.2</ele>
        <time>2021-05-29T11:05:20Z</time>
      </trkpt>
      <trkpt lat="45.08233" lon="5.79819">
        <ele>573.2</ele>
        <time>2021-05-29T11:05:21Z</time>
      </trkpt>
      <trkpt lat="45.08234" lon="5.7982">
        <ele>573.4</ele>
        <time>2021-05-29T11:05:22Z</time>
      </trkpt>
      <trkpt lat="45.08235" lon="5.7982">
        <ele>573.6</ele>
        <time>2021-05-29T11:05:23Z</time>
      </trkpt>
      <trkpt lat="45.08236" lon="5.79821">
        <ele>573.8</ele>
        <time>2021-05-29T11:05:24Z</time>
      </trkpt>
      <trkpt lat="45.08236" lon="5.79821">
        <ele>574.2</ele>
        <time>2021-05-29T11:05:25Z</time>
      </trkpt>
      <trkpt lat="45.08237" lon="5.79822">
        <ele>574.4</ele>
        <time>2021-05-29T11:05:26Z</time>
      </trkpt>
      <trkpt lat="45.08238" lon="5.79822">
        <ele>574.8</ele>
        <time>2021-05-29T11:05:27Z</time>
      </trkpt>
      <trkpt lat="45.08239" lon="5.79823">
        <ele>575.2</ele>
        <time>2021-05-29T11:05:28Z</time>
      </trkpt>
      <trkpt lat="45.08239" lon="5.79823">
        <ele>575.2</ele>
        <time>2021-05-29T11:05:29Z</time>
      </trkpt>
      <trkpt lat="45.0824" lon="5.79824">
        <ele>575.4</ele>
        <time>2021-05-29T11:05:30Z</time>
      </trkpt>
      <trkpt lat="45.08241" lon="5.79823">
        <ele>575.6</ele>
        <time>2021-05-29T11:05:31Z</time>
      </trkpt>
      <trkpt lat="45.08241" lon="5.79823">
        <ele>576</ele>
        <time>2021-05-29T11:05:32Z</time>
      </trkpt>
      <trkpt lat="45.08242" lon="5.79822">
        <ele>576.2</ele>
        <time>2021-05-29T11:05:33Z</time>
      </trkpt>
      <trkpt lat="45.08242" lon="5.79822">
        <ele>576.6</ele>
        <time>2021-05-29T11:05:34Z</time>
      </trkpt>
      <trkpt lat="45.08243" lon="5.79821">
        <ele>577</ele>
        <time>2021-05-29T11:05:35Z</time>
      </trkpt>
      <trkpt lat="45.08243" lon="5.79821">
        <ele>577.4</ele>
        <time>2021-05-29T11:05:36Z</time>
      </trkpt>
      <trkpt lat="45.08243" lon="5.7982">
        <ele>577.6</ele>
        <time>2021-05-29T11:05:37Z</time>
      </trkpt>
      <trkpt lat="45.08244" lon="5.7982">
        <ele>578</ele>
        <time>2021-05-29T11:05:38Z</time>
      </trkpt>
      <trkpt lat="45.08244" lon="5.79819">
        <ele>578</ele>
        <time>2021-05-29T11:05:39Z</time>
      </trkpt>
      <trkpt lat="45.08245" lon="5.79819">
        <ele>578.4</ele>
        <time>2021-05-29T11:05:40Z</time>
      </trkpt>
      <trkpt lat="45.08245" lon="5.79818">
        <ele>578.8</ele>
        <time>2021-05-29T11:05:41Z</time>
      </trkpt>
      <trkpt lat="45.08246" lon="5.79818">
        <ele>579</ele>
        <time>2021-05-29T11:05:42Z</time>
      </trkpt>
      <trkpt lat="45.08246" lon="5.79817">
        <ele>579.4</ele>
        <time>2021-05-29T11:05:43Z</time>
      </trkpt>
      <trkpt lat="45.08247" lon="5.79817">
        <ele>579.6</ele>
        <time>2021-05-29T11:05:44Z</time>
      </trkpt>
      <trkpt lat="45.08247" lon="5.79816">
        <ele>579.8</ele>
        <time>2021-05-29T11:05:45Z</time>
      </trkpt>
      <trkpt lat="45.08248" lon="5.79816">
        <ele>580</ele>
        <time>2021-05-29T11:05:46Z</time>
      </trkpt>
      <trkpt lat="45.08248" lon="5.79815">
        <ele>580</ele>
        <time>2021-05-29T11:05:47Z</time>
      </trkpt>
      <trkpt lat="45.08249" lon="5.79815">
        <ele>580</ele>
        <time>2021-05-29T11:05:48Z</time>
      </trkpt>
      <trkpt lat="45.0825" lon="5.79814">
        <ele>580</ele>
        <time>2021-05-29T11:05:49Z</time>
      </trkpt>
      <trkpt lat="45.08251" lon="5.79814">
        <ele>580</ele>
        <time>2021-05-29T11:05:50Z</time>
      </trkpt>
      <trkpt lat="45.08253" lon="5.79813">
        <ele>580</ele>
        <time>2021-05-29T11:05:51Z</time>
      </trkpt>
      <trkpt lat="45.08254" lon="5.79813">
        <ele>580.2</ele>
        <time>2021-05-29T11:05:52Z</time>
      </trkpt>
      <trkpt lat="45.08255" lon="5.79812">
        <ele>580</ele>
        <time>2021-05-29T11:05:53Z</time>
      </trkpt>
      <trkpt lat="45.08257" lon="5.79812">
        <ele>580.2</ele>
        <time>2021-05-29T11:05:54Z</time>
      </trkpt>
      <trkpt lat="45.08258" lon="5.79811">
        <ele>580.4</ele>
        <time>2021-05-29T11:05:55Z</time>
      </trkpt>
      <trkpt lat="45.08258" lon="5.79811">
        <ele>580.4</ele>
        <time>2021-05-29T11:05:56Z</time>
      </trkpt>
      <trkpt lat="45.08258" lon="5.7981">
        <ele>580.8</ele>
        <time>2021-05-29T11:05:57Z</time>
      </trkpt>
      <trkpt lat="45.08258" lon="5.79809">
        <ele>581</ele>
        <time>2021-05-29T11:05:58Z</time>
      </trkpt>
      <trkpt lat="45.08259" lon="5.79808">
        <ele>581.4</ele>
        <time>2021-05-29T11:05:59Z</time>
      </trkpt>
      <trkpt lat="45.08259" lon="5.79807">
        <ele>581.8</ele>
        <time>2021-05-29T11:06:00Z</time>
      </trkpt>
      <trkpt lat="45.08259" lon="5.79806">
        <ele>582</ele>
        <time>2021-05-29T11:06:01Z</time>
      </trkpt>
      <trkpt lat="45.08259" lon="5.79806">
        <ele>582.4</ele>
        <time>2021-05-29T11:06:02Z</time>
      </trkpt>
      <trkpt lat="45.08259" lon="5.79805">
        <ele>582.6</ele>
        <time>2021-05-29T11:06:03Z</time>
      </trkpt>
      <trkpt lat="45.08259" lon="5.79804">
        <ele>582.8</ele>
        <time>2021-05-29T11:06:04Z</time>
      </trkpt>
      <trkpt lat="45.0826" lon="5.79803">
        <ele>583</ele>
        <time>2021-05-29T11:06:05Z</time>
      </trkpt>
      <trkpt lat="45.0826" lon="5.79802">
        <ele>583.2</ele>
        <time>2021-05-29T11:06:06Z</time>
      </trkpt>
      <trkpt lat="45.0826" lon="5.79801">
        <ele>583.4</ele>
        <time>2021-05-29T11:06:07Z</time>
      </trkpt>
      <trkpt lat="45.0826" lon="5.79801">
        <ele>583.6</ele>
        <time>2021-05-29T11:06:08Z</time>
      </trkpt>
      <trkpt lat="45.0826" lon="5.798">
        <ele>583.8</ele>
        <time>2021-05-29T11:06:09Z</time>
      </trkpt>
      <trkpt lat="45.08261" lon="5.79799">
        <ele>583.8</ele>
        <time>2021-05-29T11:06:10Z</time>
      </trkpt>
      <trkpt lat="45.08261" lon="5.79798">
        <ele>584</ele>
        <time>2021-05-29T11:06:11Z</time>
      </trkpt>
      <trkpt lat="45.08261" lon="5.79797">
        <ele>584</ele>
        <time>2021-05-29T11:06:12Z</time>
      </trkpt>
      <trkpt lat="45.08262" lon="5.79796">
        <ele>584.2</ele>
        <time>2021-05-29T11:06:13Z</time>
      </trkpt>
      <trkpt lat="45.08262" lon="5.79794">
        <ele>584.6</ele>
        <time>2021-05-29T11:06:14Z</time>
      </trkpt>
      <trkpt lat="45.08262" lon="5.79793">
        <ele>584.6</ele>
        <time>2021-05-29T11:06:15Z</time>
      </trkpt>
      <trkpt lat="45.08263" lon="5.79792">
        <ele>584.8</ele>
        <time>2021-05-29T11:06:16Z</time>
      </trkpt>
      <trkpt lat="45.08263" lon="5.7979">
        <ele>585.2</ele>
        <time>2021-05-29T11:06:17Z</time>
      </trkpt>
      <trkpt lat="45.08264" lon="5.79789">
        <ele>585.6</ele>
        <time>2021-05-29T11:06:18Z</time>
      </trkpt>
      <trkpt lat="45.08264" lon="5.79788">
        <ele>585.8</ele>
        <time>2021-05-29T11:06:19Z</time>
      </trkpt>
      <trkpt lat="45.08265" lon="5.79787">
        <ele>585.8</ele>
        <time>2021-05-29T11:06:20Z</time>
      </trkpt>
      <trkpt lat="45.08265" lon="5.79785">
        <ele>585.8</ele>
        <time>2021-05-29T11:06:21Z</time>
      </trkpt>
      <trkpt lat="45.08266" lon="5.79784">
        <ele>586.2</ele>
        <time>2021-05-29T11:06:22Z</time>
      </trkpt>
      <trkpt lat="45.08266" lon="5.79783">
        <ele>586.6</ele>
        <time>2021-05-29T11:06:23Z</time>
      </trkpt>
      <trkpt lat="45.08267" lon="5.79782">
        <ele>586.8</ele>
        <time>2021-05-29T11:06:24Z</time>
      </trkpt>
      <trkpt lat="45.08267" lon="5.79781">
        <ele>587.2</ele>
        <time>2021-05-29T11:06:25Z</time>
      </trkpt>
      <trkpt lat="45.08268" lon="5.79781">
        <ele>587.2</ele>
        <time>2021-05-29T11:06:26Z</time>
      </trkpt>
      <trkpt lat="45.08268" lon="5.7978">
        <ele>587.2</ele>
        <time>2021-05-29T11:06:27Z</time>
      </trkpt>
      <trkpt lat="45.08269" lon="5.79779">
        <ele>587.2</ele>
        <time>2021-05-29T11:06:28Z</time>
      </trkpt>
      <trkpt lat="45.0827" lon="5.79778">
        <ele>587</ele>
        <time>2021-05-29T11:06:29Z</time>
      </trkpt>
      <trkpt lat="45.0827" lon="5.79777">
        <ele>586.8</ele>
        <time>2021-05-29T11:06:30Z</time>
      </trkpt>
      <trkpt lat="45.08271" lon="5.79776">
        <ele>587.2</ele>
        <time>2021-05-29T11:06:31Z</time>
      </trkpt>
      <trkpt lat="45.08271" lon="5.79776">
        <ele>587.4</ele>
        <time>2021-05-29T11:06:32Z</time>
      </trkpt>
      <trkpt lat="45.08272" lon="5.79777">
        <ele>587.6</ele>
        <time>2021-05-29T11:06:33Z</time>
      </trkpt>
      <trkpt lat="45.08272" lon="5.79777">
        <ele>587.8</ele>
        <time>2021-05-29T11:06:34Z</time>
      </trkpt>
      <trkpt lat="45.08272" lon="5.79778">
        <ele>588</ele>
        <time>2021-05-29T11:06:35Z</time>
      </trkpt>
      <trkpt lat="45.08273" lon="5.79778">
        <ele>588.2</ele>
        <time>2021-05-29T11:06:36Z</time>
      </trkpt>
      <trkpt lat="45.08273" lon="5.79779">
        <ele>588.2</ele>
        <time>2021-05-29T11:06:37Z</time>
      </trkpt>
      <trkpt lat="45.08274" lon="5.79779">
        <ele>588.4</ele>
        <time>2021-05-29T11:06:38Z</time>
      </trkpt>
      <trkpt lat="45.08274" lon="5.7978">
        <ele>588.4</ele>
        <time>2021-05-29T11:06:39Z</time>
      </trkpt>
      <trkpt lat="45.08274" lon="5.7978">
        <ele>588.4</ele>
        <time>2021-05-29T11:06:40Z</time>
      </trkpt>
      <trkpt lat="45.08275" lon="5.79781">
        <ele>588.4</ele>
        <time>2021-05-29T11:06:41Z</time>
      </trkpt>
      <trkpt lat="45.08275" lon="5.79781">
        <ele>588.4</ele>
        <time>2021-05-29T11:06:42Z</time>
      </trkpt>
      <trkpt lat="45.08276" lon="5.79782">
        <ele>588.6</ele>
        <time>2021-05-29T11:06:43Z</time>
      </trkpt>
      <trkpt lat="45.08276" lon="5.79782">
        <ele>588.8</ele>
        <time>2021-05-29T11:06:44Z</time>
      </trkpt>
      <trkpt lat="45.08276" lon="5.79783">
        <ele>589</ele>
        <time>2021-05-29T11:06:45Z</time>
      </trkpt>
      <trkpt lat="45.08277" lon="5.79784">
        <ele>589.2</ele>
        <time>2021-05-29T11:06:46Z</time>
      </trkpt>
      <trkpt lat="45.08277" lon="5.79784">
        <ele>589.2</ele>
        <time>2021-05-29T11:06:47Z</time>
      </trkpt>
      <trkpt lat="45.08278" lon="5.79785">
        <ele>589.4</ele>
        <time>2021-05-29T11:06:48Z</time>
      </trkpt>
      <trkpt lat="45.08279" lon="5.79785">
        <ele>589.4</ele>
        <time>2021-05-29T11:06:49Z</time>
      </trkpt>
      <trkpt lat="45.0828" lon="5.79786">
        <ele>589.8</ele>
        <time>2021-05-29T11:06:50Z</time>
      </trkpt>
      <trkpt lat="45.08281" lon="5.79787">
        <ele>589.8</ele>
        <time>2021-05-29T11:06:51Z</time>
      </trkpt>
      <trkpt lat="45.08282" lon="5.79788">
        <ele>590</ele>
        <time>2021-05-29T11:06:52Z</time>
      </trkpt>
      <trkpt lat="45.08283" lon="5.79789">
        <ele>590</ele>
        <time>2021-05-29T11:06:53Z</time>
      </trkpt>
      <trkpt lat="45.08284" lon="5.7979">
        <ele>590</ele>
        <time>2021-05-29T11:06:54Z</time>
      </trkpt>
      <trkpt lat="45.08286" lon="5.79791">
        <ele>590.4</ele>
        <time>2021-05-29T11:06:55Z</time>
      </trkpt>
      <trkpt lat="45.08287" lon="5.79792">
        <ele>590.6</ele>
        <time>2021-05-29T11:06:56Z</time>
      </trkpt>
      <trkpt lat="45.08288" lon="5.79793">
        <ele>591</ele>
        <time>2021-05-29T11:06:57Z</time>
      </trkpt>
      <trkpt lat="45.08289" lon="5.79793">
        <ele>591.2</ele>
        <time>2021-05-29T11:06:58Z</time>
      </trkpt>
      <trkpt lat="45.08291" lon="5.79794">
        <ele>591.2</ele>
        <time>2021-05-29T11:06:59Z</time>
      </trkpt>
      <trkpt lat="45.08292" lon="5.79794">
        <ele>591.8</ele>
        <time>2021-05-29T11:07:00Z</time>
      </trkpt>
      <trkpt lat="45.08293" lon="5.79795">
        <ele>592.2</ele>
        <time>2021-05-29T11:07:01Z</time>
      </trkpt>
      <trkpt lat="45.08295" lon="5.79796">
        <ele>592.6</ele>
        <time>2021-05-29T11:07:02Z</time>
      </trkpt>
      <trkpt lat="45.08296" lon="5.79796">
        <ele>593</ele>
        <time>2021-05-29T11:07:03Z</time>
      </trkpt>
      <trkpt lat="45.08297" lon="5.79797">
        <ele>593.4</ele>
        <time>2021-05-29T11:07:04Z</time>
      </trkpt>
      <trkpt lat="45.08299" lon="5.79798">
        <ele>593.6</ele>
        <time>2021-05-29T11:07:05Z</time>
      </trkpt>
      <trkpt lat="45.083" lon="5.79798">
        <ele>593.8</ele>
        <time>2021-05-29T11:07:06Z</time>
      </trkpt>
      <trkpt lat="45.08301" lon="5.79799">
        <ele>594</ele>
        <time>2021-05-29T11:07:07Z</time>
      </trkpt>
      <trkpt lat="45.08303" lon="5.79799">
        <ele>594</ele>
        <time>2021-05-29T11:07:08Z</time>
      </trkpt>
      <trkpt lat="45.08304" lon="5.798">
        <ele>594</ele>
        <time>2021-05-29T11:07:09Z</time>
      </trkpt>
      <trkpt lat="45.08305" lon="5.79801">
        <ele>594</ele>
        <time>2021-05-29T11:07:10Z</time>
      </trkpt>
      <trkpt lat="45.08306" lon="5.79802">
        <ele>594.2</ele>
        <time>2021-05-29T11:07:11Z</time>
      </trkpt>
      <trkpt lat="45.08307" lon="5.79803">
        <ele>594.2</ele>
        <time>2021-05-29T11:07:12Z</time>
      </trkpt>
      <trkpt lat="45.08308" lon="5.79804">
        <ele>594.2</ele>
        <time>2021-05-29T11:07:13Z</time>
      </trkpt>
      <trkpt lat="45.0831" lon="5.79805">
        <ele>594.6</ele>
        <time>2021-05-29T11:07:14Z</time>
      </trkpt>
      <trkpt lat="45.08311" lon="5.79806">
        <ele>594.8</ele>
        <time>2021-05-29T11:07:15Z</time>
      </trkpt>
      <trkpt lat="45.08312" lon="5.79807">
        <ele>595.2</ele>
        <time>2021-05-29T11:07:16Z</time>
      </trkpt>
      <trkpt lat="45.08313" lon="5.79808">
        <ele>595.4</ele>
        <time>2021-05-29T11:07:17Z</time>
      </trkpt>
      <trkpt lat="45.08314" lon="5.79809">
        <ele>595.6</ele>
        <time>2021-05-29T11:07:18Z</time>
      </trkpt>
      <trkpt lat="45.08315" lon="5.7981">
        <ele>595.8</ele>
        <time>2021-05-29T11:07:19Z</time>
      </trkpt>
      <trkpt lat="45.08316" lon="5.7981">
        <ele>596</ele>
        <time>2021-05-29T11:07:20Z</time>
      </trkpt>
      <trkpt lat="45.08317" lon="5.7981">
        <ele>596.2</ele>
        <time>2021-05-29T11:07:21Z</time>
      </trkpt>
      <trkpt lat="45.08318" lon="5.7981">
        <ele>596.4</ele>
        <time>2021-05-29T11:07:22Z</time>
      </trkpt>
      <trkpt lat="45.08319" lon="5.7981">
        <ele>596.6</ele>
        <time>2021-05-29T11:07:23Z</time>
      </trkpt>
      <trkpt lat="45.08319" lon="5.7981">
        <ele>596.8</ele>
        <time>2021-05-29T11:07:24Z</time>
      </trkpt>
      <trkpt lat="45.0832" lon="5.7981">
        <ele>597</ele>
        <time>2021-05-29T11:07:25Z</time>
      </trkpt>
      <trkpt lat="45.08321" lon="5.79811">
        <ele>597.2</ele>
        <time>2021-05-29T11:07:26Z</time>
      </trkpt>
      <trkpt lat="45.08322" lon="5.79811">
        <ele>597.2</ele>
        <time>2021-05-29T11:07:27Z</time>
      </trkpt>
      <trkpt lat="45.08323" lon="5.79811">
        <ele>597</ele>
        <time>2021-05-29T11:07:28Z</time>
      </trkpt>
      <trkpt lat="45.08325" lon="5.79812">
        <ele>597.2</ele>
        <time>2021-05-29T11:07:29Z</time>
      </trkpt>
      <trkpt lat="45.08327" lon="5.79813">
        <ele>597.2</ele>
        <time>2021-05-29T11:07:30Z</time>
      </trkpt>
      <trkpt lat="45.08329" lon="5.79813">
        <ele>597.4</ele>
        <time>2021-05-29T11:07:31Z</time>
      </trkpt>
      <trkpt lat="45.08331" lon="5.79814">
        <ele>597.6</ele>
        <time>2021-05-29T11:07:32Z</time>
      </trkpt>
      <trkpt lat="45.08333" lon="5.79815">
        <ele>597.6</ele>
        <time>2021-05-29T11:07:33Z</time>
      </trkpt>
      <trkpt lat="45.08334" lon="5.79817">
        <ele>597.6</ele>
        <time>2021-05-29T11:07:34Z</time>
      </trkpt>
      <trkpt lat="45.08335" lon="5.79818">
        <ele>597.8</ele>
        <time>2021-05-29T11:07:35Z</time>
      </trkpt>
      <trkpt lat="45.08336" lon="5.79819">
        <ele>597.8</ele>
        <time>2021-05-29T11:07:36Z</time>
      </trkpt>
      <trkpt lat="45.08337" lon="5.79821">
        <ele>598</ele>
        <time>2021-05-29T11:07:37Z</time>
      </trkpt>
      <trkpt lat="45.08338" lon="5.79822">
        <ele>598.2</ele>
        <time>2021-05-29T11:07:38Z</time>
      </trkpt>
      <trkpt lat="45.08339" lon="5.79824">
        <ele>598.4</ele>
        <time>2021-05-29T11:07:39Z</time>
      </trkpt>
      <trkpt lat="45.0834" lon="5.79825">
        <ele>598.8</ele>
        <time>2021-05-29T11:07:40Z</time>
      </trkpt>
      <trkpt lat="45.0834" lon="5.79827">
        <ele>599</ele>
        <time>2021-05-29T11:07:41Z</time>
      </trkpt>
      <trkpt lat="45.08341" lon="5.79828">
        <ele>598.8</ele>
        <time>2021-05-29T11:07:42Z</time>
      </trkpt>
      <trkpt lat="45.08342" lon="5.7983">
        <ele>599</ele>
        <time>2021-05-29T11:07:43Z</time>
      </trkpt>
      <trkpt lat="45.08343" lon="5.79831">
        <ele>599</ele>
        <time>2021-05-29T11:07:44Z</time>
      </trkpt>
      <trkpt lat="45.08344" lon="5.79833">
        <ele>599</ele>
        <time>2021-05-29T11:07:45Z</time>
      </trkpt>
      <trkpt lat="45.08344" lon="5.79834">
        <ele>599</ele>
        <time>2021-05-29T11:07:46Z</time>
      </trkpt>
      <trkpt lat="45.08345" lon="5.79836">
        <ele>599</ele>
        <time>2021-05-29T11:07:47Z</time>
      </trkpt>
      <trkpt lat="45.08346" lon="5.79836">
        <ele>599</ele>
        <time>2021-05-29T11:07:48Z</time>
      </trkpt>
      <trkpt lat="45.08347" lon="5.79837">
        <ele>598.8</ele>
        <time>2021-05-29T11:07:49Z</time>
      </trkpt>
      <trkpt lat="45.08347" lon="5.79838">
        <ele>599</ele>
        <time>2021-05-29T11:07:50Z</time>
      </trkpt>
      <trkpt lat="45.08348" lon="5.79839">
        <ele>598.8</ele>
        <time>2021-05-29T11:07:51Z</time>
      </trkpt>
      <trkpt lat="45.08348" lon="5.7984">
        <ele>599</ele>
        <time>2021-05-29T11:07:52Z</time>
      </trkpt>
      <trkpt lat="45.08349" lon="5.79841">
        <ele>599.2</ele>
        <time>2021-05-29T11:07:53Z</time>
      </trkpt>
      <trkpt lat="45.0835" lon="5.79841">
        <ele>599.4</ele>
        <time>2021-05-29T11:07:54Z</time>
      </trkpt>
      <trkpt lat="45.0835" lon="5.79842">
        <ele>599.6</ele>
        <time>2021-05-29T11:07:55Z</time>
      </trkpt>
      <trkpt lat="45.08351" lon="5.79843">
        <ele>599.8</ele>
        <time>2021-05-29T11:07:56Z</time>
      </trkpt>
      <trkpt lat="45.08352" lon="5.79844">
        <ele>600</ele>
        <time>2021-05-29T11:07:57Z</time>
      </trkpt>
      <trkpt lat="45.08352" lon="5.79845">
        <ele>600.2</ele>
        <time>2021-05-29T11:07:58Z</time>
      </trkpt>
      <trkpt lat="45.08354" lon="5.79845">
        <ele>600.4</ele>
        <time>2021-05-29T11:07:59Z</time>
      </trkpt>
      <trkpt lat="45.08355" lon="5.79846">
        <ele>600.6</ele>
        <time>2021-05-29T11:08:00Z</time>
      </trkpt>
      <trkpt lat="45.08357" lon="5.79847">
        <ele>601</ele>
        <time>2021-05-29T11:08:01Z</time>
      </trkpt>
      <trkpt lat="45.08358" lon="5.79848">
        <ele>601.2</ele>
        <time>2021-05-29T11:08:02Z</time>
      </trkpt>
      <trkpt lat="45.08359" lon="5.79848">
        <ele>601.2</ele>
        <time>2021-05-29T11:08:03Z</time>
      </trkpt>
      <trkpt lat="45.08361" lon="5.79849">
        <ele>601.2</ele>
        <time>2021-05-29T11:08:04Z</time>
      </trkpt>
      <trkpt lat="45.08362" lon="5.7985">
        <ele>601</ele>
        <time>2021-05-29T11:08:05Z</time>
      </trkpt>
      <trkpt lat="45.08363" lon="5.79851">
        <ele>601</ele>
        <time>2021-05-29T11:08:06Z</time>
      </trkpt>
      <trkpt lat="45.08365" lon="5.79852">
        <ele>601.2</ele>
        <time>2021-05-29T11:08:07Z</time>
      </trkpt>
      <trkpt lat="45.08366" lon="5.79852">
        <ele>601.2</ele>
        <time>2021-05-29T11:08:08Z</time>
      </trkpt>
      <trkpt lat="45.08367" lon="5.79853">
        <ele>601.2</ele>
        <time>2021-05-29T11:08:09Z</time>
      </trkpt>
      <trkpt lat="45.08368" lon="5.79854">
        <ele>601.4</ele>
        <time>2021-05-29T11:08:10Z</time>
      </trkpt>
      <trkpt lat="45.08369" lon="5.79855">
        <ele>601.4</ele>
        <time>2021-05-29T11:08:11Z</time>
      </trkpt>
      <trkpt lat="45.08371" lon="5.79856">
        <ele>601.6</ele>
        <time>2021-05-29T11:08:12Z</time>
      </trkpt>
      <trkpt lat="45.08372" lon="5.79857">
        <ele>602</ele>
        <time>2021-05-29T11:08:13Z</time>
      </trkpt>
      <trkpt lat="45.08373" lon="5.79857">
        <ele>602.4</ele>
        <time>2021-05-29T11:08:14Z</time>
      </trkpt>
      <trkpt lat="45.08374" lon="5.79858">
        <ele>602.8</ele>
        <time>2021-05-29T11:08:15Z</time>
      </trkpt>
      <trkpt lat="45.08375" lon="5.79859">
        <ele>603.2</ele>
        <time>2021-05-29T11:08:16Z</time>
      </trkpt>
      <trkpt lat="45.08375" lon="5.79859">
        <ele>603.4</ele>
        <time>2021-05-29T11:08:17Z</time>
      </trkpt>
      <trkpt lat="45.08376" lon="5.7986">
        <ele>603.4</ele>
        <time>2021-05-29T11:08:18Z</time>
      </trkpt>
      <trkpt lat="45.08377" lon="5.7986">
        <ele>603.4</ele>
        <time>2021-05-29T11:08:19Z</time>
      </trkpt>
      <trkpt lat="45.08378" lon="5.79861">
        <ele>603.6</ele>
        <time>2021-05-29T11:08:20Z</time>
      </trkpt>
      <trkpt lat="45.08379" lon="5.79861">
        <ele>603.6</ele>
        <time>2021-05-29T11:08:21Z</time>
      </trkpt>
      <trkpt lat="45.08381" lon="5.79863">
        <ele>603.6</ele>
        <time>2021-05-29T11:08:22Z</time>
      </trkpt>
      <trkpt lat="45.08382" lon="5.79864">
        <ele>603.8</ele>
        <time>2021-05-29T11:08:23Z</time>
      </trkpt>
      <trkpt lat="45.08383" lon="5.79866">
        <ele>603.8</ele>
        <time>2021-05-29T11:08:24Z</time>
      </trkpt>
      <trkpt lat="45.08385" lon="5.79867">
        <ele>604</ele>
        <time>2021-05-29T11:08:25Z</time>
      </trkpt>
      <trkpt lat="45.08386" lon="5.79869">
        <ele>604.2</ele>
        <time>2021-05-29T11:08:26Z</time>
      </trkpt>
      <trkpt lat="45.08387" lon="5.79871">
        <ele>604.2</ele>
        <time>2021-05-29T11:08:27Z</time>
      </trkpt>
      <trkpt lat="45.08389" lon="5.79872">
        <ele>604.4</ele>
        <time>2021-05-29T11:08:28Z</time>
      </trkpt>
      <trkpt lat="45.0839" lon="5.79874">
        <ele>604.4</ele>
        <time>2021-05-29T11:08:29Z</time>
      </trkpt>
      <trkpt lat="45.08391" lon="5.79875">
        <ele>604.8</ele>
        <time>2021-05-29T11:08:30Z</time>
      </trkpt>
      <trkpt lat="45.08394" lon="5.7988">
        <ele>605</ele>
        <time>2021-05-29T11:08:31Z</time>
      </trkpt>
      <trkpt lat="45.08394" lon="5.79881">
        <ele>605.4</ele>
        <time>2021-05-29T11:08:32Z</time>
      </trkpt>
      <trkpt lat="45.08395" lon="5.79882">
        <ele>605.6</ele>
        <time>2021-05-29T11:08:33Z</time>
      </trkpt>
      <trkpt lat="45.08395" lon="5.79882">
        <ele>605.8</ele>
        <time>2021-05-29T11:08:34Z</time>
      </trkpt>
      <trkpt lat="45.08396" lon="5.79883">
        <ele>606.2</ele>
        <time>2021-05-29T11:08:35Z</time>
      </trkpt>
      <trkpt lat="45.08397" lon="5.79884">
        <ele>606.4</ele>
        <time>2021-05-29T11:08:36Z</time>
      </trkpt>
      <trkpt lat="45.08397" lon="5.79884">
        <ele>606.4</ele>
        <time>2021-05-29T11:08:37Z</time>
      </trkpt>
      <trkpt lat="45.08398" lon="5.79885">
        <ele>606.6</ele>
        <time>2021-05-29T11:08:38Z</time>
      </trkpt>
      <trkpt lat="45.08398" lon="5.79885">
        <ele>606.6</ele>
        <time>2021-05-29T11:08:39Z</time>
      </trkpt>
      <trkpt lat="45.08399" lon="5.79886">
        <ele>606.8</ele>
        <time>2021-05-29T11:08:40Z</time>
      </trkpt>
      <trkpt lat="45.08399" lon="5.79887">
        <ele>606.8</ele>
        <time>2021-05-29T11:08:41Z</time>
      </trkpt>
      <trkpt lat="45.084" lon="5.79887">
        <ele>607.2</ele>
        <time>2021-05-29T11:08:42Z</time>
      </trkpt>
      <trkpt lat="45.084" lon="5.79888">
        <ele>607.2</ele>
        <time>2021-05-29T11:08:43Z</time>
      </trkpt>
      <trkpt lat="45.08401" lon="5.79888">
        <ele>607.4</ele>
        <time>2021-05-29T11:08:44Z</time>
      </trkpt>
      <trkpt lat="45.08402" lon="5.79889">
        <ele>607.6</ele>
        <time>2021-05-29T11:08:45Z</time>
      </trkpt>
      <trkpt lat="45.08402" lon="5.7989">
        <ele>607.6</ele>
        <time>2021-05-29T11:08:46Z</time>
      </trkpt>
      <trkpt lat="45.08403" lon="5.7989">
        <ele>607.6</ele>
        <time>2021-05-29T11:08:47Z</time>
      </trkpt>
      <trkpt lat="45.08403" lon="5.79891">
        <ele>607.8</ele>
        <time>2021-05-29T11:08:48Z</time>
      </trkpt>
      <trkpt lat="45.08404" lon="5.79892">
        <ele>608</ele>
        <time>2021-05-29T11:08:49Z</time>
      </trkpt>
      <trkpt lat="45.08404" lon="5.79892">
        <ele>608.2</ele>
        <time>2021-05-29T11:08:50Z</time>
      </trkpt>
      <trkpt lat="45.08405" lon="5.79893">
        <ele>608.4</ele>
        <time>2021-05-29T11:08:51Z</time>
      </trkpt>
      <trkpt lat="45.08406" lon="5.79893">
        <ele>608.6</ele>
        <time>2021-05-29T11:08:52Z</time>
      </trkpt>
      <trkpt lat="45.08406" lon="5.79894">
        <ele>608.8</ele>
        <time>2021-05-29T11:08:53Z</time>
      </trkpt>
      <trkpt lat="45.08407" lon="5.79895">
        <ele>608.8</ele>
        <time>2021-05-29T11:08:54Z</time>
      </trkpt>
      <trkpt lat="45.08407" lon="5.79895">
        <ele>609</ele>
        <time>2021-05-29T11:08:55Z</time>
      </trkpt>
      <trkpt lat="45.08408" lon="5.79896">
        <ele>609.2</ele>
        <time>2021-05-29T11:08:56Z</time>
      </trkpt>
      <trkpt lat="45.08408" lon="5.79896">
        <ele>609.4</ele>
        <time>2021-05-29T11:08:57Z</time>
      </trkpt>
      <trkpt lat="45.08409" lon="5.79897">
        <ele>609.4</ele>
        <time>2021-05-29T11:08:58Z</time>
      </trkpt>
      <trkpt lat="45.08409" lon="5.79898">
        <ele>609.6</ele>
        <time>2021-05-29T11:08:59Z</time>
      </trkpt>
      <trkpt lat="45.0841" lon="5.79898">
        <ele>610</ele>
        <time>2021-05-29T11:09:00Z</time>
      </trkpt>
      <trkpt lat="45.08411" lon="5.79899">
        <ele>610.2</ele>
        <time>2021-05-29T11:09:01Z</time>
      </trkpt>
      <trkpt lat="45.08411" lon="5.799">
        <ele>610.4</ele>
        <time>2021-05-29T11:09:02Z</time>
      </trkpt>
      <trkpt lat="45.08412" lon="5.799">
        <ele>610.6</ele>
        <time>2021-05-29T11:09:03Z</time>
      </trkpt>
      <trkpt lat="45.08412" lon="5.79901">
        <ele>610.6</ele>
        <time>2021-05-29T11:09:04Z</time>
      </trkpt>
      <trkpt lat="45.08413" lon="5.79901">
        <ele>611</ele>
        <time>2021-05-29T11:09:05Z</time>
      </trkpt>
      <trkpt lat="45.08413" lon="5.79902">
        <ele>611.2</ele>
        <time>2021-05-29T11:09:06Z</time>
      </trkpt>
      <trkpt lat="45.08414" lon="5.79903">
        <ele>611.4</ele>
        <time>2021-05-29T11:09:07Z</time>
      </trkpt>
      <trkpt lat="45.08414" lon="5.79903">
        <ele>611.4</ele>
        <time>2021-05-29T11:09:08Z</time>
      </trkpt>
      <trkpt lat="45.08415" lon="5.79904">
        <ele>611.8</ele>
        <time>2021-05-29T11:09:09Z</time>
      </trkpt>
      <trkpt lat="45.08416" lon="5.79904">
        <ele>612.2</ele>
        <time>2021-05-29T11:09:10Z</time>
      </trkpt>
      <trkpt lat="45.08416" lon="5.79905">
        <ele>612.4</ele>
        <time>2021-05-29T11:09:11Z</time>
      </trkpt>
      <trkpt lat="45.08423" lon="5.79915">
        <ele>612.6</ele>
        <time>2021-05-29T11:09:12Z</time>
      </trkpt>
      <trkpt lat="45.08423" lon="5.79915">
        <ele>612.6</ele>
        <time>2021-05-29T11:09:13Z</time>
      </trkpt>
      <trkpt lat="45.08424" lon="5.79914">
        <ele>613</ele>
        <time>2021-05-29T11:09:14Z</time>
      </trkpt>
      <trkpt lat="45.08426" lon="5.79914">
        <ele>613.4</ele>
        <time>2021-05-29T11:09:15Z</time>
      </trkpt>
      <trkpt lat="45.08427" lon="5.79913">
        <ele>613.6</ele>
        <time>2021-05-29T11:09:16Z</time>
      </trkpt>
      <trkpt lat="45.08429" lon="5.79913">
        <ele>613.8</ele>
        <time>2021-05-29T11:09:17Z</time>
      </trkpt>
      <trkpt lat="45.0843" lon="5.79912">
        <ele>614.2</ele>
        <time>2021-05-29T11:09:18Z</time>
      </trkpt>
      <trkpt lat="45.08432" lon="5.79912">
        <ele>614.4</ele>
        <time>2021-05-29T11:09:19Z</time>
      </trkpt>
      <trkpt lat="45.08433" lon="5.79912">
        <ele>614.6</ele>
        <time>2021-05-29T11:09:20Z</time>
      </trkpt>
      <trkpt lat="45.08435" lon="5.79912">
        <ele>614.8</ele>
        <time>2021-05-29T11:09:21Z</time>
      </trkpt>
      <trkpt lat="45.08436" lon="5.79912">
        <ele>615.2</ele>
        <time>2021-05-29T11:09:22Z</time>
      </trkpt>
      <trkpt lat="45.08438" lon="5.79912">
        <ele>615.4</ele>
        <time>2021-05-29T11:09:23Z</time>
      </trkpt>
      <trkpt lat="45.08439" lon="5.79912">
        <ele>615.6</ele>
        <time>2021-05-29T11:09:24Z</time>
      </trkpt>
      <trkpt lat="45.08441" lon="5.79912">
        <ele>615.6</ele>
        <time>2021-05-29T11:09:25Z</time>
      </trkpt>
      <trkpt lat="45.08442" lon="5.79912">
        <ele>615.8</ele>
        <time>2021-05-29T11:09:26Z</time>
      </trkpt>
      <trkpt lat="45.08443" lon="5.79914">
        <ele>615.8</ele>
        <time>2021-05-29T11:09:27Z</time>
      </trkpt>
      <trkpt lat="45.08444" lon="5.79916">
        <ele>616.2</ele>
        <time>2021-05-29T11:09:28Z</time>
      </trkpt>
      <trkpt lat="45.08446" lon="5.79918">
        <ele>616.4</ele>
        <time>2021-05-29T11:09:29Z</time>
      </trkpt>
      <trkpt lat="45.08447" lon="5.7992">
        <ele>616.6</ele>
        <time>2021-05-29T11:09:30Z</time>
      </trkpt>
      <trkpt lat="45.08448" lon="5.79922">
        <ele>617</ele>
        <time>2021-05-29T11:09:31Z</time>
      </trkpt>
      <trkpt lat="45.08449" lon="5.79923">
        <ele>617.2</ele>
        <time>2021-05-29T11:09:32Z</time>
      </trkpt>
      <trkpt lat="45.0845" lon="5.79925">
        <ele>617.2</ele>
        <time>2021-05-29T11:09:33Z</time>
      </trkpt>
      <trkpt lat="45.08452" lon="5.79926">
        <ele>617.4</ele>
        <time>2021-05-29T11:09:34Z</time>
      </trkpt>
      <trkpt lat="45.08453" lon="5.79928">
        <ele>617.8</ele>
        <time>2021-05-29T11:09:35Z</time>
      </trkpt>
      <trkpt lat="45.08454" lon="5.7993">
        <ele>618</ele>
        <time>2021-05-29T11:09:36Z</time>
      </trkpt>
      <trkpt lat="45.08455" lon="5.79931">
        <ele>618.2</ele>
        <time>2021-05-29T11:09:37Z</time>
      </trkpt>
      <trkpt lat="45.08456" lon="5.79932">
        <ele>618.4</ele>
        <time>2021-05-29T11:09:38Z</time>
      </trkpt>
      <trkpt lat="45.08457" lon="5.79933">
        <ele>618.8</ele>
        <time>2021-05-29T11:09:39Z</time>
      </trkpt>
      <trkpt lat="45.08458" lon="5.79934">
        <ele>619.4</ele>
        <time>2021-05-29T11:09:40Z</time>
      </trkpt>
      <trkpt lat="45.0846" lon="5.79935">
        <ele>619.8</ele>
        <time>2021-05-29T11:09:41Z</time>
      </trkpt>
      <trkpt lat="45.08461" lon="5.79936">
        <ele>619.8</ele>
        <time>2021-05-29T11:09:42Z</time>
      </trkpt>
      <trkpt lat="45.08462" lon="5.79937">
        <ele>620.2</ele>
        <time>2021-05-29T11:09:43Z</time>
      </trkpt>
      <trkpt lat="45.08463" lon="5.79938">
        <ele>620.4</ele>
        <time>2021-05-29T11:09:44Z</time>
      </trkpt>
      <trkpt lat="45.08463" lon="5.79939">
        <ele>620.6</ele>
        <time>2021-05-29T11:09:45Z</time>
      </trkpt>
      <trkpt lat="45.08464" lon="5.79939">
        <ele>620.8</ele>
        <time>2021-05-29T11:09:46Z</time>
      </trkpt>
      <trkpt lat="45.08465" lon="5.7994">
        <ele>621</ele>
        <time>2021-05-29T11:09:47Z</time>
      </trkpt>
      <trkpt lat="45.08465" lon="5.7994">
        <ele>621</ele>
        <time>2021-05-29T11:09:48Z</time>
      </trkpt>
      <trkpt lat="45.08466" lon="5.79941">
        <ele>621.2</ele>
        <time>2021-05-29T11:09:49Z</time>
      </trkpt>
      <trkpt lat="45.08467" lon="5.79941">
        <ele>621.4</ele>
        <time>2021-05-29T11:09:50Z</time>
      </trkpt>
      <trkpt lat="45.08467" lon="5.79942">
        <ele>621.6</ele>
        <time>2021-05-29T11:09:51Z</time>
      </trkpt>
      <trkpt lat="45.08468" lon="5.79942">
        <ele>621.8</ele>
        <time>2021-05-29T11:09:52Z</time>
      </trkpt>
      <trkpt lat="45.08469" lon="5.79943">
        <ele>621.8</ele>
        <time>2021-05-29T11:09:53Z</time>
      </trkpt>
      <trkpt lat="45.08469" lon="5.79943">
        <ele>622</ele>
        <time>2021-05-29T11:09:54Z</time>
      </trkpt>
      <trkpt lat="45.0847" lon="5.79944">
        <ele>622.2</ele>
        <time>2021-05-29T11:09:55Z</time>
      </trkpt>
      <trkpt lat="45.08471" lon="5.79945">
        <ele>622.2</ele>
        <time>2021-05-29T11:09:56Z</time>
      </trkpt>
      <trkpt lat="45.08471" lon="5.79945">
        <ele>622.2</ele>
        <time>2021-05-29T11:09:57Z</time>
      </trkpt>
      <trkpt lat="45.08472" lon="5.79946">
        <ele>622.4</ele>
        <time>2021-05-29T11:09:58Z</time>
      </trkpt>
      <trkpt lat="45.08473" lon="5.79946">
        <ele>622.8</ele>
        <time>2021-05-29T11:10:00Z</time>
      </trkpt>
      <trkpt lat="45.08474" lon="5.79947">
        <ele>623</ele>
        <time>2021-05-29T11:10:01Z</time>
      </trkpt>
      <trkpt lat="45.08475" lon="5.79947">
        <ele>623.2</ele>
        <time>2021-05-29T11:10:02Z</time>
      </trkpt>
      <trkpt lat="45.08476" lon="5.79948">
        <ele>623.4</ele>
        <time>2021-05-29T11:10:03Z</time>
      </trkpt>
      <trkpt lat="45.08476" lon="5.79948">
        <ele>623.6</ele>
        <time>2021-05-29T11:10:04Z</time>
      </trkpt>
      <trkpt lat="45.08477" lon="5.79949">
        <ele>624</ele>
        <time>2021-05-29T11:10:05Z</time>
      </trkpt>
      <trkpt lat="45.08478" lon="5.7995">
        <ele>624.2</ele>
        <time>2021-05-29T11:10:06Z</time>
      </trkpt>
      <trkpt lat="45.08479" lon="5.7995">
        <ele>624.6</ele>
        <time>2021-05-29T11:10:07Z</time>
      </trkpt>
      <trkpt lat="45.0848" lon="5.79951">
        <ele>625</ele>
        <time>2021-05-29T11:10:08Z</time>
      </trkpt>
      <trkpt lat="45.08481" lon="5.79951">
        <ele>625.4</ele>
        <time>2021-05-29T11:10:09Z</time>
      </trkpt>
      <trkpt lat="45.08482" lon="5.79953">
        <ele>625.6</ele>
        <time>2021-05-29T11:10:10Z</time>
      </trkpt>
      <trkpt lat="45.08483" lon="5.79955">
        <ele>626</ele>
        <time>2021-05-29T11:10:11Z</time>
      </trkpt>
      <trkpt lat="45.08484" lon="5.79957">
        <ele>626.2</ele>
        <time>2021-05-29T11:10:12Z</time>
      </trkpt>
      <trkpt lat="45.08486" lon="5.79959">
        <ele>626.4</ele>
        <time>2021-05-29T11:10:13Z</time>
      </trkpt>
      <trkpt lat="45.08487" lon="5.79961">
        <ele>626.6</ele>
        <time>2021-05-29T11:10:14Z</time>
      </trkpt>
      <trkpt lat="45.08488" lon="5.79963">
        <ele>626.8</ele>
        <time>2021-05-29T11:10:15Z</time>
      </trkpt>
      <trkpt lat="45.08489" lon="5.79965">
        <ele>627</ele>
        <time>2021-05-29T11:10:16Z</time>
      </trkpt>
      <trkpt lat="45.08489" lon="5.79966">
        <ele>627.6</ele>
        <time>2021-05-29T11:10:17Z</time>
      </trkpt>
      <trkpt lat="45.0849" lon="5.79968">
        <ele>628</ele>
        <time>2021-05-29T11:10:18Z</time>
      </trkpt>
      <trkpt lat="45.08491" lon="5.79969">
        <ele>628.2</ele>
        <time>2021-05-29T11:10:19Z</time>
      </trkpt>
      <trkpt lat="45.08491" lon="5.79971">
        <ele>628.4</ele>
        <time>2021-05-29T11:10:20Z</time>
      </trkpt>
      <trkpt lat="45.08492" lon="5.79972">
        <ele>628.6</ele>
        <time>2021-05-29T11:10:21Z</time>
      </trkpt>
      <trkpt lat="45.08493" lon="5.79974">
        <ele>628.8</ele>
        <time>2021-05-29T11:10:22Z</time>
      </trkpt>
      <trkpt lat="45.08494" lon="5.79975">
        <ele>628.6</ele>
        <time>2021-05-29T11:10:23Z</time>
      </trkpt>
      <trkpt lat="45.08494" lon="5.79977">
        <ele>629.2</ele>
        <time>2021-05-29T11:10:24Z</time>
      </trkpt>
      <trkpt lat="45.08494" lon="5.79978">
        <ele>629.4</ele>
        <time>2021-05-29T11:10:25Z</time>
      </trkpt>
      <trkpt lat="45.08495" lon="5.79979">
        <ele>629.8</ele>
        <time>2021-05-29T11:10:26Z</time>
      </trkpt>
      <trkpt lat="45.08495" lon="5.79981">
        <ele>630.2</ele>
        <time>2021-05-29T11:10:27Z</time>
      </trkpt>
      <trkpt lat="45.08496" lon="5.79982">
        <ele>630.4</ele>
        <time>2021-05-29T11:10:28Z</time>
      </trkpt>
      <trkpt lat="45.08496" lon="5.79983">
        <ele>630.6</ele>
        <time>2021-05-29T11:10:29Z</time>
      </trkpt>
      <trkpt lat="45.08497" lon="5.79985">
        <ele>630.8</ele>
        <time>2021-05-29T11:10:30Z</time>
      </trkpt>
      <trkpt lat="45.08497" lon="5.79986">
        <ele>631</ele>
        <time>2021-05-29T11:10:31Z</time>
      </trkpt>
      <trkpt lat="45.08497" lon="5.79987">
        <ele>631.2</ele>
        <time>2021-05-29T11:10:32Z</time>
      </trkpt>
      <trkpt lat="45.08498" lon="5.79989">
        <ele>631.8</ele>
        <time>2021-05-29T11:10:33Z</time>
      </trkpt>
      <trkpt lat="45.08498" lon="5.7999">
        <ele>632.2</ele>
        <time>2021-05-29T11:10:34Z</time>
      </trkpt>
      <trkpt lat="45.08498" lon="5.79991">
        <ele>632.4</ele>
        <time>2021-05-29T11:10:35Z</time>
      </trkpt>
      <trkpt lat="45.08498" lon="5.79993">
        <ele>632.6</ele>
        <time>2021-05-29T11:10:36Z</time>
      </trkpt>
      <trkpt lat="45.08498" lon="5.79994">
        <ele>632.8</ele>
        <time>2021-05-29T11:10:37Z</time>
      </trkpt>
      <trkpt lat="45.08499" lon="5.79995">
        <ele>632.8</ele>
        <time>2021-05-29T11:10:38Z</time>
      </trkpt>
      <trkpt lat="45.08499" lon="5.79996">
        <ele>632.8</ele>
        <time>2021-05-29T11:10:39Z</time>
      </trkpt>
      <trkpt lat="45.08499" lon="5.79998">
        <ele>633</ele>
        <time>2021-05-29T11:10:40Z</time>
      </trkpt>
      <trkpt lat="45.08499" lon="5.79999">
        <ele>633.4</ele>
        <time>2021-05-29T11:10:41Z</time>
      </trkpt>
      <trkpt lat="45.08499" lon="5.8">
        <ele>633.8</ele>
        <time>2021-05-29T11:10:42Z</time>
      </trkpt>
      <trkpt lat="45.08499" lon="5.80002">
        <ele>634</ele>
        <time>2021-05-29T11:10:43Z</time>
      </trkpt>
      <trkpt lat="45.08499" lon="5.80003">
        <ele>634.2</ele>
        <time>2021-05-29T11:10:44Z</time>
      </trkpt>
      <trkpt lat="45.08499" lon="5.80005">
        <ele>634.6</ele>
        <time>2021-05-29T11:10:45Z</time>
      </trkpt>
      <trkpt lat="45.08498" lon="5.80006">
        <ele>634.8</ele>
        <time>2021-05-29T11:10:46Z</time>
      </trkpt>
      <trkpt lat="45.08498" lon="5.80007">
        <ele>635</ele>
        <time>2021-05-29T11:10:47Z</time>
      </trkpt>
      <trkpt lat="45.08498" lon="5.80009">
        <ele>635.2</ele>
        <time>2021-05-29T11:10:48Z</time>
      </trkpt>
      <trkpt lat="45.08498" lon="5.8001">
        <ele>635.2</ele>
        <time>2021-05-29T11:10:49Z</time>
      </trkpt>
      <trkpt lat="45.08498" lon="5.80012">
        <ele>635.4</ele>
        <time>2021-05-29T11:10:50Z</time>
      </trkpt>
      <trkpt lat="45.08497" lon="5.80013">
        <ele>635.8</ele>
        <time>2021-05-29T11:10:51Z</time>
      </trkpt>
      <trkpt lat="45.08497" lon="5.80014">
        <ele>636.2</ele>
        <time>2021-05-29T11:10:52Z</time>
      </trkpt>
      <trkpt lat="45.08497" lon="5.80015">
        <ele>636.4</ele>
        <time>2021-05-29T11:10:53Z</time>
      </trkpt>
      <trkpt lat="45.08496" lon="5.80016">
        <ele>636.6</ele>
        <time>2021-05-29T11:10:54Z</time>
      </trkpt>
      <trkpt lat="45.08496" lon="5.80017">
        <ele>637</ele>
        <time>2021-05-29T11:10:55Z</time>
      </trkpt>
      <trkpt lat="45.08496" lon="5.80018">
        <ele>637</ele>
        <time>2021-05-29T11:10:56Z</time>
      </trkpt>
      <trkpt lat="45.08495" lon="5.80019">
        <ele>637.2</ele>
        <time>2021-05-29T11:10:57Z</time>
      </trkpt>
      <trkpt lat="45.08495" lon="5.8002">
        <ele>637.4</ele>
        <time>2021-05-29T11:10:58Z</time>
      </trkpt>
      <trkpt lat="45.08495" lon="5.80021">
        <ele>637.6</ele>
        <time>2021-05-29T11:10:59Z</time>
      </trkpt>
      <trkpt lat="45.08494" lon="5.80022">
        <ele>637.6</ele>
        <time>2021-05-29T11:11:00Z</time>
      </trkpt>
      <trkpt lat="45.08494" lon="5.80024">
        <ele>637.8</ele>
        <time>2021-05-29T11:11:01Z</time>
      </trkpt>
      <trkpt lat="45.08493" lon="5.80025">
        <ele>638</ele>
        <time>2021-05-29T11:11:02Z</time>
      </trkpt>
      <trkpt lat="45.08493" lon="5.80026">
        <ele>638.4</ele>
        <time>2021-05-29T11:11:03Z</time>
      </trkpt>
      <trkpt lat="45.08492" lon="5.80028">
        <ele>638.6</ele>
        <time>2021-05-29T11:11:04Z</time>
      </trkpt>
      <trkpt lat="45.08492" lon="5.80029">
        <ele>638.8</ele>
        <time>2021-05-29T11:11:05Z</time>
      </trkpt>
      <trkpt lat="45.08491" lon="5.80031">
        <ele>639</ele>
        <time>2021-05-29T11:11:06Z</time>
      </trkpt>
      <trkpt lat="45.08491" lon="5.80033">
        <ele>639.2</ele>
        <time>2021-05-29T11:11:07Z</time>
      </trkpt>
      <trkpt lat="45.0849" lon="5.80034">
        <ele>639.4</ele>
        <time>2021-05-29T11:11:08Z</time>
      </trkpt>
      <trkpt lat="45.0849" lon="5.80036">
        <ele>639.6</ele>
        <time>2021-05-29T11:11:09Z</time>
      </trkpt>
      <trkpt lat="45.08489" lon="5.80037">
        <ele>639.8</ele>
        <time>2021-05-29T11:11:10Z</time>
      </trkpt>
      <trkpt lat="45.08489" lon="5.80039">
        <ele>639.8</ele>
        <time>2021-05-29T11:11:11Z</time>
      </trkpt>
      <trkpt lat="45.08489" lon="5.80041">
        <ele>640.2</ele>
        <time>2021-05-29T11:11:12Z</time>
      </trkpt>
      <trkpt lat="45.08489" lon="5.80043">
        <ele>640.4</ele>
        <time>2021-05-29T11:11:13Z</time>
      </trkpt>
      <trkpt lat="45.08489" lon="5.80045">
        <ele>640.8</ele>
        <time>2021-05-29T11:11:14Z</time>
      </trkpt>
      <trkpt lat="45.08489" lon="5.80046">
        <ele>641.2</ele>
        <time>2021-05-29T11:11:15Z</time>
      </trkpt>
      <trkpt lat="45.08489" lon="5.80048">
        <ele>641.4</ele>
        <time>2021-05-29T11:11:16Z</time>
      </trkpt>
      <trkpt lat="45.08489" lon="5.8005">
        <ele>641.4</ele>
        <time>2021-05-29T11:11:17Z</time>
      </trkpt>
      <trkpt lat="45.08489" lon="5.80052">
        <ele>641.8</ele>
        <time>2021-05-29T11:11:18Z</time>
      </trkpt>
      <trkpt lat="45.08489" lon="5.80054">
        <ele>641.8</ele>
        <time>2021-05-29T11:11:19Z</time>
      </trkpt>
      <trkpt lat="45.0849" lon="5.80055">
        <ele>642</ele>
        <time>2021-05-29T11:11:20Z</time>
      </trkpt>
      <trkpt lat="45.0849" lon="5.80057">
        <ele>642.2</ele>
        <time>2021-05-29T11:11:21Z</time>
      </trkpt>
      <trkpt lat="45.08491" lon="5.80059">
        <ele>642.4</ele>
        <time>2021-05-29T11:11:22Z</time>
      </trkpt>
      <trkpt lat="45.08491" lon="5.80061">
        <ele>642.4</ele>
        <time>2021-05-29T11:11:23Z</time>
      </trkpt>
      <trkpt lat="45.08492" lon="5.80063">
        <ele>642.8</ele>
        <time>2021-05-29T11:11:24Z</time>
      </trkpt>
      <trkpt lat="45.08492" lon="5.80064">
        <ele>643.2</ele>
        <time>2021-05-29T11:11:25Z</time>
      </trkpt>
      <trkpt lat="45.08492" lon="5.80066">
        <ele>643.6</ele>
        <time>2021-05-29T11:11:26Z</time>
      </trkpt>
      <trkpt lat="45.08493" lon="5.80067">
        <ele>643.8</ele>
        <time>2021-05-29T11:11:27Z</time>
      </trkpt>
      <trkpt lat="45.08494" lon="5.80068">
        <ele>644</ele>
        <time>2021-05-29T11:11:28Z</time>
      </trkpt>
      <trkpt lat="45.08494" lon="5.80069">
        <ele>644.4</ele>
        <time>2021-05-29T11:11:29Z</time>
      </trkpt>
      <trkpt lat="45.08495" lon="5.8007">
        <ele>644.8</ele>
        <time>2021-05-29T11:11:30Z</time>
      </trkpt>
      <trkpt lat="45.08495" lon="5.80071">
        <ele>645</ele>
        <time>2021-05-29T11:11:31Z</time>
      </trkpt>
      <trkpt lat="45.08496" lon="5.80072">
        <ele>645.2</ele>
        <time>2021-05-29T11:11:32Z</time>
      </trkpt>
      <trkpt lat="45.08497" lon="5.80073">
        <ele>645.4</ele>
        <time>2021-05-29T11:11:33Z</time>
      </trkpt>
      <trkpt lat="45.08497" lon="5.80074">
        <ele>645.6</ele>
        <time>2021-05-29T11:11:34Z</time>
      </trkpt>
      <trkpt lat="45.08498" lon="5.80075">
        <ele>646</ele>
        <time>2021-05-29T11:11:35Z</time>
      </trkpt>
      <trkpt lat="45.08498" lon="5.80076">
        <ele>646.4</ele>
        <time>2021-05-29T11:11:36Z</time>
      </trkpt>
      <trkpt lat="45.08499" lon="5.80077">
        <ele>646.2</ele>
        <time>2021-05-29T11:11:37Z</time>
      </trkpt>
      <trkpt lat="45.08499" lon="5.80077">
        <ele>646.4</ele>
        <time>2021-05-29T11:11:38Z</time>
      </trkpt>
      <trkpt lat="45.08498" lon="5.80078">
        <ele>646.6</ele>
        <time>2021-05-29T11:11:39Z</time>
      </trkpt>
      <trkpt lat="45.08498" lon="5.80078">
        <ele>646.8</ele>
        <time>2021-05-29T11:11:40Z</time>
      </trkpt>
      <trkpt lat="45.08497" lon="5.80079">
        <ele>647.2</ele>
        <time>2021-05-29T11:11:41Z</time>
      </trkpt>
      <trkpt lat="45.08497" lon="5.80079">
        <ele>647.4</ele>
        <time>2021-05-29T11:11:42Z</time>
      </trkpt>
      <trkpt lat="45.08496" lon="5.80079">
        <ele>647.8</ele>
        <time>2021-05-29T11:11:43Z</time>
      </trkpt>
      <trkpt lat="45.08496" lon="5.8008">
        <ele>648.2</ele>
        <time>2021-05-29T11:11:44Z</time>
      </trkpt>
      <trkpt lat="45.08495" lon="5.8008">
        <ele>648.4</ele>
        <time>2021-05-29T11:11:45Z</time>
      </trkpt>
      <trkpt lat="45.08494" lon="5.8008">
        <ele>648.6</ele>
        <time>2021-05-29T11:11:46Z</time>
      </trkpt>
      <trkpt lat="45.08494" lon="5.80081">
        <ele>648.6</ele>
        <time>2021-05-29T11:11:47Z</time>
      </trkpt>
      <trkpt lat="45.08493" lon="5.80081">
        <ele>648.8</ele>
        <time>2021-05-29T11:11:48Z</time>
      </trkpt>
      <trkpt lat="45.08493" lon="5.80082">
        <ele>649</ele>
        <time>2021-05-29T11:11:49Z</time>
      </trkpt>
      <trkpt lat="45.08492" lon="5.80082">
        <ele>649.2</ele>
        <time>2021-05-29T11:11:50Z</time>
      </trkpt>
      <trkpt lat="45.08492" lon="5.80082">
        <ele>649.4</ele>
        <time>2021-05-29T11:11:51Z</time>
      </trkpt>
      <trkpt lat="45.08491" lon="5.80083">
        <ele>649.6</ele>
        <time>2021-05-29T11:11:52Z</time>
      </trkpt>
      <trkpt lat="45.08491" lon="5.80083">
        <ele>649.8</ele>
        <time>2021-05-29T11:11:53Z</time>
      </trkpt>
      <trkpt lat="45.08489" lon="5.80083">
        <ele>650.2</ele>
        <time>2021-05-29T11:11:54Z</time>
      </trkpt>
      <trkpt lat="45.08488" lon="5.80083">
        <ele>650.4</ele>
        <time>2021-05-29T11:11:55Z</time>
      </trkpt>
      <trkpt lat="45.08487" lon="5.80083">
        <ele>650.6</ele>
        <time>2021-05-29T11:11:56Z</time>
      </trkpt>
      <trkpt lat="45.08485" lon="5.80083">
        <ele>650.8</ele>
        <time>2021-05-29T11:11:57Z</time>
      </trkpt>
      <trkpt lat="45.08484" lon="5.80082">
        <ele>651</ele>
        <time>2021-05-29T11:11:58Z</time>
      </trkpt>
      <trkpt lat="45.08482" lon="5.80082">
        <ele>651.2</ele>
        <time>2021-05-29T11:11:59Z</time>
      </trkpt>
      <trkpt lat="45.08481" lon="5.80082">
        <ele>651.6</ele>
        <time>2021-05-29T11:12:00Z</time>
      </trkpt>
      <trkpt lat="45.0848" lon="5.80082">
        <ele>652</ele>
        <time>2021-05-29T11:12:01Z</time>
      </trkpt>
      <trkpt lat="45.08479" lon="5.80082">
        <ele>652.2</ele>
        <time>2021-05-29T11:12:02Z</time>
      </trkpt>
      <trkpt lat="45.08478" lon="5.80082">
        <ele>652.2</ele>
        <time>2021-05-29T11:12:03Z</time>
      </trkpt>
      <trkpt lat="45.08476" lon="5.80081">
        <ele>652.4</ele>
        <time>2021-05-29T11:12:04Z</time>
      </trkpt>
      <trkpt lat="45.08475" lon="5.80081">
        <ele>652.6</ele>
        <time>2021-05-29T11:12:05Z</time>
      </trkpt>
      <trkpt lat="45.08474" lon="5.80081">
        <ele>652.8</ele>
        <time>2021-05-29T11:12:06Z</time>
      </trkpt>
      <trkpt lat="45.08473" lon="5.80081">
        <ele>653.2</ele>
        <time>2021-05-29T11:12:07Z</time>
      </trkpt>
      <trkpt lat="45.08472" lon="5.8008">
        <ele>653.4</ele>
        <time>2021-05-29T11:12:08Z</time>
      </trkpt>
      <trkpt lat="45.08471" lon="5.8008">
        <ele>653.6</ele>
        <time>2021-05-29T11:12:09Z</time>
      </trkpt>
      <trkpt lat="45.0847" lon="5.8008">
        <ele>653.8</ele>
        <time>2021-05-29T11:12:10Z</time>
      </trkpt>
      <trkpt lat="45.0847" lon="5.8008">
        <ele>654</ele>
        <time>2021-05-29T11:12:11Z</time>
      </trkpt>
      <trkpt lat="45.08469" lon="5.8008">
        <ele>654.2</ele>
        <time>2021-05-29T11:12:12Z</time>
      </trkpt>
      <trkpt lat="45.08468" lon="5.8008">
        <ele>654.6</ele>
        <time>2021-05-29T11:12:13Z</time>
      </trkpt>
      <trkpt lat="45.08467" lon="5.8008">
        <ele>654.8</ele>
        <time>2021-05-29T11:12:14Z</time>
      </trkpt>
      <trkpt lat="45.08467" lon="5.8008">
        <ele>655.2</ele>
        <time>2021-05-29T11:12:15Z</time>
      </trkpt>
      <trkpt lat="45.08466" lon="5.8008">
        <ele>655.4</ele>
        <time>2021-05-29T11:12:16Z</time>
      </trkpt>
      <trkpt lat="45.08465" lon="5.8008">
        <ele>656</ele>
        <time>2021-05-29T11:12:17Z</time>
      </trkpt>
      <trkpt lat="45.08464" lon="5.8008">
        <ele>656.2</ele>
        <time>2021-05-29T11:12:18Z</time>
      </trkpt>
      <trkpt lat="45.08464" lon="5.8008">
        <ele>656.4</ele>
        <time>2021-05-29T11:12:19Z</time>
      </trkpt>
      <trkpt lat="45.08463" lon="5.8008">
        <ele>656.4</ele>
        <time>2021-05-29T11:12:20Z</time>
      </trkpt>
      <trkpt lat="45.08462" lon="5.8008">
        <ele>656.6</ele>
        <time>2021-05-29T11:12:21Z</time>
      </trkpt>
      <trkpt lat="45.08462" lon="5.8008">
        <ele>656.8</ele>
        <time>2021-05-29T11:12:22Z</time>
      </trkpt>
      <trkpt lat="45.0846" lon="5.8008">
        <ele>657</ele>
        <time>2021-05-29T11:12:23Z</time>
      </trkpt>
      <trkpt lat="45.08459" lon="5.8008">
        <ele>657</ele>
        <time>2021-05-29T11:12:24Z</time>
      </trkpt>
      <trkpt lat="45.08458" lon="5.8008">
        <ele>657.2</ele>
        <time>2021-05-29T11:12:25Z</time>
      </trkpt>
      <trkpt lat="45.08457" lon="5.8008">
        <ele>657.4</ele>
        <time>2021-05-29T11:12:26Z</time>
      </trkpt>
      <trkpt lat="45.08456" lon="5.8008">
        <ele>657.6</ele>
        <time>2021-05-29T11:12:27Z</time>
      </trkpt>
      <trkpt lat="45.08455" lon="5.8008">
        <ele>657.8</ele>
        <time>2021-05-29T11:12:28Z</time>
      </trkpt>
      <trkpt lat="45.08454" lon="5.8008">
        <ele>658.2</ele>
        <time>2021-05-29T11:12:29Z</time>
      </trkpt>
      <trkpt lat="45.08452" lon="5.8008">
        <ele>658.4</ele>
        <time>2021-05-29T11:12:30Z</time>
      </trkpt>
      <trkpt lat="45.08452" lon="5.8008">
        <ele>658.6</ele>
        <time>2021-05-29T11:12:31Z</time>
      </trkpt>
      <trkpt lat="45.08451" lon="5.8008">
        <ele>658.8</ele>
        <time>2021-05-29T11:12:32Z</time>
      </trkpt>
      <trkpt lat="45.0845" lon="5.8008">
        <ele>659.2</ele>
        <time>2021-05-29T11:12:33Z</time>
      </trkpt>
      <trkpt lat="45.08449" lon="5.8008">
        <ele>659.4</ele>
        <time>2021-05-29T11:12:34Z</time>
      </trkpt>
      <trkpt lat="45.08448" lon="5.8008">
        <ele>659.6</ele>
        <time>2021-05-29T11:12:35Z</time>
      </trkpt>
      <trkpt lat="45.08447" lon="5.8008">
        <ele>660</ele>
        <time>2021-05-29T11:12:36Z</time>
      </trkpt>
      <trkpt lat="45.08446" lon="5.8008">
        <ele>660</ele>
        <time>2021-05-29T11:12:37Z</time>
      </trkpt>
      <trkpt lat="45.08445" lon="5.8008">
        <ele>660.2</ele>
        <time>2021-05-29T11:12:38Z</time>
      </trkpt>
      <trkpt lat="45.08444" lon="5.8008">
        <ele>660.4</ele>
        <time>2021-05-29T11:12:39Z</time>
      </trkpt>
      <trkpt lat="45.08443" lon="5.8008">
        <ele>660.4</ele>
        <time>2021-05-29T11:12:40Z</time>
      </trkpt>
      <trkpt lat="45.08442" lon="5.8008">
        <ele>660.6</ele>
        <time>2021-05-29T11:12:41Z</time>
      </trkpt>
      <trkpt lat="45.08441" lon="5.80079">
        <ele>660.8</ele>
        <time>2021-05-29T11:12:42Z</time>
      </trkpt>
      <trkpt lat="45.0844" lon="5.80079">
        <ele>661.2</ele>
        <time>2021-05-29T11:12:43Z</time>
      </trkpt>
      <trkpt lat="45.08438" lon="5.80079">
        <ele>661.4</ele>
        <time>2021-05-29T11:12:44Z</time>
      </trkpt>
      <trkpt lat="45.08437" lon="5.80079">
        <ele>661.6</ele>
        <time>2021-05-29T11:12:45Z</time>
      </trkpt>
      <trkpt lat="45.08436" lon="5.80078">
        <ele>662</ele>
        <time>2021-05-29T11:12:46Z</time>
      </trkpt>
      <trkpt lat="45.08434" lon="5.80078">
        <ele>662</ele>
        <time>2021-05-29T11:12:47Z</time>
      </trkpt>
      <trkpt lat="45.08433" lon="5.80078">
        <ele>662.2</ele>
        <time>2021-05-29T11:12:48Z</time>
      </trkpt>
      <trkpt lat="45.08433" lon="5.80077">
        <ele>662.2</ele>
        <time>2021-05-29T11:12:49Z</time>
      </trkpt>
      <trkpt lat="45.08432" lon="5.80077">
        <ele>662.6</ele>
        <time>2021-05-29T11:12:50Z</time>
      </trkpt>
      <trkpt lat="45.08431" lon="5.80077">
        <ele>662.8</ele>
        <time>2021-05-29T11:12:51Z</time>
      </trkpt>
      <trkpt lat="45.0843" lon="5.80076">
        <ele>663</ele>
        <time>2021-05-29T11:12:52Z</time>
      </trkpt>
      <trkpt lat="45.08429" lon="5.80076">
        <ele>663.2</ele>
        <time>2021-05-29T11:12:53Z</time>
      </trkpt>
      <trkpt lat="45.08428" lon="5.80076">
        <ele>663.4</ele>
        <time>2021-05-29T11:12:54Z</time>
      </trkpt>
      <trkpt lat="45.08427" lon="5.80075">
        <ele>663.8</ele>
        <time>2021-05-29T11:12:55Z</time>
      </trkpt>
      <trkpt lat="45.08427" lon="5.80075">
        <ele>664</ele>
        <time>2021-05-29T11:12:56Z</time>
      </trkpt>
      <trkpt lat="45.08426" lon="5.80075">
        <ele>664.2</ele>
        <time>2021-05-29T11:12:57Z</time>
      </trkpt>
      <trkpt lat="45.08425" lon="5.80074">
        <ele>664.4</ele>
        <time>2021-05-29T11:12:58Z</time>
      </trkpt>
      <trkpt lat="45.08424" lon="5.80074">
        <ele>664.6</ele>
        <time>2021-05-29T11:12:59Z</time>
      </trkpt>
      <trkpt lat="45.08423" lon="5.80074">
        <ele>664.8</ele>
        <time>2021-05-29T11:13:00Z</time>
      </trkpt>
      <trkpt lat="45.08421" lon="5.80074">
        <ele>665</ele>
        <time>2021-05-29T11:13:01Z</time>
      </trkpt>
      <trkpt lat="45.0842" lon="5.80074">
        <ele>665.2</ele>
        <time>2021-05-29T11:13:02Z</time>
      </trkpt>
      <trkpt lat="45.08419" lon="5.80074">
        <ele>665.4</ele>
        <time>2021-05-29T11:13:03Z</time>
      </trkpt>
      <trkpt lat="45.08418" lon="5.80074">
        <ele>665.4</ele>
        <time>2021-05-29T11:13:04Z</time>
      </trkpt>
      <trkpt lat="45.08416" lon="5.80074">
        <ele>665.6</ele>
        <time>2021-05-29T11:13:05Z</time>
      </trkpt>
      <trkpt lat="45.08415" lon="5.80074">
        <ele>665.8</ele>
        <time>2021-05-29T11:13:06Z</time>
      </trkpt>
      <trkpt lat="45.08414" lon="5.80074">
        <ele>666.2</ele>
        <time>2021-05-29T11:13:07Z</time>
      </trkpt>
      <trkpt lat="45.08413" lon="5.80073">
        <ele>666.4</ele>
        <time>2021-05-29T11:13:08Z</time>
      </trkpt>
      <trkpt lat="45.08412" lon="5.80073">
        <ele>666.6</ele>
        <time>2021-05-29T11:13:09Z</time>
      </trkpt>
      <trkpt lat="45.08411" lon="5.80072">
        <ele>667</ele>
        <time>2021-05-29T11:13:10Z</time>
      </trkpt>
      <trkpt lat="45.0841" lon="5.80072">
        <ele>667.4</ele>
        <time>2021-05-29T11:13:11Z</time>
      </trkpt>
      <trkpt lat="45.08408" lon="5.80071">
        <ele>667.6</ele>
        <time>2021-05-29T11:13:12Z</time>
      </trkpt>
      <trkpt lat="45.08407" lon="5.80071">
        <ele>667.8</ele>
        <time>2021-05-29T11:13:13Z</time>
      </trkpt>
      <trkpt lat="45.08406" lon="5.8007">
        <ele>668</ele>
        <time>2021-05-29T11:13:14Z</time>
      </trkpt>
      <trkpt lat="45.08405" lon="5.8007">
        <ele>668</ele>
        <time>2021-05-29T11:13:15Z</time>
      </trkpt>
      <trkpt lat="45.08404" lon="5.80069">
        <ele>668</ele>
        <time>2021-05-29T11:13:16Z</time>
      </trkpt>
      <trkpt lat="45.08403" lon="5.8007">
        <ele>668.2</ele>
        <time>2021-05-29T11:13:17Z</time>
      </trkpt>
      <trkpt lat="45.08402" lon="5.8007">
        <ele>668.4</ele>
        <time>2021-05-29T11:13:18Z</time>
      </trkpt>
      <trkpt lat="45.08402" lon="5.8007">
        <ele>668.6</ele>
        <time>2021-05-29T11:13:19Z</time>
      </trkpt>
      <trkpt lat="45.08401" lon="5.8007">
        <ele>669</ele>
        <time>2021-05-29T11:13:20Z</time>
      </trkpt>
      <trkpt lat="45.084" lon="5.8007">
        <ele>669.2</ele>
        <time>2021-05-29T11:13:21Z</time>
      </trkpt>
      <trkpt lat="45.08399" lon="5.8007">
        <ele>669.6</ele>
        <time>2021-05-29T11:13:22Z</time>
      </trkpt>
      <trkpt lat="45.08398" lon="5.8007">
        <ele>669.8</ele>
        <time>2021-05-29T11:13:23Z</time>
      </trkpt>
      <trkpt lat="45.08397" lon="5.80071">
        <ele>670</ele>
        <time>2021-05-29T11:13:24Z</time>
      </trkpt>
      <trkpt lat="45.08396" lon="5.80071">
        <ele>670.2</ele>
        <time>2021-05-29T11:13:25Z</time>
      </trkpt>
      <trkpt lat="45.08395" lon="5.80071">
        <ele>670.4</ele>
        <time>2021-05-29T11:13:26Z</time>
      </trkpt>
      <trkpt lat="45.08394" lon="5.80071">
        <ele>670.6</ele>
        <time>2021-05-29T11:13:27Z</time>
      </trkpt>
      <trkpt lat="45.08392" lon="5.80071">
        <ele>670.6</ele>
        <time>2021-05-29T11:13:28Z</time>
      </trkpt>
      <trkpt lat="45.08391" lon="5.8007">
        <ele>670.8</ele>
        <time>2021-05-29T11:13:29Z</time>
      </trkpt>
      <trkpt lat="45.08389" lon="5.8007">
        <ele>670.8</ele>
        <time>2021-05-29T11:13:30Z</time>
      </trkpt>
      <trkpt lat="45.08388" lon="5.8007">
        <ele>671</ele>
        <time>2021-05-29T11:13:31Z</time>
      </trkpt>
      <trkpt lat="45.08386" lon="5.8007">
        <ele>671</ele>
        <time>2021-05-29T11:13:32Z</time>
      </trkpt>
      <trkpt lat="45.08385" lon="5.8007">
        <ele>671.2</ele>
        <time>2021-05-29T11:13:33Z</time>
      </trkpt>
      <trkpt lat="45.08383" lon="5.8007">
        <ele>671.2</ele>
        <time>2021-05-29T11:13:34Z</time>
      </trkpt>
      <trkpt lat="45.08382" lon="5.8007">
        <ele>671.4</ele>
        <time>2021-05-29T11:13:35Z</time>
      </trkpt>
      <trkpt lat="45.08381" lon="5.80069">
        <ele>671.4</ele>
        <time>2021-05-29T11:13:36Z</time>
      </trkpt>
      <trkpt lat="45.08379" lon="5.80069">
        <ele>671.6</ele>
        <time>2021-05-29T11:13:37Z</time>
      </trkpt>
      <trkpt lat="45.08378" lon="5.80069">
        <ele>671.8</ele>
        <time>2021-05-29T11:13:38Z</time>
      </trkpt>
      <trkpt lat="45.08377" lon="5.80069">
        <ele>672</ele>
        <time>2021-05-29T11:13:39Z</time>
      </trkpt>
      <trkpt lat="45.08376" lon="5.80069">
        <ele>672</ele>
        <time>2021-05-29T11:13:40Z</time>
      </trkpt>
      <trkpt lat="45.08374" lon="5.80069">
        <ele>672.2</ele>
        <time>2021-05-29T11:13:41Z</time>
      </trkpt>
      <trkpt lat="45.08373" lon="5.8007">
        <ele>672.2</ele>
        <time>2021-05-29T11:13:42Z</time>
      </trkpt>
      <trkpt lat="45.08372" lon="5.8007">
        <ele>672.4</ele>
        <time>2021-05-29T11:13:43Z</time>
      </trkpt>
      <trkpt lat="45.0837" lon="5.8007">
        <ele>672.6</ele>
        <time>2021-05-29T11:13:44Z</time>
      </trkpt>
      <trkpt lat="45.08369" lon="5.8007">
        <ele>672.8</ele>
        <time>2021-05-29T11:13:45Z</time>
      </trkpt>
      <trkpt lat="45.08368" lon="5.80071">
        <ele>672.8</ele>
        <time>2021-05-29T11:13:46Z</time>
      </trkpt>
      <trkpt lat="45.08367" lon="5.80071">
        <ele>673</ele>
        <time>2021-05-29T11:13:47Z</time>
      </trkpt>
      <trkpt lat="45.08366" lon="5.80071">
        <ele>673.4</ele>
        <time>2021-05-29T11:13:48Z</time>
      </trkpt>
      <trkpt lat="45.08365" lon="5.80072">
        <ele>673.6</ele>
        <time>2021-05-29T11:13:49Z</time>
      </trkpt>
      <trkpt lat="45.08364" lon="5.80072">
        <ele>673.8</ele>
        <time>2021-05-29T11:13:50Z</time>
      </trkpt>
      <trkpt lat="45.08363" lon="5.80072">
        <ele>673.8</ele>
        <time>2021-05-29T11:13:51Z</time>
      </trkpt>
      <trkpt lat="45.08362" lon="5.80073">
        <ele>674.2</ele>
        <time>2021-05-29T11:13:52Z</time>
      </trkpt>
      <trkpt lat="45.08361" lon="5.80073">
        <ele>674.2</ele>
        <time>2021-05-29T11:13:53Z</time>
      </trkpt>
      <trkpt lat="45.08359" lon="5.80073">
        <ele>674.4</ele>
        <time>2021-05-29T11:13:54Z</time>
      </trkpt>
      <trkpt lat="45.08358" lon="5.80074">
        <ele>674.4</ele>
        <time>2021-05-29T11:13:55Z</time>
      </trkpt>
      <trkpt lat="45.08357" lon="5.80074">
        <ele>674.4</ele>
        <time>2021-05-29T11:13:56Z</time>
      </trkpt>
      <trkpt lat="45.08356" lon="5.80075">
        <ele>674.6</ele>
        <time>2021-05-29T11:13:57Z</time>
      </trkpt>
      <trkpt lat="45.08355" lon="5.80075">
        <ele>675</ele>
        <time>2021-05-29T11:13:58Z</time>
      </trkpt>
      <trkpt lat="45.08354" lon="5.80076">
        <ele>675.2</ele>
        <time>2021-05-29T11:13:59Z</time>
      </trkpt>
      <trkpt lat="45.08353" lon="5.80077">
        <ele>675.2</ele>
        <time>2021-05-29T11:14:00Z</time>
      </trkpt>
      <trkpt lat="45.08352" lon="5.80077">
        <ele>675.4</ele>
        <time>2021-05-29T11:14:01Z</time>
      </trkpt>
      <trkpt lat="45.08351" lon="5.80078">
        <ele>675.4</ele>
        <time>2021-05-29T11:14:02Z</time>
      </trkpt>
      <trkpt lat="45.0835" lon="5.80079">
        <ele>675.6</ele>
        <time>2021-05-29T11:14:03Z</time>
      </trkpt>
      <trkpt lat="45.08349" lon="5.80079">
        <ele>675.8</ele>
        <time>2021-05-29T11:14:04Z</time>
      </trkpt>
      <trkpt lat="45.08348" lon="5.8008">
        <ele>676</ele>
        <time>2021-05-29T11:14:05Z</time>
      </trkpt>
      <trkpt lat="45.08347" lon="5.80081">
        <ele>676.2</ele>
        <time>2021-05-29T11:14:06Z</time>
      </trkpt>
      <trkpt lat="45.08345" lon="5.80081">
        <ele>676.6</ele>
        <time>2021-05-29T11:14:07Z</time>
      </trkpt>
      <trkpt lat="45.08344" lon="5.80082">
        <ele>676.8</ele>
        <time>2021-05-29T11:14:08Z</time>
      </trkpt>
      <trkpt lat="45.08343" lon="5.80083">
        <ele>676.8</ele>
        <time>2021-05-29T11:14:09Z</time>
      </trkpt>
      <trkpt lat="45.08341" lon="5.80084">
        <ele>676.8</ele>
        <time>2021-05-29T11:14:10Z</time>
      </trkpt>
      <trkpt lat="45.0834" lon="5.80084">
        <ele>677</ele>
        <time>2021-05-29T11:14:11Z</time>
      </trkpt>
      <trkpt lat="45.08338" lon="5.80085">
        <ele>677.2</ele>
        <time>2021-05-29T11:14:12Z</time>
      </trkpt>
      <trkpt lat="45.08337" lon="5.80085">
        <ele>677.4</ele>
        <time>2021-05-29T11:14:13Z</time>
      </trkpt>
      <trkpt lat="45.08337" lon="5.80085">
        <ele>677.6</ele>
        <time>2021-05-29T11:14:14Z</time>
      </trkpt>
      <trkpt lat="45.08336" lon="5.80086">
        <ele>677.8</ele>
        <time>2021-05-29T11:14:15Z</time>
      </trkpt>
      <trkpt lat="45.08335" lon="5.80086">
        <ele>678.2</ele>
        <time>2021-05-29T11:14:16Z</time>
      </trkpt>
      <trkpt lat="45.08334" lon="5.80086">
        <ele>678.4</ele>
        <time>2021-05-29T11:14:17Z</time>
      </trkpt>
      <trkpt lat="45.08333" lon="5.80086">
        <ele>678.4</ele>
        <time>2021-05-29T11:14:18Z</time>
      </trkpt>
      <trkpt lat="45.08332" lon="5.80087">
        <ele>678.6</ele>
        <time>2021-05-29T11:14:19Z</time>
      </trkpt>
      <trkpt lat="45.08331" lon="5.80087">
        <ele>679</ele>
        <time>2021-05-29T11:14:20Z</time>
      </trkpt>
      <trkpt lat="45.0833" lon="5.80087">
        <ele>679.2</ele>
        <time>2021-05-29T11:14:21Z</time>
      </trkpt>
      <trkpt lat="45.08329" lon="5.80087">
        <ele>679.6</ele>
        <time>2021-05-29T11:14:22Z</time>
      </trkpt>
      <trkpt lat="45.08328" lon="5.80088">
        <ele>679.8</ele>
        <time>2021-05-29T11:14:23Z</time>
      </trkpt>
      <trkpt lat="45.08327" lon="5.80088">
        <ele>680</ele>
        <time>2021-05-29T11:14:24Z</time>
      </trkpt>
      <trkpt lat="45.08326" lon="5.80088">
        <ele>680.2</ele>
        <time>2021-05-29T11:14:25Z</time>
      </trkpt>
      <trkpt lat="45.08325" lon="5.80089">
        <ele>680.4</ele>
        <time>2021-05-29T11:14:26Z</time>
      </trkpt>
      <trkpt lat="45.08324" lon="5.80089">
        <ele>680.6</ele>
        <time>2021-05-29T11:14:27Z</time>
      </trkpt>
      <trkpt lat="45.08323" lon="5.8009">
        <ele>680.8</ele>
        <time>2021-05-29T11:14:28Z</time>
      </trkpt>
      <trkpt lat="45.08322" lon="5.8009">
        <ele>681</ele>
        <time>2021-05-29T11:14:29Z</time>
      </trkpt>
      <trkpt lat="45.08321" lon="5.8009">
        <ele>681.2</ele>
        <time>2021-05-29T11:14:30Z</time>
      </trkpt>
      <trkpt lat="45.0832" lon="5.80091">
        <ele>681.6</ele>
        <time>2021-05-29T11:14:31Z</time>
      </trkpt>
      <trkpt lat="45.08319" lon="5.80091">
        <ele>681.8</ele>
        <time>2021-05-29T11:14:32Z</time>
      </trkpt>
      <trkpt lat="45.08318" lon="5.80091">
        <ele>682</ele>
        <time>2021-05-29T11:14:33Z</time>
      </trkpt>
      <trkpt lat="45.08317" lon="5.80092">
        <ele>682.2</ele>
        <time>2021-05-29T11:14:34Z</time>
      </trkpt>
      <trkpt lat="45.08316" lon="5.80092">
        <ele>682.4</ele>
        <time>2021-05-29T11:14:35Z</time>
      </trkpt>
      <trkpt lat="45.08315" lon="5.80092">
        <ele>682.6</ele>
        <time>2021-05-29T11:14:36Z</time>
      </trkpt>
      <trkpt lat="45.08314" lon="5.80092">
        <ele>682.8</ele>
        <time>2021-05-29T11:14:37Z</time>
      </trkpt>
      <trkpt lat="45.08313" lon="5.80093">
        <ele>683</ele>
        <time>2021-05-29T11:14:38Z</time>
      </trkpt>
      <trkpt lat="45.08313" lon="5.80093">
        <ele>683.2</ele>
        <time>2021-05-29T11:14:39Z</time>
      </trkpt>
      <trkpt lat="45.08312" lon="5.80093">
        <ele>683.4</ele>
        <time>2021-05-29T11:14:40Z</time>
      </trkpt>
      <trkpt lat="45.08311" lon="5.80093">
        <ele>683.4</ele>
        <time>2021-05-29T11:14:41Z</time>
      </trkpt>
      <trkpt lat="45.08309" lon="5.80093">
        <ele>683.8</ele>
        <time>2021-05-29T11:14:42Z</time>
      </trkpt>
      <trkpt lat="45.08307" lon="5.80094">
        <ele>684</ele>
        <time>2021-05-29T11:14:43Z</time>
      </trkpt>
      <trkpt lat="45.08306" lon="5.80094">
        <ele>684.2</ele>
        <time>2021-05-29T11:14:44Z</time>
      </trkpt>
      <trkpt lat="45.08304" lon="5.80094">
        <ele>684.2</ele>
        <time>2021-05-29T11:14:45Z</time>
      </trkpt>
      <trkpt lat="45.08303" lon="5.80094">
        <ele>684.2</ele>
        <time>2021-05-29T11:14:46Z</time>
      </trkpt>
      <trkpt lat="45.08301" lon="5.80094">
        <ele>684.8</ele>
        <time>2021-05-29T11:14:47Z</time>
      </trkpt>
      <trkpt lat="45.083" lon="5.80094">
        <ele>685.2</ele>
        <time>2021-05-29T11:14:48Z</time>
      </trkpt>
      <trkpt lat="45.08299" lon="5.80093">
        <ele>685.2</ele>
        <time>2021-05-29T11:14:49Z</time>
      </trkpt>
      <trkpt lat="45.08298" lon="5.80093">
        <ele>685.2</ele>
        <time>2021-05-29T11:14:50Z</time>
      </trkpt>
      <trkpt lat="45.08297" lon="5.80092">
        <ele>685.4</ele>
        <time>2021-05-29T11:14:51Z</time>
      </trkpt>
      <trkpt lat="45.08296" lon="5.80092">
        <ele>685.4</ele>
        <time>2021-05-29T11:14:52Z</time>
      </trkpt>
      <trkpt lat="45.08295" lon="5.80091">
        <ele>685.8</ele>
        <time>2021-05-29T11:14:53Z</time>
      </trkpt>
      <trkpt lat="45.08294" lon="5.8009">
        <ele>685.8</ele>
        <time>2021-05-29T11:14:54Z</time>
      </trkpt>
      <trkpt lat="45.08293" lon="5.8009">
        <ele>686</ele>
        <time>2021-05-29T11:14:55Z</time>
      </trkpt>
      <trkpt lat="45.08292" lon="5.80091">
        <ele>686.4</ele>
        <time>2021-05-29T11:14:56Z</time>
      </trkpt>
      <trkpt lat="45.08291" lon="5.80092">
        <ele>686.6</ele>
        <time>2021-05-29T11:14:57Z</time>
      </trkpt>
      <trkpt lat="45.0829" lon="5.80093">
        <ele>686.8</ele>
        <time>2021-05-29T11:14:58Z</time>
      </trkpt>
      <trkpt lat="45.0829" lon="5.80094">
        <ele>687</ele>
        <time>2021-05-29T11:14:59Z</time>
      </trkpt>
      <trkpt lat="45.08289" lon="5.80095">
        <ele>687.2</ele>
        <time>2021-05-29T11:15:00Z</time>
      </trkpt>
      <trkpt lat="45.08288" lon="5.80096">
        <ele>687.4</ele>
        <time>2021-05-29T11:15:01Z</time>
      </trkpt>
      <trkpt lat="45.08287" lon="5.80097">
        <ele>687.6</ele>
        <time>2021-05-29T11:15:02Z</time>
      </trkpt>
      <trkpt lat="45.08286" lon="5.80098">
        <ele>687.8</ele>
        <time>2021-05-29T11:15:03Z</time>
      </trkpt>
      <trkpt lat="45.08286" lon="5.80099">
        <ele>688.2</ele>
        <time>2021-05-29T11:15:04Z</time>
      </trkpt>
      <trkpt lat="45.08285" lon="5.80099">
        <ele>688.4</ele>
        <time>2021-05-29T11:15:05Z</time>
      </trkpt>
      <trkpt lat="45.08285" lon="5.80099">
        <ele>688.6</ele>
        <time>2021-05-29T11:15:06Z</time>
      </trkpt>
      <trkpt lat="45.08284" lon="5.80099">
        <ele>688.8</ele>
        <time>2021-05-29T11:15:07Z</time>
      </trkpt>
      <trkpt lat="45.08284" lon="5.80099">
        <ele>688.8</ele>
        <time>2021-05-29T11:15:08Z</time>
      </trkpt>
      <trkpt lat="45.08283" lon="5.801">
        <ele>688.8</ele>
        <time>2021-05-29T11:15:09Z</time>
      </trkpt>
      <trkpt lat="45.08283" lon="5.801">
        <ele>688.8</ele>
        <time>2021-05-29T11:15:10Z</time>
      </trkpt>
      <trkpt lat="45.08283" lon="5.801">
        <ele>689.2</ele>
        <time>2021-05-29T11:15:11Z</time>
      </trkpt>
      <trkpt lat="45.08282" lon="5.801">
        <ele>689.2</ele>
        <time>2021-05-29T11:15:12Z</time>
      </trkpt>
      <trkpt lat="45.08282" lon="5.801">
        <ele>689.4</ele>
        <time>2021-05-29T11:15:13Z</time>
      </trkpt>
      <trkpt lat="45.08281" lon="5.80101">
        <ele>689.2</ele>
        <time>2021-05-29T11:15:14Z</time>
      </trkpt>
      <trkpt lat="45.08281" lon="5.80101">
        <ele>689.4</ele>
        <time>2021-05-29T11:15:15Z</time>
      </trkpt>
      <trkpt lat="45.0828" lon="5.80101">
        <ele>689.4</ele>
        <time>2021-05-29T11:15:16Z</time>
      </trkpt>
      <trkpt lat="45.0828" lon="5.80101">
        <ele>689.8</ele>
        <time>2021-05-29T11:15:17Z</time>
      </trkpt>
      <trkpt lat="45.08279" lon="5.80101">
        <ele>690</ele>
        <time>2021-05-29T11:15:18Z</time>
      </trkpt>
      <trkpt lat="45.08279" lon="5.80101">
        <ele>689.8</ele>
        <time>2021-05-29T11:15:19Z</time>
      </trkpt>
      <trkpt lat="45.08279" lon="5.80102">
        <ele>689.8</ele>
        <time>2021-05-29T11:15:20Z</time>
      </trkpt>
      <trkpt lat="45.08278" lon="5.80102">
        <ele>690.2</ele>
        <time>2021-05-29T11:15:21Z</time>
      </trkpt>
      <trkpt lat="45.08278" lon="5.80102">
        <ele>690.4</ele>
        <time>2021-05-29T11:15:22Z</time>
      </trkpt>
      <trkpt lat="45.08277" lon="5.80102">
        <ele>690.4</ele>
        <time>2021-05-29T11:15:23Z</time>
      </trkpt>
      <trkpt lat="45.08277" lon="5.80102">
        <ele>690.6</ele>
        <time>2021-05-29T11:15:24Z</time>
      </trkpt>
      <trkpt lat="45.08277" lon="5.80102">
        <ele>690.4</ele>
        <time>2021-05-29T11:15:25Z</time>
      </trkpt>
      <trkpt lat="45.08277" lon="5.80102">
        <ele>690.4</ele>
        <time>2021-05-29T11:15:26Z</time>
      </trkpt>
      <trkpt lat="45.08277" lon="5.80102">
        <ele>690.4</ele>
        <time>2021-05-29T11:15:27Z</time>
      </trkpt>
      <trkpt lat="45.08277" lon="5.80102">
        <ele>690.6</ele>
        <time>2021-05-29T11:15:28Z</time>
      </trkpt>
      <trkpt lat="45.08277" lon="5.80102">
        <ele>690.8</ele>
        <time>2021-05-29T11:15:29Z</time>
      </trkpt>
      <trkpt lat="45.08277" lon="5.80102">
        <ele>690.8</ele>
        <time>2021-05-29T11:15:30Z</time>
      </trkpt>
      <trkpt lat="45.08277" lon="5.80102">
        <ele>690.8</ele>
        <time>2021-05-29T11:15:31Z</time>
      </trkpt>
      <trkpt lat="45.08277" lon="5.80102">
        <ele>690.8</ele>
        <time>2021-05-29T11:15:32Z</time>
      </trkpt>
      <trkpt lat="45.08277" lon="5.80102">
        <ele>690.8</ele>
        <time>2021-05-29T11:15:33Z</time>
      </trkpt>
      <trkpt lat="45.08277" lon="5.80102">
        <ele>690.8</ele>
        <time>2021-05-29T11:15:34Z</time>
      </trkpt>
      <trkpt lat="45.08277" lon="5.80102">
        <ele>690.6</ele>
        <time>2021-05-29T11:15:35Z</time>
      </trkpt>
      <trkpt lat="45.08277" lon="5.80102">
        <ele>690.2</ele>
        <time>2021-05-29T11:15:36Z</time>
      </trkpt>
      <trkpt lat="45.08277" lon="5.80102">
        <ele>690.2</ele>
        <time>2021-05-29T11:15:37Z</time>
      </trkpt>
      <trkpt lat="45.08277" lon="5.80102">
        <ele>689.8</ele>
        <time>2021-05-29T11:15:38Z</time>
      </trkpt>
      <trkpt lat="45.08277" lon="5.80102">
        <ele>689.6</ele>
        <time>2021-05-29T11:15:39Z</time>
      </trkpt>
      <trkpt lat="45.08277" lon="5.80102">
        <ele>689.6</ele>
        <time>2021-05-29T11:15:40Z</time>
      </trkpt>
      <trkpt lat="45.08277" lon="5.80102">
        <ele>689.6</ele>
        <time>2021-05-29T11:15:41Z</time>
      </trkpt>
      <trkpt lat="45.08277" lon="5.80102">
        <ele>689.4</ele>
        <time>2021-05-29T11:15:42Z</time>
      </trkpt>
      <trkpt lat="45.08277" lon="5.80102">
        <ele>689.4</ele>
        <time>2021-05-29T11:15:43Z</time>
      </trkpt>
      <trkpt lat="45.08277" lon="5.80102">
        <ele>689.4</ele>
        <time>2021-05-29T11:15:44Z</time>
      </trkpt>
      <trkpt lat="45.08277" lon="5.80102">
        <ele>689.4</ele>
        <time>2021-05-29T11:15:45Z</time>
      </trkpt>
      <trkpt lat="45.08277" lon="5.80102">
        <ele>689.4</ele>
        <time>2021-05-29T11:15:46Z</time>
      </trkpt>
      <trkpt lat="45.08277" lon="5.80102">
        <ele>689.4</ele>
        <time>2021-05-29T11:15:47Z</time>
      </trkpt>
      <trkpt lat="45.08277" lon="5.80102">
        <ele>689.6</ele>
        <time>2021-05-29T11:15:48Z</time>
      </trkpt>
      <trkpt lat="45.08277" lon="5.80102">
        <ele>689.8</ele>
        <time>2021-05-29T11:15:49Z</time>
      </trkpt>
      <trkpt lat="45.08277" lon="5.80102">
        <ele>689.6</ele>
        <time>2021-05-29T11:15:50Z</time>
      </trkpt>
      <trkpt lat="45.08277" lon="5.80102">
        <ele>689.4</ele>
        <time>2021-05-29T11:15:51Z</time>
      </trkpt>
      <trkpt lat="45.08277" lon="5.80102">
        <ele>689.6</ele>
        <time>2021-05-29T11:15:52Z</time>
      </trkpt>
      <trkpt lat="45.08277" lon="5.80102">
        <ele>689.6</ele>
        <time>2021-05-29T11:15:53Z</time>
      </trkpt>
      <trkpt lat="45.08277" lon="5.80102">
        <ele>689.4</ele>
        <time>2021-05-29T11:15:54Z</time>
      </trkpt>
      <trkpt lat="45.08277" lon="5.80102">
        <ele>689.6</ele>
        <time>2021-05-29T11:15:55Z</time>
      </trkpt>
      <trkpt lat="45.08277" lon="5.80102">
        <ele>689.6</ele>
        <time>2021-05-29T11:15:56Z</time>
      </trkpt>
      <trkpt lat="45.08277" lon="5.80102">
        <ele>689.6</ele>
        <time>2021-05-29T11:15:57Z</time>
      </trkpt>
      <trkpt lat="45.08277" lon="5.80102">
        <ele>689.4</ele>
        <time>2021-05-29T11:15:58Z</time>
      </trkpt>
      <trkpt lat="45.08277" lon="5.80102">
        <ele>689.8</ele>
        <time>2021-05-29T11:15:59Z</time>
      </trkpt>
      <trkpt lat="45.08277" lon="5.80102">
        <ele>690</ele>
        <time>2021-05-29T11:16:00Z</time>
      </trkpt>
      <trkpt lat="45.08277" lon="5.80102">
        <ele>690</ele>
        <time>2021-05-29T11:16:01Z</time>
      </trkpt>
      <trkpt lat="45.08277" lon="5.80102">
        <ele>689.8</ele>
        <time>2021-05-29T11:16:02Z</time>
      </trkpt>
      <trkpt lat="45.08277" lon="5.80102">
        <ele>690</ele>
        <time>2021-05-29T11:16:03Z</time>
      </trkpt>
      <trkpt lat="45.08277" lon="5.80102">
        <ele>689.8</ele>
        <time>2021-05-29T11:16:04Z</time>
      </trkpt>
      <trkpt lat="45.08277" lon="5.80102">
        <ele>689.8</ele>
        <time>2021-05-29T11:16:05Z</time>
      </trkpt>
      <trkpt lat="45.08277" lon="5.80102">
        <ele>689.8</ele>
        <time>2021-05-29T11:16:06Z</time>
      </trkpt>
      <trkpt lat="45.08277" lon="5.80102">
        <ele>689.6</ele>
        <time>2021-05-29T11:16:07Z</time>
      </trkpt>
      <trkpt lat="45.08277" lon="5.80102">
        <ele>689.8</ele>
        <time>2021-05-29T11:16:08Z</time>
      </trkpt>
      <trkpt lat="45.08277" lon="5.80102">
        <ele>689.4</ele>
        <time>2021-05-29T11:16:09Z</time>
      </trkpt>
      <trkpt lat="45.08277" lon="5.80102">
        <ele>689.6</ele>
        <time>2021-05-29T11:16:10Z</time>
      </trkpt>
      <trkpt lat="45.08277" lon="5.80102">
        <ele>689.6</ele>
        <time>2021-05-29T11:16:11Z</time>
      </trkpt>
      <trkpt lat="45.08277" lon="5.80102">
        <ele>689.6</ele>
        <time>2021-05-29T11:16:12Z</time>
      </trkpt>
      <trkpt lat="45.08277" lon="5.80102">
        <ele>689.4</ele>
        <time>2021-05-29T11:16:13Z</time>
      </trkpt>
      <trkpt lat="45.08277" lon="5.80102">
        <ele>689.6</ele>
        <time>2021-05-29T11:16:14Z</time>
      </trkpt>
      <trkpt lat="45.08277" lon="5.80102">
        <ele>689.6</ele>
        <time>2021-05-29T11:16:15Z</time>
      </trkpt>
      <trkpt lat="45.08277" lon="5.80102">
        <ele>689.8</ele>
        <time>2021-05-29T11:16:16Z</time>
      </trkpt>
      <trkpt lat="45.08277" lon="5.80102">
        <ele>689.6</ele>
        <time>2021-05-29T11:16:17Z</time>
      </trkpt>
      <trkpt lat="45.08277" lon="5.80102">
        <ele>689.6</ele>
        <time>2021-05-29T11:16:18Z</time>
      </trkpt>
      <trkpt lat="45.08277" lon="5.80102">
        <ele>689.4</ele>
        <time>2021-05-29T11:16:19Z</time>
      </trkpt>
      <trkpt lat="45.08277" lon="5.80102">
        <ele>689.4</ele>
        <time>2021-05-29T11:16:20Z</time>
      </trkpt>
      <trkpt lat="45.08277" lon="5.80102">
        <ele>689.4</ele>
        <time>2021-05-29T11:16:21Z</time>
      </trkpt>
      <trkpt lat="45.08277" lon="5.80102">
        <ele>689.2</ele>
        <time>2021-05-29T11:16:22Z</time>
      </trkpt>
      <trkpt lat="45.08277" lon="5.80102">
        <ele>689</ele>
        <time>2021-05-29T11:16:23Z</time>
      </trkpt>
      <trkpt lat="45.08277" lon="5.80102">
        <ele>688.8</ele>
        <time>2021-05-29T11:16:24Z</time>
      </trkpt>
      <trkpt lat="45.08277" lon="5.80102">
        <ele>688.8</ele>
        <time>2021-05-29T11:16:25Z</time>
      </trkpt>
      <trkpt lat="45.08277" lon="5.80102">
        <ele>689.4</ele>
        <time>2021-05-29T11:16:26Z</time>
      </trkpt>
      <trkpt lat="45.08277" lon="5.80102">
        <ele>689.4</ele>
        <time>2021-05-29T11:16:27Z</time>
      </trkpt>
      <trkpt lat="45.08277" lon="5.80102">
        <ele>689</ele>
        <time>2021-05-29T11:16:28Z</time>
      </trkpt>
      <trkpt lat="45.08277" lon="5.80102">
        <ele>688.6</ele>
        <time>2021-05-29T11:16:29Z</time>
      </trkpt>
      <trkpt lat="45.08277" lon="5.80102">
        <ele>688</ele>
        <time>2021-05-29T11:16:30Z</time>
      </trkpt>
      <trkpt lat="45.08277" lon="5.80102">
        <ele>687.8</ele>
        <time>2021-05-29T11:16:31Z</time>
      </trkpt>
      <trkpt lat="45.08277" lon="5.80102">
        <ele>687.4</ele>
        <time>2021-05-29T11:16:32Z</time>
      </trkpt>
      <trkpt lat="45.08277" lon="5.80102">
        <ele>687</ele>
        <time>2021-05-29T11:16:33Z</time>
      </trkpt>
      <trkpt lat="45.08277" lon="5.80102">
        <ele>688</ele>
        <time>2021-05-29T11:16:34Z</time>
      </trkpt>
      <trkpt lat="45.08277" lon="5.80102">
        <ele>688.8</ele>
        <time>2021-05-29T11:16:35Z</time>
      </trkpt>
      <trkpt lat="45.08277" lon="5.80102">
        <ele>689.4</ele>
        <time>2021-05-29T11:16:36Z</time>
      </trkpt>
      <trkpt lat="45.08277" lon="5.80102">
        <ele>689.8</ele>
        <time>2021-05-29T11:16:37Z</time>
      </trkpt>
      <trkpt lat="45.08277" lon="5.80102">
        <ele>689.6</ele>
        <time>2021-05-29T11:16:38Z</time>
      </trkpt>
      <trkpt lat="45.08277" lon="5.80102">
        <ele>689.6</ele>
        <time>2021-05-29T11:16:39Z</time>
      </trkpt>
      <trkpt lat="45.08277" lon="5.80102">
        <ele>689.4</ele>
        <time>2021-05-29T11:16:40Z</time>
      </trkpt>
      <trkpt lat="45.08277" lon="5.80102">
        <ele>689.6</ele>
        <time>2021-05-29T11:16:41Z</time>
      </trkpt>
      <trkpt lat="45.08277" lon="5.80102">
        <ele>689.6</ele>
        <time>2021-05-29T11:16:42Z</time>
      </trkpt>
      <trkpt lat="45.08277" lon="5.80102">
        <ele>689.4</ele>
        <time>2021-05-29T11:16:43Z</time>
      </trkpt>
      <trkpt lat="45.08277" lon="5.80102">
        <ele>689.6</ele>
        <time>2021-05-29T11:16:44Z</time>
      </trkpt>
      <trkpt lat="45.08277" lon="5.80102">
        <ele>689.6</ele>
        <time>2021-05-29T11:16:45Z</time>
      </trkpt>
      <trkpt lat="45.08277" lon="5.80102">
        <ele>689.6</ele>
        <time>2021-05-29T11:16:46Z</time>
      </trkpt>
      <trkpt lat="45.08277" lon="5.80102">
        <ele>689.4</ele>
        <time>2021-05-29T11:16:47Z</time>
      </trkpt>
      <trkpt lat="45.08277" lon="5.80102">
        <ele>689.6</ele>
        <time>2021-05-29T11:16:48Z</time>
      </trkpt>
      <trkpt lat="45.08277" lon="5.80102">
        <ele>689.6</ele>
        <time>2021-05-29T11:16:49Z</time>
      </trkpt>
      <trkpt lat="45.08277" lon="5.80102">
        <ele>689.6</ele>
        <time>2021-05-29T11:16:50Z</time>
      </trkpt>
      <trkpt lat="45.08277" lon="5.80102">
        <ele>689.6</ele>
        <time>2021-05-29T11:16:51Z</time>
      </trkpt>
      <trkpt lat="45.08277" lon="5.80102">
        <ele>689.8</ele>
        <time>2021-05-29T11:16:52Z</time>
      </trkpt>
      <trkpt lat="45.08277" lon="5.80102">
        <ele>689.8</ele>
        <time>2021-05-29T11:16:53Z</time>
      </trkpt>
      <trkpt lat="45.08277" lon="5.80102">
        <ele>689.8</ele>
        <time>2021-05-29T11:16:54Z</time>
      </trkpt>
      <trkpt lat="45.08277" lon="5.80102">
        <ele>689.8</ele>
        <time>2021-05-29T11:16:55Z</time>
      </trkpt>
      <trkpt lat="45.08277" lon="5.80102">
        <ele>690</ele>
        <time>2021-05-29T11:16:56Z</time>
      </trkpt>
      <trkpt lat="45.08277" lon="5.80102">
        <ele>690</ele>
        <time>2021-05-29T11:16:57Z</time>
      </trkpt>
      <trkpt lat="45.08277" lon="5.80102">
        <ele>690.2</ele>
        <time>2021-05-29T11:16:58Z</time>
      </trkpt>
      <trkpt lat="45.08277" lon="5.80102">
        <ele>690.4</ele>
        <time>2021-05-29T11:16:59Z</time>
      </trkpt>
      <trkpt lat="45.08277" lon="5.80102">
        <ele>690</ele>
        <time>2021-05-29T11:17:00Z</time>
      </trkpt>
      <trkpt lat="45.08277" lon="5.80102">
        <ele>689.8</ele>
        <time>2021-05-29T11:17:01Z</time>
      </trkpt>
      <trkpt lat="45.08277" lon="5.80102">
        <ele>689.8</ele>
        <time>2021-05-29T11:17:02Z</time>
      </trkpt>
      <trkpt lat="45.08277" lon="5.80102">
        <ele>689.8</ele>
        <time>2021-05-29T11:17:03Z</time>
      </trkpt>
      <trkpt lat="45.08277" lon="5.80102">
        <ele>689.6</ele>
        <time>2021-05-29T11:17:04Z</time>
      </trkpt>
      <trkpt lat="45.08277" lon="5.80102">
        <ele>689.6</ele>
        <time>2021-05-29T11:17:05Z</time>
      </trkpt>
      <trkpt lat="45.08277" lon="5.80102">
        <ele>689.6</ele>
        <time>2021-05-29T11:17:06Z</time>
      </trkpt>
      <trkpt lat="45.08277" lon="5.80102">
        <ele>689.6</ele>
        <time>2021-05-29T11:17:07Z</time>
      </trkpt>
      <trkpt lat="45.08277" lon="5.80102">
        <ele>689.6</ele>
        <time>2021-05-29T11:17:08Z</time>
      </trkpt>
      <trkpt lat="45.08277" lon="5.80102">
        <ele>689.6</ele>
        <time>2021-05-29T11:17:09Z</time>
      </trkpt>
      <trkpt lat="45.08277" lon="5.80102">
        <ele>689.8</ele>
        <time>2021-05-29T11:17:10Z</time>
      </trkpt>
      <trkpt lat="45.08277" lon="5.80102">
        <ele>689.8</ele>
        <time>2021-05-29T11:17:11Z</time>
      </trkpt>
      <trkpt lat="45.08277" lon="5.80102">
        <ele>689.8</ele>
        <time>2021-05-29T11:17:12Z</time>
      </trkpt>
      <trkpt lat="45.08277" lon="5.80102">
        <ele>689.8</ele>
        <time>2021-05-29T11:17:13Z</time>
      </trkpt>
      <trkpt lat="45.08277" lon="5.80102">
        <ele>689.6</ele>
        <time>2021-05-29T11:17:14Z</time>
      </trkpt>
      <trkpt lat="45.08277" lon="5.80102">
        <ele>689.8</ele>
        <time>2021-05-29T11:17:15Z</time>
      </trkpt>
      <trkpt lat="45.08277" lon="5.80102">
        <ele>689.8</ele>
        <time>2021-05-29T11:17:16Z</time>
      </trkpt>
      <trkpt lat="45.08277" lon="5.80102">
        <ele>689.6</ele>
        <time>2021-05-29T11:17:17Z</time>
      </trkpt>
      <trkpt lat="45.08277" lon="5.80102">
        <ele>689.8</ele>
        <time>2021-05-29T11:17:18Z</time>
      </trkpt>
      <trkpt lat="45.08277" lon="5.80102">
        <ele>689.6</ele>
        <time>2021-05-29T11:17:19Z</time>
      </trkpt>
      <trkpt lat="45.08277" lon="5.80102">
        <ele>689.6</ele>
        <time>2021-05-29T11:17:20Z</time>
      </trkpt>
      <trkpt lat="45.08277" lon="5.80102">
        <ele>690</ele>
        <time>2021-05-29T11:17:21Z</time>
      </trkpt>
      <trkpt lat="45.08277" lon="5.80102">
        <ele>690.2</ele>
        <time>2021-05-29T11:17:22Z</time>
      </trkpt>
      <trkpt lat="45.08277" lon="5.80102">
        <ele>690.4</ele>
        <time>2021-05-29T11:17:23Z</time>
      </trkpt>
      <trkpt lat="45.08277" lon="5.80102">
        <ele>690.4</ele>
        <time>2021-05-29T11:17:24Z</time>
      </trkpt>
      <trkpt lat="45.08277" lon="5.80102">
        <ele>690.6</ele>
        <time>2021-05-29T11:17:25Z</time>
      </trkpt>
      <trkpt lat="45.08277" lon="5.80102">
        <ele>690.6</ele>
        <time>2021-05-29T11:17:26Z</time>
      </trkpt>
      <trkpt lat="45.08277" lon="5.80102">
        <ele>690.6</ele>
        <time>2021-05-29T11:17:27Z</time>
      </trkpt>
      <trkpt lat="45.08277" lon="5.80102">
        <ele>690.6</ele>
        <time>2021-05-29T11:17:28Z</time>
      </trkpt>
      <trkpt lat="45.08277" lon="5.80102">
        <ele>690.6</ele>
        <time>2021-05-29T11:17:29Z</time>
      </trkpt>
      <trkpt lat="45.08277" lon="5.80102">
        <ele>690.6</ele>
        <time>2021-05-29T11:17:30Z</time>
      </trkpt>
      <trkpt lat="45.08277" lon="5.80102">
        <ele>690.4</ele>
        <time>2021-05-29T11:17:31Z</time>
      </trkpt>
      <trkpt lat="45.08277" lon="5.80102">
        <ele>690.4</ele>
        <time>2021-05-29T11:17:32Z</time>
      </trkpt>
      <trkpt lat="45.08277" lon="5.80102">
        <ele>690.2</ele>
        <time>2021-05-29T11:17:33Z</time>
      </trkpt>
      <trkpt lat="45.08277" lon="5.80102">
        <ele>690.2</ele>
        <time>2021-05-29T11:17:34Z</time>
      </trkpt>
      <trkpt lat="45.08277" lon="5.80102">
        <ele>690.2</ele>
        <time>2021-05-29T11:17:35Z</time>
      </trkpt>
      <trkpt lat="45.08277" lon="5.80102">
        <ele>690.4</ele>
        <time>2021-05-29T11:17:36Z</time>
      </trkpt>
      <trkpt lat="45.08277" lon="5.80102">
        <ele>690.4</ele>
        <time>2021-05-29T11:17:37Z</time>
      </trkpt>
      <trkpt lat="45.08277" lon="5.80102">
        <ele>690.4</ele>
        <time>2021-05-29T11:17:38Z</time>
      </trkpt>
      <trkpt lat="45.08277" lon="5.80102">
        <ele>690.4</ele>
        <time>2021-05-29T11:17:39Z</time>
      </trkpt>
      <trkpt lat="45.08277" lon="5.80102">
        <ele>690.4</ele>
        <time>2021-05-29T11:17:40Z</time>
      </trkpt>
      <trkpt lat="45.08277" lon="5.80102">
        <ele>690.4</ele>
        <time>2021-05-29T11:17:41Z</time>
      </trkpt>
      <trkpt lat="45.08277" lon="5.80102">
        <ele>690.2</ele>
        <time>2021-05-29T11:17:42Z</time>
      </trkpt>
      <trkpt lat="45.08277" lon="5.80102">
        <ele>690.2</ele>
        <time>2021-05-29T11:17:43Z</time>
      </trkpt>
      <trkpt lat="45.08277" lon="5.80102">
        <ele>690</ele>
        <time>2021-05-29T11:17:44Z</time>
      </trkpt>
      <trkpt lat="45.08277" lon="5.80102">
        <ele>689.8</ele>
        <time>2021-05-29T11:17:45Z</time>
      </trkpt>
      <trkpt lat="45.08277" lon="5.80102">
        <ele>689.6</ele>
        <time>2021-05-29T11:17:46Z</time>
      </trkpt>
      <trkpt lat="45.08277" lon="5.80102">
        <ele>689.6</ele>
        <time>2021-05-29T11:17:47Z</time>
      </trkpt>
      <trkpt lat="45.08277" lon="5.80102">
        <ele>689.6</ele>
        <time>2021-05-29T11:17:48Z</time>
      </trkpt>
      <trkpt lat="45.08277" lon="5.80102">
        <ele>689.6</ele>
        <time>2021-05-29T11:17:49Z</time>
      </trkpt>
      <trkpt lat="45.08277" lon="5.80102">
        <ele>689.4</ele>
        <time>2021-05-29T11:17:50Z</time>
      </trkpt>
      <trkpt lat="45.08277" lon="5.80102">
        <ele>689.4</ele>
        <time>2021-05-29T11:17:51Z</time>
      </trkpt>
      <trkpt lat="45.08277" lon="5.80102">
        <ele>689.4</ele>
        <time>2021-05-29T11:17:52Z</time>
      </trkpt>
      <trkpt lat="45.08277" lon="5.80102">
        <ele>689.4</ele>
        <time>2021-05-29T11:17:53Z</time>
      </trkpt>
      <trkpt lat="45.08277" lon="5.80102">
        <ele>689.4</ele>
        <time>2021-05-29T11:17:54Z</time>
      </trkpt>
      <trkpt lat="45.08277" lon="5.80102">
        <ele>689.4</ele>
        <time>2021-05-29T11:17:55Z</time>
      </trkpt>
      <trkpt lat="45.08277" lon="5.80102">
        <ele>689.4</ele>
        <time>2021-05-29T11:17:56Z</time>
      </trkpt>
      <trkpt lat="45.08277" lon="5.80102">
        <ele>689.2</ele>
        <time>2021-05-29T11:17:57Z</time>
      </trkpt>
      <trkpt lat="45.08277" lon="5.80102">
        <ele>689.4</ele>
        <time>2021-05-29T11:17:58Z</time>
      </trkpt>
      <trkpt lat="45.08274" lon="5.801">
        <ele>689.4</ele>
        <time>2021-05-29T11:17:59Z</time>
      </trkpt>
      <trkpt lat="45.08274" lon="5.80097">
        <ele>689.4</ele>
        <time>2021-05-29T11:18:00Z</time>
      </trkpt>
      <trkpt lat="45.08274" lon="5.80097">
        <ele>689</ele>
        <time>2021-05-29T11:18:01Z</time>
      </trkpt>
      <trkpt lat="45.08274" lon="5.80097">
        <ele>689</ele>
        <time>2021-05-29T11:18:02Z</time>
      </trkpt>
      <trkpt lat="45.08274" lon="5.80097">
        <ele>689</ele>
        <time>2021-05-29T11:18:03Z</time>
      </trkpt>
      <trkpt lat="45.08274" lon="5.80097">
        <ele>688.8</ele>
        <time>2021-05-29T11:18:04Z</time>
      </trkpt>
      <trkpt lat="45.08274" lon="5.80096">
        <ele>688.8</ele>
        <time>2021-05-29T11:18:05Z</time>
      </trkpt>
      <trkpt lat="45.08275" lon="5.80096">
        <ele>689</ele>
        <time>2021-05-29T11:18:06Z</time>
      </trkpt>
      <trkpt lat="45.08275" lon="5.80095">
        <ele>688.8</ele>
        <time>2021-05-29T11:18:07Z</time>
      </trkpt>
      <trkpt lat="45.08275" lon="5.80095">
        <ele>688.6</ele>
        <time>2021-05-29T11:18:08Z</time>
      </trkpt>
      <trkpt lat="45.08275" lon="5.80094">
        <ele>688.8</ele>
        <time>2021-05-29T11:18:09Z</time>
      </trkpt>
      <trkpt lat="45.08275" lon="5.80094">
        <ele>688.6</ele>
        <time>2021-05-29T11:18:10Z</time>
      </trkpt>
      <trkpt lat="45.08275" lon="5.80094">
        <ele>688.4</ele>
        <time>2021-05-29T11:18:11Z</time>
      </trkpt>
      <trkpt lat="45.08276" lon="5.80093">
        <ele>688.4</ele>
        <time>2021-05-29T11:18:12Z</time>
      </trkpt>
      <trkpt lat="45.08276" lon="5.80093">
        <ele>688.2</ele>
        <time>2021-05-29T11:18:13Z</time>
      </trkpt>
      <trkpt lat="45.08276" lon="5.80092">
        <ele>688</ele>
        <time>2021-05-29T11:18:14Z</time>
      </trkpt>
      <trkpt lat="45.08276" lon="5.80092">
        <ele>688</ele>
        <time>2021-05-29T11:18:15Z</time>
      </trkpt>
      <trkpt lat="45.08276" lon="5.80092">
        <ele>687.8</ele>
        <time>2021-05-29T11:18:16Z</time>
      </trkpt>
      <trkpt lat="45.08277" lon="5.80091">
        <ele>687.8</ele>
        <time>2021-05-29T11:18:17Z</time>
      </trkpt>
      <trkpt lat="45.08277" lon="5.80091">
        <ele>687.8</ele>
        <time>2021-05-29T11:18:18Z</time>
      </trkpt>
      <trkpt lat="45.08277" lon="5.8009">
        <ele>688</ele>
        <time>2021-05-29T11:18:19Z</time>
      </trkpt>
      <trkpt lat="45.08277" lon="5.8009">
        <ele>687.8</ele>
        <time>2021-05-29T11:18:20Z</time>
      </trkpt>
      <trkpt lat="45.08277" lon="5.80089">
        <ele>688</ele>
        <time>2021-05-29T11:18:21Z</time>
      </trkpt>
      <trkpt lat="45.08278" lon="5.80089">
        <ele>688</ele>
        <time>2021-05-29T11:18:22Z</time>
      </trkpt>
      <trkpt lat="45.08278" lon="5.80089">
        <ele>688.2</ele>
        <time>2021-05-29T11:18:23Z</time>
      </trkpt>
      <trkpt lat="45.08278" lon="5.80088">
        <ele>688.4</ele>
        <time>2021-05-29T11:18:24Z</time>
      </trkpt>
      <trkpt lat="45.08278" lon="5.80088">
        <ele>688.6</ele>
        <time>2021-05-29T11:18:25Z</time>
      </trkpt>
      <trkpt lat="45.08278" lon="5.80087">
        <ele>688.4</ele>
        <time>2021-05-29T11:18:26Z</time>
      </trkpt>
      <trkpt lat="45.08279" lon="5.80087">
        <ele>688.4</ele>
        <time>2021-05-29T11:18:27Z</time>
      </trkpt>
      <trkpt lat="45.08279" lon="5.80086">
        <ele>688.4</ele>
        <time>2021-05-29T11:18:28Z</time>
      </trkpt>
      <trkpt lat="45.08279" lon="5.80086">
        <ele>688.4</ele>
        <time>2021-05-29T11:18:29Z</time>
      </trkpt>
      <trkpt lat="45.08279" lon="5.80086">
        <ele>688.2</ele>
        <time>2021-05-29T11:18:30Z</time>
      </trkpt>
      <trkpt lat="45.08279" lon="5.80086">
        <ele>688.2</ele>
        <time>2021-05-29T11:18:31Z</time>
      </trkpt>
      <trkpt lat="45.0828" lon="5.80085">
        <ele>688</ele>
        <time>2021-05-29T11:18:32Z</time>
      </trkpt>
      <trkpt lat="45.0828" lon="5.80085">
        <ele>688</ele>
        <time>2021-05-29T11:18:33Z</time>
      </trkpt>
      <trkpt lat="45.0828" lon="5.80085">
        <ele>687.8</ele>
        <time>2021-05-29T11:18:34Z</time>
      </trkpt>
      <trkpt lat="45.0828" lon="5.80085">
        <ele>687.6</ele>
        <time>2021-05-29T11:18:35Z</time>
      </trkpt>
      <trkpt lat="45.0828" lon="5.80085">
        <ele>687.6</ele>
        <time>2021-05-29T11:18:36Z</time>
      </trkpt>
      <trkpt lat="45.08281" lon="5.80085">
        <ele>687.8</ele>
        <time>2021-05-29T11:18:37Z</time>
      </trkpt>
      <trkpt lat="45.08281" lon="5.80085">
        <ele>688.2</ele>
        <time>2021-05-29T11:18:38Z</time>
      </trkpt>
      <trkpt lat="45.08281" lon="5.80084">
        <ele>688.4</ele>
        <time>2021-05-29T11:18:39Z</time>
      </trkpt>
      <trkpt lat="45.08281" lon="5.80084">
        <ele>688.8</ele>
        <time>2021-05-29T11:18:40Z</time>
      </trkpt>
      <trkpt lat="45.08282" lon="5.80084">
        <ele>688.8</ele>
        <time>2021-05-29T11:18:41Z</time>
      </trkpt>
      <trkpt lat="45.08282" lon="5.80084">
        <ele>689</ele>
        <time>2021-05-29T11:18:42Z</time>
      </trkpt>
      <trkpt lat="45.08282" lon="5.80084">
        <ele>689.2</ele>
        <time>2021-05-29T11:18:43Z</time>
      </trkpt>
      <trkpt lat="45.08282" lon="5.80084">
        <ele>689.2</ele>
        <time>2021-05-29T11:18:44Z</time>
      </trkpt>
      <trkpt lat="45.08283" lon="5.80084">
        <ele>689.2</ele>
        <time>2021-05-29T11:18:45Z</time>
      </trkpt>
      <trkpt lat="45.08283" lon="5.80084">
        <ele>689.2</ele>
        <time>2021-05-29T11:18:46Z</time>
      </trkpt>
      <trkpt lat="45.08283" lon="5.80083">
        <ele>688.8</ele>
        <time>2021-05-29T11:18:47Z</time>
      </trkpt>
      <trkpt lat="45.08283" lon="5.80083">
        <ele>688.4</ele>
        <time>2021-05-29T11:18:48Z</time>
      </trkpt>
      <trkpt lat="45.08283" lon="5.80083">
        <ele>688</ele>
        <time>2021-05-29T11:18:49Z</time>
      </trkpt>
      <trkpt lat="45.08284" lon="5.80083">
        <ele>687.8</ele>
        <time>2021-05-29T11:18:50Z</time>
      </trkpt>
      <trkpt lat="45.08284" lon="5.80083">
        <ele>687.6</ele>
        <time>2021-05-29T11:18:51Z</time>
      </trkpt>
      <trkpt lat="45.08284" lon="5.80083">
        <ele>687.8</ele>
        <time>2021-05-29T11:18:52Z</time>
      </trkpt>
      <trkpt lat="45.08284" lon="5.80083">
        <ele>687.6</ele>
        <time>2021-05-29T11:18:53Z</time>
      </trkpt>
      <trkpt lat="45.08285" lon="5.80083">
        <ele>687.4</ele>
        <time>2021-05-29T11:18:54Z</time>
      </trkpt>
      <trkpt lat="45.08285" lon="5.80082">
        <ele>687</ele>
        <time>2021-05-29T11:18:55Z</time>
      </trkpt>
      <trkpt lat="45.08285" lon="5.80082">
        <ele>686.6</ele>
        <time>2021-05-29T11:18:56Z</time>
      </trkpt>
      <trkpt lat="45.08285" lon="5.80082">
        <ele>686.4</ele>
        <time>2021-05-29T11:18:57Z</time>
      </trkpt>
      <trkpt lat="45.08285" lon="5.80082">
        <ele>686.4</ele>
        <time>2021-05-29T11:18:58Z</time>
      </trkpt>
      <trkpt lat="45.08286" lon="5.80082">
        <ele>686.2</ele>
        <time>2021-05-29T11:18:59Z</time>
      </trkpt>
      <trkpt lat="45.08286" lon="5.80082">
        <ele>686</ele>
        <time>2021-05-29T11:19:00Z</time>
      </trkpt>
      <trkpt lat="45.08286" lon="5.80082">
        <ele>686</ele>
        <time>2021-05-29T11:19:01Z</time>
      </trkpt>
      <trkpt lat="45.08286" lon="5.80081">
        <ele>686</ele>
        <time>2021-05-29T11:19:02Z</time>
      </trkpt>
      <trkpt lat="45.08287" lon="5.80081">
        <ele>685.8</ele>
        <time>2021-05-29T11:19:03Z</time>
      </trkpt>
      <trkpt lat="45.08287" lon="5.80081">
        <ele>686</ele>
        <time>2021-05-29T11:19:04Z</time>
      </trkpt>
      <trkpt lat="45.08287" lon="5.80081">
        <ele>685.8</ele>
        <time>2021-05-29T11:19:05Z</time>
      </trkpt>
      <trkpt lat="45.08287" lon="5.80081">
        <ele>685.8</ele>
        <time>2021-05-29T11:19:06Z</time>
      </trkpt>
      <trkpt lat="45.08287" lon="5.80081">
        <ele>685.8</ele>
        <time>2021-05-29T11:19:07Z</time>
      </trkpt>
      <trkpt lat="45.0829" lon="5.80082">
        <ele>685.8</ele>
        <time>2021-05-29T11:19:08Z</time>
      </trkpt>
      <trkpt lat="45.08293" lon="5.80084">
        <ele>686</ele>
        <time>2021-05-29T11:19:09Z</time>
      </trkpt>
      <trkpt lat="45.08295" lon="5.80085">
        <ele>685.8</ele>
        <time>2021-05-29T11:19:10Z</time>
      </trkpt>
      <trkpt lat="45.08298" lon="5.80086">
        <ele>685.6</ele>
        <time>2021-05-29T11:19:11Z</time>
      </trkpt>
      <trkpt lat="45.08299" lon="5.80087">
        <ele>685.6</ele>
        <time>2021-05-29T11:19:12Z</time>
      </trkpt>
      <trkpt lat="45.08301" lon="5.80087">
        <ele>685.4</ele>
        <time>2021-05-29T11:19:13Z</time>
      </trkpt>
      <trkpt lat="45.08302" lon="5.80088">
        <ele>685.4</ele>
        <time>2021-05-29T11:19:14Z</time>
      </trkpt>
      <trkpt lat="45.08304" lon="5.80088">
        <ele>685.4</ele>
        <time>2021-05-29T11:19:15Z</time>
      </trkpt>
      <trkpt lat="45.08306" lon="5.80088">
        <ele>685.4</ele>
        <time>2021-05-29T11:19:16Z</time>
      </trkpt>
      <trkpt lat="45.08307" lon="5.80089">
        <ele>685.4</ele>
        <time>2021-05-29T11:19:17Z</time>
      </trkpt>
      <trkpt lat="45.08309" lon="5.80089">
        <ele>685.4</ele>
        <time>2021-05-29T11:19:18Z</time>
      </trkpt>
      <trkpt lat="45.0831" lon="5.8009">
        <ele>685.2</ele>
        <time>2021-05-29T11:19:19Z</time>
      </trkpt>
      <trkpt lat="45.08312" lon="5.8009">
        <ele>685</ele>
        <time>2021-05-29T11:19:20Z</time>
      </trkpt>
      <trkpt lat="45.08314" lon="5.80091">
        <ele>685</ele>
        <time>2021-05-29T11:19:21Z</time>
      </trkpt>
      <trkpt lat="45.08315" lon="5.80092">
        <ele>684.8</ele>
        <time>2021-05-29T11:19:22Z</time>
      </trkpt>
      <trkpt lat="45.08317" lon="5.80092">
        <ele>684.6</ele>
        <time>2021-05-29T11:19:23Z</time>
      </trkpt>
      <trkpt lat="45.08318" lon="5.80093">
        <ele>684.8</ele>
        <time>2021-05-29T11:19:24Z</time>
      </trkpt>
      <trkpt lat="45.08319" lon="5.80094">
        <ele>684.8</ele>
        <time>2021-05-29T11:19:25Z</time>
      </trkpt>
      <trkpt lat="45.08321" lon="5.80095">
        <ele>684.6</ele>
        <time>2021-05-29T11:19:26Z</time>
      </trkpt>
      <trkpt lat="45.08322" lon="5.80096">
        <ele>684.6</ele>
        <time>2021-05-29T11:19:27Z</time>
      </trkpt>
      <trkpt lat="45.08323" lon="5.80096">
        <ele>684.6</ele>
        <time>2021-05-29T11:19:28Z</time>
      </trkpt>
      <trkpt lat="45.08325" lon="5.80097">
        <ele>684.8</ele>
        <time>2021-05-29T11:19:29Z</time>
      </trkpt>
      <trkpt lat="45.08326" lon="5.80098">
        <ele>685</ele>
        <time>2021-05-29T11:19:30Z</time>
      </trkpt>
      <trkpt lat="45.08327" lon="5.80098">
        <ele>684.8</ele>
        <time>2021-05-29T11:19:31Z</time>
      </trkpt>
      <trkpt lat="45.08328" lon="5.80099">
        <ele>684.6</ele>
        <time>2021-05-29T11:19:32Z</time>
      </trkpt>
      <trkpt lat="45.08329" lon="5.80099">
        <ele>684.8</ele>
        <time>2021-05-29T11:19:33Z</time>
      </trkpt>
      <trkpt lat="45.08329" lon="5.80099">
        <ele>684.8</ele>
        <time>2021-05-29T11:19:34Z</time>
      </trkpt>
      <trkpt lat="45.0833" lon="5.801">
        <ele>684.6</ele>
        <time>2021-05-29T11:19:35Z</time>
      </trkpt>
      <trkpt lat="45.08331" lon="5.801">
        <ele>684.6</ele>
        <time>2021-05-29T11:19:36Z</time>
      </trkpt>
      <trkpt lat="45.08332" lon="5.801">
        <ele>684.8</ele>
        <time>2021-05-29T11:19:37Z</time>
      </trkpt>
      <trkpt lat="45.08333" lon="5.80101">
        <ele>684.8</ele>
        <time>2021-05-29T11:19:38Z</time>
      </trkpt>
      <trkpt lat="45.08334" lon="5.80101">
        <ele>684.8</ele>
        <time>2021-05-29T11:19:39Z</time>
      </trkpt>
      <trkpt lat="45.08335" lon="5.80101">
        <ele>685</ele>
        <time>2021-05-29T11:19:40Z</time>
      </trkpt>
      <trkpt lat="45.08335" lon="5.80102">
        <ele>685</ele>
        <time>2021-05-29T11:19:41Z</time>
      </trkpt>
      <trkpt lat="45.08336" lon="5.80103">
        <ele>685.2</ele>
        <time>2021-05-29T11:19:42Z</time>
      </trkpt>
      <trkpt lat="45.08337" lon="5.80103">
        <ele>685.4</ele>
        <time>2021-05-29T11:19:43Z</time>
      </trkpt>
      <trkpt lat="45.08338" lon="5.80104">
        <ele>685.8</ele>
        <time>2021-05-29T11:19:44Z</time>
      </trkpt>
      <trkpt lat="45.08339" lon="5.80105">
        <ele>686.2</ele>
        <time>2021-05-29T11:19:45Z</time>
      </trkpt>
      <trkpt lat="45.0834" lon="5.80106">
        <ele>686.2</ele>
        <time>2021-05-29T11:19:46Z</time>
      </trkpt>
      <trkpt lat="45.08341" lon="5.80106">
        <ele>686.4</ele>
        <time>2021-05-29T11:19:47Z</time>
      </trkpt>
      <trkpt lat="45.08342" lon="5.80107">
        <ele>686.4</ele>
        <time>2021-05-29T11:19:48Z</time>
      </trkpt>
      <trkpt lat="45.08343" lon="5.80108">
        <ele>686.2</ele>
        <time>2021-05-29T11:19:49Z</time>
      </trkpt>
      <trkpt lat="45.08344" lon="5.80109">
        <ele>686</ele>
        <time>2021-05-29T11:19:50Z</time>
      </trkpt>
      <trkpt lat="45.08346" lon="5.80109">
        <ele>686</ele>
        <time>2021-05-29T11:19:51Z</time>
      </trkpt>
      <trkpt lat="45.08347" lon="5.8011">
        <ele>685.8</ele>
        <time>2021-05-29T11:19:52Z</time>
      </trkpt>
      <trkpt lat="45.08348" lon="5.80111">
        <ele>685.8</ele>
        <time>2021-05-29T11:19:53Z</time>
      </trkpt>
      <trkpt lat="45.08349" lon="5.80112">
        <ele>685.8</ele>
        <time>2021-05-29T11:19:54Z</time>
      </trkpt>
      <trkpt lat="45.08351" lon="5.80112">
        <ele>685.6</ele>
        <time>2021-05-29T11:19:55Z</time>
      </trkpt>
      <trkpt lat="45.08352" lon="5.80113">
        <ele>685.8</ele>
        <time>2021-05-29T11:19:56Z</time>
      </trkpt>
      <trkpt lat="45.08353" lon="5.80114">
        <ele>685.8</ele>
        <time>2021-05-29T11:19:57Z</time>
      </trkpt>
      <trkpt lat="45.08353" lon="5.80114">
        <ele>686</ele>
        <time>2021-05-29T11:19:58Z</time>
      </trkpt>
      <trkpt lat="45.08356" lon="5.80116">
        <ele>686</ele>
        <time>2021-05-29T11:19:59Z</time>
      </trkpt>
      <trkpt lat="45.08356" lon="5.80116">
        <ele>685.8</ele>
        <time>2021-05-29T11:20:00Z</time>
      </trkpt>
      <trkpt lat="45.08356" lon="5.80116">
        <ele>686.2</ele>
        <time>2021-05-29T11:20:01Z</time>
      </trkpt>
      <trkpt lat="45.08356" lon="5.80116">
        <ele>686.4</ele>
        <time>2021-05-29T11:20:02Z</time>
      </trkpt>
      <trkpt lat="45.08357" lon="5.80116">
        <ele>686.2</ele>
        <time>2021-05-29T11:20:03Z</time>
      </trkpt>
      <trkpt lat="45.08358" lon="5.80116">
        <ele>686</ele>
        <time>2021-05-29T11:20:04Z</time>
      </trkpt>
      <trkpt lat="45.08358" lon="5.80116">
        <ele>686</ele>
        <time>2021-05-29T11:20:05Z</time>
      </trkpt>
      <trkpt lat="45.08359" lon="5.80116">
        <ele>686</ele>
        <time>2021-05-29T11:20:06Z</time>
      </trkpt>
      <trkpt lat="45.08359" lon="5.80116">
        <ele>686</ele>
        <time>2021-05-29T11:20:07Z</time>
      </trkpt>
      <trkpt lat="45.0836" lon="5.80116">
        <ele>686</ele>
        <time>2021-05-29T11:20:08Z</time>
      </trkpt>
      <trkpt lat="45.08361" lon="5.80116">
        <ele>685.8</ele>
        <time>2021-05-29T11:20:09Z</time>
      </trkpt>
      <trkpt lat="45.08361" lon="5.80116">
        <ele>686</ele>
        <time>2021-05-29T11:20:10Z</time>
      </trkpt>
      <trkpt lat="45.08362" lon="5.80116">
        <ele>686</ele>
        <time>2021-05-29T11:20:11Z</time>
      </trkpt>
      <trkpt lat="45.08363" lon="5.80116">
        <ele>686</ele>
        <time>2021-05-29T11:20:12Z</time>
      </trkpt>
      <trkpt lat="45.08363" lon="5.80116">
        <ele>686.2</ele>
        <time>2021-05-29T11:20:13Z</time>
      </trkpt>
      <trkpt lat="45.08364" lon="5.80116">
        <ele>686.6</ele>
        <time>2021-05-29T11:20:14Z</time>
      </trkpt>
      <trkpt lat="45.08364" lon="5.80116">
        <ele>686.6</ele>
        <time>2021-05-29T11:20:15Z</time>
      </trkpt>
      <trkpt lat="45.08365" lon="5.80116">
        <ele>687</ele>
        <time>2021-05-29T11:20:16Z</time>
      </trkpt>
      <trkpt lat="45.08366" lon="5.80116">
        <ele>687</ele>
        <time>2021-05-29T11:20:17Z</time>
      </trkpt>
      <trkpt lat="45.08366" lon="5.80116">
        <ele>687.2</ele>
        <time>2021-05-29T11:20:18Z</time>
      </trkpt>
      <trkpt lat="45.08367" lon="5.80117">
        <ele>687.4</ele>
        <time>2021-05-29T11:20:19Z</time>
      </trkpt>
      <trkpt lat="45.08368" lon="5.80118">
        <ele>687.4</ele>
        <time>2021-05-29T11:20:20Z</time>
      </trkpt>
      <trkpt lat="45.08369" lon="5.80119">
        <ele>687.4</ele>
        <time>2021-05-29T11:20:21Z</time>
      </trkpt>
      <trkpt lat="45.08369" lon="5.8012">
        <ele>687.6</ele>
        <time>2021-05-29T11:20:22Z</time>
      </trkpt>
      <trkpt lat="45.0837" lon="5.80121">
        <ele>687.8</ele>
        <time>2021-05-29T11:20:23Z</time>
      </trkpt>
      <trkpt lat="45.08371" lon="5.80122">
        <ele>688</ele>
        <time>2021-05-29T11:20:24Z</time>
      </trkpt>
      <trkpt lat="45.08372" lon="5.80123">
        <ele>688</ele>
        <time>2021-05-29T11:20:25Z</time>
      </trkpt>
      <trkpt lat="45.08372" lon="5.80124">
        <ele>688.2</ele>
        <time>2021-05-29T11:20:26Z</time>
      </trkpt>
      <trkpt lat="45.08373" lon="5.80125">
        <ele>688.4</ele>
        <time>2021-05-29T11:20:27Z</time>
      </trkpt>
      <trkpt lat="45.08374" lon="5.80126">
        <ele>688.8</ele>
        <time>2021-05-29T11:20:28Z</time>
      </trkpt>
      <trkpt lat="45.08376" lon="5.80127">
        <ele>689</ele>
        <time>2021-05-29T11:20:29Z</time>
      </trkpt>
      <trkpt lat="45.08377" lon="5.80128">
        <ele>689.2</ele>
        <time>2021-05-29T11:20:30Z</time>
      </trkpt>
      <trkpt lat="45.08379" lon="5.8013">
        <ele>689.4</ele>
        <time>2021-05-29T11:20:31Z</time>
      </trkpt>
      <trkpt lat="45.08381" lon="5.80131">
        <ele>689.6</ele>
        <time>2021-05-29T11:20:32Z</time>
      </trkpt>
      <trkpt lat="45.08382" lon="5.80132">
        <ele>689.8</ele>
        <time>2021-05-29T11:20:33Z</time>
      </trkpt>
      <trkpt lat="45.08383" lon="5.80133">
        <ele>690</ele>
        <time>2021-05-29T11:20:34Z</time>
      </trkpt>
      <trkpt lat="45.08385" lon="5.80134">
        <ele>690.4</ele>
        <time>2021-05-29T11:20:35Z</time>
      </trkpt>
      <trkpt lat="45.08386" lon="5.80134">
        <ele>690.6</ele>
        <time>2021-05-29T11:20:36Z</time>
      </trkpt>
      <trkpt lat="45.08387" lon="5.80135">
        <ele>691</ele>
        <time>2021-05-29T11:20:37Z</time>
      </trkpt>
      <trkpt lat="45.08388" lon="5.80136">
        <ele>691.4</ele>
        <time>2021-05-29T11:20:38Z</time>
      </trkpt>
      <trkpt lat="45.08389" lon="5.80136">
        <ele>691.6</ele>
        <time>2021-05-29T11:20:39Z</time>
      </trkpt>
      <trkpt lat="45.08391" lon="5.80137">
        <ele>691.8</ele>
        <time>2021-05-29T11:20:40Z</time>
      </trkpt>
      <trkpt lat="45.08392" lon="5.80138">
        <ele>692</ele>
        <time>2021-05-29T11:20:41Z</time>
      </trkpt>
      <trkpt lat="45.08393" lon="5.80139">
        <ele>692.2</ele>
        <time>2021-05-29T11:20:42Z</time>
      </trkpt>
      <trkpt lat="45.08393" lon="5.8014">
        <ele>692.2</ele>
        <time>2021-05-29T11:20:43Z</time>
      </trkpt>
      <trkpt lat="45.08394" lon="5.80141">
        <ele>692.4</ele>
        <time>2021-05-29T11:20:44Z</time>
      </trkpt>
      <trkpt lat="45.08395" lon="5.80142">
        <ele>692.8</ele>
        <time>2021-05-29T11:20:45Z</time>
      </trkpt>
      <trkpt lat="45.08396" lon="5.80143">
        <ele>693</ele>
        <time>2021-05-29T11:20:46Z</time>
      </trkpt>
      <trkpt lat="45.08397" lon="5.80143">
        <ele>693.4</ele>
        <time>2021-05-29T11:20:47Z</time>
      </trkpt>
      <trkpt lat="45.08398" lon="5.80144">
        <ele>693.8</ele>
        <time>2021-05-29T11:20:48Z</time>
      </trkpt>
      <trkpt lat="45.08399" lon="5.80145">
        <ele>694</ele>
        <time>2021-05-29T11:20:49Z</time>
      </trkpt>
      <trkpt lat="45.084" lon="5.80147">
        <ele>694.4</ele>
        <time>2021-05-29T11:20:50Z</time>
      </trkpt>
      <trkpt lat="45.08401" lon="5.80148">
        <ele>694.6</ele>
        <time>2021-05-29T11:20:51Z</time>
      </trkpt>
      <trkpt lat="45.08401" lon="5.8015">
        <ele>694.8</ele>
        <time>2021-05-29T11:20:52Z</time>
      </trkpt>
      <trkpt lat="45.08402" lon="5.80151">
        <ele>695</ele>
        <time>2021-05-29T11:20:53Z</time>
      </trkpt>
      <trkpt lat="45.08403" lon="5.80153">
        <ele>695.2</ele>
        <time>2021-05-29T11:20:54Z</time>
      </trkpt>
      <trkpt lat="45.08404" lon="5.80154">
        <ele>695.6</ele>
        <time>2021-05-29T11:20:55Z</time>
      </trkpt>
      <trkpt lat="45.08404" lon="5.80156">
        <ele>696</ele>
        <time>2021-05-29T11:20:56Z</time>
      </trkpt>
      <trkpt lat="45.08405" lon="5.80157">
        <ele>696.2</ele>
        <time>2021-05-29T11:20:57Z</time>
      </trkpt>
      <trkpt lat="45.08406" lon="5.80158">
        <ele>696.4</ele>
        <time>2021-05-29T11:20:58Z</time>
      </trkpt>
      <trkpt lat="45.08406" lon="5.80158">
        <ele>696.6</ele>
        <time>2021-05-29T11:20:59Z</time>
      </trkpt>
      <trkpt lat="45.08407" lon="5.80159">
        <ele>697</ele>
        <time>2021-05-29T11:21:00Z</time>
      </trkpt>
      <trkpt lat="45.08408" lon="5.8016">
        <ele>697.2</ele>
        <time>2021-05-29T11:21:01Z</time>
      </trkpt>
      <trkpt lat="45.08408" lon="5.80161">
        <ele>697.2</ele>
        <time>2021-05-29T11:21:02Z</time>
      </trkpt>
      <trkpt lat="45.08409" lon="5.80162">
        <ele>697.2</ele>
        <time>2021-05-29T11:21:03Z</time>
      </trkpt>
      <trkpt lat="45.0841" lon="5.80163">
        <ele>697.4</ele>
        <time>2021-05-29T11:21:04Z</time>
      </trkpt>
      <trkpt lat="45.0841" lon="5.80164">
        <ele>697.8</ele>
        <time>2021-05-29T11:21:05Z</time>
      </trkpt>
      <trkpt lat="45.08411" lon="5.80165">
        <ele>698.2</ele>
        <time>2021-05-29T11:21:06Z</time>
      </trkpt>
      <trkpt lat="45.08412" lon="5.80166">
        <ele>698.4</ele>
        <time>2021-05-29T11:21:07Z</time>
      </trkpt>
      <trkpt lat="45.08412" lon="5.80167">
        <ele>698.6</ele>
        <time>2021-05-29T11:21:08Z</time>
      </trkpt>
      <trkpt lat="45.08413" lon="5.80169">
        <ele>699</ele>
        <time>2021-05-29T11:21:09Z</time>
      </trkpt>
      <trkpt lat="45.08414" lon="5.8017">
        <ele>699.4</ele>
        <time>2021-05-29T11:21:10Z</time>
      </trkpt>
      <trkpt lat="45.08415" lon="5.80171">
        <ele>699.6</ele>
        <time>2021-05-29T11:21:11Z</time>
      </trkpt>
      <trkpt lat="45.08415" lon="5.80173">
        <ele>699.8</ele>
        <time>2021-05-29T11:21:12Z</time>
      </trkpt>
      <trkpt lat="45.08416" lon="5.80174">
        <ele>700.2</ele>
        <time>2021-05-29T11:21:13Z</time>
      </trkpt>
      <trkpt lat="45.08417" lon="5.80175">
        <ele>700.6</ele>
        <time>2021-05-29T11:21:14Z</time>
      </trkpt>
      <trkpt lat="45.08417" lon="5.80176">
        <ele>700.8</ele>
        <time>2021-05-29T11:21:15Z</time>
      </trkpt>
      <trkpt lat="45.08418" lon="5.80177">
        <ele>701</ele>
        <time>2021-05-29T11:21:16Z</time>
      </trkpt>
      <trkpt lat="45.08418" lon="5.80178">
        <ele>701</ele>
        <time>2021-05-29T11:21:17Z</time>
      </trkpt>
      <trkpt lat="45.08419" lon="5.80179">
        <ele>701</ele>
        <time>2021-05-29T11:21:18Z</time>
      </trkpt>
      <trkpt lat="45.08419" lon="5.8018">
        <ele>701.2</ele>
        <time>2021-05-29T11:21:19Z</time>
      </trkpt>
      <trkpt lat="45.0842" lon="5.80181">
        <ele>701.8</ele>
        <time>2021-05-29T11:21:20Z</time>
      </trkpt>
      <trkpt lat="45.0842" lon="5.80182">
        <ele>702</ele>
        <time>2021-05-29T11:21:21Z</time>
      </trkpt>
      <trkpt lat="45.08421" lon="5.80183">
        <ele>702</ele>
        <time>2021-05-29T11:21:22Z</time>
      </trkpt>
      <trkpt lat="45.08421" lon="5.80184">
        <ele>702.2</ele>
        <time>2021-05-29T11:21:23Z</time>
      </trkpt>
      <trkpt lat="45.08422" lon="5.80185">
        <ele>702.4</ele>
        <time>2021-05-29T11:21:24Z</time>
      </trkpt>
      <trkpt lat="45.08422" lon="5.80186">
        <ele>702.8</ele>
        <time>2021-05-29T11:21:25Z</time>
      </trkpt>
      <trkpt lat="45.08422" lon="5.80187">
        <ele>703.2</ele>
        <time>2021-05-29T11:21:26Z</time>
      </trkpt>
      <trkpt lat="45.08422" lon="5.80188">
        <ele>703.2</ele>
        <time>2021-05-29T11:21:27Z</time>
      </trkpt>
      <trkpt lat="45.08422" lon="5.80189">
        <ele>703.6</ele>
        <time>2021-05-29T11:21:28Z</time>
      </trkpt>
      <trkpt lat="45.08422" lon="5.8019">
        <ele>704</ele>
        <time>2021-05-29T11:21:29Z</time>
      </trkpt>
      <trkpt lat="45.08422" lon="5.80191">
        <ele>704.2</ele>
        <time>2021-05-29T11:21:30Z</time>
      </trkpt>
      <trkpt lat="45.08422" lon="5.80192">
        <ele>704.4</ele>
        <time>2021-05-29T11:21:31Z</time>
      </trkpt>
      <trkpt lat="45.08422" lon="5.80193">
        <ele>704.6</ele>
        <time>2021-05-29T11:21:32Z</time>
      </trkpt>
      <trkpt lat="45.08422" lon="5.80194">
        <ele>704.8</ele>
        <time>2021-05-29T11:21:33Z</time>
      </trkpt>
      <trkpt lat="45.08422" lon="5.80195">
        <ele>705.2</ele>
        <time>2021-05-29T11:21:34Z</time>
      </trkpt>
      <trkpt lat="45.08422" lon="5.80195">
        <ele>705.2</ele>
        <time>2021-05-29T11:21:35Z</time>
      </trkpt>
      <trkpt lat="45.08422" lon="5.80196">
        <ele>705.2</ele>
        <time>2021-05-29T11:21:36Z</time>
      </trkpt>
      <trkpt lat="45.08422" lon="5.80197">
        <ele>705.2</ele>
        <time>2021-05-29T11:21:37Z</time>
      </trkpt>
      <trkpt lat="45.08422" lon="5.80198">
        <ele>705.2</ele>
        <time>2021-05-29T11:21:38Z</time>
      </trkpt>
      <trkpt lat="45.08422" lon="5.80199">
        <ele>705.2</ele>
        <time>2021-05-29T11:21:39Z</time>
      </trkpt>
      <trkpt lat="45.08423" lon="5.80201">
        <ele>705.2</ele>
        <time>2021-05-29T11:21:40Z</time>
      </trkpt>
      <trkpt lat="45.08423" lon="5.80202">
        <ele>705.4</ele>
        <time>2021-05-29T11:21:41Z</time>
      </trkpt>
      <trkpt lat="45.08424" lon="5.80204">
        <ele>705.4</ele>
        <time>2021-05-29T11:21:42Z</time>
      </trkpt>
      <trkpt lat="45.08425" lon="5.80206">
        <ele>705.4</ele>
        <time>2021-05-29T11:21:43Z</time>
      </trkpt>
      <trkpt lat="45.08425" lon="5.80207">
        <ele>705.4</ele>
        <time>2021-05-29T11:21:44Z</time>
      </trkpt>
      <trkpt lat="45.08426" lon="5.80209">
        <ele>705.6</ele>
        <time>2021-05-29T11:21:45Z</time>
      </trkpt>
      <trkpt lat="45.08427" lon="5.8021">
        <ele>705.6</ele>
        <time>2021-05-29T11:21:46Z</time>
      </trkpt>
      <trkpt lat="45.08427" lon="5.80212">
        <ele>705.6</ele>
        <time>2021-05-29T11:21:47Z</time>
      </trkpt>
      <trkpt lat="45.08428" lon="5.80214">
        <ele>705.8</ele>
        <time>2021-05-29T11:21:48Z</time>
      </trkpt>
      <trkpt lat="45.08429" lon="5.80215">
        <ele>705.8</ele>
        <time>2021-05-29T11:21:49Z</time>
      </trkpt>
      <trkpt lat="45.0843" lon="5.80217">
        <ele>706</ele>
        <time>2021-05-29T11:21:50Z</time>
      </trkpt>
      <trkpt lat="45.08431" lon="5.80218">
        <ele>706</ele>
        <time>2021-05-29T11:21:51Z</time>
      </trkpt>
      <trkpt lat="45.08432" lon="5.8022">
        <ele>706</ele>
        <time>2021-05-29T11:21:52Z</time>
      </trkpt>
      <trkpt lat="45.08433" lon="5.80221">
        <ele>706.2</ele>
        <time>2021-05-29T11:21:53Z</time>
      </trkpt>
      <trkpt lat="45.08433" lon="5.80223">
        <ele>706.2</ele>
        <time>2021-05-29T11:21:54Z</time>
      </trkpt>
      <trkpt lat="45.08434" lon="5.80225">
        <ele>706.4</ele>
        <time>2021-05-29T11:21:55Z</time>
      </trkpt>
      <trkpt lat="45.08434" lon="5.80227">
        <ele>706.4</ele>
        <time>2021-05-29T11:21:56Z</time>
      </trkpt>
      <trkpt lat="45.08435" lon="5.80229">
        <ele>706.4</ele>
        <time>2021-05-29T11:21:57Z</time>
      </trkpt>
      <trkpt lat="45.08435" lon="5.80231">
        <ele>706.6</ele>
        <time>2021-05-29T11:21:58Z</time>
      </trkpt>
      <trkpt lat="45.08436" lon="5.80233">
        <ele>706.8</ele>
        <time>2021-05-29T11:21:59Z</time>
      </trkpt>
      <trkpt lat="45.08436" lon="5.80235">
        <ele>707</ele>
        <time>2021-05-29T11:22:00Z</time>
      </trkpt>
      <trkpt lat="45.08437" lon="5.80237">
        <ele>707</ele>
        <time>2021-05-29T11:22:01Z</time>
      </trkpt>
      <trkpt lat="45.08437" lon="5.80239">
        <ele>707.4</ele>
        <time>2021-05-29T11:22:02Z</time>
      </trkpt>
      <trkpt lat="45.08437" lon="5.8024">
        <ele>707.4</ele>
        <time>2021-05-29T11:22:03Z</time>
      </trkpt>
      <trkpt lat="45.08438" lon="5.80242">
        <ele>707.6</ele>
        <time>2021-05-29T11:22:04Z</time>
      </trkpt>
      <trkpt lat="45.08438" lon="5.80244">
        <ele>707.6</ele>
        <time>2021-05-29T11:22:05Z</time>
      </trkpt>
      <trkpt lat="45.08438" lon="5.80245">
        <ele>707.8</ele>
        <time>2021-05-29T11:22:06Z</time>
      </trkpt>
      <trkpt lat="45.08439" lon="5.80247">
        <ele>707.8</ele>
        <time>2021-05-29T11:22:07Z</time>
      </trkpt>
      <trkpt lat="45.08439" lon="5.80249">
        <ele>708</ele>
        <time>2021-05-29T11:22:08Z</time>
      </trkpt>
      <trkpt lat="45.08439" lon="5.80251">
        <ele>708</ele>
        <time>2021-05-29T11:22:09Z</time>
      </trkpt>
      <trkpt lat="45.08439" lon="5.80252">
        <ele>708</ele>
        <time>2021-05-29T11:22:10Z</time>
      </trkpt>
      <trkpt lat="45.08439" lon="5.80254">
        <ele>708.2</ele>
        <time>2021-05-29T11:22:11Z</time>
      </trkpt>
      <trkpt lat="45.08439" lon="5.80256">
        <ele>708.4</ele>
        <time>2021-05-29T11:22:12Z</time>
      </trkpt>
      <trkpt lat="45.08439" lon="5.80258">
        <ele>708.6</ele>
        <time>2021-05-29T11:22:13Z</time>
      </trkpt>
      <trkpt lat="45.08439" lon="5.8026">
        <ele>708.6</ele>
        <time>2021-05-29T11:22:14Z</time>
      </trkpt>
      <trkpt lat="45.08439" lon="5.80262">
        <ele>709</ele>
        <time>2021-05-29T11:22:15Z</time>
      </trkpt>
      <trkpt lat="45.08439" lon="5.80264">
        <ele>709.2</ele>
        <time>2021-05-29T11:22:16Z</time>
      </trkpt>
      <trkpt lat="45.08439" lon="5.80264">
        <ele>709.2</ele>
        <time>2021-05-29T11:22:17Z</time>
      </trkpt>
      <trkpt lat="45.08438" lon="5.80265">
        <ele>709.2</ele>
        <time>2021-05-29T11:22:18Z</time>
      </trkpt>
      <trkpt lat="45.08437" lon="5.80265">
        <ele>709.4</ele>
        <time>2021-05-29T11:22:19Z</time>
      </trkpt>
      <trkpt lat="45.08437" lon="5.80265">
        <ele>709.4</ele>
        <time>2021-05-29T11:22:20Z</time>
      </trkpt>
      <trkpt lat="45.08436" lon="5.80265">
        <ele>709.4</ele>
        <time>2021-05-29T11:22:21Z</time>
      </trkpt>
      <trkpt lat="45.08435" lon="5.80265">
        <ele>709.4</ele>
        <time>2021-05-29T11:22:22Z</time>
      </trkpt>
      <trkpt lat="45.08434" lon="5.80265">
        <ele>709.6</ele>
        <time>2021-05-29T11:22:23Z</time>
      </trkpt>
      <trkpt lat="45.08434" lon="5.80266">
        <ele>709.6</ele>
        <time>2021-05-29T11:22:24Z</time>
      </trkpt>
      <trkpt lat="45.08433" lon="5.80266">
        <ele>710</ele>
        <time>2021-05-29T11:22:25Z</time>
      </trkpt>
      <trkpt lat="45.08432" lon="5.80266">
        <ele>710.2</ele>
        <time>2021-05-29T11:22:26Z</time>
      </trkpt>
      <trkpt lat="45.08431" lon="5.80266">
        <ele>710.6</ele>
        <time>2021-05-29T11:22:27Z</time>
      </trkpt>
      <trkpt lat="45.08431" lon="5.80266">
        <ele>710.8</ele>
        <time>2021-05-29T11:22:28Z</time>
      </trkpt>
      <trkpt lat="45.0843" lon="5.80267">
        <ele>711</ele>
        <time>2021-05-29T11:22:29Z</time>
      </trkpt>
      <trkpt lat="45.08431" lon="5.80267">
        <ele>711.2</ele>
        <time>2021-05-29T11:22:30Z</time>
      </trkpt>
      <trkpt lat="45.08431" lon="5.80268">
        <ele>711.2</ele>
        <time>2021-05-29T11:22:31Z</time>
      </trkpt>
      <trkpt lat="45.08432" lon="5.80268">
        <ele>711.4</ele>
        <time>2021-05-29T11:22:32Z</time>
      </trkpt>
      <trkpt lat="45.08433" lon="5.80269">
        <ele>711.6</ele>
        <time>2021-05-29T11:22:33Z</time>
      </trkpt>
      <trkpt lat="45.08434" lon="5.8027">
        <ele>711.8</ele>
        <time>2021-05-29T11:22:34Z</time>
      </trkpt>
      <trkpt lat="45.08434" lon="5.8027">
        <ele>711.8</ele>
        <time>2021-05-29T11:22:35Z</time>
      </trkpt>
      <trkpt lat="45.08435" lon="5.80271">
        <ele>712</ele>
        <time>2021-05-29T11:22:36Z</time>
      </trkpt>
      <trkpt lat="45.08436" lon="5.80271">
        <ele>712.2</ele>
        <time>2021-05-29T11:22:37Z</time>
      </trkpt>
      <trkpt lat="45.08437" lon="5.80272">
        <ele>712.6</ele>
        <time>2021-05-29T11:22:38Z</time>
      </trkpt>
      <trkpt lat="45.08437" lon="5.80273">
        <ele>713</ele>
        <time>2021-05-29T11:22:39Z</time>
      </trkpt>
      <trkpt lat="45.08438" lon="5.80273">
        <ele>713.2</ele>
        <time>2021-05-29T11:22:40Z</time>
      </trkpt>
      <trkpt lat="45.08441" lon="5.80273">
        <ele>713.4</ele>
        <time>2021-05-29T11:22:41Z</time>
      </trkpt>
      <trkpt lat="45.08443" lon="5.80273">
        <ele>713.6</ele>
        <time>2021-05-29T11:22:42Z</time>
      </trkpt>
      <trkpt lat="45.08446" lon="5.80273">
        <ele>713.8</ele>
        <time>2021-05-29T11:22:43Z</time>
      </trkpt>
      <trkpt lat="45.08449" lon="5.80273">
        <ele>714.2</ele>
        <time>2021-05-29T11:22:44Z</time>
      </trkpt>
      <trkpt lat="45.0845" lon="5.80274">
        <ele>714.4</ele>
        <time>2021-05-29T11:22:45Z</time>
      </trkpt>
      <trkpt lat="45.08452" lon="5.80274">
        <ele>714.8</ele>
        <time>2021-05-29T11:22:46Z</time>
      </trkpt>
      <trkpt lat="45.08454" lon="5.80274">
        <ele>715</ele>
        <time>2021-05-29T11:22:47Z</time>
      </trkpt>
      <trkpt lat="45.08455" lon="5.80275">
        <ele>715.2</ele>
        <time>2021-05-29T11:22:48Z</time>
      </trkpt>
      <trkpt lat="45.08457" lon="5.80275">
        <ele>715.2</ele>
        <time>2021-05-29T11:22:49Z</time>
      </trkpt>
      <trkpt lat="45.08458" lon="5.80275">
        <ele>715.4</ele>
        <time>2021-05-29T11:22:50Z</time>
      </trkpt>
      <trkpt lat="45.0846" lon="5.80277">
        <ele>715.6</ele>
        <time>2021-05-29T11:22:51Z</time>
      </trkpt>
      <trkpt lat="45.08461" lon="5.80279">
        <ele>716</ele>
        <time>2021-05-29T11:22:52Z</time>
      </trkpt>
      <trkpt lat="45.08463" lon="5.8028">
        <ele>716.4</ele>
        <time>2021-05-29T11:22:53Z</time>
      </trkpt>
      <trkpt lat="45.08464" lon="5.80282">
        <ele>716.6</ele>
        <time>2021-05-29T11:22:54Z</time>
      </trkpt>
      <trkpt lat="45.08466" lon="5.80284">
        <ele>717</ele>
        <time>2021-05-29T11:22:55Z</time>
      </trkpt>
      <trkpt lat="45.08467" lon="5.80285">
        <ele>717.2</ele>
        <time>2021-05-29T11:22:56Z</time>
      </trkpt>
      <trkpt lat="45.08468" lon="5.80285">
        <ele>717.2</ele>
        <time>2021-05-29T11:22:57Z</time>
      </trkpt>
      <trkpt lat="45.08469" lon="5.80285">
        <ele>717.4</ele>
        <time>2021-05-29T11:22:58Z</time>
      </trkpt>
      <trkpt lat="45.0847" lon="5.80284">
        <ele>717.8</ele>
        <time>2021-05-29T11:22:59Z</time>
      </trkpt>
      <trkpt lat="45.08471" lon="5.80284">
        <ele>718.2</ele>
        <time>2021-05-29T11:23:00Z</time>
      </trkpt>
      <trkpt lat="45.08472" lon="5.80284">
        <ele>718.2</ele>
        <time>2021-05-29T11:23:01Z</time>
      </trkpt>
      <trkpt lat="45.08473" lon="5.80283">
        <ele>718.4</ele>
        <time>2021-05-29T11:23:02Z</time>
      </trkpt>
      <trkpt lat="45.08474" lon="5.80283">
        <ele>718.6</ele>
        <time>2021-05-29T11:23:03Z</time>
      </trkpt>
      <trkpt lat="45.08475" lon="5.80283">
        <ele>719</ele>
        <time>2021-05-29T11:23:04Z</time>
      </trkpt>
      <trkpt lat="45.08476" lon="5.80282">
        <ele>719.2</ele>
        <time>2021-05-29T11:23:05Z</time>
      </trkpt>
      <trkpt lat="45.08477" lon="5.80282">
        <ele>719.4</ele>
        <time>2021-05-29T11:23:06Z</time>
      </trkpt>
      <trkpt lat="45.08478" lon="5.80282">
        <ele>719.6</ele>
        <time>2021-05-29T11:23:07Z</time>
      </trkpt>
      <trkpt lat="45.08479" lon="5.80282">
        <ele>719.8</ele>
        <time>2021-05-29T11:23:08Z</time>
      </trkpt>
      <trkpt lat="45.08481" lon="5.80282">
        <ele>720.2</ele>
        <time>2021-05-29T11:23:09Z</time>
      </trkpt>
      <trkpt lat="45.08482" lon="5.80281">
        <ele>720.4</ele>
        <time>2021-05-29T11:23:10Z</time>
      </trkpt>
      <trkpt lat="45.08483" lon="5.80281">
        <ele>720.4</ele>
        <time>2021-05-29T11:23:11Z</time>
      </trkpt>
      <trkpt lat="45.08484" lon="5.80281">
        <ele>720.8</ele>
        <time>2021-05-29T11:23:12Z</time>
      </trkpt>
      <trkpt lat="45.08485" lon="5.80281">
        <ele>721</ele>
        <time>2021-05-29T11:23:13Z</time>
      </trkpt>
      <trkpt lat="45.08487" lon="5.80281">
        <ele>721.2</ele>
        <time>2021-05-29T11:23:14Z</time>
      </trkpt>
      <trkpt lat="45.08488" lon="5.8028">
        <ele>721.4</ele>
        <time>2021-05-29T11:23:15Z</time>
      </trkpt>
      <trkpt lat="45.08489" lon="5.80279">
        <ele>721.4</ele>
        <time>2021-05-29T11:23:16Z</time>
      </trkpt>
      <trkpt lat="45.08489" lon="5.80278">
        <ele>721.4</ele>
        <time>2021-05-29T11:23:17Z</time>
      </trkpt>
      <trkpt lat="45.0849" lon="5.80278">
        <ele>721.6</ele>
        <time>2021-05-29T11:23:18Z</time>
      </trkpt>
      <trkpt lat="45.08491" lon="5.80277">
        <ele>721.8</ele>
        <time>2021-05-29T11:23:19Z</time>
      </trkpt>
      <trkpt lat="45.08492" lon="5.80276">
        <ele>722</ele>
        <time>2021-05-29T11:23:20Z</time>
      </trkpt>
      <trkpt lat="45.08493" lon="5.80275">
        <ele>722.2</ele>
        <time>2021-05-29T11:23:21Z</time>
      </trkpt>
      <trkpt lat="45.08494" lon="5.80274">
        <ele>722.4</ele>
        <time>2021-05-29T11:23:22Z</time>
      </trkpt>
      <trkpt lat="45.08494" lon="5.80273">
        <ele>722.6</ele>
        <time>2021-05-29T11:23:23Z</time>
      </trkpt>
      <trkpt lat="45.08495" lon="5.80272">
        <ele>723</ele>
        <time>2021-05-29T11:23:24Z</time>
      </trkpt>
      <trkpt lat="45.08496" lon="5.80272">
        <ele>723.2</ele>
        <time>2021-05-29T11:23:25Z</time>
      </trkpt>
      <trkpt lat="45.08496" lon="5.80272">
        <ele>723.2</ele>
        <time>2021-05-29T11:23:26Z</time>
      </trkpt>
      <trkpt lat="45.08497" lon="5.80272">
        <ele>723.4</ele>
        <time>2021-05-29T11:23:27Z</time>
      </trkpt>
      <trkpt lat="45.08497" lon="5.80271">
        <ele>723.6</ele>
        <time>2021-05-29T11:23:28Z</time>
      </trkpt>
      <trkpt lat="45.08498" lon="5.80271">
        <ele>723.6</ele>
        <time>2021-05-29T11:23:29Z</time>
      </trkpt>
      <trkpt lat="45.08498" lon="5.80271">
        <ele>723.8</ele>
        <time>2021-05-29T11:23:30Z</time>
      </trkpt>
      <trkpt lat="45.08499" lon="5.80271">
        <ele>724</ele>
        <time>2021-05-29T11:23:31Z</time>
      </trkpt>
      <trkpt lat="45.08499" lon="5.80271">
        <ele>724.2</ele>
        <time>2021-05-29T11:23:32Z</time>
      </trkpt>
      <trkpt lat="45.085" lon="5.80271">
        <ele>724.2</ele>
        <time>2021-05-29T11:23:33Z</time>
      </trkpt>
      <trkpt lat="45.085" lon="5.80271">
        <ele>724.6</ele>
        <time>2021-05-29T11:23:34Z</time>
      </trkpt>
      <trkpt lat="45.08501" lon="5.80271">
        <ele>724.8</ele>
        <time>2021-05-29T11:23:35Z</time>
      </trkpt>
      <trkpt lat="45.08501" lon="5.80271">
        <ele>725.2</ele>
        <time>2021-05-29T11:23:36Z</time>
      </trkpt>
      <trkpt lat="45.08502" lon="5.80271">
        <ele>725.4</ele>
        <time>2021-05-29T11:23:37Z</time>
      </trkpt>
      <trkpt lat="45.08503" lon="5.80271">
        <ele>725.4</ele>
        <time>2021-05-29T11:23:38Z</time>
      </trkpt>
      <trkpt lat="45.08503" lon="5.80271">
        <ele>725.4</ele>
        <time>2021-05-29T11:23:39Z</time>
      </trkpt>
      <trkpt lat="45.08504" lon="5.80271">
        <ele>725.4</ele>
        <time>2021-05-29T11:23:40Z</time>
      </trkpt>
      <trkpt lat="45.08504" lon="5.80271">
        <ele>725.8</ele>
        <time>2021-05-29T11:23:41Z</time>
      </trkpt>
      <trkpt lat="45.08505" lon="5.80271">
        <ele>725.8</ele>
        <time>2021-05-29T11:23:42Z</time>
      </trkpt>
      <trkpt lat="45.08506" lon="5.80271">
        <ele>726</ele>
        <time>2021-05-29T11:23:43Z</time>
      </trkpt>
      <trkpt lat="45.08507" lon="5.80271">
        <ele>726.2</ele>
        <time>2021-05-29T11:23:44Z</time>
      </trkpt>
      <trkpt lat="45.08509" lon="5.80272">
        <ele>726.2</ele>
        <time>2021-05-29T11:23:45Z</time>
      </trkpt>
      <trkpt lat="45.0851" lon="5.80272">
        <ele>726.6</ele>
        <time>2021-05-29T11:23:46Z</time>
      </trkpt>
      <trkpt lat="45.08512" lon="5.80273">
        <ele>726.8</ele>
        <time>2021-05-29T11:23:47Z</time>
      </trkpt>
      <trkpt lat="45.08513" lon="5.80273">
        <ele>727</ele>
        <time>2021-05-29T11:23:48Z</time>
      </trkpt>
      <trkpt lat="45.08514" lon="5.80273">
        <ele>727.2</ele>
        <time>2021-05-29T11:23:49Z</time>
      </trkpt>
      <trkpt lat="45.08515" lon="5.80273">
        <ele>727.2</ele>
        <time>2021-05-29T11:23:50Z</time>
      </trkpt>
      <trkpt lat="45.08516" lon="5.80273">
        <ele>727.2</ele>
        <time>2021-05-29T11:23:51Z</time>
      </trkpt>
      <trkpt lat="45.08517" lon="5.80272">
        <ele>727.2</ele>
        <time>2021-05-29T11:23:52Z</time>
      </trkpt>
      <trkpt lat="45.08518" lon="5.80272">
        <ele>727.4</ele>
        <time>2021-05-29T11:23:53Z</time>
      </trkpt>
      <trkpt lat="45.08519" lon="5.80272">
        <ele>727.6</ele>
        <time>2021-05-29T11:23:54Z</time>
      </trkpt>
      <trkpt lat="45.08519" lon="5.80271">
        <ele>727.8</ele>
        <time>2021-05-29T11:23:55Z</time>
      </trkpt>
      <trkpt lat="45.0852" lon="5.80271">
        <ele>728.2</ele>
        <time>2021-05-29T11:23:56Z</time>
      </trkpt>
      <trkpt lat="45.08521" lon="5.80271">
        <ele>728.4</ele>
        <time>2021-05-29T11:23:57Z</time>
      </trkpt>
      <trkpt lat="45.08522" lon="5.8027">
        <ele>728.4</ele>
        <time>2021-05-29T11:23:58Z</time>
      </trkpt>
      <trkpt lat="45.08523" lon="5.8027">
        <ele>728.4</ele>
        <time>2021-05-29T11:23:59Z</time>
      </trkpt>
      <trkpt lat="45.08524" lon="5.8027">
        <ele>728.8</ele>
        <time>2021-05-29T11:24:00Z</time>
      </trkpt>
      <trkpt lat="45.08525" lon="5.8027">
        <ele>729.2</ele>
        <time>2021-05-29T11:24:01Z</time>
      </trkpt>
      <trkpt lat="45.08526" lon="5.8027">
        <ele>729.2</ele>
        <time>2021-05-29T11:24:02Z</time>
      </trkpt>
      <trkpt lat="45.08527" lon="5.8027">
        <ele>730</ele>
        <time>2021-05-29T11:24:03Z</time>
      </trkpt>
      <trkpt lat="45.08528" lon="5.8027">
        <ele>730.6</ele>
        <time>2021-05-29T11:24:04Z</time>
      </trkpt>
      <trkpt lat="45.08529" lon="5.80271">
        <ele>730.6</ele>
        <time>2021-05-29T11:24:05Z</time>
      </trkpt>
      <trkpt lat="45.08531" lon="5.80271">
        <ele>730.8</ele>
        <time>2021-05-29T11:24:06Z</time>
      </trkpt>
      <trkpt lat="45.08532" lon="5.80271">
        <ele>731</ele>
        <time>2021-05-29T11:24:07Z</time>
      </trkpt>
      <trkpt lat="45.08533" lon="5.80271">
        <ele>731.2</ele>
        <time>2021-05-29T11:24:08Z</time>
      </trkpt>
      <trkpt lat="45.08534" lon="5.80272">
        <ele>731.4</ele>
        <time>2021-05-29T11:24:09Z</time>
      </trkpt>
      <trkpt lat="45.08535" lon="5.80272">
        <ele>731.6</ele>
        <time>2021-05-29T11:24:10Z</time>
      </trkpt>
      <trkpt lat="45.08536" lon="5.80273">
        <ele>731.6</ele>
        <time>2021-05-29T11:24:11Z</time>
      </trkpt>
      <trkpt lat="45.08536" lon="5.80274">
        <ele>731.8</ele>
        <time>2021-05-29T11:24:12Z</time>
      </trkpt>
      <trkpt lat="45.08537" lon="5.80274">
        <ele>732.2</ele>
        <time>2021-05-29T11:24:13Z</time>
      </trkpt>
      <trkpt lat="45.08538" lon="5.80275">
        <ele>732.4</ele>
        <time>2021-05-29T11:24:14Z</time>
      </trkpt>
      <trkpt lat="45.08539" lon="5.80275">
        <ele>732.4</ele>
        <time>2021-05-29T11:24:15Z</time>
      </trkpt>
      <trkpt lat="45.0854" lon="5.80276">
        <ele>732.6</ele>
        <time>2021-05-29T11:24:16Z</time>
      </trkpt>
      <trkpt lat="45.08541" lon="5.80277">
        <ele>732.8</ele>
        <time>2021-05-29T11:24:17Z</time>
      </trkpt>
      <trkpt lat="45.08542" lon="5.80277">
        <ele>733</ele>
        <time>2021-05-29T11:24:18Z</time>
      </trkpt>
      <trkpt lat="45.08542" lon="5.80278">
        <ele>733.4</ele>
        <time>2021-05-29T11:24:19Z</time>
      </trkpt>
      <trkpt lat="45.08543" lon="5.80279">
        <ele>733.6</ele>
        <time>2021-05-29T11:24:20Z</time>
      </trkpt>
      <trkpt lat="45.08543" lon="5.80279">
        <ele>734</ele>
        <time>2021-05-29T11:24:21Z</time>
      </trkpt>
      <trkpt lat="45.08544" lon="5.8028">
        <ele>734.2</ele>
        <time>2021-05-29T11:24:22Z</time>
      </trkpt>
      <trkpt lat="45.08545" lon="5.80281">
        <ele>734.4</ele>
        <time>2021-05-29T11:24:23Z</time>
      </trkpt>
      <trkpt lat="45.08545" lon="5.80282">
        <ele>734.6</ele>
        <time>2021-05-29T11:24:24Z</time>
      </trkpt>
      <trkpt lat="45.08546" lon="5.80282">
        <ele>734.8</ele>
        <time>2021-05-29T11:24:25Z</time>
      </trkpt>
      <trkpt lat="45.08546" lon="5.80283">
        <ele>735</ele>
        <time>2021-05-29T11:24:26Z</time>
      </trkpt>
      <trkpt lat="45.08547" lon="5.80284">
        <ele>735.4</ele>
        <time>2021-05-29T11:24:27Z</time>
      </trkpt>
      <trkpt lat="45.08547" lon="5.80284">
        <ele>736</ele>
        <time>2021-05-29T11:24:28Z</time>
      </trkpt>
      <trkpt lat="45.08548" lon="5.80285">
        <ele>736.4</ele>
        <time>2021-05-29T11:24:29Z</time>
      </trkpt>
      <trkpt lat="45.08548" lon="5.80286">
        <ele>736.4</ele>
        <time>2021-05-29T11:24:30Z</time>
      </trkpt>
      <trkpt lat="45.0855" lon="5.80289">
        <ele>736.6</ele>
        <time>2021-05-29T11:24:31Z</time>
      </trkpt>
      <trkpt lat="45.08551" lon="5.80292">
        <ele>736.6</ele>
        <time>2021-05-29T11:24:32Z</time>
      </trkpt>
      <trkpt lat="45.08553" lon="5.80295">
        <ele>736.8</ele>
        <time>2021-05-29T11:24:33Z</time>
      </trkpt>
      <trkpt lat="45.08554" lon="5.80298">
        <ele>737.2</ele>
        <time>2021-05-29T11:24:34Z</time>
      </trkpt>
      <trkpt lat="45.08556" lon="5.80301">
        <ele>737.4</ele>
        <time>2021-05-29T11:24:35Z</time>
      </trkpt>
      <trkpt lat="45.08557" lon="5.80304">
        <ele>737.8</ele>
        <time>2021-05-29T11:24:36Z</time>
      </trkpt>
      <trkpt lat="45.08559" lon="5.80307">
        <ele>738</ele>
        <time>2021-05-29T11:24:37Z</time>
      </trkpt>
      <trkpt lat="45.0856" lon="5.80309">
        <ele>738.2</ele>
        <time>2021-05-29T11:24:38Z</time>
      </trkpt>
      <trkpt lat="45.08562" lon="5.80312">
        <ele>738.4</ele>
        <time>2021-05-29T11:24:39Z</time>
      </trkpt>
      <trkpt lat="45.08563" lon="5.80315">
        <ele>738.8</ele>
        <time>2021-05-29T11:24:40Z</time>
      </trkpt>
      <trkpt lat="45.08567" lon="5.80321">
        <ele>739</ele>
        <time>2021-05-29T11:24:41Z</time>
      </trkpt>
      <trkpt lat="45.08567" lon="5.80321">
        <ele>739.2</ele>
        <time>2021-05-29T11:24:42Z</time>
      </trkpt>
      <trkpt lat="45.08567" lon="5.80322">
        <ele>739.2</ele>
        <time>2021-05-29T11:24:43Z</time>
      </trkpt>
      <trkpt lat="45.08568" lon="5.80323">
        <ele>739.6</ele>
        <time>2021-05-29T11:24:44Z</time>
      </trkpt>
      <trkpt lat="45.08568" lon="5.80324">
        <ele>739.8</ele>
        <time>2021-05-29T11:24:45Z</time>
      </trkpt>
      <trkpt lat="45.08569" lon="5.80326">
        <ele>740</ele>
        <time>2021-05-29T11:24:46Z</time>
      </trkpt>
      <trkpt lat="45.0857" lon="5.80327">
        <ele>740.2</ele>
        <time>2021-05-29T11:24:47Z</time>
      </trkpt>
      <trkpt lat="45.0857" lon="5.80328">
        <ele>740.4</ele>
        <time>2021-05-29T11:24:48Z</time>
      </trkpt>
      <trkpt lat="45.08571" lon="5.80329">
        <ele>740.6</ele>
        <time>2021-05-29T11:24:49Z</time>
      </trkpt>
      <trkpt lat="45.08571" lon="5.8033">
        <ele>740.8</ele>
        <time>2021-05-29T11:24:50Z</time>
      </trkpt>
      <trkpt lat="45.08572" lon="5.80332">
        <ele>741</ele>
        <time>2021-05-29T11:24:51Z</time>
      </trkpt>
      <trkpt lat="45.08573" lon="5.80333">
        <ele>741.2</ele>
        <time>2021-05-29T11:24:52Z</time>
      </trkpt>
      <trkpt lat="45.08574" lon="5.80334">
        <ele>741.4</ele>
        <time>2021-05-29T11:24:53Z</time>
      </trkpt>
      <trkpt lat="45.08574" lon="5.80335">
        <ele>741.8</ele>
        <time>2021-05-29T11:24:54Z</time>
      </trkpt>
      <trkpt lat="45.08575" lon="5.80336">
        <ele>742.2</ele>
        <time>2021-05-29T11:24:55Z</time>
      </trkpt>
      <trkpt lat="45.08576" lon="5.80337">
        <ele>742.4</ele>
        <time>2021-05-29T11:24:56Z</time>
      </trkpt>
      <trkpt lat="45.08577" lon="5.80339">
        <ele>742.6</ele>
        <time>2021-05-29T11:24:57Z</time>
      </trkpt>
      <trkpt lat="45.08577" lon="5.8034">
        <ele>742.8</ele>
        <time>2021-05-29T11:24:58Z</time>
      </trkpt>
      <trkpt lat="45.08578" lon="5.80341">
        <ele>743</ele>
        <time>2021-05-29T11:24:59Z</time>
      </trkpt>
      <trkpt lat="45.08579" lon="5.80342">
        <ele>743.2</ele>
        <time>2021-05-29T11:25:00Z</time>
      </trkpt>
      <trkpt lat="45.0858" lon="5.80343">
        <ele>743.4</ele>
        <time>2021-05-29T11:25:01Z</time>
      </trkpt>
      <trkpt lat="45.08581" lon="5.80345">
        <ele>743.4</ele>
        <time>2021-05-29T11:25:02Z</time>
      </trkpt>
      <trkpt lat="45.08582" lon="5.80346">
        <ele>743.4</ele>
        <time>2021-05-29T11:25:03Z</time>
      </trkpt>
      <trkpt lat="45.08583" lon="5.80347">
        <ele>743.8</ele>
        <time>2021-05-29T11:25:04Z</time>
      </trkpt>
      <trkpt lat="45.08584" lon="5.80348">
        <ele>744.2</ele>
        <time>2021-05-29T11:25:05Z</time>
      </trkpt>
      <trkpt lat="45.08584" lon="5.8035">
        <ele>744.4</ele>
        <time>2021-05-29T11:25:06Z</time>
      </trkpt>
      <trkpt lat="45.08585" lon="5.80351">
        <ele>744.6</ele>
        <time>2021-05-29T11:25:07Z</time>
      </trkpt>
      <trkpt lat="45.08587" lon="5.80352">
        <ele>744.8</ele>
        <time>2021-05-29T11:25:08Z</time>
      </trkpt>
      <trkpt lat="45.08588" lon="5.80354">
        <ele>745</ele>
        <time>2021-05-29T11:25:09Z</time>
      </trkpt>
      <trkpt lat="45.08589" lon="5.80355">
        <ele>745.4</ele>
        <time>2021-05-29T11:25:10Z</time>
      </trkpt>
      <trkpt lat="45.0859" lon="5.80356">
        <ele>745.6</ele>
        <time>2021-05-29T11:25:11Z</time>
      </trkpt>
      <trkpt lat="45.08591" lon="5.80358">
        <ele>745.8</ele>
        <time>2021-05-29T11:25:12Z</time>
      </trkpt>
      <trkpt lat="45.08592" lon="5.80359">
        <ele>746.2</ele>
        <time>2021-05-29T11:25:13Z</time>
      </trkpt>
      <trkpt lat="45.08594" lon="5.8036">
        <ele>746.4</ele>
        <time>2021-05-29T11:25:14Z</time>
      </trkpt>
      <trkpt lat="45.08595" lon="5.80361">
        <ele>746.4</ele>
        <time>2021-05-29T11:25:15Z</time>
      </trkpt>
      <trkpt lat="45.08596" lon="5.80362">
        <ele>746.4</ele>
        <time>2021-05-29T11:25:16Z</time>
      </trkpt>
      <trkpt lat="45.08597" lon="5.80362">
        <ele>746.6</ele>
        <time>2021-05-29T11:25:17Z</time>
      </trkpt>
      <trkpt lat="45.08598" lon="5.80363">
        <ele>746.6</ele>
        <time>2021-05-29T11:25:18Z</time>
      </trkpt>
      <trkpt lat="45.086" lon="5.80364">
        <ele>746.6</ele>
        <time>2021-05-29T11:25:19Z</time>
      </trkpt>
      <trkpt lat="45.08601" lon="5.80365">
        <ele>746.8</ele>
        <time>2021-05-29T11:25:20Z</time>
      </trkpt>
      <trkpt lat="45.08602" lon="5.80366">
        <ele>747</ele>
        <time>2021-05-29T11:25:21Z</time>
      </trkpt>
      <trkpt lat="45.08603" lon="5.80366">
        <ele>747</ele>
        <time>2021-05-29T11:25:22Z</time>
      </trkpt>
      <trkpt lat="45.08604" lon="5.80367">
        <ele>746.8</ele>
        <time>2021-05-29T11:25:23Z</time>
      </trkpt>
      <trkpt lat="45.08605" lon="5.80368">
        <ele>746.8</ele>
        <time>2021-05-29T11:25:24Z</time>
      </trkpt>
      <trkpt lat="45.08606" lon="5.80369">
        <ele>747.2</ele>
        <time>2021-05-29T11:25:25Z</time>
      </trkpt>
      <trkpt lat="45.08607" lon="5.80369">
        <ele>747.2</ele>
        <time>2021-05-29T11:25:26Z</time>
      </trkpt>
      <trkpt lat="45.08608" lon="5.8037">
        <ele>747.4</ele>
        <time>2021-05-29T11:25:27Z</time>
      </trkpt>
      <trkpt lat="45.0861" lon="5.80371">
        <ele>747.4</ele>
        <time>2021-05-29T11:25:28Z</time>
      </trkpt>
      <trkpt lat="45.0861" lon="5.80372">
        <ele>747.8</ele>
        <time>2021-05-29T11:25:29Z</time>
      </trkpt>
      <trkpt lat="45.08611" lon="5.80373">
        <ele>748</ele>
        <time>2021-05-29T11:25:30Z</time>
      </trkpt>
      <trkpt lat="45.08611" lon="5.80375">
        <ele>748.2</ele>
        <time>2021-05-29T11:25:31Z</time>
      </trkpt>
      <trkpt lat="45.08612" lon="5.80376">
        <ele>748.4</ele>
        <time>2021-05-29T11:25:32Z</time>
      </trkpt>
      <trkpt lat="45.08613" lon="5.80377">
        <ele>748.8</ele>
        <time>2021-05-29T11:25:33Z</time>
      </trkpt>
      <trkpt lat="45.08613" lon="5.80379">
        <ele>749</ele>
        <time>2021-05-29T11:25:34Z</time>
      </trkpt>
      <trkpt lat="45.08614" lon="5.8038">
        <ele>749.6</ele>
        <time>2021-05-29T11:25:35Z</time>
      </trkpt>
      <trkpt lat="45.08615" lon="5.80381">
        <ele>750</ele>
        <time>2021-05-29T11:25:36Z</time>
      </trkpt>
      <trkpt lat="45.08615" lon="5.80382">
        <ele>750.2</ele>
        <time>2021-05-29T11:25:37Z</time>
      </trkpt>
      <trkpt lat="45.08616" lon="5.80383">
        <ele>750.2</ele>
        <time>2021-05-29T11:25:38Z</time>
      </trkpt>
      <trkpt lat="45.08617" lon="5.80384">
        <ele>750.2</ele>
        <time>2021-05-29T11:25:39Z</time>
      </trkpt>
      <trkpt lat="45.08618" lon="5.80385">
        <ele>750.4</ele>
        <time>2021-05-29T11:25:40Z</time>
      </trkpt>
      <trkpt lat="45.08619" lon="5.80386">
        <ele>750.6</ele>
        <time>2021-05-29T11:25:41Z</time>
      </trkpt>
      <trkpt lat="45.0862" lon="5.80387">
        <ele>750.8</ele>
        <time>2021-05-29T11:25:42Z</time>
      </trkpt>
      <trkpt lat="45.08621" lon="5.80387">
        <ele>751.2</ele>
        <time>2021-05-29T11:25:43Z</time>
      </trkpt>
      <trkpt lat="45.08623" lon="5.80388">
        <ele>751.2</ele>
        <time>2021-05-29T11:25:44Z</time>
      </trkpt>
      <trkpt lat="45.08624" lon="5.80389">
        <ele>751.4</ele>
        <time>2021-05-29T11:25:45Z</time>
      </trkpt>
      <trkpt lat="45.08624" lon="5.8039">
        <ele>751.6</ele>
        <time>2021-05-29T11:25:46Z</time>
      </trkpt>
      <trkpt lat="45.08625" lon="5.80391">
        <ele>751.8</ele>
        <time>2021-05-29T11:25:47Z</time>
      </trkpt>
      <trkpt lat="45.08625" lon="5.80392">
        <ele>752</ele>
        <time>2021-05-29T11:25:48Z</time>
      </trkpt>
      <trkpt lat="45.08626" lon="5.80393">
        <ele>752.2</ele>
        <time>2021-05-29T11:25:49Z</time>
      </trkpt>
      <trkpt lat="45.08626" lon="5.80394">
        <ele>752.4</ele>
        <time>2021-05-29T11:25:50Z</time>
      </trkpt>
      <trkpt lat="45.08627" lon="5.80395">
        <ele>752.6</ele>
        <time>2021-05-29T11:25:51Z</time>
      </trkpt>
      <trkpt lat="45.08627" lon="5.80396">
        <ele>752.8</ele>
        <time>2021-05-29T11:25:52Z</time>
      </trkpt>
      <trkpt lat="45.08628" lon="5.80398">
        <ele>753</ele>
        <time>2021-05-29T11:25:53Z</time>
      </trkpt>
      <trkpt lat="45.08628" lon="5.80399">
        <ele>753</ele>
        <time>2021-05-29T11:25:54Z</time>
      </trkpt>
      <trkpt lat="45.08629" lon="5.804">
        <ele>753.2</ele>
        <time>2021-05-29T11:25:55Z</time>
      </trkpt>
      <trkpt lat="45.08629" lon="5.80401">
        <ele>753.4</ele>
        <time>2021-05-29T11:25:56Z</time>
      </trkpt>
      <trkpt lat="45.0863" lon="5.80403">
        <ele>753.4</ele>
        <time>2021-05-29T11:25:57Z</time>
      </trkpt>
      <trkpt lat="45.0863" lon="5.80404">
        <ele>753.4</ele>
        <time>2021-05-29T11:25:58Z</time>
      </trkpt>
      <trkpt lat="45.08631" lon="5.80406">
        <ele>753.6</ele>
        <time>2021-05-29T11:25:59Z</time>
      </trkpt>
      <trkpt lat="45.08631" lon="5.80407">
        <ele>753.6</ele>
        <time>2021-05-29T11:26:00Z</time>
      </trkpt>
      <trkpt lat="45.08632" lon="5.80409">
        <ele>753.4</ele>
        <time>2021-05-29T11:26:01Z</time>
      </trkpt>
      <trkpt lat="45.08633" lon="5.8041">
        <ele>753.6</ele>
        <time>2021-05-29T11:26:02Z</time>
      </trkpt>
      <trkpt lat="45.08633" lon="5.80412">
        <ele>754</ele>
        <time>2021-05-29T11:26:03Z</time>
      </trkpt>
      <trkpt lat="45.08633" lon="5.80413">
        <ele>754.2</ele>
        <time>2021-05-29T11:26:04Z</time>
      </trkpt>
      <trkpt lat="45.08633" lon="5.80415">
        <ele>754.4</ele>
        <time>2021-05-29T11:26:05Z</time>
      </trkpt>
      <trkpt lat="45.08633" lon="5.80416">
        <ele>754.6</ele>
        <time>2021-05-29T11:26:06Z</time>
      </trkpt>
      <trkpt lat="45.08633" lon="5.80418">
        <ele>754.8</ele>
        <time>2021-05-29T11:26:07Z</time>
      </trkpt>
      <trkpt lat="45.08633" lon="5.80419">
        <ele>754.8</ele>
        <time>2021-05-29T11:26:08Z</time>
      </trkpt>
      <trkpt lat="45.08634" lon="5.80421">
        <ele>754.8</ele>
        <time>2021-05-29T11:26:09Z</time>
      </trkpt>
      <trkpt lat="45.08634" lon="5.80422">
        <ele>754.6</ele>
        <time>2021-05-29T11:26:10Z</time>
      </trkpt>
      <trkpt lat="45.08634" lon="5.80424">
        <ele>754.4</ele>
        <time>2021-05-29T11:26:11Z</time>
      </trkpt>
      <trkpt lat="45.08634" lon="5.80425">
        <ele>754</ele>
        <time>2021-05-29T11:26:12Z</time>
      </trkpt>
      <trkpt lat="45.08635" lon="5.80427">
        <ele>753.8</ele>
        <time>2021-05-29T11:26:13Z</time>
      </trkpt>
      <trkpt lat="45.08635" lon="5.80429">
        <ele>753.6</ele>
        <time>2021-05-29T11:26:14Z</time>
      </trkpt>
      <trkpt lat="45.08636" lon="5.80431">
        <ele>754</ele>
        <time>2021-05-29T11:26:15Z</time>
      </trkpt>
      <trkpt lat="45.08637" lon="5.80433">
        <ele>753.6</ele>
        <time>2021-05-29T11:26:16Z</time>
      </trkpt>
      <trkpt lat="45.08638" lon="5.80435">
        <ele>753.4</ele>
        <time>2021-05-29T11:26:17Z</time>
      </trkpt>
      <trkpt lat="45.08639" lon="5.80437">
        <ele>753.2</ele>
        <time>2021-05-29T11:26:18Z</time>
      </trkpt>
      <trkpt lat="45.08638" lon="5.80439">
        <ele>753</ele>
        <time>2021-05-29T11:26:19Z</time>
      </trkpt>
      <trkpt lat="45.08638" lon="5.80441">
        <ele>753</ele>
        <time>2021-05-29T11:26:20Z</time>
      </trkpt>
      <trkpt lat="45.08637" lon="5.80443">
        <ele>753</ele>
        <time>2021-05-29T11:26:21Z</time>
      </trkpt>
      <trkpt lat="45.08637" lon="5.80445">
        <ele>752.8</ele>
        <time>2021-05-29T11:26:22Z</time>
      </trkpt>
      <trkpt lat="45.08637" lon="5.80448">
        <ele>752.2</ele>
        <time>2021-05-29T11:26:23Z</time>
      </trkpt>
      <trkpt lat="45.08636" lon="5.8045">
        <ele>751.4</ele>
        <time>2021-05-29T11:26:24Z</time>
      </trkpt>
      <trkpt lat="45.08637" lon="5.80452">
        <ele>751.4</ele>
        <time>2021-05-29T11:26:25Z</time>
      </trkpt>
      <trkpt lat="45.08638" lon="5.80454">
        <ele>751</ele>
        <time>2021-05-29T11:26:26Z</time>
      </trkpt>
      <trkpt lat="45.08638" lon="5.80456">
        <ele>750.8</ele>
        <time>2021-05-29T11:26:27Z</time>
      </trkpt>
      <trkpt lat="45.08639" lon="5.80458">
        <ele>750</ele>
        <time>2021-05-29T11:26:28Z</time>
      </trkpt>
      <trkpt lat="45.0864" lon="5.8046">
        <ele>749.2</ele>
        <time>2021-05-29T11:26:29Z</time>
      </trkpt>
      <trkpt lat="45.0864" lon="5.80462">
        <ele>748.4</ele>
        <time>2021-05-29T11:26:30Z</time>
      </trkpt>
      <trkpt lat="45.08642" lon="5.80464">
        <ele>748.2</ele>
        <time>2021-05-29T11:26:31Z</time>
      </trkpt>
      <trkpt lat="45.08643" lon="5.80466">
        <ele>747.6</ele>
        <time>2021-05-29T11:26:32Z</time>
      </trkpt>
      <trkpt lat="45.08644" lon="5.80467">
        <ele>747.2</ele>
        <time>2021-05-29T11:26:33Z</time>
      </trkpt>
      <trkpt lat="45.08645" lon="5.80469">
        <ele>746.6</ele>
        <time>2021-05-29T11:26:34Z</time>
      </trkpt>
      <trkpt lat="45.08646" lon="5.80471">
        <ele>746.2</ele>
        <time>2021-05-29T11:26:35Z</time>
      </trkpt>
      <trkpt lat="45.08647" lon="5.80473">
        <ele>745.6</ele>
        <time>2021-05-29T11:26:36Z</time>
      </trkpt>
      <trkpt lat="45.08648" lon="5.80475">
        <ele>745</ele>
        <time>2021-05-29T11:26:37Z</time>
      </trkpt>
      <trkpt lat="45.08649" lon="5.80477">
        <ele>744.6</ele>
        <time>2021-05-29T11:26:38Z</time>
      </trkpt>
      <trkpt lat="45.0865" lon="5.8048">
        <ele>744.2</ele>
        <time>2021-05-29T11:26:39Z</time>
      </trkpt>
      <trkpt lat="45.08651" lon="5.80482">
        <ele>743.4</ele>
        <time>2021-05-29T11:26:40Z</time>
      </trkpt>
      <trkpt lat="45.08652" lon="5.80484">
        <ele>742.8</ele>
        <time>2021-05-29T11:26:41Z</time>
      </trkpt>
      <trkpt lat="45.08653" lon="5.80486">
        <ele>742.2</ele>
        <time>2021-05-29T11:26:42Z</time>
      </trkpt>
      <trkpt lat="45.08654" lon="5.80489">
        <ele>742</ele>
        <time>2021-05-29T11:26:43Z</time>
      </trkpt>
      <trkpt lat="45.08655" lon="5.80491">
        <ele>741.8</ele>
        <time>2021-05-29T11:26:44Z</time>
      </trkpt>
      <trkpt lat="45.08656" lon="5.80494">
        <ele>741.6</ele>
        <time>2021-05-29T11:26:45Z</time>
      </trkpt>
      <trkpt lat="45.08656" lon="5.80497">
        <ele>741.4</ele>
        <time>2021-05-29T11:26:46Z</time>
      </trkpt>
      <trkpt lat="45.08657" lon="5.80499">
        <ele>741</ele>
        <time>2021-05-29T11:26:47Z</time>
      </trkpt>
      <trkpt lat="45.08658" lon="5.80502">
        <ele>740.6</ele>
        <time>2021-05-29T11:26:48Z</time>
      </trkpt>
      <trkpt lat="45.08659" lon="5.80504">
        <ele>740.4</ele>
        <time>2021-05-29T11:26:49Z</time>
      </trkpt>
      <trkpt lat="45.0866" lon="5.80506">
        <ele>740.4</ele>
        <time>2021-05-29T11:26:50Z</time>
      </trkpt>
      <trkpt lat="45.0866" lon="5.80509">
        <ele>739.8</ele>
        <time>2021-05-29T11:26:51Z</time>
      </trkpt>
      <trkpt lat="45.08661" lon="5.80511">
        <ele>739.8</ele>
        <time>2021-05-29T11:26:52Z</time>
      </trkpt>
      <trkpt lat="45.08662" lon="5.80513">
        <ele>739.6</ele>
        <time>2021-05-29T11:26:53Z</time>
      </trkpt>
      <trkpt lat="45.08662" lon="5.80515">
        <ele>739.6</ele>
        <time>2021-05-29T11:26:54Z</time>
      </trkpt>
      <trkpt lat="45.08662" lon="5.80518">
        <ele>739.2</ele>
        <time>2021-05-29T11:26:55Z</time>
      </trkpt>
      <trkpt lat="45.08663" lon="5.8052">
        <ele>738.8</ele>
        <time>2021-05-29T11:26:56Z</time>
      </trkpt>
      <trkpt lat="45.08663" lon="5.80522">
        <ele>738.8</ele>
        <time>2021-05-29T11:26:57Z</time>
      </trkpt>
      <trkpt lat="45.08664" lon="5.80524">
        <ele>738.2</ele>
        <time>2021-05-29T11:26:58Z</time>
      </trkpt>
      <trkpt lat="45.08666" lon="5.80526">
        <ele>737.8</ele>
        <time>2021-05-29T11:26:59Z</time>
      </trkpt>
      <trkpt lat="45.08667" lon="5.80528">
        <ele>737</ele>
        <time>2021-05-29T11:27:00Z</time>
      </trkpt>
      <trkpt lat="45.08669" lon="5.8053">
        <ele>736</ele>
        <time>2021-05-29T11:27:01Z</time>
      </trkpt>
      <trkpt lat="45.08671" lon="5.80532">
        <ele>736</ele>
        <time>2021-05-29T11:27:02Z</time>
      </trkpt>
      <trkpt lat="45.08672" lon="5.80534">
        <ele>736</ele>
        <time>2021-05-29T11:27:03Z</time>
      </trkpt>
      <trkpt lat="45.08674" lon="5.80537">
        <ele>735.8</ele>
        <time>2021-05-29T11:27:04Z</time>
      </trkpt>
      <trkpt lat="45.08676" lon="5.80539">
        <ele>735.4</ele>
        <time>2021-05-29T11:27:05Z</time>
      </trkpt>
      <trkpt lat="45.08678" lon="5.80541">
        <ele>734.8</ele>
        <time>2021-05-29T11:27:06Z</time>
      </trkpt>
      <trkpt lat="45.08679" lon="5.80543">
        <ele>734.4</ele>
        <time>2021-05-29T11:27:07Z</time>
      </trkpt>
      <trkpt lat="45.08686" lon="5.80554">
        <ele>734.2</ele>
        <time>2021-05-29T11:27:08Z</time>
      </trkpt>
      <trkpt lat="45.08686" lon="5.80554">
        <ele>734.2</ele>
        <time>2021-05-29T11:27:09Z</time>
      </trkpt>
      <trkpt lat="45.08686" lon="5.80554">
        <ele>733.8</ele>
        <time>2021-05-29T11:27:10Z</time>
      </trkpt>
      <trkpt lat="45.08686" lon="5.80554">
        <ele>733</ele>
        <time>2021-05-29T11:27:11Z</time>
      </trkpt>
      <trkpt lat="45.08687" lon="5.80556">
        <ele>733.2</ele>
        <time>2021-05-29T11:27:12Z</time>
      </trkpt>
      <trkpt lat="45.08687" lon="5.80559">
        <ele>732.6</ele>
        <time>2021-05-29T11:27:13Z</time>
      </trkpt>
      <trkpt lat="45.08688" lon="5.80562">
        <ele>732.6</ele>
        <time>2021-05-29T11:27:14Z</time>
      </trkpt>
      <trkpt lat="45.08689" lon="5.80564">
        <ele>731.8</ele>
        <time>2021-05-29T11:27:15Z</time>
      </trkpt>
      <trkpt lat="45.0869" lon="5.80567">
        <ele>731.2</ele>
        <time>2021-05-29T11:27:16Z</time>
      </trkpt>
      <trkpt lat="45.08691" lon="5.8057">
        <ele>730.6</ele>
        <time>2021-05-29T11:27:17Z</time>
      </trkpt>
      <trkpt lat="45.08693" lon="5.80574">
        <ele>730</ele>
        <time>2021-05-29T11:27:18Z</time>
      </trkpt>
      <trkpt lat="45.08694" lon="5.80577">
        <ele>730</ele>
        <time>2021-05-29T11:27:19Z</time>
      </trkpt>
      <trkpt lat="45.08696" lon="5.80581">
        <ele>729.4</ele>
        <time>2021-05-29T11:27:20Z</time>
      </trkpt>
      <trkpt lat="45.08697" lon="5.80584">
        <ele>729</ele>
        <time>2021-05-29T11:27:21Z</time>
      </trkpt>
      <trkpt lat="45.08697" lon="5.80584">
        <ele>728.2</ele>
        <time>2021-05-29T11:27:22Z</time>
      </trkpt>
      <trkpt lat="45.08698" lon="5.80587">
        <ele>727.8</ele>
        <time>2021-05-29T11:27:23Z</time>
      </trkpt>
      <trkpt lat="45.08698" lon="5.8059">
        <ele>727.6</ele>
        <time>2021-05-29T11:27:24Z</time>
      </trkpt>
      <trkpt lat="45.08699" lon="5.80592">
        <ele>727</ele>
        <time>2021-05-29T11:27:25Z</time>
      </trkpt>
      <trkpt lat="45.087" lon="5.80595">
        <ele>726.6</ele>
        <time>2021-05-29T11:27:26Z</time>
      </trkpt>
      <trkpt lat="45.087" lon="5.80598">
        <ele>726</ele>
        <time>2021-05-29T11:27:27Z</time>
      </trkpt>
      <trkpt lat="45.08701" lon="5.80605">
        <ele>725.4</ele>
        <time>2021-05-29T11:27:28Z</time>
      </trkpt>
      <trkpt lat="45.08702" lon="5.80612">
        <ele>725.2</ele>
        <time>2021-05-29T11:27:29Z</time>
      </trkpt>
      <trkpt lat="45.08703" lon="5.8062">
        <ele>724.6</ele>
        <time>2021-05-29T11:27:30Z</time>
      </trkpt>
      <trkpt lat="45.08703" lon="5.80627">
        <ele>723.6</ele>
        <time>2021-05-29T11:27:31Z</time>
      </trkpt>
      <trkpt lat="45.08709" lon="5.80641">
        <ele>723</ele>
        <time>2021-05-29T11:27:32Z</time>
      </trkpt>
      <trkpt lat="45.08714" lon="5.80654">
        <ele>722.4</ele>
        <time>2021-05-29T11:27:33Z</time>
      </trkpt>
      <trkpt lat="45.08714" lon="5.80658">
        <ele>722.6</ele>
        <time>2021-05-29T11:27:34Z</time>
      </trkpt>
      <trkpt lat="45.08716" lon="5.80665">
        <ele>722.2</ele>
        <time>2021-05-29T11:27:35Z</time>
      </trkpt>
      <trkpt lat="45.08716" lon="5.80665">
        <ele>722</ele>
        <time>2021-05-29T11:27:36Z</time>
      </trkpt>
      <trkpt lat="45.08716" lon="5.80665">
        <ele>721.6</ele>
        <time>2021-05-29T11:27:37Z</time>
      </trkpt>
      <trkpt lat="45.08717" lon="5.80666">
        <ele>721.8</ele>
        <time>2021-05-29T11:27:38Z</time>
      </trkpt>
      <trkpt lat="45.08719" lon="5.80668">
        <ele>721.6</ele>
        <time>2021-05-29T11:27:39Z</time>
      </trkpt>
      <trkpt lat="45.0872" lon="5.80669">
        <ele>721.6</ele>
        <time>2021-05-29T11:27:40Z</time>
      </trkpt>
      <trkpt lat="45.08721" lon="5.80671">
        <ele>721.6</ele>
        <time>2021-05-29T11:27:41Z</time>
      </trkpt>
      <trkpt lat="45.08723" lon="5.80672">
        <ele>721.6</ele>
        <time>2021-05-29T11:27:42Z</time>
      </trkpt>
      <trkpt lat="45.08724" lon="5.80674">
        <ele>721.6</ele>
        <time>2021-05-29T11:27:43Z</time>
      </trkpt>
      <trkpt lat="45.08725" lon="5.80674">
        <ele>722</ele>
        <time>2021-05-29T11:27:44Z</time>
      </trkpt>
      <trkpt lat="45.08726" lon="5.80674">
        <ele>722</ele>
        <time>2021-05-29T11:27:45Z</time>
      </trkpt>
      <trkpt lat="45.08728" lon="5.80674">
        <ele>722.2</ele>
        <time>2021-05-29T11:27:46Z</time>
      </trkpt>
      <trkpt lat="45.08729" lon="5.80674">
        <ele>722.4</ele>
        <time>2021-05-29T11:27:47Z</time>
      </trkpt>
      <trkpt lat="45.0873" lon="5.80675">
        <ele>722.4</ele>
        <time>2021-05-29T11:27:48Z</time>
      </trkpt>
      <trkpt lat="45.08731" lon="5.80675">
        <ele>722.4</ele>
        <time>2021-05-29T11:27:49Z</time>
      </trkpt>
      <trkpt lat="45.08733" lon="5.80675">
        <ele>722</ele>
        <time>2021-05-29T11:27:50Z</time>
      </trkpt>
      <trkpt lat="45.08734" lon="5.80675">
        <ele>722</ele>
        <time>2021-05-29T11:27:51Z</time>
      </trkpt>
      <trkpt lat="45.08735" lon="5.80676">
        <ele>721.4</ele>
        <time>2021-05-29T11:27:52Z</time>
      </trkpt>
      <trkpt lat="45.08737" lon="5.80677">
        <ele>721.2</ele>
        <time>2021-05-29T11:27:53Z</time>
      </trkpt>
      <trkpt lat="45.08738" lon="5.80678">
        <ele>721.2</ele>
        <time>2021-05-29T11:27:54Z</time>
      </trkpt>
      <trkpt lat="45.0874" lon="5.80679">
        <ele>721.6</ele>
        <time>2021-05-29T11:27:55Z</time>
      </trkpt>
      <trkpt lat="45.08742" lon="5.80681">
        <ele>721.4</ele>
        <time>2021-05-29T11:27:56Z</time>
      </trkpt>
      <trkpt lat="45.08744" lon="5.80682">
        <ele>721.8</ele>
        <time>2021-05-29T11:27:57Z</time>
      </trkpt>
      <trkpt lat="45.08745" lon="5.80683">
        <ele>721.6</ele>
        <time>2021-05-29T11:27:58Z</time>
      </trkpt>
      <trkpt lat="45.08747" lon="5.80685">
        <ele>721.8</ele>
        <time>2021-05-29T11:27:59Z</time>
      </trkpt>
      <trkpt lat="45.08749" lon="5.80686">
        <ele>721.4</ele>
        <time>2021-05-29T11:28:00Z</time>
      </trkpt>
      <trkpt lat="45.08751" lon="5.80687">
        <ele>721.6</ele>
        <time>2021-05-29T11:28:01Z</time>
      </trkpt>
      <trkpt lat="45.08752" lon="5.80688">
        <ele>721.4</ele>
        <time>2021-05-29T11:28:02Z</time>
      </trkpt>
      <trkpt lat="45.08754" lon="5.80689">
        <ele>721.6</ele>
        <time>2021-05-29T11:28:03Z</time>
      </trkpt>
      <trkpt lat="45.08756" lon="5.8069">
        <ele>721.4</ele>
        <time>2021-05-29T11:28:04Z</time>
      </trkpt>
      <trkpt lat="45.08757" lon="5.80691">
        <ele>721.6</ele>
        <time>2021-05-29T11:28:05Z</time>
      </trkpt>
      <trkpt lat="45.08759" lon="5.80692">
        <ele>721.8</ele>
        <time>2021-05-29T11:28:06Z</time>
      </trkpt>
      <trkpt lat="45.08761" lon="5.80693">
        <ele>721.8</ele>
        <time>2021-05-29T11:28:07Z</time>
      </trkpt>
      <trkpt lat="45.08762" lon="5.80693">
        <ele>721.4</ele>
        <time>2021-05-29T11:28:08Z</time>
      </trkpt>
      <trkpt lat="45.08764" lon="5.80694">
        <ele>721.6</ele>
        <time>2021-05-29T11:28:09Z</time>
      </trkpt>
      <trkpt lat="45.08765" lon="5.80696">
        <ele>721.8</ele>
        <time>2021-05-29T11:28:10Z</time>
      </trkpt>
      <trkpt lat="45.08767" lon="5.80698">
        <ele>722</ele>
        <time>2021-05-29T11:28:11Z</time>
      </trkpt>
      <trkpt lat="45.08768" lon="5.80699">
        <ele>722</ele>
        <time>2021-05-29T11:28:12Z</time>
      </trkpt>
      <trkpt lat="45.0877" lon="5.80701">
        <ele>722.4</ele>
        <time>2021-05-29T11:28:13Z</time>
      </trkpt>
      <trkpt lat="45.08771" lon="5.80702">
        <ele>722.4</ele>
        <time>2021-05-29T11:28:14Z</time>
      </trkpt>
      <trkpt lat="45.08772" lon="5.80704">
        <ele>722.8</ele>
        <time>2021-05-29T11:28:15Z</time>
      </trkpt>
      <trkpt lat="45.08773" lon="5.80706">
        <ele>722.6</ele>
        <time>2021-05-29T11:28:16Z</time>
      </trkpt>
      <trkpt lat="45.08774" lon="5.80708">
        <ele>723</ele>
        <time>2021-05-29T11:28:17Z</time>
      </trkpt>
      <trkpt lat="45.08774" lon="5.8071">
        <ele>723.2</ele>
        <time>2021-05-29T11:28:18Z</time>
      </trkpt>
      <trkpt lat="45.08775" lon="5.80711">
        <ele>723.6</ele>
        <time>2021-05-29T11:28:19Z</time>
      </trkpt>
      <trkpt lat="45.08776" lon="5.80713">
        <ele>723.8</ele>
        <time>2021-05-29T11:28:20Z</time>
      </trkpt>
      <trkpt lat="45.08778" lon="5.80715">
        <ele>724</ele>
        <time>2021-05-29T11:28:21Z</time>
      </trkpt>
      <trkpt lat="45.08779" lon="5.80718">
        <ele>724.2</ele>
        <time>2021-05-29T11:28:22Z</time>
      </trkpt>
      <trkpt lat="45.08781" lon="5.8072">
        <ele>724.2</ele>
        <time>2021-05-29T11:28:23Z</time>
      </trkpt>
      <trkpt lat="45.08783" lon="5.80722">
        <ele>724.4</ele>
        <time>2021-05-29T11:28:24Z</time>
      </trkpt>
      <trkpt lat="45.08783" lon="5.80725">
        <ele>724.6</ele>
        <time>2021-05-29T11:28:25Z</time>
      </trkpt>
      <trkpt lat="45.08784" lon="5.80727">
        <ele>724.6</ele>
        <time>2021-05-29T11:28:26Z</time>
      </trkpt>
      <trkpt lat="45.08785" lon="5.8073">
        <ele>724.6</ele>
        <time>2021-05-29T11:28:27Z</time>
      </trkpt>
      <trkpt lat="45.08786" lon="5.80733">
        <ele>724.6</ele>
        <time>2021-05-29T11:28:28Z</time>
      </trkpt>
      <trkpt lat="45.08787" lon="5.80735">
        <ele>724.6</ele>
        <time>2021-05-29T11:28:29Z</time>
      </trkpt>
      <trkpt lat="45.08788" lon="5.80738">
        <ele>724.6</ele>
        <time>2021-05-29T11:28:30Z</time>
      </trkpt>
      <trkpt lat="45.08788" lon="5.80741">
        <ele>724.8</ele>
        <time>2021-05-29T11:28:31Z</time>
      </trkpt>
      <trkpt lat="45.08789" lon="5.80744">
        <ele>725</ele>
        <time>2021-05-29T11:28:32Z</time>
      </trkpt>
      <trkpt lat="45.0879" lon="5.80747">
        <ele>725.2</ele>
        <time>2021-05-29T11:28:33Z</time>
      </trkpt>
      <trkpt lat="45.0879" lon="5.8075">
        <ele>725</ele>
        <time>2021-05-29T11:28:34Z</time>
      </trkpt>
      <trkpt lat="45.08791" lon="5.80752">
        <ele>724.8</ele>
        <time>2021-05-29T11:28:35Z</time>
      </trkpt>
      <trkpt lat="45.08792" lon="5.80755">
        <ele>725.2</ele>
        <time>2021-05-29T11:28:36Z</time>
      </trkpt>
      <trkpt lat="45.08793" lon="5.80758">
        <ele>724.8</ele>
        <time>2021-05-29T11:28:37Z</time>
      </trkpt>
      <trkpt lat="45.08794" lon="5.80761">
        <ele>725.2</ele>
        <time>2021-05-29T11:28:38Z</time>
      </trkpt>
      <trkpt lat="45.08795" lon="5.80764">
        <ele>725.2</ele>
        <time>2021-05-29T11:28:39Z</time>
      </trkpt>
      <trkpt lat="45.08797" lon="5.80767">
        <ele>725.4</ele>
        <time>2021-05-29T11:28:40Z</time>
      </trkpt>
      <trkpt lat="45.08798" lon="5.8077">
        <ele>725.2</ele>
        <time>2021-05-29T11:28:41Z</time>
      </trkpt>
      <trkpt lat="45.08799" lon="5.80772">
        <ele>725.2</ele>
        <time>2021-05-29T11:28:42Z</time>
      </trkpt>
      <trkpt lat="45.08801" lon="5.80775">
        <ele>725.4</ele>
        <time>2021-05-29T11:28:43Z</time>
      </trkpt>
      <trkpt lat="45.08803" lon="5.80777">
        <ele>725.4</ele>
        <time>2021-05-29T11:28:44Z</time>
      </trkpt>
      <trkpt lat="45.08805" lon="5.80779">
        <ele>725.8</ele>
        <time>2021-05-29T11:28:45Z</time>
      </trkpt>
      <trkpt lat="45.08807" lon="5.80781">
        <ele>726</ele>
        <time>2021-05-29T11:28:46Z</time>
      </trkpt>
      <trkpt lat="45.08807" lon="5.80783">
        <ele>726.2</ele>
        <time>2021-05-29T11:28:47Z</time>
      </trkpt>
      <trkpt lat="45.08808" lon="5.80785">
        <ele>726.2</ele>
        <time>2021-05-29T11:28:48Z</time>
      </trkpt>
      <trkpt lat="45.08809" lon="5.80786">
        <ele>726.4</ele>
        <time>2021-05-29T11:28:49Z</time>
      </trkpt>
      <trkpt lat="45.08809" lon="5.80788">
        <ele>726.2</ele>
        <time>2021-05-29T11:28:50Z</time>
      </trkpt>
      <trkpt lat="45.0881" lon="5.80789">
        <ele>726.2</ele>
        <time>2021-05-29T11:28:51Z</time>
      </trkpt>
      <trkpt lat="45.08811" lon="5.80791">
        <ele>726.2</ele>
        <time>2021-05-29T11:28:52Z</time>
      </trkpt>
      <trkpt lat="45.08811" lon="5.80793">
        <ele>726.2</ele>
        <time>2021-05-29T11:28:53Z</time>
      </trkpt>
      <trkpt lat="45.08812" lon="5.80794">
        <ele>726.6</ele>
        <time>2021-05-29T11:28:54Z</time>
      </trkpt>
      <trkpt lat="45.08813" lon="5.80795">
        <ele>726.8</ele>
        <time>2021-05-29T11:28:55Z</time>
      </trkpt>
      <trkpt lat="45.08813" lon="5.80797">
        <ele>727</ele>
        <time>2021-05-29T11:28:56Z</time>
      </trkpt>
      <trkpt lat="45.08814" lon="5.80798">
        <ele>727</ele>
        <time>2021-05-29T11:28:57Z</time>
      </trkpt>
      <trkpt lat="45.08815" lon="5.808">
        <ele>727.2</ele>
        <time>2021-05-29T11:28:58Z</time>
      </trkpt>
      <trkpt lat="45.08815" lon="5.80801">
        <ele>727.4</ele>
        <time>2021-05-29T11:28:59Z</time>
      </trkpt>
      <trkpt lat="45.08816" lon="5.80802">
        <ele>727.6</ele>
        <time>2021-05-29T11:29:00Z</time>
      </trkpt>
      <trkpt lat="45.08817" lon="5.80804">
        <ele>727.8</ele>
        <time>2021-05-29T11:29:01Z</time>
      </trkpt>
      <trkpt lat="45.08818" lon="5.80804">
        <ele>728.2</ele>
        <time>2021-05-29T11:29:02Z</time>
      </trkpt>
      <trkpt lat="45.0882" lon="5.80805">
        <ele>728.4</ele>
        <time>2021-05-29T11:29:03Z</time>
      </trkpt>
      <trkpt lat="45.08821" lon="5.80806">
        <ele>728.2</ele>
        <time>2021-05-29T11:29:04Z</time>
      </trkpt>
      <trkpt lat="45.08823" lon="5.80807">
        <ele>728.2</ele>
        <time>2021-05-29T11:29:05Z</time>
      </trkpt>
      <trkpt lat="45.08824" lon="5.80807">
        <ele>728</ele>
        <time>2021-05-29T11:29:06Z</time>
      </trkpt>
      <trkpt lat="45.08826" lon="5.80808">
        <ele>727.8</ele>
        <time>2021-05-29T11:29:07Z</time>
      </trkpt>
      <trkpt lat="45.08827" lon="5.8081">
        <ele>727.8</ele>
        <time>2021-05-29T11:29:08Z</time>
      </trkpt>
      <trkpt lat="45.08829" lon="5.80811">
        <ele>728</ele>
        <time>2021-05-29T11:29:09Z</time>
      </trkpt>
      <trkpt lat="45.0883" lon="5.80813">
        <ele>728.2</ele>
        <time>2021-05-29T11:29:10Z</time>
      </trkpt>
      <trkpt lat="45.08831" lon="5.80815">
        <ele>728.2</ele>
        <time>2021-05-29T11:29:11Z</time>
      </trkpt>
      <trkpt lat="45.08833" lon="5.80816">
        <ele>728.4</ele>
        <time>2021-05-29T11:29:12Z</time>
      </trkpt>
      <trkpt lat="45.08834" lon="5.80818">
        <ele>728.4</ele>
        <time>2021-05-29T11:29:13Z</time>
      </trkpt>
      <trkpt lat="45.08835" lon="5.8082">
        <ele>728.4</ele>
        <time>2021-05-29T11:29:14Z</time>
      </trkpt>
      <trkpt lat="45.08836" lon="5.80822">
        <ele>728.2</ele>
        <time>2021-05-29T11:29:15Z</time>
      </trkpt>
      <trkpt lat="45.08837" lon="5.80824">
        <ele>728.4</ele>
        <time>2021-05-29T11:29:16Z</time>
      </trkpt>
      <trkpt lat="45.08839" lon="5.80826">
        <ele>728.2</ele>
        <time>2021-05-29T11:29:17Z</time>
      </trkpt>
      <trkpt lat="45.0884" lon="5.80827">
        <ele>728.2</ele>
        <time>2021-05-29T11:29:18Z</time>
      </trkpt>
      <trkpt lat="45.08842" lon="5.8083">
        <ele>728.4</ele>
        <time>2021-05-29T11:29:19Z</time>
      </trkpt>
      <trkpt lat="45.08843" lon="5.80832">
        <ele>728.2</ele>
        <time>2021-05-29T11:29:20Z</time>
      </trkpt>
      <trkpt lat="45.08845" lon="5.80834">
        <ele>728.2</ele>
        <time>2021-05-29T11:29:21Z</time>
      </trkpt>
      <trkpt lat="45.08847" lon="5.80836">
        <ele>728.2</ele>
        <time>2021-05-29T11:29:22Z</time>
      </trkpt>
      <trkpt lat="45.08849" lon="5.80839">
        <ele>728</ele>
        <time>2021-05-29T11:29:23Z</time>
      </trkpt>
      <trkpt lat="45.08851" lon="5.80839">
        <ele>728.2</ele>
        <time>2021-05-29T11:29:24Z</time>
      </trkpt>
      <trkpt lat="45.08853" lon="5.8084">
        <ele>728.2</ele>
        <time>2021-05-29T11:29:25Z</time>
      </trkpt>
      <trkpt lat="45.08855" lon="5.80841">
        <ele>728</ele>
        <time>2021-05-29T11:29:26Z</time>
      </trkpt>
      <trkpt lat="45.08855" lon="5.80841">
        <ele>728</ele>
        <time>2021-05-29T11:29:27Z</time>
      </trkpt>
      <trkpt lat="45.08855" lon="5.80841">
        <ele>728</ele>
        <time>2021-05-29T11:29:28Z</time>
      </trkpt>
      <trkpt lat="45.08857" lon="5.8084">
        <ele>728</ele>
        <time>2021-05-29T11:29:29Z</time>
      </trkpt>
      <trkpt lat="45.08859" lon="5.8084">
        <ele>727.8</ele>
        <time>2021-05-29T11:29:30Z</time>
      </trkpt>
      <trkpt lat="45.0886" lon="5.80839">
        <ele>727.8</ele>
        <time>2021-05-29T11:29:31Z</time>
      </trkpt>
      <trkpt lat="45.08862" lon="5.80839">
        <ele>727.6</ele>
        <time>2021-05-29T11:29:32Z</time>
      </trkpt>
      <trkpt lat="45.08864" lon="5.80838">
        <ele>727.6</ele>
        <time>2021-05-29T11:29:33Z</time>
      </trkpt>
      <trkpt lat="45.0887" lon="5.80838">
        <ele>727.6</ele>
        <time>2021-05-29T11:29:34Z</time>
      </trkpt>
      <trkpt lat="45.08875" lon="5.80839">
        <ele>727.8</ele>
        <time>2021-05-29T11:29:35Z</time>
      </trkpt>
      <trkpt lat="45.08881" lon="5.80839">
        <ele>727.8</ele>
        <time>2021-05-29T11:29:36Z</time>
      </trkpt>
      <trkpt lat="45.08886" lon="5.80839">
        <ele>727.8</ele>
        <time>2021-05-29T11:29:37Z</time>
      </trkpt>
      <trkpt lat="45.08892" lon="5.8084">
        <ele>727.8</ele>
        <time>2021-05-29T11:29:38Z</time>
      </trkpt>
      <trkpt lat="45.08897" lon="5.8084">
        <ele>728</ele>
        <time>2021-05-29T11:29:39Z</time>
      </trkpt>
      <trkpt lat="45.0891" lon="5.80843">
        <ele>728.2</ele>
        <time>2021-05-29T11:29:40Z</time>
      </trkpt>
      <trkpt lat="45.0891" lon="5.80843">
        <ele>728.2</ele>
        <time>2021-05-29T11:29:41Z</time>
      </trkpt>
      <trkpt lat="45.0891" lon="5.80843">
        <ele>728.4</ele>
        <time>2021-05-29T11:29:42Z</time>
      </trkpt>
      <trkpt lat="45.08911" lon="5.80842">
        <ele>728.4</ele>
        <time>2021-05-29T11:29:43Z</time>
      </trkpt>
      <trkpt lat="45.08913" lon="5.80841">
        <ele>728.4</ele>
        <time>2021-05-29T11:29:44Z</time>
      </trkpt>
      <trkpt lat="45.08915" lon="5.80839">
        <ele>728.6</ele>
        <time>2021-05-29T11:29:45Z</time>
      </trkpt>
      <trkpt lat="45.08916" lon="5.80838">
        <ele>728.8</ele>
        <time>2021-05-29T11:29:46Z</time>
      </trkpt>
      <trkpt lat="45.08918" lon="5.80837">
        <ele>729</ele>
        <time>2021-05-29T11:29:47Z</time>
      </trkpt>
      <trkpt lat="45.08919" lon="5.80836">
        <ele>729.2</ele>
        <time>2021-05-29T11:29:48Z</time>
      </trkpt>
      <trkpt lat="45.0892" lon="5.80836">
        <ele>729.2</ele>
        <time>2021-05-29T11:29:49Z</time>
      </trkpt>
      <trkpt lat="45.08921" lon="5.80836">
        <ele>729.4</ele>
        <time>2021-05-29T11:29:50Z</time>
      </trkpt>
      <trkpt lat="45.08922" lon="5.80836">
        <ele>729.6</ele>
        <time>2021-05-29T11:29:51Z</time>
      </trkpt>
      <trkpt lat="45.08923" lon="5.80835">
        <ele>729.4</ele>
        <time>2021-05-29T11:29:52Z</time>
      </trkpt>
      <trkpt lat="45.08924" lon="5.80835">
        <ele>729.4</ele>
        <time>2021-05-29T11:29:53Z</time>
      </trkpt>
      <trkpt lat="45.08925" lon="5.80835">
        <ele>729.4</ele>
        <time>2021-05-29T11:29:54Z</time>
      </trkpt>
      <trkpt lat="45.08926" lon="5.80835">
        <ele>729.4</ele>
        <time>2021-05-29T11:29:55Z</time>
      </trkpt>
      <trkpt lat="45.08927" lon="5.80834">
        <ele>729.4</ele>
        <time>2021-05-29T11:29:56Z</time>
      </trkpt>
      <trkpt lat="45.08928" lon="5.80834">
        <ele>730.2</ele>
        <time>2021-05-29T11:29:57Z</time>
      </trkpt>
      <trkpt lat="45.08929" lon="5.80834">
        <ele>730.4</ele>
        <time>2021-05-29T11:29:58Z</time>
      </trkpt>
      <trkpt lat="45.08931" lon="5.80835">
        <ele>730.2</ele>
        <time>2021-05-29T11:30:00Z</time>
      </trkpt>
      <trkpt lat="45.08933" lon="5.80835">
        <ele>730.2</ele>
        <time>2021-05-29T11:30:01Z</time>
      </trkpt>
      <trkpt lat="45.08934" lon="5.80835">
        <ele>730</ele>
        <time>2021-05-29T11:30:02Z</time>
      </trkpt>
      <trkpt lat="45.08936" lon="5.80836">
        <ele>729.8</ele>
        <time>2021-05-29T11:30:03Z</time>
      </trkpt>
      <trkpt lat="45.08937" lon="5.80836">
        <ele>729.8</ele>
        <time>2021-05-29T11:30:04Z</time>
      </trkpt>
      <trkpt lat="45.08939" lon="5.80837">
        <ele>729.8</ele>
        <time>2021-05-29T11:30:05Z</time>
      </trkpt>
      <trkpt lat="45.08941" lon="5.80838">
        <ele>729.6</ele>
        <time>2021-05-29T11:30:06Z</time>
      </trkpt>
      <trkpt lat="45.08942" lon="5.80838">
        <ele>729.8</ele>
        <time>2021-05-29T11:30:07Z</time>
      </trkpt>
      <trkpt lat="45.08944" lon="5.80839">
        <ele>729.6</ele>
        <time>2021-05-29T11:30:08Z</time>
      </trkpt>
      <trkpt lat="45.08946" lon="5.8084">
        <ele>729.8</ele>
        <time>2021-05-29T11:30:09Z</time>
      </trkpt>
      <trkpt lat="45.08948" lon="5.80841">
        <ele>730</ele>
        <time>2021-05-29T11:30:10Z</time>
      </trkpt>
      <trkpt lat="45.08949" lon="5.80842">
        <ele>729.8</ele>
        <time>2021-05-29T11:30:11Z</time>
      </trkpt>
      <trkpt lat="45.08951" lon="5.80843">
        <ele>729.2</ele>
        <time>2021-05-29T11:30:12Z</time>
      </trkpt>
      <trkpt lat="45.08953" lon="5.80843">
        <ele>728.8</ele>
        <time>2021-05-29T11:30:13Z</time>
      </trkpt>
      <trkpt lat="45.08962" lon="5.80843">
        <ele>728.8</ele>
        <time>2021-05-29T11:30:14Z</time>
      </trkpt>
      <trkpt lat="45.08967" lon="5.80843">
        <ele>728.6</ele>
        <time>2021-05-29T11:30:15Z</time>
      </trkpt>
      <trkpt lat="45.08967" lon="5.80843">
        <ele>728.8</ele>
        <time>2021-05-29T11:30:16Z</time>
      </trkpt>
      <trkpt lat="45.08967" lon="5.80843">
        <ele>728.8</ele>
        <time>2021-05-29T11:30:17Z</time>
      </trkpt>
      <trkpt lat="45.08969" lon="5.80843">
        <ele>729.4</ele>
        <time>2021-05-29T11:30:18Z</time>
      </trkpt>
      <trkpt lat="45.08972" lon="5.80843">
        <ele>729.4</ele>
        <time>2021-05-29T11:30:19Z</time>
      </trkpt>
      <trkpt lat="45.08974" lon="5.80844">
        <ele>729.6</ele>
        <time>2021-05-29T11:30:20Z</time>
      </trkpt>
      <trkpt lat="45.08977" lon="5.80844">
        <ele>729.6</ele>
        <time>2021-05-29T11:30:21Z</time>
      </trkpt>
      <trkpt lat="45.08979" lon="5.80844">
        <ele>729.6</ele>
        <time>2021-05-29T11:30:22Z</time>
      </trkpt>
      <trkpt lat="45.08981" lon="5.80845">
        <ele>729.4</ele>
        <time>2021-05-29T11:30:23Z</time>
      </trkpt>
      <trkpt lat="45.08984" lon="5.80845">
        <ele>729.6</ele>
        <time>2021-05-29T11:30:24Z</time>
      </trkpt>
      <trkpt lat="45.08988" lon="5.80847">
        <ele>729.4</ele>
        <time>2021-05-29T11:30:25Z</time>
      </trkpt>
      <trkpt lat="45.08988" lon="5.80847">
        <ele>729.2</ele>
        <time>2021-05-29T11:30:26Z</time>
      </trkpt>
      <trkpt lat="45.08991" lon="5.80848">
        <ele>729</ele>
        <time>2021-05-29T11:30:27Z</time>
      </trkpt>
      <trkpt lat="45.08993" lon="5.80848">
        <ele>728.6</ele>
        <time>2021-05-29T11:30:28Z</time>
      </trkpt>
      <trkpt lat="45.08996" lon="5.80848">
        <ele>728.4</ele>
        <time>2021-05-29T11:30:29Z</time>
      </trkpt>
      <trkpt lat="45.08998" lon="5.80848">
        <ele>728.4</ele>
        <time>2021-05-29T11:30:30Z</time>
      </trkpt>
      <trkpt lat="45.09001" lon="5.80849">
        <ele>728.6</ele>
        <time>2021-05-29T11:30:31Z</time>
      </trkpt>
      <trkpt lat="45.09004" lon="5.8085">
        <ele>728.4</ele>
        <time>2021-05-29T11:30:32Z</time>
      </trkpt>
      <trkpt lat="45.09006" lon="5.80851">
        <ele>728.2</ele>
        <time>2021-05-29T11:30:33Z</time>
      </trkpt>
      <trkpt lat="45.09009" lon="5.80852">
        <ele>728</ele>
        <time>2021-05-29T11:30:34Z</time>
      </trkpt>
      <trkpt lat="45.0901" lon="5.80853">
        <ele>727.6</ele>
        <time>2021-05-29T11:30:35Z</time>
      </trkpt>
      <trkpt lat="45.09011" lon="5.80854">
        <ele>728</ele>
        <time>2021-05-29T11:30:36Z</time>
      </trkpt>
      <trkpt lat="45.09012" lon="5.80855">
        <ele>727.4</ele>
        <time>2021-05-29T11:30:37Z</time>
      </trkpt>
      <trkpt lat="45.09013" lon="5.80856">
        <ele>727</ele>
        <time>2021-05-29T11:30:38Z</time>
      </trkpt>
      <trkpt lat="45.09014" lon="5.80857">
        <ele>726.6</ele>
        <time>2021-05-29T11:30:39Z</time>
      </trkpt>
      <trkpt lat="45.09019" lon="5.80862">
        <ele>726.6</ele>
        <time>2021-05-29T11:30:40Z</time>
      </trkpt>
      <trkpt lat="45.09019" lon="5.80862">
        <ele>726.4</ele>
        <time>2021-05-29T11:30:42Z</time>
      </trkpt>
      <trkpt lat="45.09019" lon="5.80865">
        <ele>726.2</ele>
        <time>2021-05-29T11:30:43Z</time>
      </trkpt>
      <trkpt lat="45.09019" lon="5.80868">
        <ele>725.8</ele>
        <time>2021-05-29T11:30:44Z</time>
      </trkpt>
      <trkpt lat="45.0902" lon="5.80871">
        <ele>725</ele>
        <time>2021-05-29T11:30:45Z</time>
      </trkpt>
      <trkpt lat="45.0902" lon="5.80874">
        <ele>724.8</ele>
        <time>2021-05-29T11:30:46Z</time>
      </trkpt>
      <trkpt lat="45.0902" lon="5.80877">
        <ele>725</ele>
        <time>2021-05-29T11:30:47Z</time>
      </trkpt>
      <trkpt lat="45.09021" lon="5.80881">
        <ele>724.8</ele>
        <time>2021-05-29T11:30:48Z</time>
      </trkpt>
      <trkpt lat="45.09021" lon="5.80884">
        <ele>725</ele>
        <time>2021-05-29T11:30:49Z</time>
      </trkpt>
      <trkpt lat="45.09022" lon="5.80888">
        <ele>724.8</ele>
        <time>2021-05-29T11:30:50Z</time>
      </trkpt>
      <trkpt lat="45.09022" lon="5.80891">
        <ele>724.6</ele>
        <time>2021-05-29T11:30:51Z</time>
      </trkpt>
      <trkpt lat="45.09023" lon="5.80894">
        <ele>724.2</ele>
        <time>2021-05-29T11:30:52Z</time>
      </trkpt>
      <trkpt lat="45.09023" lon="5.80898">
        <ele>723.6</ele>
        <time>2021-05-29T11:30:53Z</time>
      </trkpt>
      <trkpt lat="45.09024" lon="5.80901">
        <ele>723.8</ele>
        <time>2021-05-29T11:30:54Z</time>
      </trkpt>
      <trkpt lat="45.09027" lon="5.80906">
        <ele>723.4</ele>
        <time>2021-05-29T11:30:55Z</time>
      </trkpt>
      <trkpt lat="45.09029" lon="5.80909">
        <ele>723.4</ele>
        <time>2021-05-29T11:30:56Z</time>
      </trkpt>
      <trkpt lat="45.0903" lon="5.80912">
        <ele>723</ele>
        <time>2021-05-29T11:30:57Z</time>
      </trkpt>
      <trkpt lat="45.09034" lon="5.80917">
        <ele>723</ele>
        <time>2021-05-29T11:30:58Z</time>
      </trkpt>
      <trkpt lat="45.09034" lon="5.80917">
        <ele>722.6</ele>
        <time>2021-05-29T11:30:59Z</time>
      </trkpt>
      <trkpt lat="45.09036" lon="5.80919">
        <ele>722.4</ele>
        <time>2021-05-29T11:31:00Z</time>
      </trkpt>
      <trkpt lat="45.09038" lon="5.80922">
        <ele>722</ele>
        <time>2021-05-29T11:31:01Z</time>
      </trkpt>
      <trkpt lat="45.09039" lon="5.80924">
        <ele>721.2</ele>
        <time>2021-05-29T11:31:02Z</time>
      </trkpt>
      <trkpt lat="45.09041" lon="5.80926">
        <ele>721.4</ele>
        <time>2021-05-29T11:31:03Z</time>
      </trkpt>
      <trkpt lat="45.09042" lon="5.80929">
        <ele>721.4</ele>
        <time>2021-05-29T11:31:04Z</time>
      </trkpt>
      <trkpt lat="45.09042" lon="5.80931">
        <ele>721</ele>
        <time>2021-05-29T11:31:05Z</time>
      </trkpt>
      <trkpt lat="45.09042" lon="5.80933">
        <ele>720.6</ele>
        <time>2021-05-29T11:31:06Z</time>
      </trkpt>
      <trkpt lat="45.09043" lon="5.80935">
        <ele>719.6</ele>
        <time>2021-05-29T11:31:07Z</time>
      </trkpt>
      <trkpt lat="45.09043" lon="5.80937">
        <ele>719.8</ele>
        <time>2021-05-29T11:31:08Z</time>
      </trkpt>
      <trkpt lat="45.09044" lon="5.80939">
        <ele>719.4</ele>
        <time>2021-05-29T11:31:09Z</time>
      </trkpt>
      <trkpt lat="45.09044" lon="5.8094">
        <ele>719</ele>
        <time>2021-05-29T11:31:10Z</time>
      </trkpt>
      <trkpt lat="45.09045" lon="5.8094">
        <ele>718.4</ele>
        <time>2021-05-29T11:31:11Z</time>
      </trkpt>
      <trkpt lat="45.09046" lon="5.80941">
        <ele>717.6</ele>
        <time>2021-05-29T11:31:12Z</time>
      </trkpt>
      <trkpt lat="45.09046" lon="5.80941">
        <ele>716.6</ele>
        <time>2021-05-29T11:31:13Z</time>
      </trkpt>
      <trkpt lat="45.09047" lon="5.80942">
        <ele>716</ele>
        <time>2021-05-29T11:31:14Z</time>
      </trkpt>
      <trkpt lat="45.09047" lon="5.80943">
        <ele>716</ele>
        <time>2021-05-29T11:31:15Z</time>
      </trkpt>
      <trkpt lat="45.09048" lon="5.80943">
        <ele>715.8</ele>
        <time>2021-05-29T11:31:16Z</time>
      </trkpt>
      <trkpt lat="45.09049" lon="5.80944">
        <ele>715.6</ele>
        <time>2021-05-29T11:31:17Z</time>
      </trkpt>
      <trkpt lat="45.09049" lon="5.80944">
        <ele>715</ele>
        <time>2021-05-29T11:31:18Z</time>
      </trkpt>
      <trkpt lat="45.0905" lon="5.80945">
        <ele>714.6</ele>
        <time>2021-05-29T11:31:19Z</time>
      </trkpt>
      <trkpt lat="45.0905" lon="5.80945">
        <ele>714.2</ele>
        <time>2021-05-29T11:31:20Z</time>
      </trkpt>
      <trkpt lat="45.09051" lon="5.80946">
        <ele>713.8</ele>
        <time>2021-05-29T11:31:21Z</time>
      </trkpt>
      <trkpt lat="45.09052" lon="5.80946">
        <ele>714</ele>
        <time>2021-05-29T11:31:22Z</time>
      </trkpt>
      <trkpt lat="45.09052" lon="5.80947">
        <ele>713.8</ele>
        <time>2021-05-29T11:31:23Z</time>
      </trkpt>
      <trkpt lat="45.09053" lon="5.80947">
        <ele>713.8</ele>
        <time>2021-05-29T11:31:24Z</time>
      </trkpt>
      <trkpt lat="45.09054" lon="5.80948">
        <ele>713.8</ele>
        <time>2021-05-29T11:31:25Z</time>
      </trkpt>
      <trkpt lat="45.09056" lon="5.80949">
        <ele>713.6</ele>
        <time>2021-05-29T11:31:26Z</time>
      </trkpt>
      <trkpt lat="45.09057" lon="5.8095">
        <ele>713.4</ele>
        <time>2021-05-29T11:31:27Z</time>
      </trkpt>
      <trkpt lat="45.09058" lon="5.80951">
        <ele>713</ele>
        <time>2021-05-29T11:31:28Z</time>
      </trkpt>
      <trkpt lat="45.0906" lon="5.80952">
        <ele>712.8</ele>
        <time>2021-05-29T11:31:29Z</time>
      </trkpt>
      <trkpt lat="45.09061" lon="5.80953">
        <ele>712.4</ele>
        <time>2021-05-29T11:31:30Z</time>
      </trkpt>
      <trkpt lat="45.09062" lon="5.80958">
        <ele>712.6</ele>
        <time>2021-05-29T11:31:31Z</time>
      </trkpt>
      <trkpt lat="45.09063" lon="5.80964">
        <ele>712.4</ele>
        <time>2021-05-29T11:31:32Z</time>
      </trkpt>
      <trkpt lat="45.09063" lon="5.8097">
        <ele>712.4</ele>
        <time>2021-05-29T11:31:33Z</time>
      </trkpt>
      <trkpt lat="45.09064" lon="5.80976">
        <ele>711.8</ele>
        <time>2021-05-29T11:31:34Z</time>
      </trkpt>
      <trkpt lat="45.09066" lon="5.80986">
        <ele>711.4</ele>
        <time>2021-05-29T11:31:35Z</time>
      </trkpt>
      <trkpt lat="45.09067" lon="5.80989">
        <ele>711.4</ele>
        <time>2021-05-29T11:31:36Z</time>
      </trkpt>
      <trkpt lat="45.09067" lon="5.80991">
        <ele>711.2</ele>
        <time>2021-05-29T11:31:37Z</time>
      </trkpt>
      <trkpt lat="45.09068" lon="5.80999">
        <ele>711.2</ele>
        <time>2021-05-29T11:31:38Z</time>
      </trkpt>
      <trkpt lat="45.09068" lon="5.80999">
        <ele>710.8</ele>
        <time>2021-05-29T11:31:39Z</time>
      </trkpt>
      <trkpt lat="45.09068" lon="5.80999">
        <ele>711</ele>
        <time>2021-05-29T11:31:40Z</time>
      </trkpt>
      <trkpt lat="45.09068" lon="5.81002">
        <ele>710.6</ele>
        <time>2021-05-29T11:31:41Z</time>
      </trkpt>
      <trkpt lat="45.09068" lon="5.81006">
        <ele>710.6</ele>
        <time>2021-05-29T11:31:42Z</time>
      </trkpt>
      <trkpt lat="45.09069" lon="5.81009">
        <ele>710.6</ele>
        <time>2021-05-29T11:31:43Z</time>
      </trkpt>
      <trkpt lat="45.09069" lon="5.81013">
        <ele>710.6</ele>
        <time>2021-05-29T11:31:44Z</time>
      </trkpt>
      <trkpt lat="45.09068" lon="5.81016">
        <ele>710.4</ele>
        <time>2021-05-29T11:31:45Z</time>
      </trkpt>
      <trkpt lat="45.09068" lon="5.81019">
        <ele>710.4</ele>
        <time>2021-05-29T11:31:46Z</time>
      </trkpt>
      <trkpt lat="45.09067" lon="5.81021">
        <ele>710.2</ele>
        <time>2021-05-29T11:31:47Z</time>
      </trkpt>
      <trkpt lat="45.09066" lon="5.81024">
        <ele>710.2</ele>
        <time>2021-05-29T11:31:48Z</time>
      </trkpt>
      <trkpt lat="45.09066" lon="5.81027">
        <ele>710</ele>
        <time>2021-05-29T11:31:49Z</time>
      </trkpt>
      <trkpt lat="45.09066" lon="5.81029">
        <ele>710</ele>
        <time>2021-05-29T11:31:50Z</time>
      </trkpt>
      <trkpt lat="45.09065" lon="5.81031">
        <ele>709.8</ele>
        <time>2021-05-29T11:31:51Z</time>
      </trkpt>
      <trkpt lat="45.09065" lon="5.81033">
        <ele>709.8</ele>
        <time>2021-05-29T11:31:52Z</time>
      </trkpt>
      <trkpt lat="45.09065" lon="5.81035">
        <ele>709.8</ele>
        <time>2021-05-29T11:31:53Z</time>
      </trkpt>
      <trkpt lat="45.09065" lon="5.81037">
        <ele>709.6</ele>
        <time>2021-05-29T11:31:54Z</time>
      </trkpt>
      <trkpt lat="45.09064" lon="5.81039">
        <ele>710.2</ele>
        <time>2021-05-29T11:31:55Z</time>
      </trkpt>
      <trkpt lat="45.09064" lon="5.81041">
        <ele>710.2</ele>
        <time>2021-05-29T11:31:56Z</time>
      </trkpt>
      <trkpt lat="45.09066" lon="5.81044">
        <ele>710</ele>
        <time>2021-05-29T11:31:57Z</time>
      </trkpt>
      <trkpt lat="45.09067" lon="5.81046">
        <ele>709.6</ele>
        <time>2021-05-29T11:31:58Z</time>
      </trkpt>
      <trkpt lat="45.09069" lon="5.81048">
        <ele>709.2</ele>
        <time>2021-05-29T11:31:59Z</time>
      </trkpt>
      <trkpt lat="45.09071" lon="5.8105">
        <ele>709.4</ele>
        <time>2021-05-29T11:32:00Z</time>
      </trkpt>
      <trkpt lat="45.09074" lon="5.81054">
        <ele>709.2</ele>
        <time>2021-05-29T11:32:01Z</time>
      </trkpt>
      <trkpt lat="45.09078" lon="5.81057">
        <ele>709.2</ele>
        <time>2021-05-29T11:32:02Z</time>
      </trkpt>
      <trkpt lat="45.09082" lon="5.8106">
        <ele>709</ele>
        <time>2021-05-29T11:32:03Z</time>
      </trkpt>
      <trkpt lat="45.09085" lon="5.81063">
        <ele>708.6</ele>
        <time>2021-05-29T11:32:04Z</time>
      </trkpt>
      <trkpt lat="45.0909" lon="5.81067">
        <ele>708.6</ele>
        <time>2021-05-29T11:32:05Z</time>
      </trkpt>
      <trkpt lat="45.0909" lon="5.81067">
        <ele>708.4</ele>
        <time>2021-05-29T11:32:06Z</time>
      </trkpt>
      <trkpt lat="45.0909" lon="5.81067">
        <ele>708.6</ele>
        <time>2021-05-29T11:32:07Z</time>
      </trkpt>
      <trkpt lat="45.09092" lon="5.81069">
        <ele>708.2</ele>
        <time>2021-05-29T11:32:08Z</time>
      </trkpt>
      <trkpt lat="45.09095" lon="5.81071">
        <ele>708.2</ele>
        <time>2021-05-29T11:32:09Z</time>
      </trkpt>
      <trkpt lat="45.09097" lon="5.81074">
        <ele>707.8</ele>
        <time>2021-05-29T11:32:10Z</time>
      </trkpt>
      <trkpt lat="45.091" lon="5.81076">
        <ele>707.6</ele>
        <time>2021-05-29T11:32:11Z</time>
      </trkpt>
      <trkpt lat="45.09102" lon="5.81077">
        <ele>707</ele>
        <time>2021-05-29T11:32:12Z</time>
      </trkpt>
      <trkpt lat="45.09104" lon="5.81078">
        <ele>706.8</ele>
        <time>2021-05-29T11:32:13Z</time>
      </trkpt>
      <trkpt lat="45.09107" lon="5.81079">
        <ele>706.6</ele>
        <time>2021-05-29T11:32:14Z</time>
      </trkpt>
      <trkpt lat="45.09109" lon="5.8108">
        <ele>706.2</ele>
        <time>2021-05-29T11:32:15Z</time>
      </trkpt>
      <trkpt lat="45.09112" lon="5.8108">
        <ele>705.8</ele>
        <time>2021-05-29T11:32:16Z</time>
      </trkpt>
      <trkpt lat="45.09114" lon="5.8108">
        <ele>705</ele>
        <time>2021-05-29T11:32:17Z</time>
      </trkpt>
      <trkpt lat="45.09117" lon="5.81081">
        <ele>704.8</ele>
        <time>2021-05-29T11:32:18Z</time>
      </trkpt>
      <trkpt lat="45.09119" lon="5.81081">
        <ele>704.8</ele>
        <time>2021-05-29T11:32:19Z</time>
      </trkpt>
      <trkpt lat="45.09122" lon="5.81082">
        <ele>704.4</ele>
        <time>2021-05-29T11:32:20Z</time>
      </trkpt>
      <trkpt lat="45.09124" lon="5.81083">
        <ele>704</ele>
        <time>2021-05-29T11:32:21Z</time>
      </trkpt>
      <trkpt lat="45.09127" lon="5.81084">
        <ele>703.2</ele>
        <time>2021-05-29T11:32:22Z</time>
      </trkpt>
      <trkpt lat="45.09129" lon="5.81085">
        <ele>702.8</ele>
        <time>2021-05-29T11:32:23Z</time>
      </trkpt>
      <trkpt lat="45.09131" lon="5.81083">
        <ele>703.2</ele>
        <time>2021-05-29T11:32:24Z</time>
      </trkpt>
      <trkpt lat="45.09132" lon="5.81082">
        <ele>703</ele>
        <time>2021-05-29T11:32:25Z</time>
      </trkpt>
      <trkpt lat="45.09134" lon="5.8108">
        <ele>703</ele>
        <time>2021-05-29T11:32:26Z</time>
      </trkpt>
      <trkpt lat="45.09135" lon="5.81078">
        <ele>702.6</ele>
        <time>2021-05-29T11:32:27Z</time>
      </trkpt>
      <trkpt lat="45.09137" lon="5.81077">
        <ele>702.4</ele>
        <time>2021-05-29T11:32:28Z</time>
      </trkpt>
      <trkpt lat="45.09139" lon="5.81077">
        <ele>702.2</ele>
        <time>2021-05-29T11:32:29Z</time>
      </trkpt>
      <trkpt lat="45.09141" lon="5.81077">
        <ele>701.4</ele>
        <time>2021-05-29T11:32:30Z</time>
      </trkpt>
      <trkpt lat="45.09143" lon="5.81076">
        <ele>701.4</ele>
        <time>2021-05-29T11:32:31Z</time>
      </trkpt>
      <trkpt lat="45.09145" lon="5.81076">
        <ele>701.2</ele>
        <time>2021-05-29T11:32:32Z</time>
      </trkpt>
      <trkpt lat="45.09147" lon="5.81076">
        <ele>701.2</ele>
        <time>2021-05-29T11:32:33Z</time>
      </trkpt>
      <trkpt lat="45.09149" lon="5.81076">
        <ele>701</ele>
        <time>2021-05-29T11:32:34Z</time>
      </trkpt>
      <trkpt lat="45.09151" lon="5.81076">
        <ele>700.8</ele>
        <time>2021-05-29T11:32:35Z</time>
      </trkpt>
      <trkpt lat="45.09153" lon="5.81076">
        <ele>700.2</ele>
        <time>2021-05-29T11:32:36Z</time>
      </trkpt>
      <trkpt lat="45.09155" lon="5.81076">
        <ele>699.8</ele>
        <time>2021-05-29T11:32:37Z</time>
      </trkpt>
      <trkpt lat="45.09157" lon="5.81075">
        <ele>699.8</ele>
        <time>2021-05-29T11:32:38Z</time>
      </trkpt>
      <trkpt lat="45.09159" lon="5.81075">
        <ele>699.8</ele>
        <time>2021-05-29T11:32:39Z</time>
      </trkpt>
      <trkpt lat="45.09161" lon="5.81074">
        <ele>700</ele>
        <time>2021-05-29T11:32:40Z</time>
      </trkpt>
      <trkpt lat="45.09163" lon="5.81073">
        <ele>699.6</ele>
        <time>2021-05-29T11:32:41Z</time>
      </trkpt>
      <trkpt lat="45.09164" lon="5.81073">
        <ele>699.6</ele>
        <time>2021-05-29T11:32:42Z</time>
      </trkpt>
      <trkpt lat="45.09166" lon="5.81072">
        <ele>699.2</ele>
        <time>2021-05-29T11:32:43Z</time>
      </trkpt>
      <trkpt lat="45.09168" lon="5.81071">
        <ele>699</ele>
        <time>2021-05-29T11:32:44Z</time>
      </trkpt>
      <trkpt lat="45.0917" lon="5.8107">
        <ele>698.6</ele>
        <time>2021-05-29T11:32:45Z</time>
      </trkpt>
      <trkpt lat="45.09172" lon="5.81069">
        <ele>698.2</ele>
        <time>2021-05-29T11:32:46Z</time>
      </trkpt>
      <trkpt lat="45.09174" lon="5.81068">
        <ele>698.2</ele>
        <time>2021-05-29T11:32:47Z</time>
      </trkpt>
      <trkpt lat="45.09176" lon="5.81066">
        <ele>697.8</ele>
        <time>2021-05-29T11:32:48Z</time>
      </trkpt>
      <trkpt lat="45.09177" lon="5.81065">
        <ele>697.8</ele>
        <time>2021-05-29T11:32:49Z</time>
      </trkpt>
      <trkpt lat="45.09178" lon="5.81064">
        <ele>697.6</ele>
        <time>2021-05-29T11:32:50Z</time>
      </trkpt>
      <trkpt lat="45.09179" lon="5.81064">
        <ele>697.4</ele>
        <time>2021-05-29T11:32:51Z</time>
      </trkpt>
      <trkpt lat="45.0918" lon="5.81063">
        <ele>697</ele>
        <time>2021-05-29T11:32:52Z</time>
      </trkpt>
      <trkpt lat="45.09181" lon="5.81062">
        <ele>696.6</ele>
        <time>2021-05-29T11:32:53Z</time>
      </trkpt>
      <trkpt lat="45.09182" lon="5.81061">
        <ele>696.6</ele>
        <time>2021-05-29T11:32:54Z</time>
      </trkpt>
      <trkpt lat="45.09183" lon="5.81061">
        <ele>696.2</ele>
        <time>2021-05-29T11:32:55Z</time>
      </trkpt>
      <trkpt lat="45.09184" lon="5.8106">
        <ele>696.2</ele>
        <time>2021-05-29T11:32:56Z</time>
      </trkpt>
      <trkpt lat="45.09185" lon="5.81059">
        <ele>695.8</ele>
        <time>2021-05-29T11:32:57Z</time>
      </trkpt>
      <trkpt lat="45.09187" lon="5.81058">
        <ele>695.6</ele>
        <time>2021-05-29T11:32:58Z</time>
      </trkpt>
      <trkpt lat="45.09188" lon="5.81057">
        <ele>695.2</ele>
        <time>2021-05-29T11:32:59Z</time>
      </trkpt>
      <trkpt lat="45.09189" lon="5.81055">
        <ele>695</ele>
        <time>2021-05-29T11:33:00Z</time>
      </trkpt>
      <trkpt lat="45.0919" lon="5.81054">
        <ele>694.8</ele>
        <time>2021-05-29T11:33:01Z</time>
      </trkpt>
      <trkpt lat="45.09191" lon="5.81053">
        <ele>694.2</ele>
        <time>2021-05-29T11:33:02Z</time>
      </trkpt>
      <trkpt lat="45.09192" lon="5.81052">
        <ele>694.4</ele>
        <time>2021-05-29T11:33:03Z</time>
      </trkpt>
      <trkpt lat="45.09193" lon="5.81051">
        <ele>694.4</ele>
        <time>2021-05-29T11:33:04Z</time>
      </trkpt>
      <trkpt lat="45.09195" lon="5.8105">
        <ele>694.4</ele>
        <time>2021-05-29T11:33:05Z</time>
      </trkpt>
      <trkpt lat="45.09196" lon="5.81049">
        <ele>694.2</ele>
        <time>2021-05-29T11:33:06Z</time>
      </trkpt>
      <trkpt lat="45.09198" lon="5.81048">
        <ele>694.2</ele>
        <time>2021-05-29T11:33:07Z</time>
      </trkpt>
      <trkpt lat="45.092" lon="5.81048">
        <ele>693.8</ele>
        <time>2021-05-29T11:33:08Z</time>
      </trkpt>
      <trkpt lat="45.09201" lon="5.81047">
        <ele>693</ele>
        <time>2021-05-29T11:33:09Z</time>
      </trkpt>
      <trkpt lat="45.09203" lon="5.81046">
        <ele>693</ele>
        <time>2021-05-29T11:33:10Z</time>
      </trkpt>
      <trkpt lat="45.09205" lon="5.81046">
        <ele>692.6</ele>
        <time>2021-05-29T11:33:11Z</time>
      </trkpt>
      <trkpt lat="45.09207" lon="5.81046">
        <ele>692.4</ele>
        <time>2021-05-29T11:33:12Z</time>
      </trkpt>
      <trkpt lat="45.09209" lon="5.81046">
        <ele>692.2</ele>
        <time>2021-05-29T11:33:13Z</time>
      </trkpt>
      <trkpt lat="45.09211" lon="5.81045">
        <ele>691.8</ele>
        <time>2021-05-29T11:33:14Z</time>
      </trkpt>
      <trkpt lat="45.09213" lon="5.81045">
        <ele>691.4</ele>
        <time>2021-05-29T11:33:15Z</time>
      </trkpt>
      <trkpt lat="45.09215" lon="5.81044">
        <ele>690.6</ele>
        <time>2021-05-29T11:33:16Z</time>
      </trkpt>
      <trkpt lat="45.09216" lon="5.81044">
        <ele>690</ele>
        <time>2021-05-29T11:33:17Z</time>
      </trkpt>
      <trkpt lat="45.09218" lon="5.81043">
        <ele>689.6</ele>
        <time>2021-05-29T11:33:18Z</time>
      </trkpt>
      <trkpt lat="45.0922" lon="5.81042">
        <ele>689.8</ele>
        <time>2021-05-29T11:33:19Z</time>
      </trkpt>
      <trkpt lat="45.09222" lon="5.81042">
        <ele>689.4</ele>
        <time>2021-05-29T11:33:20Z</time>
      </trkpt>
      <trkpt lat="45.09224" lon="5.81041">
        <ele>689.2</ele>
        <time>2021-05-29T11:33:21Z</time>
      </trkpt>
      <trkpt lat="45.09226" lon="5.8104">
        <ele>688.8</ele>
        <time>2021-05-29T11:33:22Z</time>
      </trkpt>
      <trkpt lat="45.09228" lon="5.81039">
        <ele>688.2</ele>
        <time>2021-05-29T11:33:23Z</time>
      </trkpt>
      <trkpt lat="45.09229" lon="5.81038">
        <ele>688.2</ele>
        <time>2021-05-29T11:33:24Z</time>
      </trkpt>
      <trkpt lat="45.09231" lon="5.81037">
        <ele>687.8</ele>
        <time>2021-05-29T11:33:25Z</time>
      </trkpt>
      <trkpt lat="45.09233" lon="5.81036">
        <ele>688</ele>
        <time>2021-05-29T11:33:26Z</time>
      </trkpt>
      <trkpt lat="45.09234" lon="5.81036">
        <ele>687.8</ele>
        <time>2021-05-29T11:33:27Z</time>
      </trkpt>
      <trkpt lat="45.09236" lon="5.81036">
        <ele>687.6</ele>
        <time>2021-05-29T11:33:28Z</time>
      </trkpt>
      <trkpt lat="45.09238" lon="5.81035">
        <ele>687.2</ele>
        <time>2021-05-29T11:33:29Z</time>
      </trkpt>
      <trkpt lat="45.09239" lon="5.81035">
        <ele>687.2</ele>
        <time>2021-05-29T11:33:30Z</time>
      </trkpt>
      <trkpt lat="45.09241" lon="5.81035">
        <ele>686.6</ele>
        <time>2021-05-29T11:33:31Z</time>
      </trkpt>
      <trkpt lat="45.09242" lon="5.81035">
        <ele>686.2</ele>
        <time>2021-05-29T11:33:32Z</time>
      </trkpt>
      <trkpt lat="45.09243" lon="5.81035">
        <ele>686.2</ele>
        <time>2021-05-29T11:33:33Z</time>
      </trkpt>
      <trkpt lat="45.09245" lon="5.81035">
        <ele>686</ele>
        <time>2021-05-29T11:33:34Z</time>
      </trkpt>
      <trkpt lat="45.09246" lon="5.81036">
        <ele>686.2</ele>
        <time>2021-05-29T11:33:35Z</time>
      </trkpt>
      <trkpt lat="45.09247" lon="5.81036">
        <ele>685.8</ele>
        <time>2021-05-29T11:33:36Z</time>
      </trkpt>
      <trkpt lat="45.09249" lon="5.81036">
        <ele>685.8</ele>
        <time>2021-05-29T11:33:37Z</time>
      </trkpt>
      <trkpt lat="45.0925" lon="5.81036">
        <ele>685.6</ele>
        <time>2021-05-29T11:33:38Z</time>
      </trkpt>
      <trkpt lat="45.09251" lon="5.81038">
        <ele>685.6</ele>
        <time>2021-05-29T11:33:39Z</time>
      </trkpt>
      <trkpt lat="45.09253" lon="5.81039">
        <ele>685.6</ele>
        <time>2021-05-29T11:33:40Z</time>
      </trkpt>
      <trkpt lat="45.09254" lon="5.8104">
        <ele>685.6</ele>
        <time>2021-05-29T11:33:41Z</time>
      </trkpt>
      <trkpt lat="45.09255" lon="5.81042">
        <ele>685.6</ele>
        <time>2021-05-29T11:33:42Z</time>
      </trkpt>
      <trkpt lat="45.09257" lon="5.81043">
        <ele>685.6</ele>
        <time>2021-05-29T11:33:43Z</time>
      </trkpt>
      <trkpt lat="45.09258" lon="5.81045">
        <ele>685.2</ele>
        <time>2021-05-29T11:33:44Z</time>
      </trkpt>
      <trkpt lat="45.09261" lon="5.81047">
        <ele>685.2</ele>
        <time>2021-05-29T11:33:45Z</time>
      </trkpt>
      <trkpt lat="45.09264" lon="5.81049">
        <ele>685.2</ele>
        <time>2021-05-29T11:33:46Z</time>
      </trkpt>
      <trkpt lat="45.09268" lon="5.81051">
        <ele>685.2</ele>
        <time>2021-05-29T11:33:47Z</time>
      </trkpt>
      <trkpt lat="45.09271" lon="5.81053">
        <ele>685</ele>
        <time>2021-05-29T11:33:48Z</time>
      </trkpt>
      <trkpt lat="45.09274" lon="5.81055">
        <ele>685.2</ele>
        <time>2021-05-29T11:33:49Z</time>
      </trkpt>
      <trkpt lat="45.09281" lon="5.81058">
        <ele>684.8</ele>
        <time>2021-05-29T11:33:50Z</time>
      </trkpt>
      <trkpt lat="45.09282" lon="5.81058">
        <ele>684.6</ele>
        <time>2021-05-29T11:33:51Z</time>
      </trkpt>
      <trkpt lat="45.09284" lon="5.81058">
        <ele>684.8</ele>
        <time>2021-05-29T11:33:52Z</time>
      </trkpt>
      <trkpt lat="45.09289" lon="5.8106">
        <ele>684.6</ele>
        <time>2021-05-29T11:33:53Z</time>
      </trkpt>
      <trkpt lat="45.09291" lon="5.81061">
        <ele>684.8</ele>
        <time>2021-05-29T11:33:54Z</time>
      </trkpt>
      <trkpt lat="45.09292" lon="5.81061">
        <ele>684.8</ele>
        <time>2021-05-29T11:33:55Z</time>
      </trkpt>
      <trkpt lat="45.09294" lon="5.81062">
        <ele>685.2</ele>
        <time>2021-05-29T11:33:56Z</time>
      </trkpt>
      <trkpt lat="45.093" lon="5.81064">
        <ele>685.2</ele>
        <time>2021-05-29T11:33:57Z</time>
      </trkpt>
      <trkpt lat="45.093" lon="5.81064">
        <ele>685.6</ele>
        <time>2021-05-29T11:33:58Z</time>
      </trkpt>
      <trkpt lat="45.093" lon="5.81064">
        <ele>685.6</ele>
        <time>2021-05-29T11:33:59Z</time>
      </trkpt>
      <trkpt lat="45.09302" lon="5.81064">
        <ele>686</ele>
        <time>2021-05-29T11:34:00Z</time>
      </trkpt>
      <trkpt lat="45.09304" lon="5.81065">
        <ele>686.2</ele>
        <time>2021-05-29T11:34:01Z</time>
      </trkpt>
      <trkpt lat="45.09306" lon="5.81066">
        <ele>686.4</ele>
        <time>2021-05-29T11:34:02Z</time>
      </trkpt>
      <trkpt lat="45.09307" lon="5.81067">
        <ele>686</ele>
        <time>2021-05-29T11:34:03Z</time>
      </trkpt>
      <trkpt lat="45.09309" lon="5.81067">
        <ele>686.4</ele>
        <time>2021-05-29T11:34:04Z</time>
      </trkpt>
      <trkpt lat="45.09311" lon="5.81068">
        <ele>686.2</ele>
        <time>2021-05-29T11:34:05Z</time>
      </trkpt>
      <trkpt lat="45.09313" lon="5.81068">
        <ele>686</ele>
        <time>2021-05-29T11:34:06Z</time>
      </trkpt>
      <trkpt lat="45.09316" lon="5.81069">
        <ele>685.8</ele>
        <time>2021-05-29T11:34:07Z</time>
      </trkpt>
      <trkpt lat="45.09318" lon="5.81069">
        <ele>685.6</ele>
        <time>2021-05-29T11:34:08Z</time>
      </trkpt>
      <trkpt lat="45.0932" lon="5.8107">
        <ele>685.4</ele>
        <time>2021-05-29T11:34:09Z</time>
      </trkpt>
      <trkpt lat="45.09322" lon="5.8107">
        <ele>685.4</ele>
        <time>2021-05-29T11:34:10Z</time>
      </trkpt>
      <trkpt lat="45.09325" lon="5.8107">
        <ele>685.6</ele>
        <time>2021-05-29T11:34:11Z</time>
      </trkpt>
      <trkpt lat="45.09327" lon="5.8107">
        <ele>685.4</ele>
        <time>2021-05-29T11:34:12Z</time>
      </trkpt>
      <trkpt lat="45.0933" lon="5.8107">
        <ele>685.8</ele>
        <time>2021-05-29T11:34:13Z</time>
      </trkpt>
      <trkpt lat="45.09332" lon="5.8107">
        <ele>685.4</ele>
        <time>2021-05-29T11:34:14Z</time>
      </trkpt>
      <trkpt lat="45.09335" lon="5.8107">
        <ele>685.4</ele>
        <time>2021-05-29T11:34:15Z</time>
      </trkpt>
      <trkpt lat="45.09337" lon="5.81071">
        <ele>685.4</ele>
        <time>2021-05-29T11:34:16Z</time>
      </trkpt>
      <trkpt lat="45.0934" lon="5.81071">
        <ele>685.6</ele>
        <time>2021-05-29T11:34:17Z</time>
      </trkpt>
      <trkpt lat="45.09342" lon="5.81072">
        <ele>685.4</ele>
        <time>2021-05-29T11:34:18Z</time>
      </trkpt>
      <trkpt lat="45.09344" lon="5.81073">
        <ele>685.6</ele>
        <time>2021-05-29T11:34:19Z</time>
      </trkpt>
      <trkpt lat="45.09347" lon="5.81074">
        <ele>685.2</ele>
        <time>2021-05-29T11:34:20Z</time>
      </trkpt>
      <trkpt lat="45.09349" lon="5.81075">
        <ele>685.2</ele>
        <time>2021-05-29T11:34:21Z</time>
      </trkpt>
      <trkpt lat="45.0935" lon="5.81076">
        <ele>685.2</ele>
        <time>2021-05-29T11:34:22Z</time>
      </trkpt>
      <trkpt lat="45.09352" lon="5.81076">
        <ele>684.8</ele>
        <time>2021-05-29T11:34:23Z</time>
      </trkpt>
      <trkpt lat="45.09353" lon="5.81077">
        <ele>684.4</ele>
        <time>2021-05-29T11:34:24Z</time>
      </trkpt>
      <trkpt lat="45.09355" lon="5.81078">
        <ele>684.4</ele>
        <time>2021-05-29T11:34:25Z</time>
      </trkpt>
      <trkpt lat="45.09356" lon="5.81078">
        <ele>684.8</ele>
        <time>2021-05-29T11:34:26Z</time>
      </trkpt>
      <trkpt lat="45.09358" lon="5.81079">
        <ele>684.8</ele>
        <time>2021-05-29T11:34:27Z</time>
      </trkpt>
      <trkpt lat="45.09362" lon="5.8108">
        <ele>684.8</ele>
        <time>2021-05-29T11:34:28Z</time>
      </trkpt>
      <trkpt lat="45.09367" lon="5.81081">
        <ele>684.4</ele>
        <time>2021-05-29T11:34:29Z</time>
      </trkpt>
      <trkpt lat="45.09371" lon="5.81081">
        <ele>684.2</ele>
        <time>2021-05-29T11:34:30Z</time>
      </trkpt>
      <trkpt lat="45.09376" lon="5.81082">
        <ele>684.2</ele>
        <time>2021-05-29T11:34:31Z</time>
      </trkpt>
      <trkpt lat="45.09381" lon="5.81083">
        <ele>684</ele>
        <time>2021-05-29T11:34:32Z</time>
      </trkpt>
      <trkpt lat="45.09385" lon="5.81084">
        <ele>684</ele>
        <time>2021-05-29T11:34:33Z</time>
      </trkpt>
      <trkpt lat="45.0939" lon="5.81085">
        <ele>683.8</ele>
        <time>2021-05-29T11:34:34Z</time>
      </trkpt>
      <trkpt lat="45.094" lon="5.81088">
        <ele>683.8</ele>
        <time>2021-05-29T11:34:35Z</time>
      </trkpt>
      <trkpt lat="45.09404" lon="5.81088">
        <ele>683.4</ele>
        <time>2021-05-29T11:34:36Z</time>
      </trkpt>
      <trkpt lat="45.09407" lon="5.81089">
        <ele>683.2</ele>
        <time>2021-05-29T11:34:37Z</time>
      </trkpt>
      <trkpt lat="45.09418" lon="5.81091">
        <ele>682.8</ele>
        <time>2021-05-29T11:34:38Z</time>
      </trkpt>
      <trkpt lat="45.09421" lon="5.81092">
        <ele>682.6</ele>
        <time>2021-05-29T11:34:39Z</time>
      </trkpt>
      <trkpt lat="45.09431" lon="5.81096">
        <ele>682.2</ele>
        <time>2021-05-29T11:34:40Z</time>
      </trkpt>
      <trkpt lat="45.09435" lon="5.81098">
        <ele>682.2</ele>
        <time>2021-05-29T11:34:41Z</time>
      </trkpt>
      <trkpt lat="45.09444" lon="5.81102">
        <ele>682.4</ele>
        <time>2021-05-29T11:34:42Z</time>
      </trkpt>
      <trkpt lat="45.09447" lon="5.81103">
        <ele>682.2</ele>
        <time>2021-05-29T11:34:43Z</time>
      </trkpt>
      <trkpt lat="45.09455" lon="5.81104">
        <ele>682</ele>
        <time>2021-05-29T11:34:44Z</time>
      </trkpt>
      <trkpt lat="45.09458" lon="5.81103">
        <ele>681.6</ele>
        <time>2021-05-29T11:34:45Z</time>
      </trkpt>
      <trkpt lat="45.09463" lon="5.81101">
        <ele>681.6</ele>
        <time>2021-05-29T11:34:46Z</time>
      </trkpt>
      <trkpt lat="45.09465" lon="5.811">
        <ele>681.4</ele>
        <time>2021-05-29T11:34:47Z</time>
      </trkpt>
      <trkpt lat="45.09466" lon="5.811">
        <ele>681</ele>
        <time>2021-05-29T11:34:48Z</time>
      </trkpt>
      <trkpt lat="45.09468" lon="5.811">
        <ele>681.6</ele>
        <time>2021-05-29T11:34:49Z</time>
      </trkpt>
      <trkpt lat="45.0947" lon="5.81099">
        <ele>681.4</ele>
        <time>2021-05-29T11:34:50Z</time>
      </trkpt>
      <trkpt lat="45.09471" lon="5.81099">
        <ele>681.4</ele>
        <time>2021-05-29T11:34:51Z</time>
      </trkpt>
      <trkpt lat="45.09473" lon="5.81098">
        <ele>681.4</ele>
        <time>2021-05-29T11:34:52Z</time>
      </trkpt>
      <trkpt lat="45.09475" lon="5.81098">
        <ele>681.2</ele>
        <time>2021-05-29T11:34:53Z</time>
      </trkpt>
      <trkpt lat="45.09476" lon="5.81098">
        <ele>681</ele>
        <time>2021-05-29T11:34:54Z</time>
      </trkpt>
      <trkpt lat="45.09478" lon="5.81097">
        <ele>681</ele>
        <time>2021-05-29T11:34:55Z</time>
      </trkpt>
      <trkpt lat="45.09479" lon="5.81097">
        <ele>681</ele>
        <time>2021-05-29T11:34:56Z</time>
      </trkpt>
      <trkpt lat="45.09487" lon="5.81098">
        <ele>680.8</ele>
        <time>2021-05-29T11:34:57Z</time>
      </trkpt>
      <trkpt lat="45.09495" lon="5.81099">
        <ele>680.8</ele>
        <time>2021-05-29T11:34:58Z</time>
      </trkpt>
      <trkpt lat="45.09502" lon="5.811">
        <ele>680.8</ele>
        <time>2021-05-29T11:34:59Z</time>
      </trkpt>
      <trkpt lat="45.0951" lon="5.81101">
        <ele>681</ele>
        <time>2021-05-29T11:35:00Z</time>
      </trkpt>
      <trkpt lat="45.09517" lon="5.81102">
        <ele>681</ele>
        <time>2021-05-29T11:35:01Z</time>
      </trkpt>
      <trkpt lat="45.09522" lon="5.81103">
        <ele>680.8</ele>
        <time>2021-05-29T11:35:02Z</time>
      </trkpt>
      <trkpt lat="45.09522" lon="5.81103">
        <ele>681</ele>
        <time>2021-05-29T11:35:03Z</time>
      </trkpt>
      <trkpt lat="45.09522" lon="5.81103">
        <ele>681.2</ele>
        <time>2021-05-29T11:35:04Z</time>
      </trkpt>
      <trkpt lat="45.09525" lon="5.81101">
        <ele>681.4</ele>
        <time>2021-05-29T11:35:05Z</time>
      </trkpt>
      <trkpt lat="45.09527" lon="5.811">
        <ele>681.4</ele>
        <time>2021-05-29T11:35:06Z</time>
      </trkpt>
      <trkpt lat="45.0953" lon="5.81099">
        <ele>681.6</ele>
        <time>2021-05-29T11:35:07Z</time>
      </trkpt>
      <trkpt lat="45.09532" lon="5.81097">
        <ele>682</ele>
        <time>2021-05-29T11:35:08Z</time>
      </trkpt>
      <trkpt lat="45.09535" lon="5.81096">
        <ele>681.8</ele>
        <time>2021-05-29T11:35:09Z</time>
      </trkpt>
      <trkpt lat="45.09538" lon="5.81095">
        <ele>682.2</ele>
        <time>2021-05-29T11:35:10Z</time>
      </trkpt>
      <trkpt lat="45.09542" lon="5.81092">
        <ele>682.2</ele>
        <time>2021-05-29T11:35:11Z</time>
      </trkpt>
      <trkpt lat="45.09542" lon="5.81092">
        <ele>682.4</ele>
        <time>2021-05-29T11:35:12Z</time>
      </trkpt>
      <trkpt lat="45.09542" lon="5.81092">
        <ele>682</ele>
        <time>2021-05-29T11:35:13Z</time>
      </trkpt>
      <trkpt lat="45.09542" lon="5.81092">
        <ele>681.8</ele>
        <time>2021-05-29T11:35:14Z</time>
      </trkpt>
      <trkpt lat="45.09544" lon="5.81091">
        <ele>681.2</ele>
        <time>2021-05-29T11:35:15Z</time>
      </trkpt>
      <trkpt lat="45.09545" lon="5.81091">
        <ele>680.6</ele>
        <time>2021-05-29T11:35:16Z</time>
      </trkpt>
      <trkpt lat="45.09547" lon="5.8109">
        <ele>680.8</ele>
        <time>2021-05-29T11:35:17Z</time>
      </trkpt>
      <trkpt lat="45.09549" lon="5.81089">
        <ele>680.6</ele>
        <time>2021-05-29T11:35:18Z</time>
      </trkpt>
      <trkpt lat="45.09551" lon="5.81088">
        <ele>680.8</ele>
        <time>2021-05-29T11:35:19Z</time>
      </trkpt>
      <trkpt lat="45.09553" lon="5.8109">
        <ele>680.8</ele>
        <time>2021-05-29T11:35:20Z</time>
      </trkpt>
      <trkpt lat="45.09554" lon="5.81091">
        <ele>680.8</ele>
        <time>2021-05-29T11:35:21Z</time>
      </trkpt>
      <trkpt lat="45.09555" lon="5.81092">
        <ele>680.6</ele>
        <time>2021-05-29T11:35:22Z</time>
      </trkpt>
      <trkpt lat="45.09556" lon="5.81093">
        <ele>680.6</ele>
        <time>2021-05-29T11:35:23Z</time>
      </trkpt>
      <trkpt lat="45.09557" lon="5.81093">
        <ele>680.2</ele>
        <time>2021-05-29T11:35:24Z</time>
      </trkpt>
      <trkpt lat="45.09559" lon="5.81094">
        <ele>679.6</ele>
        <time>2021-05-29T11:35:25Z</time>
      </trkpt>
      <trkpt lat="45.0956" lon="5.81095">
        <ele>679.8</ele>
        <time>2021-05-29T11:35:26Z</time>
      </trkpt>
      <trkpt lat="45.09561" lon="5.81096">
        <ele>679.4</ele>
        <time>2021-05-29T11:35:27Z</time>
      </trkpt>
      <trkpt lat="45.09562" lon="5.81097">
        <ele>679.4</ele>
        <time>2021-05-29T11:35:28Z</time>
      </trkpt>
      <trkpt lat="45.09563" lon="5.81098">
        <ele>679</ele>
        <time>2021-05-29T11:35:29Z</time>
      </trkpt>
      <trkpt lat="45.09565" lon="5.81099">
        <ele>678.4</ele>
        <time>2021-05-29T11:35:30Z</time>
      </trkpt>
      <trkpt lat="45.09566" lon="5.811">
        <ele>678.2</ele>
        <time>2021-05-29T11:35:31Z</time>
      </trkpt>
      <trkpt lat="45.09567" lon="5.81101">
        <ele>677.8</ele>
        <time>2021-05-29T11:35:32Z</time>
      </trkpt>
      <trkpt lat="45.09568" lon="5.81102">
        <ele>677.6</ele>
        <time>2021-05-29T11:35:33Z</time>
      </trkpt>
      <trkpt lat="45.09569" lon="5.81103">
        <ele>677</ele>
        <time>2021-05-29T11:35:34Z</time>
      </trkpt>
      <trkpt lat="45.09571" lon="5.81104">
        <ele>676.4</ele>
        <time>2021-05-29T11:35:35Z</time>
      </trkpt>
      <trkpt lat="45.09572" lon="5.81105">
        <ele>676.4</ele>
        <time>2021-05-29T11:35:36Z</time>
      </trkpt>
      <trkpt lat="45.09573" lon="5.81106">
        <ele>676</ele>
        <time>2021-05-29T11:35:37Z</time>
      </trkpt>
      <trkpt lat="45.09574" lon="5.81107">
        <ele>676</ele>
        <time>2021-05-29T11:35:38Z</time>
      </trkpt>
      <trkpt lat="45.0958" lon="5.81116">
        <ele>675.6</ele>
        <time>2021-05-29T11:35:39Z</time>
      </trkpt>
      <trkpt lat="45.09586" lon="5.81126">
        <ele>675.2</ele>
        <time>2021-05-29T11:35:40Z</time>
      </trkpt>
      <trkpt lat="45.09592" lon="5.81135">
        <ele>674.6</ele>
        <time>2021-05-29T11:35:41Z</time>
      </trkpt>
      <trkpt lat="45.09598" lon="5.81143">
        <ele>674</ele>
        <time>2021-05-29T11:35:42Z</time>
      </trkpt>
      <trkpt lat="45.096" lon="5.81146">
        <ele>674</ele>
        <time>2021-05-29T11:35:43Z</time>
      </trkpt>
      <trkpt lat="45.09603" lon="5.8115">
        <ele>673.6</ele>
        <time>2021-05-29T11:35:44Z</time>
      </trkpt>
      <trkpt lat="45.0961" lon="5.81158">
        <ele>673.2</ele>
        <time>2021-05-29T11:35:45Z</time>
      </trkpt>
      <trkpt lat="45.09612" lon="5.8116">
        <ele>672</ele>
        <time>2021-05-29T11:35:46Z</time>
      </trkpt>
      <trkpt lat="45.09621" lon="5.81168">
        <ele>672</ele>
        <time>2021-05-29T11:35:47Z</time>
      </trkpt>
      <trkpt lat="45.09626" lon="5.81171">
        <ele>671.8</ele>
        <time>2021-05-29T11:35:48Z</time>
      </trkpt>
      <trkpt lat="45.09629" lon="5.81173">
        <ele>671.4</ele>
        <time>2021-05-29T11:35:49Z</time>
      </trkpt>
      <trkpt lat="45.09631" lon="5.81175">
        <ele>671</ele>
        <time>2021-05-29T11:35:50Z</time>
      </trkpt>
      <trkpt lat="45.09635" lon="5.8118">
        <ele>670.4</ele>
        <time>2021-05-29T11:35:51Z</time>
      </trkpt>
      <trkpt lat="45.09638" lon="5.81181">
        <ele>669.2</ele>
        <time>2021-05-29T11:35:52Z</time>
      </trkpt>
      <trkpt lat="45.09641" lon="5.81182">
        <ele>669.4</ele>
        <time>2021-05-29T11:35:53Z</time>
      </trkpt>
      <trkpt lat="45.09644" lon="5.81183">
        <ele>669</ele>
        <time>2021-05-29T11:35:54Z</time>
      </trkpt>
      <trkpt lat="45.09645" lon="5.81184">
        <ele>668.8</ele>
        <time>2021-05-29T11:35:55Z</time>
      </trkpt>
      <trkpt lat="45.09647" lon="5.81185">
        <ele>668.2</ele>
        <time>2021-05-29T11:35:56Z</time>
      </trkpt>
      <trkpt lat="45.09648" lon="5.81186">
        <ele>667.4</ele>
        <time>2021-05-29T11:35:57Z</time>
      </trkpt>
      <trkpt lat="45.09652" lon="5.81188">
        <ele>667.4</ele>
        <time>2021-05-29T11:35:58Z</time>
      </trkpt>
      <trkpt lat="45.09656" lon="5.81191">
        <ele>667</ele>
        <time>2021-05-29T11:35:59Z</time>
      </trkpt>
      <trkpt lat="45.0966" lon="5.81194">
        <ele>667.2</ele>
        <time>2021-05-29T11:36:00Z</time>
      </trkpt>
      <trkpt lat="45.09667" lon="5.81198">
        <ele>666.8</ele>
        <time>2021-05-29T11:36:01Z</time>
      </trkpt>
      <trkpt lat="45.09669" lon="5.81199">
        <ele>667</ele>
        <time>2021-05-29T11:36:02Z</time>
      </trkpt>
      <trkpt lat="45.09671" lon="5.81201">
        <ele>666.6</ele>
        <time>2021-05-29T11:36:03Z</time>
      </trkpt>
      <trkpt lat="45.09676" lon="5.81204">
        <ele>666.8</ele>
        <time>2021-05-29T11:36:04Z</time>
      </trkpt>
      <trkpt lat="45.09676" lon="5.81204">
        <ele>666.6</ele>
        <time>2021-05-29T11:36:05Z</time>
      </trkpt>
      <trkpt lat="45.09676" lon="5.81204">
        <ele>666.8</ele>
        <time>2021-05-29T11:36:06Z</time>
      </trkpt>
      <trkpt lat="45.09678" lon="5.81206">
        <ele>666.6</ele>
        <time>2021-05-29T11:36:07Z</time>
      </trkpt>
      <trkpt lat="45.09681" lon="5.81208">
        <ele>666.8</ele>
        <time>2021-05-29T11:36:08Z</time>
      </trkpt>
      <trkpt lat="45.09683" lon="5.8121">
        <ele>666.6</ele>
        <time>2021-05-29T11:36:09Z</time>
      </trkpt>
      <trkpt lat="45.09686" lon="5.81212">
        <ele>666.8</ele>
        <time>2021-05-29T11:36:10Z</time>
      </trkpt>
      <trkpt lat="45.09688" lon="5.81214">
        <ele>666.6</ele>
        <time>2021-05-29T11:36:11Z</time>
      </trkpt>
      <trkpt lat="45.0969" lon="5.81217">
        <ele>666.6</ele>
        <time>2021-05-29T11:36:12Z</time>
      </trkpt>
      <trkpt lat="45.09691" lon="5.81219">
        <ele>666.4</ele>
        <time>2021-05-29T11:36:13Z</time>
      </trkpt>
      <trkpt lat="45.09693" lon="5.81221">
        <ele>666.6</ele>
        <time>2021-05-29T11:36:14Z</time>
      </trkpt>
      <trkpt lat="45.09702" lon="5.81226">
        <ele>666.6</ele>
        <time>2021-05-29T11:36:15Z</time>
      </trkpt>
      <trkpt lat="45.09702" lon="5.81226">
        <ele>666.6</ele>
        <time>2021-05-29T11:36:16Z</time>
      </trkpt>
      <trkpt lat="45.09702" lon="5.81226">
        <ele>666.4</ele>
        <time>2021-05-29T11:36:17Z</time>
      </trkpt>
      <trkpt lat="45.09705" lon="5.81229">
        <ele>666.6</ele>
        <time>2021-05-29T11:36:18Z</time>
      </trkpt>
      <trkpt lat="45.09708" lon="5.81231">
        <ele>666.6</ele>
        <time>2021-05-29T11:36:19Z</time>
      </trkpt>
      <trkpt lat="45.09711" lon="5.81234">
        <ele>666.4</ele>
        <time>2021-05-29T11:36:20Z</time>
      </trkpt>
      <trkpt lat="45.09713" lon="5.81236">
        <ele>666.2</ele>
        <time>2021-05-29T11:36:21Z</time>
      </trkpt>
      <trkpt lat="45.09716" lon="5.81239">
        <ele>665.8</ele>
        <time>2021-05-29T11:36:22Z</time>
      </trkpt>
      <trkpt lat="45.0972" lon="5.81244">
        <ele>666</ele>
        <time>2021-05-29T11:36:23Z</time>
      </trkpt>
      <trkpt lat="45.0972" lon="5.81244">
        <ele>665.8</ele>
        <time>2021-05-29T11:36:24Z</time>
      </trkpt>
      <trkpt lat="45.0972" lon="5.81244">
        <ele>665.8</ele>
        <time>2021-05-29T11:36:25Z</time>
      </trkpt>
      <trkpt lat="45.09721" lon="5.81246">
        <ele>665.8</ele>
        <time>2021-05-29T11:36:26Z</time>
      </trkpt>
      <trkpt lat="45.09723" lon="5.81247">
        <ele>666.2</ele>
        <time>2021-05-29T11:36:27Z</time>
      </trkpt>
      <trkpt lat="45.09725" lon="5.81249">
        <ele>666</ele>
        <time>2021-05-29T11:36:28Z</time>
      </trkpt>
      <trkpt lat="45.09726" lon="5.8125">
        <ele>666</ele>
        <time>2021-05-29T11:36:29Z</time>
      </trkpt>
      <trkpt lat="45.09728" lon="5.81252">
        <ele>665.6</ele>
        <time>2021-05-29T11:36:30Z</time>
      </trkpt>
      <trkpt lat="45.09729" lon="5.81253">
        <ele>665.8</ele>
        <time>2021-05-29T11:36:31Z</time>
      </trkpt>
      <trkpt lat="45.09731" lon="5.81255">
        <ele>665.6</ele>
        <time>2021-05-29T11:36:32Z</time>
      </trkpt>
      <trkpt lat="45.09733" lon="5.81257">
        <ele>666</ele>
        <time>2021-05-29T11:36:33Z</time>
      </trkpt>
      <trkpt lat="45.09734" lon="5.81259">
        <ele>665.6</ele>
        <time>2021-05-29T11:36:34Z</time>
      </trkpt>
      <trkpt lat="45.09736" lon="5.81261">
        <ele>665.8</ele>
        <time>2021-05-29T11:36:35Z</time>
      </trkpt>
      <trkpt lat="45.09738" lon="5.81263">
        <ele>665.6</ele>
        <time>2021-05-29T11:36:36Z</time>
      </trkpt>
      <trkpt lat="45.09739" lon="5.81265">
        <ele>665.8</ele>
        <time>2021-05-29T11:36:37Z</time>
      </trkpt>
      <trkpt lat="45.09741" lon="5.81266">
        <ele>665.4</ele>
        <time>2021-05-29T11:36:38Z</time>
      </trkpt>
      <trkpt lat="45.09743" lon="5.81268">
        <ele>665.2</ele>
        <time>2021-05-29T11:36:39Z</time>
      </trkpt>
      <trkpt lat="45.09744" lon="5.8127">
        <ele>665</ele>
        <time>2021-05-29T11:36:40Z</time>
      </trkpt>
      <trkpt lat="45.09747" lon="5.81273">
        <ele>664.2</ele>
        <time>2021-05-29T11:36:41Z</time>
      </trkpt>
      <trkpt lat="45.09749" lon="5.81275">
        <ele>664.2</ele>
        <time>2021-05-29T11:36:42Z</time>
      </trkpt>
      <trkpt lat="45.09752" lon="5.81278">
        <ele>664</ele>
        <time>2021-05-29T11:36:43Z</time>
      </trkpt>
      <trkpt lat="45.09754" lon="5.8128">
        <ele>663.8</ele>
        <time>2021-05-29T11:36:44Z</time>
      </trkpt>
      <trkpt lat="45.09757" lon="5.81283">
        <ele>663.2</ele>
        <time>2021-05-29T11:36:45Z</time>
      </trkpt>
      <trkpt lat="45.09761" lon="5.81286">
        <ele>662.8</ele>
        <time>2021-05-29T11:36:46Z</time>
      </trkpt>
      <trkpt lat="45.09763" lon="5.81288">
        <ele>662.2</ele>
        <time>2021-05-29T11:36:47Z</time>
      </trkpt>
      <trkpt lat="45.09765" lon="5.8129">
        <ele>662</ele>
        <time>2021-05-29T11:36:48Z</time>
      </trkpt>
      <trkpt lat="45.09766" lon="5.81292">
        <ele>662.4</ele>
        <time>2021-05-29T11:36:49Z</time>
      </trkpt>
      <trkpt lat="45.09768" lon="5.81294">
        <ele>662</ele>
        <time>2021-05-29T11:36:50Z</time>
      </trkpt>
      <trkpt lat="45.0977" lon="5.81296">
        <ele>661.8</ele>
        <time>2021-05-29T11:36:51Z</time>
      </trkpt>
      <trkpt lat="45.09772" lon="5.81298">
        <ele>661.2</ele>
        <time>2021-05-29T11:36:52Z</time>
      </trkpt>
      <trkpt lat="45.09773" lon="5.81301">
        <ele>660.8</ele>
        <time>2021-05-29T11:36:53Z</time>
      </trkpt>
      <trkpt lat="45.09775" lon="5.81303">
        <ele>660.6</ele>
        <time>2021-05-29T11:36:54Z</time>
      </trkpt>
      <trkpt lat="45.09775" lon="5.81303">
        <ele>660.6</ele>
        <time>2021-05-29T11:36:55Z</time>
      </trkpt>
      <trkpt lat="45.09775" lon="5.81303">
        <ele>660.4</ele>
        <time>2021-05-29T11:36:56Z</time>
      </trkpt>
      <trkpt lat="45.09775" lon="5.81303">
        <ele>659.8</ele>
        <time>2021-05-29T11:36:57Z</time>
      </trkpt>
      <trkpt lat="45.09777" lon="5.81305">
        <ele>659.4</ele>
        <time>2021-05-29T11:36:58Z</time>
      </trkpt>
      <trkpt lat="45.09778" lon="5.81308">
        <ele>659</ele>
        <time>2021-05-29T11:36:59Z</time>
      </trkpt>
      <trkpt lat="45.0978" lon="5.8131">
        <ele>658.6</ele>
        <time>2021-05-29T11:37:00Z</time>
      </trkpt>
      <trkpt lat="45.09782" lon="5.81312">
        <ele>658.2</ele>
        <time>2021-05-29T11:37:01Z</time>
      </trkpt>
      <trkpt lat="45.09784" lon="5.81315">
        <ele>657.6</ele>
        <time>2021-05-29T11:37:02Z</time>
      </trkpt>
      <trkpt lat="45.09786" lon="5.81317">
        <ele>657</ele>
        <time>2021-05-29T11:37:03Z</time>
      </trkpt>
      <trkpt lat="45.09788" lon="5.81319">
        <ele>656</ele>
        <time>2021-05-29T11:37:04Z</time>
      </trkpt>
      <trkpt lat="45.09789" lon="5.81321">
        <ele>655.8</ele>
        <time>2021-05-29T11:37:05Z</time>
      </trkpt>
      <trkpt lat="45.09797" lon="5.8133">
        <ele>655.8</ele>
        <time>2021-05-29T11:37:06Z</time>
      </trkpt>
      <trkpt lat="45.09797" lon="5.8133">
        <ele>655.2</ele>
        <time>2021-05-29T11:37:07Z</time>
      </trkpt>
      <trkpt lat="45.09797" lon="5.8133">
        <ele>654.8</ele>
        <time>2021-05-29T11:37:08Z</time>
      </trkpt>
      <trkpt lat="45.09797" lon="5.8133">
        <ele>654.6</ele>
        <time>2021-05-29T11:37:09Z</time>
      </trkpt>
      <trkpt lat="45.09799" lon="5.81333">
        <ele>654</ele>
        <time>2021-05-29T11:37:10Z</time>
      </trkpt>
      <trkpt lat="45.09801" lon="5.81337">
        <ele>653.6</ele>
        <time>2021-05-29T11:37:11Z</time>
      </trkpt>
      <trkpt lat="45.09803" lon="5.81341">
        <ele>653</ele>
        <time>2021-05-29T11:37:12Z</time>
      </trkpt>
      <trkpt lat="45.09804" lon="5.81344">
        <ele>652</ele>
        <time>2021-05-29T11:37:13Z</time>
      </trkpt>
      <trkpt lat="45.09806" lon="5.81348">
        <ele>652</ele>
        <time>2021-05-29T11:37:14Z</time>
      </trkpt>
      <trkpt lat="45.09811" lon="5.8136">
        <ele>651.4</ele>
        <time>2021-05-29T11:37:15Z</time>
      </trkpt>
      <trkpt lat="45.09814" lon="5.81366">
        <ele>651.2</ele>
        <time>2021-05-29T11:37:16Z</time>
      </trkpt>
      <trkpt lat="45.09817" lon="5.81372">
        <ele>650.6</ele>
        <time>2021-05-29T11:37:17Z</time>
      </trkpt>
      <trkpt lat="45.09818" lon="5.81376">
        <ele>649.6</ele>
        <time>2021-05-29T11:37:18Z</time>
      </trkpt>
      <trkpt lat="45.09819" lon="5.8138">
        <ele>649.8</ele>
        <time>2021-05-29T11:37:19Z</time>
      </trkpt>
      <trkpt lat="45.09821" lon="5.81387">
        <ele>649.4</ele>
        <time>2021-05-29T11:37:20Z</time>
      </trkpt>
      <trkpt lat="45.09821" lon="5.81387">
        <ele>649.2</ele>
        <time>2021-05-29T11:37:21Z</time>
      </trkpt>
      <trkpt lat="45.09823" lon="5.81389">
        <ele>647.8</ele>
        <time>2021-05-29T11:37:22Z</time>
      </trkpt>
      <trkpt lat="45.09825" lon="5.81392">
        <ele>647.6</ele>
        <time>2021-05-29T11:37:23Z</time>
      </trkpt>
      <trkpt lat="45.09826" lon="5.81394">
        <ele>647.4</ele>
        <time>2021-05-29T11:37:24Z</time>
      </trkpt>
      <trkpt lat="45.09828" lon="5.81396">
        <ele>646.8</ele>
        <time>2021-05-29T11:37:25Z</time>
      </trkpt>
      <trkpt lat="45.09829" lon="5.81397">
        <ele>646.2</ele>
        <time>2021-05-29T11:37:26Z</time>
      </trkpt>
      <trkpt lat="45.0983" lon="5.81398">
        <ele>646</ele>
        <time>2021-05-29T11:37:27Z</time>
      </trkpt>
      <trkpt lat="45.0983" lon="5.81399">
        <ele>645.8</ele>
        <time>2021-05-29T11:37:28Z</time>
      </trkpt>
      <trkpt lat="45.09831" lon="5.814">
        <ele>645.4</ele>
        <time>2021-05-29T11:37:29Z</time>
      </trkpt>
      <trkpt lat="45.09832" lon="5.81401">
        <ele>644.8</ele>
        <time>2021-05-29T11:37:30Z</time>
      </trkpt>
      <trkpt lat="45.09833" lon="5.81402">
        <ele>644</ele>
        <time>2021-05-29T11:37:31Z</time>
      </trkpt>
      <trkpt lat="45.09833" lon="5.81403">
        <ele>644.2</ele>
        <time>2021-05-29T11:37:32Z</time>
      </trkpt>
      <trkpt lat="45.09834" lon="5.81404">
        <ele>643.6</ele>
        <time>2021-05-29T11:37:33Z</time>
      </trkpt>
      <trkpt lat="45.09835" lon="5.81405">
        <ele>643.2</ele>
        <time>2021-05-29T11:37:34Z</time>
      </trkpt>
      <trkpt lat="45.09836" lon="5.81406">
        <ele>642.4</ele>
        <time>2021-05-29T11:37:35Z</time>
      </trkpt>
      <trkpt lat="45.09837" lon="5.81407">
        <ele>641.8</ele>
        <time>2021-05-29T11:37:36Z</time>
      </trkpt>
      <trkpt lat="45.09839" lon="5.81409">
        <ele>641.6</ele>
        <time>2021-05-29T11:37:37Z</time>
      </trkpt>
      <trkpt lat="45.0984" lon="5.8141">
        <ele>641</ele>
        <time>2021-05-29T11:37:38Z</time>
      </trkpt>
      <trkpt lat="45.09841" lon="5.81411">
        <ele>640.4</ele>
        <time>2021-05-29T11:37:39Z</time>
      </trkpt>
      <trkpt lat="45.09842" lon="5.81412">
        <ele>639.4</ele>
        <time>2021-05-29T11:37:40Z</time>
      </trkpt>
      <trkpt lat="45.09844" lon="5.81414">
        <ele>638.8</ele>
        <time>2021-05-29T11:37:41Z</time>
      </trkpt>
      <trkpt lat="45.09845" lon="5.81416">
        <ele>638.8</ele>
        <time>2021-05-29T11:37:42Z</time>
      </trkpt>
      <trkpt lat="45.09847" lon="5.81418">
        <ele>638.6</ele>
        <time>2021-05-29T11:37:43Z</time>
      </trkpt>
      <trkpt lat="45.09848" lon="5.81419">
        <ele>638.6</ele>
        <time>2021-05-29T11:37:44Z</time>
      </trkpt>
      <trkpt lat="45.09849" lon="5.81421">
        <ele>638.2</ele>
        <time>2021-05-29T11:37:45Z</time>
      </trkpt>
      <trkpt lat="45.0985" lon="5.81423">
        <ele>638.4</ele>
        <time>2021-05-29T11:37:46Z</time>
      </trkpt>
      <trkpt lat="45.09851" lon="5.81425">
        <ele>638</ele>
        <time>2021-05-29T11:37:47Z</time>
      </trkpt>
      <trkpt lat="45.09852" lon="5.81428">
        <ele>637.8</ele>
        <time>2021-05-29T11:37:48Z</time>
      </trkpt>
      <trkpt lat="45.09852" lon="5.8143">
        <ele>637.6</ele>
        <time>2021-05-29T11:37:49Z</time>
      </trkpt>
      <trkpt lat="45.09853" lon="5.81432">
        <ele>637.4</ele>
        <time>2021-05-29T11:37:50Z</time>
      </trkpt>
      <trkpt lat="45.09854" lon="5.81434">
        <ele>636.4</ele>
        <time>2021-05-29T11:37:51Z</time>
      </trkpt>
      <trkpt lat="45.09855" lon="5.81436">
        <ele>636.4</ele>
        <time>2021-05-29T11:37:52Z</time>
      </trkpt>
      <trkpt lat="45.09856" lon="5.81438">
        <ele>636.6</ele>
        <time>2021-05-29T11:37:53Z</time>
      </trkpt>
      <trkpt lat="45.09857" lon="5.81439">
        <ele>636.2</ele>
        <time>2021-05-29T11:37:54Z</time>
      </trkpt>
      <trkpt lat="45.09858" lon="5.81441">
        <ele>636</ele>
        <time>2021-05-29T11:37:55Z</time>
      </trkpt>
      <trkpt lat="45.09859" lon="5.81443">
        <ele>635.4</ele>
        <time>2021-05-29T11:37:56Z</time>
      </trkpt>
      <trkpt lat="45.09861" lon="5.81445">
        <ele>634.6</ele>
        <time>2021-05-29T11:37:57Z</time>
      </trkpt>
      <trkpt lat="45.09863" lon="5.81446">
        <ele>634</ele>
        <time>2021-05-29T11:37:58Z</time>
      </trkpt>
      <trkpt lat="45.09865" lon="5.81448">
        <ele>634</ele>
        <time>2021-05-29T11:37:59Z</time>
      </trkpt>
      <trkpt lat="45.09867" lon="5.8145">
        <ele>633.8</ele>
        <time>2021-05-29T11:38:00Z</time>
      </trkpt>
      <trkpt lat="45.09869" lon="5.81451">
        <ele>633.4</ele>
        <time>2021-05-29T11:38:01Z</time>
      </trkpt>
      <trkpt lat="45.09873" lon="5.81452">
        <ele>632.8</ele>
        <time>2021-05-29T11:38:02Z</time>
      </trkpt>
      <trkpt lat="45.09876" lon="5.81453">
        <ele>632.4</ele>
        <time>2021-05-29T11:38:03Z</time>
      </trkpt>
      <trkpt lat="45.0988" lon="5.81454">
        <ele>632.2</ele>
        <time>2021-05-29T11:38:04Z</time>
      </trkpt>
      <trkpt lat="45.09884" lon="5.81454">
        <ele>632.4</ele>
        <time>2021-05-29T11:38:05Z</time>
      </trkpt>
      <trkpt lat="45.09889" lon="5.81455">
        <ele>632</ele>
        <time>2021-05-29T11:38:06Z</time>
      </trkpt>
      <trkpt lat="45.09891" lon="5.81455">
        <ele>632.2</ele>
        <time>2021-05-29T11:38:07Z</time>
      </trkpt>
      <trkpt lat="45.09894" lon="5.81455">
        <ele>631.8</ele>
        <time>2021-05-29T11:38:08Z</time>
      </trkpt>
      <trkpt lat="45.09896" lon="5.81455">
        <ele>631.6</ele>
        <time>2021-05-29T11:38:09Z</time>
      </trkpt>
      <trkpt lat="45.09903" lon="5.81455">
        <ele>631.2</ele>
        <time>2021-05-29T11:38:10Z</time>
      </trkpt>
      <trkpt lat="45.09905" lon="5.81455">
        <ele>630.4</ele>
        <time>2021-05-29T11:38:11Z</time>
      </trkpt>
      <trkpt lat="45.0991" lon="5.81456">
        <ele>630.6</ele>
        <time>2021-05-29T11:38:12Z</time>
      </trkpt>
      <trkpt lat="45.0991" lon="5.81456">
        <ele>630.4</ele>
        <time>2021-05-29T11:38:13Z</time>
      </trkpt>
      <trkpt lat="45.0991" lon="5.81456">
        <ele>630.8</ele>
        <time>2021-05-29T11:38:14Z</time>
      </trkpt>
      <trkpt lat="45.09913" lon="5.81456">
        <ele>630.6</ele>
        <time>2021-05-29T11:38:15Z</time>
      </trkpt>
      <trkpt lat="45.09916" lon="5.81457">
        <ele>630.4</ele>
        <time>2021-05-29T11:38:16Z</time>
      </trkpt>
      <trkpt lat="45.09919" lon="5.81458">
        <ele>630</ele>
        <time>2021-05-29T11:38:17Z</time>
      </trkpt>
      <trkpt lat="45.09922" lon="5.81458">
        <ele>629.6</ele>
        <time>2021-05-29T11:38:18Z</time>
      </trkpt>
      <trkpt lat="45.09924" lon="5.81459">
        <ele>629</ele>
        <time>2021-05-29T11:38:19Z</time>
      </trkpt>
      <trkpt lat="45.09927" lon="5.8146">
        <ele>628.2</ele>
        <time>2021-05-29T11:38:20Z</time>
      </trkpt>
      <trkpt lat="45.0993" lon="5.81461">
        <ele>628.6</ele>
        <time>2021-05-29T11:38:21Z</time>
      </trkpt>
      <trkpt lat="45.09932" lon="5.81462">
        <ele>628.4</ele>
        <time>2021-05-29T11:38:22Z</time>
      </trkpt>
      <trkpt lat="45.09934" lon="5.81462">
        <ele>628.4</ele>
        <time>2021-05-29T11:38:23Z</time>
      </trkpt>
      <trkpt lat="45.09936" lon="5.81463">
        <ele>627.8</ele>
        <time>2021-05-29T11:38:24Z</time>
      </trkpt>
      <trkpt lat="45.09939" lon="5.81464">
        <ele>627.6</ele>
        <time>2021-05-29T11:38:25Z</time>
      </trkpt>
      <trkpt lat="45.09941" lon="5.81464">
        <ele>627.8</ele>
        <time>2021-05-29T11:38:26Z</time>
      </trkpt>
      <trkpt lat="45.09943" lon="5.81465">
        <ele>627.4</ele>
        <time>2021-05-29T11:38:27Z</time>
      </trkpt>
      <trkpt lat="45.09944" lon="5.81464">
        <ele>627.2</ele>
        <time>2021-05-29T11:38:28Z</time>
      </trkpt>
      <trkpt lat="45.09944" lon="5.81465">
        <ele>627</ele>
        <time>2021-05-29T11:38:29Z</time>
      </trkpt>
      <trkpt lat="45.09944" lon="5.81465">
        <ele>626.8</ele>
        <time>2021-05-29T11:38:30Z</time>
      </trkpt>
      <trkpt lat="45.09944" lon="5.81466">
        <ele>626.6</ele>
        <time>2021-05-29T11:38:31Z</time>
      </trkpt>
      <trkpt lat="45.09944" lon="5.81466">
        <ele>626.2</ele>
        <time>2021-05-29T11:38:32Z</time>
      </trkpt>
      <trkpt lat="45.09944" lon="5.81467">
        <ele>626.2</ele>
        <time>2021-05-29T11:38:33Z</time>
      </trkpt>
      <trkpt lat="45.09944" lon="5.81468">
        <ele>626</ele>
        <time>2021-05-29T11:38:34Z</time>
      </trkpt>
      <trkpt lat="45.09945" lon="5.81468">
        <ele>626</ele>
        <time>2021-05-29T11:38:35Z</time>
      </trkpt>
      <trkpt lat="45.09945" lon="5.81469">
        <ele>626</ele>
        <time>2021-05-29T11:38:36Z</time>
      </trkpt>
      <trkpt lat="45.09945" lon="5.81469">
        <ele>626</ele>
        <time>2021-05-29T11:38:37Z</time>
      </trkpt>
      <trkpt lat="45.09945" lon="5.8147">
        <ele>626</ele>
        <time>2021-05-29T11:38:38Z</time>
      </trkpt>
      <trkpt lat="45.09945" lon="5.81471">
        <ele>625.8</ele>
        <time>2021-05-29T11:38:39Z</time>
      </trkpt>
      <trkpt lat="45.09945" lon="5.81471">
        <ele>625.8</ele>
        <time>2021-05-29T11:38:40Z</time>
      </trkpt>
      <trkpt lat="45.09946" lon="5.81472">
        <ele>625.8</ele>
        <time>2021-05-29T11:38:41Z</time>
      </trkpt>
      <trkpt lat="45.09946" lon="5.81472">
        <ele>626</ele>
        <time>2021-05-29T11:38:42Z</time>
      </trkpt>
      <trkpt lat="45.09946" lon="5.81473">
        <ele>626</ele>
        <time>2021-05-29T11:38:43Z</time>
      </trkpt>
      <trkpt lat="45.09946" lon="5.81474">
        <ele>626</ele>
        <time>2021-05-29T11:38:44Z</time>
      </trkpt>
      <trkpt lat="45.09946" lon="5.81474">
        <ele>626</ele>
        <time>2021-05-29T11:38:45Z</time>
      </trkpt>
      <trkpt lat="45.09946" lon="5.81475">
        <ele>626</ele>
        <time>2021-05-29T11:38:46Z</time>
      </trkpt>
      <trkpt lat="45.09947" lon="5.81475">
        <ele>625.8</ele>
        <time>2021-05-29T11:38:47Z</time>
      </trkpt>
      <trkpt lat="45.09947" lon="5.81476">
        <ele>626</ele>
        <time>2021-05-29T11:38:48Z</time>
      </trkpt>
      <trkpt lat="45.09947" lon="5.81476">
        <ele>626</ele>
        <time>2021-05-29T11:38:49Z</time>
      </trkpt>
      <trkpt lat="45.09947" lon="5.81477">
        <ele>626.2</ele>
        <time>2021-05-29T11:38:50Z</time>
      </trkpt>
      <trkpt lat="45.09947" lon="5.81478">
        <ele>626.2</ele>
        <time>2021-05-29T11:38:51Z</time>
      </trkpt>
      <trkpt lat="45.09947" lon="5.81478">
        <ele>626.2</ele>
        <time>2021-05-29T11:38:52Z</time>
      </trkpt>
      <trkpt lat="45.09947" lon="5.81479">
        <ele>626</ele>
        <time>2021-05-29T11:38:53Z</time>
      </trkpt>
      <trkpt lat="45.09948" lon="5.81479">
        <ele>625.8</ele>
        <time>2021-05-29T11:38:54Z</time>
      </trkpt>
      <trkpt lat="45.09948" lon="5.8148">
        <ele>625.6</ele>
        <time>2021-05-29T11:38:55Z</time>
      </trkpt>
      <trkpt lat="45.09948" lon="5.81481">
        <ele>625.6</ele>
        <time>2021-05-29T11:38:56Z</time>
      </trkpt>
      <trkpt lat="45.09948" lon="5.81481">
        <ele>625.4</ele>
        <time>2021-05-29T11:38:57Z</time>
      </trkpt>
      <trkpt lat="45.09948" lon="5.81482">
        <ele>625.6</ele>
        <time>2021-05-29T11:38:58Z</time>
      </trkpt>
      <trkpt lat="45.09948" lon="5.81482">
        <ele>625.2</ele>
        <time>2021-05-29T11:38:59Z</time>
      </trkpt>
      <trkpt lat="45.09949" lon="5.81483">
        <ele>625.2</ele>
        <time>2021-05-29T11:39:00Z</time>
      </trkpt>
      <trkpt lat="45.09949" lon="5.81484">
        <ele>625</ele>
        <time>2021-05-29T11:39:01Z</time>
      </trkpt>
      <trkpt lat="45.09949" lon="5.81484">
        <ele>624.8</ele>
        <time>2021-05-29T11:39:02Z</time>
      </trkpt>
      <trkpt lat="45.09949" lon="5.81485">
        <ele>624.6</ele>
        <time>2021-05-29T11:39:03Z</time>
      </trkpt>
      <trkpt lat="45.09949" lon="5.81485">
        <ele>624.6</ele>
        <time>2021-05-29T11:39:04Z</time>
      </trkpt>
      <trkpt lat="45.09949" lon="5.81486">
        <ele>624.4</ele>
        <time>2021-05-29T11:39:05Z</time>
      </trkpt>
      <trkpt lat="45.0995" lon="5.81487">
        <ele>624.2</ele>
        <time>2021-05-29T11:39:06Z</time>
      </trkpt>
      <trkpt lat="45.0995" lon="5.81487">
        <ele>623.6</ele>
        <time>2021-05-29T11:39:07Z</time>
      </trkpt>
      <trkpt lat="45.0995" lon="5.81488">
        <ele>623.6</ele>
        <time>2021-05-29T11:39:08Z</time>
      </trkpt>
      <trkpt lat="45.0995" lon="5.81488">
        <ele>623.4</ele>
        <time>2021-05-29T11:39:09Z</time>
      </trkpt>
      <trkpt lat="45.0995" lon="5.81488">
        <ele>623.6</ele>
        <time>2021-05-29T11:39:10Z</time>
      </trkpt>
      <trkpt lat="45.0995" lon="5.81488">
        <ele>623.2</ele>
        <time>2021-05-29T11:39:11Z</time>
      </trkpt>
      <trkpt lat="45.09951" lon="5.81488">
        <ele>623.4</ele>
        <time>2021-05-29T11:39:12Z</time>
      </trkpt>
      <trkpt lat="45.09952" lon="5.81488">
        <ele>623</ele>
        <time>2021-05-29T11:39:13Z</time>
      </trkpt>
      <trkpt lat="45.09953" lon="5.81487">
        <ele>623</ele>
        <time>2021-05-29T11:39:14Z</time>
      </trkpt>
      <trkpt lat="45.09954" lon="5.81487">
        <ele>622.6</ele>
        <time>2021-05-29T11:39:15Z</time>
      </trkpt>
      <trkpt lat="45.09955" lon="5.81487">
        <ele>622.6</ele>
        <time>2021-05-29T11:39:16Z</time>
      </trkpt>
      <trkpt lat="45.09957" lon="5.81487">
        <ele>622.2</ele>
        <time>2021-05-29T11:39:17Z</time>
      </trkpt>
      <trkpt lat="45.09958" lon="5.81486">
        <ele>622.2</ele>
        <time>2021-05-29T11:39:18Z</time>
      </trkpt>
      <trkpt lat="45.09959" lon="5.81486">
        <ele>622</ele>
        <time>2021-05-29T11:39:19Z</time>
      </trkpt>
      <trkpt lat="45.0996" lon="5.81486">
        <ele>622.2</ele>
        <time>2021-05-29T11:39:20Z</time>
      </trkpt>
      <trkpt lat="45.09962" lon="5.81485">
        <ele>622</ele>
        <time>2021-05-29T11:39:21Z</time>
      </trkpt>
      <trkpt lat="45.09965" lon="5.81485">
        <ele>622.2</ele>
        <time>2021-05-29T11:39:22Z</time>
      </trkpt>
      <trkpt lat="45.09967" lon="5.81484">
        <ele>621.8</ele>
        <time>2021-05-29T11:39:23Z</time>
      </trkpt>
      <trkpt lat="45.0997" lon="5.81484">
        <ele>622</ele>
        <time>2021-05-29T11:39:24Z</time>
      </trkpt>
      <trkpt lat="45.09979" lon="5.81487">
        <ele>621.6</ele>
        <time>2021-05-29T11:39:25Z</time>
      </trkpt>
      <trkpt lat="45.09979" lon="5.81487">
        <ele>621</ele>
        <time>2021-05-29T11:39:26Z</time>
      </trkpt>
      <trkpt lat="45.09979" lon="5.81487">
        <ele>621</ele>
        <time>2021-05-29T11:39:27Z</time>
      </trkpt>
      <trkpt lat="45.09981" lon="5.81487">
        <ele>620.6</ele>
        <time>2021-05-29T11:39:28Z</time>
      </trkpt>
      <trkpt lat="45.09984" lon="5.81488">
        <ele>620.2</ele>
        <time>2021-05-29T11:39:29Z</time>
      </trkpt>
      <trkpt lat="45.09986" lon="5.81488">
        <ele>619.8</ele>
        <time>2021-05-29T11:39:30Z</time>
      </trkpt>
      <trkpt lat="45.09989" lon="5.81489">
        <ele>619.2</ele>
        <time>2021-05-29T11:39:31Z</time>
      </trkpt>
      <trkpt lat="45.0999" lon="5.81489">
        <ele>619</ele>
        <time>2021-05-29T11:39:32Z</time>
      </trkpt>
      <trkpt lat="45.09992" lon="5.81489">
        <ele>618.6</ele>
        <time>2021-05-29T11:39:33Z</time>
      </trkpt>
      <trkpt lat="45.09993" lon="5.81489">
        <ele>618.4</ele>
        <time>2021-05-29T11:39:34Z</time>
      </trkpt>
      <trkpt lat="45.09995" lon="5.81489">
        <ele>617.6</ele>
        <time>2021-05-29T11:39:35Z</time>
      </trkpt>
      <trkpt lat="45.09997" lon="5.81489">
        <ele>616.8</ele>
        <time>2021-05-29T11:39:36Z</time>
      </trkpt>
      <trkpt lat="45.09998" lon="5.8149">
        <ele>616.2</ele>
        <time>2021-05-29T11:39:37Z</time>
      </trkpt>
      <trkpt lat="45.10001" lon="5.81491">
        <ele>615.8</ele>
        <time>2021-05-29T11:39:38Z</time>
      </trkpt>
      <trkpt lat="45.10004" lon="5.81492">
        <ele>615.8</ele>
        <time>2021-05-29T11:39:39Z</time>
      </trkpt>
      <trkpt lat="45.10007" lon="5.81492">
        <ele>615.6</ele>
        <time>2021-05-29T11:39:40Z</time>
      </trkpt>
      <trkpt lat="45.10011" lon="5.81493">
        <ele>615.6</ele>
        <time>2021-05-29T11:39:41Z</time>
      </trkpt>
      <trkpt lat="45.10014" lon="5.81494">
        <ele>615.2</ele>
        <time>2021-05-29T11:39:42Z</time>
      </trkpt>
      <trkpt lat="45.10018" lon="5.81494">
        <ele>615.2</ele>
        <time>2021-05-29T11:39:43Z</time>
      </trkpt>
      <trkpt lat="45.10021" lon="5.81492">
        <ele>614.8</ele>
        <time>2021-05-29T11:39:44Z</time>
      </trkpt>
      <trkpt lat="45.10024" lon="5.8149">
        <ele>614.6</ele>
        <time>2021-05-29T11:39:45Z</time>
      </trkpt>
      <trkpt lat="45.10027" lon="5.81489">
        <ele>613.6</ele>
        <time>2021-05-29T11:39:46Z</time>
      </trkpt>
      <trkpt lat="45.10028" lon="5.81488">
        <ele>613</ele>
        <time>2021-05-29T11:39:47Z</time>
      </trkpt>
      <trkpt lat="45.10029" lon="5.81487">
        <ele>613.2</ele>
        <time>2021-05-29T11:39:48Z</time>
      </trkpt>
      <trkpt lat="45.10031" lon="5.81486">
        <ele>613</ele>
        <time>2021-05-29T11:39:49Z</time>
      </trkpt>
      <trkpt lat="45.10034" lon="5.81483">
        <ele>612.8</ele>
        <time>2021-05-29T11:39:50Z</time>
      </trkpt>
      <trkpt lat="45.10038" lon="5.8148">
        <ele>612.6</ele>
        <time>2021-05-29T11:39:51Z</time>
      </trkpt>
      <trkpt lat="45.10042" lon="5.81477">
        <ele>612.4</ele>
        <time>2021-05-29T11:39:52Z</time>
      </trkpt>
      <trkpt lat="45.10046" lon="5.81472">
        <ele>612</ele>
        <time>2021-05-29T11:39:53Z</time>
      </trkpt>
      <trkpt lat="45.10046" lon="5.81472">
        <ele>611.4</ele>
        <time>2021-05-29T11:39:54Z</time>
      </trkpt>
      <trkpt lat="45.10047" lon="5.81471">
        <ele>611.4</ele>
        <time>2021-05-29T11:39:55Z</time>
      </trkpt>
      <trkpt lat="45.10048" lon="5.81471">
        <ele>611</ele>
        <time>2021-05-29T11:39:56Z</time>
      </trkpt>
      <trkpt lat="45.10049" lon="5.8147">
        <ele>611</ele>
        <time>2021-05-29T11:39:57Z</time>
      </trkpt>
      <trkpt lat="45.10049" lon="5.8147">
        <ele>610.6</ele>
        <time>2021-05-29T11:39:58Z</time>
      </trkpt>
      <trkpt lat="45.10057" lon="5.81466">
        <ele>610</ele>
        <time>2021-05-29T11:40:00Z</time>
      </trkpt>
      <trkpt lat="45.10058" lon="5.81465">
        <ele>609.8</ele>
        <time>2021-05-29T11:40:01Z</time>
      </trkpt>
      <trkpt lat="45.1006" lon="5.81463">
        <ele>609.4</ele>
        <time>2021-05-29T11:40:02Z</time>
      </trkpt>
      <trkpt lat="45.10062" lon="5.81462">
        <ele>608.6</ele>
        <time>2021-05-29T11:40:03Z</time>
      </trkpt>
      <trkpt lat="45.10064" lon="5.8146">
        <ele>608.8</ele>
        <time>2021-05-29T11:40:04Z</time>
      </trkpt>
      <trkpt lat="45.10065" lon="5.81459">
        <ele>608.6</ele>
        <time>2021-05-29T11:40:05Z</time>
      </trkpt>
      <trkpt lat="45.10067" lon="5.81456">
        <ele>608.6</ele>
        <time>2021-05-29T11:40:06Z</time>
      </trkpt>
      <trkpt lat="45.10068" lon="5.81454">
        <ele>608.2</ele>
        <time>2021-05-29T11:40:07Z</time>
      </trkpt>
      <trkpt lat="45.10069" lon="5.81451">
        <ele>608</ele>
        <time>2021-05-29T11:40:08Z</time>
      </trkpt>
      <trkpt lat="45.10071" lon="5.81449">
        <ele>607.6</ele>
        <time>2021-05-29T11:40:09Z</time>
      </trkpt>
      <trkpt lat="45.10072" lon="5.81446">
        <ele>607</ele>
        <time>2021-05-29T11:40:10Z</time>
      </trkpt>
      <trkpt lat="45.10074" lon="5.81444">
        <ele>606.8</ele>
        <time>2021-05-29T11:40:11Z</time>
      </trkpt>
      <trkpt lat="45.10075" lon="5.81442">
        <ele>606.4</ele>
        <time>2021-05-29T11:40:12Z</time>
      </trkpt>
      <trkpt lat="45.10077" lon="5.8144">
        <ele>606.4</ele>
        <time>2021-05-29T11:40:13Z</time>
      </trkpt>
      <trkpt lat="45.10079" lon="5.81438">
        <ele>606.2</ele>
        <time>2021-05-29T11:40:14Z</time>
      </trkpt>
      <trkpt lat="45.1008" lon="5.81436">
        <ele>606.2</ele>
        <time>2021-05-29T11:40:15Z</time>
      </trkpt>
      <trkpt lat="45.10082" lon="5.81435">
        <ele>605.6</ele>
        <time>2021-05-29T11:40:16Z</time>
      </trkpt>
      <trkpt lat="45.10083" lon="5.81433">
        <ele>605</ele>
        <time>2021-05-29T11:40:17Z</time>
      </trkpt>
      <trkpt lat="45.10085" lon="5.81431">
        <ele>604.6</ele>
        <time>2021-05-29T11:40:18Z</time>
      </trkpt>
      <trkpt lat="45.10087" lon="5.8143">
        <ele>604.6</ele>
        <time>2021-05-29T11:40:19Z</time>
      </trkpt>
      <trkpt lat="45.10088" lon="5.81428">
        <ele>604</ele>
        <time>2021-05-29T11:40:20Z</time>
      </trkpt>
      <trkpt lat="45.1009" lon="5.81427">
        <ele>603.8</ele>
        <time>2021-05-29T11:40:21Z</time>
      </trkpt>
      <trkpt lat="45.10092" lon="5.81426">
        <ele>603.4</ele>
        <time>2021-05-29T11:40:22Z</time>
      </trkpt>
      <trkpt lat="45.10095" lon="5.81425">
        <ele>603</ele>
        <time>2021-05-29T11:40:23Z</time>
      </trkpt>
      <trkpt lat="45.10097" lon="5.81424">
        <ele>602.6</ele>
        <time>2021-05-29T11:40:24Z</time>
      </trkpt>
      <trkpt lat="45.10099" lon="5.81423">
        <ele>602.4</ele>
        <time>2021-05-29T11:40:25Z</time>
      </trkpt>
      <trkpt lat="45.101" lon="5.81422">
        <ele>602</ele>
        <time>2021-05-29T11:40:26Z</time>
      </trkpt>
      <trkpt lat="45.10101" lon="5.81422">
        <ele>601.8</ele>
        <time>2021-05-29T11:40:27Z</time>
      </trkpt>
      <trkpt lat="45.10102" lon="5.81421">
        <ele>602.4</ele>
        <time>2021-05-29T11:40:28Z</time>
      </trkpt>
      <trkpt lat="45.10104" lon="5.81421">
        <ele>602.2</ele>
        <time>2021-05-29T11:40:29Z</time>
      </trkpt>
      <trkpt lat="45.10105" lon="5.8142">
        <ele>602.6</ele>
        <time>2021-05-29T11:40:30Z</time>
      </trkpt>
      <trkpt lat="45.10106" lon="5.81419">
        <ele>602.4</ele>
        <time>2021-05-29T11:40:31Z</time>
      </trkpt>
      <trkpt lat="45.10107" lon="5.81419">
        <ele>602.6</ele>
        <time>2021-05-29T11:40:32Z</time>
      </trkpt>
      <trkpt lat="45.10109" lon="5.81419">
        <ele>602.8</ele>
        <time>2021-05-29T11:40:33Z</time>
      </trkpt>
      <trkpt lat="45.1011" lon="5.81419">
        <ele>602.8</ele>
        <time>2021-05-29T11:40:34Z</time>
      </trkpt>
      <trkpt lat="45.10112" lon="5.81419">
        <ele>602.4</ele>
        <time>2021-05-29T11:40:35Z</time>
      </trkpt>
      <trkpt lat="45.10114" lon="5.81419">
        <ele>602</ele>
        <time>2021-05-29T11:40:36Z</time>
      </trkpt>
      <trkpt lat="45.10115" lon="5.8142">
        <ele>601.8</ele>
        <time>2021-05-29T11:40:37Z</time>
      </trkpt>
      <trkpt lat="45.10117" lon="5.8142">
        <ele>602</ele>
        <time>2021-05-29T11:40:38Z</time>
      </trkpt>
      <trkpt lat="45.10119" lon="5.81421">
        <ele>601.8</ele>
        <time>2021-05-29T11:40:39Z</time>
      </trkpt>
      <trkpt lat="45.10122" lon="5.81422">
        <ele>602</ele>
        <time>2021-05-29T11:40:40Z</time>
      </trkpt>
      <trkpt lat="45.10125" lon="5.81424">
        <ele>602</ele>
        <time>2021-05-29T11:40:41Z</time>
      </trkpt>
      <trkpt lat="45.10128" lon="5.81425">
        <ele>602</ele>
        <time>2021-05-29T11:40:42Z</time>
      </trkpt>
      <trkpt lat="45.10131" lon="5.81426">
        <ele>601.8</ele>
        <time>2021-05-29T11:40:43Z</time>
      </trkpt>
      <trkpt lat="45.10137" lon="5.8143">
        <ele>601.8</ele>
        <time>2021-05-29T11:40:44Z</time>
      </trkpt>
      <trkpt lat="45.10139" lon="5.81432">
        <ele>601.6</ele>
        <time>2021-05-29T11:40:45Z</time>
      </trkpt>
      <trkpt lat="45.1014" lon="5.81434">
        <ele>601.2</ele>
        <time>2021-05-29T11:40:46Z</time>
      </trkpt>
      <trkpt lat="45.10141" lon="5.81435">
        <ele>601.4</ele>
        <time>2021-05-29T11:40:47Z</time>
      </trkpt>
      <trkpt lat="45.10143" lon="5.81436">
        <ele>600.8</ele>
        <time>2021-05-29T11:40:48Z</time>
      </trkpt>
      <trkpt lat="45.10144" lon="5.81437">
        <ele>600.6</ele>
        <time>2021-05-29T11:40:49Z</time>
      </trkpt>
      <trkpt lat="45.10145" lon="5.81438">
        <ele>599.8</ele>
        <time>2021-05-29T11:40:50Z</time>
      </trkpt>
      <trkpt lat="45.1015" lon="5.81442">
        <ele>599.4</ele>
        <time>2021-05-29T11:40:51Z</time>
      </trkpt>
      <trkpt lat="45.10151" lon="5.81443">
        <ele>599</ele>
        <time>2021-05-29T11:40:52Z</time>
      </trkpt>
      <trkpt lat="45.10152" lon="5.81444">
        <ele>598.4</ele>
        <time>2021-05-29T11:40:53Z</time>
      </trkpt>
      <trkpt lat="45.10154" lon="5.81446">
        <ele>598.6</ele>
        <time>2021-05-29T11:40:54Z</time>
      </trkpt>
      <trkpt lat="45.10158" lon="5.81449">
        <ele>598.2</ele>
        <time>2021-05-29T11:40:55Z</time>
      </trkpt>
      <trkpt lat="45.10161" lon="5.81453">
        <ele>598.4</ele>
        <time>2021-05-29T11:40:56Z</time>
      </trkpt>
      <trkpt lat="45.10163" lon="5.81454">
        <ele>597.8</ele>
        <time>2021-05-29T11:40:57Z</time>
      </trkpt>
      <trkpt lat="45.10165" lon="5.81456">
        <ele>597.6</ele>
        <time>2021-05-29T11:40:58Z</time>
      </trkpt>
      <trkpt lat="45.10166" lon="5.81458">
        <ele>597.4</ele>
        <time>2021-05-29T11:40:59Z</time>
      </trkpt>
      <trkpt lat="45.10171" lon="5.81463">
        <ele>597.2</ele>
        <time>2021-05-29T11:41:00Z</time>
      </trkpt>
      <trkpt lat="45.10171" lon="5.81464">
        <ele>597</ele>
        <time>2021-05-29T11:41:01Z</time>
      </trkpt>
      <trkpt lat="45.10172" lon="5.81464">
        <ele>597.2</ele>
        <time>2021-05-29T11:41:02Z</time>
      </trkpt>
      <trkpt lat="45.10174" lon="5.81467">
        <ele>596.8</ele>
        <time>2021-05-29T11:41:03Z</time>
      </trkpt>
      <trkpt lat="45.10178" lon="5.8147">
        <ele>597</ele>
        <time>2021-05-29T11:41:04Z</time>
      </trkpt>
      <trkpt lat="45.10181" lon="5.81474">
        <ele>596.6</ele>
        <time>2021-05-29T11:41:05Z</time>
      </trkpt>
      <trkpt lat="45.10181" lon="5.81474">
        <ele>596.8</ele>
        <time>2021-05-29T11:41:06Z</time>
      </trkpt>
      <trkpt lat="45.10181" lon="5.81474">
        <ele>596.2</ele>
        <time>2021-05-29T11:41:07Z</time>
      </trkpt>
      <trkpt lat="45.10183" lon="5.81477">
        <ele>596.4</ele>
        <time>2021-05-29T11:41:08Z</time>
      </trkpt>
      <trkpt lat="45.10185" lon="5.8148">
        <ele>596</ele>
        <time>2021-05-29T11:41:09Z</time>
      </trkpt>
      <trkpt lat="45.10188" lon="5.81483">
        <ele>596.2</ele>
        <time>2021-05-29T11:41:10Z</time>
      </trkpt>
      <trkpt lat="45.1019" lon="5.81486">
        <ele>596</ele>
        <time>2021-05-29T11:41:11Z</time>
      </trkpt>
      <trkpt lat="45.10192" lon="5.81489">
        <ele>596.2</ele>
        <time>2021-05-29T11:41:12Z</time>
      </trkpt>
      <trkpt lat="45.10193" lon="5.81491">
        <ele>596.2</ele>
        <time>2021-05-29T11:41:13Z</time>
      </trkpt>
      <trkpt lat="45.10197" lon="5.81497">
        <ele>596.6</ele>
        <time>2021-05-29T11:41:14Z</time>
      </trkpt>
      <trkpt lat="45.10197" lon="5.81498">
        <ele>596.6</ele>
        <time>2021-05-29T11:41:15Z</time>
      </trkpt>
      <trkpt lat="45.10198" lon="5.81501">
        <ele>597</ele>
        <time>2021-05-29T11:41:16Z</time>
      </trkpt>
      <trkpt lat="45.102" lon="5.81507">
        <ele>596.8</ele>
        <time>2021-05-29T11:41:17Z</time>
      </trkpt>
      <trkpt lat="45.102" lon="5.81509">
        <ele>597</ele>
        <time>2021-05-29T11:41:18Z</time>
      </trkpt>
      <trkpt lat="45.102" lon="5.81511">
        <ele>596.6</ele>
        <time>2021-05-29T11:41:19Z</time>
      </trkpt>
      <trkpt lat="45.102" lon="5.81513">
        <ele>596.6</ele>
        <time>2021-05-29T11:41:20Z</time>
      </trkpt>
      <trkpt lat="45.10199" lon="5.8152">
        <ele>596.4</ele>
        <time>2021-05-29T11:41:21Z</time>
      </trkpt>
      <trkpt lat="45.10198" lon="5.81523">
        <ele>596.4</ele>
        <time>2021-05-29T11:41:22Z</time>
      </trkpt>
      <trkpt lat="45.10197" lon="5.81526">
        <ele>596.2</ele>
        <time>2021-05-29T11:41:23Z</time>
      </trkpt>
      <trkpt lat="45.10197" lon="5.8153">
        <ele>596.2</ele>
        <time>2021-05-29T11:41:24Z</time>
      </trkpt>
      <trkpt lat="45.10196" lon="5.81533">
        <ele>596</ele>
        <time>2021-05-29T11:41:25Z</time>
      </trkpt>
      <trkpt lat="45.10196" lon="5.81533">
        <ele>596</ele>
        <time>2021-05-29T11:41:26Z</time>
      </trkpt>
      <trkpt lat="45.10196" lon="5.81533">
        <ele>595.8</ele>
        <time>2021-05-29T11:41:27Z</time>
      </trkpt>
      <trkpt lat="45.10196" lon="5.81533">
        <ele>596</ele>
        <time>2021-05-29T11:41:28Z</time>
      </trkpt>
      <trkpt lat="45.10195" lon="5.81537">
        <ele>595.6</ele>
        <time>2021-05-29T11:41:29Z</time>
      </trkpt>
      <trkpt lat="45.10194" lon="5.81542">
        <ele>595.8</ele>
        <time>2021-05-29T11:41:30Z</time>
      </trkpt>
      <trkpt lat="45.10193" lon="5.81547">
        <ele>595.6</ele>
        <time>2021-05-29T11:41:31Z</time>
      </trkpt>
      <trkpt lat="45.10192" lon="5.81552">
        <ele>595.6</ele>
        <time>2021-05-29T11:41:32Z</time>
      </trkpt>
      <trkpt lat="45.10192" lon="5.81552">
        <ele>595.6</ele>
        <time>2021-05-29T11:41:33Z</time>
      </trkpt>
      <trkpt lat="45.10192" lon="5.81552">
        <ele>595.6</ele>
        <time>2021-05-29T11:41:34Z</time>
      </trkpt>
      <trkpt lat="45.10192" lon="5.81554">
        <ele>595.4</ele>
        <time>2021-05-29T11:41:35Z</time>
      </trkpt>
      <trkpt lat="45.10192" lon="5.81556">
        <ele>595.4</ele>
        <time>2021-05-29T11:41:36Z</time>
      </trkpt>
      <trkpt lat="45.10191" lon="5.81558">
        <ele>595.2</ele>
        <time>2021-05-29T11:41:37Z</time>
      </trkpt>
      <trkpt lat="45.10191" lon="5.8156">
        <ele>595</ele>
        <time>2021-05-29T11:41:38Z</time>
      </trkpt>
      <trkpt lat="45.10191" lon="5.81562">
        <ele>595</ele>
        <time>2021-05-29T11:41:39Z</time>
      </trkpt>
      <trkpt lat="45.10191" lon="5.81565">
        <ele>594.8</ele>
        <time>2021-05-29T11:41:40Z</time>
      </trkpt>
      <trkpt lat="45.10191" lon="5.81567">
        <ele>595</ele>
        <time>2021-05-29T11:41:41Z</time>
      </trkpt>
      <trkpt lat="45.10191" lon="5.81569">
        <ele>594.8</ele>
        <time>2021-05-29T11:41:42Z</time>
      </trkpt>
      <trkpt lat="45.10192" lon="5.81571">
        <ele>595.2</ele>
        <time>2021-05-29T11:41:43Z</time>
      </trkpt>
      <trkpt lat="45.10192" lon="5.81573">
        <ele>595.4</ele>
        <time>2021-05-29T11:41:44Z</time>
      </trkpt>
      <trkpt lat="45.10193" lon="5.81576">
        <ele>595.8</ele>
        <time>2021-05-29T11:41:45Z</time>
      </trkpt>
      <trkpt lat="45.10195" lon="5.81579">
        <ele>595.8</ele>
        <time>2021-05-29T11:41:46Z</time>
      </trkpt>
      <trkpt lat="45.10196" lon="5.81581">
        <ele>596</ele>
        <time>2021-05-29T11:41:47Z</time>
      </trkpt>
      <trkpt lat="45.10198" lon="5.81584">
        <ele>596</ele>
        <time>2021-05-29T11:41:48Z</time>
      </trkpt>
      <trkpt lat="45.10199" lon="5.81585">
        <ele>596.4</ele>
        <time>2021-05-29T11:41:49Z</time>
      </trkpt>
      <trkpt lat="45.102" lon="5.81587">
        <ele>596.4</ele>
        <time>2021-05-29T11:41:50Z</time>
      </trkpt>
      <trkpt lat="45.10201" lon="5.81588">
        <ele>596.4</ele>
        <time>2021-05-29T11:41:51Z</time>
      </trkpt>
      <trkpt lat="45.10202" lon="5.8159">
        <ele>596.4</ele>
        <time>2021-05-29T11:41:52Z</time>
      </trkpt>
      <trkpt lat="45.10203" lon="5.81591">
        <ele>596.4</ele>
        <time>2021-05-29T11:41:53Z</time>
      </trkpt>
      <trkpt lat="45.10203" lon="5.81592">
        <ele>596.4</ele>
        <time>2021-05-29T11:41:54Z</time>
      </trkpt>
      <trkpt lat="45.10204" lon="5.81594">
        <ele>596.4</ele>
        <time>2021-05-29T11:41:55Z</time>
      </trkpt>
      <trkpt lat="45.10205" lon="5.81595">
        <ele>596.4</ele>
        <time>2021-05-29T11:41:56Z</time>
      </trkpt>
      <trkpt lat="45.10208" lon="5.81595">
        <ele>596.8</ele>
        <time>2021-05-29T11:41:57Z</time>
      </trkpt>
      <trkpt lat="45.1021" lon="5.81595">
        <ele>596.8</ele>
        <time>2021-05-29T11:41:58Z</time>
      </trkpt>
      <trkpt lat="45.10212" lon="5.81595">
        <ele>597</ele>
        <time>2021-05-29T11:41:59Z</time>
      </trkpt>
      <trkpt lat="45.10214" lon="5.81596">
        <ele>597</ele>
        <time>2021-05-29T11:42:00Z</time>
      </trkpt>
      <trkpt lat="45.10217" lon="5.81596">
        <ele>597.2</ele>
        <time>2021-05-29T11:42:01Z</time>
      </trkpt>
      <trkpt lat="45.10219" lon="5.81595">
        <ele>597.2</ele>
        <time>2021-05-29T11:42:02Z</time>
      </trkpt>
      <trkpt lat="45.10221" lon="5.81595">
        <ele>597.6</ele>
        <time>2021-05-29T11:42:03Z</time>
      </trkpt>
      <trkpt lat="45.10224" lon="5.81595">
        <ele>597.6</ele>
        <time>2021-05-29T11:42:04Z</time>
      </trkpt>
      <trkpt lat="45.10226" lon="5.81595">
        <ele>597.8</ele>
        <time>2021-05-29T11:42:05Z</time>
      </trkpt>
      <trkpt lat="45.10236" lon="5.81593">
        <ele>597.8</ele>
        <time>2021-05-29T11:42:06Z</time>
      </trkpt>
      <trkpt lat="45.10237" lon="5.81594">
        <ele>598.2</ele>
        <time>2021-05-29T11:42:07Z</time>
      </trkpt>
      <trkpt lat="45.10239" lon="5.81594">
        <ele>598.2</ele>
        <time>2021-05-29T11:42:08Z</time>
      </trkpt>
      <trkpt lat="45.1024" lon="5.81595">
        <ele>598.2</ele>
        <time>2021-05-29T11:42:09Z</time>
      </trkpt>
      <trkpt lat="45.10244" lon="5.81596">
        <ele>598.4</ele>
        <time>2021-05-29T11:42:10Z</time>
      </trkpt>
      <trkpt lat="45.10248" lon="5.81598">
        <ele>598.8</ele>
        <time>2021-05-29T11:42:11Z</time>
      </trkpt>
      <trkpt lat="45.10252" lon="5.81599">
        <ele>598.4</ele>
        <time>2021-05-29T11:42:12Z</time>
      </trkpt>
      <trkpt lat="45.10261" lon="5.81603">
        <ele>598.6</ele>
        <time>2021-05-29T11:42:13Z</time>
      </trkpt>
      <trkpt lat="45.10264" lon="5.81605">
        <ele>598.6</ele>
        <time>2021-05-29T11:42:14Z</time>
      </trkpt>
      <trkpt lat="45.10267" lon="5.81606">
        <ele>598.8</ele>
        <time>2021-05-29T11:42:15Z</time>
      </trkpt>
      <trkpt lat="45.10268" lon="5.81607">
        <ele>598.6</ele>
        <time>2021-05-29T11:42:16Z</time>
      </trkpt>
      <trkpt lat="45.1027" lon="5.81609">
        <ele>599</ele>
        <time>2021-05-29T11:42:17Z</time>
      </trkpt>
      <trkpt lat="45.10271" lon="5.8161">
        <ele>599</ele>
        <time>2021-05-29T11:42:18Z</time>
      </trkpt>
      <trkpt lat="45.10275" lon="5.81613">
        <ele>599.2</ele>
        <time>2021-05-29T11:42:19Z</time>
      </trkpt>
      <trkpt lat="45.10279" lon="5.81616">
        <ele>599.2</ele>
        <time>2021-05-29T11:42:20Z</time>
      </trkpt>
      <trkpt lat="45.10283" lon="5.8162">
        <ele>599.4</ele>
        <time>2021-05-29T11:42:21Z</time>
      </trkpt>
      <trkpt lat="45.10287" lon="5.81623">
        <ele>599.4</ele>
        <time>2021-05-29T11:42:22Z</time>
      </trkpt>
      <trkpt lat="45.10292" lon="5.81627">
        <ele>599.8</ele>
        <time>2021-05-29T11:42:23Z</time>
      </trkpt>
      <trkpt lat="45.10292" lon="5.81627">
        <ele>599.6</ele>
        <time>2021-05-29T11:42:24Z</time>
      </trkpt>
      <trkpt lat="45.10292" lon="5.81627">
        <ele>599.8</ele>
        <time>2021-05-29T11:42:25Z</time>
      </trkpt>
      <trkpt lat="45.10294" lon="5.8163">
        <ele>599.2</ele>
        <time>2021-05-29T11:42:26Z</time>
      </trkpt>
      <trkpt lat="45.10296" lon="5.81632">
        <ele>599</ele>
        <time>2021-05-29T11:42:27Z</time>
      </trkpt>
      <trkpt lat="45.10299" lon="5.81634">
        <ele>598.6</ele>
        <time>2021-05-29T11:42:28Z</time>
      </trkpt>
      <trkpt lat="45.10301" lon="5.81636">
        <ele>598.4</ele>
        <time>2021-05-29T11:42:29Z</time>
      </trkpt>
      <trkpt lat="45.10303" lon="5.81638">
        <ele>598.2</ele>
        <time>2021-05-29T11:42:30Z</time>
      </trkpt>
      <trkpt lat="45.10305" lon="5.8164">
        <ele>597.6</ele>
        <time>2021-05-29T11:42:31Z</time>
      </trkpt>
      <trkpt lat="45.10308" lon="5.81642">
        <ele>597</ele>
        <time>2021-05-29T11:42:32Z</time>
      </trkpt>
      <trkpt lat="45.1031" lon="5.81644">
        <ele>596.4</ele>
        <time>2021-05-29T11:42:33Z</time>
      </trkpt>
      <trkpt lat="45.1032" lon="5.81648">
        <ele>595.8</ele>
        <time>2021-05-29T11:42:34Z</time>
      </trkpt>
      <trkpt lat="45.1032" lon="5.81648">
        <ele>595.8</ele>
        <time>2021-05-29T11:42:35Z</time>
      </trkpt>
      <trkpt lat="45.1032" lon="5.81648">
        <ele>595</ele>
        <time>2021-05-29T11:42:36Z</time>
      </trkpt>
      <trkpt lat="45.1032" lon="5.81648">
        <ele>595</ele>
        <time>2021-05-29T11:42:37Z</time>
      </trkpt>
      <trkpt lat="45.10321" lon="5.81649">
        <ele>594.4</ele>
        <time>2021-05-29T11:42:38Z</time>
      </trkpt>
      <trkpt lat="45.10323" lon="5.8165">
        <ele>594</ele>
        <time>2021-05-29T11:42:39Z</time>
      </trkpt>
      <trkpt lat="45.10325" lon="5.81651">
        <ele>593.4</ele>
        <time>2021-05-29T11:42:40Z</time>
      </trkpt>
      <trkpt lat="45.10327" lon="5.81651">
        <ele>593</ele>
        <time>2021-05-29T11:42:41Z</time>
      </trkpt>
      <trkpt lat="45.10328" lon="5.81652">
        <ele>592.6</ele>
        <time>2021-05-29T11:42:42Z</time>
      </trkpt>
      <trkpt lat="45.1033" lon="5.81653">
        <ele>592</ele>
        <time>2021-05-29T11:42:43Z</time>
      </trkpt>
      <trkpt lat="45.10332" lon="5.81653">
        <ele>591.8</ele>
        <time>2021-05-29T11:42:44Z</time>
      </trkpt>
      <trkpt lat="45.10334" lon="5.81654">
        <ele>591</ele>
        <time>2021-05-29T11:42:45Z</time>
      </trkpt>
      <trkpt lat="45.10335" lon="5.81655">
        <ele>590.4</ele>
        <time>2021-05-29T11:42:46Z</time>
      </trkpt>
      <trkpt lat="45.10337" lon="5.81656">
        <ele>589.4</ele>
        <time>2021-05-29T11:42:47Z</time>
      </trkpt>
      <trkpt lat="45.10339" lon="5.81656">
        <ele>588.6</ele>
        <time>2021-05-29T11:42:48Z</time>
      </trkpt>
      <trkpt lat="45.10342" lon="5.81658">
        <ele>588.2</ele>
        <time>2021-05-29T11:42:49Z</time>
      </trkpt>
      <trkpt lat="45.10345" lon="5.81659">
        <ele>587.6</ele>
        <time>2021-05-29T11:42:50Z</time>
      </trkpt>
      <trkpt lat="45.10348" lon="5.81661">
        <ele>587.2</ele>
        <time>2021-05-29T11:42:51Z</time>
      </trkpt>
      <trkpt lat="45.10351" lon="5.81662">
        <ele>586.4</ele>
        <time>2021-05-29T11:42:52Z</time>
      </trkpt>
      <trkpt lat="45.10354" lon="5.81664">
        <ele>585.8</ele>
        <time>2021-05-29T11:42:53Z</time>
      </trkpt>
      <trkpt lat="45.10357" lon="5.81665">
        <ele>584.6</ele>
        <time>2021-05-29T11:42:54Z</time>
      </trkpt>
      <trkpt lat="45.1036" lon="5.81667">
        <ele>583.6</ele>
        <time>2021-05-29T11:42:55Z</time>
      </trkpt>
      <trkpt lat="45.10369" lon="5.81671">
        <ele>583.4</ele>
        <time>2021-05-29T11:42:56Z</time>
      </trkpt>
      <trkpt lat="45.10371" lon="5.81673">
        <ele>582.8</ele>
        <time>2021-05-29T11:42:57Z</time>
      </trkpt>
      <trkpt lat="45.10378" lon="5.81678">
        <ele>582.4</ele>
        <time>2021-05-29T11:42:58Z</time>
      </trkpt>
      <trkpt lat="45.1038" lon="5.8168">
        <ele>581.6</ele>
        <time>2021-05-29T11:42:59Z</time>
      </trkpt>
      <trkpt lat="45.10385" lon="5.81683">
        <ele>581</ele>
        <time>2021-05-29T11:43:00Z</time>
      </trkpt>
      <trkpt lat="45.10387" lon="5.81685">
        <ele>580.4</ele>
        <time>2021-05-29T11:43:01Z</time>
      </trkpt>
      <trkpt lat="45.10389" lon="5.81686">
        <ele>579.8</ele>
        <time>2021-05-29T11:43:02Z</time>
      </trkpt>
      <trkpt lat="45.10392" lon="5.81687">
        <ele>579.6</ele>
        <time>2021-05-29T11:43:03Z</time>
      </trkpt>
      <trkpt lat="45.10399" lon="5.8169">
        <ele>578.8</ele>
        <time>2021-05-29T11:43:04Z</time>
      </trkpt>
      <trkpt lat="45.104" lon="5.81691">
        <ele>578</ele>
        <time>2021-05-29T11:43:05Z</time>
      </trkpt>
      <trkpt lat="45.10407" lon="5.81694">
        <ele>576.8</ele>
        <time>2021-05-29T11:43:06Z</time>
      </trkpt>
      <trkpt lat="45.10408" lon="5.81695">
        <ele>576.6</ele>
        <time>2021-05-29T11:43:07Z</time>
      </trkpt>
      <trkpt lat="45.1041" lon="5.81696">
        <ele>576.4</ele>
        <time>2021-05-29T11:43:08Z</time>
      </trkpt>
      <trkpt lat="45.10414" lon="5.81699">
        <ele>575.8</ele>
        <time>2021-05-29T11:43:09Z</time>
      </trkpt>
      <trkpt lat="45.10415" lon="5.81699">
        <ele>575.4</ele>
        <time>2021-05-29T11:43:10Z</time>
      </trkpt>
      <trkpt lat="45.10416" lon="5.81699">
        <ele>574.4</ele>
        <time>2021-05-29T11:43:11Z</time>
      </trkpt>
      <trkpt lat="45.10417" lon="5.817">
        <ele>574</ele>
        <time>2021-05-29T11:43:12Z</time>
      </trkpt>
      <trkpt lat="45.10421" lon="5.817">
        <ele>574</ele>
        <time>2021-05-29T11:43:13Z</time>
      </trkpt>
      <trkpt lat="45.10425" lon="5.81701">
        <ele>573.6</ele>
        <time>2021-05-29T11:43:14Z</time>
      </trkpt>
      <trkpt lat="45.10429" lon="5.81702">
        <ele>572.8</ele>
        <time>2021-05-29T11:43:15Z</time>
      </trkpt>
      <trkpt lat="45.10434" lon="5.81702">
        <ele>572.4</ele>
        <time>2021-05-29T11:43:16Z</time>
      </trkpt>
      <trkpt lat="45.10436" lon="5.81703">
        <ele>572</ele>
        <time>2021-05-29T11:43:17Z</time>
      </trkpt>
      <trkpt lat="45.10437" lon="5.81703">
        <ele>572</ele>
        <time>2021-05-29T11:43:18Z</time>
      </trkpt>
      <trkpt lat="45.10439" lon="5.81703">
        <ele>571.4</ele>
        <time>2021-05-29T11:43:19Z</time>
      </trkpt>
      <trkpt lat="45.10445" lon="5.81704">
        <ele>571.2</ele>
        <time>2021-05-29T11:43:20Z</time>
      </trkpt>
      <trkpt lat="45.10445" lon="5.81704">
        <ele>570.4</ele>
        <time>2021-05-29T11:43:21Z</time>
      </trkpt>
      <trkpt lat="45.10445" lon="5.81704">
        <ele>569.8</ele>
        <time>2021-05-29T11:43:22Z</time>
      </trkpt>
      <trkpt lat="45.10447" lon="5.81705">
        <ele>569.6</ele>
        <time>2021-05-29T11:43:23Z</time>
      </trkpt>
      <trkpt lat="45.10449" lon="5.81706">
        <ele>569</ele>
        <time>2021-05-29T11:43:24Z</time>
      </trkpt>
      <trkpt lat="45.1045" lon="5.81706">
        <ele>568.8</ele>
        <time>2021-05-29T11:43:25Z</time>
      </trkpt>
      <trkpt lat="45.10452" lon="5.81707">
        <ele>568</ele>
        <time>2021-05-29T11:43:26Z</time>
      </trkpt>
      <trkpt lat="45.10454" lon="5.81708">
        <ele>567.2</ele>
        <time>2021-05-29T11:43:27Z</time>
      </trkpt>
      <trkpt lat="45.10456" lon="5.81708">
        <ele>567.2</ele>
        <time>2021-05-29T11:43:28Z</time>
      </trkpt>
      <trkpt lat="45.10458" lon="5.81708">
        <ele>566.6</ele>
        <time>2021-05-29T11:43:29Z</time>
      </trkpt>
      <trkpt lat="45.1046" lon="5.81708">
        <ele>566.2</ele>
        <time>2021-05-29T11:43:30Z</time>
      </trkpt>
      <trkpt lat="45.10462" lon="5.81708">
        <ele>565.6</ele>
        <time>2021-05-29T11:43:31Z</time>
      </trkpt>
      <trkpt lat="45.10465" lon="5.81708">
        <ele>564.8</ele>
        <time>2021-05-29T11:43:32Z</time>
      </trkpt>
      <trkpt lat="45.10466" lon="5.81708">
        <ele>564.8</ele>
        <time>2021-05-29T11:43:33Z</time>
      </trkpt>
      <trkpt lat="45.10468" lon="5.81708">
        <ele>564.2</ele>
        <time>2021-05-29T11:43:34Z</time>
      </trkpt>
      <trkpt lat="45.10469" lon="5.81708">
        <ele>563.8</ele>
        <time>2021-05-29T11:43:35Z</time>
      </trkpt>
      <trkpt lat="45.10471" lon="5.81708">
        <ele>563</ele>
        <time>2021-05-29T11:43:36Z</time>
      </trkpt>
      <trkpt lat="45.10472" lon="5.81709">
        <ele>562.4</ele>
        <time>2021-05-29T11:43:37Z</time>
      </trkpt>
      <trkpt lat="45.10474" lon="5.81709">
        <ele>562.6</ele>
        <time>2021-05-29T11:43:38Z</time>
      </trkpt>
      <trkpt lat="45.10475" lon="5.8171">
        <ele>562.2</ele>
        <time>2021-05-29T11:43:39Z</time>
      </trkpt>
      <trkpt lat="45.10476" lon="5.81711">
        <ele>561.8</ele>
        <time>2021-05-29T11:43:40Z</time>
      </trkpt>
      <trkpt lat="45.10478" lon="5.81712">
        <ele>561.2</ele>
        <time>2021-05-29T11:43:41Z</time>
      </trkpt>
      <trkpt lat="45.10479" lon="5.81713">
        <ele>560.4</ele>
        <time>2021-05-29T11:43:42Z</time>
      </trkpt>
      <trkpt lat="45.1048" lon="5.81713">
        <ele>560.4</ele>
        <time>2021-05-29T11:43:43Z</time>
      </trkpt>
      <trkpt lat="45.10482" lon="5.81714">
        <ele>559.8</ele>
        <time>2021-05-29T11:43:44Z</time>
      </trkpt>
      <trkpt lat="45.10484" lon="5.81715">
        <ele>559.4</ele>
        <time>2021-05-29T11:43:45Z</time>
      </trkpt>
      <trkpt lat="45.10486" lon="5.81716">
        <ele>558.8</ele>
        <time>2021-05-29T11:43:46Z</time>
      </trkpt>
      <trkpt lat="45.10488" lon="5.81717">
        <ele>558.2</ele>
        <time>2021-05-29T11:43:47Z</time>
      </trkpt>
      <trkpt lat="45.1049" lon="5.81717">
        <ele>557.6</ele>
        <time>2021-05-29T11:43:48Z</time>
      </trkpt>
      <trkpt lat="45.10492" lon="5.81718">
        <ele>556.8</ele>
        <time>2021-05-29T11:43:49Z</time>
      </trkpt>
      <trkpt lat="45.10494" lon="5.81719">
        <ele>556.8</ele>
        <time>2021-05-29T11:43:50Z</time>
      </trkpt>
      <trkpt lat="45.10496" lon="5.8172">
        <ele>556.4</ele>
        <time>2021-05-29T11:43:51Z</time>
      </trkpt>
      <trkpt lat="45.10498" lon="5.81721">
        <ele>556.4</ele>
        <time>2021-05-29T11:43:52Z</time>
      </trkpt>
      <trkpt lat="45.10501" lon="5.81722">
        <ele>555.8</ele>
        <time>2021-05-29T11:43:53Z</time>
      </trkpt>
      <trkpt lat="45.10503" lon="5.81723">
        <ele>555.4</ele>
        <time>2021-05-29T11:43:54Z</time>
      </trkpt>
      <trkpt lat="45.10505" lon="5.81722">
        <ele>555</ele>
        <time>2021-05-29T11:43:55Z</time>
      </trkpt>
      <trkpt lat="45.10507" lon="5.81721">
        <ele>554.4</ele>
        <time>2021-05-29T11:43:56Z</time>
      </trkpt>
      <trkpt lat="45.10509" lon="5.8172">
        <ele>554.2</ele>
        <time>2021-05-29T11:43:57Z</time>
      </trkpt>
      <trkpt lat="45.10511" lon="5.81719">
        <ele>554</ele>
        <time>2021-05-29T11:43:58Z</time>
      </trkpt>
      <trkpt lat="45.10513" lon="5.81719">
        <ele>553.8</ele>
        <time>2021-05-29T11:43:59Z</time>
      </trkpt>
      <trkpt lat="45.10515" lon="5.81718">
        <ele>553.4</ele>
        <time>2021-05-29T11:44:00Z</time>
      </trkpt>
      <trkpt lat="45.10518" lon="5.81716">
        <ele>553.2</ele>
        <time>2021-05-29T11:44:01Z</time>
      </trkpt>
      <trkpt lat="45.10518" lon="5.81716">
        <ele>552.6</ele>
        <time>2021-05-29T11:44:02Z</time>
      </trkpt>
      <trkpt lat="45.10518" lon="5.81716">
        <ele>552.4</ele>
        <time>2021-05-29T11:44:03Z</time>
      </trkpt>
      <trkpt lat="45.1052" lon="5.81715">
        <ele>551.8</ele>
        <time>2021-05-29T11:44:04Z</time>
      </trkpt>
      <trkpt lat="45.10523" lon="5.81713">
        <ele>551</ele>
        <time>2021-05-29T11:44:05Z</time>
      </trkpt>
      <trkpt lat="45.10526" lon="5.81712">
        <ele>550.8</ele>
        <time>2021-05-29T11:44:06Z</time>
      </trkpt>
      <trkpt lat="45.10529" lon="5.8171">
        <ele>550.4</ele>
        <time>2021-05-29T11:44:07Z</time>
      </trkpt>
      <trkpt lat="45.10531" lon="5.81709">
        <ele>550.2</ele>
        <time>2021-05-29T11:44:08Z</time>
      </trkpt>
      <trkpt lat="45.10536" lon="5.81706">
        <ele>549.8</ele>
        <time>2021-05-29T11:44:09Z</time>
      </trkpt>
      <trkpt lat="45.10538" lon="5.81704">
        <ele>549.4</ele>
        <time>2021-05-29T11:44:10Z</time>
      </trkpt>
      <trkpt lat="45.1054" lon="5.81703">
        <ele>548.8</ele>
        <time>2021-05-29T11:44:11Z</time>
      </trkpt>
      <trkpt lat="45.10543" lon="5.81701">
        <ele>548.2</ele>
        <time>2021-05-29T11:44:12Z</time>
      </trkpt>
      <trkpt lat="45.10548" lon="5.81698">
        <ele>547.6</ele>
        <time>2021-05-29T11:44:13Z</time>
      </trkpt>
      <trkpt lat="45.10551" lon="5.81698">
        <ele>547</ele>
        <time>2021-05-29T11:44:14Z</time>
      </trkpt>
      <trkpt lat="45.10554" lon="5.81697">
        <ele>546.8</ele>
        <time>2021-05-29T11:44:15Z</time>
      </trkpt>
      <trkpt lat="45.10557" lon="5.81697">
        <ele>546.4</ele>
        <time>2021-05-29T11:44:16Z</time>
      </trkpt>
      <trkpt lat="45.1056" lon="5.81696">
        <ele>546.2</ele>
        <time>2021-05-29T11:44:17Z</time>
      </trkpt>
      <trkpt lat="45.10563" lon="5.81697">
        <ele>545.8</ele>
        <time>2021-05-29T11:44:18Z</time>
      </trkpt>
      <trkpt lat="45.10565" lon="5.81697">
        <ele>545.6</ele>
        <time>2021-05-29T11:44:19Z</time>
      </trkpt>
      <trkpt lat="45.10568" lon="5.81696">
        <ele>545.2</ele>
        <time>2021-05-29T11:44:20Z</time>
      </trkpt>
      <trkpt lat="45.10571" lon="5.81697">
        <ele>544.6</ele>
        <time>2021-05-29T11:44:21Z</time>
      </trkpt>
      <trkpt lat="45.10574" lon="5.81697">
        <ele>544</ele>
        <time>2021-05-29T11:44:22Z</time>
      </trkpt>
      <trkpt lat="45.10576" lon="5.81697">
        <ele>543.4</ele>
        <time>2021-05-29T11:44:23Z</time>
      </trkpt>
      <trkpt lat="45.10579" lon="5.81697">
        <ele>543.2</ele>
        <time>2021-05-29T11:44:24Z</time>
      </trkpt>
      <trkpt lat="45.10582" lon="5.81698">
        <ele>542.6</ele>
        <time>2021-05-29T11:44:25Z</time>
      </trkpt>
      <trkpt lat="45.10585" lon="5.81698">
        <ele>543</ele>
        <time>2021-05-29T11:44:26Z</time>
      </trkpt>
      <trkpt lat="45.10587" lon="5.81698">
        <ele>542.4</ele>
        <time>2021-05-29T11:44:27Z</time>
      </trkpt>
      <trkpt lat="45.1059" lon="5.81698">
        <ele>542.4</ele>
        <time>2021-05-29T11:44:28Z</time>
      </trkpt>
      <trkpt lat="45.10593" lon="5.81698">
        <ele>541.8</ele>
        <time>2021-05-29T11:44:29Z</time>
      </trkpt>
      <trkpt lat="45.10595" lon="5.81699">
        <ele>541.6</ele>
        <time>2021-05-29T11:44:30Z</time>
      </trkpt>
      <trkpt lat="45.10597" lon="5.81699">
        <ele>541</ele>
        <time>2021-05-29T11:44:31Z</time>
      </trkpt>
      <trkpt lat="45.106" lon="5.817">
        <ele>540.6</ele>
        <time>2021-05-29T11:44:32Z</time>
      </trkpt>
      <trkpt lat="45.10603" lon="5.81701">
        <ele>540</ele>
        <time>2021-05-29T11:44:33Z</time>
      </trkpt>
      <trkpt lat="45.10605" lon="5.81702">
        <ele>539.4</ele>
        <time>2021-05-29T11:44:34Z</time>
      </trkpt>
      <trkpt lat="45.10606" lon="5.81702">
        <ele>539.4</ele>
        <time>2021-05-29T11:44:35Z</time>
      </trkpt>
      <trkpt lat="45.10608" lon="5.81703">
        <ele>539</ele>
        <time>2021-05-29T11:44:36Z</time>
      </trkpt>
      <trkpt lat="45.1061" lon="5.81704">
        <ele>539</ele>
        <time>2021-05-29T11:44:37Z</time>
      </trkpt>
      <trkpt lat="45.10617" lon="5.81706">
        <ele>538.4</ele>
        <time>2021-05-29T11:44:38Z</time>
      </trkpt>
      <trkpt lat="45.10618" lon="5.81706">
        <ele>538.4</ele>
        <time>2021-05-29T11:44:39Z</time>
      </trkpt>
      <trkpt lat="45.10621" lon="5.81707">
        <ele>538</ele>
        <time>2021-05-29T11:44:40Z</time>
      </trkpt>
      <trkpt lat="45.10626" lon="5.81709">
        <ele>537.6</ele>
        <time>2021-05-29T11:44:41Z</time>
      </trkpt>
      <trkpt lat="45.10629" lon="5.8171">
        <ele>537.2</ele>
        <time>2021-05-29T11:44:42Z</time>
      </trkpt>
      <trkpt lat="45.10632" lon="5.81711">
        <ele>536.8</ele>
        <time>2021-05-29T11:44:43Z</time>
      </trkpt>
      <trkpt lat="45.10635" lon="5.81711">
        <ele>536.2</ele>
        <time>2021-05-29T11:44:44Z</time>
      </trkpt>
      <trkpt lat="45.10635" lon="5.81711">
        <ele>535.4</ele>
        <time>2021-05-29T11:44:45Z</time>
      </trkpt>
      <trkpt lat="45.10638" lon="5.81711">
        <ele>535.4</ele>
        <time>2021-05-29T11:44:46Z</time>
      </trkpt>
      <trkpt lat="45.10645" lon="5.81712">
        <ele>535</ele>
        <time>2021-05-29T11:44:47Z</time>
      </trkpt>
      <trkpt lat="45.10649" lon="5.81712">
        <ele>535.2</ele>
        <time>2021-05-29T11:44:48Z</time>
      </trkpt>
      <trkpt lat="45.10653" lon="5.81713">
        <ele>534.8</ele>
        <time>2021-05-29T11:44:49Z</time>
      </trkpt>
      <trkpt lat="45.10656" lon="5.81713">
        <ele>535</ele>
        <time>2021-05-29T11:44:50Z</time>
      </trkpt>
      <trkpt lat="45.10659" lon="5.81713">
        <ele>534.2</ele>
        <time>2021-05-29T11:44:51Z</time>
      </trkpt>
      <trkpt lat="45.10662" lon="5.81713">
        <ele>534.2</ele>
        <time>2021-05-29T11:44:52Z</time>
      </trkpt>
      <trkpt lat="45.10662" lon="5.81713">
        <ele>533.6</ele>
        <time>2021-05-29T11:44:53Z</time>
      </trkpt>
      <trkpt lat="45.10665" lon="5.81714">
        <ele>532.8</ele>
        <time>2021-05-29T11:44:54Z</time>
      </trkpt>
      <trkpt lat="45.1067" lon="5.81714">
        <ele>532.6</ele>
        <time>2021-05-29T11:44:55Z</time>
      </trkpt>
      <trkpt lat="45.10675" lon="5.81715">
        <ele>532</ele>
        <time>2021-05-29T11:44:56Z</time>
      </trkpt>
      <trkpt lat="45.10679" lon="5.81715">
        <ele>532</ele>
        <time>2021-05-29T11:44:57Z</time>
      </trkpt>
      <trkpt lat="45.10681" lon="5.81716">
        <ele>531.6</ele>
        <time>2021-05-29T11:44:58Z</time>
      </trkpt>
      <trkpt lat="45.10683" lon="5.81716">
        <ele>531.6</ele>
        <time>2021-05-29T11:44:59Z</time>
      </trkpt>
      <trkpt lat="45.10686" lon="5.81717">
        <ele>531.4</ele>
        <time>2021-05-29T11:45:00Z</time>
      </trkpt>
      <trkpt lat="45.10689" lon="5.81717">
        <ele>531.2</ele>
        <time>2021-05-29T11:45:01Z</time>
      </trkpt>
      <trkpt lat="45.10693" lon="5.81717">
        <ele>530.8</ele>
        <time>2021-05-29T11:45:02Z</time>
      </trkpt>
      <trkpt lat="45.10695" lon="5.81717">
        <ele>530.2</ele>
        <time>2021-05-29T11:45:03Z</time>
      </trkpt>
      <trkpt lat="45.10697" lon="5.81717">
        <ele>530</ele>
        <time>2021-05-29T11:45:04Z</time>
      </trkpt>
      <trkpt lat="45.107" lon="5.81718">
        <ele>529.2</ele>
        <time>2021-05-29T11:45:05Z</time>
      </trkpt>
      <trkpt lat="45.10703" lon="5.81718">
        <ele>529.4</ele>
        <time>2021-05-29T11:45:06Z</time>
      </trkpt>
      <trkpt lat="45.10706" lon="5.8172">
        <ele>528.8</ele>
        <time>2021-05-29T11:45:07Z</time>
      </trkpt>
      <trkpt lat="45.10709" lon="5.81721">
        <ele>529</ele>
        <time>2021-05-29T11:45:08Z</time>
      </trkpt>
      <trkpt lat="45.10712" lon="5.81722">
        <ele>528.8</ele>
        <time>2021-05-29T11:45:09Z</time>
      </trkpt>
      <trkpt lat="45.10715" lon="5.81724">
        <ele>528.6</ele>
        <time>2021-05-29T11:45:10Z</time>
      </trkpt>
      <trkpt lat="45.10718" lon="5.81725">
        <ele>528</ele>
        <time>2021-05-29T11:45:11Z</time>
      </trkpt>
      <trkpt lat="45.10722" lon="5.81726">
        <ele>527.6</ele>
        <time>2021-05-29T11:45:12Z</time>
      </trkpt>
      <trkpt lat="45.10725" lon="5.81726">
        <ele>527.8</ele>
        <time>2021-05-29T11:45:13Z</time>
      </trkpt>
      <trkpt lat="45.10727" lon="5.81727">
        <ele>527.4</ele>
        <time>2021-05-29T11:45:14Z</time>
      </trkpt>
      <trkpt lat="45.1073" lon="5.81728">
        <ele>527.2</ele>
        <time>2021-05-29T11:45:15Z</time>
      </trkpt>
      <trkpt lat="45.10733" lon="5.81728">
        <ele>526.6</ele>
        <time>2021-05-29T11:45:16Z</time>
      </trkpt>
      <trkpt lat="45.10735" lon="5.81727">
        <ele>526</ele>
        <time>2021-05-29T11:45:17Z</time>
      </trkpt>
      <trkpt lat="45.10738" lon="5.81727">
        <ele>525.6</ele>
        <time>2021-05-29T11:45:18Z</time>
      </trkpt>
      <trkpt lat="45.10738" lon="5.81727">
        <ele>525.2</ele>
        <time>2021-05-29T11:45:19Z</time>
      </trkpt>
      <trkpt lat="45.1074" lon="5.81726">
        <ele>524.8</ele>
        <time>2021-05-29T11:45:20Z</time>
      </trkpt>
      <trkpt lat="45.10742" lon="5.81725">
        <ele>524.4</ele>
        <time>2021-05-29T11:45:21Z</time>
      </trkpt>
      <trkpt lat="45.10742" lon="5.81725">
        <ele>523.8</ele>
        <time>2021-05-29T11:45:22Z</time>
      </trkpt>
      <trkpt lat="45.10745" lon="5.81723">
        <ele>523.4</ele>
        <time>2021-05-29T11:45:23Z</time>
      </trkpt>
      <trkpt lat="45.10745" lon="5.81723">
        <ele>522.8</ele>
        <time>2021-05-29T11:45:24Z</time>
      </trkpt>
      <trkpt lat="45.10745" lon="5.8172">
        <ele>522.4</ele>
        <time>2021-05-29T11:45:25Z</time>
      </trkpt>
      <trkpt lat="45.10746" lon="5.81716">
        <ele>522.6</ele>
        <time>2021-05-29T11:45:26Z</time>
      </trkpt>
      <trkpt lat="45.10746" lon="5.81713">
        <ele>522.4</ele>
        <time>2021-05-29T11:45:27Z</time>
      </trkpt>
      <trkpt lat="45.10746" lon="5.8171">
        <ele>522.4</ele>
        <time>2021-05-29T11:45:28Z</time>
      </trkpt>
      <trkpt lat="45.10747" lon="5.81707">
        <ele>522</ele>
        <time>2021-05-29T11:45:29Z</time>
      </trkpt>
      <trkpt lat="45.10747" lon="5.81705">
        <ele>522.6</ele>
        <time>2021-05-29T11:45:30Z</time>
      </trkpt>
      <trkpt lat="45.10747" lon="5.81705">
        <ele>522.8</ele>
        <time>2021-05-29T11:45:31Z</time>
      </trkpt>
      <trkpt lat="45.10748" lon="5.81701">
        <ele>523.2</ele>
        <time>2021-05-29T11:45:32Z</time>
      </trkpt>
      <trkpt lat="45.10748" lon="5.81696">
        <ele>523.4</ele>
        <time>2021-05-29T11:45:33Z</time>
      </trkpt>
      <trkpt lat="45.10748" lon="5.81693">
        <ele>523.6</ele>
        <time>2021-05-29T11:45:34Z</time>
      </trkpt>
      <trkpt lat="45.10748" lon="5.81691">
        <ele>523.6</ele>
        <time>2021-05-29T11:45:35Z</time>
      </trkpt>
      <trkpt lat="45.10748" lon="5.81688">
        <ele>523.4</ele>
        <time>2021-05-29T11:45:36Z</time>
      </trkpt>
      <trkpt lat="45.10749" lon="5.81685">
        <ele>523</ele>
        <time>2021-05-29T11:45:37Z</time>
      </trkpt>
      <trkpt lat="45.1075" lon="5.81682">
        <ele>522.8</ele>
        <time>2021-05-29T11:45:38Z</time>
      </trkpt>
      <trkpt lat="45.1075" lon="5.81678">
        <ele>523</ele>
        <time>2021-05-29T11:45:39Z</time>
      </trkpt>
      <trkpt lat="45.10751" lon="5.81675">
        <ele>523</ele>
        <time>2021-05-29T11:45:40Z</time>
      </trkpt>
      <trkpt lat="45.10751" lon="5.81673">
        <ele>523.2</ele>
        <time>2021-05-29T11:45:41Z</time>
      </trkpt>
      <trkpt lat="45.10751" lon="5.81671">
        <ele>523.2</ele>
        <time>2021-05-29T11:45:42Z</time>
      </trkpt>
      <trkpt lat="45.10752" lon="5.81668">
        <ele>523.4</ele>
        <time>2021-05-29T11:45:43Z</time>
      </trkpt>
      <trkpt lat="45.10752" lon="5.81664">
        <ele>523.4</ele>
        <time>2021-05-29T11:45:44Z</time>
      </trkpt>
      <trkpt lat="45.10752" lon="5.81664">
        <ele>523.4</ele>
        <time>2021-05-29T11:45:45Z</time>
      </trkpt>
      <trkpt lat="45.10752" lon="5.81661">
        <ele>523</ele>
        <time>2021-05-29T11:45:46Z</time>
      </trkpt>
      <trkpt lat="45.10752" lon="5.81658">
        <ele>522.8</ele>
        <time>2021-05-29T11:45:47Z</time>
      </trkpt>
      <trkpt lat="45.10753" lon="5.81654">
        <ele>522.4</ele>
        <time>2021-05-29T11:45:48Z</time>
      </trkpt>
      <trkpt lat="45.10753" lon="5.81651">
        <ele>521.8</ele>
        <time>2021-05-29T11:45:49Z</time>
      </trkpt>
      <trkpt lat="45.10754" lon="5.81642">
        <ele>522.2</ele>
        <time>2021-05-29T11:45:50Z</time>
      </trkpt>
      <trkpt lat="45.10754" lon="5.81639">
        <ele>522.2</ele>
        <time>2021-05-29T11:45:51Z</time>
      </trkpt>
      <trkpt lat="45.10754" lon="5.81636">
        <ele>522.6</ele>
        <time>2021-05-29T11:45:52Z</time>
      </trkpt>
      <trkpt lat="45.10754" lon="5.81636">
        <ele>522.2</ele>
        <time>2021-05-29T11:45:53Z</time>
      </trkpt>
      <trkpt lat="45.10755" lon="5.81633">
        <ele>522.4</ele>
        <time>2021-05-29T11:45:54Z</time>
      </trkpt>
      <trkpt lat="45.10755" lon="5.81626">
        <ele>522.8</ele>
        <time>2021-05-29T11:45:55Z</time>
      </trkpt>
      <trkpt lat="45.10755" lon="5.81622">
        <ele>522</ele>
        <time>2021-05-29T11:45:56Z</time>
      </trkpt>
      <trkpt lat="45.10755" lon="5.8162">
        <ele>522.2</ele>
        <time>2021-05-29T11:45:57Z</time>
      </trkpt>
      <trkpt lat="45.10754" lon="5.81618">
        <ele>521.6</ele>
        <time>2021-05-29T11:45:58Z</time>
      </trkpt>
      <trkpt lat="45.10754" lon="5.81618">
        <ele>521.2</ele>
        <time>2021-05-29T11:45:59Z</time>
      </trkpt>
      <trkpt lat="45.10754" lon="5.81618">
        <ele>520.6</ele>
        <time>2021-05-29T11:46:00Z</time>
      </trkpt>
      <trkpt lat="45.10752" lon="5.81614">
        <ele>519.6</ele>
        <time>2021-05-29T11:46:01Z</time>
      </trkpt>
      <trkpt lat="45.10752" lon="5.81614">
        <ele>519.6</ele>
        <time>2021-05-29T11:46:02Z</time>
      </trkpt>
      <trkpt lat="45.10751" lon="5.81611">
        <ele>519</ele>
        <time>2021-05-29T11:46:03Z</time>
      </trkpt>
      <trkpt lat="45.10751" lon="5.81611">
        <ele>518.8</ele>
        <time>2021-05-29T11:46:04Z</time>
      </trkpt>
      <trkpt lat="45.1075" lon="5.81607">
        <ele>518.2</ele>
        <time>2021-05-29T11:46:05Z</time>
      </trkpt>
      <trkpt lat="45.1075" lon="5.81607">
        <ele>517.8</ele>
        <time>2021-05-29T11:46:06Z</time>
      </trkpt>
      <trkpt lat="45.1075" lon="5.81604">
        <ele>517</ele>
        <time>2021-05-29T11:46:07Z</time>
      </trkpt>
      <trkpt lat="45.1075" lon="5.81604">
        <ele>516.2</ele>
        <time>2021-05-29T11:46:08Z</time>
      </trkpt>
      <trkpt lat="45.10749" lon="5.81601">
        <ele>515.8</ele>
        <time>2021-05-29T11:46:09Z</time>
      </trkpt>
      <trkpt lat="45.10749" lon="5.81601">
        <ele>515.2</ele>
        <time>2021-05-29T11:46:10Z</time>
      </trkpt>
      <trkpt lat="45.10749" lon="5.81601">
        <ele>514.8</ele>
        <time>2021-05-29T11:46:11Z</time>
      </trkpt>
      <trkpt lat="45.10749" lon="5.81601">
        <ele>513.8</ele>
        <time>2021-05-29T11:46:12Z</time>
      </trkpt>
      <trkpt lat="45.10749" lon="5.81599">
        <ele>512.8</ele>
        <time>2021-05-29T11:46:13Z</time>
      </trkpt>
      <trkpt lat="45.10749" lon="5.81597">
        <ele>512.4</ele>
        <time>2021-05-29T11:46:14Z</time>
      </trkpt>
      <trkpt lat="45.10749" lon="5.81595">
        <ele>512</ele>
        <time>2021-05-29T11:46:15Z</time>
      </trkpt>
      <trkpt lat="45.10749" lon="5.81593">
        <ele>511.4</ele>
        <time>2021-05-29T11:46:16Z</time>
      </trkpt>
      <trkpt lat="45.10749" lon="5.81591">
        <ele>510.8</ele>
        <time>2021-05-29T11:46:17Z</time>
      </trkpt>
      <trkpt lat="45.10749" lon="5.81589">
        <ele>510.2</ele>
        <time>2021-05-29T11:46:18Z</time>
      </trkpt>
      <trkpt lat="45.10749" lon="5.81587">
        <ele>510</ele>
        <time>2021-05-29T11:46:19Z</time>
      </trkpt>
      <trkpt lat="45.10749" lon="5.81586">
        <ele>509.4</ele>
        <time>2021-05-29T11:46:20Z</time>
      </trkpt>
      <trkpt lat="45.10749" lon="5.81583">
        <ele>508.8</ele>
        <time>2021-05-29T11:46:21Z</time>
      </trkpt>
      <trkpt lat="45.10749" lon="5.81581">
        <ele>508</ele>
        <time>2021-05-29T11:46:22Z</time>
      </trkpt>
      <trkpt lat="45.1075" lon="5.81579">
        <ele>507.6</ele>
        <time>2021-05-29T11:46:23Z</time>
      </trkpt>
      <trkpt lat="45.1075" lon="5.81576">
        <ele>507</ele>
        <time>2021-05-29T11:46:24Z</time>
      </trkpt>
      <trkpt lat="45.1075" lon="5.81574">
        <ele>506.2</ele>
        <time>2021-05-29T11:46:25Z</time>
      </trkpt>
      <trkpt lat="45.1075" lon="5.81572">
        <ele>505.6</ele>
        <time>2021-05-29T11:46:26Z</time>
      </trkpt>
      <trkpt lat="45.1075" lon="5.81569">
        <ele>505.2</ele>
        <time>2021-05-29T11:46:27Z</time>
      </trkpt>
      <trkpt lat="45.10749" lon="5.81566">
        <ele>504.4</ele>
        <time>2021-05-29T11:46:28Z</time>
      </trkpt>
      <trkpt lat="45.10749" lon="5.81564">
        <ele>504.2</ele>
        <time>2021-05-29T11:46:29Z</time>
      </trkpt>
      <trkpt lat="45.10748" lon="5.81561">
        <ele>503.4</ele>
        <time>2021-05-29T11:46:30Z</time>
      </trkpt>
      <trkpt lat="45.10748" lon="5.81558">
        <ele>502.6</ele>
        <time>2021-05-29T11:46:31Z</time>
      </trkpt>
      <trkpt lat="45.10747" lon="5.81555">
        <ele>501.6</ele>
        <time>2021-05-29T11:46:32Z</time>
      </trkpt>
      <trkpt lat="45.10746" lon="5.81552">
        <ele>500.6</ele>
        <time>2021-05-29T11:46:33Z</time>
      </trkpt>
      <trkpt lat="45.10745" lon="5.81549">
        <ele>499.4</ele>
        <time>2021-05-29T11:46:34Z</time>
      </trkpt>
      <trkpt lat="45.10744" lon="5.81546">
        <ele>499.2</ele>
        <time>2021-05-29T11:46:35Z</time>
      </trkpt>
      <trkpt lat="45.10744" lon="5.81544">
        <ele>499</ele>
        <time>2021-05-29T11:46:36Z</time>
      </trkpt>
      <trkpt lat="45.10743" lon="5.81542">
        <ele>498.4</ele>
        <time>2021-05-29T11:46:37Z</time>
      </trkpt>
      <trkpt lat="45.10742" lon="5.81539">
        <ele>497.6</ele>
        <time>2021-05-29T11:46:38Z</time>
      </trkpt>
      <trkpt lat="45.10741" lon="5.81537">
        <ele>497</ele>
        <time>2021-05-29T11:46:39Z</time>
      </trkpt>
      <trkpt lat="45.10741" lon="5.81535">
        <ele>495.8</ele>
        <time>2021-05-29T11:46:40Z</time>
      </trkpt>
      <trkpt lat="45.1074" lon="5.81533">
        <ele>495.8</ele>
        <time>2021-05-29T11:46:41Z</time>
      </trkpt>
      <trkpt lat="45.10739" lon="5.81528">
        <ele>495.2</ele>
        <time>2021-05-29T11:46:42Z</time>
      </trkpt>
      <trkpt lat="45.10739" lon="5.81524">
        <ele>494.8</ele>
        <time>2021-05-29T11:46:43Z</time>
      </trkpt>
      <trkpt lat="45.10738" lon="5.81519">
        <ele>494.2</ele>
        <time>2021-05-29T11:46:44Z</time>
      </trkpt>
      <trkpt lat="45.10738" lon="5.81515">
        <ele>493.8</ele>
        <time>2021-05-29T11:46:45Z</time>
      </trkpt>
      <trkpt lat="45.10737" lon="5.8151">
        <ele>493.4</ele>
        <time>2021-05-29T11:46:46Z</time>
      </trkpt>
      <trkpt lat="45.10736" lon="5.81504">
        <ele>492.6</ele>
        <time>2021-05-29T11:46:47Z</time>
      </trkpt>
      <trkpt lat="45.10736" lon="5.815">
        <ele>491.8</ele>
        <time>2021-05-29T11:46:48Z</time>
      </trkpt>
      <trkpt lat="45.10736" lon="5.81496">
        <ele>491.8</ele>
        <time>2021-05-29T11:46:49Z</time>
      </trkpt>
      <trkpt lat="45.10736" lon="5.81492">
        <ele>491.4</ele>
        <time>2021-05-29T11:46:50Z</time>
      </trkpt>
      <trkpt lat="45.10735" lon="5.81481">
        <ele>490.8</ele>
        <time>2021-05-29T11:46:51Z</time>
      </trkpt>
      <trkpt lat="45.10735" lon="5.81478">
        <ele>490</ele>
        <time>2021-05-29T11:46:52Z</time>
      </trkpt>
      <trkpt lat="45.10735" lon="5.81467">
        <ele>488.8</ele>
        <time>2021-05-29T11:46:53Z</time>
      </trkpt>
      <trkpt lat="45.10734" lon="5.81465">
        <ele>488.8</ele>
        <time>2021-05-29T11:46:54Z</time>
      </trkpt>
      <trkpt lat="45.10734" lon="5.81462">
        <ele>488.2</ele>
        <time>2021-05-29T11:46:55Z</time>
      </trkpt>
      <trkpt lat="45.10734" lon="5.81456">
        <ele>488</ele>
        <time>2021-05-29T11:46:56Z</time>
      </trkpt>
      <trkpt lat="45.10734" lon="5.81453">
        <ele>487.4</ele>
        <time>2021-05-29T11:46:57Z</time>
      </trkpt>
      <trkpt lat="45.10734" lon="5.81451">
        <ele>486.6</ele>
        <time>2021-05-29T11:46:58Z</time>
      </trkpt>
      <trkpt lat="45.10734" lon="5.81449">
        <ele>486.4</ele>
        <time>2021-05-29T11:46:59Z</time>
      </trkpt>
      <trkpt lat="45.10733" lon="5.81442">
        <ele>485.8</ele>
        <time>2021-05-29T11:47:00Z</time>
      </trkpt>
      <trkpt lat="45.10733" lon="5.81442">
        <ele>485.6</ele>
        <time>2021-05-29T11:47:01Z</time>
      </trkpt>
      <trkpt lat="45.10733" lon="5.81438">
        <ele>484.6</ele>
        <time>2021-05-29T11:47:02Z</time>
      </trkpt>
      <trkpt lat="45.10732" lon="5.81435">
        <ele>484.2</ele>
        <time>2021-05-29T11:47:03Z</time>
      </trkpt>
      <trkpt lat="45.10732" lon="5.81432">
        <ele>483.4</ele>
        <time>2021-05-29T11:47:04Z</time>
      </trkpt>
      <trkpt lat="45.10732" lon="5.81428">
        <ele>482.6</ele>
        <time>2021-05-29T11:47:05Z</time>
      </trkpt>
      <trkpt lat="45.10732" lon="5.81426">
        <ele>482.4</ele>
        <time>2021-05-29T11:47:06Z</time>
      </trkpt>
      <trkpt lat="45.10732" lon="5.81423">
        <ele>481.8</ele>
        <time>2021-05-29T11:47:07Z</time>
      </trkpt>
      <trkpt lat="45.10732" lon="5.81421">
        <ele>481.4</ele>
        <time>2021-05-29T11:47:08Z</time>
      </trkpt>
      <trkpt lat="45.10732" lon="5.81418">
        <ele>480.6</ele>
        <time>2021-05-29T11:47:09Z</time>
      </trkpt>
      <trkpt lat="45.10732" lon="5.81415">
        <ele>480</ele>
        <time>2021-05-29T11:47:10Z</time>
      </trkpt>
      <trkpt lat="45.10732" lon="5.81413">
        <ele>478.8</ele>
        <time>2021-05-29T11:47:11Z</time>
      </trkpt>
      <trkpt lat="45.10732" lon="5.81411">
        <ele>478.2</ele>
        <time>2021-05-29T11:47:12Z</time>
      </trkpt>
      <trkpt lat="45.10732" lon="5.81409">
        <ele>478.4</ele>
        <time>2021-05-29T11:47:13Z</time>
      </trkpt>
      <trkpt lat="45.10732" lon="5.81407">
        <ele>478</ele>
        <time>2021-05-29T11:47:14Z</time>
      </trkpt>
      <trkpt lat="45.10732" lon="5.81405">
        <ele>477.4</ele>
        <time>2021-05-29T11:47:15Z</time>
      </trkpt>
      <trkpt lat="45.10732" lon="5.81402">
        <ele>477.2</ele>
        <time>2021-05-29T11:47:16Z</time>
      </trkpt>
      <trkpt lat="45.10732" lon="5.814">
        <ele>476.2</ele>
        <time>2021-05-29T11:47:17Z</time>
      </trkpt>
      <trkpt lat="45.10731" lon="5.81398">
        <ele>476</ele>
        <time>2021-05-29T11:47:18Z</time>
      </trkpt>
      <trkpt lat="45.10731" lon="5.81396">
        <ele>475.8</ele>
        <time>2021-05-29T11:47:19Z</time>
      </trkpt>
      <trkpt lat="45.10731" lon="5.81394">
        <ele>475.4</ele>
        <time>2021-05-29T11:47:20Z</time>
      </trkpt>
      <trkpt lat="45.10731" lon="5.81392">
        <ele>475</ele>
        <time>2021-05-29T11:47:21Z</time>
      </trkpt>
      <trkpt lat="45.10731" lon="5.8139">
        <ele>474.6</ele>
        <time>2021-05-29T11:47:22Z</time>
      </trkpt>
      <trkpt lat="45.10731" lon="5.81388">
        <ele>473.8</ele>
        <time>2021-05-29T11:47:23Z</time>
      </trkpt>
      <trkpt lat="45.10729" lon="5.81382">
        <ele>473</ele>
        <time>2021-05-29T11:47:24Z</time>
      </trkpt>
      <trkpt lat="45.10726" lon="5.81377">
        <ele>473</ele>
        <time>2021-05-29T11:47:25Z</time>
      </trkpt>
      <trkpt lat="45.10724" lon="5.81371">
        <ele>472.6</ele>
        <time>2021-05-29T11:47:26Z</time>
      </trkpt>
      <trkpt lat="45.10722" lon="5.81365">
        <ele>472.2</ele>
        <time>2021-05-29T11:47:27Z</time>
      </trkpt>
      <trkpt lat="45.10719" lon="5.81359">
        <ele>471.6</ele>
        <time>2021-05-29T11:47:28Z</time>
      </trkpt>
      <trkpt lat="45.10717" lon="5.81354">
        <ele>471.2</ele>
        <time>2021-05-29T11:47:29Z</time>
      </trkpt>
      <trkpt lat="45.10715" lon="5.81348">
        <ele>470.6</ele>
        <time>2021-05-29T11:47:30Z</time>
      </trkpt>
      <trkpt lat="45.1071" lon="5.8134">
        <ele>469.8</ele>
        <time>2021-05-29T11:47:31Z</time>
      </trkpt>
      <trkpt lat="45.10708" lon="5.81337">
        <ele>469.6</ele>
        <time>2021-05-29T11:47:32Z</time>
      </trkpt>
      <trkpt lat="45.10707" lon="5.81333">
        <ele>469.2</ele>
        <time>2021-05-29T11:47:33Z</time>
      </trkpt>
      <trkpt lat="45.10702" lon="5.81324">
        <ele>469.2</ele>
        <time>2021-05-29T11:47:34Z</time>
      </trkpt>
      <trkpt lat="45.10702" lon="5.81323">
        <ele>469</ele>
        <time>2021-05-29T11:47:35Z</time>
      </trkpt>
      <trkpt lat="45.10701" lon="5.81321">
        <ele>468.8</ele>
        <time>2021-05-29T11:47:36Z</time>
      </trkpt>
      <trkpt lat="45.10698" lon="5.81315">
        <ele>468.2</ele>
        <time>2021-05-29T11:47:37Z</time>
      </trkpt>
      <trkpt lat="45.10698" lon="5.81315">
        <ele>468</ele>
        <time>2021-05-29T11:47:38Z</time>
      </trkpt>
      <trkpt lat="45.10698" lon="5.81315">
        <ele>467.4</ele>
        <time>2021-05-29T11:47:39Z</time>
      </trkpt>
      <trkpt lat="45.10698" lon="5.81313">
        <ele>466.4</ele>
        <time>2021-05-29T11:47:40Z</time>
      </trkpt>
      <trkpt lat="45.10697" lon="5.8131">
        <ele>466.6</ele>
        <time>2021-05-29T11:47:41Z</time>
      </trkpt>
      <trkpt lat="45.10696" lon="5.81307">
        <ele>466.2</ele>
        <time>2021-05-29T11:47:42Z</time>
      </trkpt>
      <trkpt lat="45.10695" lon="5.81305">
        <ele>465.8</ele>
        <time>2021-05-29T11:47:43Z</time>
      </trkpt>
      <trkpt lat="45.10695" lon="5.81302">
        <ele>465</ele>
        <time>2021-05-29T11:47:44Z</time>
      </trkpt>
      <trkpt lat="45.10694" lon="5.813">
        <ele>464</ele>
        <time>2021-05-29T11:47:45Z</time>
      </trkpt>
      <trkpt lat="45.10693" lon="5.81298">
        <ele>464</ele>
        <time>2021-05-29T11:47:46Z</time>
      </trkpt>
      <trkpt lat="45.10692" lon="5.81297">
        <ele>463.6</ele>
        <time>2021-05-29T11:47:47Z</time>
      </trkpt>
      <trkpt lat="45.10691" lon="5.81295">
        <ele>463.2</ele>
        <time>2021-05-29T11:47:48Z</time>
      </trkpt>
      <trkpt lat="45.1069" lon="5.81293">
        <ele>462.6</ele>
        <time>2021-05-29T11:47:49Z</time>
      </trkpt>
      <trkpt lat="45.10689" lon="5.81291">
        <ele>462</ele>
        <time>2021-05-29T11:47:50Z</time>
      </trkpt>
      <trkpt lat="45.10687" lon="5.81289">
        <ele>461.2</ele>
        <time>2021-05-29T11:47:51Z</time>
      </trkpt>
      <trkpt lat="45.10685" lon="5.81287">
        <ele>460.4</ele>
        <time>2021-05-29T11:47:52Z</time>
      </trkpt>
      <trkpt lat="45.10684" lon="5.81284">
        <ele>460.6</ele>
        <time>2021-05-29T11:47:53Z</time>
      </trkpt>
      <trkpt lat="45.10682" lon="5.81282">
        <ele>460.4</ele>
        <time>2021-05-29T11:47:54Z</time>
      </trkpt>
      <trkpt lat="45.1068" lon="5.8128">
        <ele>460</ele>
        <time>2021-05-29T11:47:55Z</time>
      </trkpt>
      <trkpt lat="45.10679" lon="5.81278">
        <ele>459.8</ele>
        <time>2021-05-29T11:47:56Z</time>
      </trkpt>
      <trkpt lat="45.10678" lon="5.81276">
        <ele>459</ele>
        <time>2021-05-29T11:47:57Z</time>
      </trkpt>
      <trkpt lat="45.10676" lon="5.81274">
        <ele>458.8</ele>
        <time>2021-05-29T11:47:58Z</time>
      </trkpt>
      <trkpt lat="45.10675" lon="5.81272">
        <ele>458.2</ele>
        <time>2021-05-29T11:47:59Z</time>
      </trkpt>
      <trkpt lat="45.10672" lon="5.81268">
        <ele>458</ele>
        <time>2021-05-29T11:48:00Z</time>
      </trkpt>
      <trkpt lat="45.1067" lon="5.81264">
        <ele>457.4</ele>
        <time>2021-05-29T11:48:01Z</time>
      </trkpt>
      <trkpt lat="45.10667" lon="5.8126">
        <ele>457.2</ele>
        <time>2021-05-29T11:48:02Z</time>
      </trkpt>
      <trkpt lat="45.10664" lon="5.81256">
        <ele>456.4</ele>
        <time>2021-05-29T11:48:03Z</time>
      </trkpt>
      <trkpt lat="45.10661" lon="5.81251">
        <ele>456</ele>
        <time>2021-05-29T11:48:04Z</time>
      </trkpt>
      <trkpt lat="45.10659" lon="5.81249">
        <ele>456</ele>
        <time>2021-05-29T11:48:05Z</time>
      </trkpt>
      <trkpt lat="45.10657" lon="5.81247">
        <ele>455.4</ele>
        <time>2021-05-29T11:48:06Z</time>
      </trkpt>
      <trkpt lat="45.10655" lon="5.81245">
        <ele>455</ele>
        <time>2021-05-29T11:48:07Z</time>
      </trkpt>
      <trkpt lat="45.1065" lon="5.8124">
        <ele>454.4</ele>
        <time>2021-05-29T11:48:08Z</time>
      </trkpt>
      <trkpt lat="45.10649" lon="5.81239">
        <ele>453.8</ele>
        <time>2021-05-29T11:48:09Z</time>
      </trkpt>
      <trkpt lat="45.10645" lon="5.81235">
        <ele>453.6</ele>
        <time>2021-05-29T11:48:10Z</time>
      </trkpt>
      <trkpt lat="45.10645" lon="5.81235">
        <ele>453.2</ele>
        <time>2021-05-29T11:48:11Z</time>
      </trkpt>
      <trkpt lat="45.10645" lon="5.81235">
        <ele>453</ele>
        <time>2021-05-29T11:48:12Z</time>
      </trkpt>
      <trkpt lat="45.10642" lon="5.81233">
        <ele>452.6</ele>
        <time>2021-05-29T11:48:13Z</time>
      </trkpt>
      <trkpt lat="45.1064" lon="5.8123">
        <ele>451.8</ele>
        <time>2021-05-29T11:48:14Z</time>
      </trkpt>
      <trkpt lat="45.10637" lon="5.81228">
        <ele>451</ele>
        <time>2021-05-29T11:48:15Z</time>
      </trkpt>
      <trkpt lat="45.10635" lon="5.81226">
        <ele>450.4</ele>
        <time>2021-05-29T11:48:16Z</time>
      </trkpt>
      <trkpt lat="45.10633" lon="5.81224">
        <ele>450.6</ele>
        <time>2021-05-29T11:48:17Z</time>
      </trkpt>
      <trkpt lat="45.10632" lon="5.81223">
        <ele>450</ele>
        <time>2021-05-29T11:48:18Z</time>
      </trkpt>
      <trkpt lat="45.1063" lon="5.81222">
        <ele>449.8</ele>
        <time>2021-05-29T11:48:19Z</time>
      </trkpt>
      <trkpt lat="45.10628" lon="5.81221">
        <ele>449</ele>
        <time>2021-05-29T11:48:20Z</time>
      </trkpt>
      <trkpt lat="45.10627" lon="5.8122">
        <ele>448</ele>
        <time>2021-05-29T11:48:21Z</time>
      </trkpt>
      <trkpt lat="45.10625" lon="5.81217">
        <ele>447.8</ele>
        <time>2021-05-29T11:48:22Z</time>
      </trkpt>
      <trkpt lat="45.10623" lon="5.81215">
        <ele>447.2</ele>
        <time>2021-05-29T11:48:23Z</time>
      </trkpt>
      <trkpt lat="45.10621" lon="5.81212">
        <ele>447.2</ele>
        <time>2021-05-29T11:48:24Z</time>
      </trkpt>
      <trkpt lat="45.10619" lon="5.8121">
        <ele>446.4</ele>
        <time>2021-05-29T11:48:25Z</time>
      </trkpt>
      <trkpt lat="45.10614" lon="5.81201">
        <ele>445.8</ele>
        <time>2021-05-29T11:48:26Z</time>
      </trkpt>
      <trkpt lat="45.10609" lon="5.81193">
        <ele>445.4</ele>
        <time>2021-05-29T11:48:27Z</time>
      </trkpt>
      <trkpt lat="45.10607" lon="5.81191">
        <ele>444.8</ele>
        <time>2021-05-29T11:48:28Z</time>
      </trkpt>
      <trkpt lat="45.10604" lon="5.81185">
        <ele>444.4</ele>
        <time>2021-05-29T11:48:29Z</time>
      </trkpt>
      <trkpt lat="45.10603" lon="5.81183">
        <ele>443.8</ele>
        <time>2021-05-29T11:48:30Z</time>
      </trkpt>
      <trkpt lat="45.10601" lon="5.8118">
        <ele>443</ele>
        <time>2021-05-29T11:48:31Z</time>
      </trkpt>
      <trkpt lat="45.10599" lon="5.81177">
        <ele>443</ele>
        <time>2021-05-29T11:48:32Z</time>
      </trkpt>
      <trkpt lat="45.10595" lon="5.8117">
        <ele>442.6</ele>
        <time>2021-05-29T11:48:33Z</time>
      </trkpt>
      <trkpt lat="45.10594" lon="5.81168">
        <ele>442.4</ele>
        <time>2021-05-29T11:48:34Z</time>
      </trkpt>
      <trkpt lat="45.1059" lon="5.81163">
        <ele>441.8</ele>
        <time>2021-05-29T11:48:35Z</time>
      </trkpt>
      <trkpt lat="45.10589" lon="5.81159">
        <ele>441</ele>
        <time>2021-05-29T11:48:36Z</time>
      </trkpt>
      <trkpt lat="45.10587" lon="5.81156">
        <ele>441</ele>
        <time>2021-05-29T11:48:37Z</time>
      </trkpt>
      <trkpt lat="45.10586" lon="5.81152">
        <ele>440.6</ele>
        <time>2021-05-29T11:48:38Z</time>
      </trkpt>
      <trkpt lat="45.10584" lon="5.81148">
        <ele>440</ele>
        <time>2021-05-29T11:48:39Z</time>
      </trkpt>
      <trkpt lat="45.10582" lon="5.81144">
        <ele>439.2</ele>
        <time>2021-05-29T11:48:40Z</time>
      </trkpt>
      <trkpt lat="45.1058" lon="5.81141">
        <ele>438.4</ele>
        <time>2021-05-29T11:48:41Z</time>
      </trkpt>
      <trkpt lat="45.10578" lon="5.81138">
        <ele>438.4</ele>
        <time>2021-05-29T11:48:42Z</time>
      </trkpt>
      <trkpt lat="45.10576" lon="5.81134">
        <ele>438</ele>
        <time>2021-05-29T11:48:43Z</time>
      </trkpt>
      <trkpt lat="45.10573" lon="5.81131">
        <ele>437.4</ele>
        <time>2021-05-29T11:48:44Z</time>
      </trkpt>
      <trkpt lat="45.10573" lon="5.81131">
        <ele>437.2</ele>
        <time>2021-05-29T11:48:45Z</time>
      </trkpt>
      <trkpt lat="45.10573" lon="5.81131">
        <ele>436.6</ele>
        <time>2021-05-29T11:48:46Z</time>
      </trkpt>
      <trkpt lat="45.10572" lon="5.81128">
        <ele>436.4</ele>
        <time>2021-05-29T11:48:47Z</time>
      </trkpt>
      <trkpt lat="45.10571" lon="5.81125">
        <ele>435.8</ele>
        <time>2021-05-29T11:48:48Z</time>
      </trkpt>
      <trkpt lat="45.10569" lon="5.81122">
        <ele>435.4</ele>
        <time>2021-05-29T11:48:49Z</time>
      </trkpt>
      <trkpt lat="45.10568" lon="5.81119">
        <ele>434.8</ele>
        <time>2021-05-29T11:48:50Z</time>
      </trkpt>
      <trkpt lat="45.10562" lon="5.81109">
        <ele>434</ele>
        <time>2021-05-29T11:48:51Z</time>
      </trkpt>
      <trkpt lat="45.1056" lon="5.81107">
        <ele>433.8</ele>
        <time>2021-05-29T11:48:52Z</time>
      </trkpt>
      <trkpt lat="45.10559" lon="5.81104">
        <ele>433.4</ele>
        <time>2021-05-29T11:48:53Z</time>
      </trkpt>
      <trkpt lat="45.10557" lon="5.81101">
        <ele>433</ele>
        <time>2021-05-29T11:48:54Z</time>
      </trkpt>
      <trkpt lat="45.10552" lon="5.81093">
        <ele>432.2</ele>
        <time>2021-05-29T11:48:55Z</time>
      </trkpt>
      <trkpt lat="45.10549" lon="5.8109">
        <ele>431.4</ele>
        <time>2021-05-29T11:48:56Z</time>
      </trkpt>
      <trkpt lat="45.10548" lon="5.81088">
        <ele>431.2</ele>
        <time>2021-05-29T11:48:57Z</time>
      </trkpt>
      <trkpt lat="45.10547" lon="5.81086">
        <ele>430.6</ele>
        <time>2021-05-29T11:48:58Z</time>
      </trkpt>
      <trkpt lat="45.10546" lon="5.81084">
        <ele>430.2</ele>
        <time>2021-05-29T11:48:59Z</time>
      </trkpt>
      <trkpt lat="45.10542" lon="5.81078">
        <ele>429.2</ele>
        <time>2021-05-29T11:49:00Z</time>
      </trkpt>
      <trkpt lat="45.10542" lon="5.81078">
        <ele>428.4</ele>
        <time>2021-05-29T11:49:01Z</time>
      </trkpt>
      <trkpt lat="45.10541" lon="5.81076">
        <ele>427.6</ele>
        <time>2021-05-29T11:49:02Z</time>
      </trkpt>
      <trkpt lat="45.10539" lon="5.81073">
        <ele>426.8</ele>
        <time>2021-05-29T11:49:03Z</time>
      </trkpt>
      <trkpt lat="45.10537" lon="5.8107">
        <ele>425.8</ele>
        <time>2021-05-29T11:49:04Z</time>
      </trkpt>
      <trkpt lat="45.10535" lon="5.81068">
        <ele>425.6</ele>
        <time>2021-05-29T11:49:05Z</time>
      </trkpt>
      <trkpt lat="45.10533" lon="5.81067">
        <ele>425.4</ele>
        <time>2021-05-29T11:49:06Z</time>
      </trkpt>
      <trkpt lat="45.10531" lon="5.81065">
        <ele>425</ele>
        <time>2021-05-29T11:49:07Z</time>
      </trkpt>
      <trkpt lat="45.10529" lon="5.81064">
        <ele>424</ele>
        <time>2021-05-29T11:49:08Z</time>
      </trkpt>
      <trkpt lat="45.10527" lon="5.81063">
        <ele>424.2</ele>
        <time>2021-05-29T11:49:09Z</time>
      </trkpt>
      <trkpt lat="45.10525" lon="5.81062">
        <ele>423.8</ele>
        <time>2021-05-29T11:49:10Z</time>
      </trkpt>
      <trkpt lat="45.10524" lon="5.81061">
        <ele>423</ele>
        <time>2021-05-29T11:49:11Z</time>
      </trkpt>
      <trkpt lat="45.10523" lon="5.8106">
        <ele>422.8</ele>
        <time>2021-05-29T11:49:12Z</time>
      </trkpt>
      <trkpt lat="45.10521" lon="5.81059">
        <ele>422.4</ele>
        <time>2021-05-29T11:49:13Z</time>
      </trkpt>
      <trkpt lat="45.1052" lon="5.81058">
        <ele>422</ele>
        <time>2021-05-29T11:49:14Z</time>
      </trkpt>
      <trkpt lat="45.10519" lon="5.81057">
        <ele>421.8</ele>
        <time>2021-05-29T11:49:15Z</time>
      </trkpt>
      <trkpt lat="45.10517" lon="5.81056">
        <ele>421.6</ele>
        <time>2021-05-29T11:49:16Z</time>
      </trkpt>
      <trkpt lat="45.10516" lon="5.81053">
        <ele>421.2</ele>
        <time>2021-05-29T11:49:17Z</time>
      </trkpt>
      <trkpt lat="45.10516" lon="5.81051">
        <ele>420.8</ele>
        <time>2021-05-29T11:49:18Z</time>
      </trkpt>
      <trkpt lat="45.10515" lon="5.81049">
        <ele>420.4</ele>
        <time>2021-05-29T11:49:19Z</time>
      </trkpt>
      <trkpt lat="45.10514" lon="5.81046">
        <ele>420.2</ele>
        <time>2021-05-29T11:49:20Z</time>
      </trkpt>
      <trkpt lat="45.10513" lon="5.81044">
        <ele>419.4</ele>
        <time>2021-05-29T11:49:21Z</time>
      </trkpt>
      <trkpt lat="45.10512" lon="5.81042">
        <ele>418.6</ele>
        <time>2021-05-29T11:49:22Z</time>
      </trkpt>
      <trkpt lat="45.10511" lon="5.8104">
        <ele>417.4</ele>
        <time>2021-05-29T11:49:23Z</time>
      </trkpt>
      <trkpt lat="45.10509" lon="5.81037">
        <ele>417.2</ele>
        <time>2021-05-29T11:49:24Z</time>
      </trkpt>
      <trkpt lat="45.10508" lon="5.81035">
        <ele>416.6</ele>
        <time>2021-05-29T11:49:25Z</time>
      </trkpt>
      <trkpt lat="45.10506" lon="5.81033">
        <ele>416.2</ele>
        <time>2021-05-29T11:49:26Z</time>
      </trkpt>
      <trkpt lat="45.10505" lon="5.81031">
        <ele>415.2</ele>
        <time>2021-05-29T11:49:27Z</time>
      </trkpt>
      <trkpt lat="45.10502" lon="5.81029">
        <ele>414.4</ele>
        <time>2021-05-29T11:49:28Z</time>
      </trkpt>
      <trkpt lat="45.105" lon="5.81028">
        <ele>414.4</ele>
        <time>2021-05-29T11:49:29Z</time>
      </trkpt>
      <trkpt lat="45.10497" lon="5.81026">
        <ele>414</ele>
        <time>2021-05-29T11:49:30Z</time>
      </trkpt>
      <trkpt lat="45.10495" lon="5.81024">
        <ele>413.6</ele>
        <time>2021-05-29T11:49:31Z</time>
      </trkpt>
      <trkpt lat="45.1049" lon="5.81021">
        <ele>412.8</ele>
        <time>2021-05-29T11:49:32Z</time>
      </trkpt>
      <trkpt lat="45.10486" lon="5.81018">
        <ele>412</ele>
        <time>2021-05-29T11:49:33Z</time>
      </trkpt>
      <trkpt lat="45.10483" lon="5.81015">
        <ele>411.2</ele>
        <time>2021-05-29T11:49:35Z</time>
      </trkpt>
      <trkpt lat="45.10481" lon="5.81012">
        <ele>411.2</ele>
        <time>2021-05-29T11:49:36Z</time>
      </trkpt>
      <trkpt lat="45.10475" lon="5.81006">
        <ele>410.4</ele>
        <time>2021-05-29T11:49:37Z</time>
      </trkpt>
      <trkpt lat="45.10474" lon="5.81004">
        <ele>409.6</ele>
        <time>2021-05-29T11:49:38Z</time>
      </trkpt>
      <trkpt lat="45.1047" lon="5.80999">
        <ele>409.4</ele>
        <time>2021-05-29T11:49:39Z</time>
      </trkpt>
      <trkpt lat="45.1047" lon="5.80997">
        <ele>409</ele>
        <time>2021-05-29T11:49:40Z</time>
      </trkpt>
      <trkpt lat="45.1047" lon="5.80995">
        <ele>408.8</ele>
        <time>2021-05-29T11:49:41Z</time>
      </trkpt>
      <trkpt lat="45.1047" lon="5.80993">
        <ele>408.2</ele>
        <time>2021-05-29T11:49:42Z</time>
      </trkpt>
      <trkpt lat="45.1047" lon="5.80988">
        <ele>407.4</ele>
        <time>2021-05-29T11:49:43Z</time>
      </trkpt>
      <trkpt lat="45.10469" lon="5.80982">
        <ele>406.2</ele>
        <time>2021-05-29T11:49:44Z</time>
      </trkpt>
      <trkpt lat="45.10469" lon="5.80977">
        <ele>405.2</ele>
        <time>2021-05-29T11:49:45Z</time>
      </trkpt>
      <trkpt lat="45.1047" lon="5.80971">
        <ele>405.2</ele>
        <time>2021-05-29T11:49:46Z</time>
      </trkpt>
      <trkpt lat="45.1047" lon="5.80971">
        <ele>405.2</ele>
        <time>2021-05-29T11:49:47Z</time>
      </trkpt>
      <trkpt lat="45.1047" lon="5.80971">
        <ele>405.2</ele>
        <time>2021-05-29T11:49:48Z</time>
      </trkpt>
      <trkpt lat="45.1047" lon="5.80969">
        <ele>405.4</ele>
        <time>2021-05-29T11:49:49Z</time>
      </trkpt>
      <trkpt lat="45.1047" lon="5.80967">
        <ele>405.4</ele>
        <time>2021-05-29T11:49:50Z</time>
      </trkpt>
      <trkpt lat="45.1047" lon="5.80965">
        <ele>405.2</ele>
        <time>2021-05-29T11:49:51Z</time>
      </trkpt>
      <trkpt lat="45.1047" lon="5.80963">
        <ele>405.2</ele>
        <time>2021-05-29T11:49:52Z</time>
      </trkpt>
      <trkpt lat="45.1047" lon="5.80961">
        <ele>404.4</ele>
        <time>2021-05-29T11:49:53Z</time>
      </trkpt>
      <trkpt lat="45.1047" lon="5.80959">
        <ele>404</ele>
        <time>2021-05-29T11:49:54Z</time>
      </trkpt>
      <trkpt lat="45.1047" lon="5.80957">
        <ele>403.6</ele>
        <time>2021-05-29T11:49:55Z</time>
      </trkpt>
      <trkpt lat="45.1047" lon="5.80955">
        <ele>403.2</ele>
        <time>2021-05-29T11:49:56Z</time>
      </trkpt>
      <trkpt lat="45.1047" lon="5.80953">
        <ele>402.6</ele>
        <time>2021-05-29T11:49:57Z</time>
      </trkpt>
      <trkpt lat="45.1047" lon="5.80951">
        <ele>402.2</ele>
        <time>2021-05-29T11:49:58Z</time>
      </trkpt>
      <trkpt lat="45.10468" lon="5.80943">
        <ele>401.8</ele>
        <time>2021-05-29T11:50:00Z</time>
      </trkpt>
      <trkpt lat="45.10468" lon="5.80943">
        <ele>401</ele>
        <time>2021-05-29T11:50:01Z</time>
      </trkpt>
      <trkpt lat="45.10468" lon="5.80943">
        <ele>400.8</ele>
        <time>2021-05-29T11:50:02Z</time>
      </trkpt>
      <trkpt lat="45.10467" lon="5.80941">
        <ele>400.4</ele>
        <time>2021-05-29T11:50:03Z</time>
      </trkpt>
      <trkpt lat="45.10466" lon="5.80939">
        <ele>400.6</ele>
        <time>2021-05-29T11:50:04Z</time>
      </trkpt>
      <trkpt lat="45.10465" lon="5.80937">
        <ele>400</ele>
        <time>2021-05-29T11:50:05Z</time>
      </trkpt>
      <trkpt lat="45.10464" lon="5.80935">
        <ele>400</ele>
        <time>2021-05-29T11:50:06Z</time>
      </trkpt>
      <trkpt lat="45.10463" lon="5.80933">
        <ele>399.2</ele>
        <time>2021-05-29T11:50:07Z</time>
      </trkpt>
      <trkpt lat="45.10462" lon="5.80932">
        <ele>399</ele>
        <time>2021-05-29T11:50:08Z</time>
      </trkpt>
      <trkpt lat="45.10461" lon="5.80929">
        <ele>398.4</ele>
        <time>2021-05-29T11:50:09Z</time>
      </trkpt>
      <trkpt lat="45.1046" lon="5.80927">
        <ele>397.8</ele>
        <time>2021-05-29T11:50:10Z</time>
      </trkpt>
      <trkpt lat="45.1046" lon="5.80925">
        <ele>396.8</ele>
        <time>2021-05-29T11:50:11Z</time>
      </trkpt>
      <trkpt lat="45.10459" lon="5.80922">
        <ele>396.2</ele>
        <time>2021-05-29T11:50:12Z</time>
      </trkpt>
      <trkpt lat="45.10458" lon="5.8092">
        <ele>396.2</ele>
        <time>2021-05-29T11:50:13Z</time>
      </trkpt>
      <trkpt lat="45.10457" lon="5.80918">
        <ele>395.8</ele>
        <time>2021-05-29T11:50:14Z</time>
      </trkpt>
      <trkpt lat="45.10456" lon="5.80915">
        <ele>395.8</ele>
        <time>2021-05-29T11:50:15Z</time>
      </trkpt>
      <trkpt lat="45.10454" lon="5.80912">
        <ele>395.4</ele>
        <time>2021-05-29T11:50:16Z</time>
      </trkpt>
      <trkpt lat="45.10452" lon="5.80909">
        <ele>394.8</ele>
        <time>2021-05-29T11:50:17Z</time>
      </trkpt>
      <trkpt lat="45.1045" lon="5.80906">
        <ele>393.8</ele>
        <time>2021-05-29T11:50:18Z</time>
      </trkpt>
      <trkpt lat="45.10449" lon="5.80903">
        <ele>393.8</ele>
        <time>2021-05-29T11:50:19Z</time>
      </trkpt>
      <trkpt lat="45.10448" lon="5.80899">
        <ele>393.4</ele>
        <time>2021-05-29T11:50:20Z</time>
      </trkpt>
      <trkpt lat="45.10446" lon="5.80896">
        <ele>393</ele>
        <time>2021-05-29T11:50:21Z</time>
      </trkpt>
      <trkpt lat="45.10445" lon="5.80893">
        <ele>393</ele>
        <time>2021-05-29T11:50:22Z</time>
      </trkpt>
      <trkpt lat="45.10443" lon="5.80888">
        <ele>392.2</ele>
        <time>2021-05-29T11:50:23Z</time>
      </trkpt>
      <trkpt lat="45.10441" lon="5.80883">
        <ele>391.6</ele>
        <time>2021-05-29T11:50:24Z</time>
      </trkpt>
      <trkpt lat="45.10439" lon="5.80879">
        <ele>391.4</ele>
        <time>2021-05-29T11:50:25Z</time>
      </trkpt>
      <trkpt lat="45.10437" lon="5.80874">
        <ele>391.2</ele>
        <time>2021-05-29T11:50:26Z</time>
      </trkpt>
      <trkpt lat="45.10433" lon="5.80869">
        <ele>391</ele>
        <time>2021-05-29T11:50:27Z</time>
      </trkpt>
      <trkpt lat="45.10433" lon="5.80869">
        <ele>390.2</ele>
        <time>2021-05-29T11:50:28Z</time>
      </trkpt>
      <trkpt lat="45.10433" lon="5.80869">
        <ele>390</ele>
        <time>2021-05-29T11:50:29Z</time>
      </trkpt>
      <trkpt lat="45.10433" lon="5.80866">
        <ele>389.6</ele>
        <time>2021-05-29T11:50:30Z</time>
      </trkpt>
      <trkpt lat="45.10432" lon="5.80862">
        <ele>389.2</ele>
        <time>2021-05-29T11:50:31Z</time>
      </trkpt>
      <trkpt lat="45.10431" lon="5.80859">
        <ele>388.8</ele>
        <time>2021-05-29T11:50:32Z</time>
      </trkpt>
      <trkpt lat="45.1043" lon="5.80855">
        <ele>388.2</ele>
        <time>2021-05-29T11:50:33Z</time>
      </trkpt>
      <trkpt lat="45.10429" lon="5.80852">
        <ele>387.8</ele>
        <time>2021-05-29T11:50:34Z</time>
      </trkpt>
      <trkpt lat="45.10428" lon="5.80848">
        <ele>387.4</ele>
        <time>2021-05-29T11:50:35Z</time>
      </trkpt>
      <trkpt lat="45.10429" lon="5.80846">
        <ele>387</ele>
        <time>2021-05-29T11:50:36Z</time>
      </trkpt>
      <trkpt lat="45.1043" lon="5.80844">
        <ele>386.8</ele>
        <time>2021-05-29T11:50:37Z</time>
      </trkpt>
      <trkpt lat="45.10431" lon="5.80843">
        <ele>386</ele>
        <time>2021-05-29T11:50:38Z</time>
      </trkpt>
      <trkpt lat="45.10432" lon="5.80841">
        <ele>386</ele>
        <time>2021-05-29T11:50:39Z</time>
      </trkpt>
      <trkpt lat="45.10433" lon="5.80839">
        <ele>385.4</ele>
        <time>2021-05-29T11:50:40Z</time>
      </trkpt>
      <trkpt lat="45.10433" lon="5.80837">
        <ele>385.2</ele>
        <time>2021-05-29T11:50:41Z</time>
      </trkpt>
      <trkpt lat="45.10435" lon="5.80835">
        <ele>384.4</ele>
        <time>2021-05-29T11:50:43Z</time>
      </trkpt>
      <trkpt lat="45.10436" lon="5.80832">
        <ele>384.2</ele>
        <time>2021-05-29T11:50:44Z</time>
      </trkpt>
      <trkpt lat="45.10437" lon="5.8083">
        <ele>383.6</ele>
        <time>2021-05-29T11:50:45Z</time>
      </trkpt>
      <trkpt lat="45.10438" lon="5.80828">
        <ele>383.4</ele>
        <time>2021-05-29T11:50:46Z</time>
      </trkpt>
      <trkpt lat="45.1044" lon="5.80826">
        <ele>383</ele>
        <time>2021-05-29T11:50:47Z</time>
      </trkpt>
      <trkpt lat="45.10441" lon="5.80824">
        <ele>382.6</ele>
        <time>2021-05-29T11:50:48Z</time>
      </trkpt>
      <trkpt lat="45.10443" lon="5.80822">
        <ele>382</ele>
        <time>2021-05-29T11:50:49Z</time>
      </trkpt>
      <trkpt lat="45.10445" lon="5.8082">
        <ele>381.6</ele>
        <time>2021-05-29T11:50:50Z</time>
      </trkpt>
      <trkpt lat="45.10447" lon="5.80818">
        <ele>381.2</ele>
        <time>2021-05-29T11:50:51Z</time>
      </trkpt>
      <trkpt lat="45.10449" lon="5.80816">
        <ele>380.8</ele>
        <time>2021-05-29T11:50:52Z</time>
      </trkpt>
      <trkpt lat="45.10451" lon="5.80814">
        <ele>380.2</ele>
        <time>2021-05-29T11:50:53Z</time>
      </trkpt>
      <trkpt lat="45.10454" lon="5.80812">
        <ele>380</ele>
        <time>2021-05-29T11:50:54Z</time>
      </trkpt>
      <trkpt lat="45.10456" lon="5.80811">
        <ele>380</ele>
        <time>2021-05-29T11:50:55Z</time>
      </trkpt>
      <trkpt lat="45.10458" lon="5.80809">
        <ele>380</ele>
        <time>2021-05-29T11:50:56Z</time>
      </trkpt>
      <trkpt lat="45.10461" lon="5.80808">
        <ele>380</ele>
        <time>2021-05-29T11:50:57Z</time>
      </trkpt>
      <trkpt lat="45.10463" lon="5.80807">
        <ele>379.6</ele>
        <time>2021-05-29T11:50:58Z</time>
      </trkpt>
      <trkpt lat="45.10466" lon="5.80805">
        <ele>379.8</ele>
        <time>2021-05-29T11:50:59Z</time>
      </trkpt>
      <trkpt lat="45.10469" lon="5.80803">
        <ele>379.8</ele>
        <time>2021-05-29T11:51:00Z</time>
      </trkpt>
      <trkpt lat="45.10473" lon="5.80801">
        <ele>379.6</ele>
        <time>2021-05-29T11:51:01Z</time>
      </trkpt>
      <trkpt lat="45.10477" lon="5.80799">
        <ele>379.4</ele>
        <time>2021-05-29T11:51:02Z</time>
      </trkpt>
      <trkpt lat="45.10481" lon="5.80797">
        <ele>379.4</ele>
        <time>2021-05-29T11:51:03Z</time>
      </trkpt>
      <trkpt lat="45.10485" lon="5.80795">
        <ele>379.2</ele>
        <time>2021-05-29T11:51:04Z</time>
      </trkpt>
      <trkpt lat="45.10485" lon="5.80795">
        <ele>379.2</ele>
        <time>2021-05-29T11:51:05Z</time>
      </trkpt>
      <trkpt lat="45.10485" lon="5.80795">
        <ele>378.8</ele>
        <time>2021-05-29T11:51:06Z</time>
      </trkpt>
      <trkpt lat="45.10485" lon="5.80795">
        <ele>378.8</ele>
        <time>2021-05-29T11:51:07Z</time>
      </trkpt>
      <trkpt lat="45.10488" lon="5.80793">
        <ele>378.2</ele>
        <time>2021-05-29T11:51:08Z</time>
      </trkpt>
      <trkpt lat="45.1049" lon="5.8079">
        <ele>378</ele>
        <time>2021-05-29T11:51:09Z</time>
      </trkpt>
      <trkpt lat="45.10492" lon="5.80788">
        <ele>377.6</ele>
        <time>2021-05-29T11:51:10Z</time>
      </trkpt>
      <trkpt lat="45.10494" lon="5.80786">
        <ele>377.2</ele>
        <time>2021-05-29T11:51:11Z</time>
      </trkpt>
      <trkpt lat="45.10495" lon="5.80782">
        <ele>377.2</ele>
        <time>2021-05-29T11:51:12Z</time>
      </trkpt>
      <trkpt lat="45.10497" lon="5.80778">
        <ele>377</ele>
        <time>2021-05-29T11:51:13Z</time>
      </trkpt>
      <trkpt lat="45.10498" lon="5.80774">
        <ele>377</ele>
        <time>2021-05-29T11:51:14Z</time>
      </trkpt>
      <trkpt lat="45.105" lon="5.8077">
        <ele>376.6</ele>
        <time>2021-05-29T11:51:15Z</time>
      </trkpt>
      <trkpt lat="45.10501" lon="5.80766">
        <ele>376</ele>
        <time>2021-05-29T11:51:16Z</time>
      </trkpt>
      <trkpt lat="45.10503" lon="5.80759">
        <ele>375.4</ele>
        <time>2021-05-29T11:51:17Z</time>
      </trkpt>
      <trkpt lat="45.10503" lon="5.80759">
        <ele>375</ele>
        <time>2021-05-29T11:51:18Z</time>
      </trkpt>
      <trkpt lat="45.10504" lon="5.80756">
        <ele>374.4</ele>
        <time>2021-05-29T11:51:19Z</time>
      </trkpt>
      <trkpt lat="45.10506" lon="5.8075">
        <ele>373.4</ele>
        <time>2021-05-29T11:51:20Z</time>
      </trkpt>
      <trkpt lat="45.10506" lon="5.8075">
        <ele>373.4</ele>
        <time>2021-05-29T11:51:21Z</time>
      </trkpt>
      <trkpt lat="45.10507" lon="5.80747">
        <ele>373</ele>
        <time>2021-05-29T11:51:22Z</time>
      </trkpt>
      <trkpt lat="45.10507" lon="5.80747">
        <ele>372.8</ele>
        <time>2021-05-29T11:51:23Z</time>
      </trkpt>
      <trkpt lat="45.10507" lon="5.80747">
        <ele>372.4</ele>
        <time>2021-05-29T11:51:24Z</time>
      </trkpt>
      <trkpt lat="45.1051" lon="5.80743">
        <ele>372</ele>
        <time>2021-05-29T11:51:25Z</time>
      </trkpt>
      <trkpt lat="45.10512" lon="5.8074">
        <ele>371.4</ele>
        <time>2021-05-29T11:51:26Z</time>
      </trkpt>
      <trkpt lat="45.10514" lon="5.80736">
        <ele>370.8</ele>
        <time>2021-05-29T11:51:27Z</time>
      </trkpt>
      <trkpt lat="45.10516" lon="5.80732">
        <ele>370.8</ele>
        <time>2021-05-29T11:51:28Z</time>
      </trkpt>
      <trkpt lat="45.10518" lon="5.80729">
        <ele>370.4</ele>
        <time>2021-05-29T11:51:29Z</time>
      </trkpt>
      <trkpt lat="45.10519" lon="5.80726">
        <ele>370.2</ele>
        <time>2021-05-29T11:51:30Z</time>
      </trkpt>
      <trkpt lat="45.10522" lon="5.80719">
        <ele>369.8</ele>
        <time>2021-05-29T11:51:31Z</time>
      </trkpt>
      <trkpt lat="45.10522" lon="5.80719">
        <ele>369.6</ele>
        <time>2021-05-29T11:51:32Z</time>
      </trkpt>
      <trkpt lat="45.10524" lon="5.80715">
        <ele>369</ele>
        <time>2021-05-29T11:51:33Z</time>
      </trkpt>
      <trkpt lat="45.10526" lon="5.80712">
        <ele>369</ele>
        <time>2021-05-29T11:51:34Z</time>
      </trkpt>
      <trkpt lat="45.10528" lon="5.80708">
        <ele>368.4</ele>
        <time>2021-05-29T11:51:35Z</time>
      </trkpt>
      <trkpt lat="45.1053" lon="5.80705">
        <ele>368</ele>
        <time>2021-05-29T11:51:36Z</time>
      </trkpt>
      <trkpt lat="45.10531" lon="5.80701">
        <ele>367.4</ele>
        <time>2021-05-29T11:51:37Z</time>
      </trkpt>
      <trkpt lat="45.10533" lon="5.80698">
        <ele>367.2</ele>
        <time>2021-05-29T11:51:38Z</time>
      </trkpt>
      <trkpt lat="45.10535" lon="5.80695">
        <ele>366.6</ele>
        <time>2021-05-29T11:51:39Z</time>
      </trkpt>
      <trkpt lat="45.10537" lon="5.80692">
        <ele>366.4</ele>
        <time>2021-05-29T11:51:40Z</time>
      </trkpt>
      <trkpt lat="45.10541" lon="5.80685">
        <ele>365.8</ele>
        <time>2021-05-29T11:51:41Z</time>
      </trkpt>
      <trkpt lat="45.10541" lon="5.80685">
        <ele>365.2</ele>
        <time>2021-05-29T11:51:42Z</time>
      </trkpt>
      <trkpt lat="45.10542" lon="5.80681">
        <ele>364.8</ele>
        <time>2021-05-29T11:51:43Z</time>
      </trkpt>
      <trkpt lat="45.10544" lon="5.80674">
        <ele>364</ele>
        <time>2021-05-29T11:51:44Z</time>
      </trkpt>
      <trkpt lat="45.10544" lon="5.80674">
        <ele>364.2</ele>
        <time>2021-05-29T11:51:45Z</time>
      </trkpt>
      <trkpt lat="45.10545" lon="5.8067">
        <ele>364</ele>
        <time>2021-05-29T11:51:46Z</time>
      </trkpt>
      <trkpt lat="45.10545" lon="5.80662">
        <ele>364</ele>
        <time>2021-05-29T11:51:47Z</time>
      </trkpt>
      <trkpt lat="45.10545" lon="5.80662">
        <ele>363.4</ele>
        <time>2021-05-29T11:51:48Z</time>
      </trkpt>
      <trkpt lat="45.10545" lon="5.80657">
        <ele>363.4</ele>
        <time>2021-05-29T11:51:49Z</time>
      </trkpt>
      <trkpt lat="45.10545" lon="5.80654">
        <ele>362.8</ele>
        <time>2021-05-29T11:51:50Z</time>
      </trkpt>
      <trkpt lat="45.10545" lon="5.8065">
        <ele>362.8</ele>
        <time>2021-05-29T11:51:51Z</time>
      </trkpt>
      <trkpt lat="45.10543" lon="5.80643">
        <ele>362.2</ele>
        <time>2021-05-29T11:51:52Z</time>
      </trkpt>
      <trkpt lat="45.10542" lon="5.80639">
        <ele>362</ele>
        <time>2021-05-29T11:51:53Z</time>
      </trkpt>
      <trkpt lat="45.10541" lon="5.80636">
        <ele>361.6</ele>
        <time>2021-05-29T11:51:54Z</time>
      </trkpt>
      <trkpt lat="45.10541" lon="5.80636">
        <ele>360.8</ele>
        <time>2021-05-29T11:51:55Z</time>
      </trkpt>
      <trkpt lat="45.10541" lon="5.80632">
        <ele>361</ele>
        <time>2021-05-29T11:51:56Z</time>
      </trkpt>
      <trkpt lat="45.1054" lon="5.80624">
        <ele>360.8</ele>
        <time>2021-05-29T11:51:57Z</time>
      </trkpt>
      <trkpt lat="45.1054" lon="5.80624">
        <ele>361</ele>
        <time>2021-05-29T11:51:58Z</time>
      </trkpt>
      <trkpt lat="45.1054" lon="5.80621">
        <ele>360.6</ele>
        <time>2021-05-29T11:51:59Z</time>
      </trkpt>
      <trkpt lat="45.10541" lon="5.80617">
        <ele>360.4</ele>
        <time>2021-05-29T11:52:00Z</time>
      </trkpt>
      <trkpt lat="45.10541" lon="5.8061">
        <ele>360.2</ele>
        <time>2021-05-29T11:52:01Z</time>
      </trkpt>
      <trkpt lat="45.10541" lon="5.8061">
        <ele>359.8</ele>
        <time>2021-05-29T11:52:02Z</time>
      </trkpt>
      <trkpt lat="45.10542" lon="5.80607">
        <ele>359.2</ele>
        <time>2021-05-29T11:52:03Z</time>
      </trkpt>
      <trkpt lat="45.10543" lon="5.80601">
        <ele>358.6</ele>
        <time>2021-05-29T11:52:04Z</time>
      </trkpt>
      <trkpt lat="45.10543" lon="5.80601">
        <ele>358.6</ele>
        <time>2021-05-29T11:52:05Z</time>
      </trkpt>
      <trkpt lat="45.10543" lon="5.80598">
        <ele>358.2</ele>
        <time>2021-05-29T11:52:06Z</time>
      </trkpt>
      <trkpt lat="45.10543" lon="5.80596">
        <ele>358.4</ele>
        <time>2021-05-29T11:52:07Z</time>
      </trkpt>
      <trkpt lat="45.10539" lon="5.80594">
        <ele>358</ele>
        <time>2021-05-29T11:52:08Z</time>
      </trkpt>
      <trkpt lat="45.10539" lon="5.80594">
        <ele>358</ele>
        <time>2021-05-29T11:52:09Z</time>
      </trkpt>
      <trkpt lat="45.10537" lon="5.80592">
        <ele>357.8</ele>
        <time>2021-05-29T11:52:10Z</time>
      </trkpt>
      <trkpt lat="45.10535" lon="5.80591">
        <ele>357.8</ele>
        <time>2021-05-29T11:52:11Z</time>
      </trkpt>
      <trkpt lat="45.10529" lon="5.80588">
        <ele>357.4</ele>
        <time>2021-05-29T11:52:12Z</time>
      </trkpt>
      <trkpt lat="45.10529" lon="5.80588">
        <ele>357.4</ele>
        <time>2021-05-29T11:52:13Z</time>
      </trkpt>
      <trkpt lat="45.10527" lon="5.80587">
        <ele>357</ele>
        <time>2021-05-29T11:52:14Z</time>
      </trkpt>
      <trkpt lat="45.10525" lon="5.80587">
        <ele>357</ele>
        <time>2021-05-29T11:52:15Z</time>
      </trkpt>
      <trkpt lat="45.10523" lon="5.80586">
        <ele>356.6</ele>
        <time>2021-05-29T11:52:16Z</time>
      </trkpt>
      <trkpt lat="45.10519" lon="5.80584">
        <ele>356.6</ele>
        <time>2021-05-29T11:52:17Z</time>
      </trkpt>
      <trkpt lat="45.10519" lon="5.80584">
        <ele>356.2</ele>
        <time>2021-05-29T11:52:18Z</time>
      </trkpt>
      <trkpt lat="45.10517" lon="5.80583">
        <ele>356.2</ele>
        <time>2021-05-29T11:52:19Z</time>
      </trkpt>
      <trkpt lat="45.10512" lon="5.8058">
        <ele>355.8</ele>
        <time>2021-05-29T11:52:20Z</time>
      </trkpt>
      <trkpt lat="45.10511" lon="5.80578">
        <ele>355.8</ele>
        <time>2021-05-29T11:52:21Z</time>
      </trkpt>
      <trkpt lat="45.1051" lon="5.80576">
        <ele>355.6</ele>
        <time>2021-05-29T11:52:22Z</time>
      </trkpt>
      <trkpt lat="45.10509" lon="5.80575">
        <ele>355.4</ele>
        <time>2021-05-29T11:52:23Z</time>
      </trkpt>
      <trkpt lat="45.10508" lon="5.80573">
        <ele>355</ele>
        <time>2021-05-29T11:52:24Z</time>
      </trkpt>
      <trkpt lat="45.10504" lon="5.80565">
        <ele>355</ele>
        <time>2021-05-29T11:52:25Z</time>
      </trkpt>
      <trkpt lat="45.10502" lon="5.80564">
        <ele>354.8</ele>
        <time>2021-05-29T11:52:26Z</time>
      </trkpt>
      <trkpt lat="45.105" lon="5.80562">
        <ele>354.8</ele>
        <time>2021-05-29T11:52:27Z</time>
      </trkpt>
      <trkpt lat="45.10499" lon="5.80561">
        <ele>354.6</ele>
        <time>2021-05-29T11:52:28Z</time>
      </trkpt>
      <trkpt lat="45.10497" lon="5.8056">
        <ele>354.8</ele>
        <time>2021-05-29T11:52:29Z</time>
      </trkpt>
      <trkpt lat="45.10496" lon="5.80559">
        <ele>354.4</ele>
        <time>2021-05-29T11:52:30Z</time>
      </trkpt>
      <trkpt lat="45.10496" lon="5.80559">
        <ele>354.4</ele>
        <time>2021-05-29T11:52:31Z</time>
      </trkpt>
      <trkpt lat="45.10496" lon="5.80559">
        <ele>354</ele>
        <time>2021-05-29T11:52:32Z</time>
      </trkpt>
      <trkpt lat="45.10493" lon="5.80558">
        <ele>353.8</ele>
        <time>2021-05-29T11:52:33Z</time>
      </trkpt>
      <trkpt lat="45.10491" lon="5.80557">
        <ele>353.4</ele>
        <time>2021-05-29T11:52:34Z</time>
      </trkpt>
      <trkpt lat="45.10489" lon="5.80555">
        <ele>353.4</ele>
        <time>2021-05-29T11:52:35Z</time>
      </trkpt>
      <trkpt lat="45.10487" lon="5.80554">
        <ele>353</ele>
        <time>2021-05-29T11:52:36Z</time>
      </trkpt>
      <trkpt lat="45.10483" lon="5.80552">
        <ele>352.6</ele>
        <time>2021-05-29T11:52:37Z</time>
      </trkpt>
      <trkpt lat="45.10479" lon="5.8055">
        <ele>352.4</ele>
        <time>2021-05-29T11:52:38Z</time>
      </trkpt>
      <trkpt lat="45.10475" lon="5.80548">
        <ele>352.2</ele>
        <time>2021-05-29T11:52:39Z</time>
      </trkpt>
      <trkpt lat="45.10471" lon="5.80546">
        <ele>352.2</ele>
        <time>2021-05-29T11:52:40Z</time>
      </trkpt>
      <trkpt lat="45.10469" lon="5.80544">
        <ele>352.4</ele>
        <time>2021-05-29T11:52:41Z</time>
      </trkpt>
      <trkpt lat="45.10465" lon="5.80543">
        <ele>352.4</ele>
        <time>2021-05-29T11:52:42Z</time>
      </trkpt>
      <trkpt lat="45.10463" lon="5.80541">
        <ele>352.4</ele>
        <time>2021-05-29T11:52:43Z</time>
      </trkpt>
      <trkpt lat="45.10462" lon="5.8054">
        <ele>352.2</ele>
        <time>2021-05-29T11:52:44Z</time>
      </trkpt>
      <trkpt lat="45.10461" lon="5.8054">
        <ele>352.2</ele>
        <time>2021-05-29T11:52:45Z</time>
      </trkpt>
      <trkpt lat="45.10461" lon="5.80539">
        <ele>352</ele>
        <time>2021-05-29T11:52:46Z</time>
      </trkpt>
      <trkpt lat="45.10457" lon="5.80536">
        <ele>352</ele>
        <time>2021-05-29T11:52:47Z</time>
      </trkpt>
      <trkpt lat="45.10454" lon="5.80534">
        <ele>351.8</ele>
        <time>2021-05-29T11:52:48Z</time>
      </trkpt>
      <trkpt lat="45.10451" lon="5.80531">
        <ele>351.8</ele>
        <time>2021-05-29T11:52:49Z</time>
      </trkpt>
      <trkpt lat="45.10449" lon="5.80529">
        <ele>352.2</ele>
        <time>2021-05-29T11:52:50Z</time>
      </trkpt>
      <trkpt lat="45.10448" lon="5.80528">
        <ele>351.8</ele>
        <time>2021-05-29T11:52:51Z</time>
      </trkpt>
      <trkpt lat="45.10447" lon="5.80527">
        <ele>352.2</ele>
        <time>2021-05-29T11:52:52Z</time>
      </trkpt>
      <trkpt lat="45.10446" lon="5.80526">
        <ele>352.2</ele>
        <time>2021-05-29T11:52:53Z</time>
      </trkpt>
      <trkpt lat="45.10443" lon="5.80523">
        <ele>352.6</ele>
        <time>2021-05-29T11:52:54Z</time>
      </trkpt>
      <trkpt lat="45.10439" lon="5.8052">
        <ele>352.4</ele>
        <time>2021-05-29T11:52:55Z</time>
      </trkpt>
      <trkpt lat="45.10436" lon="5.80517">
        <ele>352.6</ele>
        <time>2021-05-29T11:52:56Z</time>
      </trkpt>
      <trkpt lat="45.10435" lon="5.80515">
        <ele>352.4</ele>
        <time>2021-05-29T11:52:57Z</time>
      </trkpt>
      <trkpt lat="45.10433" lon="5.80513">
        <ele>352.8</ele>
        <time>2021-05-29T11:52:58Z</time>
      </trkpt>
      <trkpt lat="45.10431" lon="5.80511">
        <ele>352.6</ele>
        <time>2021-05-29T11:52:59Z</time>
      </trkpt>
      <trkpt lat="45.10429" lon="5.80508">
        <ele>352.8</ele>
        <time>2021-05-29T11:53:00Z</time>
      </trkpt>
      <trkpt lat="45.10426" lon="5.80506">
        <ele>352.6</ele>
        <time>2021-05-29T11:53:01Z</time>
      </trkpt>
      <trkpt lat="45.10424" lon="5.80503">
        <ele>352.8</ele>
        <time>2021-05-29T11:53:02Z</time>
      </trkpt>
      <trkpt lat="45.10423" lon="5.80502">
        <ele>352.6</ele>
        <time>2021-05-29T11:53:03Z</time>
      </trkpt>
      <trkpt lat="45.10421" lon="5.805">
        <ele>352.6</ele>
        <time>2021-05-29T11:53:04Z</time>
      </trkpt>
      <trkpt lat="45.10419" lon="5.80497">
        <ele>352.4</ele>
        <time>2021-05-29T11:53:05Z</time>
      </trkpt>
      <trkpt lat="45.10419" lon="5.80497">
        <ele>352.8</ele>
        <time>2021-05-29T11:53:06Z</time>
      </trkpt>
      <trkpt lat="45.10419" lon="5.80497">
        <ele>352.6</ele>
        <time>2021-05-29T11:53:07Z</time>
      </trkpt>
      <trkpt lat="45.10417" lon="5.80494">
        <ele>352.8</ele>
        <time>2021-05-29T11:53:08Z</time>
      </trkpt>
      <trkpt lat="45.10414" lon="5.80491">
        <ele>352.6</ele>
        <time>2021-05-29T11:53:09Z</time>
      </trkpt>
      <trkpt lat="45.10411" lon="5.80488">
        <ele>352.8</ele>
        <time>2021-05-29T11:53:10Z</time>
      </trkpt>
      <trkpt lat="45.10408" lon="5.80485">
        <ele>352.4</ele>
        <time>2021-05-29T11:53:11Z</time>
      </trkpt>
      <trkpt lat="45.10405" lon="5.80481">
        <ele>352.6</ele>
        <time>2021-05-29T11:53:12Z</time>
      </trkpt>
      <trkpt lat="45.10402" lon="5.80478">
        <ele>352.4</ele>
        <time>2021-05-29T11:53:13Z</time>
      </trkpt>
      <trkpt lat="45.104" lon="5.80475">
        <ele>352.6</ele>
        <time>2021-05-29T11:53:14Z</time>
      </trkpt>
      <trkpt lat="45.104" lon="5.80475">
        <ele>352.4</ele>
        <time>2021-05-29T11:53:15Z</time>
      </trkpt>
      <trkpt lat="45.10398" lon="5.80473">
        <ele>352.8</ele>
        <time>2021-05-29T11:53:16Z</time>
      </trkpt>
      <trkpt lat="45.10396" lon="5.8047">
        <ele>352.4</ele>
        <time>2021-05-29T11:53:17Z</time>
      </trkpt>
      <trkpt lat="45.10394" lon="5.80467">
        <ele>352.8</ele>
        <time>2021-05-29T11:53:18Z</time>
      </trkpt>
      <trkpt lat="45.10392" lon="5.80464">
        <ele>352.4</ele>
        <time>2021-05-29T11:53:19Z</time>
      </trkpt>
      <trkpt lat="45.10389" lon="5.80462">
        <ele>352.6</ele>
        <time>2021-05-29T11:53:20Z</time>
      </trkpt>
      <trkpt lat="45.10387" lon="5.8046">
        <ele>352.2</ele>
        <time>2021-05-29T11:53:21Z</time>
      </trkpt>
      <trkpt lat="45.10386" lon="5.80458">
        <ele>352.2</ele>
        <time>2021-05-29T11:53:22Z</time>
      </trkpt>
      <trkpt lat="45.10384" lon="5.80457">
        <ele>352</ele>
        <time>2021-05-29T11:53:23Z</time>
      </trkpt>
      <trkpt lat="45.10379" lon="5.80451">
        <ele>352.2</ele>
        <time>2021-05-29T11:53:24Z</time>
      </trkpt>
      <trkpt lat="45.10376" lon="5.80448">
        <ele>351.8</ele>
        <time>2021-05-29T11:53:25Z</time>
      </trkpt>
      <trkpt lat="45.10374" lon="5.80446">
        <ele>351.8</ele>
        <time>2021-05-29T11:53:26Z</time>
      </trkpt>
      <trkpt lat="45.10372" lon="5.80444">
        <ele>351.8</ele>
        <time>2021-05-29T11:53:27Z</time>
      </trkpt>
      <trkpt lat="45.10372" lon="5.80444">
        <ele>352</ele>
        <time>2021-05-29T11:53:28Z</time>
      </trkpt>
      <trkpt lat="45.10371" lon="5.80442">
        <ele>351.6</ele>
        <time>2021-05-29T11:53:29Z</time>
      </trkpt>
      <trkpt lat="45.10368" lon="5.80439">
        <ele>351.6</ele>
        <time>2021-05-29T11:53:30Z</time>
      </trkpt>
      <trkpt lat="45.10367" lon="5.80437">
        <ele>351.2</ele>
        <time>2021-05-29T11:53:31Z</time>
      </trkpt>
      <trkpt lat="45.10363" lon="5.80432">
        <ele>351.4</ele>
        <time>2021-05-29T11:53:32Z</time>
      </trkpt>
      <trkpt lat="45.10362" lon="5.80429">
        <ele>351.2</ele>
        <time>2021-05-29T11:53:33Z</time>
      </trkpt>
      <trkpt lat="45.1036" lon="5.80427">
        <ele>351.2</ele>
        <time>2021-05-29T11:53:34Z</time>
      </trkpt>
      <trkpt lat="45.1036" lon="5.80427">
        <ele>351</ele>
        <time>2021-05-29T11:53:35Z</time>
      </trkpt>
      <trkpt lat="45.10358" lon="5.80424">
        <ele>351</ele>
        <time>2021-05-29T11:53:36Z</time>
      </trkpt>
      <trkpt lat="45.10357" lon="5.80422">
        <ele>350.8</ele>
        <time>2021-05-29T11:53:37Z</time>
      </trkpt>
      <trkpt lat="45.10355" lon="5.8042">
        <ele>350.8</ele>
        <time>2021-05-29T11:53:38Z</time>
      </trkpt>
      <trkpt lat="45.10353" lon="5.80418">
        <ele>350.6</ele>
        <time>2021-05-29T11:53:39Z</time>
      </trkpt>
      <trkpt lat="45.10351" lon="5.80416">
        <ele>350</ele>
        <time>2021-05-29T11:53:40Z</time>
      </trkpt>
      <trkpt lat="45.10347" lon="5.80412">
        <ele>350.6</ele>
        <time>2021-05-29T11:53:41Z</time>
      </trkpt>
      <trkpt lat="45.10347" lon="5.80412">
        <ele>350.6</ele>
        <time>2021-05-29T11:53:42Z</time>
      </trkpt>
      <trkpt lat="45.10347" lon="5.80412">
        <ele>350.8</ele>
        <time>2021-05-29T11:53:43Z</time>
      </trkpt>
      <trkpt lat="45.10345" lon="5.80408">
        <ele>350.8</ele>
        <time>2021-05-29T11:53:44Z</time>
      </trkpt>
      <trkpt lat="45.10345" lon="5.80408">
        <ele>350.8</ele>
        <time>2021-05-29T11:53:45Z</time>
      </trkpt>
      <trkpt lat="45.10344" lon="5.80405">
        <ele>350.6</ele>
        <time>2021-05-29T11:53:46Z</time>
      </trkpt>
      <trkpt lat="45.10344" lon="5.80405">
        <ele>351</ele>
        <time>2021-05-29T11:53:47Z</time>
      </trkpt>
      <trkpt lat="45.10343" lon="5.80402">
        <ele>351</ele>
        <time>2021-05-29T11:53:48Z</time>
      </trkpt>
      <trkpt lat="45.10343" lon="5.80402">
        <ele>351.2</ele>
        <time>2021-05-29T11:53:49Z</time>
      </trkpt>
      <trkpt lat="45.10343" lon="5.80402">
        <ele>351.2</ele>
        <time>2021-05-29T11:53:50Z</time>
      </trkpt>
      <trkpt lat="45.10343" lon="5.80398">
        <ele>351.2</ele>
        <time>2021-05-29T11:53:51Z</time>
      </trkpt>
      <trkpt lat="45.10343" lon="5.80398">
        <ele>351.2</ele>
        <time>2021-05-29T11:53:52Z</time>
      </trkpt>
      <trkpt lat="45.10343" lon="5.80398">
        <ele>351.2</ele>
        <time>2021-05-29T11:53:53Z</time>
      </trkpt>
      <trkpt lat="45.10343" lon="5.80398">
        <ele>351.2</ele>
        <time>2021-05-29T11:53:54Z</time>
      </trkpt>
      <trkpt lat="45.10343" lon="5.80398">
        <ele>351</ele>
        <time>2021-05-29T11:53:55Z</time>
      </trkpt>
      <trkpt lat="45.10343" lon="5.80398">
        <ele>350.6</ele>
        <time>2021-05-29T11:53:56Z</time>
      </trkpt>
      <trkpt lat="45.10343" lon="5.80398">
        <ele>350.4</ele>
        <time>2021-05-29T11:53:57Z</time>
      </trkpt>
      <trkpt lat="45.10343" lon="5.80398">
        <ele>350.2</ele>
        <time>2021-05-29T11:53:58Z</time>
      </trkpt>
      <trkpt lat="45.10343" lon="5.80398">
        <ele>350.2</ele>
        <time>2021-05-29T11:53:59Z</time>
      </trkpt>
      <trkpt lat="45.10343" lon="5.80398">
        <ele>350</ele>
        <time>2021-05-29T11:54:00Z</time>
      </trkpt>
      <trkpt lat="45.10343" lon="5.80398">
        <ele>350.4</ele>
        <time>2021-05-29T11:54:01Z</time>
      </trkpt>
      <trkpt lat="45.10343" lon="5.80396">
        <ele>350.4</ele>
        <time>2021-05-29T11:54:02Z</time>
      </trkpt>
      <trkpt lat="45.10343" lon="5.80396">
        <ele>350.4</ele>
        <time>2021-05-29T11:54:03Z</time>
      </trkpt>
      <trkpt lat="45.10343" lon="5.80396">
        <ele>350.2</ele>
        <time>2021-05-29T11:54:04Z</time>
      </trkpt>
      <trkpt lat="45.10343" lon="5.80396">
        <ele>350.2</ele>
        <time>2021-05-29T11:54:05Z</time>
      </trkpt>
      <trkpt lat="45.10343" lon="5.80396">
        <ele>350</ele>
        <time>2021-05-29T11:54:06Z</time>
      </trkpt>
      <trkpt lat="45.10343" lon="5.80396">
        <ele>350</ele>
        <time>2021-05-29T11:54:07Z</time>
      </trkpt>
      <trkpt lat="45.10343" lon="5.80396">
        <ele>349.8</ele>
        <time>2021-05-29T11:54:08Z</time>
      </trkpt>
      <trkpt lat="45.10343" lon="5.80396">
        <ele>349.8</ele>
        <time>2021-05-29T11:54:09Z</time>
      </trkpt>
      <trkpt lat="45.10343" lon="5.80396">
        <ele>349.8</ele>
        <time>2021-05-29T11:54:10Z</time>
      </trkpt>
      <trkpt lat="45.10343" lon="5.80396">
        <ele>349.8</ele>
        <time>2021-05-29T11:54:11Z</time>
      </trkpt>
      <trkpt lat="45.10343" lon="5.80396">
        <ele>349.8</ele>
        <time>2021-05-29T11:54:12Z</time>
      </trkpt>
      <trkpt lat="45.10343" lon="5.80396">
        <ele>349.8</ele>
        <time>2021-05-29T11:54:13Z</time>
      </trkpt>
      <trkpt lat="45.10343" lon="5.80396">
        <ele>350</ele>
        <time>2021-05-29T11:54:14Z</time>
      </trkpt>
      <trkpt lat="45.10343" lon="5.80396">
        <ele>349.8</ele>
        <time>2021-05-29T11:54:15Z</time>
      </trkpt>
      <trkpt lat="45.10343" lon="5.80396">
        <ele>349.8</ele>
        <time>2021-05-29T11:54:16Z</time>
      </trkpt>
      <trkpt lat="45.10343" lon="5.80396">
        <ele>349.8</ele>
        <time>2021-05-29T11:54:17Z</time>
      </trkpt>
      <trkpt lat="45.10343" lon="5.80396">
        <ele>349.6</ele>
        <time>2021-05-29T11:54:18Z</time>
      </trkpt>
      <trkpt lat="45.10343" lon="5.80396">
        <ele>349.6</ele>
        <time>2021-05-29T11:54:19Z</time>
      </trkpt>
      <trkpt lat="45.10343" lon="5.80396">
        <ele>349.6</ele>
        <time>2021-05-29T11:54:20Z</time>
      </trkpt>
      <trkpt lat="45.10343" lon="5.80396">
        <ele>349.6</ele>
        <time>2021-05-29T11:54:21Z</time>
      </trkpt>
      <trkpt lat="45.10343" lon="5.80396">
        <ele>349.6</ele>
        <time>2021-05-29T11:54:22Z</time>
      </trkpt>
      <trkpt lat="45.10343" lon="5.80393">
        <ele>349.6</ele>
        <time>2021-05-29T11:54:23Z</time>
      </trkpt>
      <trkpt lat="45.10343" lon="5.80393">
        <ele>349.8</ele>
        <time>2021-05-29T11:54:24Z</time>
      </trkpt>
      <trkpt lat="45.10343" lon="5.80393">
        <ele>349.8</ele>
        <time>2021-05-29T11:54:25Z</time>
      </trkpt>
      <trkpt lat="45.10343" lon="5.80393">
        <ele>349.8</ele>
        <time>2021-05-29T11:54:26Z</time>
      </trkpt>
      <trkpt lat="45.10344" lon="5.8039">
        <ele>349.6</ele>
        <time>2021-05-29T11:54:27Z</time>
      </trkpt>
      <trkpt lat="45.10344" lon="5.8039">
        <ele>349.8</ele>
        <time>2021-05-29T11:54:28Z</time>
      </trkpt>
      <trkpt lat="45.10344" lon="5.8039">
        <ele>349.8</ele>
        <time>2021-05-29T11:54:29Z</time>
      </trkpt>
      <trkpt lat="45.10344" lon="5.8039">
        <ele>349.8</ele>
        <time>2021-05-29T11:54:30Z</time>
      </trkpt>
      <trkpt lat="45.10344" lon="5.8039">
        <ele>349.8</ele>
        <time>2021-05-29T11:54:31Z</time>
      </trkpt>
      <trkpt lat="45.10344" lon="5.8039">
        <ele>349.6</ele>
        <time>2021-05-29T11:54:32Z</time>
      </trkpt>
      <trkpt lat="45.10344" lon="5.80387">
        <ele>349.6</ele>
        <time>2021-05-29T11:54:33Z</time>
      </trkpt>
      <trkpt lat="45.10345" lon="5.80387">
        <ele>349.6</ele>
        <time>2021-05-29T11:54:34Z</time>
      </trkpt>
      <trkpt lat="45.10345" lon="5.80386">
        <ele>349.8</ele>
        <time>2021-05-29T11:54:35Z</time>
      </trkpt>
      <trkpt lat="45.10345" lon="5.80386">
        <ele>349.6</ele>
        <time>2021-05-29T11:54:36Z</time>
      </trkpt>
      <trkpt lat="45.10345" lon="5.80386">
        <ele>349.6</ele>
        <time>2021-05-29T11:54:37Z</time>
      </trkpt>
      <trkpt lat="45.10346" lon="5.80386">
        <ele>349.6</ele>
        <time>2021-05-29T11:54:38Z</time>
      </trkpt>
      <trkpt lat="45.10346" lon="5.80385">
        <ele>349.4</ele>
        <time>2021-05-29T11:54:39Z</time>
      </trkpt>
      <trkpt lat="45.10346" lon="5.80385">
        <ele>349.4</ele>
        <time>2021-05-29T11:54:40Z</time>
      </trkpt>
      <trkpt lat="45.10346" lon="5.80385">
        <ele>349.6</ele>
        <time>2021-05-29T11:54:41Z</time>
      </trkpt>
      <trkpt lat="45.10347" lon="5.80385">
        <ele>349.6</ele>
        <time>2021-05-29T11:54:42Z</time>
      </trkpt>
      <trkpt lat="45.10347" lon="5.80384">
        <ele>349.8</ele>
        <time>2021-05-29T11:54:43Z</time>
      </trkpt>
      <trkpt lat="45.10347" lon="5.80384">
        <ele>349.6</ele>
        <time>2021-05-29T11:54:44Z</time>
      </trkpt>
      <trkpt lat="45.10348" lon="5.80384">
        <ele>349.6</ele>
        <time>2021-05-29T11:54:45Z</time>
      </trkpt>
      <trkpt lat="45.10348" lon="5.80383">
        <ele>349.6</ele>
        <time>2021-05-29T11:54:46Z</time>
      </trkpt>
      <trkpt lat="45.10348" lon="5.80383">
        <ele>349.6</ele>
        <time>2021-05-29T11:54:47Z</time>
      </trkpt>
      <trkpt lat="45.10348" lon="5.80383">
        <ele>349.8</ele>
        <time>2021-05-29T11:54:48Z</time>
      </trkpt>
      <trkpt lat="45.10349" lon="5.80383">
        <ele>349.6</ele>
        <time>2021-05-29T11:54:49Z</time>
      </trkpt>
      <trkpt lat="45.10349" lon="5.80382">
        <ele>349.8</ele>
        <time>2021-05-29T11:54:50Z</time>
      </trkpt>
      <trkpt lat="45.10349" lon="5.80382">
        <ele>349.4</ele>
        <time>2021-05-29T11:54:51Z</time>
      </trkpt>
      <trkpt lat="45.10349" lon="5.80382">
        <ele>348.8</ele>
        <time>2021-05-29T11:54:52Z</time>
      </trkpt>
      <trkpt lat="45.1035" lon="5.80381">
        <ele>348.8</ele>
        <time>2021-05-29T11:54:53Z</time>
      </trkpt>
      <trkpt lat="45.1035" lon="5.80381">
        <ele>349.2</ele>
        <time>2021-05-29T11:54:54Z</time>
      </trkpt>
      <trkpt lat="45.1035" lon="5.80381">
        <ele>349</ele>
        <time>2021-05-29T11:54:55Z</time>
      </trkpt>
      <trkpt lat="45.10351" lon="5.80381">
        <ele>349</ele>
        <time>2021-05-29T11:54:56Z</time>
      </trkpt>
      <trkpt lat="45.10351" lon="5.8038">
        <ele>349</ele>
        <time>2021-05-29T11:54:57Z</time>
      </trkpt>
      <trkpt lat="45.10351" lon="5.8038">
        <ele>349.4</ele>
        <time>2021-05-29T11:54:58Z</time>
      </trkpt>
      <trkpt lat="45.10351" lon="5.8038">
        <ele>349.4</ele>
        <time>2021-05-29T11:54:59Z</time>
      </trkpt>
      <trkpt lat="45.10352" lon="5.80379">
        <ele>349.6</ele>
        <time>2021-05-29T11:55:00Z</time>
      </trkpt>
      <trkpt lat="45.10352" lon="5.80379">
        <ele>349.8</ele>
        <time>2021-05-29T11:55:01Z</time>
      </trkpt>
      <trkpt lat="45.10352" lon="5.80379">
        <ele>349.4</ele>
        <time>2021-05-29T11:55:02Z</time>
      </trkpt>
      <trkpt lat="45.10352" lon="5.80379">
        <ele>349.4</ele>
        <time>2021-05-29T11:55:03Z</time>
      </trkpt>
      <trkpt lat="45.10353" lon="5.80378">
        <ele>349.4</ele>
        <time>2021-05-29T11:55:04Z</time>
      </trkpt>
      <trkpt lat="45.10353" lon="5.80378">
        <ele>349.2</ele>
        <time>2021-05-29T11:55:05Z</time>
      </trkpt>
      <trkpt lat="45.10353" lon="5.80378">
        <ele>349.2</ele>
        <time>2021-05-29T11:55:06Z</time>
      </trkpt>
      <trkpt lat="45.10353" lon="5.80377">
        <ele>349.4</ele>
        <time>2021-05-29T11:55:07Z</time>
      </trkpt>
      <trkpt lat="45.10354" lon="5.80377">
        <ele>349.4</ele>
        <time>2021-05-29T11:55:08Z</time>
      </trkpt>
      <trkpt lat="45.10354" lon="5.80377">
        <ele>349.4</ele>
        <time>2021-05-29T11:55:09Z</time>
      </trkpt>
      <trkpt lat="45.10354" lon="5.80377">
        <ele>349.4</ele>
        <time>2021-05-29T11:55:10Z</time>
      </trkpt>
      <trkpt lat="45.10355" lon="5.80376">
        <ele>349.2</ele>
        <time>2021-05-29T11:55:11Z</time>
      </trkpt>
      <trkpt lat="45.10355" lon="5.80376">
        <ele>349.4</ele>
        <time>2021-05-29T11:55:12Z</time>
      </trkpt>
      <trkpt lat="45.10355" lon="5.80376">
        <ele>349.6</ele>
        <time>2021-05-29T11:55:13Z</time>
      </trkpt>
      <trkpt lat="45.10355" lon="5.80375">
        <ele>350</ele>
        <time>2021-05-29T11:55:14Z</time>
      </trkpt>
      <trkpt lat="45.10356" lon="5.80375">
        <ele>350.2</ele>
        <time>2021-05-29T11:55:15Z</time>
      </trkpt>
      <trkpt lat="45.10356" lon="5.80375">
        <ele>350.4</ele>
        <time>2021-05-29T11:55:16Z</time>
      </trkpt>
      <trkpt lat="45.10356" lon="5.80375">
        <ele>350</ele>
        <time>2021-05-29T11:55:17Z</time>
      </trkpt>
      <trkpt lat="45.10356" lon="5.80374">
        <ele>349.8</ele>
        <time>2021-05-29T11:55:18Z</time>
      </trkpt>
      <trkpt lat="45.10357" lon="5.80374">
        <ele>349.8</ele>
        <time>2021-05-29T11:55:19Z</time>
      </trkpt>
      <trkpt lat="45.10357" lon="5.80374">
        <ele>350</ele>
        <time>2021-05-29T11:55:20Z</time>
      </trkpt>
      <trkpt lat="45.10357" lon="5.80373">
        <ele>350</ele>
        <time>2021-05-29T11:55:21Z</time>
      </trkpt>
      <trkpt lat="45.10358" lon="5.80373">
        <ele>350</ele>
        <time>2021-05-29T11:55:22Z</time>
      </trkpt>
      <trkpt lat="45.10358" lon="5.80373">
        <ele>350</ele>
        <time>2021-05-29T11:55:23Z</time>
      </trkpt>
      <trkpt lat="45.10358" lon="5.80373">
        <ele>349.8</ele>
        <time>2021-05-29T11:55:24Z</time>
      </trkpt>
      <trkpt lat="45.10358" lon="5.80372">
        <ele>349.6</ele>
        <time>2021-05-29T11:55:25Z</time>
      </trkpt>
      <trkpt lat="45.10359" lon="5.80372">
        <ele>349.2</ele>
        <time>2021-05-29T11:55:26Z</time>
      </trkpt>
      <trkpt lat="45.10359" lon="5.80372">
        <ele>348.6</ele>
        <time>2021-05-29T11:55:27Z</time>
      </trkpt>
      <trkpt lat="45.10359" lon="5.80372">
        <ele>348</ele>
        <time>2021-05-29T11:55:28Z</time>
      </trkpt>
      <trkpt lat="45.10359" lon="5.80371">
        <ele>348</ele>
        <time>2021-05-29T11:55:29Z</time>
      </trkpt>
      <trkpt lat="45.1036" lon="5.80371">
        <ele>347.6</ele>
        <time>2021-05-29T11:55:30Z</time>
      </trkpt>
      <trkpt lat="45.10362" lon="5.80366">
        <ele>347.6</ele>
        <time>2021-05-29T11:55:31Z</time>
      </trkpt>
      <trkpt lat="45.10365" lon="5.8036">
        <ele>347.2</ele>
        <time>2021-05-29T11:55:32Z</time>
      </trkpt>
      <trkpt lat="45.10367" lon="5.80355">
        <ele>347</ele>
        <time>2021-05-29T11:55:33Z</time>
      </trkpt>
      <trkpt lat="45.10369" lon="5.80351">
        <ele>346.6</ele>
        <time>2021-05-29T11:55:34Z</time>
      </trkpt>
      <trkpt lat="45.10371" lon="5.80348">
        <ele>346.4</ele>
        <time>2021-05-29T11:55:35Z</time>
      </trkpt>
      <trkpt lat="45.10372" lon="5.80344">
        <ele>346.2</ele>
        <time>2021-05-29T11:55:36Z</time>
      </trkpt>
      <trkpt lat="45.10373" lon="5.80341">
        <ele>346</ele>
        <time>2021-05-29T11:55:37Z</time>
      </trkpt>
      <trkpt lat="45.10374" lon="5.80337">
        <ele>346</ele>
        <time>2021-05-29T11:55:38Z</time>
      </trkpt>
      <trkpt lat="45.10375" lon="5.80333">
        <ele>346.2</ele>
        <time>2021-05-29T11:55:39Z</time>
      </trkpt>
      <trkpt lat="45.10376" lon="5.8033">
        <ele>345.8</ele>
        <time>2021-05-29T11:55:40Z</time>
      </trkpt>
      <trkpt lat="45.10377" lon="5.80327">
        <ele>346.2</ele>
        <time>2021-05-29T11:55:41Z</time>
      </trkpt>
      <trkpt lat="45.10379" lon="5.80323">
        <ele>345.6</ele>
        <time>2021-05-29T11:55:42Z</time>
      </trkpt>
      <trkpt lat="45.1038" lon="5.8032">
        <ele>346</ele>
        <time>2021-05-29T11:55:43Z</time>
      </trkpt>
      <trkpt lat="45.10382" lon="5.80317">
        <ele>345.8</ele>
        <time>2021-05-29T11:55:44Z</time>
      </trkpt>
      <trkpt lat="45.10383" lon="5.80314">
        <ele>345.8</ele>
        <time>2021-05-29T11:55:45Z</time>
      </trkpt>
      <trkpt lat="45.10385" lon="5.80311">
        <ele>345.6</ele>
        <time>2021-05-29T11:55:46Z</time>
      </trkpt>
      <trkpt lat="45.10387" lon="5.80308">
        <ele>345.8</ele>
        <time>2021-05-29T11:55:47Z</time>
      </trkpt>
      <trkpt lat="45.1039" lon="5.80305">
        <ele>345.6</ele>
        <time>2021-05-29T11:55:48Z</time>
      </trkpt>
      <trkpt lat="45.10391" lon="5.80302">
        <ele>345.8</ele>
        <time>2021-05-29T11:55:49Z</time>
      </trkpt>
      <trkpt lat="45.10393" lon="5.803">
        <ele>345.4</ele>
        <time>2021-05-29T11:55:50Z</time>
      </trkpt>
      <trkpt lat="45.10395" lon="5.80297">
        <ele>345.4</ele>
        <time>2021-05-29T11:55:51Z</time>
      </trkpt>
      <trkpt lat="45.10396" lon="5.80294">
        <ele>345.2</ele>
        <time>2021-05-29T11:55:52Z</time>
      </trkpt>
      <trkpt lat="45.10398" lon="5.80291">
        <ele>345.4</ele>
        <time>2021-05-29T11:55:53Z</time>
      </trkpt>
      <trkpt lat="45.10399" lon="5.80288">
        <ele>345</ele>
        <time>2021-05-29T11:55:54Z</time>
      </trkpt>
      <trkpt lat="45.10401" lon="5.80286">
        <ele>345.2</ele>
        <time>2021-05-29T11:55:55Z</time>
      </trkpt>
      <trkpt lat="45.10403" lon="5.80283">
        <ele>345</ele>
        <time>2021-05-29T11:55:56Z</time>
      </trkpt>
      <trkpt lat="45.10406" lon="5.80278">
        <ele>345</ele>
        <time>2021-05-29T11:55:57Z</time>
      </trkpt>
      <trkpt lat="45.10406" lon="5.80278">
        <ele>344.8</ele>
        <time>2021-05-29T11:55:58Z</time>
      </trkpt>
      <trkpt lat="45.10408" lon="5.80275">
        <ele>344.8</ele>
        <time>2021-05-29T11:55:59Z</time>
      </trkpt>
      <trkpt lat="45.10411" lon="5.80269">
        <ele>344.6</ele>
        <time>2021-05-29T11:56:00Z</time>
      </trkpt>
      <trkpt lat="45.10414" lon="5.80266">
        <ele>344.6</ele>
        <time>2021-05-29T11:56:01Z</time>
      </trkpt>
      <trkpt lat="45.10414" lon="5.80266">
        <ele>344.2</ele>
        <time>2021-05-29T11:56:02Z</time>
      </trkpt>
      <trkpt lat="45.10416" lon="5.80263">
        <ele>344.2</ele>
        <time>2021-05-29T11:56:03Z</time>
      </trkpt>
      <trkpt lat="45.10421" lon="5.80256">
        <ele>344</ele>
        <time>2021-05-29T11:56:04Z</time>
      </trkpt>
      <trkpt lat="45.10421" lon="5.80256">
        <ele>343.8</ele>
        <time>2021-05-29T11:56:05Z</time>
      </trkpt>
      <trkpt lat="45.10423" lon="5.80254">
        <ele>343.4</ele>
        <time>2021-05-29T11:56:06Z</time>
      </trkpt>
      <trkpt lat="45.10425" lon="5.80251">
        <ele>343.6</ele>
        <time>2021-05-29T11:56:07Z</time>
      </trkpt>
      <trkpt lat="45.1043" lon="5.80246">
        <ele>343</ele>
        <time>2021-05-29T11:56:08Z</time>
      </trkpt>
      <trkpt lat="45.1043" lon="5.80246">
        <ele>343.2</ele>
        <time>2021-05-29T11:56:09Z</time>
      </trkpt>
      <trkpt lat="45.10431" lon="5.80243">
        <ele>342.6</ele>
        <time>2021-05-29T11:56:10Z</time>
      </trkpt>
      <trkpt lat="45.10436" lon="5.80238">
        <ele>342.4</ele>
        <time>2021-05-29T11:56:11Z</time>
      </trkpt>
      <trkpt lat="45.10438" lon="5.80235">
        <ele>342.2</ele>
        <time>2021-05-29T11:56:12Z</time>
      </trkpt>
      <trkpt lat="45.1044" lon="5.80233">
        <ele>342</ele>
        <time>2021-05-29T11:56:13Z</time>
      </trkpt>
      <trkpt lat="45.1044" lon="5.80233">
        <ele>341.8</ele>
        <time>2021-05-29T11:56:14Z</time>
      </trkpt>
      <trkpt lat="45.10442" lon="5.80229">
        <ele>341.4</ele>
        <time>2021-05-29T11:56:15Z</time>
      </trkpt>
      <trkpt lat="45.10447" lon="5.80223">
        <ele>341</ele>
        <time>2021-05-29T11:56:16Z</time>
      </trkpt>
      <trkpt lat="45.10447" lon="5.80223">
        <ele>340.8</ele>
        <time>2021-05-29T11:56:17Z</time>
      </trkpt>
      <trkpt lat="45.10449" lon="5.8022">
        <ele>340.8</ele>
        <time>2021-05-29T11:56:18Z</time>
      </trkpt>
      <trkpt lat="45.10452" lon="5.80216">
        <ele>340.4</ele>
        <time>2021-05-29T11:56:19Z</time>
      </trkpt>
      <trkpt lat="45.10454" lon="5.80214">
        <ele>340.4</ele>
        <time>2021-05-29T11:56:20Z</time>
      </trkpt>
      <trkpt lat="45.10456" lon="5.80211">
        <ele>339.8</ele>
        <time>2021-05-29T11:56:21Z</time>
      </trkpt>
      <trkpt lat="45.10461" lon="5.80204">
        <ele>339.8</ele>
        <time>2021-05-29T11:56:22Z</time>
      </trkpt>
      <trkpt lat="45.10461" lon="5.80204">
        <ele>339.4</ele>
        <time>2021-05-29T11:56:23Z</time>
      </trkpt>
      <trkpt lat="45.10463" lon="5.80201">
        <ele>339.6</ele>
        <time>2021-05-29T11:56:24Z</time>
      </trkpt>
      <trkpt lat="45.10465" lon="5.80198">
        <ele>339.2</ele>
        <time>2021-05-29T11:56:25Z</time>
      </trkpt>
      <trkpt lat="45.10467" lon="5.80195">
        <ele>339.2</ele>
        <time>2021-05-29T11:56:26Z</time>
      </trkpt>
      <trkpt lat="45.10469" lon="5.80191">
        <ele>338.8</ele>
        <time>2021-05-29T11:56:27Z</time>
      </trkpt>
      <trkpt lat="45.10471" lon="5.80188">
        <ele>339</ele>
        <time>2021-05-29T11:56:28Z</time>
      </trkpt>
      <trkpt lat="45.10475" lon="5.80183">
        <ele>338.4</ele>
        <time>2021-05-29T11:56:29Z</time>
      </trkpt>
      <trkpt lat="45.10477" lon="5.80181">
        <ele>338.6</ele>
        <time>2021-05-29T11:56:30Z</time>
      </trkpt>
      <trkpt lat="45.10479" lon="5.80178">
        <ele>338.4</ele>
        <time>2021-05-29T11:56:31Z</time>
      </trkpt>
      <trkpt lat="45.10479" lon="5.80178">
        <ele>338.6</ele>
        <time>2021-05-29T11:56:32Z</time>
      </trkpt>
      <trkpt lat="45.10481" lon="5.80174">
        <ele>338.4</ele>
        <time>2021-05-29T11:56:33Z</time>
      </trkpt>
      <trkpt lat="45.10485" lon="5.80168">
        <ele>338.6</ele>
        <time>2021-05-29T11:56:34Z</time>
      </trkpt>
      <trkpt lat="45.10485" lon="5.80168">
        <ele>338.4</ele>
        <time>2021-05-29T11:56:35Z</time>
      </trkpt>
      <trkpt lat="45.10487" lon="5.80165">
        <ele>338.6</ele>
        <time>2021-05-29T11:56:36Z</time>
      </trkpt>
      <trkpt lat="45.10491" lon="5.80159">
        <ele>338.2</ele>
        <time>2021-05-29T11:56:37Z</time>
      </trkpt>
      <trkpt lat="45.10491" lon="5.80159">
        <ele>338.2</ele>
        <time>2021-05-29T11:56:38Z</time>
      </trkpt>
      <trkpt lat="45.10492" lon="5.80155">
        <ele>337.6</ele>
        <time>2021-05-29T11:56:39Z</time>
      </trkpt>
      <trkpt lat="45.10494" lon="5.80152">
        <ele>337.6</ele>
        <time>2021-05-29T11:56:40Z</time>
      </trkpt>
      <trkpt lat="45.10496" lon="5.80149">
        <ele>337</ele>
        <time>2021-05-29T11:56:41Z</time>
      </trkpt>
      <trkpt lat="45.10498" lon="5.80146">
        <ele>337.2</ele>
        <time>2021-05-29T11:56:42Z</time>
      </trkpt>
      <trkpt lat="45.105" lon="5.80143">
        <ele>336.6</ele>
        <time>2021-05-29T11:56:43Z</time>
      </trkpt>
      <trkpt lat="45.10503" lon="5.80136">
        <ele>336.8</ele>
        <time>2021-05-29T11:56:44Z</time>
      </trkpt>
      <trkpt lat="45.10504" lon="5.80133">
        <ele>336.6</ele>
        <time>2021-05-29T11:56:45Z</time>
      </trkpt>
      <trkpt lat="45.10506" lon="5.80129">
        <ele>336.8</ele>
        <time>2021-05-29T11:56:46Z</time>
      </trkpt>
      <trkpt lat="45.10506" lon="5.80129">
        <ele>336.4</ele>
        <time>2021-05-29T11:56:47Z</time>
      </trkpt>
      <trkpt lat="45.10507" lon="5.80126">
        <ele>336.6</ele>
        <time>2021-05-29T11:56:48Z</time>
      </trkpt>
      <trkpt lat="45.10509" lon="5.80122">
        <ele>336</ele>
        <time>2021-05-29T11:56:49Z</time>
      </trkpt>
      <trkpt lat="45.1051" lon="5.80119">
        <ele>336.2</ele>
        <time>2021-05-29T11:56:50Z</time>
      </trkpt>
      <trkpt lat="45.10511" lon="5.80116">
        <ele>336</ele>
        <time>2021-05-29T11:56:51Z</time>
      </trkpt>
      <trkpt lat="45.10513" lon="5.80112">
        <ele>336.2</ele>
        <time>2021-05-29T11:56:52Z</time>
      </trkpt>
      <trkpt lat="45.10514" lon="5.80107">
        <ele>336.2</ele>
        <time>2021-05-29T11:56:53Z</time>
      </trkpt>
      <trkpt lat="45.10516" lon="5.80104">
        <ele>336.6</ele>
        <time>2021-05-29T11:56:54Z</time>
      </trkpt>
      <trkpt lat="45.10516" lon="5.80104">
        <ele>336.2</ele>
        <time>2021-05-29T11:56:55Z</time>
      </trkpt>
      <trkpt lat="45.10517" lon="5.80101">
        <ele>336.4</ele>
        <time>2021-05-29T11:56:56Z</time>
      </trkpt>
      <trkpt lat="45.10518" lon="5.80098">
        <ele>336</ele>
        <time>2021-05-29T11:56:57Z</time>
      </trkpt>
      <trkpt lat="45.10518" lon="5.80098">
        <ele>336</ele>
        <time>2021-05-29T11:56:58Z</time>
      </trkpt>
      <trkpt lat="45.10518" lon="5.80094">
        <ele>335.6</ele>
        <time>2021-05-29T11:56:59Z</time>
      </trkpt>
      <trkpt lat="45.10518" lon="5.80094">
        <ele>335.4</ele>
        <time>2021-05-29T11:57:00Z</time>
      </trkpt>
      <trkpt lat="45.10519" lon="5.80089">
        <ele>335.6</ele>
        <time>2021-05-29T11:57:01Z</time>
      </trkpt>
      <trkpt lat="45.10519" lon="5.80089">
        <ele>335.4</ele>
        <time>2021-05-29T11:57:02Z</time>
      </trkpt>
      <trkpt lat="45.1052" lon="5.80085">
        <ele>335.4</ele>
        <time>2021-05-29T11:57:03Z</time>
      </trkpt>
      <trkpt lat="45.10521" lon="5.80082">
        <ele>335.2</ele>
        <time>2021-05-29T11:57:04Z</time>
      </trkpt>
      <trkpt lat="45.10521" lon="5.80082">
        <ele>335</ele>
        <time>2021-05-29T11:57:05Z</time>
      </trkpt>
      <trkpt lat="45.10521" lon="5.80082">
        <ele>334.8</ele>
        <time>2021-05-29T11:57:06Z</time>
      </trkpt>
      <trkpt lat="45.10521" lon="5.80078">
        <ele>334.8</ele>
        <time>2021-05-29T11:57:07Z</time>
      </trkpt>
      <trkpt lat="45.10521" lon="5.80078">
        <ele>334.4</ele>
        <time>2021-05-29T11:57:08Z</time>
      </trkpt>
      <trkpt lat="45.10521" lon="5.80078">
        <ele>334.4</ele>
        <time>2021-05-29T11:57:09Z</time>
      </trkpt>
      <trkpt lat="45.10523" lon="5.80074">
        <ele>334.4</ele>
        <time>2021-05-29T11:57:10Z</time>
      </trkpt>
      <trkpt lat="45.10524" lon="5.80072">
        <ele>334.6</ele>
        <time>2021-05-29T11:57:11Z</time>
      </trkpt>
      <trkpt lat="45.10525" lon="5.80069">
        <ele>334.4</ele>
        <time>2021-05-29T11:57:12Z</time>
      </trkpt>
      <trkpt lat="45.10526" lon="5.80067">
        <ele>334.4</ele>
        <time>2021-05-29T11:57:13Z</time>
      </trkpt>
      <trkpt lat="45.10528" lon="5.80062">
        <ele>334.2</ele>
        <time>2021-05-29T11:57:14Z</time>
      </trkpt>
      <trkpt lat="45.10528" lon="5.80062">
        <ele>334.2</ele>
        <time>2021-05-29T11:57:15Z</time>
      </trkpt>
      <trkpt lat="45.10529" lon="5.8006">
        <ele>334</ele>
        <time>2021-05-29T11:57:16Z</time>
      </trkpt>
      <trkpt lat="45.1053" lon="5.80057">
        <ele>333.8</ele>
        <time>2021-05-29T11:57:17Z</time>
      </trkpt>
      <trkpt lat="45.10531" lon="5.80054">
        <ele>333.8</ele>
        <time>2021-05-29T11:57:18Z</time>
      </trkpt>
      <trkpt lat="45.10532" lon="5.80052">
        <ele>333.6</ele>
        <time>2021-05-29T11:57:19Z</time>
      </trkpt>
      <trkpt lat="45.10533" lon="5.80049">
        <ele>333.6</ele>
        <time>2021-05-29T11:57:20Z</time>
      </trkpt>
      <trkpt lat="45.10534" lon="5.80046">
        <ele>333.8</ele>
        <time>2021-05-29T11:57:21Z</time>
      </trkpt>
      <trkpt lat="45.10534" lon="5.80043">
        <ele>334</ele>
        <time>2021-05-29T11:57:22Z</time>
      </trkpt>
      <trkpt lat="45.10535" lon="5.8004">
        <ele>334</ele>
        <time>2021-05-29T11:57:23Z</time>
      </trkpt>
      <trkpt lat="45.10537" lon="5.80034">
        <ele>334.2</ele>
        <time>2021-05-29T11:57:24Z</time>
      </trkpt>
      <trkpt lat="45.10538" lon="5.8003">
        <ele>334</ele>
        <time>2021-05-29T11:57:25Z</time>
      </trkpt>
      <trkpt lat="45.10538" lon="5.80027">
        <ele>334.2</ele>
        <time>2021-05-29T11:57:26Z</time>
      </trkpt>
      <trkpt lat="45.10539" lon="5.80024">
        <ele>334</ele>
        <time>2021-05-29T11:57:27Z</time>
      </trkpt>
      <trkpt lat="45.10539" lon="5.80024">
        <ele>334.2</ele>
        <time>2021-05-29T11:57:28Z</time>
      </trkpt>
      <trkpt lat="45.1054" lon="5.8002">
        <ele>333.8</ele>
        <time>2021-05-29T11:57:29Z</time>
      </trkpt>
      <trkpt lat="45.10541" lon="5.80015">
        <ele>334</ele>
        <time>2021-05-29T11:57:30Z</time>
      </trkpt>
      <trkpt lat="45.10541" lon="5.80015">
        <ele>333.6</ele>
        <time>2021-05-29T11:57:31Z</time>
      </trkpt>
      <trkpt lat="45.10542" lon="5.80012">
        <ele>333.8</ele>
        <time>2021-05-29T11:57:32Z</time>
      </trkpt>
      <trkpt lat="45.10543" lon="5.80009">
        <ele>333.6</ele>
        <time>2021-05-29T11:57:33Z</time>
      </trkpt>
      <trkpt lat="45.10546" lon="5.80002">
        <ele>333.6</ele>
        <time>2021-05-29T11:57:34Z</time>
      </trkpt>
      <trkpt lat="45.10546" lon="5.80002">
        <ele>333.4</ele>
        <time>2021-05-29T11:57:35Z</time>
      </trkpt>
      <trkpt lat="45.10548" lon="5.8">
        <ele>333.4</ele>
        <time>2021-05-29T11:57:36Z</time>
      </trkpt>
      <trkpt lat="45.10549" lon="5.79997">
        <ele>333.2</ele>
        <time>2021-05-29T11:57:37Z</time>
      </trkpt>
      <trkpt lat="45.10551" lon="5.79994">
        <ele>333.2</ele>
        <time>2021-05-29T11:57:38Z</time>
      </trkpt>
      <trkpt lat="45.10553" lon="5.79991">
        <ele>333</ele>
        <time>2021-05-29T11:57:39Z</time>
      </trkpt>
      <trkpt lat="45.10555" lon="5.79986">
        <ele>333</ele>
        <time>2021-05-29T11:57:40Z</time>
      </trkpt>
      <trkpt lat="45.10555" lon="5.79986">
        <ele>333</ele>
        <time>2021-05-29T11:57:41Z</time>
      </trkpt>
      <trkpt lat="45.10557" lon="5.79984">
        <ele>333.2</ele>
        <time>2021-05-29T11:57:42Z</time>
      </trkpt>
      <trkpt lat="45.10559" lon="5.79981">
        <ele>333.2</ele>
        <time>2021-05-29T11:57:43Z</time>
      </trkpt>
      <trkpt lat="45.10563" lon="5.79975">
        <ele>333.2</ele>
        <time>2021-05-29T11:57:44Z</time>
      </trkpt>
      <trkpt lat="45.10565" lon="5.79972">
        <ele>333.4</ele>
        <time>2021-05-29T11:57:45Z</time>
      </trkpt>
      <trkpt lat="45.10567" lon="5.79969">
        <ele>333.4</ele>
        <time>2021-05-29T11:57:46Z</time>
      </trkpt>
      <trkpt lat="45.10569" lon="5.79967">
        <ele>333.6</ele>
        <time>2021-05-29T11:57:47Z</time>
      </trkpt>
      <trkpt lat="45.10569" lon="5.79967">
        <ele>333.6</ele>
        <time>2021-05-29T11:57:48Z</time>
      </trkpt>
      <trkpt lat="45.10571" lon="5.79964">
        <ele>333.8</ele>
        <time>2021-05-29T11:57:49Z</time>
      </trkpt>
      <trkpt lat="45.10576" lon="5.79959">
        <ele>333.8</ele>
        <time>2021-05-29T11:57:50Z</time>
      </trkpt>
      <trkpt lat="45.10576" lon="5.79959">
        <ele>333.8</ele>
        <time>2021-05-29T11:57:51Z</time>
      </trkpt>
      <trkpt lat="45.10578" lon="5.79957">
        <ele>333.8</ele>
        <time>2021-05-29T11:57:52Z</time>
      </trkpt>
      <trkpt lat="45.10581" lon="5.79954">
        <ele>334</ele>
        <time>2021-05-29T11:57:53Z</time>
      </trkpt>
      <trkpt lat="45.10583" lon="5.79952">
        <ele>334</ele>
        <time>2021-05-29T11:57:54Z</time>
      </trkpt>
      <trkpt lat="45.10586" lon="5.7995">
        <ele>334.2</ele>
        <time>2021-05-29T11:57:55Z</time>
      </trkpt>
      <trkpt lat="45.10588" lon="5.79948">
        <ele>334.2</ele>
        <time>2021-05-29T11:57:56Z</time>
      </trkpt>
      <trkpt lat="45.10593" lon="5.79943">
        <ele>334.4</ele>
        <time>2021-05-29T11:57:57Z</time>
      </trkpt>
      <trkpt lat="45.10593" lon="5.79943">
        <ele>334.4</ele>
        <time>2021-05-29T11:57:58Z</time>
      </trkpt>
      <trkpt lat="45.10595" lon="5.79941">
        <ele>334.4</ele>
        <time>2021-05-29T11:57:59Z</time>
      </trkpt>
      <trkpt lat="45.10597" lon="5.79938">
        <ele>334.2</ele>
        <time>2021-05-29T11:58:00Z</time>
      </trkpt>
      <trkpt lat="45.10599" lon="5.79935">
        <ele>334.6</ele>
        <time>2021-05-29T11:58:01Z</time>
      </trkpt>
      <trkpt lat="45.10601" lon="5.79932">
        <ele>334.4</ele>
        <time>2021-05-29T11:58:02Z</time>
      </trkpt>
      <trkpt lat="45.10602" lon="5.79929">
        <ele>334.8</ele>
        <time>2021-05-29T11:58:03Z</time>
      </trkpt>
      <trkpt lat="45.10604" lon="5.79924">
        <ele>334.6</ele>
        <time>2021-05-29T11:58:04Z</time>
      </trkpt>
      <trkpt lat="45.10605" lon="5.79921">
        <ele>335</ele>
        <time>2021-05-29T11:58:05Z</time>
      </trkpt>
      <trkpt lat="45.10606" lon="5.79918">
        <ele>334.8</ele>
        <time>2021-05-29T11:58:06Z</time>
      </trkpt>
      <trkpt lat="45.10607" lon="5.79914">
        <ele>335</ele>
        <time>2021-05-29T11:58:07Z</time>
      </trkpt>
      <trkpt lat="45.10607" lon="5.79911">
        <ele>334.8</ele>
        <time>2021-05-29T11:58:08Z</time>
      </trkpt>
      <trkpt lat="45.10607" lon="5.79911">
        <ele>335.2</ele>
        <time>2021-05-29T11:58:09Z</time>
      </trkpt>
      <trkpt lat="45.10608" lon="5.79907">
        <ele>334.8</ele>
        <time>2021-05-29T11:58:10Z</time>
      </trkpt>
      <trkpt lat="45.10609" lon="5.79901">
        <ele>335</ele>
        <time>2021-05-29T11:58:11Z</time>
      </trkpt>
      <trkpt lat="45.1061" lon="5.79898">
        <ele>334.8</ele>
        <time>2021-05-29T11:58:12Z</time>
      </trkpt>
      <trkpt lat="45.1061" lon="5.79895">
        <ele>334.8</ele>
        <time>2021-05-29T11:58:13Z</time>
      </trkpt>
      <trkpt lat="45.1061" lon="5.79895">
        <ele>334.6</ele>
        <time>2021-05-29T11:58:14Z</time>
      </trkpt>
      <trkpt lat="45.10611" lon="5.79893">
        <ele>334.8</ele>
        <time>2021-05-29T11:58:15Z</time>
      </trkpt>
      <trkpt lat="45.10611" lon="5.7989">
        <ele>334.6</ele>
        <time>2021-05-29T11:58:16Z</time>
      </trkpt>
      <trkpt lat="45.10611" lon="5.79884">
        <ele>334.8</ele>
        <time>2021-05-29T11:58:17Z</time>
      </trkpt>
      <trkpt lat="45.10611" lon="5.79884">
        <ele>334.4</ele>
        <time>2021-05-29T11:58:18Z</time>
      </trkpt>
      <trkpt lat="45.10612" lon="5.79881">
        <ele>334.6</ele>
        <time>2021-05-29T11:58:19Z</time>
      </trkpt>
      <trkpt lat="45.10613" lon="5.79878">
        <ele>334.4</ele>
        <time>2021-05-29T11:58:20Z</time>
      </trkpt>
      <trkpt lat="45.10613" lon="5.79874">
        <ele>334.6</ele>
        <time>2021-05-29T11:58:21Z</time>
      </trkpt>
      <trkpt lat="45.10614" lon="5.79871">
        <ele>334.4</ele>
        <time>2021-05-29T11:58:22Z</time>
      </trkpt>
      <trkpt lat="45.10615" lon="5.79868">
        <ele>334.6</ele>
        <time>2021-05-29T11:58:23Z</time>
      </trkpt>
      <trkpt lat="45.10617" lon="5.79865">
        <ele>334.4</ele>
        <time>2021-05-29T11:58:24Z</time>
      </trkpt>
      <trkpt lat="45.10619" lon="5.79862">
        <ele>334.4</ele>
        <time>2021-05-29T11:58:25Z</time>
      </trkpt>
      <trkpt lat="45.10621" lon="5.79858">
        <ele>334.4</ele>
        <time>2021-05-29T11:58:26Z</time>
      </trkpt>
      <trkpt lat="45.10622" lon="5.79855">
        <ele>334.6</ele>
        <time>2021-05-29T11:58:27Z</time>
      </trkpt>
      <trkpt lat="45.10624" lon="5.79853">
        <ele>334.6</ele>
        <time>2021-05-29T11:58:28Z</time>
      </trkpt>
      <trkpt lat="45.10626" lon="5.79852">
        <ele>334.6</ele>
        <time>2021-05-29T11:58:29Z</time>
      </trkpt>
      <trkpt lat="45.10629" lon="5.79853">
        <ele>334.6</ele>
        <time>2021-05-29T11:58:30Z</time>
      </trkpt>
      <trkpt lat="45.10629" lon="5.79853">
        <ele>334.8</ele>
        <time>2021-05-29T11:58:31Z</time>
      </trkpt>
      <trkpt lat="45.10632" lon="5.79854">
        <ele>334.6</ele>
        <time>2021-05-29T11:58:32Z</time>
      </trkpt>
      <trkpt lat="45.10636" lon="5.79855">
        <ele>334.8</ele>
        <time>2021-05-29T11:58:33Z</time>
      </trkpt>
      <trkpt lat="45.1064" lon="5.79856">
        <ele>334.6</ele>
        <time>2021-05-29T11:58:34Z</time>
      </trkpt>
      <trkpt lat="45.10643" lon="5.79857">
        <ele>334.8</ele>
        <time>2021-05-29T11:58:35Z</time>
      </trkpt>
      <trkpt lat="45.10645" lon="5.79858">
        <ele>334.8</ele>
        <time>2021-05-29T11:58:36Z</time>
      </trkpt>
      <trkpt lat="45.10647" lon="5.79858">
        <ele>334.8</ele>
        <time>2021-05-29T11:58:37Z</time>
      </trkpt>
      <trkpt lat="45.10649" lon="5.79859">
        <ele>334.6</ele>
        <time>2021-05-29T11:58:38Z</time>
      </trkpt>
      <trkpt lat="45.10651" lon="5.79859">
        <ele>334.8</ele>
        <time>2021-05-29T11:58:39Z</time>
      </trkpt>
      <trkpt lat="45.10654" lon="5.7986">
        <ele>334.6</ele>
        <time>2021-05-29T11:58:40Z</time>
      </trkpt>
      <trkpt lat="45.10656" lon="5.7986">
        <ele>335</ele>
        <time>2021-05-29T11:58:41Z</time>
      </trkpt>
      <trkpt lat="45.10658" lon="5.79861">
        <ele>334.8</ele>
        <time>2021-05-29T11:58:42Z</time>
      </trkpt>
      <trkpt lat="45.1066" lon="5.79862">
        <ele>335.4</ele>
        <time>2021-05-29T11:58:43Z</time>
      </trkpt>
      <trkpt lat="45.10662" lon="5.79862">
        <ele>335.2</ele>
        <time>2021-05-29T11:58:44Z</time>
      </trkpt>
      <trkpt lat="45.10664" lon="5.79863">
        <ele>335.4</ele>
        <time>2021-05-29T11:58:45Z</time>
      </trkpt>
      <trkpt lat="45.10666" lon="5.79863">
        <ele>335.2</ele>
        <time>2021-05-29T11:58:46Z</time>
      </trkpt>
      <trkpt lat="45.10668" lon="5.79864">
        <ele>335.4</ele>
        <time>2021-05-29T11:58:47Z</time>
      </trkpt>
      <trkpt lat="45.10671" lon="5.79864">
        <ele>335</ele>
        <time>2021-05-29T11:58:48Z</time>
      </trkpt>
      <trkpt lat="45.10673" lon="5.79865">
        <ele>335.2</ele>
        <time>2021-05-29T11:58:49Z</time>
      </trkpt>
      <trkpt lat="45.10673" lon="5.79865">
        <ele>335</ele>
        <time>2021-05-29T11:58:50Z</time>
      </trkpt>
      <trkpt lat="45.10675" lon="5.79866">
        <ele>335.2</ele>
        <time>2021-05-29T11:58:51Z</time>
      </trkpt>
      <trkpt lat="45.10677" lon="5.79866">
        <ele>334.8</ele>
        <time>2021-05-29T11:58:52Z</time>
      </trkpt>
      <trkpt lat="45.10681" lon="5.79867">
        <ele>335</ele>
        <time>2021-05-29T11:58:53Z</time>
      </trkpt>
      <trkpt lat="45.10683" lon="5.79868">
        <ele>334.8</ele>
        <time>2021-05-29T11:58:54Z</time>
      </trkpt>
      <trkpt lat="45.10685" lon="5.79868">
        <ele>335</ele>
        <time>2021-05-29T11:58:55Z</time>
      </trkpt>
      <trkpt lat="45.10685" lon="5.79868">
        <ele>334.6</ele>
        <time>2021-05-29T11:58:56Z</time>
      </trkpt>
      <trkpt lat="45.10685" lon="5.79868">
        <ele>334.6</ele>
        <time>2021-05-29T11:58:57Z</time>
      </trkpt>
      <trkpt lat="45.10685" lon="5.79868">
        <ele>334.4</ele>
        <time>2021-05-29T11:58:58Z</time>
      </trkpt>
      <trkpt lat="45.10688" lon="5.7987">
        <ele>334.6</ele>
        <time>2021-05-29T11:58:59Z</time>
      </trkpt>
      <trkpt lat="45.10692" lon="5.79871">
        <ele>334.4</ele>
        <time>2021-05-29T11:59:00Z</time>
      </trkpt>
      <trkpt lat="45.10695" lon="5.79872">
        <ele>334.4</ele>
        <time>2021-05-29T11:59:01Z</time>
      </trkpt>
      <trkpt lat="45.10698" lon="5.79874">
        <ele>334.4</ele>
        <time>2021-05-29T11:59:02Z</time>
      </trkpt>
      <trkpt lat="45.10701" lon="5.79875">
        <ele>334.4</ele>
        <time>2021-05-29T11:59:03Z</time>
      </trkpt>
      <trkpt lat="45.10703" lon="5.79876">
        <ele>334.6</ele>
        <time>2021-05-29T11:59:04Z</time>
      </trkpt>
      <trkpt lat="45.10703" lon="5.79876">
        <ele>334.4</ele>
        <time>2021-05-29T11:59:05Z</time>
      </trkpt>
      <trkpt lat="45.10703" lon="5.79876">
        <ele>334.6</ele>
        <time>2021-05-29T11:59:06Z</time>
      </trkpt>
      <trkpt lat="45.10703" lon="5.79876">
        <ele>334.8</ele>
        <time>2021-05-29T11:59:07Z</time>
      </trkpt>
      <trkpt lat="45.10706" lon="5.79876">
        <ele>335</ele>
        <time>2021-05-29T11:59:08Z</time>
      </trkpt>
      <trkpt lat="45.10708" lon="5.79877">
        <ele>335.2</ele>
        <time>2021-05-29T11:59:09Z</time>
      </trkpt>
      <trkpt lat="45.1071" lon="5.79877">
        <ele>335.2</ele>
        <time>2021-05-29T11:59:10Z</time>
      </trkpt>
      <trkpt lat="45.10712" lon="5.79877">
        <ele>335.4</ele>
        <time>2021-05-29T11:59:11Z</time>
      </trkpt>
      <trkpt lat="45.10722" lon="5.7988">
        <ele>335.6</ele>
        <time>2021-05-29T11:59:12Z</time>
      </trkpt>
      <trkpt lat="45.10724" lon="5.79881">
        <ele>335.8</ele>
        <time>2021-05-29T11:59:13Z</time>
      </trkpt>
      <trkpt lat="45.10725" lon="5.79881">
        <ele>336.2</ele>
        <time>2021-05-29T11:59:14Z</time>
      </trkpt>
      <trkpt lat="45.10727" lon="5.79882">
        <ele>336</ele>
        <time>2021-05-29T11:59:15Z</time>
      </trkpt>
      <trkpt lat="45.10727" lon="5.79882">
        <ele>336.4</ele>
        <time>2021-05-29T11:59:16Z</time>
      </trkpt>
      <trkpt lat="45.10729" lon="5.79882">
        <ele>336.2</ele>
        <time>2021-05-29T11:59:17Z</time>
      </trkpt>
      <trkpt lat="45.10735" lon="5.79883">
        <ele>336.6</ele>
        <time>2021-05-29T11:59:18Z</time>
      </trkpt>
      <trkpt lat="45.10737" lon="5.79884">
        <ele>336.6</ele>
        <time>2021-05-29T11:59:19Z</time>
      </trkpt>
      <trkpt lat="45.10737" lon="5.79884">
        <ele>337</ele>
        <time>2021-05-29T11:59:20Z</time>
      </trkpt>
      <trkpt lat="45.1074" lon="5.79884">
        <ele>336.8</ele>
        <time>2021-05-29T11:59:21Z</time>
      </trkpt>
      <trkpt lat="45.10745" lon="5.79885">
        <ele>337</ele>
        <time>2021-05-29T11:59:22Z</time>
      </trkpt>
      <trkpt lat="45.10745" lon="5.79885">
        <ele>336.8</ele>
        <time>2021-05-29T11:59:23Z</time>
      </trkpt>
      <trkpt lat="45.10747" lon="5.79885">
        <ele>337</ele>
        <time>2021-05-29T11:59:24Z</time>
      </trkpt>
      <trkpt lat="45.10752" lon="5.79884">
        <ele>336.8</ele>
        <time>2021-05-29T11:59:25Z</time>
      </trkpt>
      <trkpt lat="45.10755" lon="5.79883">
        <ele>336.8</ele>
        <time>2021-05-29T11:59:26Z</time>
      </trkpt>
      <trkpt lat="45.10757" lon="5.79883">
        <ele>336.4</ele>
        <time>2021-05-29T11:59:27Z</time>
      </trkpt>
      <trkpt lat="45.10759" lon="5.79882">
        <ele>336.4</ele>
        <time>2021-05-29T11:59:28Z</time>
      </trkpt>
      <trkpt lat="45.10759" lon="5.79882">
        <ele>336.4</ele>
        <time>2021-05-29T11:59:29Z</time>
      </trkpt>
      <trkpt lat="45.10761" lon="5.79882">
        <ele>336.2</ele>
        <time>2021-05-29T11:59:30Z</time>
      </trkpt>
      <trkpt lat="45.10763" lon="5.79881">
        <ele>336.4</ele>
        <time>2021-05-29T11:59:31Z</time>
      </trkpt>
      <trkpt lat="45.10767" lon="5.79881">
        <ele>336.4</ele>
        <time>2021-05-29T11:59:32Z</time>
      </trkpt>
      <trkpt lat="45.10769" lon="5.79882">
        <ele>336.6</ele>
        <time>2021-05-29T11:59:33Z</time>
      </trkpt>
      <trkpt lat="45.10771" lon="5.79882">
        <ele>336.6</ele>
        <time>2021-05-29T11:59:34Z</time>
      </trkpt>
      <trkpt lat="45.10773" lon="5.79882">
        <ele>336.8</ele>
        <time>2021-05-29T11:59:35Z</time>
      </trkpt>
      <trkpt lat="45.10773" lon="5.79882">
        <ele>336.6</ele>
        <time>2021-05-29T11:59:36Z</time>
      </trkpt>
      <trkpt lat="45.10773" lon="5.79882">
        <ele>337</ele>
        <time>2021-05-29T11:59:37Z</time>
      </trkpt>
      <trkpt lat="45.10776" lon="5.79882">
        <ele>337</ele>
        <time>2021-05-29T11:59:38Z</time>
      </trkpt>
      <trkpt lat="45.10776" lon="5.79882">
        <ele>337.2</ele>
        <time>2021-05-29T11:59:39Z</time>
      </trkpt>
      <trkpt lat="45.10776" lon="5.79882">
        <ele>337.2</ele>
        <time>2021-05-29T11:59:40Z</time>
      </trkpt>
      <trkpt lat="45.10778" lon="5.79881">
        <ele>337.4</ele>
        <time>2021-05-29T11:59:41Z</time>
      </trkpt>
      <trkpt lat="45.1078" lon="5.79881">
        <ele>337.2</ele>
        <time>2021-05-29T11:59:42Z</time>
      </trkpt>
      <trkpt lat="45.10783" lon="5.7988">
        <ele>337.6</ele>
        <time>2021-05-29T11:59:43Z</time>
      </trkpt>
      <trkpt lat="45.10785" lon="5.7988">
        <ele>337.6</ele>
        <time>2021-05-29T11:59:44Z</time>
      </trkpt>
      <trkpt lat="45.10787" lon="5.79879">
        <ele>337.8</ele>
        <time>2021-05-29T11:59:45Z</time>
      </trkpt>
      <trkpt lat="45.10789" lon="5.79879">
        <ele>337.8</ele>
        <time>2021-05-29T11:59:46Z</time>
      </trkpt>
      <trkpt lat="45.10793" lon="5.79877">
        <ele>337.8</ele>
        <time>2021-05-29T11:59:47Z</time>
      </trkpt>
      <trkpt lat="45.10794" lon="5.79876">
        <ele>337.6</ele>
        <time>2021-05-29T11:59:48Z</time>
      </trkpt>
      <trkpt lat="45.10796" lon="5.79875">
        <ele>337.8</ele>
        <time>2021-05-29T11:59:49Z</time>
      </trkpt>
      <trkpt lat="45.108" lon="5.79872">
        <ele>337.6</ele>
        <time>2021-05-29T11:59:50Z</time>
      </trkpt>
      <trkpt lat="45.10802" lon="5.79871">
        <ele>337.8</ele>
        <time>2021-05-29T11:59:51Z</time>
      </trkpt>
      <trkpt lat="45.10805" lon="5.79869">
        <ele>338</ele>
        <time>2021-05-29T11:59:52Z</time>
      </trkpt>
      <trkpt lat="45.10807" lon="5.79868">
        <ele>338.4</ele>
        <time>2021-05-29T11:59:53Z</time>
      </trkpt>
      <trkpt lat="45.10809" lon="5.79866">
        <ele>338.2</ele>
        <time>2021-05-29T11:59:54Z</time>
      </trkpt>
      <trkpt lat="45.10811" lon="5.79865">
        <ele>338.4</ele>
        <time>2021-05-29T11:59:55Z</time>
      </trkpt>
      <trkpt lat="45.10814" lon="5.79862">
        <ele>338.2</ele>
        <time>2021-05-29T11:59:56Z</time>
      </trkpt>
      <trkpt lat="45.10816" lon="5.7986">
        <ele>338.6</ele>
        <time>2021-05-29T11:59:57Z</time>
      </trkpt>
      <trkpt lat="45.10818" lon="5.79859">
        <ele>338.6</ele>
        <time>2021-05-29T11:59:58Z</time>
      </trkpt>
      <trkpt lat="45.10821" lon="5.79856">
        <ele>338.6</ele>
        <time>2021-05-29T11:59:59Z</time>
      </trkpt>
      <trkpt lat="45.10823" lon="5.79854">
        <ele>338.4</ele>
        <time>2021-05-29T12:00:00Z</time>
      </trkpt>
      <trkpt lat="45.10826" lon="5.79852">
        <ele>338.6</ele>
        <time>2021-05-29T12:00:01Z</time>
      </trkpt>
      <trkpt lat="45.10828" lon="5.79849">
        <ele>338.6</ele>
        <time>2021-05-29T12:00:02Z</time>
      </trkpt>
      <trkpt lat="45.1083" lon="5.79847">
        <ele>338.6</ele>
        <time>2021-05-29T12:00:03Z</time>
      </trkpt>
      <trkpt lat="45.10833" lon="5.79845">
        <ele>338.6</ele>
        <time>2021-05-29T12:00:04Z</time>
      </trkpt>
      <trkpt lat="45.10833" lon="5.79845">
        <ele>338.8</ele>
        <time>2021-05-29T12:00:05Z</time>
      </trkpt>
      <trkpt lat="45.10835" lon="5.79842">
        <ele>338.6</ele>
        <time>2021-05-29T12:00:06Z</time>
      </trkpt>
      <trkpt lat="45.1084" lon="5.79837">
        <ele>338.6</ele>
        <time>2021-05-29T12:00:07Z</time>
      </trkpt>
      <trkpt lat="45.10842" lon="5.79835">
        <ele>338.4</ele>
        <time>2021-05-29T12:00:08Z</time>
      </trkpt>
      <trkpt lat="45.10845" lon="5.79833">
        <ele>338.4</ele>
        <time>2021-05-29T12:00:09Z</time>
      </trkpt>
      <trkpt lat="45.10847" lon="5.7983">
        <ele>338</ele>
        <time>2021-05-29T12:00:10Z</time>
      </trkpt>
      <trkpt lat="45.10849" lon="5.79828">
        <ele>338</ele>
        <time>2021-05-29T12:00:11Z</time>
      </trkpt>
      <trkpt lat="45.10852" lon="5.79827">
        <ele>338</ele>
        <time>2021-05-29T12:00:12Z</time>
      </trkpt>
      <trkpt lat="45.10854" lon="5.79824">
        <ele>338</ele>
        <time>2021-05-29T12:00:13Z</time>
      </trkpt>
      <trkpt lat="45.10857" lon="5.79822">
        <ele>338.4</ele>
        <time>2021-05-29T12:00:14Z</time>
      </trkpt>
      <trkpt lat="45.10857" lon="5.79822">
        <ele>338.4</ele>
        <time>2021-05-29T12:00:15Z</time>
      </trkpt>
      <trkpt lat="45.10859" lon="5.7982">
        <ele>338.8</ele>
        <time>2021-05-29T12:00:16Z</time>
      </trkpt>
      <trkpt lat="45.10864" lon="5.79817">
        <ele>338.8</ele>
        <time>2021-05-29T12:00:17Z</time>
      </trkpt>
      <trkpt lat="45.10864" lon="5.79817">
        <ele>339.2</ele>
        <time>2021-05-29T12:00:18Z</time>
      </trkpt>
      <trkpt lat="45.10866" lon="5.79816">
        <ele>339.2</ele>
        <time>2021-05-29T12:00:19Z</time>
      </trkpt>
      <trkpt lat="45.10871" lon="5.79814">
        <ele>339.6</ele>
        <time>2021-05-29T12:00:20Z</time>
      </trkpt>
      <trkpt lat="45.10873" lon="5.79814">
        <ele>339.6</ele>
        <time>2021-05-29T12:00:21Z</time>
      </trkpt>
      <trkpt lat="45.10873" lon="5.79814">
        <ele>340</ele>
        <time>2021-05-29T12:00:22Z</time>
      </trkpt>
      <trkpt lat="45.10875" lon="5.79814">
        <ele>339.8</ele>
        <time>2021-05-29T12:00:23Z</time>
      </trkpt>
      <trkpt lat="45.1088" lon="5.79816">
        <ele>340.4</ele>
        <time>2021-05-29T12:00:24Z</time>
      </trkpt>
      <trkpt lat="45.10882" lon="5.79818">
        <ele>340.2</ele>
        <time>2021-05-29T12:00:25Z</time>
      </trkpt>
      <trkpt lat="45.10885" lon="5.79819">
        <ele>340.4</ele>
        <time>2021-05-29T12:00:26Z</time>
      </trkpt>
      <trkpt lat="45.10887" lon="5.7982">
        <ele>340.4</ele>
        <time>2021-05-29T12:00:27Z</time>
      </trkpt>
      <trkpt lat="45.10887" lon="5.7982">
        <ele>340.6</ele>
        <time>2021-05-29T12:00:28Z</time>
      </trkpt>
      <trkpt lat="45.1089" lon="5.79822">
        <ele>340.4</ele>
        <time>2021-05-29T12:00:29Z</time>
      </trkpt>
      <trkpt lat="45.1089" lon="5.79822">
        <ele>340.8</ele>
        <time>2021-05-29T12:00:30Z</time>
      </trkpt>
      <trkpt lat="45.10893" lon="5.79825">
        <ele>340.6</ele>
        <time>2021-05-29T12:00:31Z</time>
      </trkpt>
      <trkpt lat="45.10896" lon="5.79826">
        <ele>340.6</ele>
        <time>2021-05-29T12:00:32Z</time>
      </trkpt>
      <trkpt lat="45.10899" lon="5.79826">
        <ele>340.4</ele>
        <time>2021-05-29T12:00:33Z</time>
      </trkpt>
      <trkpt lat="45.10901" lon="5.79826">
        <ele>340.6</ele>
        <time>2021-05-29T12:00:34Z</time>
      </trkpt>
      <trkpt lat="45.10905" lon="5.79825">
        <ele>340.6</ele>
        <time>2021-05-29T12:00:36Z</time>
      </trkpt>
      <trkpt lat="45.10905" lon="5.79825">
        <ele>340.4</ele>
        <time>2021-05-29T12:00:37Z</time>
      </trkpt>
      <trkpt lat="45.10907" lon="5.79825">
        <ele>340.6</ele>
        <time>2021-05-29T12:00:38Z</time>
      </trkpt>
      <trkpt lat="45.1091" lon="5.79824">
        <ele>340.8</ele>
        <time>2021-05-29T12:00:39Z</time>
      </trkpt>
      <trkpt lat="45.10914" lon="5.79822">
        <ele>341</ele>
        <time>2021-05-29T12:00:40Z</time>
      </trkpt>
      <trkpt lat="45.10914" lon="5.79822">
        <ele>341</ele>
        <time>2021-05-29T12:00:41Z</time>
      </trkpt>
      <trkpt lat="45.10916" lon="5.79821">
        <ele>341</ele>
        <time>2021-05-29T12:00:42Z</time>
      </trkpt>
      <trkpt lat="45.10921" lon="5.79818">
        <ele>340.6</ele>
        <time>2021-05-29T12:00:43Z</time>
      </trkpt>
      <trkpt lat="45.10921" lon="5.79818">
        <ele>340.8</ele>
        <time>2021-05-29T12:00:44Z</time>
      </trkpt>
      <trkpt lat="45.10923" lon="5.79817">
        <ele>340.8</ele>
        <time>2021-05-29T12:00:45Z</time>
      </trkpt>
      <trkpt lat="45.10926" lon="5.79816">
        <ele>341</ele>
        <time>2021-05-29T12:00:46Z</time>
      </trkpt>
      <trkpt lat="45.10926" lon="5.79816">
        <ele>341</ele>
        <time>2021-05-29T12:00:47Z</time>
      </trkpt>
      <trkpt lat="45.10926" lon="5.79816">
        <ele>341</ele>
        <time>2021-05-29T12:00:48Z</time>
      </trkpt>
      <trkpt lat="45.10928" lon="5.79815">
        <ele>340.8</ele>
        <time>2021-05-29T12:00:49Z</time>
      </trkpt>
      <trkpt lat="45.10928" lon="5.79815">
        <ele>341.2</ele>
        <time>2021-05-29T12:00:50Z</time>
      </trkpt>
      <trkpt lat="45.10928" lon="5.79815">
        <ele>341.6</ele>
        <time>2021-05-29T12:00:51Z</time>
      </trkpt>
      <trkpt lat="45.10929" lon="5.79814">
        <ele>341.6</ele>
        <time>2021-05-29T12:00:52Z</time>
      </trkpt>
      <trkpt lat="45.1093" lon="5.79813">
        <ele>341.6</ele>
        <time>2021-05-29T12:00:53Z</time>
      </trkpt>
      <trkpt lat="45.10932" lon="5.79812">
        <ele>341.6</ele>
        <time>2021-05-29T12:00:54Z</time>
      </trkpt>
      <trkpt lat="45.10933" lon="5.79811">
        <ele>341.8</ele>
        <time>2021-05-29T12:00:55Z</time>
      </trkpt>
      <trkpt lat="45.10935" lon="5.79811">
        <ele>341.6</ele>
        <time>2021-05-29T12:00:56Z</time>
      </trkpt>
      <trkpt lat="45.10936" lon="5.7981">
        <ele>341.6</ele>
        <time>2021-05-29T12:00:57Z</time>
      </trkpt>
      <trkpt lat="45.10937" lon="5.79808">
        <ele>341.8</ele>
        <time>2021-05-29T12:00:58Z</time>
      </trkpt>
      <trkpt lat="45.10938" lon="5.79807">
        <ele>341.6</ele>
        <time>2021-05-29T12:00:59Z</time>
      </trkpt>
      <trkpt lat="45.10939" lon="5.79805">
        <ele>341.6</ele>
        <time>2021-05-29T12:01:00Z</time>
      </trkpt>
      <trkpt lat="45.1094" lon="5.79804">
        <ele>342</ele>
        <time>2021-05-29T12:01:01Z</time>
      </trkpt>
      <trkpt lat="45.10941" lon="5.79802">
        <ele>342.4</ele>
        <time>2021-05-29T12:01:02Z</time>
      </trkpt>
      <trkpt lat="45.10942" lon="5.798">
        <ele>342.4</ele>
        <time>2021-05-29T12:01:03Z</time>
      </trkpt>
      <trkpt lat="45.10942" lon="5.79799">
        <ele>342.4</ele>
        <time>2021-05-29T12:01:04Z</time>
      </trkpt>
      <trkpt lat="45.10943" lon="5.79797">
        <ele>342.4</ele>
        <time>2021-05-29T12:01:05Z</time>
      </trkpt>
      <trkpt lat="45.10946" lon="5.79795">
        <ele>342.2</ele>
        <time>2021-05-29T12:01:06Z</time>
      </trkpt>
      <trkpt lat="45.10948" lon="5.79793">
        <ele>342.4</ele>
        <time>2021-05-29T12:01:07Z</time>
      </trkpt>
      <trkpt lat="45.1095" lon="5.79791">
        <ele>342.6</ele>
        <time>2021-05-29T12:01:08Z</time>
      </trkpt>
      <trkpt lat="45.10953" lon="5.79788">
        <ele>342.6</ele>
        <time>2021-05-29T12:01:09Z</time>
      </trkpt>
      <trkpt lat="45.10955" lon="5.79786">
        <ele>342.8</ele>
        <time>2021-05-29T12:01:10Z</time>
      </trkpt>
      <trkpt lat="45.10957" lon="5.79785">
        <ele>342.8</ele>
        <time>2021-05-29T12:01:11Z</time>
      </trkpt>
      <trkpt lat="45.10959" lon="5.79783">
        <ele>343</ele>
        <time>2021-05-29T12:01:12Z</time>
      </trkpt>
      <trkpt lat="45.10959" lon="5.79783">
        <ele>343</ele>
        <time>2021-05-29T12:01:13Z</time>
      </trkpt>
      <trkpt lat="45.10959" lon="5.79783">
        <ele>343.6</ele>
        <time>2021-05-29T12:01:14Z</time>
      </trkpt>
      <trkpt lat="45.10962" lon="5.79781">
        <ele>344</ele>
        <time>2021-05-29T12:01:15Z</time>
      </trkpt>
      <trkpt lat="45.10962" lon="5.79781">
        <ele>344.2</ele>
        <time>2021-05-29T12:01:16Z</time>
      </trkpt>
      <trkpt lat="45.10962" lon="5.79781">
        <ele>344.6</ele>
        <time>2021-05-29T12:01:17Z</time>
      </trkpt>
      <trkpt lat="45.10965" lon="5.79779">
        <ele>344.8</ele>
        <time>2021-05-29T12:01:18Z</time>
      </trkpt>
      <trkpt lat="45.10965" lon="5.79779">
        <ele>344.8</ele>
        <time>2021-05-29T12:01:19Z</time>
      </trkpt>
      <trkpt lat="45.10965" lon="5.79779">
        <ele>345</ele>
        <time>2021-05-29T12:01:20Z</time>
      </trkpt>
      <trkpt lat="45.10965" lon="5.79779">
        <ele>345.2</ele>
        <time>2021-05-29T12:01:21Z</time>
      </trkpt>
      <trkpt lat="45.10966" lon="5.79779">
        <ele>345</ele>
        <time>2021-05-29T12:01:22Z</time>
      </trkpt>
      <trkpt lat="45.10967" lon="5.79778">
        <ele>345</ele>
        <time>2021-05-29T12:01:23Z</time>
      </trkpt>
      <trkpt lat="45.10968" lon="5.79778">
        <ele>345.2</ele>
        <time>2021-05-29T12:01:24Z</time>
      </trkpt>
      <trkpt lat="45.10969" lon="5.79778">
        <ele>345.2</ele>
        <time>2021-05-29T12:01:25Z</time>
      </trkpt>
      <trkpt lat="45.1097" lon="5.79777">
        <ele>345.2</ele>
        <time>2021-05-29T12:01:26Z</time>
      </trkpt>
      <trkpt lat="45.10974" lon="5.79774">
        <ele>345.2</ele>
        <time>2021-05-29T12:01:27Z</time>
      </trkpt>
      <trkpt lat="45.10974" lon="5.79774">
        <ele>345.2</ele>
        <time>2021-05-29T12:01:28Z</time>
      </trkpt>
      <trkpt lat="45.10974" lon="5.79774">
        <ele>345.4</ele>
        <time>2021-05-29T12:01:29Z</time>
      </trkpt>
      <trkpt lat="45.10977" lon="5.79771">
        <ele>345.6</ele>
        <time>2021-05-29T12:01:30Z</time>
      </trkpt>
      <trkpt lat="45.10977" lon="5.79771">
        <ele>345.8</ele>
        <time>2021-05-29T12:01:31Z</time>
      </trkpt>
      <trkpt lat="45.10977" lon="5.79771">
        <ele>346</ele>
        <time>2021-05-29T12:01:32Z</time>
      </trkpt>
      <trkpt lat="45.10977" lon="5.79771">
        <ele>346.2</ele>
        <time>2021-05-29T12:01:33Z</time>
      </trkpt>
      <trkpt lat="45.10979" lon="5.79769">
        <ele>346.4</ele>
        <time>2021-05-29T12:01:34Z</time>
      </trkpt>
      <trkpt lat="45.10979" lon="5.79769">
        <ele>346.6</ele>
        <time>2021-05-29T12:01:35Z</time>
      </trkpt>
      <trkpt lat="45.10979" lon="5.79769">
        <ele>346.6</ele>
        <time>2021-05-29T12:01:36Z</time>
      </trkpt>
      <trkpt lat="45.10981" lon="5.79765">
        <ele>346.8</ele>
        <time>2021-05-29T12:01:37Z</time>
      </trkpt>
      <trkpt lat="45.10983" lon="5.79761">
        <ele>347</ele>
        <time>2021-05-29T12:01:38Z</time>
      </trkpt>
      <trkpt lat="45.10986" lon="5.79757">
        <ele>347</ele>
        <time>2021-05-29T12:01:39Z</time>
      </trkpt>
      <trkpt lat="45.10988" lon="5.79754">
        <ele>347.2</ele>
        <time>2021-05-29T12:01:40Z</time>
      </trkpt>
      <trkpt lat="45.1099" lon="5.7975">
        <ele>347.4</ele>
        <time>2021-05-29T12:01:41Z</time>
      </trkpt>
      <trkpt lat="45.10992" lon="5.79744">
        <ele>347.8</ele>
        <time>2021-05-29T12:01:42Z</time>
      </trkpt>
      <trkpt lat="45.10992" lon="5.79744">
        <ele>347.8</ele>
        <time>2021-05-29T12:01:43Z</time>
      </trkpt>
      <trkpt lat="45.10992" lon="5.79744">
        <ele>347.8</ele>
        <time>2021-05-29T12:01:44Z</time>
      </trkpt>
      <trkpt lat="45.10993" lon="5.79742">
        <ele>348.2</ele>
        <time>2021-05-29T12:01:45Z</time>
      </trkpt>
      <trkpt lat="45.10994" lon="5.7974">
        <ele>348.4</ele>
        <time>2021-05-29T12:01:46Z</time>
      </trkpt>
      <trkpt lat="45.10995" lon="5.79739">
        <ele>348.8</ele>
        <time>2021-05-29T12:01:47Z</time>
      </trkpt>
      <trkpt lat="45.10997" lon="5.79737">
        <ele>349</ele>
        <time>2021-05-29T12:01:48Z</time>
      </trkpt>
      <trkpt lat="45.10998" lon="5.79736">
        <ele>349.6</ele>
        <time>2021-05-29T12:01:49Z</time>
      </trkpt>
      <trkpt lat="45.10999" lon="5.79734">
        <ele>349.8</ele>
        <time>2021-05-29T12:01:50Z</time>
      </trkpt>
      <trkpt lat="45.10999" lon="5.79733">
        <ele>349.8</ele>
        <time>2021-05-29T12:01:51Z</time>
      </trkpt>
      <trkpt lat="45.11" lon="5.79732">
        <ele>349.8</ele>
        <time>2021-05-29T12:01:52Z</time>
      </trkpt>
      <trkpt lat="45.11001" lon="5.7973">
        <ele>350</ele>
        <time>2021-05-29T12:01:53Z</time>
      </trkpt>
      <trkpt lat="45.11001" lon="5.79729">
        <ele>350.2</ele>
        <time>2021-05-29T12:01:54Z</time>
      </trkpt>
      <trkpt lat="45.11002" lon="5.79728">
        <ele>350.2</ele>
        <time>2021-05-29T12:01:55Z</time>
      </trkpt>
      <trkpt lat="45.11002" lon="5.79727">
        <ele>350.4</ele>
        <time>2021-05-29T12:01:56Z</time>
      </trkpt>
      <trkpt lat="45.11003" lon="5.79726">
        <ele>350.6</ele>
        <time>2021-05-29T12:01:57Z</time>
      </trkpt>
      <trkpt lat="45.11003" lon="5.79724">
        <ele>350.8</ele>
        <time>2021-05-29T12:01:58Z</time>
      </trkpt>
      <trkpt lat="45.11004" lon="5.79723">
        <ele>350.8</ele>
        <time>2021-05-29T12:01:59Z</time>
      </trkpt>
      <trkpt lat="45.11003" lon="5.79722">
        <ele>351</ele>
        <time>2021-05-29T12:02:00Z</time>
      </trkpt>
      <trkpt lat="45.11003" lon="5.79721">
        <ele>351.2</ele>
        <time>2021-05-29T12:02:01Z</time>
      </trkpt>
      <trkpt lat="45.11003" lon="5.7972">
        <ele>351.2</ele>
        <time>2021-05-29T12:02:02Z</time>
      </trkpt>
      <trkpt lat="45.11002" lon="5.79719">
        <ele>351.6</ele>
        <time>2021-05-29T12:02:03Z</time>
      </trkpt>
      <trkpt lat="45.11002" lon="5.79718">
        <ele>351.6</ele>
        <time>2021-05-29T12:02:04Z</time>
      </trkpt>
      <trkpt lat="45.11002" lon="5.79717">
        <ele>351.8</ele>
        <time>2021-05-29T12:02:05Z</time>
      </trkpt>
      <trkpt lat="45.11001" lon="5.79716">
        <ele>351.8</ele>
        <time>2021-05-29T12:02:06Z</time>
      </trkpt>
      <trkpt lat="45.11001" lon="5.79715">
        <ele>352.2</ele>
        <time>2021-05-29T12:02:07Z</time>
      </trkpt>
      <trkpt lat="45.11001" lon="5.79714">
        <ele>352.4</ele>
        <time>2021-05-29T12:02:08Z</time>
      </trkpt>
      <trkpt lat="45.11" lon="5.79713">
        <ele>352.8</ele>
        <time>2021-05-29T12:02:09Z</time>
      </trkpt>
      <trkpt lat="45.11" lon="5.79712">
        <ele>353</ele>
        <time>2021-05-29T12:02:10Z</time>
      </trkpt>
      <trkpt lat="45.11" lon="5.79711">
        <ele>353.2</ele>
        <time>2021-05-29T12:02:11Z</time>
      </trkpt>
      <trkpt lat="45.10999" lon="5.7971">
        <ele>353.6</ele>
        <time>2021-05-29T12:02:12Z</time>
      </trkpt>
      <trkpt lat="45.10998" lon="5.79709">
        <ele>354</ele>
        <time>2021-05-29T12:02:13Z</time>
      </trkpt>
      <trkpt lat="45.10998" lon="5.79709">
        <ele>354.4</ele>
        <time>2021-05-29T12:02:14Z</time>
      </trkpt>
      <trkpt lat="45.10997" lon="5.79708">
        <ele>354.6</ele>
        <time>2021-05-29T12:02:15Z</time>
      </trkpt>
      <trkpt lat="45.10997" lon="5.79707">
        <ele>354.6</ele>
        <time>2021-05-29T12:02:16Z</time>
      </trkpt>
      <trkpt lat="45.10996" lon="5.79706">
        <ele>354.8</ele>
        <time>2021-05-29T12:02:17Z</time>
      </trkpt>
      <trkpt lat="45.10996" lon="5.79706">
        <ele>355</ele>
        <time>2021-05-29T12:02:18Z</time>
      </trkpt>
      <trkpt lat="45.10995" lon="5.79705">
        <ele>355.4</ele>
        <time>2021-05-29T12:02:19Z</time>
      </trkpt>
      <trkpt lat="45.10994" lon="5.79704">
        <ele>355.6</ele>
        <time>2021-05-29T12:02:20Z</time>
      </trkpt>
      <trkpt lat="45.10994" lon="5.79703">
        <ele>356</ele>
        <time>2021-05-29T12:02:21Z</time>
      </trkpt>
      <trkpt lat="45.10993" lon="5.79703">
        <ele>356</ele>
        <time>2021-05-29T12:02:22Z</time>
      </trkpt>
      <trkpt lat="45.10993" lon="5.79702">
        <ele>356.2</ele>
        <time>2021-05-29T12:02:23Z</time>
      </trkpt>
      <trkpt lat="45.10992" lon="5.79701">
        <ele>356.4</ele>
        <time>2021-05-29T12:02:24Z</time>
      </trkpt>
      <trkpt lat="45.10991" lon="5.797">
        <ele>356.6</ele>
        <time>2021-05-29T12:02:25Z</time>
      </trkpt>
      <trkpt lat="45.1099" lon="5.79699">
        <ele>357</ele>
        <time>2021-05-29T12:02:26Z</time>
      </trkpt>
      <trkpt lat="45.10989" lon="5.79698">
        <ele>357.4</ele>
        <time>2021-05-29T12:02:27Z</time>
      </trkpt>
      <trkpt lat="45.10988" lon="5.79698">
        <ele>357.8</ele>
        <time>2021-05-29T12:02:28Z</time>
      </trkpt>
      <trkpt lat="45.10987" lon="5.79697">
        <ele>358</ele>
        <time>2021-05-29T12:02:29Z</time>
      </trkpt>
      <trkpt lat="45.10986" lon="5.79696">
        <ele>358.2</ele>
        <time>2021-05-29T12:02:30Z</time>
      </trkpt>
      <trkpt lat="45.10985" lon="5.79695">
        <ele>358.6</ele>
        <time>2021-05-29T12:02:31Z</time>
      </trkpt>
      <trkpt lat="45.10984" lon="5.79694">
        <ele>358.8</ele>
        <time>2021-05-29T12:02:32Z</time>
      </trkpt>
      <trkpt lat="45.10984" lon="5.79693">
        <ele>359</ele>
        <time>2021-05-29T12:02:33Z</time>
      </trkpt>
      <trkpt lat="45.10984" lon="5.79692">
        <ele>359.4</ele>
        <time>2021-05-29T12:02:34Z</time>
      </trkpt>
      <trkpt lat="45.10984" lon="5.79691">
        <ele>359.6</ele>
        <time>2021-05-29T12:02:35Z</time>
      </trkpt>
      <trkpt lat="45.10984" lon="5.79689">
        <ele>359.6</ele>
        <time>2021-05-29T12:02:36Z</time>
      </trkpt>
      <trkpt lat="45.10984" lon="5.79688">
        <ele>359.8</ele>
        <time>2021-05-29T12:02:37Z</time>
      </trkpt>
      <trkpt lat="45.10984" lon="5.79687">
        <ele>359.8</ele>
        <time>2021-05-29T12:02:38Z</time>
      </trkpt>
      <trkpt lat="45.10983" lon="5.79686">
        <ele>360</ele>
        <time>2021-05-29T12:02:39Z</time>
      </trkpt>
      <trkpt lat="45.10983" lon="5.79685">
        <ele>360.4</ele>
        <time>2021-05-29T12:02:40Z</time>
      </trkpt>
      <trkpt lat="45.10983" lon="5.79684">
        <ele>360.6</ele>
        <time>2021-05-29T12:02:41Z</time>
      </trkpt>
      <trkpt lat="45.10983" lon="5.79683">
        <ele>361</ele>
        <time>2021-05-29T12:02:42Z</time>
      </trkpt>
      <trkpt lat="45.10983" lon="5.79681">
        <ele>361.2</ele>
        <time>2021-05-29T12:02:43Z</time>
      </trkpt>
      <trkpt lat="45.10983" lon="5.7968">
        <ele>361.4</ele>
        <time>2021-05-29T12:02:44Z</time>
      </trkpt>
      <trkpt lat="45.10984" lon="5.79678">
        <ele>361.4</ele>
        <time>2021-05-29T12:02:45Z</time>
      </trkpt>
      <trkpt lat="45.10984" lon="5.79677">
        <ele>361.8</ele>
        <time>2021-05-29T12:02:46Z</time>
      </trkpt>
      <trkpt lat="45.10984" lon="5.79675">
        <ele>362</ele>
        <time>2021-05-29T12:02:47Z</time>
      </trkpt>
      <trkpt lat="45.10984" lon="5.79674">
        <ele>362.6</ele>
        <time>2021-05-29T12:02:48Z</time>
      </trkpt>
      <trkpt lat="45.10984" lon="5.79672">
        <ele>362.8</ele>
        <time>2021-05-29T12:02:49Z</time>
      </trkpt>
      <trkpt lat="45.10984" lon="5.79671">
        <ele>363</ele>
        <time>2021-05-29T12:02:50Z</time>
      </trkpt>
      <trkpt lat="45.10985" lon="5.79669">
        <ele>363.4</ele>
        <time>2021-05-29T12:02:51Z</time>
      </trkpt>
      <trkpt lat="45.10984" lon="5.79668">
        <ele>363.6</ele>
        <time>2021-05-29T12:02:52Z</time>
      </trkpt>
      <trkpt lat="45.10984" lon="5.79666">
        <ele>363.8</ele>
        <time>2021-05-29T12:02:53Z</time>
      </trkpt>
      <trkpt lat="45.10984" lon="5.79665">
        <ele>364</ele>
        <time>2021-05-29T12:02:54Z</time>
      </trkpt>
      <trkpt lat="45.10983" lon="5.79664">
        <ele>364.2</ele>
        <time>2021-05-29T12:02:55Z</time>
      </trkpt>
      <trkpt lat="45.10983" lon="5.79662">
        <ele>364.2</ele>
        <time>2021-05-29T12:02:56Z</time>
      </trkpt>
      <trkpt lat="45.10983" lon="5.79661">
        <ele>364.4</ele>
        <time>2021-05-29T12:02:57Z</time>
      </trkpt>
      <trkpt lat="45.10982" lon="5.79659">
        <ele>364.6</ele>
        <time>2021-05-29T12:02:58Z</time>
      </trkpt>
      <trkpt lat="45.10982" lon="5.79658">
        <ele>365</ele>
        <time>2021-05-29T12:02:59Z</time>
      </trkpt>
      <trkpt lat="45.10982" lon="5.79657">
        <ele>365.4</ele>
        <time>2021-05-29T12:03:00Z</time>
      </trkpt>
      <trkpt lat="45.10981" lon="5.79655">
        <ele>365.6</ele>
        <time>2021-05-29T12:03:01Z</time>
      </trkpt>
      <trkpt lat="45.10981" lon="5.79654">
        <ele>365.8</ele>
        <time>2021-05-29T12:03:02Z</time>
      </trkpt>
      <trkpt lat="45.1098" lon="5.79653">
        <ele>366</ele>
        <time>2021-05-29T12:03:03Z</time>
      </trkpt>
      <trkpt lat="45.1098" lon="5.79651">
        <ele>366.2</ele>
        <time>2021-05-29T12:03:04Z</time>
      </trkpt>
      <trkpt lat="45.10979" lon="5.7965">
        <ele>366.2</ele>
        <time>2021-05-29T12:03:05Z</time>
      </trkpt>
      <trkpt lat="45.10979" lon="5.79649">
        <ele>366.6</ele>
        <time>2021-05-29T12:03:06Z</time>
      </trkpt>
      <trkpt lat="45.10978" lon="5.79648">
        <ele>366.8</ele>
        <time>2021-05-29T12:03:07Z</time>
      </trkpt>
      <trkpt lat="45.10977" lon="5.79646">
        <ele>367</ele>
        <time>2021-05-29T12:03:08Z</time>
      </trkpt>
      <trkpt lat="45.10977" lon="5.79645">
        <ele>367.4</ele>
        <time>2021-05-29T12:03:09Z</time>
      </trkpt>
      <trkpt lat="45.10976" lon="5.79644">
        <ele>367.6</ele>
        <time>2021-05-29T12:03:10Z</time>
      </trkpt>
      <trkpt lat="45.10975" lon="5.79643">
        <ele>367.8</ele>
        <time>2021-05-29T12:03:11Z</time>
      </trkpt>
      <trkpt lat="45.10975" lon="5.79641">
        <ele>368</ele>
        <time>2021-05-29T12:03:12Z</time>
      </trkpt>
      <trkpt lat="45.10974" lon="5.7964">
        <ele>368.2</ele>
        <time>2021-05-29T12:03:13Z</time>
      </trkpt>
      <trkpt lat="45.10973" lon="5.79639">
        <ele>368.4</ele>
        <time>2021-05-29T12:03:14Z</time>
      </trkpt>
      <trkpt lat="45.10973" lon="5.79638">
        <ele>368.6</ele>
        <time>2021-05-29T12:03:15Z</time>
      </trkpt>
      <trkpt lat="45.10972" lon="5.79637">
        <ele>369</ele>
        <time>2021-05-29T12:03:16Z</time>
      </trkpt>
      <trkpt lat="45.10971" lon="5.79635">
        <ele>369.4</ele>
        <time>2021-05-29T12:03:17Z</time>
      </trkpt>
      <trkpt lat="45.1097" lon="5.79634">
        <ele>369.6</ele>
        <time>2021-05-29T12:03:18Z</time>
      </trkpt>
      <trkpt lat="45.1097" lon="5.79633">
        <ele>369.8</ele>
        <time>2021-05-29T12:03:19Z</time>
      </trkpt>
      <trkpt lat="45.10969" lon="5.79632">
        <ele>370</ele>
        <time>2021-05-29T12:03:20Z</time>
      </trkpt>
      <trkpt lat="45.10969" lon="5.79631">
        <ele>370.4</ele>
        <time>2021-05-29T12:03:21Z</time>
      </trkpt>
      <trkpt lat="45.10969" lon="5.79631">
        <ele>370.6</ele>
        <time>2021-05-29T12:03:22Z</time>
      </trkpt>
      <trkpt lat="45.10968" lon="5.7963">
        <ele>371</ele>
        <time>2021-05-29T12:03:23Z</time>
      </trkpt>
      <trkpt lat="45.10968" lon="5.79629">
        <ele>371.4</ele>
        <time>2021-05-29T12:03:24Z</time>
      </trkpt>
      <trkpt lat="45.10967" lon="5.79628">
        <ele>371.6</ele>
        <time>2021-05-29T12:03:25Z</time>
      </trkpt>
      <trkpt lat="45.10967" lon="5.79627">
        <ele>371.8</ele>
        <time>2021-05-29T12:03:26Z</time>
      </trkpt>
      <trkpt lat="45.10967" lon="5.79627">
        <ele>371.8</ele>
        <time>2021-05-29T12:03:27Z</time>
      </trkpt>
      <trkpt lat="45.10966" lon="5.79626">
        <ele>372</ele>
        <time>2021-05-29T12:03:28Z</time>
      </trkpt>
      <trkpt lat="45.10966" lon="5.79625">
        <ele>372.2</ele>
        <time>2021-05-29T12:03:29Z</time>
      </trkpt>
      <trkpt lat="45.10965" lon="5.79624">
        <ele>372.4</ele>
        <time>2021-05-29T12:03:30Z</time>
      </trkpt>
      <trkpt lat="45.10965" lon="5.79623">
        <ele>372.4</ele>
        <time>2021-05-29T12:03:31Z</time>
      </trkpt>
      <trkpt lat="45.10965" lon="5.79623">
        <ele>372.8</ele>
        <time>2021-05-29T12:03:32Z</time>
      </trkpt>
      <trkpt lat="45.10964" lon="5.79622">
        <ele>373</ele>
        <time>2021-05-29T12:03:33Z</time>
      </trkpt>
      <trkpt lat="45.10964" lon="5.79621">
        <ele>373.2</ele>
        <time>2021-05-29T12:03:34Z</time>
      </trkpt>
      <trkpt lat="45.10963" lon="5.79621">
        <ele>373.6</ele>
        <time>2021-05-29T12:03:35Z</time>
      </trkpt>
      <trkpt lat="45.10962" lon="5.7962">
        <ele>374</ele>
        <time>2021-05-29T12:03:36Z</time>
      </trkpt>
      <trkpt lat="45.10961" lon="5.79619">
        <ele>374.2</ele>
        <time>2021-05-29T12:03:37Z</time>
      </trkpt>
      <trkpt lat="45.1096" lon="5.79619">
        <ele>374.6</ele>
        <time>2021-05-29T12:03:38Z</time>
      </trkpt>
      <trkpt lat="45.1096" lon="5.79618">
        <ele>374.8</ele>
        <time>2021-05-29T12:03:39Z</time>
      </trkpt>
      <trkpt lat="45.10959" lon="5.79618">
        <ele>375</ele>
        <time>2021-05-29T12:03:40Z</time>
      </trkpt>
      <trkpt lat="45.10958" lon="5.79617">
        <ele>375.4</ele>
        <time>2021-05-29T12:03:41Z</time>
      </trkpt>
      <trkpt lat="45.10957" lon="5.79616">
        <ele>375.8</ele>
        <time>2021-05-29T12:03:42Z</time>
      </trkpt>
      <trkpt lat="45.10956" lon="5.79616">
        <ele>376</ele>
        <time>2021-05-29T12:03:43Z</time>
      </trkpt>
      <trkpt lat="45.10956" lon="5.79615">
        <ele>376.2</ele>
        <time>2021-05-29T12:03:44Z</time>
      </trkpt>
      <trkpt lat="45.10955" lon="5.79614">
        <ele>376.6</ele>
        <time>2021-05-29T12:03:45Z</time>
      </trkpt>
      <trkpt lat="45.10953" lon="5.79614">
        <ele>376.8</ele>
        <time>2021-05-29T12:03:46Z</time>
      </trkpt>
      <trkpt lat="45.10952" lon="5.79613">
        <ele>376.8</ele>
        <time>2021-05-29T12:03:47Z</time>
      </trkpt>
      <trkpt lat="45.10951" lon="5.79612">
        <ele>377</ele>
        <time>2021-05-29T12:03:48Z</time>
      </trkpt>
      <trkpt lat="45.1095" lon="5.79611">
        <ele>377.4</ele>
        <time>2021-05-29T12:03:49Z</time>
      </trkpt>
      <trkpt lat="45.10949" lon="5.7961">
        <ele>377.6</ele>
        <time>2021-05-29T12:03:50Z</time>
      </trkpt>
      <trkpt lat="45.10948" lon="5.79609">
        <ele>378</ele>
        <time>2021-05-29T12:03:51Z</time>
      </trkpt>
      <trkpt lat="45.10947" lon="5.79608">
        <ele>378.2</ele>
        <time>2021-05-29T12:03:52Z</time>
      </trkpt>
      <trkpt lat="45.10946" lon="5.79607">
        <ele>378.6</ele>
        <time>2021-05-29T12:03:53Z</time>
      </trkpt>
      <trkpt lat="45.10946" lon="5.79606">
        <ele>378.8</ele>
        <time>2021-05-29T12:03:54Z</time>
      </trkpt>
      <trkpt lat="45.10945" lon="5.79604">
        <ele>379.2</ele>
        <time>2021-05-29T12:03:55Z</time>
      </trkpt>
      <trkpt lat="45.10944" lon="5.79603">
        <ele>379.6</ele>
        <time>2021-05-29T12:03:56Z</time>
      </trkpt>
      <trkpt lat="45.10944" lon="5.79601">
        <ele>379.8</ele>
        <time>2021-05-29T12:03:57Z</time>
      </trkpt>
      <trkpt lat="45.10943" lon="5.796">
        <ele>379.8</ele>
        <time>2021-05-29T12:03:58Z</time>
      </trkpt>
      <trkpt lat="45.10942" lon="5.79599">
        <ele>379.8</ele>
        <time>2021-05-29T12:03:59Z</time>
      </trkpt>
      <trkpt lat="45.10941" lon="5.79597">
        <ele>380</ele>
        <time>2021-05-29T12:04:00Z</time>
      </trkpt>
      <trkpt lat="45.1094" lon="5.79596">
        <ele>380.2</ele>
        <time>2021-05-29T12:04:01Z</time>
      </trkpt>
      <trkpt lat="45.10939" lon="5.79596">
        <ele>380.4</ele>
        <time>2021-05-29T12:04:02Z</time>
      </trkpt>
      <trkpt lat="45.10938" lon="5.79595">
        <ele>380.8</ele>
        <time>2021-05-29T12:04:03Z</time>
      </trkpt>
      <trkpt lat="45.10937" lon="5.79594">
        <ele>381.2</ele>
        <time>2021-05-29T12:04:04Z</time>
      </trkpt>
      <trkpt lat="45.10936" lon="5.79594">
        <ele>381.4</ele>
        <time>2021-05-29T12:04:05Z</time>
      </trkpt>
      <trkpt lat="45.10935" lon="5.79593">
        <ele>381.8</ele>
        <time>2021-05-29T12:04:06Z</time>
      </trkpt>
      <trkpt lat="45.10934" lon="5.79592">
        <ele>381.8</ele>
        <time>2021-05-29T12:04:07Z</time>
      </trkpt>
      <trkpt lat="45.10932" lon="5.79591">
        <ele>382</ele>
        <time>2021-05-29T12:04:08Z</time>
      </trkpt>
      <trkpt lat="45.10932" lon="5.7959">
        <ele>382.2</ele>
        <time>2021-05-29T12:04:09Z</time>
      </trkpt>
      <trkpt lat="45.10931" lon="5.79589">
        <ele>382.4</ele>
        <time>2021-05-29T12:04:10Z</time>
      </trkpt>
      <trkpt lat="45.1093" lon="5.79588">
        <ele>382.6</ele>
        <time>2021-05-29T12:04:11Z</time>
      </trkpt>
      <trkpt lat="45.1093" lon="5.79587">
        <ele>382.8</ele>
        <time>2021-05-29T12:04:12Z</time>
      </trkpt>
      <trkpt lat="45.10929" lon="5.79586">
        <ele>383.2</ele>
        <time>2021-05-29T12:04:13Z</time>
      </trkpt>
      <trkpt lat="45.10928" lon="5.79585">
        <ele>383.2</ele>
        <time>2021-05-29T12:04:14Z</time>
      </trkpt>
      <trkpt lat="45.10928" lon="5.79584">
        <ele>383.6</ele>
        <time>2021-05-29T12:04:15Z</time>
      </trkpt>
      <trkpt lat="45.10927" lon="5.79583">
        <ele>383.8</ele>
        <time>2021-05-29T12:04:16Z</time>
      </trkpt>
      <trkpt lat="45.10926" lon="5.79581">
        <ele>384.2</ele>
        <time>2021-05-29T12:04:17Z</time>
      </trkpt>
      <trkpt lat="45.10926" lon="5.7958">
        <ele>384.4</ele>
        <time>2021-05-29T12:04:18Z</time>
      </trkpt>
      <trkpt lat="45.10925" lon="5.79579">
        <ele>384.4</ele>
        <time>2021-05-29T12:04:19Z</time>
      </trkpt>
      <trkpt lat="45.10925" lon="5.79577">
        <ele>384.8</ele>
        <time>2021-05-29T12:04:20Z</time>
      </trkpt>
      <trkpt lat="45.10924" lon="5.79576">
        <ele>385</ele>
        <time>2021-05-29T12:04:21Z</time>
      </trkpt>
      <trkpt lat="45.10924" lon="5.79574">
        <ele>385.2</ele>
        <time>2021-05-29T12:04:22Z</time>
      </trkpt>
      <trkpt lat="45.10923" lon="5.79573">
        <ele>385.4</ele>
        <time>2021-05-29T12:04:23Z</time>
      </trkpt>
      <trkpt lat="45.10923" lon="5.79572">
        <ele>385.6</ele>
        <time>2021-05-29T12:04:24Z</time>
      </trkpt>
      <trkpt lat="45.10922" lon="5.7957">
        <ele>386</ele>
        <time>2021-05-29T12:04:25Z</time>
      </trkpt>
      <trkpt lat="45.10922" lon="5.79569">
        <ele>386.2</ele>
        <time>2021-05-29T12:04:26Z</time>
      </trkpt>
      <trkpt lat="45.10921" lon="5.79567">
        <ele>386.4</ele>
        <time>2021-05-29T12:04:27Z</time>
      </trkpt>
      <trkpt lat="45.10921" lon="5.79566">
        <ele>386.8</ele>
        <time>2021-05-29T12:04:28Z</time>
      </trkpt>
      <trkpt lat="45.1092" lon="5.79564">
        <ele>387</ele>
        <time>2021-05-29T12:04:29Z</time>
      </trkpt>
      <trkpt lat="45.1092" lon="5.79562">
        <ele>387.2</ele>
        <time>2021-05-29T12:04:30Z</time>
      </trkpt>
      <trkpt lat="45.10919" lon="5.79561">
        <ele>387.2</ele>
        <time>2021-05-29T12:04:31Z</time>
      </trkpt>
      <trkpt lat="45.10919" lon="5.79559">
        <ele>387.4</ele>
        <time>2021-05-29T12:04:32Z</time>
      </trkpt>
      <trkpt lat="45.10918" lon="5.79558">
        <ele>387.6</ele>
        <time>2021-05-29T12:04:33Z</time>
      </trkpt>
      <trkpt lat="45.10918" lon="5.79556">
        <ele>387.6</ele>
        <time>2021-05-29T12:04:34Z</time>
      </trkpt>
      <trkpt lat="45.10917" lon="5.79555">
        <ele>387.8</ele>
        <time>2021-05-29T12:04:35Z</time>
      </trkpt>
      <trkpt lat="45.10917" lon="5.79554">
        <ele>387.8</ele>
        <time>2021-05-29T12:04:36Z</time>
      </trkpt>
      <trkpt lat="45.10916" lon="5.79552">
        <ele>388.2</ele>
        <time>2021-05-29T12:04:37Z</time>
      </trkpt>
      <trkpt lat="45.10915" lon="5.79551">
        <ele>388.4</ele>
        <time>2021-05-29T12:04:38Z</time>
      </trkpt>
      <trkpt lat="45.10915" lon="5.7955">
        <ele>388.8</ele>
        <time>2021-05-29T12:04:39Z</time>
      </trkpt>
      <trkpt lat="45.10914" lon="5.79549">
        <ele>389</ele>
        <time>2021-05-29T12:04:40Z</time>
      </trkpt>
      <trkpt lat="45.10914" lon="5.79548">
        <ele>389.4</ele>
        <time>2021-05-29T12:04:41Z</time>
      </trkpt>
      <trkpt lat="45.10913" lon="5.79546">
        <ele>389.6</ele>
        <time>2021-05-29T12:04:42Z</time>
      </trkpt>
      <trkpt lat="45.10913" lon="5.79545">
        <ele>390</ele>
        <time>2021-05-29T12:04:43Z</time>
      </trkpt>
      <trkpt lat="45.10912" lon="5.79544">
        <ele>390.2</ele>
        <time>2021-05-29T12:04:44Z</time>
      </trkpt>
      <trkpt lat="45.10912" lon="5.79543">
        <ele>390.6</ele>
        <time>2021-05-29T12:04:45Z</time>
      </trkpt>
      <trkpt lat="45.10911" lon="5.79543">
        <ele>390.6</ele>
        <time>2021-05-29T12:04:46Z</time>
      </trkpt>
      <trkpt lat="45.10911" lon="5.79542">
        <ele>391</ele>
        <time>2021-05-29T12:04:47Z</time>
      </trkpt>
      <trkpt lat="45.1091" lon="5.79541">
        <ele>391.2</ele>
        <time>2021-05-29T12:04:48Z</time>
      </trkpt>
      <trkpt lat="45.1091" lon="5.7954">
        <ele>391.4</ele>
        <time>2021-05-29T12:04:49Z</time>
      </trkpt>
      <trkpt lat="45.10909" lon="5.79539">
        <ele>391.6</ele>
        <time>2021-05-29T12:04:50Z</time>
      </trkpt>
      <trkpt lat="45.10909" lon="5.79538">
        <ele>391.6</ele>
        <time>2021-05-29T12:04:51Z</time>
      </trkpt>
      <trkpt lat="45.10908" lon="5.79537">
        <ele>392</ele>
        <time>2021-05-29T12:04:52Z</time>
      </trkpt>
      <trkpt lat="45.10908" lon="5.79537">
        <ele>392.2</ele>
        <time>2021-05-29T12:04:53Z</time>
      </trkpt>
      <trkpt lat="45.10907" lon="5.79536">
        <ele>392.4</ele>
        <time>2021-05-29T12:04:54Z</time>
      </trkpt>
      <trkpt lat="45.10907" lon="5.79535">
        <ele>392.6</ele>
        <time>2021-05-29T12:04:55Z</time>
      </trkpt>
      <trkpt lat="45.10906" lon="5.79533">
        <ele>393.2</ele>
        <time>2021-05-29T12:04:56Z</time>
      </trkpt>
      <trkpt lat="45.10906" lon="5.79532">
        <ele>393.4</ele>
        <time>2021-05-29T12:04:57Z</time>
      </trkpt>
      <trkpt lat="45.10905" lon="5.79531">
        <ele>393.6</ele>
        <time>2021-05-29T12:04:58Z</time>
      </trkpt>
      <trkpt lat="45.10905" lon="5.79529">
        <ele>394</ele>
        <time>2021-05-29T12:04:59Z</time>
      </trkpt>
      <trkpt lat="45.10905" lon="5.79528">
        <ele>394.2</ele>
        <time>2021-05-29T12:05:00Z</time>
      </trkpt>
      <trkpt lat="45.10904" lon="5.79526">
        <ele>394.4</ele>
        <time>2021-05-29T12:05:01Z</time>
      </trkpt>
      <trkpt lat="45.10904" lon="5.79525">
        <ele>394.8</ele>
        <time>2021-05-29T12:05:02Z</time>
      </trkpt>
      <trkpt lat="45.10903" lon="5.79523">
        <ele>395</ele>
        <time>2021-05-29T12:05:03Z</time>
      </trkpt>
      <trkpt lat="45.10903" lon="5.79522">
        <ele>395</ele>
        <time>2021-05-29T12:05:04Z</time>
      </trkpt>
      <trkpt lat="45.10903" lon="5.79521">
        <ele>395.2</ele>
        <time>2021-05-29T12:05:05Z</time>
      </trkpt>
      <trkpt lat="45.10903" lon="5.7952">
        <ele>395.6</ele>
        <time>2021-05-29T12:05:06Z</time>
      </trkpt>
      <trkpt lat="45.10902" lon="5.79519">
        <ele>395.6</ele>
        <time>2021-05-29T12:05:07Z</time>
      </trkpt>
      <trkpt lat="45.10902" lon="5.79518">
        <ele>395.8</ele>
        <time>2021-05-29T12:05:08Z</time>
      </trkpt>
      <trkpt lat="45.10902" lon="5.79517">
        <ele>396</ele>
        <time>2021-05-29T12:05:09Z</time>
      </trkpt>
      <trkpt lat="45.10902" lon="5.79516">
        <ele>396.4</ele>
        <time>2021-05-29T12:05:10Z</time>
      </trkpt>
      <trkpt lat="45.10901" lon="5.79515">
        <ele>396.6</ele>
        <time>2021-05-29T12:05:11Z</time>
      </trkpt>
      <trkpt lat="45.10901" lon="5.79514">
        <ele>396.6</ele>
        <time>2021-05-29T12:05:12Z</time>
      </trkpt>
      <trkpt lat="45.10901" lon="5.79513">
        <ele>397</ele>
        <time>2021-05-29T12:05:13Z</time>
      </trkpt>
      <trkpt lat="45.10901" lon="5.79512">
        <ele>397.2</ele>
        <time>2021-05-29T12:05:14Z</time>
      </trkpt>
      <trkpt lat="45.10901" lon="5.79511">
        <ele>397.4</ele>
        <time>2021-05-29T12:05:15Z</time>
      </trkpt>
      <trkpt lat="45.109" lon="5.79511">
        <ele>397.6</ele>
        <time>2021-05-29T12:05:16Z</time>
      </trkpt>
      <trkpt lat="45.109" lon="5.7951">
        <ele>397.8</ele>
        <time>2021-05-29T12:05:17Z</time>
      </trkpt>
      <trkpt lat="45.109" lon="5.79509">
        <ele>398</ele>
        <time>2021-05-29T12:05:18Z</time>
      </trkpt>
      <trkpt lat="45.109" lon="5.79508">
        <ele>398.4</ele>
        <time>2021-05-29T12:05:19Z</time>
      </trkpt>
      <trkpt lat="45.109" lon="5.79508">
        <ele>398.6</ele>
        <time>2021-05-29T12:05:20Z</time>
      </trkpt>
      <trkpt lat="45.109" lon="5.79507">
        <ele>398.8</ele>
        <time>2021-05-29T12:05:21Z</time>
      </trkpt>
      <trkpt lat="45.10899" lon="5.79507">
        <ele>399.2</ele>
        <time>2021-05-29T12:05:22Z</time>
      </trkpt>
      <trkpt lat="45.10899" lon="5.79506">
        <ele>399.4</ele>
        <time>2021-05-29T12:05:23Z</time>
      </trkpt>
      <trkpt lat="45.10899" lon="5.79505">
        <ele>399.6</ele>
        <time>2021-05-29T12:05:24Z</time>
      </trkpt>
      <trkpt lat="45.10899" lon="5.79505">
        <ele>399.8</ele>
        <time>2021-05-29T12:05:25Z</time>
      </trkpt>
      <trkpt lat="45.10899" lon="5.79504">
        <ele>400</ele>
        <time>2021-05-29T12:05:26Z</time>
      </trkpt>
      <trkpt lat="45.10899" lon="5.79503">
        <ele>400</ele>
        <time>2021-05-29T12:05:27Z</time>
      </trkpt>
      <trkpt lat="45.10898" lon="5.79503">
        <ele>400.2</ele>
        <time>2021-05-29T12:05:28Z</time>
      </trkpt>
      <trkpt lat="45.10898" lon="5.79502">
        <ele>400.4</ele>
        <time>2021-05-29T12:05:29Z</time>
      </trkpt>
      <trkpt lat="45.10898" lon="5.79501">
        <ele>400.6</ele>
        <time>2021-05-29T12:05:30Z</time>
      </trkpt>
      <trkpt lat="45.10898" lon="5.79501">
        <ele>400.6</ele>
        <time>2021-05-29T12:05:31Z</time>
      </trkpt>
      <trkpt lat="45.10898" lon="5.795">
        <ele>400.6</ele>
        <time>2021-05-29T12:05:32Z</time>
      </trkpt>
      <trkpt lat="45.10898" lon="5.795">
        <ele>400.8</ele>
        <time>2021-05-29T12:05:33Z</time>
      </trkpt>
      <trkpt lat="45.10898" lon="5.795">
        <ele>401.2</ele>
        <time>2021-05-29T12:05:34Z</time>
      </trkpt>
      <trkpt lat="45.10897" lon="5.79496">
        <ele>401.6</ele>
        <time>2021-05-29T12:05:35Z</time>
      </trkpt>
      <trkpt lat="45.10897" lon="5.79496">
        <ele>402.2</ele>
        <time>2021-05-29T12:05:36Z</time>
      </trkpt>
      <trkpt lat="45.10897" lon="5.79496">
        <ele>402.4</ele>
        <time>2021-05-29T12:05:37Z</time>
      </trkpt>
      <trkpt lat="45.10897" lon="5.79495">
        <ele>402.8</ele>
        <time>2021-05-29T12:05:38Z</time>
      </trkpt>
      <trkpt lat="45.10897" lon="5.79494">
        <ele>402.8</ele>
        <time>2021-05-29T12:05:39Z</time>
      </trkpt>
      <trkpt lat="45.10897" lon="5.79493">
        <ele>403.2</ele>
        <time>2021-05-29T12:05:40Z</time>
      </trkpt>
      <trkpt lat="45.10897" lon="5.79491">
        <ele>403.4</ele>
        <time>2021-05-29T12:05:41Z</time>
      </trkpt>
      <trkpt lat="45.10897" lon="5.7949">
        <ele>403.8</ele>
        <time>2021-05-29T12:05:42Z</time>
      </trkpt>
      <trkpt lat="45.10897" lon="5.79489">
        <ele>404.2</ele>
        <time>2021-05-29T12:05:43Z</time>
      </trkpt>
      <trkpt lat="45.10897" lon="5.79488">
        <ele>404.4</ele>
        <time>2021-05-29T12:05:44Z</time>
      </trkpt>
      <trkpt lat="45.10896" lon="5.79487">
        <ele>404.4</ele>
        <time>2021-05-29T12:05:45Z</time>
      </trkpt>
      <trkpt lat="45.10896" lon="5.79487">
        <ele>404.8</ele>
        <time>2021-05-29T12:05:46Z</time>
      </trkpt>
      <trkpt lat="45.10896" lon="5.79486">
        <ele>404.8</ele>
        <time>2021-05-29T12:05:47Z</time>
      </trkpt>
      <trkpt lat="45.10896" lon="5.79485">
        <ele>405</ele>
        <time>2021-05-29T12:05:48Z</time>
      </trkpt>
      <trkpt lat="45.10896" lon="5.79484">
        <ele>405.2</ele>
        <time>2021-05-29T12:05:49Z</time>
      </trkpt>
      <trkpt lat="45.10896" lon="5.79483">
        <ele>405.4</ele>
        <time>2021-05-29T12:05:50Z</time>
      </trkpt>
      <trkpt lat="45.10895" lon="5.79482">
        <ele>405.6</ele>
        <time>2021-05-29T12:05:51Z</time>
      </trkpt>
      <trkpt lat="45.10895" lon="5.79481">
        <ele>406.2</ele>
        <time>2021-05-29T12:05:52Z</time>
      </trkpt>
      <trkpt lat="45.10895" lon="5.79481">
        <ele>406.4</ele>
        <time>2021-05-29T12:05:53Z</time>
      </trkpt>
      <trkpt lat="45.10895" lon="5.7948">
        <ele>406.8</ele>
        <time>2021-05-29T12:05:54Z</time>
      </trkpt>
      <trkpt lat="45.10895" lon="5.79479">
        <ele>407</ele>
        <time>2021-05-29T12:05:55Z</time>
      </trkpt>
      <trkpt lat="45.10895" lon="5.79478">
        <ele>407</ele>
        <time>2021-05-29T12:05:56Z</time>
      </trkpt>
      <trkpt lat="45.10895" lon="5.79477">
        <ele>407.2</ele>
        <time>2021-05-29T12:05:57Z</time>
      </trkpt>
      <trkpt lat="45.10894" lon="5.79475">
        <ele>407.6</ele>
        <time>2021-05-29T12:05:58Z</time>
      </trkpt>
      <trkpt lat="45.10894" lon="5.79472">
        <ele>408</ele>
        <time>2021-05-29T12:05:59Z</time>
      </trkpt>
      <trkpt lat="45.10893" lon="5.7947">
        <ele>408.2</ele>
        <time>2021-05-29T12:06:00Z</time>
      </trkpt>
      <trkpt lat="45.10893" lon="5.79467">
        <ele>408.4</ele>
        <time>2021-05-29T12:06:01Z</time>
      </trkpt>
      <trkpt lat="45.10892" lon="5.79464">
        <ele>408.6</ele>
        <time>2021-05-29T12:06:02Z</time>
      </trkpt>
      <trkpt lat="45.10892" lon="5.79462">
        <ele>408.6</ele>
        <time>2021-05-29T12:06:03Z</time>
      </trkpt>
      <trkpt lat="45.10891" lon="5.79459">
        <ele>408.8</ele>
        <time>2021-05-29T12:06:04Z</time>
      </trkpt>
      <trkpt lat="45.10891" lon="5.79457">
        <ele>409</ele>
        <time>2021-05-29T12:06:05Z</time>
      </trkpt>
      <trkpt lat="45.1089" lon="5.79454">
        <ele>409.2</ele>
        <time>2021-05-29T12:06:06Z</time>
      </trkpt>
      <trkpt lat="45.1089" lon="5.79452">
        <ele>409.6</ele>
        <time>2021-05-29T12:06:07Z</time>
      </trkpt>
      <trkpt lat="45.10887" lon="5.79441">
        <ele>409.8</ele>
        <time>2021-05-29T12:06:08Z</time>
      </trkpt>
      <trkpt lat="45.10887" lon="5.79438">
        <ele>410</ele>
        <time>2021-05-29T12:06:09Z</time>
      </trkpt>
      <trkpt lat="45.10886" lon="5.79431">
        <ele>410.4</ele>
        <time>2021-05-29T12:06:10Z</time>
      </trkpt>
      <trkpt lat="45.10886" lon="5.79431">
        <ele>410.6</ele>
        <time>2021-05-29T12:06:11Z</time>
      </trkpt>
      <trkpt lat="45.10886" lon="5.79431">
        <ele>411.2</ele>
        <time>2021-05-29T12:06:12Z</time>
      </trkpt>
      <trkpt lat="45.10885" lon="5.79429">
        <ele>411.4</ele>
        <time>2021-05-29T12:06:13Z</time>
      </trkpt>
      <trkpt lat="45.10885" lon="5.79427">
        <ele>411.8</ele>
        <time>2021-05-29T12:06:14Z</time>
      </trkpt>
      <trkpt lat="45.10885" lon="5.79426">
        <ele>412.2</ele>
        <time>2021-05-29T12:06:15Z</time>
      </trkpt>
      <trkpt lat="45.10885" lon="5.79424">
        <ele>412</ele>
        <time>2021-05-29T12:06:16Z</time>
      </trkpt>
      <trkpt lat="45.10885" lon="5.79422">
        <ele>412.2</ele>
        <time>2021-05-29T12:06:17Z</time>
      </trkpt>
      <trkpt lat="45.10884" lon="5.7942">
        <ele>412.4</ele>
        <time>2021-05-29T12:06:18Z</time>
      </trkpt>
      <trkpt lat="45.10884" lon="5.79418">
        <ele>412.6</ele>
        <time>2021-05-29T12:06:19Z</time>
      </trkpt>
      <trkpt lat="45.10884" lon="5.79417">
        <ele>412.6</ele>
        <time>2021-05-29T12:06:20Z</time>
      </trkpt>
      <trkpt lat="45.10884" lon="5.79416">
        <ele>413</ele>
        <time>2021-05-29T12:06:21Z</time>
      </trkpt>
      <trkpt lat="45.10884" lon="5.79414">
        <ele>413.2</ele>
        <time>2021-05-29T12:06:22Z</time>
      </trkpt>
      <trkpt lat="45.10883" lon="5.79413">
        <ele>413.6</ele>
        <time>2021-05-29T12:06:23Z</time>
      </trkpt>
      <trkpt lat="45.10883" lon="5.79412">
        <ele>414</ele>
        <time>2021-05-29T12:06:24Z</time>
      </trkpt>
      <trkpt lat="45.10883" lon="5.7941">
        <ele>414.2</ele>
        <time>2021-05-29T12:06:25Z</time>
      </trkpt>
      <trkpt lat="45.10883" lon="5.79409">
        <ele>414.4</ele>
        <time>2021-05-29T12:06:26Z</time>
      </trkpt>
      <trkpt lat="45.10883" lon="5.79408">
        <ele>414.6</ele>
        <time>2021-05-29T12:06:27Z</time>
      </trkpt>
      <trkpt lat="45.10883" lon="5.79406">
        <ele>414.8</ele>
        <time>2021-05-29T12:06:28Z</time>
      </trkpt>
      <trkpt lat="45.10882" lon="5.79405">
        <ele>415</ele>
        <time>2021-05-29T12:06:29Z</time>
      </trkpt>
      <trkpt lat="45.10882" lon="5.79404">
        <ele>415.2</ele>
        <time>2021-05-29T12:06:30Z</time>
      </trkpt>
      <trkpt lat="45.10881" lon="5.79403">
        <ele>415.4</ele>
        <time>2021-05-29T12:06:31Z</time>
      </trkpt>
      <trkpt lat="45.10881" lon="5.79402">
        <ele>415.6</ele>
        <time>2021-05-29T12:06:32Z</time>
      </trkpt>
      <trkpt lat="45.1088" lon="5.794">
        <ele>415.8</ele>
        <time>2021-05-29T12:06:33Z</time>
      </trkpt>
      <trkpt lat="45.10879" lon="5.79399">
        <ele>415.8</ele>
        <time>2021-05-29T12:06:34Z</time>
      </trkpt>
      <trkpt lat="45.10879" lon="5.79398">
        <ele>416</ele>
        <time>2021-05-29T12:06:35Z</time>
      </trkpt>
      <trkpt lat="45.10878" lon="5.79397">
        <ele>416.2</ele>
        <time>2021-05-29T12:06:36Z</time>
      </trkpt>
      <trkpt lat="45.10877" lon="5.79395">
        <ele>416.2</ele>
        <time>2021-05-29T12:06:37Z</time>
      </trkpt>
      <trkpt lat="45.10877" lon="5.79394">
        <ele>416.4</ele>
        <time>2021-05-29T12:06:38Z</time>
      </trkpt>
      <trkpt lat="45.10876" lon="5.79393">
        <ele>416.8</ele>
        <time>2021-05-29T12:06:39Z</time>
      </trkpt>
      <trkpt lat="45.10876" lon="5.79391">
        <ele>416.8</ele>
        <time>2021-05-29T12:06:40Z</time>
      </trkpt>
      <trkpt lat="45.10875" lon="5.79389">
        <ele>417.2</ele>
        <time>2021-05-29T12:06:41Z</time>
      </trkpt>
      <trkpt lat="45.10875" lon="5.79388">
        <ele>417.4</ele>
        <time>2021-05-29T12:06:42Z</time>
      </trkpt>
      <trkpt lat="45.10875" lon="5.79386">
        <ele>417.4</ele>
        <time>2021-05-29T12:06:43Z</time>
      </trkpt>
      <trkpt lat="45.10874" lon="5.79384">
        <ele>417.8</ele>
        <time>2021-05-29T12:06:44Z</time>
      </trkpt>
      <trkpt lat="45.10874" lon="5.79383">
        <ele>417.8</ele>
        <time>2021-05-29T12:06:45Z</time>
      </trkpt>
      <trkpt lat="45.10873" lon="5.79381">
        <ele>418</ele>
        <time>2021-05-29T12:06:46Z</time>
      </trkpt>
      <trkpt lat="45.10872" lon="5.79379">
        <ele>418.2</ele>
        <time>2021-05-29T12:06:47Z</time>
      </trkpt>
      <trkpt lat="45.10871" lon="5.79377">
        <ele>418.4</ele>
        <time>2021-05-29T12:06:48Z</time>
      </trkpt>
      <trkpt lat="45.10869" lon="5.79375">
        <ele>418.6</ele>
        <time>2021-05-29T12:06:49Z</time>
      </trkpt>
      <trkpt lat="45.10868" lon="5.79373">
        <ele>418.8</ele>
        <time>2021-05-29T12:06:50Z</time>
      </trkpt>
      <trkpt lat="45.10867" lon="5.79371">
        <ele>419</ele>
        <time>2021-05-29T12:06:51Z</time>
      </trkpt>
      <trkpt lat="45.10865" lon="5.7937">
        <ele>419</ele>
        <time>2021-05-29T12:06:52Z</time>
      </trkpt>
      <trkpt lat="45.10864" lon="5.79368">
        <ele>419.2</ele>
        <time>2021-05-29T12:06:53Z</time>
      </trkpt>
      <trkpt lat="45.10863" lon="5.79366">
        <ele>419.4</ele>
        <time>2021-05-29T12:06:54Z</time>
      </trkpt>
      <trkpt lat="45.10861" lon="5.79364">
        <ele>419.4</ele>
        <time>2021-05-29T12:06:55Z</time>
      </trkpt>
      <trkpt lat="45.10859" lon="5.79358">
        <ele>419.6</ele>
        <time>2021-05-29T12:06:56Z</time>
      </trkpt>
      <trkpt lat="45.10859" lon="5.79358">
        <ele>420</ele>
        <time>2021-05-29T12:06:57Z</time>
      </trkpt>
      <trkpt lat="45.10859" lon="5.79358">
        <ele>420.2</ele>
        <time>2021-05-29T12:06:58Z</time>
      </trkpt>
      <trkpt lat="45.10858" lon="5.79357">
        <ele>420.6</ele>
        <time>2021-05-29T12:06:59Z</time>
      </trkpt>
      <trkpt lat="45.10857" lon="5.79355">
        <ele>420.8</ele>
        <time>2021-05-29T12:07:00Z</time>
      </trkpt>
      <trkpt lat="45.10856" lon="5.79354">
        <ele>421.2</ele>
        <time>2021-05-29T12:07:01Z</time>
      </trkpt>
      <trkpt lat="45.10855" lon="5.79353">
        <ele>421.4</ele>
        <time>2021-05-29T12:07:02Z</time>
      </trkpt>
      <trkpt lat="45.10855" lon="5.79351">
        <ele>421.6</ele>
        <time>2021-05-29T12:07:03Z</time>
      </trkpt>
      <trkpt lat="45.10854" lon="5.7935">
        <ele>421.8</ele>
        <time>2021-05-29T12:07:04Z</time>
      </trkpt>
      <trkpt lat="45.10853" lon="5.79349">
        <ele>422</ele>
        <time>2021-05-29T12:07:05Z</time>
      </trkpt>
      <trkpt lat="45.10852" lon="5.79348">
        <ele>422.4</ele>
        <time>2021-05-29T12:07:06Z</time>
      </trkpt>
      <trkpt lat="45.10852" lon="5.79346">
        <ele>422.6</ele>
        <time>2021-05-29T12:07:07Z</time>
      </trkpt>
      <trkpt lat="45.10852" lon="5.79345">
        <ele>422.8</ele>
        <time>2021-05-29T12:07:08Z</time>
      </trkpt>
      <trkpt lat="45.10852" lon="5.79344">
        <ele>423</ele>
        <time>2021-05-29T12:07:09Z</time>
      </trkpt>
      <trkpt lat="45.10851" lon="5.79343">
        <ele>423</ele>
        <time>2021-05-29T12:07:10Z</time>
      </trkpt>
      <trkpt lat="45.10851" lon="5.79342">
        <ele>423.2</ele>
        <time>2021-05-29T12:07:11Z</time>
      </trkpt>
      <trkpt lat="45.10851" lon="5.79341">
        <ele>423.4</ele>
        <time>2021-05-29T12:07:12Z</time>
      </trkpt>
      <trkpt lat="45.10851" lon="5.79339">
        <ele>423.6</ele>
        <time>2021-05-29T12:07:13Z</time>
      </trkpt>
      <trkpt lat="45.1085" lon="5.79338">
        <ele>423.8</ele>
        <time>2021-05-29T12:07:14Z</time>
      </trkpt>
      <trkpt lat="45.1085" lon="5.79337">
        <ele>424.2</ele>
        <time>2021-05-29T12:07:15Z</time>
      </trkpt>
      <trkpt lat="45.1085" lon="5.79336">
        <ele>424.6</ele>
        <time>2021-05-29T12:07:16Z</time>
      </trkpt>
      <trkpt lat="45.1085" lon="5.79335">
        <ele>424.8</ele>
        <time>2021-05-29T12:07:17Z</time>
      </trkpt>
      <trkpt lat="45.1085" lon="5.79333">
        <ele>424.8</ele>
        <time>2021-05-29T12:07:18Z</time>
      </trkpt>
      <trkpt lat="45.1085" lon="5.79332">
        <ele>425.2</ele>
        <time>2021-05-29T12:07:19Z</time>
      </trkpt>
      <trkpt lat="45.1085" lon="5.79331">
        <ele>425.6</ele>
        <time>2021-05-29T12:07:20Z</time>
      </trkpt>
      <trkpt lat="45.10849" lon="5.79329">
        <ele>425.8</ele>
        <time>2021-05-29T12:07:21Z</time>
      </trkpt>
      <trkpt lat="45.10849" lon="5.79328">
        <ele>426.2</ele>
        <time>2021-05-29T12:07:22Z</time>
      </trkpt>
      <trkpt lat="45.10849" lon="5.79327">
        <ele>426.4</ele>
        <time>2021-05-29T12:07:23Z</time>
      </trkpt>
      <trkpt lat="45.10849" lon="5.79326">
        <ele>426.6</ele>
        <time>2021-05-29T12:07:24Z</time>
      </trkpt>
      <trkpt lat="45.10849" lon="5.79324">
        <ele>426.8</ele>
        <time>2021-05-29T12:07:25Z</time>
      </trkpt>
      <trkpt lat="45.10849" lon="5.79323">
        <ele>427</ele>
        <time>2021-05-29T12:07:26Z</time>
      </trkpt>
      <trkpt lat="45.10849" lon="5.79322">
        <ele>427</ele>
        <time>2021-05-29T12:07:27Z</time>
      </trkpt>
      <trkpt lat="45.10849" lon="5.79321">
        <ele>427.2</ele>
        <time>2021-05-29T12:07:28Z</time>
      </trkpt>
      <trkpt lat="45.1085" lon="5.79319">
        <ele>427.4</ele>
        <time>2021-05-29T12:07:29Z</time>
      </trkpt>
      <trkpt lat="45.1085" lon="5.79318">
        <ele>427.6</ele>
        <time>2021-05-29T12:07:30Z</time>
      </trkpt>
      <trkpt lat="45.1085" lon="5.79317">
        <ele>428</ele>
        <time>2021-05-29T12:07:31Z</time>
      </trkpt>
      <trkpt lat="45.1085" lon="5.79316">
        <ele>428</ele>
        <time>2021-05-29T12:07:32Z</time>
      </trkpt>
      <trkpt lat="45.10851" lon="5.79314">
        <ele>428.2</ele>
        <time>2021-05-29T12:07:33Z</time>
      </trkpt>
      <trkpt lat="45.10851" lon="5.79313">
        <ele>428.4</ele>
        <time>2021-05-29T12:07:34Z</time>
      </trkpt>
      <trkpt lat="45.10851" lon="5.79312">
        <ele>428.8</ele>
        <time>2021-05-29T12:07:35Z</time>
      </trkpt>
      <trkpt lat="45.10851" lon="5.7931">
        <ele>429.2</ele>
        <time>2021-05-29T12:07:36Z</time>
      </trkpt>
      <trkpt lat="45.10852" lon="5.7931">
        <ele>429.4</ele>
        <time>2021-05-29T12:07:37Z</time>
      </trkpt>
      <trkpt lat="45.10852" lon="5.79309">
        <ele>429.8</ele>
        <time>2021-05-29T12:07:38Z</time>
      </trkpt>
      <trkpt lat="45.10852" lon="5.79308">
        <ele>430</ele>
        <time>2021-05-29T12:07:39Z</time>
      </trkpt>
      <trkpt lat="45.10853" lon="5.79307">
        <ele>430</ele>
        <time>2021-05-29T12:07:40Z</time>
      </trkpt>
      <trkpt lat="45.10853" lon="5.79306">
        <ele>430</ele>
        <time>2021-05-29T12:07:41Z</time>
      </trkpt>
      <trkpt lat="45.10853" lon="5.79306">
        <ele>430.4</ele>
        <time>2021-05-29T12:07:42Z</time>
      </trkpt>
      <trkpt lat="45.10854" lon="5.79305">
        <ele>430.8</ele>
        <time>2021-05-29T12:07:43Z</time>
      </trkpt>
      <trkpt lat="45.10854" lon="5.79304">
        <ele>431</ele>
        <time>2021-05-29T12:07:44Z</time>
      </trkpt>
      <trkpt lat="45.10854" lon="5.79303">
        <ele>431.4</ele>
        <time>2021-05-29T12:07:45Z</time>
      </trkpt>
      <trkpt lat="45.10855" lon="5.79303">
        <ele>431.6</ele>
        <time>2021-05-29T12:07:46Z</time>
      </trkpt>
      <trkpt lat="45.10855" lon="5.79302">
        <ele>432</ele>
        <time>2021-05-29T12:07:47Z</time>
      </trkpt>
      <trkpt lat="45.10855" lon="5.79301">
        <ele>432.4</ele>
        <time>2021-05-29T12:07:48Z</time>
      </trkpt>
      <trkpt lat="45.10856" lon="5.793">
        <ele>432.6</ele>
        <time>2021-05-29T12:07:49Z</time>
      </trkpt>
      <trkpt lat="45.10856" lon="5.79299">
        <ele>432.8</ele>
        <time>2021-05-29T12:07:50Z</time>
      </trkpt>
      <trkpt lat="45.10857" lon="5.79299">
        <ele>432.8</ele>
        <time>2021-05-29T12:07:51Z</time>
      </trkpt>
      <trkpt lat="45.10857" lon="5.79298">
        <ele>433.2</ele>
        <time>2021-05-29T12:07:52Z</time>
      </trkpt>
      <trkpt lat="45.10858" lon="5.79298">
        <ele>433.6</ele>
        <time>2021-05-29T12:07:53Z</time>
      </trkpt>
      <trkpt lat="45.10858" lon="5.79297">
        <ele>433.8</ele>
        <time>2021-05-29T12:07:54Z</time>
      </trkpt>
      <trkpt lat="45.10859" lon="5.79296">
        <ele>434.2</ele>
        <time>2021-05-29T12:07:55Z</time>
      </trkpt>
      <trkpt lat="45.10859" lon="5.79296">
        <ele>434.4</ele>
        <time>2021-05-29T12:07:56Z</time>
      </trkpt>
      <trkpt lat="45.1086" lon="5.79295">
        <ele>434.4</ele>
        <time>2021-05-29T12:07:57Z</time>
      </trkpt>
      <trkpt lat="45.1086" lon="5.79294">
        <ele>435</ele>
        <time>2021-05-29T12:07:58Z</time>
      </trkpt>
      <trkpt lat="45.10861" lon="5.79294">
        <ele>435.4</ele>
        <time>2021-05-29T12:07:59Z</time>
      </trkpt>
      <trkpt lat="45.10861" lon="5.79293">
        <ele>435.8</ele>
        <time>2021-05-29T12:08:00Z</time>
      </trkpt>
      <trkpt lat="45.10862" lon="5.79293">
        <ele>436</ele>
        <time>2021-05-29T12:08:01Z</time>
      </trkpt>
      <trkpt lat="45.10862" lon="5.79292">
        <ele>436.4</ele>
        <time>2021-05-29T12:08:02Z</time>
      </trkpt>
      <trkpt lat="45.10863" lon="5.79291">
        <ele>436.6</ele>
        <time>2021-05-29T12:08:03Z</time>
      </trkpt>
      <trkpt lat="45.10863" lon="5.79291">
        <ele>436.8</ele>
        <time>2021-05-29T12:08:04Z</time>
      </trkpt>
      <trkpt lat="45.10864" lon="5.7929">
        <ele>436.8</ele>
        <time>2021-05-29T12:08:05Z</time>
      </trkpt>
      <trkpt lat="45.10863" lon="5.79289">
        <ele>437</ele>
        <time>2021-05-29T12:08:06Z</time>
      </trkpt>
      <trkpt lat="45.10863" lon="5.79287">
        <ele>437.4</ele>
        <time>2021-05-29T12:08:07Z</time>
      </trkpt>
      <trkpt lat="45.10863" lon="5.79285">
        <ele>437.8</ele>
        <time>2021-05-29T12:08:08Z</time>
      </trkpt>
      <trkpt lat="45.10862" lon="5.79284">
        <ele>437.8</ele>
        <time>2021-05-29T12:08:09Z</time>
      </trkpt>
      <trkpt lat="45.10862" lon="5.79282">
        <ele>438.2</ele>
        <time>2021-05-29T12:08:10Z</time>
      </trkpt>
      <trkpt lat="45.10862" lon="5.79281">
        <ele>438.4</ele>
        <time>2021-05-29T12:08:11Z</time>
      </trkpt>
      <trkpt lat="45.10862" lon="5.79279">
        <ele>438.8</ele>
        <time>2021-05-29T12:08:12Z</time>
      </trkpt>
      <trkpt lat="45.10861" lon="5.79277">
        <ele>439</ele>
        <time>2021-05-29T12:08:13Z</time>
      </trkpt>
      <trkpt lat="45.10861" lon="5.79276">
        <ele>439.4</ele>
        <time>2021-05-29T12:08:14Z</time>
      </trkpt>
      <trkpt lat="45.10861" lon="5.79275">
        <ele>439.6</ele>
        <time>2021-05-29T12:08:15Z</time>
      </trkpt>
      <trkpt lat="45.1086" lon="5.79274">
        <ele>439.8</ele>
        <time>2021-05-29T12:08:16Z</time>
      </trkpt>
      <trkpt lat="45.1086" lon="5.79273">
        <ele>439.8</ele>
        <time>2021-05-29T12:08:17Z</time>
      </trkpt>
      <trkpt lat="45.1086" lon="5.79272">
        <ele>440.2</ele>
        <time>2021-05-29T12:08:18Z</time>
      </trkpt>
      <trkpt lat="45.10859" lon="5.79271">
        <ele>440.4</ele>
        <time>2021-05-29T12:08:19Z</time>
      </trkpt>
      <trkpt lat="45.10859" lon="5.7927">
        <ele>440.8</ele>
        <time>2021-05-29T12:08:20Z</time>
      </trkpt>
      <trkpt lat="45.10859" lon="5.79268">
        <ele>441</ele>
        <time>2021-05-29T12:08:21Z</time>
      </trkpt>
      <trkpt lat="45.10859" lon="5.79267">
        <ele>441.4</ele>
        <time>2021-05-29T12:08:22Z</time>
      </trkpt>
      <trkpt lat="45.10858" lon="5.79266">
        <ele>441.4</ele>
        <time>2021-05-29T12:08:23Z</time>
      </trkpt>
      <trkpt lat="45.10858" lon="5.79265">
        <ele>441.8</ele>
        <time>2021-05-29T12:08:24Z</time>
      </trkpt>
      <trkpt lat="45.10857" lon="5.79264">
        <ele>442</ele>
        <time>2021-05-29T12:08:25Z</time>
      </trkpt>
      <trkpt lat="45.10857" lon="5.79264">
        <ele>442</ele>
        <time>2021-05-29T12:08:26Z</time>
      </trkpt>
      <trkpt lat="45.10856" lon="5.79263">
        <ele>442.2</ele>
        <time>2021-05-29T12:08:27Z</time>
      </trkpt>
      <trkpt lat="45.10855" lon="5.79262">
        <ele>442.4</ele>
        <time>2021-05-29T12:08:28Z</time>
      </trkpt>
      <trkpt lat="45.10855" lon="5.79262">
        <ele>442.6</ele>
        <time>2021-05-29T12:08:29Z</time>
      </trkpt>
      <trkpt lat="45.10854" lon="5.79261">
        <ele>443</ele>
        <time>2021-05-29T12:08:30Z</time>
      </trkpt>
      <trkpt lat="45.10853" lon="5.7926">
        <ele>443.4</ele>
        <time>2021-05-29T12:08:31Z</time>
      </trkpt>
      <trkpt lat="45.10853" lon="5.79259">
        <ele>443.4</ele>
        <time>2021-05-29T12:08:32Z</time>
      </trkpt>
      <trkpt lat="45.10852" lon="5.79259">
        <ele>443.6</ele>
        <time>2021-05-29T12:08:33Z</time>
      </trkpt>
      <trkpt lat="45.10851" lon="5.79258">
        <ele>443.6</ele>
        <time>2021-05-29T12:08:34Z</time>
      </trkpt>
      <trkpt lat="45.10851" lon="5.79257">
        <ele>443.8</ele>
        <time>2021-05-29T12:08:35Z</time>
      </trkpt>
      <trkpt lat="45.1085" lon="5.79256">
        <ele>444</ele>
        <time>2021-05-29T12:08:36Z</time>
      </trkpt>
      <trkpt lat="45.10849" lon="5.79256">
        <ele>444.2</ele>
        <time>2021-05-29T12:08:37Z</time>
      </trkpt>
      <trkpt lat="45.10849" lon="5.79255">
        <ele>444.6</ele>
        <time>2021-05-29T12:08:38Z</time>
      </trkpt>
      <trkpt lat="45.10848" lon="5.79254">
        <ele>444.8</ele>
        <time>2021-05-29T12:08:39Z</time>
      </trkpt>
      <trkpt lat="45.10847" lon="5.79253">
        <ele>445.2</ele>
        <time>2021-05-29T12:08:40Z</time>
      </trkpt>
      <trkpt lat="45.10846" lon="5.79252">
        <ele>445.4</ele>
        <time>2021-05-29T12:08:41Z</time>
      </trkpt>
      <trkpt lat="45.10846" lon="5.79251">
        <ele>445.6</ele>
        <time>2021-05-29T12:08:42Z</time>
      </trkpt>
      <trkpt lat="45.10845" lon="5.7925">
        <ele>445.8</ele>
        <time>2021-05-29T12:08:43Z</time>
      </trkpt>
      <trkpt lat="45.10844" lon="5.7925">
        <ele>446</ele>
        <time>2021-05-29T12:08:44Z</time>
      </trkpt>
      <trkpt lat="45.10844" lon="5.79249">
        <ele>446.2</ele>
        <time>2021-05-29T12:08:45Z</time>
      </trkpt>
      <trkpt lat="45.10843" lon="5.79248">
        <ele>446.4</ele>
        <time>2021-05-29T12:08:46Z</time>
      </trkpt>
      <trkpt lat="45.10843" lon="5.79247">
        <ele>447</ele>
        <time>2021-05-29T12:08:47Z</time>
      </trkpt>
      <trkpt lat="45.10843" lon="5.79247">
        <ele>447.2</ele>
        <time>2021-05-29T12:08:48Z</time>
      </trkpt>
      <trkpt lat="45.10843" lon="5.79246">
        <ele>447.4</ele>
        <time>2021-05-29T12:08:49Z</time>
      </trkpt>
      <trkpt lat="45.10843" lon="5.79245">
        <ele>447.6</ele>
        <time>2021-05-29T12:08:50Z</time>
      </trkpt>
      <trkpt lat="45.10842" lon="5.79245">
        <ele>447.6</ele>
        <time>2021-05-29T12:08:51Z</time>
      </trkpt>
      <trkpt lat="45.10842" lon="5.79244">
        <ele>447.6</ele>
        <time>2021-05-29T12:08:52Z</time>
      </trkpt>
      <trkpt lat="45.10842" lon="5.79243">
        <ele>447.8</ele>
        <time>2021-05-29T12:08:53Z</time>
      </trkpt>
      <trkpt lat="45.10842" lon="5.79243">
        <ele>448</ele>
        <time>2021-05-29T12:08:54Z</time>
      </trkpt>
      <trkpt lat="45.10842" lon="5.79242">
        <ele>448.6</ele>
        <time>2021-05-29T12:08:55Z</time>
      </trkpt>
      <trkpt lat="45.10841" lon="5.79241">
        <ele>449</ele>
        <time>2021-05-29T12:08:56Z</time>
      </trkpt>
      <trkpt lat="45.10841" lon="5.79241">
        <ele>449.4</ele>
        <time>2021-05-29T12:08:57Z</time>
      </trkpt>
      <trkpt lat="45.10841" lon="5.7924">
        <ele>449.6</ele>
        <time>2021-05-29T12:08:58Z</time>
      </trkpt>
      <trkpt lat="45.10841" lon="5.7924">
        <ele>449.8</ele>
        <time>2021-05-29T12:08:59Z</time>
      </trkpt>
      <trkpt lat="45.10841" lon="5.79239">
        <ele>450</ele>
        <time>2021-05-29T12:09:00Z</time>
      </trkpt>
      <trkpt lat="45.10841" lon="5.79238">
        <ele>450.2</ele>
        <time>2021-05-29T12:09:01Z</time>
      </trkpt>
      <trkpt lat="45.1084" lon="5.79238">
        <ele>450.4</ele>
        <time>2021-05-29T12:09:02Z</time>
      </trkpt>
      <trkpt lat="45.1084" lon="5.79237">
        <ele>450.6</ele>
        <time>2021-05-29T12:09:03Z</time>
      </trkpt>
      <trkpt lat="45.1084" lon="5.79236">
        <ele>450.6</ele>
        <time>2021-05-29T12:09:04Z</time>
      </trkpt>
      <trkpt lat="45.1084" lon="5.79236">
        <ele>451</ele>
        <time>2021-05-29T12:09:05Z</time>
      </trkpt>
      <trkpt lat="45.1084" lon="5.79234">
        <ele>451.6</ele>
        <time>2021-05-29T12:09:06Z</time>
      </trkpt>
      <trkpt lat="45.10839" lon="5.79233">
        <ele>451.8</ele>
        <time>2021-05-29T12:09:07Z</time>
      </trkpt>
      <trkpt lat="45.10839" lon="5.79231">
        <ele>452.2</ele>
        <time>2021-05-29T12:09:08Z</time>
      </trkpt>
      <trkpt lat="45.10839" lon="5.7923">
        <ele>452.4</ele>
        <time>2021-05-29T12:09:09Z</time>
      </trkpt>
      <trkpt lat="45.10839" lon="5.79229">
        <ele>452.6</ele>
        <time>2021-05-29T12:09:10Z</time>
      </trkpt>
      <trkpt lat="45.10839" lon="5.79227">
        <ele>452.6</ele>
        <time>2021-05-29T12:09:11Z</time>
      </trkpt>
      <trkpt lat="45.10838" lon="5.79226">
        <ele>453</ele>
        <time>2021-05-29T12:09:12Z</time>
      </trkpt>
      <trkpt lat="45.10838" lon="5.79224">
        <ele>453.2</ele>
        <time>2021-05-29T12:09:13Z</time>
      </trkpt>
      <trkpt lat="45.10838" lon="5.79223">
        <ele>453.6</ele>
        <time>2021-05-29T12:09:14Z</time>
      </trkpt>
      <trkpt lat="45.10838" lon="5.7922">
        <ele>453.6</ele>
        <time>2021-05-29T12:09:15Z</time>
      </trkpt>
      <trkpt lat="45.10839" lon="5.79218">
        <ele>453.8</ele>
        <time>2021-05-29T12:09:16Z</time>
      </trkpt>
      <trkpt lat="45.10839" lon="5.79215">
        <ele>454</ele>
        <time>2021-05-29T12:09:17Z</time>
      </trkpt>
      <trkpt lat="45.10839" lon="5.79212">
        <ele>454.4</ele>
        <time>2021-05-29T12:09:18Z</time>
      </trkpt>
      <trkpt lat="45.1084" lon="5.7921">
        <ele>454.8</ele>
        <time>2021-05-29T12:09:19Z</time>
      </trkpt>
      <trkpt lat="45.10838" lon="5.79194">
        <ele>454.8</ele>
        <time>2021-05-29T12:09:20Z</time>
      </trkpt>
      <trkpt lat="45.10838" lon="5.79194">
        <ele>455.2</ele>
        <time>2021-05-29T12:09:21Z</time>
      </trkpt>
      <trkpt lat="45.10838" lon="5.79194">
        <ele>455.2</ele>
        <time>2021-05-29T12:09:22Z</time>
      </trkpt>
      <trkpt lat="45.10839" lon="5.79192">
        <ele>455.6</ele>
        <time>2021-05-29T12:09:23Z</time>
      </trkpt>
      <trkpt lat="45.10839" lon="5.79191">
        <ele>455.8</ele>
        <time>2021-05-29T12:09:24Z</time>
      </trkpt>
      <trkpt lat="45.10839" lon="5.7919">
        <ele>456.4</ele>
        <time>2021-05-29T12:09:25Z</time>
      </trkpt>
      <trkpt lat="45.1084" lon="5.79189">
        <ele>456.6</ele>
        <time>2021-05-29T12:09:26Z</time>
      </trkpt>
      <trkpt lat="45.1084" lon="5.79188">
        <ele>456.8</ele>
        <time>2021-05-29T12:09:27Z</time>
      </trkpt>
      <trkpt lat="45.10841" lon="5.79186">
        <ele>457.4</ele>
        <time>2021-05-29T12:09:28Z</time>
      </trkpt>
      <trkpt lat="45.10841" lon="5.79185">
        <ele>457.6</ele>
        <time>2021-05-29T12:09:29Z</time>
      </trkpt>
      <trkpt lat="45.10841" lon="5.79184">
        <ele>457.8</ele>
        <time>2021-05-29T12:09:30Z</time>
      </trkpt>
      <trkpt lat="45.10842" lon="5.79183">
        <ele>457.8</ele>
        <time>2021-05-29T12:09:31Z</time>
      </trkpt>
      <trkpt lat="45.10842" lon="5.79182">
        <ele>458.2</ele>
        <time>2021-05-29T12:09:32Z</time>
      </trkpt>
      <trkpt lat="45.10843" lon="5.7918">
        <ele>458.4</ele>
        <time>2021-05-29T12:09:33Z</time>
      </trkpt>
      <trkpt lat="45.10843" lon="5.79179">
        <ele>458.6</ele>
        <time>2021-05-29T12:09:34Z</time>
      </trkpt>
      <trkpt lat="45.10844" lon="5.79178">
        <ele>459</ele>
        <time>2021-05-29T12:09:35Z</time>
      </trkpt>
      <trkpt lat="45.10845" lon="5.79177">
        <ele>459.2</ele>
        <time>2021-05-29T12:09:36Z</time>
      </trkpt>
      <trkpt lat="45.10845" lon="5.79176">
        <ele>459.4</ele>
        <time>2021-05-29T12:09:37Z</time>
      </trkpt>
      <trkpt lat="45.10846" lon="5.79175">
        <ele>459.4</ele>
        <time>2021-05-29T12:09:38Z</time>
      </trkpt>
      <trkpt lat="45.10847" lon="5.79174">
        <ele>459.8</ele>
        <time>2021-05-29T12:09:39Z</time>
      </trkpt>
      <trkpt lat="45.10847" lon="5.79173">
        <ele>460</ele>
        <time>2021-05-29T12:09:40Z</time>
      </trkpt>
      <trkpt lat="45.10848" lon="5.79172">
        <ele>460.2</ele>
        <time>2021-05-29T12:09:41Z</time>
      </trkpt>
      <trkpt lat="45.10848" lon="5.79171">
        <ele>460.6</ele>
        <time>2021-05-29T12:09:42Z</time>
      </trkpt>
      <trkpt lat="45.10849" lon="5.79169">
        <ele>460.8</ele>
        <time>2021-05-29T12:09:43Z</time>
      </trkpt>
      <trkpt lat="45.10849" lon="5.79168">
        <ele>461</ele>
        <time>2021-05-29T12:09:44Z</time>
      </trkpt>
      <trkpt lat="45.10849" lon="5.79167">
        <ele>461.4</ele>
        <time>2021-05-29T12:09:45Z</time>
      </trkpt>
      <trkpt lat="45.10849" lon="5.79166">
        <ele>461.6</ele>
        <time>2021-05-29T12:09:46Z</time>
      </trkpt>
      <trkpt lat="45.1085" lon="5.79164">
        <ele>461.8</ele>
        <time>2021-05-29T12:09:47Z</time>
      </trkpt>
      <trkpt lat="45.1085" lon="5.79163">
        <ele>462.2</ele>
        <time>2021-05-29T12:09:48Z</time>
      </trkpt>
      <trkpt lat="45.1085" lon="5.79162">
        <ele>462.4</ele>
        <time>2021-05-29T12:09:49Z</time>
      </trkpt>
      <trkpt lat="45.1085" lon="5.79161">
        <ele>462.6</ele>
        <time>2021-05-29T12:09:50Z</time>
      </trkpt>
      <trkpt lat="45.10851" lon="5.79159">
        <ele>463</ele>
        <time>2021-05-29T12:09:51Z</time>
      </trkpt>
      <trkpt lat="45.10851" lon="5.79158">
        <ele>463</ele>
        <time>2021-05-29T12:09:52Z</time>
      </trkpt>
      <trkpt lat="45.10851" lon="5.79157">
        <ele>463.4</ele>
        <time>2021-05-29T12:09:53Z</time>
      </trkpt>
      <trkpt lat="45.10852" lon="5.79156">
        <ele>463.4</ele>
        <time>2021-05-29T12:09:54Z</time>
      </trkpt>
      <trkpt lat="45.10852" lon="5.79154">
        <ele>463.8</ele>
        <time>2021-05-29T12:09:55Z</time>
      </trkpt>
      <trkpt lat="45.10853" lon="5.79153">
        <ele>464</ele>
        <time>2021-05-29T12:09:56Z</time>
      </trkpt>
      <trkpt lat="45.10853" lon="5.79152">
        <ele>464.4</ele>
        <time>2021-05-29T12:09:57Z</time>
      </trkpt>
      <trkpt lat="45.10853" lon="5.79151">
        <ele>464.8</ele>
        <time>2021-05-29T12:09:58Z</time>
      </trkpt>
      <trkpt lat="45.10854" lon="5.7915">
        <ele>465.4</ele>
        <time>2021-05-29T12:10:00Z</time>
      </trkpt>
      <trkpt lat="45.10854" lon="5.79148">
        <ele>465.6</ele>
        <time>2021-05-29T12:10:01Z</time>
      </trkpt>
      <trkpt lat="45.10855" lon="5.79147">
        <ele>466</ele>
        <time>2021-05-29T12:10:02Z</time>
      </trkpt>
      <trkpt lat="45.10855" lon="5.79146">
        <ele>466</ele>
        <time>2021-05-29T12:10:03Z</time>
      </trkpt>
      <trkpt lat="45.10856" lon="5.79145">
        <ele>466.4</ele>
        <time>2021-05-29T12:10:04Z</time>
      </trkpt>
      <trkpt lat="45.10857" lon="5.79144">
        <ele>466.6</ele>
        <time>2021-05-29T12:10:05Z</time>
      </trkpt>
      <trkpt lat="45.10857" lon="5.79142">
        <ele>466.8</ele>
        <time>2021-05-29T12:10:06Z</time>
      </trkpt>
      <trkpt lat="45.10858" lon="5.79141">
        <ele>467</ele>
        <time>2021-05-29T12:10:07Z</time>
      </trkpt>
      <trkpt lat="45.10859" lon="5.7914">
        <ele>467</ele>
        <time>2021-05-29T12:10:08Z</time>
      </trkpt>
      <trkpt lat="45.1086" lon="5.79139">
        <ele>467.4</ele>
        <time>2021-05-29T12:10:09Z</time>
      </trkpt>
      <trkpt lat="45.1086" lon="5.79138">
        <ele>467.4</ele>
        <time>2021-05-29T12:10:10Z</time>
      </trkpt>
      <trkpt lat="45.10861" lon="5.79136">
        <ele>467.4</ele>
        <time>2021-05-29T12:10:11Z</time>
      </trkpt>
      <trkpt lat="45.10862" lon="5.79135">
        <ele>467.6</ele>
        <time>2021-05-29T12:10:12Z</time>
      </trkpt>
      <trkpt lat="45.10864" lon="5.79132">
        <ele>467.6</ele>
        <time>2021-05-29T12:10:13Z</time>
      </trkpt>
      <trkpt lat="45.10866" lon="5.79128">
        <ele>467.8</ele>
        <time>2021-05-29T12:10:14Z</time>
      </trkpt>
      <trkpt lat="45.10867" lon="5.79124">
        <ele>468</ele>
        <time>2021-05-29T12:10:15Z</time>
      </trkpt>
      <trkpt lat="45.10869" lon="5.79121">
        <ele>468.2</ele>
        <time>2021-05-29T12:10:16Z</time>
      </trkpt>
      <trkpt lat="45.10871" lon="5.79117">
        <ele>468.4</ele>
        <time>2021-05-29T12:10:17Z</time>
      </trkpt>
      <trkpt lat="45.10871" lon="5.79113">
        <ele>468.8</ele>
        <time>2021-05-29T12:10:18Z</time>
      </trkpt>
      <trkpt lat="45.10871" lon="5.79112">
        <ele>468.8</ele>
        <time>2021-05-29T12:10:19Z</time>
      </trkpt>
      <trkpt lat="45.10871" lon="5.79111">
        <ele>469.2</ele>
        <time>2021-05-29T12:10:20Z</time>
      </trkpt>
      <trkpt lat="45.10871" lon="5.79108">
        <ele>469.2</ele>
        <time>2021-05-29T12:10:21Z</time>
      </trkpt>
      <trkpt lat="45.10871" lon="5.79108">
        <ele>469.2</ele>
        <time>2021-05-29T12:10:22Z</time>
      </trkpt>
      <trkpt lat="45.10871" lon="5.79104">
        <ele>469.2</ele>
        <time>2021-05-29T12:10:23Z</time>
      </trkpt>
      <trkpt lat="45.10871" lon="5.79104">
        <ele>469.2</ele>
        <time>2021-05-29T12:10:24Z</time>
      </trkpt>
      <trkpt lat="45.10871" lon="5.79104">
        <ele>469.2</ele>
        <time>2021-05-29T12:10:25Z</time>
      </trkpt>
      <trkpt lat="45.10871" lon="5.79104">
        <ele>469.4</ele>
        <time>2021-05-29T12:10:26Z</time>
      </trkpt>
      <trkpt lat="45.10871" lon="5.79104">
        <ele>469.6</ele>
        <time>2021-05-29T12:10:27Z</time>
      </trkpt>
      <trkpt lat="45.10871" lon="5.79104">
        <ele>469.8</ele>
        <time>2021-05-29T12:10:28Z</time>
      </trkpt>
      <trkpt lat="45.10871" lon="5.79101">
        <ele>470.2</ele>
        <time>2021-05-29T12:10:29Z</time>
      </trkpt>
      <trkpt lat="45.10871" lon="5.79101">
        <ele>470.4</ele>
        <time>2021-05-29T12:10:30Z</time>
      </trkpt>
      <trkpt lat="45.10872" lon="5.79097">
        <ele>470.6</ele>
        <time>2021-05-29T12:10:31Z</time>
      </trkpt>
      <trkpt lat="45.10872" lon="5.79097">
        <ele>470.8</ele>
        <time>2021-05-29T12:10:32Z</time>
      </trkpt>
      <trkpt lat="45.10872" lon="5.79097">
        <ele>471</ele>
        <time>2021-05-29T12:10:33Z</time>
      </trkpt>
      <trkpt lat="45.10872" lon="5.79094">
        <ele>471</ele>
        <time>2021-05-29T12:10:34Z</time>
      </trkpt>
      <trkpt lat="45.10872" lon="5.79092">
        <ele>471</ele>
        <time>2021-05-29T12:10:35Z</time>
      </trkpt>
      <trkpt lat="45.10872" lon="5.7909">
        <ele>471</ele>
        <time>2021-05-29T12:10:36Z</time>
      </trkpt>
      <trkpt lat="45.10872" lon="5.79089">
        <ele>471.2</ele>
        <time>2021-05-29T12:10:37Z</time>
      </trkpt>
      <trkpt lat="45.10872" lon="5.79087">
        <ele>471.4</ele>
        <time>2021-05-29T12:10:38Z</time>
      </trkpt>
      <trkpt lat="45.10872" lon="5.79085">
        <ele>471.4</ele>
        <time>2021-05-29T12:10:39Z</time>
      </trkpt>
      <trkpt lat="45.10872" lon="5.79083">
        <ele>471.6</ele>
        <time>2021-05-29T12:10:40Z</time>
      </trkpt>
      <trkpt lat="45.10872" lon="5.79081">
        <ele>471.8</ele>
        <time>2021-05-29T12:10:41Z</time>
      </trkpt>
      <trkpt lat="45.10872" lon="5.7908">
        <ele>471.8</ele>
        <time>2021-05-29T12:10:42Z</time>
      </trkpt>
      <trkpt lat="45.10872" lon="5.79078">
        <ele>472.2</ele>
        <time>2021-05-29T12:10:43Z</time>
      </trkpt>
      <trkpt lat="45.10872" lon="5.79076">
        <ele>472.2</ele>
        <time>2021-05-29T12:10:44Z</time>
      </trkpt>
      <trkpt lat="45.10872" lon="5.79075">
        <ele>472.4</ele>
        <time>2021-05-29T12:10:45Z</time>
      </trkpt>
      <trkpt lat="45.10872" lon="5.79075">
        <ele>472.8</ele>
        <time>2021-05-29T12:10:46Z</time>
      </trkpt>
      <trkpt lat="45.10872" lon="5.79075">
        <ele>473</ele>
        <time>2021-05-29T12:10:47Z</time>
      </trkpt>
      <trkpt lat="45.10871" lon="5.79071">
        <ele>473</ele>
        <time>2021-05-29T12:10:48Z</time>
      </trkpt>
      <trkpt lat="45.1087" lon="5.79068">
        <ele>473.2</ele>
        <time>2021-05-29T12:10:49Z</time>
      </trkpt>
      <trkpt lat="45.1087" lon="5.79064">
        <ele>473.4</ele>
        <time>2021-05-29T12:10:50Z</time>
      </trkpt>
      <trkpt lat="45.10869" lon="5.79061">
        <ele>473.6</ele>
        <time>2021-05-29T12:10:51Z</time>
      </trkpt>
      <trkpt lat="45.10869" lon="5.79061">
        <ele>473.8</ele>
        <time>2021-05-29T12:10:52Z</time>
      </trkpt>
      <trkpt lat="45.10868" lon="5.79057">
        <ele>474.2</ele>
        <time>2021-05-29T12:10:53Z</time>
      </trkpt>
      <trkpt lat="45.10868" lon="5.79057">
        <ele>474.4</ele>
        <time>2021-05-29T12:10:54Z</time>
      </trkpt>
      <trkpt lat="45.10868" lon="5.79057">
        <ele>474.4</ele>
        <time>2021-05-29T12:10:55Z</time>
      </trkpt>
      <trkpt lat="45.10867" lon="5.79055">
        <ele>474.8</ele>
        <time>2021-05-29T12:10:56Z</time>
      </trkpt>
      <trkpt lat="45.10866" lon="5.79053">
        <ele>475</ele>
        <time>2021-05-29T12:10:57Z</time>
      </trkpt>
      <trkpt lat="45.10866" lon="5.79051">
        <ele>475.2</ele>
        <time>2021-05-29T12:10:58Z</time>
      </trkpt>
      <trkpt lat="45.10865" lon="5.79048">
        <ele>475.2</ele>
        <time>2021-05-29T12:10:59Z</time>
      </trkpt>
      <trkpt lat="45.10864" lon="5.79046">
        <ele>475.4</ele>
        <time>2021-05-29T12:11:00Z</time>
      </trkpt>
      <trkpt lat="45.10863" lon="5.79044">
        <ele>475.6</ele>
        <time>2021-05-29T12:11:01Z</time>
      </trkpt>
      <trkpt lat="45.10863" lon="5.79044">
        <ele>476</ele>
        <time>2021-05-29T12:11:02Z</time>
      </trkpt>
      <trkpt lat="45.10863" lon="5.79044">
        <ele>476</ele>
        <time>2021-05-29T12:11:03Z</time>
      </trkpt>
      <trkpt lat="45.10862" lon="5.79041">
        <ele>476.4</ele>
        <time>2021-05-29T12:11:04Z</time>
      </trkpt>
      <trkpt lat="45.10862" lon="5.79041">
        <ele>476.6</ele>
        <time>2021-05-29T12:11:05Z</time>
      </trkpt>
      <trkpt lat="45.10862" lon="5.79041">
        <ele>476.8</ele>
        <time>2021-05-29T12:11:06Z</time>
      </trkpt>
      <trkpt lat="45.10862" lon="5.79041">
        <ele>477.2</ele>
        <time>2021-05-29T12:11:07Z</time>
      </trkpt>
      <trkpt lat="45.10862" lon="5.79041">
        <ele>477.2</ele>
        <time>2021-05-29T12:11:08Z</time>
      </trkpt>
      <trkpt lat="45.10861" lon="5.79039">
        <ele>477.6</ele>
        <time>2021-05-29T12:11:09Z</time>
      </trkpt>
      <trkpt lat="45.10861" lon="5.79039">
        <ele>478</ele>
        <time>2021-05-29T12:11:10Z</time>
      </trkpt>
      <trkpt lat="45.10861" lon="5.79039">
        <ele>478.4</ele>
        <time>2021-05-29T12:11:11Z</time>
      </trkpt>
      <trkpt lat="45.10861" lon="5.79039">
        <ele>478.6</ele>
        <time>2021-05-29T12:11:12Z</time>
      </trkpt>
      <trkpt lat="45.10861" lon="5.79039">
        <ele>478.6</ele>
        <time>2021-05-29T12:11:13Z</time>
      </trkpt>
      <trkpt lat="45.10861" lon="5.79039">
        <ele>478.8</ele>
        <time>2021-05-29T12:11:14Z</time>
      </trkpt>
      <trkpt lat="45.10861" lon="5.79039">
        <ele>479</ele>
        <time>2021-05-29T12:11:15Z</time>
      </trkpt>
      <trkpt lat="45.10861" lon="5.79039">
        <ele>479.2</ele>
        <time>2021-05-29T12:11:16Z</time>
      </trkpt>
      <trkpt lat="45.10859" lon="5.79037">
        <ele>479.4</ele>
        <time>2021-05-29T12:11:17Z</time>
      </trkpt>
      <trkpt lat="45.10859" lon="5.79037">
        <ele>479.4</ele>
        <time>2021-05-29T12:11:18Z</time>
      </trkpt>
      <trkpt lat="45.10859" lon="5.79037">
        <ele>479.6</ele>
        <time>2021-05-29T12:11:19Z</time>
      </trkpt>
      <trkpt lat="45.10859" lon="5.79034">
        <ele>480</ele>
        <time>2021-05-29T12:11:20Z</time>
      </trkpt>
      <trkpt lat="45.10859" lon="5.79032">
        <ele>480.2</ele>
        <time>2021-05-29T12:11:21Z</time>
      </trkpt>
      <trkpt lat="45.10859" lon="5.79032">
        <ele>480.4</ele>
        <time>2021-05-29T12:11:22Z</time>
      </trkpt>
      <trkpt lat="45.10859" lon="5.79032">
        <ele>480.4</ele>
        <time>2021-05-29T12:11:23Z</time>
      </trkpt>
      <trkpt lat="45.10859" lon="5.79032">
        <ele>480.6</ele>
        <time>2021-05-29T12:11:24Z</time>
      </trkpt>
      <trkpt lat="45.1086" lon="5.7903">
        <ele>480.8</ele>
        <time>2021-05-29T12:11:25Z</time>
      </trkpt>
      <trkpt lat="45.1086" lon="5.79028">
        <ele>481</ele>
        <time>2021-05-29T12:11:26Z</time>
      </trkpt>
      <trkpt lat="45.10861" lon="5.79026">
        <ele>481.2</ele>
        <time>2021-05-29T12:11:27Z</time>
      </trkpt>
      <trkpt lat="45.10862" lon="5.79024">
        <ele>481.6</ele>
        <time>2021-05-29T12:11:28Z</time>
      </trkpt>
      <trkpt lat="45.10862" lon="5.79022">
        <ele>481.8</ele>
        <time>2021-05-29T12:11:29Z</time>
      </trkpt>
      <trkpt lat="45.10863" lon="5.7902">
        <ele>482.2</ele>
        <time>2021-05-29T12:11:30Z</time>
      </trkpt>
      <trkpt lat="45.10864" lon="5.79017">
        <ele>482.4</ele>
        <time>2021-05-29T12:11:31Z</time>
      </trkpt>
      <trkpt lat="45.10864" lon="5.79015">
        <ele>482.6</ele>
        <time>2021-05-29T12:11:32Z</time>
      </trkpt>
      <trkpt lat="45.10865" lon="5.79012">
        <ele>482.6</ele>
        <time>2021-05-29T12:11:33Z</time>
      </trkpt>
      <trkpt lat="45.10866" lon="5.7901">
        <ele>482.8</ele>
        <time>2021-05-29T12:11:34Z</time>
      </trkpt>
      <trkpt lat="45.10866" lon="5.79008">
        <ele>483</ele>
        <time>2021-05-29T12:11:35Z</time>
      </trkpt>
      <trkpt lat="45.10867" lon="5.79006">
        <ele>483</ele>
        <time>2021-05-29T12:11:36Z</time>
      </trkpt>
      <trkpt lat="45.10867" lon="5.79003">
        <ele>483.2</ele>
        <time>2021-05-29T12:11:37Z</time>
      </trkpt>
      <trkpt lat="45.10868" lon="5.79001">
        <ele>483.2</ele>
        <time>2021-05-29T12:11:38Z</time>
      </trkpt>
      <trkpt lat="45.10868" lon="5.78999">
        <ele>483</ele>
        <time>2021-05-29T12:11:39Z</time>
      </trkpt>
      <trkpt lat="45.10869" lon="5.78997">
        <ele>483.6</ele>
        <time>2021-05-29T12:11:40Z</time>
      </trkpt>
      <trkpt lat="45.10869" lon="5.78995">
        <ele>484</ele>
        <time>2021-05-29T12:11:41Z</time>
      </trkpt>
      <trkpt lat="45.1087" lon="5.78992">
        <ele>484.4</ele>
        <time>2021-05-29T12:11:42Z</time>
      </trkpt>
      <trkpt lat="45.10871" lon="5.7899">
        <ele>484.4</ele>
        <time>2021-05-29T12:11:43Z</time>
      </trkpt>
      <trkpt lat="45.10871" lon="5.78987">
        <ele>484.6</ele>
        <time>2021-05-29T12:11:44Z</time>
      </trkpt>
      <trkpt lat="45.10872" lon="5.78984">
        <ele>484.6</ele>
        <time>2021-05-29T12:11:45Z</time>
      </trkpt>
      <trkpt lat="45.10873" lon="5.78981">
        <ele>484.8</ele>
        <time>2021-05-29T12:11:46Z</time>
      </trkpt>
      <trkpt lat="45.10874" lon="5.78979">
        <ele>484.8</ele>
        <time>2021-05-29T12:11:47Z</time>
      </trkpt>
      <trkpt lat="45.10875" lon="5.78977">
        <ele>484.8</ele>
        <time>2021-05-29T12:11:48Z</time>
      </trkpt>
      <trkpt lat="45.10877" lon="5.78975">
        <ele>484.8</ele>
        <time>2021-05-29T12:11:49Z</time>
      </trkpt>
      <trkpt lat="45.10878" lon="5.78973">
        <ele>484.8</ele>
        <time>2021-05-29T12:11:50Z</time>
      </trkpt>
      <trkpt lat="45.1088" lon="5.78971">
        <ele>484.8</ele>
        <time>2021-05-29T12:11:51Z</time>
      </trkpt>
      <trkpt lat="45.10881" lon="5.78969">
        <ele>485</ele>
        <time>2021-05-29T12:11:52Z</time>
      </trkpt>
      <trkpt lat="45.10882" lon="5.78968">
        <ele>485</ele>
        <time>2021-05-29T12:11:53Z</time>
      </trkpt>
      <trkpt lat="45.10883" lon="5.78966">
        <ele>485.2</ele>
        <time>2021-05-29T12:11:54Z</time>
      </trkpt>
      <trkpt lat="45.10884" lon="5.78964">
        <ele>485.2</ele>
        <time>2021-05-29T12:11:55Z</time>
      </trkpt>
      <trkpt lat="45.10885" lon="5.78962">
        <ele>485.4</ele>
        <time>2021-05-29T12:11:56Z</time>
      </trkpt>
      <trkpt lat="45.10887" lon="5.7896">
        <ele>485.2</ele>
        <time>2021-05-29T12:11:57Z</time>
      </trkpt>
      <trkpt lat="45.10888" lon="5.78958">
        <ele>485.6</ele>
        <time>2021-05-29T12:11:58Z</time>
      </trkpt>
      <trkpt lat="45.10889" lon="5.78956">
        <ele>485.6</ele>
        <time>2021-05-29T12:11:59Z</time>
      </trkpt>
      <trkpt lat="45.10891" lon="5.78954">
        <ele>485.6</ele>
        <time>2021-05-29T12:12:00Z</time>
      </trkpt>
      <trkpt lat="45.10892" lon="5.78952">
        <ele>485.4</ele>
        <time>2021-05-29T12:12:01Z</time>
      </trkpt>
      <trkpt lat="45.10894" lon="5.7895">
        <ele>485.6</ele>
        <time>2021-05-29T12:12:02Z</time>
      </trkpt>
      <trkpt lat="45.109" lon="5.78941">
        <ele>485.4</ele>
        <time>2021-05-29T12:12:03Z</time>
      </trkpt>
      <trkpt lat="45.10902" lon="5.78939">
        <ele>485.6</ele>
        <time>2021-05-29T12:12:04Z</time>
      </trkpt>
      <trkpt lat="45.10903" lon="5.78936">
        <ele>485.4</ele>
        <time>2021-05-29T12:12:05Z</time>
      </trkpt>
      <trkpt lat="45.10905" lon="5.78934">
        <ele>485.6</ele>
        <time>2021-05-29T12:12:06Z</time>
      </trkpt>
      <trkpt lat="45.10907" lon="5.78932">
        <ele>485.6</ele>
        <time>2021-05-29T12:12:07Z</time>
      </trkpt>
      <trkpt lat="45.10907" lon="5.78932">
        <ele>485.8</ele>
        <time>2021-05-29T12:12:08Z</time>
      </trkpt>
      <trkpt lat="45.10907" lon="5.78932">
        <ele>485.8</ele>
        <time>2021-05-29T12:12:09Z</time>
      </trkpt>
      <trkpt lat="45.10907" lon="5.78932">
        <ele>486</ele>
        <time>2021-05-29T12:12:10Z</time>
      </trkpt>
      <trkpt lat="45.10908" lon="5.7893">
        <ele>486</ele>
        <time>2021-05-29T12:12:11Z</time>
      </trkpt>
      <trkpt lat="45.1091" lon="5.78929">
        <ele>486.2</ele>
        <time>2021-05-29T12:12:12Z</time>
      </trkpt>
      <trkpt lat="45.10912" lon="5.78927">
        <ele>486</ele>
        <time>2021-05-29T12:12:13Z</time>
      </trkpt>
      <trkpt lat="45.10913" lon="5.78926">
        <ele>486.2</ele>
        <time>2021-05-29T12:12:14Z</time>
      </trkpt>
      <trkpt lat="45.10915" lon="5.78924">
        <ele>486.2</ele>
        <time>2021-05-29T12:12:15Z</time>
      </trkpt>
      <trkpt lat="45.10917" lon="5.78923">
        <ele>486.2</ele>
        <time>2021-05-29T12:12:16Z</time>
      </trkpt>
      <trkpt lat="45.10919" lon="5.78921">
        <ele>486.2</ele>
        <time>2021-05-29T12:12:17Z</time>
      </trkpt>
      <trkpt lat="45.10921" lon="5.7892">
        <ele>486.2</ele>
        <time>2021-05-29T12:12:18Z</time>
      </trkpt>
      <trkpt lat="45.10924" lon="5.78918">
        <ele>486.2</ele>
        <time>2021-05-29T12:12:19Z</time>
      </trkpt>
      <trkpt lat="45.10932" lon="5.78911">
        <ele>486</ele>
        <time>2021-05-29T12:12:20Z</time>
      </trkpt>
      <trkpt lat="45.10932" lon="5.78911">
        <ele>486</ele>
        <time>2021-05-29T12:12:21Z</time>
      </trkpt>
      <trkpt lat="45.10932" lon="5.78911">
        <ele>486</ele>
        <time>2021-05-29T12:12:22Z</time>
      </trkpt>
      <trkpt lat="45.10932" lon="5.78911">
        <ele>486</ele>
        <time>2021-05-29T12:12:23Z</time>
      </trkpt>
      <trkpt lat="45.10935" lon="5.78908">
        <ele>485.8</ele>
        <time>2021-05-29T12:12:24Z</time>
      </trkpt>
      <trkpt lat="45.10937" lon="5.78904">
        <ele>486</ele>
        <time>2021-05-29T12:12:25Z</time>
      </trkpt>
      <trkpt lat="45.10939" lon="5.789">
        <ele>486.4</ele>
        <time>2021-05-29T12:12:26Z</time>
      </trkpt>
      <trkpt lat="45.10941" lon="5.78897">
        <ele>486.4</ele>
        <time>2021-05-29T12:12:27Z</time>
      </trkpt>
      <trkpt lat="45.10943" lon="5.78893">
        <ele>486.4</ele>
        <time>2021-05-29T12:12:28Z</time>
      </trkpt>
      <trkpt lat="45.10944" lon="5.78885">
        <ele>486.4</ele>
        <time>2021-05-29T12:12:29Z</time>
      </trkpt>
      <trkpt lat="45.10944" lon="5.78885">
        <ele>486.4</ele>
        <time>2021-05-29T12:12:30Z</time>
      </trkpt>
      <trkpt lat="45.10944" lon="5.78885">
        <ele>486.6</ele>
        <time>2021-05-29T12:12:31Z</time>
      </trkpt>
      <trkpt lat="45.10946" lon="5.78881">
        <ele>486.8</ele>
        <time>2021-05-29T12:12:32Z</time>
      </trkpt>
      <trkpt lat="45.10948" lon="5.78877">
        <ele>486.8</ele>
        <time>2021-05-29T12:12:33Z</time>
      </trkpt>
      <trkpt lat="45.10949" lon="5.78874">
        <ele>487</ele>
        <time>2021-05-29T12:12:34Z</time>
      </trkpt>
      <trkpt lat="45.10951" lon="5.7887">
        <ele>486.8</ele>
        <time>2021-05-29T12:12:35Z</time>
      </trkpt>
      <trkpt lat="45.10953" lon="5.78866">
        <ele>486.6</ele>
        <time>2021-05-29T12:12:36Z</time>
      </trkpt>
      <trkpt lat="45.10956" lon="5.78861">
        <ele>486.6</ele>
        <time>2021-05-29T12:12:37Z</time>
      </trkpt>
      <trkpt lat="45.10957" lon="5.78858">
        <ele>486.6</ele>
        <time>2021-05-29T12:12:38Z</time>
      </trkpt>
      <trkpt lat="45.10959" lon="5.78856">
        <ele>487</ele>
        <time>2021-05-29T12:12:39Z</time>
      </trkpt>
      <trkpt lat="45.1096" lon="5.78853">
        <ele>487</ele>
        <time>2021-05-29T12:12:40Z</time>
      </trkpt>
      <trkpt lat="45.10961" lon="5.7885">
        <ele>487.2</ele>
        <time>2021-05-29T12:12:41Z</time>
      </trkpt>
      <trkpt lat="45.10961" lon="5.7885">
        <ele>487.4</ele>
        <time>2021-05-29T12:12:42Z</time>
      </trkpt>
      <trkpt lat="45.10961" lon="5.7885">
        <ele>487.4</ele>
        <time>2021-05-29T12:12:43Z</time>
      </trkpt>
      <trkpt lat="45.10961" lon="5.7885">
        <ele>487.4</ele>
        <time>2021-05-29T12:12:44Z</time>
      </trkpt>
      <trkpt lat="45.10963" lon="5.78848">
        <ele>487.8</ele>
        <time>2021-05-29T12:12:45Z</time>
      </trkpt>
      <trkpt lat="45.10964" lon="5.78846">
        <ele>487.8</ele>
        <time>2021-05-29T12:12:46Z</time>
      </trkpt>
      <trkpt lat="45.10966" lon="5.78844">
        <ele>488</ele>
        <time>2021-05-29T12:12:47Z</time>
      </trkpt>
      <trkpt lat="45.10967" lon="5.78842">
        <ele>488.2</ele>
        <time>2021-05-29T12:12:48Z</time>
      </trkpt>
      <trkpt lat="45.10969" lon="5.7884">
        <ele>488.2</ele>
        <time>2021-05-29T12:12:49Z</time>
      </trkpt>
      <trkpt lat="45.1097" lon="5.78838">
        <ele>488.4</ele>
        <time>2021-05-29T12:12:50Z</time>
      </trkpt>
      <trkpt lat="45.10972" lon="5.78836">
        <ele>488.2</ele>
        <time>2021-05-29T12:12:51Z</time>
      </trkpt>
      <trkpt lat="45.10973" lon="5.78834">
        <ele>488.2</ele>
        <time>2021-05-29T12:12:52Z</time>
      </trkpt>
      <trkpt lat="45.10975" lon="5.78832">
        <ele>488.2</ele>
        <time>2021-05-29T12:12:53Z</time>
      </trkpt>
      <trkpt lat="45.10976" lon="5.7883">
        <ele>488.4</ele>
        <time>2021-05-29T12:12:54Z</time>
      </trkpt>
      <trkpt lat="45.10978" lon="5.78828">
        <ele>488.6</ele>
        <time>2021-05-29T12:12:55Z</time>
      </trkpt>
      <trkpt lat="45.1098" lon="5.78826">
        <ele>488.6</ele>
        <time>2021-05-29T12:12:56Z</time>
      </trkpt>
      <trkpt lat="45.10981" lon="5.78824">
        <ele>488.8</ele>
        <time>2021-05-29T12:12:57Z</time>
      </trkpt>
      <trkpt lat="45.10983" lon="5.78822">
        <ele>489.2</ele>
        <time>2021-05-29T12:12:58Z</time>
      </trkpt>
      <trkpt lat="45.10984" lon="5.78821">
        <ele>489.2</ele>
        <time>2021-05-29T12:12:59Z</time>
      </trkpt>
      <trkpt lat="45.10986" lon="5.78818">
        <ele>489.6</ele>
        <time>2021-05-29T12:13:00Z</time>
      </trkpt>
      <trkpt lat="45.10988" lon="5.78816">
        <ele>489.4</ele>
        <time>2021-05-29T12:13:01Z</time>
      </trkpt>
      <trkpt lat="45.10989" lon="5.78814">
        <ele>489.6</ele>
        <time>2021-05-29T12:13:02Z</time>
      </trkpt>
      <trkpt lat="45.10991" lon="5.78812">
        <ele>489.6</ele>
        <time>2021-05-29T12:13:03Z</time>
      </trkpt>
      <trkpt lat="45.10999" lon="5.78799">
        <ele>490</ele>
        <time>2021-05-29T12:13:04Z</time>
      </trkpt>
      <trkpt lat="45.11" lon="5.78797">
        <ele>489.8</ele>
        <time>2021-05-29T12:13:05Z</time>
      </trkpt>
      <trkpt lat="45.11001" lon="5.78795">
        <ele>490</ele>
        <time>2021-05-29T12:13:06Z</time>
      </trkpt>
      <trkpt lat="45.11002" lon="5.78792">
        <ele>489.8</ele>
        <time>2021-05-29T12:13:07Z</time>
      </trkpt>
      <trkpt lat="45.11002" lon="5.78792">
        <ele>490</ele>
        <time>2021-05-29T12:13:08Z</time>
      </trkpt>
      <trkpt lat="45.11003" lon="5.78791">
        <ele>489.8</ele>
        <time>2021-05-29T12:13:09Z</time>
      </trkpt>
      <trkpt lat="45.11003" lon="5.7879">
        <ele>490.2</ele>
        <time>2021-05-29T12:13:10Z</time>
      </trkpt>
      <trkpt lat="45.11003" lon="5.7879">
        <ele>490</ele>
        <time>2021-05-29T12:13:11Z</time>
      </trkpt>
      <trkpt lat="45.11005" lon="5.78787">
        <ele>490.2</ele>
        <time>2021-05-29T12:13:12Z</time>
      </trkpt>
      <trkpt lat="45.11007" lon="5.78785">
        <ele>490.2</ele>
        <time>2021-05-29T12:13:13Z</time>
      </trkpt>
      <trkpt lat="45.11009" lon="5.78782">
        <ele>490.2</ele>
        <time>2021-05-29T12:13:14Z</time>
      </trkpt>
      <trkpt lat="45.11011" lon="5.7878">
        <ele>490.2</ele>
        <time>2021-05-29T12:13:15Z</time>
      </trkpt>
      <trkpt lat="45.11017" lon="5.78769">
        <ele>490.4</ele>
        <time>2021-05-29T12:13:16Z</time>
      </trkpt>
      <trkpt lat="45.11017" lon="5.78769">
        <ele>490.2</ele>
        <time>2021-05-29T12:13:17Z</time>
      </trkpt>
      <trkpt lat="45.11017" lon="5.78769">
        <ele>490.2</ele>
        <time>2021-05-29T12:13:18Z</time>
      </trkpt>
      <trkpt lat="45.11017" lon="5.78769">
        <ele>490.2</ele>
        <time>2021-05-29T12:13:19Z</time>
      </trkpt>
      <trkpt lat="45.11019" lon="5.78767">
        <ele>490.2</ele>
        <time>2021-05-29T12:13:20Z</time>
      </trkpt>
      <trkpt lat="45.1102" lon="5.78765">
        <ele>489.8</ele>
        <time>2021-05-29T12:13:21Z</time>
      </trkpt>
      <trkpt lat="45.11022" lon="5.78763">
        <ele>490</ele>
        <time>2021-05-29T12:13:22Z</time>
      </trkpt>
      <trkpt lat="45.11023" lon="5.78761">
        <ele>489.8</ele>
        <time>2021-05-29T12:13:23Z</time>
      </trkpt>
      <trkpt lat="45.11026" lon="5.78758">
        <ele>490</ele>
        <time>2021-05-29T12:13:24Z</time>
      </trkpt>
      <trkpt lat="45.11029" lon="5.78755">
        <ele>489.6</ele>
        <time>2021-05-29T12:13:25Z</time>
      </trkpt>
      <trkpt lat="45.11032" lon="5.78752">
        <ele>489.6</ele>
        <time>2021-05-29T12:13:26Z</time>
      </trkpt>
      <trkpt lat="45.11034" lon="5.78749">
        <ele>489.4</ele>
        <time>2021-05-29T12:13:27Z</time>
      </trkpt>
      <trkpt lat="45.11037" lon="5.78746">
        <ele>489.2</ele>
        <time>2021-05-29T12:13:28Z</time>
      </trkpt>
      <trkpt lat="45.1104" lon="5.78743">
        <ele>489</ele>
        <time>2021-05-29T12:13:29Z</time>
      </trkpt>
      <trkpt lat="45.11043" lon="5.7874">
        <ele>488.8</ele>
        <time>2021-05-29T12:13:30Z</time>
      </trkpt>
      <trkpt lat="45.11045" lon="5.78738">
        <ele>488.4</ele>
        <time>2021-05-29T12:13:31Z</time>
      </trkpt>
      <trkpt lat="45.11047" lon="5.78735">
        <ele>488</ele>
        <time>2021-05-29T12:13:32Z</time>
      </trkpt>
      <trkpt lat="45.11047" lon="5.78735">
        <ele>488.2</ele>
        <time>2021-05-29T12:13:33Z</time>
      </trkpt>
      <trkpt lat="45.11049" lon="5.78733">
        <ele>488</ele>
        <time>2021-05-29T12:13:34Z</time>
      </trkpt>
      <trkpt lat="45.11053" lon="5.78729">
        <ele>487.6</ele>
        <time>2021-05-29T12:13:35Z</time>
      </trkpt>
      <trkpt lat="45.11053" lon="5.78729">
        <ele>487.4</ele>
        <time>2021-05-29T12:13:36Z</time>
      </trkpt>
      <trkpt lat="45.11055" lon="5.78727">
        <ele>487.4</ele>
        <time>2021-05-29T12:13:37Z</time>
      </trkpt>
      <trkpt lat="45.11057" lon="5.78725">
        <ele>487.2</ele>
        <time>2021-05-29T12:13:38Z</time>
      </trkpt>
      <trkpt lat="45.11059" lon="5.78723">
        <ele>487.4</ele>
        <time>2021-05-29T12:13:39Z</time>
      </trkpt>
      <trkpt lat="45.11064" lon="5.7872">
        <ele>487</ele>
        <time>2021-05-29T12:13:40Z</time>
      </trkpt>
      <trkpt lat="45.11066" lon="5.78718">
        <ele>486.8</ele>
        <time>2021-05-29T12:13:41Z</time>
      </trkpt>
      <trkpt lat="45.11066" lon="5.78718">
        <ele>486.4</ele>
        <time>2021-05-29T12:13:42Z</time>
      </trkpt>
      <trkpt lat="45.11069" lon="5.78717">
        <ele>486.6</ele>
        <time>2021-05-29T12:13:43Z</time>
      </trkpt>
      <trkpt lat="45.11073" lon="5.78715">
        <ele>486.2</ele>
        <time>2021-05-29T12:13:44Z</time>
      </trkpt>
      <trkpt lat="45.11076" lon="5.78713">
        <ele>486.6</ele>
        <time>2021-05-29T12:13:45Z</time>
      </trkpt>
      <trkpt lat="45.11078" lon="5.78712">
        <ele>486.4</ele>
        <time>2021-05-29T12:13:46Z</time>
      </trkpt>
      <trkpt lat="45.11079" lon="5.7871">
        <ele>486.4</ele>
        <time>2021-05-29T12:13:47Z</time>
      </trkpt>
      <trkpt lat="45.1108" lon="5.78708">
        <ele>486.2</ele>
        <time>2021-05-29T12:13:48Z</time>
      </trkpt>
      <trkpt lat="45.11081" lon="5.78707">
        <ele>486.6</ele>
        <time>2021-05-29T12:13:49Z</time>
      </trkpt>
      <trkpt lat="45.11083" lon="5.78704">
        <ele>486</ele>
        <time>2021-05-29T12:13:50Z</time>
      </trkpt>
      <trkpt lat="45.11084" lon="5.78701">
        <ele>486.2</ele>
        <time>2021-05-29T12:13:51Z</time>
      </trkpt>
      <trkpt lat="45.11085" lon="5.78697">
        <ele>485.8</ele>
        <time>2021-05-29T12:13:52Z</time>
      </trkpt>
      <trkpt lat="45.11086" lon="5.78694">
        <ele>486</ele>
        <time>2021-05-29T12:13:53Z</time>
      </trkpt>
      <trkpt lat="45.11087" lon="5.78693">
        <ele>485.8</ele>
        <time>2021-05-29T12:13:54Z</time>
      </trkpt>
      <trkpt lat="45.11088" lon="5.78691">
        <ele>486</ele>
        <time>2021-05-29T12:13:55Z</time>
      </trkpt>
      <trkpt lat="45.11089" lon="5.78689">
        <ele>485.6</ele>
        <time>2021-05-29T12:13:56Z</time>
      </trkpt>
      <trkpt lat="45.1109" lon="5.78686">
        <ele>485.6</ele>
        <time>2021-05-29T12:13:57Z</time>
      </trkpt>
      <trkpt lat="45.11092" lon="5.78683">
        <ele>485.2</ele>
        <time>2021-05-29T12:13:58Z</time>
      </trkpt>
      <trkpt lat="45.11093" lon="5.7868">
        <ele>485</ele>
        <time>2021-05-29T12:13:59Z</time>
      </trkpt>
      <trkpt lat="45.11095" lon="5.78677">
        <ele>484.6</ele>
        <time>2021-05-29T12:14:00Z</time>
      </trkpt>
      <trkpt lat="45.11096" lon="5.78675">
        <ele>484.4</ele>
        <time>2021-05-29T12:14:01Z</time>
      </trkpt>
      <trkpt lat="45.11097" lon="5.78674">
        <ele>484</ele>
        <time>2021-05-29T12:14:02Z</time>
      </trkpt>
      <trkpt lat="45.11098" lon="5.78672">
        <ele>484</ele>
        <time>2021-05-29T12:14:03Z</time>
      </trkpt>
      <trkpt lat="45.111" lon="5.78671">
        <ele>483.8</ele>
        <time>2021-05-29T12:14:04Z</time>
      </trkpt>
      <trkpt lat="45.11105" lon="5.78664">
        <ele>483.8</ele>
        <time>2021-05-29T12:14:05Z</time>
      </trkpt>
      <trkpt lat="45.11107" lon="5.78663">
        <ele>483.6</ele>
        <time>2021-05-29T12:14:06Z</time>
      </trkpt>
      <trkpt lat="45.11107" lon="5.78663">
        <ele>483.8</ele>
        <time>2021-05-29T12:14:07Z</time>
      </trkpt>
      <trkpt lat="45.11109" lon="5.78661">
        <ele>483.8</ele>
        <time>2021-05-29T12:14:08Z</time>
      </trkpt>
      <trkpt lat="45.11112" lon="5.78658">
        <ele>483.8</ele>
        <time>2021-05-29T12:14:09Z</time>
      </trkpt>
      <trkpt lat="45.11112" lon="5.78658">
        <ele>483.6</ele>
        <time>2021-05-29T12:14:10Z</time>
      </trkpt>
      <trkpt lat="45.11114" lon="5.78657">
        <ele>484</ele>
        <time>2021-05-29T12:14:11Z</time>
      </trkpt>
      <trkpt lat="45.11114" lon="5.78657">
        <ele>484</ele>
        <time>2021-05-29T12:14:12Z</time>
      </trkpt>
      <trkpt lat="45.11117" lon="5.78656">
        <ele>484.2</ele>
        <time>2021-05-29T12:14:13Z</time>
      </trkpt>
      <trkpt lat="45.11117" lon="5.78656">
        <ele>484</ele>
        <time>2021-05-29T12:14:14Z</time>
      </trkpt>
      <trkpt lat="45.11117" lon="5.78656">
        <ele>484.4</ele>
        <time>2021-05-29T12:14:15Z</time>
      </trkpt>
      <trkpt lat="45.11119" lon="5.78656">
        <ele>484.6</ele>
        <time>2021-05-29T12:14:16Z</time>
      </trkpt>
      <trkpt lat="45.1112" lon="5.78659">
        <ele>485</ele>
        <time>2021-05-29T12:14:17Z</time>
      </trkpt>
      <trkpt lat="45.11121" lon="5.78661">
        <ele>484.8</ele>
        <time>2021-05-29T12:14:18Z</time>
      </trkpt>
      <trkpt lat="45.11122" lon="5.78663">
        <ele>485</ele>
        <time>2021-05-29T12:14:19Z</time>
      </trkpt>
      <trkpt lat="45.11124" lon="5.78664">
        <ele>484.8</ele>
        <time>2021-05-29T12:14:20Z</time>
      </trkpt>
      <trkpt lat="45.11125" lon="5.78665">
        <ele>485</ele>
        <time>2021-05-29T12:14:21Z</time>
      </trkpt>
      <trkpt lat="45.11126" lon="5.78665">
        <ele>484.8</ele>
        <time>2021-05-29T12:14:22Z</time>
      </trkpt>
      <trkpt lat="45.11127" lon="5.78666">
        <ele>485</ele>
        <time>2021-05-29T12:14:23Z</time>
      </trkpt>
      <trkpt lat="45.11128" lon="5.78667">
        <ele>485</ele>
        <time>2021-05-29T12:14:24Z</time>
      </trkpt>
      <trkpt lat="45.11129" lon="5.78666">
        <ele>485</ele>
        <time>2021-05-29T12:14:25Z</time>
      </trkpt>
      <trkpt lat="45.1113" lon="5.78665">
        <ele>485</ele>
        <time>2021-05-29T12:14:26Z</time>
      </trkpt>
      <trkpt lat="45.11131" lon="5.78664">
        <ele>485.2</ele>
        <time>2021-05-29T12:14:27Z</time>
      </trkpt>
      <trkpt lat="45.11131" lon="5.78664">
        <ele>485.2</ele>
        <time>2021-05-29T12:14:28Z</time>
      </trkpt>
      <trkpt lat="45.11131" lon="5.78664">
        <ele>485.4</ele>
        <time>2021-05-29T12:14:29Z</time>
      </trkpt>
      <trkpt lat="45.11132" lon="5.78664">
        <ele>485.4</ele>
        <time>2021-05-29T12:14:30Z</time>
      </trkpt>
      <trkpt lat="45.11133" lon="5.78663">
        <ele>485.2</ele>
        <time>2021-05-29T12:14:31Z</time>
      </trkpt>
      <trkpt lat="45.11134" lon="5.78663">
        <ele>485</ele>
        <time>2021-05-29T12:14:32Z</time>
      </trkpt>
      <trkpt lat="45.11135" lon="5.78662">
        <ele>485.2</ele>
        <time>2021-05-29T12:14:33Z</time>
      </trkpt>
      <trkpt lat="45.11136" lon="5.78662">
        <ele>485.4</ele>
        <time>2021-05-29T12:14:34Z</time>
      </trkpt>
      <trkpt lat="45.11137" lon="5.78661">
        <ele>485.4</ele>
        <time>2021-05-29T12:14:35Z</time>
      </trkpt>
      <trkpt lat="45.11138" lon="5.78661">
        <ele>485.6</ele>
        <time>2021-05-29T12:14:36Z</time>
      </trkpt>
      <trkpt lat="45.11142" lon="5.78661">
        <ele>486</ele>
        <time>2021-05-29T12:14:37Z</time>
      </trkpt>
      <trkpt lat="45.11142" lon="5.78661">
        <ele>486.6</ele>
        <time>2021-05-29T12:14:38Z</time>
      </trkpt>
      <trkpt lat="45.11142" lon="5.78661">
        <ele>486.8</ele>
        <time>2021-05-29T12:14:39Z</time>
      </trkpt>
      <trkpt lat="45.11144" lon="5.78662">
        <ele>486.8</ele>
        <time>2021-05-29T12:14:40Z</time>
      </trkpt>
      <trkpt lat="45.11145" lon="5.78664">
        <ele>486.6</ele>
        <time>2021-05-29T12:14:41Z</time>
      </trkpt>
      <trkpt lat="45.11147" lon="5.78666">
        <ele>486.6</ele>
        <time>2021-05-29T12:14:42Z</time>
      </trkpt>
      <trkpt lat="45.11148" lon="5.78667">
        <ele>486.8</ele>
        <time>2021-05-29T12:14:43Z</time>
      </trkpt>
      <trkpt lat="45.11149" lon="5.78669">
        <ele>486.6</ele>
        <time>2021-05-29T12:14:44Z</time>
      </trkpt>
      <trkpt lat="45.11151" lon="5.7867">
        <ele>486.8</ele>
        <time>2021-05-29T12:14:45Z</time>
      </trkpt>
      <trkpt lat="45.11151" lon="5.7867">
        <ele>487</ele>
        <time>2021-05-29T12:14:46Z</time>
      </trkpt>
      <trkpt lat="45.11154" lon="5.78672">
        <ele>487</ele>
        <time>2021-05-29T12:14:47Z</time>
      </trkpt>
      <trkpt lat="45.11154" lon="5.78672">
        <ele>487</ele>
        <time>2021-05-29T12:14:48Z</time>
      </trkpt>
      <trkpt lat="45.11154" lon="5.78672">
        <ele>487.2</ele>
        <time>2021-05-29T12:14:49Z</time>
      </trkpt>
      <trkpt lat="45.11156" lon="5.78674">
        <ele>487.6</ele>
        <time>2021-05-29T12:14:50Z</time>
      </trkpt>
      <trkpt lat="45.11158" lon="5.78676">
        <ele>488</ele>
        <time>2021-05-29T12:14:51Z</time>
      </trkpt>
      <trkpt lat="45.1116" lon="5.78677">
        <ele>488.2</ele>
        <time>2021-05-29T12:14:52Z</time>
      </trkpt>
      <trkpt lat="45.11162" lon="5.78679">
        <ele>488.2</ele>
        <time>2021-05-29T12:14:53Z</time>
      </trkpt>
      <trkpt lat="45.11164" lon="5.78681">
        <ele>488.4</ele>
        <time>2021-05-29T12:14:54Z</time>
      </trkpt>
      <trkpt lat="45.11166" lon="5.78682">
        <ele>488.6</ele>
        <time>2021-05-29T12:14:55Z</time>
      </trkpt>
      <trkpt lat="45.11167" lon="5.78684">
        <ele>489</ele>
        <time>2021-05-29T12:14:56Z</time>
      </trkpt>
      <trkpt lat="45.11169" lon="5.78686">
        <ele>489</ele>
        <time>2021-05-29T12:14:57Z</time>
      </trkpt>
      <trkpt lat="45.1117" lon="5.78687">
        <ele>489.2</ele>
        <time>2021-05-29T12:14:58Z</time>
      </trkpt>
      <trkpt lat="45.11171" lon="5.78688">
        <ele>489.4</ele>
        <time>2021-05-29T12:14:59Z</time>
      </trkpt>
      <trkpt lat="45.11171" lon="5.78689">
        <ele>489.6</ele>
        <time>2021-05-29T12:15:00Z</time>
      </trkpt>
      <trkpt lat="45.11171" lon="5.78689">
        <ele>489.6</ele>
        <time>2021-05-29T12:15:01Z</time>
      </trkpt>
      <trkpt lat="45.11172" lon="5.78691">
        <ele>489.8</ele>
        <time>2021-05-29T12:15:02Z</time>
      </trkpt>
      <trkpt lat="45.11172" lon="5.78691">
        <ele>490.4</ele>
        <time>2021-05-29T12:15:03Z</time>
      </trkpt>
      <trkpt lat="45.11172" lon="5.78691">
        <ele>490.4</ele>
        <time>2021-05-29T12:15:04Z</time>
      </trkpt>
      <trkpt lat="45.11174" lon="5.78693">
        <ele>490.4</ele>
        <time>2021-05-29T12:15:05Z</time>
      </trkpt>
      <trkpt lat="45.11174" lon="5.78693">
        <ele>490.2</ele>
        <time>2021-05-29T12:15:06Z</time>
      </trkpt>
      <trkpt lat="45.11174" lon="5.78693">
        <ele>490.2</ele>
        <time>2021-05-29T12:15:07Z</time>
      </trkpt>
      <trkpt lat="45.11174" lon="5.78693">
        <ele>490.2</ele>
        <time>2021-05-29T12:15:08Z</time>
      </trkpt>
      <trkpt lat="45.11175" lon="5.78695">
        <ele>490.2</ele>
        <time>2021-05-29T12:15:09Z</time>
      </trkpt>
      <trkpt lat="45.11175" lon="5.78695">
        <ele>490.2</ele>
        <time>2021-05-29T12:15:10Z</time>
      </trkpt>
      <trkpt lat="45.11175" lon="5.78695">
        <ele>490.2</ele>
        <time>2021-05-29T12:15:11Z</time>
      </trkpt>
      <trkpt lat="45.11175" lon="5.78695">
        <ele>490.2</ele>
        <time>2021-05-29T12:15:12Z</time>
      </trkpt>
      <trkpt lat="45.11176" lon="5.78698">
        <ele>490.2</ele>
        <time>2021-05-29T12:15:13Z</time>
      </trkpt>
      <trkpt lat="45.11176" lon="5.78698">
        <ele>490</ele>
        <time>2021-05-29T12:15:14Z</time>
      </trkpt>
      <trkpt lat="45.11176" lon="5.78698">
        <ele>490</ele>
        <time>2021-05-29T12:15:15Z</time>
      </trkpt>
      <trkpt lat="45.11178" lon="5.78701">
        <ele>490</ele>
        <time>2021-05-29T12:15:16Z</time>
      </trkpt>
      <trkpt lat="45.11178" lon="5.78701">
        <ele>490</ele>
        <time>2021-05-29T12:15:17Z</time>
      </trkpt>
      <trkpt lat="45.1118" lon="5.78704">
        <ele>490</ele>
        <time>2021-05-29T12:15:18Z</time>
      </trkpt>
      <trkpt lat="45.11181" lon="5.78703">
        <ele>490</ele>
        <time>2021-05-29T12:15:19Z</time>
      </trkpt>
      <trkpt lat="45.11183" lon="5.78702">
        <ele>489.8</ele>
        <time>2021-05-29T12:15:20Z</time>
      </trkpt>
      <trkpt lat="45.11185" lon="5.78701">
        <ele>489.8</ele>
        <time>2021-05-29T12:15:21Z</time>
      </trkpt>
      <trkpt lat="45.1119" lon="5.78699">
        <ele>489.6</ele>
        <time>2021-05-29T12:15:22Z</time>
      </trkpt>
      <trkpt lat="45.1119" lon="5.78699">
        <ele>490</ele>
        <time>2021-05-29T12:15:23Z</time>
      </trkpt>
      <trkpt lat="45.11192" lon="5.78699">
        <ele>490.2</ele>
        <time>2021-05-29T12:15:24Z</time>
      </trkpt>
      <trkpt lat="45.11194" lon="5.78698">
        <ele>490.2</ele>
        <time>2021-05-29T12:15:25Z</time>
      </trkpt>
      <trkpt lat="45.11196" lon="5.78698">
        <ele>490.4</ele>
        <time>2021-05-29T12:15:26Z</time>
      </trkpt>
      <trkpt lat="45.11199" lon="5.78698">
        <ele>490.6</ele>
        <time>2021-05-29T12:15:27Z</time>
      </trkpt>
      <trkpt lat="45.11201" lon="5.78698">
        <ele>491</ele>
        <time>2021-05-29T12:15:29Z</time>
      </trkpt>
      <trkpt lat="45.11203" lon="5.78698">
        <ele>490.8</ele>
        <time>2021-05-29T12:15:30Z</time>
      </trkpt>
      <trkpt lat="45.11205" lon="5.78697">
        <ele>490.8</ele>
        <time>2021-05-29T12:15:31Z</time>
      </trkpt>
      <trkpt lat="45.11208" lon="5.78697">
        <ele>490.8</ele>
        <time>2021-05-29T12:15:32Z</time>
      </trkpt>
      <trkpt lat="45.11212" lon="5.78698">
        <ele>490.8</ele>
        <time>2021-05-29T12:15:33Z</time>
      </trkpt>
      <trkpt lat="45.11217" lon="5.78701">
        <ele>491</ele>
        <time>2021-05-29T12:15:34Z</time>
      </trkpt>
      <trkpt lat="45.11221" lon="5.78705">
        <ele>491</ele>
        <time>2021-05-29T12:15:35Z</time>
      </trkpt>
      <trkpt lat="45.11221" lon="5.78705">
        <ele>491.2</ele>
        <time>2021-05-29T12:15:36Z</time>
      </trkpt>
      <trkpt lat="45.11221" lon="5.78705">
        <ele>491.4</ele>
        <time>2021-05-29T12:15:37Z</time>
      </trkpt>
      <trkpt lat="45.11222" lon="5.78706">
        <ele>491.4</ele>
        <time>2021-05-29T12:15:38Z</time>
      </trkpt>
      <trkpt lat="45.11223" lon="5.78707">
        <ele>491.8</ele>
        <time>2021-05-29T12:15:39Z</time>
      </trkpt>
      <trkpt lat="45.11224" lon="5.78708">
        <ele>492</ele>
        <time>2021-05-29T12:15:40Z</time>
      </trkpt>
      <trkpt lat="45.11225" lon="5.78709">
        <ele>492.2</ele>
        <time>2021-05-29T12:15:41Z</time>
      </trkpt>
      <trkpt lat="45.11226" lon="5.78711">
        <ele>492.2</ele>
        <time>2021-05-29T12:15:42Z</time>
      </trkpt>
      <trkpt lat="45.11227" lon="5.78712">
        <ele>492</ele>
        <time>2021-05-29T12:15:43Z</time>
      </trkpt>
      <trkpt lat="45.11228" lon="5.78713">
        <ele>491.8</ele>
        <time>2021-05-29T12:15:44Z</time>
      </trkpt>
      <trkpt lat="45.11229" lon="5.78714">
        <ele>491.8</ele>
        <time>2021-05-29T12:15:45Z</time>
      </trkpt>
      <trkpt lat="45.1123" lon="5.78715">
        <ele>491.8</ele>
        <time>2021-05-29T12:15:46Z</time>
      </trkpt>
      <trkpt lat="45.11232" lon="5.78716">
        <ele>491.8</ele>
        <time>2021-05-29T12:15:47Z</time>
      </trkpt>
      <trkpt lat="45.11234" lon="5.78717">
        <ele>491.8</ele>
        <time>2021-05-29T12:15:48Z</time>
      </trkpt>
      <trkpt lat="45.11237" lon="5.78718">
        <ele>492</ele>
        <time>2021-05-29T12:15:49Z</time>
      </trkpt>
      <trkpt lat="45.11239" lon="5.78719">
        <ele>492</ele>
        <time>2021-05-29T12:15:50Z</time>
      </trkpt>
      <trkpt lat="45.11241" lon="5.7872">
        <ele>492</ele>
        <time>2021-05-29T12:15:51Z</time>
      </trkpt>
      <trkpt lat="45.11242" lon="5.78721">
        <ele>492.2</ele>
        <time>2021-05-29T12:15:52Z</time>
      </trkpt>
      <trkpt lat="45.11244" lon="5.78723">
        <ele>492.6</ele>
        <time>2021-05-29T12:15:53Z</time>
      </trkpt>
      <trkpt lat="45.11246" lon="5.78724">
        <ele>492.6</ele>
        <time>2021-05-29T12:15:54Z</time>
      </trkpt>
      <trkpt lat="45.11248" lon="5.78725">
        <ele>492.8</ele>
        <time>2021-05-29T12:15:55Z</time>
      </trkpt>
      <trkpt lat="45.11249" lon="5.78726">
        <ele>492.8</ele>
        <time>2021-05-29T12:15:56Z</time>
      </trkpt>
      <trkpt lat="45.1125" lon="5.78728">
        <ele>492.8</ele>
        <time>2021-05-29T12:15:57Z</time>
      </trkpt>
      <trkpt lat="45.11251" lon="5.78729">
        <ele>493</ele>
        <time>2021-05-29T12:15:58Z</time>
      </trkpt>
      <trkpt lat="45.11252" lon="5.7873">
        <ele>493.2</ele>
        <time>2021-05-29T12:15:59Z</time>
      </trkpt>
      <trkpt lat="45.11253" lon="5.78731">
        <ele>493.2</ele>
        <time>2021-05-29T12:16:00Z</time>
      </trkpt>
      <trkpt lat="45.11254" lon="5.78733">
        <ele>493.6</ele>
        <time>2021-05-29T12:16:01Z</time>
      </trkpt>
      <trkpt lat="45.11255" lon="5.78734">
        <ele>493.8</ele>
        <time>2021-05-29T12:16:02Z</time>
      </trkpt>
      <trkpt lat="45.11256" lon="5.78735">
        <ele>494</ele>
        <time>2021-05-29T12:16:03Z</time>
      </trkpt>
      <trkpt lat="45.11258" lon="5.78736">
        <ele>494.2</ele>
        <time>2021-05-29T12:16:04Z</time>
      </trkpt>
      <trkpt lat="45.11259" lon="5.78737">
        <ele>494.4</ele>
        <time>2021-05-29T12:16:05Z</time>
      </trkpt>
      <trkpt lat="45.1126" lon="5.78738">
        <ele>494.4</ele>
        <time>2021-05-29T12:16:06Z</time>
      </trkpt>
      <trkpt lat="45.11261" lon="5.78739">
        <ele>494.8</ele>
        <time>2021-05-29T12:16:07Z</time>
      </trkpt>
      <trkpt lat="45.11263" lon="5.7874">
        <ele>495</ele>
        <time>2021-05-29T12:16:08Z</time>
      </trkpt>
      <trkpt lat="45.11264" lon="5.78742">
        <ele>495.2</ele>
        <time>2021-05-29T12:16:09Z</time>
      </trkpt>
      <trkpt lat="45.11264" lon="5.78743">
        <ele>495.2</ele>
        <time>2021-05-29T12:16:10Z</time>
      </trkpt>
      <trkpt lat="45.11265" lon="5.78744">
        <ele>495.4</ele>
        <time>2021-05-29T12:16:11Z</time>
      </trkpt>
      <trkpt lat="45.11265" lon="5.78745">
        <ele>495.4</ele>
        <time>2021-05-29T12:16:12Z</time>
      </trkpt>
      <trkpt lat="45.11266" lon="5.78746">
        <ele>495.4</ele>
        <time>2021-05-29T12:16:13Z</time>
      </trkpt>
      <trkpt lat="45.11266" lon="5.78748">
        <ele>495.6</ele>
        <time>2021-05-29T12:16:14Z</time>
      </trkpt>
      <trkpt lat="45.11267" lon="5.78749">
        <ele>495.8</ele>
        <time>2021-05-29T12:16:15Z</time>
      </trkpt>
      <trkpt lat="45.11267" lon="5.7875">
        <ele>495.8</ele>
        <time>2021-05-29T12:16:16Z</time>
      </trkpt>
      <trkpt lat="45.11268" lon="5.78751">
        <ele>496</ele>
        <time>2021-05-29T12:16:17Z</time>
      </trkpt>
      <trkpt lat="45.11269" lon="5.78752">
        <ele>496</ele>
        <time>2021-05-29T12:16:18Z</time>
      </trkpt>
      <trkpt lat="45.11269" lon="5.78754">
        <ele>496.2</ele>
        <time>2021-05-29T12:16:19Z</time>
      </trkpt>
      <trkpt lat="45.1127" lon="5.78755">
        <ele>496.2</ele>
        <time>2021-05-29T12:16:20Z</time>
      </trkpt>
      <trkpt lat="45.1127" lon="5.78756">
        <ele>496.4</ele>
        <time>2021-05-29T12:16:21Z</time>
      </trkpt>
      <trkpt lat="45.11271" lon="5.78757">
        <ele>496.6</ele>
        <time>2021-05-29T12:16:22Z</time>
      </trkpt>
      <trkpt lat="45.11272" lon="5.78758">
        <ele>496.8</ele>
        <time>2021-05-29T12:16:23Z</time>
      </trkpt>
      <trkpt lat="45.11272" lon="5.78759">
        <ele>496.8</ele>
        <time>2021-05-29T12:16:24Z</time>
      </trkpt>
      <trkpt lat="45.11273" lon="5.78761">
        <ele>496.8</ele>
        <time>2021-05-29T12:16:25Z</time>
      </trkpt>
      <trkpt lat="45.11273" lon="5.78762">
        <ele>497</ele>
        <time>2021-05-29T12:16:26Z</time>
      </trkpt>
      <trkpt lat="45.11274" lon="5.78763">
        <ele>497.2</ele>
        <time>2021-05-29T12:16:27Z</time>
      </trkpt>
      <trkpt lat="45.11275" lon="5.78764">
        <ele>497.2</ele>
        <time>2021-05-29T12:16:28Z</time>
      </trkpt>
      <trkpt lat="45.11276" lon="5.78765">
        <ele>497.2</ele>
        <time>2021-05-29T12:16:29Z</time>
      </trkpt>
      <trkpt lat="45.11277" lon="5.78766">
        <ele>497.4</ele>
        <time>2021-05-29T12:16:30Z</time>
      </trkpt>
      <trkpt lat="45.11279" lon="5.78767">
        <ele>497.6</ele>
        <time>2021-05-29T12:16:31Z</time>
      </trkpt>
      <trkpt lat="45.1128" lon="5.78768">
        <ele>497.6</ele>
        <time>2021-05-29T12:16:32Z</time>
      </trkpt>
      <trkpt lat="45.11281" lon="5.78769">
        <ele>497.6</ele>
        <time>2021-05-29T12:16:33Z</time>
      </trkpt>
      <trkpt lat="45.11282" lon="5.7877">
        <ele>497.8</ele>
        <time>2021-05-29T12:16:34Z</time>
      </trkpt>
      <trkpt lat="45.11284" lon="5.78771">
        <ele>498</ele>
        <time>2021-05-29T12:16:35Z</time>
      </trkpt>
      <trkpt lat="45.11285" lon="5.78773">
        <ele>498</ele>
        <time>2021-05-29T12:16:36Z</time>
      </trkpt>
      <trkpt lat="45.11286" lon="5.78774">
        <ele>498.2</ele>
        <time>2021-05-29T12:16:37Z</time>
      </trkpt>
      <trkpt lat="45.11287" lon="5.78775">
        <ele>498.2</ele>
        <time>2021-05-29T12:16:38Z</time>
      </trkpt>
      <trkpt lat="45.11288" lon="5.78777">
        <ele>498.2</ele>
        <time>2021-05-29T12:16:39Z</time>
      </trkpt>
      <trkpt lat="45.1129" lon="5.78778">
        <ele>498.2</ele>
        <time>2021-05-29T12:16:40Z</time>
      </trkpt>
      <trkpt lat="45.11291" lon="5.78779">
        <ele>498.4</ele>
        <time>2021-05-29T12:16:41Z</time>
      </trkpt>
      <trkpt lat="45.11292" lon="5.7878">
        <ele>498.4</ele>
        <time>2021-05-29T12:16:42Z</time>
      </trkpt>
      <trkpt lat="45.11293" lon="5.78781">
        <ele>498.4</ele>
        <time>2021-05-29T12:16:43Z</time>
      </trkpt>
      <trkpt lat="45.11294" lon="5.78782">
        <ele>498.2</ele>
        <time>2021-05-29T12:16:44Z</time>
      </trkpt>
      <trkpt lat="45.11295" lon="5.78784">
        <ele>498.2</ele>
        <time>2021-05-29T12:16:45Z</time>
      </trkpt>
      <trkpt lat="45.11296" lon="5.78785">
        <ele>498.2</ele>
        <time>2021-05-29T12:16:46Z</time>
      </trkpt>
      <trkpt lat="45.11297" lon="5.78786">
        <ele>498.2</ele>
        <time>2021-05-29T12:16:47Z</time>
      </trkpt>
      <trkpt lat="45.11298" lon="5.78787">
        <ele>498.2</ele>
        <time>2021-05-29T12:16:48Z</time>
      </trkpt>
      <trkpt lat="45.113" lon="5.78788">
        <ele>498.2</ele>
        <time>2021-05-29T12:16:49Z</time>
      </trkpt>
      <trkpt lat="45.11301" lon="5.78789">
        <ele>498.2</ele>
        <time>2021-05-29T12:16:50Z</time>
      </trkpt>
      <trkpt lat="45.11302" lon="5.7879">
        <ele>498.4</ele>
        <time>2021-05-29T12:16:51Z</time>
      </trkpt>
      <trkpt lat="45.11304" lon="5.78791">
        <ele>498.4</ele>
        <time>2021-05-29T12:16:52Z</time>
      </trkpt>
      <trkpt lat="45.11305" lon="5.78792">
        <ele>498.4</ele>
        <time>2021-05-29T12:16:53Z</time>
      </trkpt>
      <trkpt lat="45.11306" lon="5.78793">
        <ele>498.4</ele>
        <time>2021-05-29T12:16:54Z</time>
      </trkpt>
      <trkpt lat="45.11307" lon="5.78794">
        <ele>498.2</ele>
        <time>2021-05-29T12:16:55Z</time>
      </trkpt>
      <trkpt lat="45.11308" lon="5.78795">
        <ele>498.2</ele>
        <time>2021-05-29T12:16:56Z</time>
      </trkpt>
      <trkpt lat="45.11309" lon="5.78796">
        <ele>498</ele>
        <time>2021-05-29T12:16:57Z</time>
      </trkpt>
      <trkpt lat="45.1131" lon="5.78797">
        <ele>497.8</ele>
        <time>2021-05-29T12:16:58Z</time>
      </trkpt>
      <trkpt lat="45.11311" lon="5.78799">
        <ele>497.6</ele>
        <time>2021-05-29T12:16:59Z</time>
      </trkpt>
      <trkpt lat="45.11312" lon="5.788">
        <ele>497.4</ele>
        <time>2021-05-29T12:17:00Z</time>
      </trkpt>
      <trkpt lat="45.11313" lon="5.78801">
        <ele>497.2</ele>
        <time>2021-05-29T12:17:01Z</time>
      </trkpt>
      <trkpt lat="45.11314" lon="5.78802">
        <ele>497.2</ele>
        <time>2021-05-29T12:17:02Z</time>
      </trkpt>
      <trkpt lat="45.11315" lon="5.78803">
        <ele>497.2</ele>
        <time>2021-05-29T12:17:03Z</time>
      </trkpt>
      <trkpt lat="45.11316" lon="5.78804">
        <ele>497.2</ele>
        <time>2021-05-29T12:17:04Z</time>
      </trkpt>
      <trkpt lat="45.11317" lon="5.78805">
        <ele>497</ele>
        <time>2021-05-29T12:17:05Z</time>
      </trkpt>
      <trkpt lat="45.11317" lon="5.78806">
        <ele>496.6</ele>
        <time>2021-05-29T12:17:06Z</time>
      </trkpt>
      <trkpt lat="45.11318" lon="5.78807">
        <ele>496.6</ele>
        <time>2021-05-29T12:17:07Z</time>
      </trkpt>
      <trkpt lat="45.11319" lon="5.78808">
        <ele>496.4</ele>
        <time>2021-05-29T12:17:08Z</time>
      </trkpt>
      <trkpt lat="45.1132" lon="5.78809">
        <ele>496.2</ele>
        <time>2021-05-29T12:17:09Z</time>
      </trkpt>
      <trkpt lat="45.1132" lon="5.7881">
        <ele>496</ele>
        <time>2021-05-29T12:17:10Z</time>
      </trkpt>
      <trkpt lat="45.11321" lon="5.78812">
        <ele>495.8</ele>
        <time>2021-05-29T12:17:11Z</time>
      </trkpt>
      <trkpt lat="45.11322" lon="5.78813">
        <ele>495.6</ele>
        <time>2021-05-29T12:17:12Z</time>
      </trkpt>
      <trkpt lat="45.11322" lon="5.78814">
        <ele>495.6</ele>
        <time>2021-05-29T12:17:13Z</time>
      </trkpt>
      <trkpt lat="45.11323" lon="5.78815">
        <ele>495.4</ele>
        <time>2021-05-29T12:17:14Z</time>
      </trkpt>
      <trkpt lat="45.11324" lon="5.78816">
        <ele>495.4</ele>
        <time>2021-05-29T12:17:15Z</time>
      </trkpt>
      <trkpt lat="45.11324" lon="5.78818">
        <ele>495.2</ele>
        <time>2021-05-29T12:17:16Z</time>
      </trkpt>
      <trkpt lat="45.11325" lon="5.78819">
        <ele>495</ele>
        <time>2021-05-29T12:17:17Z</time>
      </trkpt>
      <trkpt lat="45.11326" lon="5.7882">
        <ele>495</ele>
        <time>2021-05-29T12:17:18Z</time>
      </trkpt>
      <trkpt lat="45.11326" lon="5.78821">
        <ele>494.8</ele>
        <time>2021-05-29T12:17:19Z</time>
      </trkpt>
      <trkpt lat="45.11327" lon="5.78823">
        <ele>494.4</ele>
        <time>2021-05-29T12:17:20Z</time>
      </trkpt>
      <trkpt lat="45.11328" lon="5.78824">
        <ele>494.2</ele>
        <time>2021-05-29T12:17:21Z</time>
      </trkpt>
      <trkpt lat="45.11329" lon="5.78825">
        <ele>494</ele>
        <time>2021-05-29T12:17:22Z</time>
      </trkpt>
      <trkpt lat="45.1133" lon="5.78827">
        <ele>493.4</ele>
        <time>2021-05-29T12:17:23Z</time>
      </trkpt>
      <trkpt lat="45.11331" lon="5.78828">
        <ele>493</ele>
        <time>2021-05-29T12:17:24Z</time>
      </trkpt>
      <trkpt lat="45.11332" lon="5.78829">
        <ele>492.6</ele>
        <time>2021-05-29T12:17:25Z</time>
      </trkpt>
      <trkpt lat="45.11333" lon="5.78831">
        <ele>492.4</ele>
        <time>2021-05-29T12:17:26Z</time>
      </trkpt>
      <trkpt lat="45.11333" lon="5.78833">
        <ele>492</ele>
        <time>2021-05-29T12:17:27Z</time>
      </trkpt>
      <trkpt lat="45.11334" lon="5.78835">
        <ele>491.6</ele>
        <time>2021-05-29T12:17:28Z</time>
      </trkpt>
      <trkpt lat="45.11334" lon="5.78837">
        <ele>491.4</ele>
        <time>2021-05-29T12:17:29Z</time>
      </trkpt>
      <trkpt lat="45.11335" lon="5.78839">
        <ele>491.2</ele>
        <time>2021-05-29T12:17:30Z</time>
      </trkpt>
      <trkpt lat="45.11335" lon="5.78841">
        <ele>491.2</ele>
        <time>2021-05-29T12:17:31Z</time>
      </trkpt>
      <trkpt lat="45.11336" lon="5.78843">
        <ele>491</ele>
        <time>2021-05-29T12:17:32Z</time>
      </trkpt>
      <trkpt lat="45.11336" lon="5.78845">
        <ele>491</ele>
        <time>2021-05-29T12:17:33Z</time>
      </trkpt>
      <trkpt lat="45.11337" lon="5.78847">
        <ele>490.6</ele>
        <time>2021-05-29T12:17:34Z</time>
      </trkpt>
      <trkpt lat="45.11337" lon="5.78847">
        <ele>490.6</ele>
        <time>2021-05-29T12:17:35Z</time>
      </trkpt>
      <trkpt lat="45.11337" lon="5.78847">
        <ele>490.4</ele>
        <time>2021-05-29T12:17:36Z</time>
      </trkpt>
      <trkpt lat="45.11337" lon="5.7885">
        <ele>490.4</ele>
        <time>2021-05-29T12:17:37Z</time>
      </trkpt>
      <trkpt lat="45.11337" lon="5.78853">
        <ele>490.2</ele>
        <time>2021-05-29T12:17:38Z</time>
      </trkpt>
      <trkpt lat="45.11338" lon="5.78856">
        <ele>490</ele>
        <time>2021-05-29T12:17:39Z</time>
      </trkpt>
      <trkpt lat="45.11338" lon="5.78858">
        <ele>489.8</ele>
        <time>2021-05-29T12:17:40Z</time>
      </trkpt>
      <trkpt lat="45.11339" lon="5.78861">
        <ele>489.8</ele>
        <time>2021-05-29T12:17:41Z</time>
      </trkpt>
      <trkpt lat="45.11339" lon="5.78864">
        <ele>489.8</ele>
        <time>2021-05-29T12:17:42Z</time>
      </trkpt>
      <trkpt lat="45.11339" lon="5.78867">
        <ele>489.6</ele>
        <time>2021-05-29T12:17:43Z</time>
      </trkpt>
      <trkpt lat="45.11339" lon="5.78867">
        <ele>489.6</ele>
        <time>2021-05-29T12:17:44Z</time>
      </trkpt>
      <trkpt lat="45.11339" lon="5.78867">
        <ele>489.6</ele>
        <time>2021-05-29T12:17:45Z</time>
      </trkpt>
      <trkpt lat="45.11339" lon="5.78867">
        <ele>489.8</ele>
        <time>2021-05-29T12:17:46Z</time>
      </trkpt>
      <trkpt lat="45.1134" lon="5.7887">
        <ele>489.6</ele>
        <time>2021-05-29T12:17:47Z</time>
      </trkpt>
      <trkpt lat="45.1134" lon="5.78872">
        <ele>489.6</ele>
        <time>2021-05-29T12:17:48Z</time>
      </trkpt>
      <trkpt lat="45.1134" lon="5.78875">
        <ele>489.6</ele>
        <time>2021-05-29T12:17:49Z</time>
      </trkpt>
      <trkpt lat="45.1134" lon="5.78878">
        <ele>489.4</ele>
        <time>2021-05-29T12:17:50Z</time>
      </trkpt>
      <trkpt lat="45.1134" lon="5.78881">
        <ele>489.4</ele>
        <time>2021-05-29T12:17:51Z</time>
      </trkpt>
      <trkpt lat="45.11341" lon="5.78884">
        <ele>489.6</ele>
        <time>2021-05-29T12:17:52Z</time>
      </trkpt>
      <trkpt lat="45.11341" lon="5.78884">
        <ele>489.6</ele>
        <time>2021-05-29T12:17:53Z</time>
      </trkpt>
      <trkpt lat="45.11341" lon="5.78888">
        <ele>489.6</ele>
        <time>2021-05-29T12:17:54Z</time>
      </trkpt>
      <trkpt lat="45.11342" lon="5.7889">
        <ele>489.8</ele>
        <time>2021-05-29T12:17:55Z</time>
      </trkpt>
      <trkpt lat="45.11342" lon="5.7889">
        <ele>489.6</ele>
        <time>2021-05-29T12:17:56Z</time>
      </trkpt>
      <trkpt lat="45.11342" lon="5.7889">
        <ele>489.6</ele>
        <time>2021-05-29T12:17:57Z</time>
      </trkpt>
      <trkpt lat="45.11342" lon="5.7889">
        <ele>489.6</ele>
        <time>2021-05-29T12:17:58Z</time>
      </trkpt>
      <trkpt lat="45.11344" lon="5.78892">
        <ele>489.4</ele>
        <time>2021-05-29T12:17:59Z</time>
      </trkpt>
      <trkpt lat="45.11344" lon="5.78892">
        <ele>489.4</ele>
        <time>2021-05-29T12:18:00Z</time>
      </trkpt>
      <trkpt lat="45.11345" lon="5.78891">
        <ele>489.4</ele>
        <time>2021-05-29T12:18:01Z</time>
      </trkpt>
      <trkpt lat="45.11345" lon="5.7889">
        <ele>489.2</ele>
        <time>2021-05-29T12:18:02Z</time>
      </trkpt>
      <trkpt lat="45.11345" lon="5.78889">
        <ele>489.2</ele>
        <time>2021-05-29T12:18:03Z</time>
      </trkpt>
      <trkpt lat="45.11346" lon="5.78889">
        <ele>489.2</ele>
        <time>2021-05-29T12:18:04Z</time>
      </trkpt>
      <trkpt lat="45.11346" lon="5.78888">
        <ele>489.2</ele>
        <time>2021-05-29T12:18:05Z</time>
      </trkpt>
      <trkpt lat="45.11346" lon="5.78886">
        <ele>489.4</ele>
        <time>2021-05-29T12:18:06Z</time>
      </trkpt>
      <trkpt lat="45.11346" lon="5.78885">
        <ele>489.6</ele>
        <time>2021-05-29T12:18:07Z</time>
      </trkpt>
      <trkpt lat="45.11347" lon="5.78883">
        <ele>489.6</ele>
        <time>2021-05-29T12:18:08Z</time>
      </trkpt>
      <trkpt lat="45.11347" lon="5.78883">
        <ele>490</ele>
        <time>2021-05-29T12:18:09Z</time>
      </trkpt>
      <trkpt lat="45.11347" lon="5.78878">
        <ele>490.6</ele>
        <time>2021-05-29T12:18:10Z</time>
      </trkpt>
      <trkpt lat="45.11347" lon="5.78878">
        <ele>490.8</ele>
        <time>2021-05-29T12:18:11Z</time>
      </trkpt>
      <trkpt lat="45.11348" lon="5.78874">
        <ele>491</ele>
        <time>2021-05-29T12:18:12Z</time>
      </trkpt>
      <trkpt lat="45.11348" lon="5.78874">
        <ele>491.2</ele>
        <time>2021-05-29T12:18:13Z</time>
      </trkpt>
      <trkpt lat="45.11349" lon="5.7887">
        <ele>491.6</ele>
        <time>2021-05-29T12:18:14Z</time>
      </trkpt>
      <trkpt lat="45.11349" lon="5.7887">
        <ele>491.4</ele>
        <time>2021-05-29T12:18:15Z</time>
      </trkpt>
      <trkpt lat="45.11349" lon="5.7887">
        <ele>491.4</ele>
        <time>2021-05-29T12:18:16Z</time>
      </trkpt>
      <trkpt lat="45.11349" lon="5.78866">
        <ele>491.6</ele>
        <time>2021-05-29T12:18:17Z</time>
      </trkpt>
      <trkpt lat="45.11349" lon="5.78866">
        <ele>491.6</ele>
        <time>2021-05-29T12:18:18Z</time>
      </trkpt>
      <trkpt lat="45.1135" lon="5.78862">
        <ele>491.8</ele>
        <time>2021-05-29T12:18:19Z</time>
      </trkpt>
      <trkpt lat="45.1135" lon="5.78862">
        <ele>492</ele>
        <time>2021-05-29T12:18:20Z</time>
      </trkpt>
      <trkpt lat="45.1135" lon="5.78858">
        <ele>492</ele>
        <time>2021-05-29T12:18:21Z</time>
      </trkpt>
      <trkpt lat="45.11352" lon="5.78854">
        <ele>492</ele>
        <time>2021-05-29T12:18:22Z</time>
      </trkpt>
      <trkpt lat="45.11352" lon="5.78854">
        <ele>492</ele>
        <time>2021-05-29T12:18:23Z</time>
      </trkpt>
      <trkpt lat="45.11352" lon="5.78854">
        <ele>492</ele>
        <time>2021-05-29T12:18:24Z</time>
      </trkpt>
      <trkpt lat="45.11353" lon="5.7885">
        <ele>492</ele>
        <time>2021-05-29T12:18:25Z</time>
      </trkpt>
      <trkpt lat="45.11353" lon="5.7885">
        <ele>492</ele>
        <time>2021-05-29T12:18:26Z</time>
      </trkpt>
      <trkpt lat="45.11354" lon="5.78846">
        <ele>492.2</ele>
        <time>2021-05-29T12:18:27Z</time>
      </trkpt>
      <trkpt lat="45.11354" lon="5.78846">
        <ele>492.2</ele>
        <time>2021-05-29T12:18:28Z</time>
      </trkpt>
      <trkpt lat="45.11355" lon="5.78842">
        <ele>492.2</ele>
        <time>2021-05-29T12:18:29Z</time>
      </trkpt>
      <trkpt lat="45.11355" lon="5.78842">
        <ele>492.2</ele>
        <time>2021-05-29T12:18:30Z</time>
      </trkpt>
      <trkpt lat="45.11355" lon="5.78842">
        <ele>492.2</ele>
        <time>2021-05-29T12:18:31Z</time>
      </trkpt>
      <trkpt lat="45.11355" lon="5.78842">
        <ele>492.2</ele>
        <time>2021-05-29T12:18:32Z</time>
      </trkpt>
      <trkpt lat="45.11356" lon="5.7884">
        <ele>492.2</ele>
        <time>2021-05-29T12:18:33Z</time>
      </trkpt>
      <trkpt lat="45.11356" lon="5.7884">
        <ele>492.4</ele>
        <time>2021-05-29T12:18:34Z</time>
      </trkpt>
      <trkpt lat="45.11359" lon="5.78838">
        <ele>492.4</ele>
        <time>2021-05-29T12:18:35Z</time>
      </trkpt>
      <trkpt lat="45.11359" lon="5.78838">
        <ele>492.4</ele>
        <time>2021-05-29T12:18:36Z</time>
      </trkpt>
      <trkpt lat="45.11359" lon="5.78838">
        <ele>492.4</ele>
        <time>2021-05-29T12:18:37Z</time>
      </trkpt>
      <trkpt lat="45.11359" lon="5.78838">
        <ele>492.6</ele>
        <time>2021-05-29T12:18:38Z</time>
      </trkpt>
      <trkpt lat="45.11361" lon="5.78838">
        <ele>492.8</ele>
        <time>2021-05-29T12:18:39Z</time>
      </trkpt>
      <trkpt lat="45.11363" lon="5.78839">
        <ele>492.8</ele>
        <time>2021-05-29T12:18:40Z</time>
      </trkpt>
      <trkpt lat="45.11366" lon="5.78839">
        <ele>492.8</ele>
        <time>2021-05-29T12:18:41Z</time>
      </trkpt>
      <trkpt lat="45.11368" lon="5.7884">
        <ele>493</ele>
        <time>2021-05-29T12:18:42Z</time>
      </trkpt>
      <trkpt lat="45.11368" lon="5.7884">
        <ele>493</ele>
        <time>2021-05-29T12:18:43Z</time>
      </trkpt>
      <trkpt lat="45.11371" lon="5.7884">
        <ele>493.2</ele>
        <time>2021-05-29T12:18:44Z</time>
      </trkpt>
      <trkpt lat="45.11373" lon="5.78841">
        <ele>493.2</ele>
        <time>2021-05-29T12:18:45Z</time>
      </trkpt>
      <trkpt lat="45.11373" lon="5.78841">
        <ele>493.4</ele>
        <time>2021-05-29T12:18:46Z</time>
      </trkpt>
      <trkpt lat="45.11373" lon="5.78841">
        <ele>493.6</ele>
        <time>2021-05-29T12:18:47Z</time>
      </trkpt>
      <trkpt lat="45.11373" lon="5.78841">
        <ele>494</ele>
        <time>2021-05-29T12:18:48Z</time>
      </trkpt>
      <trkpt lat="45.11375" lon="5.78842">
        <ele>494.4</ele>
        <time>2021-05-29T12:18:49Z</time>
      </trkpt>
      <trkpt lat="45.11375" lon="5.78842">
        <ele>494.4</ele>
        <time>2021-05-29T12:18:50Z</time>
      </trkpt>
      <trkpt lat="45.11375" lon="5.78842">
        <ele>494.8</ele>
        <time>2021-05-29T12:18:51Z</time>
      </trkpt>
      <trkpt lat="45.11377" lon="5.78843">
        <ele>494.8</ele>
        <time>2021-05-29T12:18:52Z</time>
      </trkpt>
      <trkpt lat="45.11377" lon="5.78843">
        <ele>495.2</ele>
        <time>2021-05-29T12:18:53Z</time>
      </trkpt>
      <trkpt lat="45.11377" lon="5.78843">
        <ele>495.6</ele>
        <time>2021-05-29T12:18:54Z</time>
      </trkpt>
      <trkpt lat="45.11377" lon="5.78843">
        <ele>495.8</ele>
        <time>2021-05-29T12:18:55Z</time>
      </trkpt>
      <trkpt lat="45.11378" lon="5.78844">
        <ele>496.2</ele>
        <time>2021-05-29T12:18:56Z</time>
      </trkpt>
      <trkpt lat="45.11379" lon="5.78844">
        <ele>496.4</ele>
        <time>2021-05-29T12:18:57Z</time>
      </trkpt>
      <trkpt lat="45.11379" lon="5.78845">
        <ele>496.6</ele>
        <time>2021-05-29T12:18:58Z</time>
      </trkpt>
      <trkpt lat="45.1138" lon="5.78846">
        <ele>496.6</ele>
        <time>2021-05-29T12:18:59Z</time>
      </trkpt>
      <trkpt lat="45.11381" lon="5.78846">
        <ele>496.8</ele>
        <time>2021-05-29T12:19:00Z</time>
      </trkpt>
      <trkpt lat="45.11381" lon="5.78847">
        <ele>497</ele>
        <time>2021-05-29T12:19:01Z</time>
      </trkpt>
      <trkpt lat="45.11382" lon="5.78847">
        <ele>497</ele>
        <time>2021-05-29T12:19:02Z</time>
      </trkpt>
      <trkpt lat="45.11383" lon="5.78848">
        <ele>497.4</ele>
        <time>2021-05-29T12:19:03Z</time>
      </trkpt>
      <trkpt lat="45.11383" lon="5.78849">
        <ele>497.6</ele>
        <time>2021-05-29T12:19:04Z</time>
      </trkpt>
      <trkpt lat="45.11383" lon="5.7885">
        <ele>498</ele>
        <time>2021-05-29T12:19:05Z</time>
      </trkpt>
      <trkpt lat="45.11384" lon="5.78851">
        <ele>498.2</ele>
        <time>2021-05-29T12:19:06Z</time>
      </trkpt>
      <trkpt lat="45.11384" lon="5.78852">
        <ele>498.4</ele>
        <time>2021-05-29T12:19:07Z</time>
      </trkpt>
      <trkpt lat="45.11384" lon="5.78853">
        <ele>498.6</ele>
        <time>2021-05-29T12:19:08Z</time>
      </trkpt>
      <trkpt lat="45.11385" lon="5.78854">
        <ele>498.8</ele>
        <time>2021-05-29T12:19:09Z</time>
      </trkpt>
      <trkpt lat="45.11385" lon="5.78854">
        <ele>499.6</ele>
        <time>2021-05-29T12:19:10Z</time>
      </trkpt>
      <trkpt lat="45.11385" lon="5.78855">
        <ele>500.2</ele>
        <time>2021-05-29T12:19:11Z</time>
      </trkpt>
      <trkpt lat="45.11386" lon="5.78856">
        <ele>500.4</ele>
        <time>2021-05-29T12:19:12Z</time>
      </trkpt>
      <trkpt lat="45.11386" lon="5.78857">
        <ele>500.6</ele>
        <time>2021-05-29T12:19:13Z</time>
      </trkpt>
      <trkpt lat="45.11386" lon="5.78857">
        <ele>500.8</ele>
        <time>2021-05-29T12:19:14Z</time>
      </trkpt>
      <trkpt lat="45.11386" lon="5.78857">
        <ele>501</ele>
        <time>2021-05-29T12:19:15Z</time>
      </trkpt>
      <trkpt lat="45.11386" lon="5.78857">
        <ele>501.2</ele>
        <time>2021-05-29T12:19:16Z</time>
      </trkpt>
      <trkpt lat="45.11386" lon="5.78857">
        <ele>501.2</ele>
        <time>2021-05-29T12:19:17Z</time>
      </trkpt>
      <trkpt lat="45.11386" lon="5.78857">
        <ele>501.4</ele>
        <time>2021-05-29T12:19:18Z</time>
      </trkpt>
      <trkpt lat="45.11385" lon="5.78862">
        <ele>501.4</ele>
        <time>2021-05-29T12:19:19Z</time>
      </trkpt>
      <trkpt lat="45.11385" lon="5.78862">
        <ele>501.6</ele>
        <time>2021-05-29T12:19:20Z</time>
      </trkpt>
      <trkpt lat="45.11384" lon="5.78865">
        <ele>502.2</ele>
        <time>2021-05-29T12:19:21Z</time>
      </trkpt>
      <trkpt lat="45.11384" lon="5.78865">
        <ele>502.6</ele>
        <time>2021-05-29T12:19:22Z</time>
      </trkpt>
      <trkpt lat="45.11385" lon="5.78868">
        <ele>503</ele>
        <time>2021-05-29T12:19:23Z</time>
      </trkpt>
      <trkpt lat="45.11385" lon="5.78868">
        <ele>503</ele>
        <time>2021-05-29T12:19:24Z</time>
      </trkpt>
      <trkpt lat="45.11385" lon="5.78872">
        <ele>503.6</ele>
        <time>2021-05-29T12:19:25Z</time>
      </trkpt>
      <trkpt lat="45.11385" lon="5.78872">
        <ele>504</ele>
        <time>2021-05-29T12:19:26Z</time>
      </trkpt>
      <trkpt lat="45.11385" lon="5.78872">
        <ele>504.2</ele>
        <time>2021-05-29T12:19:27Z</time>
      </trkpt>
      <trkpt lat="45.11385" lon="5.78876">
        <ele>504.2</ele>
        <time>2021-05-29T12:19:28Z</time>
      </trkpt>
      <trkpt lat="45.11387" lon="5.7888">
        <ele>504</ele>
        <time>2021-05-29T12:19:29Z</time>
      </trkpt>
      <trkpt lat="45.11387" lon="5.78881">
        <ele>503.8</ele>
        <time>2021-05-29T12:19:30Z</time>
      </trkpt>
      <trkpt lat="45.11387" lon="5.78883">
        <ele>503.8</ele>
        <time>2021-05-29T12:19:31Z</time>
      </trkpt>
      <trkpt lat="45.11387" lon="5.78884">
        <ele>503.8</ele>
        <time>2021-05-29T12:19:32Z</time>
      </trkpt>
      <trkpt lat="45.11388" lon="5.78886">
        <ele>504</ele>
        <time>2021-05-29T12:19:33Z</time>
      </trkpt>
      <trkpt lat="45.11388" lon="5.78886">
        <ele>504</ele>
        <time>2021-05-29T12:19:34Z</time>
      </trkpt>
      <trkpt lat="45.11388" lon="5.78886">
        <ele>504.2</ele>
        <time>2021-05-29T12:19:35Z</time>
      </trkpt>
      <trkpt lat="45.11388" lon="5.78887">
        <ele>504.6</ele>
        <time>2021-05-29T12:19:36Z</time>
      </trkpt>
      <trkpt lat="45.11389" lon="5.78889">
        <ele>504.6</ele>
        <time>2021-05-29T12:19:37Z</time>
      </trkpt>
      <trkpt lat="45.1139" lon="5.7889">
        <ele>504.8</ele>
        <time>2021-05-29T12:19:38Z</time>
      </trkpt>
      <trkpt lat="45.11391" lon="5.78892">
        <ele>505</ele>
        <time>2021-05-29T12:19:39Z</time>
      </trkpt>
      <trkpt lat="45.11391" lon="5.78893">
        <ele>505.2</ele>
        <time>2021-05-29T12:19:40Z</time>
      </trkpt>
      <trkpt lat="45.11392" lon="5.78895">
        <ele>505.6</ele>
        <time>2021-05-29T12:19:41Z</time>
      </trkpt>
      <trkpt lat="45.11393" lon="5.78896">
        <ele>505.8</ele>
        <time>2021-05-29T12:19:42Z</time>
      </trkpt>
      <trkpt lat="45.11393" lon="5.78898">
        <ele>506</ele>
        <time>2021-05-29T12:19:43Z</time>
      </trkpt>
      <trkpt lat="45.11394" lon="5.789">
        <ele>506.4</ele>
        <time>2021-05-29T12:19:44Z</time>
      </trkpt>
      <trkpt lat="45.11395" lon="5.78902">
        <ele>506.4</ele>
        <time>2021-05-29T12:19:45Z</time>
      </trkpt>
      <trkpt lat="45.11395" lon="5.78904">
        <ele>506.8</ele>
        <time>2021-05-29T12:19:46Z</time>
      </trkpt>
      <trkpt lat="45.11396" lon="5.78906">
        <ele>507</ele>
        <time>2021-05-29T12:19:47Z</time>
      </trkpt>
      <trkpt lat="45.11396" lon="5.78906">
        <ele>507.2</ele>
        <time>2021-05-29T12:19:48Z</time>
      </trkpt>
      <trkpt lat="45.11396" lon="5.78906">
        <ele>507.4</ele>
        <time>2021-05-29T12:19:49Z</time>
      </trkpt>
      <trkpt lat="45.11396" lon="5.78906">
        <ele>507.6</ele>
        <time>2021-05-29T12:19:50Z</time>
      </trkpt>
      <trkpt lat="45.11397" lon="5.78909">
        <ele>507.8</ele>
        <time>2021-05-29T12:19:51Z</time>
      </trkpt>
      <trkpt lat="45.11397" lon="5.78909">
        <ele>508.2</ele>
        <time>2021-05-29T12:19:52Z</time>
      </trkpt>
      <trkpt lat="45.11397" lon="5.78909">
        <ele>508.4</ele>
        <time>2021-05-29T12:19:53Z</time>
      </trkpt>
      <trkpt lat="45.11397" lon="5.78909">
        <ele>508.6</ele>
        <time>2021-05-29T12:19:54Z</time>
      </trkpt>
      <trkpt lat="45.11397" lon="5.78909">
        <ele>509</ele>
        <time>2021-05-29T12:19:55Z</time>
      </trkpt>
      <trkpt lat="45.11399" lon="5.78912">
        <ele>509.2</ele>
        <time>2021-05-29T12:19:56Z</time>
      </trkpt>
      <trkpt lat="45.11399" lon="5.78912">
        <ele>509.4</ele>
        <time>2021-05-29T12:19:57Z</time>
      </trkpt>
      <trkpt lat="45.11399" lon="5.78912">
        <ele>509.8</ele>
        <time>2021-05-29T12:19:58Z</time>
      </trkpt>
      <trkpt lat="45.11399" lon="5.78913">
        <ele>510.2</ele>
        <time>2021-05-29T12:20:00Z</time>
      </trkpt>
      <trkpt lat="45.114" lon="5.78914">
        <ele>510.4</ele>
        <time>2021-05-29T12:20:01Z</time>
      </trkpt>
      <trkpt lat="45.114" lon="5.78914">
        <ele>510.8</ele>
        <time>2021-05-29T12:20:02Z</time>
      </trkpt>
      <trkpt lat="45.11401" lon="5.78915">
        <ele>511</ele>
        <time>2021-05-29T12:20:03Z</time>
      </trkpt>
      <trkpt lat="45.11401" lon="5.78916">
        <ele>511.4</ele>
        <time>2021-05-29T12:20:04Z</time>
      </trkpt>
      <trkpt lat="45.11402" lon="5.78917">
        <ele>511.4</ele>
        <time>2021-05-29T12:20:05Z</time>
      </trkpt>
      <trkpt lat="45.11403" lon="5.78919">
        <ele>511.8</ele>
        <time>2021-05-29T12:20:06Z</time>
      </trkpt>
      <trkpt lat="45.11403" lon="5.7892">
        <ele>512</ele>
        <time>2021-05-29T12:20:07Z</time>
      </trkpt>
      <trkpt lat="45.11404" lon="5.78921">
        <ele>512.2</ele>
        <time>2021-05-29T12:20:08Z</time>
      </trkpt>
      <trkpt lat="45.11405" lon="5.78923">
        <ele>512.6</ele>
        <time>2021-05-29T12:20:09Z</time>
      </trkpt>
      <trkpt lat="45.11405" lon="5.78924">
        <ele>512.8</ele>
        <time>2021-05-29T12:20:10Z</time>
      </trkpt>
      <trkpt lat="45.11406" lon="5.78925">
        <ele>513</ele>
        <time>2021-05-29T12:20:11Z</time>
      </trkpt>
      <trkpt lat="45.11406" lon="5.78927">
        <ele>513.2</ele>
        <time>2021-05-29T12:20:12Z</time>
      </trkpt>
      <trkpt lat="45.11409" lon="5.78931">
        <ele>513.2</ele>
        <time>2021-05-29T12:20:13Z</time>
      </trkpt>
      <trkpt lat="45.11409" lon="5.78931">
        <ele>513.4</ele>
        <time>2021-05-29T12:20:14Z</time>
      </trkpt>
      <trkpt lat="45.11409" lon="5.78931">
        <ele>513.6</ele>
        <time>2021-05-29T12:20:15Z</time>
      </trkpt>
      <trkpt lat="45.1141" lon="5.78932">
        <ele>513.8</ele>
        <time>2021-05-29T12:20:16Z</time>
      </trkpt>
      <trkpt lat="45.1141" lon="5.78933">
        <ele>514.2</ele>
        <time>2021-05-29T12:20:17Z</time>
      </trkpt>
      <trkpt lat="45.11411" lon="5.78935">
        <ele>514.6</ele>
        <time>2021-05-29T12:20:18Z</time>
      </trkpt>
      <trkpt lat="45.11412" lon="5.78936">
        <ele>514.8</ele>
        <time>2021-05-29T12:20:19Z</time>
      </trkpt>
      <trkpt lat="45.11413" lon="5.78937">
        <ele>514.8</ele>
        <time>2021-05-29T12:20:20Z</time>
      </trkpt>
      <trkpt lat="45.11414" lon="5.78938">
        <ele>515</ele>
        <time>2021-05-29T12:20:21Z</time>
      </trkpt>
      <trkpt lat="45.11414" lon="5.7894">
        <ele>515.2</ele>
        <time>2021-05-29T12:20:22Z</time>
      </trkpt>
      <trkpt lat="45.11415" lon="5.78941">
        <ele>515.6</ele>
        <time>2021-05-29T12:20:23Z</time>
      </trkpt>
      <trkpt lat="45.11416" lon="5.78942">
        <ele>515.8</ele>
        <time>2021-05-29T12:20:24Z</time>
      </trkpt>
      <trkpt lat="45.11416" lon="5.78944">
        <ele>516</ele>
        <time>2021-05-29T12:20:25Z</time>
      </trkpt>
      <trkpt lat="45.11417" lon="5.78945">
        <ele>516</ele>
        <time>2021-05-29T12:20:26Z</time>
      </trkpt>
      <trkpt lat="45.11418" lon="5.78946">
        <ele>516.2</ele>
        <time>2021-05-29T12:20:27Z</time>
      </trkpt>
      <trkpt lat="45.11418" lon="5.78948">
        <ele>516.6</ele>
        <time>2021-05-29T12:20:28Z</time>
      </trkpt>
      <trkpt lat="45.11419" lon="5.78949">
        <ele>516.4</ele>
        <time>2021-05-29T12:20:29Z</time>
      </trkpt>
      <trkpt lat="45.11419" lon="5.78951">
        <ele>516.8</ele>
        <time>2021-05-29T12:20:30Z</time>
      </trkpt>
      <trkpt lat="45.1142" lon="5.78952">
        <ele>516.8</ele>
        <time>2021-05-29T12:20:31Z</time>
      </trkpt>
      <trkpt lat="45.11421" lon="5.78954">
        <ele>516.8</ele>
        <time>2021-05-29T12:20:33Z</time>
      </trkpt>
      <trkpt lat="45.11421" lon="5.78955">
        <ele>517.2</ele>
        <time>2021-05-29T12:20:34Z</time>
      </trkpt>
      <trkpt lat="45.11421" lon="5.78955">
        <ele>517.6</ele>
        <time>2021-05-29T12:20:35Z</time>
      </trkpt>
      <trkpt lat="45.11421" lon="5.78956">
        <ele>517.8</ele>
        <time>2021-05-29T12:20:36Z</time>
      </trkpt>
      <trkpt lat="45.11422" lon="5.78957">
        <ele>518.2</ele>
        <time>2021-05-29T12:20:37Z</time>
      </trkpt>
      <trkpt lat="45.11422" lon="5.78958">
        <ele>518.4</ele>
        <time>2021-05-29T12:20:38Z</time>
      </trkpt>
      <trkpt lat="45.11422" lon="5.78959">
        <ele>518.4</ele>
        <time>2021-05-29T12:20:39Z</time>
      </trkpt>
      <trkpt lat="45.11422" lon="5.7896">
        <ele>518.6</ele>
        <time>2021-05-29T12:20:40Z</time>
      </trkpt>
      <trkpt lat="45.11422" lon="5.78961">
        <ele>518.8</ele>
        <time>2021-05-29T12:20:41Z</time>
      </trkpt>
      <trkpt lat="45.11423" lon="5.78962">
        <ele>518.8</ele>
        <time>2021-05-29T12:20:42Z</time>
      </trkpt>
      <trkpt lat="45.11423" lon="5.78963">
        <ele>518.8</ele>
        <time>2021-05-29T12:20:43Z</time>
      </trkpt>
      <trkpt lat="45.11423" lon="5.78964">
        <ele>519</ele>
        <time>2021-05-29T12:20:44Z</time>
      </trkpt>
      <trkpt lat="45.11423" lon="5.78966">
        <ele>519.2</ele>
        <time>2021-05-29T12:20:45Z</time>
      </trkpt>
      <trkpt lat="45.11424" lon="5.78967">
        <ele>519.6</ele>
        <time>2021-05-29T12:20:46Z</time>
      </trkpt>
      <trkpt lat="45.11424" lon="5.78968">
        <ele>519.8</ele>
        <time>2021-05-29T12:20:47Z</time>
      </trkpt>
      <trkpt lat="45.11425" lon="5.78969">
        <ele>520</ele>
        <time>2021-05-29T12:20:48Z</time>
      </trkpt>
      <trkpt lat="45.11425" lon="5.78969">
        <ele>520.4</ele>
        <time>2021-05-29T12:20:49Z</time>
      </trkpt>
      <trkpt lat="45.11426" lon="5.7897">
        <ele>520.8</ele>
        <time>2021-05-29T12:20:50Z</time>
      </trkpt>
      <trkpt lat="45.11427" lon="5.78971">
        <ele>521</ele>
        <time>2021-05-29T12:20:51Z</time>
      </trkpt>
      <trkpt lat="45.11428" lon="5.78972">
        <ele>521</ele>
        <time>2021-05-29T12:20:52Z</time>
      </trkpt>
      <trkpt lat="45.11429" lon="5.78973">
        <ele>521.2</ele>
        <time>2021-05-29T12:20:53Z</time>
      </trkpt>
      <trkpt lat="45.11429" lon="5.78974">
        <ele>521</ele>
        <time>2021-05-29T12:20:54Z</time>
      </trkpt>
      <trkpt lat="45.1143" lon="5.78975">
        <ele>521.2</ele>
        <time>2021-05-29T12:20:55Z</time>
      </trkpt>
      <trkpt lat="45.11431" lon="5.78975">
        <ele>521.4</ele>
        <time>2021-05-29T12:20:56Z</time>
      </trkpt>
      <trkpt lat="45.11433" lon="5.78977">
        <ele>521.6</ele>
        <time>2021-05-29T12:20:57Z</time>
      </trkpt>
      <trkpt lat="45.11434" lon="5.78978">
        <ele>521.8</ele>
        <time>2021-05-29T12:20:58Z</time>
      </trkpt>
      <trkpt lat="45.11435" lon="5.7898">
        <ele>522</ele>
        <time>2021-05-29T12:20:59Z</time>
      </trkpt>
      <trkpt lat="45.11437" lon="5.78981">
        <ele>522.2</ele>
        <time>2021-05-29T12:21:00Z</time>
      </trkpt>
      <trkpt lat="45.11438" lon="5.78983">
        <ele>523</ele>
        <time>2021-05-29T12:21:01Z</time>
      </trkpt>
      <trkpt lat="45.1144" lon="5.78985">
        <ele>523.2</ele>
        <time>2021-05-29T12:21:02Z</time>
      </trkpt>
      <trkpt lat="45.11442" lon="5.78987">
        <ele>523.4</ele>
        <time>2021-05-29T12:21:03Z</time>
      </trkpt>
      <trkpt lat="45.11444" lon="5.78989">
        <ele>523.8</ele>
        <time>2021-05-29T12:21:04Z</time>
      </trkpt>
      <trkpt lat="45.11446" lon="5.78992">
        <ele>524.2</ele>
        <time>2021-05-29T12:21:05Z</time>
      </trkpt>
      <trkpt lat="45.11447" lon="5.78993">
        <ele>524.2</ele>
        <time>2021-05-29T12:21:06Z</time>
      </trkpt>
      <trkpt lat="45.11448" lon="5.78995">
        <ele>524</ele>
        <time>2021-05-29T12:21:07Z</time>
      </trkpt>
      <trkpt lat="45.11449" lon="5.78997">
        <ele>524.2</ele>
        <time>2021-05-29T12:21:08Z</time>
      </trkpt>
      <trkpt lat="45.1145" lon="5.78999">
        <ele>524.2</ele>
        <time>2021-05-29T12:21:09Z</time>
      </trkpt>
      <trkpt lat="45.11451" lon="5.79">
        <ele>524.2</ele>
        <time>2021-05-29T12:21:10Z</time>
      </trkpt>
      <trkpt lat="45.11452" lon="5.79002">
        <ele>524.2</ele>
        <time>2021-05-29T12:21:11Z</time>
      </trkpt>
      <trkpt lat="45.11453" lon="5.79004">
        <ele>524.4</ele>
        <time>2021-05-29T12:21:12Z</time>
      </trkpt>
      <trkpt lat="45.11454" lon="5.79006">
        <ele>524.4</ele>
        <time>2021-05-29T12:21:13Z</time>
      </trkpt>
      <trkpt lat="45.11455" lon="5.79008">
        <ele>524.4</ele>
        <time>2021-05-29T12:21:14Z</time>
      </trkpt>
      <trkpt lat="45.11456" lon="5.7901">
        <ele>524.4</ele>
        <time>2021-05-29T12:21:15Z</time>
      </trkpt>
      <trkpt lat="45.11457" lon="5.79012">
        <ele>524.8</ele>
        <time>2021-05-29T12:21:16Z</time>
      </trkpt>
      <trkpt lat="45.11458" lon="5.79014">
        <ele>525</ele>
        <time>2021-05-29T12:21:17Z</time>
      </trkpt>
      <trkpt lat="45.11459" lon="5.79016">
        <ele>525.2</ele>
        <time>2021-05-29T12:21:18Z</time>
      </trkpt>
      <trkpt lat="45.1146" lon="5.79017">
        <ele>525.4</ele>
        <time>2021-05-29T12:21:19Z</time>
      </trkpt>
      <trkpt lat="45.11461" lon="5.79019">
        <ele>525.8</ele>
        <time>2021-05-29T12:21:20Z</time>
      </trkpt>
      <trkpt lat="45.11462" lon="5.79021">
        <ele>526</ele>
        <time>2021-05-29T12:21:21Z</time>
      </trkpt>
      <trkpt lat="45.11463" lon="5.79022">
        <ele>526.4</ele>
        <time>2021-05-29T12:21:22Z</time>
      </trkpt>
      <trkpt lat="45.11464" lon="5.79024">
        <ele>526.4</ele>
        <time>2021-05-29T12:21:23Z</time>
      </trkpt>
      <trkpt lat="45.11465" lon="5.79025">
        <ele>526.6</ele>
        <time>2021-05-29T12:21:24Z</time>
      </trkpt>
      <trkpt lat="45.11466" lon="5.79026">
        <ele>526.6</ele>
        <time>2021-05-29T12:21:25Z</time>
      </trkpt>
      <trkpt lat="45.11467" lon="5.79028">
        <ele>526.6</ele>
        <time>2021-05-29T12:21:26Z</time>
      </trkpt>
      <trkpt lat="45.11468" lon="5.79029">
        <ele>526.8</ele>
        <time>2021-05-29T12:21:27Z</time>
      </trkpt>
      <trkpt lat="45.11469" lon="5.7903">
        <ele>526.6</ele>
        <time>2021-05-29T12:21:28Z</time>
      </trkpt>
      <trkpt lat="45.1147" lon="5.79031">
        <ele>527</ele>
        <time>2021-05-29T12:21:29Z</time>
      </trkpt>
      <trkpt lat="45.11471" lon="5.79033">
        <ele>527.2</ele>
        <time>2021-05-29T12:21:30Z</time>
      </trkpt>
      <trkpt lat="45.11472" lon="5.79034">
        <ele>527.4</ele>
        <time>2021-05-29T12:21:31Z</time>
      </trkpt>
      <trkpt lat="45.11472" lon="5.79036">
        <ele>527.6</ele>
        <time>2021-05-29T12:21:32Z</time>
      </trkpt>
      <trkpt lat="45.11473" lon="5.79038">
        <ele>527.6</ele>
        <time>2021-05-29T12:21:33Z</time>
      </trkpt>
      <trkpt lat="45.11474" lon="5.7904">
        <ele>527.8</ele>
        <time>2021-05-29T12:21:34Z</time>
      </trkpt>
      <trkpt lat="45.11475" lon="5.79041">
        <ele>527.8</ele>
        <time>2021-05-29T12:21:35Z</time>
      </trkpt>
      <trkpt lat="45.11475" lon="5.79043">
        <ele>528</ele>
        <time>2021-05-29T12:21:36Z</time>
      </trkpt>
      <trkpt lat="45.11476" lon="5.79045">
        <ele>528.2</ele>
        <time>2021-05-29T12:21:37Z</time>
      </trkpt>
      <trkpt lat="45.11477" lon="5.79047">
        <ele>528.4</ele>
        <time>2021-05-29T12:21:38Z</time>
      </trkpt>
      <trkpt lat="45.11479" lon="5.79049">
        <ele>528.6</ele>
        <time>2021-05-29T12:21:39Z</time>
      </trkpt>
      <trkpt lat="45.1148" lon="5.79051">
        <ele>528.8</ele>
        <time>2021-05-29T12:21:40Z</time>
      </trkpt>
      <trkpt lat="45.11481" lon="5.79053">
        <ele>529.2</ele>
        <time>2021-05-29T12:21:41Z</time>
      </trkpt>
      <trkpt lat="45.11483" lon="5.79055">
        <ele>529.2</ele>
        <time>2021-05-29T12:21:42Z</time>
      </trkpt>
      <trkpt lat="45.11484" lon="5.79056">
        <ele>529.6</ele>
        <time>2021-05-29T12:21:43Z</time>
      </trkpt>
      <trkpt lat="45.11485" lon="5.79057">
        <ele>529.8</ele>
        <time>2021-05-29T12:21:44Z</time>
      </trkpt>
      <trkpt lat="45.11486" lon="5.79058">
        <ele>530</ele>
        <time>2021-05-29T12:21:45Z</time>
      </trkpt>
      <trkpt lat="45.11487" lon="5.79059">
        <ele>530.4</ele>
        <time>2021-05-29T12:21:46Z</time>
      </trkpt>
      <trkpt lat="45.11488" lon="5.7906">
        <ele>530.4</ele>
        <time>2021-05-29T12:21:47Z</time>
      </trkpt>
      <trkpt lat="45.11489" lon="5.79061">
        <ele>530.6</ele>
        <time>2021-05-29T12:21:48Z</time>
      </trkpt>
      <trkpt lat="45.1149" lon="5.79062">
        <ele>530.6</ele>
        <time>2021-05-29T12:21:49Z</time>
      </trkpt>
      <trkpt lat="45.11492" lon="5.79063">
        <ele>531</ele>
        <time>2021-05-29T12:21:50Z</time>
      </trkpt>
      <trkpt lat="45.11493" lon="5.79065">
        <ele>531.2</ele>
        <time>2021-05-29T12:21:51Z</time>
      </trkpt>
      <trkpt lat="45.11495" lon="5.79067">
        <ele>531.4</ele>
        <time>2021-05-29T12:21:52Z</time>
      </trkpt>
      <trkpt lat="45.11496" lon="5.79068">
        <ele>531.6</ele>
        <time>2021-05-29T12:21:53Z</time>
      </trkpt>
      <trkpt lat="45.11497" lon="5.7907">
        <ele>531.8</ele>
        <time>2021-05-29T12:21:54Z</time>
      </trkpt>
      <trkpt lat="45.11499" lon="5.79071">
        <ele>532</ele>
        <time>2021-05-29T12:21:55Z</time>
      </trkpt>
      <trkpt lat="45.115" lon="5.79073">
        <ele>532</ele>
        <time>2021-05-29T12:21:56Z</time>
      </trkpt>
      <trkpt lat="45.11501" lon="5.79074">
        <ele>532.2</ele>
        <time>2021-05-29T12:21:57Z</time>
      </trkpt>
      <trkpt lat="45.11501" lon="5.79076">
        <ele>532.4</ele>
        <time>2021-05-29T12:21:58Z</time>
      </trkpt>
      <trkpt lat="45.11502" lon="5.79077">
        <ele>532.4</ele>
        <time>2021-05-29T12:21:59Z</time>
      </trkpt>
      <trkpt lat="45.11503" lon="5.79079">
        <ele>532.6</ele>
        <time>2021-05-29T12:22:00Z</time>
      </trkpt>
      <trkpt lat="45.11504" lon="5.7908">
        <ele>532.8</ele>
        <time>2021-05-29T12:22:01Z</time>
      </trkpt>
      <trkpt lat="45.11505" lon="5.79081">
        <ele>533</ele>
        <time>2021-05-29T12:22:02Z</time>
      </trkpt>
      <trkpt lat="45.11506" lon="5.79083">
        <ele>533.2</ele>
        <time>2021-05-29T12:22:03Z</time>
      </trkpt>
      <trkpt lat="45.11508" lon="5.79085">
        <ele>533.4</ele>
        <time>2021-05-29T12:22:04Z</time>
      </trkpt>
      <trkpt lat="45.11509" lon="5.79087">
        <ele>533.6</ele>
        <time>2021-05-29T12:22:05Z</time>
      </trkpt>
      <trkpt lat="45.1151" lon="5.79089">
        <ele>533.8</ele>
        <time>2021-05-29T12:22:06Z</time>
      </trkpt>
      <trkpt lat="45.11511" lon="5.79091">
        <ele>534</ele>
        <time>2021-05-29T12:22:07Z</time>
      </trkpt>
      <trkpt lat="45.11513" lon="5.79092">
        <ele>534.2</ele>
        <time>2021-05-29T12:22:08Z</time>
      </trkpt>
      <trkpt lat="45.11513" lon="5.79093">
        <ele>534.4</ele>
        <time>2021-05-29T12:22:09Z</time>
      </trkpt>
      <trkpt lat="45.11514" lon="5.79095">
        <ele>534.6</ele>
        <time>2021-05-29T12:22:10Z</time>
      </trkpt>
      <trkpt lat="45.11515" lon="5.79096">
        <ele>534.6</ele>
        <time>2021-05-29T12:22:11Z</time>
      </trkpt>
      <trkpt lat="45.11515" lon="5.79097">
        <ele>534.8</ele>
        <time>2021-05-29T12:22:12Z</time>
      </trkpt>
      <trkpt lat="45.11516" lon="5.79098">
        <ele>534.8</ele>
        <time>2021-05-29T12:22:13Z</time>
      </trkpt>
      <trkpt lat="45.11517" lon="5.79099">
        <ele>535</ele>
        <time>2021-05-29T12:22:14Z</time>
      </trkpt>
      <trkpt lat="45.11517" lon="5.791">
        <ele>535</ele>
        <time>2021-05-29T12:22:15Z</time>
      </trkpt>
      <trkpt lat="45.11518" lon="5.79101">
        <ele>535.2</ele>
        <time>2021-05-29T12:22:16Z</time>
      </trkpt>
      <trkpt lat="45.11519" lon="5.79102">
        <ele>535.6</ele>
        <time>2021-05-29T12:22:17Z</time>
      </trkpt>
      <trkpt lat="45.11521" lon="5.79103">
        <ele>535.6</ele>
        <time>2021-05-29T12:22:18Z</time>
      </trkpt>
      <trkpt lat="45.11521" lon="5.79103">
        <ele>535.8</ele>
        <time>2021-05-29T12:22:19Z</time>
      </trkpt>
      <trkpt lat="45.11521" lon="5.79103">
        <ele>536</ele>
        <time>2021-05-29T12:22:20Z</time>
      </trkpt>
      <trkpt lat="45.11521" lon="5.79103">
        <ele>536.4</ele>
        <time>2021-05-29T12:22:21Z</time>
      </trkpt>
      <trkpt lat="45.11523" lon="5.79104">
        <ele>536.8</ele>
        <time>2021-05-29T12:22:22Z</time>
      </trkpt>
      <trkpt lat="45.11525" lon="5.79106">
        <ele>536.8</ele>
        <time>2021-05-29T12:22:23Z</time>
      </trkpt>
      <trkpt lat="45.11527" lon="5.79107">
        <ele>536.6</ele>
        <time>2021-05-29T12:22:24Z</time>
      </trkpt>
      <trkpt lat="45.11528" lon="5.79108">
        <ele>536.8</ele>
        <time>2021-05-29T12:22:25Z</time>
      </trkpt>
      <trkpt lat="45.1153" lon="5.7911">
        <ele>536.8</ele>
        <time>2021-05-29T12:22:26Z</time>
      </trkpt>
      <trkpt lat="45.11532" lon="5.79111">
        <ele>536.8</ele>
        <time>2021-05-29T12:22:27Z</time>
      </trkpt>
      <trkpt lat="45.11534" lon="5.79112">
        <ele>537</ele>
        <time>2021-05-29T12:22:28Z</time>
      </trkpt>
      <trkpt lat="45.11535" lon="5.79114">
        <ele>537.2</ele>
        <time>2021-05-29T12:22:29Z</time>
      </trkpt>
      <trkpt lat="45.11536" lon="5.79117">
        <ele>537.4</ele>
        <time>2021-05-29T12:22:30Z</time>
      </trkpt>
      <trkpt lat="45.11536" lon="5.79117">
        <ele>537.6</ele>
        <time>2021-05-29T12:22:31Z</time>
      </trkpt>
      <trkpt lat="45.11538" lon="5.79118">
        <ele>537.6</ele>
        <time>2021-05-29T12:22:32Z</time>
      </trkpt>
      <trkpt lat="45.11538" lon="5.79118">
        <ele>537.6</ele>
        <time>2021-05-29T12:22:33Z</time>
      </trkpt>
      <trkpt lat="45.11538" lon="5.79118">
        <ele>537.8</ele>
        <time>2021-05-29T12:22:34Z</time>
      </trkpt>
      <trkpt lat="45.11539" lon="5.79121">
        <ele>537.8</ele>
        <time>2021-05-29T12:22:35Z</time>
      </trkpt>
      <trkpt lat="45.11539" lon="5.79121">
        <ele>538</ele>
        <time>2021-05-29T12:22:36Z</time>
      </trkpt>
      <trkpt lat="45.11541" lon="5.79122">
        <ele>538.2</ele>
        <time>2021-05-29T12:22:37Z</time>
      </trkpt>
      <trkpt lat="45.11541" lon="5.79122">
        <ele>538.4</ele>
        <time>2021-05-29T12:22:38Z</time>
      </trkpt>
      <trkpt lat="45.11543" lon="5.79123">
        <ele>538.6</ele>
        <time>2021-05-29T12:22:39Z</time>
      </trkpt>
      <trkpt lat="45.11545" lon="5.79125">
        <ele>538.6</ele>
        <time>2021-05-29T12:22:40Z</time>
      </trkpt>
      <trkpt lat="45.11547" lon="5.79126">
        <ele>538.8</ele>
        <time>2021-05-29T12:22:41Z</time>
      </trkpt>
      <trkpt lat="45.11551" lon="5.79129">
        <ele>538.8</ele>
        <time>2021-05-29T12:22:42Z</time>
      </trkpt>
      <trkpt lat="45.11551" lon="5.79129">
        <ele>539</ele>
        <time>2021-05-29T12:22:43Z</time>
      </trkpt>
      <trkpt lat="45.11553" lon="5.79132">
        <ele>539.2</ele>
        <time>2021-05-29T12:22:44Z</time>
      </trkpt>
      <trkpt lat="45.11553" lon="5.79132">
        <ele>539.4</ele>
        <time>2021-05-29T12:22:45Z</time>
      </trkpt>
      <trkpt lat="45.11553" lon="5.79132">
        <ele>539.4</ele>
        <time>2021-05-29T12:22:46Z</time>
      </trkpt>
      <trkpt lat="45.11554" lon="5.79135">
        <ele>539.6</ele>
        <time>2021-05-29T12:22:47Z</time>
      </trkpt>
      <trkpt lat="45.11556" lon="5.79137">
        <ele>539.8</ele>
        <time>2021-05-29T12:22:48Z</time>
      </trkpt>
      <trkpt lat="45.11556" lon="5.79137">
        <ele>539.8</ele>
        <time>2021-05-29T12:22:49Z</time>
      </trkpt>
      <trkpt lat="45.11556" lon="5.79137">
        <ele>539.8</ele>
        <time>2021-05-29T12:22:50Z</time>
      </trkpt>
      <trkpt lat="45.11556" lon="5.79137">
        <ele>540</ele>
        <time>2021-05-29T12:22:51Z</time>
      </trkpt>
      <trkpt lat="45.11558" lon="5.7914">
        <ele>540</ele>
        <time>2021-05-29T12:22:52Z</time>
      </trkpt>
      <trkpt lat="45.11561" lon="5.79142">
        <ele>540.2</ele>
        <time>2021-05-29T12:22:53Z</time>
      </trkpt>
      <trkpt lat="45.11563" lon="5.79144">
        <ele>540</ele>
        <time>2021-05-29T12:22:54Z</time>
      </trkpt>
      <trkpt lat="45.11565" lon="5.79146">
        <ele>540.2</ele>
        <time>2021-05-29T12:22:55Z</time>
      </trkpt>
      <trkpt lat="45.11568" lon="5.79148">
        <ele>540.4</ele>
        <time>2021-05-29T12:22:56Z</time>
      </trkpt>
      <trkpt lat="45.11568" lon="5.79148">
        <ele>540.6</ele>
        <time>2021-05-29T12:22:57Z</time>
      </trkpt>
      <trkpt lat="45.1157" lon="5.79151">
        <ele>540.6</ele>
        <time>2021-05-29T12:22:58Z</time>
      </trkpt>
      <trkpt lat="45.1157" lon="5.79151">
        <ele>540.8</ele>
        <time>2021-05-29T12:22:59Z</time>
      </trkpt>
      <trkpt lat="45.1157" lon="5.79151">
        <ele>540.8</ele>
        <time>2021-05-29T12:23:00Z</time>
      </trkpt>
      <trkpt lat="45.11573" lon="5.79153">
        <ele>541</ele>
        <time>2021-05-29T12:23:01Z</time>
      </trkpt>
      <trkpt lat="45.11575" lon="5.79155">
        <ele>540.8</ele>
        <time>2021-05-29T12:23:02Z</time>
      </trkpt>
      <trkpt lat="45.11576" lon="5.79156">
        <ele>541</ele>
        <time>2021-05-29T12:23:03Z</time>
      </trkpt>
      <trkpt lat="45.11578" lon="5.79157">
        <ele>541.2</ele>
        <time>2021-05-29T12:23:04Z</time>
      </trkpt>
      <trkpt lat="45.11579" lon="5.79159">
        <ele>541.2</ele>
        <time>2021-05-29T12:23:05Z</time>
      </trkpt>
      <trkpt lat="45.11579" lon="5.79159">
        <ele>541.2</ele>
        <time>2021-05-29T12:23:06Z</time>
      </trkpt>
      <trkpt lat="45.11581" lon="5.7916">
        <ele>541.2</ele>
        <time>2021-05-29T12:23:07Z</time>
      </trkpt>
      <trkpt lat="45.11583" lon="5.79162">
        <ele>541.2</ele>
        <time>2021-05-29T12:23:08Z</time>
      </trkpt>
      <trkpt lat="45.11583" lon="5.79164">
        <ele>541.2</ele>
        <time>2021-05-29T12:23:09Z</time>
      </trkpt>
      <trkpt lat="45.11584" lon="5.79165">
        <ele>541.4</ele>
        <time>2021-05-29T12:23:10Z</time>
      </trkpt>
      <trkpt lat="45.11585" lon="5.79167">
        <ele>541.6</ele>
        <time>2021-05-29T12:23:11Z</time>
      </trkpt>
      <trkpt lat="45.11585" lon="5.79167">
        <ele>541.8</ele>
        <time>2021-05-29T12:23:12Z</time>
      </trkpt>
      <trkpt lat="45.11585" lon="5.79167">
        <ele>541.8</ele>
        <time>2021-05-29T12:23:13Z</time>
      </trkpt>
      <trkpt lat="45.11585" lon="5.79168">
        <ele>542</ele>
        <time>2021-05-29T12:23:14Z</time>
      </trkpt>
      <trkpt lat="45.11586" lon="5.79168">
        <ele>542</ele>
        <time>2021-05-29T12:23:15Z</time>
      </trkpt>
      <trkpt lat="45.11587" lon="5.79169">
        <ele>541.8</ele>
        <time>2021-05-29T12:23:16Z</time>
      </trkpt>
      <trkpt lat="45.11587" lon="5.7917">
        <ele>542</ele>
        <time>2021-05-29T12:23:17Z</time>
      </trkpt>
      <trkpt lat="45.11588" lon="5.79171">
        <ele>542.2</ele>
        <time>2021-05-29T12:23:18Z</time>
      </trkpt>
      <trkpt lat="45.11588" lon="5.79171">
        <ele>542.4</ele>
        <time>2021-05-29T12:23:19Z</time>
      </trkpt>
      <trkpt lat="45.11589" lon="5.79172">
        <ele>542.6</ele>
        <time>2021-05-29T12:23:20Z</time>
      </trkpt>
      <trkpt lat="45.11589" lon="5.79173">
        <ele>542.8</ele>
        <time>2021-05-29T12:23:21Z</time>
      </trkpt>
      <trkpt lat="45.1159" lon="5.79173">
        <ele>542.8</ele>
        <time>2021-05-29T12:23:22Z</time>
      </trkpt>
      <trkpt lat="45.1159" lon="5.79174">
        <ele>542.8</ele>
        <time>2021-05-29T12:23:23Z</time>
      </trkpt>
      <trkpt lat="45.11591" lon="5.79175">
        <ele>542.8</ele>
        <time>2021-05-29T12:23:24Z</time>
      </trkpt>
      <trkpt lat="45.11591" lon="5.79176">
        <ele>542.6</ele>
        <time>2021-05-29T12:23:25Z</time>
      </trkpt>
      <trkpt lat="45.11592" lon="5.79176">
        <ele>542.8</ele>
        <time>2021-05-29T12:23:26Z</time>
      </trkpt>
      <trkpt lat="45.11592" lon="5.79177">
        <ele>542.8</ele>
        <time>2021-05-29T12:23:27Z</time>
      </trkpt>
      <trkpt lat="45.11594" lon="5.79178">
        <ele>542.8</ele>
        <time>2021-05-29T12:23:28Z</time>
      </trkpt>
      <trkpt lat="45.11595" lon="5.7918">
        <ele>543</ele>
        <time>2021-05-29T12:23:29Z</time>
      </trkpt>
      <trkpt lat="45.11596" lon="5.79181">
        <ele>543.2</ele>
        <time>2021-05-29T12:23:30Z</time>
      </trkpt>
      <trkpt lat="45.11597" lon="5.79183">
        <ele>543.6</ele>
        <time>2021-05-29T12:23:31Z</time>
      </trkpt>
      <trkpt lat="45.11598" lon="5.79184">
        <ele>543.6</ele>
        <time>2021-05-29T12:23:32Z</time>
      </trkpt>
      <trkpt lat="45.11599" lon="5.79186">
        <ele>543.8</ele>
        <time>2021-05-29T12:23:33Z</time>
      </trkpt>
      <trkpt lat="45.11601" lon="5.79189">
        <ele>543.6</ele>
        <time>2021-05-29T12:23:34Z</time>
      </trkpt>
      <trkpt lat="45.11601" lon="5.79189">
        <ele>543.6</ele>
        <time>2021-05-29T12:23:35Z</time>
      </trkpt>
      <trkpt lat="45.11601" lon="5.79189">
        <ele>543.6</ele>
        <time>2021-05-29T12:23:36Z</time>
      </trkpt>
      <trkpt lat="45.11602" lon="5.79191">
        <ele>543.6</ele>
        <time>2021-05-29T12:23:37Z</time>
      </trkpt>
      <trkpt lat="45.11602" lon="5.79191">
        <ele>543.6</ele>
        <time>2021-05-29T12:23:38Z</time>
      </trkpt>
      <trkpt lat="45.11602" lon="5.79191">
        <ele>543.8</ele>
        <time>2021-05-29T12:23:39Z</time>
      </trkpt>
      <trkpt lat="45.11603" lon="5.79194">
        <ele>544.2</ele>
        <time>2021-05-29T12:23:40Z</time>
      </trkpt>
      <trkpt lat="45.11604" lon="5.79196">
        <ele>544.2</ele>
        <time>2021-05-29T12:23:41Z</time>
      </trkpt>
      <trkpt lat="45.11606" lon="5.79199">
        <ele>544.2</ele>
        <time>2021-05-29T12:23:42Z</time>
      </trkpt>
      <trkpt lat="45.11607" lon="5.79201">
        <ele>544.2</ele>
        <time>2021-05-29T12:23:43Z</time>
      </trkpt>
      <trkpt lat="45.11609" lon="5.79204">
        <ele>544.2</ele>
        <time>2021-05-29T12:23:44Z</time>
      </trkpt>
      <trkpt lat="45.1161" lon="5.79206">
        <ele>544.2</ele>
        <time>2021-05-29T12:23:45Z</time>
      </trkpt>
      <trkpt lat="45.11612" lon="5.79208">
        <ele>544</ele>
        <time>2021-05-29T12:23:46Z</time>
      </trkpt>
      <trkpt lat="45.11612" lon="5.79209">
        <ele>543.8</ele>
        <time>2021-05-29T12:23:47Z</time>
      </trkpt>
      <trkpt lat="45.11613" lon="5.79211">
        <ele>544</ele>
        <time>2021-05-29T12:23:48Z</time>
      </trkpt>
      <trkpt lat="45.11613" lon="5.79211">
        <ele>544.4</ele>
        <time>2021-05-29T12:23:49Z</time>
      </trkpt>
      <trkpt lat="45.11615" lon="5.79212">
        <ele>544.6</ele>
        <time>2021-05-29T12:23:50Z</time>
      </trkpt>
      <trkpt lat="45.11615" lon="5.79212">
        <ele>545</ele>
        <time>2021-05-29T12:23:51Z</time>
      </trkpt>
      <trkpt lat="45.11617" lon="5.79214">
        <ele>544.8</ele>
        <time>2021-05-29T12:23:52Z</time>
      </trkpt>
      <trkpt lat="45.11617" lon="5.79215">
        <ele>545</ele>
        <time>2021-05-29T12:23:53Z</time>
      </trkpt>
      <trkpt lat="45.11618" lon="5.79216">
        <ele>545</ele>
        <time>2021-05-29T12:23:54Z</time>
      </trkpt>
      <trkpt lat="45.11619" lon="5.79217">
        <ele>545</ele>
        <time>2021-05-29T12:23:55Z</time>
      </trkpt>
      <trkpt lat="45.11619" lon="5.79218">
        <ele>545</ele>
        <time>2021-05-29T12:23:56Z</time>
      </trkpt>
      <trkpt lat="45.1162" lon="5.79219">
        <ele>545</ele>
        <time>2021-05-29T12:23:57Z</time>
      </trkpt>
      <trkpt lat="45.11621" lon="5.7922">
        <ele>545.2</ele>
        <time>2021-05-29T12:23:58Z</time>
      </trkpt>
      <trkpt lat="45.11625" lon="5.79226">
        <ele>545.4</ele>
        <time>2021-05-29T12:23:59Z</time>
      </trkpt>
      <trkpt lat="45.1163" lon="5.79231">
        <ele>545.8</ele>
        <time>2021-05-29T12:24:01Z</time>
      </trkpt>
      <trkpt lat="45.11632" lon="5.79234">
        <ele>546.2</ele>
        <time>2021-05-29T12:24:02Z</time>
      </trkpt>
      <trkpt lat="45.11633" lon="5.79235">
        <ele>546.2</ele>
        <time>2021-05-29T12:24:03Z</time>
      </trkpt>
      <trkpt lat="45.11634" lon="5.79237">
        <ele>546.4</ele>
        <time>2021-05-29T12:24:04Z</time>
      </trkpt>
      <trkpt lat="45.11635" lon="5.79239">
        <ele>546.4</ele>
        <time>2021-05-29T12:24:05Z</time>
      </trkpt>
      <trkpt lat="45.11637" lon="5.79242">
        <ele>546.4</ele>
        <time>2021-05-29T12:24:06Z</time>
      </trkpt>
      <trkpt lat="45.11639" lon="5.79244">
        <ele>546.6</ele>
        <time>2021-05-29T12:24:07Z</time>
      </trkpt>
      <trkpt lat="45.1164" lon="5.79247">
        <ele>546.6</ele>
        <time>2021-05-29T12:24:08Z</time>
      </trkpt>
      <trkpt lat="45.11641" lon="5.79249">
        <ele>546.6</ele>
        <time>2021-05-29T12:24:09Z</time>
      </trkpt>
      <trkpt lat="45.11642" lon="5.79251">
        <ele>546.8</ele>
        <time>2021-05-29T12:24:10Z</time>
      </trkpt>
      <trkpt lat="45.11643" lon="5.79253">
        <ele>547.2</ele>
        <time>2021-05-29T12:24:11Z</time>
      </trkpt>
      <trkpt lat="45.11643" lon="5.79253">
        <ele>547.2</ele>
        <time>2021-05-29T12:24:12Z</time>
      </trkpt>
      <trkpt lat="45.11643" lon="5.79253">
        <ele>547.6</ele>
        <time>2021-05-29T12:24:13Z</time>
      </trkpt>
      <trkpt lat="45.11643" lon="5.79253">
        <ele>547.8</ele>
        <time>2021-05-29T12:24:14Z</time>
      </trkpt>
      <trkpt lat="45.11645" lon="5.79256">
        <ele>548.2</ele>
        <time>2021-05-29T12:24:15Z</time>
      </trkpt>
      <trkpt lat="45.11647" lon="5.79259">
        <ele>548.4</ele>
        <time>2021-05-29T12:24:16Z</time>
      </trkpt>
      <trkpt lat="45.11649" lon="5.79262">
        <ele>548.6</ele>
        <time>2021-05-29T12:24:17Z</time>
      </trkpt>
      <trkpt lat="45.11651" lon="5.79265">
        <ele>549</ele>
        <time>2021-05-29T12:24:18Z</time>
      </trkpt>
      <trkpt lat="45.11653" lon="5.79269">
        <ele>549.4</ele>
        <time>2021-05-29T12:24:19Z</time>
      </trkpt>
      <trkpt lat="45.11653" lon="5.79269">
        <ele>549.4</ele>
        <time>2021-05-29T12:24:20Z</time>
      </trkpt>
      <trkpt lat="45.11653" lon="5.7927">
        <ele>549.6</ele>
        <time>2021-05-29T12:24:21Z</time>
      </trkpt>
      <trkpt lat="45.11654" lon="5.79271">
        <ele>550</ele>
        <time>2021-05-29T12:24:22Z</time>
      </trkpt>
      <trkpt lat="45.11654" lon="5.79271">
        <ele>549.8</ele>
        <time>2021-05-29T12:24:23Z</time>
      </trkpt>
      <trkpt lat="45.11654" lon="5.79271">
        <ele>549.8</ele>
        <time>2021-05-29T12:24:24Z</time>
      </trkpt>
      <trkpt lat="45.11654" lon="5.79271">
        <ele>550</ele>
        <time>2021-05-29T12:24:25Z</time>
      </trkpt>
      <trkpt lat="45.11655" lon="5.79273">
        <ele>550</ele>
        <time>2021-05-29T12:24:26Z</time>
      </trkpt>
      <trkpt lat="45.11657" lon="5.79275">
        <ele>550</ele>
        <time>2021-05-29T12:24:27Z</time>
      </trkpt>
      <trkpt lat="45.11657" lon="5.79275">
        <ele>550.2</ele>
        <time>2021-05-29T12:24:28Z</time>
      </trkpt>
      <trkpt lat="45.11657" lon="5.79275">
        <ele>550.2</ele>
        <time>2021-05-29T12:24:29Z</time>
      </trkpt>
      <trkpt lat="45.11657" lon="5.79275">
        <ele>550.2</ele>
        <time>2021-05-29T12:24:30Z</time>
      </trkpt>
      <trkpt lat="45.1166" lon="5.79277">
        <ele>550.2</ele>
        <time>2021-05-29T12:24:31Z</time>
      </trkpt>
      <trkpt lat="45.11663" lon="5.7928">
        <ele>550.2</ele>
        <time>2021-05-29T12:24:32Z</time>
      </trkpt>
      <trkpt lat="45.11666" lon="5.79283">
        <ele>550.2</ele>
        <time>2021-05-29T12:24:33Z</time>
      </trkpt>
      <trkpt lat="45.11669" lon="5.79286">
        <ele>550.2</ele>
        <time>2021-05-29T12:24:34Z</time>
      </trkpt>
      <trkpt lat="45.11669" lon="5.79286">
        <ele>550.6</ele>
        <time>2021-05-29T12:24:35Z</time>
      </trkpt>
      <trkpt lat="45.1167" lon="5.79288">
        <ele>550.6</ele>
        <time>2021-05-29T12:24:36Z</time>
      </trkpt>
      <trkpt lat="45.11673" lon="5.79291">
        <ele>551</ele>
        <time>2021-05-29T12:24:37Z</time>
      </trkpt>
      <trkpt lat="45.11673" lon="5.79291">
        <ele>551</ele>
        <time>2021-05-29T12:24:38Z</time>
      </trkpt>
      <trkpt lat="45.11675" lon="5.79293">
        <ele>551</ele>
        <time>2021-05-29T12:24:39Z</time>
      </trkpt>
      <trkpt lat="45.11675" lon="5.79293">
        <ele>551.2</ele>
        <time>2021-05-29T12:24:40Z</time>
      </trkpt>
      <trkpt lat="45.11676" lon="5.79296">
        <ele>551</ele>
        <time>2021-05-29T12:24:41Z</time>
      </trkpt>
      <trkpt lat="45.11676" lon="5.79296">
        <ele>551.2</ele>
        <time>2021-05-29T12:24:42Z</time>
      </trkpt>
      <trkpt lat="45.11678" lon="5.79299">
        <ele>551.6</ele>
        <time>2021-05-29T12:24:43Z</time>
      </trkpt>
      <trkpt lat="45.11678" lon="5.79299">
        <ele>551.6</ele>
        <time>2021-05-29T12:24:44Z</time>
      </trkpt>
      <trkpt lat="45.11678" lon="5.79299">
        <ele>551.8</ele>
        <time>2021-05-29T12:24:45Z</time>
      </trkpt>
      <trkpt lat="45.1168" lon="5.79302">
        <ele>551.8</ele>
        <time>2021-05-29T12:24:46Z</time>
      </trkpt>
      <trkpt lat="45.1168" lon="5.79302">
        <ele>552</ele>
        <time>2021-05-29T12:24:47Z</time>
      </trkpt>
      <trkpt lat="45.11681" lon="5.79305">
        <ele>552.2</ele>
        <time>2021-05-29T12:24:48Z</time>
      </trkpt>
      <trkpt lat="45.11681" lon="5.79305">
        <ele>552.2</ele>
        <time>2021-05-29T12:24:49Z</time>
      </trkpt>
      <trkpt lat="45.11681" lon="5.79305">
        <ele>552.6</ele>
        <time>2021-05-29T12:24:50Z</time>
      </trkpt>
      <trkpt lat="45.11683" lon="5.79308">
        <ele>552.8</ele>
        <time>2021-05-29T12:24:51Z</time>
      </trkpt>
      <trkpt lat="45.11683" lon="5.79308">
        <ele>553</ele>
        <time>2021-05-29T12:24:52Z</time>
      </trkpt>
      <trkpt lat="45.11683" lon="5.79308">
        <ele>553.4</ele>
        <time>2021-05-29T12:24:53Z</time>
      </trkpt>
      <trkpt lat="45.11686" lon="5.7931">
        <ele>553.6</ele>
        <time>2021-05-29T12:24:54Z</time>
      </trkpt>
      <trkpt lat="45.11686" lon="5.7931">
        <ele>554</ele>
        <time>2021-05-29T12:24:55Z</time>
      </trkpt>
      <trkpt lat="45.11688" lon="5.79312">
        <ele>554</ele>
        <time>2021-05-29T12:24:56Z</time>
      </trkpt>
      <trkpt lat="45.11688" lon="5.79312">
        <ele>554.4</ele>
        <time>2021-05-29T12:24:57Z</time>
      </trkpt>
      <trkpt lat="45.11688" lon="5.79312">
        <ele>554.6</ele>
        <time>2021-05-29T12:24:58Z</time>
      </trkpt>
      <trkpt lat="45.11689" lon="5.79314">
        <ele>554.8</ele>
        <time>2021-05-29T12:24:59Z</time>
      </trkpt>
      <trkpt lat="45.11689" lon="5.79314">
        <ele>555</ele>
        <time>2021-05-29T12:25:00Z</time>
      </trkpt>
      <trkpt lat="45.11691" lon="5.79316">
        <ele>555</ele>
        <time>2021-05-29T12:25:01Z</time>
      </trkpt>
      <trkpt lat="45.11691" lon="5.79316">
        <ele>555.2</ele>
        <time>2021-05-29T12:25:02Z</time>
      </trkpt>
      <trkpt lat="45.11691" lon="5.79316">
        <ele>555.2</ele>
        <time>2021-05-29T12:25:03Z</time>
      </trkpt>
      <trkpt lat="45.11691" lon="5.79316">
        <ele>555.6</ele>
        <time>2021-05-29T12:25:04Z</time>
      </trkpt>
      <trkpt lat="45.11692" lon="5.79317">
        <ele>555.8</ele>
        <time>2021-05-29T12:25:05Z</time>
      </trkpt>
      <trkpt lat="45.11693" lon="5.79318">
        <ele>556</ele>
        <time>2021-05-29T12:25:06Z</time>
      </trkpt>
      <trkpt lat="45.11694" lon="5.79319">
        <ele>556.2</ele>
        <time>2021-05-29T12:25:07Z</time>
      </trkpt>
      <trkpt lat="45.11695" lon="5.79321">
        <ele>556.4</ele>
        <time>2021-05-29T12:25:08Z</time>
      </trkpt>
      <trkpt lat="45.11696" lon="5.79322">
        <ele>556.4</ele>
        <time>2021-05-29T12:25:09Z</time>
      </trkpt>
      <trkpt lat="45.11697" lon="5.79324">
        <ele>556.6</ele>
        <time>2021-05-29T12:25:10Z</time>
      </trkpt>
      <trkpt lat="45.11698" lon="5.79326">
        <ele>556.6</ele>
        <time>2021-05-29T12:25:11Z</time>
      </trkpt>
      <trkpt lat="45.11699" lon="5.79328">
        <ele>557</ele>
        <time>2021-05-29T12:25:12Z</time>
      </trkpt>
      <trkpt lat="45.11701" lon="5.79331">
        <ele>557</ele>
        <time>2021-05-29T12:25:13Z</time>
      </trkpt>
      <trkpt lat="45.11702" lon="5.79333">
        <ele>557.2</ele>
        <time>2021-05-29T12:25:14Z</time>
      </trkpt>
      <trkpt lat="45.11704" lon="5.79335">
        <ele>557.2</ele>
        <time>2021-05-29T12:25:15Z</time>
      </trkpt>
      <trkpt lat="45.11705" lon="5.79336">
        <ele>557.4</ele>
        <time>2021-05-29T12:25:16Z</time>
      </trkpt>
      <trkpt lat="45.11706" lon="5.79338">
        <ele>557.8</ele>
        <time>2021-05-29T12:25:17Z</time>
      </trkpt>
      <trkpt lat="45.11708" lon="5.7934">
        <ele>558.2</ele>
        <time>2021-05-29T12:25:18Z</time>
      </trkpt>
      <trkpt lat="45.11708" lon="5.7934">
        <ele>558.6</ele>
        <time>2021-05-29T12:25:19Z</time>
      </trkpt>
      <trkpt lat="45.11708" lon="5.7934">
        <ele>559.2</ele>
        <time>2021-05-29T12:25:20Z</time>
      </trkpt>
      <trkpt lat="45.1171" lon="5.79342">
        <ele>559.6</ele>
        <time>2021-05-29T12:25:21Z</time>
      </trkpt>
      <trkpt lat="45.1171" lon="5.79342">
        <ele>559.8</ele>
        <time>2021-05-29T12:25:22Z</time>
      </trkpt>
      <trkpt lat="45.1171" lon="5.79342">
        <ele>559.6</ele>
        <time>2021-05-29T12:25:23Z</time>
      </trkpt>
      <trkpt lat="45.1171" lon="5.79342">
        <ele>559.6</ele>
        <time>2021-05-29T12:25:24Z</time>
      </trkpt>
      <trkpt lat="45.11712" lon="5.79345">
        <ele>559.6</ele>
        <time>2021-05-29T12:25:25Z</time>
      </trkpt>
      <trkpt lat="45.11713" lon="5.79347">
        <ele>559.4</ele>
        <time>2021-05-29T12:25:26Z</time>
      </trkpt>
      <trkpt lat="45.11713" lon="5.79347">
        <ele>559.4</ele>
        <time>2021-05-29T12:25:27Z</time>
      </trkpt>
      <trkpt lat="45.11715" lon="5.79349">
        <ele>559.4</ele>
        <time>2021-05-29T12:25:28Z</time>
      </trkpt>
      <trkpt lat="45.11717" lon="5.7935">
        <ele>559.6</ele>
        <time>2021-05-29T12:25:29Z</time>
      </trkpt>
      <trkpt lat="45.11718" lon="5.79352">
        <ele>559.6</ele>
        <time>2021-05-29T12:25:30Z</time>
      </trkpt>
      <trkpt lat="45.1172" lon="5.79353">
        <ele>559.8</ele>
        <time>2021-05-29T12:25:31Z</time>
      </trkpt>
      <trkpt lat="45.1172" lon="5.79353">
        <ele>559.6</ele>
        <time>2021-05-29T12:25:32Z</time>
      </trkpt>
      <trkpt lat="45.11722" lon="5.79355">
        <ele>559.4</ele>
        <time>2021-05-29T12:25:33Z</time>
      </trkpt>
      <trkpt lat="45.11723" lon="5.79357">
        <ele>559.4</ele>
        <time>2021-05-29T12:25:34Z</time>
      </trkpt>
      <trkpt lat="45.11725" lon="5.79359">
        <ele>559.8</ele>
        <time>2021-05-29T12:25:35Z</time>
      </trkpt>
      <trkpt lat="45.11725" lon="5.79359">
        <ele>560</ele>
        <time>2021-05-29T12:25:36Z</time>
      </trkpt>
      <trkpt lat="45.11728" lon="5.79361">
        <ele>560</ele>
        <time>2021-05-29T12:25:37Z</time>
      </trkpt>
      <trkpt lat="45.11728" lon="5.79361">
        <ele>560.2</ele>
        <time>2021-05-29T12:25:38Z</time>
      </trkpt>
      <trkpt lat="45.11728" lon="5.79361">
        <ele>560.4</ele>
        <time>2021-05-29T12:25:39Z</time>
      </trkpt>
      <trkpt lat="45.1173" lon="5.79363">
        <ele>560.6</ele>
        <time>2021-05-29T12:25:40Z</time>
      </trkpt>
      <trkpt lat="45.1173" lon="5.79363">
        <ele>561</ele>
        <time>2021-05-29T12:25:41Z</time>
      </trkpt>
      <trkpt lat="45.11731" lon="5.79365">
        <ele>560.8</ele>
        <time>2021-05-29T12:25:42Z</time>
      </trkpt>
      <trkpt lat="45.11731" lon="5.79365">
        <ele>560.8</ele>
        <time>2021-05-29T12:25:43Z</time>
      </trkpt>
      <trkpt lat="45.11733" lon="5.79368">
        <ele>560.6</ele>
        <time>2021-05-29T12:25:44Z</time>
      </trkpt>
      <trkpt lat="45.11733" lon="5.79368">
        <ele>560.8</ele>
        <time>2021-05-29T12:25:45Z</time>
      </trkpt>
      <trkpt lat="45.11733" lon="5.79368">
        <ele>560.8</ele>
        <time>2021-05-29T12:25:46Z</time>
      </trkpt>
      <trkpt lat="45.11735" lon="5.7937">
        <ele>561</ele>
        <time>2021-05-29T12:25:47Z</time>
      </trkpt>
      <trkpt lat="45.11735" lon="5.7937">
        <ele>561.2</ele>
        <time>2021-05-29T12:25:48Z</time>
      </trkpt>
      <trkpt lat="45.11735" lon="5.7937">
        <ele>561.2</ele>
        <time>2021-05-29T12:25:49Z</time>
      </trkpt>
      <trkpt lat="45.11735" lon="5.7937">
        <ele>561.4</ele>
        <time>2021-05-29T12:25:50Z</time>
      </trkpt>
      <trkpt lat="45.11736" lon="5.79373">
        <ele>561.6</ele>
        <time>2021-05-29T12:25:51Z</time>
      </trkpt>
      <trkpt lat="45.11736" lon="5.79373">
        <ele>561.8</ele>
        <time>2021-05-29T12:25:52Z</time>
      </trkpt>
      <trkpt lat="45.11736" lon="5.79373">
        <ele>561.8</ele>
        <time>2021-05-29T12:25:53Z</time>
      </trkpt>
      <trkpt lat="45.11737" lon="5.79376">
        <ele>561.8</ele>
        <time>2021-05-29T12:25:54Z</time>
      </trkpt>
      <trkpt lat="45.1174" lon="5.79378">
        <ele>561.8</ele>
        <time>2021-05-29T12:25:55Z</time>
      </trkpt>
      <trkpt lat="45.11742" lon="5.7938">
        <ele>562</ele>
        <time>2021-05-29T12:25:56Z</time>
      </trkpt>
      <trkpt lat="45.11743" lon="5.79382">
        <ele>562.2</ele>
        <time>2021-05-29T12:25:57Z</time>
      </trkpt>
      <trkpt lat="45.11745" lon="5.79384">
        <ele>562.2</ele>
        <time>2021-05-29T12:25:58Z</time>
      </trkpt>
      <trkpt lat="45.11746" lon="5.79386">
        <ele>562.4</ele>
        <time>2021-05-29T12:25:59Z</time>
      </trkpt>
      <trkpt lat="45.11748" lon="5.79387">
        <ele>562.6</ele>
        <time>2021-05-29T12:26:00Z</time>
      </trkpt>
      <trkpt lat="45.11748" lon="5.79387">
        <ele>562.6</ele>
        <time>2021-05-29T12:26:01Z</time>
      </trkpt>
      <trkpt lat="45.1175" lon="5.79389">
        <ele>563</ele>
        <time>2021-05-29T12:26:02Z</time>
      </trkpt>
      <trkpt lat="45.11751" lon="5.7939">
        <ele>563.2</ele>
        <time>2021-05-29T12:26:03Z</time>
      </trkpt>
      <trkpt lat="45.11753" lon="5.79392">
        <ele>563.2</ele>
        <time>2021-05-29T12:26:04Z</time>
      </trkpt>
      <trkpt lat="45.11756" lon="5.79396">
        <ele>563.2</ele>
        <time>2021-05-29T12:26:05Z</time>
      </trkpt>
      <trkpt lat="45.11757" lon="5.79398">
        <ele>563.2</ele>
        <time>2021-05-29T12:26:06Z</time>
      </trkpt>
      <trkpt lat="45.11758" lon="5.794">
        <ele>563.4</ele>
        <time>2021-05-29T12:26:07Z</time>
      </trkpt>
      <trkpt lat="45.11758" lon="5.79402">
        <ele>563.8</ele>
        <time>2021-05-29T12:26:08Z</time>
      </trkpt>
      <trkpt lat="45.1176" lon="5.79404">
        <ele>563.4</ele>
        <time>2021-05-29T12:26:09Z</time>
      </trkpt>
      <trkpt lat="45.11761" lon="5.79407">
        <ele>563.8</ele>
        <time>2021-05-29T12:26:10Z</time>
      </trkpt>
      <trkpt lat="45.11762" lon="5.79409">
        <ele>563.6</ele>
        <time>2021-05-29T12:26:11Z</time>
      </trkpt>
      <trkpt lat="45.11762" lon="5.79409">
        <ele>563.8</ele>
        <time>2021-05-29T12:26:12Z</time>
      </trkpt>
      <trkpt lat="45.11762" lon="5.79409">
        <ele>563.8</ele>
        <time>2021-05-29T12:26:13Z</time>
      </trkpt>
      <trkpt lat="45.11764" lon="5.79412">
        <ele>564</ele>
        <time>2021-05-29T12:26:14Z</time>
      </trkpt>
      <trkpt lat="45.11766" lon="5.79415">
        <ele>563.6</ele>
        <time>2021-05-29T12:26:15Z</time>
      </trkpt>
      <trkpt lat="45.11768" lon="5.79418">
        <ele>563.8</ele>
        <time>2021-05-29T12:26:16Z</time>
      </trkpt>
      <trkpt lat="45.1177" lon="5.79421">
        <ele>563.6</ele>
        <time>2021-05-29T12:26:17Z</time>
      </trkpt>
      <trkpt lat="45.11771" lon="5.79425">
        <ele>563.6</ele>
        <time>2021-05-29T12:26:18Z</time>
      </trkpt>
      <trkpt lat="45.11772" lon="5.79429">
        <ele>563.2</ele>
        <time>2021-05-29T12:26:19Z</time>
      </trkpt>
      <trkpt lat="45.11773" lon="5.79431">
        <ele>563</ele>
        <time>2021-05-29T12:26:20Z</time>
      </trkpt>
      <trkpt lat="45.11774" lon="5.79434">
        <ele>562.2</ele>
        <time>2021-05-29T12:26:21Z</time>
      </trkpt>
      <trkpt lat="45.11776" lon="5.79436">
        <ele>562</ele>
        <time>2021-05-29T12:26:22Z</time>
      </trkpt>
      <trkpt lat="45.11776" lon="5.79436">
        <ele>561.4</ele>
        <time>2021-05-29T12:26:23Z</time>
      </trkpt>
      <trkpt lat="45.11777" lon="5.79439">
        <ele>561.2</ele>
        <time>2021-05-29T12:26:24Z</time>
      </trkpt>
      <trkpt lat="45.11777" lon="5.79439">
        <ele>560.8</ele>
        <time>2021-05-29T12:26:25Z</time>
      </trkpt>
      <trkpt lat="45.11777" lon="5.79439">
        <ele>560.8</ele>
        <time>2021-05-29T12:26:26Z</time>
      </trkpt>
      <trkpt lat="45.11778" lon="5.79443">
        <ele>560.4</ele>
        <time>2021-05-29T12:26:27Z</time>
      </trkpt>
      <trkpt lat="45.1178" lon="5.79447">
        <ele>560.4</ele>
        <time>2021-05-29T12:26:28Z</time>
      </trkpt>
      <trkpt lat="45.11782" lon="5.79451">
        <ele>559.8</ele>
        <time>2021-05-29T12:26:29Z</time>
      </trkpt>
      <trkpt lat="45.11783" lon="5.79454">
        <ele>559.8</ele>
        <time>2021-05-29T12:26:30Z</time>
      </trkpt>
      <trkpt lat="45.11785" lon="5.79458">
        <ele>559.4</ele>
        <time>2021-05-29T12:26:31Z</time>
      </trkpt>
      <trkpt lat="45.11787" lon="5.79462">
        <ele>559.4</ele>
        <time>2021-05-29T12:26:32Z</time>
      </trkpt>
      <trkpt lat="45.11787" lon="5.79462">
        <ele>559</ele>
        <time>2021-05-29T12:26:33Z</time>
      </trkpt>
      <trkpt lat="45.11789" lon="5.79465">
        <ele>559.2</ele>
        <time>2021-05-29T12:26:34Z</time>
      </trkpt>
      <trkpt lat="45.11789" lon="5.79465">
        <ele>558.6</ele>
        <time>2021-05-29T12:26:35Z</time>
      </trkpt>
      <trkpt lat="45.11791" lon="5.79467">
        <ele>558.2</ele>
        <time>2021-05-29T12:26:36Z</time>
      </trkpt>
      <trkpt lat="45.11791" lon="5.79467">
        <ele>558</ele>
        <time>2021-05-29T12:26:37Z</time>
      </trkpt>
      <trkpt lat="45.11793" lon="5.79471">
        <ele>557.4</ele>
        <time>2021-05-29T12:26:38Z</time>
      </trkpt>
      <trkpt lat="45.11793" lon="5.79471">
        <ele>557.6</ele>
        <time>2021-05-29T12:26:39Z</time>
      </trkpt>
      <trkpt lat="45.11796" lon="5.79474">
        <ele>557.2</ele>
        <time>2021-05-29T12:26:40Z</time>
      </trkpt>
      <trkpt lat="45.11798" lon="5.79477">
        <ele>557.4</ele>
        <time>2021-05-29T12:26:41Z</time>
      </trkpt>
      <trkpt lat="45.11798" lon="5.79477">
        <ele>557</ele>
        <time>2021-05-29T12:26:42Z</time>
      </trkpt>
      <trkpt lat="45.11799" lon="5.7948">
        <ele>557</ele>
        <time>2021-05-29T12:26:43Z</time>
      </trkpt>
      <trkpt lat="45.118" lon="5.79482">
        <ele>556.4</ele>
        <time>2021-05-29T12:26:44Z</time>
      </trkpt>
      <trkpt lat="45.11801" lon="5.79484">
        <ele>556.4</ele>
        <time>2021-05-29T12:26:45Z</time>
      </trkpt>
      <trkpt lat="45.11802" lon="5.79488">
        <ele>555.4</ele>
        <time>2021-05-29T12:26:46Z</time>
      </trkpt>
      <trkpt lat="45.11804" lon="5.79491">
        <ele>555.2</ele>
        <time>2021-05-29T12:26:47Z</time>
      </trkpt>
      <trkpt lat="45.11804" lon="5.79491">
        <ele>554.4</ele>
        <time>2021-05-29T12:26:48Z</time>
      </trkpt>
      <trkpt lat="45.11806" lon="5.79493">
        <ele>554</ele>
        <time>2021-05-29T12:26:49Z</time>
      </trkpt>
      <trkpt lat="45.11808" lon="5.79497">
        <ele>553.4</ele>
        <time>2021-05-29T12:26:50Z</time>
      </trkpt>
      <trkpt lat="45.1181" lon="5.795">
        <ele>552.4</ele>
        <time>2021-05-29T12:26:51Z</time>
      </trkpt>
      <trkpt lat="45.11811" lon="5.79502">
        <ele>552.8</ele>
        <time>2021-05-29T12:26:52Z</time>
      </trkpt>
      <trkpt lat="45.11813" lon="5.79504">
        <ele>552.4</ele>
        <time>2021-05-29T12:26:53Z</time>
      </trkpt>
      <trkpt lat="45.11815" lon="5.79506">
        <ele>552.4</ele>
        <time>2021-05-29T12:26:54Z</time>
      </trkpt>
      <trkpt lat="45.11815" lon="5.79506">
        <ele>551.8</ele>
        <time>2021-05-29T12:26:55Z</time>
      </trkpt>
      <trkpt lat="45.11816" lon="5.79508">
        <ele>551.6</ele>
        <time>2021-05-29T12:26:56Z</time>
      </trkpt>
      <trkpt lat="45.11818" lon="5.7951">
        <ele>551.2</ele>
        <time>2021-05-29T12:26:57Z</time>
      </trkpt>
      <trkpt lat="45.11819" lon="5.79513">
        <ele>551</ele>
        <time>2021-05-29T12:26:58Z</time>
      </trkpt>
      <trkpt lat="45.11822" lon="5.79516">
        <ele>550.8</ele>
        <time>2021-05-29T12:26:59Z</time>
      </trkpt>
      <trkpt lat="45.11824" lon="5.7952">
        <ele>550.8</ele>
        <time>2021-05-29T12:27:00Z</time>
      </trkpt>
      <trkpt lat="45.11825" lon="5.79522">
        <ele>550.4</ele>
        <time>2021-05-29T12:27:01Z</time>
      </trkpt>
      <trkpt lat="45.11827" lon="5.79524">
        <ele>550.4</ele>
        <time>2021-05-29T12:27:02Z</time>
      </trkpt>
      <trkpt lat="45.11828" lon="5.79526">
        <ele>550</ele>
        <time>2021-05-29T12:27:03Z</time>
      </trkpt>
      <trkpt lat="45.1183" lon="5.79528">
        <ele>550.2</ele>
        <time>2021-05-29T12:27:04Z</time>
      </trkpt>
      <trkpt lat="45.11832" lon="5.79531">
        <ele>550.2</ele>
        <time>2021-05-29T12:27:05Z</time>
      </trkpt>
      <trkpt lat="45.11833" lon="5.79532">
        <ele>550.4</ele>
        <time>2021-05-29T12:27:06Z</time>
      </trkpt>
      <trkpt lat="45.11835" lon="5.79534">
        <ele>550.2</ele>
        <time>2021-05-29T12:27:07Z</time>
      </trkpt>
      <trkpt lat="45.11836" lon="5.79537">
        <ele>550.4</ele>
        <time>2021-05-29T12:27:08Z</time>
      </trkpt>
      <trkpt lat="45.11837" lon="5.79539">
        <ele>550.2</ele>
        <time>2021-05-29T12:27:09Z</time>
      </trkpt>
      <trkpt lat="45.11838" lon="5.79541">
        <ele>550.2</ele>
        <time>2021-05-29T12:27:10Z</time>
      </trkpt>
      <trkpt lat="45.11839" lon="5.79543">
        <ele>550</ele>
        <time>2021-05-29T12:27:11Z</time>
      </trkpt>
      <trkpt lat="45.1184" lon="5.79544">
        <ele>550.2</ele>
        <time>2021-05-29T12:27:12Z</time>
      </trkpt>
      <trkpt lat="45.11842" lon="5.79548">
        <ele>549.8</ele>
        <time>2021-05-29T12:27:13Z</time>
      </trkpt>
      <trkpt lat="45.11845" lon="5.79551">
        <ele>550</ele>
        <time>2021-05-29T12:27:14Z</time>
      </trkpt>
      <trkpt lat="45.11846" lon="5.79553">
        <ele>549.6</ele>
        <time>2021-05-29T12:27:15Z</time>
      </trkpt>
      <trkpt lat="45.11847" lon="5.79554">
        <ele>549.8</ele>
        <time>2021-05-29T12:27:16Z</time>
      </trkpt>
      <trkpt lat="45.11848" lon="5.79556">
        <ele>549.6</ele>
        <time>2021-05-29T12:27:17Z</time>
      </trkpt>
      <trkpt lat="45.11851" lon="5.79561">
        <ele>549.8</ele>
        <time>2021-05-29T12:27:18Z</time>
      </trkpt>
      <trkpt lat="45.11853" lon="5.79563">
        <ele>549.4</ele>
        <time>2021-05-29T12:27:19Z</time>
      </trkpt>
      <trkpt lat="45.11854" lon="5.79565">
        <ele>549.6</ele>
        <time>2021-05-29T12:27:20Z</time>
      </trkpt>
      <trkpt lat="45.11857" lon="5.79567">
        <ele>549.4</ele>
        <time>2021-05-29T12:27:21Z</time>
      </trkpt>
      <trkpt lat="45.11859" lon="5.79569">
        <ele>549.4</ele>
        <time>2021-05-29T12:27:22Z</time>
      </trkpt>
      <trkpt lat="45.11859" lon="5.79569">
        <ele>549.2</ele>
        <time>2021-05-29T12:27:23Z</time>
      </trkpt>
      <trkpt lat="45.11861" lon="5.79571">
        <ele>549</ele>
        <time>2021-05-29T12:27:24Z</time>
      </trkpt>
      <trkpt lat="45.11867" lon="5.79574">
        <ele>548.4</ele>
        <time>2021-05-29T12:27:25Z</time>
      </trkpt>
      <trkpt lat="45.1187" lon="5.79576">
        <ele>547.4</ele>
        <time>2021-05-29T12:27:26Z</time>
      </trkpt>
      <trkpt lat="45.11873" lon="5.79577">
        <ele>547.6</ele>
        <time>2021-05-29T12:27:27Z</time>
      </trkpt>
      <trkpt lat="45.11877" lon="5.79579">
        <ele>547.2</ele>
        <time>2021-05-29T12:27:28Z</time>
      </trkpt>
      <trkpt lat="45.1188" lon="5.79581">
        <ele>547.4</ele>
        <time>2021-05-29T12:27:29Z</time>
      </trkpt>
      <trkpt lat="45.1188" lon="5.79581">
        <ele>547</ele>
        <time>2021-05-29T12:27:30Z</time>
      </trkpt>
      <trkpt lat="45.11883" lon="5.79583">
        <ele>546.8</ele>
        <time>2021-05-29T12:27:31Z</time>
      </trkpt>
      <trkpt lat="45.11887" lon="5.79587">
        <ele>546.2</ele>
        <time>2021-05-29T12:27:32Z</time>
      </trkpt>
      <trkpt lat="45.11889" lon="5.79588">
        <ele>546</ele>
        <time>2021-05-29T12:27:33Z</time>
      </trkpt>
      <trkpt lat="45.11891" lon="5.7959">
        <ele>545.4</ele>
        <time>2021-05-29T12:27:34Z</time>
      </trkpt>
      <trkpt lat="45.11891" lon="5.7959">
        <ele>545.4</ele>
        <time>2021-05-29T12:27:35Z</time>
      </trkpt>
      <trkpt lat="45.11891" lon="5.7959">
        <ele>544.8</ele>
        <time>2021-05-29T12:27:36Z</time>
      </trkpt>
      <trkpt lat="45.11891" lon="5.7959">
        <ele>544.6</ele>
        <time>2021-05-29T12:27:37Z</time>
      </trkpt>
      <trkpt lat="45.11893" lon="5.79592">
        <ele>544.4</ele>
        <time>2021-05-29T12:27:38Z</time>
      </trkpt>
      <trkpt lat="45.11894" lon="5.79594">
        <ele>544.4</ele>
        <time>2021-05-29T12:27:39Z</time>
      </trkpt>
      <trkpt lat="45.11896" lon="5.79597">
        <ele>544</ele>
        <time>2021-05-29T12:27:40Z</time>
      </trkpt>
      <trkpt lat="45.11898" lon="5.79599">
        <ele>544</ele>
        <time>2021-05-29T12:27:41Z</time>
      </trkpt>
      <trkpt lat="45.11899" lon="5.79601">
        <ele>543.6</ele>
        <time>2021-05-29T12:27:42Z</time>
      </trkpt>
      <trkpt lat="45.11901" lon="5.79604">
        <ele>543.8</ele>
        <time>2021-05-29T12:27:43Z</time>
      </trkpt>
      <trkpt lat="45.11903" lon="5.79606">
        <ele>543.4</ele>
        <time>2021-05-29T12:27:44Z</time>
      </trkpt>
      <trkpt lat="45.11905" lon="5.79609">
        <ele>543.4</ele>
        <time>2021-05-29T12:27:45Z</time>
      </trkpt>
      <trkpt lat="45.11907" lon="5.79612">
        <ele>543.4</ele>
        <time>2021-05-29T12:27:46Z</time>
      </trkpt>
      <trkpt lat="45.11908" lon="5.79615">
        <ele>543.6</ele>
        <time>2021-05-29T12:27:47Z</time>
      </trkpt>
      <trkpt lat="45.11911" lon="5.79619">
        <ele>543.4</ele>
        <time>2021-05-29T12:27:48Z</time>
      </trkpt>
      <trkpt lat="45.11912" lon="5.7962">
        <ele>543.4</ele>
        <time>2021-05-29T12:27:49Z</time>
      </trkpt>
      <trkpt lat="45.11913" lon="5.79621">
        <ele>543.2</ele>
        <time>2021-05-29T12:27:50Z</time>
      </trkpt>
      <trkpt lat="45.11916" lon="5.79624">
        <ele>543.6</ele>
        <time>2021-05-29T12:27:51Z</time>
      </trkpt>
      <trkpt lat="45.11916" lon="5.79624">
        <ele>543.6</ele>
        <time>2021-05-29T12:27:52Z</time>
      </trkpt>
      <trkpt lat="45.11916" lon="5.79624">
        <ele>543.8</ele>
        <time>2021-05-29T12:27:53Z</time>
      </trkpt>
      <trkpt lat="45.11916" lon="5.79624">
        <ele>543.8</ele>
        <time>2021-05-29T12:27:54Z</time>
      </trkpt>
      <trkpt lat="45.11918" lon="5.79627">
        <ele>543.8</ele>
        <time>2021-05-29T12:27:55Z</time>
      </trkpt>
      <trkpt lat="45.1192" lon="5.79629">
        <ele>544</ele>
        <time>2021-05-29T12:27:56Z</time>
      </trkpt>
      <trkpt lat="45.11922" lon="5.79632">
        <ele>544.4</ele>
        <time>2021-05-29T12:27:57Z</time>
      </trkpt>
      <trkpt lat="45.11924" lon="5.79635">
        <ele>544.6</ele>
        <time>2021-05-29T12:27:58Z</time>
      </trkpt>
      <trkpt lat="45.11925" lon="5.79637">
        <ele>545</ele>
        <time>2021-05-29T12:27:59Z</time>
      </trkpt>
      <trkpt lat="45.11926" lon="5.79639">
        <ele>545.2</ele>
        <time>2021-05-29T12:28:00Z</time>
      </trkpt>
      <trkpt lat="45.11929" lon="5.79644">
        <ele>545.4</ele>
        <time>2021-05-29T12:28:01Z</time>
      </trkpt>
      <trkpt lat="45.11929" lon="5.79644">
        <ele>545.4</ele>
        <time>2021-05-29T12:28:02Z</time>
      </trkpt>
      <trkpt lat="45.1193" lon="5.79646">
        <ele>546</ele>
        <time>2021-05-29T12:28:03Z</time>
      </trkpt>
      <trkpt lat="45.11931" lon="5.79648">
        <ele>546</ele>
        <time>2021-05-29T12:28:04Z</time>
      </trkpt>
      <trkpt lat="45.11933" lon="5.7965">
        <ele>546.2</ele>
        <time>2021-05-29T12:28:05Z</time>
      </trkpt>
      <trkpt lat="45.11935" lon="5.79651">
        <ele>546.2</ele>
        <time>2021-05-29T12:28:06Z</time>
      </trkpt>
      <trkpt lat="45.11936" lon="5.79653">
        <ele>546.4</ele>
        <time>2021-05-29T12:28:07Z</time>
      </trkpt>
      <trkpt lat="45.11938" lon="5.79654">
        <ele>546.4</ele>
        <time>2021-05-29T12:28:08Z</time>
      </trkpt>
      <trkpt lat="45.11938" lon="5.79655">
        <ele>546.6</ele>
        <time>2021-05-29T12:28:09Z</time>
      </trkpt>
      <trkpt lat="45.11939" lon="5.79655">
        <ele>546.6</ele>
        <time>2021-05-29T12:28:10Z</time>
      </trkpt>
      <trkpt lat="45.11942" lon="5.7966">
        <ele>546.8</ele>
        <time>2021-05-29T12:28:11Z</time>
      </trkpt>
      <trkpt lat="45.11943" lon="5.79662">
        <ele>547.4</ele>
        <time>2021-05-29T12:28:12Z</time>
      </trkpt>
      <trkpt lat="45.11943" lon="5.79662">
        <ele>547.4</ele>
        <time>2021-05-29T12:28:13Z</time>
      </trkpt>
      <trkpt lat="45.11943" lon="5.79662">
        <ele>548</ele>
        <time>2021-05-29T12:28:14Z</time>
      </trkpt>
      <trkpt lat="45.11945" lon="5.79663">
        <ele>548.2</ele>
        <time>2021-05-29T12:28:15Z</time>
      </trkpt>
      <trkpt lat="45.11946" lon="5.79665">
        <ele>548.8</ele>
        <time>2021-05-29T12:28:16Z</time>
      </trkpt>
      <trkpt lat="45.11948" lon="5.79667">
        <ele>549</ele>
        <time>2021-05-29T12:28:17Z</time>
      </trkpt>
      <trkpt lat="45.11949" lon="5.79668">
        <ele>549.6</ele>
        <time>2021-05-29T12:28:18Z</time>
      </trkpt>
      <trkpt lat="45.1195" lon="5.7967">
        <ele>549.6</ele>
        <time>2021-05-29T12:28:19Z</time>
      </trkpt>
      <trkpt lat="45.11952" lon="5.79672">
        <ele>550.2</ele>
        <time>2021-05-29T12:28:20Z</time>
      </trkpt>
      <trkpt lat="45.11953" lon="5.79674">
        <ele>550.2</ele>
        <time>2021-05-29T12:28:21Z</time>
      </trkpt>
      <trkpt lat="45.11955" lon="5.79676">
        <ele>550.8</ele>
        <time>2021-05-29T12:28:22Z</time>
      </trkpt>
      <trkpt lat="45.11956" lon="5.79678">
        <ele>550.6</ele>
        <time>2021-05-29T12:28:23Z</time>
      </trkpt>
      <trkpt lat="45.11961" lon="5.79686">
        <ele>550.8</ele>
        <time>2021-05-29T12:28:24Z</time>
      </trkpt>
      <trkpt lat="45.11962" lon="5.79687">
        <ele>550.8</ele>
        <time>2021-05-29T12:28:25Z</time>
      </trkpt>
      <trkpt lat="45.11963" lon="5.79689">
        <ele>551.2</ele>
        <time>2021-05-29T12:28:26Z</time>
      </trkpt>
      <trkpt lat="45.11965" lon="5.79691">
        <ele>551</ele>
        <time>2021-05-29T12:28:27Z</time>
      </trkpt>
      <trkpt lat="45.11967" lon="5.79693">
        <ele>551.2</ele>
        <time>2021-05-29T12:28:28Z</time>
      </trkpt>
      <trkpt lat="45.11968" lon="5.79695">
        <ele>551</ele>
        <time>2021-05-29T12:28:29Z</time>
      </trkpt>
      <trkpt lat="45.1197" lon="5.79696">
        <ele>551</ele>
        <time>2021-05-29T12:28:30Z</time>
      </trkpt>
      <trkpt lat="45.11972" lon="5.79698">
        <ele>550.8</ele>
        <time>2021-05-29T12:28:31Z</time>
      </trkpt>
      <trkpt lat="45.11972" lon="5.79698">
        <ele>550.2</ele>
        <time>2021-05-29T12:28:32Z</time>
      </trkpt>
      <trkpt lat="45.11973" lon="5.797">
        <ele>550.4</ele>
        <time>2021-05-29T12:28:33Z</time>
      </trkpt>
      <trkpt lat="45.11973" lon="5.797">
        <ele>550</ele>
        <time>2021-05-29T12:28:34Z</time>
      </trkpt>
      <trkpt lat="45.11973" lon="5.797">
        <ele>550.2</ele>
        <time>2021-05-29T12:28:35Z</time>
      </trkpt>
      <trkpt lat="45.11976" lon="5.79703">
        <ele>550</ele>
        <time>2021-05-29T12:28:36Z</time>
      </trkpt>
      <trkpt lat="45.11978" lon="5.79707">
        <ele>550</ele>
        <time>2021-05-29T12:28:37Z</time>
      </trkpt>
      <trkpt lat="45.11981" lon="5.7971">
        <ele>550</ele>
        <time>2021-05-29T12:28:38Z</time>
      </trkpt>
      <trkpt lat="45.11983" lon="5.79713">
        <ele>550.4</ele>
        <time>2021-05-29T12:28:39Z</time>
      </trkpt>
      <trkpt lat="45.11985" lon="5.79715">
        <ele>550.2</ele>
        <time>2021-05-29T12:28:40Z</time>
      </trkpt>
      <trkpt lat="45.11987" lon="5.79717">
        <ele>550.6</ele>
        <time>2021-05-29T12:28:41Z</time>
      </trkpt>
      <trkpt lat="45.11989" lon="5.79719">
        <ele>550.2</ele>
        <time>2021-05-29T12:28:42Z</time>
      </trkpt>
      <trkpt lat="45.1199" lon="5.7972">
        <ele>550.6</ele>
        <time>2021-05-29T12:28:43Z</time>
      </trkpt>
      <trkpt lat="45.11991" lon="5.79722">
        <ele>550.4</ele>
        <time>2021-05-29T12:28:44Z</time>
      </trkpt>
      <trkpt lat="45.11992" lon="5.79723">
        <ele>550.6</ele>
        <time>2021-05-29T12:28:45Z</time>
      </trkpt>
      <trkpt lat="45.11993" lon="5.79725">
        <ele>550.8</ele>
        <time>2021-05-29T12:28:46Z</time>
      </trkpt>
      <trkpt lat="45.11993" lon="5.79725">
        <ele>550.8</ele>
        <time>2021-05-29T12:28:47Z</time>
      </trkpt>
      <trkpt lat="45.11995" lon="5.79728">
        <ele>550.8</ele>
        <time>2021-05-29T12:28:48Z</time>
      </trkpt>
      <trkpt lat="45.11997" lon="5.79731">
        <ele>551</ele>
        <time>2021-05-29T12:28:49Z</time>
      </trkpt>
      <trkpt lat="45.12" lon="5.79734">
        <ele>551</ele>
        <time>2021-05-29T12:28:50Z</time>
      </trkpt>
      <trkpt lat="45.12001" lon="5.79735">
        <ele>551.2</ele>
        <time>2021-05-29T12:28:51Z</time>
      </trkpt>
      <trkpt lat="45.12002" lon="5.79736">
        <ele>551.2</ele>
        <time>2021-05-29T12:28:52Z</time>
      </trkpt>
      <trkpt lat="45.12003" lon="5.79737">
        <ele>551.4</ele>
        <time>2021-05-29T12:28:53Z</time>
      </trkpt>
      <trkpt lat="45.12007" lon="5.79741">
        <ele>551.2</ele>
        <time>2021-05-29T12:28:54Z</time>
      </trkpt>
      <trkpt lat="45.12007" lon="5.79741">
        <ele>551.4</ele>
        <time>2021-05-29T12:28:55Z</time>
      </trkpt>
      <trkpt lat="45.12009" lon="5.79743">
        <ele>551.2</ele>
        <time>2021-05-29T12:28:56Z</time>
      </trkpt>
      <trkpt lat="45.12011" lon="5.79745">
        <ele>551.2</ele>
        <time>2021-05-29T12:28:57Z</time>
      </trkpt>
      <trkpt lat="45.12013" lon="5.79747">
        <ele>551</ele>
        <time>2021-05-29T12:28:58Z</time>
      </trkpt>
      <trkpt lat="45.12016" lon="5.79752">
        <ele>551.2</ele>
        <time>2021-05-29T12:28:59Z</time>
      </trkpt>
      <trkpt lat="45.12017" lon="5.79753">
        <ele>551</ele>
        <time>2021-05-29T12:29:00Z</time>
      </trkpt>
      <trkpt lat="45.12018" lon="5.79755">
        <ele>551</ele>
        <time>2021-05-29T12:29:01Z</time>
      </trkpt>
      <trkpt lat="45.12019" lon="5.79757">
        <ele>550.8</ele>
        <time>2021-05-29T12:29:02Z</time>
      </trkpt>
      <trkpt lat="45.12021" lon="5.79758">
        <ele>550.6</ele>
        <time>2021-05-29T12:29:03Z</time>
      </trkpt>
      <trkpt lat="45.12025" lon="5.79764">
        <ele>550.6</ele>
        <time>2021-05-29T12:29:04Z</time>
      </trkpt>
      <trkpt lat="45.12027" lon="5.79768">
        <ele>550.4</ele>
        <time>2021-05-29T12:29:05Z</time>
      </trkpt>
      <trkpt lat="45.12028" lon="5.7977">
        <ele>550.2</ele>
        <time>2021-05-29T12:29:06Z</time>
      </trkpt>
      <trkpt lat="45.1203" lon="5.79772">
        <ele>550.2</ele>
        <time>2021-05-29T12:29:07Z</time>
      </trkpt>
      <trkpt lat="45.12031" lon="5.79773">
        <ele>550.2</ele>
        <time>2021-05-29T12:29:08Z</time>
      </trkpt>
      <trkpt lat="45.12031" lon="5.79773">
        <ele>550</ele>
        <time>2021-05-29T12:29:09Z</time>
      </trkpt>
      <trkpt lat="45.12032" lon="5.79775">
        <ele>550.4</ele>
        <time>2021-05-29T12:29:10Z</time>
      </trkpt>
      <trkpt lat="45.12033" lon="5.79776">
        <ele>550.2</ele>
        <time>2021-05-29T12:29:11Z</time>
      </trkpt>
      <trkpt lat="45.12036" lon="5.7978">
        <ele>550.8</ele>
        <time>2021-05-29T12:29:12Z</time>
      </trkpt>
      <trkpt lat="45.12036" lon="5.7978">
        <ele>550.4</ele>
        <time>2021-05-29T12:29:13Z</time>
      </trkpt>
      <trkpt lat="45.12038" lon="5.79782">
        <ele>550.8</ele>
        <time>2021-05-29T12:29:14Z</time>
      </trkpt>
      <trkpt lat="45.1204" lon="5.79784">
        <ele>551</ele>
        <time>2021-05-29T12:29:15Z</time>
      </trkpt>
      <trkpt lat="45.12042" lon="5.79786">
        <ele>551.2</ele>
        <time>2021-05-29T12:29:16Z</time>
      </trkpt>
      <trkpt lat="45.12046" lon="5.79789">
        <ele>551</ele>
        <time>2021-05-29T12:29:17Z</time>
      </trkpt>
      <trkpt lat="45.12046" lon="5.79789">
        <ele>551.2</ele>
        <time>2021-05-29T12:29:18Z</time>
      </trkpt>
      <trkpt lat="45.12048" lon="5.79791">
        <ele>551</ele>
        <time>2021-05-29T12:29:19Z</time>
      </trkpt>
      <trkpt lat="45.12051" lon="5.79795">
        <ele>551.6</ele>
        <time>2021-05-29T12:29:20Z</time>
      </trkpt>
      <trkpt lat="45.12053" lon="5.79796">
        <ele>551.4</ele>
        <time>2021-05-29T12:29:21Z</time>
      </trkpt>
      <trkpt lat="45.12055" lon="5.79798">
        <ele>552</ele>
        <time>2021-05-29T12:29:22Z</time>
      </trkpt>
      <trkpt lat="45.12057" lon="5.798">
        <ele>551.8</ele>
        <time>2021-05-29T12:29:23Z</time>
      </trkpt>
      <trkpt lat="45.1206" lon="5.79802">
        <ele>552</ele>
        <time>2021-05-29T12:29:24Z</time>
      </trkpt>
      <trkpt lat="45.1206" lon="5.79802">
        <ele>551.6</ele>
        <time>2021-05-29T12:29:25Z</time>
      </trkpt>
      <trkpt lat="45.12062" lon="5.79804">
        <ele>551.4</ele>
        <time>2021-05-29T12:29:26Z</time>
      </trkpt>
      <trkpt lat="45.12066" lon="5.79808">
        <ele>550.8</ele>
        <time>2021-05-29T12:29:27Z</time>
      </trkpt>
      <trkpt lat="45.12066" lon="5.79808">
        <ele>550.2</ele>
        <time>2021-05-29T12:29:28Z</time>
      </trkpt>
      <trkpt lat="45.12068" lon="5.79811">
        <ele>550</ele>
        <time>2021-05-29T12:29:29Z</time>
      </trkpt>
      <trkpt lat="45.12072" lon="5.79816">
        <ele>549.8</ele>
        <time>2021-05-29T12:29:30Z</time>
      </trkpt>
      <trkpt lat="45.12074" lon="5.79818">
        <ele>549.8</ele>
        <time>2021-05-29T12:29:31Z</time>
      </trkpt>
      <trkpt lat="45.12076" lon="5.7982">
        <ele>549.2</ele>
        <time>2021-05-29T12:29:32Z</time>
      </trkpt>
      <trkpt lat="45.12077" lon="5.79821">
        <ele>548.8</ele>
        <time>2021-05-29T12:29:33Z</time>
      </trkpt>
      <trkpt lat="45.12079" lon="5.79823">
        <ele>548</ele>
        <time>2021-05-29T12:29:34Z</time>
      </trkpt>
      <trkpt lat="45.1208" lon="5.79824">
        <ele>547.4</ele>
        <time>2021-05-29T12:29:35Z</time>
      </trkpt>
      <trkpt lat="45.12082" lon="5.79827">
        <ele>547</ele>
        <time>2021-05-29T12:29:36Z</time>
      </trkpt>
      <trkpt lat="45.12085" lon="5.7983">
        <ele>546.2</ele>
        <time>2021-05-29T12:29:37Z</time>
      </trkpt>
      <trkpt lat="45.12088" lon="5.79833">
        <ele>546.2</ele>
        <time>2021-05-29T12:29:38Z</time>
      </trkpt>
      <trkpt lat="45.1209" lon="5.79835">
        <ele>545.8</ele>
        <time>2021-05-29T12:29:39Z</time>
      </trkpt>
      <trkpt lat="45.12093" lon="5.79837">
        <ele>545.4</ele>
        <time>2021-05-29T12:29:40Z</time>
      </trkpt>
      <trkpt lat="45.12095" lon="5.79838">
        <ele>545</ele>
        <time>2021-05-29T12:29:41Z</time>
      </trkpt>
      <trkpt lat="45.12097" lon="5.7984">
        <ele>544.8</ele>
        <time>2021-05-29T12:29:42Z</time>
      </trkpt>
      <trkpt lat="45.12099" lon="5.79842">
        <ele>544</ele>
        <time>2021-05-29T12:29:43Z</time>
      </trkpt>
      <trkpt lat="45.12099" lon="5.79842">
        <ele>543.2</ele>
        <time>2021-05-29T12:29:44Z</time>
      </trkpt>
      <trkpt lat="45.12101" lon="5.79844">
        <ele>543.4</ele>
        <time>2021-05-29T12:29:45Z</time>
      </trkpt>
      <trkpt lat="45.12104" lon="5.79847">
        <ele>543</ele>
        <time>2021-05-29T12:29:46Z</time>
      </trkpt>
      <trkpt lat="45.12107" lon="5.7985">
        <ele>543</ele>
        <time>2021-05-29T12:29:47Z</time>
      </trkpt>
      <trkpt lat="45.1211" lon="5.79853">
        <ele>542.4</ele>
        <time>2021-05-29T12:29:48Z</time>
      </trkpt>
      <trkpt lat="45.12112" lon="5.79856">
        <ele>542.4</ele>
        <time>2021-05-29T12:29:49Z</time>
      </trkpt>
      <trkpt lat="45.12115" lon="5.79859">
        <ele>541.8</ele>
        <time>2021-05-29T12:29:50Z</time>
      </trkpt>
      <trkpt lat="45.12117" lon="5.79862">
        <ele>541.2</ele>
        <time>2021-05-29T12:29:51Z</time>
      </trkpt>
      <trkpt lat="45.12119" lon="5.79864">
        <ele>541</ele>
        <time>2021-05-29T12:29:52Z</time>
      </trkpt>
      <trkpt lat="45.12121" lon="5.79866">
        <ele>540.6</ele>
        <time>2021-05-29T12:29:53Z</time>
      </trkpt>
      <trkpt lat="45.12126" lon="5.79873">
        <ele>540.6</ele>
        <time>2021-05-29T12:29:54Z</time>
      </trkpt>
      <trkpt lat="45.12129" lon="5.79876">
        <ele>540.2</ele>
        <time>2021-05-29T12:29:55Z</time>
      </trkpt>
      <trkpt lat="45.12132" lon="5.7988">
        <ele>540</ele>
        <time>2021-05-29T12:29:56Z</time>
      </trkpt>
      <trkpt lat="45.12132" lon="5.7988">
        <ele>539.4</ele>
        <time>2021-05-29T12:29:57Z</time>
      </trkpt>
      <trkpt lat="45.12134" lon="5.79883">
        <ele>539</ele>
        <time>2021-05-29T12:29:58Z</time>
      </trkpt>
      <trkpt lat="45.12137" lon="5.79889">
        <ele>539</ele>
        <time>2021-05-29T12:29:59Z</time>
      </trkpt>
      <trkpt lat="45.12137" lon="5.79889">
        <ele>537.2</ele>
        <time>2021-05-29T12:30:00Z</time>
      </trkpt>
      <trkpt lat="45.12139" lon="5.79891">
        <ele>536.4</ele>
        <time>2021-05-29T12:30:01Z</time>
      </trkpt>
      <trkpt lat="45.12142" lon="5.79896">
        <ele>535.6</ele>
        <time>2021-05-29T12:30:02Z</time>
      </trkpt>
      <trkpt lat="45.12143" lon="5.79899">
        <ele>534.8</ele>
        <time>2021-05-29T12:30:03Z</time>
      </trkpt>
      <trkpt lat="45.12145" lon="5.79901">
        <ele>534</ele>
        <time>2021-05-29T12:30:04Z</time>
      </trkpt>
      <trkpt lat="45.12146" lon="5.79903">
        <ele>533.8</ele>
        <time>2021-05-29T12:30:05Z</time>
      </trkpt>
      <trkpt lat="45.12146" lon="5.79903">
        <ele>533</ele>
        <time>2021-05-29T12:30:06Z</time>
      </trkpt>
      <trkpt lat="45.12147" lon="5.79906">
        <ele>533.2</ele>
        <time>2021-05-29T12:30:07Z</time>
      </trkpt>
      <trkpt lat="45.12149" lon="5.79908">
        <ele>532.8</ele>
        <time>2021-05-29T12:30:08Z</time>
      </trkpt>
      <trkpt lat="45.12152" lon="5.79912">
        <ele>532.8</ele>
        <time>2021-05-29T12:30:09Z</time>
      </trkpt>
      <trkpt lat="45.12154" lon="5.79915">
        <ele>532.4</ele>
        <time>2021-05-29T12:30:10Z</time>
      </trkpt>
      <trkpt lat="45.12155" lon="5.79918">
        <ele>532.6</ele>
        <time>2021-05-29T12:30:11Z</time>
      </trkpt>
      <trkpt lat="45.12155" lon="5.79918">
        <ele>532.2</ele>
        <time>2021-05-29T12:30:12Z</time>
      </trkpt>
      <trkpt lat="45.12157" lon="5.7992">
        <ele>532.6</ele>
        <time>2021-05-29T12:30:13Z</time>
      </trkpt>
      <trkpt lat="45.12158" lon="5.79923">
        <ele>532.2</ele>
        <time>2021-05-29T12:30:14Z</time>
      </trkpt>
      <trkpt lat="45.12161" lon="5.79928">
        <ele>532.4</ele>
        <time>2021-05-29T12:30:15Z</time>
      </trkpt>
      <trkpt lat="45.12163" lon="5.7993">
        <ele>532.4</ele>
        <time>2021-05-29T12:30:16Z</time>
      </trkpt>
      <trkpt lat="45.12165" lon="5.79933">
        <ele>532.6</ele>
        <time>2021-05-29T12:30:17Z</time>
      </trkpt>
      <trkpt lat="45.12165" lon="5.79933">
        <ele>532.6</ele>
        <time>2021-05-29T12:30:18Z</time>
      </trkpt>
      <trkpt lat="45.12166" lon="5.79935">
        <ele>532.8</ele>
        <time>2021-05-29T12:30:19Z</time>
      </trkpt>
      <trkpt lat="45.1217" lon="5.7994">
        <ele>532.8</ele>
        <time>2021-05-29T12:30:20Z</time>
      </trkpt>
      <trkpt lat="45.12172" lon="5.79942">
        <ele>533</ele>
        <time>2021-05-29T12:30:21Z</time>
      </trkpt>
      <trkpt lat="45.12173" lon="5.79944">
        <ele>532.8</ele>
        <time>2021-05-29T12:30:22Z</time>
      </trkpt>
      <trkpt lat="45.12173" lon="5.79944">
        <ele>533</ele>
        <time>2021-05-29T12:30:23Z</time>
      </trkpt>
      <trkpt lat="45.12173" lon="5.79944">
        <ele>532.8</ele>
        <time>2021-05-29T12:30:24Z</time>
      </trkpt>
      <trkpt lat="45.12175" lon="5.79948">
        <ele>532.8</ele>
        <time>2021-05-29T12:30:25Z</time>
      </trkpt>
      <trkpt lat="45.12178" lon="5.79951">
        <ele>532.4</ele>
        <time>2021-05-29T12:30:26Z</time>
      </trkpt>
      <trkpt lat="45.12178" lon="5.79951">
        <ele>532.4</ele>
        <time>2021-05-29T12:30:27Z</time>
      </trkpt>
      <trkpt lat="45.12178" lon="5.79951">
        <ele>532.4</ele>
        <time>2021-05-29T12:30:28Z</time>
      </trkpt>
      <trkpt lat="45.1218" lon="5.79954">
        <ele>532.4</ele>
        <time>2021-05-29T12:30:29Z</time>
      </trkpt>
      <trkpt lat="45.12181" lon="5.79956">
        <ele>532.2</ele>
        <time>2021-05-29T12:30:30Z</time>
      </trkpt>
      <trkpt lat="45.12183" lon="5.79958">
        <ele>532.2</ele>
        <time>2021-05-29T12:30:31Z</time>
      </trkpt>
      <trkpt lat="45.12184" lon="5.7996">
        <ele>532</ele>
        <time>2021-05-29T12:30:32Z</time>
      </trkpt>
      <trkpt lat="45.12186" lon="5.79962">
        <ele>532</ele>
        <time>2021-05-29T12:30:33Z</time>
      </trkpt>
      <trkpt lat="45.12187" lon="5.79964">
        <ele>532</ele>
        <time>2021-05-29T12:30:34Z</time>
      </trkpt>
      <trkpt lat="45.12188" lon="5.79965">
        <ele>531.8</ele>
        <time>2021-05-29T12:30:35Z</time>
      </trkpt>
      <trkpt lat="45.12189" lon="5.79967">
        <ele>531.6</ele>
        <time>2021-05-29T12:30:36Z</time>
      </trkpt>
      <trkpt lat="45.12189" lon="5.79967">
        <ele>531.4</ele>
        <time>2021-05-29T12:30:37Z</time>
      </trkpt>
      <trkpt lat="45.12189" lon="5.79967">
        <ele>531.2</ele>
        <time>2021-05-29T12:30:38Z</time>
      </trkpt>
      <trkpt lat="45.1219" lon="5.79969">
        <ele>531.4</ele>
        <time>2021-05-29T12:30:39Z</time>
      </trkpt>
      <trkpt lat="45.12191" lon="5.79971">
        <ele>531</ele>
        <time>2021-05-29T12:30:40Z</time>
      </trkpt>
      <trkpt lat="45.12192" lon="5.79973">
        <ele>531.2</ele>
        <time>2021-05-29T12:30:41Z</time>
      </trkpt>
      <trkpt lat="45.12193" lon="5.79975">
        <ele>531</ele>
        <time>2021-05-29T12:30:42Z</time>
      </trkpt>
      <trkpt lat="45.12195" lon="5.79978">
        <ele>531</ele>
        <time>2021-05-29T12:30:43Z</time>
      </trkpt>
      <trkpt lat="45.12196" lon="5.7998">
        <ele>531</ele>
        <time>2021-05-29T12:30:44Z</time>
      </trkpt>
      <trkpt lat="45.12197" lon="5.79983">
        <ele>530.8</ele>
        <time>2021-05-29T12:30:45Z</time>
      </trkpt>
      <trkpt lat="45.12199" lon="5.79985">
        <ele>530.6</ele>
        <time>2021-05-29T12:30:46Z</time>
      </trkpt>
      <trkpt lat="45.122" lon="5.79988">
        <ele>530.6</ele>
        <time>2021-05-29T12:30:47Z</time>
      </trkpt>
      <trkpt lat="45.12203" lon="5.79991">
        <ele>530.6</ele>
        <time>2021-05-29T12:30:48Z</time>
      </trkpt>
      <trkpt lat="45.12206" lon="5.79994">
        <ele>531</ele>
        <time>2021-05-29T12:30:49Z</time>
      </trkpt>
      <trkpt lat="45.12209" lon="5.79997">
        <ele>530.8</ele>
        <time>2021-05-29T12:30:50Z</time>
      </trkpt>
      <trkpt lat="45.12212" lon="5.80001">
        <ele>531.2</ele>
        <time>2021-05-29T12:30:51Z</time>
      </trkpt>
      <trkpt lat="45.12214" lon="5.80003">
        <ele>531</ele>
        <time>2021-05-29T12:30:52Z</time>
      </trkpt>
      <trkpt lat="45.12217" lon="5.80006">
        <ele>531.4</ele>
        <time>2021-05-29T12:30:53Z</time>
      </trkpt>
      <trkpt lat="45.12221" lon="5.80012">
        <ele>531.4</ele>
        <time>2021-05-29T12:30:54Z</time>
      </trkpt>
      <trkpt lat="45.12225" lon="5.80016">
        <ele>531.6</ele>
        <time>2021-05-29T12:30:55Z</time>
      </trkpt>
      <trkpt lat="45.12227" lon="5.80018">
        <ele>531.4</ele>
        <time>2021-05-29T12:30:56Z</time>
      </trkpt>
      <trkpt lat="45.1223" lon="5.80021">
        <ele>531.6</ele>
        <time>2021-05-29T12:30:57Z</time>
      </trkpt>
      <trkpt lat="45.12232" lon="5.80024">
        <ele>531.4</ele>
        <time>2021-05-29T12:30:58Z</time>
      </trkpt>
      <trkpt lat="45.12234" lon="5.80026">
        <ele>531.6</ele>
        <time>2021-05-29T12:30:59Z</time>
      </trkpt>
      <trkpt lat="45.12236" lon="5.80029">
        <ele>531.4</ele>
        <time>2021-05-29T12:31:00Z</time>
      </trkpt>
      <trkpt lat="45.12238" lon="5.80032">
        <ele>531.4</ele>
        <time>2021-05-29T12:31:01Z</time>
      </trkpt>
      <trkpt lat="45.1224" lon="5.80034">
        <ele>531.2</ele>
        <time>2021-05-29T12:31:02Z</time>
      </trkpt>
      <trkpt lat="45.12242" lon="5.80036">
        <ele>531</ele>
        <time>2021-05-29T12:31:03Z</time>
      </trkpt>
      <trkpt lat="45.12244" lon="5.80038">
        <ele>530.6</ele>
        <time>2021-05-29T12:31:04Z</time>
      </trkpt>
      <trkpt lat="45.12246" lon="5.80039">
        <ele>530.2</ele>
        <time>2021-05-29T12:31:05Z</time>
      </trkpt>
      <trkpt lat="45.12248" lon="5.80041">
        <ele>530.4</ele>
        <time>2021-05-29T12:31:06Z</time>
      </trkpt>
      <trkpt lat="45.12251" lon="5.80042">
        <ele>530</ele>
        <time>2021-05-29T12:31:07Z</time>
      </trkpt>
      <trkpt lat="45.12253" lon="5.80044">
        <ele>530.4</ele>
        <time>2021-05-29T12:31:08Z</time>
      </trkpt>
      <trkpt lat="45.12254" lon="5.80045">
        <ele>530.2</ele>
        <time>2021-05-29T12:31:09Z</time>
      </trkpt>
      <trkpt lat="45.1226" lon="5.80049">
        <ele>530.4</ele>
        <time>2021-05-29T12:31:10Z</time>
      </trkpt>
      <trkpt lat="45.1226" lon="5.80049">
        <ele>530.2</ele>
        <time>2021-05-29T12:31:11Z</time>
      </trkpt>
      <trkpt lat="45.12262" lon="5.80051">
        <ele>530.2</ele>
        <time>2021-05-29T12:31:12Z</time>
      </trkpt>
      <trkpt lat="45.12265" lon="5.80052">
        <ele>530</ele>
        <time>2021-05-29T12:31:13Z</time>
      </trkpt>
      <trkpt lat="45.12268" lon="5.80055">
        <ele>529.8</ele>
        <time>2021-05-29T12:31:14Z</time>
      </trkpt>
      <trkpt lat="45.12271" lon="5.80058">
        <ele>529.4</ele>
        <time>2021-05-29T12:31:15Z</time>
      </trkpt>
      <trkpt lat="45.12273" lon="5.8006">
        <ele>529.2</ele>
        <time>2021-05-29T12:31:16Z</time>
      </trkpt>
      <trkpt lat="45.12274" lon="5.80061">
        <ele>528.6</ele>
        <time>2021-05-29T12:31:17Z</time>
      </trkpt>
      <trkpt lat="45.12275" lon="5.80063">
        <ele>528</ele>
        <time>2021-05-29T12:31:18Z</time>
      </trkpt>
      <trkpt lat="45.12277" lon="5.80065">
        <ele>527.4</ele>
        <time>2021-05-29T12:31:19Z</time>
      </trkpt>
      <trkpt lat="45.12278" lon="5.80066">
        <ele>526.8</ele>
        <time>2021-05-29T12:31:20Z</time>
      </trkpt>
      <trkpt lat="45.12279" lon="5.80068">
        <ele>526.8</ele>
        <time>2021-05-29T12:31:21Z</time>
      </trkpt>
      <trkpt lat="45.1228" lon="5.80069">
        <ele>526.6</ele>
        <time>2021-05-29T12:31:22Z</time>
      </trkpt>
      <trkpt lat="45.12282" lon="5.80072">
        <ele>526.8</ele>
        <time>2021-05-29T12:31:23Z</time>
      </trkpt>
      <trkpt lat="45.12285" lon="5.80076">
        <ele>526.4</ele>
        <time>2021-05-29T12:31:24Z</time>
      </trkpt>
      <trkpt lat="45.12288" lon="5.80079">
        <ele>526.4</ele>
        <time>2021-05-29T12:31:25Z</time>
      </trkpt>
      <trkpt lat="45.12291" lon="5.80081">
        <ele>526</ele>
        <time>2021-05-29T12:31:26Z</time>
      </trkpt>
      <trkpt lat="45.12294" lon="5.80083">
        <ele>526.2</ele>
        <time>2021-05-29T12:31:27Z</time>
      </trkpt>
      <trkpt lat="45.12295" lon="5.80084">
        <ele>525.8</ele>
        <time>2021-05-29T12:31:28Z</time>
      </trkpt>
      <trkpt lat="45.12296" lon="5.80084">
        <ele>525.6</ele>
        <time>2021-05-29T12:31:29Z</time>
      </trkpt>
      <trkpt lat="45.12299" lon="5.80086">
        <ele>525</ele>
        <time>2021-05-29T12:31:30Z</time>
      </trkpt>
      <trkpt lat="45.123" lon="5.80087">
        <ele>524.8</ele>
        <time>2021-05-29T12:31:31Z</time>
      </trkpt>
      <trkpt lat="45.12302" lon="5.80088">
        <ele>524.4</ele>
        <time>2021-05-29T12:31:32Z</time>
      </trkpt>
      <trkpt lat="45.12303" lon="5.8009">
        <ele>524.2</ele>
        <time>2021-05-29T12:31:33Z</time>
      </trkpt>
      <trkpt lat="45.12308" lon="5.80093">
        <ele>524</ele>
        <time>2021-05-29T12:31:34Z</time>
      </trkpt>
      <trkpt lat="45.1231" lon="5.80096">
        <ele>523.6</ele>
        <time>2021-05-29T12:31:35Z</time>
      </trkpt>
      <trkpt lat="45.12313" lon="5.80098">
        <ele>523.8</ele>
        <time>2021-05-29T12:31:36Z</time>
      </trkpt>
      <trkpt lat="45.12318" lon="5.80103">
        <ele>523.4</ele>
        <time>2021-05-29T12:31:37Z</time>
      </trkpt>
      <trkpt lat="45.12319" lon="5.80104">
        <ele>523.8</ele>
        <time>2021-05-29T12:31:38Z</time>
      </trkpt>
      <trkpt lat="45.1232" lon="5.80105">
        <ele>523.4</ele>
        <time>2021-05-29T12:31:39Z</time>
      </trkpt>
      <trkpt lat="45.12322" lon="5.80106">
        <ele>523.8</ele>
        <time>2021-05-29T12:31:40Z</time>
      </trkpt>
      <trkpt lat="45.12326" lon="5.8011">
        <ele>523.4</ele>
        <time>2021-05-29T12:31:41Z</time>
      </trkpt>
      <trkpt lat="45.12329" lon="5.80113">
        <ele>523.6</ele>
        <time>2021-05-29T12:31:42Z</time>
      </trkpt>
      <trkpt lat="45.12333" lon="5.80116">
        <ele>523</ele>
        <time>2021-05-29T12:31:43Z</time>
      </trkpt>
      <trkpt lat="45.12338" lon="5.80121">
        <ele>523.4</ele>
        <time>2021-05-29T12:31:44Z</time>
      </trkpt>
      <trkpt lat="45.1234" lon="5.80122">
        <ele>523</ele>
        <time>2021-05-29T12:31:45Z</time>
      </trkpt>
      <trkpt lat="45.12342" lon="5.80124">
        <ele>523</ele>
        <time>2021-05-29T12:31:46Z</time>
      </trkpt>
      <trkpt lat="45.12344" lon="5.80125">
        <ele>522.6</ele>
        <time>2021-05-29T12:31:47Z</time>
      </trkpt>
      <trkpt lat="45.12346" lon="5.80127">
        <ele>523</ele>
        <time>2021-05-29T12:31:48Z</time>
      </trkpt>
      <trkpt lat="45.12356" lon="5.80134">
        <ele>522.6</ele>
        <time>2021-05-29T12:31:49Z</time>
      </trkpt>
      <trkpt lat="45.12365" lon="5.80142">
        <ele>522.8</ele>
        <time>2021-05-29T12:31:50Z</time>
      </trkpt>
      <trkpt lat="45.12374" lon="5.80149">
        <ele>522.4</ele>
        <time>2021-05-29T12:31:51Z</time>
      </trkpt>
      <trkpt lat="45.12384" lon="5.80156">
        <ele>522.6</ele>
        <time>2021-05-29T12:31:52Z</time>
      </trkpt>
      <trkpt lat="45.12393" lon="5.80164">
        <ele>522.2</ele>
        <time>2021-05-29T12:31:53Z</time>
      </trkpt>
      <trkpt lat="45.12402" lon="5.80171">
        <ele>522.4</ele>
        <time>2021-05-29T12:31:54Z</time>
      </trkpt>
      <trkpt lat="45.12459" lon="5.80216">
        <ele>522.2</ele>
        <time>2021-05-29T12:31:55Z</time>
      </trkpt>
      <trkpt lat="45.12464" lon="5.80217">
        <ele>522.2</ele>
        <time>2021-05-29T12:31:56Z</time>
      </trkpt>
      <trkpt lat="45.12475" lon="5.8022">
        <ele>522</ele>
        <time>2021-05-29T12:31:57Z</time>
      </trkpt>
      <trkpt lat="45.12484" lon="5.80226">
        <ele>522</ele>
        <time>2021-05-29T12:31:58Z</time>
      </trkpt>
      <trkpt lat="45.12486" lon="5.80227">
        <ele>521.8</ele>
        <time>2021-05-29T12:31:59Z</time>
      </trkpt>
      <trkpt lat="45.12488" lon="5.80229">
        <ele>522</ele>
        <time>2021-05-29T12:32:00Z</time>
      </trkpt>
      <trkpt lat="45.12489" lon="5.8023">
        <ele>522</ele>
        <time>2021-05-29T12:32:01Z</time>
      </trkpt>
      <trkpt lat="45.12491" lon="5.80231">
        <ele>522</ele>
        <time>2021-05-29T12:32:02Z</time>
      </trkpt>
      <trkpt lat="45.12497" lon="5.80237">
        <ele>522</ele>
        <time>2021-05-29T12:32:03Z</time>
      </trkpt>
      <trkpt lat="45.12504" lon="5.80242">
        <ele>521.8</ele>
        <time>2021-05-29T12:32:04Z</time>
      </trkpt>
      <trkpt lat="45.1251" lon="5.80247">
        <ele>521.8</ele>
        <time>2021-05-29T12:32:05Z</time>
      </trkpt>
      <trkpt lat="45.12515" lon="5.8025">
        <ele>522</ele>
        <time>2021-05-29T12:32:06Z</time>
      </trkpt>
      <trkpt lat="45.12515" lon="5.8025">
        <ele>521.8</ele>
        <time>2021-05-29T12:32:07Z</time>
      </trkpt>
      <trkpt lat="45.12518" lon="5.80253">
        <ele>522.2</ele>
        <time>2021-05-29T12:32:08Z</time>
      </trkpt>
      <trkpt lat="45.12521" lon="5.80256">
        <ele>522</ele>
        <time>2021-05-29T12:32:09Z</time>
      </trkpt>
      <trkpt lat="45.12523" lon="5.80258">
        <ele>522.2</ele>
        <time>2021-05-29T12:32:10Z</time>
      </trkpt>
      <trkpt lat="45.12526" lon="5.80261">
        <ele>522.2</ele>
        <time>2021-05-29T12:32:11Z</time>
      </trkpt>
      <trkpt lat="45.12529" lon="5.80263">
        <ele>522.4</ele>
        <time>2021-05-29T12:32:12Z</time>
      </trkpt>
      <trkpt lat="45.12531" lon="5.80266">
        <ele>522.2</ele>
        <time>2021-05-29T12:32:13Z</time>
      </trkpt>
      <trkpt lat="45.12537" lon="5.80268">
        <ele>522.2</ele>
        <time>2021-05-29T12:32:14Z</time>
      </trkpt>
      <trkpt lat="45.12537" lon="5.80268">
        <ele>522.2</ele>
        <time>2021-05-29T12:32:15Z</time>
      </trkpt>
      <trkpt lat="45.12537" lon="5.80268">
        <ele>522.2</ele>
        <time>2021-05-29T12:32:16Z</time>
      </trkpt>
      <trkpt lat="45.12538" lon="5.8027">
        <ele>522.2</ele>
        <time>2021-05-29T12:32:17Z</time>
      </trkpt>
      <trkpt lat="45.12539" lon="5.80271">
        <ele>522.4</ele>
        <time>2021-05-29T12:32:18Z</time>
      </trkpt>
      <trkpt lat="45.1254" lon="5.80273">
        <ele>522.2</ele>
        <time>2021-05-29T12:32:19Z</time>
      </trkpt>
      <trkpt lat="45.12542" lon="5.80275">
        <ele>522.2</ele>
        <time>2021-05-29T12:32:20Z</time>
      </trkpt>
      <trkpt lat="45.12543" lon="5.80276">
        <ele>522.2</ele>
        <time>2021-05-29T12:32:21Z</time>
      </trkpt>
      <trkpt lat="45.12544" lon="5.80278">
        <ele>522.2</ele>
        <time>2021-05-29T12:32:22Z</time>
      </trkpt>
      <trkpt lat="45.12546" lon="5.8028">
        <ele>522.4</ele>
        <time>2021-05-29T12:32:23Z</time>
      </trkpt>
      <trkpt lat="45.12548" lon="5.80282">
        <ele>522.6</ele>
        <time>2021-05-29T12:32:24Z</time>
      </trkpt>
      <trkpt lat="45.1255" lon="5.80284">
        <ele>522.4</ele>
        <time>2021-05-29T12:32:25Z</time>
      </trkpt>
      <trkpt lat="45.12552" lon="5.80286">
        <ele>522.6</ele>
        <time>2021-05-29T12:32:26Z</time>
      </trkpt>
      <trkpt lat="45.12554" lon="5.80288">
        <ele>522.6</ele>
        <time>2021-05-29T12:32:27Z</time>
      </trkpt>
      <trkpt lat="45.12556" lon="5.8029">
        <ele>523.2</ele>
        <time>2021-05-29T12:32:28Z</time>
      </trkpt>
      <trkpt lat="45.12558" lon="5.80292">
        <ele>523.6</ele>
        <time>2021-05-29T12:32:29Z</time>
      </trkpt>
      <trkpt lat="45.12562" lon="5.80297">
        <ele>524.2</ele>
        <time>2021-05-29T12:32:30Z</time>
      </trkpt>
      <trkpt lat="45.12562" lon="5.80297">
        <ele>524.6</ele>
        <time>2021-05-29T12:32:31Z</time>
      </trkpt>
      <trkpt lat="45.12562" lon="5.80297">
        <ele>525</ele>
        <time>2021-05-29T12:32:32Z</time>
      </trkpt>
      <trkpt lat="45.12563" lon="5.80299">
        <ele>525</ele>
        <time>2021-05-29T12:32:33Z</time>
      </trkpt>
      <trkpt lat="45.12564" lon="5.80301">
        <ele>525.2</ele>
        <time>2021-05-29T12:32:34Z</time>
      </trkpt>
      <trkpt lat="45.12565" lon="5.80302">
        <ele>525.2</ele>
        <time>2021-05-29T12:32:35Z</time>
      </trkpt>
      <trkpt lat="45.12566" lon="5.80304">
        <ele>525.4</ele>
        <time>2021-05-29T12:32:36Z</time>
      </trkpt>
      <trkpt lat="45.12567" lon="5.80306">
        <ele>525.4</ele>
        <time>2021-05-29T12:32:37Z</time>
      </trkpt>
      <trkpt lat="45.12568" lon="5.80308">
        <ele>526</ele>
        <time>2021-05-29T12:32:38Z</time>
      </trkpt>
      <trkpt lat="45.12569" lon="5.80309">
        <ele>526</ele>
        <time>2021-05-29T12:32:39Z</time>
      </trkpt>
      <trkpt lat="45.1257" lon="5.8031">
        <ele>526.4</ele>
        <time>2021-05-29T12:32:40Z</time>
      </trkpt>
      <trkpt lat="45.12571" lon="5.80311">
        <ele>526.4</ele>
        <time>2021-05-29T12:32:41Z</time>
      </trkpt>
      <trkpt lat="45.12572" lon="5.80312">
        <ele>526.8</ele>
        <time>2021-05-29T12:32:42Z</time>
      </trkpt>
      <trkpt lat="45.12573" lon="5.80313">
        <ele>527</ele>
        <time>2021-05-29T12:32:43Z</time>
      </trkpt>
      <trkpt lat="45.12574" lon="5.80314">
        <ele>527.4</ele>
        <time>2021-05-29T12:32:44Z</time>
      </trkpt>
      <trkpt lat="45.12575" lon="5.80315">
        <ele>527.6</ele>
        <time>2021-05-29T12:32:45Z</time>
      </trkpt>
      <trkpt lat="45.12578" lon="5.80318">
        <ele>527.8</ele>
        <time>2021-05-29T12:32:46Z</time>
      </trkpt>
      <trkpt lat="45.1258" lon="5.8032">
        <ele>527.8</ele>
        <time>2021-05-29T12:32:47Z</time>
      </trkpt>
      <trkpt lat="45.12583" lon="5.80323">
        <ele>528</ele>
        <time>2021-05-29T12:32:48Z</time>
      </trkpt>
      <trkpt lat="45.12585" lon="5.80325">
        <ele>527.6</ele>
        <time>2021-05-29T12:32:49Z</time>
      </trkpt>
      <trkpt lat="45.12588" lon="5.80328">
        <ele>527.6</ele>
        <time>2021-05-29T12:32:50Z</time>
      </trkpt>
      <trkpt lat="45.1259" lon="5.80331">
        <ele>527.4</ele>
        <time>2021-05-29T12:32:51Z</time>
      </trkpt>
      <trkpt lat="45.12592" lon="5.80333">
        <ele>527.4</ele>
        <time>2021-05-29T12:32:52Z</time>
      </trkpt>
      <trkpt lat="45.12595" lon="5.80336">
        <ele>527.2</ele>
        <time>2021-05-29T12:32:53Z</time>
      </trkpt>
      <trkpt lat="45.126" lon="5.80341">
        <ele>526.8</ele>
        <time>2021-05-29T12:32:54Z</time>
      </trkpt>
      <trkpt lat="45.126" lon="5.80341">
        <ele>527</ele>
        <time>2021-05-29T12:32:55Z</time>
      </trkpt>
      <trkpt lat="45.126" lon="5.80341">
        <ele>526.8</ele>
        <time>2021-05-29T12:32:56Z</time>
      </trkpt>
      <trkpt lat="45.12602" lon="5.80341">
        <ele>527</ele>
        <time>2021-05-29T12:32:57Z</time>
      </trkpt>
      <trkpt lat="45.12604" lon="5.80341">
        <ele>526.6</ele>
        <time>2021-05-29T12:32:58Z</time>
      </trkpt>
      <trkpt lat="45.12607" lon="5.80342">
        <ele>526.8</ele>
        <time>2021-05-29T12:32:59Z</time>
      </trkpt>
      <trkpt lat="45.12609" lon="5.80342">
        <ele>526.6</ele>
        <time>2021-05-29T12:33:00Z</time>
      </trkpt>
      <trkpt lat="45.12612" lon="5.80343">
        <ele>526.6</ele>
        <time>2021-05-29T12:33:01Z</time>
      </trkpt>
      <trkpt lat="45.12614" lon="5.80343">
        <ele>526.2</ele>
        <time>2021-05-29T12:33:02Z</time>
      </trkpt>
      <trkpt lat="45.12616" lon="5.80343">
        <ele>525.8</ele>
        <time>2021-05-29T12:33:03Z</time>
      </trkpt>
      <trkpt lat="45.12619" lon="5.80343">
        <ele>525.4</ele>
        <time>2021-05-29T12:33:04Z</time>
      </trkpt>
      <trkpt lat="45.12621" lon="5.80345">
        <ele>525</ele>
        <time>2021-05-29T12:33:05Z</time>
      </trkpt>
      <trkpt lat="45.12624" lon="5.80346">
        <ele>525.2</ele>
        <time>2021-05-29T12:33:06Z</time>
      </trkpt>
      <trkpt lat="45.12627" lon="5.80347">
        <ele>525</ele>
        <time>2021-05-29T12:33:07Z</time>
      </trkpt>
      <trkpt lat="45.12629" lon="5.80349">
        <ele>525.2</ele>
        <time>2021-05-29T12:33:08Z</time>
      </trkpt>
      <trkpt lat="45.12633" lon="5.80352">
        <ele>524.8</ele>
        <time>2021-05-29T12:33:09Z</time>
      </trkpt>
      <trkpt lat="45.12637" lon="5.80354">
        <ele>524.6</ele>
        <time>2021-05-29T12:33:10Z</time>
      </trkpt>
      <trkpt lat="45.12641" lon="5.80357">
        <ele>523.6</ele>
        <time>2021-05-29T12:33:11Z</time>
      </trkpt>
      <trkpt lat="45.12645" lon="5.8036">
        <ele>523</ele>
        <time>2021-05-29T12:33:12Z</time>
      </trkpt>
      <trkpt lat="45.12649" lon="5.80365">
        <ele>523.2</ele>
        <time>2021-05-29T12:33:13Z</time>
      </trkpt>
      <trkpt lat="45.12649" lon="5.80365">
        <ele>522.8</ele>
        <time>2021-05-29T12:33:14Z</time>
      </trkpt>
      <trkpt lat="45.12649" lon="5.80365">
        <ele>522.8</ele>
        <time>2021-05-29T12:33:15Z</time>
      </trkpt>
      <trkpt lat="45.12649" lon="5.80365">
        <ele>522.2</ele>
        <time>2021-05-29T12:33:16Z</time>
      </trkpt>
      <trkpt lat="45.1265" lon="5.80367">
        <ele>522.2</ele>
        <time>2021-05-29T12:33:17Z</time>
      </trkpt>
      <trkpt lat="45.1265" lon="5.80369">
        <ele>521.6</ele>
        <time>2021-05-29T12:33:18Z</time>
      </trkpt>
      <trkpt lat="45.1265" lon="5.80372">
        <ele>521.4</ele>
        <time>2021-05-29T12:33:19Z</time>
      </trkpt>
      <trkpt lat="45.1265" lon="5.80374">
        <ele>521.2</ele>
        <time>2021-05-29T12:33:20Z</time>
      </trkpt>
      <trkpt lat="45.1265" lon="5.80376">
        <ele>521.2</ele>
        <time>2021-05-29T12:33:21Z</time>
      </trkpt>
      <trkpt lat="45.1265" lon="5.80378">
        <ele>521.2</ele>
        <time>2021-05-29T12:33:22Z</time>
      </trkpt>
      <trkpt lat="45.12649" lon="5.80379">
        <ele>521.4</ele>
        <time>2021-05-29T12:33:23Z</time>
      </trkpt>
      <trkpt lat="45.12648" lon="5.8038">
        <ele>521.4</ele>
        <time>2021-05-29T12:33:24Z</time>
      </trkpt>
      <trkpt lat="45.12646" lon="5.80382">
        <ele>521.8</ele>
        <time>2021-05-29T12:33:25Z</time>
      </trkpt>
      <trkpt lat="45.12645" lon="5.80383">
        <ele>521.8</ele>
        <time>2021-05-29T12:33:26Z</time>
      </trkpt>
      <trkpt lat="45.12644" lon="5.80384">
        <ele>522</ele>
        <time>2021-05-29T12:33:27Z</time>
      </trkpt>
      <trkpt lat="45.12643" lon="5.80385">
        <ele>522</ele>
        <time>2021-05-29T12:33:28Z</time>
      </trkpt>
      <trkpt lat="45.12642" lon="5.80386">
        <ele>521.8</ele>
        <time>2021-05-29T12:33:29Z</time>
      </trkpt>
      <trkpt lat="45.12641" lon="5.80387">
        <ele>522.2</ele>
        <time>2021-05-29T12:33:30Z</time>
      </trkpt>
      <trkpt lat="45.12639" lon="5.80387">
        <ele>522</ele>
        <time>2021-05-29T12:33:31Z</time>
      </trkpt>
      <trkpt lat="45.12638" lon="5.80388">
        <ele>522.4</ele>
        <time>2021-05-29T12:33:32Z</time>
      </trkpt>
      <trkpt lat="45.12637" lon="5.80388">
        <ele>522.2</ele>
        <time>2021-05-29T12:33:33Z</time>
      </trkpt>
      <trkpt lat="45.12635" lon="5.80389">
        <ele>522</ele>
        <time>2021-05-29T12:33:34Z</time>
      </trkpt>
      <trkpt lat="45.12634" lon="5.80389">
        <ele>521.6</ele>
        <time>2021-05-29T12:33:35Z</time>
      </trkpt>
      <trkpt lat="45.12632" lon="5.80389">
        <ele>521.2</ele>
        <time>2021-05-29T12:33:36Z</time>
      </trkpt>
      <trkpt lat="45.1263" lon="5.80389">
        <ele>521</ele>
        <time>2021-05-29T12:33:37Z</time>
      </trkpt>
      <trkpt lat="45.1263" lon="5.80391">
        <ele>520.6</ele>
        <time>2021-05-29T12:33:38Z</time>
      </trkpt>
      <trkpt lat="45.12629" lon="5.80392">
        <ele>520.6</ele>
        <time>2021-05-29T12:33:39Z</time>
      </trkpt>
      <trkpt lat="45.12628" lon="5.80394">
        <ele>520.2</ele>
        <time>2021-05-29T12:33:40Z</time>
      </trkpt>
      <trkpt lat="45.12627" lon="5.80396">
        <ele>520.4</ele>
        <time>2021-05-29T12:33:41Z</time>
      </trkpt>
      <trkpt lat="45.12626" lon="5.80398">
        <ele>520</ele>
        <time>2021-05-29T12:33:42Z</time>
      </trkpt>
      <trkpt lat="45.12625" lon="5.80399">
        <ele>520</ele>
        <time>2021-05-29T12:33:43Z</time>
      </trkpt>
      <trkpt lat="45.12624" lon="5.80401">
        <ele>519.6</ele>
        <time>2021-05-29T12:33:44Z</time>
      </trkpt>
      <trkpt lat="45.12624" lon="5.80401">
        <ele>519.6</ele>
        <time>2021-05-29T12:33:45Z</time>
      </trkpt>
      <trkpt lat="45.12624" lon="5.80401">
        <ele>519.4</ele>
        <time>2021-05-29T12:33:46Z</time>
      </trkpt>
      <trkpt lat="45.12625" lon="5.80405">
        <ele>519.8</ele>
        <time>2021-05-29T12:33:47Z</time>
      </trkpt>
      <trkpt lat="45.12625" lon="5.80405">
        <ele>519.6</ele>
        <time>2021-05-29T12:33:48Z</time>
      </trkpt>
      <trkpt lat="45.12626" lon="5.80409">
        <ele>519.8</ele>
        <time>2021-05-29T12:33:49Z</time>
      </trkpt>
      <trkpt lat="45.12626" lon="5.80409">
        <ele>520</ele>
        <time>2021-05-29T12:33:50Z</time>
      </trkpt>
      <trkpt lat="45.12626" lon="5.80409">
        <ele>520.4</ele>
        <time>2021-05-29T12:33:51Z</time>
      </trkpt>
      <trkpt lat="45.12626" lon="5.80412">
        <ele>520.6</ele>
        <time>2021-05-29T12:33:52Z</time>
      </trkpt>
      <trkpt lat="45.12627" lon="5.80413">
        <ele>521</ele>
        <time>2021-05-29T12:33:53Z</time>
      </trkpt>
      <trkpt lat="45.12628" lon="5.80415">
        <ele>521.2</ele>
        <time>2021-05-29T12:33:54Z</time>
      </trkpt>
      <trkpt lat="45.12629" lon="5.80416">
        <ele>521.6</ele>
        <time>2021-05-29T12:33:55Z</time>
      </trkpt>
      <trkpt lat="45.1263" lon="5.80418">
        <ele>521.8</ele>
        <time>2021-05-29T12:33:56Z</time>
      </trkpt>
      <trkpt lat="45.12631" lon="5.80419">
        <ele>522.2</ele>
        <time>2021-05-29T12:33:57Z</time>
      </trkpt>
      <trkpt lat="45.12631" lon="5.80421">
        <ele>522.4</ele>
        <time>2021-05-29T12:33:58Z</time>
      </trkpt>
      <trkpt lat="45.12632" lon="5.80423">
        <ele>522.8</ele>
        <time>2021-05-29T12:33:59Z</time>
      </trkpt>
      <trkpt lat="45.12633" lon="5.80424">
        <ele>523</ele>
        <time>2021-05-29T12:34:00Z</time>
      </trkpt>
      <trkpt lat="45.12634" lon="5.80426">
        <ele>523.4</ele>
        <time>2021-05-29T12:34:01Z</time>
      </trkpt>
      <trkpt lat="45.12635" lon="5.80427">
        <ele>523.6</ele>
        <time>2021-05-29T12:34:02Z</time>
      </trkpt>
      <trkpt lat="45.12637" lon="5.8043">
        <ele>523.8</ele>
        <time>2021-05-29T12:34:03Z</time>
      </trkpt>
      <trkpt lat="45.12638" lon="5.80432">
        <ele>523.4</ele>
        <time>2021-05-29T12:34:04Z</time>
      </trkpt>
      <trkpt lat="45.12639" lon="5.80434">
        <ele>523.6</ele>
        <time>2021-05-29T12:34:05Z</time>
      </trkpt>
      <trkpt lat="45.1264" lon="5.80435">
        <ele>523.6</ele>
        <time>2021-05-29T12:34:06Z</time>
      </trkpt>
      <trkpt lat="45.12641" lon="5.80437">
        <ele>524</ele>
        <time>2021-05-29T12:34:07Z</time>
      </trkpt>
      <trkpt lat="45.12642" lon="5.80438">
        <ele>524</ele>
        <time>2021-05-29T12:34:08Z</time>
      </trkpt>
      <trkpt lat="45.12645" lon="5.80443">
        <ele>524.4</ele>
        <time>2021-05-29T12:34:09Z</time>
      </trkpt>
      <trkpt lat="45.12645" lon="5.80443">
        <ele>524.4</ele>
        <time>2021-05-29T12:34:10Z</time>
      </trkpt>
      <trkpt lat="45.12647" lon="5.80445">
        <ele>525</ele>
        <time>2021-05-29T12:34:11Z</time>
      </trkpt>
      <trkpt lat="45.1265" lon="5.80448">
        <ele>524.8</ele>
        <time>2021-05-29T12:34:12Z</time>
      </trkpt>
      <trkpt lat="45.1265" lon="5.80448">
        <ele>525.2</ele>
        <time>2021-05-29T12:34:13Z</time>
      </trkpt>
      <trkpt lat="45.12652" lon="5.80451">
        <ele>525</ele>
        <time>2021-05-29T12:34:14Z</time>
      </trkpt>
      <trkpt lat="45.12654" lon="5.80452">
        <ele>525.2</ele>
        <time>2021-05-29T12:34:15Z</time>
      </trkpt>
      <trkpt lat="45.12656" lon="5.80454">
        <ele>525.2</ele>
        <time>2021-05-29T12:34:16Z</time>
      </trkpt>
      <trkpt lat="45.12658" lon="5.80456">
        <ele>525.6</ele>
        <time>2021-05-29T12:34:17Z</time>
      </trkpt>
      <trkpt lat="45.12661" lon="5.80459">
        <ele>525.6</ele>
        <time>2021-05-29T12:34:18Z</time>
      </trkpt>
      <trkpt lat="45.12661" lon="5.80459">
        <ele>526</ele>
        <time>2021-05-29T12:34:19Z</time>
      </trkpt>
      <trkpt lat="45.12663" lon="5.8046">
        <ele>526.2</ele>
        <time>2021-05-29T12:34:20Z</time>
      </trkpt>
      <trkpt lat="45.12665" lon="5.80462">
        <ele>526.4</ele>
        <time>2021-05-29T12:34:21Z</time>
      </trkpt>
      <trkpt lat="45.12668" lon="5.80466">
        <ele>526.6</ele>
        <time>2021-05-29T12:34:22Z</time>
      </trkpt>
      <trkpt lat="45.12668" lon="5.80466">
        <ele>527.2</ele>
        <time>2021-05-29T12:34:23Z</time>
      </trkpt>
      <trkpt lat="45.12669" lon="5.80468">
        <ele>527.2</ele>
        <time>2021-05-29T12:34:24Z</time>
      </trkpt>
      <trkpt lat="45.12671" lon="5.8047">
        <ele>527.4</ele>
        <time>2021-05-29T12:34:25Z</time>
      </trkpt>
      <trkpt lat="45.12673" lon="5.80471">
        <ele>527.4</ele>
        <time>2021-05-29T12:34:26Z</time>
      </trkpt>
      <trkpt lat="45.12675" lon="5.80473">
        <ele>527.6</ele>
        <time>2021-05-29T12:34:27Z</time>
      </trkpt>
      <trkpt lat="45.12676" lon="5.80474">
        <ele>527.6</ele>
        <time>2021-05-29T12:34:28Z</time>
      </trkpt>
      <trkpt lat="45.12679" lon="5.80477">
        <ele>528</ele>
        <time>2021-05-29T12:34:29Z</time>
      </trkpt>
      <trkpt lat="45.1268" lon="5.80478">
        <ele>528</ele>
        <time>2021-05-29T12:34:30Z</time>
      </trkpt>
      <trkpt lat="45.12682" lon="5.80482">
        <ele>528.2</ele>
        <time>2021-05-29T12:34:31Z</time>
      </trkpt>
      <trkpt lat="45.12682" lon="5.80482">
        <ele>528.4</ele>
        <time>2021-05-29T12:34:32Z</time>
      </trkpt>
      <trkpt lat="45.12684" lon="5.80484">
        <ele>528.8</ele>
        <time>2021-05-29T12:34:33Z</time>
      </trkpt>
      <trkpt lat="45.12685" lon="5.80487">
        <ele>528.8</ele>
        <time>2021-05-29T12:34:34Z</time>
      </trkpt>
      <trkpt lat="45.12687" lon="5.80489">
        <ele>529</ele>
        <time>2021-05-29T12:34:35Z</time>
      </trkpt>
      <trkpt lat="45.12688" lon="5.80491">
        <ele>529.2</ele>
        <time>2021-05-29T12:34:36Z</time>
      </trkpt>
      <trkpt lat="45.12691" lon="5.80494">
        <ele>529.8</ele>
        <time>2021-05-29T12:34:37Z</time>
      </trkpt>
      <trkpt lat="45.12691" lon="5.80494">
        <ele>529.8</ele>
        <time>2021-05-29T12:34:38Z</time>
      </trkpt>
      <trkpt lat="45.12692" lon="5.80496">
        <ele>530</ele>
        <time>2021-05-29T12:34:39Z</time>
      </trkpt>
      <trkpt lat="45.12694" lon="5.80498">
        <ele>530.2</ele>
        <time>2021-05-29T12:34:40Z</time>
      </trkpt>
      <trkpt lat="45.12695" lon="5.805">
        <ele>530.4</ele>
        <time>2021-05-29T12:34:41Z</time>
      </trkpt>
      <trkpt lat="45.12698" lon="5.80504">
        <ele>530.6</ele>
        <time>2021-05-29T12:34:42Z</time>
      </trkpt>
      <trkpt lat="45.12698" lon="5.80504">
        <ele>531</ele>
        <time>2021-05-29T12:34:43Z</time>
      </trkpt>
      <trkpt lat="45.127" lon="5.80506">
        <ele>531</ele>
        <time>2021-05-29T12:34:44Z</time>
      </trkpt>
      <trkpt lat="45.12701" lon="5.80508">
        <ele>531.4</ele>
        <time>2021-05-29T12:34:45Z</time>
      </trkpt>
      <trkpt lat="45.12702" lon="5.8051">
        <ele>531.4</ele>
        <time>2021-05-29T12:34:46Z</time>
      </trkpt>
      <trkpt lat="45.12705" lon="5.80513">
        <ele>531.6</ele>
        <time>2021-05-29T12:34:47Z</time>
      </trkpt>
      <trkpt lat="45.12705" lon="5.80513">
        <ele>531.6</ele>
        <time>2021-05-29T12:34:48Z</time>
      </trkpt>
      <trkpt lat="45.12707" lon="5.80516">
        <ele>531.8</ele>
        <time>2021-05-29T12:34:49Z</time>
      </trkpt>
      <trkpt lat="45.12708" lon="5.80518">
        <ele>531.6</ele>
        <time>2021-05-29T12:34:50Z</time>
      </trkpt>
      <trkpt lat="45.1271" lon="5.8052">
        <ele>532</ele>
        <time>2021-05-29T12:34:51Z</time>
      </trkpt>
      <trkpt lat="45.12712" lon="5.80522">
        <ele>532</ele>
        <time>2021-05-29T12:34:52Z</time>
      </trkpt>
      <trkpt lat="45.12716" lon="5.80526">
        <ele>532.4</ele>
        <time>2021-05-29T12:34:53Z</time>
      </trkpt>
      <trkpt lat="45.12716" lon="5.80526">
        <ele>532.4</ele>
        <time>2021-05-29T12:34:54Z</time>
      </trkpt>
      <trkpt lat="45.12718" lon="5.80528">
        <ele>532.8</ele>
        <time>2021-05-29T12:34:55Z</time>
      </trkpt>
      <trkpt lat="45.12721" lon="5.8053">
        <ele>532.6</ele>
        <time>2021-05-29T12:34:56Z</time>
      </trkpt>
      <trkpt lat="45.12723" lon="5.80532">
        <ele>532.8</ele>
        <time>2021-05-29T12:34:57Z</time>
      </trkpt>
      <trkpt lat="45.12727" lon="5.80536">
        <ele>532.6</ele>
        <time>2021-05-29T12:34:58Z</time>
      </trkpt>
      <trkpt lat="45.12727" lon="5.80536">
        <ele>533</ele>
        <time>2021-05-29T12:34:59Z</time>
      </trkpt>
      <trkpt lat="45.12729" lon="5.80538">
        <ele>533</ele>
        <time>2021-05-29T12:35:00Z</time>
      </trkpt>
      <trkpt lat="45.12732" lon="5.8054">
        <ele>533.2</ele>
        <time>2021-05-29T12:35:01Z</time>
      </trkpt>
      <trkpt lat="45.12734" lon="5.80543">
        <ele>532.8</ele>
        <time>2021-05-29T12:35:02Z</time>
      </trkpt>
      <trkpt lat="45.12736" lon="5.80544">
        <ele>533</ele>
        <time>2021-05-29T12:35:03Z</time>
      </trkpt>
      <trkpt lat="45.12738" lon="5.80545">
        <ele>533</ele>
        <time>2021-05-29T12:35:04Z</time>
      </trkpt>
      <trkpt lat="45.12742" lon="5.80548">
        <ele>533.2</ele>
        <time>2021-05-29T12:35:05Z</time>
      </trkpt>
      <trkpt lat="45.12742" lon="5.80548">
        <ele>533</ele>
        <time>2021-05-29T12:35:06Z</time>
      </trkpt>
      <trkpt lat="45.12744" lon="5.8055">
        <ele>533.4</ele>
        <time>2021-05-29T12:35:07Z</time>
      </trkpt>
      <trkpt lat="45.12746" lon="5.80551">
        <ele>533.4</ele>
        <time>2021-05-29T12:35:08Z</time>
      </trkpt>
      <trkpt lat="45.12748" lon="5.80553">
        <ele>533.6</ele>
        <time>2021-05-29T12:35:09Z</time>
      </trkpt>
      <trkpt lat="45.12752" lon="5.80555">
        <ele>533.6</ele>
        <time>2021-05-29T12:35:10Z</time>
      </trkpt>
      <trkpt lat="45.12752" lon="5.80555">
        <ele>533.8</ele>
        <time>2021-05-29T12:35:11Z</time>
      </trkpt>
      <trkpt lat="45.12754" lon="5.80557">
        <ele>533.6</ele>
        <time>2021-05-29T12:35:12Z</time>
      </trkpt>
      <trkpt lat="45.12756" lon="5.80558">
        <ele>533.8</ele>
        <time>2021-05-29T12:35:13Z</time>
      </trkpt>
      <trkpt lat="45.12759" lon="5.80559">
        <ele>533.6</ele>
        <time>2021-05-29T12:35:14Z</time>
      </trkpt>
      <trkpt lat="45.12764" lon="5.80563">
        <ele>533.6</ele>
        <time>2021-05-29T12:35:15Z</time>
      </trkpt>
      <trkpt lat="45.12764" lon="5.80563">
        <ele>533.6</ele>
        <time>2021-05-29T12:35:16Z</time>
      </trkpt>
      <trkpt lat="45.12766" lon="5.80564">
        <ele>533.6</ele>
        <time>2021-05-29T12:35:17Z</time>
      </trkpt>
      <trkpt lat="45.12768" lon="5.80566">
        <ele>533.6</ele>
        <time>2021-05-29T12:35:18Z</time>
      </trkpt>
      <trkpt lat="45.1277" lon="5.80567">
        <ele>533.6</ele>
        <time>2021-05-29T12:35:19Z</time>
      </trkpt>
      <trkpt lat="45.12772" lon="5.80569">
        <ele>533.2</ele>
        <time>2021-05-29T12:35:20Z</time>
      </trkpt>
      <trkpt lat="45.12776" lon="5.80573">
        <ele>533.4</ele>
        <time>2021-05-29T12:35:21Z</time>
      </trkpt>
      <trkpt lat="45.12776" lon="5.80573">
        <ele>533.2</ele>
        <time>2021-05-29T12:35:22Z</time>
      </trkpt>
      <trkpt lat="45.12778" lon="5.80575">
        <ele>533.4</ele>
        <time>2021-05-29T12:35:23Z</time>
      </trkpt>
      <trkpt lat="45.1278" lon="5.80578">
        <ele>533.4</ele>
        <time>2021-05-29T12:35:24Z</time>
      </trkpt>
      <trkpt lat="45.12781" lon="5.8058">
        <ele>533.2</ele>
        <time>2021-05-29T12:35:25Z</time>
      </trkpt>
      <trkpt lat="45.12783" lon="5.80582">
        <ele>533.4</ele>
        <time>2021-05-29T12:35:26Z</time>
      </trkpt>
      <trkpt lat="45.12784" lon="5.80584">
        <ele>533.4</ele>
        <time>2021-05-29T12:35:27Z</time>
      </trkpt>
      <trkpt lat="45.12786" lon="5.80586">
        <ele>533.8</ele>
        <time>2021-05-29T12:35:28Z</time>
      </trkpt>
      <trkpt lat="45.12787" lon="5.80588">
        <ele>534</ele>
        <time>2021-05-29T12:35:29Z</time>
      </trkpt>
      <trkpt lat="45.12789" lon="5.8059">
        <ele>534.2</ele>
        <time>2021-05-29T12:35:30Z</time>
      </trkpt>
      <trkpt lat="45.12792" lon="5.80594">
        <ele>534.4</ele>
        <time>2021-05-29T12:35:31Z</time>
      </trkpt>
      <trkpt lat="45.12792" lon="5.80594">
        <ele>534.8</ele>
        <time>2021-05-29T12:35:32Z</time>
      </trkpt>
      <trkpt lat="45.12793" lon="5.80597">
        <ele>535</ele>
        <time>2021-05-29T12:35:33Z</time>
      </trkpt>
      <trkpt lat="45.12796" lon="5.80601">
        <ele>535.4</ele>
        <time>2021-05-29T12:35:34Z</time>
      </trkpt>
      <trkpt lat="45.12796" lon="5.80601">
        <ele>535.6</ele>
        <time>2021-05-29T12:35:35Z</time>
      </trkpt>
      <trkpt lat="45.12797" lon="5.80603">
        <ele>536</ele>
        <time>2021-05-29T12:35:36Z</time>
      </trkpt>
      <trkpt lat="45.12801" lon="5.80608">
        <ele>536.2</ele>
        <time>2021-05-29T12:35:37Z</time>
      </trkpt>
      <trkpt lat="45.12801" lon="5.80608">
        <ele>536.8</ele>
        <time>2021-05-29T12:35:38Z</time>
      </trkpt>
      <trkpt lat="45.12802" lon="5.8061">
        <ele>536.6</ele>
        <time>2021-05-29T12:35:39Z</time>
      </trkpt>
      <trkpt lat="45.12803" lon="5.80612">
        <ele>537</ele>
        <time>2021-05-29T12:35:40Z</time>
      </trkpt>
      <trkpt lat="45.12806" lon="5.80616">
        <ele>537</ele>
        <time>2021-05-29T12:35:41Z</time>
      </trkpt>
      <trkpt lat="45.12808" lon="5.80618">
        <ele>537.2</ele>
        <time>2021-05-29T12:35:42Z</time>
      </trkpt>
      <trkpt lat="45.12809" lon="5.8062">
        <ele>537.2</ele>
        <time>2021-05-29T12:35:43Z</time>
      </trkpt>
      <trkpt lat="45.12809" lon="5.8062">
        <ele>537.4</ele>
        <time>2021-05-29T12:35:44Z</time>
      </trkpt>
      <trkpt lat="45.1281" lon="5.80622">
        <ele>537.4</ele>
        <time>2021-05-29T12:35:45Z</time>
      </trkpt>
      <trkpt lat="45.12812" lon="5.80624">
        <ele>537.8</ele>
        <time>2021-05-29T12:35:46Z</time>
      </trkpt>
      <trkpt lat="45.12815" lon="5.80628">
        <ele>537.8</ele>
        <time>2021-05-29T12:35:47Z</time>
      </trkpt>
      <trkpt lat="45.12815" lon="5.80628">
        <ele>538.2</ele>
        <time>2021-05-29T12:35:48Z</time>
      </trkpt>
      <trkpt lat="45.12817" lon="5.80631">
        <ele>538</ele>
        <time>2021-05-29T12:35:49Z</time>
      </trkpt>
      <trkpt lat="45.12819" lon="5.80632">
        <ele>538.4</ele>
        <time>2021-05-29T12:35:50Z</time>
      </trkpt>
      <trkpt lat="45.1282" lon="5.80634">
        <ele>538.6</ele>
        <time>2021-05-29T12:35:51Z</time>
      </trkpt>
      <trkpt lat="45.12822" lon="5.80636">
        <ele>539</ele>
        <time>2021-05-29T12:35:52Z</time>
      </trkpt>
      <trkpt lat="45.12823" lon="5.80638">
        <ele>539</ele>
        <time>2021-05-29T12:35:53Z</time>
      </trkpt>
      <trkpt lat="45.12826" lon="5.80643">
        <ele>539.4</ele>
        <time>2021-05-29T12:35:54Z</time>
      </trkpt>
      <trkpt lat="45.12828" lon="5.80646">
        <ele>539.6</ele>
        <time>2021-05-29T12:35:55Z</time>
      </trkpt>
      <trkpt lat="45.1283" lon="5.80648">
        <ele>539.8</ele>
        <time>2021-05-29T12:35:56Z</time>
      </trkpt>
      <trkpt lat="45.12831" lon="5.8065">
        <ele>539.8</ele>
        <time>2021-05-29T12:35:57Z</time>
      </trkpt>
      <trkpt lat="45.12832" lon="5.80652">
        <ele>539.8</ele>
        <time>2021-05-29T12:35:58Z</time>
      </trkpt>
      <trkpt lat="45.12833" lon="5.80653">
        <ele>540</ele>
        <time>2021-05-29T12:35:59Z</time>
      </trkpt>
      <trkpt lat="45.12835" lon="5.80655">
        <ele>540.6</ele>
        <time>2021-05-29T12:36:00Z</time>
      </trkpt>
      <trkpt lat="45.12839" lon="5.80659">
        <ele>540.8</ele>
        <time>2021-05-29T12:36:01Z</time>
      </trkpt>
      <trkpt lat="45.12839" lon="5.80659">
        <ele>541</ele>
        <time>2021-05-29T12:36:02Z</time>
      </trkpt>
      <trkpt lat="45.12841" lon="5.8066">
        <ele>541</ele>
        <time>2021-05-29T12:36:03Z</time>
      </trkpt>
      <trkpt lat="45.12844" lon="5.80664">
        <ele>541.4</ele>
        <time>2021-05-29T12:36:04Z</time>
      </trkpt>
      <trkpt lat="45.12844" lon="5.80664">
        <ele>541.4</ele>
        <time>2021-05-29T12:36:05Z</time>
      </trkpt>
      <trkpt lat="45.12845" lon="5.80666">
        <ele>541.8</ele>
        <time>2021-05-29T12:36:06Z</time>
      </trkpt>
      <trkpt lat="45.12847" lon="5.80668">
        <ele>542</ele>
        <time>2021-05-29T12:36:07Z</time>
      </trkpt>
      <trkpt lat="45.12848" lon="5.80671">
        <ele>542.4</ele>
        <time>2021-05-29T12:36:08Z</time>
      </trkpt>
      <trkpt lat="45.1285" lon="5.80673">
        <ele>542.4</ele>
        <time>2021-05-29T12:36:09Z</time>
      </trkpt>
      <trkpt lat="45.12853" lon="5.80678">
        <ele>542.8</ele>
        <time>2021-05-29T12:36:10Z</time>
      </trkpt>
      <trkpt lat="45.12853" lon="5.80678">
        <ele>542.8</ele>
        <time>2021-05-29T12:36:11Z</time>
      </trkpt>
      <trkpt lat="45.12854" lon="5.80681">
        <ele>543.4</ele>
        <time>2021-05-29T12:36:12Z</time>
      </trkpt>
      <trkpt lat="45.12856" lon="5.80683">
        <ele>543.2</ele>
        <time>2021-05-29T12:36:13Z</time>
      </trkpt>
      <trkpt lat="45.1286" lon="5.80688">
        <ele>543.6</ele>
        <time>2021-05-29T12:36:14Z</time>
      </trkpt>
      <trkpt lat="45.1286" lon="5.80688">
        <ele>543.4</ele>
        <time>2021-05-29T12:36:15Z</time>
      </trkpt>
      <trkpt lat="45.12861" lon="5.8069">
        <ele>543.8</ele>
        <time>2021-05-29T12:36:16Z</time>
      </trkpt>
      <trkpt lat="45.12864" lon="5.80693">
        <ele>543.8</ele>
        <time>2021-05-29T12:36:17Z</time>
      </trkpt>
      <trkpt lat="45.12867" lon="5.80696">
        <ele>544</ele>
        <time>2021-05-29T12:36:18Z</time>
      </trkpt>
      <trkpt lat="45.12868" lon="5.80698">
        <ele>543.8</ele>
        <time>2021-05-29T12:36:19Z</time>
      </trkpt>
      <trkpt lat="45.1287" lon="5.807">
        <ele>544.2</ele>
        <time>2021-05-29T12:36:20Z</time>
      </trkpt>
      <trkpt lat="45.1287" lon="5.807">
        <ele>544</ele>
        <time>2021-05-29T12:36:21Z</time>
      </trkpt>
      <trkpt lat="45.12872" lon="5.80702">
        <ele>544.4</ele>
        <time>2021-05-29T12:36:22Z</time>
      </trkpt>
      <trkpt lat="45.12873" lon="5.80704">
        <ele>544.4</ele>
        <time>2021-05-29T12:36:23Z</time>
      </trkpt>
      <trkpt lat="45.12875" lon="5.80706">
        <ele>544.6</ele>
        <time>2021-05-29T12:36:24Z</time>
      </trkpt>
      <trkpt lat="45.12876" lon="5.80708">
        <ele>544.6</ele>
        <time>2021-05-29T12:36:25Z</time>
      </trkpt>
      <trkpt lat="45.12878" lon="5.8071">
        <ele>545</ele>
        <time>2021-05-29T12:36:26Z</time>
      </trkpt>
      <trkpt lat="45.1288" lon="5.80712">
        <ele>545</ele>
        <time>2021-05-29T12:36:27Z</time>
      </trkpt>
      <trkpt lat="45.1288" lon="5.80712">
        <ele>545.4</ele>
        <time>2021-05-29T12:36:28Z</time>
      </trkpt>
      <trkpt lat="45.12882" lon="5.80714">
        <ele>545.2</ele>
        <time>2021-05-29T12:36:29Z</time>
      </trkpt>
      <trkpt lat="45.12884" lon="5.80715">
        <ele>545.6</ele>
        <time>2021-05-29T12:36:30Z</time>
      </trkpt>
      <trkpt lat="45.12886" lon="5.80716">
        <ele>545.4</ele>
        <time>2021-05-29T12:36:31Z</time>
      </trkpt>
      <trkpt lat="45.12891" lon="5.80718">
        <ele>545.8</ele>
        <time>2021-05-29T12:36:32Z</time>
      </trkpt>
      <trkpt lat="45.12891" lon="5.80718">
        <ele>545.6</ele>
        <time>2021-05-29T12:36:33Z</time>
      </trkpt>
      <trkpt lat="45.12893" lon="5.80719">
        <ele>546</ele>
        <time>2021-05-29T12:36:34Z</time>
      </trkpt>
      <trkpt lat="45.12895" lon="5.8072">
        <ele>545.8</ele>
        <time>2021-05-29T12:36:35Z</time>
      </trkpt>
      <trkpt lat="45.129" lon="5.80723">
        <ele>545.8</ele>
        <time>2021-05-29T12:36:36Z</time>
      </trkpt>
      <trkpt lat="45.12901" lon="5.80724">
        <ele>545.8</ele>
        <time>2021-05-29T12:36:37Z</time>
      </trkpt>
      <trkpt lat="45.12902" lon="5.80724">
        <ele>546.2</ele>
        <time>2021-05-29T12:36:38Z</time>
      </trkpt>
      <trkpt lat="45.12905" lon="5.80726">
        <ele>546.2</ele>
        <time>2021-05-29T12:36:39Z</time>
      </trkpt>
      <trkpt lat="45.12907" lon="5.80727">
        <ele>546.6</ele>
        <time>2021-05-29T12:36:40Z</time>
      </trkpt>
      <trkpt lat="45.1291" lon="5.80728">
        <ele>546.6</ele>
        <time>2021-05-29T12:36:41Z</time>
      </trkpt>
      <trkpt lat="45.12912" lon="5.80729">
        <ele>546.8</ele>
        <time>2021-05-29T12:36:42Z</time>
      </trkpt>
      <trkpt lat="45.12914" lon="5.8073">
        <ele>546.8</ele>
        <time>2021-05-29T12:36:43Z</time>
      </trkpt>
      <trkpt lat="45.1292" lon="5.80731">
        <ele>547</ele>
        <time>2021-05-29T12:36:44Z</time>
      </trkpt>
      <trkpt lat="45.1292" lon="5.80731">
        <ele>546.6</ele>
        <time>2021-05-29T12:36:45Z</time>
      </trkpt>
      <trkpt lat="45.12921" lon="5.80732">
        <ele>547</ele>
        <time>2021-05-29T12:36:46Z</time>
      </trkpt>
      <trkpt lat="45.12924" lon="5.80733">
        <ele>546.8</ele>
        <time>2021-05-29T12:36:47Z</time>
      </trkpt>
      <trkpt lat="45.12926" lon="5.80734">
        <ele>547</ele>
        <time>2021-05-29T12:36:48Z</time>
      </trkpt>
      <trkpt lat="45.12929" lon="5.80734">
        <ele>546.8</ele>
        <time>2021-05-29T12:36:49Z</time>
      </trkpt>
      <trkpt lat="45.12931" lon="5.80735">
        <ele>547</ele>
        <time>2021-05-29T12:36:50Z</time>
      </trkpt>
      <trkpt lat="45.12934" lon="5.80736">
        <ele>546.6</ele>
        <time>2021-05-29T12:36:51Z</time>
      </trkpt>
      <trkpt lat="45.12936" lon="5.80737">
        <ele>547</ele>
        <time>2021-05-29T12:36:52Z</time>
      </trkpt>
      <trkpt lat="45.12941" lon="5.80739">
        <ele>546.8</ele>
        <time>2021-05-29T12:36:53Z</time>
      </trkpt>
      <trkpt lat="45.12941" lon="5.80739">
        <ele>546.8</ele>
        <time>2021-05-29T12:36:54Z</time>
      </trkpt>
      <trkpt lat="45.12943" lon="5.8074">
        <ele>546.6</ele>
        <time>2021-05-29T12:36:55Z</time>
      </trkpt>
      <trkpt lat="45.12945" lon="5.80742">
        <ele>547</ele>
        <time>2021-05-29T12:36:56Z</time>
      </trkpt>
      <trkpt lat="45.12948" lon="5.80743">
        <ele>546.6</ele>
        <time>2021-05-29T12:36:57Z</time>
      </trkpt>
      <trkpt lat="45.12953" lon="5.80747">
        <ele>546.8</ele>
        <time>2021-05-29T12:36:58Z</time>
      </trkpt>
      <trkpt lat="45.12953" lon="5.80747">
        <ele>546.8</ele>
        <time>2021-05-29T12:36:59Z</time>
      </trkpt>
      <trkpt lat="45.12955" lon="5.80748">
        <ele>547.2</ele>
        <time>2021-05-29T12:37:00Z</time>
      </trkpt>
      <trkpt lat="45.12957" lon="5.8075">
        <ele>547.2</ele>
        <time>2021-05-29T12:37:01Z</time>
      </trkpt>
      <trkpt lat="45.12961" lon="5.80752">
        <ele>547.6</ele>
        <time>2021-05-29T12:37:02Z</time>
      </trkpt>
      <trkpt lat="45.12961" lon="5.80752">
        <ele>547.4</ele>
        <time>2021-05-29T12:37:03Z</time>
      </trkpt>
      <trkpt lat="45.12963" lon="5.80754">
        <ele>547.4</ele>
        <time>2021-05-29T12:37:04Z</time>
      </trkpt>
      <trkpt lat="45.12965" lon="5.80755">
        <ele>547.2</ele>
        <time>2021-05-29T12:37:05Z</time>
      </trkpt>
      <trkpt lat="45.12967" lon="5.80756">
        <ele>547.4</ele>
        <time>2021-05-29T12:37:06Z</time>
      </trkpt>
      <trkpt lat="45.12969" lon="5.80758">
        <ele>547</ele>
        <time>2021-05-29T12:37:07Z</time>
      </trkpt>
      <trkpt lat="45.12974" lon="5.80762">
        <ele>547</ele>
        <time>2021-05-29T12:37:08Z</time>
      </trkpt>
      <trkpt lat="45.12974" lon="5.80762">
        <ele>547</ele>
        <time>2021-05-29T12:37:09Z</time>
      </trkpt>
      <trkpt lat="45.12976" lon="5.80763">
        <ele>547</ele>
        <time>2021-05-29T12:37:10Z</time>
      </trkpt>
      <trkpt lat="45.12978" lon="5.80765">
        <ele>546.8</ele>
        <time>2021-05-29T12:37:11Z</time>
      </trkpt>
      <trkpt lat="45.12982" lon="5.80769">
        <ele>546.8</ele>
        <time>2021-05-29T12:37:12Z</time>
      </trkpt>
      <trkpt lat="45.12983" lon="5.8077">
        <ele>546.8</ele>
        <time>2021-05-29T12:37:13Z</time>
      </trkpt>
      <trkpt lat="45.12984" lon="5.8077">
        <ele>547</ele>
        <time>2021-05-29T12:37:14Z</time>
      </trkpt>
      <trkpt lat="45.12986" lon="5.80771">
        <ele>546.8</ele>
        <time>2021-05-29T12:37:15Z</time>
      </trkpt>
      <trkpt lat="45.12989" lon="5.80774">
        <ele>547</ele>
        <time>2021-05-29T12:37:16Z</time>
      </trkpt>
      <trkpt lat="45.1299" lon="5.80775">
        <ele>547</ele>
        <time>2021-05-29T12:37:17Z</time>
      </trkpt>
      <trkpt lat="45.12992" lon="5.80776">
        <ele>547.2</ele>
        <time>2021-05-29T12:37:18Z</time>
      </trkpt>
      <trkpt lat="45.12993" lon="5.80777">
        <ele>547</ele>
        <time>2021-05-29T12:37:19Z</time>
      </trkpt>
      <trkpt lat="45.12995" lon="5.80778">
        <ele>547</ele>
        <time>2021-05-29T12:37:20Z</time>
      </trkpt>
      <trkpt lat="45.12995" lon="5.80778">
        <ele>546.8</ele>
        <time>2021-05-29T12:37:21Z</time>
      </trkpt>
      <trkpt lat="45.12995" lon="5.80778">
        <ele>547</ele>
        <time>2021-05-29T12:37:22Z</time>
      </trkpt>
      <trkpt lat="45.12997" lon="5.80781">
        <ele>547</ele>
        <time>2021-05-29T12:37:23Z</time>
      </trkpt>
      <trkpt lat="45.12999" lon="5.80783">
        <ele>547.6</ele>
        <time>2021-05-29T12:37:24Z</time>
      </trkpt>
      <trkpt lat="45.13001" lon="5.80785">
        <ele>547.2</ele>
        <time>2021-05-29T12:37:25Z</time>
      </trkpt>
      <trkpt lat="45.13003" lon="5.80787">
        <ele>547.4</ele>
        <time>2021-05-29T12:37:26Z</time>
      </trkpt>
      <trkpt lat="45.13005" lon="5.8079">
        <ele>547.4</ele>
        <time>2021-05-29T12:37:27Z</time>
      </trkpt>
      <trkpt lat="45.13008" lon="5.80792">
        <ele>547.6</ele>
        <time>2021-05-29T12:37:28Z</time>
      </trkpt>
      <trkpt lat="45.13009" lon="5.80793">
        <ele>547.6</ele>
        <time>2021-05-29T12:37:29Z</time>
      </trkpt>
      <trkpt lat="45.13011" lon="5.80794">
        <ele>547.6</ele>
        <time>2021-05-29T12:37:30Z</time>
      </trkpt>
      <trkpt lat="45.13013" lon="5.80796">
        <ele>547.4</ele>
        <time>2021-05-29T12:37:31Z</time>
      </trkpt>
      <trkpt lat="45.13015" lon="5.80797">
        <ele>547.4</ele>
        <time>2021-05-29T12:37:32Z</time>
      </trkpt>
      <trkpt lat="45.13016" lon="5.80799">
        <ele>547.6</ele>
        <time>2021-05-29T12:37:33Z</time>
      </trkpt>
      <trkpt lat="45.13018" lon="5.80801">
        <ele>547.6</ele>
        <time>2021-05-29T12:37:34Z</time>
      </trkpt>
      <trkpt lat="45.1302" lon="5.80803">
        <ele>547.6</ele>
        <time>2021-05-29T12:37:35Z</time>
      </trkpt>
      <trkpt lat="45.13022" lon="5.80804">
        <ele>547.6</ele>
        <time>2021-05-29T12:37:36Z</time>
      </trkpt>
      <trkpt lat="45.13024" lon="5.80806">
        <ele>547.6</ele>
        <time>2021-05-29T12:37:37Z</time>
      </trkpt>
      <trkpt lat="45.13027" lon="5.80808">
        <ele>547.6</ele>
        <time>2021-05-29T12:37:38Z</time>
      </trkpt>
      <trkpt lat="45.13029" lon="5.80809">
        <ele>547.4</ele>
        <time>2021-05-29T12:37:39Z</time>
      </trkpt>
      <trkpt lat="45.1303" lon="5.80811">
        <ele>547.6</ele>
        <time>2021-05-29T12:37:40Z</time>
      </trkpt>
      <trkpt lat="45.13033" lon="5.80813">
        <ele>547.6</ele>
        <time>2021-05-29T12:37:41Z</time>
      </trkpt>
      <trkpt lat="45.13034" lon="5.80815">
        <ele>547.8</ele>
        <time>2021-05-29T12:37:42Z</time>
      </trkpt>
      <trkpt lat="45.13037" lon="5.80817">
        <ele>547.8</ele>
        <time>2021-05-29T12:37:43Z</time>
      </trkpt>
      <trkpt lat="45.13039" lon="5.80819">
        <ele>548</ele>
        <time>2021-05-29T12:37:44Z</time>
      </trkpt>
      <trkpt lat="45.13041" lon="5.80822">
        <ele>548</ele>
        <time>2021-05-29T12:37:45Z</time>
      </trkpt>
      <trkpt lat="45.13045" lon="5.80826">
        <ele>548</ele>
        <time>2021-05-29T12:37:46Z</time>
      </trkpt>
      <trkpt lat="45.13046" lon="5.80828">
        <ele>548.2</ele>
        <time>2021-05-29T12:37:47Z</time>
      </trkpt>
      <trkpt lat="45.13047" lon="5.80829">
        <ele>548.4</ele>
        <time>2021-05-29T12:37:48Z</time>
      </trkpt>
      <trkpt lat="45.13048" lon="5.8083">
        <ele>548.4</ele>
        <time>2021-05-29T12:37:49Z</time>
      </trkpt>
      <trkpt lat="45.13052" lon="5.80835">
        <ele>548.4</ele>
        <time>2021-05-29T12:37:50Z</time>
      </trkpt>
      <trkpt lat="45.13052" lon="5.80835">
        <ele>548.6</ele>
        <time>2021-05-29T12:37:51Z</time>
      </trkpt>
      <trkpt lat="45.13054" lon="5.80839">
        <ele>548.6</ele>
        <time>2021-05-29T12:37:52Z</time>
      </trkpt>
      <trkpt lat="45.13055" lon="5.8084">
        <ele>548.8</ele>
        <time>2021-05-29T12:37:53Z</time>
      </trkpt>
      <trkpt lat="45.13056" lon="5.80842">
        <ele>548.6</ele>
        <time>2021-05-29T12:37:54Z</time>
      </trkpt>
      <trkpt lat="45.13058" lon="5.80846">
        <ele>549.2</ele>
        <time>2021-05-29T12:37:55Z</time>
      </trkpt>
      <trkpt lat="45.13059" lon="5.80849">
        <ele>549.4</ele>
        <time>2021-05-29T12:37:56Z</time>
      </trkpt>
      <trkpt lat="45.13061" lon="5.80853">
        <ele>549.6</ele>
        <time>2021-05-29T12:37:57Z</time>
      </trkpt>
      <trkpt lat="45.13062" lon="5.80854">
        <ele>549.8</ele>
        <time>2021-05-29T12:37:58Z</time>
      </trkpt>
      <trkpt lat="45.13063" lon="5.80856">
        <ele>550</ele>
        <time>2021-05-29T12:37:59Z</time>
      </trkpt>
      <trkpt lat="45.13063" lon="5.80858">
        <ele>550</ele>
        <time>2021-05-29T12:38:00Z</time>
      </trkpt>
      <trkpt lat="45.13065" lon="5.8086">
        <ele>550.4</ele>
        <time>2021-05-29T12:38:01Z</time>
      </trkpt>
      <trkpt lat="45.13066" lon="5.80863">
        <ele>550.6</ele>
        <time>2021-05-29T12:38:02Z</time>
      </trkpt>
      <trkpt lat="45.13067" lon="5.80866">
        <ele>551</ele>
        <time>2021-05-29T12:38:03Z</time>
      </trkpt>
      <trkpt lat="45.13069" lon="5.80868">
        <ele>551.2</ele>
        <time>2021-05-29T12:38:04Z</time>
      </trkpt>
      <trkpt lat="45.13071" lon="5.80872">
        <ele>551.6</ele>
        <time>2021-05-29T12:38:05Z</time>
      </trkpt>
      <trkpt lat="45.13071" lon="5.80873">
        <ele>551.4</ele>
        <time>2021-05-29T12:38:06Z</time>
      </trkpt>
      <trkpt lat="45.13072" lon="5.80878">
        <ele>551.8</ele>
        <time>2021-05-29T12:38:07Z</time>
      </trkpt>
      <trkpt lat="45.13072" lon="5.80878">
        <ele>551.8</ele>
        <time>2021-05-29T12:38:08Z</time>
      </trkpt>
      <trkpt lat="45.13073" lon="5.80881">
        <ele>552.2</ele>
        <time>2021-05-29T12:38:09Z</time>
      </trkpt>
      <trkpt lat="45.13073" lon="5.80881">
        <ele>552.4</ele>
        <time>2021-05-29T12:38:10Z</time>
      </trkpt>
      <trkpt lat="45.13073" lon="5.80881">
        <ele>552.6</ele>
        <time>2021-05-29T12:38:11Z</time>
      </trkpt>
      <trkpt lat="45.13074" lon="5.80883">
        <ele>552.8</ele>
        <time>2021-05-29T12:38:12Z</time>
      </trkpt>
      <trkpt lat="45.13074" lon="5.80885">
        <ele>553.2</ele>
        <time>2021-05-29T12:38:13Z</time>
      </trkpt>
      <trkpt lat="45.13074" lon="5.80888">
        <ele>553.2</ele>
        <time>2021-05-29T12:38:14Z</time>
      </trkpt>
      <trkpt lat="45.13075" lon="5.8089">
        <ele>553.4</ele>
        <time>2021-05-29T12:38:15Z</time>
      </trkpt>
      <trkpt lat="45.13075" lon="5.80892">
        <ele>553.4</ele>
        <time>2021-05-29T12:38:16Z</time>
      </trkpt>
      <trkpt lat="45.13075" lon="5.80895">
        <ele>553.8</ele>
        <time>2021-05-29T12:38:17Z</time>
      </trkpt>
      <trkpt lat="45.13076" lon="5.80896">
        <ele>553.8</ele>
        <time>2021-05-29T12:38:18Z</time>
      </trkpt>
      <trkpt lat="45.13077" lon="5.80898">
        <ele>554.2</ele>
        <time>2021-05-29T12:38:19Z</time>
      </trkpt>
      <trkpt lat="45.13077" lon="5.80899">
        <ele>554</ele>
        <time>2021-05-29T12:38:20Z</time>
      </trkpt>
      <trkpt lat="45.13078" lon="5.80901">
        <ele>554.6</ele>
        <time>2021-05-29T12:38:21Z</time>
      </trkpt>
      <trkpt lat="45.13079" lon="5.80902">
        <ele>554.6</ele>
        <time>2021-05-29T12:38:22Z</time>
      </trkpt>
      <trkpt lat="45.1308" lon="5.80904">
        <ele>555</ele>
        <time>2021-05-29T12:38:23Z</time>
      </trkpt>
      <trkpt lat="45.1308" lon="5.80906">
        <ele>555</ele>
        <time>2021-05-29T12:38:24Z</time>
      </trkpt>
      <trkpt lat="45.13083" lon="5.8091">
        <ele>555.2</ele>
        <time>2021-05-29T12:38:25Z</time>
      </trkpt>
      <trkpt lat="45.13084" lon="5.80912">
        <ele>555.2</ele>
        <time>2021-05-29T12:38:26Z</time>
      </trkpt>
      <trkpt lat="45.13085" lon="5.80913">
        <ele>555.6</ele>
        <time>2021-05-29T12:38:27Z</time>
      </trkpt>
      <trkpt lat="45.13086" lon="5.80915">
        <ele>555.4</ele>
        <time>2021-05-29T12:38:28Z</time>
      </trkpt>
      <trkpt lat="45.13086" lon="5.80915">
        <ele>555.6</ele>
        <time>2021-05-29T12:38:29Z</time>
      </trkpt>
      <trkpt lat="45.13086" lon="5.80915">
        <ele>555.6</ele>
        <time>2021-05-29T12:38:30Z</time>
      </trkpt>
      <trkpt lat="45.13088" lon="5.80917">
        <ele>555.8</ele>
        <time>2021-05-29T12:38:31Z</time>
      </trkpt>
      <trkpt lat="45.13089" lon="5.80919">
        <ele>555.6</ele>
        <time>2021-05-29T12:38:32Z</time>
      </trkpt>
      <trkpt lat="45.1309" lon="5.8092">
        <ele>555.6</ele>
        <time>2021-05-29T12:38:33Z</time>
      </trkpt>
      <trkpt lat="45.13091" lon="5.80922">
        <ele>555.2</ele>
        <time>2021-05-29T12:38:34Z</time>
      </trkpt>
      <trkpt lat="45.13094" lon="5.80926">
        <ele>555.6</ele>
        <time>2021-05-29T12:38:35Z</time>
      </trkpt>
      <trkpt lat="45.13096" lon="5.80929">
        <ele>555.4</ele>
        <time>2021-05-29T12:38:36Z</time>
      </trkpt>
      <trkpt lat="45.13098" lon="5.80933">
        <ele>555.6</ele>
        <time>2021-05-29T12:38:37Z</time>
      </trkpt>
      <trkpt lat="45.131" lon="5.80936">
        <ele>555.4</ele>
        <time>2021-05-29T12:38:38Z</time>
      </trkpt>
      <trkpt lat="45.13102" lon="5.80939">
        <ele>555.4</ele>
        <time>2021-05-29T12:38:39Z</time>
      </trkpt>
      <trkpt lat="45.13103" lon="5.80941">
        <ele>555.4</ele>
        <time>2021-05-29T12:38:40Z</time>
      </trkpt>
      <trkpt lat="45.13105" lon="5.80944">
        <ele>555.6</ele>
        <time>2021-05-29T12:38:41Z</time>
      </trkpt>
      <trkpt lat="45.13106" lon="5.80946">
        <ele>555.6</ele>
        <time>2021-05-29T12:38:42Z</time>
      </trkpt>
      <trkpt lat="45.13107" lon="5.80949">
        <ele>555.8</ele>
        <time>2021-05-29T12:38:43Z</time>
      </trkpt>
      <trkpt lat="45.13108" lon="5.80951">
        <ele>556.2</ele>
        <time>2021-05-29T12:38:44Z</time>
      </trkpt>
      <trkpt lat="45.13108" lon="5.80951">
        <ele>556.2</ele>
        <time>2021-05-29T12:38:45Z</time>
      </trkpt>
      <trkpt lat="45.13108" lon="5.80951">
        <ele>556.4</ele>
        <time>2021-05-29T12:38:46Z</time>
      </trkpt>
      <trkpt lat="45.1311" lon="5.80954">
        <ele>556.6</ele>
        <time>2021-05-29T12:38:47Z</time>
      </trkpt>
      <trkpt lat="45.13112" lon="5.80957">
        <ele>557</ele>
        <time>2021-05-29T12:38:48Z</time>
      </trkpt>
      <trkpt lat="45.13113" lon="5.80959">
        <ele>557.2</ele>
        <time>2021-05-29T12:38:49Z</time>
      </trkpt>
      <trkpt lat="45.13115" lon="5.80962">
        <ele>557.4</ele>
        <time>2021-05-29T12:38:50Z</time>
      </trkpt>
      <trkpt lat="45.13117" lon="5.80965">
        <ele>557.4</ele>
        <time>2021-05-29T12:38:51Z</time>
      </trkpt>
      <trkpt lat="45.13117" lon="5.80965">
        <ele>557.6</ele>
        <time>2021-05-29T12:38:52Z</time>
      </trkpt>
      <trkpt lat="45.13117" lon="5.80965">
        <ele>558.2</ele>
        <time>2021-05-29T12:38:53Z</time>
      </trkpt>
      <trkpt lat="45.13118" lon="5.80966">
        <ele>558.2</ele>
        <time>2021-05-29T12:38:54Z</time>
      </trkpt>
      <trkpt lat="45.13119" lon="5.80968">
        <ele>558</ele>
        <time>2021-05-29T12:38:55Z</time>
      </trkpt>
      <trkpt lat="45.13121" lon="5.80969">
        <ele>558.4</ele>
        <time>2021-05-29T12:38:56Z</time>
      </trkpt>
      <trkpt lat="45.13122" lon="5.8097">
        <ele>558.4</ele>
        <time>2021-05-29T12:38:57Z</time>
      </trkpt>
      <trkpt lat="45.13123" lon="5.80972">
        <ele>558.6</ele>
        <time>2021-05-29T12:38:58Z</time>
      </trkpt>
      <trkpt lat="45.13125" lon="5.80973">
        <ele>558.6</ele>
        <time>2021-05-29T12:38:59Z</time>
      </trkpt>
      <trkpt lat="45.13126" lon="5.80974">
        <ele>558.6</ele>
        <time>2021-05-29T12:39:00Z</time>
      </trkpt>
      <trkpt lat="45.13128" lon="5.80975">
        <ele>558.6</ele>
        <time>2021-05-29T12:39:01Z</time>
      </trkpt>
      <trkpt lat="45.13129" lon="5.80976">
        <ele>559</ele>
        <time>2021-05-29T12:39:02Z</time>
      </trkpt>
      <trkpt lat="45.1313" lon="5.80978">
        <ele>559</ele>
        <time>2021-05-29T12:39:03Z</time>
      </trkpt>
      <trkpt lat="45.13132" lon="5.80979">
        <ele>559</ele>
        <time>2021-05-29T12:39:04Z</time>
      </trkpt>
      <trkpt lat="45.13133" lon="5.8098">
        <ele>559</ele>
        <time>2021-05-29T12:39:05Z</time>
      </trkpt>
      <trkpt lat="45.13136" lon="5.80983">
        <ele>559.4</ele>
        <time>2021-05-29T12:39:06Z</time>
      </trkpt>
      <trkpt lat="45.13138" lon="5.80985">
        <ele>559.4</ele>
        <time>2021-05-29T12:39:07Z</time>
      </trkpt>
      <trkpt lat="45.13139" lon="5.80986">
        <ele>559.6</ele>
        <time>2021-05-29T12:39:08Z</time>
      </trkpt>
      <trkpt lat="45.13141" lon="5.80987">
        <ele>559.4</ele>
        <time>2021-05-29T12:39:09Z</time>
      </trkpt>
      <trkpt lat="45.13142" lon="5.80987">
        <ele>559.8</ele>
        <time>2021-05-29T12:39:10Z</time>
      </trkpt>
      <trkpt lat="45.13142" lon="5.80988">
        <ele>559.8</ele>
        <time>2021-05-29T12:39:11Z</time>
      </trkpt>
      <trkpt lat="45.13145" lon="5.80989">
        <ele>560</ele>
        <time>2021-05-29T12:39:12Z</time>
      </trkpt>
      <trkpt lat="45.13147" lon="5.8099">
        <ele>560</ele>
        <time>2021-05-29T12:39:13Z</time>
      </trkpt>
      <trkpt lat="45.13149" lon="5.80991">
        <ele>560.2</ele>
        <time>2021-05-29T12:39:14Z</time>
      </trkpt>
      <trkpt lat="45.13151" lon="5.80991">
        <ele>560.2</ele>
        <time>2021-05-29T12:39:15Z</time>
      </trkpt>
      <trkpt lat="45.13152" lon="5.80992">
        <ele>560.6</ele>
        <time>2021-05-29T12:39:16Z</time>
      </trkpt>
      <trkpt lat="45.13152" lon="5.80992">
        <ele>560.6</ele>
        <time>2021-05-29T12:39:17Z</time>
      </trkpt>
      <trkpt lat="45.13152" lon="5.80992">
        <ele>560.8</ele>
        <time>2021-05-29T12:39:18Z</time>
      </trkpt>
      <trkpt lat="45.13155" lon="5.80992">
        <ele>560.8</ele>
        <time>2021-05-29T12:39:19Z</time>
      </trkpt>
      <trkpt lat="45.13158" lon="5.80993">
        <ele>561</ele>
        <time>2021-05-29T12:39:20Z</time>
      </trkpt>
      <trkpt lat="45.13161" lon="5.80994">
        <ele>561</ele>
        <time>2021-05-29T12:39:21Z</time>
      </trkpt>
      <trkpt lat="45.13164" lon="5.80995">
        <ele>561.2</ele>
        <time>2021-05-29T12:39:22Z</time>
      </trkpt>
      <trkpt lat="45.13167" lon="5.80996">
        <ele>561</ele>
        <time>2021-05-29T12:39:23Z</time>
      </trkpt>
      <trkpt lat="45.13169" lon="5.80996">
        <ele>561.4</ele>
        <time>2021-05-29T12:39:24Z</time>
      </trkpt>
      <trkpt lat="45.13174" lon="5.80997">
        <ele>561.4</ele>
        <time>2021-05-29T12:39:25Z</time>
      </trkpt>
      <trkpt lat="45.13174" lon="5.80997">
        <ele>561.8</ele>
        <time>2021-05-29T12:39:26Z</time>
      </trkpt>
      <trkpt lat="45.13176" lon="5.80997">
        <ele>562</ele>
        <time>2021-05-29T12:39:27Z</time>
      </trkpt>
      <trkpt lat="45.13178" lon="5.80997">
        <ele>562.4</ele>
        <time>2021-05-29T12:39:28Z</time>
      </trkpt>
      <trkpt lat="45.13181" lon="5.80997">
        <ele>562.2</ele>
        <time>2021-05-29T12:39:29Z</time>
      </trkpt>
      <trkpt lat="45.13183" lon="5.80997">
        <ele>562.6</ele>
        <time>2021-05-29T12:39:30Z</time>
      </trkpt>
      <trkpt lat="45.13186" lon="5.80998">
        <ele>562.4</ele>
        <time>2021-05-29T12:39:31Z</time>
      </trkpt>
      <trkpt lat="45.1319" lon="5.80999">
        <ele>562.6</ele>
        <time>2021-05-29T12:39:32Z</time>
      </trkpt>
      <trkpt lat="45.13191" lon="5.80999">
        <ele>562.6</ele>
        <time>2021-05-29T12:39:33Z</time>
      </trkpt>
      <trkpt lat="45.13192" lon="5.80999">
        <ele>562.6</ele>
        <time>2021-05-29T12:39:34Z</time>
      </trkpt>
      <trkpt lat="45.13194" lon="5.80999">
        <ele>562.4</ele>
        <time>2021-05-29T12:39:35Z</time>
      </trkpt>
      <trkpt lat="45.13196" lon="5.81">
        <ele>562.4</ele>
        <time>2021-05-29T12:39:36Z</time>
      </trkpt>
      <trkpt lat="45.13198" lon="5.81">
        <ele>562.4</ele>
        <time>2021-05-29T12:39:37Z</time>
      </trkpt>
      <trkpt lat="45.13198" lon="5.81">
        <ele>562.4</ele>
        <time>2021-05-29T12:39:38Z</time>
      </trkpt>
      <trkpt lat="45.13198" lon="5.81">
        <ele>562.6</ele>
        <time>2021-05-29T12:39:39Z</time>
      </trkpt>
      <trkpt lat="45.132" lon="5.81001">
        <ele>562.8</ele>
        <time>2021-05-29T12:39:40Z</time>
      </trkpt>
      <trkpt lat="45.13203" lon="5.81003">
        <ele>563</ele>
        <time>2021-05-29T12:39:41Z</time>
      </trkpt>
      <trkpt lat="45.13206" lon="5.81004">
        <ele>563</ele>
        <time>2021-05-29T12:39:42Z</time>
      </trkpt>
      <trkpt lat="45.13208" lon="5.81005">
        <ele>563.2</ele>
        <time>2021-05-29T12:39:43Z</time>
      </trkpt>
      <trkpt lat="45.13211" lon="5.81006">
        <ele>563.2</ele>
        <time>2021-05-29T12:39:44Z</time>
      </trkpt>
      <trkpt lat="45.13213" lon="5.81007">
        <ele>563.4</ele>
        <time>2021-05-29T12:39:45Z</time>
      </trkpt>
      <trkpt lat="45.13215" lon="5.81009">
        <ele>563.6</ele>
        <time>2021-05-29T12:39:46Z</time>
      </trkpt>
      <trkpt lat="45.13219" lon="5.8101">
        <ele>563.8</ele>
        <time>2021-05-29T12:39:47Z</time>
      </trkpt>
      <trkpt lat="45.1322" lon="5.81011">
        <ele>564</ele>
        <time>2021-05-29T12:39:48Z</time>
      </trkpt>
      <trkpt lat="45.13222" lon="5.81012">
        <ele>564</ele>
        <time>2021-05-29T12:39:49Z</time>
      </trkpt>
      <trkpt lat="45.13224" lon="5.81013">
        <ele>564.2</ele>
        <time>2021-05-29T12:39:50Z</time>
      </trkpt>
      <trkpt lat="45.13226" lon="5.81014">
        <ele>564.4</ele>
        <time>2021-05-29T12:39:51Z</time>
      </trkpt>
      <trkpt lat="45.13228" lon="5.81015">
        <ele>565</ele>
        <time>2021-05-29T12:39:52Z</time>
      </trkpt>
      <trkpt lat="45.1323" lon="5.81016">
        <ele>565.2</ele>
        <time>2021-05-29T12:39:53Z</time>
      </trkpt>
      <trkpt lat="45.13233" lon="5.81019">
        <ele>565.8</ele>
        <time>2021-05-29T12:39:54Z</time>
      </trkpt>
      <trkpt lat="45.13233" lon="5.81019">
        <ele>566</ele>
        <time>2021-05-29T12:39:55Z</time>
      </trkpt>
      <trkpt lat="45.13235" lon="5.8102">
        <ele>566.2</ele>
        <time>2021-05-29T12:39:56Z</time>
      </trkpt>
      <trkpt lat="45.13237" lon="5.81022">
        <ele>566.2</ele>
        <time>2021-05-29T12:39:57Z</time>
      </trkpt>
      <trkpt lat="45.13238" lon="5.81024">
        <ele>566.6</ele>
        <time>2021-05-29T12:39:58Z</time>
      </trkpt>
      <trkpt lat="45.1324" lon="5.81026">
        <ele>566.6</ele>
        <time>2021-05-29T12:39:59Z</time>
      </trkpt>
      <trkpt lat="45.13242" lon="5.81027">
        <ele>567</ele>
        <time>2021-05-29T12:40:00Z</time>
      </trkpt>
      <trkpt lat="45.13244" lon="5.81028">
        <ele>567.2</ele>
        <time>2021-05-29T12:40:01Z</time>
      </trkpt>
      <trkpt lat="45.13245" lon="5.8103">
        <ele>567.4</ele>
        <time>2021-05-29T12:40:02Z</time>
      </trkpt>
      <trkpt lat="45.13247" lon="5.81031">
        <ele>567.4</ele>
        <time>2021-05-29T12:40:03Z</time>
      </trkpt>
      <trkpt lat="45.13247" lon="5.81031">
        <ele>568</ele>
        <time>2021-05-29T12:40:04Z</time>
      </trkpt>
      <trkpt lat="45.13249" lon="5.81035">
        <ele>568.2</ele>
        <time>2021-05-29T12:40:05Z</time>
      </trkpt>
      <trkpt lat="45.1325" lon="5.81037">
        <ele>568.6</ele>
        <time>2021-05-29T12:40:06Z</time>
      </trkpt>
      <trkpt lat="45.13252" lon="5.81039">
        <ele>568.8</ele>
        <time>2021-05-29T12:40:07Z</time>
      </trkpt>
      <trkpt lat="45.13254" lon="5.81043">
        <ele>569</ele>
        <time>2021-05-29T12:40:08Z</time>
      </trkpt>
      <trkpt lat="45.13254" lon="5.81044">
        <ele>569.2</ele>
        <time>2021-05-29T12:40:09Z</time>
      </trkpt>
      <trkpt lat="45.13256" lon="5.81046">
        <ele>569.4</ele>
        <time>2021-05-29T12:40:10Z</time>
      </trkpt>
      <trkpt lat="45.13257" lon="5.81049">
        <ele>569.4</ele>
        <time>2021-05-29T12:40:11Z</time>
      </trkpt>
      <trkpt lat="45.13259" lon="5.81052">
        <ele>569.6</ele>
        <time>2021-05-29T12:40:12Z</time>
      </trkpt>
      <trkpt lat="45.13261" lon="5.81056">
        <ele>569.4</ele>
        <time>2021-05-29T12:40:13Z</time>
      </trkpt>
      <trkpt lat="45.13262" lon="5.81059">
        <ele>569.6</ele>
        <time>2021-05-29T12:40:14Z</time>
      </trkpt>
      <trkpt lat="45.13264" lon="5.8106">
        <ele>569.6</ele>
        <time>2021-05-29T12:40:15Z</time>
      </trkpt>
      <trkpt lat="45.13265" lon="5.81062">
        <ele>570</ele>
        <time>2021-05-29T12:40:16Z</time>
      </trkpt>
      <trkpt lat="45.13266" lon="5.81063">
        <ele>570</ele>
        <time>2021-05-29T12:40:17Z</time>
      </trkpt>
      <trkpt lat="45.13267" lon="5.81064">
        <ele>570.2</ele>
        <time>2021-05-29T12:40:18Z</time>
      </trkpt>
      <trkpt lat="45.13268" lon="5.81067">
        <ele>570.2</ele>
        <time>2021-05-29T12:40:19Z</time>
      </trkpt>
      <trkpt lat="45.1327" lon="5.81068">
        <ele>570.8</ele>
        <time>2021-05-29T12:40:20Z</time>
      </trkpt>
      <trkpt lat="45.13271" lon="5.8107">
        <ele>570.6</ele>
        <time>2021-05-29T12:40:21Z</time>
      </trkpt>
      <trkpt lat="45.13273" lon="5.81072">
        <ele>570.6</ele>
        <time>2021-05-29T12:40:22Z</time>
      </trkpt>
      <trkpt lat="45.13275" lon="5.81073">
        <ele>571.2</ele>
        <time>2021-05-29T12:40:23Z</time>
      </trkpt>
      <trkpt lat="45.13276" lon="5.81075">
        <ele>571.6</ele>
        <time>2021-05-29T12:40:24Z</time>
      </trkpt>
      <trkpt lat="45.13278" lon="5.81077">
        <ele>571.4</ele>
        <time>2021-05-29T12:40:25Z</time>
      </trkpt>
      <trkpt lat="45.13279" lon="5.81078">
        <ele>571.8</ele>
        <time>2021-05-29T12:40:26Z</time>
      </trkpt>
      <trkpt lat="45.13282" lon="5.81081">
        <ele>572</ele>
        <time>2021-05-29T12:40:27Z</time>
      </trkpt>
      <trkpt lat="45.13282" lon="5.81081">
        <ele>572.4</ele>
        <time>2021-05-29T12:40:28Z</time>
      </trkpt>
      <trkpt lat="45.13284" lon="5.81084">
        <ele>572.6</ele>
        <time>2021-05-29T12:40:29Z</time>
      </trkpt>
      <trkpt lat="45.13286" lon="5.81085">
        <ele>573</ele>
        <time>2021-05-29T12:40:30Z</time>
      </trkpt>
      <trkpt lat="45.13287" lon="5.81087">
        <ele>573.2</ele>
        <time>2021-05-29T12:40:31Z</time>
      </trkpt>
      <trkpt lat="45.13288" lon="5.81088">
        <ele>573.6</ele>
        <time>2021-05-29T12:40:32Z</time>
      </trkpt>
      <trkpt lat="45.13288" lon="5.81088">
        <ele>573.8</ele>
        <time>2021-05-29T12:40:33Z</time>
      </trkpt>
      <trkpt lat="45.13291" lon="5.81092">
        <ele>574.2</ele>
        <time>2021-05-29T12:40:34Z</time>
      </trkpt>
      <trkpt lat="45.13291" lon="5.81092">
        <ele>574.4</ele>
        <time>2021-05-29T12:40:35Z</time>
      </trkpt>
      <trkpt lat="45.13292" lon="5.81093">
        <ele>575</ele>
        <time>2021-05-29T12:40:36Z</time>
      </trkpt>
      <trkpt lat="45.13295" lon="5.81096">
        <ele>575</ele>
        <time>2021-05-29T12:40:37Z</time>
      </trkpt>
      <trkpt lat="45.13297" lon="5.81098">
        <ele>575.2</ele>
        <time>2021-05-29T12:40:38Z</time>
      </trkpt>
      <trkpt lat="45.13297" lon="5.81098">
        <ele>575.2</ele>
        <time>2021-05-29T12:40:39Z</time>
      </trkpt>
      <trkpt lat="45.13299" lon="5.811">
        <ele>575.4</ele>
        <time>2021-05-29T12:40:40Z</time>
      </trkpt>
      <trkpt lat="45.13301" lon="5.81102">
        <ele>575.2</ele>
        <time>2021-05-29T12:40:41Z</time>
      </trkpt>
      <trkpt lat="45.13302" lon="5.81105">
        <ele>575.8</ele>
        <time>2021-05-29T12:40:42Z</time>
      </trkpt>
      <trkpt lat="45.13305" lon="5.81108">
        <ele>575.8</ele>
        <time>2021-05-29T12:40:43Z</time>
      </trkpt>
      <trkpt lat="45.13306" lon="5.81109">
        <ele>576</ele>
        <time>2021-05-29T12:40:44Z</time>
      </trkpt>
      <trkpt lat="45.13306" lon="5.81109">
        <ele>576</ele>
        <time>2021-05-29T12:40:45Z</time>
      </trkpt>
      <trkpt lat="45.13306" lon="5.81109">
        <ele>576.4</ele>
        <time>2021-05-29T12:40:46Z</time>
      </trkpt>
      <trkpt lat="45.13307" lon="5.81111">
        <ele>576.4</ele>
        <time>2021-05-29T12:40:47Z</time>
      </trkpt>
      <trkpt lat="45.13309" lon="5.81113">
        <ele>576.4</ele>
        <time>2021-05-29T12:40:48Z</time>
      </trkpt>
      <trkpt lat="45.13311" lon="5.81115">
        <ele>576.6</ele>
        <time>2021-05-29T12:40:49Z</time>
      </trkpt>
      <trkpt lat="45.13312" lon="5.81117">
        <ele>577</ele>
        <time>2021-05-29T12:40:50Z</time>
      </trkpt>
      <trkpt lat="45.13314" lon="5.81119">
        <ele>577</ele>
        <time>2021-05-29T12:40:51Z</time>
      </trkpt>
      <trkpt lat="45.13317" lon="5.81122">
        <ele>577.2</ele>
        <time>2021-05-29T12:40:52Z</time>
      </trkpt>
      <trkpt lat="45.13319" lon="5.81124">
        <ele>577.4</ele>
        <time>2021-05-29T12:40:53Z</time>
      </trkpt>
      <trkpt lat="45.1332" lon="5.81126">
        <ele>577.6</ele>
        <time>2021-05-29T12:40:54Z</time>
      </trkpt>
      <trkpt lat="45.13322" lon="5.81127">
        <ele>577.4</ele>
        <time>2021-05-29T12:40:55Z</time>
      </trkpt>
      <trkpt lat="45.13323" lon="5.81129">
        <ele>577.4</ele>
        <time>2021-05-29T12:40:56Z</time>
      </trkpt>
      <trkpt lat="45.13323" lon="5.81129">
        <ele>577.2</ele>
        <time>2021-05-29T12:40:57Z</time>
      </trkpt>
      <trkpt lat="45.13323" lon="5.81129">
        <ele>577</ele>
        <time>2021-05-29T12:40:58Z</time>
      </trkpt>
      <trkpt lat="45.13325" lon="5.81131">
        <ele>577</ele>
        <time>2021-05-29T12:40:59Z</time>
      </trkpt>
      <trkpt lat="45.13327" lon="5.81132">
        <ele>577.2</ele>
        <time>2021-05-29T12:41:00Z</time>
      </trkpt>
      <trkpt lat="45.13328" lon="5.81134">
        <ele>577.6</ele>
        <time>2021-05-29T12:41:01Z</time>
      </trkpt>
      <trkpt lat="45.1333" lon="5.81135">
        <ele>577.8</ele>
        <time>2021-05-29T12:41:02Z</time>
      </trkpt>
      <trkpt lat="45.13332" lon="5.81136">
        <ele>578.2</ele>
        <time>2021-05-29T12:41:03Z</time>
      </trkpt>
      <trkpt lat="45.1334" lon="5.81141">
        <ele>578.8</ele>
        <time>2021-05-29T12:41:04Z</time>
      </trkpt>
      <trkpt lat="45.1334" lon="5.81141">
        <ele>579.4</ele>
        <time>2021-05-29T12:41:05Z</time>
      </trkpt>
      <trkpt lat="45.1334" lon="5.81141">
        <ele>579.8</ele>
        <time>2021-05-29T12:41:06Z</time>
      </trkpt>
      <trkpt lat="45.13342" lon="5.81142">
        <ele>580.4</ele>
        <time>2021-05-29T12:41:07Z</time>
      </trkpt>
      <trkpt lat="45.13343" lon="5.81143">
        <ele>580.4</ele>
        <time>2021-05-29T12:41:08Z</time>
      </trkpt>
      <trkpt lat="45.13345" lon="5.81145">
        <ele>581</ele>
        <time>2021-05-29T12:41:09Z</time>
      </trkpt>
      <trkpt lat="45.13346" lon="5.81146">
        <ele>581.2</ele>
        <time>2021-05-29T12:41:10Z</time>
      </trkpt>
      <trkpt lat="45.13348" lon="5.81147">
        <ele>581.8</ele>
        <time>2021-05-29T12:41:11Z</time>
      </trkpt>
      <trkpt lat="45.13349" lon="5.81148">
        <ele>581.8</ele>
        <time>2021-05-29T12:41:12Z</time>
      </trkpt>
      <trkpt lat="45.13351" lon="5.8115">
        <ele>582</ele>
        <time>2021-05-29T12:41:13Z</time>
      </trkpt>
      <trkpt lat="45.13352" lon="5.81152">
        <ele>582.2</ele>
        <time>2021-05-29T12:41:14Z</time>
      </trkpt>
      <trkpt lat="45.13354" lon="5.81154">
        <ele>582.4</ele>
        <time>2021-05-29T12:41:15Z</time>
      </trkpt>
      <trkpt lat="45.13356" lon="5.81155">
        <ele>582.4</ele>
        <time>2021-05-29T12:41:16Z</time>
      </trkpt>
      <trkpt lat="45.13357" lon="5.81157">
        <ele>582.8</ele>
        <time>2021-05-29T12:41:17Z</time>
      </trkpt>
      <trkpt lat="45.13359" lon="5.81159">
        <ele>583.2</ele>
        <time>2021-05-29T12:41:18Z</time>
      </trkpt>
      <trkpt lat="45.1336" lon="5.8116">
        <ele>583.6</ele>
        <time>2021-05-29T12:41:19Z</time>
      </trkpt>
      <trkpt lat="45.13362" lon="5.81162">
        <ele>583.2</ele>
        <time>2021-05-29T12:41:20Z</time>
      </trkpt>
      <trkpt lat="45.13364" lon="5.81163">
        <ele>583.6</ele>
        <time>2021-05-29T12:41:21Z</time>
      </trkpt>
      <trkpt lat="45.13365" lon="5.81165">
        <ele>583.6</ele>
        <time>2021-05-29T12:41:22Z</time>
      </trkpt>
      <trkpt lat="45.1337" lon="5.8117">
        <ele>584.2</ele>
        <time>2021-05-29T12:41:23Z</time>
      </trkpt>
      <trkpt lat="45.13372" lon="5.81171">
        <ele>584.2</ele>
        <time>2021-05-29T12:41:24Z</time>
      </trkpt>
      <trkpt lat="45.13374" lon="5.81172">
        <ele>584.6</ele>
        <time>2021-05-29T12:41:25Z</time>
      </trkpt>
      <trkpt lat="45.13375" lon="5.81174">
        <ele>584.6</ele>
        <time>2021-05-29T12:41:26Z</time>
      </trkpt>
      <trkpt lat="45.13377" lon="5.81175">
        <ele>585.2</ele>
        <time>2021-05-29T12:41:27Z</time>
      </trkpt>
      <trkpt lat="45.13379" lon="5.81176">
        <ele>585.2</ele>
        <time>2021-05-29T12:41:28Z</time>
      </trkpt>
      <trkpt lat="45.13381" lon="5.81178">
        <ele>585.4</ele>
        <time>2021-05-29T12:41:29Z</time>
      </trkpt>
      <trkpt lat="45.13382" lon="5.81179">
        <ele>585.6</ele>
        <time>2021-05-29T12:41:30Z</time>
      </trkpt>
      <trkpt lat="45.13384" lon="5.8118">
        <ele>586</ele>
        <time>2021-05-29T12:41:31Z</time>
      </trkpt>
      <trkpt lat="45.13386" lon="5.81182">
        <ele>586</ele>
        <time>2021-05-29T12:41:32Z</time>
      </trkpt>
      <trkpt lat="45.13387" lon="5.81184">
        <ele>586.4</ele>
        <time>2021-05-29T12:41:33Z</time>
      </trkpt>
      <trkpt lat="45.13389" lon="5.81185">
        <ele>586.6</ele>
        <time>2021-05-29T12:41:34Z</time>
      </trkpt>
      <trkpt lat="45.1339" lon="5.81186">
        <ele>587</ele>
        <time>2021-05-29T12:41:35Z</time>
      </trkpt>
      <trkpt lat="45.13391" lon="5.81187">
        <ele>587</ele>
        <time>2021-05-29T12:41:36Z</time>
      </trkpt>
      <trkpt lat="45.13392" lon="5.81188">
        <ele>587.2</ele>
        <time>2021-05-29T12:41:37Z</time>
      </trkpt>
      <trkpt lat="45.13393" lon="5.81189">
        <ele>587.4</ele>
        <time>2021-05-29T12:41:38Z</time>
      </trkpt>
      <trkpt lat="45.13394" lon="5.81191">
        <ele>587.6</ele>
        <time>2021-05-29T12:41:39Z</time>
      </trkpt>
      <trkpt lat="45.13397" lon="5.81194">
        <ele>587.8</ele>
        <time>2021-05-29T12:41:40Z</time>
      </trkpt>
      <trkpt lat="45.134" lon="5.81198">
        <ele>588</ele>
        <time>2021-05-29T12:41:41Z</time>
      </trkpt>
      <trkpt lat="45.13402" lon="5.81201">
        <ele>588</ele>
        <time>2021-05-29T12:41:42Z</time>
      </trkpt>
      <trkpt lat="45.13404" lon="5.81204">
        <ele>588.2</ele>
        <time>2021-05-29T12:41:43Z</time>
      </trkpt>
      <trkpt lat="45.13407" lon="5.81208">
        <ele>588.2</ele>
        <time>2021-05-29T12:41:44Z</time>
      </trkpt>
      <trkpt lat="45.13409" lon="5.8121">
        <ele>588.4</ele>
        <time>2021-05-29T12:41:45Z</time>
      </trkpt>
      <trkpt lat="45.1341" lon="5.81212">
        <ele>588.4</ele>
        <time>2021-05-29T12:41:46Z</time>
      </trkpt>
      <trkpt lat="45.13411" lon="5.81214">
        <ele>588.8</ele>
        <time>2021-05-29T12:41:47Z</time>
      </trkpt>
      <trkpt lat="45.13412" lon="5.81215">
        <ele>588.6</ele>
        <time>2021-05-29T12:41:48Z</time>
      </trkpt>
      <trkpt lat="45.13413" lon="5.81216">
        <ele>589</ele>
        <time>2021-05-29T12:41:49Z</time>
      </trkpt>
      <trkpt lat="45.13414" lon="5.81219">
        <ele>589</ele>
        <time>2021-05-29T12:41:50Z</time>
      </trkpt>
      <trkpt lat="45.13417" lon="5.81224">
        <ele>589.4</ele>
        <time>2021-05-29T12:41:51Z</time>
      </trkpt>
      <trkpt lat="45.13418" lon="5.81226">
        <ele>589.4</ele>
        <time>2021-05-29T12:41:52Z</time>
      </trkpt>
      <trkpt lat="45.13419" lon="5.81228">
        <ele>589.8</ele>
        <time>2021-05-29T12:41:53Z</time>
      </trkpt>
      <trkpt lat="45.13419" lon="5.81228">
        <ele>589.6</ele>
        <time>2021-05-29T12:41:54Z</time>
      </trkpt>
      <trkpt lat="45.1342" lon="5.8123">
        <ele>590.2</ele>
        <time>2021-05-29T12:41:55Z</time>
      </trkpt>
      <trkpt lat="45.13421" lon="5.81232">
        <ele>590.2</ele>
        <time>2021-05-29T12:41:56Z</time>
      </trkpt>
      <trkpt lat="45.13422" lon="5.81234">
        <ele>590</ele>
        <time>2021-05-29T12:41:57Z</time>
      </trkpt>
      <trkpt lat="45.13423" lon="5.81237">
        <ele>590</ele>
        <time>2021-05-29T12:41:58Z</time>
      </trkpt>
      <trkpt lat="45.13425" lon="5.81239">
        <ele>590.4</ele>
        <time>2021-05-29T12:41:59Z</time>
      </trkpt>
      <trkpt lat="45.13426" lon="5.81241">
        <ele>590.6</ele>
        <time>2021-05-29T12:42:00Z</time>
      </trkpt>
      <trkpt lat="45.13427" lon="5.81243">
        <ele>591</ele>
        <time>2021-05-29T12:42:01Z</time>
      </trkpt>
      <trkpt lat="45.13429" lon="5.81245">
        <ele>590.8</ele>
        <time>2021-05-29T12:42:02Z</time>
      </trkpt>
      <trkpt lat="45.1343" lon="5.81247">
        <ele>591.4</ele>
        <time>2021-05-29T12:42:03Z</time>
      </trkpt>
      <trkpt lat="45.13431" lon="5.81249">
        <ele>591.2</ele>
        <time>2021-05-29T12:42:04Z</time>
      </trkpt>
      <trkpt lat="45.13431" lon="5.81249">
        <ele>591.6</ele>
        <time>2021-05-29T12:42:05Z</time>
      </trkpt>
      <trkpt lat="45.13433" lon="5.81252">
        <ele>591.4</ele>
        <time>2021-05-29T12:42:06Z</time>
      </trkpt>
      <trkpt lat="45.13433" lon="5.81252">
        <ele>591.8</ele>
        <time>2021-05-29T12:42:07Z</time>
      </trkpt>
      <trkpt lat="45.13435" lon="5.81256">
        <ele>591.8</ele>
        <time>2021-05-29T12:42:08Z</time>
      </trkpt>
      <trkpt lat="45.13435" lon="5.81256">
        <ele>592</ele>
        <time>2021-05-29T12:42:09Z</time>
      </trkpt>
      <trkpt lat="45.13437" lon="5.81261">
        <ele>592</ele>
        <time>2021-05-29T12:42:10Z</time>
      </trkpt>
      <trkpt lat="45.13437" lon="5.81261">
        <ele>592.2</ele>
        <time>2021-05-29T12:42:11Z</time>
      </trkpt>
      <trkpt lat="45.13439" lon="5.81265">
        <ele>592.4</ele>
        <time>2021-05-29T12:42:12Z</time>
      </trkpt>
      <trkpt lat="45.13442" lon="5.81267">
        <ele>592.4</ele>
        <time>2021-05-29T12:42:13Z</time>
      </trkpt>
      <trkpt lat="45.13443" lon="5.81269">
        <ele>592.6</ele>
        <time>2021-05-29T12:42:14Z</time>
      </trkpt>
      <trkpt lat="45.13445" lon="5.81271">
        <ele>592.8</ele>
        <time>2021-05-29T12:42:15Z</time>
      </trkpt>
      <trkpt lat="45.13446" lon="5.81272">
        <ele>593</ele>
        <time>2021-05-29T12:42:16Z</time>
      </trkpt>
      <trkpt lat="45.13447" lon="5.81274">
        <ele>593.4</ele>
        <time>2021-05-29T12:42:17Z</time>
      </trkpt>
      <trkpt lat="45.13449" lon="5.81276">
        <ele>593.2</ele>
        <time>2021-05-29T12:42:18Z</time>
      </trkpt>
      <trkpt lat="45.1345" lon="5.81277">
        <ele>593.4</ele>
        <time>2021-05-29T12:42:19Z</time>
      </trkpt>
      <trkpt lat="45.13452" lon="5.81279">
        <ele>593.6</ele>
        <time>2021-05-29T12:42:20Z</time>
      </trkpt>
      <trkpt lat="45.13452" lon="5.81279">
        <ele>594</ele>
        <time>2021-05-29T12:42:21Z</time>
      </trkpt>
      <trkpt lat="45.13454" lon="5.81282">
        <ele>594.2</ele>
        <time>2021-05-29T12:42:22Z</time>
      </trkpt>
      <trkpt lat="45.13456" lon="5.81283">
        <ele>594.6</ele>
        <time>2021-05-29T12:42:23Z</time>
      </trkpt>
      <trkpt lat="45.13458" lon="5.81285">
        <ele>594.6</ele>
        <time>2021-05-29T12:42:24Z</time>
      </trkpt>
      <trkpt lat="45.1346" lon="5.81287">
        <ele>595</ele>
        <time>2021-05-29T12:42:25Z</time>
      </trkpt>
      <trkpt lat="45.13461" lon="5.81288">
        <ele>594.8</ele>
        <time>2021-05-29T12:42:26Z</time>
      </trkpt>
      <trkpt lat="45.13464" lon="5.8129">
        <ele>594.8</ele>
        <time>2021-05-29T12:42:27Z</time>
      </trkpt>
      <trkpt lat="45.13465" lon="5.81292">
        <ele>594.8</ele>
        <time>2021-05-29T12:42:28Z</time>
      </trkpt>
      <trkpt lat="45.13467" lon="5.81294">
        <ele>594.6</ele>
        <time>2021-05-29T12:42:29Z</time>
      </trkpt>
      <trkpt lat="45.1347" lon="5.81296">
        <ele>594</ele>
        <time>2021-05-29T12:42:30Z</time>
      </trkpt>
      <trkpt lat="45.13473" lon="5.81299">
        <ele>593.6</ele>
        <time>2021-05-29T12:42:31Z</time>
      </trkpt>
      <trkpt lat="45.13474" lon="5.813">
        <ele>593.6</ele>
        <time>2021-05-29T12:42:32Z</time>
      </trkpt>
      <trkpt lat="45.13475" lon="5.81301">
        <ele>593.2</ele>
        <time>2021-05-29T12:42:33Z</time>
      </trkpt>
      <trkpt lat="45.13477" lon="5.81302">
        <ele>593.4</ele>
        <time>2021-05-29T12:42:34Z</time>
      </trkpt>
      <trkpt lat="45.1348" lon="5.81304">
        <ele>593.2</ele>
        <time>2021-05-29T12:42:35Z</time>
      </trkpt>
      <trkpt lat="45.13482" lon="5.81305">
        <ele>593.4</ele>
        <time>2021-05-29T12:42:36Z</time>
      </trkpt>
      <trkpt lat="45.13484" lon="5.81307">
        <ele>593.2</ele>
        <time>2021-05-29T12:42:37Z</time>
      </trkpt>
      <trkpt lat="45.13487" lon="5.81309">
        <ele>593.4</ele>
        <time>2021-05-29T12:42:38Z</time>
      </trkpt>
      <trkpt lat="45.13489" lon="5.8131">
        <ele>593.2</ele>
        <time>2021-05-29T12:42:39Z</time>
      </trkpt>
      <trkpt lat="45.13491" lon="5.81312">
        <ele>593.4</ele>
        <time>2021-05-29T12:42:40Z</time>
      </trkpt>
      <trkpt lat="45.13496" lon="5.81316">
        <ele>593.2</ele>
        <time>2021-05-29T12:42:41Z</time>
      </trkpt>
      <trkpt lat="45.13498" lon="5.81319">
        <ele>593.2</ele>
        <time>2021-05-29T12:42:42Z</time>
      </trkpt>
      <trkpt lat="45.135" lon="5.81321">
        <ele>593</ele>
        <time>2021-05-29T12:42:43Z</time>
      </trkpt>
      <trkpt lat="45.135" lon="5.81321">
        <ele>593</ele>
        <time>2021-05-29T12:42:44Z</time>
      </trkpt>
      <trkpt lat="45.13502" lon="5.81323">
        <ele>592.8</ele>
        <time>2021-05-29T12:42:45Z</time>
      </trkpt>
      <trkpt lat="45.13502" lon="5.81323">
        <ele>592.8</ele>
        <time>2021-05-29T12:42:46Z</time>
      </trkpt>
      <trkpt lat="45.13502" lon="5.81323">
        <ele>592.6</ele>
        <time>2021-05-29T12:42:47Z</time>
      </trkpt>
      <trkpt lat="45.13504" lon="5.81326">
        <ele>592.8</ele>
        <time>2021-05-29T12:42:48Z</time>
      </trkpt>
      <trkpt lat="45.13507" lon="5.8133">
        <ele>592.6</ele>
        <time>2021-05-29T12:42:49Z</time>
      </trkpt>
      <trkpt lat="45.1351" lon="5.81333">
        <ele>593</ele>
        <time>2021-05-29T12:42:50Z</time>
      </trkpt>
      <trkpt lat="45.13512" lon="5.81336">
        <ele>592.6</ele>
        <time>2021-05-29T12:42:51Z</time>
      </trkpt>
      <trkpt lat="45.13515" lon="5.81338">
        <ele>592.4</ele>
        <time>2021-05-29T12:42:52Z</time>
      </trkpt>
      <trkpt lat="45.13517" lon="5.8134">
        <ele>592.2</ele>
        <time>2021-05-29T12:42:53Z</time>
      </trkpt>
      <trkpt lat="45.13519" lon="5.81342">
        <ele>592.6</ele>
        <time>2021-05-29T12:42:54Z</time>
      </trkpt>
      <trkpt lat="45.13521" lon="5.81345">
        <ele>592.4</ele>
        <time>2021-05-29T12:42:55Z</time>
      </trkpt>
      <trkpt lat="45.13523" lon="5.81347">
        <ele>592.6</ele>
        <time>2021-05-29T12:42:56Z</time>
      </trkpt>
      <trkpt lat="45.13525" lon="5.81349">
        <ele>592</ele>
        <time>2021-05-29T12:42:57Z</time>
      </trkpt>
      <trkpt lat="45.13527" lon="5.81351">
        <ele>592</ele>
        <time>2021-05-29T12:42:58Z</time>
      </trkpt>
      <trkpt lat="45.13529" lon="5.81353">
        <ele>591.8</ele>
        <time>2021-05-29T12:42:59Z</time>
      </trkpt>
      <trkpt lat="45.13532" lon="5.81356">
        <ele>591.8</ele>
        <time>2021-05-29T12:43:00Z</time>
      </trkpt>
      <trkpt lat="45.13534" lon="5.81358">
        <ele>591.8</ele>
        <time>2021-05-29T12:43:01Z</time>
      </trkpt>
      <trkpt lat="45.13538" lon="5.81362">
        <ele>591.8</ele>
        <time>2021-05-29T12:43:02Z</time>
      </trkpt>
      <trkpt lat="45.13539" lon="5.81364">
        <ele>591.4</ele>
        <time>2021-05-29T12:43:03Z</time>
      </trkpt>
      <trkpt lat="45.13541" lon="5.81366">
        <ele>591.6</ele>
        <time>2021-05-29T12:43:04Z</time>
      </trkpt>
      <trkpt lat="45.13543" lon="5.81368">
        <ele>591.4</ele>
        <time>2021-05-29T12:43:05Z</time>
      </trkpt>
      <trkpt lat="45.13544" lon="5.8137">
        <ele>591.6</ele>
        <time>2021-05-29T12:43:06Z</time>
      </trkpt>
      <trkpt lat="45.13546" lon="5.81373">
        <ele>591.4</ele>
        <time>2021-05-29T12:43:07Z</time>
      </trkpt>
      <trkpt lat="45.13546" lon="5.81373">
        <ele>591.2</ele>
        <time>2021-05-29T12:43:08Z</time>
      </trkpt>
      <trkpt lat="45.13547" lon="5.81375">
        <ele>591.2</ele>
        <time>2021-05-29T12:43:09Z</time>
      </trkpt>
      <trkpt lat="45.13549" lon="5.81377">
        <ele>591.4</ele>
        <time>2021-05-29T12:43:10Z</time>
      </trkpt>
      <trkpt lat="45.1355" lon="5.8138">
        <ele>591</ele>
        <time>2021-05-29T12:43:11Z</time>
      </trkpt>
      <trkpt lat="45.13552" lon="5.81383">
        <ele>591.2</ele>
        <time>2021-05-29T12:43:12Z</time>
      </trkpt>
      <trkpt lat="45.13553" lon="5.81385">
        <ele>591.2</ele>
        <time>2021-05-29T12:43:13Z</time>
      </trkpt>
      <trkpt lat="45.13557" lon="5.8139">
        <ele>591.2</ele>
        <time>2021-05-29T12:43:14Z</time>
      </trkpt>
      <trkpt lat="45.13557" lon="5.8139">
        <ele>591</ele>
        <time>2021-05-29T12:43:15Z</time>
      </trkpt>
      <trkpt lat="45.13559" lon="5.81393">
        <ele>591.2</ele>
        <time>2021-05-29T12:43:16Z</time>
      </trkpt>
      <trkpt lat="45.1356" lon="5.81394">
        <ele>591.2</ele>
        <time>2021-05-29T12:43:17Z</time>
      </trkpt>
      <trkpt lat="45.13562" lon="5.81396">
        <ele>591.4</ele>
        <time>2021-05-29T12:43:18Z</time>
      </trkpt>
      <trkpt lat="45.13563" lon="5.81398">
        <ele>591.4</ele>
        <time>2021-05-29T12:43:19Z</time>
      </trkpt>
      <trkpt lat="45.13565" lon="5.814">
        <ele>591.8</ele>
        <time>2021-05-29T12:43:20Z</time>
      </trkpt>
      <trkpt lat="45.13565" lon="5.814">
        <ele>591.6</ele>
        <time>2021-05-29T12:43:21Z</time>
      </trkpt>
      <trkpt lat="45.13565" lon="5.814">
        <ele>592</ele>
        <time>2021-05-29T12:43:22Z</time>
      </trkpt>
      <trkpt lat="45.13567" lon="5.81403">
        <ele>591.8</ele>
        <time>2021-05-29T12:43:23Z</time>
      </trkpt>
      <trkpt lat="45.13569" lon="5.81407">
        <ele>592.4</ele>
        <time>2021-05-29T12:43:24Z</time>
      </trkpt>
      <trkpt lat="45.1357" lon="5.8141">
        <ele>592.2</ele>
        <time>2021-05-29T12:43:25Z</time>
      </trkpt>
      <trkpt lat="45.13572" lon="5.81413">
        <ele>592.4</ele>
        <time>2021-05-29T12:43:26Z</time>
      </trkpt>
      <trkpt lat="45.13572" lon="5.81413">
        <ele>592.2</ele>
        <time>2021-05-29T12:43:27Z</time>
      </trkpt>
      <trkpt lat="45.13574" lon="5.81417">
        <ele>592.6</ele>
        <time>2021-05-29T12:43:28Z</time>
      </trkpt>
      <trkpt lat="45.13576" lon="5.8142">
        <ele>592.6</ele>
        <time>2021-05-29T12:43:29Z</time>
      </trkpt>
      <trkpt lat="45.13578" lon="5.81423">
        <ele>592.8</ele>
        <time>2021-05-29T12:43:30Z</time>
      </trkpt>
      <trkpt lat="45.13578" lon="5.81424">
        <ele>592.8</ele>
        <time>2021-05-29T12:43:31Z</time>
      </trkpt>
      <trkpt lat="45.13579" lon="5.81425">
        <ele>593</ele>
        <time>2021-05-29T12:43:32Z</time>
      </trkpt>
      <trkpt lat="45.1358" lon="5.81426">
        <ele>593</ele>
        <time>2021-05-29T12:43:33Z</time>
      </trkpt>
      <trkpt lat="45.1358" lon="5.81426">
        <ele>593.2</ele>
        <time>2021-05-29T12:43:34Z</time>
      </trkpt>
      <trkpt lat="45.1358" lon="5.81426">
        <ele>593.2</ele>
        <time>2021-05-29T12:43:35Z</time>
      </trkpt>
      <trkpt lat="45.13581" lon="5.81429">
        <ele>593.4</ele>
        <time>2021-05-29T12:43:36Z</time>
      </trkpt>
      <trkpt lat="45.13581" lon="5.81431">
        <ele>593.6</ele>
        <time>2021-05-29T12:43:37Z</time>
      </trkpt>
      <trkpt lat="45.13581" lon="5.81434">
        <ele>593.8</ele>
        <time>2021-05-29T12:43:38Z</time>
      </trkpt>
      <trkpt lat="45.13582" lon="5.81437">
        <ele>594</ele>
        <time>2021-05-29T12:43:39Z</time>
      </trkpt>
      <trkpt lat="45.13582" lon="5.81439">
        <ele>594</ele>
        <time>2021-05-29T12:43:40Z</time>
      </trkpt>
      <trkpt lat="45.13585" lon="5.81443">
        <ele>594.2</ele>
        <time>2021-05-29T12:43:41Z</time>
      </trkpt>
      <trkpt lat="45.13588" lon="5.81447">
        <ele>594.2</ele>
        <time>2021-05-29T12:43:42Z</time>
      </trkpt>
      <trkpt lat="45.13591" lon="5.8145">
        <ele>594.4</ele>
        <time>2021-05-29T12:43:43Z</time>
      </trkpt>
      <trkpt lat="45.13594" lon="5.81454">
        <ele>594.4</ele>
        <time>2021-05-29T12:43:44Z</time>
      </trkpt>
      <trkpt lat="45.13597" lon="5.81459">
        <ele>594.8</ele>
        <time>2021-05-29T12:43:45Z</time>
      </trkpt>
      <trkpt lat="45.13597" lon="5.81459">
        <ele>594.8</ele>
        <time>2021-05-29T12:43:46Z</time>
      </trkpt>
      <trkpt lat="45.13597" lon="5.81459">
        <ele>595</ele>
        <time>2021-05-29T12:43:47Z</time>
      </trkpt>
      <trkpt lat="45.13597" lon="5.81459">
        <ele>594.8</ele>
        <time>2021-05-29T12:43:48Z</time>
      </trkpt>
      <trkpt lat="45.13599" lon="5.81461">
        <ele>595.2</ele>
        <time>2021-05-29T12:43:49Z</time>
      </trkpt>
      <trkpt lat="45.13601" lon="5.81464">
        <ele>595.2</ele>
        <time>2021-05-29T12:43:50Z</time>
      </trkpt>
      <trkpt lat="45.13602" lon="5.81466">
        <ele>595.2</ele>
        <time>2021-05-29T12:43:51Z</time>
      </trkpt>
      <trkpt lat="45.13604" lon="5.81469">
        <ele>595.2</ele>
        <time>2021-05-29T12:43:52Z</time>
      </trkpt>
      <trkpt lat="45.13611" lon="5.81477">
        <ele>595.4</ele>
        <time>2021-05-29T12:43:53Z</time>
      </trkpt>
      <trkpt lat="45.13611" lon="5.81477">
        <ele>595.2</ele>
        <time>2021-05-29T12:43:54Z</time>
      </trkpt>
      <trkpt lat="45.13611" lon="5.81477">
        <ele>595.2</ele>
        <time>2021-05-29T12:43:55Z</time>
      </trkpt>
      <trkpt lat="45.13611" lon="5.81477">
        <ele>595</ele>
        <time>2021-05-29T12:43:56Z</time>
      </trkpt>
      <trkpt lat="45.13613" lon="5.81479">
        <ele>595.2</ele>
        <time>2021-05-29T12:43:57Z</time>
      </trkpt>
      <trkpt lat="45.13615" lon="5.81481">
        <ele>595.2</ele>
        <time>2021-05-29T12:43:58Z</time>
      </trkpt>
      <trkpt lat="45.13616" lon="5.81483">
        <ele>595.2</ele>
        <time>2021-05-29T12:43:59Z</time>
      </trkpt>
      <trkpt lat="45.13618" lon="5.81485">
        <ele>595.4</ele>
        <time>2021-05-29T12:44:00Z</time>
      </trkpt>
      <trkpt lat="45.1362" lon="5.81487">
        <ele>595.8</ele>
        <time>2021-05-29T12:44:01Z</time>
      </trkpt>
      <trkpt lat="45.13622" lon="5.81489">
        <ele>595.6</ele>
        <time>2021-05-29T12:44:02Z</time>
      </trkpt>
      <trkpt lat="45.13623" lon="5.81491">
        <ele>595.2</ele>
        <time>2021-05-29T12:44:03Z</time>
      </trkpt>
      <trkpt lat="45.13625" lon="5.81493">
        <ele>595.6</ele>
        <time>2021-05-29T12:44:04Z</time>
      </trkpt>
      <trkpt lat="45.13627" lon="5.81495">
        <ele>595.4</ele>
        <time>2021-05-29T12:44:05Z</time>
      </trkpt>
      <trkpt lat="45.13635" lon="5.81502">
        <ele>595.2</ele>
        <time>2021-05-29T12:44:06Z</time>
      </trkpt>
      <trkpt lat="45.13637" lon="5.81504">
        <ele>595</ele>
        <time>2021-05-29T12:44:07Z</time>
      </trkpt>
      <trkpt lat="45.13638" lon="5.81505">
        <ele>594.8</ele>
        <time>2021-05-29T12:44:08Z</time>
      </trkpt>
      <trkpt lat="45.13639" lon="5.81507">
        <ele>594.6</ele>
        <time>2021-05-29T12:44:09Z</time>
      </trkpt>
      <trkpt lat="45.1364" lon="5.81508">
        <ele>594.4</ele>
        <time>2021-05-29T12:44:10Z</time>
      </trkpt>
      <trkpt lat="45.13641" lon="5.81509">
        <ele>594.2</ele>
        <time>2021-05-29T12:44:11Z</time>
      </trkpt>
      <trkpt lat="45.13642" lon="5.8151">
        <ele>594</ele>
        <time>2021-05-29T12:44:12Z</time>
      </trkpt>
      <trkpt lat="45.13644" lon="5.81511">
        <ele>593.8</ele>
        <time>2021-05-29T12:44:13Z</time>
      </trkpt>
      <trkpt lat="45.13645" lon="5.81513">
        <ele>593.2</ele>
        <time>2021-05-29T12:44:14Z</time>
      </trkpt>
      <trkpt lat="45.13647" lon="5.81514">
        <ele>592.8</ele>
        <time>2021-05-29T12:44:15Z</time>
      </trkpt>
      <trkpt lat="45.13652" lon="5.81519">
        <ele>592.8</ele>
        <time>2021-05-29T12:44:16Z</time>
      </trkpt>
      <trkpt lat="45.13652" lon="5.8152">
        <ele>592.6</ele>
        <time>2021-05-29T12:44:17Z</time>
      </trkpt>
      <trkpt lat="45.13654" lon="5.81521">
        <ele>592.4</ele>
        <time>2021-05-29T12:44:18Z</time>
      </trkpt>
      <trkpt lat="45.13657" lon="5.81524">
        <ele>592.2</ele>
        <time>2021-05-29T12:44:19Z</time>
      </trkpt>
      <trkpt lat="45.13658" lon="5.81526">
        <ele>591.8</ele>
        <time>2021-05-29T12:44:20Z</time>
      </trkpt>
      <trkpt lat="45.1366" lon="5.81528">
        <ele>591</ele>
        <time>2021-05-29T12:44:21Z</time>
      </trkpt>
      <trkpt lat="45.13662" lon="5.8153">
        <ele>590.8</ele>
        <time>2021-05-29T12:44:22Z</time>
      </trkpt>
      <trkpt lat="45.13662" lon="5.8153">
        <ele>591</ele>
        <time>2021-05-29T12:44:23Z</time>
      </trkpt>
      <trkpt lat="45.13664" lon="5.81532">
        <ele>590.6</ele>
        <time>2021-05-29T12:44:24Z</time>
      </trkpt>
      <trkpt lat="45.13665" lon="5.81534">
        <ele>590.4</ele>
        <time>2021-05-29T12:44:25Z</time>
      </trkpt>
      <trkpt lat="45.13666" lon="5.81535">
        <ele>589.6</ele>
        <time>2021-05-29T12:44:26Z</time>
      </trkpt>
      <trkpt lat="45.13666" lon="5.81536">
        <ele>589.2</ele>
        <time>2021-05-29T12:44:27Z</time>
      </trkpt>
      <trkpt lat="45.13667" lon="5.81536">
        <ele>589</ele>
        <time>2021-05-29T12:44:28Z</time>
      </trkpt>
      <trkpt lat="45.13668" lon="5.81537">
        <ele>589</ele>
        <time>2021-05-29T12:44:29Z</time>
      </trkpt>
      <trkpt lat="45.13668" lon="5.81538">
        <ele>588.8</ele>
        <time>2021-05-29T12:44:30Z</time>
      </trkpt>
      <trkpt lat="45.1367" lon="5.8154">
        <ele>588.8</ele>
        <time>2021-05-29T12:44:31Z</time>
      </trkpt>
      <trkpt lat="45.13672" lon="5.81543">
        <ele>589</ele>
        <time>2021-05-29T12:44:32Z</time>
      </trkpt>
      <trkpt lat="45.13674" lon="5.81545">
        <ele>589</ele>
        <time>2021-05-29T12:44:33Z</time>
      </trkpt>
      <trkpt lat="45.13675" lon="5.81547">
        <ele>589</ele>
        <time>2021-05-29T12:44:34Z</time>
      </trkpt>
      <trkpt lat="45.13677" lon="5.81549">
        <ele>589.2</ele>
        <time>2021-05-29T12:44:35Z</time>
      </trkpt>
      <trkpt lat="45.13677" lon="5.81549">
        <ele>589</ele>
        <time>2021-05-29T12:44:36Z</time>
      </trkpt>
      <trkpt lat="45.13679" lon="5.81552">
        <ele>588.8</ele>
        <time>2021-05-29T12:44:37Z</time>
      </trkpt>
      <trkpt lat="45.1368" lon="5.81553">
        <ele>588.4</ele>
        <time>2021-05-29T12:44:38Z</time>
      </trkpt>
      <trkpt lat="45.13682" lon="5.81555">
        <ele>588.2</ele>
        <time>2021-05-29T12:44:39Z</time>
      </trkpt>
      <trkpt lat="45.13683" lon="5.81556">
        <ele>587.8</ele>
        <time>2021-05-29T12:44:40Z</time>
      </trkpt>
      <trkpt lat="45.13688" lon="5.81561">
        <ele>587.8</ele>
        <time>2021-05-29T12:44:41Z</time>
      </trkpt>
      <trkpt lat="45.13691" lon="5.81563">
        <ele>587.2</ele>
        <time>2021-05-29T12:44:42Z</time>
      </trkpt>
      <trkpt lat="45.13692" lon="5.81564">
        <ele>586.4</ele>
        <time>2021-05-29T12:44:43Z</time>
      </trkpt>
      <trkpt lat="45.13694" lon="5.81565">
        <ele>586.4</ele>
        <time>2021-05-29T12:44:44Z</time>
      </trkpt>
      <trkpt lat="45.13696" lon="5.81566">
        <ele>586</ele>
        <time>2021-05-29T12:44:45Z</time>
      </trkpt>
      <trkpt lat="45.13697" lon="5.81567">
        <ele>585.8</ele>
        <time>2021-05-29T12:44:46Z</time>
      </trkpt>
      <trkpt lat="45.13698" lon="5.81567">
        <ele>585.4</ele>
        <time>2021-05-29T12:44:47Z</time>
      </trkpt>
      <trkpt lat="45.137" lon="5.81569">
        <ele>585.2</ele>
        <time>2021-05-29T12:44:48Z</time>
      </trkpt>
      <trkpt lat="45.13703" lon="5.81571">
        <ele>584.8</ele>
        <time>2021-05-29T12:44:49Z</time>
      </trkpt>
      <trkpt lat="45.13705" lon="5.81573">
        <ele>584.6</ele>
        <time>2021-05-29T12:44:50Z</time>
      </trkpt>
      <trkpt lat="45.13707" lon="5.81575">
        <ele>584</ele>
        <time>2021-05-29T12:44:51Z</time>
      </trkpt>
      <trkpt lat="45.13711" lon="5.81578">
        <ele>583.4</ele>
        <time>2021-05-29T12:44:52Z</time>
      </trkpt>
      <trkpt lat="45.13713" lon="5.8158">
        <ele>583.4</ele>
        <time>2021-05-29T12:44:53Z</time>
      </trkpt>
      <trkpt lat="45.13715" lon="5.81582">
        <ele>583</ele>
        <time>2021-05-29T12:44:54Z</time>
      </trkpt>
      <trkpt lat="45.13717" lon="5.81584">
        <ele>583.2</ele>
        <time>2021-05-29T12:44:55Z</time>
      </trkpt>
      <trkpt lat="45.13718" lon="5.81585">
        <ele>582.8</ele>
        <time>2021-05-29T12:44:56Z</time>
      </trkpt>
      <trkpt lat="45.1372" lon="5.81586">
        <ele>582.6</ele>
        <time>2021-05-29T12:44:57Z</time>
      </trkpt>
      <trkpt lat="45.1372" lon="5.81586">
        <ele>582.2</ele>
        <time>2021-05-29T12:44:58Z</time>
      </trkpt>
      <trkpt lat="45.13722" lon="5.81588">
        <ele>581.4</ele>
        <time>2021-05-29T12:44:59Z</time>
      </trkpt>
      <trkpt lat="45.13724" lon="5.8159">
        <ele>581</ele>
        <time>2021-05-29T12:45:00Z</time>
      </trkpt>
      <trkpt lat="45.13726" lon="5.81592">
        <ele>580.4</ele>
        <time>2021-05-29T12:45:01Z</time>
      </trkpt>
      <trkpt lat="45.13728" lon="5.81594">
        <ele>580.4</ele>
        <time>2021-05-29T12:45:02Z</time>
      </trkpt>
      <trkpt lat="45.1373" lon="5.81597">
        <ele>580.4</ele>
        <time>2021-05-29T12:45:03Z</time>
      </trkpt>
      <trkpt lat="45.13732" lon="5.81598">
        <ele>580.6</ele>
        <time>2021-05-29T12:45:04Z</time>
      </trkpt>
      <trkpt lat="45.13734" lon="5.816">
        <ele>580.4</ele>
        <time>2021-05-29T12:45:05Z</time>
      </trkpt>
      <trkpt lat="45.13736" lon="5.81602">
        <ele>580.4</ele>
        <time>2021-05-29T12:45:06Z</time>
      </trkpt>
      <trkpt lat="45.13741" lon="5.81607">
        <ele>579.8</ele>
        <time>2021-05-29T12:45:07Z</time>
      </trkpt>
      <trkpt lat="45.13743" lon="5.81608">
        <ele>579.8</ele>
        <time>2021-05-29T12:45:08Z</time>
      </trkpt>
      <trkpt lat="45.13745" lon="5.8161">
        <ele>579.4</ele>
        <time>2021-05-29T12:45:09Z</time>
      </trkpt>
      <trkpt lat="45.13748" lon="5.81613">
        <ele>578.8</ele>
        <time>2021-05-29T12:45:10Z</time>
      </trkpt>
      <trkpt lat="45.13752" lon="5.81616">
        <ele>579</ele>
        <time>2021-05-29T12:45:11Z</time>
      </trkpt>
      <trkpt lat="45.13755" lon="5.81619">
        <ele>578.6</ele>
        <time>2021-05-29T12:45:12Z</time>
      </trkpt>
      <trkpt lat="45.13757" lon="5.81621">
        <ele>578.8</ele>
        <time>2021-05-29T12:45:13Z</time>
      </trkpt>
      <trkpt lat="45.1376" lon="5.81624">
        <ele>578.6</ele>
        <time>2021-05-29T12:45:14Z</time>
      </trkpt>
      <trkpt lat="45.13762" lon="5.81626">
        <ele>578.8</ele>
        <time>2021-05-29T12:45:15Z</time>
      </trkpt>
      <trkpt lat="45.13764" lon="5.81629">
        <ele>578.4</ele>
        <time>2021-05-29T12:45:16Z</time>
      </trkpt>
      <trkpt lat="45.13766" lon="5.81631">
        <ele>578</ele>
        <time>2021-05-29T12:45:17Z</time>
      </trkpt>
      <trkpt lat="45.13768" lon="5.81633">
        <ele>577.6</ele>
        <time>2021-05-29T12:45:18Z</time>
      </trkpt>
      <trkpt lat="45.1377" lon="5.81635">
        <ele>577.4</ele>
        <time>2021-05-29T12:45:19Z</time>
      </trkpt>
      <trkpt lat="45.13772" lon="5.81637">
        <ele>577.2</ele>
        <time>2021-05-29T12:45:20Z</time>
      </trkpt>
      <trkpt lat="45.13775" lon="5.81643">
        <ele>576.6</ele>
        <time>2021-05-29T12:45:21Z</time>
      </trkpt>
      <trkpt lat="45.13778" lon="5.81645">
        <ele>576.6</ele>
        <time>2021-05-29T12:45:22Z</time>
      </trkpt>
      <trkpt lat="45.1378" lon="5.81648">
        <ele>576.2</ele>
        <time>2021-05-29T12:45:23Z</time>
      </trkpt>
      <trkpt lat="45.1378" lon="5.81648">
        <ele>576.4</ele>
        <time>2021-05-29T12:45:24Z</time>
      </trkpt>
      <trkpt lat="45.13783" lon="5.81651">
        <ele>576</ele>
        <time>2021-05-29T12:45:25Z</time>
      </trkpt>
      <trkpt lat="45.13787" lon="5.81656">
        <ele>576</ele>
        <time>2021-05-29T12:45:26Z</time>
      </trkpt>
      <trkpt lat="45.13789" lon="5.81658">
        <ele>575.6</ele>
        <time>2021-05-29T12:45:27Z</time>
      </trkpt>
      <trkpt lat="45.13789" lon="5.81658">
        <ele>575.8</ele>
        <time>2021-05-29T12:45:28Z</time>
      </trkpt>
      <trkpt lat="45.1379" lon="5.81661">
        <ele>575.4</ele>
        <time>2021-05-29T12:45:29Z</time>
      </trkpt>
      <trkpt lat="45.13794" lon="5.81667">
        <ele>575.2</ele>
        <time>2021-05-29T12:45:30Z</time>
      </trkpt>
      <trkpt lat="45.13796" lon="5.8167">
        <ele>574.6</ele>
        <time>2021-05-29T12:45:31Z</time>
      </trkpt>
      <trkpt lat="45.13798" lon="5.81673">
        <ele>574.4</ele>
        <time>2021-05-29T12:45:32Z</time>
      </trkpt>
      <trkpt lat="45.138" lon="5.81676">
        <ele>574</ele>
        <time>2021-05-29T12:45:33Z</time>
      </trkpt>
      <trkpt lat="45.138" lon="5.81676">
        <ele>573.8</ele>
        <time>2021-05-29T12:45:34Z</time>
      </trkpt>
      <trkpt lat="45.13801" lon="5.81679">
        <ele>573.4</ele>
        <time>2021-05-29T12:45:35Z</time>
      </trkpt>
      <trkpt lat="45.13804" lon="5.81683">
        <ele>572.8</ele>
        <time>2021-05-29T12:45:36Z</time>
      </trkpt>
      <trkpt lat="45.13804" lon="5.81683">
        <ele>572.8</ele>
        <time>2021-05-29T12:45:37Z</time>
      </trkpt>
      <trkpt lat="45.13807" lon="5.81686">
        <ele>572.2</ele>
        <time>2021-05-29T12:45:38Z</time>
      </trkpt>
      <trkpt lat="45.13809" lon="5.81688">
        <ele>572.6</ele>
        <time>2021-05-29T12:45:39Z</time>
      </trkpt>
      <trkpt lat="45.13814" lon="5.81693">
        <ele>572.4</ele>
        <time>2021-05-29T12:45:40Z</time>
      </trkpt>
      <trkpt lat="45.13816" lon="5.81695">
        <ele>572.6</ele>
        <time>2021-05-29T12:45:41Z</time>
      </trkpt>
      <trkpt lat="45.13819" lon="5.81697">
        <ele>572.2</ele>
        <time>2021-05-29T12:45:42Z</time>
      </trkpt>
      <trkpt lat="45.13821" lon="5.817">
        <ele>572.4</ele>
        <time>2021-05-29T12:45:43Z</time>
      </trkpt>
      <trkpt lat="45.13824" lon="5.81702">
        <ele>572</ele>
        <time>2021-05-29T12:45:44Z</time>
      </trkpt>
      <trkpt lat="45.13826" lon="5.81704">
        <ele>572</ele>
        <time>2021-05-29T12:45:45Z</time>
      </trkpt>
      <trkpt lat="45.13828" lon="5.81706">
        <ele>571.6</ele>
        <time>2021-05-29T12:45:46Z</time>
      </trkpt>
      <trkpt lat="45.13831" lon="5.81708">
        <ele>571.8</ele>
        <time>2021-05-29T12:45:47Z</time>
      </trkpt>
      <trkpt lat="45.13833" lon="5.8171">
        <ele>571.6</ele>
        <time>2021-05-29T12:45:48Z</time>
      </trkpt>
      <trkpt lat="45.13834" lon="5.81711">
        <ele>571.8</ele>
        <time>2021-05-29T12:45:49Z</time>
      </trkpt>
      <trkpt lat="45.13836" lon="5.81712">
        <ele>571.6</ele>
        <time>2021-05-29T12:45:50Z</time>
      </trkpt>
      <trkpt lat="45.13837" lon="5.81713">
        <ele>571.8</ele>
        <time>2021-05-29T12:45:51Z</time>
      </trkpt>
      <trkpt lat="45.13839" lon="5.81715">
        <ele>571.4</ele>
        <time>2021-05-29T12:45:52Z</time>
      </trkpt>
      <trkpt lat="45.13845" lon="5.8172">
        <ele>571.6</ele>
        <time>2021-05-29T12:45:53Z</time>
      </trkpt>
      <trkpt lat="45.13848" lon="5.81722">
        <ele>571.4</ele>
        <time>2021-05-29T12:45:54Z</time>
      </trkpt>
      <trkpt lat="45.1385" lon="5.81724">
        <ele>571.6</ele>
        <time>2021-05-29T12:45:55Z</time>
      </trkpt>
      <trkpt lat="45.13853" lon="5.81726">
        <ele>571.2</ele>
        <time>2021-05-29T12:45:56Z</time>
      </trkpt>
      <trkpt lat="45.13856" lon="5.81729">
        <ele>571.4</ele>
        <time>2021-05-29T12:45:57Z</time>
      </trkpt>
      <trkpt lat="45.13859" lon="5.81731">
        <ele>571.2</ele>
        <time>2021-05-29T12:45:58Z</time>
      </trkpt>
      <trkpt lat="45.13861" lon="5.81734">
        <ele>571.4</ele>
        <time>2021-05-29T12:45:59Z</time>
      </trkpt>
      <trkpt lat="45.13863" lon="5.81735">
        <ele>571.2</ele>
        <time>2021-05-29T12:46:00Z</time>
      </trkpt>
      <trkpt lat="45.13864" lon="5.81736">
        <ele>571.4</ele>
        <time>2021-05-29T12:46:01Z</time>
      </trkpt>
      <trkpt lat="45.13867" lon="5.81739">
        <ele>571</ele>
        <time>2021-05-29T12:46:02Z</time>
      </trkpt>
      <trkpt lat="45.13867" lon="5.81739">
        <ele>571.2</ele>
        <time>2021-05-29T12:46:03Z</time>
      </trkpt>
      <trkpt lat="45.13869" lon="5.8174">
        <ele>571</ele>
        <time>2021-05-29T12:46:04Z</time>
      </trkpt>
      <trkpt lat="45.13873" lon="5.81744">
        <ele>570.8</ele>
        <time>2021-05-29T12:46:05Z</time>
      </trkpt>
      <trkpt lat="45.13875" lon="5.81746">
        <ele>570.6</ele>
        <time>2021-05-29T12:46:06Z</time>
      </trkpt>
      <trkpt lat="45.13877" lon="5.81748">
        <ele>570.6</ele>
        <time>2021-05-29T12:46:07Z</time>
      </trkpt>
      <trkpt lat="45.13879" lon="5.8175">
        <ele>570</ele>
        <time>2021-05-29T12:46:08Z</time>
      </trkpt>
      <trkpt lat="45.13881" lon="5.81752">
        <ele>570.4</ele>
        <time>2021-05-29T12:46:09Z</time>
      </trkpt>
      <trkpt lat="45.13883" lon="5.81754">
        <ele>570.2</ele>
        <time>2021-05-29T12:46:10Z</time>
      </trkpt>
      <trkpt lat="45.13883" lon="5.81754">
        <ele>570.2</ele>
        <time>2021-05-29T12:46:11Z</time>
      </trkpt>
      <trkpt lat="45.13885" lon="5.81756">
        <ele>570</ele>
        <time>2021-05-29T12:46:12Z</time>
      </trkpt>
      <trkpt lat="45.13887" lon="5.81757">
        <ele>570</ele>
        <time>2021-05-29T12:46:13Z</time>
      </trkpt>
      <trkpt lat="45.13891" lon="5.81761">
        <ele>569.8</ele>
        <time>2021-05-29T12:46:14Z</time>
      </trkpt>
      <trkpt lat="45.13891" lon="5.81761">
        <ele>570</ele>
        <time>2021-05-29T12:46:15Z</time>
      </trkpt>
      <trkpt lat="45.13893" lon="5.81763">
        <ele>569.8</ele>
        <time>2021-05-29T12:46:16Z</time>
      </trkpt>
      <trkpt lat="45.13895" lon="5.81765">
        <ele>570</ele>
        <time>2021-05-29T12:46:17Z</time>
      </trkpt>
      <trkpt lat="45.13898" lon="5.81768">
        <ele>570</ele>
        <time>2021-05-29T12:46:18Z</time>
      </trkpt>
      <trkpt lat="45.139" lon="5.8177">
        <ele>570.2</ele>
        <time>2021-05-29T12:46:19Z</time>
      </trkpt>
      <trkpt lat="45.13901" lon="5.81772">
        <ele>570</ele>
        <time>2021-05-29T12:46:20Z</time>
      </trkpt>
      <trkpt lat="45.13905" lon="5.81775">
        <ele>570.2</ele>
        <time>2021-05-29T12:46:21Z</time>
      </trkpt>
      <trkpt lat="45.13908" lon="5.81777">
        <ele>570.2</ele>
        <time>2021-05-29T12:46:22Z</time>
      </trkpt>
      <trkpt lat="45.1391" lon="5.81779">
        <ele>570</ele>
        <time>2021-05-29T12:46:23Z</time>
      </trkpt>
      <trkpt lat="45.13912" lon="5.81781">
        <ele>570</ele>
        <time>2021-05-29T12:46:24Z</time>
      </trkpt>
      <trkpt lat="45.13915" lon="5.81783">
        <ele>570</ele>
        <time>2021-05-29T12:46:25Z</time>
      </trkpt>
      <trkpt lat="45.13917" lon="5.81785">
        <ele>569.8</ele>
        <time>2021-05-29T12:46:26Z</time>
      </trkpt>
      <trkpt lat="45.13917" lon="5.81785">
        <ele>570.2</ele>
        <time>2021-05-29T12:46:27Z</time>
      </trkpt>
      <trkpt lat="45.1392" lon="5.81787">
        <ele>569.8</ele>
        <time>2021-05-29T12:46:28Z</time>
      </trkpt>
      <trkpt lat="45.13922" lon="5.81789">
        <ele>570.2</ele>
        <time>2021-05-29T12:46:29Z</time>
      </trkpt>
      <trkpt lat="45.13926" lon="5.81791">
        <ele>570</ele>
        <time>2021-05-29T12:46:30Z</time>
      </trkpt>
      <trkpt lat="45.13926" lon="5.81791">
        <ele>570</ele>
        <time>2021-05-29T12:46:31Z</time>
      </trkpt>
      <trkpt lat="45.13928" lon="5.81792">
        <ele>569.6</ele>
        <time>2021-05-29T12:46:32Z</time>
      </trkpt>
      <trkpt lat="45.1393" lon="5.81794">
        <ele>569.8</ele>
        <time>2021-05-29T12:46:33Z</time>
      </trkpt>
      <trkpt lat="45.13933" lon="5.81795">
        <ele>569.4</ele>
        <time>2021-05-29T12:46:34Z</time>
      </trkpt>
      <trkpt lat="45.13936" lon="5.81796">
        <ele>569.6</ele>
        <time>2021-05-29T12:46:35Z</time>
      </trkpt>
      <trkpt lat="45.13937" lon="5.81797">
        <ele>569.4</ele>
        <time>2021-05-29T12:46:36Z</time>
      </trkpt>
      <trkpt lat="45.13938" lon="5.81797">
        <ele>569.4</ele>
        <time>2021-05-29T12:46:37Z</time>
      </trkpt>
      <trkpt lat="45.13939" lon="5.81798">
        <ele>569</ele>
        <time>2021-05-29T12:46:38Z</time>
      </trkpt>
      <trkpt lat="45.13943" lon="5.81799">
        <ele>569.2</ele>
        <time>2021-05-29T12:46:39Z</time>
      </trkpt>
      <trkpt lat="45.13946" lon="5.81801">
        <ele>568.8</ele>
        <time>2021-05-29T12:46:40Z</time>
      </trkpt>
      <trkpt lat="45.1395" lon="5.81802">
        <ele>568.6</ele>
        <time>2021-05-29T12:46:41Z</time>
      </trkpt>
      <trkpt lat="45.13954" lon="5.81804">
        <ele>568.2</ele>
        <time>2021-05-29T12:46:42Z</time>
      </trkpt>
      <trkpt lat="45.13956" lon="5.81806">
        <ele>568.4</ele>
        <time>2021-05-29T12:46:43Z</time>
      </trkpt>
      <trkpt lat="45.1396" lon="5.81808">
        <ele>568.4</ele>
        <time>2021-05-29T12:46:44Z</time>
      </trkpt>
      <trkpt lat="45.13964" lon="5.81809">
        <ele>568.8</ele>
        <time>2021-05-29T12:46:45Z</time>
      </trkpt>
      <trkpt lat="45.13966" lon="5.81811">
        <ele>568.2</ele>
        <time>2021-05-29T12:46:46Z</time>
      </trkpt>
      <trkpt lat="45.13966" lon="5.81811">
        <ele>568.4</ele>
        <time>2021-05-29T12:46:47Z</time>
      </trkpt>
      <trkpt lat="45.13969" lon="5.81812">
        <ele>568</ele>
        <time>2021-05-29T12:46:48Z</time>
      </trkpt>
      <trkpt lat="45.13969" lon="5.81812">
        <ele>568.4</ele>
        <time>2021-05-29T12:46:49Z</time>
      </trkpt>
      <trkpt lat="45.13969" lon="5.81812">
        <ele>568.2</ele>
        <time>2021-05-29T12:46:50Z</time>
      </trkpt>
      <trkpt lat="45.13972" lon="5.81813">
        <ele>568.6</ele>
        <time>2021-05-29T12:46:51Z</time>
      </trkpt>
      <trkpt lat="45.13976" lon="5.81814">
        <ele>568.2</ele>
        <time>2021-05-29T12:46:52Z</time>
      </trkpt>
      <trkpt lat="45.13979" lon="5.81815">
        <ele>568.4</ele>
        <time>2021-05-29T12:46:53Z</time>
      </trkpt>
      <trkpt lat="45.13983" lon="5.81816">
        <ele>568</ele>
        <time>2021-05-29T12:46:54Z</time>
      </trkpt>
      <trkpt lat="45.13988" lon="5.81818">
        <ele>568.2</ele>
        <time>2021-05-29T12:46:55Z</time>
      </trkpt>
      <trkpt lat="45.13988" lon="5.81818">
        <ele>568</ele>
        <time>2021-05-29T12:46:56Z</time>
      </trkpt>
      <trkpt lat="45.13991" lon="5.81819">
        <ele>568.2</ele>
        <time>2021-05-29T12:46:57Z</time>
      </trkpt>
      <trkpt lat="45.13993" lon="5.81819">
        <ele>568</ele>
        <time>2021-05-29T12:46:58Z</time>
      </trkpt>
      <trkpt lat="45.13995" lon="5.8182">
        <ele>568</ele>
        <time>2021-05-29T12:46:59Z</time>
      </trkpt>
      <trkpt lat="45.13996" lon="5.81821">
        <ele>568</ele>
        <time>2021-05-29T12:47:00Z</time>
      </trkpt>
      <trkpt lat="45.14002" lon="5.81823">
        <ele>568</ele>
        <time>2021-05-29T12:47:01Z</time>
      </trkpt>
      <trkpt lat="45.14003" lon="5.81823">
        <ele>567.8</ele>
        <time>2021-05-29T12:47:02Z</time>
      </trkpt>
      <trkpt lat="45.14004" lon="5.81823">
        <ele>567.6</ele>
        <time>2021-05-29T12:47:03Z</time>
      </trkpt>
      <trkpt lat="45.14005" lon="5.81824">
        <ele>567.2</ele>
        <time>2021-05-29T12:47:04Z</time>
      </trkpt>
      <trkpt lat="45.14009" lon="5.81825">
        <ele>567</ele>
        <time>2021-05-29T12:47:05Z</time>
      </trkpt>
      <trkpt lat="45.14012" lon="5.81826">
        <ele>566.8</ele>
        <time>2021-05-29T12:47:06Z</time>
      </trkpt>
      <trkpt lat="45.14016" lon="5.81828">
        <ele>566.8</ele>
        <time>2021-05-29T12:47:07Z</time>
      </trkpt>
      <trkpt lat="45.14019" lon="5.81829">
        <ele>566.6</ele>
        <time>2021-05-29T12:47:08Z</time>
      </trkpt>
      <trkpt lat="45.14023" lon="5.81831">
        <ele>566.4</ele>
        <time>2021-05-29T12:47:09Z</time>
      </trkpt>
      <trkpt lat="45.14027" lon="5.81833">
        <ele>566</ele>
        <time>2021-05-29T12:47:10Z</time>
      </trkpt>
      <trkpt lat="45.1403" lon="5.81834">
        <ele>566.2</ele>
        <time>2021-05-29T12:47:11Z</time>
      </trkpt>
      <trkpt lat="45.14031" lon="5.81835">
        <ele>565.8</ele>
        <time>2021-05-29T12:47:12Z</time>
      </trkpt>
      <trkpt lat="45.14033" lon="5.81836">
        <ele>566</ele>
        <time>2021-05-29T12:47:13Z</time>
      </trkpt>
      <trkpt lat="45.14035" lon="5.81836">
        <ele>565.8</ele>
        <time>2021-05-29T12:47:14Z</time>
      </trkpt>
      <trkpt lat="45.1404" lon="5.81839">
        <ele>566</ele>
        <time>2021-05-29T12:47:15Z</time>
      </trkpt>
      <trkpt lat="45.14041" lon="5.8184">
        <ele>566</ele>
        <time>2021-05-29T12:47:16Z</time>
      </trkpt>
      <trkpt lat="45.14044" lon="5.81841">
        <ele>566</ele>
        <time>2021-05-29T12:47:17Z</time>
      </trkpt>
      <trkpt lat="45.14049" lon="5.81843">
        <ele>566</ele>
        <time>2021-05-29T12:47:18Z</time>
      </trkpt>
      <trkpt lat="45.14049" lon="5.81843">
        <ele>566.4</ele>
        <time>2021-05-29T12:47:19Z</time>
      </trkpt>
      <trkpt lat="45.14052" lon="5.81844">
        <ele>566.2</ele>
        <time>2021-05-29T12:47:20Z</time>
      </trkpt>
      <trkpt lat="45.14057" lon="5.81846">
        <ele>566.6</ele>
        <time>2021-05-29T12:47:21Z</time>
      </trkpt>
      <trkpt lat="45.14059" lon="5.81847">
        <ele>566.6</ele>
        <time>2021-05-29T12:47:22Z</time>
      </trkpt>
      <trkpt lat="45.14061" lon="5.81849">
        <ele>566.8</ele>
        <time>2021-05-29T12:47:23Z</time>
      </trkpt>
      <trkpt lat="45.14063" lon="5.8185">
        <ele>566.6</ele>
        <time>2021-05-29T12:47:24Z</time>
      </trkpt>
      <trkpt lat="45.14066" lon="5.81852">
        <ele>566.8</ele>
        <time>2021-05-29T12:47:25Z</time>
      </trkpt>
      <trkpt lat="45.14068" lon="5.81853">
        <ele>566.6</ele>
        <time>2021-05-29T12:47:26Z</time>
      </trkpt>
      <trkpt lat="45.14071" lon="5.81855">
        <ele>566.8</ele>
        <time>2021-05-29T12:47:27Z</time>
      </trkpt>
      <trkpt lat="45.14073" lon="5.81856">
        <ele>566.6</ele>
        <time>2021-05-29T12:47:28Z</time>
      </trkpt>
      <trkpt lat="45.14076" lon="5.81857">
        <ele>566.8</ele>
        <time>2021-05-29T12:47:29Z</time>
      </trkpt>
      <trkpt lat="45.14079" lon="5.81859">
        <ele>566.6</ele>
        <time>2021-05-29T12:47:30Z</time>
      </trkpt>
      <trkpt lat="45.14081" lon="5.8186">
        <ele>566.8</ele>
        <time>2021-05-29T12:47:31Z</time>
      </trkpt>
      <trkpt lat="45.14084" lon="5.81862">
        <ele>566.4</ele>
        <time>2021-05-29T12:47:32Z</time>
      </trkpt>
      <trkpt lat="45.14086" lon="5.81863">
        <ele>566.4</ele>
        <time>2021-05-29T12:47:33Z</time>
      </trkpt>
      <trkpt lat="45.14089" lon="5.81865">
        <ele>566.2</ele>
        <time>2021-05-29T12:47:34Z</time>
      </trkpt>
      <trkpt lat="45.14092" lon="5.81866">
        <ele>566.2</ele>
        <time>2021-05-29T12:47:35Z</time>
      </trkpt>
      <trkpt lat="45.14094" lon="5.81867">
        <ele>566</ele>
        <time>2021-05-29T12:47:36Z</time>
      </trkpt>
      <trkpt lat="45.14097" lon="5.81869">
        <ele>566</ele>
        <time>2021-05-29T12:47:37Z</time>
      </trkpt>
      <trkpt lat="45.14098" lon="5.81869">
        <ele>565.8</ele>
        <time>2021-05-29T12:47:38Z</time>
      </trkpt>
      <trkpt lat="45.14099" lon="5.8187">
        <ele>566</ele>
        <time>2021-05-29T12:47:39Z</time>
      </trkpt>
      <trkpt lat="45.14102" lon="5.81871">
        <ele>565.8</ele>
        <time>2021-05-29T12:47:40Z</time>
      </trkpt>
      <trkpt lat="45.14105" lon="5.81873">
        <ele>566</ele>
        <time>2021-05-29T12:47:41Z</time>
      </trkpt>
      <trkpt lat="45.14107" lon="5.81874">
        <ele>565.8</ele>
        <time>2021-05-29T12:47:42Z</time>
      </trkpt>
      <trkpt lat="45.1411" lon="5.81876">
        <ele>566</ele>
        <time>2021-05-29T12:47:43Z</time>
      </trkpt>
      <trkpt lat="45.14112" lon="5.81877">
        <ele>565.6</ele>
        <time>2021-05-29T12:47:44Z</time>
      </trkpt>
      <trkpt lat="45.14113" lon="5.81878">
        <ele>565.6</ele>
        <time>2021-05-29T12:47:45Z</time>
      </trkpt>
      <trkpt lat="45.14115" lon="5.81879">
        <ele>565.2</ele>
        <time>2021-05-29T12:47:46Z</time>
      </trkpt>
      <trkpt lat="45.14116" lon="5.81881">
        <ele>565.4</ele>
        <time>2021-05-29T12:47:47Z</time>
      </trkpt>
      <trkpt lat="45.14122" lon="5.81885">
        <ele>565.2</ele>
        <time>2021-05-29T12:47:48Z</time>
      </trkpt>
      <trkpt lat="45.14125" lon="5.81887">
        <ele>565.4</ele>
        <time>2021-05-29T12:47:49Z</time>
      </trkpt>
      <trkpt lat="45.14126" lon="5.81888">
        <ele>565</ele>
        <time>2021-05-29T12:47:50Z</time>
      </trkpt>
      <trkpt lat="45.14127" lon="5.8189">
        <ele>565.4</ele>
        <time>2021-05-29T12:47:51Z</time>
      </trkpt>
      <trkpt lat="45.14128" lon="5.81891">
        <ele>565.4</ele>
        <time>2021-05-29T12:47:52Z</time>
      </trkpt>
      <trkpt lat="45.1413" lon="5.81892">
        <ele>565.4</ele>
        <time>2021-05-29T12:47:53Z</time>
      </trkpt>
      <trkpt lat="45.14135" lon="5.81898">
        <ele>565</ele>
        <time>2021-05-29T12:47:54Z</time>
      </trkpt>
      <trkpt lat="45.14137" lon="5.819">
        <ele>565.2</ele>
        <time>2021-05-29T12:47:55Z</time>
      </trkpt>
      <trkpt lat="45.14138" lon="5.81901">
        <ele>565.2</ele>
        <time>2021-05-29T12:47:56Z</time>
      </trkpt>
      <trkpt lat="45.1414" lon="5.81903">
        <ele>565.4</ele>
        <time>2021-05-29T12:47:57Z</time>
      </trkpt>
      <trkpt lat="45.14141" lon="5.81904">
        <ele>565.2</ele>
        <time>2021-05-29T12:47:58Z</time>
      </trkpt>
      <trkpt lat="45.14146" lon="5.8191">
        <ele>565</ele>
        <time>2021-05-29T12:47:59Z</time>
      </trkpt>
      <trkpt lat="45.14149" lon="5.81913">
        <ele>564.6</ele>
        <time>2021-05-29T12:48:00Z</time>
      </trkpt>
      <trkpt lat="45.14151" lon="5.81915">
        <ele>564.4</ele>
        <time>2021-05-29T12:48:01Z</time>
      </trkpt>
      <trkpt lat="45.14153" lon="5.81916">
        <ele>564</ele>
        <time>2021-05-29T12:48:02Z</time>
      </trkpt>
      <trkpt lat="45.14153" lon="5.81916">
        <ele>563.6</ele>
        <time>2021-05-29T12:48:03Z</time>
      </trkpt>
      <trkpt lat="45.14153" lon="5.81916">
        <ele>563.2</ele>
        <time>2021-05-29T12:48:04Z</time>
      </trkpt>
      <trkpt lat="45.14153" lon="5.81916">
        <ele>562.8</ele>
        <time>2021-05-29T12:48:05Z</time>
      </trkpt>
      <trkpt lat="45.14156" lon="5.81919">
        <ele>562.4</ele>
        <time>2021-05-29T12:48:06Z</time>
      </trkpt>
      <trkpt lat="45.14158" lon="5.81921">
        <ele>562.4</ele>
        <time>2021-05-29T12:48:07Z</time>
      </trkpt>
      <trkpt lat="45.1416" lon="5.81923">
        <ele>562</ele>
        <time>2021-05-29T12:48:08Z</time>
      </trkpt>
      <trkpt lat="45.14163" lon="5.81926">
        <ele>562.2</ele>
        <time>2021-05-29T12:48:09Z</time>
      </trkpt>
      <trkpt lat="45.14163" lon="5.81926">
        <ele>562</ele>
        <time>2021-05-29T12:48:10Z</time>
      </trkpt>
      <trkpt lat="45.14164" lon="5.81927">
        <ele>562.2</ele>
        <time>2021-05-29T12:48:11Z</time>
      </trkpt>
      <trkpt lat="45.14166" lon="5.81929">
        <ele>562.2</ele>
        <time>2021-05-29T12:48:12Z</time>
      </trkpt>
      <trkpt lat="45.14168" lon="5.8193">
        <ele>562.4</ele>
        <time>2021-05-29T12:48:13Z</time>
      </trkpt>
      <trkpt lat="45.14169" lon="5.81932">
        <ele>562.6</ele>
        <time>2021-05-29T12:48:14Z</time>
      </trkpt>
      <trkpt lat="45.14171" lon="5.81934">
        <ele>562.8</ele>
        <time>2021-05-29T12:48:15Z</time>
      </trkpt>
      <trkpt lat="45.14172" lon="5.81935">
        <ele>562.8</ele>
        <time>2021-05-29T12:48:16Z</time>
      </trkpt>
      <trkpt lat="45.14174" lon="5.81937">
        <ele>563.2</ele>
        <time>2021-05-29T12:48:17Z</time>
      </trkpt>
      <trkpt lat="45.14175" lon="5.81938">
        <ele>563</ele>
        <time>2021-05-29T12:48:18Z</time>
      </trkpt>
      <trkpt lat="45.14177" lon="5.8194">
        <ele>563.4</ele>
        <time>2021-05-29T12:48:19Z</time>
      </trkpt>
      <trkpt lat="45.14179" lon="5.81942">
        <ele>563.2</ele>
        <time>2021-05-29T12:48:20Z</time>
      </trkpt>
      <trkpt lat="45.14187" lon="5.81948">
        <ele>563.4</ele>
        <time>2021-05-29T12:48:21Z</time>
      </trkpt>
      <trkpt lat="45.14187" lon="5.81948">
        <ele>563</ele>
        <time>2021-05-29T12:48:22Z</time>
      </trkpt>
      <trkpt lat="45.14187" lon="5.81948">
        <ele>562.8</ele>
        <time>2021-05-29T12:48:23Z</time>
      </trkpt>
      <trkpt lat="45.14187" lon="5.81948">
        <ele>562.8</ele>
        <time>2021-05-29T12:48:24Z</time>
      </trkpt>
      <trkpt lat="45.14189" lon="5.81949">
        <ele>562.6</ele>
        <time>2021-05-29T12:48:25Z</time>
      </trkpt>
      <trkpt lat="45.14191" lon="5.8195">
        <ele>562.6</ele>
        <time>2021-05-29T12:48:26Z</time>
      </trkpt>
      <trkpt lat="45.14192" lon="5.8195">
        <ele>562.6</ele>
        <time>2021-05-29T12:48:27Z</time>
      </trkpt>
      <trkpt lat="45.14194" lon="5.81951">
        <ele>562.6</ele>
        <time>2021-05-29T12:48:28Z</time>
      </trkpt>
      <trkpt lat="45.14196" lon="5.81952">
        <ele>562.6</ele>
        <time>2021-05-29T12:48:29Z</time>
      </trkpt>
      <trkpt lat="45.14198" lon="5.81953">
        <ele>562.8</ele>
        <time>2021-05-29T12:48:30Z</time>
      </trkpt>
      <trkpt lat="45.142" lon="5.81953">
        <ele>562.8</ele>
        <time>2021-05-29T12:48:31Z</time>
      </trkpt>
      <trkpt lat="45.14202" lon="5.81954">
        <ele>563</ele>
        <time>2021-05-29T12:48:32Z</time>
      </trkpt>
      <trkpt lat="45.14204" lon="5.81954">
        <ele>563</ele>
        <time>2021-05-29T12:48:33Z</time>
      </trkpt>
      <trkpt lat="45.14206" lon="5.81954">
        <ele>563.2</ele>
        <time>2021-05-29T12:48:34Z</time>
      </trkpt>
      <trkpt lat="45.14208" lon="5.81955">
        <ele>563.2</ele>
        <time>2021-05-29T12:48:35Z</time>
      </trkpt>
      <trkpt lat="45.1421" lon="5.81955">
        <ele>563.6</ele>
        <time>2021-05-29T12:48:36Z</time>
      </trkpt>
      <trkpt lat="45.14212" lon="5.81956">
        <ele>563.8</ele>
        <time>2021-05-29T12:48:37Z</time>
      </trkpt>
      <trkpt lat="45.14214" lon="5.81956">
        <ele>564.2</ele>
        <time>2021-05-29T12:48:38Z</time>
      </trkpt>
      <trkpt lat="45.14217" lon="5.81956">
        <ele>564.2</ele>
        <time>2021-05-29T12:48:39Z</time>
      </trkpt>
      <trkpt lat="45.14219" lon="5.81957">
        <ele>564.6</ele>
        <time>2021-05-29T12:48:40Z</time>
      </trkpt>
      <trkpt lat="45.14221" lon="5.81958">
        <ele>564.6</ele>
        <time>2021-05-29T12:48:41Z</time>
      </trkpt>
      <trkpt lat="45.14224" lon="5.81959">
        <ele>564.6</ele>
        <time>2021-05-29T12:48:42Z</time>
      </trkpt>
      <trkpt lat="45.14226" lon="5.81961">
        <ele>564.8</ele>
        <time>2021-05-29T12:48:43Z</time>
      </trkpt>
      <trkpt lat="45.14229" lon="5.81962">
        <ele>564.8</ele>
        <time>2021-05-29T12:48:44Z</time>
      </trkpt>
      <trkpt lat="45.14231" lon="5.81963">
        <ele>564.8</ele>
        <time>2021-05-29T12:48:45Z</time>
      </trkpt>
      <trkpt lat="45.14233" lon="5.81964">
        <ele>564.8</ele>
        <time>2021-05-29T12:48:46Z</time>
      </trkpt>
      <trkpt lat="45.14236" lon="5.81965">
        <ele>564.8</ele>
        <time>2021-05-29T12:48:47Z</time>
      </trkpt>
      <trkpt lat="45.14238" lon="5.81966">
        <ele>564.8</ele>
        <time>2021-05-29T12:48:48Z</time>
      </trkpt>
      <trkpt lat="45.1424" lon="5.81968">
        <ele>565</ele>
        <time>2021-05-29T12:48:49Z</time>
      </trkpt>
      <trkpt lat="45.14243" lon="5.8197">
        <ele>565</ele>
        <time>2021-05-29T12:48:50Z</time>
      </trkpt>
      <trkpt lat="45.14245" lon="5.81972">
        <ele>565.4</ele>
        <time>2021-05-29T12:48:51Z</time>
      </trkpt>
      <trkpt lat="45.14248" lon="5.81973">
        <ele>565.4</ele>
        <time>2021-05-29T12:48:52Z</time>
      </trkpt>
      <trkpt lat="45.1425" lon="5.81975">
        <ele>565.6</ele>
        <time>2021-05-29T12:48:53Z</time>
      </trkpt>
      <trkpt lat="45.14252" lon="5.81977">
        <ele>565.6</ele>
        <time>2021-05-29T12:48:54Z</time>
      </trkpt>
      <trkpt lat="45.14253" lon="5.81979">
        <ele>566</ele>
        <time>2021-05-29T12:48:55Z</time>
      </trkpt>
      <trkpt lat="45.14255" lon="5.81981">
        <ele>566</ele>
        <time>2021-05-29T12:48:56Z</time>
      </trkpt>
      <trkpt lat="45.14257" lon="5.81983">
        <ele>566.2</ele>
        <time>2021-05-29T12:48:57Z</time>
      </trkpt>
      <trkpt lat="45.14259" lon="5.81985">
        <ele>566</ele>
        <time>2021-05-29T12:48:58Z</time>
      </trkpt>
      <trkpt lat="45.1426" lon="5.81987">
        <ele>566.2</ele>
        <time>2021-05-29T12:48:59Z</time>
      </trkpt>
      <trkpt lat="45.14261" lon="5.81989">
        <ele>566.2</ele>
        <time>2021-05-29T12:49:00Z</time>
      </trkpt>
      <trkpt lat="45.14263" lon="5.81991">
        <ele>566.6</ele>
        <time>2021-05-29T12:49:01Z</time>
      </trkpt>
      <trkpt lat="45.14264" lon="5.81993">
        <ele>566.6</ele>
        <time>2021-05-29T12:49:02Z</time>
      </trkpt>
      <trkpt lat="45.14266" lon="5.81995">
        <ele>566.8</ele>
        <time>2021-05-29T12:49:03Z</time>
      </trkpt>
      <trkpt lat="45.14267" lon="5.81997">
        <ele>566.6</ele>
        <time>2021-05-29T12:49:04Z</time>
      </trkpt>
      <trkpt lat="45.14269" lon="5.81999">
        <ele>566.8</ele>
        <time>2021-05-29T12:49:05Z</time>
      </trkpt>
      <trkpt lat="45.1427" lon="5.82001">
        <ele>566.6</ele>
        <time>2021-05-29T12:49:06Z</time>
      </trkpt>
      <trkpt lat="45.14272" lon="5.82004">
        <ele>566.8</ele>
        <time>2021-05-29T12:49:07Z</time>
      </trkpt>
      <trkpt lat="45.14273" lon="5.82005">
        <ele>566.6</ele>
        <time>2021-05-29T12:49:08Z</time>
      </trkpt>
      <trkpt lat="45.14275" lon="5.82006">
        <ele>566.8</ele>
        <time>2021-05-29T12:49:09Z</time>
      </trkpt>
      <trkpt lat="45.14276" lon="5.82007">
        <ele>566.4</ele>
        <time>2021-05-29T12:49:10Z</time>
      </trkpt>
      <trkpt lat="45.14278" lon="5.82008">
        <ele>566.4</ele>
        <time>2021-05-29T12:49:11Z</time>
      </trkpt>
      <trkpt lat="45.1428" lon="5.82009">
        <ele>566</ele>
        <time>2021-05-29T12:49:12Z</time>
      </trkpt>
      <trkpt lat="45.14281" lon="5.82011">
        <ele>566</ele>
        <time>2021-05-29T12:49:13Z</time>
      </trkpt>
      <trkpt lat="45.14283" lon="5.82012">
        <ele>565.4</ele>
        <time>2021-05-29T12:49:14Z</time>
      </trkpt>
      <trkpt lat="45.14285" lon="5.82014">
        <ele>565.6</ele>
        <time>2021-05-29T12:49:15Z</time>
      </trkpt>
      <trkpt lat="45.14286" lon="5.82015">
        <ele>565.2</ele>
        <time>2021-05-29T12:49:16Z</time>
      </trkpt>
      <trkpt lat="45.14288" lon="5.82017">
        <ele>565.2</ele>
        <time>2021-05-29T12:49:17Z</time>
      </trkpt>
      <trkpt lat="45.1429" lon="5.82018">
        <ele>564.8</ele>
        <time>2021-05-29T12:49:18Z</time>
      </trkpt>
      <trkpt lat="45.14291" lon="5.82019">
        <ele>564.8</ele>
        <time>2021-05-29T12:49:19Z</time>
      </trkpt>
      <trkpt lat="45.14292" lon="5.82021">
        <ele>564.6</ele>
        <time>2021-05-29T12:49:20Z</time>
      </trkpt>
      <trkpt lat="45.14294" lon="5.82023">
        <ele>564.8</ele>
        <time>2021-05-29T12:49:21Z</time>
      </trkpt>
      <trkpt lat="45.14295" lon="5.82024">
        <ele>564.6</ele>
        <time>2021-05-29T12:49:22Z</time>
      </trkpt>
      <trkpt lat="45.14297" lon="5.82026">
        <ele>564.6</ele>
        <time>2021-05-29T12:49:23Z</time>
      </trkpt>
      <trkpt lat="45.14298" lon="5.82027">
        <ele>564.4</ele>
        <time>2021-05-29T12:49:24Z</time>
      </trkpt>
      <trkpt lat="45.143" lon="5.82029">
        <ele>564.6</ele>
        <time>2021-05-29T12:49:25Z</time>
      </trkpt>
      <trkpt lat="45.14302" lon="5.82031">
        <ele>564.4</ele>
        <time>2021-05-29T12:49:26Z</time>
      </trkpt>
      <trkpt lat="45.14304" lon="5.82034">
        <ele>564.6</ele>
        <time>2021-05-29T12:49:27Z</time>
      </trkpt>
      <trkpt lat="45.14306" lon="5.82036">
        <ele>564.4</ele>
        <time>2021-05-29T12:49:28Z</time>
      </trkpt>
      <trkpt lat="45.14309" lon="5.82038">
        <ele>564.6</ele>
        <time>2021-05-29T12:49:29Z</time>
      </trkpt>
      <trkpt lat="45.14311" lon="5.8204">
        <ele>564.2</ele>
        <time>2021-05-29T12:49:30Z</time>
      </trkpt>
      <trkpt lat="45.14315" lon="5.82044">
        <ele>564.6</ele>
        <time>2021-05-29T12:49:31Z</time>
      </trkpt>
      <trkpt lat="45.14315" lon="5.82044">
        <ele>564.6</ele>
        <time>2021-05-29T12:49:32Z</time>
      </trkpt>
      <trkpt lat="45.14315" lon="5.82044">
        <ele>564.8</ele>
        <time>2021-05-29T12:49:33Z</time>
      </trkpt>
      <trkpt lat="45.14315" lon="5.82044">
        <ele>564.6</ele>
        <time>2021-05-29T12:49:34Z</time>
      </trkpt>
      <trkpt lat="45.14318" lon="5.82045">
        <ele>565</ele>
        <time>2021-05-29T12:49:35Z</time>
      </trkpt>
      <trkpt lat="45.14322" lon="5.82047">
        <ele>564.8</ele>
        <time>2021-05-29T12:49:36Z</time>
      </trkpt>
      <trkpt lat="45.14325" lon="5.82049">
        <ele>564.8</ele>
        <time>2021-05-29T12:49:37Z</time>
      </trkpt>
      <trkpt lat="45.14328" lon="5.82051">
        <ele>564.4</ele>
        <time>2021-05-29T12:49:38Z</time>
      </trkpt>
      <trkpt lat="45.14331" lon="5.82053">
        <ele>564.4</ele>
        <time>2021-05-29T12:49:39Z</time>
      </trkpt>
      <trkpt lat="45.14338" lon="5.82056">
        <ele>564</ele>
        <time>2021-05-29T12:49:40Z</time>
      </trkpt>
      <trkpt lat="45.14341" lon="5.82058">
        <ele>564</ele>
        <time>2021-05-29T12:49:41Z</time>
      </trkpt>
      <trkpt lat="45.14343" lon="5.82059">
        <ele>563.8</ele>
        <time>2021-05-29T12:49:42Z</time>
      </trkpt>
      <trkpt lat="45.14345" lon="5.82059">
        <ele>563.8</ele>
        <time>2021-05-29T12:49:43Z</time>
      </trkpt>
      <trkpt lat="45.14347" lon="5.8206">
        <ele>563.4</ele>
        <time>2021-05-29T12:49:44Z</time>
      </trkpt>
      <trkpt lat="45.14348" lon="5.82061">
        <ele>563.2</ele>
        <time>2021-05-29T12:49:45Z</time>
      </trkpt>
      <trkpt lat="45.14349" lon="5.82061">
        <ele>563</ele>
        <time>2021-05-29T12:49:46Z</time>
      </trkpt>
      <trkpt lat="45.1435" lon="5.82061">
        <ele>562.8</ele>
        <time>2021-05-29T12:49:47Z</time>
      </trkpt>
      <trkpt lat="45.14351" lon="5.82061">
        <ele>562.6</ele>
        <time>2021-05-29T12:49:48Z</time>
      </trkpt>
      <trkpt lat="45.14355" lon="5.82062">
        <ele>562.4</ele>
        <time>2021-05-29T12:49:49Z</time>
      </trkpt>
      <trkpt lat="45.14359" lon="5.82064">
        <ele>562</ele>
        <time>2021-05-29T12:49:50Z</time>
      </trkpt>
      <trkpt lat="45.14362" lon="5.82065">
        <ele>561.4</ele>
        <time>2021-05-29T12:49:51Z</time>
      </trkpt>
      <trkpt lat="45.14367" lon="5.82066">
        <ele>561.6</ele>
        <time>2021-05-29T12:49:52Z</time>
      </trkpt>
      <trkpt lat="45.14368" lon="5.82066">
        <ele>561.4</ele>
        <time>2021-05-29T12:49:53Z</time>
      </trkpt>
      <trkpt lat="45.14369" lon="5.82066">
        <ele>561.6</ele>
        <time>2021-05-29T12:49:54Z</time>
      </trkpt>
      <trkpt lat="45.1437" lon="5.82066">
        <ele>561.2</ele>
        <time>2021-05-29T12:49:55Z</time>
      </trkpt>
      <trkpt lat="45.14371" lon="5.82067">
        <ele>561.4</ele>
        <time>2021-05-29T12:49:56Z</time>
      </trkpt>
      <trkpt lat="45.14372" lon="5.82067">
        <ele>561</ele>
        <time>2021-05-29T12:49:57Z</time>
      </trkpt>
      <trkpt lat="45.14378" lon="5.82068">
        <ele>561.2</ele>
        <time>2021-05-29T12:49:58Z</time>
      </trkpt>
      <trkpt lat="45.1438" lon="5.82068">
        <ele>561.2</ele>
        <time>2021-05-29T12:50:00Z</time>
      </trkpt>
      <trkpt lat="45.14383" lon="5.82069">
        <ele>561</ele>
        <time>2021-05-29T12:50:01Z</time>
      </trkpt>
      <trkpt lat="45.14387" lon="5.82069">
        <ele>561.2</ele>
        <time>2021-05-29T12:50:02Z</time>
      </trkpt>
      <trkpt lat="45.14391" lon="5.82069">
        <ele>560.8</ele>
        <time>2021-05-29T12:50:03Z</time>
      </trkpt>
      <trkpt lat="45.14395" lon="5.82068">
        <ele>561</ele>
        <time>2021-05-29T12:50:04Z</time>
      </trkpt>
      <trkpt lat="45.14403" lon="5.82067">
        <ele>560.6</ele>
        <time>2021-05-29T12:50:05Z</time>
      </trkpt>
      <trkpt lat="45.14406" lon="5.82066">
        <ele>560.6</ele>
        <time>2021-05-29T12:50:06Z</time>
      </trkpt>
      <trkpt lat="45.14409" lon="5.82065">
        <ele>560</ele>
        <time>2021-05-29T12:50:07Z</time>
      </trkpt>
      <trkpt lat="45.14412" lon="5.82064">
        <ele>560.2</ele>
        <time>2021-05-29T12:50:08Z</time>
      </trkpt>
      <trkpt lat="45.14416" lon="5.82064">
        <ele>559.6</ele>
        <time>2021-05-29T12:50:09Z</time>
      </trkpt>
      <trkpt lat="45.14419" lon="5.82063">
        <ele>559.6</ele>
        <time>2021-05-29T12:50:10Z</time>
      </trkpt>
      <trkpt lat="45.14422" lon="5.82063">
        <ele>559.2</ele>
        <time>2021-05-29T12:50:11Z</time>
      </trkpt>
      <trkpt lat="45.14425" lon="5.82063">
        <ele>559.2</ele>
        <time>2021-05-29T12:50:12Z</time>
      </trkpt>
      <trkpt lat="45.14428" lon="5.82062">
        <ele>558.6</ele>
        <time>2021-05-29T12:50:13Z</time>
      </trkpt>
      <trkpt lat="45.14431" lon="5.82062">
        <ele>558.6</ele>
        <time>2021-05-29T12:50:14Z</time>
      </trkpt>
      <trkpt lat="45.14434" lon="5.82061">
        <ele>558.2</ele>
        <time>2021-05-29T12:50:15Z</time>
      </trkpt>
      <trkpt lat="45.14435" lon="5.8206">
        <ele>558</ele>
        <time>2021-05-29T12:50:16Z</time>
      </trkpt>
      <trkpt lat="45.14436" lon="5.8206">
        <ele>558</ele>
        <time>2021-05-29T12:50:17Z</time>
      </trkpt>
      <trkpt lat="45.14437" lon="5.82059">
        <ele>557.4</ele>
        <time>2021-05-29T12:50:18Z</time>
      </trkpt>
      <trkpt lat="45.14438" lon="5.82058">
        <ele>557.6</ele>
        <time>2021-05-29T12:50:19Z</time>
      </trkpt>
      <trkpt lat="45.14442" lon="5.82055">
        <ele>556.8</ele>
        <time>2021-05-29T12:50:20Z</time>
      </trkpt>
      <trkpt lat="45.14446" lon="5.82053">
        <ele>557.2</ele>
        <time>2021-05-29T12:50:21Z</time>
      </trkpt>
      <trkpt lat="45.14449" lon="5.8205">
        <ele>556.8</ele>
        <time>2021-05-29T12:50:22Z</time>
      </trkpt>
      <trkpt lat="45.14455" lon="5.82043">
        <ele>557</ele>
        <time>2021-05-29T12:50:23Z</time>
      </trkpt>
      <trkpt lat="45.14458" lon="5.82039">
        <ele>556.4</ele>
        <time>2021-05-29T12:50:24Z</time>
      </trkpt>
      <trkpt lat="45.1446" lon="5.82037">
        <ele>556.8</ele>
        <time>2021-05-29T12:50:25Z</time>
      </trkpt>
      <trkpt lat="45.14462" lon="5.82034">
        <ele>556.2</ele>
        <time>2021-05-29T12:50:26Z</time>
      </trkpt>
      <trkpt lat="45.14464" lon="5.82032">
        <ele>556.6</ele>
        <time>2021-05-29T12:50:27Z</time>
      </trkpt>
      <trkpt lat="45.14467" lon="5.82028">
        <ele>556.4</ele>
        <time>2021-05-29T12:50:28Z</time>
      </trkpt>
      <trkpt lat="45.14469" lon="5.82025">
        <ele>556.2</ele>
        <time>2021-05-29T12:50:29Z</time>
      </trkpt>
      <trkpt lat="45.14471" lon="5.82023">
        <ele>556.2</ele>
        <time>2021-05-29T12:50:30Z</time>
      </trkpt>
      <trkpt lat="45.14472" lon="5.8202">
        <ele>556.2</ele>
        <time>2021-05-29T12:50:31Z</time>
      </trkpt>
      <trkpt lat="45.14474" lon="5.82018">
        <ele>556.4</ele>
        <time>2021-05-29T12:50:33Z</time>
      </trkpt>
      <trkpt lat="45.14475" lon="5.82016">
        <ele>556.6</ele>
        <time>2021-05-29T12:50:34Z</time>
      </trkpt>
      <trkpt lat="45.1448" lon="5.8201">
        <ele>556.4</ele>
        <time>2021-05-29T12:50:35Z</time>
      </trkpt>
      <trkpt lat="45.1448" lon="5.8201">
        <ele>556.4</ele>
        <time>2021-05-29T12:50:36Z</time>
      </trkpt>
      <trkpt lat="45.1448" lon="5.8201">
        <ele>556.4</ele>
        <time>2021-05-29T12:50:37Z</time>
      </trkpt>
      <trkpt lat="45.1448" lon="5.8201">
        <ele>556.6</ele>
        <time>2021-05-29T12:50:38Z</time>
      </trkpt>
      <trkpt lat="45.14482" lon="5.82008">
        <ele>556.4</ele>
        <time>2021-05-29T12:50:39Z</time>
      </trkpt>
      <trkpt lat="45.14484" lon="5.82005">
        <ele>556.4</ele>
        <time>2021-05-29T12:50:40Z</time>
      </trkpt>
      <trkpt lat="45.14487" lon="5.82003">
        <ele>556.2</ele>
        <time>2021-05-29T12:50:41Z</time>
      </trkpt>
      <trkpt lat="45.14489" lon="5.82">
        <ele>556.2</ele>
        <time>2021-05-29T12:50:42Z</time>
      </trkpt>
      <trkpt lat="45.14492" lon="5.81996">
        <ele>556</ele>
        <time>2021-05-29T12:50:43Z</time>
      </trkpt>
      <trkpt lat="45.14495" lon="5.81992">
        <ele>556</ele>
        <time>2021-05-29T12:50:44Z</time>
      </trkpt>
      <trkpt lat="45.14498" lon="5.81988">
        <ele>555.6</ele>
        <time>2021-05-29T12:50:45Z</time>
      </trkpt>
      <trkpt lat="45.14501" lon="5.81984">
        <ele>555.4</ele>
        <time>2021-05-29T12:50:46Z</time>
      </trkpt>
      <trkpt lat="45.14505" lon="5.81978">
        <ele>555.2</ele>
        <time>2021-05-29T12:50:47Z</time>
      </trkpt>
      <trkpt lat="45.14505" lon="5.81978">
        <ele>555.2</ele>
        <time>2021-05-29T12:50:48Z</time>
      </trkpt>
      <trkpt lat="45.14505" lon="5.81978">
        <ele>554.8</ele>
        <time>2021-05-29T12:50:49Z</time>
      </trkpt>
      <trkpt lat="45.14505" lon="5.81978">
        <ele>554.4</ele>
        <time>2021-05-29T12:50:50Z</time>
      </trkpt>
      <trkpt lat="45.14507" lon="5.81975">
        <ele>554.8</ele>
        <time>2021-05-29T12:50:51Z</time>
      </trkpt>
      <trkpt lat="45.1451" lon="5.81972">
        <ele>554.6</ele>
        <time>2021-05-29T12:50:52Z</time>
      </trkpt>
      <trkpt lat="45.14512" lon="5.81969">
        <ele>554.8</ele>
        <time>2021-05-29T12:50:53Z</time>
      </trkpt>
      <trkpt lat="45.14514" lon="5.81966">
        <ele>554.4</ele>
        <time>2021-05-29T12:50:54Z</time>
      </trkpt>
      <trkpt lat="45.14516" lon="5.81964">
        <ele>554.4</ele>
        <time>2021-05-29T12:50:55Z</time>
      </trkpt>
      <trkpt lat="45.14517" lon="5.81961">
        <ele>554.2</ele>
        <time>2021-05-29T12:50:56Z</time>
      </trkpt>
      <trkpt lat="45.14519" lon="5.81958">
        <ele>554</ele>
        <time>2021-05-29T12:50:57Z</time>
      </trkpt>
      <trkpt lat="45.14521" lon="5.81955">
        <ele>553.8</ele>
        <time>2021-05-29T12:50:58Z</time>
      </trkpt>
      <trkpt lat="45.14529" lon="5.81946">
        <ele>553.6</ele>
        <time>2021-05-29T12:50:59Z</time>
      </trkpt>
      <trkpt lat="45.14529" lon="5.81946">
        <ele>553.6</ele>
        <time>2021-05-29T12:51:00Z</time>
      </trkpt>
      <trkpt lat="45.14529" lon="5.81946">
        <ele>553.6</ele>
        <time>2021-05-29T12:51:01Z</time>
      </trkpt>
      <trkpt lat="45.14529" lon="5.81946">
        <ele>553.8</ele>
        <time>2021-05-29T12:51:02Z</time>
      </trkpt>
      <trkpt lat="45.14531" lon="5.81943">
        <ele>554</ele>
        <time>2021-05-29T12:51:03Z</time>
      </trkpt>
      <trkpt lat="45.14533" lon="5.8194">
        <ele>554.2</ele>
        <time>2021-05-29T12:51:04Z</time>
      </trkpt>
      <trkpt lat="45.14534" lon="5.81937">
        <ele>554</ele>
        <time>2021-05-29T12:51:05Z</time>
      </trkpt>
      <trkpt lat="45.14536" lon="5.81935">
        <ele>554.4</ele>
        <time>2021-05-29T12:51:06Z</time>
      </trkpt>
      <trkpt lat="45.14538" lon="5.81932">
        <ele>554.6</ele>
        <time>2021-05-29T12:51:07Z</time>
      </trkpt>
      <trkpt lat="45.1454" lon="5.8193">
        <ele>555</ele>
        <time>2021-05-29T12:51:08Z</time>
      </trkpt>
      <trkpt lat="45.14542" lon="5.81927">
        <ele>555</ele>
        <time>2021-05-29T12:51:09Z</time>
      </trkpt>
      <trkpt lat="45.14544" lon="5.81925">
        <ele>555.6</ele>
        <time>2021-05-29T12:51:10Z</time>
      </trkpt>
      <trkpt lat="45.14546" lon="5.81923">
        <ele>555.4</ele>
        <time>2021-05-29T12:51:11Z</time>
      </trkpt>
      <trkpt lat="45.14548" lon="5.81921">
        <ele>555.6</ele>
        <time>2021-05-29T12:51:12Z</time>
      </trkpt>
      <trkpt lat="45.1455" lon="5.81919">
        <ele>555.4</ele>
        <time>2021-05-29T12:51:13Z</time>
      </trkpt>
      <trkpt lat="45.14552" lon="5.81917">
        <ele>555.6</ele>
        <time>2021-05-29T12:51:14Z</time>
      </trkpt>
      <trkpt lat="45.1456" lon="5.81908">
        <ele>555.6</ele>
        <time>2021-05-29T12:51:15Z</time>
      </trkpt>
      <trkpt lat="45.14562" lon="5.81906">
        <ele>555.8</ele>
        <time>2021-05-29T12:51:16Z</time>
      </trkpt>
      <trkpt lat="45.14564" lon="5.81904">
        <ele>555.6</ele>
        <time>2021-05-29T12:51:17Z</time>
      </trkpt>
      <trkpt lat="45.14565" lon="5.81902">
        <ele>556</ele>
        <time>2021-05-29T12:51:18Z</time>
      </trkpt>
      <trkpt lat="45.14567" lon="5.819">
        <ele>555.4</ele>
        <time>2021-05-29T12:51:19Z</time>
      </trkpt>
      <trkpt lat="45.14569" lon="5.81898">
        <ele>555.8</ele>
        <time>2021-05-29T12:51:20Z</time>
      </trkpt>
      <trkpt lat="45.14572" lon="5.81897">
        <ele>555.6</ele>
        <time>2021-05-29T12:51:21Z</time>
      </trkpt>
      <trkpt lat="45.14574" lon="5.81895">
        <ele>555.6</ele>
        <time>2021-05-29T12:51:22Z</time>
      </trkpt>
      <trkpt lat="45.14576" lon="5.81894">
        <ele>555.8</ele>
        <time>2021-05-29T12:51:23Z</time>
      </trkpt>
      <trkpt lat="45.14578" lon="5.81892">
        <ele>556</ele>
        <time>2021-05-29T12:51:24Z</time>
      </trkpt>
      <trkpt lat="45.1458" lon="5.8189">
        <ele>556.2</ele>
        <time>2021-05-29T12:51:25Z</time>
      </trkpt>
      <trkpt lat="45.14582" lon="5.81889">
        <ele>556.2</ele>
        <time>2021-05-29T12:51:26Z</time>
      </trkpt>
      <trkpt lat="45.14584" lon="5.81887">
        <ele>556.6</ele>
        <time>2021-05-29T12:51:27Z</time>
      </trkpt>
      <trkpt lat="45.14584" lon="5.81887">
        <ele>556.8</ele>
        <time>2021-05-29T12:51:28Z</time>
      </trkpt>
      <trkpt lat="45.14584" lon="5.81887">
        <ele>557.2</ele>
        <time>2021-05-29T12:51:29Z</time>
      </trkpt>
      <trkpt lat="45.14584" lon="5.81887">
        <ele>557.4</ele>
        <time>2021-05-29T12:51:30Z</time>
      </trkpt>
      <trkpt lat="45.14585" lon="5.81885">
        <ele>557.8</ele>
        <time>2021-05-29T12:51:31Z</time>
      </trkpt>
      <trkpt lat="45.14587" lon="5.81884">
        <ele>558</ele>
        <time>2021-05-29T12:51:32Z</time>
      </trkpt>
      <trkpt lat="45.14589" lon="5.81882">
        <ele>558.6</ele>
        <time>2021-05-29T12:51:33Z</time>
      </trkpt>
      <trkpt lat="45.14591" lon="5.81881">
        <ele>558.8</ele>
        <time>2021-05-29T12:51:34Z</time>
      </trkpt>
      <trkpt lat="45.14592" lon="5.8188">
        <ele>559.2</ele>
        <time>2021-05-29T12:51:35Z</time>
      </trkpt>
      <trkpt lat="45.14594" lon="5.81878">
        <ele>559.4</ele>
        <time>2021-05-29T12:51:36Z</time>
      </trkpt>
      <trkpt lat="45.14597" lon="5.81877">
        <ele>560</ele>
        <time>2021-05-29T12:51:37Z</time>
      </trkpt>
      <trkpt lat="45.14599" lon="5.81875">
        <ele>559.8</ele>
        <time>2021-05-29T12:51:38Z</time>
      </trkpt>
      <trkpt lat="45.14601" lon="5.81873">
        <ele>560.2</ele>
        <time>2021-05-29T12:51:39Z</time>
      </trkpt>
      <trkpt lat="45.14603" lon="5.81872">
        <ele>559.8</ele>
        <time>2021-05-29T12:51:40Z</time>
      </trkpt>
      <trkpt lat="45.14605" lon="5.8187">
        <ele>560.2</ele>
        <time>2021-05-29T12:51:41Z</time>
      </trkpt>
      <trkpt lat="45.14607" lon="5.81868">
        <ele>559.8</ele>
        <time>2021-05-29T12:51:42Z</time>
      </trkpt>
      <trkpt lat="45.14609" lon="5.81866">
        <ele>560</ele>
        <time>2021-05-29T12:51:43Z</time>
      </trkpt>
      <trkpt lat="45.14611" lon="5.81865">
        <ele>559.6</ele>
        <time>2021-05-29T12:51:44Z</time>
      </trkpt>
      <trkpt lat="45.14613" lon="5.81861">
        <ele>559.6</ele>
        <time>2021-05-29T12:51:45Z</time>
      </trkpt>
      <trkpt lat="45.14615" lon="5.81858">
        <ele>559.4</ele>
        <time>2021-05-29T12:51:46Z</time>
      </trkpt>
      <trkpt lat="45.14617" lon="5.81854">
        <ele>559.4</ele>
        <time>2021-05-29T12:51:47Z</time>
      </trkpt>
      <trkpt lat="45.14619" lon="5.81851">
        <ele>559.2</ele>
        <time>2021-05-29T12:51:48Z</time>
      </trkpt>
      <trkpt lat="45.14621" lon="5.81848">
        <ele>559.2</ele>
        <time>2021-05-29T12:51:49Z</time>
      </trkpt>
      <trkpt lat="45.14624" lon="5.81843">
        <ele>558.8</ele>
        <time>2021-05-29T12:51:50Z</time>
      </trkpt>
      <trkpt lat="45.14624" lon="5.81843">
        <ele>559.2</ele>
        <time>2021-05-29T12:51:51Z</time>
      </trkpt>
      <trkpt lat="45.14624" lon="5.81843">
        <ele>559</ele>
        <time>2021-05-29T12:51:52Z</time>
      </trkpt>
      <trkpt lat="45.14626" lon="5.81841">
        <ele>559.2</ele>
        <time>2021-05-29T12:51:53Z</time>
      </trkpt>
      <trkpt lat="45.14628" lon="5.81839">
        <ele>559</ele>
        <time>2021-05-29T12:51:54Z</time>
      </trkpt>
      <trkpt lat="45.1463" lon="5.81837">
        <ele>559.2</ele>
        <time>2021-05-29T12:51:55Z</time>
      </trkpt>
      <trkpt lat="45.14632" lon="5.81835">
        <ele>558.8</ele>
        <time>2021-05-29T12:51:56Z</time>
      </trkpt>
      <trkpt lat="45.14635" lon="5.81832">
        <ele>559</ele>
        <time>2021-05-29T12:51:57Z</time>
      </trkpt>
      <trkpt lat="45.14639" lon="5.81829">
        <ele>558.6</ele>
        <time>2021-05-29T12:51:58Z</time>
      </trkpt>
      <trkpt lat="45.14642" lon="5.81825">
        <ele>558.8</ele>
        <time>2021-05-29T12:51:59Z</time>
      </trkpt>
      <trkpt lat="45.14645" lon="5.81822">
        <ele>558.6</ele>
        <time>2021-05-29T12:52:00Z</time>
      </trkpt>
      <trkpt lat="45.1465" lon="5.81817">
        <ele>559</ele>
        <time>2021-05-29T12:52:01Z</time>
      </trkpt>
      <trkpt lat="45.14653" lon="5.81815">
        <ele>558.6</ele>
        <time>2021-05-29T12:52:02Z</time>
      </trkpt>
      <trkpt lat="45.14655" lon="5.81814">
        <ele>558.6</ele>
        <time>2021-05-29T12:52:03Z</time>
      </trkpt>
      <trkpt lat="45.14657" lon="5.81813">
        <ele>558.6</ele>
        <time>2021-05-29T12:52:04Z</time>
      </trkpt>
      <trkpt lat="45.14659" lon="5.81811">
        <ele>558.6</ele>
        <time>2021-05-29T12:52:05Z</time>
      </trkpt>
      <trkpt lat="45.1466" lon="5.81811">
        <ele>558.8</ele>
        <time>2021-05-29T12:52:06Z</time>
      </trkpt>
      <trkpt lat="45.14661" lon="5.8181">
        <ele>558.8</ele>
        <time>2021-05-29T12:52:07Z</time>
      </trkpt>
      <trkpt lat="45.14662" lon="5.8181">
        <ele>559</ele>
        <time>2021-05-29T12:52:08Z</time>
      </trkpt>
      <trkpt lat="45.14663" lon="5.81809">
        <ele>558.8</ele>
        <time>2021-05-29T12:52:09Z</time>
      </trkpt>
      <trkpt lat="45.14666" lon="5.81807">
        <ele>559</ele>
        <time>2021-05-29T12:52:10Z</time>
      </trkpt>
      <trkpt lat="45.1467" lon="5.81804">
        <ele>559.2</ele>
        <time>2021-05-29T12:52:11Z</time>
      </trkpt>
      <trkpt lat="45.14674" lon="5.81802">
        <ele>559.4</ele>
        <time>2021-05-29T12:52:12Z</time>
      </trkpt>
      <trkpt lat="45.14678" lon="5.81798">
        <ele>559.4</ele>
        <time>2021-05-29T12:52:13Z</time>
      </trkpt>
      <trkpt lat="45.14678" lon="5.81798">
        <ele>559.6</ele>
        <time>2021-05-29T12:52:14Z</time>
      </trkpt>
      <trkpt lat="45.14678" lon="5.81798">
        <ele>559.6</ele>
        <time>2021-05-29T12:52:15Z</time>
      </trkpt>
      <trkpt lat="45.14678" lon="5.81798">
        <ele>560</ele>
        <time>2021-05-29T12:52:16Z</time>
      </trkpt>
      <trkpt lat="45.1468" lon="5.81796">
        <ele>560.2</ele>
        <time>2021-05-29T12:52:17Z</time>
      </trkpt>
      <trkpt lat="45.14681" lon="5.81794">
        <ele>560.2</ele>
        <time>2021-05-29T12:52:18Z</time>
      </trkpt>
      <trkpt lat="45.14683" lon="5.81792">
        <ele>560.4</ele>
        <time>2021-05-29T12:52:19Z</time>
      </trkpt>
      <trkpt lat="45.14685" lon="5.8179">
        <ele>560.6</ele>
        <time>2021-05-29T12:52:20Z</time>
      </trkpt>
      <trkpt lat="45.14687" lon="5.81788">
        <ele>560.4</ele>
        <time>2021-05-29T12:52:21Z</time>
      </trkpt>
      <trkpt lat="45.14688" lon="5.81786">
        <ele>560.8</ele>
        <time>2021-05-29T12:52:22Z</time>
      </trkpt>
      <trkpt lat="45.1469" lon="5.81784">
        <ele>560.6</ele>
        <time>2021-05-29T12:52:23Z</time>
      </trkpt>
      <trkpt lat="45.14692" lon="5.81782">
        <ele>560.8</ele>
        <time>2021-05-29T12:52:24Z</time>
      </trkpt>
      <trkpt lat="45.14693" lon="5.8178">
        <ele>560.6</ele>
        <time>2021-05-29T12:52:25Z</time>
      </trkpt>
      <trkpt lat="45.14701" lon="5.81773">
        <ele>560.8</ele>
        <time>2021-05-29T12:52:26Z</time>
      </trkpt>
      <trkpt lat="45.14701" lon="5.81773">
        <ele>560.4</ele>
        <time>2021-05-29T12:52:27Z</time>
      </trkpt>
      <trkpt lat="45.14701" lon="5.81773">
        <ele>560.6</ele>
        <time>2021-05-29T12:52:28Z</time>
      </trkpt>
      <trkpt lat="45.14701" lon="5.81773">
        <ele>560.6</ele>
        <time>2021-05-29T12:52:29Z</time>
      </trkpt>
      <trkpt lat="45.14702" lon="5.81771">
        <ele>560.6</ele>
        <time>2021-05-29T12:52:30Z</time>
      </trkpt>
      <trkpt lat="45.14704" lon="5.8177">
        <ele>560.4</ele>
        <time>2021-05-29T12:52:31Z</time>
      </trkpt>
      <trkpt lat="45.14706" lon="5.81769">
        <ele>560.4</ele>
        <time>2021-05-29T12:52:32Z</time>
      </trkpt>
      <trkpt lat="45.14708" lon="5.81767">
        <ele>560</ele>
        <time>2021-05-29T12:52:33Z</time>
      </trkpt>
      <trkpt lat="45.1471" lon="5.81766">
        <ele>560</ele>
        <time>2021-05-29T12:52:34Z</time>
      </trkpt>
      <trkpt lat="45.14713" lon="5.8176">
        <ele>560</ele>
        <time>2021-05-29T12:52:35Z</time>
      </trkpt>
      <trkpt lat="45.14716" lon="5.81753">
        <ele>559.8</ele>
        <time>2021-05-29T12:52:36Z</time>
      </trkpt>
      <trkpt lat="45.14719" lon="5.81746">
        <ele>559.6</ele>
        <time>2021-05-29T12:52:37Z</time>
      </trkpt>
      <trkpt lat="45.14723" lon="5.8174">
        <ele>559.8</ele>
        <time>2021-05-29T12:52:38Z</time>
      </trkpt>
      <trkpt lat="45.14726" lon="5.81733">
        <ele>559.8</ele>
        <time>2021-05-29T12:52:39Z</time>
      </trkpt>
      <trkpt lat="45.14729" lon="5.81726">
        <ele>559.8</ele>
        <time>2021-05-29T12:52:40Z</time>
      </trkpt>
      <trkpt lat="45.14732" lon="5.81717">
        <ele>559.6</ele>
        <time>2021-05-29T12:52:41Z</time>
      </trkpt>
      <trkpt lat="45.14734" lon="5.81714">
        <ele>559.8</ele>
        <time>2021-05-29T12:52:42Z</time>
      </trkpt>
      <trkpt lat="45.14736" lon="5.81711">
        <ele>559.6</ele>
        <time>2021-05-29T12:52:43Z</time>
      </trkpt>
      <trkpt lat="45.1474" lon="5.81702">
        <ele>559.6</ele>
        <time>2021-05-29T12:52:44Z</time>
      </trkpt>
      <trkpt lat="45.14741" lon="5.81701">
        <ele>559.6</ele>
        <time>2021-05-29T12:52:45Z</time>
      </trkpt>
      <trkpt lat="45.14742" lon="5.81699">
        <ele>559.4</ele>
        <time>2021-05-29T12:52:46Z</time>
      </trkpt>
      <trkpt lat="45.14745" lon="5.81694">
        <ele>559.4</ele>
        <time>2021-05-29T12:52:47Z</time>
      </trkpt>
      <trkpt lat="45.14745" lon="5.81694">
        <ele>559.2</ele>
        <time>2021-05-29T12:52:48Z</time>
      </trkpt>
      <trkpt lat="45.14745" lon="5.81694">
        <ele>559.2</ele>
        <time>2021-05-29T12:52:49Z</time>
      </trkpt>
      <trkpt lat="45.14745" lon="5.81694">
        <ele>559</ele>
        <time>2021-05-29T12:52:50Z</time>
      </trkpt>
      <trkpt lat="45.14746" lon="5.81691">
        <ele>559</ele>
        <time>2021-05-29T12:52:51Z</time>
      </trkpt>
      <trkpt lat="45.14747" lon="5.81689">
        <ele>559</ele>
        <time>2021-05-29T12:52:52Z</time>
      </trkpt>
      <trkpt lat="45.14748" lon="5.81686">
        <ele>559.2</ele>
        <time>2021-05-29T12:52:53Z</time>
      </trkpt>
      <trkpt lat="45.14749" lon="5.81683">
        <ele>558.8</ele>
        <time>2021-05-29T12:52:54Z</time>
      </trkpt>
      <trkpt lat="45.1475" lon="5.8168">
        <ele>559</ele>
        <time>2021-05-29T12:52:55Z</time>
      </trkpt>
      <trkpt lat="45.14752" lon="5.81678">
        <ele>558.8</ele>
        <time>2021-05-29T12:52:56Z</time>
      </trkpt>
      <trkpt lat="45.14754" lon="5.81676">
        <ele>559.2</ele>
        <time>2021-05-29T12:52:57Z</time>
      </trkpt>
      <trkpt lat="45.14756" lon="5.81673">
        <ele>558.8</ele>
        <time>2021-05-29T12:52:58Z</time>
      </trkpt>
      <trkpt lat="45.14758" lon="5.81671">
        <ele>559.2</ele>
        <time>2021-05-29T12:52:59Z</time>
      </trkpt>
      <trkpt lat="45.14761" lon="5.81671">
        <ele>559.2</ele>
        <time>2021-05-29T12:53:00Z</time>
      </trkpt>
      <trkpt lat="45.14764" lon="5.81672">
        <ele>559.4</ele>
        <time>2021-05-29T12:53:01Z</time>
      </trkpt>
      <trkpt lat="45.14767" lon="5.81672">
        <ele>559.2</ele>
        <time>2021-05-29T12:53:02Z</time>
      </trkpt>
      <trkpt lat="45.1477" lon="5.81672">
        <ele>559.4</ele>
        <time>2021-05-29T12:53:03Z</time>
      </trkpt>
      <trkpt lat="45.14772" lon="5.81673">
        <ele>559.4</ele>
        <time>2021-05-29T12:53:04Z</time>
      </trkpt>
      <trkpt lat="45.14775" lon="5.81673">
        <ele>559.4</ele>
        <time>2021-05-29T12:53:05Z</time>
      </trkpt>
      <trkpt lat="45.14778" lon="5.81673">
        <ele>559.4</ele>
        <time>2021-05-29T12:53:06Z</time>
      </trkpt>
      <trkpt lat="45.14781" lon="5.81674">
        <ele>559.4</ele>
        <time>2021-05-29T12:53:07Z</time>
      </trkpt>
      <trkpt lat="45.14789" lon="5.81678">
        <ele>559.6</ele>
        <time>2021-05-29T12:53:08Z</time>
      </trkpt>
      <trkpt lat="45.14791" lon="5.81678">
        <ele>559.8</ele>
        <time>2021-05-29T12:53:09Z</time>
      </trkpt>
      <trkpt lat="45.14792" lon="5.81678">
        <ele>560</ele>
        <time>2021-05-29T12:53:10Z</time>
      </trkpt>
      <trkpt lat="45.14797" lon="5.81679">
        <ele>560.2</ele>
        <time>2021-05-29T12:53:11Z</time>
      </trkpt>
      <trkpt lat="45.14802" lon="5.8168">
        <ele>560.4</ele>
        <time>2021-05-29T12:53:12Z</time>
      </trkpt>
      <trkpt lat="45.14807" lon="5.81682">
        <ele>560.4</ele>
        <time>2021-05-29T12:53:13Z</time>
      </trkpt>
      <trkpt lat="45.14807" lon="5.81682">
        <ele>560.6</ele>
        <time>2021-05-29T12:53:14Z</time>
      </trkpt>
      <trkpt lat="45.14807" lon="5.81682">
        <ele>560.6</ele>
        <time>2021-05-29T12:53:15Z</time>
      </trkpt>
      <trkpt lat="45.1481" lon="5.81682">
        <ele>560.6</ele>
        <time>2021-05-29T12:53:16Z</time>
      </trkpt>
      <trkpt lat="45.14813" lon="5.81683">
        <ele>560.6</ele>
        <time>2021-05-29T12:53:17Z</time>
      </trkpt>
      <trkpt lat="45.14815" lon="5.81684">
        <ele>560.4</ele>
        <time>2021-05-29T12:53:18Z</time>
      </trkpt>
      <trkpt lat="45.14818" lon="5.81685">
        <ele>560.4</ele>
        <time>2021-05-29T12:53:19Z</time>
      </trkpt>
      <trkpt lat="45.14822" lon="5.81685">
        <ele>560.2</ele>
        <time>2021-05-29T12:53:20Z</time>
      </trkpt>
      <trkpt lat="45.14825" lon="5.81686">
        <ele>560.4</ele>
        <time>2021-05-29T12:53:21Z</time>
      </trkpt>
      <trkpt lat="45.14828" lon="5.81686">
        <ele>560.4</ele>
        <time>2021-05-29T12:53:22Z</time>
      </trkpt>
      <trkpt lat="45.14831" lon="5.81687">
        <ele>561</ele>
        <time>2021-05-29T12:53:23Z</time>
      </trkpt>
      <trkpt lat="45.14835" lon="5.81688">
        <ele>560.6</ele>
        <time>2021-05-29T12:53:24Z</time>
      </trkpt>
      <trkpt lat="45.14839" lon="5.81689">
        <ele>561</ele>
        <time>2021-05-29T12:53:25Z</time>
      </trkpt>
      <trkpt lat="45.14843" lon="5.8169">
        <ele>560.6</ele>
        <time>2021-05-29T12:53:26Z</time>
      </trkpt>
      <trkpt lat="45.14847" lon="5.81691">
        <ele>561</ele>
        <time>2021-05-29T12:53:27Z</time>
      </trkpt>
      <trkpt lat="45.14851" lon="5.81693">
        <ele>560.6</ele>
        <time>2021-05-29T12:53:28Z</time>
      </trkpt>
      <trkpt lat="45.14853" lon="5.81694">
        <ele>560.6</ele>
        <time>2021-05-29T12:53:29Z</time>
      </trkpt>
      <trkpt lat="45.14854" lon="5.81694">
        <ele>560.2</ele>
        <time>2021-05-29T12:53:30Z</time>
      </trkpt>
      <trkpt lat="45.14855" lon="5.81694">
        <ele>560.4</ele>
        <time>2021-05-29T12:53:31Z</time>
      </trkpt>
      <trkpt lat="45.14859" lon="5.81696">
        <ele>559.8</ele>
        <time>2021-05-29T12:53:32Z</time>
      </trkpt>
      <trkpt lat="45.14863" lon="5.81697">
        <ele>559.8</ele>
        <time>2021-05-29T12:53:33Z</time>
      </trkpt>
      <trkpt lat="45.14867" lon="5.81698">
        <ele>559.4</ele>
        <time>2021-05-29T12:53:34Z</time>
      </trkpt>
      <trkpt lat="45.14874" lon="5.81701">
        <ele>559.4</ele>
        <time>2021-05-29T12:53:35Z</time>
      </trkpt>
      <trkpt lat="45.14875" lon="5.81701">
        <ele>559.2</ele>
        <time>2021-05-29T12:53:36Z</time>
      </trkpt>
      <trkpt lat="45.14877" lon="5.81702">
        <ele>559</ele>
        <time>2021-05-29T12:53:37Z</time>
      </trkpt>
      <trkpt lat="45.14881" lon="5.81703">
        <ele>558.8</ele>
        <time>2021-05-29T12:53:38Z</time>
      </trkpt>
      <trkpt lat="45.14881" lon="5.81703">
        <ele>558.4</ele>
        <time>2021-05-29T12:53:39Z</time>
      </trkpt>
      <trkpt lat="45.14881" lon="5.81703">
        <ele>558.4</ele>
        <time>2021-05-29T12:53:40Z</time>
      </trkpt>
      <trkpt lat="45.14883" lon="5.81705">
        <ele>558.2</ele>
        <time>2021-05-29T12:53:41Z</time>
      </trkpt>
      <trkpt lat="45.14885" lon="5.81706">
        <ele>558.2</ele>
        <time>2021-05-29T12:53:42Z</time>
      </trkpt>
      <trkpt lat="45.14887" lon="5.81708">
        <ele>558.2</ele>
        <time>2021-05-29T12:53:43Z</time>
      </trkpt>
      <trkpt lat="45.14889" lon="5.81709">
        <ele>558.4</ele>
        <time>2021-05-29T12:53:44Z</time>
      </trkpt>
      <trkpt lat="45.1489" lon="5.81709">
        <ele>558.6</ele>
        <time>2021-05-29T12:53:45Z</time>
      </trkpt>
      <trkpt lat="45.14891" lon="5.81709">
        <ele>558.8</ele>
        <time>2021-05-29T12:53:46Z</time>
      </trkpt>
      <trkpt lat="45.14892" lon="5.81709">
        <ele>559</ele>
        <time>2021-05-29T12:53:47Z</time>
      </trkpt>
      <trkpt lat="45.14893" lon="5.81709">
        <ele>559.2</ele>
        <time>2021-05-29T12:53:48Z</time>
      </trkpt>
      <trkpt lat="45.14895" lon="5.81709">
        <ele>559.4</ele>
        <time>2021-05-29T12:53:49Z</time>
      </trkpt>
      <trkpt lat="45.14896" lon="5.81709">
        <ele>559.4</ele>
        <time>2021-05-29T12:53:50Z</time>
      </trkpt>
      <trkpt lat="45.14897" lon="5.81709">
        <ele>559.4</ele>
        <time>2021-05-29T12:53:51Z</time>
      </trkpt>
      <trkpt lat="45.14898" lon="5.81709">
        <ele>559.6</ele>
        <time>2021-05-29T12:53:52Z</time>
      </trkpt>
      <trkpt lat="45.14899" lon="5.81709">
        <ele>559.8</ele>
        <time>2021-05-29T12:53:53Z</time>
      </trkpt>
      <trkpt lat="45.149" lon="5.8171">
        <ele>559.8</ele>
        <time>2021-05-29T12:53:54Z</time>
      </trkpt>
      <trkpt lat="45.14901" lon="5.8171">
        <ele>560.2</ele>
        <time>2021-05-29T12:53:55Z</time>
      </trkpt>
      <trkpt lat="45.14903" lon="5.8171">
        <ele>560.2</ele>
        <time>2021-05-29T12:53:56Z</time>
      </trkpt>
      <trkpt lat="45.14904" lon="5.8171">
        <ele>560.6</ele>
        <time>2021-05-29T12:53:57Z</time>
      </trkpt>
      <trkpt lat="45.14906" lon="5.8171">
        <ele>560.8</ele>
        <time>2021-05-29T12:53:58Z</time>
      </trkpt>
      <trkpt lat="45.14907" lon="5.8171">
        <ele>561.2</ele>
        <time>2021-05-29T12:53:59Z</time>
      </trkpt>
      <trkpt lat="45.14908" lon="5.81711">
        <ele>561.2</ele>
        <time>2021-05-29T12:54:00Z</time>
      </trkpt>
      <trkpt lat="45.14909" lon="5.8171">
        <ele>561.6</ele>
        <time>2021-05-29T12:54:01Z</time>
      </trkpt>
      <trkpt lat="45.14911" lon="5.8171">
        <ele>561.8</ele>
        <time>2021-05-29T12:54:02Z</time>
      </trkpt>
      <trkpt lat="45.14912" lon="5.81709">
        <ele>562</ele>
        <time>2021-05-29T12:54:03Z</time>
      </trkpt>
      <trkpt lat="45.14913" lon="5.81708">
        <ele>562.2</ele>
        <time>2021-05-29T12:54:04Z</time>
      </trkpt>
      <trkpt lat="45.14914" lon="5.81708">
        <ele>562.6</ele>
        <time>2021-05-29T12:54:05Z</time>
      </trkpt>
      <trkpt lat="45.14915" lon="5.81707">
        <ele>562.6</ele>
        <time>2021-05-29T12:54:06Z</time>
      </trkpt>
      <trkpt lat="45.14916" lon="5.81707">
        <ele>562.8</ele>
        <time>2021-05-29T12:54:07Z</time>
      </trkpt>
      <trkpt lat="45.14917" lon="5.81706">
        <ele>563</ele>
        <time>2021-05-29T12:54:08Z</time>
      </trkpt>
      <trkpt lat="45.14918" lon="5.81706">
        <ele>563.2</ele>
        <time>2021-05-29T12:54:09Z</time>
      </trkpt>
      <trkpt lat="45.14919" lon="5.81705">
        <ele>563.4</ele>
        <time>2021-05-29T12:54:10Z</time>
      </trkpt>
      <trkpt lat="45.14921" lon="5.81703">
        <ele>563.6</ele>
        <time>2021-05-29T12:54:11Z</time>
      </trkpt>
      <trkpt lat="45.14922" lon="5.81702">
        <ele>563.6</ele>
        <time>2021-05-29T12:54:12Z</time>
      </trkpt>
      <trkpt lat="45.14924" lon="5.81701">
        <ele>564</ele>
        <time>2021-05-29T12:54:13Z</time>
      </trkpt>
      <trkpt lat="45.14925" lon="5.817">
        <ele>564.2</ele>
        <time>2021-05-29T12:54:14Z</time>
      </trkpt>
      <trkpt lat="45.14927" lon="5.81699">
        <ele>564.2</ele>
        <time>2021-05-29T12:54:15Z</time>
      </trkpt>
      <trkpt lat="45.14927" lon="5.81699">
        <ele>564.4</ele>
        <time>2021-05-29T12:54:16Z</time>
      </trkpt>
      <trkpt lat="45.14927" lon="5.81699">
        <ele>564.6</ele>
        <time>2021-05-29T12:54:17Z</time>
      </trkpt>
      <trkpt lat="45.14927" lon="5.81699">
        <ele>564.8</ele>
        <time>2021-05-29T12:54:18Z</time>
      </trkpt>
      <trkpt lat="45.14927" lon="5.81699">
        <ele>565</ele>
        <time>2021-05-29T12:54:19Z</time>
      </trkpt>
      <trkpt lat="45.14927" lon="5.81699">
        <ele>565.2</ele>
        <time>2021-05-29T12:54:20Z</time>
      </trkpt>
      <trkpt lat="45.14928" lon="5.81699">
        <ele>565.6</ele>
        <time>2021-05-29T12:54:21Z</time>
      </trkpt>
      <trkpt lat="45.14928" lon="5.81699">
        <ele>565.6</ele>
        <time>2021-05-29T12:54:22Z</time>
      </trkpt>
      <trkpt lat="45.14928" lon="5.81699">
        <ele>565.6</ele>
        <time>2021-05-29T12:54:23Z</time>
      </trkpt>
      <trkpt lat="45.14928" lon="5.81699">
        <ele>565.8</ele>
        <time>2021-05-29T12:54:24Z</time>
      </trkpt>
      <trkpt lat="45.14928" lon="5.81699">
        <ele>565.8</ele>
        <time>2021-05-29T12:54:25Z</time>
      </trkpt>
      <trkpt lat="45.14928" lon="5.81699">
        <ele>565.8</ele>
        <time>2021-05-29T12:54:26Z</time>
      </trkpt>
      <trkpt lat="45.14929" lon="5.817">
        <ele>565.8</ele>
        <time>2021-05-29T12:54:27Z</time>
      </trkpt>
      <trkpt lat="45.14929" lon="5.817">
        <ele>565.8</ele>
        <time>2021-05-29T12:54:28Z</time>
      </trkpt>
      <trkpt lat="45.14929" lon="5.817">
        <ele>565.8</ele>
        <time>2021-05-29T12:54:29Z</time>
      </trkpt>
      <trkpt lat="45.14929" lon="5.817">
        <ele>566</ele>
        <time>2021-05-29T12:54:30Z</time>
      </trkpt>
      <trkpt lat="45.14929" lon="5.817">
        <ele>566</ele>
        <time>2021-05-29T12:54:31Z</time>
      </trkpt>
      <trkpt lat="45.14929" lon="5.817">
        <ele>566</ele>
        <time>2021-05-29T12:54:32Z</time>
      </trkpt>
      <trkpt lat="45.14929" lon="5.817">
        <ele>566</ele>
        <time>2021-05-29T12:54:33Z</time>
      </trkpt>
      <trkpt lat="45.1493" lon="5.817">
        <ele>566</ele>
        <time>2021-05-29T12:54:34Z</time>
      </trkpt>
      <trkpt lat="45.1493" lon="5.817">
        <ele>565.8</ele>
        <time>2021-05-29T12:54:35Z</time>
      </trkpt>
      <trkpt lat="45.1493" lon="5.817">
        <ele>565.8</ele>
        <time>2021-05-29T12:54:36Z</time>
      </trkpt>
      <trkpt lat="45.1493" lon="5.817">
        <ele>565.8</ele>
        <time>2021-05-29T12:54:37Z</time>
      </trkpt>
      <trkpt lat="45.1493" lon="5.817">
        <ele>566</ele>
        <time>2021-05-29T12:54:38Z</time>
      </trkpt>
      <trkpt lat="45.1493" lon="5.817">
        <ele>566.2</ele>
        <time>2021-05-29T12:54:39Z</time>
      </trkpt>
      <trkpt lat="45.14931" lon="5.817">
        <ele>566.6</ele>
        <time>2021-05-29T12:54:40Z</time>
      </trkpt>
      <trkpt lat="45.14931" lon="5.817">
        <ele>566.6</ele>
        <time>2021-05-29T12:54:41Z</time>
      </trkpt>
      <trkpt lat="45.14931" lon="5.817">
        <ele>566.4</ele>
        <time>2021-05-29T12:54:42Z</time>
      </trkpt>
      <trkpt lat="45.14931" lon="5.817">
        <ele>566.2</ele>
        <time>2021-05-29T12:54:43Z</time>
      </trkpt>
      <trkpt lat="45.14931" lon="5.817">
        <ele>566.2</ele>
        <time>2021-05-29T12:54:44Z</time>
      </trkpt>
      <trkpt lat="45.14931" lon="5.817">
        <ele>566.2</ele>
        <time>2021-05-29T12:54:45Z</time>
      </trkpt>
      <trkpt lat="45.14932" lon="5.817">
        <ele>566</ele>
        <time>2021-05-29T12:54:46Z</time>
      </trkpt>
      <trkpt lat="45.14932" lon="5.817">
        <ele>566</ele>
        <time>2021-05-29T12:54:47Z</time>
      </trkpt>
      <trkpt lat="45.14932" lon="5.817">
        <ele>566</ele>
        <time>2021-05-29T12:54:48Z</time>
      </trkpt>
      <trkpt lat="45.14932" lon="5.817">
        <ele>566</ele>
        <time>2021-05-29T12:54:49Z</time>
      </trkpt>
      <trkpt lat="45.14932" lon="5.817">
        <ele>566.2</ele>
        <time>2021-05-29T12:54:50Z</time>
      </trkpt>
      <trkpt lat="45.14932" lon="5.817">
        <ele>566.2</ele>
        <time>2021-05-29T12:54:51Z</time>
      </trkpt>
      <trkpt lat="45.14932" lon="5.817">
        <ele>566.4</ele>
        <time>2021-05-29T12:54:52Z</time>
      </trkpt>
      <trkpt lat="45.14933" lon="5.817">
        <ele>566.4</ele>
        <time>2021-05-29T12:54:53Z</time>
      </trkpt>
      <trkpt lat="45.14933" lon="5.817">
        <ele>566.8</ele>
        <time>2021-05-29T12:54:54Z</time>
      </trkpt>
      <trkpt lat="45.14933" lon="5.817">
        <ele>566.6</ele>
        <time>2021-05-29T12:54:55Z</time>
      </trkpt>
      <trkpt lat="45.14933" lon="5.817">
        <ele>566.6</ele>
        <time>2021-05-29T12:54:56Z</time>
      </trkpt>
      <trkpt lat="45.14933" lon="5.817">
        <ele>566.6</ele>
        <time>2021-05-29T12:54:57Z</time>
      </trkpt>
      <trkpt lat="45.14933" lon="5.817">
        <ele>566.8</ele>
        <time>2021-05-29T12:54:58Z</time>
      </trkpt>
      <trkpt lat="45.14934" lon="5.817">
        <ele>566.8</ele>
        <time>2021-05-29T12:54:59Z</time>
      </trkpt>
      <trkpt lat="45.14934" lon="5.81701">
        <ele>566.4</ele>
        <time>2021-05-29T12:55:00Z</time>
      </trkpt>
      <trkpt lat="45.14934" lon="5.81701">
        <ele>566.2</ele>
        <time>2021-05-29T12:55:01Z</time>
      </trkpt>
      <trkpt lat="45.14934" lon="5.81701">
        <ele>566</ele>
        <time>2021-05-29T12:55:02Z</time>
      </trkpt>
      <trkpt lat="45.14934" lon="5.81701">
        <ele>566</ele>
        <time>2021-05-29T12:55:03Z</time>
      </trkpt>
      <trkpt lat="45.14934" lon="5.81701">
        <ele>566</ele>
        <time>2021-05-29T12:55:04Z</time>
      </trkpt>
      <trkpt lat="45.14935" lon="5.81701">
        <ele>565.8</ele>
        <time>2021-05-29T12:55:05Z</time>
      </trkpt>
      <trkpt lat="45.14935" lon="5.81701">
        <ele>565.8</ele>
        <time>2021-05-29T12:55:06Z</time>
      </trkpt>
      <trkpt lat="45.14935" lon="5.81701">
        <ele>565.8</ele>
        <time>2021-05-29T12:55:07Z</time>
      </trkpt>
      <trkpt lat="45.14935" lon="5.81701">
        <ele>566</ele>
        <time>2021-05-29T12:55:08Z</time>
      </trkpt>
      <trkpt lat="45.14935" lon="5.81701">
        <ele>566</ele>
        <time>2021-05-29T12:55:09Z</time>
      </trkpt>
      <trkpt lat="45.14935" lon="5.81701">
        <ele>565.8</ele>
        <time>2021-05-29T12:55:10Z</time>
      </trkpt>
      <trkpt lat="45.14935" lon="5.81701">
        <ele>566</ele>
        <time>2021-05-29T12:55:11Z</time>
      </trkpt>
      <trkpt lat="45.14936" lon="5.81701">
        <ele>566</ele>
        <time>2021-05-29T12:55:12Z</time>
      </trkpt>
      <trkpt lat="45.14936" lon="5.81701">
        <ele>566</ele>
        <time>2021-05-29T12:55:13Z</time>
      </trkpt>
      <trkpt lat="45.14936" lon="5.81701">
        <ele>566</ele>
        <time>2021-05-29T12:55:14Z</time>
      </trkpt>
      <trkpt lat="45.14936" lon="5.81701">
        <ele>566</ele>
        <time>2021-05-29T12:55:15Z</time>
      </trkpt>
      <trkpt lat="45.14936" lon="5.81701">
        <ele>566</ele>
        <time>2021-05-29T12:55:16Z</time>
      </trkpt>
      <trkpt lat="45.14936" lon="5.81701">
        <ele>566</ele>
        <time>2021-05-29T12:55:17Z</time>
      </trkpt>
      <trkpt lat="45.14937" lon="5.81701">
        <ele>565.8</ele>
        <time>2021-05-29T12:55:18Z</time>
      </trkpt>
      <trkpt lat="45.14937" lon="5.81701">
        <ele>565.8</ele>
        <time>2021-05-29T12:55:19Z</time>
      </trkpt>
      <trkpt lat="45.14937" lon="5.81701">
        <ele>564.4</ele>
        <time>2021-05-29T12:55:20Z</time>
      </trkpt>
      <trkpt lat="45.14937" lon="5.81701">
        <ele>562.6</ele>
        <time>2021-05-29T12:55:21Z</time>
      </trkpt>
      <trkpt lat="45.14937" lon="5.81701">
        <ele>560.2</ele>
        <time>2021-05-29T12:55:22Z</time>
      </trkpt>
      <trkpt lat="45.14937" lon="5.81701">
        <ele>560</ele>
        <time>2021-05-29T12:55:23Z</time>
      </trkpt>
      <trkpt lat="45.14937" lon="5.81702">
        <ele>561.6</ele>
        <time>2021-05-29T12:55:24Z</time>
      </trkpt>
      <trkpt lat="45.14937" lon="5.81702">
        <ele>562.8</ele>
        <time>2021-05-29T12:55:25Z</time>
      </trkpt>
      <trkpt lat="45.14937" lon="5.81702">
        <ele>563.2</ele>
        <time>2021-05-29T12:55:26Z</time>
      </trkpt>
      <trkpt lat="45.14937" lon="5.81702">
        <ele>563.8</ele>
        <time>2021-05-29T12:55:27Z</time>
      </trkpt>
      <trkpt lat="45.14937" lon="5.81702">
        <ele>562.6</ele>
        <time>2021-05-29T12:55:28Z</time>
      </trkpt>
      <trkpt lat="45.14936" lon="5.81702">
        <ele>564</ele>
        <time>2021-05-29T12:55:29Z</time>
      </trkpt>
      <trkpt lat="45.14936" lon="5.81702">
        <ele>565.4</ele>
        <time>2021-05-29T12:55:30Z</time>
      </trkpt>
      <trkpt lat="45.14936" lon="5.81702">
        <ele>565.6</ele>
        <time>2021-05-29T12:55:31Z</time>
      </trkpt>
      <trkpt lat="45.14936" lon="5.81703">
        <ele>565.2</ele>
        <time>2021-05-29T12:55:32Z</time>
      </trkpt>
      <trkpt lat="45.14936" lon="5.81703">
        <ele>565.4</ele>
        <time>2021-05-29T12:55:33Z</time>
      </trkpt>
      <trkpt lat="45.14936" lon="5.81703">
        <ele>565.6</ele>
        <time>2021-05-29T12:55:34Z</time>
      </trkpt>
      <trkpt lat="45.14936" lon="5.81703">
        <ele>565.8</ele>
        <time>2021-05-29T12:55:35Z</time>
      </trkpt>
      <trkpt lat="45.14936" lon="5.81703">
        <ele>566</ele>
        <time>2021-05-29T12:55:36Z</time>
      </trkpt>
      <trkpt lat="45.14936" lon="5.81703">
        <ele>566</ele>
        <time>2021-05-29T12:55:37Z</time>
      </trkpt>
      <trkpt lat="45.14936" lon="5.81703">
        <ele>566.2</ele>
        <time>2021-05-29T12:55:38Z</time>
      </trkpt>
      <trkpt lat="45.14936" lon="5.81704">
        <ele>566</ele>
        <time>2021-05-29T12:55:39Z</time>
      </trkpt>
      <trkpt lat="45.14936" lon="5.81704">
        <ele>566.2</ele>
        <time>2021-05-29T12:55:40Z</time>
      </trkpt>
      <trkpt lat="45.14936" lon="5.81704">
        <ele>566.2</ele>
        <time>2021-05-29T12:55:41Z</time>
      </trkpt>
      <trkpt lat="45.14936" lon="5.81704">
        <ele>566.2</ele>
        <time>2021-05-29T12:55:42Z</time>
      </trkpt>
      <trkpt lat="45.14935" lon="5.81704">
        <ele>566</ele>
        <time>2021-05-29T12:55:43Z</time>
      </trkpt>
      <trkpt lat="45.14935" lon="5.81704">
        <ele>566</ele>
        <time>2021-05-29T12:55:44Z</time>
      </trkpt>
      <trkpt lat="45.14935" lon="5.81704">
        <ele>566</ele>
        <time>2021-05-29T12:55:45Z</time>
      </trkpt>
      <trkpt lat="45.14935" lon="5.81704">
        <ele>566</ele>
        <time>2021-05-29T12:55:46Z</time>
      </trkpt>
      <trkpt lat="45.14935" lon="5.81705">
        <ele>566.2</ele>
        <time>2021-05-29T12:55:47Z</time>
      </trkpt>
      <trkpt lat="45.14935" lon="5.81705">
        <ele>566.4</ele>
        <time>2021-05-29T12:55:48Z</time>
      </trkpt>
      <trkpt lat="45.14935" lon="5.81705">
        <ele>566.6</ele>
        <time>2021-05-29T12:55:49Z</time>
      </trkpt>
      <trkpt lat="45.14935" lon="5.81705">
        <ele>566.6</ele>
        <time>2021-05-29T12:55:50Z</time>
      </trkpt>
      <trkpt lat="45.14935" lon="5.81705">
        <ele>566.8</ele>
        <time>2021-05-29T12:55:51Z</time>
      </trkpt>
      <trkpt lat="45.14935" lon="5.81705">
        <ele>566.8</ele>
        <time>2021-05-29T12:55:52Z</time>
      </trkpt>
      <trkpt lat="45.14935" lon="5.81705">
        <ele>567</ele>
        <time>2021-05-29T12:55:53Z</time>
      </trkpt>
      <trkpt lat="45.14935" lon="5.81705">
        <ele>566.8</ele>
        <time>2021-05-29T12:55:54Z</time>
      </trkpt>
      <trkpt lat="45.14935" lon="5.81706">
        <ele>567</ele>
        <time>2021-05-29T12:55:55Z</time>
      </trkpt>
      <trkpt lat="45.14934" lon="5.81706">
        <ele>567.2</ele>
        <time>2021-05-29T12:55:56Z</time>
      </trkpt>
      <trkpt lat="45.14934" lon="5.81706">
        <ele>567.2</ele>
        <time>2021-05-29T12:55:57Z</time>
      </trkpt>
      <trkpt lat="45.14934" lon="5.81706">
        <ele>567</ele>
        <time>2021-05-29T12:55:58Z</time>
      </trkpt>
      <trkpt lat="45.14934" lon="5.81706">
        <ele>566.8</ele>
        <time>2021-05-29T12:55:59Z</time>
      </trkpt>
      <trkpt lat="45.14934" lon="5.81706">
        <ele>566.8</ele>
        <time>2021-05-29T12:56:00Z</time>
      </trkpt>
      <trkpt lat="45.14934" lon="5.81706">
        <ele>566.6</ele>
        <time>2021-05-29T12:56:01Z</time>
      </trkpt>
      <trkpt lat="45.14934" lon="5.81707">
        <ele>566.8</ele>
        <time>2021-05-29T12:56:02Z</time>
      </trkpt>
      <trkpt lat="45.14934" lon="5.81707">
        <ele>566.6</ele>
        <time>2021-05-29T12:56:03Z</time>
      </trkpt>
      <trkpt lat="45.14934" lon="5.81707">
        <ele>566.4</ele>
        <time>2021-05-29T12:56:04Z</time>
      </trkpt>
      <trkpt lat="45.14934" lon="5.81707">
        <ele>566.2</ele>
        <time>2021-05-29T12:56:05Z</time>
      </trkpt>
      <trkpt lat="45.14934" lon="5.81707">
        <ele>566</ele>
        <time>2021-05-29T12:56:06Z</time>
      </trkpt>
      <trkpt lat="45.14934" lon="5.81707">
        <ele>566</ele>
        <time>2021-05-29T12:56:07Z</time>
      </trkpt>
      <trkpt lat="45.14934" lon="5.81707">
        <ele>566</ele>
        <time>2021-05-29T12:56:08Z</time>
      </trkpt>
      <trkpt lat="45.14934" lon="5.81707">
        <ele>566</ele>
        <time>2021-05-29T12:56:09Z</time>
      </trkpt>
      <trkpt lat="45.14933" lon="5.81708">
        <ele>566.2</ele>
        <time>2021-05-29T12:56:10Z</time>
      </trkpt>
      <trkpt lat="45.14933" lon="5.81708">
        <ele>566.2</ele>
        <time>2021-05-29T12:56:11Z</time>
      </trkpt>
      <trkpt lat="45.14933" lon="5.81708">
        <ele>566</ele>
        <time>2021-05-29T12:56:12Z</time>
      </trkpt>
      <trkpt lat="45.14933" lon="5.81708">
        <ele>565.8</ele>
        <time>2021-05-29T12:56:13Z</time>
      </trkpt>
      <trkpt lat="45.14933" lon="5.81708">
        <ele>565.6</ele>
        <time>2021-05-29T12:56:14Z</time>
      </trkpt>
      <trkpt lat="45.14933" lon="5.81708">
        <ele>565.4</ele>
        <time>2021-05-29T12:56:15Z</time>
      </trkpt>
      <trkpt lat="45.14933" lon="5.81708">
        <ele>565.6</ele>
        <time>2021-05-29T12:56:16Z</time>
      </trkpt>
      <trkpt lat="45.14933" lon="5.81709">
        <ele>565.4</ele>
        <time>2021-05-29T12:56:17Z</time>
      </trkpt>
      <trkpt lat="45.14933" lon="5.81709">
        <ele>565.4</ele>
        <time>2021-05-29T12:56:18Z</time>
      </trkpt>
      <trkpt lat="45.14933" lon="5.81709">
        <ele>565.6</ele>
        <time>2021-05-29T12:56:19Z</time>
      </trkpt>
      <trkpt lat="45.14933" lon="5.81709">
        <ele>565.8</ele>
        <time>2021-05-29T12:56:20Z</time>
      </trkpt>
      <trkpt lat="45.14933" lon="5.81709">
        <ele>566.2</ele>
        <time>2021-05-29T12:56:21Z</time>
      </trkpt>
      <trkpt lat="45.14933" lon="5.81709">
        <ele>566.2</ele>
        <time>2021-05-29T12:56:22Z</time>
      </trkpt>
      <trkpt lat="45.14933" lon="5.81709">
        <ele>566.2</ele>
        <time>2021-05-29T12:56:23Z</time>
      </trkpt>
      <trkpt lat="45.14932" lon="5.81709">
        <ele>566.4</ele>
        <time>2021-05-29T12:56:24Z</time>
      </trkpt>
      <trkpt lat="45.14932" lon="5.81709">
        <ele>566.2</ele>
        <time>2021-05-29T12:56:25Z</time>
      </trkpt>
      <trkpt lat="45.14932" lon="5.81709">
        <ele>566.2</ele>
        <time>2021-05-29T12:56:26Z</time>
      </trkpt>
      <trkpt lat="45.14932" lon="5.81709">
        <ele>566</ele>
        <time>2021-05-29T12:56:27Z</time>
      </trkpt>
      <trkpt lat="45.14932" lon="5.81709">
        <ele>566</ele>
        <time>2021-05-29T12:56:28Z</time>
      </trkpt>
      <trkpt lat="45.14932" lon="5.81709">
        <ele>566</ele>
        <time>2021-05-29T12:56:29Z</time>
      </trkpt>
      <trkpt lat="45.14932" lon="5.81712">
        <ele>566</ele>
        <time>2021-05-29T12:56:30Z</time>
      </trkpt>
      <trkpt lat="45.14932" lon="5.81712">
        <ele>566</ele>
        <time>2021-05-29T12:56:31Z</time>
      </trkpt>
      <trkpt lat="45.14932" lon="5.81712">
        <ele>565.8</ele>
        <time>2021-05-29T12:56:32Z</time>
      </trkpt>
      <trkpt lat="45.14932" lon="5.81712">
        <ele>565.6</ele>
        <time>2021-05-29T12:56:33Z</time>
      </trkpt>
      <trkpt lat="45.14932" lon="5.81712">
        <ele>565.4</ele>
        <time>2021-05-29T12:56:34Z</time>
      </trkpt>
      <trkpt lat="45.14932" lon="5.81712">
        <ele>565.4</ele>
        <time>2021-05-29T12:56:35Z</time>
      </trkpt>
      <trkpt lat="45.14932" lon="5.81712">
        <ele>565.2</ele>
        <time>2021-05-29T12:56:36Z</time>
      </trkpt>
      <trkpt lat="45.14932" lon="5.81712">
        <ele>565</ele>
        <time>2021-05-29T12:56:37Z</time>
      </trkpt>
      <trkpt lat="45.14932" lon="5.81712">
        <ele>565</ele>
        <time>2021-05-29T12:56:38Z</time>
      </trkpt>
      <trkpt lat="45.14932" lon="5.81715">
        <ele>565</ele>
        <time>2021-05-29T12:56:39Z</time>
      </trkpt>
      <trkpt lat="45.14932" lon="5.81715">
        <ele>564.8</ele>
        <time>2021-05-29T12:56:40Z</time>
      </trkpt>
      <trkpt lat="45.14932" lon="5.81715">
        <ele>564.6</ele>
        <time>2021-05-29T12:56:41Z</time>
      </trkpt>
      <trkpt lat="45.14932" lon="5.81715">
        <ele>564.4</ele>
        <time>2021-05-29T12:56:42Z</time>
      </trkpt>
      <trkpt lat="45.14932" lon="5.81715">
        <ele>564.6</ele>
        <time>2021-05-29T12:56:43Z</time>
      </trkpt>
      <trkpt lat="45.14932" lon="5.81715">
        <ele>564.6</ele>
        <time>2021-05-29T12:56:44Z</time>
      </trkpt>
      <trkpt lat="45.14932" lon="5.81715">
        <ele>564.6</ele>
        <time>2021-05-29T12:56:45Z</time>
      </trkpt>
      <trkpt lat="45.14932" lon="5.81715">
        <ele>564.6</ele>
        <time>2021-05-29T12:56:46Z</time>
      </trkpt>
      <trkpt lat="45.14932" lon="5.81715">
        <ele>564.8</ele>
        <time>2021-05-29T12:56:47Z</time>
      </trkpt>
      <trkpt lat="45.14932" lon="5.81715">
        <ele>565.2</ele>
        <time>2021-05-29T12:56:48Z</time>
      </trkpt>
      <trkpt lat="45.14932" lon="5.81715">
        <ele>565.2</ele>
        <time>2021-05-29T12:56:49Z</time>
      </trkpt>
      <trkpt lat="45.14932" lon="5.81715">
        <ele>565.2</ele>
        <time>2021-05-29T12:56:50Z</time>
      </trkpt>
      <trkpt lat="45.14932" lon="5.81715">
        <ele>565.6</ele>
        <time>2021-05-29T12:56:51Z</time>
      </trkpt>
      <trkpt lat="45.14932" lon="5.81715">
        <ele>565.6</ele>
        <time>2021-05-29T12:56:52Z</time>
      </trkpt>
      <trkpt lat="45.14932" lon="5.81715">
        <ele>565.6</ele>
        <time>2021-05-29T12:56:53Z</time>
      </trkpt>
      <trkpt lat="45.14932" lon="5.81715">
        <ele>565.6</ele>
        <time>2021-05-29T12:56:54Z</time>
      </trkpt>
      <trkpt lat="45.14932" lon="5.81715">
        <ele>565.6</ele>
        <time>2021-05-29T12:56:55Z</time>
      </trkpt>
      <trkpt lat="45.14932" lon="5.81715">
        <ele>565.8</ele>
        <time>2021-05-29T12:56:56Z</time>
      </trkpt>
      <trkpt lat="45.14934" lon="5.81714">
        <ele>565.8</ele>
        <time>2021-05-29T12:56:57Z</time>
      </trkpt>
      <trkpt lat="45.14934" lon="5.81714">
        <ele>565.6</ele>
        <time>2021-05-29T12:56:58Z</time>
      </trkpt>
      <trkpt lat="45.14934" lon="5.81714">
        <ele>565.4</ele>
        <time>2021-05-29T12:56:59Z</time>
      </trkpt>
      <trkpt lat="45.14934" lon="5.81714">
        <ele>565.4</ele>
        <time>2021-05-29T12:57:00Z</time>
      </trkpt>
      <trkpt lat="45.14934" lon="5.81714">
        <ele>565.4</ele>
        <time>2021-05-29T12:57:01Z</time>
      </trkpt>
      <trkpt lat="45.14934" lon="5.81714">
        <ele>565.4</ele>
        <time>2021-05-29T12:57:02Z</time>
      </trkpt>
      <trkpt lat="45.14934" lon="5.81714">
        <ele>565.4</ele>
        <time>2021-05-29T12:57:03Z</time>
      </trkpt>
      <trkpt lat="45.14934" lon="5.81714">
        <ele>565.4</ele>
        <time>2021-05-29T12:57:04Z</time>
      </trkpt>
      <trkpt lat="45.14934" lon="5.81714">
        <ele>565.4</ele>
        <time>2021-05-29T12:57:05Z</time>
      </trkpt>
      <trkpt lat="45.14934" lon="5.81714">
        <ele>565.4</ele>
        <time>2021-05-29T12:57:06Z</time>
      </trkpt>
      <trkpt lat="45.14934" lon="5.81714">
        <ele>565.4</ele>
        <time>2021-05-29T12:57:07Z</time>
      </trkpt>
      <trkpt lat="45.14934" lon="5.81714">
        <ele>565.4</ele>
        <time>2021-05-29T12:57:08Z</time>
      </trkpt>
      <trkpt lat="45.14934" lon="5.81714">
        <ele>565.4</ele>
        <time>2021-05-29T12:57:09Z</time>
      </trkpt>
      <trkpt lat="45.14934" lon="5.81714">
        <ele>565.4</ele>
        <time>2021-05-29T12:57:10Z</time>
      </trkpt>
      <trkpt lat="45.14934" lon="5.81714">
        <ele>565.6</ele>
        <time>2021-05-29T12:57:11Z</time>
      </trkpt>
      <trkpt lat="45.14934" lon="5.81714">
        <ele>565.6</ele>
        <time>2021-05-29T12:57:12Z</time>
      </trkpt>
      <trkpt lat="45.14934" lon="5.81714">
        <ele>565.6</ele>
        <time>2021-05-29T12:57:13Z</time>
      </trkpt>
      <trkpt lat="45.14934" lon="5.81714">
        <ele>565.6</ele>
        <time>2021-05-29T12:57:14Z</time>
      </trkpt>
      <trkpt lat="45.14934" lon="5.81714">
        <ele>565.6</ele>
        <time>2021-05-29T12:57:15Z</time>
      </trkpt>
      <trkpt lat="45.14934" lon="5.81714">
        <ele>565.6</ele>
        <time>2021-05-29T12:57:16Z</time>
      </trkpt>
      <trkpt lat="45.14934" lon="5.81714">
        <ele>565.6</ele>
        <time>2021-05-29T12:57:17Z</time>
      </trkpt>
      <trkpt lat="45.14934" lon="5.81714">
        <ele>565.4</ele>
        <time>2021-05-29T12:57:18Z</time>
      </trkpt>
      <trkpt lat="45.14934" lon="5.81714">
        <ele>565.2</ele>
        <time>2021-05-29T12:57:19Z</time>
      </trkpt>
      <trkpt lat="45.14934" lon="5.81714">
        <ele>565.2</ele>
        <time>2021-05-29T12:57:20Z</time>
      </trkpt>
      <trkpt lat="45.14934" lon="5.81714">
        <ele>565</ele>
        <time>2021-05-29T12:57:21Z</time>
      </trkpt>
      <trkpt lat="45.14934" lon="5.81714">
        <ele>565</ele>
        <time>2021-05-29T12:57:22Z</time>
      </trkpt>
      <trkpt lat="45.14936" lon="5.81713">
        <ele>564.8</ele>
        <time>2021-05-29T12:57:23Z</time>
      </trkpt>
      <trkpt lat="45.14936" lon="5.81713">
        <ele>564.8</ele>
        <time>2021-05-29T12:57:24Z</time>
      </trkpt>
      <trkpt lat="45.14936" lon="5.81713">
        <ele>564.8</ele>
        <time>2021-05-29T12:57:25Z</time>
      </trkpt>
      <trkpt lat="45.14936" lon="5.81713">
        <ele>564.6</ele>
        <time>2021-05-29T12:57:26Z</time>
      </trkpt>
      <trkpt lat="45.14936" lon="5.81713">
        <ele>564.6</ele>
        <time>2021-05-29T12:57:27Z</time>
      </trkpt>
      <trkpt lat="45.14936" lon="5.81713">
        <ele>564.6</ele>
        <time>2021-05-29T12:57:28Z</time>
      </trkpt>
      <trkpt lat="45.14937" lon="5.81712">
        <ele>564.6</ele>
        <time>2021-05-29T12:57:29Z</time>
      </trkpt>
      <trkpt lat="45.14937" lon="5.81712">
        <ele>564.6</ele>
        <time>2021-05-29T12:57:30Z</time>
      </trkpt>
      <trkpt lat="45.14937" lon="5.81712">
        <ele>564.8</ele>
        <time>2021-05-29T12:57:31Z</time>
      </trkpt>
      <trkpt lat="45.14937" lon="5.81712">
        <ele>565</ele>
        <time>2021-05-29T12:57:32Z</time>
      </trkpt>
      <trkpt lat="45.14937" lon="5.81712">
        <ele>565.2</ele>
        <time>2021-05-29T12:57:33Z</time>
      </trkpt>
      <trkpt lat="45.14937" lon="5.81712">
        <ele>565.2</ele>
        <time>2021-05-29T12:57:34Z</time>
      </trkpt>
      <trkpt lat="45.14937" lon="5.81712">
        <ele>565.4</ele>
        <time>2021-05-29T12:57:35Z</time>
      </trkpt>
      <trkpt lat="45.14937" lon="5.81712">
        <ele>565.2</ele>
        <time>2021-05-29T12:57:36Z</time>
      </trkpt>
      <trkpt lat="45.14937" lon="5.81712">
        <ele>565.2</ele>
        <time>2021-05-29T12:57:37Z</time>
      </trkpt>
      <trkpt lat="45.14937" lon="5.81712">
        <ele>565.2</ele>
        <time>2021-05-29T12:57:38Z</time>
      </trkpt>
      <trkpt lat="45.14937" lon="5.81712">
        <ele>565.2</ele>
        <time>2021-05-29T12:57:39Z</time>
      </trkpt>
      <trkpt lat="45.14937" lon="5.81712">
        <ele>565.4</ele>
        <time>2021-05-29T12:57:40Z</time>
      </trkpt>
      <trkpt lat="45.14937" lon="5.81712">
        <ele>565.2</ele>
        <time>2021-05-29T12:57:41Z</time>
      </trkpt>
      <trkpt lat="45.14937" lon="5.81712">
        <ele>565.2</ele>
        <time>2021-05-29T12:57:42Z</time>
      </trkpt>
      <trkpt lat="45.14939" lon="5.81711">
        <ele>565.2</ele>
        <time>2021-05-29T12:57:43Z</time>
      </trkpt>
      <trkpt lat="45.14939" lon="5.81711">
        <ele>565.2</ele>
        <time>2021-05-29T12:57:44Z</time>
      </trkpt>
      <trkpt lat="45.14939" lon="5.81711">
        <ele>565.4</ele>
        <time>2021-05-29T12:57:45Z</time>
      </trkpt>
      <trkpt lat="45.14939" lon="5.81711">
        <ele>565.4</ele>
        <time>2021-05-29T12:57:46Z</time>
      </trkpt>
      <trkpt lat="45.14939" lon="5.81711">
        <ele>565.4</ele>
        <time>2021-05-29T12:57:47Z</time>
      </trkpt>
      <trkpt lat="45.14939" lon="5.81711">
        <ele>565.2</ele>
        <time>2021-05-29T12:57:48Z</time>
      </trkpt>
      <trkpt lat="45.14939" lon="5.81711">
        <ele>565.2</ele>
        <time>2021-05-29T12:57:49Z</time>
      </trkpt>
      <trkpt lat="45.14939" lon="5.81711">
        <ele>565.2</ele>
        <time>2021-05-29T12:57:50Z</time>
      </trkpt>
      <trkpt lat="45.1494" lon="5.81709">
        <ele>565.2</ele>
        <time>2021-05-29T12:57:51Z</time>
      </trkpt>
      <trkpt lat="45.1494" lon="5.81709">
        <ele>565.2</ele>
        <time>2021-05-29T12:57:52Z</time>
      </trkpt>
      <trkpt lat="45.1494" lon="5.81709">
        <ele>565.2</ele>
        <time>2021-05-29T12:57:53Z</time>
      </trkpt>
      <trkpt lat="45.1494" lon="5.81709">
        <ele>565.4</ele>
        <time>2021-05-29T12:57:54Z</time>
      </trkpt>
      <trkpt lat="45.1494" lon="5.81709">
        <ele>565.2</ele>
        <time>2021-05-29T12:57:55Z</time>
      </trkpt>
      <trkpt lat="45.1494" lon="5.81709">
        <ele>565</ele>
        <time>2021-05-29T12:57:56Z</time>
      </trkpt>
      <trkpt lat="45.1494" lon="5.81709">
        <ele>564.8</ele>
        <time>2021-05-29T12:57:57Z</time>
      </trkpt>
      <trkpt lat="45.1494" lon="5.81709">
        <ele>564.6</ele>
        <time>2021-05-29T12:57:58Z</time>
      </trkpt>
      <trkpt lat="45.1494" lon="5.81709">
        <ele>564.6</ele>
        <time>2021-05-29T12:57:59Z</time>
      </trkpt>
      <trkpt lat="45.1494" lon="5.81709">
        <ele>564.8</ele>
        <time>2021-05-29T12:58:00Z</time>
      </trkpt>
      <trkpt lat="45.1494" lon="5.81709">
        <ele>565</ele>
        <time>2021-05-29T12:58:01Z</time>
      </trkpt>
      <trkpt lat="45.1494" lon="5.81709">
        <ele>565</ele>
        <time>2021-05-29T12:58:02Z</time>
      </trkpt>
      <trkpt lat="45.1494" lon="5.81709">
        <ele>565</ele>
        <time>2021-05-29T12:58:03Z</time>
      </trkpt>
      <trkpt lat="45.1494" lon="5.81709">
        <ele>565.2</ele>
        <time>2021-05-29T12:58:04Z</time>
      </trkpt>
      <trkpt lat="45.1494" lon="5.81709">
        <ele>565.2</ele>
        <time>2021-05-29T12:58:05Z</time>
      </trkpt>
      <trkpt lat="45.1494" lon="5.81709">
        <ele>565.2</ele>
        <time>2021-05-29T12:58:06Z</time>
      </trkpt>
      <trkpt lat="45.1494" lon="5.81709">
        <ele>565.2</ele>
        <time>2021-05-29T12:58:07Z</time>
      </trkpt>
      <trkpt lat="45.1494" lon="5.81709">
        <ele>565.2</ele>
        <time>2021-05-29T12:58:08Z</time>
      </trkpt>
      <trkpt lat="45.1494" lon="5.81709">
        <ele>565.2</ele>
        <time>2021-05-29T12:58:09Z</time>
      </trkpt>
      <trkpt lat="45.1494" lon="5.81709">
        <ele>565.2</ele>
        <time>2021-05-29T12:58:10Z</time>
      </trkpt>
      <trkpt lat="45.1494" lon="5.81709">
        <ele>565</ele>
        <time>2021-05-29T12:58:11Z</time>
      </trkpt>
      <trkpt lat="45.1494" lon="5.81709">
        <ele>565.2</ele>
        <time>2021-05-29T12:58:12Z</time>
      </trkpt>
      <trkpt lat="45.14943" lon="5.81709">
        <ele>565.4</ele>
        <time>2021-05-29T12:58:13Z</time>
      </trkpt>
      <trkpt lat="45.14943" lon="5.81709">
        <ele>565.4</ele>
        <time>2021-05-29T12:58:14Z</time>
      </trkpt>
      <trkpt lat="45.14943" lon="5.81709">
        <ele>565.4</ele>
        <time>2021-05-29T12:58:15Z</time>
      </trkpt>
      <trkpt lat="45.14943" lon="5.81709">
        <ele>565.6</ele>
        <time>2021-05-29T12:58:16Z</time>
      </trkpt>
      <trkpt lat="45.14943" lon="5.81709">
        <ele>565.6</ele>
        <time>2021-05-29T12:58:17Z</time>
      </trkpt>
      <trkpt lat="45.14943" lon="5.81709">
        <ele>565.6</ele>
        <time>2021-05-29T12:58:18Z</time>
      </trkpt>
      <trkpt lat="45.14943" lon="5.81709">
        <ele>565.6</ele>
        <time>2021-05-29T12:58:19Z</time>
      </trkpt>
      <trkpt lat="45.14943" lon="5.81709">
        <ele>565.4</ele>
        <time>2021-05-29T12:58:20Z</time>
      </trkpt>
      <trkpt lat="45.14943" lon="5.81709">
        <ele>565.2</ele>
        <time>2021-05-29T12:58:21Z</time>
      </trkpt>
      <trkpt lat="45.14943" lon="5.81709">
        <ele>565.2</ele>
        <time>2021-05-29T12:58:22Z</time>
      </trkpt>
      <trkpt lat="45.14943" lon="5.81709">
        <ele>565.2</ele>
        <time>2021-05-29T12:58:23Z</time>
      </trkpt>
      <trkpt lat="45.14943" lon="5.81709">
        <ele>565.4</ele>
        <time>2021-05-29T12:58:24Z</time>
      </trkpt>
      <trkpt lat="45.14943" lon="5.81709">
        <ele>565.4</ele>
        <time>2021-05-29T12:58:25Z</time>
      </trkpt>
      <trkpt lat="45.14943" lon="5.81709">
        <ele>565.4</ele>
        <time>2021-05-29T12:58:26Z</time>
      </trkpt>
      <trkpt lat="45.14943" lon="5.81709">
        <ele>565.6</ele>
        <time>2021-05-29T12:58:27Z</time>
      </trkpt>
      <trkpt lat="45.14943" lon="5.81709">
        <ele>565.6</ele>
        <time>2021-05-29T12:58:28Z</time>
      </trkpt>
      <trkpt lat="45.14943" lon="5.81709">
        <ele>565.6</ele>
        <time>2021-05-29T12:58:29Z</time>
      </trkpt>
      <trkpt lat="45.14943" lon="5.81709">
        <ele>565.6</ele>
        <time>2021-05-29T12:58:30Z</time>
      </trkpt>
      <trkpt lat="45.14943" lon="5.81709">
        <ele>565.6</ele>
        <time>2021-05-29T12:58:31Z</time>
      </trkpt>
      <trkpt lat="45.14943" lon="5.81709">
        <ele>565.6</ele>
        <time>2021-05-29T12:58:32Z</time>
      </trkpt>
      <trkpt lat="45.14942" lon="5.81707">
        <ele>565.6</ele>
        <time>2021-05-29T12:58:33Z</time>
      </trkpt>
      <trkpt lat="45.14942" lon="5.81706">
        <ele>565.4</ele>
        <time>2021-05-29T12:58:34Z</time>
      </trkpt>
      <trkpt lat="45.14942" lon="5.81706">
        <ele>565.6</ele>
        <time>2021-05-29T12:58:35Z</time>
      </trkpt>
      <trkpt lat="45.14942" lon="5.81706">
        <ele>565</ele>
        <time>2021-05-29T12:58:36Z</time>
      </trkpt>
      <trkpt lat="45.14942" lon="5.81706">
        <ele>565</ele>
        <time>2021-05-29T12:58:37Z</time>
      </trkpt>
      <trkpt lat="45.14942" lon="5.81706">
        <ele>565</ele>
        <time>2021-05-29T12:58:38Z</time>
      </trkpt>
      <trkpt lat="45.14942" lon="5.81706">
        <ele>564.8</ele>
        <time>2021-05-29T12:58:39Z</time>
      </trkpt>
      <trkpt lat="45.14942" lon="5.81706">
        <ele>564.6</ele>
        <time>2021-05-29T12:58:40Z</time>
      </trkpt>
      <trkpt lat="45.14942" lon="5.81706">
        <ele>564.6</ele>
        <time>2021-05-29T12:58:41Z</time>
      </trkpt>
      <trkpt lat="45.14943" lon="5.81705">
        <ele>564.4</ele>
        <time>2021-05-29T12:58:42Z</time>
      </trkpt>
      <trkpt lat="45.14943" lon="5.81705">
        <ele>564.4</ele>
        <time>2021-05-29T12:58:43Z</time>
      </trkpt>
      <trkpt lat="45.14943" lon="5.81705">
        <ele>564.2</ele>
        <time>2021-05-29T12:58:44Z</time>
      </trkpt>
      <trkpt lat="45.14943" lon="5.81705">
        <ele>564.4</ele>
        <time>2021-05-29T12:58:45Z</time>
      </trkpt>
      <trkpt lat="45.14943" lon="5.81705">
        <ele>564.4</ele>
        <time>2021-05-29T12:58:46Z</time>
      </trkpt>
      <trkpt lat="45.14943" lon="5.81705">
        <ele>564.4</ele>
        <time>2021-05-29T12:58:47Z</time>
      </trkpt>
      <trkpt lat="45.14943" lon="5.81705">
        <ele>564.4</ele>
        <time>2021-05-29T12:58:48Z</time>
      </trkpt>
      <trkpt lat="45.14943" lon="5.81705">
        <ele>564.4</ele>
        <time>2021-05-29T12:58:49Z</time>
      </trkpt>
      <trkpt lat="45.14943" lon="5.81704">
        <ele>564.6</ele>
        <time>2021-05-29T12:58:50Z</time>
      </trkpt>
      <trkpt lat="45.14943" lon="5.81704">
        <ele>564.6</ele>
        <time>2021-05-29T12:58:51Z</time>
      </trkpt>
      <trkpt lat="45.14943" lon="5.81704">
        <ele>564.6</ele>
        <time>2021-05-29T12:58:52Z</time>
      </trkpt>
      <trkpt lat="45.14943" lon="5.81704">
        <ele>564.6</ele>
        <time>2021-05-29T12:58:53Z</time>
      </trkpt>
      <trkpt lat="45.14944" lon="5.81704">
        <ele>564.6</ele>
        <time>2021-05-29T12:58:54Z</time>
      </trkpt>
      <trkpt lat="45.14944" lon="5.81704">
        <ele>564.8</ele>
        <time>2021-05-29T12:58:55Z</time>
      </trkpt>
      <trkpt lat="45.14944" lon="5.81704">
        <ele>564.6</ele>
        <time>2021-05-29T12:58:56Z</time>
      </trkpt>
      <trkpt lat="45.14944" lon="5.81704">
        <ele>564.4</ele>
        <time>2021-05-29T12:58:57Z</time>
      </trkpt>
      <trkpt lat="45.14944" lon="5.81703">
        <ele>564.4</ele>
        <time>2021-05-29T12:58:58Z</time>
      </trkpt>
      <trkpt lat="45.14944" lon="5.81703">
        <ele>564.2</ele>
        <time>2021-05-29T12:58:59Z</time>
      </trkpt>
      <trkpt lat="45.14944" lon="5.81703">
        <ele>564</ele>
        <time>2021-05-29T12:59:00Z</time>
      </trkpt>
      <trkpt lat="45.14944" lon="5.81703">
        <ele>564</ele>
        <time>2021-05-29T12:59:01Z</time>
      </trkpt>
      <trkpt lat="45.14944" lon="5.81703">
        <ele>564</ele>
        <time>2021-05-29T12:59:02Z</time>
      </trkpt>
      <trkpt lat="45.14944" lon="5.81703">
        <ele>564</ele>
        <time>2021-05-29T12:59:03Z</time>
      </trkpt>
      <trkpt lat="45.14944" lon="5.81703">
        <ele>564</ele>
        <time>2021-05-29T12:59:04Z</time>
      </trkpt>
      <trkpt lat="45.14944" lon="5.81703">
        <ele>564</ele>
        <time>2021-05-29T12:59:05Z</time>
      </trkpt>
      <trkpt lat="45.14944" lon="5.81702">
        <ele>564.4</ele>
        <time>2021-05-29T12:59:06Z</time>
      </trkpt>
      <trkpt lat="45.14945" lon="5.81702">
        <ele>564.4</ele>
        <time>2021-05-29T12:59:07Z</time>
      </trkpt>
      <trkpt lat="45.14945" lon="5.81702">
        <ele>564.2</ele>
        <time>2021-05-29T12:59:08Z</time>
      </trkpt>
      <trkpt lat="45.14945" lon="5.81702">
        <ele>564.4</ele>
        <time>2021-05-29T12:59:09Z</time>
      </trkpt>
      <trkpt lat="45.14945" lon="5.81702">
        <ele>564.8</ele>
        <time>2021-05-29T12:59:10Z</time>
      </trkpt>
      <trkpt lat="45.14945" lon="5.81702">
        <ele>565</ele>
        <time>2021-05-29T12:59:11Z</time>
      </trkpt>
      <trkpt lat="45.14945" lon="5.81702">
        <ele>565</ele>
        <time>2021-05-29T12:59:12Z</time>
      </trkpt>
      <trkpt lat="45.14945" lon="5.81702">
        <ele>565</ele>
        <time>2021-05-29T12:59:13Z</time>
      </trkpt>
      <trkpt lat="45.14945" lon="5.81702">
        <ele>565.2</ele>
        <time>2021-05-29T12:59:14Z</time>
      </trkpt>
      <trkpt lat="45.14945" lon="5.81702">
        <ele>565.2</ele>
        <time>2021-05-29T12:59:15Z</time>
      </trkpt>
      <trkpt lat="45.14945" lon="5.81702">
        <ele>565.2</ele>
        <time>2021-05-29T12:59:16Z</time>
      </trkpt>
      <trkpt lat="45.14945" lon="5.81702">
        <ele>565.2</ele>
        <time>2021-05-29T12:59:17Z</time>
      </trkpt>
      <trkpt lat="45.14945" lon="5.81702">
        <ele>565.2</ele>
        <time>2021-05-29T12:59:18Z</time>
      </trkpt>
      <trkpt lat="45.14945" lon="5.81702">
        <ele>565.2</ele>
        <time>2021-05-29T12:59:19Z</time>
      </trkpt>
      <trkpt lat="45.14945" lon="5.81702">
        <ele>565.2</ele>
        <time>2021-05-29T12:59:20Z</time>
      </trkpt>
      <trkpt lat="45.14945" lon="5.81702">
        <ele>565.2</ele>
        <time>2021-05-29T12:59:21Z</time>
      </trkpt>
      <trkpt lat="45.14945" lon="5.81702">
        <ele>565.2</ele>
        <time>2021-05-29T12:59:22Z</time>
      </trkpt>
      <trkpt lat="45.14945" lon="5.81702">
        <ele>565.2</ele>
        <time>2021-05-29T12:59:23Z</time>
      </trkpt>
      <trkpt lat="45.14945" lon="5.81702">
        <ele>565.2</ele>
        <time>2021-05-29T12:59:24Z</time>
      </trkpt>
      <trkpt lat="45.14945" lon="5.81702">
        <ele>565.2</ele>
        <time>2021-05-29T12:59:25Z</time>
      </trkpt>
      <trkpt lat="45.14945" lon="5.81702">
        <ele>565.2</ele>
        <time>2021-05-29T12:59:26Z</time>
      </trkpt>
      <trkpt lat="45.14945" lon="5.81702">
        <ele>565.2</ele>
        <time>2021-05-29T12:59:27Z</time>
      </trkpt>
      <trkpt lat="45.14945" lon="5.81702">
        <ele>565.2</ele>
        <time>2021-05-29T12:59:28Z</time>
      </trkpt>
      <trkpt lat="45.14945" lon="5.81702">
        <ele>565.2</ele>
        <time>2021-05-29T12:59:29Z</time>
      </trkpt>
      <trkpt lat="45.14945" lon="5.81702">
        <ele>565.2</ele>
        <time>2021-05-29T12:59:30Z</time>
      </trkpt>
      <trkpt lat="45.14945" lon="5.81702">
        <ele>565.4</ele>
        <time>2021-05-29T12:59:31Z</time>
      </trkpt>
      <trkpt lat="45.14945" lon="5.81702">
        <ele>565.2</ele>
        <time>2021-05-29T12:59:32Z</time>
      </trkpt>
      <trkpt lat="45.14945" lon="5.81702">
        <ele>565.2</ele>
        <time>2021-05-29T12:59:33Z</time>
      </trkpt>
      <trkpt lat="45.14945" lon="5.81702">
        <ele>565.2</ele>
        <time>2021-05-29T12:59:34Z</time>
      </trkpt>
      <trkpt lat="45.14945" lon="5.81702">
        <ele>565</ele>
        <time>2021-05-29T12:59:35Z</time>
      </trkpt>
      <trkpt lat="45.14945" lon="5.81702">
        <ele>565.2</ele>
        <time>2021-05-29T12:59:36Z</time>
      </trkpt>
      <trkpt lat="45.14945" lon="5.81702">
        <ele>565.2</ele>
        <time>2021-05-29T12:59:37Z</time>
      </trkpt>
      <trkpt lat="45.14945" lon="5.81702">
        <ele>565.2</ele>
        <time>2021-05-29T12:59:38Z</time>
      </trkpt>
      <trkpt lat="45.14945" lon="5.81702">
        <ele>565.2</ele>
        <time>2021-05-29T12:59:39Z</time>
      </trkpt>
      <trkpt lat="45.14945" lon="5.81702">
        <ele>565.4</ele>
        <time>2021-05-29T12:59:40Z</time>
      </trkpt>
      <trkpt lat="45.14945" lon="5.81702">
        <ele>565.4</ele>
        <time>2021-05-29T12:59:41Z</time>
      </trkpt>
      <trkpt lat="45.14945" lon="5.81702">
        <ele>565.2</ele>
        <time>2021-05-29T12:59:42Z</time>
      </trkpt>
      <trkpt lat="45.14945" lon="5.81702">
        <ele>565.2</ele>
        <time>2021-05-29T12:59:43Z</time>
      </trkpt>
      <trkpt lat="45.14945" lon="5.81702">
        <ele>565.2</ele>
        <time>2021-05-29T12:59:44Z</time>
      </trkpt>
      <trkpt lat="45.14943" lon="5.817">
        <ele>565.2</ele>
        <time>2021-05-29T12:59:45Z</time>
      </trkpt>
      <trkpt lat="45.14943" lon="5.817">
        <ele>565</ele>
        <time>2021-05-29T12:59:46Z</time>
      </trkpt>
      <trkpt lat="45.14943" lon="5.817">
        <ele>565</ele>
        <time>2021-05-29T12:59:47Z</time>
      </trkpt>
      <trkpt lat="45.14943" lon="5.817">
        <ele>565</ele>
        <time>2021-05-29T12:59:48Z</time>
      </trkpt>
      <trkpt lat="45.14943" lon="5.817">
        <ele>565</ele>
        <time>2021-05-29T12:59:49Z</time>
      </trkpt>
      <trkpt lat="45.14943" lon="5.817">
        <ele>565</ele>
        <time>2021-05-29T12:59:50Z</time>
      </trkpt>
      <trkpt lat="45.14943" lon="5.817">
        <ele>565.2</ele>
        <time>2021-05-29T12:59:51Z</time>
      </trkpt>
      <trkpt lat="45.14943" lon="5.817">
        <ele>565</ele>
        <time>2021-05-29T12:59:52Z</time>
      </trkpt>
      <trkpt lat="45.14943" lon="5.817">
        <ele>565</ele>
        <time>2021-05-29T12:59:53Z</time>
      </trkpt>
      <trkpt lat="45.14943" lon="5.817">
        <ele>565</ele>
        <time>2021-05-29T12:59:54Z</time>
      </trkpt>
      <trkpt lat="45.14943" lon="5.817">
        <ele>565</ele>
        <time>2021-05-29T12:59:55Z</time>
      </trkpt>
      <trkpt lat="45.14943" lon="5.81698">
        <ele>564.8</ele>
        <time>2021-05-29T12:59:56Z</time>
      </trkpt>
      <trkpt lat="45.14943" lon="5.81698">
        <ele>564.8</ele>
        <time>2021-05-29T12:59:57Z</time>
      </trkpt>
      <trkpt lat="45.14943" lon="5.81698">
        <ele>564.8</ele>
        <time>2021-05-29T12:59:58Z</time>
      </trkpt>
      <trkpt lat="45.14943" lon="5.81697">
        <ele>564.8</ele>
        <time>2021-05-29T13:00:00Z</time>
      </trkpt>
      <trkpt lat="45.14943" lon="5.81697">
        <ele>565</ele>
        <time>2021-05-29T13:00:01Z</time>
      </trkpt>
      <trkpt lat="45.14943" lon="5.81697">
        <ele>565</ele>
        <time>2021-05-29T13:00:02Z</time>
      </trkpt>
      <trkpt lat="45.14943" lon="5.81697">
        <ele>565.2</ele>
        <time>2021-05-29T13:00:03Z</time>
      </trkpt>
      <trkpt lat="45.14943" lon="5.81697">
        <ele>565.2</ele>
        <time>2021-05-29T13:00:04Z</time>
      </trkpt>
      <trkpt lat="45.14943" lon="5.81697">
        <ele>565.2</ele>
        <time>2021-05-29T13:00:05Z</time>
      </trkpt>
      <trkpt lat="45.14944" lon="5.81697">
        <ele>565</ele>
        <time>2021-05-29T13:00:06Z</time>
      </trkpt>
      <trkpt lat="45.14944" lon="5.81697">
        <ele>565.2</ele>
        <time>2021-05-29T13:00:07Z</time>
      </trkpt>
      <trkpt lat="45.14944" lon="5.81697">
        <ele>565.2</ele>
        <time>2021-05-29T13:00:08Z</time>
      </trkpt>
      <trkpt lat="45.14944" lon="5.81696">
        <ele>565.4</ele>
        <time>2021-05-29T13:00:09Z</time>
      </trkpt>
      <trkpt lat="45.14944" lon="5.81696">
        <ele>565.4</ele>
        <time>2021-05-29T13:00:10Z</time>
      </trkpt>
      <trkpt lat="45.14944" lon="5.81696">
        <ele>565.4</ele>
        <time>2021-05-29T13:00:11Z</time>
      </trkpt>
      <trkpt lat="45.14944" lon="5.81696">
        <ele>565.4</ele>
        <time>2021-05-29T13:00:12Z</time>
      </trkpt>
      <trkpt lat="45.14944" lon="5.81696">
        <ele>565</ele>
        <time>2021-05-29T13:00:13Z</time>
      </trkpt>
      <trkpt lat="45.14945" lon="5.81696">
        <ele>564.8</ele>
        <time>2021-05-29T13:00:14Z</time>
      </trkpt>
      <trkpt lat="45.14945" lon="5.81696">
        <ele>564.4</ele>
        <time>2021-05-29T13:00:15Z</time>
      </trkpt>
      <trkpt lat="45.14945" lon="5.81696">
        <ele>564.2</ele>
        <time>2021-05-29T13:00:16Z</time>
      </trkpt>
      <trkpt lat="45.14945" lon="5.81696">
        <ele>564</ele>
        <time>2021-05-29T13:00:17Z</time>
      </trkpt>
      <trkpt lat="45.14945" lon="5.81695">
        <ele>564</ele>
        <time>2021-05-29T13:00:18Z</time>
      </trkpt>
      <trkpt lat="45.14945" lon="5.81695">
        <ele>563.8</ele>
        <time>2021-05-29T13:00:19Z</time>
      </trkpt>
      <trkpt lat="45.14945" lon="5.81695">
        <ele>563.8</ele>
        <time>2021-05-29T13:00:20Z</time>
      </trkpt>
      <trkpt lat="45.14945" lon="5.81695">
        <ele>563.8</ele>
        <time>2021-05-29T13:00:21Z</time>
      </trkpt>
      <trkpt lat="45.14946" lon="5.81695">
        <ele>563.8</ele>
        <time>2021-05-29T13:00:22Z</time>
      </trkpt>
      <trkpt lat="45.14946" lon="5.81695">
        <ele>563.8</ele>
        <time>2021-05-29T13:00:23Z</time>
      </trkpt>
      <trkpt lat="45.14946" lon="5.81695">
        <ele>563.8</ele>
        <time>2021-05-29T13:00:24Z</time>
      </trkpt>
      <trkpt lat="45.14946" lon="5.81695">
        <ele>563.8</ele>
        <time>2021-05-29T13:00:25Z</time>
      </trkpt>
      <trkpt lat="45.14946" lon="5.81695">
        <ele>564</ele>
        <time>2021-05-29T13:00:26Z</time>
      </trkpt>
      <trkpt lat="45.14946" lon="5.81694">
        <ele>564.2</ele>
        <time>2021-05-29T13:00:28Z</time>
      </trkpt>
      <trkpt lat="45.14946" lon="5.81694">
        <ele>564.6</ele>
        <time>2021-05-29T13:00:29Z</time>
      </trkpt>
      <trkpt lat="45.14946" lon="5.81694">
        <ele>564.6</ele>
        <time>2021-05-29T13:00:30Z</time>
      </trkpt>
      <trkpt lat="45.14947" lon="5.81694">
        <ele>564.6</ele>
        <time>2021-05-29T13:00:31Z</time>
      </trkpt>
      <trkpt lat="45.14947" lon="5.81694">
        <ele>564.8</ele>
        <time>2021-05-29T13:00:32Z</time>
      </trkpt>
      <trkpt lat="45.14947" lon="5.81694">
        <ele>564.8</ele>
        <time>2021-05-29T13:00:33Z</time>
      </trkpt>
      <trkpt lat="45.14947" lon="5.81694">
        <ele>565</ele>
        <time>2021-05-29T13:00:34Z</time>
      </trkpt>
      <trkpt lat="45.14947" lon="5.81694">
        <ele>565</ele>
        <time>2021-05-29T13:00:35Z</time>
      </trkpt>
      <trkpt lat="45.14947" lon="5.81694">
        <ele>564.8</ele>
        <time>2021-05-29T13:00:36Z</time>
      </trkpt>
      <trkpt lat="45.14947" lon="5.81693">
        <ele>564.8</ele>
        <time>2021-05-29T13:00:37Z</time>
      </trkpt>
      <trkpt lat="45.14947" lon="5.81693">
        <ele>565</ele>
        <time>2021-05-29T13:00:38Z</time>
      </trkpt>
      <trkpt lat="45.14948" lon="5.81693">
        <ele>565</ele>
        <time>2021-05-29T13:00:39Z</time>
      </trkpt>
      <trkpt lat="45.14948" lon="5.81693">
        <ele>565.2</ele>
        <time>2021-05-29T13:00:40Z</time>
      </trkpt>
      <trkpt lat="45.14948" lon="5.81693">
        <ele>565.2</ele>
        <time>2021-05-29T13:00:41Z</time>
      </trkpt>
      <trkpt lat="45.14948" lon="5.81693">
        <ele>565</ele>
        <time>2021-05-29T13:00:42Z</time>
      </trkpt>
      <trkpt lat="45.14948" lon="5.81693">
        <ele>565</ele>
        <time>2021-05-29T13:00:43Z</time>
      </trkpt>
      <trkpt lat="45.14948" lon="5.81693">
        <ele>564.8</ele>
        <time>2021-05-29T13:00:44Z</time>
      </trkpt>
      <trkpt lat="45.14948" lon="5.81693">
        <ele>564.6</ele>
        <time>2021-05-29T13:00:45Z</time>
      </trkpt>
      <trkpt lat="45.14948" lon="5.81692">
        <ele>564.6</ele>
        <time>2021-05-29T13:00:46Z</time>
      </trkpt>
      <trkpt lat="45.14949" lon="5.81692">
        <ele>564.4</ele>
        <time>2021-05-29T13:00:47Z</time>
      </trkpt>
      <trkpt lat="45.14949" lon="5.81692">
        <ele>564.4</ele>
        <time>2021-05-29T13:00:48Z</time>
      </trkpt>
      <trkpt lat="45.14949" lon="5.81692">
        <ele>564.4</ele>
        <time>2021-05-29T13:00:49Z</time>
      </trkpt>
      <trkpt lat="45.14949" lon="5.81692">
        <ele>564.4</ele>
        <time>2021-05-29T13:00:50Z</time>
      </trkpt>
      <trkpt lat="45.14949" lon="5.81692">
        <ele>564.2</ele>
        <time>2021-05-29T13:00:51Z</time>
      </trkpt>
      <trkpt lat="45.14949" lon="5.81692">
        <ele>564.4</ele>
        <time>2021-05-29T13:00:52Z</time>
      </trkpt>
      <trkpt lat="45.14949" lon="5.81692">
        <ele>564.4</ele>
        <time>2021-05-29T13:00:53Z</time>
      </trkpt>
      <trkpt lat="45.14949" lon="5.81692">
        <ele>564.4</ele>
        <time>2021-05-29T13:00:54Z</time>
      </trkpt>
      <trkpt lat="45.14949" lon="5.81691">
        <ele>564.4</ele>
        <time>2021-05-29T13:00:55Z</time>
      </trkpt>
      <trkpt lat="45.1495" lon="5.81691">
        <ele>564.4</ele>
        <time>2021-05-29T13:00:56Z</time>
      </trkpt>
      <trkpt lat="45.1495" lon="5.81691">
        <ele>564.4</ele>
        <time>2021-05-29T13:00:57Z</time>
      </trkpt>
      <trkpt lat="45.1495" lon="5.81691">
        <ele>564.4</ele>
        <time>2021-05-29T13:00:58Z</time>
      </trkpt>
      <trkpt lat="45.1495" lon="5.81691">
        <ele>564.4</ele>
        <time>2021-05-29T13:00:59Z</time>
      </trkpt>
      <trkpt lat="45.1495" lon="5.81691">
        <ele>564.6</ele>
        <time>2021-05-29T13:01:00Z</time>
      </trkpt>
      <trkpt lat="45.1495" lon="5.81691">
        <ele>564.4</ele>
        <time>2021-05-29T13:01:01Z</time>
      </trkpt>
      <trkpt lat="45.1495" lon="5.81691">
        <ele>564.6</ele>
        <time>2021-05-29T13:01:02Z</time>
      </trkpt>
      <trkpt lat="45.1495" lon="5.81691">
        <ele>564.4</ele>
        <time>2021-05-29T13:01:03Z</time>
      </trkpt>
      <trkpt lat="45.14951" lon="5.8169">
        <ele>564.4</ele>
        <time>2021-05-29T13:01:04Z</time>
      </trkpt>
      <trkpt lat="45.14951" lon="5.8169">
        <ele>564.6</ele>
        <time>2021-05-29T13:01:05Z</time>
      </trkpt>
      <trkpt lat="45.14951" lon="5.8169">
        <ele>564.6</ele>
        <time>2021-05-29T13:01:06Z</time>
      </trkpt>
      <trkpt lat="45.14951" lon="5.8169">
        <ele>564.6</ele>
        <time>2021-05-29T13:01:07Z</time>
      </trkpt>
      <trkpt lat="45.14952" lon="5.81689">
        <ele>564.6</ele>
        <time>2021-05-29T13:01:08Z</time>
      </trkpt>
      <trkpt lat="45.14954" lon="5.81687">
        <ele>564.6</ele>
        <time>2021-05-29T13:01:09Z</time>
      </trkpt>
      <trkpt lat="45.14955" lon="5.81686">
        <ele>564.6</ele>
        <time>2021-05-29T13:01:10Z</time>
      </trkpt>
      <trkpt lat="45.14956" lon="5.81684">
        <ele>564.6</ele>
        <time>2021-05-29T13:01:11Z</time>
      </trkpt>
      <trkpt lat="45.14958" lon="5.81683">
        <ele>564.4</ele>
        <time>2021-05-29T13:01:12Z</time>
      </trkpt>
      <trkpt lat="45.14958" lon="5.81683">
        <ele>564.2</ele>
        <time>2021-05-29T13:01:13Z</time>
      </trkpt>
      <trkpt lat="45.14958" lon="5.81683">
        <ele>564</ele>
        <time>2021-05-29T13:01:14Z</time>
      </trkpt>
      <trkpt lat="45.14959" lon="5.81683">
        <ele>563.8</ele>
        <time>2021-05-29T13:01:15Z</time>
      </trkpt>
      <trkpt lat="45.1496" lon="5.81682">
        <ele>563.4</ele>
        <time>2021-05-29T13:01:16Z</time>
      </trkpt>
      <trkpt lat="45.14962" lon="5.81682">
        <ele>563.2</ele>
        <time>2021-05-29T13:01:17Z</time>
      </trkpt>
      <trkpt lat="45.14963" lon="5.81681">
        <ele>563.2</ele>
        <time>2021-05-29T13:01:18Z</time>
      </trkpt>
      <trkpt lat="45.14964" lon="5.81681">
        <ele>563</ele>
        <time>2021-05-29T13:01:19Z</time>
      </trkpt>
      <trkpt lat="45.14966" lon="5.8168">
        <ele>562.6</ele>
        <time>2021-05-29T13:01:20Z</time>
      </trkpt>
      <trkpt lat="45.14967" lon="5.8168">
        <ele>562.4</ele>
        <time>2021-05-29T13:01:21Z</time>
      </trkpt>
      <trkpt lat="45.14968" lon="5.81679">
        <ele>562.2</ele>
        <time>2021-05-29T13:01:22Z</time>
      </trkpt>
      <trkpt lat="45.14969" lon="5.81679">
        <ele>561.8</ele>
        <time>2021-05-29T13:01:23Z</time>
      </trkpt>
      <trkpt lat="45.1497" lon="5.81678">
        <ele>561.6</ele>
        <time>2021-05-29T13:01:24Z</time>
      </trkpt>
      <trkpt lat="45.14971" lon="5.81678">
        <ele>561.4</ele>
        <time>2021-05-29T13:01:25Z</time>
      </trkpt>
      <trkpt lat="45.14972" lon="5.81677">
        <ele>561.4</ele>
        <time>2021-05-29T13:01:26Z</time>
      </trkpt>
      <trkpt lat="45.14973" lon="5.81677">
        <ele>561</ele>
        <time>2021-05-29T13:01:27Z</time>
      </trkpt>
      <trkpt lat="45.14974" lon="5.81676">
        <ele>560.6</ele>
        <time>2021-05-29T13:01:28Z</time>
      </trkpt>
      <trkpt lat="45.14974" lon="5.81676">
        <ele>560.6</ele>
        <time>2021-05-29T13:01:29Z</time>
      </trkpt>
      <trkpt lat="45.14975" lon="5.81675">
        <ele>560.4</ele>
        <time>2021-05-29T13:01:30Z</time>
      </trkpt>
      <trkpt lat="45.14976" lon="5.81675">
        <ele>560.2</ele>
        <time>2021-05-29T13:01:31Z</time>
      </trkpt>
      <trkpt lat="45.14977" lon="5.81674">
        <ele>560</ele>
        <time>2021-05-29T13:01:32Z</time>
      </trkpt>
      <trkpt lat="45.14978" lon="5.81673">
        <ele>559.8</ele>
        <time>2021-05-29T13:01:33Z</time>
      </trkpt>
      <trkpt lat="45.14979" lon="5.81673">
        <ele>560.4</ele>
        <time>2021-05-29T13:01:34Z</time>
      </trkpt>
      <trkpt lat="45.1498" lon="5.81673">
        <ele>560</ele>
        <time>2021-05-29T13:01:35Z</time>
      </trkpt>
      <trkpt lat="45.14981" lon="5.81673">
        <ele>559.6</ele>
        <time>2021-05-29T13:01:36Z</time>
      </trkpt>
      <trkpt lat="45.14983" lon="5.81673">
        <ele>559.6</ele>
        <time>2021-05-29T13:01:37Z</time>
      </trkpt>
      <trkpt lat="45.14984" lon="5.81673">
        <ele>559.6</ele>
        <time>2021-05-29T13:01:38Z</time>
      </trkpt>
      <trkpt lat="45.14985" lon="5.81672">
        <ele>559.4</ele>
        <time>2021-05-29T13:01:39Z</time>
      </trkpt>
      <trkpt lat="45.14986" lon="5.81672">
        <ele>559.2</ele>
        <time>2021-05-29T13:01:40Z</time>
      </trkpt>
      <trkpt lat="45.14987" lon="5.81672">
        <ele>559.2</ele>
        <time>2021-05-29T13:01:41Z</time>
      </trkpt>
      <trkpt lat="45.14988" lon="5.81672">
        <ele>559</ele>
        <time>2021-05-29T13:01:42Z</time>
      </trkpt>
      <trkpt lat="45.1499" lon="5.81672">
        <ele>559</ele>
        <time>2021-05-29T13:01:43Z</time>
      </trkpt>
      <trkpt lat="45.14991" lon="5.81673">
        <ele>558.8</ele>
        <time>2021-05-29T13:01:44Z</time>
      </trkpt>
      <trkpt lat="45.14992" lon="5.81673">
        <ele>558.6</ele>
        <time>2021-05-29T13:01:45Z</time>
      </trkpt>
      <trkpt lat="45.14993" lon="5.81673">
        <ele>558.4</ele>
        <time>2021-05-29T13:01:46Z</time>
      </trkpt>
      <trkpt lat="45.14995" lon="5.81673">
        <ele>558.2</ele>
        <time>2021-05-29T13:01:47Z</time>
      </trkpt>
      <trkpt lat="45.14996" lon="5.81674">
        <ele>558.2</ele>
        <time>2021-05-29T13:01:48Z</time>
      </trkpt>
      <trkpt lat="45.14997" lon="5.81674">
        <ele>558.2</ele>
        <time>2021-05-29T13:01:49Z</time>
      </trkpt>
      <trkpt lat="45.14999" lon="5.81674">
        <ele>558</ele>
        <time>2021-05-29T13:01:50Z</time>
      </trkpt>
      <trkpt lat="45.15" lon="5.81674">
        <ele>558</ele>
        <time>2021-05-29T13:01:51Z</time>
      </trkpt>
      <trkpt lat="45.15002" lon="5.81675">
        <ele>557.8</ele>
        <time>2021-05-29T13:01:52Z</time>
      </trkpt>
      <trkpt lat="45.15004" lon="5.81677">
        <ele>557.8</ele>
        <time>2021-05-29T13:01:53Z</time>
      </trkpt>
      <trkpt lat="45.15007" lon="5.81678">
        <ele>557.8</ele>
        <time>2021-05-29T13:01:54Z</time>
      </trkpt>
      <trkpt lat="45.15009" lon="5.81679">
        <ele>557.6</ele>
        <time>2021-05-29T13:01:55Z</time>
      </trkpt>
      <trkpt lat="45.1501" lon="5.81678">
        <ele>557.6</ele>
        <time>2021-05-29T13:01:56Z</time>
      </trkpt>
      <trkpt lat="45.15011" lon="5.81676">
        <ele>557.6</ele>
        <time>2021-05-29T13:01:57Z</time>
      </trkpt>
      <trkpt lat="45.15011" lon="5.81675">
        <ele>557.6</ele>
        <time>2021-05-29T13:01:58Z</time>
      </trkpt>
      <trkpt lat="45.15012" lon="5.81674">
        <ele>557.4</ele>
        <time>2021-05-29T13:01:59Z</time>
      </trkpt>
      <trkpt lat="45.15013" lon="5.81673">
        <ele>557.2</ele>
        <time>2021-05-29T13:02:00Z</time>
      </trkpt>
      <trkpt lat="45.15014" lon="5.81672">
        <ele>557</ele>
        <time>2021-05-29T13:02:01Z</time>
      </trkpt>
      <trkpt lat="45.15015" lon="5.81671">
        <ele>556.8</ele>
        <time>2021-05-29T13:02:02Z</time>
      </trkpt>
      <trkpt lat="45.15016" lon="5.8167">
        <ele>557.2</ele>
        <time>2021-05-29T13:02:03Z</time>
      </trkpt>
      <trkpt lat="45.15018" lon="5.81667">
        <ele>557.4</ele>
        <time>2021-05-29T13:02:04Z</time>
      </trkpt>
      <trkpt lat="45.15019" lon="5.81665">
        <ele>557.8</ele>
        <time>2021-05-29T13:02:05Z</time>
      </trkpt>
      <trkpt lat="45.15021" lon="5.81662">
        <ele>557.8</ele>
        <time>2021-05-29T13:02:06Z</time>
      </trkpt>
      <trkpt lat="45.15023" lon="5.8166">
        <ele>557.8</ele>
        <time>2021-05-29T13:02:07Z</time>
      </trkpt>
      <trkpt lat="45.15023" lon="5.81658">
        <ele>557.8</ele>
        <time>2021-05-29T13:02:08Z</time>
      </trkpt>
      <trkpt lat="45.15024" lon="5.81656">
        <ele>557.8</ele>
        <time>2021-05-29T13:02:09Z</time>
      </trkpt>
      <trkpt lat="45.15024" lon="5.81654">
        <ele>557.8</ele>
        <time>2021-05-29T13:02:10Z</time>
      </trkpt>
      <trkpt lat="45.15025" lon="5.81652">
        <ele>557.8</ele>
        <time>2021-05-29T13:02:11Z</time>
      </trkpt>
      <trkpt lat="45.15026" lon="5.8165">
        <ele>557.8</ele>
        <time>2021-05-29T13:02:12Z</time>
      </trkpt>
      <trkpt lat="45.15026" lon="5.81648">
        <ele>557.2</ele>
        <time>2021-05-29T13:02:13Z</time>
      </trkpt>
      <trkpt lat="45.15027" lon="5.81647">
        <ele>557</ele>
        <time>2021-05-29T13:02:14Z</time>
      </trkpt>
      <trkpt lat="45.15028" lon="5.81645">
        <ele>556.6</ele>
        <time>2021-05-29T13:02:15Z</time>
      </trkpt>
      <trkpt lat="45.15028" lon="5.81644">
        <ele>556.6</ele>
        <time>2021-05-29T13:02:16Z</time>
      </trkpt>
      <trkpt lat="45.15029" lon="5.81643">
        <ele>556.4</ele>
        <time>2021-05-29T13:02:17Z</time>
      </trkpt>
      <trkpt lat="45.1503" lon="5.81642">
        <ele>556</ele>
        <time>2021-05-29T13:02:18Z</time>
      </trkpt>
      <trkpt lat="45.15031" lon="5.81641">
        <ele>555.8</ele>
        <time>2021-05-29T13:02:19Z</time>
      </trkpt>
      <trkpt lat="45.15031" lon="5.8164">
        <ele>555.8</ele>
        <time>2021-05-29T13:02:20Z</time>
      </trkpt>
      <trkpt lat="45.15032" lon="5.81639">
        <ele>555.8</ele>
        <time>2021-05-29T13:02:21Z</time>
      </trkpt>
      <trkpt lat="45.15033" lon="5.81637">
        <ele>555.6</ele>
        <time>2021-05-29T13:02:22Z</time>
      </trkpt>
      <trkpt lat="45.15034" lon="5.81636">
        <ele>555.4</ele>
        <time>2021-05-29T13:02:23Z</time>
      </trkpt>
      <trkpt lat="45.15034" lon="5.81635">
        <ele>555.4</ele>
        <time>2021-05-29T13:02:24Z</time>
      </trkpt>
      <trkpt lat="45.15035" lon="5.81633">
        <ele>555.2</ele>
        <time>2021-05-29T13:02:25Z</time>
      </trkpt>
      <trkpt lat="45.15036" lon="5.81631">
        <ele>555</ele>
        <time>2021-05-29T13:02:26Z</time>
      </trkpt>
      <trkpt lat="45.15037" lon="5.81629">
        <ele>555</ele>
        <time>2021-05-29T13:02:27Z</time>
      </trkpt>
      <trkpt lat="45.15038" lon="5.81627">
        <ele>554.8</ele>
        <time>2021-05-29T13:02:28Z</time>
      </trkpt>
      <trkpt lat="45.15039" lon="5.81624">
        <ele>554.6</ele>
        <time>2021-05-29T13:02:29Z</time>
      </trkpt>
      <trkpt lat="45.1504" lon="5.81622">
        <ele>554.6</ele>
        <time>2021-05-29T13:02:30Z</time>
      </trkpt>
      <trkpt lat="45.15041" lon="5.81621">
        <ele>554</ele>
        <time>2021-05-29T13:02:31Z</time>
      </trkpt>
      <trkpt lat="45.15042" lon="5.81619">
        <ele>554</ele>
        <time>2021-05-29T13:02:32Z</time>
      </trkpt>
      <trkpt lat="45.15042" lon="5.81618">
        <ele>553.8</ele>
        <time>2021-05-29T13:02:33Z</time>
      </trkpt>
      <trkpt lat="45.15043" lon="5.81616">
        <ele>553.6</ele>
        <time>2021-05-29T13:02:34Z</time>
      </trkpt>
      <trkpt lat="45.15044" lon="5.81614">
        <ele>553</ele>
        <time>2021-05-29T13:02:35Z</time>
      </trkpt>
      <trkpt lat="45.15045" lon="5.81613">
        <ele>553</ele>
        <time>2021-05-29T13:02:36Z</time>
      </trkpt>
      <trkpt lat="45.15046" lon="5.81611">
        <ele>552.8</ele>
        <time>2021-05-29T13:02:37Z</time>
      </trkpt>
      <trkpt lat="45.15046" lon="5.81609">
        <ele>552.6</ele>
        <time>2021-05-29T13:02:38Z</time>
      </trkpt>
      <trkpt lat="45.15046" lon="5.81607">
        <ele>552.2</ele>
        <time>2021-05-29T13:02:39Z</time>
      </trkpt>
      <trkpt lat="45.15047" lon="5.81605">
        <ele>552</ele>
        <time>2021-05-29T13:02:40Z</time>
      </trkpt>
      <trkpt lat="45.15047" lon="5.81603">
        <ele>551.8</ele>
        <time>2021-05-29T13:02:41Z</time>
      </trkpt>
      <trkpt lat="45.15047" lon="5.81601">
        <ele>551.6</ele>
        <time>2021-05-29T13:02:42Z</time>
      </trkpt>
      <trkpt lat="45.15048" lon="5.81599">
        <ele>551.4</ele>
        <time>2021-05-29T13:02:43Z</time>
      </trkpt>
      <trkpt lat="45.15048" lon="5.81597">
        <ele>551.4</ele>
        <time>2021-05-29T13:02:44Z</time>
      </trkpt>
      <trkpt lat="45.15049" lon="5.81595">
        <ele>551.2</ele>
        <time>2021-05-29T13:02:45Z</time>
      </trkpt>
      <trkpt lat="45.15049" lon="5.81593">
        <ele>551.2</ele>
        <time>2021-05-29T13:02:46Z</time>
      </trkpt>
      <trkpt lat="45.15049" lon="5.81591">
        <ele>551.2</ele>
        <time>2021-05-29T13:02:47Z</time>
      </trkpt>
      <trkpt lat="45.15052" lon="5.81586">
        <ele>551</ele>
        <time>2021-05-29T13:02:48Z</time>
      </trkpt>
      <trkpt lat="45.15053" lon="5.81586">
        <ele>550.8</ele>
        <time>2021-05-29T13:02:49Z</time>
      </trkpt>
      <trkpt lat="45.15054" lon="5.81586">
        <ele>550.8</ele>
        <time>2021-05-29T13:02:50Z</time>
      </trkpt>
      <trkpt lat="45.15055" lon="5.81586">
        <ele>550.8</ele>
        <time>2021-05-29T13:02:51Z</time>
      </trkpt>
      <trkpt lat="45.15057" lon="5.81587">
        <ele>551</ele>
        <time>2021-05-29T13:02:52Z</time>
      </trkpt>
      <trkpt lat="45.15058" lon="5.81587">
        <ele>551</ele>
        <time>2021-05-29T13:02:53Z</time>
      </trkpt>
      <trkpt lat="45.15059" lon="5.81587">
        <ele>551</ele>
        <time>2021-05-29T13:02:54Z</time>
      </trkpt>
      <trkpt lat="45.1506" lon="5.81587">
        <ele>551</ele>
        <time>2021-05-29T13:02:55Z</time>
      </trkpt>
      <trkpt lat="45.15061" lon="5.81588">
        <ele>551</ele>
        <time>2021-05-29T13:02:56Z</time>
      </trkpt>
      <trkpt lat="45.15062" lon="5.81588">
        <ele>551</ele>
        <time>2021-05-29T13:02:57Z</time>
      </trkpt>
      <trkpt lat="45.15063" lon="5.81588">
        <ele>551</ele>
        <time>2021-05-29T13:02:58Z</time>
      </trkpt>
      <trkpt lat="45.15064" lon="5.81588">
        <ele>551</ele>
        <time>2021-05-29T13:02:59Z</time>
      </trkpt>
      <trkpt lat="45.15066" lon="5.81589">
        <ele>551</ele>
        <time>2021-05-29T13:03:00Z</time>
      </trkpt>
      <trkpt lat="45.15067" lon="5.81589">
        <ele>551</ele>
        <time>2021-05-29T13:03:01Z</time>
      </trkpt>
      <trkpt lat="45.15068" lon="5.81589">
        <ele>551</ele>
        <time>2021-05-29T13:03:02Z</time>
      </trkpt>
      <trkpt lat="45.15069" lon="5.8159">
        <ele>551</ele>
        <time>2021-05-29T13:03:03Z</time>
      </trkpt>
      <trkpt lat="45.1507" lon="5.8159">
        <ele>551</ele>
        <time>2021-05-29T13:03:04Z</time>
      </trkpt>
      <trkpt lat="45.15071" lon="5.8159">
        <ele>551</ele>
        <time>2021-05-29T13:03:05Z</time>
      </trkpt>
      <trkpt lat="45.15072" lon="5.8159">
        <ele>551.2</ele>
        <time>2021-05-29T13:03:06Z</time>
      </trkpt>
      <trkpt lat="45.15073" lon="5.81591">
        <ele>551.6</ele>
        <time>2021-05-29T13:03:07Z</time>
      </trkpt>
      <trkpt lat="45.15075" lon="5.81591">
        <ele>551.6</ele>
        <time>2021-05-29T13:03:08Z</time>
      </trkpt>
      <trkpt lat="45.15076" lon="5.81591">
        <ele>551.6</ele>
        <time>2021-05-29T13:03:09Z</time>
      </trkpt>
      <trkpt lat="45.15077" lon="5.81591">
        <ele>551.6</ele>
        <time>2021-05-29T13:03:10Z</time>
      </trkpt>
      <trkpt lat="45.15078" lon="5.81592">
        <ele>551.6</ele>
        <time>2021-05-29T13:03:11Z</time>
      </trkpt>
      <trkpt lat="45.15079" lon="5.81592">
        <ele>551.6</ele>
        <time>2021-05-29T13:03:12Z</time>
      </trkpt>
      <trkpt lat="45.1508" lon="5.81592">
        <ele>551.6</ele>
        <time>2021-05-29T13:03:13Z</time>
      </trkpt>
      <trkpt lat="45.15081" lon="5.81592">
        <ele>551.6</ele>
        <time>2021-05-29T13:03:14Z</time>
      </trkpt>
      <trkpt lat="45.15082" lon="5.81593">
        <ele>552</ele>
        <time>2021-05-29T13:03:15Z</time>
      </trkpt>
      <trkpt lat="45.15084" lon="5.81593">
        <ele>552.2</ele>
        <time>2021-05-29T13:03:16Z</time>
      </trkpt>
      <trkpt lat="45.15085" lon="5.81593">
        <ele>552.4</ele>
        <time>2021-05-29T13:03:17Z</time>
      </trkpt>
      <trkpt lat="45.15086" lon="5.81593">
        <ele>552.8</ele>
        <time>2021-05-29T13:03:18Z</time>
      </trkpt>
      <trkpt lat="45.15087" lon="5.81594">
        <ele>552.8</ele>
        <time>2021-05-29T13:03:19Z</time>
      </trkpt>
      <trkpt lat="45.15088" lon="5.81594">
        <ele>553.2</ele>
        <time>2021-05-29T13:03:20Z</time>
      </trkpt>
      <trkpt lat="45.15089" lon="5.81594">
        <ele>553.6</ele>
        <time>2021-05-29T13:03:21Z</time>
      </trkpt>
      <trkpt lat="45.1509" lon="5.81594">
        <ele>554</ele>
        <time>2021-05-29T13:03:22Z</time>
      </trkpt>
      <trkpt lat="45.15091" lon="5.81595">
        <ele>554.2</ele>
        <time>2021-05-29T13:03:23Z</time>
      </trkpt>
      <trkpt lat="45.15093" lon="5.81595">
        <ele>554.2</ele>
        <time>2021-05-29T13:03:24Z</time>
      </trkpt>
      <trkpt lat="45.15094" lon="5.81595">
        <ele>554.2</ele>
        <time>2021-05-29T13:03:25Z</time>
      </trkpt>
      <trkpt lat="45.15095" lon="5.81595">
        <ele>554.2</ele>
        <time>2021-05-29T13:03:26Z</time>
      </trkpt>
      <trkpt lat="45.15096" lon="5.81596">
        <ele>554.2</ele>
        <time>2021-05-29T13:03:27Z</time>
      </trkpt>
      <trkpt lat="45.15097" lon="5.81596">
        <ele>554.2</ele>
        <time>2021-05-29T13:03:28Z</time>
      </trkpt>
      <trkpt lat="45.15098" lon="5.81596">
        <ele>554.4</ele>
        <time>2021-05-29T13:03:29Z</time>
      </trkpt>
      <trkpt lat="45.15099" lon="5.81596">
        <ele>554.6</ele>
        <time>2021-05-29T13:03:30Z</time>
      </trkpt>
      <trkpt lat="45.151" lon="5.81597">
        <ele>554.8</ele>
        <time>2021-05-29T13:03:31Z</time>
      </trkpt>
      <trkpt lat="45.15102" lon="5.81597">
        <ele>555</ele>
        <time>2021-05-29T13:03:32Z</time>
      </trkpt>
      <trkpt lat="45.15103" lon="5.81597">
        <ele>555.2</ele>
        <time>2021-05-29T13:03:33Z</time>
      </trkpt>
      <trkpt lat="45.15104" lon="5.81597">
        <ele>555.4</ele>
        <time>2021-05-29T13:03:34Z</time>
      </trkpt>
      <trkpt lat="45.15105" lon="5.81598">
        <ele>555.4</ele>
        <time>2021-05-29T13:03:35Z</time>
      </trkpt>
      <trkpt lat="45.15105" lon="5.81598">
        <ele>555.8</ele>
        <time>2021-05-29T13:03:36Z</time>
      </trkpt>
      <trkpt lat="45.15105" lon="5.81598">
        <ele>556</ele>
        <time>2021-05-29T13:03:37Z</time>
      </trkpt>
      <trkpt lat="45.15107" lon="5.81598">
        <ele>556</ele>
        <time>2021-05-29T13:03:38Z</time>
      </trkpt>
      <trkpt lat="45.1511" lon="5.81597">
        <ele>555.8</ele>
        <time>2021-05-29T13:03:39Z</time>
      </trkpt>
      <trkpt lat="45.15112" lon="5.81597">
        <ele>556</ele>
        <time>2021-05-29T13:03:40Z</time>
      </trkpt>
      <trkpt lat="45.15114" lon="5.81597">
        <ele>556</ele>
        <time>2021-05-29T13:03:41Z</time>
      </trkpt>
      <trkpt lat="45.15116" lon="5.81597">
        <ele>556.2</ele>
        <time>2021-05-29T13:03:42Z</time>
      </trkpt>
      <trkpt lat="45.15117" lon="5.81597">
        <ele>556.2</ele>
        <time>2021-05-29T13:03:43Z</time>
      </trkpt>
      <trkpt lat="45.15119" lon="5.81597">
        <ele>556.4</ele>
        <time>2021-05-29T13:03:44Z</time>
      </trkpt>
      <trkpt lat="45.1512" lon="5.81597">
        <ele>556.6</ele>
        <time>2021-05-29T13:03:45Z</time>
      </trkpt>
      <trkpt lat="45.15122" lon="5.81597">
        <ele>556.8</ele>
        <time>2021-05-29T13:03:46Z</time>
      </trkpt>
      <trkpt lat="45.15123" lon="5.81597">
        <ele>557</ele>
        <time>2021-05-29T13:03:47Z</time>
      </trkpt>
      <trkpt lat="45.15125" lon="5.81596">
        <ele>557.2</ele>
        <time>2021-05-29T13:03:48Z</time>
      </trkpt>
      <trkpt lat="45.15126" lon="5.81597">
        <ele>557.4</ele>
        <time>2021-05-29T13:03:49Z</time>
      </trkpt>
      <trkpt lat="45.15127" lon="5.81597">
        <ele>557.6</ele>
        <time>2021-05-29T13:03:50Z</time>
      </trkpt>
      <trkpt lat="45.15129" lon="5.81597">
        <ele>557.8</ele>
        <time>2021-05-29T13:03:51Z</time>
      </trkpt>
      <trkpt lat="45.1513" lon="5.81598">
        <ele>558</ele>
        <time>2021-05-29T13:03:52Z</time>
      </trkpt>
      <trkpt lat="45.15131" lon="5.81598">
        <ele>557.8</ele>
        <time>2021-05-29T13:03:53Z</time>
      </trkpt>
      <trkpt lat="45.15133" lon="5.81598">
        <ele>557.8</ele>
        <time>2021-05-29T13:03:54Z</time>
      </trkpt>
      <trkpt lat="45.15134" lon="5.81598">
        <ele>557.8</ele>
        <time>2021-05-29T13:03:55Z</time>
      </trkpt>
      <trkpt lat="45.15135" lon="5.81598">
        <ele>558.2</ele>
        <time>2021-05-29T13:03:56Z</time>
      </trkpt>
      <trkpt lat="45.15137" lon="5.81598">
        <ele>558.2</ele>
        <time>2021-05-29T13:03:57Z</time>
      </trkpt>
      <trkpt lat="45.15138" lon="5.81597">
        <ele>558.2</ele>
        <time>2021-05-29T13:03:58Z</time>
      </trkpt>
      <trkpt lat="45.1514" lon="5.81597">
        <ele>558.4</ele>
        <time>2021-05-29T13:03:59Z</time>
      </trkpt>
      <trkpt lat="45.15142" lon="5.81597">
        <ele>558.4</ele>
        <time>2021-05-29T13:04:00Z</time>
      </trkpt>
      <trkpt lat="45.15143" lon="5.81596">
        <ele>558.4</ele>
        <time>2021-05-29T13:04:01Z</time>
      </trkpt>
      <trkpt lat="45.15145" lon="5.81597">
        <ele>558.4</ele>
        <time>2021-05-29T13:04:02Z</time>
      </trkpt>
      <trkpt lat="45.15146" lon="5.81597">
        <ele>558.6</ele>
        <time>2021-05-29T13:04:03Z</time>
      </trkpt>
      <trkpt lat="45.15148" lon="5.81598">
        <ele>558.6</ele>
        <time>2021-05-29T13:04:04Z</time>
      </trkpt>
      <trkpt lat="45.1515" lon="5.81598">
        <ele>558.8</ele>
        <time>2021-05-29T13:04:05Z</time>
      </trkpt>
      <trkpt lat="45.15152" lon="5.81598">
        <ele>559</ele>
        <time>2021-05-29T13:04:06Z</time>
      </trkpt>
      <trkpt lat="45.15153" lon="5.81599">
        <ele>559.2</ele>
        <time>2021-05-29T13:04:07Z</time>
      </trkpt>
      <trkpt lat="45.15155" lon="5.81599">
        <ele>559.2</ele>
        <time>2021-05-29T13:04:08Z</time>
      </trkpt>
      <trkpt lat="45.15156" lon="5.81599">
        <ele>559</ele>
        <time>2021-05-29T13:04:09Z</time>
      </trkpt>
      <trkpt lat="45.15158" lon="5.81599">
        <ele>559</ele>
        <time>2021-05-29T13:04:10Z</time>
      </trkpt>
      <trkpt lat="45.15159" lon="5.81599">
        <ele>559</ele>
        <time>2021-05-29T13:04:11Z</time>
      </trkpt>
      <trkpt lat="45.15161" lon="5.816">
        <ele>559.4</ele>
        <time>2021-05-29T13:04:12Z</time>
      </trkpt>
      <trkpt lat="45.15162" lon="5.816">
        <ele>559.4</ele>
        <time>2021-05-29T13:04:13Z</time>
      </trkpt>
      <trkpt lat="45.15163" lon="5.816">
        <ele>559.4</ele>
        <time>2021-05-29T13:04:14Z</time>
      </trkpt>
      <trkpt lat="45.15164" lon="5.81599">
        <ele>559.4</ele>
        <time>2021-05-29T13:04:15Z</time>
      </trkpt>
      <trkpt lat="45.15165" lon="5.81599">
        <ele>559.2</ele>
        <time>2021-05-29T13:04:16Z</time>
      </trkpt>
      <trkpt lat="45.15166" lon="5.81599">
        <ele>559.4</ele>
        <time>2021-05-29T13:04:17Z</time>
      </trkpt>
      <trkpt lat="45.15167" lon="5.81598">
        <ele>559.2</ele>
        <time>2021-05-29T13:04:18Z</time>
      </trkpt>
      <trkpt lat="45.15168" lon="5.81598">
        <ele>559.6</ele>
        <time>2021-05-29T13:04:19Z</time>
      </trkpt>
      <trkpt lat="45.15169" lon="5.81597">
        <ele>559.6</ele>
        <time>2021-05-29T13:04:20Z</time>
      </trkpt>
      <trkpt lat="45.15169" lon="5.81597">
        <ele>559.6</ele>
        <time>2021-05-29T13:04:21Z</time>
      </trkpt>
      <trkpt lat="45.1517" lon="5.81596">
        <ele>559.8</ele>
        <time>2021-05-29T13:04:22Z</time>
      </trkpt>
      <trkpt lat="45.15171" lon="5.81596">
        <ele>559.6</ele>
        <time>2021-05-29T13:04:23Z</time>
      </trkpt>
      <trkpt lat="45.15172" lon="5.81595">
        <ele>559.6</ele>
        <time>2021-05-29T13:04:24Z</time>
      </trkpt>
      <trkpt lat="45.15173" lon="5.81595">
        <ele>559.6</ele>
        <time>2021-05-29T13:04:25Z</time>
      </trkpt>
      <trkpt lat="45.15175" lon="5.81594">
        <ele>559.8</ele>
        <time>2021-05-29T13:04:26Z</time>
      </trkpt>
      <trkpt lat="45.15176" lon="5.81594">
        <ele>560</ele>
        <time>2021-05-29T13:04:27Z</time>
      </trkpt>
      <trkpt lat="45.15178" lon="5.81593">
        <ele>560</ele>
        <time>2021-05-29T13:04:28Z</time>
      </trkpt>
      <trkpt lat="45.15179" lon="5.81592">
        <ele>559.8</ele>
        <time>2021-05-29T13:04:29Z</time>
      </trkpt>
      <trkpt lat="45.15181" lon="5.81592">
        <ele>559.8</ele>
        <time>2021-05-29T13:04:30Z</time>
      </trkpt>
      <trkpt lat="45.15182" lon="5.81591">
        <ele>560</ele>
        <time>2021-05-29T13:04:31Z</time>
      </trkpt>
      <trkpt lat="45.15183" lon="5.81591">
        <ele>560.2</ele>
        <time>2021-05-29T13:04:32Z</time>
      </trkpt>
      <trkpt lat="45.15185" lon="5.81591">
        <ele>560.2</ele>
        <time>2021-05-29T13:04:33Z</time>
      </trkpt>
      <trkpt lat="45.15186" lon="5.81591">
        <ele>560.4</ele>
        <time>2021-05-29T13:04:34Z</time>
      </trkpt>
      <trkpt lat="45.15188" lon="5.81592">
        <ele>560.6</ele>
        <time>2021-05-29T13:04:35Z</time>
      </trkpt>
      <trkpt lat="45.15189" lon="5.81592">
        <ele>560.6</ele>
        <time>2021-05-29T13:04:36Z</time>
      </trkpt>
      <trkpt lat="45.15191" lon="5.81592">
        <ele>560.8</ele>
        <time>2021-05-29T13:04:37Z</time>
      </trkpt>
      <trkpt lat="45.15192" lon="5.81592">
        <ele>561</ele>
        <time>2021-05-29T13:04:38Z</time>
      </trkpt>
      <trkpt lat="45.15194" lon="5.81592">
        <ele>561</ele>
        <time>2021-05-29T13:04:39Z</time>
      </trkpt>
      <trkpt lat="45.15196" lon="5.81592">
        <ele>561.2</ele>
        <time>2021-05-29T13:04:40Z</time>
      </trkpt>
      <trkpt lat="45.15198" lon="5.81592">
        <ele>561</ele>
        <time>2021-05-29T13:04:41Z</time>
      </trkpt>
      <trkpt lat="45.152" lon="5.81592">
        <ele>561</ele>
        <time>2021-05-29T13:04:42Z</time>
      </trkpt>
      <trkpt lat="45.15202" lon="5.81592">
        <ele>561.4</ele>
        <time>2021-05-29T13:04:43Z</time>
      </trkpt>
      <trkpt lat="45.15203" lon="5.81592">
        <ele>561.6</ele>
        <time>2021-05-29T13:04:44Z</time>
      </trkpt>
      <trkpt lat="45.15205" lon="5.81592">
        <ele>561.6</ele>
        <time>2021-05-29T13:04:45Z</time>
      </trkpt>
      <trkpt lat="45.15207" lon="5.81592">
        <ele>561.8</ele>
        <time>2021-05-29T13:04:46Z</time>
      </trkpt>
      <trkpt lat="45.15209" lon="5.81592">
        <ele>561.8</ele>
        <time>2021-05-29T13:04:47Z</time>
      </trkpt>
      <trkpt lat="45.15211" lon="5.81592">
        <ele>561.8</ele>
        <time>2021-05-29T13:04:48Z</time>
      </trkpt>
      <trkpt lat="45.15212" lon="5.81591">
        <ele>561.8</ele>
        <time>2021-05-29T13:04:49Z</time>
      </trkpt>
      <trkpt lat="45.15214" lon="5.81591">
        <ele>561.8</ele>
        <time>2021-05-29T13:04:50Z</time>
      </trkpt>
      <trkpt lat="45.15215" lon="5.81591">
        <ele>561.8</ele>
        <time>2021-05-29T13:04:51Z</time>
      </trkpt>
      <trkpt lat="45.15216" lon="5.81591">
        <ele>562</ele>
        <time>2021-05-29T13:04:52Z</time>
      </trkpt>
      <trkpt lat="45.15217" lon="5.81591">
        <ele>562.2</ele>
        <time>2021-05-29T13:04:53Z</time>
      </trkpt>
      <trkpt lat="45.15219" lon="5.81591">
        <ele>562.4</ele>
        <time>2021-05-29T13:04:54Z</time>
      </trkpt>
      <trkpt lat="45.1522" lon="5.8159">
        <ele>562.6</ele>
        <time>2021-05-29T13:04:55Z</time>
      </trkpt>
      <trkpt lat="45.15221" lon="5.8159">
        <ele>562.8</ele>
        <time>2021-05-29T13:04:56Z</time>
      </trkpt>
      <trkpt lat="45.15222" lon="5.8159">
        <ele>563</ele>
        <time>2021-05-29T13:04:57Z</time>
      </trkpt>
      <trkpt lat="45.15224" lon="5.81589">
        <ele>563.2</ele>
        <time>2021-05-29T13:04:58Z</time>
      </trkpt>
      <trkpt lat="45.15225" lon="5.81589">
        <ele>563</ele>
        <time>2021-05-29T13:04:59Z</time>
      </trkpt>
      <trkpt lat="45.15226" lon="5.81589">
        <ele>563</ele>
        <time>2021-05-29T13:05:00Z</time>
      </trkpt>
      <trkpt lat="45.15227" lon="5.81588">
        <ele>563</ele>
        <time>2021-05-29T13:05:01Z</time>
      </trkpt>
      <trkpt lat="45.15228" lon="5.81588">
        <ele>563.2</ele>
        <time>2021-05-29T13:05:02Z</time>
      </trkpt>
      <trkpt lat="45.15229" lon="5.81587">
        <ele>563.4</ele>
        <time>2021-05-29T13:05:03Z</time>
      </trkpt>
      <trkpt lat="45.15231" lon="5.81587">
        <ele>563.4</ele>
        <time>2021-05-29T13:05:04Z</time>
      </trkpt>
      <trkpt lat="45.15232" lon="5.81586">
        <ele>563.6</ele>
        <time>2021-05-29T13:05:05Z</time>
      </trkpt>
      <trkpt lat="45.15234" lon="5.81585">
        <ele>563.8</ele>
        <time>2021-05-29T13:05:06Z</time>
      </trkpt>
      <trkpt lat="45.15235" lon="5.81585">
        <ele>564</ele>
        <time>2021-05-29T13:05:07Z</time>
      </trkpt>
      <trkpt lat="45.15236" lon="5.81584">
        <ele>564.2</ele>
        <time>2021-05-29T13:05:08Z</time>
      </trkpt>
      <trkpt lat="45.15238" lon="5.81583">
        <ele>564.4</ele>
        <time>2021-05-29T13:05:09Z</time>
      </trkpt>
      <trkpt lat="45.15239" lon="5.81582">
        <ele>564.4</ele>
        <time>2021-05-29T13:05:10Z</time>
      </trkpt>
      <trkpt lat="45.15241" lon="5.81582">
        <ele>564.8</ele>
        <time>2021-05-29T13:05:11Z</time>
      </trkpt>
      <trkpt lat="45.15242" lon="5.81581">
        <ele>564.8</ele>
        <time>2021-05-29T13:05:12Z</time>
      </trkpt>
      <trkpt lat="45.15244" lon="5.8158">
        <ele>565.2</ele>
        <time>2021-05-29T13:05:13Z</time>
      </trkpt>
      <trkpt lat="45.15245" lon="5.81579">
        <ele>565.2</ele>
        <time>2021-05-29T13:05:14Z</time>
      </trkpt>
      <trkpt lat="45.15247" lon="5.81578">
        <ele>565.2</ele>
        <time>2021-05-29T13:05:15Z</time>
      </trkpt>
      <trkpt lat="45.15249" lon="5.81577">
        <ele>565.2</ele>
        <time>2021-05-29T13:05:16Z</time>
      </trkpt>
      <trkpt lat="45.1525" lon="5.81576">
        <ele>565.2</ele>
        <time>2021-05-29T13:05:17Z</time>
      </trkpt>
      <trkpt lat="45.1525" lon="5.81575">
        <ele>565.2</ele>
        <time>2021-05-29T13:05:18Z</time>
      </trkpt>
      <trkpt lat="45.15251" lon="5.81574">
        <ele>565.4</ele>
        <time>2021-05-29T13:05:19Z</time>
      </trkpt>
      <trkpt lat="45.15252" lon="5.81573">
        <ele>565.4</ele>
        <time>2021-05-29T13:05:20Z</time>
      </trkpt>
      <trkpt lat="45.15253" lon="5.81571">
        <ele>565.6</ele>
        <time>2021-05-29T13:05:21Z</time>
      </trkpt>
      <trkpt lat="45.15254" lon="5.8157">
        <ele>565.6</ele>
        <time>2021-05-29T13:05:22Z</time>
      </trkpt>
      <trkpt lat="45.15255" lon="5.81569">
        <ele>565.6</ele>
        <time>2021-05-29T13:05:23Z</time>
      </trkpt>
      <trkpt lat="45.15256" lon="5.81568">
        <ele>565.8</ele>
        <time>2021-05-29T13:05:24Z</time>
      </trkpt>
      <trkpt lat="45.15257" lon="5.81567">
        <ele>566</ele>
        <time>2021-05-29T13:05:25Z</time>
      </trkpt>
      <trkpt lat="45.15258" lon="5.81565">
        <ele>566.2</ele>
        <time>2021-05-29T13:05:26Z</time>
      </trkpt>
      <trkpt lat="45.15259" lon="5.81564">
        <ele>566.6</ele>
        <time>2021-05-29T13:05:27Z</time>
      </trkpt>
      <trkpt lat="45.1526" lon="5.81563">
        <ele>566.8</ele>
        <time>2021-05-29T13:05:28Z</time>
      </trkpt>
      <trkpt lat="45.15261" lon="5.81562">
        <ele>567</ele>
        <time>2021-05-29T13:05:29Z</time>
      </trkpt>
      <trkpt lat="45.15262" lon="5.8156">
        <ele>567.2</ele>
        <time>2021-05-29T13:05:30Z</time>
      </trkpt>
      <trkpt lat="45.15263" lon="5.81559">
        <ele>567.2</ele>
        <time>2021-05-29T13:05:31Z</time>
      </trkpt>
      <trkpt lat="45.15264" lon="5.81558">
        <ele>567.4</ele>
        <time>2021-05-29T13:05:32Z</time>
      </trkpt>
      <trkpt lat="45.15265" lon="5.81557">
        <ele>567.6</ele>
        <time>2021-05-29T13:05:33Z</time>
      </trkpt>
      <trkpt lat="45.15266" lon="5.81556">
        <ele>567.6</ele>
        <time>2021-05-29T13:05:34Z</time>
      </trkpt>
      <trkpt lat="45.15267" lon="5.81556">
        <ele>567.6</ele>
        <time>2021-05-29T13:05:35Z</time>
      </trkpt>
      <trkpt lat="45.15268" lon="5.81555">
        <ele>567.8</ele>
        <time>2021-05-29T13:05:36Z</time>
      </trkpt>
      <trkpt lat="45.1527" lon="5.81555">
        <ele>567.8</ele>
        <time>2021-05-29T13:05:37Z</time>
      </trkpt>
      <trkpt lat="45.15271" lon="5.81554">
        <ele>568</ele>
        <time>2021-05-29T13:05:38Z</time>
      </trkpt>
      <trkpt lat="45.15272" lon="5.81554">
        <ele>568.2</ele>
        <time>2021-05-29T13:05:39Z</time>
      </trkpt>
      <trkpt lat="45.15273" lon="5.81553">
        <ele>568.2</ele>
        <time>2021-05-29T13:05:40Z</time>
      </trkpt>
      <trkpt lat="45.15274" lon="5.81552">
        <ele>568.2</ele>
        <time>2021-05-29T13:05:41Z</time>
      </trkpt>
      <trkpt lat="45.15276" lon="5.81551">
        <ele>568.4</ele>
        <time>2021-05-29T13:05:42Z</time>
      </trkpt>
      <trkpt lat="45.15277" lon="5.81551">
        <ele>568.4</ele>
        <time>2021-05-29T13:05:43Z</time>
      </trkpt>
      <trkpt lat="45.15278" lon="5.8155">
        <ele>568.6</ele>
        <time>2021-05-29T13:05:44Z</time>
      </trkpt>
      <trkpt lat="45.1528" lon="5.81549">
        <ele>568.8</ele>
        <time>2021-05-29T13:05:45Z</time>
      </trkpt>
      <trkpt lat="45.15281" lon="5.81548">
        <ele>568.8</ele>
        <time>2021-05-29T13:05:46Z</time>
      </trkpt>
      <trkpt lat="45.15282" lon="5.81548">
        <ele>569</ele>
        <time>2021-05-29T13:05:47Z</time>
      </trkpt>
      <trkpt lat="45.15284" lon="5.81547">
        <ele>569.2</ele>
        <time>2021-05-29T13:05:48Z</time>
      </trkpt>
      <trkpt lat="45.15285" lon="5.81546">
        <ele>569.4</ele>
        <time>2021-05-29T13:05:49Z</time>
      </trkpt>
      <trkpt lat="45.15287" lon="5.81545">
        <ele>569.6</ele>
        <time>2021-05-29T13:05:50Z</time>
      </trkpt>
      <trkpt lat="45.15288" lon="5.81544">
        <ele>570</ele>
        <time>2021-05-29T13:05:51Z</time>
      </trkpt>
      <trkpt lat="45.1529" lon="5.81543">
        <ele>570.4</ele>
        <time>2021-05-29T13:05:52Z</time>
      </trkpt>
      <trkpt lat="45.15291" lon="5.81542">
        <ele>570.6</ele>
        <time>2021-05-29T13:05:53Z</time>
      </trkpt>
      <trkpt lat="45.15292" lon="5.81541">
        <ele>570.8</ele>
        <time>2021-05-29T13:05:54Z</time>
      </trkpt>
      <trkpt lat="45.15293" lon="5.81541">
        <ele>571</ele>
        <time>2021-05-29T13:05:55Z</time>
      </trkpt>
      <trkpt lat="45.15294" lon="5.8154">
        <ele>571.4</ele>
        <time>2021-05-29T13:05:56Z</time>
      </trkpt>
      <trkpt lat="45.15294" lon="5.81539">
        <ele>571.6</ele>
        <time>2021-05-29T13:05:57Z</time>
      </trkpt>
      <trkpt lat="45.15295" lon="5.81538">
        <ele>571.8</ele>
        <time>2021-05-29T13:05:58Z</time>
      </trkpt>
      <trkpt lat="45.15296" lon="5.81538">
        <ele>572</ele>
        <time>2021-05-29T13:05:59Z</time>
      </trkpt>
      <trkpt lat="45.15297" lon="5.81537">
        <ele>572.2</ele>
        <time>2021-05-29T13:06:00Z</time>
      </trkpt>
      <trkpt lat="45.15298" lon="5.81536">
        <ele>572.2</ele>
        <time>2021-05-29T13:06:01Z</time>
      </trkpt>
      <trkpt lat="45.15298" lon="5.81536">
        <ele>572.2</ele>
        <time>2021-05-29T13:06:02Z</time>
      </trkpt>
      <trkpt lat="45.15299" lon="5.81535">
        <ele>572.4</ele>
        <time>2021-05-29T13:06:03Z</time>
      </trkpt>
      <trkpt lat="45.15301" lon="5.81534">
        <ele>572.4</ele>
        <time>2021-05-29T13:06:04Z</time>
      </trkpt>
      <trkpt lat="45.15302" lon="5.81533">
        <ele>572.6</ele>
        <time>2021-05-29T13:06:05Z</time>
      </trkpt>
      <trkpt lat="45.15304" lon="5.81533">
        <ele>572.8</ele>
        <time>2021-05-29T13:06:06Z</time>
      </trkpt>
      <trkpt lat="45.15305" lon="5.81532">
        <ele>573</ele>
        <time>2021-05-29T13:06:07Z</time>
      </trkpt>
      <trkpt lat="45.15307" lon="5.81531">
        <ele>573.2</ele>
        <time>2021-05-29T13:06:08Z</time>
      </trkpt>
      <trkpt lat="45.15308" lon="5.8153">
        <ele>573.2</ele>
        <time>2021-05-29T13:06:09Z</time>
      </trkpt>
      <trkpt lat="45.15309" lon="5.81529">
        <ele>573.2</ele>
        <time>2021-05-29T13:06:10Z</time>
      </trkpt>
      <trkpt lat="45.1531" lon="5.81528">
        <ele>573.6</ele>
        <time>2021-05-29T13:06:11Z</time>
      </trkpt>
      <trkpt lat="45.15311" lon="5.81527">
        <ele>573.6</ele>
        <time>2021-05-29T13:06:12Z</time>
      </trkpt>
      <trkpt lat="45.15312" lon="5.81526">
        <ele>573.8</ele>
        <time>2021-05-29T13:06:13Z</time>
      </trkpt>
      <trkpt lat="45.15313" lon="5.81524">
        <ele>574</ele>
        <time>2021-05-29T13:06:14Z</time>
      </trkpt>
      <trkpt lat="45.15314" lon="5.81523">
        <ele>574</ele>
        <time>2021-05-29T13:06:15Z</time>
      </trkpt>
      <trkpt lat="45.15315" lon="5.81522">
        <ele>574.2</ele>
        <time>2021-05-29T13:06:16Z</time>
      </trkpt>
      <trkpt lat="45.15316" lon="5.81521">
        <ele>574.2</ele>
        <time>2021-05-29T13:06:17Z</time>
      </trkpt>
      <trkpt lat="45.15317" lon="5.8152">
        <ele>574.4</ele>
        <time>2021-05-29T13:06:18Z</time>
      </trkpt>
      <trkpt lat="45.15318" lon="5.81519">
        <ele>574.6</ele>
        <time>2021-05-29T13:06:19Z</time>
      </trkpt>
      <trkpt lat="45.15319" lon="5.81518">
        <ele>574.8</ele>
        <time>2021-05-29T13:06:20Z</time>
      </trkpt>
      <trkpt lat="45.1532" lon="5.81518">
        <ele>575</ele>
        <time>2021-05-29T13:06:21Z</time>
      </trkpt>
      <trkpt lat="45.15321" lon="5.81517">
        <ele>575.2</ele>
        <time>2021-05-29T13:06:22Z</time>
      </trkpt>
      <trkpt lat="45.15321" lon="5.81516">
        <ele>575.4</ele>
        <time>2021-05-29T13:06:23Z</time>
      </trkpt>
      <trkpt lat="45.15322" lon="5.81515">
        <ele>575.6</ele>
        <time>2021-05-29T13:06:24Z</time>
      </trkpt>
      <trkpt lat="45.15323" lon="5.81514">
        <ele>576</ele>
        <time>2021-05-29T13:06:25Z</time>
      </trkpt>
      <trkpt lat="45.15324" lon="5.81513">
        <ele>576</ele>
        <time>2021-05-29T13:06:26Z</time>
      </trkpt>
      <trkpt lat="45.15325" lon="5.81512">
        <ele>576.2</ele>
        <time>2021-05-29T13:06:27Z</time>
      </trkpt>
      <trkpt lat="45.15326" lon="5.81512">
        <ele>576.4</ele>
        <time>2021-05-29T13:06:28Z</time>
      </trkpt>
      <trkpt lat="45.15327" lon="5.81511">
        <ele>576.4</ele>
        <time>2021-05-29T13:06:29Z</time>
      </trkpt>
      <trkpt lat="45.15328" lon="5.8151">
        <ele>576.8</ele>
        <time>2021-05-29T13:06:30Z</time>
      </trkpt>
      <trkpt lat="45.15329" lon="5.81509">
        <ele>576.8</ele>
        <time>2021-05-29T13:06:31Z</time>
      </trkpt>
      <trkpt lat="45.1533" lon="5.81508">
        <ele>576.8</ele>
        <time>2021-05-29T13:06:32Z</time>
      </trkpt>
      <trkpt lat="45.15331" lon="5.81508">
        <ele>576.8</ele>
        <time>2021-05-29T13:06:33Z</time>
      </trkpt>
      <trkpt lat="45.15332" lon="5.81507">
        <ele>576.8</ele>
        <time>2021-05-29T13:06:34Z</time>
      </trkpt>
      <trkpt lat="45.15334" lon="5.81506">
        <ele>577</ele>
        <time>2021-05-29T13:06:35Z</time>
      </trkpt>
      <trkpt lat="45.15335" lon="5.81505">
        <ele>577</ele>
        <time>2021-05-29T13:06:36Z</time>
      </trkpt>
      <trkpt lat="45.15337" lon="5.81504">
        <ele>577.2</ele>
        <time>2021-05-29T13:06:37Z</time>
      </trkpt>
      <trkpt lat="45.15338" lon="5.81503">
        <ele>577.2</ele>
        <time>2021-05-29T13:06:38Z</time>
      </trkpt>
      <trkpt lat="45.15339" lon="5.81502">
        <ele>577.2</ele>
        <time>2021-05-29T13:06:39Z</time>
      </trkpt>
      <trkpt lat="45.15341" lon="5.81501">
        <ele>577.2</ele>
        <time>2021-05-29T13:06:40Z</time>
      </trkpt>
      <trkpt lat="45.15342" lon="5.815">
        <ele>577.4</ele>
        <time>2021-05-29T13:06:41Z</time>
      </trkpt>
      <trkpt lat="45.15343" lon="5.81499">
        <ele>577.6</ele>
        <time>2021-05-29T13:06:42Z</time>
      </trkpt>
      <trkpt lat="45.15343" lon="5.81498">
        <ele>577.4</ele>
        <time>2021-05-29T13:06:43Z</time>
      </trkpt>
      <trkpt lat="45.15344" lon="5.81497">
        <ele>577.4</ele>
        <time>2021-05-29T13:06:44Z</time>
      </trkpt>
      <trkpt lat="45.15345" lon="5.81496">
        <ele>577.4</ele>
        <time>2021-05-29T13:06:45Z</time>
      </trkpt>
      <trkpt lat="45.15346" lon="5.81495">
        <ele>577.4</ele>
        <time>2021-05-29T13:06:46Z</time>
      </trkpt>
      <trkpt lat="45.15347" lon="5.81494">
        <ele>577.4</ele>
        <time>2021-05-29T13:06:47Z</time>
      </trkpt>
      <trkpt lat="45.15348" lon="5.81493">
        <ele>577.4</ele>
        <time>2021-05-29T13:06:48Z</time>
      </trkpt>
      <trkpt lat="45.15348" lon="5.81492">
        <ele>577.4</ele>
        <time>2021-05-29T13:06:49Z</time>
      </trkpt>
      <trkpt lat="45.1535" lon="5.81491">
        <ele>577.2</ele>
        <time>2021-05-29T13:06:50Z</time>
      </trkpt>
      <trkpt lat="45.15351" lon="5.8149">
        <ele>577</ele>
        <time>2021-05-29T13:06:51Z</time>
      </trkpt>
      <trkpt lat="45.15352" lon="5.8149">
        <ele>577.2</ele>
        <time>2021-05-29T13:06:52Z</time>
      </trkpt>
      <trkpt lat="45.15353" lon="5.81489">
        <ele>577.2</ele>
        <time>2021-05-29T13:06:53Z</time>
      </trkpt>
      <trkpt lat="45.15354" lon="5.81488">
        <ele>577.2</ele>
        <time>2021-05-29T13:06:54Z</time>
      </trkpt>
      <trkpt lat="45.15355" lon="5.81487">
        <ele>577.2</ele>
        <time>2021-05-29T13:06:55Z</time>
      </trkpt>
      <trkpt lat="45.15356" lon="5.81487">
        <ele>577</ele>
        <time>2021-05-29T13:06:56Z</time>
      </trkpt>
      <trkpt lat="45.15357" lon="5.81486">
        <ele>577</ele>
        <time>2021-05-29T13:06:57Z</time>
      </trkpt>
      <trkpt lat="45.15358" lon="5.81485">
        <ele>577.2</ele>
        <time>2021-05-29T13:06:58Z</time>
      </trkpt>
      <trkpt lat="45.15359" lon="5.81485">
        <ele>577</ele>
        <time>2021-05-29T13:06:59Z</time>
      </trkpt>
      <trkpt lat="45.15361" lon="5.81484">
        <ele>577</ele>
        <time>2021-05-29T13:07:00Z</time>
      </trkpt>
      <trkpt lat="45.15362" lon="5.81484">
        <ele>577</ele>
        <time>2021-05-29T13:07:01Z</time>
      </trkpt>
      <trkpt lat="45.15363" lon="5.81483">
        <ele>577</ele>
        <time>2021-05-29T13:07:02Z</time>
      </trkpt>
      <trkpt lat="45.15365" lon="5.81483">
        <ele>577</ele>
        <time>2021-05-29T13:07:03Z</time>
      </trkpt>
      <trkpt lat="45.15366" lon="5.81482">
        <ele>577</ele>
        <time>2021-05-29T13:07:04Z</time>
      </trkpt>
      <trkpt lat="45.15367" lon="5.81481">
        <ele>577</ele>
        <time>2021-05-29T13:07:05Z</time>
      </trkpt>
      <trkpt lat="45.15368" lon="5.8148">
        <ele>577.2</ele>
        <time>2021-05-29T13:07:06Z</time>
      </trkpt>
      <trkpt lat="45.15369" lon="5.81479">
        <ele>577.4</ele>
        <time>2021-05-29T13:07:07Z</time>
      </trkpt>
      <trkpt lat="45.15371" lon="5.81478">
        <ele>577.4</ele>
        <time>2021-05-29T13:07:08Z</time>
      </trkpt>
      <trkpt lat="45.15372" lon="5.81477">
        <ele>577.6</ele>
        <time>2021-05-29T13:07:09Z</time>
      </trkpt>
      <trkpt lat="45.15373" lon="5.81476">
        <ele>577.8</ele>
        <time>2021-05-29T13:07:10Z</time>
      </trkpt>
      <trkpt lat="45.15374" lon="5.81474">
        <ele>577.6</ele>
        <time>2021-05-29T13:07:11Z</time>
      </trkpt>
      <trkpt lat="45.15376" lon="5.81473">
        <ele>577.8</ele>
        <time>2021-05-29T13:07:12Z</time>
      </trkpt>
      <trkpt lat="45.15377" lon="5.81472">
        <ele>577.8</ele>
        <time>2021-05-29T13:07:13Z</time>
      </trkpt>
      <trkpt lat="45.15378" lon="5.81471">
        <ele>578</ele>
        <time>2021-05-29T13:07:14Z</time>
      </trkpt>
      <trkpt lat="45.1538" lon="5.81469">
        <ele>578</ele>
        <time>2021-05-29T13:07:15Z</time>
      </trkpt>
      <trkpt lat="45.15381" lon="5.81468">
        <ele>577.8</ele>
        <time>2021-05-29T13:07:16Z</time>
      </trkpt>
      <trkpt lat="45.15382" lon="5.81467">
        <ele>578</ele>
        <time>2021-05-29T13:07:17Z</time>
      </trkpt>
      <trkpt lat="45.15383" lon="5.81467">
        <ele>578</ele>
        <time>2021-05-29T13:07:18Z</time>
      </trkpt>
      <trkpt lat="45.15384" lon="5.81466">
        <ele>578</ele>
        <time>2021-05-29T13:07:19Z</time>
      </trkpt>
      <trkpt lat="45.15385" lon="5.81466">
        <ele>578.2</ele>
        <time>2021-05-29T13:07:20Z</time>
      </trkpt>
      <trkpt lat="45.15386" lon="5.81465">
        <ele>578.4</ele>
        <time>2021-05-29T13:07:21Z</time>
      </trkpt>
      <trkpt lat="45.15387" lon="5.81465">
        <ele>578.4</ele>
        <time>2021-05-29T13:07:22Z</time>
      </trkpt>
      <trkpt lat="45.15388" lon="5.81465">
        <ele>578.4</ele>
        <time>2021-05-29T13:07:23Z</time>
      </trkpt>
      <trkpt lat="45.15388" lon="5.81464">
        <ele>578.6</ele>
        <time>2021-05-29T13:07:24Z</time>
      </trkpt>
      <trkpt lat="45.15389" lon="5.81464">
        <ele>578.6</ele>
        <time>2021-05-29T13:07:25Z</time>
      </trkpt>
      <trkpt lat="45.1539" lon="5.81464">
        <ele>578.6</ele>
        <time>2021-05-29T13:07:26Z</time>
      </trkpt>
      <trkpt lat="45.15391" lon="5.81463">
        <ele>578.8</ele>
        <time>2021-05-29T13:07:27Z</time>
      </trkpt>
      <trkpt lat="45.15393" lon="5.81463">
        <ele>578.8</ele>
        <time>2021-05-29T13:07:28Z</time>
      </trkpt>
      <trkpt lat="45.15394" lon="5.81463">
        <ele>579.2</ele>
        <time>2021-05-29T13:07:29Z</time>
      </trkpt>
      <trkpt lat="45.15396" lon="5.81462">
        <ele>579.2</ele>
        <time>2021-05-29T13:07:30Z</time>
      </trkpt>
      <trkpt lat="45.15397" lon="5.81462">
        <ele>579.4</ele>
        <time>2021-05-29T13:07:31Z</time>
      </trkpt>
      <trkpt lat="45.15399" lon="5.81462">
        <ele>579.4</ele>
        <time>2021-05-29T13:07:32Z</time>
      </trkpt>
      <trkpt lat="45.154" lon="5.81461">
        <ele>579.6</ele>
        <time>2021-05-29T13:07:33Z</time>
      </trkpt>
      <trkpt lat="45.15401" lon="5.81461">
        <ele>579.8</ele>
        <time>2021-05-29T13:07:34Z</time>
      </trkpt>
      <trkpt lat="45.15403" lon="5.81461">
        <ele>580</ele>
        <time>2021-05-29T13:07:35Z</time>
      </trkpt>
      <trkpt lat="45.15404" lon="5.81461">
        <ele>580</ele>
        <time>2021-05-29T13:07:36Z</time>
      </trkpt>
      <trkpt lat="45.15405" lon="5.81461">
        <ele>580.2</ele>
        <time>2021-05-29T13:07:37Z</time>
      </trkpt>
      <trkpt lat="45.15406" lon="5.81461">
        <ele>580.4</ele>
        <time>2021-05-29T13:07:38Z</time>
      </trkpt>
      <trkpt lat="45.15407" lon="5.81462">
        <ele>580.8</ele>
        <time>2021-05-29T13:07:39Z</time>
      </trkpt>
      <trkpt lat="45.15408" lon="5.81462">
        <ele>581</ele>
        <time>2021-05-29T13:07:40Z</time>
      </trkpt>
      <trkpt lat="45.15409" lon="5.81462">
        <ele>581.4</ele>
        <time>2021-05-29T13:07:41Z</time>
      </trkpt>
      <trkpt lat="45.1541" lon="5.81462">
        <ele>581.6</ele>
        <time>2021-05-29T13:07:42Z</time>
      </trkpt>
      <trkpt lat="45.15411" lon="5.81462">
        <ele>582</ele>
        <time>2021-05-29T13:07:43Z</time>
      </trkpt>
      <trkpt lat="45.15413" lon="5.81461">
        <ele>582.2</ele>
        <time>2021-05-29T13:07:44Z</time>
      </trkpt>
      <trkpt lat="45.15414" lon="5.81461">
        <ele>582.2</ele>
        <time>2021-05-29T13:07:45Z</time>
      </trkpt>
      <trkpt lat="45.15415" lon="5.8146">
        <ele>582.4</ele>
        <time>2021-05-29T13:07:46Z</time>
      </trkpt>
      <trkpt lat="45.15416" lon="5.8146">
        <ele>582.6</ele>
        <time>2021-05-29T13:07:47Z</time>
      </trkpt>
      <trkpt lat="45.15417" lon="5.8146">
        <ele>582.8</ele>
        <time>2021-05-29T13:07:48Z</time>
      </trkpt>
      <trkpt lat="45.15419" lon="5.81459">
        <ele>582.8</ele>
        <time>2021-05-29T13:07:49Z</time>
      </trkpt>
      <trkpt lat="45.1542" lon="5.81459">
        <ele>582.8</ele>
        <time>2021-05-29T13:07:50Z</time>
      </trkpt>
      <trkpt lat="45.15421" lon="5.81458">
        <ele>583.2</ele>
        <time>2021-05-29T13:07:51Z</time>
      </trkpt>
      <trkpt lat="45.15422" lon="5.81457">
        <ele>583.6</ele>
        <time>2021-05-29T13:07:52Z</time>
      </trkpt>
      <trkpt lat="45.15423" lon="5.81456">
        <ele>583.8</ele>
        <time>2021-05-29T13:07:53Z</time>
      </trkpt>
      <trkpt lat="45.15424" lon="5.81456">
        <ele>583.8</ele>
        <time>2021-05-29T13:07:54Z</time>
      </trkpt>
      <trkpt lat="45.15425" lon="5.81455">
        <ele>583.8</ele>
        <time>2021-05-29T13:07:55Z</time>
      </trkpt>
      <trkpt lat="45.15426" lon="5.81454">
        <ele>583.8</ele>
        <time>2021-05-29T13:07:56Z</time>
      </trkpt>
      <trkpt lat="45.15427" lon="5.81453">
        <ele>584</ele>
        <time>2021-05-29T13:07:57Z</time>
      </trkpt>
      <trkpt lat="45.15428" lon="5.81452">
        <ele>584</ele>
        <time>2021-05-29T13:07:58Z</time>
      </trkpt>
      <trkpt lat="45.15429" lon="5.81451">
        <ele>584.2</ele>
        <time>2021-05-29T13:07:59Z</time>
      </trkpt>
      <trkpt lat="45.1543" lon="5.8145">
        <ele>584.4</ele>
        <time>2021-05-29T13:08:00Z</time>
      </trkpt>
      <trkpt lat="45.15431" lon="5.81449">
        <ele>584.8</ele>
        <time>2021-05-29T13:08:01Z</time>
      </trkpt>
      <trkpt lat="45.15432" lon="5.81448">
        <ele>585.2</ele>
        <time>2021-05-29T13:08:02Z</time>
      </trkpt>
      <trkpt lat="45.15433" lon="5.81447">
        <ele>585.4</ele>
        <time>2021-05-29T13:08:03Z</time>
      </trkpt>
      <trkpt lat="45.15434" lon="5.81446">
        <ele>585.6</ele>
        <time>2021-05-29T13:08:04Z</time>
      </trkpt>
      <trkpt lat="45.15435" lon="5.81445">
        <ele>585.6</ele>
        <time>2021-05-29T13:08:05Z</time>
      </trkpt>
      <trkpt lat="45.15436" lon="5.81444">
        <ele>585.8</ele>
        <time>2021-05-29T13:08:06Z</time>
      </trkpt>
      <trkpt lat="45.15437" lon="5.81443">
        <ele>586.2</ele>
        <time>2021-05-29T13:08:07Z</time>
      </trkpt>
      <trkpt lat="45.15439" lon="5.81442">
        <ele>586.2</ele>
        <time>2021-05-29T13:08:08Z</time>
      </trkpt>
      <trkpt lat="45.1544" lon="5.81441">
        <ele>586.4</ele>
        <time>2021-05-29T13:08:09Z</time>
      </trkpt>
      <trkpt lat="45.15441" lon="5.81441">
        <ele>586.6</ele>
        <time>2021-05-29T13:08:10Z</time>
      </trkpt>
      <trkpt lat="45.15442" lon="5.8144">
        <ele>586.6</ele>
        <time>2021-05-29T13:08:11Z</time>
      </trkpt>
      <trkpt lat="45.15443" lon="5.8144">
        <ele>586.8</ele>
        <time>2021-05-29T13:08:12Z</time>
      </trkpt>
      <trkpt lat="45.15444" lon="5.81439">
        <ele>587</ele>
        <time>2021-05-29T13:08:13Z</time>
      </trkpt>
      <trkpt lat="45.15445" lon="5.81439">
        <ele>587</ele>
        <time>2021-05-29T13:08:14Z</time>
      </trkpt>
      <trkpt lat="45.15447" lon="5.81438">
        <ele>587.4</ele>
        <time>2021-05-29T13:08:15Z</time>
      </trkpt>
      <trkpt lat="45.15447" lon="5.81437">
        <ele>587.6</ele>
        <time>2021-05-29T13:08:16Z</time>
      </trkpt>
      <trkpt lat="45.15448" lon="5.81436">
        <ele>587.6</ele>
        <time>2021-05-29T13:08:17Z</time>
      </trkpt>
      <trkpt lat="45.15448" lon="5.81435">
        <ele>587.8</ele>
        <time>2021-05-29T13:08:18Z</time>
      </trkpt>
      <trkpt lat="45.15449" lon="5.81434">
        <ele>588</ele>
        <time>2021-05-29T13:08:19Z</time>
      </trkpt>
      <trkpt lat="45.1545" lon="5.81433">
        <ele>588.4</ele>
        <time>2021-05-29T13:08:20Z</time>
      </trkpt>
      <trkpt lat="45.1545" lon="5.81432">
        <ele>588.6</ele>
        <time>2021-05-29T13:08:21Z</time>
      </trkpt>
      <trkpt lat="45.15451" lon="5.81431">
        <ele>588.6</ele>
        <time>2021-05-29T13:08:22Z</time>
      </trkpt>
      <trkpt lat="45.15451" lon="5.8143">
        <ele>588.8</ele>
        <time>2021-05-29T13:08:23Z</time>
      </trkpt>
      <trkpt lat="45.15452" lon="5.81429">
        <ele>589.2</ele>
        <time>2021-05-29T13:08:24Z</time>
      </trkpt>
      <trkpt lat="45.15453" lon="5.81428">
        <ele>589.2</ele>
        <time>2021-05-29T13:08:25Z</time>
      </trkpt>
      <trkpt lat="45.15453" lon="5.81427">
        <ele>589.4</ele>
        <time>2021-05-29T13:08:26Z</time>
      </trkpt>
      <trkpt lat="45.15454" lon="5.81426">
        <ele>590</ele>
        <time>2021-05-29T13:08:28Z</time>
      </trkpt>
      <trkpt lat="45.15455" lon="5.81425">
        <ele>590.4</ele>
        <time>2021-05-29T13:08:29Z</time>
      </trkpt>
      <trkpt lat="45.15456" lon="5.81424">
        <ele>590.6</ele>
        <time>2021-05-29T13:08:30Z</time>
      </trkpt>
      <trkpt lat="45.15456" lon="5.81423">
        <ele>590.8</ele>
        <time>2021-05-29T13:08:31Z</time>
      </trkpt>
      <trkpt lat="45.15457" lon="5.81422">
        <ele>591</ele>
        <time>2021-05-29T13:08:32Z</time>
      </trkpt>
      <trkpt lat="45.15458" lon="5.81421">
        <ele>591.2</ele>
        <time>2021-05-29T13:08:33Z</time>
      </trkpt>
      <trkpt lat="45.15459" lon="5.81421">
        <ele>591.2</ele>
        <time>2021-05-29T13:08:34Z</time>
      </trkpt>
      <trkpt lat="45.15459" lon="5.8142">
        <ele>591.4</ele>
        <time>2021-05-29T13:08:35Z</time>
      </trkpt>
      <trkpt lat="45.1546" lon="5.81419">
        <ele>591.4</ele>
        <time>2021-05-29T13:08:36Z</time>
      </trkpt>
      <trkpt lat="45.15461" lon="5.81418">
        <ele>591.8</ele>
        <time>2021-05-29T13:08:37Z</time>
      </trkpt>
      <trkpt lat="45.15461" lon="5.81417">
        <ele>592</ele>
        <time>2021-05-29T13:08:38Z</time>
      </trkpt>
      <trkpt lat="45.15462" lon="5.81416">
        <ele>592</ele>
        <time>2021-05-29T13:08:39Z</time>
      </trkpt>
      <trkpt lat="45.15462" lon="5.81416">
        <ele>592.2</ele>
        <time>2021-05-29T13:08:40Z</time>
      </trkpt>
      <trkpt lat="45.15463" lon="5.81415">
        <ele>592.4</ele>
        <time>2021-05-29T13:08:41Z</time>
      </trkpt>
      <trkpt lat="45.15464" lon="5.81414">
        <ele>592.4</ele>
        <time>2021-05-29T13:08:42Z</time>
      </trkpt>
      <trkpt lat="45.15464" lon="5.81413">
        <ele>592.8</ele>
        <time>2021-05-29T13:08:43Z</time>
      </trkpt>
      <trkpt lat="45.15465" lon="5.81412">
        <ele>593.2</ele>
        <time>2021-05-29T13:08:44Z</time>
      </trkpt>
      <trkpt lat="45.15465" lon="5.81412">
        <ele>593.4</ele>
        <time>2021-05-29T13:08:45Z</time>
      </trkpt>
      <trkpt lat="45.15466" lon="5.81411">
        <ele>593.4</ele>
        <time>2021-05-29T13:08:46Z</time>
      </trkpt>
      <trkpt lat="45.15466" lon="5.8141">
        <ele>593.8</ele>
        <time>2021-05-29T13:08:47Z</time>
      </trkpt>
      <trkpt lat="45.15467" lon="5.81409">
        <ele>594</ele>
        <time>2021-05-29T13:08:48Z</time>
      </trkpt>
      <trkpt lat="45.15467" lon="5.81408">
        <ele>594.4</ele>
        <time>2021-05-29T13:08:49Z</time>
      </trkpt>
      <trkpt lat="45.15468" lon="5.81408">
        <ele>594.6</ele>
        <time>2021-05-29T13:08:50Z</time>
      </trkpt>
      <trkpt lat="45.15469" lon="5.81407">
        <ele>594.6</ele>
        <time>2021-05-29T13:08:51Z</time>
      </trkpt>
      <trkpt lat="45.15469" lon="5.81406">
        <ele>595</ele>
        <time>2021-05-29T13:08:52Z</time>
      </trkpt>
      <trkpt lat="45.1547" lon="5.81405">
        <ele>595.2</ele>
        <time>2021-05-29T13:08:53Z</time>
      </trkpt>
      <trkpt lat="45.1547" lon="5.81404">
        <ele>595.6</ele>
        <time>2021-05-29T13:08:54Z</time>
      </trkpt>
      <trkpt lat="45.15471" lon="5.81403">
        <ele>595.6</ele>
        <time>2021-05-29T13:08:55Z</time>
      </trkpt>
      <trkpt lat="45.15472" lon="5.81403">
        <ele>596</ele>
        <time>2021-05-29T13:08:56Z</time>
      </trkpt>
      <trkpt lat="45.15473" lon="5.81401">
        <ele>596</ele>
        <time>2021-05-29T13:08:57Z</time>
      </trkpt>
      <trkpt lat="45.15473" lon="5.81401">
        <ele>596.4</ele>
        <time>2021-05-29T13:08:58Z</time>
      </trkpt>
      <trkpt lat="45.15474" lon="5.814">
        <ele>596.6</ele>
        <time>2021-05-29T13:08:59Z</time>
      </trkpt>
      <trkpt lat="45.15475" lon="5.814">
        <ele>596.8</ele>
        <time>2021-05-29T13:09:00Z</time>
      </trkpt>
      <trkpt lat="45.15475" lon="5.81399">
        <ele>597</ele>
        <time>2021-05-29T13:09:01Z</time>
      </trkpt>
      <trkpt lat="45.15476" lon="5.81398">
        <ele>597.4</ele>
        <time>2021-05-29T13:09:02Z</time>
      </trkpt>
      <trkpt lat="45.15476" lon="5.81398">
        <ele>597.8</ele>
        <time>2021-05-29T13:09:03Z</time>
      </trkpt>
      <trkpt lat="45.15477" lon="5.81397">
        <ele>598.2</ele>
        <time>2021-05-29T13:09:04Z</time>
      </trkpt>
      <trkpt lat="45.15478" lon="5.81397">
        <ele>598.2</ele>
        <time>2021-05-29T13:09:05Z</time>
      </trkpt>
      <trkpt lat="45.15478" lon="5.81396">
        <ele>598.4</ele>
        <time>2021-05-29T13:09:06Z</time>
      </trkpt>
      <trkpt lat="45.15479" lon="5.81396">
        <ele>598.4</ele>
        <time>2021-05-29T13:09:07Z</time>
      </trkpt>
      <trkpt lat="45.15479" lon="5.81395">
        <ele>598.8</ele>
        <time>2021-05-29T13:09:08Z</time>
      </trkpt>
      <trkpt lat="45.1548" lon="5.81395">
        <ele>599</ele>
        <time>2021-05-29T13:09:09Z</time>
      </trkpt>
      <trkpt lat="45.15481" lon="5.81394">
        <ele>599</ele>
        <time>2021-05-29T13:09:10Z</time>
      </trkpt>
      <trkpt lat="45.15481" lon="5.81393">
        <ele>599.2</ele>
        <time>2021-05-29T13:09:11Z</time>
      </trkpt>
      <trkpt lat="45.15482" lon="5.81393">
        <ele>599.6</ele>
        <time>2021-05-29T13:09:12Z</time>
      </trkpt>
      <trkpt lat="45.15482" lon="5.81392">
        <ele>599.8</ele>
        <time>2021-05-29T13:09:13Z</time>
      </trkpt>
      <trkpt lat="45.15483" lon="5.81392">
        <ele>600</ele>
        <time>2021-05-29T13:09:14Z</time>
      </trkpt>
      <trkpt lat="45.15484" lon="5.81391">
        <ele>600.2</ele>
        <time>2021-05-29T13:09:15Z</time>
      </trkpt>
      <trkpt lat="45.15484" lon="5.81391">
        <ele>600.2</ele>
        <time>2021-05-29T13:09:16Z</time>
      </trkpt>
      <trkpt lat="45.15485" lon="5.8139">
        <ele>600.4</ele>
        <time>2021-05-29T13:09:17Z</time>
      </trkpt>
      <trkpt lat="45.15485" lon="5.8139">
        <ele>600.6</ele>
        <time>2021-05-29T13:09:18Z</time>
      </trkpt>
      <trkpt lat="45.15486" lon="5.81389">
        <ele>600.8</ele>
        <time>2021-05-29T13:09:19Z</time>
      </trkpt>
      <trkpt lat="45.15487" lon="5.81388">
        <ele>601.4</ele>
        <time>2021-05-29T13:09:20Z</time>
      </trkpt>
      <trkpt lat="45.15487" lon="5.81388">
        <ele>601.6</ele>
        <time>2021-05-29T13:09:21Z</time>
      </trkpt>
      <trkpt lat="45.15488" lon="5.81387">
        <ele>601.6</ele>
        <time>2021-05-29T13:09:22Z</time>
      </trkpt>
      <trkpt lat="45.15488" lon="5.81387">
        <ele>601.6</ele>
        <time>2021-05-29T13:09:23Z</time>
      </trkpt>
      <trkpt lat="45.15489" lon="5.81386">
        <ele>601.8</ele>
        <time>2021-05-29T13:09:24Z</time>
      </trkpt>
      <trkpt lat="45.1549" lon="5.81386">
        <ele>602</ele>
        <time>2021-05-29T13:09:25Z</time>
      </trkpt>
      <trkpt lat="45.1549" lon="5.81385">
        <ele>602.2</ele>
        <time>2021-05-29T13:09:26Z</time>
      </trkpt>
      <trkpt lat="45.15491" lon="5.81385">
        <ele>602.4</ele>
        <time>2021-05-29T13:09:27Z</time>
      </trkpt>
      <trkpt lat="45.15491" lon="5.81384">
        <ele>602.8</ele>
        <time>2021-05-29T13:09:28Z</time>
      </trkpt>
      <trkpt lat="45.15492" lon="5.81383">
        <ele>603</ele>
        <time>2021-05-29T13:09:29Z</time>
      </trkpt>
      <trkpt lat="45.15492" lon="5.81383">
        <ele>603.2</ele>
        <time>2021-05-29T13:09:30Z</time>
      </trkpt>
      <trkpt lat="45.15493" lon="5.81382">
        <ele>603.6</ele>
        <time>2021-05-29T13:09:31Z</time>
      </trkpt>
      <trkpt lat="45.15494" lon="5.81382">
        <ele>603.8</ele>
        <time>2021-05-29T13:09:32Z</time>
      </trkpt>
      <trkpt lat="45.15494" lon="5.81381">
        <ele>604</ele>
        <time>2021-05-29T13:09:33Z</time>
      </trkpt>
      <trkpt lat="45.15495" lon="5.81381">
        <ele>604.2</ele>
        <time>2021-05-29T13:09:34Z</time>
      </trkpt>
      <trkpt lat="45.15495" lon="5.8138">
        <ele>604.2</ele>
        <time>2021-05-29T13:09:35Z</time>
      </trkpt>
      <trkpt lat="45.15496" lon="5.8138">
        <ele>604.2</ele>
        <time>2021-05-29T13:09:36Z</time>
      </trkpt>
      <trkpt lat="45.15497" lon="5.81379">
        <ele>604.4</ele>
        <time>2021-05-29T13:09:37Z</time>
      </trkpt>
      <trkpt lat="45.15497" lon="5.81378">
        <ele>604.8</ele>
        <time>2021-05-29T13:09:38Z</time>
      </trkpt>
      <trkpt lat="45.15498" lon="5.81378">
        <ele>605</ele>
        <time>2021-05-29T13:09:39Z</time>
      </trkpt>
      <trkpt lat="45.15498" lon="5.81377">
        <ele>605.2</ele>
        <time>2021-05-29T13:09:40Z</time>
      </trkpt>
      <trkpt lat="45.15499" lon="5.81377">
        <ele>605.4</ele>
        <time>2021-05-29T13:09:41Z</time>
      </trkpt>
      <trkpt lat="45.155" lon="5.81376">
        <ele>605.4</ele>
        <time>2021-05-29T13:09:42Z</time>
      </trkpt>
      <trkpt lat="45.155" lon="5.81376">
        <ele>605.6</ele>
        <time>2021-05-29T13:09:43Z</time>
      </trkpt>
      <trkpt lat="45.15501" lon="5.81375">
        <ele>606</ele>
        <time>2021-05-29T13:09:44Z</time>
      </trkpt>
      <trkpt lat="45.15501" lon="5.81375">
        <ele>606.2</ele>
        <time>2021-05-29T13:09:45Z</time>
      </trkpt>
      <trkpt lat="45.15502" lon="5.81374">
        <ele>606.2</ele>
        <time>2021-05-29T13:09:46Z</time>
      </trkpt>
      <trkpt lat="45.15503" lon="5.81373">
        <ele>606.4</ele>
        <time>2021-05-29T13:09:47Z</time>
      </trkpt>
      <trkpt lat="45.15503" lon="5.81373">
        <ele>606.6</ele>
        <time>2021-05-29T13:09:48Z</time>
      </trkpt>
      <trkpt lat="45.15504" lon="5.81372">
        <ele>607</ele>
        <time>2021-05-29T13:09:49Z</time>
      </trkpt>
      <trkpt lat="45.15504" lon="5.81372">
        <ele>607.2</ele>
        <time>2021-05-29T13:09:50Z</time>
      </trkpt>
      <trkpt lat="45.15505" lon="5.81371">
        <ele>607.4</ele>
        <time>2021-05-29T13:09:51Z</time>
      </trkpt>
      <trkpt lat="45.15506" lon="5.81371">
        <ele>607.8</ele>
        <time>2021-05-29T13:09:52Z</time>
      </trkpt>
      <trkpt lat="45.15506" lon="5.8137">
        <ele>608</ele>
        <time>2021-05-29T13:09:53Z</time>
      </trkpt>
      <trkpt lat="45.15507" lon="5.8137">
        <ele>608.2</ele>
        <time>2021-05-29T13:09:54Z</time>
      </trkpt>
      <trkpt lat="45.15507" lon="5.81369">
        <ele>608.2</ele>
        <time>2021-05-29T13:09:55Z</time>
      </trkpt>
      <trkpt lat="45.15508" lon="5.81369">
        <ele>608.4</ele>
        <time>2021-05-29T13:09:56Z</time>
      </trkpt>
      <trkpt lat="45.15509" lon="5.81368">
        <ele>608.6</ele>
        <time>2021-05-29T13:09:57Z</time>
      </trkpt>
      <trkpt lat="45.15513" lon="5.81365">
        <ele>609</ele>
        <time>2021-05-29T13:09:58Z</time>
      </trkpt>
      <trkpt lat="45.15513" lon="5.81365">
        <ele>609.4</ele>
        <time>2021-05-29T13:10:00Z</time>
      </trkpt>
      <trkpt lat="45.15514" lon="5.81365">
        <ele>609.8</ele>
        <time>2021-05-29T13:10:01Z</time>
      </trkpt>
      <trkpt lat="45.15515" lon="5.81364">
        <ele>610</ele>
        <time>2021-05-29T13:10:02Z</time>
      </trkpt>
      <trkpt lat="45.15515" lon="5.81364">
        <ele>610.2</ele>
        <time>2021-05-29T13:10:03Z</time>
      </trkpt>
      <trkpt lat="45.15516" lon="5.81363">
        <ele>610.2</ele>
        <time>2021-05-29T13:10:04Z</time>
      </trkpt>
      <trkpt lat="45.15516" lon="5.81363">
        <ele>610.4</ele>
        <time>2021-05-29T13:10:05Z</time>
      </trkpt>
      <trkpt lat="45.15517" lon="5.81362">
        <ele>610.6</ele>
        <time>2021-05-29T13:10:06Z</time>
      </trkpt>
      <trkpt lat="45.15518" lon="5.81362">
        <ele>610.8</ele>
        <time>2021-05-29T13:10:07Z</time>
      </trkpt>
      <trkpt lat="45.15518" lon="5.81362">
        <ele>611</ele>
        <time>2021-05-29T13:10:08Z</time>
      </trkpt>
      <trkpt lat="45.15519" lon="5.81361">
        <ele>611.2</ele>
        <time>2021-05-29T13:10:09Z</time>
      </trkpt>
      <trkpt lat="45.15519" lon="5.81361">
        <ele>611.2</ele>
        <time>2021-05-29T13:10:10Z</time>
      </trkpt>
      <trkpt lat="45.1552" lon="5.8136">
        <ele>611.6</ele>
        <time>2021-05-29T13:10:11Z</time>
      </trkpt>
      <trkpt lat="45.15521" lon="5.8136">
        <ele>611.8</ele>
        <time>2021-05-29T13:10:12Z</time>
      </trkpt>
      <trkpt lat="45.15521" lon="5.81359">
        <ele>612</ele>
        <time>2021-05-29T13:10:13Z</time>
      </trkpt>
      <trkpt lat="45.15522" lon="5.81359">
        <ele>612.4</ele>
        <time>2021-05-29T13:10:14Z</time>
      </trkpt>
      <trkpt lat="45.15523" lon="5.81359">
        <ele>612.8</ele>
        <time>2021-05-29T13:10:15Z</time>
      </trkpt>
      <trkpt lat="45.15523" lon="5.81358">
        <ele>613</ele>
        <time>2021-05-29T13:10:16Z</time>
      </trkpt>
      <trkpt lat="45.15524" lon="5.81357">
        <ele>613.2</ele>
        <time>2021-05-29T13:10:17Z</time>
      </trkpt>
      <trkpt lat="45.15525" lon="5.81357">
        <ele>613.4</ele>
        <time>2021-05-29T13:10:18Z</time>
      </trkpt>
      <trkpt lat="45.15525" lon="5.81356">
        <ele>613.4</ele>
        <time>2021-05-29T13:10:19Z</time>
      </trkpt>
      <trkpt lat="45.15526" lon="5.81356">
        <ele>613.6</ele>
        <time>2021-05-29T13:10:20Z</time>
      </trkpt>
      <trkpt lat="45.15527" lon="5.81355">
        <ele>613.8</ele>
        <time>2021-05-29T13:10:21Z</time>
      </trkpt>
      <trkpt lat="45.15527" lon="5.81355">
        <ele>614</ele>
        <time>2021-05-29T13:10:22Z</time>
      </trkpt>
      <trkpt lat="45.15528" lon="5.81354">
        <ele>614.4</ele>
        <time>2021-05-29T13:10:23Z</time>
      </trkpt>
      <trkpt lat="45.15529" lon="5.81354">
        <ele>614.4</ele>
        <time>2021-05-29T13:10:24Z</time>
      </trkpt>
      <trkpt lat="45.15529" lon="5.81353">
        <ele>614.6</ele>
        <time>2021-05-29T13:10:25Z</time>
      </trkpt>
      <trkpt lat="45.1553" lon="5.81353">
        <ele>614.6</ele>
        <time>2021-05-29T13:10:26Z</time>
      </trkpt>
      <trkpt lat="45.15531" lon="5.81352">
        <ele>615</ele>
        <time>2021-05-29T13:10:27Z</time>
      </trkpt>
      <trkpt lat="45.15531" lon="5.81351">
        <ele>615.4</ele>
        <time>2021-05-29T13:10:28Z</time>
      </trkpt>
      <trkpt lat="45.15532" lon="5.81351">
        <ele>615.6</ele>
        <time>2021-05-29T13:10:29Z</time>
      </trkpt>
      <trkpt lat="45.15533" lon="5.8135">
        <ele>615.8</ele>
        <time>2021-05-29T13:10:30Z</time>
      </trkpt>
      <trkpt lat="45.15534" lon="5.81349">
        <ele>616.2</ele>
        <time>2021-05-29T13:10:31Z</time>
      </trkpt>
      <trkpt lat="45.15534" lon="5.81349">
        <ele>616.2</ele>
        <time>2021-05-29T13:10:32Z</time>
      </trkpt>
      <trkpt lat="45.15535" lon="5.81348">
        <ele>616.2</ele>
        <time>2021-05-29T13:10:33Z</time>
      </trkpt>
      <trkpt lat="45.15536" lon="5.81348">
        <ele>616.6</ele>
        <time>2021-05-29T13:10:34Z</time>
      </trkpt>
      <trkpt lat="45.15537" lon="5.81347">
        <ele>616.8</ele>
        <time>2021-05-29T13:10:35Z</time>
      </trkpt>
      <trkpt lat="45.15537" lon="5.81346">
        <ele>617</ele>
        <time>2021-05-29T13:10:36Z</time>
      </trkpt>
      <trkpt lat="45.15538" lon="5.81346">
        <ele>617.4</ele>
        <time>2021-05-29T13:10:37Z</time>
      </trkpt>
      <trkpt lat="45.15539" lon="5.81345">
        <ele>617.6</ele>
        <time>2021-05-29T13:10:38Z</time>
      </trkpt>
      <trkpt lat="45.1554" lon="5.81344">
        <ele>617.8</ele>
        <time>2021-05-29T13:10:39Z</time>
      </trkpt>
      <trkpt lat="45.15541" lon="5.81343">
        <ele>618</ele>
        <time>2021-05-29T13:10:40Z</time>
      </trkpt>
      <trkpt lat="45.15542" lon="5.81343">
        <ele>618.2</ele>
        <time>2021-05-29T13:10:41Z</time>
      </trkpt>
      <trkpt lat="45.15543" lon="5.81342">
        <ele>618.6</ele>
        <time>2021-05-29T13:10:42Z</time>
      </trkpt>
      <trkpt lat="45.15544" lon="5.81341">
        <ele>619</ele>
        <time>2021-05-29T13:10:43Z</time>
      </trkpt>
      <trkpt lat="45.15545" lon="5.81341">
        <ele>619</ele>
        <time>2021-05-29T13:10:44Z</time>
      </trkpt>
      <trkpt lat="45.15546" lon="5.8134">
        <ele>619.4</ele>
        <time>2021-05-29T13:10:45Z</time>
      </trkpt>
      <trkpt lat="45.15547" lon="5.81339">
        <ele>619.6</ele>
        <time>2021-05-29T13:10:46Z</time>
      </trkpt>
      <trkpt lat="45.15547" lon="5.81339">
        <ele>619.8</ele>
        <time>2021-05-29T13:10:47Z</time>
      </trkpt>
      <trkpt lat="45.15548" lon="5.81339">
        <ele>620.2</ele>
        <time>2021-05-29T13:10:48Z</time>
      </trkpt>
      <trkpt lat="45.15549" lon="5.81338">
        <ele>620.2</ele>
        <time>2021-05-29T13:10:49Z</time>
      </trkpt>
      <trkpt lat="45.1555" lon="5.81338">
        <ele>620.4</ele>
        <time>2021-05-29T13:10:50Z</time>
      </trkpt>
      <trkpt lat="45.1555" lon="5.81338">
        <ele>620.6</ele>
        <time>2021-05-29T13:10:51Z</time>
      </trkpt>
      <trkpt lat="45.15551" lon="5.81338">
        <ele>621</ele>
        <time>2021-05-29T13:10:52Z</time>
      </trkpt>
      <trkpt lat="45.15552" lon="5.81337">
        <ele>621</ele>
        <time>2021-05-29T13:10:53Z</time>
      </trkpt>
      <trkpt lat="45.15552" lon="5.81337">
        <ele>621.2</ele>
        <time>2021-05-29T13:10:54Z</time>
      </trkpt>
      <trkpt lat="45.15553" lon="5.81337">
        <ele>621.4</ele>
        <time>2021-05-29T13:10:55Z</time>
      </trkpt>
      <trkpt lat="45.15554" lon="5.81337">
        <ele>621.8</ele>
        <time>2021-05-29T13:10:56Z</time>
      </trkpt>
      <trkpt lat="45.15554" lon="5.81336">
        <ele>622</ele>
        <time>2021-05-29T13:10:57Z</time>
      </trkpt>
      <trkpt lat="45.15555" lon="5.81336">
        <ele>622</ele>
        <time>2021-05-29T13:10:58Z</time>
      </trkpt>
      <trkpt lat="45.15556" lon="5.81336">
        <ele>622.4</ele>
        <time>2021-05-29T13:10:59Z</time>
      </trkpt>
      <trkpt lat="45.15557" lon="5.81336">
        <ele>622.6</ele>
        <time>2021-05-29T13:11:00Z</time>
      </trkpt>
      <trkpt lat="45.15557" lon="5.81336">
        <ele>622.8</ele>
        <time>2021-05-29T13:11:01Z</time>
      </trkpt>
      <trkpt lat="45.15558" lon="5.81337">
        <ele>623</ele>
        <time>2021-05-29T13:11:02Z</time>
      </trkpt>
      <trkpt lat="45.15559" lon="5.81337">
        <ele>623.2</ele>
        <time>2021-05-29T13:11:03Z</time>
      </trkpt>
      <trkpt lat="45.1556" lon="5.81337">
        <ele>623.6</ele>
        <time>2021-05-29T13:11:04Z</time>
      </trkpt>
      <trkpt lat="45.15561" lon="5.81337">
        <ele>623.6</ele>
        <time>2021-05-29T13:11:05Z</time>
      </trkpt>
      <trkpt lat="45.15561" lon="5.81337">
        <ele>623.6</ele>
        <time>2021-05-29T13:11:06Z</time>
      </trkpt>
      <trkpt lat="45.15562" lon="5.81338">
        <ele>623.8</ele>
        <time>2021-05-29T13:11:07Z</time>
      </trkpt>
      <trkpt lat="45.15563" lon="5.81338">
        <ele>624.2</ele>
        <time>2021-05-29T13:11:08Z</time>
      </trkpt>
      <trkpt lat="45.15564" lon="5.81338">
        <ele>624.2</ele>
        <time>2021-05-29T13:11:09Z</time>
      </trkpt>
      <trkpt lat="45.15565" lon="5.81338">
        <ele>624.6</ele>
        <time>2021-05-29T13:11:10Z</time>
      </trkpt>
      <trkpt lat="45.15566" lon="5.81337">
        <ele>624.8</ele>
        <time>2021-05-29T13:11:11Z</time>
      </trkpt>
      <trkpt lat="45.15567" lon="5.81337">
        <ele>625</ele>
        <time>2021-05-29T13:11:12Z</time>
      </trkpt>
      <trkpt lat="45.15568" lon="5.81336">
        <ele>625.4</ele>
        <time>2021-05-29T13:11:13Z</time>
      </trkpt>
      <trkpt lat="45.15569" lon="5.81335">
        <ele>625.4</ele>
        <time>2021-05-29T13:11:14Z</time>
      </trkpt>
      <trkpt lat="45.1557" lon="5.81334">
        <ele>625.6</ele>
        <time>2021-05-29T13:11:15Z</time>
      </trkpt>
      <trkpt lat="45.15571" lon="5.81333">
        <ele>626</ele>
        <time>2021-05-29T13:11:16Z</time>
      </trkpt>
      <trkpt lat="45.15572" lon="5.81333">
        <ele>626.2</ele>
        <time>2021-05-29T13:11:17Z</time>
      </trkpt>
      <trkpt lat="45.15573" lon="5.81332">
        <ele>626.4</ele>
        <time>2021-05-29T13:11:18Z</time>
      </trkpt>
      <trkpt lat="45.15573" lon="5.81331">
        <ele>626.6</ele>
        <time>2021-05-29T13:11:19Z</time>
      </trkpt>
      <trkpt lat="45.15574" lon="5.8133">
        <ele>626.6</ele>
        <time>2021-05-29T13:11:20Z</time>
      </trkpt>
      <trkpt lat="45.15575" lon="5.8133">
        <ele>626.8</ele>
        <time>2021-05-29T13:11:21Z</time>
      </trkpt>
      <trkpt lat="45.15575" lon="5.81329">
        <ele>627</ele>
        <time>2021-05-29T13:11:22Z</time>
      </trkpt>
      <trkpt lat="45.15576" lon="5.81328">
        <ele>627.2</ele>
        <time>2021-05-29T13:11:23Z</time>
      </trkpt>
      <trkpt lat="45.15577" lon="5.81328">
        <ele>627.6</ele>
        <time>2021-05-29T13:11:24Z</time>
      </trkpt>
      <trkpt lat="45.15578" lon="5.81327">
        <ele>627.6</ele>
        <time>2021-05-29T13:11:25Z</time>
      </trkpt>
      <trkpt lat="45.15578" lon="5.81326">
        <ele>628</ele>
        <time>2021-05-29T13:11:26Z</time>
      </trkpt>
      <trkpt lat="45.15579" lon="5.81326">
        <ele>628.2</ele>
        <time>2021-05-29T13:11:27Z</time>
      </trkpt>
      <trkpt lat="45.1558" lon="5.81325">
        <ele>628.6</ele>
        <time>2021-05-29T13:11:28Z</time>
      </trkpt>
      <trkpt lat="45.1558" lon="5.81324">
        <ele>628.8</ele>
        <time>2021-05-29T13:11:29Z</time>
      </trkpt>
      <trkpt lat="45.15581" lon="5.81324">
        <ele>629.2</ele>
        <time>2021-05-29T13:11:30Z</time>
      </trkpt>
      <trkpt lat="45.15581" lon="5.81323">
        <ele>629.4</ele>
        <time>2021-05-29T13:11:31Z</time>
      </trkpt>
      <trkpt lat="45.15582" lon="5.81322">
        <ele>629.8</ele>
        <time>2021-05-29T13:11:32Z</time>
      </trkpt>
      <trkpt lat="45.15582" lon="5.81322">
        <ele>630</ele>
        <time>2021-05-29T13:11:33Z</time>
      </trkpt>
      <trkpt lat="45.15583" lon="5.81321">
        <ele>630.2</ele>
        <time>2021-05-29T13:11:34Z</time>
      </trkpt>
      <trkpt lat="45.15584" lon="5.8132">
        <ele>630.4</ele>
        <time>2021-05-29T13:11:35Z</time>
      </trkpt>
      <trkpt lat="45.15584" lon="5.8132">
        <ele>630.6</ele>
        <time>2021-05-29T13:11:36Z</time>
      </trkpt>
      <trkpt lat="45.15585" lon="5.81319">
        <ele>630.6</ele>
        <time>2021-05-29T13:11:37Z</time>
      </trkpt>
      <trkpt lat="45.15585" lon="5.81318">
        <ele>631</ele>
        <time>2021-05-29T13:11:38Z</time>
      </trkpt>
      <trkpt lat="45.15586" lon="5.81318">
        <ele>631.4</ele>
        <time>2021-05-29T13:11:39Z</time>
      </trkpt>
      <trkpt lat="45.15586" lon="5.81317">
        <ele>631.6</ele>
        <time>2021-05-29T13:11:40Z</time>
      </trkpt>
      <trkpt lat="45.15587" lon="5.81316">
        <ele>631.8</ele>
        <time>2021-05-29T13:11:41Z</time>
      </trkpt>
      <trkpt lat="45.15587" lon="5.81316">
        <ele>632.2</ele>
        <time>2021-05-29T13:11:42Z</time>
      </trkpt>
      <trkpt lat="45.15588" lon="5.81315">
        <ele>632.6</ele>
        <time>2021-05-29T13:11:43Z</time>
      </trkpt>
      <trkpt lat="45.15589" lon="5.81314">
        <ele>632.8</ele>
        <time>2021-05-29T13:11:44Z</time>
      </trkpt>
      <trkpt lat="45.1559" lon="5.81313">
        <ele>632.8</ele>
        <time>2021-05-29T13:11:45Z</time>
      </trkpt>
      <trkpt lat="45.1559" lon="5.81312">
        <ele>633.2</ele>
        <time>2021-05-29T13:11:46Z</time>
      </trkpt>
      <trkpt lat="45.15591" lon="5.81311">
        <ele>633.4</ele>
        <time>2021-05-29T13:11:47Z</time>
      </trkpt>
      <trkpt lat="45.15592" lon="5.8131">
        <ele>633.6</ele>
        <time>2021-05-29T13:11:48Z</time>
      </trkpt>
      <trkpt lat="45.15593" lon="5.81309">
        <ele>634</ele>
        <time>2021-05-29T13:11:49Z</time>
      </trkpt>
      <trkpt lat="45.15594" lon="5.81308">
        <ele>634</ele>
        <time>2021-05-29T13:11:50Z</time>
      </trkpt>
      <trkpt lat="45.15594" lon="5.81307">
        <ele>634.4</ele>
        <time>2021-05-29T13:11:51Z</time>
      </trkpt>
      <trkpt lat="45.15595" lon="5.81306">
        <ele>634.6</ele>
        <time>2021-05-29T13:11:52Z</time>
      </trkpt>
      <trkpt lat="45.15595" lon="5.81305">
        <ele>634.8</ele>
        <time>2021-05-29T13:11:53Z</time>
      </trkpt>
      <trkpt lat="45.15595" lon="5.81304">
        <ele>634.8</ele>
        <time>2021-05-29T13:11:54Z</time>
      </trkpt>
      <trkpt lat="45.15595" lon="5.81303">
        <ele>635.2</ele>
        <time>2021-05-29T13:11:55Z</time>
      </trkpt>
      <trkpt lat="45.15596" lon="5.81302">
        <ele>635.4</ele>
        <time>2021-05-29T13:11:56Z</time>
      </trkpt>
      <trkpt lat="45.15596" lon="5.81301">
        <ele>635.6</ele>
        <time>2021-05-29T13:11:57Z</time>
      </trkpt>
      <trkpt lat="45.15596" lon="5.813">
        <ele>635.8</ele>
        <time>2021-05-29T13:11:58Z</time>
      </trkpt>
      <trkpt lat="45.15596" lon="5.81299">
        <ele>636.2</ele>
        <time>2021-05-29T13:11:59Z</time>
      </trkpt>
      <trkpt lat="45.15596" lon="5.81297">
        <ele>636.6</ele>
        <time>2021-05-29T13:12:00Z</time>
      </trkpt>
      <trkpt lat="45.15597" lon="5.81296">
        <ele>636.8</ele>
        <time>2021-05-29T13:12:01Z</time>
      </trkpt>
      <trkpt lat="45.15597" lon="5.81295">
        <ele>636.8</ele>
        <time>2021-05-29T13:12:02Z</time>
      </trkpt>
      <trkpt lat="45.15597" lon="5.81294">
        <ele>637</ele>
        <time>2021-05-29T13:12:03Z</time>
      </trkpt>
      <trkpt lat="45.15597" lon="5.81293">
        <ele>637.4</ele>
        <time>2021-05-29T13:12:04Z</time>
      </trkpt>
      <trkpt lat="45.15598" lon="5.81292">
        <ele>637.6</ele>
        <time>2021-05-29T13:12:05Z</time>
      </trkpt>
      <trkpt lat="45.15598" lon="5.81291">
        <ele>637.8</ele>
        <time>2021-05-29T13:12:06Z</time>
      </trkpt>
      <trkpt lat="45.15598" lon="5.8129">
        <ele>638.2</ele>
        <time>2021-05-29T13:12:07Z</time>
      </trkpt>
      <trkpt lat="45.15599" lon="5.81289">
        <ele>638.4</ele>
        <time>2021-05-29T13:12:08Z</time>
      </trkpt>
      <trkpt lat="45.15599" lon="5.81287">
        <ele>638.4</ele>
        <time>2021-05-29T13:12:09Z</time>
      </trkpt>
      <trkpt lat="45.15599" lon="5.81286">
        <ele>638.8</ele>
        <time>2021-05-29T13:12:10Z</time>
      </trkpt>
      <trkpt lat="45.15599" lon="5.81285">
        <ele>639.2</ele>
        <time>2021-05-29T13:12:11Z</time>
      </trkpt>
      <trkpt lat="45.156" lon="5.81284">
        <ele>639.4</ele>
        <time>2021-05-29T13:12:12Z</time>
      </trkpt>
      <trkpt lat="45.156" lon="5.81283">
        <ele>639.6</ele>
        <time>2021-05-29T13:12:13Z</time>
      </trkpt>
      <trkpt lat="45.156" lon="5.81282">
        <ele>639.8</ele>
        <time>2021-05-29T13:12:14Z</time>
      </trkpt>
      <trkpt lat="45.156" lon="5.81281">
        <ele>640</ele>
        <time>2021-05-29T13:12:15Z</time>
      </trkpt>
      <trkpt lat="45.156" lon="5.81279">
        <ele>640.2</ele>
        <time>2021-05-29T13:12:16Z</time>
      </trkpt>
      <trkpt lat="45.156" lon="5.81278">
        <ele>640.4</ele>
        <time>2021-05-29T13:12:17Z</time>
      </trkpt>
      <trkpt lat="45.156" lon="5.81277">
        <ele>640.4</ele>
        <time>2021-05-29T13:12:18Z</time>
      </trkpt>
      <trkpt lat="45.156" lon="5.81276">
        <ele>640.4</ele>
        <time>2021-05-29T13:12:19Z</time>
      </trkpt>
      <trkpt lat="45.156" lon="5.81274">
        <ele>640.8</ele>
        <time>2021-05-29T13:12:20Z</time>
      </trkpt>
      <trkpt lat="45.156" lon="5.81273">
        <ele>641</ele>
        <time>2021-05-29T13:12:21Z</time>
      </trkpt>
      <trkpt lat="45.156" lon="5.81272">
        <ele>641.4</ele>
        <time>2021-05-29T13:12:22Z</time>
      </trkpt>
      <trkpt lat="45.156" lon="5.81271">
        <ele>641.8</ele>
        <time>2021-05-29T13:12:23Z</time>
      </trkpt>
      <trkpt lat="45.156" lon="5.8127">
        <ele>642</ele>
        <time>2021-05-29T13:12:24Z</time>
      </trkpt>
      <trkpt lat="45.156" lon="5.81268">
        <ele>642.2</ele>
        <time>2021-05-29T13:12:25Z</time>
      </trkpt>
      <trkpt lat="45.156" lon="5.81267">
        <ele>642</ele>
        <time>2021-05-29T13:12:26Z</time>
      </trkpt>
      <trkpt lat="45.156" lon="5.81266">
        <ele>642.2</ele>
        <time>2021-05-29T13:12:27Z</time>
      </trkpt>
      <trkpt lat="45.156" lon="5.81265">
        <ele>642.6</ele>
        <time>2021-05-29T13:12:28Z</time>
      </trkpt>
      <trkpt lat="45.156" lon="5.81264">
        <ele>642.6</ele>
        <time>2021-05-29T13:12:29Z</time>
      </trkpt>
      <trkpt lat="45.156" lon="5.81262">
        <ele>642.8</ele>
        <time>2021-05-29T13:12:30Z</time>
      </trkpt>
      <trkpt lat="45.15599" lon="5.81261">
        <ele>643.2</ele>
        <time>2021-05-29T13:12:31Z</time>
      </trkpt>
      <trkpt lat="45.15599" lon="5.8126">
        <ele>643.4</ele>
        <time>2021-05-29T13:12:32Z</time>
      </trkpt>
      <trkpt lat="45.15599" lon="5.81259">
        <ele>643.8</ele>
        <time>2021-05-29T13:12:33Z</time>
      </trkpt>
      <trkpt lat="45.15599" lon="5.81258">
        <ele>644</ele>
        <time>2021-05-29T13:12:34Z</time>
      </trkpt>
      <trkpt lat="45.15599" lon="5.81257">
        <ele>644</ele>
        <time>2021-05-29T13:12:35Z</time>
      </trkpt>
      <trkpt lat="45.15599" lon="5.81256">
        <ele>644.4</ele>
        <time>2021-05-29T13:12:36Z</time>
      </trkpt>
      <trkpt lat="45.15598" lon="5.81255">
        <ele>644.6</ele>
        <time>2021-05-29T13:12:37Z</time>
      </trkpt>
      <trkpt lat="45.15598" lon="5.81253">
        <ele>644.8</ele>
        <time>2021-05-29T13:12:38Z</time>
      </trkpt>
      <trkpt lat="45.15598" lon="5.81252">
        <ele>644.8</ele>
        <time>2021-05-29T13:12:39Z</time>
      </trkpt>
      <trkpt lat="45.15598" lon="5.8125">
        <ele>645</ele>
        <time>2021-05-29T13:12:40Z</time>
      </trkpt>
      <trkpt lat="45.15598" lon="5.81249">
        <ele>645.4</ele>
        <time>2021-05-29T13:12:41Z</time>
      </trkpt>
      <trkpt lat="45.15598" lon="5.81247">
        <ele>645.6</ele>
        <time>2021-05-29T13:12:42Z</time>
      </trkpt>
      <trkpt lat="45.15598" lon="5.81245">
        <ele>645.8</ele>
        <time>2021-05-29T13:12:43Z</time>
      </trkpt>
      <trkpt lat="45.15598" lon="5.81243">
        <ele>646</ele>
        <time>2021-05-29T13:12:44Z</time>
      </trkpt>
      <trkpt lat="45.15598" lon="5.81241">
        <ele>646.2</ele>
        <time>2021-05-29T13:12:45Z</time>
      </trkpt>
      <trkpt lat="45.15598" lon="5.81239">
        <ele>646.4</ele>
        <time>2021-05-29T13:12:46Z</time>
      </trkpt>
      <trkpt lat="45.15598" lon="5.81238">
        <ele>646.6</ele>
        <time>2021-05-29T13:12:47Z</time>
      </trkpt>
      <trkpt lat="45.15598" lon="5.81236">
        <ele>646.8</ele>
        <time>2021-05-29T13:12:48Z</time>
      </trkpt>
      <trkpt lat="45.15598" lon="5.81235">
        <ele>647</ele>
        <time>2021-05-29T13:12:49Z</time>
      </trkpt>
      <trkpt lat="45.15599" lon="5.81234">
        <ele>647.4</ele>
        <time>2021-05-29T13:12:50Z</time>
      </trkpt>
      <trkpt lat="45.15599" lon="5.81233">
        <ele>647.6</ele>
        <time>2021-05-29T13:12:51Z</time>
      </trkpt>
      <trkpt lat="45.15599" lon="5.81232">
        <ele>648</ele>
        <time>2021-05-29T13:12:52Z</time>
      </trkpt>
      <trkpt lat="45.15599" lon="5.81231">
        <ele>648.2</ele>
        <time>2021-05-29T13:12:53Z</time>
      </trkpt>
      <trkpt lat="45.15599" lon="5.8123">
        <ele>648.2</ele>
        <time>2021-05-29T13:12:54Z</time>
      </trkpt>
      <trkpt lat="45.15599" lon="5.81228">
        <ele>648.4</ele>
        <time>2021-05-29T13:12:55Z</time>
      </trkpt>
      <trkpt lat="45.15599" lon="5.81227">
        <ele>648.8</ele>
        <time>2021-05-29T13:12:56Z</time>
      </trkpt>
      <trkpt lat="45.15599" lon="5.81226">
        <ele>649</ele>
        <time>2021-05-29T13:12:57Z</time>
      </trkpt>
      <trkpt lat="45.15599" lon="5.81225">
        <ele>649.4</ele>
        <time>2021-05-29T13:12:58Z</time>
      </trkpt>
      <trkpt lat="45.156" lon="5.81223">
        <ele>649.6</ele>
        <time>2021-05-29T13:12:59Z</time>
      </trkpt>
      <trkpt lat="45.156" lon="5.81222">
        <ele>650</ele>
        <time>2021-05-29T13:13:00Z</time>
      </trkpt>
      <trkpt lat="45.15601" lon="5.8122">
        <ele>650.2</ele>
        <time>2021-05-29T13:13:01Z</time>
      </trkpt>
      <trkpt lat="45.15601" lon="5.81219">
        <ele>650.8</ele>
        <time>2021-05-29T13:13:02Z</time>
      </trkpt>
      <trkpt lat="45.15602" lon="5.81217">
        <ele>651</ele>
        <time>2021-05-29T13:13:03Z</time>
      </trkpt>
      <trkpt lat="45.15602" lon="5.81215">
        <ele>651.2</ele>
        <time>2021-05-29T13:13:04Z</time>
      </trkpt>
      <trkpt lat="45.15602" lon="5.81214">
        <ele>651.6</ele>
        <time>2021-05-29T13:13:05Z</time>
      </trkpt>
      <trkpt lat="45.15603" lon="5.81212">
        <ele>651.6</ele>
        <time>2021-05-29T13:13:06Z</time>
      </trkpt>
      <trkpt lat="45.15603" lon="5.81211">
        <ele>651.8</ele>
        <time>2021-05-29T13:13:07Z</time>
      </trkpt>
      <trkpt lat="45.15604" lon="5.81209">
        <ele>651.8</ele>
        <time>2021-05-29T13:13:08Z</time>
      </trkpt>
      <trkpt lat="45.15605" lon="5.81208">
        <ele>652.2</ele>
        <time>2021-05-29T13:13:09Z</time>
      </trkpt>
      <trkpt lat="45.15605" lon="5.81207">
        <ele>652.4</ele>
        <time>2021-05-29T13:13:10Z</time>
      </trkpt>
      <trkpt lat="45.15606" lon="5.81205">
        <ele>652.4</ele>
        <time>2021-05-29T13:13:11Z</time>
      </trkpt>
      <trkpt lat="45.15606" lon="5.81204">
        <ele>652.6</ele>
        <time>2021-05-29T13:13:12Z</time>
      </trkpt>
      <trkpt lat="45.15607" lon="5.81202">
        <ele>652.6</ele>
        <time>2021-05-29T13:13:13Z</time>
      </trkpt>
      <trkpt lat="45.15607" lon="5.81201">
        <ele>652.8</ele>
        <time>2021-05-29T13:13:14Z</time>
      </trkpt>
      <trkpt lat="45.15608" lon="5.812">
        <ele>653.2</ele>
        <time>2021-05-29T13:13:15Z</time>
      </trkpt>
      <trkpt lat="45.15608" lon="5.81198">
        <ele>653.4</ele>
        <time>2021-05-29T13:13:16Z</time>
      </trkpt>
      <trkpt lat="45.15609" lon="5.81197">
        <ele>653.4</ele>
        <time>2021-05-29T13:13:17Z</time>
      </trkpt>
      <trkpt lat="45.1561" lon="5.81195">
        <ele>653.8</ele>
        <time>2021-05-29T13:13:18Z</time>
      </trkpt>
      <trkpt lat="45.1561" lon="5.81194">
        <ele>653.8</ele>
        <time>2021-05-29T13:13:19Z</time>
      </trkpt>
      <trkpt lat="45.15611" lon="5.81192">
        <ele>654.2</ele>
        <time>2021-05-29T13:13:20Z</time>
      </trkpt>
      <trkpt lat="45.15612" lon="5.8119">
        <ele>654.2</ele>
        <time>2021-05-29T13:13:21Z</time>
      </trkpt>
      <trkpt lat="45.15613" lon="5.81189">
        <ele>654.2</ele>
        <time>2021-05-29T13:13:22Z</time>
      </trkpt>
      <trkpt lat="45.15613" lon="5.81188">
        <ele>654.4</ele>
        <time>2021-05-29T13:13:23Z</time>
      </trkpt>
      <trkpt lat="45.15614" lon="5.81186">
        <ele>654.6</ele>
        <time>2021-05-29T13:13:24Z</time>
      </trkpt>
      <trkpt lat="45.15614" lon="5.81185">
        <ele>655</ele>
        <time>2021-05-29T13:13:25Z</time>
      </trkpt>
      <trkpt lat="45.15615" lon="5.81184">
        <ele>655.2</ele>
        <time>2021-05-29T13:13:26Z</time>
      </trkpt>
      <trkpt lat="45.15616" lon="5.81183">
        <ele>655.4</ele>
        <time>2021-05-29T13:13:27Z</time>
      </trkpt>
      <trkpt lat="45.15616" lon="5.81182">
        <ele>655.4</ele>
        <time>2021-05-29T13:13:28Z</time>
      </trkpt>
      <trkpt lat="45.15617" lon="5.8118">
        <ele>655.6</ele>
        <time>2021-05-29T13:13:29Z</time>
      </trkpt>
      <trkpt lat="45.15618" lon="5.81179">
        <ele>655.8</ele>
        <time>2021-05-29T13:13:30Z</time>
      </trkpt>
      <trkpt lat="45.15618" lon="5.81178">
        <ele>656.2</ele>
        <time>2021-05-29T13:13:31Z</time>
      </trkpt>
      <trkpt lat="45.15619" lon="5.81177">
        <ele>656.6</ele>
        <time>2021-05-29T13:13:32Z</time>
      </trkpt>
      <trkpt lat="45.15619" lon="5.81176">
        <ele>656.4</ele>
        <time>2021-05-29T13:13:33Z</time>
      </trkpt>
      <trkpt lat="45.1562" lon="5.81175">
        <ele>656.6</ele>
        <time>2021-05-29T13:13:34Z</time>
      </trkpt>
      <trkpt lat="45.15621" lon="5.81174">
        <ele>656.8</ele>
        <time>2021-05-29T13:13:35Z</time>
      </trkpt>
      <trkpt lat="45.15621" lon="5.81173">
        <ele>657</ele>
        <time>2021-05-29T13:13:36Z</time>
      </trkpt>
      <trkpt lat="45.15622" lon="5.81172">
        <ele>657.4</ele>
        <time>2021-05-29T13:13:37Z</time>
      </trkpt>
      <trkpt lat="45.15623" lon="5.81171">
        <ele>657.8</ele>
        <time>2021-05-29T13:13:38Z</time>
      </trkpt>
      <trkpt lat="45.15623" lon="5.8117">
        <ele>658.2</ele>
        <time>2021-05-29T13:13:39Z</time>
      </trkpt>
      <trkpt lat="45.15624" lon="5.81169">
        <ele>658.4</ele>
        <time>2021-05-29T13:13:40Z</time>
      </trkpt>
      <trkpt lat="45.15624" lon="5.81168">
        <ele>658.4</ele>
        <time>2021-05-29T13:13:41Z</time>
      </trkpt>
      <trkpt lat="45.15625" lon="5.81167">
        <ele>658.6</ele>
        <time>2021-05-29T13:13:42Z</time>
      </trkpt>
      <trkpt lat="45.15625" lon="5.81166">
        <ele>658.8</ele>
        <time>2021-05-29T13:13:43Z</time>
      </trkpt>
      <trkpt lat="45.15626" lon="5.81165">
        <ele>659</ele>
        <time>2021-05-29T13:13:44Z</time>
      </trkpt>
      <trkpt lat="45.15626" lon="5.81165">
        <ele>659.2</ele>
        <time>2021-05-29T13:13:45Z</time>
      </trkpt>
      <trkpt lat="45.15627" lon="5.81164">
        <ele>659.4</ele>
        <time>2021-05-29T13:13:46Z</time>
      </trkpt>
      <trkpt lat="45.15627" lon="5.81163">
        <ele>659.6</ele>
        <time>2021-05-29T13:13:47Z</time>
      </trkpt>
      <trkpt lat="45.15628" lon="5.81162">
        <ele>659.8</ele>
        <time>2021-05-29T13:13:48Z</time>
      </trkpt>
      <trkpt lat="45.15628" lon="5.81161">
        <ele>660.2</ele>
        <time>2021-05-29T13:13:49Z</time>
      </trkpt>
      <trkpt lat="45.15628" lon="5.8116">
        <ele>660.4</ele>
        <time>2021-05-29T13:13:50Z</time>
      </trkpt>
      <trkpt lat="45.15629" lon="5.81159">
        <ele>660.8</ele>
        <time>2021-05-29T13:13:51Z</time>
      </trkpt>
      <trkpt lat="45.15629" lon="5.81159">
        <ele>661</ele>
        <time>2021-05-29T13:13:52Z</time>
      </trkpt>
      <trkpt lat="45.1563" lon="5.81158">
        <ele>661.4</ele>
        <time>2021-05-29T13:13:53Z</time>
      </trkpt>
      <trkpt lat="45.1563" lon="5.81156">
        <ele>661.6</ele>
        <time>2021-05-29T13:13:54Z</time>
      </trkpt>
      <trkpt lat="45.1563" lon="5.81155">
        <ele>661.8</ele>
        <time>2021-05-29T13:13:55Z</time>
      </trkpt>
      <trkpt lat="45.1563" lon="5.81154">
        <ele>661.8</ele>
        <time>2021-05-29T13:13:56Z</time>
      </trkpt>
      <trkpt lat="45.1563" lon="5.81153">
        <ele>661.8</ele>
        <time>2021-05-29T13:13:57Z</time>
      </trkpt>
      <trkpt lat="45.15631" lon="5.81152">
        <ele>661.8</ele>
        <time>2021-05-29T13:13:58Z</time>
      </trkpt>
      <trkpt lat="45.15631" lon="5.81151">
        <ele>662.2</ele>
        <time>2021-05-29T13:13:59Z</time>
      </trkpt>
      <trkpt lat="45.15631" lon="5.81149">
        <ele>662.4</ele>
        <time>2021-05-29T13:14:00Z</time>
      </trkpt>
      <trkpt lat="45.15631" lon="5.81148">
        <ele>662.4</ele>
        <time>2021-05-29T13:14:01Z</time>
      </trkpt>
      <trkpt lat="45.15631" lon="5.81147">
        <ele>662.6</ele>
        <time>2021-05-29T13:14:02Z</time>
      </trkpt>
      <trkpt lat="45.15631" lon="5.81146">
        <ele>662.6</ele>
        <time>2021-05-29T13:14:03Z</time>
      </trkpt>
      <trkpt lat="45.15631" lon="5.81145">
        <ele>662.8</ele>
        <time>2021-05-29T13:14:04Z</time>
      </trkpt>
      <trkpt lat="45.15631" lon="5.81143">
        <ele>663</ele>
        <time>2021-05-29T13:14:05Z</time>
      </trkpt>
      <trkpt lat="45.15631" lon="5.81142">
        <ele>663.4</ele>
        <time>2021-05-29T13:14:06Z</time>
      </trkpt>
      <trkpt lat="45.15631" lon="5.8114">
        <ele>663.6</ele>
        <time>2021-05-29T13:14:07Z</time>
      </trkpt>
      <trkpt lat="45.15631" lon="5.81139">
        <ele>663.8</ele>
        <time>2021-05-29T13:14:08Z</time>
      </trkpt>
      <trkpt lat="45.1563" lon="5.81138">
        <ele>663.8</ele>
        <time>2021-05-29T13:14:09Z</time>
      </trkpt>
      <trkpt lat="45.1563" lon="5.81136">
        <ele>664</ele>
        <time>2021-05-29T13:14:10Z</time>
      </trkpt>
      <trkpt lat="45.1563" lon="5.81135">
        <ele>664</ele>
        <time>2021-05-29T13:14:11Z</time>
      </trkpt>
      <trkpt lat="45.1563" lon="5.81133">
        <ele>664.2</ele>
        <time>2021-05-29T13:14:12Z</time>
      </trkpt>
      <trkpt lat="45.15629" lon="5.81132">
        <ele>664.6</ele>
        <time>2021-05-29T13:14:13Z</time>
      </trkpt>
      <trkpt lat="45.15629" lon="5.81131">
        <ele>664.8</ele>
        <time>2021-05-29T13:14:14Z</time>
      </trkpt>
      <trkpt lat="45.1563" lon="5.8113">
        <ele>665.2</ele>
        <time>2021-05-29T13:14:15Z</time>
      </trkpt>
      <trkpt lat="45.1563" lon="5.81129">
        <ele>665.2</ele>
        <time>2021-05-29T13:14:16Z</time>
      </trkpt>
      <trkpt lat="45.1563" lon="5.81128">
        <ele>665.4</ele>
        <time>2021-05-29T13:14:17Z</time>
      </trkpt>
      <trkpt lat="45.1563" lon="5.81127">
        <ele>665.8</ele>
        <time>2021-05-29T13:14:18Z</time>
      </trkpt>
      <trkpt lat="45.1563" lon="5.81126">
        <ele>665.8</ele>
        <time>2021-05-29T13:14:19Z</time>
      </trkpt>
      <trkpt lat="45.1563" lon="5.81125">
        <ele>666</ele>
        <time>2021-05-29T13:14:20Z</time>
      </trkpt>
      <trkpt lat="45.1563" lon="5.81124">
        <ele>666.2</ele>
        <time>2021-05-29T13:14:21Z</time>
      </trkpt>
      <trkpt lat="45.1563" lon="5.81123">
        <ele>666.4</ele>
        <time>2021-05-29T13:14:22Z</time>
      </trkpt>
      <trkpt lat="45.15631" lon="5.81123">
        <ele>666.4</ele>
        <time>2021-05-29T13:14:23Z</time>
      </trkpt>
      <trkpt lat="45.15631" lon="5.81122">
        <ele>666.8</ele>
        <time>2021-05-29T13:14:24Z</time>
      </trkpt>
      <trkpt lat="45.15631" lon="5.81121">
        <ele>667</ele>
        <time>2021-05-29T13:14:25Z</time>
      </trkpt>
      <trkpt lat="45.15631" lon="5.8112">
        <ele>667.2</ele>
        <time>2021-05-29T13:14:26Z</time>
      </trkpt>
      <trkpt lat="45.15631" lon="5.81119">
        <ele>667.4</ele>
        <time>2021-05-29T13:14:27Z</time>
      </trkpt>
      <trkpt lat="45.15631" lon="5.81118">
        <ele>667.6</ele>
        <time>2021-05-29T13:14:28Z</time>
      </trkpt>
      <trkpt lat="45.15631" lon="5.81117">
        <ele>667.6</ele>
        <time>2021-05-29T13:14:29Z</time>
      </trkpt>
      <trkpt lat="45.15631" lon="5.81115">
        <ele>667.8</ele>
        <time>2021-05-29T13:14:30Z</time>
      </trkpt>
      <trkpt lat="45.15631" lon="5.81114">
        <ele>668.2</ele>
        <time>2021-05-29T13:14:31Z</time>
      </trkpt>
      <trkpt lat="45.15631" lon="5.81113">
        <ele>668.4</ele>
        <time>2021-05-29T13:14:32Z</time>
      </trkpt>
      <trkpt lat="45.15631" lon="5.81112">
        <ele>668.8</ele>
        <time>2021-05-29T13:14:33Z</time>
      </trkpt>
      <trkpt lat="45.15631" lon="5.81111">
        <ele>668.8</ele>
        <time>2021-05-29T13:14:34Z</time>
      </trkpt>
      <trkpt lat="45.15631" lon="5.81109">
        <ele>669</ele>
        <time>2021-05-29T13:14:35Z</time>
      </trkpt>
      <trkpt lat="45.15631" lon="5.81108">
        <ele>669.2</ele>
        <time>2021-05-29T13:14:36Z</time>
      </trkpt>
      <trkpt lat="45.15631" lon="5.81107">
        <ele>669.6</ele>
        <time>2021-05-29T13:14:37Z</time>
      </trkpt>
      <trkpt lat="45.15631" lon="5.81106">
        <ele>670</ele>
        <time>2021-05-29T13:14:38Z</time>
      </trkpt>
      <trkpt lat="45.15631" lon="5.81105">
        <ele>670.2</ele>
        <time>2021-05-29T13:14:39Z</time>
      </trkpt>
      <trkpt lat="45.15631" lon="5.81102">
        <ele>670.2</ele>
        <time>2021-05-29T13:14:40Z</time>
      </trkpt>
      <trkpt lat="45.15632" lon="5.81099">
        <ele>670.2</ele>
        <time>2021-05-29T13:14:41Z</time>
      </trkpt>
      <trkpt lat="45.15632" lon="5.81097">
        <ele>670.6</ele>
        <time>2021-05-29T13:14:42Z</time>
      </trkpt>
      <trkpt lat="45.15632" lon="5.81094">
        <ele>670.8</ele>
        <time>2021-05-29T13:14:43Z</time>
      </trkpt>
      <trkpt lat="45.15633" lon="5.81091">
        <ele>671.2</ele>
        <time>2021-05-29T13:14:44Z</time>
      </trkpt>
      <trkpt lat="45.15632" lon="5.8109">
        <ele>671.4</ele>
        <time>2021-05-29T13:14:45Z</time>
      </trkpt>
      <trkpt lat="45.15632" lon="5.81089">
        <ele>671.6</ele>
        <time>2021-05-29T13:14:46Z</time>
      </trkpt>
      <trkpt lat="45.15632" lon="5.81088">
        <ele>671.8</ele>
        <time>2021-05-29T13:14:47Z</time>
      </trkpt>
      <trkpt lat="45.15632" lon="5.81087">
        <ele>672.2</ele>
        <time>2021-05-29T13:14:48Z</time>
      </trkpt>
      <trkpt lat="45.15631" lon="5.81085">
        <ele>672.4</ele>
        <time>2021-05-29T13:14:49Z</time>
      </trkpt>
      <trkpt lat="45.15631" lon="5.81084">
        <ele>672.4</ele>
        <time>2021-05-29T13:14:50Z</time>
      </trkpt>
      <trkpt lat="45.15631" lon="5.81083">
        <ele>672.4</ele>
        <time>2021-05-29T13:14:51Z</time>
      </trkpt>
      <trkpt lat="45.15631" lon="5.81082">
        <ele>672.6</ele>
        <time>2021-05-29T13:14:52Z</time>
      </trkpt>
      <trkpt lat="45.1563" lon="5.81081">
        <ele>672.8</ele>
        <time>2021-05-29T13:14:53Z</time>
      </trkpt>
      <trkpt lat="45.1563" lon="5.8108">
        <ele>673.2</ele>
        <time>2021-05-29T13:14:54Z</time>
      </trkpt>
      <trkpt lat="45.1563" lon="5.81079">
        <ele>673.4</ele>
        <time>2021-05-29T13:14:55Z</time>
      </trkpt>
      <trkpt lat="45.1563" lon="5.81077">
        <ele>673.6</ele>
        <time>2021-05-29T13:14:56Z</time>
      </trkpt>
      <trkpt lat="45.15629" lon="5.81076">
        <ele>674</ele>
        <time>2021-05-29T13:14:57Z</time>
      </trkpt>
      <trkpt lat="45.15629" lon="5.81075">
        <ele>674.4</ele>
        <time>2021-05-29T13:14:58Z</time>
      </trkpt>
      <trkpt lat="45.15629" lon="5.81073">
        <ele>674.6</ele>
        <time>2021-05-29T13:14:59Z</time>
      </trkpt>
      <trkpt lat="45.15629" lon="5.81072">
        <ele>675</ele>
        <time>2021-05-29T13:15:00Z</time>
      </trkpt>
      <trkpt lat="45.15628" lon="5.81071">
        <ele>675.4</ele>
        <time>2021-05-29T13:15:01Z</time>
      </trkpt>
      <trkpt lat="45.15628" lon="5.81069">
        <ele>675.8</ele>
        <time>2021-05-29T13:15:02Z</time>
      </trkpt>
      <trkpt lat="45.15628" lon="5.81068">
        <ele>676</ele>
        <time>2021-05-29T13:15:03Z</time>
      </trkpt>
      <trkpt lat="45.15628" lon="5.81067">
        <ele>676.2</ele>
        <time>2021-05-29T13:15:04Z</time>
      </trkpt>
      <trkpt lat="45.15628" lon="5.81065">
        <ele>676.4</ele>
        <time>2021-05-29T13:15:05Z</time>
      </trkpt>
      <trkpt lat="45.15628" lon="5.81064">
        <ele>676.6</ele>
        <time>2021-05-29T13:15:06Z</time>
      </trkpt>
      <trkpt lat="45.15627" lon="5.81063">
        <ele>676.4</ele>
        <time>2021-05-29T13:15:07Z</time>
      </trkpt>
      <trkpt lat="45.15627" lon="5.81062">
        <ele>676.6</ele>
        <time>2021-05-29T13:15:08Z</time>
      </trkpt>
      <trkpt lat="45.15627" lon="5.81061">
        <ele>676.8</ele>
        <time>2021-05-29T13:15:09Z</time>
      </trkpt>
      <trkpt lat="45.15627" lon="5.8106">
        <ele>676.8</ele>
        <time>2021-05-29T13:15:10Z</time>
      </trkpt>
      <trkpt lat="45.15627" lon="5.81059">
        <ele>676.8</ele>
        <time>2021-05-29T13:15:11Z</time>
      </trkpt>
      <trkpt lat="45.15627" lon="5.81058">
        <ele>677</ele>
        <time>2021-05-29T13:15:12Z</time>
      </trkpt>
      <trkpt lat="45.15627" lon="5.81057">
        <ele>677.2</ele>
        <time>2021-05-29T13:15:13Z</time>
      </trkpt>
      <trkpt lat="45.15627" lon="5.81056">
        <ele>677.4</ele>
        <time>2021-05-29T13:15:14Z</time>
      </trkpt>
      <trkpt lat="45.15627" lon="5.81055">
        <ele>677.6</ele>
        <time>2021-05-29T13:15:15Z</time>
      </trkpt>
      <trkpt lat="45.15627" lon="5.81054">
        <ele>677.8</ele>
        <time>2021-05-29T13:15:16Z</time>
      </trkpt>
      <trkpt lat="45.15627" lon="5.81053">
        <ele>678</ele>
        <time>2021-05-29T13:15:17Z</time>
      </trkpt>
      <trkpt lat="45.15626" lon="5.81052">
        <ele>678.4</ele>
        <time>2021-05-29T13:15:18Z</time>
      </trkpt>
      <trkpt lat="45.15626" lon="5.81051">
        <ele>678.6</ele>
        <time>2021-05-29T13:15:19Z</time>
      </trkpt>
      <trkpt lat="45.15626" lon="5.8105">
        <ele>678.8</ele>
        <time>2021-05-29T13:15:20Z</time>
      </trkpt>
      <trkpt lat="45.15626" lon="5.81048">
        <ele>679</ele>
        <time>2021-05-29T13:15:21Z</time>
      </trkpt>
      <trkpt lat="45.15626" lon="5.81047">
        <ele>679.2</ele>
        <time>2021-05-29T13:15:22Z</time>
      </trkpt>
      <trkpt lat="45.15626" lon="5.81046">
        <ele>679.4</ele>
        <time>2021-05-29T13:15:23Z</time>
      </trkpt>
      <trkpt lat="45.15626" lon="5.81045">
        <ele>679.8</ele>
        <time>2021-05-29T13:15:24Z</time>
      </trkpt>
      <trkpt lat="45.15626" lon="5.81044">
        <ele>680</ele>
        <time>2021-05-29T13:15:25Z</time>
      </trkpt>
      <trkpt lat="45.15626" lon="5.81043">
        <ele>680.2</ele>
        <time>2021-05-29T13:15:26Z</time>
      </trkpt>
      <trkpt lat="45.15626" lon="5.81042">
        <ele>680.6</ele>
        <time>2021-05-29T13:15:27Z</time>
      </trkpt>
      <trkpt lat="45.15626" lon="5.81041">
        <ele>680.8</ele>
        <time>2021-05-29T13:15:28Z</time>
      </trkpt>
      <trkpt lat="45.15625" lon="5.81039">
        <ele>680.8</ele>
        <time>2021-05-29T13:15:29Z</time>
      </trkpt>
      <trkpt lat="45.15625" lon="5.81037">
        <ele>681.2</ele>
        <time>2021-05-29T13:15:30Z</time>
      </trkpt>
      <trkpt lat="45.15625" lon="5.81035">
        <ele>681.4</ele>
        <time>2021-05-29T13:15:31Z</time>
      </trkpt>
      <trkpt lat="45.15625" lon="5.81034">
        <ele>681.6</ele>
        <time>2021-05-29T13:15:32Z</time>
      </trkpt>
      <trkpt lat="45.15625" lon="5.81032">
        <ele>681.8</ele>
        <time>2021-05-29T13:15:33Z</time>
      </trkpt>
      <trkpt lat="45.15625" lon="5.8103">
        <ele>682</ele>
        <time>2021-05-29T13:15:34Z</time>
      </trkpt>
      <trkpt lat="45.15625" lon="5.81028">
        <ele>682.4</ele>
        <time>2021-05-29T13:15:35Z</time>
      </trkpt>
      <trkpt lat="45.15625" lon="5.81027">
        <ele>682.8</ele>
        <time>2021-05-29T13:15:36Z</time>
      </trkpt>
      <trkpt lat="45.15625" lon="5.81026">
        <ele>682.8</ele>
        <time>2021-05-29T13:15:37Z</time>
      </trkpt>
      <trkpt lat="45.15625" lon="5.81024">
        <ele>683</ele>
        <time>2021-05-29T13:15:38Z</time>
      </trkpt>
      <trkpt lat="45.15625" lon="5.81023">
        <ele>683</ele>
        <time>2021-05-29T13:15:39Z</time>
      </trkpt>
      <trkpt lat="45.15625" lon="5.81022">
        <ele>683.2</ele>
        <time>2021-05-29T13:15:40Z</time>
      </trkpt>
      <trkpt lat="45.15625" lon="5.81021">
        <ele>683.4</ele>
        <time>2021-05-29T13:15:41Z</time>
      </trkpt>
      <trkpt lat="45.15625" lon="5.8102">
        <ele>683.8</ele>
        <time>2021-05-29T13:15:42Z</time>
      </trkpt>
      <trkpt lat="45.15625" lon="5.81018">
        <ele>683.8</ele>
        <time>2021-05-29T13:15:43Z</time>
      </trkpt>
      <trkpt lat="45.15625" lon="5.81017">
        <ele>684</ele>
        <time>2021-05-29T13:15:44Z</time>
      </trkpt>
      <trkpt lat="45.15625" lon="5.81016">
        <ele>684.2</ele>
        <time>2021-05-29T13:15:45Z</time>
      </trkpt>
      <trkpt lat="45.15625" lon="5.81015">
        <ele>684.4</ele>
        <time>2021-05-29T13:15:46Z</time>
      </trkpt>
      <trkpt lat="45.15624" lon="5.81014">
        <ele>684.8</ele>
        <time>2021-05-29T13:15:47Z</time>
      </trkpt>
      <trkpt lat="45.15624" lon="5.81013">
        <ele>685.4</ele>
        <time>2021-05-29T13:15:48Z</time>
      </trkpt>
      <trkpt lat="45.15624" lon="5.81012">
        <ele>686</ele>
        <time>2021-05-29T13:15:49Z</time>
      </trkpt>
      <trkpt lat="45.15623" lon="5.81011">
        <ele>685.8</ele>
        <time>2021-05-29T13:15:50Z</time>
      </trkpt>
      <trkpt lat="45.15623" lon="5.8101">
        <ele>686</ele>
        <time>2021-05-29T13:15:51Z</time>
      </trkpt>
      <trkpt lat="45.15623" lon="5.81009">
        <ele>686</ele>
        <time>2021-05-29T13:15:52Z</time>
      </trkpt>
      <trkpt lat="45.15623" lon="5.81008">
        <ele>686</ele>
        <time>2021-05-29T13:15:53Z</time>
      </trkpt>
      <trkpt lat="45.15622" lon="5.81007">
        <ele>686.2</ele>
        <time>2021-05-29T13:15:54Z</time>
      </trkpt>
      <trkpt lat="45.15622" lon="5.81006">
        <ele>686.6</ele>
        <time>2021-05-29T13:15:55Z</time>
      </trkpt>
      <trkpt lat="45.15622" lon="5.81005">
        <ele>686.6</ele>
        <time>2021-05-29T13:15:56Z</time>
      </trkpt>
      <trkpt lat="45.15622" lon="5.81004">
        <ele>686.6</ele>
        <time>2021-05-29T13:15:57Z</time>
      </trkpt>
      <trkpt lat="45.15621" lon="5.81003">
        <ele>687</ele>
        <time>2021-05-29T13:15:58Z</time>
      </trkpt>
      <trkpt lat="45.15621" lon="5.81001">
        <ele>687.2</ele>
        <time>2021-05-29T13:15:59Z</time>
      </trkpt>
      <trkpt lat="45.1562" lon="5.81">
        <ele>687.4</ele>
        <time>2021-05-29T13:16:00Z</time>
      </trkpt>
      <trkpt lat="45.15619" lon="5.80998">
        <ele>687.6</ele>
        <time>2021-05-29T13:16:01Z</time>
      </trkpt>
      <trkpt lat="45.15619" lon="5.80996">
        <ele>687.6</ele>
        <time>2021-05-29T13:16:02Z</time>
      </trkpt>
      <trkpt lat="45.15618" lon="5.80995">
        <ele>687.8</ele>
        <time>2021-05-29T13:16:03Z</time>
      </trkpt>
      <trkpt lat="45.15617" lon="5.80993">
        <ele>687.8</ele>
        <time>2021-05-29T13:16:04Z</time>
      </trkpt>
      <trkpt lat="45.15617" lon="5.80992">
        <ele>688</ele>
        <time>2021-05-29T13:16:05Z</time>
      </trkpt>
      <trkpt lat="45.15617" lon="5.8099">
        <ele>688.2</ele>
        <time>2021-05-29T13:16:06Z</time>
      </trkpt>
      <trkpt lat="45.15617" lon="5.80989">
        <ele>688.4</ele>
        <time>2021-05-29T13:16:07Z</time>
      </trkpt>
      <trkpt lat="45.15617" lon="5.80988">
        <ele>688.6</ele>
        <time>2021-05-29T13:16:08Z</time>
      </trkpt>
      <trkpt lat="45.15617" lon="5.80987">
        <ele>688.8</ele>
        <time>2021-05-29T13:16:09Z</time>
      </trkpt>
      <trkpt lat="45.15617" lon="5.80985">
        <ele>689</ele>
        <time>2021-05-29T13:16:10Z</time>
      </trkpt>
      <trkpt lat="45.15618" lon="5.80984">
        <ele>689.2</ele>
        <time>2021-05-29T13:16:11Z</time>
      </trkpt>
      <trkpt lat="45.15618" lon="5.80983">
        <ele>689.6</ele>
        <time>2021-05-29T13:16:12Z</time>
      </trkpt>
      <trkpt lat="45.15618" lon="5.80982">
        <ele>689.8</ele>
        <time>2021-05-29T13:16:13Z</time>
      </trkpt>
      <trkpt lat="45.15618" lon="5.8098">
        <ele>690</ele>
        <time>2021-05-29T13:16:14Z</time>
      </trkpt>
      <trkpt lat="45.15618" lon="5.80979">
        <ele>690.2</ele>
        <time>2021-05-29T13:16:15Z</time>
      </trkpt>
      <trkpt lat="45.15618" lon="5.80978">
        <ele>690.6</ele>
        <time>2021-05-29T13:16:16Z</time>
      </trkpt>
      <trkpt lat="45.15618" lon="5.80977">
        <ele>690.8</ele>
        <time>2021-05-29T13:16:17Z</time>
      </trkpt>
      <trkpt lat="45.15618" lon="5.80976">
        <ele>691</ele>
        <time>2021-05-29T13:16:18Z</time>
      </trkpt>
      <trkpt lat="45.15618" lon="5.80975">
        <ele>691.2</ele>
        <time>2021-05-29T13:16:19Z</time>
      </trkpt>
      <trkpt lat="45.15618" lon="5.80974">
        <ele>691.4</ele>
        <time>2021-05-29T13:16:20Z</time>
      </trkpt>
      <trkpt lat="45.15618" lon="5.80973">
        <ele>691.6</ele>
        <time>2021-05-29T13:16:21Z</time>
      </trkpt>
      <trkpt lat="45.15617" lon="5.80972">
        <ele>691.8</ele>
        <time>2021-05-29T13:16:22Z</time>
      </trkpt>
      <trkpt lat="45.15617" lon="5.80971">
        <ele>692</ele>
        <time>2021-05-29T13:16:23Z</time>
      </trkpt>
      <trkpt lat="45.15617" lon="5.8097">
        <ele>692.4</ele>
        <time>2021-05-29T13:16:24Z</time>
      </trkpt>
      <trkpt lat="45.15617" lon="5.80969">
        <ele>692.4</ele>
        <time>2021-05-29T13:16:25Z</time>
      </trkpt>
      <trkpt lat="45.15617" lon="5.80968">
        <ele>692.6</ele>
        <time>2021-05-29T13:16:26Z</time>
      </trkpt>
      <trkpt lat="45.15617" lon="5.80967">
        <ele>693</ele>
        <time>2021-05-29T13:16:27Z</time>
      </trkpt>
      <trkpt lat="45.15617" lon="5.80966">
        <ele>693.2</ele>
        <time>2021-05-29T13:16:28Z</time>
      </trkpt>
      <trkpt lat="45.15616" lon="5.80965">
        <ele>693.6</ele>
        <time>2021-05-29T13:16:29Z</time>
      </trkpt>
      <trkpt lat="45.15616" lon="5.80964">
        <ele>693.8</ele>
        <time>2021-05-29T13:16:30Z</time>
      </trkpt>
      <trkpt lat="45.15616" lon="5.80963">
        <ele>694</ele>
        <time>2021-05-29T13:16:31Z</time>
      </trkpt>
      <trkpt lat="45.15616" lon="5.80962">
        <ele>694</ele>
        <time>2021-05-29T13:16:32Z</time>
      </trkpt>
      <trkpt lat="45.15615" lon="5.8096">
        <ele>694.4</ele>
        <time>2021-05-29T13:16:33Z</time>
      </trkpt>
      <trkpt lat="45.15615" lon="5.80959">
        <ele>694.6</ele>
        <time>2021-05-29T13:16:34Z</time>
      </trkpt>
      <trkpt lat="45.15615" lon="5.80958">
        <ele>694.8</ele>
        <time>2021-05-29T13:16:35Z</time>
      </trkpt>
      <trkpt lat="45.15615" lon="5.80957">
        <ele>695</ele>
        <time>2021-05-29T13:16:36Z</time>
      </trkpt>
      <trkpt lat="45.15615" lon="5.80956">
        <ele>695.2</ele>
        <time>2021-05-29T13:16:37Z</time>
      </trkpt>
      <trkpt lat="45.15614" lon="5.80955">
        <ele>695.4</ele>
        <time>2021-05-29T13:16:38Z</time>
      </trkpt>
      <trkpt lat="45.15614" lon="5.80954">
        <ele>695.8</ele>
        <time>2021-05-29T13:16:39Z</time>
      </trkpt>
      <trkpt lat="45.15614" lon="5.80953">
        <ele>696</ele>
        <time>2021-05-29T13:16:40Z</time>
      </trkpt>
      <trkpt lat="45.15614" lon="5.80952">
        <ele>696.2</ele>
        <time>2021-05-29T13:16:41Z</time>
      </trkpt>
      <trkpt lat="45.15614" lon="5.8095">
        <ele>696.6</ele>
        <time>2021-05-29T13:16:42Z</time>
      </trkpt>
      <trkpt lat="45.15614" lon="5.80949">
        <ele>696.8</ele>
        <time>2021-05-29T13:16:43Z</time>
      </trkpt>
      <trkpt lat="45.15614" lon="5.80947">
        <ele>696.8</ele>
        <time>2021-05-29T13:16:44Z</time>
      </trkpt>
      <trkpt lat="45.15614" lon="5.80946">
        <ele>697</ele>
        <time>2021-05-29T13:16:45Z</time>
      </trkpt>
      <trkpt lat="45.15614" lon="5.80944">
        <ele>697</ele>
        <time>2021-05-29T13:16:46Z</time>
      </trkpt>
      <trkpt lat="45.15614" lon="5.80942">
        <ele>697.2</ele>
        <time>2021-05-29T13:16:47Z</time>
      </trkpt>
      <trkpt lat="45.15614" lon="5.80941">
        <ele>697.4</ele>
        <time>2021-05-29T13:16:48Z</time>
      </trkpt>
      <trkpt lat="45.15614" lon="5.80939">
        <ele>697.6</ele>
        <time>2021-05-29T13:16:49Z</time>
      </trkpt>
      <trkpt lat="45.15614" lon="5.80937">
        <ele>697.8</ele>
        <time>2021-05-29T13:16:50Z</time>
      </trkpt>
      <trkpt lat="45.15614" lon="5.80936">
        <ele>698</ele>
        <time>2021-05-29T13:16:51Z</time>
      </trkpt>
      <trkpt lat="45.15614" lon="5.80935">
        <ele>698.2</ele>
        <time>2021-05-29T13:16:52Z</time>
      </trkpt>
      <trkpt lat="45.15614" lon="5.80933">
        <ele>698.4</ele>
        <time>2021-05-29T13:16:53Z</time>
      </trkpt>
      <trkpt lat="45.15614" lon="5.80932">
        <ele>698.4</ele>
        <time>2021-05-29T13:16:54Z</time>
      </trkpt>
      <trkpt lat="45.15614" lon="5.8093">
        <ele>698.6</ele>
        <time>2021-05-29T13:16:55Z</time>
      </trkpt>
      <trkpt lat="45.15614" lon="5.80929">
        <ele>699</ele>
        <time>2021-05-29T13:16:56Z</time>
      </trkpt>
      <trkpt lat="45.15614" lon="5.80927">
        <ele>699.4</ele>
        <time>2021-05-29T13:16:57Z</time>
      </trkpt>
      <trkpt lat="45.15614" lon="5.80926">
        <ele>699.2</ele>
        <time>2021-05-29T13:16:58Z</time>
      </trkpt>
      <trkpt lat="45.15614" lon="5.80924">
        <ele>699.4</ele>
        <time>2021-05-29T13:16:59Z</time>
      </trkpt>
      <trkpt lat="45.15614" lon="5.80923">
        <ele>699.6</ele>
        <time>2021-05-29T13:17:00Z</time>
      </trkpt>
      <trkpt lat="45.15614" lon="5.80921">
        <ele>700</ele>
        <time>2021-05-29T13:17:01Z</time>
      </trkpt>
      <trkpt lat="45.15614" lon="5.8092">
        <ele>700.2</ele>
        <time>2021-05-29T13:17:02Z</time>
      </trkpt>
      <trkpt lat="45.15614" lon="5.80918">
        <ele>700.6</ele>
        <time>2021-05-29T13:17:03Z</time>
      </trkpt>
      <trkpt lat="45.15614" lon="5.80917">
        <ele>700.8</ele>
        <time>2021-05-29T13:17:04Z</time>
      </trkpt>
      <trkpt lat="45.15614" lon="5.80915">
        <ele>701.2</ele>
        <time>2021-05-29T13:17:05Z</time>
      </trkpt>
      <trkpt lat="45.15614" lon="5.80914">
        <ele>701.4</ele>
        <time>2021-05-29T13:17:06Z</time>
      </trkpt>
      <trkpt lat="45.15614" lon="5.80912">
        <ele>701.4</ele>
        <time>2021-05-29T13:17:07Z</time>
      </trkpt>
      <trkpt lat="45.15614" lon="5.8091">
        <ele>701.6</ele>
        <time>2021-05-29T13:17:08Z</time>
      </trkpt>
      <trkpt lat="45.15613" lon="5.80909">
        <ele>701.8</ele>
        <time>2021-05-29T13:17:09Z</time>
      </trkpt>
      <trkpt lat="45.15613" lon="5.80908">
        <ele>702.2</ele>
        <time>2021-05-29T13:17:10Z</time>
      </trkpt>
      <trkpt lat="45.15613" lon="5.80906">
        <ele>702.4</ele>
        <time>2021-05-29T13:17:11Z</time>
      </trkpt>
      <trkpt lat="45.15613" lon="5.80905">
        <ele>702.8</ele>
        <time>2021-05-29T13:17:12Z</time>
      </trkpt>
      <trkpt lat="45.15613" lon="5.80903">
        <ele>703</ele>
        <time>2021-05-29T13:17:13Z</time>
      </trkpt>
      <trkpt lat="45.15613" lon="5.80902">
        <ele>703.2</ele>
        <time>2021-05-29T13:17:14Z</time>
      </trkpt>
      <trkpt lat="45.15612" lon="5.809">
        <ele>703.2</ele>
        <time>2021-05-29T13:17:15Z</time>
      </trkpt>
      <trkpt lat="45.15612" lon="5.80899">
        <ele>703.4</ele>
        <time>2021-05-29T13:17:16Z</time>
      </trkpt>
      <trkpt lat="45.15612" lon="5.80897">
        <ele>703.8</ele>
        <time>2021-05-29T13:17:17Z</time>
      </trkpt>
      <trkpt lat="45.15612" lon="5.80896">
        <ele>704</ele>
        <time>2021-05-29T13:17:18Z</time>
      </trkpt>
      <trkpt lat="45.15612" lon="5.80895">
        <ele>704.4</ele>
        <time>2021-05-29T13:17:19Z</time>
      </trkpt>
      <trkpt lat="45.15612" lon="5.80893">
        <ele>704.6</ele>
        <time>2021-05-29T13:17:20Z</time>
      </trkpt>
      <trkpt lat="45.15611" lon="5.80892">
        <ele>704.8</ele>
        <time>2021-05-29T13:17:21Z</time>
      </trkpt>
      <trkpt lat="45.15611" lon="5.80891">
        <ele>705</ele>
        <time>2021-05-29T13:17:22Z</time>
      </trkpt>
      <trkpt lat="45.15611" lon="5.80889">
        <ele>705.2</ele>
        <time>2021-05-29T13:17:23Z</time>
      </trkpt>
      <trkpt lat="45.15611" lon="5.80888">
        <ele>705.4</ele>
        <time>2021-05-29T13:17:24Z</time>
      </trkpt>
      <trkpt lat="45.15611" lon="5.80887">
        <ele>705.6</ele>
        <time>2021-05-29T13:17:25Z</time>
      </trkpt>
      <trkpt lat="45.15611" lon="5.80886">
        <ele>706</ele>
        <time>2021-05-29T13:17:26Z</time>
      </trkpt>
      <trkpt lat="45.1561" lon="5.80884">
        <ele>706.2</ele>
        <time>2021-05-29T13:17:27Z</time>
      </trkpt>
      <trkpt lat="45.1561" lon="5.80883">
        <ele>706.4</ele>
        <time>2021-05-29T13:17:28Z</time>
      </trkpt>
      <trkpt lat="45.1561" lon="5.80881">
        <ele>707</ele>
        <time>2021-05-29T13:17:29Z</time>
      </trkpt>
      <trkpt lat="45.1561" lon="5.80879">
        <ele>707.2</ele>
        <time>2021-05-29T13:17:30Z</time>
      </trkpt>
      <trkpt lat="45.1561" lon="5.80878">
        <ele>707.4</ele>
        <time>2021-05-29T13:17:31Z</time>
      </trkpt>
      <trkpt lat="45.1561" lon="5.80876">
        <ele>707.6</ele>
        <time>2021-05-29T13:17:32Z</time>
      </trkpt>
      <trkpt lat="45.1561" lon="5.80874">
        <ele>708</ele>
        <time>2021-05-29T13:17:33Z</time>
      </trkpt>
      <trkpt lat="45.1561" lon="5.80873">
        <ele>708.2</ele>
        <time>2021-05-29T13:17:34Z</time>
      </trkpt>
      <trkpt lat="45.1561" lon="5.80871">
        <ele>708.4</ele>
        <time>2021-05-29T13:17:35Z</time>
      </trkpt>
      <trkpt lat="45.1561" lon="5.8087">
        <ele>708.6</ele>
        <time>2021-05-29T13:17:36Z</time>
      </trkpt>
      <trkpt lat="45.15609" lon="5.80868">
        <ele>708.8</ele>
        <time>2021-05-29T13:17:37Z</time>
      </trkpt>
      <trkpt lat="45.15609" lon="5.80867">
        <ele>709</ele>
        <time>2021-05-29T13:17:38Z</time>
      </trkpt>
      <trkpt lat="45.15609" lon="5.80866">
        <ele>709.2</ele>
        <time>2021-05-29T13:17:39Z</time>
      </trkpt>
      <trkpt lat="45.15609" lon="5.80865">
        <ele>709.4</ele>
        <time>2021-05-29T13:17:40Z</time>
      </trkpt>
      <trkpt lat="45.15608" lon="5.80864">
        <ele>709.6</ele>
        <time>2021-05-29T13:17:41Z</time>
      </trkpt>
      <trkpt lat="45.15608" lon="5.80862">
        <ele>709.8</ele>
        <time>2021-05-29T13:17:42Z</time>
      </trkpt>
      <trkpt lat="45.15608" lon="5.80861">
        <ele>710.2</ele>
        <time>2021-05-29T13:17:43Z</time>
      </trkpt>
      <trkpt lat="45.15608" lon="5.8086">
        <ele>710.6</ele>
        <time>2021-05-29T13:17:44Z</time>
      </trkpt>
      <trkpt lat="45.15607" lon="5.80859">
        <ele>710.8</ele>
        <time>2021-05-29T13:17:45Z</time>
      </trkpt>
      <trkpt lat="45.15607" lon="5.80858">
        <ele>711</ele>
        <time>2021-05-29T13:17:46Z</time>
      </trkpt>
      <trkpt lat="45.15607" lon="5.80856">
        <ele>711.2</ele>
        <time>2021-05-29T13:17:47Z</time>
      </trkpt>
      <trkpt lat="45.15607" lon="5.80855">
        <ele>711.4</ele>
        <time>2021-05-29T13:17:48Z</time>
      </trkpt>
      <trkpt lat="45.15607" lon="5.80853">
        <ele>711.6</ele>
        <time>2021-05-29T13:17:49Z</time>
      </trkpt>
      <trkpt lat="45.15607" lon="5.80852">
        <ele>711.8</ele>
        <time>2021-05-29T13:17:50Z</time>
      </trkpt>
      <trkpt lat="45.15607" lon="5.8085">
        <ele>711.8</ele>
        <time>2021-05-29T13:17:51Z</time>
      </trkpt>
      <trkpt lat="45.15606" lon="5.80849">
        <ele>712</ele>
        <time>2021-05-29T13:17:52Z</time>
      </trkpt>
      <trkpt lat="45.15606" lon="5.80847">
        <ele>712.6</ele>
        <time>2021-05-29T13:17:53Z</time>
      </trkpt>
      <trkpt lat="45.15606" lon="5.80846">
        <ele>712.6</ele>
        <time>2021-05-29T13:17:54Z</time>
      </trkpt>
      <trkpt lat="45.15606" lon="5.80844">
        <ele>712.8</ele>
        <time>2021-05-29T13:17:55Z</time>
      </trkpt>
      <trkpt lat="45.15606" lon="5.80843">
        <ele>712.8</ele>
        <time>2021-05-29T13:17:56Z</time>
      </trkpt>
      <trkpt lat="45.15606" lon="5.80841">
        <ele>712.8</ele>
        <time>2021-05-29T13:17:57Z</time>
      </trkpt>
      <trkpt lat="45.15606" lon="5.80839">
        <ele>713</ele>
        <time>2021-05-29T13:17:58Z</time>
      </trkpt>
      <trkpt lat="45.15606" lon="5.80837">
        <ele>713.2</ele>
        <time>2021-05-29T13:17:59Z</time>
      </trkpt>
      <trkpt lat="45.15606" lon="5.80836">
        <ele>713.4</ele>
        <time>2021-05-29T13:18:00Z</time>
      </trkpt>
      <trkpt lat="45.15606" lon="5.80834">
        <ele>713.6</ele>
        <time>2021-05-29T13:18:01Z</time>
      </trkpt>
      <trkpt lat="45.15606" lon="5.80832">
        <ele>713.6</ele>
        <time>2021-05-29T13:18:02Z</time>
      </trkpt>
      <trkpt lat="45.15606" lon="5.8083">
        <ele>713.6</ele>
        <time>2021-05-29T13:18:03Z</time>
      </trkpt>
      <trkpt lat="45.15606" lon="5.80828">
        <ele>714</ele>
        <time>2021-05-29T13:18:04Z</time>
      </trkpt>
      <trkpt lat="45.15606" lon="5.80827">
        <ele>714.2</ele>
        <time>2021-05-29T13:18:05Z</time>
      </trkpt>
      <trkpt lat="45.15606" lon="5.80826">
        <ele>714.2</ele>
        <time>2021-05-29T13:18:06Z</time>
      </trkpt>
      <trkpt lat="45.15606" lon="5.80825">
        <ele>714.4</ele>
        <time>2021-05-29T13:18:07Z</time>
      </trkpt>
      <trkpt lat="45.15606" lon="5.80823">
        <ele>714.4</ele>
        <time>2021-05-29T13:18:08Z</time>
      </trkpt>
      <trkpt lat="45.15606" lon="5.80822">
        <ele>714.4</ele>
        <time>2021-05-29T13:18:09Z</time>
      </trkpt>
      <trkpt lat="45.15606" lon="5.80821">
        <ele>714.4</ele>
        <time>2021-05-29T13:18:10Z</time>
      </trkpt>
      <trkpt lat="45.15606" lon="5.8082">
        <ele>714.6</ele>
        <time>2021-05-29T13:18:11Z</time>
      </trkpt>
      <trkpt lat="45.15606" lon="5.80819">
        <ele>714.8</ele>
        <time>2021-05-29T13:18:12Z</time>
      </trkpt>
      <trkpt lat="45.15606" lon="5.80817">
        <ele>715</ele>
        <time>2021-05-29T13:18:13Z</time>
      </trkpt>
      <trkpt lat="45.15606" lon="5.80816">
        <ele>715.4</ele>
        <time>2021-05-29T13:18:14Z</time>
      </trkpt>
      <trkpt lat="45.15606" lon="5.80815">
        <ele>715.6</ele>
        <time>2021-05-29T13:18:15Z</time>
      </trkpt>
      <trkpt lat="45.15606" lon="5.80813">
        <ele>715.6</ele>
        <time>2021-05-29T13:18:16Z</time>
      </trkpt>
      <trkpt lat="45.15606" lon="5.80811">
        <ele>715.6</ele>
        <time>2021-05-29T13:18:17Z</time>
      </trkpt>
      <trkpt lat="45.15605" lon="5.8081">
        <ele>715.8</ele>
        <time>2021-05-29T13:18:18Z</time>
      </trkpt>
      <trkpt lat="45.15605" lon="5.80808">
        <ele>715.8</ele>
        <time>2021-05-29T13:18:19Z</time>
      </trkpt>
      <trkpt lat="45.15605" lon="5.80806">
        <ele>716</ele>
        <time>2021-05-29T13:18:20Z</time>
      </trkpt>
      <trkpt lat="45.15604" lon="5.80804">
        <ele>716.2</ele>
        <time>2021-05-29T13:18:21Z</time>
      </trkpt>
      <trkpt lat="45.15604" lon="5.80803">
        <ele>716.4</ele>
        <time>2021-05-29T13:18:22Z</time>
      </trkpt>
      <trkpt lat="45.15603" lon="5.80799">
        <ele>716.6</ele>
        <time>2021-05-29T13:18:23Z</time>
      </trkpt>
      <trkpt lat="45.15603" lon="5.80796">
        <ele>716.8</ele>
        <time>2021-05-29T13:18:24Z</time>
      </trkpt>
      <trkpt lat="45.15603" lon="5.80793">
        <ele>716.8</ele>
        <time>2021-05-29T13:18:25Z</time>
      </trkpt>
      <trkpt lat="45.15603" lon="5.8079">
        <ele>716.8</ele>
        <time>2021-05-29T13:18:26Z</time>
      </trkpt>
      <trkpt lat="45.15602" lon="5.80788">
        <ele>717.2</ele>
        <time>2021-05-29T13:18:27Z</time>
      </trkpt>
      <trkpt lat="45.15601" lon="5.80785">
        <ele>717.6</ele>
        <time>2021-05-29T13:18:28Z</time>
      </trkpt>
      <trkpt lat="45.15601" lon="5.80783">
        <ele>717.8</ele>
        <time>2021-05-29T13:18:29Z</time>
      </trkpt>
      <trkpt lat="45.156" lon="5.80781">
        <ele>718</ele>
        <time>2021-05-29T13:18:30Z</time>
      </trkpt>
      <trkpt lat="45.156" lon="5.80779">
        <ele>718.4</ele>
        <time>2021-05-29T13:18:31Z</time>
      </trkpt>
      <trkpt lat="45.15599" lon="5.80776">
        <ele>718.4</ele>
        <time>2021-05-29T13:18:32Z</time>
      </trkpt>
      <trkpt lat="45.15599" lon="5.80775">
        <ele>718.6</ele>
        <time>2021-05-29T13:18:33Z</time>
      </trkpt>
      <trkpt lat="45.15598" lon="5.80773">
        <ele>718.8</ele>
        <time>2021-05-29T13:18:34Z</time>
      </trkpt>
      <trkpt lat="45.15598" lon="5.80771">
        <ele>719</ele>
        <time>2021-05-29T13:18:35Z</time>
      </trkpt>
      <trkpt lat="45.15598" lon="5.80769">
        <ele>719.2</ele>
        <time>2021-05-29T13:18:36Z</time>
      </trkpt>
      <trkpt lat="45.15597" lon="5.80767">
        <ele>719.4</ele>
        <time>2021-05-29T13:18:37Z</time>
      </trkpt>
      <trkpt lat="45.15597" lon="5.80766">
        <ele>719.6</ele>
        <time>2021-05-29T13:18:38Z</time>
      </trkpt>
      <trkpt lat="45.15596" lon="5.80764">
        <ele>719.8</ele>
        <time>2021-05-29T13:18:39Z</time>
      </trkpt>
      <trkpt lat="45.15596" lon="5.80762">
        <ele>720</ele>
        <time>2021-05-29T13:18:40Z</time>
      </trkpt>
      <trkpt lat="45.15596" lon="5.80761">
        <ele>720.2</ele>
        <time>2021-05-29T13:18:41Z</time>
      </trkpt>
      <trkpt lat="45.15596" lon="5.80759">
        <ele>720.4</ele>
        <time>2021-05-29T13:18:42Z</time>
      </trkpt>
      <trkpt lat="45.15596" lon="5.80758">
        <ele>720.6</ele>
        <time>2021-05-29T13:18:43Z</time>
      </trkpt>
      <trkpt lat="45.15595" lon="5.80756">
        <ele>720.6</ele>
        <time>2021-05-29T13:18:44Z</time>
      </trkpt>
      <trkpt lat="45.15595" lon="5.80755">
        <ele>720.8</ele>
        <time>2021-05-29T13:18:45Z</time>
      </trkpt>
      <trkpt lat="45.15595" lon="5.80753">
        <ele>720.8</ele>
        <time>2021-05-29T13:18:46Z</time>
      </trkpt>
      <trkpt lat="45.15595" lon="5.80752">
        <ele>721</ele>
        <time>2021-05-29T13:18:47Z</time>
      </trkpt>
      <trkpt lat="45.15595" lon="5.8075">
        <ele>721.2</ele>
        <time>2021-05-29T13:18:48Z</time>
      </trkpt>
      <trkpt lat="45.15595" lon="5.80749">
        <ele>721.2</ele>
        <time>2021-05-29T13:18:49Z</time>
      </trkpt>
      <trkpt lat="45.15594" lon="5.80747">
        <ele>721.6</ele>
        <time>2021-05-29T13:18:50Z</time>
      </trkpt>
      <trkpt lat="45.15594" lon="5.80745">
        <ele>721.8</ele>
        <time>2021-05-29T13:18:51Z</time>
      </trkpt>
      <trkpt lat="45.15594" lon="5.80744">
        <ele>721.8</ele>
        <time>2021-05-29T13:18:52Z</time>
      </trkpt>
      <trkpt lat="45.15594" lon="5.80742">
        <ele>722</ele>
        <time>2021-05-29T13:18:53Z</time>
      </trkpt>
      <trkpt lat="45.15594" lon="5.8074">
        <ele>722.4</ele>
        <time>2021-05-29T13:18:54Z</time>
      </trkpt>
      <trkpt lat="45.15594" lon="5.80739">
        <ele>722.6</ele>
        <time>2021-05-29T13:18:55Z</time>
      </trkpt>
      <trkpt lat="45.15593" lon="5.80737">
        <ele>722.6</ele>
        <time>2021-05-29T13:18:56Z</time>
      </trkpt>
      <trkpt lat="45.15593" lon="5.80735">
        <ele>722.8</ele>
        <time>2021-05-29T13:18:57Z</time>
      </trkpt>
      <trkpt lat="45.15593" lon="5.80733">
        <ele>722.8</ele>
        <time>2021-05-29T13:18:58Z</time>
      </trkpt>
      <trkpt lat="45.15593" lon="5.80731">
        <ele>722.8</ele>
        <time>2021-05-29T13:18:59Z</time>
      </trkpt>
      <trkpt lat="45.15593" lon="5.8073">
        <ele>723</ele>
        <time>2021-05-29T13:19:00Z</time>
      </trkpt>
      <trkpt lat="45.15593" lon="5.80728">
        <ele>723</ele>
        <time>2021-05-29T13:19:01Z</time>
      </trkpt>
      <trkpt lat="45.15593" lon="5.80726">
        <ele>723.2</ele>
        <time>2021-05-29T13:19:02Z</time>
      </trkpt>
      <trkpt lat="45.15593" lon="5.80724">
        <ele>723.2</ele>
        <time>2021-05-29T13:19:03Z</time>
      </trkpt>
      <trkpt lat="45.15593" lon="5.80722">
        <ele>723.2</ele>
        <time>2021-05-29T13:19:04Z</time>
      </trkpt>
      <trkpt lat="45.15592" lon="5.8072">
        <ele>723.2</ele>
        <time>2021-05-29T13:19:05Z</time>
      </trkpt>
      <trkpt lat="45.15592" lon="5.80718">
        <ele>723.4</ele>
        <time>2021-05-29T13:19:06Z</time>
      </trkpt>
      <trkpt lat="45.15592" lon="5.80716">
        <ele>723.8</ele>
        <time>2021-05-29T13:19:07Z</time>
      </trkpt>
      <trkpt lat="45.15592" lon="5.80714">
        <ele>723.8</ele>
        <time>2021-05-29T13:19:08Z</time>
      </trkpt>
      <trkpt lat="45.15592" lon="5.80712">
        <ele>723.8</ele>
        <time>2021-05-29T13:19:09Z</time>
      </trkpt>
      <trkpt lat="45.15592" lon="5.8071">
        <ele>724</ele>
        <time>2021-05-29T13:19:10Z</time>
      </trkpt>
      <trkpt lat="45.15592" lon="5.80709">
        <ele>724</ele>
        <time>2021-05-29T13:19:11Z</time>
      </trkpt>
      <trkpt lat="45.15592" lon="5.80707">
        <ele>724.4</ele>
        <time>2021-05-29T13:19:12Z</time>
      </trkpt>
      <trkpt lat="45.15592" lon="5.80705">
        <ele>724.6</ele>
        <time>2021-05-29T13:19:13Z</time>
      </trkpt>
      <trkpt lat="45.15592" lon="5.80703">
        <ele>724.6</ele>
        <time>2021-05-29T13:19:14Z</time>
      </trkpt>
      <trkpt lat="45.15592" lon="5.80702">
        <ele>724.8</ele>
        <time>2021-05-29T13:19:15Z</time>
      </trkpt>
      <trkpt lat="45.15592" lon="5.807">
        <ele>725</ele>
        <time>2021-05-29T13:19:16Z</time>
      </trkpt>
      <trkpt lat="45.15592" lon="5.80698">
        <ele>725</ele>
        <time>2021-05-29T13:19:17Z</time>
      </trkpt>
      <trkpt lat="45.15592" lon="5.80697">
        <ele>725.4</ele>
        <time>2021-05-29T13:19:18Z</time>
      </trkpt>
      <trkpt lat="45.15592" lon="5.80695">
        <ele>725.4</ele>
        <time>2021-05-29T13:19:19Z</time>
      </trkpt>
      <trkpt lat="45.15592" lon="5.80693">
        <ele>725.6</ele>
        <time>2021-05-29T13:19:20Z</time>
      </trkpt>
      <trkpt lat="45.15592" lon="5.80692">
        <ele>725.8</ele>
        <time>2021-05-29T13:19:21Z</time>
      </trkpt>
      <trkpt lat="45.15592" lon="5.8069">
        <ele>725.8</ele>
        <time>2021-05-29T13:19:22Z</time>
      </trkpt>
      <trkpt lat="45.15592" lon="5.80688">
        <ele>726.2</ele>
        <time>2021-05-29T13:19:23Z</time>
      </trkpt>
      <trkpt lat="45.15592" lon="5.80687">
        <ele>726.4</ele>
        <time>2021-05-29T13:19:24Z</time>
      </trkpt>
      <trkpt lat="45.15592" lon="5.80685">
        <ele>726.6</ele>
        <time>2021-05-29T13:19:25Z</time>
      </trkpt>
      <trkpt lat="45.15591" lon="5.80684">
        <ele>726.6</ele>
        <time>2021-05-29T13:19:26Z</time>
      </trkpt>
      <trkpt lat="45.15591" lon="5.80682">
        <ele>726.8</ele>
        <time>2021-05-29T13:19:27Z</time>
      </trkpt>
      <trkpt lat="45.15591" lon="5.8068">
        <ele>727</ele>
        <time>2021-05-29T13:19:28Z</time>
      </trkpt>
      <trkpt lat="45.15591" lon="5.80678">
        <ele>727</ele>
        <time>2021-05-29T13:19:29Z</time>
      </trkpt>
      <trkpt lat="45.1559" lon="5.80677">
        <ele>727.4</ele>
        <time>2021-05-29T13:19:30Z</time>
      </trkpt>
      <trkpt lat="45.1559" lon="5.80675">
        <ele>727.4</ele>
        <time>2021-05-29T13:19:31Z</time>
      </trkpt>
      <trkpt lat="45.1559" lon="5.80673">
        <ele>727.6</ele>
        <time>2021-05-29T13:19:32Z</time>
      </trkpt>
      <trkpt lat="45.15589" lon="5.80671">
        <ele>727.8</ele>
        <time>2021-05-29T13:19:33Z</time>
      </trkpt>
      <trkpt lat="45.15589" lon="5.8067">
        <ele>728</ele>
        <time>2021-05-29T13:19:34Z</time>
      </trkpt>
      <trkpt lat="45.15589" lon="5.80668">
        <ele>728.2</ele>
        <time>2021-05-29T13:19:35Z</time>
      </trkpt>
      <trkpt lat="45.15589" lon="5.80667">
        <ele>728.4</ele>
        <time>2021-05-29T13:19:36Z</time>
      </trkpt>
      <trkpt lat="45.15588" lon="5.80665">
        <ele>728.4</ele>
        <time>2021-05-29T13:19:37Z</time>
      </trkpt>
      <trkpt lat="45.15588" lon="5.80664">
        <ele>728.6</ele>
        <time>2021-05-29T13:19:38Z</time>
      </trkpt>
      <trkpt lat="45.15588" lon="5.80662">
        <ele>728.8</ele>
        <time>2021-05-29T13:19:39Z</time>
      </trkpt>
      <trkpt lat="45.15588" lon="5.80661">
        <ele>728.8</ele>
        <time>2021-05-29T13:19:40Z</time>
      </trkpt>
      <trkpt lat="45.15587" lon="5.8066">
        <ele>729</ele>
        <time>2021-05-29T13:19:41Z</time>
      </trkpt>
      <trkpt lat="45.15587" lon="5.80658">
        <ele>729.2</ele>
        <time>2021-05-29T13:19:42Z</time>
      </trkpt>
      <trkpt lat="45.15587" lon="5.80657">
        <ele>729.2</ele>
        <time>2021-05-29T13:19:43Z</time>
      </trkpt>
      <trkpt lat="45.15586" lon="5.80655">
        <ele>729.2</ele>
        <time>2021-05-29T13:19:44Z</time>
      </trkpt>
      <trkpt lat="45.15586" lon="5.80654">
        <ele>729.4</ele>
        <time>2021-05-29T13:19:45Z</time>
      </trkpt>
      <trkpt lat="45.15586" lon="5.80653">
        <ele>729.6</ele>
        <time>2021-05-29T13:19:46Z</time>
      </trkpt>
      <trkpt lat="45.15585" lon="5.80651">
        <ele>729.6</ele>
        <time>2021-05-29T13:19:47Z</time>
      </trkpt>
      <trkpt lat="45.15585" lon="5.8065">
        <ele>730</ele>
        <time>2021-05-29T13:19:48Z</time>
      </trkpt>
      <trkpt lat="45.15585" lon="5.80649">
        <ele>730</ele>
        <time>2021-05-29T13:19:49Z</time>
      </trkpt>
      <trkpt lat="45.15584" lon="5.80647">
        <ele>730.4</ele>
        <time>2021-05-29T13:19:50Z</time>
      </trkpt>
      <trkpt lat="45.15584" lon="5.80646">
        <ele>730.6</ele>
        <time>2021-05-29T13:19:51Z</time>
      </trkpt>
      <trkpt lat="45.15584" lon="5.80645">
        <ele>730.6</ele>
        <time>2021-05-29T13:19:52Z</time>
      </trkpt>
      <trkpt lat="45.15583" lon="5.80644">
        <ele>730.8</ele>
        <time>2021-05-29T13:19:53Z</time>
      </trkpt>
      <trkpt lat="45.15582" lon="5.80642">
        <ele>730.8</ele>
        <time>2021-05-29T13:19:54Z</time>
      </trkpt>
      <trkpt lat="45.15582" lon="5.80641">
        <ele>731.2</ele>
        <time>2021-05-29T13:19:55Z</time>
      </trkpt>
      <trkpt lat="45.15581" lon="5.8064">
        <ele>731.2</ele>
        <time>2021-05-29T13:19:56Z</time>
      </trkpt>
      <trkpt lat="45.1558" lon="5.80639">
        <ele>731.6</ele>
        <time>2021-05-29T13:19:57Z</time>
      </trkpt>
      <trkpt lat="45.1558" lon="5.80638">
        <ele>731.6</ele>
        <time>2021-05-29T13:19:58Z</time>
      </trkpt>
      <trkpt lat="45.15579" lon="5.80637">
        <ele>732</ele>
        <time>2021-05-29T13:20:00Z</time>
      </trkpt>
      <trkpt lat="45.15578" lon="5.80636">
        <ele>732</ele>
        <time>2021-05-29T13:20:01Z</time>
      </trkpt>
      <trkpt lat="45.15578" lon="5.80635">
        <ele>732</ele>
        <time>2021-05-29T13:20:02Z</time>
      </trkpt>
      <trkpt lat="45.15577" lon="5.80633">
        <ele>732.2</ele>
        <time>2021-05-29T13:20:03Z</time>
      </trkpt>
      <trkpt lat="45.15577" lon="5.80632">
        <ele>732.2</ele>
        <time>2021-05-29T13:20:04Z</time>
      </trkpt>
      <trkpt lat="45.15576" lon="5.8063">
        <ele>732.4</ele>
        <time>2021-05-29T13:20:05Z</time>
      </trkpt>
      <trkpt lat="45.15576" lon="5.80629">
        <ele>732.6</ele>
        <time>2021-05-29T13:20:06Z</time>
      </trkpt>
      <trkpt lat="45.15576" lon="5.80628">
        <ele>732.8</ele>
        <time>2021-05-29T13:20:07Z</time>
      </trkpt>
      <trkpt lat="45.15575" lon="5.80626">
        <ele>733</ele>
        <time>2021-05-29T13:20:08Z</time>
      </trkpt>
      <trkpt lat="45.15575" lon="5.80625">
        <ele>733.2</ele>
        <time>2021-05-29T13:20:09Z</time>
      </trkpt>
      <trkpt lat="45.15575" lon="5.80624">
        <ele>733.4</ele>
        <time>2021-05-29T13:20:10Z</time>
      </trkpt>
      <trkpt lat="45.15574" lon="5.80622">
        <ele>733.6</ele>
        <time>2021-05-29T13:20:11Z</time>
      </trkpt>
      <trkpt lat="45.15574" lon="5.80621">
        <ele>733.6</ele>
        <time>2021-05-29T13:20:12Z</time>
      </trkpt>
      <trkpt lat="45.15574" lon="5.80619">
        <ele>733.8</ele>
        <time>2021-05-29T13:20:13Z</time>
      </trkpt>
      <trkpt lat="45.15574" lon="5.80618">
        <ele>734.2</ele>
        <time>2021-05-29T13:20:14Z</time>
      </trkpt>
      <trkpt lat="45.15574" lon="5.80616">
        <ele>734.2</ele>
        <time>2021-05-29T13:20:15Z</time>
      </trkpt>
      <trkpt lat="45.15573" lon="5.80615">
        <ele>734.6</ele>
        <time>2021-05-29T13:20:16Z</time>
      </trkpt>
      <trkpt lat="45.15573" lon="5.80613">
        <ele>734.8</ele>
        <time>2021-05-29T13:20:17Z</time>
      </trkpt>
      <trkpt lat="45.15573" lon="5.80612">
        <ele>734.8</ele>
        <time>2021-05-29T13:20:18Z</time>
      </trkpt>
      <trkpt lat="45.15573" lon="5.80611">
        <ele>734.8</ele>
        <time>2021-05-29T13:20:19Z</time>
      </trkpt>
      <trkpt lat="45.15573" lon="5.80609">
        <ele>735</ele>
        <time>2021-05-29T13:20:20Z</time>
      </trkpt>
      <trkpt lat="45.15573" lon="5.80607">
        <ele>735.2</ele>
        <time>2021-05-29T13:20:21Z</time>
      </trkpt>
      <trkpt lat="45.15574" lon="5.80605">
        <ele>735.2</ele>
        <time>2021-05-29T13:20:22Z</time>
      </trkpt>
      <trkpt lat="45.15574" lon="5.80602">
        <ele>735.2</ele>
        <time>2021-05-29T13:20:23Z</time>
      </trkpt>
      <trkpt lat="45.15575" lon="5.806">
        <ele>735.4</ele>
        <time>2021-05-29T13:20:24Z</time>
      </trkpt>
      <trkpt lat="45.15575" lon="5.80598">
        <ele>735.8</ele>
        <time>2021-05-29T13:20:25Z</time>
      </trkpt>
      <trkpt lat="45.15576" lon="5.80596">
        <ele>736</ele>
        <time>2021-05-29T13:20:26Z</time>
      </trkpt>
      <trkpt lat="45.15577" lon="5.80593">
        <ele>736</ele>
        <time>2021-05-29T13:20:27Z</time>
      </trkpt>
      <trkpt lat="45.15578" lon="5.8059">
        <ele>736</ele>
        <time>2021-05-29T13:20:28Z</time>
      </trkpt>
      <trkpt lat="45.15578" lon="5.80588">
        <ele>736</ele>
        <time>2021-05-29T13:20:29Z</time>
      </trkpt>
      <trkpt lat="45.15579" lon="5.80585">
        <ele>736</ele>
        <time>2021-05-29T13:20:30Z</time>
      </trkpt>
      <trkpt lat="45.1558" lon="5.80583">
        <ele>735.8</ele>
        <time>2021-05-29T13:20:31Z</time>
      </trkpt>
      <trkpt lat="45.15581" lon="5.80581">
        <ele>736</ele>
        <time>2021-05-29T13:20:32Z</time>
      </trkpt>
      <trkpt lat="45.15581" lon="5.8058">
        <ele>736.2</ele>
        <time>2021-05-29T13:20:33Z</time>
      </trkpt>
      <trkpt lat="45.15582" lon="5.80579">
        <ele>736.6</ele>
        <time>2021-05-29T13:20:34Z</time>
      </trkpt>
      <trkpt lat="45.15582" lon="5.80577">
        <ele>736.8</ele>
        <time>2021-05-29T13:20:35Z</time>
      </trkpt>
      <trkpt lat="45.15583" lon="5.80576">
        <ele>736.8</ele>
        <time>2021-05-29T13:20:36Z</time>
      </trkpt>
      <trkpt lat="45.15584" lon="5.80574">
        <ele>737</ele>
        <time>2021-05-29T13:20:37Z</time>
      </trkpt>
      <trkpt lat="45.15584" lon="5.80573">
        <ele>737</ele>
        <time>2021-05-29T13:20:38Z</time>
      </trkpt>
      <trkpt lat="45.15585" lon="5.80571">
        <ele>737.2</ele>
        <time>2021-05-29T13:20:39Z</time>
      </trkpt>
      <trkpt lat="45.15585" lon="5.8057">
        <ele>737.4</ele>
        <time>2021-05-29T13:20:40Z</time>
      </trkpt>
      <trkpt lat="45.15586" lon="5.80568">
        <ele>737.4</ele>
        <time>2021-05-29T13:20:41Z</time>
      </trkpt>
      <trkpt lat="45.15586" lon="5.80566">
        <ele>737.6</ele>
        <time>2021-05-29T13:20:42Z</time>
      </trkpt>
      <trkpt lat="45.15586" lon="5.80564">
        <ele>737.8</ele>
        <time>2021-05-29T13:20:43Z</time>
      </trkpt>
      <trkpt lat="45.15587" lon="5.80562">
        <ele>738.2</ele>
        <time>2021-05-29T13:20:44Z</time>
      </trkpt>
      <trkpt lat="45.15587" lon="5.8056">
        <ele>738.4</ele>
        <time>2021-05-29T13:20:45Z</time>
      </trkpt>
      <trkpt lat="45.15587" lon="5.80558">
        <ele>738.2</ele>
        <time>2021-05-29T13:20:46Z</time>
      </trkpt>
      <trkpt lat="45.15587" lon="5.80556">
        <ele>738.8</ele>
        <time>2021-05-29T13:20:47Z</time>
      </trkpt>
      <trkpt lat="45.15589" lon="5.80554">
        <ele>738.8</ele>
        <time>2021-05-29T13:20:48Z</time>
      </trkpt>
      <trkpt lat="45.1559" lon="5.80551">
        <ele>739</ele>
        <time>2021-05-29T13:20:49Z</time>
      </trkpt>
      <trkpt lat="45.15592" lon="5.80549">
        <ele>739</ele>
        <time>2021-05-29T13:20:50Z</time>
      </trkpt>
      <trkpt lat="45.15593" lon="5.80547">
        <ele>739.4</ele>
        <time>2021-05-29T13:20:51Z</time>
      </trkpt>
      <trkpt lat="45.15595" lon="5.80544">
        <ele>739.6</ele>
        <time>2021-05-29T13:20:52Z</time>
      </trkpt>
      <trkpt lat="45.15596" lon="5.80542">
        <ele>740</ele>
        <time>2021-05-29T13:20:53Z</time>
      </trkpt>
      <trkpt lat="45.15597" lon="5.8054">
        <ele>739.8</ele>
        <time>2021-05-29T13:20:54Z</time>
      </trkpt>
      <trkpt lat="45.15599" lon="5.80538">
        <ele>740</ele>
        <time>2021-05-29T13:20:55Z</time>
      </trkpt>
      <trkpt lat="45.156" lon="5.80536">
        <ele>740.2</ele>
        <time>2021-05-29T13:20:56Z</time>
      </trkpt>
      <trkpt lat="45.15601" lon="5.80534">
        <ele>740.8</ele>
        <time>2021-05-29T13:20:57Z</time>
      </trkpt>
      <trkpt lat="45.15602" lon="5.80532">
        <ele>740.8</ele>
        <time>2021-05-29T13:20:58Z</time>
      </trkpt>
      <trkpt lat="45.15604" lon="5.80531">
        <ele>741.2</ele>
        <time>2021-05-29T13:20:59Z</time>
      </trkpt>
      <trkpt lat="45.15605" lon="5.80529">
        <ele>741</ele>
        <time>2021-05-29T13:21:00Z</time>
      </trkpt>
      <trkpt lat="45.15607" lon="5.80528">
        <ele>741.2</ele>
        <time>2021-05-29T13:21:01Z</time>
      </trkpt>
      <trkpt lat="45.15608" lon="5.80526">
        <ele>740.8</ele>
        <time>2021-05-29T13:21:02Z</time>
      </trkpt>
      <trkpt lat="45.15612" lon="5.8052">
        <ele>741.2</ele>
        <time>2021-05-29T13:21:03Z</time>
      </trkpt>
      <trkpt lat="45.15615" lon="5.80514">
        <ele>741.2</ele>
        <time>2021-05-29T13:21:04Z</time>
      </trkpt>
      <trkpt lat="45.15615" lon="5.80514">
        <ele>741.6</ele>
        <time>2021-05-29T13:21:05Z</time>
      </trkpt>
      <trkpt lat="45.15615" lon="5.80514">
        <ele>741.6</ele>
        <time>2021-05-29T13:21:06Z</time>
      </trkpt>
      <trkpt lat="45.15617" lon="5.80512">
        <ele>741.8</ele>
        <time>2021-05-29T13:21:07Z</time>
      </trkpt>
      <trkpt lat="45.15618" lon="5.8051">
        <ele>741.8</ele>
        <time>2021-05-29T13:21:08Z</time>
      </trkpt>
      <trkpt lat="45.1562" lon="5.80508">
        <ele>742</ele>
        <time>2021-05-29T13:21:09Z</time>
      </trkpt>
      <trkpt lat="45.15621" lon="5.80505">
        <ele>742</ele>
        <time>2021-05-29T13:21:10Z</time>
      </trkpt>
      <trkpt lat="45.15623" lon="5.80503">
        <ele>742.2</ele>
        <time>2021-05-29T13:21:11Z</time>
      </trkpt>
      <trkpt lat="45.15623" lon="5.80501">
        <ele>742.2</ele>
        <time>2021-05-29T13:21:12Z</time>
      </trkpt>
      <trkpt lat="45.15624" lon="5.80498">
        <ele>742.4</ele>
        <time>2021-05-29T13:21:13Z</time>
      </trkpt>
      <trkpt lat="45.15625" lon="5.80496">
        <ele>742.4</ele>
        <time>2021-05-29T13:21:14Z</time>
      </trkpt>
      <trkpt lat="45.15626" lon="5.80493">
        <ele>742.6</ele>
        <time>2021-05-29T13:21:15Z</time>
      </trkpt>
      <trkpt lat="45.15626" lon="5.80491">
        <ele>743.4</ele>
        <time>2021-05-29T13:21:16Z</time>
      </trkpt>
      <trkpt lat="45.15627" lon="5.80488">
        <ele>743.8</ele>
        <time>2021-05-29T13:21:17Z</time>
      </trkpt>
      <trkpt lat="45.15628" lon="5.80486">
        <ele>744.2</ele>
        <time>2021-05-29T13:21:18Z</time>
      </trkpt>
      <trkpt lat="45.15629" lon="5.80484">
        <ele>744.4</ele>
        <time>2021-05-29T13:21:19Z</time>
      </trkpt>
      <trkpt lat="45.15629" lon="5.80481">
        <ele>744.6</ele>
        <time>2021-05-29T13:21:20Z</time>
      </trkpt>
      <trkpt lat="45.1563" lon="5.80479">
        <ele>744.8</ele>
        <time>2021-05-29T13:21:21Z</time>
      </trkpt>
      <trkpt lat="45.15631" lon="5.80476">
        <ele>744.8</ele>
        <time>2021-05-29T13:21:22Z</time>
      </trkpt>
      <trkpt lat="45.15631" lon="5.80475">
        <ele>745.2</ele>
        <time>2021-05-29T13:21:23Z</time>
      </trkpt>
      <trkpt lat="45.15631" lon="5.80473">
        <ele>745.6</ele>
        <time>2021-05-29T13:21:24Z</time>
      </trkpt>
      <trkpt lat="45.15632" lon="5.80471">
        <ele>746.2</ele>
        <time>2021-05-29T13:21:25Z</time>
      </trkpt>
      <trkpt lat="45.15632" lon="5.80469">
        <ele>746.2</ele>
        <time>2021-05-29T13:21:26Z</time>
      </trkpt>
      <trkpt lat="45.15633" lon="5.80467">
        <ele>746.4</ele>
        <time>2021-05-29T13:21:27Z</time>
      </trkpt>
      <trkpt lat="45.15633" lon="5.80465">
        <ele>747.2</ele>
        <time>2021-05-29T13:21:28Z</time>
      </trkpt>
      <trkpt lat="45.15633" lon="5.80463">
        <ele>747.2</ele>
        <time>2021-05-29T13:21:29Z</time>
      </trkpt>
      <trkpt lat="45.15634" lon="5.80461">
        <ele>747.8</ele>
        <time>2021-05-29T13:21:30Z</time>
      </trkpt>
      <trkpt lat="45.15635" lon="5.80459">
        <ele>747.6</ele>
        <time>2021-05-29T13:21:31Z</time>
      </trkpt>
      <trkpt lat="45.15636" lon="5.80457">
        <ele>748</ele>
        <time>2021-05-29T13:21:32Z</time>
      </trkpt>
      <trkpt lat="45.15637" lon="5.80454">
        <ele>748</ele>
        <time>2021-05-29T13:21:33Z</time>
      </trkpt>
      <trkpt lat="45.15638" lon="5.80452">
        <ele>748.4</ele>
        <time>2021-05-29T13:21:34Z</time>
      </trkpt>
      <trkpt lat="45.15639" lon="5.8045">
        <ele>748.2</ele>
        <time>2021-05-29T13:21:35Z</time>
      </trkpt>
      <trkpt lat="45.1564" lon="5.80448">
        <ele>748.2</ele>
        <time>2021-05-29T13:21:36Z</time>
      </trkpt>
      <trkpt lat="45.1564" lon="5.80447">
        <ele>748</ele>
        <time>2021-05-29T13:21:37Z</time>
      </trkpt>
      <trkpt lat="45.15641" lon="5.80445">
        <ele>748</ele>
        <time>2021-05-29T13:21:38Z</time>
      </trkpt>
      <trkpt lat="45.15642" lon="5.80443">
        <ele>748.2</ele>
        <time>2021-05-29T13:21:39Z</time>
      </trkpt>
      <trkpt lat="45.15642" lon="5.80442">
        <ele>748.2</ele>
        <time>2021-05-29T13:21:40Z</time>
      </trkpt>
      <trkpt lat="45.15643" lon="5.8044">
        <ele>748.4</ele>
        <time>2021-05-29T13:21:41Z</time>
      </trkpt>
      <trkpt lat="45.15643" lon="5.80438">
        <ele>748.4</ele>
        <time>2021-05-29T13:21:42Z</time>
      </trkpt>
      <trkpt lat="45.15644" lon="5.80437">
        <ele>748.4</ele>
        <time>2021-05-29T13:21:43Z</time>
      </trkpt>
      <trkpt lat="45.15644" lon="5.80435">
        <ele>748.6</ele>
        <time>2021-05-29T13:21:44Z</time>
      </trkpt>
      <trkpt lat="45.15645" lon="5.80433">
        <ele>748.8</ele>
        <time>2021-05-29T13:21:45Z</time>
      </trkpt>
      <trkpt lat="45.15645" lon="5.80432">
        <ele>749</ele>
        <time>2021-05-29T13:21:46Z</time>
      </trkpt>
      <trkpt lat="45.15646" lon="5.8043">
        <ele>749</ele>
        <time>2021-05-29T13:21:47Z</time>
      </trkpt>
      <trkpt lat="45.15646" lon="5.80428">
        <ele>749.2</ele>
        <time>2021-05-29T13:21:48Z</time>
      </trkpt>
      <trkpt lat="45.15647" lon="5.80427">
        <ele>749.2</ele>
        <time>2021-05-29T13:21:49Z</time>
      </trkpt>
      <trkpt lat="45.15647" lon="5.80425">
        <ele>749.4</ele>
        <time>2021-05-29T13:21:50Z</time>
      </trkpt>
      <trkpt lat="45.15648" lon="5.80423">
        <ele>749.6</ele>
        <time>2021-05-29T13:21:51Z</time>
      </trkpt>
      <trkpt lat="45.15648" lon="5.80422">
        <ele>749.8</ele>
        <time>2021-05-29T13:21:52Z</time>
      </trkpt>
      <trkpt lat="45.15649" lon="5.8042">
        <ele>750</ele>
        <time>2021-05-29T13:21:53Z</time>
      </trkpt>
      <trkpt lat="45.15649" lon="5.80419">
        <ele>750.4</ele>
        <time>2021-05-29T13:21:54Z</time>
      </trkpt>
      <trkpt lat="45.1565" lon="5.80417">
        <ele>750.6</ele>
        <time>2021-05-29T13:21:55Z</time>
      </trkpt>
      <trkpt lat="45.1565" lon="5.80416">
        <ele>750.6</ele>
        <time>2021-05-29T13:21:56Z</time>
      </trkpt>
      <trkpt lat="45.1565" lon="5.80414">
        <ele>750.8</ele>
        <time>2021-05-29T13:21:57Z</time>
      </trkpt>
      <trkpt lat="45.15651" lon="5.80413">
        <ele>751</ele>
        <time>2021-05-29T13:21:58Z</time>
      </trkpt>
      <trkpt lat="45.15652" lon="5.80412">
        <ele>751.2</ele>
        <time>2021-05-29T13:21:59Z</time>
      </trkpt>
      <trkpt lat="45.15652" lon="5.8041">
        <ele>751.4</ele>
        <time>2021-05-29T13:22:00Z</time>
      </trkpt>
      <trkpt lat="45.15653" lon="5.80409">
        <ele>751.8</ele>
        <time>2021-05-29T13:22:01Z</time>
      </trkpt>
      <trkpt lat="45.15653" lon="5.80408">
        <ele>752.2</ele>
        <time>2021-05-29T13:22:02Z</time>
      </trkpt>
      <trkpt lat="45.15654" lon="5.80406">
        <ele>752.4</ele>
        <time>2021-05-29T13:22:03Z</time>
      </trkpt>
      <trkpt lat="45.15655" lon="5.80405">
        <ele>752.6</ele>
        <time>2021-05-29T13:22:04Z</time>
      </trkpt>
      <trkpt lat="45.15655" lon="5.80403">
        <ele>753</ele>
        <time>2021-05-29T13:22:05Z</time>
      </trkpt>
      <trkpt lat="45.15656" lon="5.80402">
        <ele>753.2</ele>
        <time>2021-05-29T13:22:06Z</time>
      </trkpt>
      <trkpt lat="45.15657" lon="5.80401">
        <ele>753.4</ele>
        <time>2021-05-29T13:22:07Z</time>
      </trkpt>
      <trkpt lat="45.15657" lon="5.804">
        <ele>753.8</ele>
        <time>2021-05-29T13:22:08Z</time>
      </trkpt>
      <trkpt lat="45.15658" lon="5.80399">
        <ele>754</ele>
        <time>2021-05-29T13:22:09Z</time>
      </trkpt>
      <trkpt lat="45.15659" lon="5.80398">
        <ele>754.2</ele>
        <time>2021-05-29T13:22:10Z</time>
      </trkpt>
      <trkpt lat="45.15659" lon="5.80396">
        <ele>754.6</ele>
        <time>2021-05-29T13:22:11Z</time>
      </trkpt>
      <trkpt lat="45.1566" lon="5.80395">
        <ele>754.8</ele>
        <time>2021-05-29T13:22:12Z</time>
      </trkpt>
      <trkpt lat="45.15661" lon="5.80394">
        <ele>755</ele>
        <time>2021-05-29T13:22:13Z</time>
      </trkpt>
      <trkpt lat="45.15662" lon="5.80393">
        <ele>755.2</ele>
        <time>2021-05-29T13:22:14Z</time>
      </trkpt>
      <trkpt lat="45.15662" lon="5.80392">
        <ele>755.4</ele>
        <time>2021-05-29T13:22:15Z</time>
      </trkpt>
      <trkpt lat="45.15663" lon="5.80391">
        <ele>755.6</ele>
        <time>2021-05-29T13:22:16Z</time>
      </trkpt>
      <trkpt lat="45.15663" lon="5.8039">
        <ele>755.8</ele>
        <time>2021-05-29T13:22:17Z</time>
      </trkpt>
      <trkpt lat="45.15664" lon="5.80389">
        <ele>756.2</ele>
        <time>2021-05-29T13:22:18Z</time>
      </trkpt>
      <trkpt lat="45.15664" lon="5.80388">
        <ele>756.6</ele>
        <time>2021-05-29T13:22:19Z</time>
      </trkpt>
      <trkpt lat="45.15664" lon="5.80387">
        <ele>756.6</ele>
        <time>2021-05-29T13:22:20Z</time>
      </trkpt>
      <trkpt lat="45.15665" lon="5.80386">
        <ele>756.8</ele>
        <time>2021-05-29T13:22:21Z</time>
      </trkpt>
      <trkpt lat="45.15665" lon="5.80385">
        <ele>756.8</ele>
        <time>2021-05-29T13:22:22Z</time>
      </trkpt>
      <trkpt lat="45.15665" lon="5.80384">
        <ele>757</ele>
        <time>2021-05-29T13:22:23Z</time>
      </trkpt>
      <trkpt lat="45.15666" lon="5.80383">
        <ele>757.2</ele>
        <time>2021-05-29T13:22:24Z</time>
      </trkpt>
      <trkpt lat="45.15666" lon="5.80382">
        <ele>757.4</ele>
        <time>2021-05-29T13:22:25Z</time>
      </trkpt>
      <trkpt lat="45.15667" lon="5.80381">
        <ele>757.6</ele>
        <time>2021-05-29T13:22:26Z</time>
      </trkpt>
      <trkpt lat="45.15667" lon="5.8038">
        <ele>757.8</ele>
        <time>2021-05-29T13:22:27Z</time>
      </trkpt>
      <trkpt lat="45.15667" lon="5.80379">
        <ele>758</ele>
        <time>2021-05-29T13:22:28Z</time>
      </trkpt>
      <trkpt lat="45.15668" lon="5.80379">
        <ele>758.4</ele>
        <time>2021-05-29T13:22:29Z</time>
      </trkpt>
      <trkpt lat="45.15668" lon="5.80378">
        <ele>758.8</ele>
        <time>2021-05-29T13:22:30Z</time>
      </trkpt>
      <trkpt lat="45.15669" lon="5.80377">
        <ele>759</ele>
        <time>2021-05-29T13:22:31Z</time>
      </trkpt>
      <trkpt lat="45.15669" lon="5.80376">
        <ele>759.2</ele>
        <time>2021-05-29T13:22:32Z</time>
      </trkpt>
      <trkpt lat="45.15669" lon="5.80375">
        <ele>759.4</ele>
        <time>2021-05-29T13:22:33Z</time>
      </trkpt>
      <trkpt lat="45.1567" lon="5.80375">
        <ele>759.6</ele>
        <time>2021-05-29T13:22:34Z</time>
      </trkpt>
      <trkpt lat="45.1567" lon="5.80374">
        <ele>759.6</ele>
        <time>2021-05-29T13:22:35Z</time>
      </trkpt>
      <trkpt lat="45.15671" lon="5.80373">
        <ele>759.8</ele>
        <time>2021-05-29T13:22:36Z</time>
      </trkpt>
      <trkpt lat="45.15671" lon="5.80372">
        <ele>759.8</ele>
        <time>2021-05-29T13:22:37Z</time>
      </trkpt>
      <trkpt lat="45.15672" lon="5.80371">
        <ele>760.4</ele>
        <time>2021-05-29T13:22:38Z</time>
      </trkpt>
      <trkpt lat="45.15672" lon="5.80371">
        <ele>760.6</ele>
        <time>2021-05-29T13:22:39Z</time>
      </trkpt>
      <trkpt lat="45.15672" lon="5.8037">
        <ele>760.8</ele>
        <time>2021-05-29T13:22:40Z</time>
      </trkpt>
      <trkpt lat="45.15673" lon="5.80369">
        <ele>761</ele>
        <time>2021-05-29T13:22:41Z</time>
      </trkpt>
      <trkpt lat="45.15673" lon="5.80368">
        <ele>761.4</ele>
        <time>2021-05-29T13:22:42Z</time>
      </trkpt>
      <trkpt lat="45.15674" lon="5.80367">
        <ele>761.4</ele>
        <time>2021-05-29T13:22:43Z</time>
      </trkpt>
      <trkpt lat="45.15674" lon="5.80366">
        <ele>761.8</ele>
        <time>2021-05-29T13:22:44Z</time>
      </trkpt>
      <trkpt lat="45.15674" lon="5.80365">
        <ele>762</ele>
        <time>2021-05-29T13:22:45Z</time>
      </trkpt>
      <trkpt lat="45.15675" lon="5.80364">
        <ele>762.2</ele>
        <time>2021-05-29T13:22:46Z</time>
      </trkpt>
      <trkpt lat="45.15675" lon="5.80363">
        <ele>762.4</ele>
        <time>2021-05-29T13:22:47Z</time>
      </trkpt>
      <trkpt lat="45.15676" lon="5.80362">
        <ele>762.8</ele>
        <time>2021-05-29T13:22:48Z</time>
      </trkpt>
      <trkpt lat="45.15676" lon="5.80361">
        <ele>763</ele>
        <time>2021-05-29T13:22:49Z</time>
      </trkpt>
      <trkpt lat="45.15677" lon="5.8036">
        <ele>763.2</ele>
        <time>2021-05-29T13:22:50Z</time>
      </trkpt>
      <trkpt lat="45.15677" lon="5.80358">
        <ele>763.4</ele>
        <time>2021-05-29T13:22:51Z</time>
      </trkpt>
      <trkpt lat="45.15678" lon="5.80357">
        <ele>763.4</ele>
        <time>2021-05-29T13:22:52Z</time>
      </trkpt>
      <trkpt lat="45.15678" lon="5.80356">
        <ele>763.6</ele>
        <time>2021-05-29T13:22:53Z</time>
      </trkpt>
      <trkpt lat="45.15679" lon="5.80355">
        <ele>763.8</ele>
        <time>2021-05-29T13:22:54Z</time>
      </trkpt>
      <trkpt lat="45.15679" lon="5.80354">
        <ele>764.2</ele>
        <time>2021-05-29T13:22:55Z</time>
      </trkpt>
      <trkpt lat="45.1568" lon="5.80353">
        <ele>764.4</ele>
        <time>2021-05-29T13:22:56Z</time>
      </trkpt>
      <trkpt lat="45.1568" lon="5.80353">
        <ele>764.6</ele>
        <time>2021-05-29T13:22:57Z</time>
      </trkpt>
      <trkpt lat="45.15681" lon="5.80352">
        <ele>764.6</ele>
        <time>2021-05-29T13:22:58Z</time>
      </trkpt>
      <trkpt lat="45.15681" lon="5.80351">
        <ele>764.8</ele>
        <time>2021-05-29T13:22:59Z</time>
      </trkpt>
      <trkpt lat="45.15682" lon="5.8035">
        <ele>765</ele>
        <time>2021-05-29T13:23:00Z</time>
      </trkpt>
      <trkpt lat="45.15682" lon="5.80349">
        <ele>765.2</ele>
        <time>2021-05-29T13:23:01Z</time>
      </trkpt>
      <trkpt lat="45.15683" lon="5.80348">
        <ele>765.6</ele>
        <time>2021-05-29T13:23:02Z</time>
      </trkpt>
      <trkpt lat="45.15683" lon="5.80347">
        <ele>765.6</ele>
        <time>2021-05-29T13:23:03Z</time>
      </trkpt>
      <trkpt lat="45.15684" lon="5.80346">
        <ele>766</ele>
        <time>2021-05-29T13:23:04Z</time>
      </trkpt>
      <trkpt lat="45.15684" lon="5.80346">
        <ele>766</ele>
        <time>2021-05-29T13:23:05Z</time>
      </trkpt>
      <trkpt lat="45.15685" lon="5.80345">
        <ele>766</ele>
        <time>2021-05-29T13:23:06Z</time>
      </trkpt>
      <trkpt lat="45.15685" lon="5.80344">
        <ele>766.2</ele>
        <time>2021-05-29T13:23:07Z</time>
      </trkpt>
      <trkpt lat="45.15686" lon="5.80343">
        <ele>766.4</ele>
        <time>2021-05-29T13:23:08Z</time>
      </trkpt>
      <trkpt lat="45.15686" lon="5.80342">
        <ele>766.6</ele>
        <time>2021-05-29T13:23:09Z</time>
      </trkpt>
      <trkpt lat="45.15687" lon="5.80341">
        <ele>766.8</ele>
        <time>2021-05-29T13:23:10Z</time>
      </trkpt>
      <trkpt lat="45.15687" lon="5.8034">
        <ele>767</ele>
        <time>2021-05-29T13:23:11Z</time>
      </trkpt>
      <trkpt lat="45.15688" lon="5.8034">
        <ele>767.4</ele>
        <time>2021-05-29T13:23:12Z</time>
      </trkpt>
      <trkpt lat="45.15688" lon="5.80339">
        <ele>767.6</ele>
        <time>2021-05-29T13:23:13Z</time>
      </trkpt>
      <trkpt lat="45.15689" lon="5.80338">
        <ele>767.8</ele>
        <time>2021-05-29T13:23:14Z</time>
      </trkpt>
      <trkpt lat="45.15689" lon="5.80337">
        <ele>768.2</ele>
        <time>2021-05-29T13:23:15Z</time>
      </trkpt>
      <trkpt lat="45.1569" lon="5.80336">
        <ele>768.4</ele>
        <time>2021-05-29T13:23:16Z</time>
      </trkpt>
      <trkpt lat="45.1569" lon="5.80335">
        <ele>768.6</ele>
        <time>2021-05-29T13:23:17Z</time>
      </trkpt>
      <trkpt lat="45.15691" lon="5.80334">
        <ele>768.6</ele>
        <time>2021-05-29T13:23:18Z</time>
      </trkpt>
      <trkpt lat="45.15691" lon="5.80334">
        <ele>768.6</ele>
        <time>2021-05-29T13:23:19Z</time>
      </trkpt>
      <trkpt lat="45.15692" lon="5.80333">
        <ele>768.6</ele>
        <time>2021-05-29T13:23:20Z</time>
      </trkpt>
      <trkpt lat="45.15692" lon="5.80332">
        <ele>769</ele>
        <time>2021-05-29T13:23:21Z</time>
      </trkpt>
      <trkpt lat="45.15693" lon="5.80331">
        <ele>769.2</ele>
        <time>2021-05-29T13:23:22Z</time>
      </trkpt>
      <trkpt lat="45.15693" lon="5.8033">
        <ele>769.4</ele>
        <time>2021-05-29T13:23:23Z</time>
      </trkpt>
      <trkpt lat="45.15694" lon="5.80329">
        <ele>769.8</ele>
        <time>2021-05-29T13:23:24Z</time>
      </trkpt>
      <trkpt lat="45.15694" lon="5.80328">
        <ele>769.8</ele>
        <time>2021-05-29T13:23:25Z</time>
      </trkpt>
      <trkpt lat="45.15695" lon="5.80328">
        <ele>770</ele>
        <time>2021-05-29T13:23:26Z</time>
      </trkpt>
      <trkpt lat="45.15695" lon="5.80327">
        <ele>770.2</ele>
        <time>2021-05-29T13:23:27Z</time>
      </trkpt>
      <trkpt lat="45.15696" lon="5.80326">
        <ele>770.2</ele>
        <time>2021-05-29T13:23:28Z</time>
      </trkpt>
      <trkpt lat="45.15696" lon="5.80325">
        <ele>770.6</ele>
        <time>2021-05-29T13:23:29Z</time>
      </trkpt>
      <trkpt lat="45.15697" lon="5.80324">
        <ele>770.8</ele>
        <time>2021-05-29T13:23:30Z</time>
      </trkpt>
      <trkpt lat="45.15697" lon="5.80323">
        <ele>771</ele>
        <time>2021-05-29T13:23:31Z</time>
      </trkpt>
      <trkpt lat="45.15698" lon="5.80322">
        <ele>771</ele>
        <time>2021-05-29T13:23:32Z</time>
      </trkpt>
      <trkpt lat="45.15698" lon="5.80321">
        <ele>771.4</ele>
        <time>2021-05-29T13:23:33Z</time>
      </trkpt>
      <trkpt lat="45.15699" lon="5.80321">
        <ele>771.6</ele>
        <time>2021-05-29T13:23:34Z</time>
      </trkpt>
      <trkpt lat="45.15699" lon="5.8032">
        <ele>771.6</ele>
        <time>2021-05-29T13:23:35Z</time>
      </trkpt>
      <trkpt lat="45.157" lon="5.80319">
        <ele>771.8</ele>
        <time>2021-05-29T13:23:36Z</time>
      </trkpt>
      <trkpt lat="45.157" lon="5.80318">
        <ele>772</ele>
        <time>2021-05-29T13:23:37Z</time>
      </trkpt>
      <trkpt lat="45.15701" lon="5.80317">
        <ele>772.2</ele>
        <time>2021-05-29T13:23:38Z</time>
      </trkpt>
      <trkpt lat="45.15701" lon="5.80316">
        <ele>772.6</ele>
        <time>2021-05-29T13:23:39Z</time>
      </trkpt>
      <trkpt lat="45.15702" lon="5.80315">
        <ele>772.6</ele>
        <time>2021-05-29T13:23:40Z</time>
      </trkpt>
      <trkpt lat="45.15702" lon="5.80315">
        <ele>772.8</ele>
        <time>2021-05-29T13:23:41Z</time>
      </trkpt>
      <trkpt lat="45.15703" lon="5.80314">
        <ele>773</ele>
        <time>2021-05-29T13:23:42Z</time>
      </trkpt>
      <trkpt lat="45.15703" lon="5.80313">
        <ele>773.2</ele>
        <time>2021-05-29T13:23:43Z</time>
      </trkpt>
      <trkpt lat="45.15704" lon="5.80312">
        <ele>773.2</ele>
        <time>2021-05-29T13:23:44Z</time>
      </trkpt>
      <trkpt lat="45.15704" lon="5.80311">
        <ele>773.4</ele>
        <time>2021-05-29T13:23:45Z</time>
      </trkpt>
      <trkpt lat="45.15705" lon="5.8031">
        <ele>773.4</ele>
        <time>2021-05-29T13:23:46Z</time>
      </trkpt>
      <trkpt lat="45.15705" lon="5.80309">
        <ele>773.6</ele>
        <time>2021-05-29T13:23:47Z</time>
      </trkpt>
      <trkpt lat="45.15706" lon="5.80309">
        <ele>774</ele>
        <time>2021-05-29T13:23:48Z</time>
      </trkpt>
      <trkpt lat="45.15706" lon="5.80308">
        <ele>774</ele>
        <time>2021-05-29T13:23:49Z</time>
      </trkpt>
      <trkpt lat="45.15707" lon="5.80307">
        <ele>774.2</ele>
        <time>2021-05-29T13:23:50Z</time>
      </trkpt>
      <trkpt lat="45.15707" lon="5.80306">
        <ele>774.2</ele>
        <time>2021-05-29T13:23:51Z</time>
      </trkpt>
      <trkpt lat="45.15708" lon="5.80305">
        <ele>774.4</ele>
        <time>2021-05-29T13:23:52Z</time>
      </trkpt>
      <trkpt lat="45.15708" lon="5.80304">
        <ele>774.8</ele>
        <time>2021-05-29T13:23:53Z</time>
      </trkpt>
      <trkpt lat="45.15709" lon="5.80303">
        <ele>775</ele>
        <time>2021-05-29T13:23:54Z</time>
      </trkpt>
      <trkpt lat="45.15709" lon="5.80302">
        <ele>775.2</ele>
        <time>2021-05-29T13:23:55Z</time>
      </trkpt>
      <trkpt lat="45.1571" lon="5.80302">
        <ele>775.4</ele>
        <time>2021-05-29T13:23:56Z</time>
      </trkpt>
      <trkpt lat="45.1571" lon="5.80301">
        <ele>775.6</ele>
        <time>2021-05-29T13:23:57Z</time>
      </trkpt>
      <trkpt lat="45.15711" lon="5.803">
        <ele>775.8</ele>
        <time>2021-05-29T13:23:58Z</time>
      </trkpt>
      <trkpt lat="45.15711" lon="5.80299">
        <ele>776</ele>
        <time>2021-05-29T13:23:59Z</time>
      </trkpt>
      <trkpt lat="45.15712" lon="5.80298">
        <ele>776</ele>
        <time>2021-05-29T13:24:00Z</time>
      </trkpt>
      <trkpt lat="45.15712" lon="5.80297">
        <ele>776.2</ele>
        <time>2021-05-29T13:24:01Z</time>
      </trkpt>
      <trkpt lat="45.15713" lon="5.80296">
        <ele>776.4</ele>
        <time>2021-05-29T13:24:02Z</time>
      </trkpt>
      <trkpt lat="45.15713" lon="5.80296">
        <ele>776.6</ele>
        <time>2021-05-29T13:24:03Z</time>
      </trkpt>
      <trkpt lat="45.15714" lon="5.80295">
        <ele>777</ele>
        <time>2021-05-29T13:24:04Z</time>
      </trkpt>
      <trkpt lat="45.15714" lon="5.80294">
        <ele>777.2</ele>
        <time>2021-05-29T13:24:05Z</time>
      </trkpt>
      <trkpt lat="45.15715" lon="5.80293">
        <ele>777.2</ele>
        <time>2021-05-29T13:24:06Z</time>
      </trkpt>
      <trkpt lat="45.15715" lon="5.80292">
        <ele>777.6</ele>
        <time>2021-05-29T13:24:07Z</time>
      </trkpt>
      <trkpt lat="45.15715" lon="5.80292">
        <ele>777.8</ele>
        <time>2021-05-29T13:24:08Z</time>
      </trkpt>
      <trkpt lat="45.15715" lon="5.80292">
        <ele>778</ele>
        <time>2021-05-29T13:24:09Z</time>
      </trkpt>
      <trkpt lat="45.15716" lon="5.80291">
        <ele>778</ele>
        <time>2021-05-29T13:24:10Z</time>
      </trkpt>
      <trkpt lat="45.15716" lon="5.8029">
        <ele>778.2</ele>
        <time>2021-05-29T13:24:11Z</time>
      </trkpt>
      <trkpt lat="45.15717" lon="5.80289">
        <ele>778.4</ele>
        <time>2021-05-29T13:24:12Z</time>
      </trkpt>
      <trkpt lat="45.15717" lon="5.80288">
        <ele>778.8</ele>
        <time>2021-05-29T13:24:13Z</time>
      </trkpt>
      <trkpt lat="45.15717" lon="5.80287">
        <ele>779</ele>
        <time>2021-05-29T13:24:14Z</time>
      </trkpt>
      <trkpt lat="45.15718" lon="5.80286">
        <ele>779.2</ele>
        <time>2021-05-29T13:24:15Z</time>
      </trkpt>
      <trkpt lat="45.15718" lon="5.80286">
        <ele>779.4</ele>
        <time>2021-05-29T13:24:16Z</time>
      </trkpt>
      <trkpt lat="45.15718" lon="5.80285">
        <ele>779.6</ele>
        <time>2021-05-29T13:24:17Z</time>
      </trkpt>
      <trkpt lat="45.15719" lon="5.80284">
        <ele>780.2</ele>
        <time>2021-05-29T13:24:18Z</time>
      </trkpt>
      <trkpt lat="45.15719" lon="5.80283">
        <ele>780.6</ele>
        <time>2021-05-29T13:24:19Z</time>
      </trkpt>
      <trkpt lat="45.15719" lon="5.80282">
        <ele>780.8</ele>
        <time>2021-05-29T13:24:20Z</time>
      </trkpt>
      <trkpt lat="45.1572" lon="5.80281">
        <ele>781</ele>
        <time>2021-05-29T13:24:21Z</time>
      </trkpt>
      <trkpt lat="45.1572" lon="5.8028">
        <ele>781.2</ele>
        <time>2021-05-29T13:24:22Z</time>
      </trkpt>
      <trkpt lat="45.15721" lon="5.80279">
        <ele>781.2</ele>
        <time>2021-05-29T13:24:23Z</time>
      </trkpt>
      <trkpt lat="45.15721" lon="5.80278">
        <ele>781.2</ele>
        <time>2021-05-29T13:24:24Z</time>
      </trkpt>
      <trkpt lat="45.15722" lon="5.80278">
        <ele>781.6</ele>
        <time>2021-05-29T13:24:25Z</time>
      </trkpt>
      <trkpt lat="45.15722" lon="5.80277">
        <ele>781.8</ele>
        <time>2021-05-29T13:24:26Z</time>
      </trkpt>
      <trkpt lat="45.15723" lon="5.80276">
        <ele>781.8</ele>
        <time>2021-05-29T13:24:27Z</time>
      </trkpt>
      <trkpt lat="45.15723" lon="5.80275">
        <ele>782.2</ele>
        <time>2021-05-29T13:24:28Z</time>
      </trkpt>
      <trkpt lat="45.15724" lon="5.80274">
        <ele>782.4</ele>
        <time>2021-05-29T13:24:29Z</time>
      </trkpt>
      <trkpt lat="45.15724" lon="5.80274">
        <ele>782.8</ele>
        <time>2021-05-29T13:24:30Z</time>
      </trkpt>
      <trkpt lat="45.15725" lon="5.80273">
        <ele>782.8</ele>
        <time>2021-05-29T13:24:31Z</time>
      </trkpt>
      <trkpt lat="45.15726" lon="5.80272">
        <ele>782.8</ele>
        <time>2021-05-29T13:24:32Z</time>
      </trkpt>
      <trkpt lat="45.15726" lon="5.80271">
        <ele>783</ele>
        <time>2021-05-29T13:24:33Z</time>
      </trkpt>
      <trkpt lat="45.15727" lon="5.8027">
        <ele>783.2</ele>
        <time>2021-05-29T13:24:34Z</time>
      </trkpt>
      <trkpt lat="45.15727" lon="5.80269">
        <ele>783.4</ele>
        <time>2021-05-29T13:24:35Z</time>
      </trkpt>
      <trkpt lat="45.15728" lon="5.80268">
        <ele>783.6</ele>
        <time>2021-05-29T13:24:36Z</time>
      </trkpt>
      <trkpt lat="45.15728" lon="5.80267">
        <ele>783.8</ele>
        <time>2021-05-29T13:24:37Z</time>
      </trkpt>
      <trkpt lat="45.15729" lon="5.80266">
        <ele>784</ele>
        <time>2021-05-29T13:24:38Z</time>
      </trkpt>
      <trkpt lat="45.15729" lon="5.80265">
        <ele>784</ele>
        <time>2021-05-29T13:24:39Z</time>
      </trkpt>
      <trkpt lat="45.1573" lon="5.80264">
        <ele>784.2</ele>
        <time>2021-05-29T13:24:40Z</time>
      </trkpt>
      <trkpt lat="45.1573" lon="5.80263">
        <ele>784.6</ele>
        <time>2021-05-29T13:24:41Z</time>
      </trkpt>
      <trkpt lat="45.15731" lon="5.80262">
        <ele>784.8</ele>
        <time>2021-05-29T13:24:42Z</time>
      </trkpt>
      <trkpt lat="45.15731" lon="5.80261">
        <ele>785</ele>
        <time>2021-05-29T13:24:43Z</time>
      </trkpt>
      <trkpt lat="45.15732" lon="5.8026">
        <ele>785</ele>
        <time>2021-05-29T13:24:44Z</time>
      </trkpt>
      <trkpt lat="45.15731" lon="5.8026">
        <ele>785.6</ele>
        <time>2021-05-29T13:24:45Z</time>
      </trkpt>
      <trkpt lat="45.15731" lon="5.80259">
        <ele>785.8</ele>
        <time>2021-05-29T13:24:46Z</time>
      </trkpt>
      <trkpt lat="45.15731" lon="5.80259">
        <ele>786</ele>
        <time>2021-05-29T13:24:47Z</time>
      </trkpt>
      <trkpt lat="45.1573" lon="5.80258">
        <ele>786.2</ele>
        <time>2021-05-29T13:24:48Z</time>
      </trkpt>
      <trkpt lat="45.1573" lon="5.80258">
        <ele>786.4</ele>
        <time>2021-05-29T13:24:49Z</time>
      </trkpt>
      <trkpt lat="45.1573" lon="5.80257">
        <ele>786.8</ele>
        <time>2021-05-29T13:24:50Z</time>
      </trkpt>
      <trkpt lat="45.15729" lon="5.80257">
        <ele>786.6</ele>
        <time>2021-05-29T13:24:51Z</time>
      </trkpt>
      <trkpt lat="45.15729" lon="5.80257">
        <ele>787</ele>
        <time>2021-05-29T13:24:52Z</time>
      </trkpt>
      <trkpt lat="45.15729" lon="5.80256">
        <ele>786.8</ele>
        <time>2021-05-29T13:24:53Z</time>
      </trkpt>
      <trkpt lat="45.15729" lon="5.80256">
        <ele>787</ele>
        <time>2021-05-29T13:24:54Z</time>
      </trkpt>
      <trkpt lat="45.15728" lon="5.80255">
        <ele>787</ele>
        <time>2021-05-29T13:24:55Z</time>
      </trkpt>
      <trkpt lat="45.15728" lon="5.80255">
        <ele>787.4</ele>
        <time>2021-05-29T13:24:56Z</time>
      </trkpt>
      <trkpt lat="45.15728" lon="5.80254">
        <ele>787.6</ele>
        <time>2021-05-29T13:24:57Z</time>
      </trkpt>
      <trkpt lat="45.15727" lon="5.80254">
        <ele>787.8</ele>
        <time>2021-05-29T13:24:58Z</time>
      </trkpt>
      <trkpt lat="45.15727" lon="5.80253">
        <ele>788</ele>
        <time>2021-05-29T13:24:59Z</time>
      </trkpt>
      <trkpt lat="45.15727" lon="5.80253">
        <ele>788</ele>
        <time>2021-05-29T13:25:00Z</time>
      </trkpt>
      <trkpt lat="45.15726" lon="5.80253">
        <ele>788.2</ele>
        <time>2021-05-29T13:25:01Z</time>
      </trkpt>
      <trkpt lat="45.15726" lon="5.80252">
        <ele>788.4</ele>
        <time>2021-05-29T13:25:02Z</time>
      </trkpt>
      <trkpt lat="45.15726" lon="5.80252">
        <ele>788.8</ele>
        <time>2021-05-29T13:25:03Z</time>
      </trkpt>
      <trkpt lat="45.15725" lon="5.80251">
        <ele>789</ele>
        <time>2021-05-29T13:25:04Z</time>
      </trkpt>
      <trkpt lat="45.15725" lon="5.80251">
        <ele>789</ele>
        <time>2021-05-29T13:25:05Z</time>
      </trkpt>
      <trkpt lat="45.15725" lon="5.8025">
        <ele>789.4</ele>
        <time>2021-05-29T13:25:06Z</time>
      </trkpt>
      <trkpt lat="45.15724" lon="5.8025">
        <ele>789.6</ele>
        <time>2021-05-29T13:25:07Z</time>
      </trkpt>
      <trkpt lat="45.15723" lon="5.8025">
        <ele>789.8</ele>
        <time>2021-05-29T13:25:08Z</time>
      </trkpt>
      <trkpt lat="45.15723" lon="5.80251">
        <ele>790</ele>
        <time>2021-05-29T13:25:09Z</time>
      </trkpt>
      <trkpt lat="45.15722" lon="5.80251">
        <ele>790.4</ele>
        <time>2021-05-29T13:25:10Z</time>
      </trkpt>
      <trkpt lat="45.15721" lon="5.80251">
        <ele>790.6</ele>
        <time>2021-05-29T13:25:11Z</time>
      </trkpt>
      <trkpt lat="45.1572" lon="5.80251">
        <ele>791</ele>
        <time>2021-05-29T13:25:12Z</time>
      </trkpt>
      <trkpt lat="45.1572" lon="5.80251">
        <ele>791</ele>
        <time>2021-05-29T13:25:13Z</time>
      </trkpt>
      <trkpt lat="45.15719" lon="5.80251">
        <ele>791.4</ele>
        <time>2021-05-29T13:25:14Z</time>
      </trkpt>
      <trkpt lat="45.15718" lon="5.80251">
        <ele>791.8</ele>
        <time>2021-05-29T13:25:15Z</time>
      </trkpt>
      <trkpt lat="45.15718" lon="5.80251">
        <ele>792.2</ele>
        <time>2021-05-29T13:25:16Z</time>
      </trkpt>
      <trkpt lat="45.15717" lon="5.80251">
        <ele>792.2</ele>
        <time>2021-05-29T13:25:17Z</time>
      </trkpt>
      <trkpt lat="45.15716" lon="5.80251">
        <ele>792.6</ele>
        <time>2021-05-29T13:25:18Z</time>
      </trkpt>
      <trkpt lat="45.15715" lon="5.80251">
        <ele>792.6</ele>
        <time>2021-05-29T13:25:19Z</time>
      </trkpt>
      <trkpt lat="45.15715" lon="5.80252">
        <ele>792.8</ele>
        <time>2021-05-29T13:25:20Z</time>
      </trkpt>
      <trkpt lat="45.15714" lon="5.80252">
        <ele>793</ele>
        <time>2021-05-29T13:25:21Z</time>
      </trkpt>
      <trkpt lat="45.15714" lon="5.80253">
        <ele>793.2</ele>
        <time>2021-05-29T13:25:22Z</time>
      </trkpt>
      <trkpt lat="45.15713" lon="5.80254">
        <ele>793.4</ele>
        <time>2021-05-29T13:25:23Z</time>
      </trkpt>
      <trkpt lat="45.15713" lon="5.80254">
        <ele>793.8</ele>
        <time>2021-05-29T13:25:24Z</time>
      </trkpt>
      <trkpt lat="45.15712" lon="5.80255">
        <ele>794</ele>
        <time>2021-05-29T13:25:25Z</time>
      </trkpt>
      <trkpt lat="45.15712" lon="5.80256">
        <ele>794.2</ele>
        <time>2021-05-29T13:25:26Z</time>
      </trkpt>
      <trkpt lat="45.15711" lon="5.80257">
        <ele>794.4</ele>
        <time>2021-05-29T13:25:27Z</time>
      </trkpt>
      <trkpt lat="45.15711" lon="5.80257">
        <ele>794.6</ele>
        <time>2021-05-29T13:25:28Z</time>
      </trkpt>
      <trkpt lat="45.1571" lon="5.80258">
        <ele>794.8</ele>
        <time>2021-05-29T13:25:29Z</time>
      </trkpt>
      <trkpt lat="45.1571" lon="5.80259">
        <ele>795.2</ele>
        <time>2021-05-29T13:25:30Z</time>
      </trkpt>
      <trkpt lat="45.1571" lon="5.80259">
        <ele>795.4</ele>
        <time>2021-05-29T13:25:31Z</time>
      </trkpt>
      <trkpt lat="45.15709" lon="5.8026">
        <ele>795.4</ele>
        <time>2021-05-29T13:25:32Z</time>
      </trkpt>
      <trkpt lat="45.15709" lon="5.80261">
        <ele>795.6</ele>
        <time>2021-05-29T13:25:33Z</time>
      </trkpt>
      <trkpt lat="45.15708" lon="5.80261">
        <ele>795.8</ele>
        <time>2021-05-29T13:25:34Z</time>
      </trkpt>
      <trkpt lat="45.15707" lon="5.80262">
        <ele>796.2</ele>
        <time>2021-05-29T13:25:35Z</time>
      </trkpt>
      <trkpt lat="45.15706" lon="5.80262">
        <ele>796.6</ele>
        <time>2021-05-29T13:25:36Z</time>
      </trkpt>
      <trkpt lat="45.15706" lon="5.80263">
        <ele>796.8</ele>
        <time>2021-05-29T13:25:37Z</time>
      </trkpt>
      <trkpt lat="45.15705" lon="5.80263">
        <ele>796.8</ele>
        <time>2021-05-29T13:25:38Z</time>
      </trkpt>
      <trkpt lat="45.15704" lon="5.80264">
        <ele>797</ele>
        <time>2021-05-29T13:25:39Z</time>
      </trkpt>
      <trkpt lat="45.15704" lon="5.80265">
        <ele>797.2</ele>
        <time>2021-05-29T13:25:40Z</time>
      </trkpt>
      <trkpt lat="45.15703" lon="5.80265">
        <ele>797.6</ele>
        <time>2021-05-29T13:25:41Z</time>
      </trkpt>
      <trkpt lat="45.15702" lon="5.80266">
        <ele>797.8</ele>
        <time>2021-05-29T13:25:42Z</time>
      </trkpt>
      <trkpt lat="45.15701" lon="5.80266">
        <ele>798.2</ele>
        <time>2021-05-29T13:25:43Z</time>
      </trkpt>
      <trkpt lat="45.15701" lon="5.80267">
        <ele>798.4</ele>
        <time>2021-05-29T13:25:44Z</time>
      </trkpt>
      <trkpt lat="45.157" lon="5.80267">
        <ele>798.8</ele>
        <time>2021-05-29T13:25:45Z</time>
      </trkpt>
      <trkpt lat="45.15699" lon="5.80268">
        <ele>799</ele>
        <time>2021-05-29T13:25:46Z</time>
      </trkpt>
      <trkpt lat="45.15699" lon="5.80268">
        <ele>799</ele>
        <time>2021-05-29T13:25:47Z</time>
      </trkpt>
      <trkpt lat="45.15698" lon="5.80269">
        <ele>799.2</ele>
        <time>2021-05-29T13:25:48Z</time>
      </trkpt>
      <trkpt lat="45.15698" lon="5.8027">
        <ele>799.4</ele>
        <time>2021-05-29T13:25:49Z</time>
      </trkpt>
      <trkpt lat="45.15697" lon="5.8027">
        <ele>799.8</ele>
        <time>2021-05-29T13:25:50Z</time>
      </trkpt>
      <trkpt lat="45.15696" lon="5.80271">
        <ele>799.8</ele>
        <time>2021-05-29T13:25:51Z</time>
      </trkpt>
      <trkpt lat="45.15696" lon="5.80271">
        <ele>799.8</ele>
        <time>2021-05-29T13:25:52Z</time>
      </trkpt>
      <trkpt lat="45.15695" lon="5.80272">
        <ele>800.2</ele>
        <time>2021-05-29T13:25:53Z</time>
      </trkpt>
      <trkpt lat="45.15695" lon="5.80272">
        <ele>800.4</ele>
        <time>2021-05-29T13:25:54Z</time>
      </trkpt>
      <trkpt lat="45.15694" lon="5.80273">
        <ele>800.6</ele>
        <time>2021-05-29T13:25:55Z</time>
      </trkpt>
      <trkpt lat="45.15693" lon="5.80273">
        <ele>800.8</ele>
        <time>2021-05-29T13:25:56Z</time>
      </trkpt>
      <trkpt lat="45.15693" lon="5.80274">
        <ele>801</ele>
        <time>2021-05-29T13:25:57Z</time>
      </trkpt>
      <trkpt lat="45.15692" lon="5.80274">
        <ele>801.2</ele>
        <time>2021-05-29T13:25:58Z</time>
      </trkpt>
      <trkpt lat="45.15691" lon="5.80274">
        <ele>801.6</ele>
        <time>2021-05-29T13:25:59Z</time>
      </trkpt>
      <trkpt lat="45.1569" lon="5.80274">
        <ele>801.6</ele>
        <time>2021-05-29T13:26:00Z</time>
      </trkpt>
      <trkpt lat="45.15689" lon="5.80274">
        <ele>801.8</ele>
        <time>2021-05-29T13:26:01Z</time>
      </trkpt>
      <trkpt lat="45.15688" lon="5.80274">
        <ele>802</ele>
        <time>2021-05-29T13:26:02Z</time>
      </trkpt>
      <trkpt lat="45.15687" lon="5.80274">
        <ele>802.6</ele>
        <time>2021-05-29T13:26:03Z</time>
      </trkpt>
      <trkpt lat="45.15686" lon="5.80274">
        <ele>802.8</ele>
        <time>2021-05-29T13:26:04Z</time>
      </trkpt>
      <trkpt lat="45.15685" lon="5.80274">
        <ele>803</ele>
        <time>2021-05-29T13:26:05Z</time>
      </trkpt>
      <trkpt lat="45.15684" lon="5.80274">
        <ele>803.2</ele>
        <time>2021-05-29T13:26:06Z</time>
      </trkpt>
      <trkpt lat="45.15683" lon="5.80274">
        <ele>803.4</ele>
        <time>2021-05-29T13:26:07Z</time>
      </trkpt>
      <trkpt lat="45.15682" lon="5.80273">
        <ele>803.8</ele>
        <time>2021-05-29T13:26:08Z</time>
      </trkpt>
      <trkpt lat="45.15682" lon="5.80273">
        <ele>803.8</ele>
        <time>2021-05-29T13:26:09Z</time>
      </trkpt>
      <trkpt lat="45.15681" lon="5.80272">
        <ele>803.8</ele>
        <time>2021-05-29T13:26:10Z</time>
      </trkpt>
      <trkpt lat="45.1568" lon="5.80272">
        <ele>804</ele>
        <time>2021-05-29T13:26:11Z</time>
      </trkpt>
      <trkpt lat="45.15679" lon="5.80271">
        <ele>804.2</ele>
        <time>2021-05-29T13:26:12Z</time>
      </trkpt>
      <trkpt lat="45.15679" lon="5.80271">
        <ele>804.6</ele>
        <time>2021-05-29T13:26:13Z</time>
      </trkpt>
      <trkpt lat="45.15678" lon="5.8027">
        <ele>804.8</ele>
        <time>2021-05-29T13:26:14Z</time>
      </trkpt>
      <trkpt lat="45.15677" lon="5.8027">
        <ele>805</ele>
        <time>2021-05-29T13:26:15Z</time>
      </trkpt>
      <trkpt lat="45.15677" lon="5.80269">
        <ele>805.4</ele>
        <time>2021-05-29T13:26:16Z</time>
      </trkpt>
      <trkpt lat="45.15676" lon="5.80268">
        <ele>805.8</ele>
        <time>2021-05-29T13:26:17Z</time>
      </trkpt>
      <trkpt lat="45.15675" lon="5.80268">
        <ele>806</ele>
        <time>2021-05-29T13:26:18Z</time>
      </trkpt>
      <trkpt lat="45.15675" lon="5.80268">
        <ele>806.2</ele>
        <time>2021-05-29T13:26:19Z</time>
      </trkpt>
      <trkpt lat="45.15674" lon="5.80268">
        <ele>806.4</ele>
        <time>2021-05-29T13:26:20Z</time>
      </trkpt>
      <trkpt lat="45.15673" lon="5.80268">
        <ele>806.6</ele>
        <time>2021-05-29T13:26:21Z</time>
      </trkpt>
      <trkpt lat="45.15673" lon="5.80268">
        <ele>806.8</ele>
        <time>2021-05-29T13:26:22Z</time>
      </trkpt>
      <trkpt lat="45.15672" lon="5.80268">
        <ele>807</ele>
        <time>2021-05-29T13:26:23Z</time>
      </trkpt>
      <trkpt lat="45.15671" lon="5.80268">
        <ele>807.2</ele>
        <time>2021-05-29T13:26:24Z</time>
      </trkpt>
      <trkpt lat="45.15671" lon="5.80268">
        <ele>807.4</ele>
        <time>2021-05-29T13:26:25Z</time>
      </trkpt>
      <trkpt lat="45.1567" lon="5.80268">
        <ele>807.6</ele>
        <time>2021-05-29T13:26:26Z</time>
      </trkpt>
      <trkpt lat="45.15669" lon="5.80268">
        <ele>807.8</ele>
        <time>2021-05-29T13:26:27Z</time>
      </trkpt>
      <trkpt lat="45.15669" lon="5.80268">
        <ele>808</ele>
        <time>2021-05-29T13:26:28Z</time>
      </trkpt>
      <trkpt lat="45.15668" lon="5.80268">
        <ele>808</ele>
        <time>2021-05-29T13:26:29Z</time>
      </trkpt>
      <trkpt lat="45.15668" lon="5.80268">
        <ele>808.4</ele>
        <time>2021-05-29T13:26:30Z</time>
      </trkpt>
      <trkpt lat="45.15667" lon="5.80268">
        <ele>808.6</ele>
        <time>2021-05-29T13:26:31Z</time>
      </trkpt>
      <trkpt lat="45.15666" lon="5.80268">
        <ele>809</ele>
        <time>2021-05-29T13:26:32Z</time>
      </trkpt>
      <trkpt lat="45.15666" lon="5.80267">
        <ele>809.2</ele>
        <time>2021-05-29T13:26:33Z</time>
      </trkpt>
      <trkpt lat="45.15665" lon="5.80267">
        <ele>809.6</ele>
        <time>2021-05-29T13:26:34Z</time>
      </trkpt>
      <trkpt lat="45.15664" lon="5.80267">
        <ele>809.6</ele>
        <time>2021-05-29T13:26:35Z</time>
      </trkpt>
      <trkpt lat="45.15663" lon="5.80267">
        <ele>809.8</ele>
        <time>2021-05-29T13:26:36Z</time>
      </trkpt>
      <trkpt lat="45.15662" lon="5.80266">
        <ele>810</ele>
        <time>2021-05-29T13:26:37Z</time>
      </trkpt>
      <trkpt lat="45.15661" lon="5.80266">
        <ele>810.4</ele>
        <time>2021-05-29T13:26:38Z</time>
      </trkpt>
      <trkpt lat="45.1566" lon="5.80265">
        <ele>810.6</ele>
        <time>2021-05-29T13:26:39Z</time>
      </trkpt>
      <trkpt lat="45.15659" lon="5.80265">
        <ele>811</ele>
        <time>2021-05-29T13:26:40Z</time>
      </trkpt>
      <trkpt lat="45.15658" lon="5.80264">
        <ele>811.2</ele>
        <time>2021-05-29T13:26:41Z</time>
      </trkpt>
      <trkpt lat="45.15657" lon="5.80264">
        <ele>811.2</ele>
        <time>2021-05-29T13:26:42Z</time>
      </trkpt>
      <trkpt lat="45.15657" lon="5.80263">
        <ele>811.2</ele>
        <time>2021-05-29T13:26:43Z</time>
      </trkpt>
      <trkpt lat="45.15656" lon="5.80263">
        <ele>811.4</ele>
        <time>2021-05-29T13:26:44Z</time>
      </trkpt>
      <trkpt lat="45.15655" lon="5.80263">
        <ele>811.6</ele>
        <time>2021-05-29T13:26:45Z</time>
      </trkpt>
      <trkpt lat="45.15655" lon="5.80263">
        <ele>811.8</ele>
        <time>2021-05-29T13:26:46Z</time>
      </trkpt>
      <trkpt lat="45.15655" lon="5.80264">
        <ele>811.8</ele>
        <time>2021-05-29T13:26:47Z</time>
      </trkpt>
      <trkpt lat="45.15655" lon="5.80264">
        <ele>812</ele>
        <time>2021-05-29T13:26:48Z</time>
      </trkpt>
      <trkpt lat="45.15655" lon="5.80264">
        <ele>812.2</ele>
        <time>2021-05-29T13:26:49Z</time>
      </trkpt>
      <trkpt lat="45.15655" lon="5.80264">
        <ele>812.2</ele>
        <time>2021-05-29T13:26:50Z</time>
      </trkpt>
      <trkpt lat="45.15655" lon="5.80264">
        <ele>812.2</ele>
        <time>2021-05-29T13:26:51Z</time>
      </trkpt>
      <trkpt lat="45.15654" lon="5.80265">
        <ele>812.4</ele>
        <time>2021-05-29T13:26:52Z</time>
      </trkpt>
      <trkpt lat="45.15654" lon="5.80265">
        <ele>812.6</ele>
        <time>2021-05-29T13:26:53Z</time>
      </trkpt>
      <trkpt lat="45.15654" lon="5.80265">
        <ele>812.8</ele>
        <time>2021-05-29T13:26:54Z</time>
      </trkpt>
      <trkpt lat="45.15654" lon="5.80265">
        <ele>813</ele>
        <time>2021-05-29T13:26:55Z</time>
      </trkpt>
      <trkpt lat="45.15654" lon="5.80265">
        <ele>813.2</ele>
        <time>2021-05-29T13:26:56Z</time>
      </trkpt>
      <trkpt lat="45.15654" lon="5.80265">
        <ele>813.4</ele>
        <time>2021-05-29T13:26:57Z</time>
      </trkpt>
      <trkpt lat="45.15654" lon="5.80266">
        <ele>813.6</ele>
        <time>2021-05-29T13:26:58Z</time>
      </trkpt>
      <trkpt lat="45.15653" lon="5.80266">
        <ele>813.8</ele>
        <time>2021-05-29T13:26:59Z</time>
      </trkpt>
      <trkpt lat="45.15653" lon="5.80266">
        <ele>814.2</ele>
        <time>2021-05-29T13:27:00Z</time>
      </trkpt>
      <trkpt lat="45.15653" lon="5.80266">
        <ele>814.2</ele>
        <time>2021-05-29T13:27:01Z</time>
      </trkpt>
      <trkpt lat="45.15653" lon="5.80266">
        <ele>814.4</ele>
        <time>2021-05-29T13:27:02Z</time>
      </trkpt>
      <trkpt lat="45.15653" lon="5.80267">
        <ele>814.8</ele>
        <time>2021-05-29T13:27:03Z</time>
      </trkpt>
      <trkpt lat="45.15653" lon="5.80267">
        <ele>815.2</ele>
        <time>2021-05-29T13:27:04Z</time>
      </trkpt>
      <trkpt lat="45.15652" lon="5.80267">
        <ele>815.2</ele>
        <time>2021-05-29T13:27:05Z</time>
      </trkpt>
      <trkpt lat="45.15652" lon="5.80267">
        <ele>815.6</ele>
        <time>2021-05-29T13:27:06Z</time>
      </trkpt>
      <trkpt lat="45.15652" lon="5.80267">
        <ele>815.8</ele>
        <time>2021-05-29T13:27:07Z</time>
      </trkpt>
      <trkpt lat="45.15652" lon="5.80268">
        <ele>816.2</ele>
        <time>2021-05-29T13:27:08Z</time>
      </trkpt>
      <trkpt lat="45.15652" lon="5.80268">
        <ele>816.4</ele>
        <time>2021-05-29T13:27:09Z</time>
      </trkpt>
      <trkpt lat="45.15652" lon="5.80268">
        <ele>816.6</ele>
        <time>2021-05-29T13:27:10Z</time>
      </trkpt>
      <trkpt lat="45.15652" lon="5.80268">
        <ele>817</ele>
        <time>2021-05-29T13:27:11Z</time>
      </trkpt>
      <trkpt lat="45.15651" lon="5.80268">
        <ele>817.4</ele>
        <time>2021-05-29T13:27:12Z</time>
      </trkpt>
      <trkpt lat="45.15651" lon="5.80268">
        <ele>817.6</ele>
        <time>2021-05-29T13:27:13Z</time>
      </trkpt>
      <trkpt lat="45.15651" lon="5.80269">
        <ele>817.8</ele>
        <time>2021-05-29T13:27:14Z</time>
      </trkpt>
      <trkpt lat="45.15651" lon="5.80269">
        <ele>818</ele>
        <time>2021-05-29T13:27:15Z</time>
      </trkpt>
      <trkpt lat="45.15651" lon="5.80269">
        <ele>818.2</ele>
        <time>2021-05-29T13:27:16Z</time>
      </trkpt>
      <trkpt lat="45.15651" lon="5.80269">
        <ele>818.4</ele>
        <time>2021-05-29T13:27:17Z</time>
      </trkpt>
      <trkpt lat="45.15651" lon="5.80269">
        <ele>818.6</ele>
        <time>2021-05-29T13:27:18Z</time>
      </trkpt>
      <trkpt lat="45.1565" lon="5.8027">
        <ele>818.8</ele>
        <time>2021-05-29T13:27:19Z</time>
      </trkpt>
      <trkpt lat="45.1565" lon="5.8027">
        <ele>819</ele>
        <time>2021-05-29T13:27:20Z</time>
      </trkpt>
      <trkpt lat="45.1565" lon="5.8027">
        <ele>819.2</ele>
        <time>2021-05-29T13:27:21Z</time>
      </trkpt>
      <trkpt lat="45.1565" lon="5.8027">
        <ele>819.6</ele>
        <time>2021-05-29T13:27:22Z</time>
      </trkpt>
      <trkpt lat="45.1565" lon="5.8027">
        <ele>819.8</ele>
        <time>2021-05-29T13:27:23Z</time>
      </trkpt>
      <trkpt lat="45.1565" lon="5.80271">
        <ele>819.8</ele>
        <time>2021-05-29T13:27:24Z</time>
      </trkpt>
      <trkpt lat="45.1565" lon="5.80271">
        <ele>820</ele>
        <time>2021-05-29T13:27:25Z</time>
      </trkpt>
      <trkpt lat="45.15649" lon="5.80271">
        <ele>820.2</ele>
        <time>2021-05-29T13:27:26Z</time>
      </trkpt>
      <trkpt lat="45.15649" lon="5.80271">
        <ele>820.6</ele>
        <time>2021-05-29T13:27:27Z</time>
      </trkpt>
      <trkpt lat="45.15649" lon="5.80271">
        <ele>820.8</ele>
        <time>2021-05-29T13:27:28Z</time>
      </trkpt>
      <trkpt lat="45.15649" lon="5.80271">
        <ele>821.2</ele>
        <time>2021-05-29T13:27:29Z</time>
      </trkpt>
      <trkpt lat="45.15649" lon="5.80272">
        <ele>821.2</ele>
        <time>2021-05-29T13:27:30Z</time>
      </trkpt>
      <trkpt lat="45.15646" lon="5.80271">
        <ele>821.6</ele>
        <time>2021-05-29T13:27:31Z</time>
      </trkpt>
      <trkpt lat="45.15643" lon="5.80271">
        <ele>821.8</ele>
        <time>2021-05-29T13:27:32Z</time>
      </trkpt>
      <trkpt lat="45.1564" lon="5.80271">
        <ele>822</ele>
        <time>2021-05-29T13:27:33Z</time>
      </trkpt>
      <trkpt lat="45.15637" lon="5.80271">
        <ele>822.6</ele>
        <time>2021-05-29T13:27:34Z</time>
      </trkpt>
      <trkpt lat="45.15634" lon="5.80271">
        <ele>822.8</ele>
        <time>2021-05-29T13:27:35Z</time>
      </trkpt>
      <trkpt lat="45.15631" lon="5.80271">
        <ele>823</ele>
        <time>2021-05-29T13:27:36Z</time>
      </trkpt>
      <trkpt lat="45.15626" lon="5.8027">
        <ele>823.2</ele>
        <time>2021-05-29T13:27:37Z</time>
      </trkpt>
      <trkpt lat="45.15626" lon="5.8027">
        <ele>823.2</ele>
        <time>2021-05-29T13:27:38Z</time>
      </trkpt>
      <trkpt lat="45.15626" lon="5.8027">
        <ele>823.6</ele>
        <time>2021-05-29T13:27:39Z</time>
      </trkpt>
      <trkpt lat="45.15625" lon="5.80271">
        <ele>824</ele>
        <time>2021-05-29T13:27:40Z</time>
      </trkpt>
      <trkpt lat="45.15624" lon="5.80271">
        <ele>824.4</ele>
        <time>2021-05-29T13:27:41Z</time>
      </trkpt>
      <trkpt lat="45.15623" lon="5.80271">
        <ele>824.6</ele>
        <time>2021-05-29T13:27:42Z</time>
      </trkpt>
      <trkpt lat="45.15622" lon="5.80271">
        <ele>825</ele>
        <time>2021-05-29T13:27:43Z</time>
      </trkpt>
      <trkpt lat="45.15621" lon="5.80271">
        <ele>825.2</ele>
        <time>2021-05-29T13:27:44Z</time>
      </trkpt>
      <trkpt lat="45.1562" lon="5.80272">
        <ele>825.4</ele>
        <time>2021-05-29T13:27:45Z</time>
      </trkpt>
      <trkpt lat="45.15619" lon="5.80272">
        <ele>825.6</ele>
        <time>2021-05-29T13:27:46Z</time>
      </trkpt>
      <trkpt lat="45.15618" lon="5.80272">
        <ele>825.8</ele>
        <time>2021-05-29T13:27:47Z</time>
      </trkpt>
      <trkpt lat="45.15617" lon="5.80272">
        <ele>826.2</ele>
        <time>2021-05-29T13:27:48Z</time>
      </trkpt>
      <trkpt lat="45.15616" lon="5.80273">
        <ele>826.2</ele>
        <time>2021-05-29T13:27:49Z</time>
      </trkpt>
      <trkpt lat="45.15616" lon="5.80274">
        <ele>826.6</ele>
        <time>2021-05-29T13:27:50Z</time>
      </trkpt>
      <trkpt lat="45.15615" lon="5.80275">
        <ele>826.8</ele>
        <time>2021-05-29T13:27:51Z</time>
      </trkpt>
      <trkpt lat="45.15615" lon="5.80276">
        <ele>827</ele>
        <time>2021-05-29T13:27:52Z</time>
      </trkpt>
      <trkpt lat="45.15614" lon="5.80277">
        <ele>827.2</ele>
        <time>2021-05-29T13:27:53Z</time>
      </trkpt>
      <trkpt lat="45.15614" lon="5.80278">
        <ele>827.4</ele>
        <time>2021-05-29T13:27:54Z</time>
      </trkpt>
      <trkpt lat="45.15613" lon="5.80279">
        <ele>827.8</ele>
        <time>2021-05-29T13:27:55Z</time>
      </trkpt>
      <trkpt lat="45.15613" lon="5.8028">
        <ele>828</ele>
        <time>2021-05-29T13:27:56Z</time>
      </trkpt>
      <trkpt lat="45.15612" lon="5.80281">
        <ele>828.4</ele>
        <time>2021-05-29T13:27:57Z</time>
      </trkpt>
      <trkpt lat="45.15612" lon="5.80282">
        <ele>828.6</ele>
        <time>2021-05-29T13:27:58Z</time>
      </trkpt>
      <trkpt lat="45.15611" lon="5.80283">
        <ele>828.6</ele>
        <time>2021-05-29T13:27:59Z</time>
      </trkpt>
      <trkpt lat="45.15611" lon="5.80283">
        <ele>829</ele>
        <time>2021-05-29T13:28:00Z</time>
      </trkpt>
      <trkpt lat="45.1561" lon="5.80282">
        <ele>829.2</ele>
        <time>2021-05-29T13:28:01Z</time>
      </trkpt>
      <trkpt lat="45.15609" lon="5.80282">
        <ele>829.6</ele>
        <time>2021-05-29T13:28:02Z</time>
      </trkpt>
      <trkpt lat="45.15609" lon="5.80282">
        <ele>829.8</ele>
        <time>2021-05-29T13:28:03Z</time>
      </trkpt>
      <trkpt lat="45.15608" lon="5.80282">
        <ele>830</ele>
        <time>2021-05-29T13:28:04Z</time>
      </trkpt>
      <trkpt lat="45.15607" lon="5.80282">
        <ele>830.2</ele>
        <time>2021-05-29T13:28:05Z</time>
      </trkpt>
      <trkpt lat="45.15607" lon="5.80281">
        <ele>830.6</ele>
        <time>2021-05-29T13:28:06Z</time>
      </trkpt>
      <trkpt lat="45.15606" lon="5.80281">
        <ele>830.8</ele>
        <time>2021-05-29T13:28:07Z</time>
      </trkpt>
      <trkpt lat="45.15605" lon="5.80281">
        <ele>831</ele>
        <time>2021-05-29T13:28:08Z</time>
      </trkpt>
      <trkpt lat="45.15604" lon="5.80281">
        <ele>831</ele>
        <time>2021-05-29T13:28:09Z</time>
      </trkpt>
      <trkpt lat="45.15604" lon="5.8028">
        <ele>831.4</ele>
        <time>2021-05-29T13:28:10Z</time>
      </trkpt>
      <trkpt lat="45.15603" lon="5.8028">
        <ele>831.6</ele>
        <time>2021-05-29T13:28:11Z</time>
      </trkpt>
      <trkpt lat="45.15602" lon="5.8028">
        <ele>831.8</ele>
        <time>2021-05-29T13:28:12Z</time>
      </trkpt>
      <trkpt lat="45.15602" lon="5.8028">
        <ele>832</ele>
        <time>2021-05-29T13:28:13Z</time>
      </trkpt>
      <trkpt lat="45.15601" lon="5.8028">
        <ele>832.2</ele>
        <time>2021-05-29T13:28:14Z</time>
      </trkpt>
      <trkpt lat="45.15601" lon="5.8028">
        <ele>832.4</ele>
        <time>2021-05-29T13:28:15Z</time>
      </trkpt>
      <trkpt lat="45.15601" lon="5.8028">
        <ele>832.8</ele>
        <time>2021-05-29T13:28:16Z</time>
      </trkpt>
      <trkpt lat="45.15601" lon="5.80281">
        <ele>833</ele>
        <time>2021-05-29T13:28:17Z</time>
      </trkpt>
      <trkpt lat="45.156" lon="5.80281">
        <ele>833</ele>
        <time>2021-05-29T13:28:18Z</time>
      </trkpt>
      <trkpt lat="45.156" lon="5.80281">
        <ele>833.4</ele>
        <time>2021-05-29T13:28:19Z</time>
      </trkpt>
      <trkpt lat="45.156" lon="5.80281">
        <ele>833.6</ele>
        <time>2021-05-29T13:28:20Z</time>
      </trkpt>
      <trkpt lat="45.156" lon="5.80281">
        <ele>833.8</ele>
        <time>2021-05-29T13:28:21Z</time>
      </trkpt>
      <trkpt lat="45.156" lon="5.80282">
        <ele>834.2</ele>
        <time>2021-05-29T13:28:22Z</time>
      </trkpt>
      <trkpt lat="45.15599" lon="5.80282">
        <ele>834.6</ele>
        <time>2021-05-29T13:28:23Z</time>
      </trkpt>
      <trkpt lat="45.15599" lon="5.80282">
        <ele>834.8</ele>
        <time>2021-05-29T13:28:24Z</time>
      </trkpt>
      <trkpt lat="45.15599" lon="5.80282">
        <ele>835</ele>
        <time>2021-05-29T13:28:25Z</time>
      </trkpt>
      <trkpt lat="45.15599" lon="5.80283">
        <ele>835.2</ele>
        <time>2021-05-29T13:28:26Z</time>
      </trkpt>
      <trkpt lat="45.15598" lon="5.80283">
        <ele>835.6</ele>
        <time>2021-05-29T13:28:27Z</time>
      </trkpt>
      <trkpt lat="45.15598" lon="5.80283">
        <ele>835.8</ele>
        <time>2021-05-29T13:28:28Z</time>
      </trkpt>
      <trkpt lat="45.15598" lon="5.80283">
        <ele>836.2</ele>
        <time>2021-05-29T13:28:29Z</time>
      </trkpt>
      <trkpt lat="45.15598" lon="5.80283">
        <ele>836.2</ele>
        <time>2021-05-29T13:28:30Z</time>
      </trkpt>
      <trkpt lat="45.15598" lon="5.80284">
        <ele>836.4</ele>
        <time>2021-05-29T13:28:31Z</time>
      </trkpt>
      <trkpt lat="45.15597" lon="5.80284">
        <ele>836.6</ele>
        <time>2021-05-29T13:28:32Z</time>
      </trkpt>
      <trkpt lat="45.15597" lon="5.80284">
        <ele>836.8</ele>
        <time>2021-05-29T13:28:33Z</time>
      </trkpt>
      <trkpt lat="45.15597" lon="5.80284">
        <ele>837.2</ele>
        <time>2021-05-29T13:28:34Z</time>
      </trkpt>
      <trkpt lat="45.15597" lon="5.80285">
        <ele>837.4</ele>
        <time>2021-05-29T13:28:35Z</time>
      </trkpt>
      <trkpt lat="45.15596" lon="5.80285">
        <ele>837.8</ele>
        <time>2021-05-29T13:28:36Z</time>
      </trkpt>
      <trkpt lat="45.15596" lon="5.80285">
        <ele>838</ele>
        <time>2021-05-29T13:28:37Z</time>
      </trkpt>
      <trkpt lat="45.15596" lon="5.80285">
        <ele>838.2</ele>
        <time>2021-05-29T13:28:38Z</time>
      </trkpt>
      <trkpt lat="45.15596" lon="5.80285">
        <ele>838.6</ele>
        <time>2021-05-29T13:28:39Z</time>
      </trkpt>
      <trkpt lat="45.15596" lon="5.80286">
        <ele>838.6</ele>
        <time>2021-05-29T13:28:40Z</time>
      </trkpt>
      <trkpt lat="45.15595" lon="5.80286">
        <ele>838.8</ele>
        <time>2021-05-29T13:28:41Z</time>
      </trkpt>
      <trkpt lat="45.15595" lon="5.80286">
        <ele>839</ele>
        <time>2021-05-29T13:28:42Z</time>
      </trkpt>
      <trkpt lat="45.15595" lon="5.80286">
        <ele>839.4</ele>
        <time>2021-05-29T13:28:43Z</time>
      </trkpt>
      <trkpt lat="45.15595" lon="5.80287">
        <ele>839.4</ele>
        <time>2021-05-29T13:28:44Z</time>
      </trkpt>
      <trkpt lat="45.15594" lon="5.80287">
        <ele>839.6</ele>
        <time>2021-05-29T13:28:45Z</time>
      </trkpt>
      <trkpt lat="45.15594" lon="5.80287">
        <ele>840</ele>
        <time>2021-05-29T13:28:46Z</time>
      </trkpt>
      <trkpt lat="45.15594" lon="5.80287">
        <ele>840.2</ele>
        <time>2021-05-29T13:28:47Z</time>
      </trkpt>
      <trkpt lat="45.15593" lon="5.80288">
        <ele>840.4</ele>
        <time>2021-05-29T13:28:48Z</time>
      </trkpt>
      <trkpt lat="45.15593" lon="5.80288">
        <ele>840.6</ele>
        <time>2021-05-29T13:28:49Z</time>
      </trkpt>
      <trkpt lat="45.15592" lon="5.80288">
        <ele>841</ele>
        <time>2021-05-29T13:28:50Z</time>
      </trkpt>
      <trkpt lat="45.15591" lon="5.80288">
        <ele>841.4</ele>
        <time>2021-05-29T13:28:51Z</time>
      </trkpt>
      <trkpt lat="45.15591" lon="5.80289">
        <ele>841.4</ele>
        <time>2021-05-29T13:28:52Z</time>
      </trkpt>
      <trkpt lat="45.1559" lon="5.80289">
        <ele>841.6</ele>
        <time>2021-05-29T13:28:53Z</time>
      </trkpt>
      <trkpt lat="45.15589" lon="5.80289">
        <ele>842</ele>
        <time>2021-05-29T13:28:54Z</time>
      </trkpt>
      <trkpt lat="45.15589" lon="5.80289">
        <ele>842.4</ele>
        <time>2021-05-29T13:28:55Z</time>
      </trkpt>
      <trkpt lat="45.15588" lon="5.8029">
        <ele>842.6</ele>
        <time>2021-05-29T13:28:56Z</time>
      </trkpt>
      <trkpt lat="45.15587" lon="5.8029">
        <ele>842.8</ele>
        <time>2021-05-29T13:28:57Z</time>
      </trkpt>
      <trkpt lat="45.15587" lon="5.8029">
        <ele>843</ele>
        <time>2021-05-29T13:28:58Z</time>
      </trkpt>
      <trkpt lat="45.15586" lon="5.8029">
        <ele>843</ele>
        <time>2021-05-29T13:28:59Z</time>
      </trkpt>
      <trkpt lat="45.15586" lon="5.80291">
        <ele>843.2</ele>
        <time>2021-05-29T13:29:00Z</time>
      </trkpt>
      <trkpt lat="45.15585" lon="5.80291">
        <ele>843.6</ele>
        <time>2021-05-29T13:29:01Z</time>
      </trkpt>
      <trkpt lat="45.15584" lon="5.80291">
        <ele>843.8</ele>
        <time>2021-05-29T13:29:02Z</time>
      </trkpt>
      <trkpt lat="45.15583" lon="5.80292">
        <ele>844</ele>
        <time>2021-05-29T13:29:03Z</time>
      </trkpt>
      <trkpt lat="45.15582" lon="5.80292">
        <ele>844</ele>
        <time>2021-05-29T13:29:04Z</time>
      </trkpt>
      <trkpt lat="45.15581" lon="5.80293">
        <ele>844.2</ele>
        <time>2021-05-29T13:29:05Z</time>
      </trkpt>
      <trkpt lat="45.1558" lon="5.80294">
        <ele>844.6</ele>
        <time>2021-05-29T13:29:06Z</time>
      </trkpt>
      <trkpt lat="45.15579" lon="5.80294">
        <ele>845</ele>
        <time>2021-05-29T13:29:07Z</time>
      </trkpt>
      <trkpt lat="45.15578" lon="5.80295">
        <ele>845.2</ele>
        <time>2021-05-29T13:29:08Z</time>
      </trkpt>
      <trkpt lat="45.15577" lon="5.80295">
        <ele>845.4</ele>
        <time>2021-05-29T13:29:09Z</time>
      </trkpt>
      <trkpt lat="45.15576" lon="5.80296">
        <ele>845.4</ele>
        <time>2021-05-29T13:29:10Z</time>
      </trkpt>
      <trkpt lat="45.15573" lon="5.80298">
        <ele>845.6</ele>
        <time>2021-05-29T13:29:11Z</time>
      </trkpt>
      <trkpt lat="45.15573" lon="5.80298">
        <ele>846</ele>
        <time>2021-05-29T13:29:12Z</time>
      </trkpt>
      <trkpt lat="45.15573" lon="5.80298">
        <ele>846.2</ele>
        <time>2021-05-29T13:29:13Z</time>
      </trkpt>
      <trkpt lat="45.15573" lon="5.80298">
        <ele>846.4</ele>
        <time>2021-05-29T13:29:14Z</time>
      </trkpt>
      <trkpt lat="45.15572" lon="5.80298">
        <ele>846.8</ele>
        <time>2021-05-29T13:29:15Z</time>
      </trkpt>
      <trkpt lat="45.15572" lon="5.80299">
        <ele>847.2</ele>
        <time>2021-05-29T13:29:16Z</time>
      </trkpt>
      <trkpt lat="45.15571" lon="5.80299">
        <ele>847.4</ele>
        <time>2021-05-29T13:29:17Z</time>
      </trkpt>
      <trkpt lat="45.15571" lon="5.80299">
        <ele>847.6</ele>
        <time>2021-05-29T13:29:18Z</time>
      </trkpt>
      <trkpt lat="45.1557" lon="5.80299">
        <ele>847.8</ele>
        <time>2021-05-29T13:29:19Z</time>
      </trkpt>
      <trkpt lat="45.1557" lon="5.80299">
        <ele>848</ele>
        <time>2021-05-29T13:29:20Z</time>
      </trkpt>
      <trkpt lat="45.15569" lon="5.80299">
        <ele>848.2</ele>
        <time>2021-05-29T13:29:21Z</time>
      </trkpt>
      <trkpt lat="45.15569" lon="5.80299">
        <ele>848.4</ele>
        <time>2021-05-29T13:29:22Z</time>
      </trkpt>
      <trkpt lat="45.15568" lon="5.80299">
        <ele>848.8</ele>
        <time>2021-05-29T13:29:23Z</time>
      </trkpt>
      <trkpt lat="45.15568" lon="5.803">
        <ele>849</ele>
        <time>2021-05-29T13:29:24Z</time>
      </trkpt>
      <trkpt lat="45.15567" lon="5.80301">
        <ele>849.2</ele>
        <time>2021-05-29T13:29:25Z</time>
      </trkpt>
      <trkpt lat="45.15566" lon="5.80301">
        <ele>849.2</ele>
        <time>2021-05-29T13:29:26Z</time>
      </trkpt>
      <trkpt lat="45.15565" lon="5.80302">
        <ele>849.6</ele>
        <time>2021-05-29T13:29:27Z</time>
      </trkpt>
      <trkpt lat="45.15565" lon="5.80302">
        <ele>850</ele>
        <time>2021-05-29T13:29:28Z</time>
      </trkpt>
      <trkpt lat="45.15564" lon="5.80303">
        <ele>850</ele>
        <time>2021-05-29T13:29:29Z</time>
      </trkpt>
      <trkpt lat="45.15564" lon="5.80303">
        <ele>850.2</ele>
        <time>2021-05-29T13:29:30Z</time>
      </trkpt>
      <trkpt lat="45.15562" lon="5.80306">
        <ele>850.4</ele>
        <time>2021-05-29T13:29:31Z</time>
      </trkpt>
      <trkpt lat="45.15562" lon="5.80306">
        <ele>850.6</ele>
        <time>2021-05-29T13:29:32Z</time>
      </trkpt>
      <trkpt lat="45.15562" lon="5.80306">
        <ele>850.8</ele>
        <time>2021-05-29T13:29:33Z</time>
      </trkpt>
      <trkpt lat="45.15562" lon="5.80306">
        <ele>851</ele>
        <time>2021-05-29T13:29:34Z</time>
      </trkpt>
      <trkpt lat="45.1556" lon="5.80308">
        <ele>851</ele>
        <time>2021-05-29T13:29:35Z</time>
      </trkpt>
      <trkpt lat="45.1556" lon="5.80308">
        <ele>851.4</ele>
        <time>2021-05-29T13:29:36Z</time>
      </trkpt>
      <trkpt lat="45.1556" lon="5.80308">
        <ele>851.6</ele>
        <time>2021-05-29T13:29:37Z</time>
      </trkpt>
      <trkpt lat="45.1556" lon="5.80308">
        <ele>852</ele>
        <time>2021-05-29T13:29:38Z</time>
      </trkpt>
      <trkpt lat="45.1556" lon="5.80308">
        <ele>852</ele>
        <time>2021-05-29T13:29:39Z</time>
      </trkpt>
      <trkpt lat="45.1556" lon="5.80308">
        <ele>852.2</ele>
        <time>2021-05-29T13:29:40Z</time>
      </trkpt>
      <trkpt lat="45.1556" lon="5.80308">
        <ele>852.4</ele>
        <time>2021-05-29T13:29:41Z</time>
      </trkpt>
      <trkpt lat="45.1556" lon="5.80308">
        <ele>852.6</ele>
        <time>2021-05-29T13:29:42Z</time>
      </trkpt>
      <trkpt lat="45.1556" lon="5.80308">
        <ele>852.8</ele>
        <time>2021-05-29T13:29:43Z</time>
      </trkpt>
      <trkpt lat="45.15558" lon="5.80311">
        <ele>853.2</ele>
        <time>2021-05-29T13:29:44Z</time>
      </trkpt>
      <trkpt lat="45.15557" lon="5.80311">
        <ele>853.2</ele>
        <time>2021-05-29T13:29:45Z</time>
      </trkpt>
      <trkpt lat="45.15556" lon="5.80311">
        <ele>853.4</ele>
        <time>2021-05-29T13:29:46Z</time>
      </trkpt>
      <trkpt lat="45.15555" lon="5.80312">
        <ele>853.6</ele>
        <time>2021-05-29T13:29:47Z</time>
      </trkpt>
      <trkpt lat="45.15554" lon="5.80312">
        <ele>853.6</ele>
        <time>2021-05-29T13:29:48Z</time>
      </trkpt>
      <trkpt lat="45.15553" lon="5.80312">
        <ele>854</ele>
        <time>2021-05-29T13:29:49Z</time>
      </trkpt>
      <trkpt lat="45.15552" lon="5.80312">
        <ele>854.4</ele>
        <time>2021-05-29T13:29:50Z</time>
      </trkpt>
      <trkpt lat="45.15552" lon="5.80313">
        <ele>854.4</ele>
        <time>2021-05-29T13:29:51Z</time>
      </trkpt>
      <trkpt lat="45.15551" lon="5.80313">
        <ele>854.6</ele>
        <time>2021-05-29T13:29:52Z</time>
      </trkpt>
      <trkpt lat="45.1555" lon="5.80313">
        <ele>855</ele>
        <time>2021-05-29T13:29:53Z</time>
      </trkpt>
      <trkpt lat="45.15549" lon="5.80313">
        <ele>855</ele>
        <time>2021-05-29T13:29:54Z</time>
      </trkpt>
      <trkpt lat="45.15548" lon="5.80314">
        <ele>855.4</ele>
        <time>2021-05-29T13:29:55Z</time>
      </trkpt>
      <trkpt lat="45.15547" lon="5.80314">
        <ele>855.6</ele>
        <time>2021-05-29T13:29:56Z</time>
      </trkpt>
      <trkpt lat="45.15546" lon="5.80314">
        <ele>855.6</ele>
        <time>2021-05-29T13:29:57Z</time>
      </trkpt>
      <trkpt lat="45.1554" lon="5.80315">
        <ele>856</ele>
        <time>2021-05-29T13:29:58Z</time>
      </trkpt>
      <trkpt lat="45.1554" lon="5.80315">
        <ele>856.6</ele>
        <time>2021-05-29T13:30:00Z</time>
      </trkpt>
      <trkpt lat="45.15538" lon="5.80316">
        <ele>856.6</ele>
        <time>2021-05-29T13:30:01Z</time>
      </trkpt>
      <trkpt lat="45.15536" lon="5.80317">
        <ele>857</ele>
        <time>2021-05-29T13:30:02Z</time>
      </trkpt>
      <trkpt lat="45.15533" lon="5.80318">
        <ele>857.2</ele>
        <time>2021-05-29T13:30:03Z</time>
      </trkpt>
      <trkpt lat="45.15531" lon="5.80318">
        <ele>857.4</ele>
        <time>2021-05-29T13:30:04Z</time>
      </trkpt>
      <trkpt lat="45.15529" lon="5.80319">
        <ele>857.6</ele>
        <time>2021-05-29T13:30:05Z</time>
      </trkpt>
      <trkpt lat="45.15528" lon="5.80319">
        <ele>857.8</ele>
        <time>2021-05-29T13:30:06Z</time>
      </trkpt>
      <trkpt lat="45.15527" lon="5.80319">
        <ele>857.8</ele>
        <time>2021-05-29T13:30:07Z</time>
      </trkpt>
      <trkpt lat="45.15526" lon="5.8032">
        <ele>858.4</ele>
        <time>2021-05-29T13:30:08Z</time>
      </trkpt>
      <trkpt lat="45.15524" lon="5.8032">
        <ele>858.4</ele>
        <time>2021-05-29T13:30:09Z</time>
      </trkpt>
      <trkpt lat="45.15523" lon="5.8032">
        <ele>858.6</ele>
        <time>2021-05-29T13:30:10Z</time>
      </trkpt>
      <trkpt lat="45.15522" lon="5.80321">
        <ele>859</ele>
        <time>2021-05-29T13:30:11Z</time>
      </trkpt>
      <trkpt lat="45.15521" lon="5.80321">
        <ele>859.4</ele>
        <time>2021-05-29T13:30:12Z</time>
      </trkpt>
      <trkpt lat="45.1552" lon="5.80321">
        <ele>859.6</ele>
        <time>2021-05-29T13:30:13Z</time>
      </trkpt>
      <trkpt lat="45.15519" lon="5.80322">
        <ele>859.8</ele>
        <time>2021-05-29T13:30:14Z</time>
      </trkpt>
      <trkpt lat="45.15518" lon="5.80322">
        <ele>860</ele>
        <time>2021-05-29T13:30:15Z</time>
      </trkpt>
      <trkpt lat="45.15517" lon="5.80323">
        <ele>860.4</ele>
        <time>2021-05-29T13:30:16Z</time>
      </trkpt>
      <trkpt lat="45.15516" lon="5.80323">
        <ele>860.6</ele>
        <time>2021-05-29T13:30:17Z</time>
      </trkpt>
      <trkpt lat="45.15515" lon="5.80323">
        <ele>860.6</ele>
        <time>2021-05-29T13:30:18Z</time>
      </trkpt>
      <trkpt lat="45.15515" lon="5.80324">
        <ele>860.8</ele>
        <time>2021-05-29T13:30:19Z</time>
      </trkpt>
      <trkpt lat="45.15514" lon="5.80324">
        <ele>861</ele>
        <time>2021-05-29T13:30:20Z</time>
      </trkpt>
      <trkpt lat="45.15513" lon="5.80324">
        <ele>861.4</ele>
        <time>2021-05-29T13:30:21Z</time>
      </trkpt>
      <trkpt lat="45.15512" lon="5.80325">
        <ele>861.6</ele>
        <time>2021-05-29T13:30:22Z</time>
      </trkpt>
      <trkpt lat="45.15511" lon="5.80325">
        <ele>861.8</ele>
        <time>2021-05-29T13:30:23Z</time>
      </trkpt>
      <trkpt lat="45.1551" lon="5.80325">
        <ele>862</ele>
        <time>2021-05-29T13:30:24Z</time>
      </trkpt>
      <trkpt lat="45.1551" lon="5.80326">
        <ele>862.4</ele>
        <time>2021-05-29T13:30:25Z</time>
      </trkpt>
      <trkpt lat="45.15509" lon="5.80326">
        <ele>862.6</ele>
        <time>2021-05-29T13:30:26Z</time>
      </trkpt>
      <trkpt lat="45.15508" lon="5.80326">
        <ele>862.6</ele>
        <time>2021-05-29T13:30:27Z</time>
      </trkpt>
      <trkpt lat="45.15507" lon="5.80326">
        <ele>863</ele>
        <time>2021-05-29T13:30:28Z</time>
      </trkpt>
      <trkpt lat="45.15507" lon="5.80326">
        <ele>863.2</ele>
        <time>2021-05-29T13:30:29Z</time>
      </trkpt>
      <trkpt lat="45.15506" lon="5.80327">
        <ele>863.4</ele>
        <time>2021-05-29T13:30:30Z</time>
      </trkpt>
      <trkpt lat="45.15505" lon="5.80327">
        <ele>863.6</ele>
        <time>2021-05-29T13:30:31Z</time>
      </trkpt>
      <trkpt lat="45.15504" lon="5.80327">
        <ele>863.8</ele>
        <time>2021-05-29T13:30:32Z</time>
      </trkpt>
      <trkpt lat="45.15504" lon="5.80327">
        <ele>864</ele>
        <time>2021-05-29T13:30:33Z</time>
      </trkpt>
      <trkpt lat="45.15503" lon="5.80328">
        <ele>864.4</ele>
        <time>2021-05-29T13:30:34Z</time>
      </trkpt>
      <trkpt lat="45.15502" lon="5.80328">
        <ele>864.6</ele>
        <time>2021-05-29T13:30:35Z</time>
      </trkpt>
      <trkpt lat="45.15502" lon="5.80329">
        <ele>864.8</ele>
        <time>2021-05-29T13:30:36Z</time>
      </trkpt>
      <trkpt lat="45.15501" lon="5.8033">
        <ele>865.2</ele>
        <time>2021-05-29T13:30:37Z</time>
      </trkpt>
      <trkpt lat="45.15501" lon="5.80331">
        <ele>865.4</ele>
        <time>2021-05-29T13:30:38Z</time>
      </trkpt>
      <trkpt lat="45.155" lon="5.80332">
        <ele>865.6</ele>
        <time>2021-05-29T13:30:39Z</time>
      </trkpt>
      <trkpt lat="45.155" lon="5.80333">
        <ele>865.8</ele>
        <time>2021-05-29T13:30:40Z</time>
      </trkpt>
      <trkpt lat="45.15499" lon="5.80333">
        <ele>866.2</ele>
        <time>2021-05-29T13:30:41Z</time>
      </trkpt>
      <trkpt lat="45.15499" lon="5.80334">
        <ele>866.2</ele>
        <time>2021-05-29T13:30:42Z</time>
      </trkpt>
      <trkpt lat="45.15498" lon="5.80335">
        <ele>866.4</ele>
        <time>2021-05-29T13:30:43Z</time>
      </trkpt>
      <trkpt lat="45.15498" lon="5.80336">
        <ele>866.6</ele>
        <time>2021-05-29T13:30:44Z</time>
      </trkpt>
      <trkpt lat="45.15497" lon="5.80337">
        <ele>866.6</ele>
        <time>2021-05-29T13:30:45Z</time>
      </trkpt>
      <trkpt lat="45.15497" lon="5.80337">
        <ele>866.8</ele>
        <time>2021-05-29T13:30:46Z</time>
      </trkpt>
      <trkpt lat="45.15496" lon="5.80338">
        <ele>867</ele>
        <time>2021-05-29T13:30:47Z</time>
      </trkpt>
      <trkpt lat="45.15496" lon="5.80338">
        <ele>867</ele>
        <time>2021-05-29T13:30:48Z</time>
      </trkpt>
      <trkpt lat="45.15496" lon="5.80338">
        <ele>867.2</ele>
        <time>2021-05-29T13:30:49Z</time>
      </trkpt>
      <trkpt lat="45.15496" lon="5.80339">
        <ele>867.6</ele>
        <time>2021-05-29T13:30:50Z</time>
      </trkpt>
      <trkpt lat="45.15495" lon="5.80339">
        <ele>867.8</ele>
        <time>2021-05-29T13:30:51Z</time>
      </trkpt>
      <trkpt lat="45.15495" lon="5.80339">
        <ele>868</ele>
        <time>2021-05-29T13:30:52Z</time>
      </trkpt>
      <trkpt lat="45.15495" lon="5.8034">
        <ele>868.2</ele>
        <time>2021-05-29T13:30:53Z</time>
      </trkpt>
      <trkpt lat="45.15494" lon="5.8034">
        <ele>868.6</ele>
        <time>2021-05-29T13:30:54Z</time>
      </trkpt>
      <trkpt lat="45.15494" lon="5.8034">
        <ele>868.6</ele>
        <time>2021-05-29T13:30:55Z</time>
      </trkpt>
      <trkpt lat="45.15494" lon="5.80341">
        <ele>869</ele>
        <time>2021-05-29T13:30:56Z</time>
      </trkpt>
      <trkpt lat="45.15493" lon="5.80341">
        <ele>869.4</ele>
        <time>2021-05-29T13:30:57Z</time>
      </trkpt>
      <trkpt lat="45.15493" lon="5.80342">
        <ele>869.6</ele>
        <time>2021-05-29T13:30:58Z</time>
      </trkpt>
      <trkpt lat="45.15493" lon="5.80342">
        <ele>869.8</ele>
        <time>2021-05-29T13:30:59Z</time>
      </trkpt>
      <trkpt lat="45.15492" lon="5.80342">
        <ele>870</ele>
        <time>2021-05-29T13:31:00Z</time>
      </trkpt>
      <trkpt lat="45.15492" lon="5.80343">
        <ele>870.2</ele>
        <time>2021-05-29T13:31:01Z</time>
      </trkpt>
      <trkpt lat="45.15492" lon="5.80343">
        <ele>870.8</ele>
        <time>2021-05-29T13:31:02Z</time>
      </trkpt>
      <trkpt lat="45.15492" lon="5.80343">
        <ele>870.8</ele>
        <time>2021-05-29T13:31:03Z</time>
      </trkpt>
      <trkpt lat="45.15491" lon="5.80344">
        <ele>871.2</ele>
        <time>2021-05-29T13:31:04Z</time>
      </trkpt>
      <trkpt lat="45.15491" lon="5.80344">
        <ele>871.4</ele>
        <time>2021-05-29T13:31:05Z</time>
      </trkpt>
      <trkpt lat="45.15491" lon="5.80344">
        <ele>871.8</ele>
        <time>2021-05-29T13:31:06Z</time>
      </trkpt>
      <trkpt lat="45.1549" lon="5.80345">
        <ele>872</ele>
        <time>2021-05-29T13:31:07Z</time>
      </trkpt>
      <trkpt lat="45.1549" lon="5.80345">
        <ele>872.2</ele>
        <time>2021-05-29T13:31:08Z</time>
      </trkpt>
      <trkpt lat="45.1549" lon="5.80345">
        <ele>872.6</ele>
        <time>2021-05-29T13:31:09Z</time>
      </trkpt>
      <trkpt lat="45.15489" lon="5.80346">
        <ele>873</ele>
        <time>2021-05-29T13:31:10Z</time>
      </trkpt>
      <trkpt lat="45.15489" lon="5.80346">
        <ele>873.2</ele>
        <time>2021-05-29T13:31:11Z</time>
      </trkpt>
      <trkpt lat="45.15488" lon="5.80346">
        <ele>873.2</ele>
        <time>2021-05-29T13:31:12Z</time>
      </trkpt>
      <trkpt lat="45.15487" lon="5.80346">
        <ele>873.4</ele>
        <time>2021-05-29T13:31:13Z</time>
      </trkpt>
      <trkpt lat="45.15487" lon="5.80347">
        <ele>873.6</ele>
        <time>2021-05-29T13:31:14Z</time>
      </trkpt>
      <trkpt lat="45.15486" lon="5.80347">
        <ele>874</ele>
        <time>2021-05-29T13:31:15Z</time>
      </trkpt>
      <trkpt lat="45.15485" lon="5.80347">
        <ele>874</ele>
        <time>2021-05-29T13:31:16Z</time>
      </trkpt>
      <trkpt lat="45.15485" lon="5.80347">
        <ele>874.2</ele>
        <time>2021-05-29T13:31:17Z</time>
      </trkpt>
      <trkpt lat="45.15484" lon="5.80348">
        <ele>874.4</ele>
        <time>2021-05-29T13:31:18Z</time>
      </trkpt>
      <trkpt lat="45.15483" lon="5.80348">
        <ele>874.6</ele>
        <time>2021-05-29T13:31:19Z</time>
      </trkpt>
      <trkpt lat="45.15483" lon="5.80348">
        <ele>874.8</ele>
        <time>2021-05-29T13:31:20Z</time>
      </trkpt>
      <trkpt lat="45.15482" lon="5.80348">
        <ele>875</ele>
        <time>2021-05-29T13:31:21Z</time>
      </trkpt>
      <trkpt lat="45.15481" lon="5.80349">
        <ele>875.2</ele>
        <time>2021-05-29T13:31:22Z</time>
      </trkpt>
      <trkpt lat="45.15481" lon="5.80349">
        <ele>875.8</ele>
        <time>2021-05-29T13:31:23Z</time>
      </trkpt>
      <trkpt lat="45.1548" lon="5.80349">
        <ele>875.8</ele>
        <time>2021-05-29T13:31:24Z</time>
      </trkpt>
      <trkpt lat="45.15479" lon="5.8035">
        <ele>876</ele>
        <time>2021-05-29T13:31:25Z</time>
      </trkpt>
      <trkpt lat="45.15477" lon="5.8035">
        <ele>876.2</ele>
        <time>2021-05-29T13:31:26Z</time>
      </trkpt>
      <trkpt lat="45.15476" lon="5.8035">
        <ele>876.2</ele>
        <time>2021-05-29T13:31:27Z</time>
      </trkpt>
      <trkpt lat="45.15475" lon="5.80351">
        <ele>876.4</ele>
        <time>2021-05-29T13:31:28Z</time>
      </trkpt>
      <trkpt lat="45.15474" lon="5.80351">
        <ele>876.6</ele>
        <time>2021-05-29T13:31:29Z</time>
      </trkpt>
      <trkpt lat="45.15472" lon="5.80351">
        <ele>877</ele>
        <time>2021-05-29T13:31:30Z</time>
      </trkpt>
      <trkpt lat="45.15472" lon="5.80352">
        <ele>877.4</ele>
        <time>2021-05-29T13:31:31Z</time>
      </trkpt>
      <trkpt lat="45.15471" lon="5.80352">
        <ele>877.8</ele>
        <time>2021-05-29T13:31:32Z</time>
      </trkpt>
      <trkpt lat="45.1547" lon="5.80353">
        <ele>877.8</ele>
        <time>2021-05-29T13:31:33Z</time>
      </trkpt>
      <trkpt lat="45.15469" lon="5.80353">
        <ele>878.2</ele>
        <time>2021-05-29T13:31:34Z</time>
      </trkpt>
      <trkpt lat="45.15468" lon="5.80354">
        <ele>878.4</ele>
        <time>2021-05-29T13:31:35Z</time>
      </trkpt>
      <trkpt lat="45.15467" lon="5.80354">
        <ele>878.8</ele>
        <time>2021-05-29T13:31:36Z</time>
      </trkpt>
      <trkpt lat="45.15466" lon="5.80354">
        <ele>879</ele>
        <time>2021-05-29T13:31:37Z</time>
      </trkpt>
      <trkpt lat="45.15465" lon="5.80354">
        <ele>879.4</ele>
        <time>2021-05-29T13:31:38Z</time>
      </trkpt>
      <trkpt lat="45.15465" lon="5.80355">
        <ele>879.6</ele>
        <time>2021-05-29T13:31:39Z</time>
      </trkpt>
      <trkpt lat="45.15464" lon="5.80355">
        <ele>879.8</ele>
        <time>2021-05-29T13:31:40Z</time>
      </trkpt>
      <trkpt lat="45.15463" lon="5.80355">
        <ele>879.8</ele>
        <time>2021-05-29T13:31:41Z</time>
      </trkpt>
      <trkpt lat="45.15462" lon="5.80355">
        <ele>880.2</ele>
        <time>2021-05-29T13:31:42Z</time>
      </trkpt>
      <trkpt lat="45.1546" lon="5.80356">
        <ele>880.6</ele>
        <time>2021-05-29T13:31:43Z</time>
      </trkpt>
      <trkpt lat="45.15459" lon="5.80357">
        <ele>880.8</ele>
        <time>2021-05-29T13:31:44Z</time>
      </trkpt>
      <trkpt lat="45.15458" lon="5.80357">
        <ele>881</ele>
        <time>2021-05-29T13:31:45Z</time>
      </trkpt>
      <trkpt lat="45.15458" lon="5.80358">
        <ele>881.2</ele>
        <time>2021-05-29T13:31:46Z</time>
      </trkpt>
      <trkpt lat="45.15457" lon="5.80358">
        <ele>881.4</ele>
        <time>2021-05-29T13:31:47Z</time>
      </trkpt>
      <trkpt lat="45.15456" lon="5.80359">
        <ele>881.8</ele>
        <time>2021-05-29T13:31:48Z</time>
      </trkpt>
      <trkpt lat="45.15455" lon="5.8036">
        <ele>882</ele>
        <time>2021-05-29T13:31:49Z</time>
      </trkpt>
      <trkpt lat="45.15454" lon="5.80361">
        <ele>882.4</ele>
        <time>2021-05-29T13:31:50Z</time>
      </trkpt>
      <trkpt lat="45.15453" lon="5.80362">
        <ele>882.6</ele>
        <time>2021-05-29T13:31:51Z</time>
      </trkpt>
      <trkpt lat="45.15453" lon="5.80362">
        <ele>882.8</ele>
        <time>2021-05-29T13:31:52Z</time>
      </trkpt>
      <trkpt lat="45.15453" lon="5.80362">
        <ele>882.8</ele>
        <time>2021-05-29T13:31:53Z</time>
      </trkpt>
      <trkpt lat="45.15452" lon="5.80362">
        <ele>883</ele>
        <time>2021-05-29T13:31:54Z</time>
      </trkpt>
      <trkpt lat="45.15452" lon="5.80363">
        <ele>883.6</ele>
        <time>2021-05-29T13:31:55Z</time>
      </trkpt>
      <trkpt lat="45.15452" lon="5.80363">
        <ele>883.8</ele>
        <time>2021-05-29T13:31:56Z</time>
      </trkpt>
      <trkpt lat="45.15451" lon="5.80364">
        <ele>884</ele>
        <time>2021-05-29T13:31:57Z</time>
      </trkpt>
      <trkpt lat="45.15451" lon="5.80364">
        <ele>884.2</ele>
        <time>2021-05-29T13:31:58Z</time>
      </trkpt>
      <trkpt lat="45.15451" lon="5.80365">
        <ele>884.4</ele>
        <time>2021-05-29T13:31:59Z</time>
      </trkpt>
      <trkpt lat="45.1545" lon="5.80365">
        <ele>884.6</ele>
        <time>2021-05-29T13:32:00Z</time>
      </trkpt>
      <trkpt lat="45.1545" lon="5.80366">
        <ele>884.8</ele>
        <time>2021-05-29T13:32:01Z</time>
      </trkpt>
      <trkpt lat="45.1545" lon="5.80366">
        <ele>885.2</ele>
        <time>2021-05-29T13:32:02Z</time>
      </trkpt>
      <trkpt lat="45.15449" lon="5.80367">
        <ele>885.4</ele>
        <time>2021-05-29T13:32:03Z</time>
      </trkpt>
      <trkpt lat="45.15449" lon="5.80367">
        <ele>885.6</ele>
        <time>2021-05-29T13:32:04Z</time>
      </trkpt>
      <trkpt lat="45.15448" lon="5.80368">
        <ele>885.6</ele>
        <time>2021-05-29T13:32:05Z</time>
      </trkpt>
      <trkpt lat="45.15448" lon="5.80368">
        <ele>885.8</ele>
        <time>2021-05-29T13:32:06Z</time>
      </trkpt>
      <trkpt lat="45.15447" lon="5.80369">
        <ele>886.4</ele>
        <time>2021-05-29T13:32:07Z</time>
      </trkpt>
      <trkpt lat="45.15446" lon="5.8037">
        <ele>886.8</ele>
        <time>2021-05-29T13:32:08Z</time>
      </trkpt>
      <trkpt lat="45.15446" lon="5.8037">
        <ele>886.8</ele>
        <time>2021-05-29T13:32:09Z</time>
      </trkpt>
      <trkpt lat="45.15445" lon="5.80371">
        <ele>887</ele>
        <time>2021-05-29T13:32:10Z</time>
      </trkpt>
      <trkpt lat="45.15444" lon="5.80372">
        <ele>887.2</ele>
        <time>2021-05-29T13:32:11Z</time>
      </trkpt>
      <trkpt lat="45.15444" lon="5.80372">
        <ele>887.8</ele>
        <time>2021-05-29T13:32:12Z</time>
      </trkpt>
      <trkpt lat="45.15443" lon="5.80375">
        <ele>888</ele>
        <time>2021-05-29T13:32:13Z</time>
      </trkpt>
      <trkpt lat="45.15443" lon="5.80375">
        <ele>888</ele>
        <time>2021-05-29T13:32:14Z</time>
      </trkpt>
      <trkpt lat="45.15443" lon="5.80375">
        <ele>888.4</ele>
        <time>2021-05-29T13:32:15Z</time>
      </trkpt>
      <trkpt lat="45.15442" lon="5.80376">
        <ele>888.4</ele>
        <time>2021-05-29T13:32:16Z</time>
      </trkpt>
      <trkpt lat="45.15441" lon="5.80377">
        <ele>888.8</ele>
        <time>2021-05-29T13:32:17Z</time>
      </trkpt>
      <trkpt lat="45.15441" lon="5.80378">
        <ele>889</ele>
        <time>2021-05-29T13:32:18Z</time>
      </trkpt>
      <trkpt lat="45.1544" lon="5.80379">
        <ele>889.2</ele>
        <time>2021-05-29T13:32:19Z</time>
      </trkpt>
      <trkpt lat="45.15439" lon="5.80381">
        <ele>889.4</ele>
        <time>2021-05-29T13:32:20Z</time>
      </trkpt>
      <trkpt lat="45.15439" lon="5.80382">
        <ele>889.6</ele>
        <time>2021-05-29T13:32:21Z</time>
      </trkpt>
      <trkpt lat="45.15438" lon="5.80383">
        <ele>889.6</ele>
        <time>2021-05-29T13:32:22Z</time>
      </trkpt>
      <trkpt lat="45.15437" lon="5.80384">
        <ele>889.8</ele>
        <time>2021-05-29T13:32:23Z</time>
      </trkpt>
      <trkpt lat="45.15437" lon="5.80385">
        <ele>890</ele>
        <time>2021-05-29T13:32:24Z</time>
      </trkpt>
      <trkpt lat="45.15437" lon="5.80385">
        <ele>890.2</ele>
        <time>2021-05-29T13:32:25Z</time>
      </trkpt>
      <trkpt lat="45.15437" lon="5.80385">
        <ele>890.4</ele>
        <time>2021-05-29T13:32:26Z</time>
      </trkpt>
      <trkpt lat="45.15436" lon="5.80385">
        <ele>890.4</ele>
        <time>2021-05-29T13:32:27Z</time>
      </trkpt>
      <trkpt lat="45.15435" lon="5.80385">
        <ele>890.4</ele>
        <time>2021-05-29T13:32:28Z</time>
      </trkpt>
      <trkpt lat="45.15435" lon="5.80386">
        <ele>890.4</ele>
        <time>2021-05-29T13:32:29Z</time>
      </trkpt>
      <trkpt lat="45.15434" lon="5.80386">
        <ele>890.8</ele>
        <time>2021-05-29T13:32:30Z</time>
      </trkpt>
      <trkpt lat="45.15433" lon="5.80386">
        <ele>891</ele>
        <time>2021-05-29T13:32:31Z</time>
      </trkpt>
      <trkpt lat="45.15432" lon="5.80386">
        <ele>891.2</ele>
        <time>2021-05-29T13:32:32Z</time>
      </trkpt>
      <trkpt lat="45.1543" lon="5.80386">
        <ele>891.6</ele>
        <time>2021-05-29T13:32:33Z</time>
      </trkpt>
      <trkpt lat="45.1543" lon="5.80386">
        <ele>891.6</ele>
        <time>2021-05-29T13:32:34Z</time>
      </trkpt>
      <trkpt lat="45.1543" lon="5.80386">
        <ele>892</ele>
        <time>2021-05-29T13:32:35Z</time>
      </trkpt>
      <trkpt lat="45.15428" lon="5.80385">
        <ele>892.2</ele>
        <time>2021-05-29T13:32:36Z</time>
      </trkpt>
      <trkpt lat="45.15426" lon="5.80385">
        <ele>892.2</ele>
        <time>2021-05-29T13:32:37Z</time>
      </trkpt>
      <trkpt lat="45.15423" lon="5.80385">
        <ele>892.4</ele>
        <time>2021-05-29T13:32:38Z</time>
      </trkpt>
      <trkpt lat="45.15421" lon="5.80384">
        <ele>892.6</ele>
        <time>2021-05-29T13:32:39Z</time>
      </trkpt>
      <trkpt lat="45.15419" lon="5.80384">
        <ele>892.6</ele>
        <time>2021-05-29T13:32:40Z</time>
      </trkpt>
      <trkpt lat="45.15416" lon="5.80383">
        <ele>892.6</ele>
        <time>2021-05-29T13:32:41Z</time>
      </trkpt>
      <trkpt lat="45.15415" lon="5.80382">
        <ele>892.8</ele>
        <time>2021-05-29T13:32:42Z</time>
      </trkpt>
      <trkpt lat="45.15413" lon="5.80381">
        <ele>893.2</ele>
        <time>2021-05-29T13:32:43Z</time>
      </trkpt>
      <trkpt lat="45.15412" lon="5.8038">
        <ele>893.2</ele>
        <time>2021-05-29T13:32:44Z</time>
      </trkpt>
      <trkpt lat="45.1541" lon="5.80379">
        <ele>893.6</ele>
        <time>2021-05-29T13:32:45Z</time>
      </trkpt>
      <trkpt lat="45.15409" lon="5.80379">
        <ele>894</ele>
        <time>2021-05-29T13:32:46Z</time>
      </trkpt>
      <trkpt lat="45.15409" lon="5.80379">
        <ele>894.2</ele>
        <time>2021-05-29T13:32:47Z</time>
      </trkpt>
      <trkpt lat="45.15406" lon="5.80378">
        <ele>894.2</ele>
        <time>2021-05-29T13:32:48Z</time>
      </trkpt>
      <trkpt lat="45.15403" lon="5.80377">
        <ele>894.4</ele>
        <time>2021-05-29T13:32:49Z</time>
      </trkpt>
      <trkpt lat="45.15403" lon="5.80377">
        <ele>894.4</ele>
        <time>2021-05-29T13:32:50Z</time>
      </trkpt>
      <trkpt lat="45.15403" lon="5.80377">
        <ele>894.6</ele>
        <time>2021-05-29T13:32:51Z</time>
      </trkpt>
      <trkpt lat="45.15403" lon="5.80377">
        <ele>894.6</ele>
        <time>2021-05-29T13:32:52Z</time>
      </trkpt>
      <trkpt lat="45.154" lon="5.80376">
        <ele>894.8</ele>
        <time>2021-05-29T13:32:53Z</time>
      </trkpt>
      <trkpt lat="45.154" lon="5.80376">
        <ele>895</ele>
        <time>2021-05-29T13:32:54Z</time>
      </trkpt>
      <trkpt lat="45.154" lon="5.80376">
        <ele>895.2</ele>
        <time>2021-05-29T13:32:55Z</time>
      </trkpt>
      <trkpt lat="45.15397" lon="5.80373">
        <ele>895.2</ele>
        <time>2021-05-29T13:32:56Z</time>
      </trkpt>
      <trkpt lat="45.15397" lon="5.80373">
        <ele>895.4</ele>
        <time>2021-05-29T13:32:57Z</time>
      </trkpt>
      <trkpt lat="45.15397" lon="5.80373">
        <ele>896</ele>
        <time>2021-05-29T13:32:58Z</time>
      </trkpt>
      <trkpt lat="45.15397" lon="5.80373">
        <ele>896</ele>
        <time>2021-05-29T13:32:59Z</time>
      </trkpt>
      <trkpt lat="45.15394" lon="5.80372">
        <ele>896</ele>
        <time>2021-05-29T13:33:00Z</time>
      </trkpt>
      <trkpt lat="45.15394" lon="5.80372">
        <ele>896.2</ele>
        <time>2021-05-29T13:33:01Z</time>
      </trkpt>
      <trkpt lat="45.15394" lon="5.80372">
        <ele>896.2</ele>
        <time>2021-05-29T13:33:02Z</time>
      </trkpt>
      <trkpt lat="45.15391" lon="5.80371">
        <ele>896.6</ele>
        <time>2021-05-29T13:33:03Z</time>
      </trkpt>
      <trkpt lat="45.15391" lon="5.80371">
        <ele>896.6</ele>
        <time>2021-05-29T13:33:04Z</time>
      </trkpt>
      <trkpt lat="45.15389" lon="5.8037">
        <ele>896.8</ele>
        <time>2021-05-29T13:33:05Z</time>
      </trkpt>
      <trkpt lat="45.15389" lon="5.8037">
        <ele>897.2</ele>
        <time>2021-05-29T13:33:06Z</time>
      </trkpt>
      <trkpt lat="45.15386" lon="5.80369">
        <ele>897.2</ele>
        <time>2021-05-29T13:33:07Z</time>
      </trkpt>
      <trkpt lat="45.15386" lon="5.80369">
        <ele>897.2</ele>
        <time>2021-05-29T13:33:08Z</time>
      </trkpt>
      <trkpt lat="45.15386" lon="5.80369">
        <ele>897.6</ele>
        <time>2021-05-29T13:33:09Z</time>
      </trkpt>
      <trkpt lat="45.15384" lon="5.8037">
        <ele>897.8</ele>
        <time>2021-05-29T13:33:10Z</time>
      </trkpt>
      <trkpt lat="45.15384" lon="5.8037">
        <ele>898.4</ele>
        <time>2021-05-29T13:33:11Z</time>
      </trkpt>
      <trkpt lat="45.15384" lon="5.8037">
        <ele>898.4</ele>
        <time>2021-05-29T13:33:12Z</time>
      </trkpt>
      <trkpt lat="45.15384" lon="5.8037">
        <ele>898.6</ele>
        <time>2021-05-29T13:33:13Z</time>
      </trkpt>
      <trkpt lat="45.15384" lon="5.8037">
        <ele>898.6</ele>
        <time>2021-05-29T13:33:14Z</time>
      </trkpt>
      <trkpt lat="45.15382" lon="5.8037">
        <ele>898.6</ele>
        <time>2021-05-29T13:33:15Z</time>
      </trkpt>
      <trkpt lat="45.15382" lon="5.8037">
        <ele>899</ele>
        <time>2021-05-29T13:33:16Z</time>
      </trkpt>
      <trkpt lat="45.15382" lon="5.8037">
        <ele>899</ele>
        <time>2021-05-29T13:33:17Z</time>
      </trkpt>
      <trkpt lat="45.15382" lon="5.8037">
        <ele>899</ele>
        <time>2021-05-29T13:33:18Z</time>
      </trkpt>
      <trkpt lat="45.1538" lon="5.80372">
        <ele>899</ele>
        <time>2021-05-29T13:33:19Z</time>
      </trkpt>
      <trkpt lat="45.1538" lon="5.80372">
        <ele>899.2</ele>
        <time>2021-05-29T13:33:20Z</time>
      </trkpt>
      <trkpt lat="45.1538" lon="5.80372">
        <ele>899.2</ele>
        <time>2021-05-29T13:33:21Z</time>
      </trkpt>
      <trkpt lat="45.1538" lon="5.80372">
        <ele>899.4</ele>
        <time>2021-05-29T13:33:22Z</time>
      </trkpt>
      <trkpt lat="45.1538" lon="5.80372">
        <ele>899.4</ele>
        <time>2021-05-29T13:33:23Z</time>
      </trkpt>
      <trkpt lat="45.1538" lon="5.80372">
        <ele>899.6</ele>
        <time>2021-05-29T13:33:24Z</time>
      </trkpt>
      <trkpt lat="45.1538" lon="5.80372">
        <ele>899.6</ele>
        <time>2021-05-29T13:33:25Z</time>
      </trkpt>
      <trkpt lat="45.1538" lon="5.80372">
        <ele>899.6</ele>
        <time>2021-05-29T13:33:26Z</time>
      </trkpt>
      <trkpt lat="45.1538" lon="5.80372">
        <ele>899.6</ele>
        <time>2021-05-29T13:33:27Z</time>
      </trkpt>
      <trkpt lat="45.1538" lon="5.80372">
        <ele>899.8</ele>
        <time>2021-05-29T13:33:28Z</time>
      </trkpt>
      <trkpt lat="45.1538" lon="5.80372">
        <ele>899.8</ele>
        <time>2021-05-29T13:33:29Z</time>
      </trkpt>
      <trkpt lat="45.1538" lon="5.80372">
        <ele>899.8</ele>
        <time>2021-05-29T13:33:30Z</time>
      </trkpt>
      <trkpt lat="45.1538" lon="5.80372">
        <ele>899.8</ele>
        <time>2021-05-29T13:33:31Z</time>
      </trkpt>
      <trkpt lat="45.1538" lon="5.80372">
        <ele>899.8</ele>
        <time>2021-05-29T13:33:32Z</time>
      </trkpt>
      <trkpt lat="45.1538" lon="5.80372">
        <ele>899.8</ele>
        <time>2021-05-29T13:33:33Z</time>
      </trkpt>
      <trkpt lat="45.15379" lon="5.80374">
        <ele>899.6</ele>
        <time>2021-05-29T13:33:34Z</time>
      </trkpt>
      <trkpt lat="45.15379" lon="5.80374">
        <ele>900</ele>
        <time>2021-05-29T13:33:35Z</time>
      </trkpt>
      <trkpt lat="45.15379" lon="5.80374">
        <ele>900.2</ele>
        <time>2021-05-29T13:33:36Z</time>
      </trkpt>
      <trkpt lat="45.15379" lon="5.80374">
        <ele>900.4</ele>
        <time>2021-05-29T13:33:37Z</time>
      </trkpt>
      <trkpt lat="45.15379" lon="5.80374">
        <ele>900.4</ele>
        <time>2021-05-29T13:33:38Z</time>
      </trkpt>
      <trkpt lat="45.15379" lon="5.80374">
        <ele>900.2</ele>
        <time>2021-05-29T13:33:39Z</time>
      </trkpt>
      <trkpt lat="45.1538" lon="5.80376">
        <ele>900.4</ele>
        <time>2021-05-29T13:33:40Z</time>
      </trkpt>
      <trkpt lat="45.1538" lon="5.80376">
        <ele>900.4</ele>
        <time>2021-05-29T13:33:41Z</time>
      </trkpt>
      <trkpt lat="45.1538" lon="5.80376">
        <ele>900.4</ele>
        <time>2021-05-29T13:33:42Z</time>
      </trkpt>
      <trkpt lat="45.1538" lon="5.80376">
        <ele>900.4</ele>
        <time>2021-05-29T13:33:43Z</time>
      </trkpt>
      <trkpt lat="45.1538" lon="5.80376">
        <ele>900.6</ele>
        <time>2021-05-29T13:33:44Z</time>
      </trkpt>
      <trkpt lat="45.1538" lon="5.80376">
        <ele>900.8</ele>
        <time>2021-05-29T13:33:45Z</time>
      </trkpt>
      <trkpt lat="45.1538" lon="5.80376">
        <ele>901</ele>
        <time>2021-05-29T13:33:46Z</time>
      </trkpt>
      <trkpt lat="45.1538" lon="5.80376">
        <ele>901.2</ele>
        <time>2021-05-29T13:33:47Z</time>
      </trkpt>
      <trkpt lat="45.1538" lon="5.80376">
        <ele>901.2</ele>
        <time>2021-05-29T13:33:48Z</time>
      </trkpt>
      <trkpt lat="45.1538" lon="5.80376">
        <ele>901.2</ele>
        <time>2021-05-29T13:33:49Z</time>
      </trkpt>
      <trkpt lat="45.1538" lon="5.80376">
        <ele>901.4</ele>
        <time>2021-05-29T13:33:50Z</time>
      </trkpt>
      <trkpt lat="45.1538" lon="5.80376">
        <ele>901.4</ele>
        <time>2021-05-29T13:33:51Z</time>
      </trkpt>
      <trkpt lat="45.1538" lon="5.80376">
        <ele>901.4</ele>
        <time>2021-05-29T13:33:52Z</time>
      </trkpt>
      <trkpt lat="45.1538" lon="5.80376">
        <ele>901.2</ele>
        <time>2021-05-29T13:33:53Z</time>
      </trkpt>
      <trkpt lat="45.1538" lon="5.80376">
        <ele>901.2</ele>
        <time>2021-05-29T13:33:54Z</time>
      </trkpt>
      <trkpt lat="45.1538" lon="5.80376">
        <ele>901.4</ele>
        <time>2021-05-29T13:33:55Z</time>
      </trkpt>
      <trkpt lat="45.1538" lon="5.80376">
        <ele>901.4</ele>
        <time>2021-05-29T13:33:56Z</time>
      </trkpt>
      <trkpt lat="45.1538" lon="5.80376">
        <ele>901.4</ele>
        <time>2021-05-29T13:33:57Z</time>
      </trkpt>
      <trkpt lat="45.1538" lon="5.80376">
        <ele>901.2</ele>
        <time>2021-05-29T13:33:58Z</time>
      </trkpt>
      <trkpt lat="45.1538" lon="5.80376">
        <ele>901.2</ele>
        <time>2021-05-29T13:33:59Z</time>
      </trkpt>
      <trkpt lat="45.1538" lon="5.80376">
        <ele>901</ele>
        <time>2021-05-29T13:34:00Z</time>
      </trkpt>
      <trkpt lat="45.15381" lon="5.80374">
        <ele>900.8</ele>
        <time>2021-05-29T13:34:01Z</time>
      </trkpt>
      <trkpt lat="45.15381" lon="5.80374">
        <ele>900.8</ele>
        <time>2021-05-29T13:34:02Z</time>
      </trkpt>
      <trkpt lat="45.15381" lon="5.80374">
        <ele>900.8</ele>
        <time>2021-05-29T13:34:03Z</time>
      </trkpt>
      <trkpt lat="45.15381" lon="5.80374">
        <ele>901</ele>
        <time>2021-05-29T13:34:04Z</time>
      </trkpt>
      <trkpt lat="45.15381" lon="5.80374">
        <ele>901</ele>
        <time>2021-05-29T13:34:05Z</time>
      </trkpt>
      <trkpt lat="45.15381" lon="5.80374">
        <ele>901</ele>
        <time>2021-05-29T13:34:06Z</time>
      </trkpt>
      <trkpt lat="45.15381" lon="5.80374">
        <ele>901</ele>
        <time>2021-05-29T13:34:07Z</time>
      </trkpt>
      <trkpt lat="45.15381" lon="5.80374">
        <ele>901</ele>
        <time>2021-05-29T13:34:08Z</time>
      </trkpt>
      <trkpt lat="45.15381" lon="5.80374">
        <ele>901</ele>
        <time>2021-05-29T13:34:09Z</time>
      </trkpt>
      <trkpt lat="45.15381" lon="5.80374">
        <ele>901</ele>
        <time>2021-05-29T13:34:10Z</time>
      </trkpt>
      <trkpt lat="45.15381" lon="5.80374">
        <ele>901.2</ele>
        <time>2021-05-29T13:34:11Z</time>
      </trkpt>
      <trkpt lat="45.15381" lon="5.80374">
        <ele>901</ele>
        <time>2021-05-29T13:34:12Z</time>
      </trkpt>
      <trkpt lat="45.15381" lon="5.80374">
        <ele>901.2</ele>
        <time>2021-05-29T13:34:13Z</time>
      </trkpt>
      <trkpt lat="45.15381" lon="5.80374">
        <ele>901.2</ele>
        <time>2021-05-29T13:34:14Z</time>
      </trkpt>
      <trkpt lat="45.15381" lon="5.80374">
        <ele>901</ele>
        <time>2021-05-29T13:34:15Z</time>
      </trkpt>
      <trkpt lat="45.15381" lon="5.80374">
        <ele>901</ele>
        <time>2021-05-29T13:34:16Z</time>
      </trkpt>
      <trkpt lat="45.15381" lon="5.80374">
        <ele>901</ele>
        <time>2021-05-29T13:34:17Z</time>
      </trkpt>
      <trkpt lat="45.15381" lon="5.80374">
        <ele>900.8</ele>
        <time>2021-05-29T13:34:18Z</time>
      </trkpt>
      <trkpt lat="45.15381" lon="5.80374">
        <ele>900.8</ele>
        <time>2021-05-29T13:34:19Z</time>
      </trkpt>
      <trkpt lat="45.15381" lon="5.80374">
        <ele>900.8</ele>
        <time>2021-05-29T13:34:20Z</time>
      </trkpt>
      <trkpt lat="45.15381" lon="5.80374">
        <ele>900.6</ele>
        <time>2021-05-29T13:34:21Z</time>
      </trkpt>
      <trkpt lat="45.15381" lon="5.80374">
        <ele>900.4</ele>
        <time>2021-05-29T13:34:22Z</time>
      </trkpt>
      <trkpt lat="45.15381" lon="5.80374">
        <ele>900.4</ele>
        <time>2021-05-29T13:34:23Z</time>
      </trkpt>
      <trkpt lat="45.15381" lon="5.80374">
        <ele>900.6</ele>
        <time>2021-05-29T13:34:24Z</time>
      </trkpt>
      <trkpt lat="45.15381" lon="5.80374">
        <ele>900.6</ele>
        <time>2021-05-29T13:34:25Z</time>
      </trkpt>
      <trkpt lat="45.15381" lon="5.80374">
        <ele>900.6</ele>
        <time>2021-05-29T13:34:26Z</time>
      </trkpt>
      <trkpt lat="45.15381" lon="5.80374">
        <ele>900.4</ele>
        <time>2021-05-29T13:34:27Z</time>
      </trkpt>
      <trkpt lat="45.15381" lon="5.80374">
        <ele>900.4</ele>
        <time>2021-05-29T13:34:28Z</time>
      </trkpt>
      <trkpt lat="45.15381" lon="5.80374">
        <ele>900.4</ele>
        <time>2021-05-29T13:34:29Z</time>
      </trkpt>
      <trkpt lat="45.15381" lon="5.80374">
        <ele>900.4</ele>
        <time>2021-05-29T13:34:30Z</time>
      </trkpt>
      <trkpt lat="45.15381" lon="5.80374">
        <ele>900.4</ele>
        <time>2021-05-29T13:34:31Z</time>
      </trkpt>
      <trkpt lat="45.15381" lon="5.80374">
        <ele>900.2</ele>
        <time>2021-05-29T13:34:32Z</time>
      </trkpt>
      <trkpt lat="45.15381" lon="5.80374">
        <ele>900.2</ele>
        <time>2021-05-29T13:34:33Z</time>
      </trkpt>
      <trkpt lat="45.15381" lon="5.80374">
        <ele>900.2</ele>
        <time>2021-05-29T13:34:34Z</time>
      </trkpt>
      <trkpt lat="45.15381" lon="5.80374">
        <ele>900.2</ele>
        <time>2021-05-29T13:34:35Z</time>
      </trkpt>
      <trkpt lat="45.15381" lon="5.80374">
        <ele>900.2</ele>
        <time>2021-05-29T13:34:36Z</time>
      </trkpt>
      <trkpt lat="45.15381" lon="5.80371">
        <ele>900.2</ele>
        <time>2021-05-29T13:34:37Z</time>
      </trkpt>
      <trkpt lat="45.15381" lon="5.80371">
        <ele>900.2</ele>
        <time>2021-05-29T13:34:38Z</time>
      </trkpt>
      <trkpt lat="45.15381" lon="5.80371">
        <ele>900</ele>
        <time>2021-05-29T13:34:39Z</time>
      </trkpt>
      <trkpt lat="45.15381" lon="5.80371">
        <ele>900</ele>
        <time>2021-05-29T13:34:40Z</time>
      </trkpt>
      <trkpt lat="45.15381" lon="5.80371">
        <ele>900</ele>
        <time>2021-05-29T13:34:41Z</time>
      </trkpt>
      <trkpt lat="45.15381" lon="5.80371">
        <ele>900.2</ele>
        <time>2021-05-29T13:34:42Z</time>
      </trkpt>
      <trkpt lat="45.15381" lon="5.80371">
        <ele>900</ele>
        <time>2021-05-29T13:34:43Z</time>
      </trkpt>
      <trkpt lat="45.15381" lon="5.80371">
        <ele>900</ele>
        <time>2021-05-29T13:34:44Z</time>
      </trkpt>
      <trkpt lat="45.15381" lon="5.80371">
        <ele>899.8</ele>
        <time>2021-05-29T13:34:45Z</time>
      </trkpt>
      <trkpt lat="45.15381" lon="5.80371">
        <ele>899.8</ele>
        <time>2021-05-29T13:34:46Z</time>
      </trkpt>
      <trkpt lat="45.15381" lon="5.80371">
        <ele>899.8</ele>
        <time>2021-05-29T13:34:47Z</time>
      </trkpt>
      <trkpt lat="45.15381" lon="5.80371">
        <ele>899.8</ele>
        <time>2021-05-29T13:34:48Z</time>
      </trkpt>
      <trkpt lat="45.15381" lon="5.80371">
        <ele>899.6</ele>
        <time>2021-05-29T13:34:49Z</time>
      </trkpt>
      <trkpt lat="45.15381" lon="5.80371">
        <ele>899.8</ele>
        <time>2021-05-29T13:34:50Z</time>
      </trkpt>
      <trkpt lat="45.15382" lon="5.80368">
        <ele>899.8</ele>
        <time>2021-05-29T13:34:51Z</time>
      </trkpt>
      <trkpt lat="45.15382" lon="5.80368">
        <ele>899.6</ele>
        <time>2021-05-29T13:34:52Z</time>
      </trkpt>
      <trkpt lat="45.15382" lon="5.80368">
        <ele>899.6</ele>
        <time>2021-05-29T13:34:53Z</time>
      </trkpt>
      <trkpt lat="45.15382" lon="5.80368">
        <ele>899.6</ele>
        <time>2021-05-29T13:34:54Z</time>
      </trkpt>
      <trkpt lat="45.15382" lon="5.80368">
        <ele>899.4</ele>
        <time>2021-05-29T13:34:55Z</time>
      </trkpt>
      <trkpt lat="45.15382" lon="5.80368">
        <ele>899.4</ele>
        <time>2021-05-29T13:34:56Z</time>
      </trkpt>
      <trkpt lat="45.15382" lon="5.80368">
        <ele>899.2</ele>
        <time>2021-05-29T13:34:57Z</time>
      </trkpt>
      <trkpt lat="45.15382" lon="5.80368">
        <ele>899.4</ele>
        <time>2021-05-29T13:34:58Z</time>
      </trkpt>
      <trkpt lat="45.15382" lon="5.80368">
        <ele>899.2</ele>
        <time>2021-05-29T13:34:59Z</time>
      </trkpt>
      <trkpt lat="45.15382" lon="5.80368">
        <ele>899</ele>
        <time>2021-05-29T13:35:00Z</time>
      </trkpt>
      <trkpt lat="45.15382" lon="5.80368">
        <ele>899</ele>
        <time>2021-05-29T13:35:01Z</time>
      </trkpt>
      <trkpt lat="45.15382" lon="5.80368">
        <ele>899</ele>
        <time>2021-05-29T13:35:02Z</time>
      </trkpt>
      <trkpt lat="45.15382" lon="5.80368">
        <ele>898.8</ele>
        <time>2021-05-29T13:35:03Z</time>
      </trkpt>
      <trkpt lat="45.15383" lon="5.80371">
        <ele>898.8</ele>
        <time>2021-05-29T13:35:04Z</time>
      </trkpt>
      <trkpt lat="45.15383" lon="5.80371">
        <ele>899</ele>
        <time>2021-05-29T13:35:05Z</time>
      </trkpt>
      <trkpt lat="45.15383" lon="5.80371">
        <ele>899</ele>
        <time>2021-05-29T13:35:06Z</time>
      </trkpt>
      <trkpt lat="45.15383" lon="5.80371">
        <ele>899</ele>
        <time>2021-05-29T13:35:07Z</time>
      </trkpt>
      <trkpt lat="45.15383" lon="5.80371">
        <ele>899</ele>
        <time>2021-05-29T13:35:08Z</time>
      </trkpt>
      <trkpt lat="45.15383" lon="5.80371">
        <ele>898.8</ele>
        <time>2021-05-29T13:35:09Z</time>
      </trkpt>
      <trkpt lat="45.15383" lon="5.80371">
        <ele>898.8</ele>
        <time>2021-05-29T13:35:10Z</time>
      </trkpt>
      <trkpt lat="45.15383" lon="5.80371">
        <ele>899</ele>
        <time>2021-05-29T13:35:11Z</time>
      </trkpt>
      <trkpt lat="45.15383" lon="5.80371">
        <ele>899</ele>
        <time>2021-05-29T13:35:12Z</time>
      </trkpt>
      <trkpt lat="45.15383" lon="5.80371">
        <ele>898.8</ele>
        <time>2021-05-29T13:35:13Z</time>
      </trkpt>
      <trkpt lat="45.15383" lon="5.80371">
        <ele>898.8</ele>
        <time>2021-05-29T13:35:14Z</time>
      </trkpt>
      <trkpt lat="45.15383" lon="5.80371">
        <ele>898.8</ele>
        <time>2021-05-29T13:35:15Z</time>
      </trkpt>
      <trkpt lat="45.15383" lon="5.80371">
        <ele>898.8</ele>
        <time>2021-05-29T13:35:16Z</time>
      </trkpt>
      <trkpt lat="45.15383" lon="5.80371">
        <ele>898.8</ele>
        <time>2021-05-29T13:35:17Z</time>
      </trkpt>
      <trkpt lat="45.15383" lon="5.80371">
        <ele>898.8</ele>
        <time>2021-05-29T13:35:18Z</time>
      </trkpt>
      <trkpt lat="45.15383" lon="5.80371">
        <ele>898.6</ele>
        <time>2021-05-29T13:35:19Z</time>
      </trkpt>
      <trkpt lat="45.15383" lon="5.80371">
        <ele>898.8</ele>
        <time>2021-05-29T13:35:20Z</time>
      </trkpt>
      <trkpt lat="45.15383" lon="5.80371">
        <ele>898.6</ele>
        <time>2021-05-29T13:35:21Z</time>
      </trkpt>
      <trkpt lat="45.15383" lon="5.80371">
        <ele>898.6</ele>
        <time>2021-05-29T13:35:22Z</time>
      </trkpt>
      <trkpt lat="45.15383" lon="5.80371">
        <ele>898.6</ele>
        <time>2021-05-29T13:35:23Z</time>
      </trkpt>
      <trkpt lat="45.15383" lon="5.80371">
        <ele>898.8</ele>
        <time>2021-05-29T13:35:24Z</time>
      </trkpt>
      <trkpt lat="45.15383" lon="5.80371">
        <ele>898.6</ele>
        <time>2021-05-29T13:35:25Z</time>
      </trkpt>
      <trkpt lat="45.15383" lon="5.80371">
        <ele>898.6</ele>
        <time>2021-05-29T13:35:26Z</time>
      </trkpt>
      <trkpt lat="45.15383" lon="5.80371">
        <ele>898.6</ele>
        <time>2021-05-29T13:35:27Z</time>
      </trkpt>
      <trkpt lat="45.15383" lon="5.80371">
        <ele>898.4</ele>
        <time>2021-05-29T13:35:28Z</time>
      </trkpt>
      <trkpt lat="45.15383" lon="5.80371">
        <ele>898.4</ele>
        <time>2021-05-29T13:35:29Z</time>
      </trkpt>
      <trkpt lat="45.15383" lon="5.80371">
        <ele>898.4</ele>
        <time>2021-05-29T13:35:30Z</time>
      </trkpt>
      <trkpt lat="45.15383" lon="5.80371">
        <ele>898.4</ele>
        <time>2021-05-29T13:35:31Z</time>
      </trkpt>
      <trkpt lat="45.15383" lon="5.80371">
        <ele>898</ele>
        <time>2021-05-29T13:35:32Z</time>
      </trkpt>
      <trkpt lat="45.15383" lon="5.80371">
        <ele>898</ele>
        <time>2021-05-29T13:35:33Z</time>
      </trkpt>
      <trkpt lat="45.15383" lon="5.80371">
        <ele>898.2</ele>
        <time>2021-05-29T13:35:34Z</time>
      </trkpt>
      <trkpt lat="45.15383" lon="5.80371">
        <ele>898.2</ele>
        <time>2021-05-29T13:35:35Z</time>
      </trkpt>
      <trkpt lat="45.15383" lon="5.80371">
        <ele>898.2</ele>
        <time>2021-05-29T13:35:36Z</time>
      </trkpt>
      <trkpt lat="45.15382" lon="5.80369">
        <ele>898</ele>
        <time>2021-05-29T13:35:37Z</time>
      </trkpt>
      <trkpt lat="45.15382" lon="5.80369">
        <ele>898</ele>
        <time>2021-05-29T13:35:38Z</time>
      </trkpt>
      <trkpt lat="45.15382" lon="5.80369">
        <ele>898</ele>
        <time>2021-05-29T13:35:39Z</time>
      </trkpt>
      <trkpt lat="45.15381" lon="5.8037">
        <ele>898.2</ele>
        <time>2021-05-29T13:35:40Z</time>
      </trkpt>
      <trkpt lat="45.1538" lon="5.8037">
        <ele>898.4</ele>
        <time>2021-05-29T13:35:41Z</time>
      </trkpt>
      <trkpt lat="45.15379" lon="5.80371">
        <ele>898.4</ele>
        <time>2021-05-29T13:35:42Z</time>
      </trkpt>
      <trkpt lat="45.15379" lon="5.80372">
        <ele>898.4</ele>
        <time>2021-05-29T13:35:43Z</time>
      </trkpt>
      <trkpt lat="45.15378" lon="5.80373">
        <ele>898.6</ele>
        <time>2021-05-29T13:35:44Z</time>
      </trkpt>
      <trkpt lat="45.15377" lon="5.80374">
        <ele>898.6</ele>
        <time>2021-05-29T13:35:45Z</time>
      </trkpt>
      <trkpt lat="45.15376" lon="5.80374">
        <ele>898.6</ele>
        <time>2021-05-29T13:35:46Z</time>
      </trkpt>
      <trkpt lat="45.15376" lon="5.80375">
        <ele>898.4</ele>
        <time>2021-05-29T13:35:47Z</time>
      </trkpt>
      <trkpt lat="45.15375" lon="5.80376">
        <ele>898.4</ele>
        <time>2021-05-29T13:35:48Z</time>
      </trkpt>
      <trkpt lat="45.15374" lon="5.80377">
        <ele>898.2</ele>
        <time>2021-05-29T13:35:49Z</time>
      </trkpt>
      <trkpt lat="45.15374" lon="5.80377">
        <ele>898</ele>
        <time>2021-05-29T13:35:50Z</time>
      </trkpt>
      <trkpt lat="45.15374" lon="5.80377">
        <ele>898</ele>
        <time>2021-05-29T13:35:51Z</time>
      </trkpt>
      <trkpt lat="45.15374" lon="5.80377">
        <ele>898</ele>
        <time>2021-05-29T13:35:52Z</time>
      </trkpt>
      <trkpt lat="45.15374" lon="5.80377">
        <ele>898</ele>
        <time>2021-05-29T13:35:53Z</time>
      </trkpt>
      <trkpt lat="45.15374" lon="5.80377">
        <ele>898</ele>
        <time>2021-05-29T13:35:54Z</time>
      </trkpt>
      <trkpt lat="45.15374" lon="5.80377">
        <ele>898</ele>
        <time>2021-05-29T13:35:55Z</time>
      </trkpt>
      <trkpt lat="45.15374" lon="5.80377">
        <ele>897.8</ele>
        <time>2021-05-29T13:35:56Z</time>
      </trkpt>
      <trkpt lat="45.15374" lon="5.80377">
        <ele>897.8</ele>
        <time>2021-05-29T13:35:57Z</time>
      </trkpt>
      <trkpt lat="45.15374" lon="5.80377">
        <ele>897.8</ele>
        <time>2021-05-29T13:35:58Z</time>
      </trkpt>
      <trkpt lat="45.15374" lon="5.80377">
        <ele>897.8</ele>
        <time>2021-05-29T13:35:59Z</time>
      </trkpt>
      <trkpt lat="45.15374" lon="5.80377">
        <ele>897.8</ele>
        <time>2021-05-29T13:36:00Z</time>
      </trkpt>
      <trkpt lat="45.15374" lon="5.80377">
        <ele>897.8</ele>
        <time>2021-05-29T13:36:01Z</time>
      </trkpt>
      <trkpt lat="45.15374" lon="5.80377">
        <ele>898</ele>
        <time>2021-05-29T13:36:02Z</time>
      </trkpt>
      <trkpt lat="45.15374" lon="5.80377">
        <ele>897.8</ele>
        <time>2021-05-29T13:36:03Z</time>
      </trkpt>
      <trkpt lat="45.15374" lon="5.80377">
        <ele>898</ele>
        <time>2021-05-29T13:36:04Z</time>
      </trkpt>
      <trkpt lat="45.15374" lon="5.80377">
        <ele>898</ele>
        <time>2021-05-29T13:36:05Z</time>
      </trkpt>
      <trkpt lat="45.15373" lon="5.80379">
        <ele>898</ele>
        <time>2021-05-29T13:36:06Z</time>
      </trkpt>
      <trkpt lat="45.15373" lon="5.80379">
        <ele>898</ele>
        <time>2021-05-29T13:36:07Z</time>
      </trkpt>
      <trkpt lat="45.15373" lon="5.80379">
        <ele>898</ele>
        <time>2021-05-29T13:36:08Z</time>
      </trkpt>
      <trkpt lat="45.15373" lon="5.80379">
        <ele>898.2</ele>
        <time>2021-05-29T13:36:09Z</time>
      </trkpt>
      <trkpt lat="45.15373" lon="5.80379">
        <ele>898.2</ele>
        <time>2021-05-29T13:36:10Z</time>
      </trkpt>
      <trkpt lat="45.15371" lon="5.8038">
        <ele>898.4</ele>
        <time>2021-05-29T13:36:11Z</time>
      </trkpt>
      <trkpt lat="45.15371" lon="5.8038">
        <ele>898.6</ele>
        <time>2021-05-29T13:36:12Z</time>
      </trkpt>
      <trkpt lat="45.15371" lon="5.8038">
        <ele>898.6</ele>
        <time>2021-05-29T13:36:13Z</time>
      </trkpt>
      <trkpt lat="45.15371" lon="5.8038">
        <ele>898.6</ele>
        <time>2021-05-29T13:36:14Z</time>
      </trkpt>
      <trkpt lat="45.15371" lon="5.8038">
        <ele>898.6</ele>
        <time>2021-05-29T13:36:15Z</time>
      </trkpt>
      <trkpt lat="45.15371" lon="5.8038">
        <ele>898.6</ele>
        <time>2021-05-29T13:36:16Z</time>
      </trkpt>
      <trkpt lat="45.15369" lon="5.80381">
        <ele>898.8</ele>
        <time>2021-05-29T13:36:17Z</time>
      </trkpt>
      <trkpt lat="45.15369" lon="5.80381">
        <ele>898.6</ele>
        <time>2021-05-29T13:36:18Z</time>
      </trkpt>
      <trkpt lat="45.15369" lon="5.80381">
        <ele>898.8</ele>
        <time>2021-05-29T13:36:19Z</time>
      </trkpt>
      <trkpt lat="45.15369" lon="5.80381">
        <ele>898.8</ele>
        <time>2021-05-29T13:36:20Z</time>
      </trkpt>
      <trkpt lat="45.15369" lon="5.80381">
        <ele>898.8</ele>
        <time>2021-05-29T13:36:21Z</time>
      </trkpt>
      <trkpt lat="45.15369" lon="5.80381">
        <ele>899</ele>
        <time>2021-05-29T13:36:22Z</time>
      </trkpt>
      <trkpt lat="45.15369" lon="5.80381">
        <ele>898.8</ele>
        <time>2021-05-29T13:36:23Z</time>
      </trkpt>
      <trkpt lat="45.15369" lon="5.80381">
        <ele>899</ele>
        <time>2021-05-29T13:36:24Z</time>
      </trkpt>
      <trkpt lat="45.15369" lon="5.80381">
        <ele>899</ele>
        <time>2021-05-29T13:36:25Z</time>
      </trkpt>
      <trkpt lat="45.15369" lon="5.80381">
        <ele>899</ele>
        <time>2021-05-29T13:36:26Z</time>
      </trkpt>
      <trkpt lat="45.15369" lon="5.80381">
        <ele>899</ele>
        <time>2021-05-29T13:36:27Z</time>
      </trkpt>
      <trkpt lat="45.15369" lon="5.80381">
        <ele>899</ele>
        <time>2021-05-29T13:36:28Z</time>
      </trkpt>
      <trkpt lat="45.15369" lon="5.80381">
        <ele>899</ele>
        <time>2021-05-29T13:36:29Z</time>
      </trkpt>
      <trkpt lat="45.15369" lon="5.80381">
        <ele>899.2</ele>
        <time>2021-05-29T13:36:30Z</time>
      </trkpt>
      <trkpt lat="45.15369" lon="5.80381">
        <ele>899.2</ele>
        <time>2021-05-29T13:36:31Z</time>
      </trkpt>
      <trkpt lat="45.15369" lon="5.80381">
        <ele>899</ele>
        <time>2021-05-29T13:36:32Z</time>
      </trkpt>
      <trkpt lat="45.15369" lon="5.80381">
        <ele>899</ele>
        <time>2021-05-29T13:36:33Z</time>
      </trkpt>
      <trkpt lat="45.15369" lon="5.80381">
        <ele>898.8</ele>
        <time>2021-05-29T13:36:34Z</time>
      </trkpt>
      <trkpt lat="45.15369" lon="5.80381">
        <ele>899</ele>
        <time>2021-05-29T13:36:35Z</time>
      </trkpt>
      <trkpt lat="45.15369" lon="5.80381">
        <ele>898.8</ele>
        <time>2021-05-29T13:36:36Z</time>
      </trkpt>
      <trkpt lat="45.15369" lon="5.80381">
        <ele>898.8</ele>
        <time>2021-05-29T13:36:37Z</time>
      </trkpt>
      <trkpt lat="45.15369" lon="5.80381">
        <ele>899</ele>
        <time>2021-05-29T13:36:38Z</time>
      </trkpt>
      <trkpt lat="45.15369" lon="5.80378">
        <ele>899</ele>
        <time>2021-05-29T13:36:39Z</time>
      </trkpt>
      <trkpt lat="45.15369" lon="5.80378">
        <ele>898.8</ele>
        <time>2021-05-29T13:36:40Z</time>
      </trkpt>
      <trkpt lat="45.15369" lon="5.80378">
        <ele>898.8</ele>
        <time>2021-05-29T13:36:41Z</time>
      </trkpt>
      <trkpt lat="45.1537" lon="5.80377">
        <ele>899</ele>
        <time>2021-05-29T13:36:42Z</time>
      </trkpt>
      <trkpt lat="45.1537" lon="5.80377">
        <ele>899</ele>
        <time>2021-05-29T13:36:43Z</time>
      </trkpt>
      <trkpt lat="45.1537" lon="5.80377">
        <ele>899</ele>
        <time>2021-05-29T13:36:44Z</time>
      </trkpt>
      <trkpt lat="45.1537" lon="5.80376">
        <ele>899</ele>
        <time>2021-05-29T13:36:45Z</time>
      </trkpt>
      <trkpt lat="45.1537" lon="5.80376">
        <ele>898.8</ele>
        <time>2021-05-29T13:36:46Z</time>
      </trkpt>
      <trkpt lat="45.1537" lon="5.80376">
        <ele>898.8</ele>
        <time>2021-05-29T13:36:47Z</time>
      </trkpt>
      <trkpt lat="45.15371" lon="5.80375">
        <ele>898.6</ele>
        <time>2021-05-29T13:36:48Z</time>
      </trkpt>
      <trkpt lat="45.15371" lon="5.80375">
        <ele>898.6</ele>
        <time>2021-05-29T13:36:49Z</time>
      </trkpt>
      <trkpt lat="45.15371" lon="5.80375">
        <ele>898.6</ele>
        <time>2021-05-29T13:36:50Z</time>
      </trkpt>
      <trkpt lat="45.15371" lon="5.80374">
        <ele>898.8</ele>
        <time>2021-05-29T13:36:51Z</time>
      </trkpt>
      <trkpt lat="45.15371" lon="5.80374">
        <ele>899</ele>
        <time>2021-05-29T13:36:52Z</time>
      </trkpt>
      <trkpt lat="45.15372" lon="5.80374">
        <ele>898.8</ele>
        <time>2021-05-29T13:36:53Z</time>
      </trkpt>
      <trkpt lat="45.15372" lon="5.80374">
        <ele>898.8</ele>
        <time>2021-05-29T13:36:54Z</time>
      </trkpt>
      <trkpt lat="45.15372" lon="5.80374">
        <ele>899</ele>
        <time>2021-05-29T13:36:55Z</time>
      </trkpt>
      <trkpt lat="45.15372" lon="5.80374">
        <ele>899</ele>
        <time>2021-05-29T13:36:56Z</time>
      </trkpt>
      <trkpt lat="45.15372" lon="5.80374">
        <ele>899.2</ele>
        <time>2021-05-29T13:36:57Z</time>
      </trkpt>
      <trkpt lat="45.15372" lon="5.80374">
        <ele>899.2</ele>
        <time>2021-05-29T13:36:58Z</time>
      </trkpt>
      <trkpt lat="45.15372" lon="5.80374">
        <ele>899.2</ele>
        <time>2021-05-29T13:36:59Z</time>
      </trkpt>
      <trkpt lat="45.15372" lon="5.80374">
        <ele>899.4</ele>
        <time>2021-05-29T13:37:00Z</time>
      </trkpt>
      <trkpt lat="45.15372" lon="5.80374">
        <ele>899.2</ele>
        <time>2021-05-29T13:37:01Z</time>
      </trkpt>
      <trkpt lat="45.15372" lon="5.80374">
        <ele>899.2</ele>
        <time>2021-05-29T13:37:02Z</time>
      </trkpt>
      <trkpt lat="45.15372" lon="5.80374">
        <ele>899</ele>
        <time>2021-05-29T13:37:03Z</time>
      </trkpt>
      <trkpt lat="45.15372" lon="5.80374">
        <ele>899.2</ele>
        <time>2021-05-29T13:37:04Z</time>
      </trkpt>
      <trkpt lat="45.15372" lon="5.80374">
        <ele>899.2</ele>
        <time>2021-05-29T13:37:05Z</time>
      </trkpt>
      <trkpt lat="45.15372" lon="5.80374">
        <ele>899</ele>
        <time>2021-05-29T13:37:06Z</time>
      </trkpt>
      <trkpt lat="45.15372" lon="5.80374">
        <ele>899.2</ele>
        <time>2021-05-29T13:37:07Z</time>
      </trkpt>
      <trkpt lat="45.15372" lon="5.80374">
        <ele>899.2</ele>
        <time>2021-05-29T13:37:08Z</time>
      </trkpt>
      <trkpt lat="45.15372" lon="5.80374">
        <ele>899.2</ele>
        <time>2021-05-29T13:37:09Z</time>
      </trkpt>
      <trkpt lat="45.15372" lon="5.80374">
        <ele>899.2</ele>
        <time>2021-05-29T13:37:10Z</time>
      </trkpt>
      <trkpt lat="45.15372" lon="5.80374">
        <ele>899.4</ele>
        <time>2021-05-29T13:37:11Z</time>
      </trkpt>
      <trkpt lat="45.15372" lon="5.80374">
        <ele>899.4</ele>
        <time>2021-05-29T13:37:12Z</time>
      </trkpt>
      <trkpt lat="45.15372" lon="5.80374">
        <ele>899.4</ele>
        <time>2021-05-29T13:37:13Z</time>
      </trkpt>
      <trkpt lat="45.15372" lon="5.80374">
        <ele>899.4</ele>
        <time>2021-05-29T13:37:14Z</time>
      </trkpt>
      <trkpt lat="45.15372" lon="5.80374">
        <ele>899.6</ele>
        <time>2021-05-29T13:37:15Z</time>
      </trkpt>
      <trkpt lat="45.15372" lon="5.80374">
        <ele>899.4</ele>
        <time>2021-05-29T13:37:16Z</time>
      </trkpt>
      <trkpt lat="45.15372" lon="5.80374">
        <ele>899.4</ele>
        <time>2021-05-29T13:37:17Z</time>
      </trkpt>
      <trkpt lat="45.15372" lon="5.80374">
        <ele>899.2</ele>
        <time>2021-05-29T13:37:18Z</time>
      </trkpt>
      <trkpt lat="45.15372" lon="5.80374">
        <ele>899.2</ele>
        <time>2021-05-29T13:37:19Z</time>
      </trkpt>
      <trkpt lat="45.15372" lon="5.80374">
        <ele>899.2</ele>
        <time>2021-05-29T13:37:20Z</time>
      </trkpt>
      <trkpt lat="45.15372" lon="5.80374">
        <ele>899.4</ele>
        <time>2021-05-29T13:37:21Z</time>
      </trkpt>
      <trkpt lat="45.15372" lon="5.80374">
        <ele>899.2</ele>
        <time>2021-05-29T13:37:22Z</time>
      </trkpt>
      <trkpt lat="45.15372" lon="5.80374">
        <ele>899</ele>
        <time>2021-05-29T13:37:23Z</time>
      </trkpt>
      <trkpt lat="45.15374" lon="5.80373">
        <ele>899</ele>
        <time>2021-05-29T13:37:24Z</time>
      </trkpt>
      <trkpt lat="45.15374" lon="5.80373">
        <ele>898.8</ele>
        <time>2021-05-29T13:37:25Z</time>
      </trkpt>
      <trkpt lat="45.15374" lon="5.80373">
        <ele>899</ele>
        <time>2021-05-29T13:37:26Z</time>
      </trkpt>
      <trkpt lat="45.15374" lon="5.80373">
        <ele>899.2</ele>
        <time>2021-05-29T13:37:27Z</time>
      </trkpt>
      <trkpt lat="45.15375" lon="5.80372">
        <ele>899.6</ele>
        <time>2021-05-29T13:37:28Z</time>
      </trkpt>
      <trkpt lat="45.15375" lon="5.80372">
        <ele>899.6</ele>
        <time>2021-05-29T13:37:29Z</time>
      </trkpt>
      <trkpt lat="45.15376" lon="5.80371">
        <ele>899.8</ele>
        <time>2021-05-29T13:37:30Z</time>
      </trkpt>
      <trkpt lat="45.15376" lon="5.80371">
        <ele>899.6</ele>
        <time>2021-05-29T13:37:31Z</time>
      </trkpt>
      <trkpt lat="45.15377" lon="5.8037">
        <ele>899.4</ele>
        <time>2021-05-29T13:37:32Z</time>
      </trkpt>
      <trkpt lat="45.15377" lon="5.8037">
        <ele>899.4</ele>
        <time>2021-05-29T13:37:33Z</time>
      </trkpt>
      <trkpt lat="45.15378" lon="5.8037">
        <ele>899.2</ele>
        <time>2021-05-29T13:37:34Z</time>
      </trkpt>
      <trkpt lat="45.15378" lon="5.80369">
        <ele>899.2</ele>
        <time>2021-05-29T13:37:35Z</time>
      </trkpt>
      <trkpt lat="45.15379" lon="5.80369">
        <ele>899.2</ele>
        <time>2021-05-29T13:37:36Z</time>
      </trkpt>
      <trkpt lat="45.15379" lon="5.80368">
        <ele>899.2</ele>
        <time>2021-05-29T13:37:37Z</time>
      </trkpt>
      <trkpt lat="45.15382" lon="5.80367">
        <ele>899</ele>
        <time>2021-05-29T13:37:38Z</time>
      </trkpt>
      <trkpt lat="45.15382" lon="5.80367">
        <ele>899</ele>
        <time>2021-05-29T13:37:39Z</time>
      </trkpt>
      <trkpt lat="45.15385" lon="5.80368">
        <ele>898.8</ele>
        <time>2021-05-29T13:37:40Z</time>
      </trkpt>
      <trkpt lat="45.15385" lon="5.80368">
        <ele>898.8</ele>
        <time>2021-05-29T13:37:41Z</time>
      </trkpt>
      <trkpt lat="45.15385" lon="5.80368">
        <ele>898.6</ele>
        <time>2021-05-29T13:37:42Z</time>
      </trkpt>
      <trkpt lat="45.15387" lon="5.80368">
        <ele>898.6</ele>
        <time>2021-05-29T13:37:43Z</time>
      </trkpt>
      <trkpt lat="45.1539" lon="5.80368">
        <ele>898.4</ele>
        <time>2021-05-29T13:37:44Z</time>
      </trkpt>
      <trkpt lat="45.1539" lon="5.80368">
        <ele>898.4</ele>
        <time>2021-05-29T13:37:45Z</time>
      </trkpt>
      <trkpt lat="45.1539" lon="5.80368">
        <ele>898.4</ele>
        <time>2021-05-29T13:37:46Z</time>
      </trkpt>
      <trkpt lat="45.15392" lon="5.80367">
        <ele>898.2</ele>
        <time>2021-05-29T13:37:47Z</time>
      </trkpt>
      <trkpt lat="45.15392" lon="5.80367">
        <ele>897.8</ele>
        <time>2021-05-29T13:37:48Z</time>
      </trkpt>
      <trkpt lat="45.15394" lon="5.80368">
        <ele>897.6</ele>
        <time>2021-05-29T13:37:49Z</time>
      </trkpt>
      <trkpt lat="45.15394" lon="5.80368">
        <ele>897.2</ele>
        <time>2021-05-29T13:37:50Z</time>
      </trkpt>
      <trkpt lat="45.15394" lon="5.80368">
        <ele>897.2</ele>
        <time>2021-05-29T13:37:51Z</time>
      </trkpt>
      <trkpt lat="45.15396" lon="5.80368">
        <ele>897</ele>
        <time>2021-05-29T13:37:52Z</time>
      </trkpt>
      <trkpt lat="45.15396" lon="5.80368">
        <ele>897</ele>
        <time>2021-05-29T13:37:53Z</time>
      </trkpt>
      <trkpt lat="45.15396" lon="5.80368">
        <ele>896.8</ele>
        <time>2021-05-29T13:37:54Z</time>
      </trkpt>
      <trkpt lat="45.15399" lon="5.8037">
        <ele>896.6</ele>
        <time>2021-05-29T13:37:55Z</time>
      </trkpt>
      <trkpt lat="45.15399" lon="5.8037">
        <ele>896.4</ele>
        <time>2021-05-29T13:37:56Z</time>
      </trkpt>
      <trkpt lat="45.15401" lon="5.80371">
        <ele>896.4</ele>
        <time>2021-05-29T13:37:57Z</time>
      </trkpt>
      <trkpt lat="45.15401" lon="5.80371">
        <ele>896.2</ele>
        <time>2021-05-29T13:37:58Z</time>
      </trkpt>
      <trkpt lat="45.15403" lon="5.80373">
        <ele>896.2</ele>
        <time>2021-05-29T13:37:59Z</time>
      </trkpt>
      <trkpt lat="45.15403" lon="5.80373">
        <ele>896.2</ele>
        <time>2021-05-29T13:38:00Z</time>
      </trkpt>
      <trkpt lat="45.15405" lon="5.80373">
        <ele>896</ele>
        <time>2021-05-29T13:38:01Z</time>
      </trkpt>
      <trkpt lat="45.15405" lon="5.80373">
        <ele>896</ele>
        <time>2021-05-29T13:38:02Z</time>
      </trkpt>
      <trkpt lat="45.15407" lon="5.80373">
        <ele>895.8</ele>
        <time>2021-05-29T13:38:03Z</time>
      </trkpt>
      <trkpt lat="45.15407" lon="5.80373">
        <ele>895.6</ele>
        <time>2021-05-29T13:38:04Z</time>
      </trkpt>
      <trkpt lat="45.15409" lon="5.80374">
        <ele>895.2</ele>
        <time>2021-05-29T13:38:05Z</time>
      </trkpt>
      <trkpt lat="45.15409" lon="5.80374">
        <ele>895</ele>
        <time>2021-05-29T13:38:06Z</time>
      </trkpt>
      <trkpt lat="45.15409" lon="5.80374">
        <ele>894.6</ele>
        <time>2021-05-29T13:38:07Z</time>
      </trkpt>
      <trkpt lat="45.15412" lon="5.80374">
        <ele>894</ele>
        <time>2021-05-29T13:38:08Z</time>
      </trkpt>
      <trkpt lat="45.15414" lon="5.80373">
        <ele>893.8</ele>
        <time>2021-05-29T13:38:09Z</time>
      </trkpt>
      <trkpt lat="45.15416" lon="5.80373">
        <ele>893.4</ele>
        <time>2021-05-29T13:38:10Z</time>
      </trkpt>
      <trkpt lat="45.15416" lon="5.80373">
        <ele>893.2</ele>
        <time>2021-05-29T13:38:11Z</time>
      </trkpt>
      <trkpt lat="45.15416" lon="5.80373">
        <ele>892.8</ele>
        <time>2021-05-29T13:38:12Z</time>
      </trkpt>
      <trkpt lat="45.15416" lon="5.80373">
        <ele>892.4</ele>
        <time>2021-05-29T13:38:13Z</time>
      </trkpt>
      <trkpt lat="45.15418" lon="5.80373">
        <ele>892.2</ele>
        <time>2021-05-29T13:38:14Z</time>
      </trkpt>
      <trkpt lat="45.1542" lon="5.80373">
        <ele>892</ele>
        <time>2021-05-29T13:38:15Z</time>
      </trkpt>
      <trkpt lat="45.15422" lon="5.80373">
        <ele>892</ele>
        <time>2021-05-29T13:38:16Z</time>
      </trkpt>
      <trkpt lat="45.15424" lon="5.80373">
        <ele>892</ele>
        <time>2021-05-29T13:38:17Z</time>
      </trkpt>
      <trkpt lat="45.15426" lon="5.80373">
        <ele>891.8</ele>
        <time>2021-05-29T13:38:18Z</time>
      </trkpt>
      <trkpt lat="45.15427" lon="5.80373">
        <ele>892</ele>
        <time>2021-05-29T13:38:19Z</time>
      </trkpt>
      <trkpt lat="45.15429" lon="5.80373">
        <ele>892</ele>
        <time>2021-05-29T13:38:20Z</time>
      </trkpt>
      <trkpt lat="45.15429" lon="5.80373">
        <ele>892.2</ele>
        <time>2021-05-29T13:38:21Z</time>
      </trkpt>
      <trkpt lat="45.15429" lon="5.80373">
        <ele>892</ele>
        <time>2021-05-29T13:38:22Z</time>
      </trkpt>
      <trkpt lat="45.15431" lon="5.80373">
        <ele>892</ele>
        <time>2021-05-29T13:38:23Z</time>
      </trkpt>
      <trkpt lat="45.15431" lon="5.80373">
        <ele>891.8</ele>
        <time>2021-05-29T13:38:24Z</time>
      </trkpt>
      <trkpt lat="45.15431" lon="5.80373">
        <ele>891.4</ele>
        <time>2021-05-29T13:38:25Z</time>
      </trkpt>
      <trkpt lat="45.15431" lon="5.80372">
        <ele>891</ele>
        <time>2021-05-29T13:38:26Z</time>
      </trkpt>
      <trkpt lat="45.1543" lon="5.80372">
        <ele>890.8</ele>
        <time>2021-05-29T13:38:27Z</time>
      </trkpt>
      <trkpt lat="45.15429" lon="5.80371">
        <ele>890.6</ele>
        <time>2021-05-29T13:38:28Z</time>
      </trkpt>
      <trkpt lat="45.15428" lon="5.8037">
        <ele>890.6</ele>
        <time>2021-05-29T13:38:29Z</time>
      </trkpt>
      <trkpt lat="45.15427" lon="5.8037">
        <ele>890.2</ele>
        <time>2021-05-29T13:38:30Z</time>
      </trkpt>
      <trkpt lat="45.15427" lon="5.80369">
        <ele>890</ele>
        <time>2021-05-29T13:38:31Z</time>
      </trkpt>
      <trkpt lat="45.15426" lon="5.80368">
        <ele>889.6</ele>
        <time>2021-05-29T13:38:32Z</time>
      </trkpt>
      <trkpt lat="45.15425" lon="5.80368">
        <ele>889.4</ele>
        <time>2021-05-29T13:38:33Z</time>
      </trkpt>
      <trkpt lat="45.15424" lon="5.80367">
        <ele>889.2</ele>
        <time>2021-05-29T13:38:34Z</time>
      </trkpt>
      <trkpt lat="45.15423" lon="5.80366">
        <ele>888.8</ele>
        <time>2021-05-29T13:38:35Z</time>
      </trkpt>
      <trkpt lat="45.15423" lon="5.80365">
        <ele>888.4</ele>
        <time>2021-05-29T13:38:36Z</time>
      </trkpt>
      <trkpt lat="45.15422" lon="5.80365">
        <ele>888.2</ele>
        <time>2021-05-29T13:38:37Z</time>
      </trkpt>
      <trkpt lat="45.15422" lon="5.80364">
        <ele>888.4</ele>
        <time>2021-05-29T13:38:38Z</time>
      </trkpt>
      <trkpt lat="45.15421" lon="5.80363">
        <ele>888.4</ele>
        <time>2021-05-29T13:38:39Z</time>
      </trkpt>
      <trkpt lat="45.1542" lon="5.80362">
        <ele>888.4</ele>
        <time>2021-05-29T13:38:40Z</time>
      </trkpt>
      <trkpt lat="45.1542" lon="5.80361">
        <ele>888.2</ele>
        <time>2021-05-29T13:38:41Z</time>
      </trkpt>
      <trkpt lat="45.15419" lon="5.8036">
        <ele>888.2</ele>
        <time>2021-05-29T13:38:42Z</time>
      </trkpt>
      <trkpt lat="45.15418" lon="5.80359">
        <ele>888</ele>
        <time>2021-05-29T13:38:43Z</time>
      </trkpt>
      <trkpt lat="45.15417" lon="5.80357">
        <ele>888</ele>
        <time>2021-05-29T13:38:44Z</time>
      </trkpt>
      <trkpt lat="45.15416" lon="5.80355">
        <ele>887.6</ele>
        <time>2021-05-29T13:38:45Z</time>
      </trkpt>
      <trkpt lat="45.15415" lon="5.80353">
        <ele>887.6</ele>
        <time>2021-05-29T13:38:46Z</time>
      </trkpt>
      <trkpt lat="45.15414" lon="5.80352">
        <ele>887.4</ele>
        <time>2021-05-29T13:38:47Z</time>
      </trkpt>
      <trkpt lat="45.15413" lon="5.8035">
        <ele>887.6</ele>
        <time>2021-05-29T13:38:48Z</time>
      </trkpt>
      <trkpt lat="45.15413" lon="5.8035">
        <ele>887.8</ele>
        <time>2021-05-29T13:38:49Z</time>
      </trkpt>
      <trkpt lat="45.15411" lon="5.80348">
        <ele>887.8</ele>
        <time>2021-05-29T13:38:50Z</time>
      </trkpt>
      <trkpt lat="45.15411" lon="5.80348">
        <ele>887.4</ele>
        <time>2021-05-29T13:38:51Z</time>
      </trkpt>
      <trkpt lat="45.15408" lon="5.80345">
        <ele>887.2</ele>
        <time>2021-05-29T13:38:52Z</time>
      </trkpt>
      <trkpt lat="45.15408" lon="5.80345">
        <ele>887</ele>
        <time>2021-05-29T13:38:53Z</time>
      </trkpt>
      <trkpt lat="45.15406" lon="5.80343">
        <ele>886.8</ele>
        <time>2021-05-29T13:38:54Z</time>
      </trkpt>
      <trkpt lat="45.15406" lon="5.80343">
        <ele>886.6</ele>
        <time>2021-05-29T13:38:55Z</time>
      </trkpt>
      <trkpt lat="45.15404" lon="5.80341">
        <ele>886.2</ele>
        <time>2021-05-29T13:38:56Z</time>
      </trkpt>
      <trkpt lat="45.15402" lon="5.80339">
        <ele>886</ele>
        <time>2021-05-29T13:38:57Z</time>
      </trkpt>
      <trkpt lat="45.15402" lon="5.80339">
        <ele>886</ele>
        <time>2021-05-29T13:38:58Z</time>
      </trkpt>
      <trkpt lat="45.15402" lon="5.80339">
        <ele>886</ele>
        <time>2021-05-29T13:38:59Z</time>
      </trkpt>
      <trkpt lat="45.154" lon="5.80338">
        <ele>886</ele>
        <time>2021-05-29T13:39:00Z</time>
      </trkpt>
      <trkpt lat="45.154" lon="5.80338">
        <ele>885.8</ele>
        <time>2021-05-29T13:39:01Z</time>
      </trkpt>
      <trkpt lat="45.15399" lon="5.80336">
        <ele>885.8</ele>
        <time>2021-05-29T13:39:02Z</time>
      </trkpt>
      <trkpt lat="45.15399" lon="5.80336">
        <ele>885.6</ele>
        <time>2021-05-29T13:39:03Z</time>
      </trkpt>
      <trkpt lat="45.15399" lon="5.80336">
        <ele>885.4</ele>
        <time>2021-05-29T13:39:04Z</time>
      </trkpt>
      <trkpt lat="45.15399" lon="5.80336">
        <ele>885.4</ele>
        <time>2021-05-29T13:39:05Z</time>
      </trkpt>
      <trkpt lat="45.15398" lon="5.80332">
        <ele>885.4</ele>
        <time>2021-05-29T13:39:06Z</time>
      </trkpt>
      <trkpt lat="45.15398" lon="5.80332">
        <ele>885.4</ele>
        <time>2021-05-29T13:39:07Z</time>
      </trkpt>
      <trkpt lat="45.15398" lon="5.80332">
        <ele>885</ele>
        <time>2021-05-29T13:39:08Z</time>
      </trkpt>
      <trkpt lat="45.15397" lon="5.8033">
        <ele>884.8</ele>
        <time>2021-05-29T13:39:09Z</time>
      </trkpt>
      <trkpt lat="45.15395" lon="5.80328">
        <ele>884.6</ele>
        <time>2021-05-29T13:39:10Z</time>
      </trkpt>
      <trkpt lat="45.15394" lon="5.80326">
        <ele>884.6</ele>
        <time>2021-05-29T13:39:11Z</time>
      </trkpt>
      <trkpt lat="45.15392" lon="5.80324">
        <ele>884.6</ele>
        <time>2021-05-29T13:39:12Z</time>
      </trkpt>
      <trkpt lat="45.15391" lon="5.80322">
        <ele>884.6</ele>
        <time>2021-05-29T13:39:13Z</time>
      </trkpt>
      <trkpt lat="45.15391" lon="5.80322">
        <ele>884.8</ele>
        <time>2021-05-29T13:39:14Z</time>
      </trkpt>
      <trkpt lat="45.1539" lon="5.8032">
        <ele>884.4</ele>
        <time>2021-05-29T13:39:15Z</time>
      </trkpt>
      <trkpt lat="45.15389" lon="5.80317">
        <ele>884.2</ele>
        <time>2021-05-29T13:39:16Z</time>
      </trkpt>
      <trkpt lat="45.15389" lon="5.80317">
        <ele>883.8</ele>
        <time>2021-05-29T13:39:17Z</time>
      </trkpt>
      <trkpt lat="45.15389" lon="5.80317">
        <ele>883.2</ele>
        <time>2021-05-29T13:39:18Z</time>
      </trkpt>
      <trkpt lat="45.15388" lon="5.80315">
        <ele>882.8</ele>
        <time>2021-05-29T13:39:19Z</time>
      </trkpt>
      <trkpt lat="45.15388" lon="5.80312">
        <ele>882.6</ele>
        <time>2021-05-29T13:39:20Z</time>
      </trkpt>
      <trkpt lat="45.15388" lon="5.80312">
        <ele>882.4</ele>
        <time>2021-05-29T13:39:21Z</time>
      </trkpt>
      <trkpt lat="45.15388" lon="5.80307">
        <ele>881.8</ele>
        <time>2021-05-29T13:39:22Z</time>
      </trkpt>
      <trkpt lat="45.15388" lon="5.80307">
        <ele>881.4</ele>
        <time>2021-05-29T13:39:23Z</time>
      </trkpt>
      <trkpt lat="45.15388" lon="5.80307">
        <ele>880.8</ele>
        <time>2021-05-29T13:39:24Z</time>
      </trkpt>
      <trkpt lat="45.15388" lon="5.80307">
        <ele>880.2</ele>
        <time>2021-05-29T13:39:25Z</time>
      </trkpt>
      <trkpt lat="45.15388" lon="5.80302">
        <ele>879.6</ele>
        <time>2021-05-29T13:39:26Z</time>
      </trkpt>
      <trkpt lat="45.15388" lon="5.80302">
        <ele>879.2</ele>
        <time>2021-05-29T13:39:27Z</time>
      </trkpt>
      <trkpt lat="45.15388" lon="5.80298">
        <ele>878.8</ele>
        <time>2021-05-29T13:39:28Z</time>
      </trkpt>
      <trkpt lat="45.15389" lon="5.80294">
        <ele>878.4</ele>
        <time>2021-05-29T13:39:29Z</time>
      </trkpt>
      <trkpt lat="45.15389" lon="5.80294">
        <ele>878.2</ele>
        <time>2021-05-29T13:39:30Z</time>
      </trkpt>
      <trkpt lat="45.15389" lon="5.80294">
        <ele>877.6</ele>
        <time>2021-05-29T13:39:31Z</time>
      </trkpt>
      <trkpt lat="45.15389" lon="5.80294">
        <ele>877.4</ele>
        <time>2021-05-29T13:39:32Z</time>
      </trkpt>
      <trkpt lat="45.15389" lon="5.80293">
        <ele>877</ele>
        <time>2021-05-29T13:39:33Z</time>
      </trkpt>
      <trkpt lat="45.15389" lon="5.80291">
        <ele>876.4</ele>
        <time>2021-05-29T13:39:34Z</time>
      </trkpt>
      <trkpt lat="45.15389" lon="5.80289">
        <ele>876</ele>
        <time>2021-05-29T13:39:35Z</time>
      </trkpt>
      <trkpt lat="45.15388" lon="5.80288">
        <ele>876</ele>
        <time>2021-05-29T13:39:36Z</time>
      </trkpt>
      <trkpt lat="45.15388" lon="5.80286">
        <ele>875.8</ele>
        <time>2021-05-29T13:39:37Z</time>
      </trkpt>
      <trkpt lat="45.15389" lon="5.80283">
        <ele>875.6</ele>
        <time>2021-05-29T13:39:38Z</time>
      </trkpt>
      <trkpt lat="45.15389" lon="5.80279">
        <ele>875.4</ele>
        <time>2021-05-29T13:39:39Z</time>
      </trkpt>
      <trkpt lat="45.15389" lon="5.80279">
        <ele>875</ele>
        <time>2021-05-29T13:39:40Z</time>
      </trkpt>
      <trkpt lat="45.1539" lon="5.80277">
        <ele>874.6</ele>
        <time>2021-05-29T13:39:41Z</time>
      </trkpt>
      <trkpt lat="45.1539" lon="5.80272">
        <ele>874.6</ele>
        <time>2021-05-29T13:39:42Z</time>
      </trkpt>
      <trkpt lat="45.1539" lon="5.80272">
        <ele>874</ele>
        <time>2021-05-29T13:39:43Z</time>
      </trkpt>
      <trkpt lat="45.1539" lon="5.80272">
        <ele>873.8</ele>
        <time>2021-05-29T13:39:44Z</time>
      </trkpt>
      <trkpt lat="45.15389" lon="5.80269">
        <ele>873.6</ele>
        <time>2021-05-29T13:39:45Z</time>
      </trkpt>
      <trkpt lat="45.15389" lon="5.80269">
        <ele>873.4</ele>
        <time>2021-05-29T13:39:46Z</time>
      </trkpt>
      <trkpt lat="45.15389" lon="5.80266">
        <ele>873.2</ele>
        <time>2021-05-29T13:39:47Z</time>
      </trkpt>
      <trkpt lat="45.15389" lon="5.80262">
        <ele>872.8</ele>
        <time>2021-05-29T13:39:48Z</time>
      </trkpt>
      <trkpt lat="45.15389" lon="5.80258">
        <ele>872.6</ele>
        <time>2021-05-29T13:39:49Z</time>
      </trkpt>
      <trkpt lat="45.15389" lon="5.80258">
        <ele>872.6</ele>
        <time>2021-05-29T13:39:50Z</time>
      </trkpt>
      <trkpt lat="45.1539" lon="5.80256">
        <ele>872.2</ele>
        <time>2021-05-29T13:39:51Z</time>
      </trkpt>
      <trkpt lat="45.1539" lon="5.80256">
        <ele>872</ele>
        <time>2021-05-29T13:39:52Z</time>
      </trkpt>
      <trkpt lat="45.15391" lon="5.80251">
        <ele>872</ele>
        <time>2021-05-29T13:39:53Z</time>
      </trkpt>
      <trkpt lat="45.15391" lon="5.80251">
        <ele>871.8</ele>
        <time>2021-05-29T13:39:54Z</time>
      </trkpt>
      <trkpt lat="45.15392" lon="5.80248">
        <ele>871.8</ele>
        <time>2021-05-29T13:39:55Z</time>
      </trkpt>
      <trkpt lat="45.15392" lon="5.80248">
        <ele>871.8</ele>
        <time>2021-05-29T13:39:56Z</time>
      </trkpt>
      <trkpt lat="45.15393" lon="5.80243">
        <ele>871.6</ele>
        <time>2021-05-29T13:39:57Z</time>
      </trkpt>
      <trkpt lat="45.15394" lon="5.80239">
        <ele>871.8</ele>
        <time>2021-05-29T13:39:58Z</time>
      </trkpt>
      <trkpt lat="45.15394" lon="5.80235">
        <ele>871.6</ele>
        <time>2021-05-29T13:40:00Z</time>
      </trkpt>
      <trkpt lat="45.15394" lon="5.80235">
        <ele>871.6</ele>
        <time>2021-05-29T13:40:01Z</time>
      </trkpt>
      <trkpt lat="45.15394" lon="5.80235">
        <ele>871.4</ele>
        <time>2021-05-29T13:40:02Z</time>
      </trkpt>
      <trkpt lat="45.15395" lon="5.80231">
        <ele>871.2</ele>
        <time>2021-05-29T13:40:03Z</time>
      </trkpt>
      <trkpt lat="45.15397" lon="5.80227">
        <ele>871</ele>
        <time>2021-05-29T13:40:04Z</time>
      </trkpt>
      <trkpt lat="45.15398" lon="5.80225">
        <ele>870.8</ele>
        <time>2021-05-29T13:40:05Z</time>
      </trkpt>
      <trkpt lat="45.15398" lon="5.80225">
        <ele>870.6</ele>
        <time>2021-05-29T13:40:06Z</time>
      </trkpt>
      <trkpt lat="45.15401" lon="5.80222">
        <ele>870.6</ele>
        <time>2021-05-29T13:40:07Z</time>
      </trkpt>
      <trkpt lat="45.15401" lon="5.80222">
        <ele>870.2</ele>
        <time>2021-05-29T13:40:08Z</time>
      </trkpt>
      <trkpt lat="45.15401" lon="5.80222">
        <ele>869.8</ele>
        <time>2021-05-29T13:40:09Z</time>
      </trkpt>
      <trkpt lat="45.15402" lon="5.80219">
        <ele>869.6</ele>
        <time>2021-05-29T13:40:10Z</time>
      </trkpt>
      <trkpt lat="45.15404" lon="5.80216">
        <ele>869.4</ele>
        <time>2021-05-29T13:40:11Z</time>
      </trkpt>
      <trkpt lat="45.15404" lon="5.80216">
        <ele>869</ele>
        <time>2021-05-29T13:40:12Z</time>
      </trkpt>
      <trkpt lat="45.15404" lon="5.80216">
        <ele>868.6</ele>
        <time>2021-05-29T13:40:13Z</time>
      </trkpt>
      <trkpt lat="45.15406" lon="5.80213">
        <ele>868.2</ele>
        <time>2021-05-29T13:40:14Z</time>
      </trkpt>
      <trkpt lat="45.15406" lon="5.80213">
        <ele>867.4</ele>
        <time>2021-05-29T13:40:15Z</time>
      </trkpt>
      <trkpt lat="45.15407" lon="5.8021">
        <ele>866.8</ele>
        <time>2021-05-29T13:40:16Z</time>
      </trkpt>
      <trkpt lat="45.15407" lon="5.8021">
        <ele>866.2</ele>
        <time>2021-05-29T13:40:17Z</time>
      </trkpt>
      <trkpt lat="45.15408" lon="5.80207">
        <ele>865.4</ele>
        <time>2021-05-29T13:40:18Z</time>
      </trkpt>
      <trkpt lat="45.15409" lon="5.80204">
        <ele>864.8</ele>
        <time>2021-05-29T13:40:19Z</time>
      </trkpt>
      <trkpt lat="45.1541" lon="5.80201">
        <ele>864.2</ele>
        <time>2021-05-29T13:40:20Z</time>
      </trkpt>
      <trkpt lat="45.15411" lon="5.80198">
        <ele>863.4</ele>
        <time>2021-05-29T13:40:21Z</time>
      </trkpt>
      <trkpt lat="45.15412" lon="5.80197">
        <ele>862.4</ele>
        <time>2021-05-29T13:40:22Z</time>
      </trkpt>
      <trkpt lat="45.15412" lon="5.80196">
        <ele>861.8</ele>
        <time>2021-05-29T13:40:23Z</time>
      </trkpt>
      <trkpt lat="45.15412" lon="5.80195">
        <ele>861.8</ele>
        <time>2021-05-29T13:40:24Z</time>
      </trkpt>
      <trkpt lat="45.15412" lon="5.80195">
        <ele>861.4</ele>
        <time>2021-05-29T13:40:25Z</time>
      </trkpt>
      <trkpt lat="45.15412" lon="5.80195">
        <ele>861.2</ele>
        <time>2021-05-29T13:40:26Z</time>
      </trkpt>
      <trkpt lat="45.15412" lon="5.80191">
        <ele>860.6</ele>
        <time>2021-05-29T13:40:27Z</time>
      </trkpt>
      <trkpt lat="45.15413" lon="5.80187">
        <ele>859.8</ele>
        <time>2021-05-29T13:40:28Z</time>
      </trkpt>
      <trkpt lat="45.15413" lon="5.80183">
        <ele>859.6</ele>
        <time>2021-05-29T13:40:29Z</time>
      </trkpt>
      <trkpt lat="45.15413" lon="5.80179">
        <ele>859.2</ele>
        <time>2021-05-29T13:40:30Z</time>
      </trkpt>
      <trkpt lat="45.15414" lon="5.80175">
        <ele>858.8</ele>
        <time>2021-05-29T13:40:31Z</time>
      </trkpt>
      <trkpt lat="45.15414" lon="5.80173">
        <ele>858.2</ele>
        <time>2021-05-29T13:40:32Z</time>
      </trkpt>
      <trkpt lat="45.15415" lon="5.80171">
        <ele>857.8</ele>
        <time>2021-05-29T13:40:33Z</time>
      </trkpt>
      <trkpt lat="45.15416" lon="5.80169">
        <ele>858</ele>
        <time>2021-05-29T13:40:34Z</time>
      </trkpt>
      <trkpt lat="45.15418" lon="5.80167">
        <ele>857.4</ele>
        <time>2021-05-29T13:40:35Z</time>
      </trkpt>
      <trkpt lat="45.15419" lon="5.80165">
        <ele>857</ele>
        <time>2021-05-29T13:40:36Z</time>
      </trkpt>
      <trkpt lat="45.1542" lon="5.80163">
        <ele>856.2</ele>
        <time>2021-05-29T13:40:37Z</time>
      </trkpt>
      <trkpt lat="45.15421" lon="5.80161">
        <ele>856</ele>
        <time>2021-05-29T13:40:38Z</time>
      </trkpt>
      <trkpt lat="45.15422" lon="5.8016">
        <ele>855.8</ele>
        <time>2021-05-29T13:40:39Z</time>
      </trkpt>
      <trkpt lat="45.15423" lon="5.80158">
        <ele>855.6</ele>
        <time>2021-05-29T13:40:40Z</time>
      </trkpt>
      <trkpt lat="45.15424" lon="5.80156">
        <ele>855</ele>
        <time>2021-05-29T13:40:41Z</time>
      </trkpt>
      <trkpt lat="45.15425" lon="5.80154">
        <ele>854.8</ele>
        <time>2021-05-29T13:40:42Z</time>
      </trkpt>
      <trkpt lat="45.15427" lon="5.80152">
        <ele>855</ele>
        <time>2021-05-29T13:40:43Z</time>
      </trkpt>
      <trkpt lat="45.15427" lon="5.80151">
        <ele>855</ele>
        <time>2021-05-29T13:40:44Z</time>
      </trkpt>
      <trkpt lat="45.15427" lon="5.8015">
        <ele>855.2</ele>
        <time>2021-05-29T13:40:45Z</time>
      </trkpt>
      <trkpt lat="45.15428" lon="5.80149">
        <ele>855.2</ele>
        <time>2021-05-29T13:40:46Z</time>
      </trkpt>
      <trkpt lat="45.15428" lon="5.80149">
        <ele>854.8</ele>
        <time>2021-05-29T13:40:47Z</time>
      </trkpt>
      <trkpt lat="45.15428" lon="5.80149">
        <ele>854.6</ele>
        <time>2021-05-29T13:40:48Z</time>
      </trkpt>
      <trkpt lat="45.15428" lon="5.80146">
        <ele>854</ele>
        <time>2021-05-29T13:40:49Z</time>
      </trkpt>
      <trkpt lat="45.15429" lon="5.80143">
        <ele>853.8</ele>
        <time>2021-05-29T13:40:50Z</time>
      </trkpt>
      <trkpt lat="45.15429" lon="5.80141">
        <ele>854</ele>
        <time>2021-05-29T13:40:51Z</time>
      </trkpt>
      <trkpt lat="45.15429" lon="5.80138">
        <ele>854</ele>
        <time>2021-05-29T13:40:52Z</time>
      </trkpt>
      <trkpt lat="45.1543" lon="5.80135">
        <ele>854</ele>
        <time>2021-05-29T13:40:53Z</time>
      </trkpt>
      <trkpt lat="45.1543" lon="5.80133">
        <ele>853.6</ele>
        <time>2021-05-29T13:40:54Z</time>
      </trkpt>
      <trkpt lat="45.15431" lon="5.8013">
        <ele>853.2</ele>
        <time>2021-05-29T13:40:55Z</time>
      </trkpt>
      <trkpt lat="45.15431" lon="5.80127">
        <ele>852.2</ele>
        <time>2021-05-29T13:40:56Z</time>
      </trkpt>
      <trkpt lat="45.15432" lon="5.80124">
        <ele>852</ele>
        <time>2021-05-29T13:40:57Z</time>
      </trkpt>
      <trkpt lat="45.15434" lon="5.8012">
        <ele>852.4</ele>
        <time>2021-05-29T13:40:58Z</time>
      </trkpt>
      <trkpt lat="45.15436" lon="5.80119">
        <ele>852.4</ele>
        <time>2021-05-29T13:40:59Z</time>
      </trkpt>
      <trkpt lat="45.15437" lon="5.80118">
        <ele>852.4</ele>
        <time>2021-05-29T13:41:00Z</time>
      </trkpt>
      <trkpt lat="45.15438" lon="5.80118">
        <ele>852</ele>
        <time>2021-05-29T13:41:01Z</time>
      </trkpt>
      <trkpt lat="45.1544" lon="5.80117">
        <ele>851.6</ele>
        <time>2021-05-29T13:41:02Z</time>
      </trkpt>
      <trkpt lat="45.1544" lon="5.80117">
        <ele>851.4</ele>
        <time>2021-05-29T13:41:03Z</time>
      </trkpt>
      <trkpt lat="45.15441" lon="5.80117">
        <ele>851.4</ele>
        <time>2021-05-29T13:41:04Z</time>
      </trkpt>
      <trkpt lat="45.15441" lon="5.80117">
        <ele>851.4</ele>
        <time>2021-05-29T13:41:05Z</time>
      </trkpt>
      <trkpt lat="45.15443" lon="5.80118">
        <ele>851.4</ele>
        <time>2021-05-29T13:41:06Z</time>
      </trkpt>
      <trkpt lat="45.15443" lon="5.80118">
        <ele>851.2</ele>
        <time>2021-05-29T13:41:07Z</time>
      </trkpt>
      <trkpt lat="45.15443" lon="5.80118">
        <ele>851</ele>
        <time>2021-05-29T13:41:08Z</time>
      </trkpt>
      <trkpt lat="45.15443" lon="5.80121">
        <ele>850.8</ele>
        <time>2021-05-29T13:41:09Z</time>
      </trkpt>
      <trkpt lat="45.15443" lon="5.80121">
        <ele>850.4</ele>
        <time>2021-05-29T13:41:10Z</time>
      </trkpt>
      <trkpt lat="45.15443" lon="5.80121">
        <ele>850</ele>
        <time>2021-05-29T13:41:11Z</time>
      </trkpt>
      <trkpt lat="45.15444" lon="5.80122">
        <ele>849.6</ele>
        <time>2021-05-29T13:41:12Z</time>
      </trkpt>
      <trkpt lat="45.15445" lon="5.80123">
        <ele>849.4</ele>
        <time>2021-05-29T13:41:13Z</time>
      </trkpt>
      <trkpt lat="45.15446" lon="5.80124">
        <ele>849</ele>
        <time>2021-05-29T13:41:14Z</time>
      </trkpt>
      <trkpt lat="45.15447" lon="5.80125">
        <ele>848.6</ele>
        <time>2021-05-29T13:41:15Z</time>
      </trkpt>
      <trkpt lat="45.15447" lon="5.80126">
        <ele>848</ele>
        <time>2021-05-29T13:41:16Z</time>
      </trkpt>
      <trkpt lat="45.15448" lon="5.80127">
        <ele>847.6</ele>
        <time>2021-05-29T13:41:17Z</time>
      </trkpt>
      <trkpt lat="45.15451" lon="5.8013">
        <ele>846.8</ele>
        <time>2021-05-29T13:41:18Z</time>
      </trkpt>
      <trkpt lat="45.15451" lon="5.8013">
        <ele>846.4</ele>
        <time>2021-05-29T13:41:19Z</time>
      </trkpt>
      <trkpt lat="45.15451" lon="5.8013">
        <ele>846.2</ele>
        <time>2021-05-29T13:41:20Z</time>
      </trkpt>
      <trkpt lat="45.15453" lon="5.80131">
        <ele>845.8</ele>
        <time>2021-05-29T13:41:21Z</time>
      </trkpt>
      <trkpt lat="45.15454" lon="5.80133">
        <ele>845.4</ele>
        <time>2021-05-29T13:41:22Z</time>
      </trkpt>
      <trkpt lat="45.15455" lon="5.80134">
        <ele>845</ele>
        <time>2021-05-29T13:41:23Z</time>
      </trkpt>
      <trkpt lat="45.15456" lon="5.80136">
        <ele>844.2</ele>
        <time>2021-05-29T13:41:24Z</time>
      </trkpt>
      <trkpt lat="45.15457" lon="5.80137">
        <ele>843.6</ele>
        <time>2021-05-29T13:41:25Z</time>
      </trkpt>
      <trkpt lat="45.15459" lon="5.80138">
        <ele>843</ele>
        <time>2021-05-29T13:41:26Z</time>
      </trkpt>
      <trkpt lat="45.1546" lon="5.8014">
        <ele>843</ele>
        <time>2021-05-29T13:41:27Z</time>
      </trkpt>
      <trkpt lat="45.15461" lon="5.80142">
        <ele>842.6</ele>
        <time>2021-05-29T13:41:28Z</time>
      </trkpt>
      <trkpt lat="45.15462" lon="5.80144">
        <ele>842.2</ele>
        <time>2021-05-29T13:41:29Z</time>
      </trkpt>
      <trkpt lat="45.15463" lon="5.80146">
        <ele>841.6</ele>
        <time>2021-05-29T13:41:30Z</time>
      </trkpt>
      <trkpt lat="45.15464" lon="5.80148">
        <ele>840.6</ele>
        <time>2021-05-29T13:41:31Z</time>
      </trkpt>
      <trkpt lat="45.15465" lon="5.80149">
        <ele>840.6</ele>
        <time>2021-05-29T13:41:32Z</time>
      </trkpt>
      <trkpt lat="45.15466" lon="5.80151">
        <ele>840.2</ele>
        <time>2021-05-29T13:41:33Z</time>
      </trkpt>
      <trkpt lat="45.15467" lon="5.80152">
        <ele>840</ele>
        <time>2021-05-29T13:41:34Z</time>
      </trkpt>
      <trkpt lat="45.15468" lon="5.80154">
        <ele>839.6</ele>
        <time>2021-05-29T13:41:35Z</time>
      </trkpt>
      <trkpt lat="45.1547" lon="5.80155">
        <ele>838.8</ele>
        <time>2021-05-29T13:41:36Z</time>
      </trkpt>
      <trkpt lat="45.15471" lon="5.80157">
        <ele>838.8</ele>
        <time>2021-05-29T13:41:37Z</time>
      </trkpt>
      <trkpt lat="45.15472" lon="5.80158">
        <ele>838.4</ele>
        <time>2021-05-29T13:41:38Z</time>
      </trkpt>
      <trkpt lat="45.15473" lon="5.80159">
        <ele>838</ele>
        <time>2021-05-29T13:41:39Z</time>
      </trkpt>
      <trkpt lat="45.15474" lon="5.80161">
        <ele>837.8</ele>
        <time>2021-05-29T13:41:40Z</time>
      </trkpt>
      <trkpt lat="45.15475" lon="5.80162">
        <ele>837.6</ele>
        <time>2021-05-29T13:41:41Z</time>
      </trkpt>
      <trkpt lat="45.15476" lon="5.80163">
        <ele>837.2</ele>
        <time>2021-05-29T13:41:42Z</time>
      </trkpt>
      <trkpt lat="45.15477" lon="5.80164">
        <ele>836.6</ele>
        <time>2021-05-29T13:41:43Z</time>
      </trkpt>
      <trkpt lat="45.15478" lon="5.80165">
        <ele>835.6</ele>
        <time>2021-05-29T13:41:44Z</time>
      </trkpt>
      <trkpt lat="45.15479" lon="5.80166">
        <ele>835.6</ele>
        <time>2021-05-29T13:41:45Z</time>
      </trkpt>
      <trkpt lat="45.1548" lon="5.80167">
        <ele>835.2</ele>
        <time>2021-05-29T13:41:46Z</time>
      </trkpt>
      <trkpt lat="45.15481" lon="5.80167">
        <ele>835</ele>
        <time>2021-05-29T13:41:47Z</time>
      </trkpt>
      <trkpt lat="45.15482" lon="5.80168">
        <ele>834.4</ele>
        <time>2021-05-29T13:41:48Z</time>
      </trkpt>
      <trkpt lat="45.15484" lon="5.80169">
        <ele>833.8</ele>
        <time>2021-05-29T13:41:49Z</time>
      </trkpt>
      <trkpt lat="45.15485" lon="5.8017">
        <ele>833.6</ele>
        <time>2021-05-29T13:41:50Z</time>
      </trkpt>
      <trkpt lat="45.15486" lon="5.80171">
        <ele>833.4</ele>
        <time>2021-05-29T13:41:51Z</time>
      </trkpt>
      <trkpt lat="45.15487" lon="5.80171">
        <ele>832.6</ele>
        <time>2021-05-29T13:41:52Z</time>
      </trkpt>
      <trkpt lat="45.15488" lon="5.80172">
        <ele>832.6</ele>
        <time>2021-05-29T13:41:53Z</time>
      </trkpt>
      <trkpt lat="45.15488" lon="5.80173">
        <ele>832.2</ele>
        <time>2021-05-29T13:41:54Z</time>
      </trkpt>
      <trkpt lat="45.15489" lon="5.80174">
        <ele>832</ele>
        <time>2021-05-29T13:41:55Z</time>
      </trkpt>
      <trkpt lat="45.1549" lon="5.80175">
        <ele>831.6</ele>
        <time>2021-05-29T13:41:56Z</time>
      </trkpt>
      <trkpt lat="45.15491" lon="5.80176">
        <ele>830.6</ele>
        <time>2021-05-29T13:41:57Z</time>
      </trkpt>
      <trkpt lat="45.15492" lon="5.80176">
        <ele>830.8</ele>
        <time>2021-05-29T13:41:58Z</time>
      </trkpt>
      <trkpt lat="45.15493" lon="5.80176">
        <ele>830.4</ele>
        <time>2021-05-29T13:41:59Z</time>
      </trkpt>
      <trkpt lat="45.15494" lon="5.80177">
        <ele>830.4</ele>
        <time>2021-05-29T13:42:00Z</time>
      </trkpt>
      <trkpt lat="45.15495" lon="5.80177">
        <ele>830</ele>
        <time>2021-05-29T13:42:01Z</time>
      </trkpt>
      <trkpt lat="45.15496" lon="5.80177">
        <ele>829.4</ele>
        <time>2021-05-29T13:42:02Z</time>
      </trkpt>
      <trkpt lat="45.15497" lon="5.80177">
        <ele>829.2</ele>
        <time>2021-05-29T13:42:03Z</time>
      </trkpt>
      <trkpt lat="45.15498" lon="5.80178">
        <ele>828.6</ele>
        <time>2021-05-29T13:42:04Z</time>
      </trkpt>
      <trkpt lat="45.155" lon="5.80178">
        <ele>828.8</ele>
        <time>2021-05-29T13:42:05Z</time>
      </trkpt>
      <trkpt lat="45.15501" lon="5.80179">
        <ele>828.4</ele>
        <time>2021-05-29T13:42:06Z</time>
      </trkpt>
      <trkpt lat="45.15502" lon="5.80179">
        <ele>828</ele>
        <time>2021-05-29T13:42:07Z</time>
      </trkpt>
      <trkpt lat="45.15503" lon="5.8018">
        <ele>827.4</ele>
        <time>2021-05-29T13:42:08Z</time>
      </trkpt>
      <trkpt lat="45.15505" lon="5.80181">
        <ele>826.8</ele>
        <time>2021-05-29T13:42:09Z</time>
      </trkpt>
      <trkpt lat="45.15508" lon="5.80182">
        <ele>827</ele>
        <time>2021-05-29T13:42:10Z</time>
      </trkpt>
      <trkpt lat="45.15511" lon="5.80182">
        <ele>826.8</ele>
        <time>2021-05-29T13:42:11Z</time>
      </trkpt>
      <trkpt lat="45.15514" lon="5.80183">
        <ele>827</ele>
        <time>2021-05-29T13:42:12Z</time>
      </trkpt>
      <trkpt lat="45.15517" lon="5.80184">
        <ele>826.4</ele>
        <time>2021-05-29T13:42:13Z</time>
      </trkpt>
      <trkpt lat="45.15519" lon="5.80185">
        <ele>826.2</ele>
        <time>2021-05-29T13:42:14Z</time>
      </trkpt>
      <trkpt lat="45.1552" lon="5.80185">
        <ele>825.8</ele>
        <time>2021-05-29T13:42:15Z</time>
      </trkpt>
      <trkpt lat="45.15521" lon="5.80185">
        <ele>825.2</ele>
        <time>2021-05-29T13:42:16Z</time>
      </trkpt>
      <trkpt lat="45.15522" lon="5.80185">
        <ele>825.2</ele>
        <time>2021-05-29T13:42:17Z</time>
      </trkpt>
      <trkpt lat="45.15523" lon="5.80186">
        <ele>824.8</ele>
        <time>2021-05-29T13:42:18Z</time>
      </trkpt>
      <trkpt lat="45.15523" lon="5.80186">
        <ele>824.6</ele>
        <time>2021-05-29T13:42:19Z</time>
      </trkpt>
      <trkpt lat="45.15523" lon="5.80186">
        <ele>823.8</ele>
        <time>2021-05-29T13:42:20Z</time>
      </trkpt>
      <trkpt lat="45.15525" lon="5.80187">
        <ele>823.8</ele>
        <time>2021-05-29T13:42:21Z</time>
      </trkpt>
      <trkpt lat="45.15527" lon="5.80188">
        <ele>823.4</ele>
        <time>2021-05-29T13:42:22Z</time>
      </trkpt>
      <trkpt lat="45.15529" lon="5.80189">
        <ele>822.8</ele>
        <time>2021-05-29T13:42:23Z</time>
      </trkpt>
      <trkpt lat="45.1553" lon="5.8019">
        <ele>822.6</ele>
        <time>2021-05-29T13:42:24Z</time>
      </trkpt>
      <trkpt lat="45.15532" lon="5.80192">
        <ele>821.8</ele>
        <time>2021-05-29T13:42:25Z</time>
      </trkpt>
      <trkpt lat="45.15534" lon="5.80193">
        <ele>822.2</ele>
        <time>2021-05-29T13:42:26Z</time>
      </trkpt>
      <trkpt lat="45.15535" lon="5.80194">
        <ele>821.8</ele>
        <time>2021-05-29T13:42:27Z</time>
      </trkpt>
      <trkpt lat="45.15537" lon="5.80194">
        <ele>822.4</ele>
        <time>2021-05-29T13:42:28Z</time>
      </trkpt>
      <trkpt lat="45.15539" lon="5.80195">
        <ele>822.2</ele>
        <time>2021-05-29T13:42:29Z</time>
      </trkpt>
      <trkpt lat="45.15539" lon="5.80195">
        <ele>822.6</ele>
        <time>2021-05-29T13:42:30Z</time>
      </trkpt>
      <trkpt lat="45.15539" lon="5.80195">
        <ele>822.2</ele>
        <time>2021-05-29T13:42:31Z</time>
      </trkpt>
      <trkpt lat="45.15541" lon="5.80196">
        <ele>822.4</ele>
        <time>2021-05-29T13:42:32Z</time>
      </trkpt>
      <trkpt lat="45.15543" lon="5.80198">
        <ele>822</ele>
        <time>2021-05-29T13:42:33Z</time>
      </trkpt>
      <trkpt lat="45.15545" lon="5.80199">
        <ele>822</ele>
        <time>2021-05-29T13:42:34Z</time>
      </trkpt>
      <trkpt lat="45.15547" lon="5.802">
        <ele>821.8</ele>
        <time>2021-05-29T13:42:35Z</time>
      </trkpt>
      <trkpt lat="45.15553" lon="5.80204">
        <ele>821.6</ele>
        <time>2021-05-29T13:42:36Z</time>
      </trkpt>
      <trkpt lat="45.15555" lon="5.80205">
        <ele>821.4</ele>
        <time>2021-05-29T13:42:37Z</time>
      </trkpt>
      <trkpt lat="45.15557" lon="5.80207">
        <ele>821.4</ele>
        <time>2021-05-29T13:42:38Z</time>
      </trkpt>
      <trkpt lat="45.15559" lon="5.80208">
        <ele>821.4</ele>
        <time>2021-05-29T13:42:39Z</time>
      </trkpt>
      <trkpt lat="45.15561" lon="5.80209">
        <ele>821</ele>
        <time>2021-05-29T13:42:40Z</time>
      </trkpt>
      <trkpt lat="45.15563" lon="5.8021">
        <ele>820.8</ele>
        <time>2021-05-29T13:42:41Z</time>
      </trkpt>
      <trkpt lat="45.15564" lon="5.8021">
        <ele>820.4</ele>
        <time>2021-05-29T13:42:42Z</time>
      </trkpt>
      <trkpt lat="45.15565" lon="5.80211">
        <ele>821</ele>
        <time>2021-05-29T13:42:43Z</time>
      </trkpt>
      <trkpt lat="45.15566" lon="5.80212">
        <ele>821</ele>
        <time>2021-05-29T13:42:44Z</time>
      </trkpt>
      <trkpt lat="45.15568" lon="5.80213">
        <ele>821.4</ele>
        <time>2021-05-29T13:42:45Z</time>
      </trkpt>
      <trkpt lat="45.15568" lon="5.80213">
        <ele>821.2</ele>
        <time>2021-05-29T13:42:46Z</time>
      </trkpt>
      <trkpt lat="45.15568" lon="5.80213">
        <ele>821.4</ele>
        <time>2021-05-29T13:42:47Z</time>
      </trkpt>
      <trkpt lat="45.1557" lon="5.80214">
        <ele>821.4</ele>
        <time>2021-05-29T13:42:48Z</time>
      </trkpt>
      <trkpt lat="45.15572" lon="5.80216">
        <ele>821.8</ele>
        <time>2021-05-29T13:42:49Z</time>
      </trkpt>
      <trkpt lat="45.15574" lon="5.80217">
        <ele>821.8</ele>
        <time>2021-05-29T13:42:50Z</time>
      </trkpt>
      <trkpt lat="45.15576" lon="5.80218">
        <ele>821.8</ele>
        <time>2021-05-29T13:42:51Z</time>
      </trkpt>
      <trkpt lat="45.15578" lon="5.80219">
        <ele>821.6</ele>
        <time>2021-05-29T13:42:52Z</time>
      </trkpt>
      <trkpt lat="45.1558" lon="5.80221">
        <ele>821.8</ele>
        <time>2021-05-29T13:42:53Z</time>
      </trkpt>
      <trkpt lat="45.15581" lon="5.80222">
        <ele>821.8</ele>
        <time>2021-05-29T13:42:54Z</time>
      </trkpt>
      <trkpt lat="45.15583" lon="5.80224">
        <ele>822</ele>
        <time>2021-05-29T13:42:55Z</time>
      </trkpt>
      <trkpt lat="45.15585" lon="5.80225">
        <ele>822.2</ele>
        <time>2021-05-29T13:42:56Z</time>
      </trkpt>
      <trkpt lat="45.15587" lon="5.80227">
        <ele>821.8</ele>
        <time>2021-05-29T13:42:57Z</time>
      </trkpt>
      <trkpt lat="45.15588" lon="5.80228">
        <ele>822</ele>
        <time>2021-05-29T13:42:58Z</time>
      </trkpt>
      <trkpt lat="45.1559" lon="5.80229">
        <ele>821.8</ele>
        <time>2021-05-29T13:42:59Z</time>
      </trkpt>
      <trkpt lat="45.15592" lon="5.8023">
        <ele>821.6</ele>
        <time>2021-05-29T13:43:00Z</time>
      </trkpt>
      <trkpt lat="45.15594" lon="5.80232">
        <ele>821.2</ele>
        <time>2021-05-29T13:43:01Z</time>
      </trkpt>
      <trkpt lat="45.15595" lon="5.80233">
        <ele>820.6</ele>
        <time>2021-05-29T13:43:02Z</time>
      </trkpt>
      <trkpt lat="45.15597" lon="5.80234">
        <ele>820.8</ele>
        <time>2021-05-29T13:43:03Z</time>
      </trkpt>
      <trkpt lat="45.15598" lon="5.80235">
        <ele>820.8</ele>
        <time>2021-05-29T13:43:04Z</time>
      </trkpt>
      <trkpt lat="45.156" lon="5.80236">
        <ele>820.8</ele>
        <time>2021-05-29T13:43:05Z</time>
      </trkpt>
      <trkpt lat="45.15601" lon="5.80237">
        <ele>820.6</ele>
        <time>2021-05-29T13:43:06Z</time>
      </trkpt>
      <trkpt lat="45.15602" lon="5.80238">
        <ele>820.2</ele>
        <time>2021-05-29T13:43:07Z</time>
      </trkpt>
      <trkpt lat="45.15604" lon="5.80239">
        <ele>819.4</ele>
        <time>2021-05-29T13:43:08Z</time>
      </trkpt>
      <trkpt lat="45.15605" lon="5.8024">
        <ele>818.6</ele>
        <time>2021-05-29T13:43:09Z</time>
      </trkpt>
      <trkpt lat="45.15607" lon="5.8024">
        <ele>818.8</ele>
        <time>2021-05-29T13:43:10Z</time>
      </trkpt>
      <trkpt lat="45.15608" lon="5.80241">
        <ele>818.6</ele>
        <time>2021-05-29T13:43:11Z</time>
      </trkpt>
      <trkpt lat="45.1561" lon="5.80241">
        <ele>818.6</ele>
        <time>2021-05-29T13:43:12Z</time>
      </trkpt>
      <trkpt lat="45.15611" lon="5.80242">
        <ele>818</ele>
        <time>2021-05-29T13:43:13Z</time>
      </trkpt>
      <trkpt lat="45.15613" lon="5.80242">
        <ele>817.6</ele>
        <time>2021-05-29T13:43:14Z</time>
      </trkpt>
      <trkpt lat="45.15615" lon="5.80243">
        <ele>816.6</ele>
        <time>2021-05-29T13:43:15Z</time>
      </trkpt>
      <trkpt lat="45.15617" lon="5.80244">
        <ele>816.4</ele>
        <time>2021-05-29T13:43:16Z</time>
      </trkpt>
      <trkpt lat="45.15619" lon="5.80246">
        <ele>815.6</ele>
        <time>2021-05-29T13:43:17Z</time>
      </trkpt>
      <trkpt lat="45.15621" lon="5.80247">
        <ele>815.4</ele>
        <time>2021-05-29T13:43:18Z</time>
      </trkpt>
      <trkpt lat="45.15623" lon="5.80248">
        <ele>814.4</ele>
        <time>2021-05-29T13:43:19Z</time>
      </trkpt>
      <trkpt lat="45.15625" lon="5.80248">
        <ele>813.8</ele>
        <time>2021-05-29T13:43:20Z</time>
      </trkpt>
      <trkpt lat="45.15626" lon="5.80248">
        <ele>813.4</ele>
        <time>2021-05-29T13:43:21Z</time>
      </trkpt>
      <trkpt lat="45.15628" lon="5.80248">
        <ele>813</ele>
        <time>2021-05-29T13:43:22Z</time>
      </trkpt>
      <trkpt lat="45.1563" lon="5.80248">
        <ele>812.2</ele>
        <time>2021-05-29T13:43:23Z</time>
      </trkpt>
      <trkpt lat="45.15632" lon="5.80248">
        <ele>811.8</ele>
        <time>2021-05-29T13:43:24Z</time>
      </trkpt>
      <trkpt lat="45.15634" lon="5.80247">
        <ele>811</ele>
        <time>2021-05-29T13:43:25Z</time>
      </trkpt>
      <trkpt lat="45.15636" lon="5.80247">
        <ele>810.6</ele>
        <time>2021-05-29T13:43:26Z</time>
      </trkpt>
      <trkpt lat="45.15637" lon="5.80246">
        <ele>809.8</ele>
        <time>2021-05-29T13:43:27Z</time>
      </trkpt>
      <trkpt lat="45.15639" lon="5.80245">
        <ele>809</ele>
        <time>2021-05-29T13:43:28Z</time>
      </trkpt>
      <trkpt lat="45.15641" lon="5.80244">
        <ele>808.4</ele>
        <time>2021-05-29T13:43:29Z</time>
      </trkpt>
      <trkpt lat="45.15642" lon="5.80244">
        <ele>807.8</ele>
        <time>2021-05-29T13:43:30Z</time>
      </trkpt>
      <trkpt lat="45.15644" lon="5.80243">
        <ele>807.2</ele>
        <time>2021-05-29T13:43:31Z</time>
      </trkpt>
      <trkpt lat="45.15646" lon="5.80242">
        <ele>806.6</ele>
        <time>2021-05-29T13:43:32Z</time>
      </trkpt>
      <trkpt lat="45.15648" lon="5.80241">
        <ele>805.8</ele>
        <time>2021-05-29T13:43:33Z</time>
      </trkpt>
      <trkpt lat="45.1565" lon="5.80241">
        <ele>805.4</ele>
        <time>2021-05-29T13:43:34Z</time>
      </trkpt>
      <trkpt lat="45.15651" lon="5.8024">
        <ele>804.6</ele>
        <time>2021-05-29T13:43:35Z</time>
      </trkpt>
      <trkpt lat="45.15654" lon="5.80239">
        <ele>803.6</ele>
        <time>2021-05-29T13:43:36Z</time>
      </trkpt>
      <trkpt lat="45.15656" lon="5.80237">
        <ele>803.6</ele>
        <time>2021-05-29T13:43:37Z</time>
      </trkpt>
      <trkpt lat="45.15659" lon="5.80236">
        <ele>803.2</ele>
        <time>2021-05-29T13:43:38Z</time>
      </trkpt>
      <trkpt lat="45.15661" lon="5.80234">
        <ele>803</ele>
        <time>2021-05-29T13:43:39Z</time>
      </trkpt>
      <trkpt lat="45.15663" lon="5.80233">
        <ele>802.4</ele>
        <time>2021-05-29T13:43:40Z</time>
      </trkpt>
      <trkpt lat="45.15666" lon="5.80231">
        <ele>801.8</ele>
        <time>2021-05-29T13:43:41Z</time>
      </trkpt>
      <trkpt lat="45.15666" lon="5.80231">
        <ele>801.2</ele>
        <time>2021-05-29T13:43:42Z</time>
      </trkpt>
      <trkpt lat="45.15666" lon="5.80231">
        <ele>800.8</ele>
        <time>2021-05-29T13:43:43Z</time>
      </trkpt>
      <trkpt lat="45.15667" lon="5.80231">
        <ele>799.8</ele>
        <time>2021-05-29T13:43:44Z</time>
      </trkpt>
      <trkpt lat="45.15669" lon="5.8023">
        <ele>799</ele>
        <time>2021-05-29T13:43:45Z</time>
      </trkpt>
      <trkpt lat="45.1567" lon="5.8023">
        <ele>799</ele>
        <time>2021-05-29T13:43:46Z</time>
      </trkpt>
      <trkpt lat="45.15672" lon="5.80229">
        <ele>798</ele>
        <time>2021-05-29T13:43:47Z</time>
      </trkpt>
      <trkpt lat="45.15674" lon="5.80228">
        <ele>798.2</ele>
        <time>2021-05-29T13:43:48Z</time>
      </trkpt>
      <trkpt lat="45.15675" lon="5.80228">
        <ele>797.8</ele>
        <time>2021-05-29T13:43:49Z</time>
      </trkpt>
      <trkpt lat="45.15676" lon="5.80224">
        <ele>797.6</ele>
        <time>2021-05-29T13:43:50Z</time>
      </trkpt>
      <trkpt lat="45.15676" lon="5.80224">
        <ele>796.8</ele>
        <time>2021-05-29T13:43:51Z</time>
      </trkpt>
      <trkpt lat="45.15676" lon="5.80224">
        <ele>796</ele>
        <time>2021-05-29T13:43:52Z</time>
      </trkpt>
      <trkpt lat="45.15676" lon="5.80224">
        <ele>796.2</ele>
        <time>2021-05-29T13:43:53Z</time>
      </trkpt>
      <trkpt lat="45.15677" lon="5.80221">
        <ele>795.6</ele>
        <time>2021-05-29T13:43:54Z</time>
      </trkpt>
      <trkpt lat="45.15677" lon="5.80219">
        <ele>795.4</ele>
        <time>2021-05-29T13:43:55Z</time>
      </trkpt>
      <trkpt lat="45.15677" lon="5.80216">
        <ele>795</ele>
        <time>2021-05-29T13:43:56Z</time>
      </trkpt>
      <trkpt lat="45.15677" lon="5.80214">
        <ele>794.6</ele>
        <time>2021-05-29T13:43:57Z</time>
      </trkpt>
      <trkpt lat="45.15677" lon="5.80211">
        <ele>794.4</ele>
        <time>2021-05-29T13:43:58Z</time>
      </trkpt>
      <trkpt lat="45.15678" lon="5.80209">
        <ele>793.8</ele>
        <time>2021-05-29T13:43:59Z</time>
      </trkpt>
      <trkpt lat="45.15678" lon="5.80206">
        <ele>793.4</ele>
        <time>2021-05-29T13:44:00Z</time>
      </trkpt>
      <trkpt lat="45.15678" lon="5.80206">
        <ele>792.6</ele>
        <time>2021-05-29T13:44:01Z</time>
      </trkpt>
      <trkpt lat="45.15678" lon="5.80206">
        <ele>791.8</ele>
        <time>2021-05-29T13:44:02Z</time>
      </trkpt>
      <trkpt lat="45.15678" lon="5.80205">
        <ele>791.8</ele>
        <time>2021-05-29T13:44:03Z</time>
      </trkpt>
      <trkpt lat="45.15678" lon="5.80203">
        <ele>791.4</ele>
        <time>2021-05-29T13:44:04Z</time>
      </trkpt>
      <trkpt lat="45.15678" lon="5.80202">
        <ele>791</ele>
        <time>2021-05-29T13:44:05Z</time>
      </trkpt>
      <trkpt lat="45.15678" lon="5.802">
        <ele>790.2</ele>
        <time>2021-05-29T13:44:06Z</time>
      </trkpt>
      <trkpt lat="45.15678" lon="5.80199">
        <ele>789.6</ele>
        <time>2021-05-29T13:44:07Z</time>
      </trkpt>
      <trkpt lat="45.15678" lon="5.80198">
        <ele>789.6</ele>
        <time>2021-05-29T13:44:08Z</time>
      </trkpt>
      <trkpt lat="45.15678" lon="5.80196">
        <ele>789.4</ele>
        <time>2021-05-29T13:44:09Z</time>
      </trkpt>
      <trkpt lat="45.15678" lon="5.80195">
        <ele>789.4</ele>
        <time>2021-05-29T13:44:10Z</time>
      </trkpt>
      <trkpt lat="45.15678" lon="5.80193">
        <ele>788.8</ele>
        <time>2021-05-29T13:44:11Z</time>
      </trkpt>
      <trkpt lat="45.15679" lon="5.80192">
        <ele>788.6</ele>
        <time>2021-05-29T13:44:12Z</time>
      </trkpt>
      <trkpt lat="45.1568" lon="5.80192">
        <ele>788</ele>
        <time>2021-05-29T13:44:13Z</time>
      </trkpt>
      <trkpt lat="45.15682" lon="5.80191">
        <ele>787.2</ele>
        <time>2021-05-29T13:44:14Z</time>
      </trkpt>
      <trkpt lat="45.15683" lon="5.8019">
        <ele>787.2</ele>
        <time>2021-05-29T13:44:15Z</time>
      </trkpt>
      <trkpt lat="45.15684" lon="5.80189">
        <ele>786.8</ele>
        <time>2021-05-29T13:44:16Z</time>
      </trkpt>
      <trkpt lat="45.15685" lon="5.80189">
        <ele>786.4</ele>
        <time>2021-05-29T13:44:17Z</time>
      </trkpt>
      <trkpt lat="45.15687" lon="5.80188">
        <ele>785.8</ele>
        <time>2021-05-29T13:44:18Z</time>
      </trkpt>
      <trkpt lat="45.15688" lon="5.80187">
        <ele>785</ele>
        <time>2021-05-29T13:44:19Z</time>
      </trkpt>
      <trkpt lat="45.15689" lon="5.80187">
        <ele>785</ele>
        <time>2021-05-29T13:44:20Z</time>
      </trkpt>
      <trkpt lat="45.15691" lon="5.80188">
        <ele>784.8</ele>
        <time>2021-05-29T13:44:21Z</time>
      </trkpt>
      <trkpt lat="45.15693" lon="5.80188">
        <ele>784.8</ele>
        <time>2021-05-29T13:44:22Z</time>
      </trkpt>
      <trkpt lat="45.15694" lon="5.80188">
        <ele>784.4</ele>
        <time>2021-05-29T13:44:23Z</time>
      </trkpt>
      <trkpt lat="45.15696" lon="5.80188">
        <ele>784</ele>
        <time>2021-05-29T13:44:24Z</time>
      </trkpt>
      <trkpt lat="45.15698" lon="5.80189">
        <ele>783.4</ele>
        <time>2021-05-29T13:44:25Z</time>
      </trkpt>
      <trkpt lat="45.157" lon="5.8019">
        <ele>782.8</ele>
        <time>2021-05-29T13:44:26Z</time>
      </trkpt>
      <trkpt lat="45.15702" lon="5.8019">
        <ele>782.8</ele>
        <time>2021-05-29T13:44:27Z</time>
      </trkpt>
      <trkpt lat="45.15704" lon="5.80191">
        <ele>782.4</ele>
        <time>2021-05-29T13:44:28Z</time>
      </trkpt>
      <trkpt lat="45.15706" lon="5.80191">
        <ele>781.8</ele>
        <time>2021-05-29T13:44:29Z</time>
      </trkpt>
      <trkpt lat="45.15708" lon="5.80192">
        <ele>782</ele>
        <time>2021-05-29T13:44:30Z</time>
      </trkpt>
      <trkpt lat="45.1571" lon="5.80192">
        <ele>781.8</ele>
        <time>2021-05-29T13:44:31Z</time>
      </trkpt>
      <trkpt lat="45.15713" lon="5.80192">
        <ele>781.6</ele>
        <time>2021-05-29T13:44:32Z</time>
      </trkpt>
      <trkpt lat="45.15715" lon="5.80192">
        <ele>781.2</ele>
        <time>2021-05-29T13:44:33Z</time>
      </trkpt>
      <trkpt lat="45.1572" lon="5.80193">
        <ele>781</ele>
        <time>2021-05-29T13:44:34Z</time>
      </trkpt>
      <trkpt lat="45.1572" lon="5.80193">
        <ele>780.4</ele>
        <time>2021-05-29T13:44:35Z</time>
      </trkpt>
      <trkpt lat="45.1572" lon="5.80193">
        <ele>780.2</ele>
        <time>2021-05-29T13:44:36Z</time>
      </trkpt>
      <trkpt lat="45.15723" lon="5.80193">
        <ele>780.6</ele>
        <time>2021-05-29T13:44:37Z</time>
      </trkpt>
      <trkpt lat="45.15725" lon="5.80193">
        <ele>780.2</ele>
        <time>2021-05-29T13:44:38Z</time>
      </trkpt>
      <trkpt lat="45.15727" lon="5.80194">
        <ele>780.2</ele>
        <time>2021-05-29T13:44:39Z</time>
      </trkpt>
      <trkpt lat="45.15729" lon="5.80194">
        <ele>779.6</ele>
        <time>2021-05-29T13:44:40Z</time>
      </trkpt>
      <trkpt lat="45.15731" lon="5.80194">
        <ele>779.6</ele>
        <time>2021-05-29T13:44:41Z</time>
      </trkpt>
      <trkpt lat="45.15733" lon="5.80195">
        <ele>779.2</ele>
        <time>2021-05-29T13:44:42Z</time>
      </trkpt>
      <trkpt lat="45.15735" lon="5.80195">
        <ele>779.2</ele>
        <time>2021-05-29T13:44:43Z</time>
      </trkpt>
      <trkpt lat="45.15737" lon="5.80195">
        <ele>779.8</ele>
        <time>2021-05-29T13:44:44Z</time>
      </trkpt>
      <trkpt lat="45.15739" lon="5.80195">
        <ele>779.8</ele>
        <time>2021-05-29T13:44:45Z</time>
      </trkpt>
      <trkpt lat="45.15741" lon="5.80195">
        <ele>780.2</ele>
        <time>2021-05-29T13:44:46Z</time>
      </trkpt>
      <trkpt lat="45.15743" lon="5.80195">
        <ele>780</ele>
        <time>2021-05-29T13:44:47Z</time>
      </trkpt>
      <trkpt lat="45.15745" lon="5.80195">
        <ele>780</ele>
        <time>2021-05-29T13:44:48Z</time>
      </trkpt>
      <trkpt lat="45.15747" lon="5.80195">
        <ele>780</ele>
        <time>2021-05-29T13:44:49Z</time>
      </trkpt>
      <trkpt lat="45.15749" lon="5.80195">
        <ele>779.8</ele>
        <time>2021-05-29T13:44:50Z</time>
      </trkpt>
      <trkpt lat="45.15751" lon="5.80194">
        <ele>779.4</ele>
        <time>2021-05-29T13:44:51Z</time>
      </trkpt>
      <trkpt lat="45.15752" lon="5.80195">
        <ele>779.2</ele>
        <time>2021-05-29T13:44:52Z</time>
      </trkpt>
      <trkpt lat="45.15754" lon="5.80196">
        <ele>778.8</ele>
        <time>2021-05-29T13:44:53Z</time>
      </trkpt>
      <trkpt lat="45.15755" lon="5.80196">
        <ele>778.2</ele>
        <time>2021-05-29T13:44:54Z</time>
      </trkpt>
      <trkpt lat="45.15757" lon="5.80197">
        <ele>777.8</ele>
        <time>2021-05-29T13:44:55Z</time>
      </trkpt>
      <trkpt lat="45.15758" lon="5.80198">
        <ele>777.6</ele>
        <time>2021-05-29T13:44:56Z</time>
      </trkpt>
      <trkpt lat="45.1576" lon="5.80198">
        <ele>777.2</ele>
        <time>2021-05-29T13:44:57Z</time>
      </trkpt>
      <trkpt lat="45.15761" lon="5.80199">
        <ele>776.8</ele>
        <time>2021-05-29T13:44:58Z</time>
      </trkpt>
      <trkpt lat="45.15763" lon="5.802">
        <ele>776</ele>
        <time>2021-05-29T13:44:59Z</time>
      </trkpt>
      <trkpt lat="45.15764" lon="5.802">
        <ele>775.4</ele>
        <time>2021-05-29T13:45:00Z</time>
      </trkpt>
      <trkpt lat="45.15766" lon="5.80201">
        <ele>774.8</ele>
        <time>2021-05-29T13:45:01Z</time>
      </trkpt>
      <trkpt lat="45.15767" lon="5.80202">
        <ele>774.2</ele>
        <time>2021-05-29T13:45:02Z</time>
      </trkpt>
      <trkpt lat="45.15775" lon="5.80203">
        <ele>773.8</ele>
        <time>2021-05-29T13:45:03Z</time>
      </trkpt>
      <trkpt lat="45.15782" lon="5.80205">
        <ele>773.2</ele>
        <time>2021-05-29T13:45:04Z</time>
      </trkpt>
      <trkpt lat="45.1579" lon="5.80206">
        <ele>772.6</ele>
        <time>2021-05-29T13:45:05Z</time>
      </trkpt>
      <trkpt lat="45.15797" lon="5.80207">
        <ele>772</ele>
        <time>2021-05-29T13:45:06Z</time>
      </trkpt>
      <trkpt lat="45.15805" lon="5.80209">
        <ele>771.2</ele>
        <time>2021-05-29T13:45:07Z</time>
      </trkpt>
      <trkpt lat="45.15819" lon="5.8021">
        <ele>770.6</ele>
        <time>2021-05-29T13:45:08Z</time>
      </trkpt>
      <trkpt lat="45.15821" lon="5.80211">
        <ele>770</ele>
        <time>2021-05-29T13:45:09Z</time>
      </trkpt>
      <trkpt lat="45.15823" lon="5.80211">
        <ele>769.2</ele>
        <time>2021-05-29T13:45:10Z</time>
      </trkpt>
      <trkpt lat="45.15825" lon="5.80211">
        <ele>768.2</ele>
        <time>2021-05-29T13:45:11Z</time>
      </trkpt>
      <trkpt lat="45.15831" lon="5.80212">
        <ele>768.2</ele>
        <time>2021-05-29T13:45:12Z</time>
      </trkpt>
      <trkpt lat="45.15831" lon="5.80212">
        <ele>767.6</ele>
        <time>2021-05-29T13:45:13Z</time>
      </trkpt>
      <trkpt lat="45.15832" lon="5.80212">
        <ele>767.2</ele>
        <time>2021-05-29T13:45:14Z</time>
      </trkpt>
      <trkpt lat="45.15834" lon="5.80212">
        <ele>766.6</ele>
        <time>2021-05-29T13:45:15Z</time>
      </trkpt>
      <trkpt lat="45.15835" lon="5.80211">
        <ele>766</ele>
        <time>2021-05-29T13:45:16Z</time>
      </trkpt>
      <trkpt lat="45.15837" lon="5.80211">
        <ele>765.4</ele>
        <time>2021-05-29T13:45:17Z</time>
      </trkpt>
      <trkpt lat="45.15838" lon="5.8021">
        <ele>765</ele>
        <time>2021-05-29T13:45:18Z</time>
      </trkpt>
      <trkpt lat="45.1584" lon="5.8021">
        <ele>763.8</ele>
        <time>2021-05-29T13:45:19Z</time>
      </trkpt>
      <trkpt lat="45.15841" lon="5.8021">
        <ele>763.2</ele>
        <time>2021-05-29T13:45:20Z</time>
      </trkpt>
      <trkpt lat="45.15842" lon="5.8021">
        <ele>762.6</ele>
        <time>2021-05-29T13:45:21Z</time>
      </trkpt>
      <trkpt lat="45.15843" lon="5.80211">
        <ele>762.2</ele>
        <time>2021-05-29T13:45:22Z</time>
      </trkpt>
      <trkpt lat="45.15844" lon="5.80211">
        <ele>761.4</ele>
        <time>2021-05-29T13:45:23Z</time>
      </trkpt>
      <trkpt lat="45.15845" lon="5.80211">
        <ele>760.6</ele>
        <time>2021-05-29T13:45:24Z</time>
      </trkpt>
      <trkpt lat="45.15846" lon="5.80211">
        <ele>760.4</ele>
        <time>2021-05-29T13:45:25Z</time>
      </trkpt>
      <trkpt lat="45.15847" lon="5.80212">
        <ele>759.8</ele>
        <time>2021-05-29T13:45:26Z</time>
      </trkpt>
      <trkpt lat="45.15848" lon="5.80212">
        <ele>759.4</ele>
        <time>2021-05-29T13:45:27Z</time>
      </trkpt>
      <trkpt lat="45.15849" lon="5.80212">
        <ele>758.8</ele>
        <time>2021-05-29T13:45:28Z</time>
      </trkpt>
      <trkpt lat="45.15851" lon="5.80212">
        <ele>758.4</ele>
        <time>2021-05-29T13:45:29Z</time>
      </trkpt>
      <trkpt lat="45.15852" lon="5.80213">
        <ele>757.8</ele>
        <time>2021-05-29T13:45:30Z</time>
      </trkpt>
      <trkpt lat="45.15854" lon="5.80213">
        <ele>757</ele>
        <time>2021-05-29T13:45:31Z</time>
      </trkpt>
      <trkpt lat="45.15855" lon="5.80213">
        <ele>756.6</ele>
        <time>2021-05-29T13:45:32Z</time>
      </trkpt>
      <trkpt lat="45.15857" lon="5.80213">
        <ele>756</ele>
        <time>2021-05-29T13:45:33Z</time>
      </trkpt>
      <trkpt lat="45.15858" lon="5.80214">
        <ele>755.2</ele>
        <time>2021-05-29T13:45:34Z</time>
      </trkpt>
      <trkpt lat="45.1586" lon="5.80214">
        <ele>754</ele>
        <time>2021-05-29T13:45:35Z</time>
      </trkpt>
      <trkpt lat="45.15861" lon="5.80214">
        <ele>753.6</ele>
        <time>2021-05-29T13:45:36Z</time>
      </trkpt>
      <trkpt lat="45.15862" lon="5.80214">
        <ele>753.4</ele>
        <time>2021-05-29T13:45:37Z</time>
      </trkpt>
      <trkpt lat="45.15864" lon="5.80214">
        <ele>753.4</ele>
        <time>2021-05-29T13:45:38Z</time>
      </trkpt>
      <trkpt lat="45.15865" lon="5.80214">
        <ele>753</ele>
        <time>2021-05-29T13:45:39Z</time>
      </trkpt>
      <trkpt lat="45.15866" lon="5.80214">
        <ele>752.6</ele>
        <time>2021-05-29T13:45:40Z</time>
      </trkpt>
      <trkpt lat="45.15867" lon="5.80214">
        <ele>751.8</ele>
        <time>2021-05-29T13:45:41Z</time>
      </trkpt>
      <trkpt lat="45.15869" lon="5.80214">
        <ele>751.2</ele>
        <time>2021-05-29T13:45:42Z</time>
      </trkpt>
      <trkpt lat="45.1587" lon="5.80214">
        <ele>750</ele>
        <time>2021-05-29T13:45:43Z</time>
      </trkpt>
      <trkpt lat="45.15871" lon="5.80214">
        <ele>749.4</ele>
        <time>2021-05-29T13:45:44Z</time>
      </trkpt>
      <trkpt lat="45.15874" lon="5.80213">
        <ele>749.2</ele>
        <time>2021-05-29T13:45:45Z</time>
      </trkpt>
      <trkpt lat="45.15876" lon="5.80213">
        <ele>749.2</ele>
        <time>2021-05-29T13:45:46Z</time>
      </trkpt>
      <trkpt lat="45.15879" lon="5.80212">
        <ele>749</ele>
        <time>2021-05-29T13:45:47Z</time>
      </trkpt>
      <trkpt lat="45.15881" lon="5.80211">
        <ele>748.6</ele>
        <time>2021-05-29T13:45:48Z</time>
      </trkpt>
      <trkpt lat="45.15883" lon="5.8021">
        <ele>747.8</ele>
        <time>2021-05-29T13:45:49Z</time>
      </trkpt>
      <trkpt lat="45.15885" lon="5.80209">
        <ele>747.2</ele>
        <time>2021-05-29T13:45:50Z</time>
      </trkpt>
      <trkpt lat="45.15888" lon="5.80209">
        <ele>747</ele>
        <time>2021-05-29T13:45:51Z</time>
      </trkpt>
      <trkpt lat="45.1589" lon="5.80208">
        <ele>746.8</ele>
        <time>2021-05-29T13:45:52Z</time>
      </trkpt>
      <trkpt lat="45.15891" lon="5.80206">
        <ele>746.2</ele>
        <time>2021-05-29T13:45:53Z</time>
      </trkpt>
      <trkpt lat="45.15892" lon="5.80205">
        <ele>745.4</ele>
        <time>2021-05-29T13:45:54Z</time>
      </trkpt>
      <trkpt lat="45.15893" lon="5.80204">
        <ele>745.4</ele>
        <time>2021-05-29T13:45:55Z</time>
      </trkpt>
      <trkpt lat="45.15894" lon="5.80202">
        <ele>745.2</ele>
        <time>2021-05-29T13:45:56Z</time>
      </trkpt>
      <trkpt lat="45.15895" lon="5.80201">
        <ele>744.6</ele>
        <time>2021-05-29T13:45:57Z</time>
      </trkpt>
      <trkpt lat="45.15896" lon="5.802">
        <ele>744.6</ele>
        <time>2021-05-29T13:45:58Z</time>
      </trkpt>
      <trkpt lat="45.15898" lon="5.80198">
        <ele>744.2</ele>
        <time>2021-05-29T13:45:59Z</time>
      </trkpt>
      <trkpt lat="45.15899" lon="5.80197">
        <ele>743.8</ele>
        <time>2021-05-29T13:46:00Z</time>
      </trkpt>
      <trkpt lat="45.159" lon="5.80195">
        <ele>743.2</ele>
        <time>2021-05-29T13:46:01Z</time>
      </trkpt>
      <trkpt lat="45.15901" lon="5.80193">
        <ele>742.6</ele>
        <time>2021-05-29T13:46:02Z</time>
      </trkpt>
      <trkpt lat="45.15902" lon="5.80192">
        <ele>742.6</ele>
        <time>2021-05-29T13:46:03Z</time>
      </trkpt>
      <trkpt lat="45.15903" lon="5.8019">
        <ele>742.2</ele>
        <time>2021-05-29T13:46:04Z</time>
      </trkpt>
      <trkpt lat="45.15904" lon="5.80188">
        <ele>742</ele>
        <time>2021-05-29T13:46:05Z</time>
      </trkpt>
      <trkpt lat="45.15905" lon="5.80188">
        <ele>741.4</ele>
        <time>2021-05-29T13:46:06Z</time>
      </trkpt>
      <trkpt lat="45.15905" lon="5.80187">
        <ele>740.8</ele>
        <time>2021-05-29T13:46:07Z</time>
      </trkpt>
      <trkpt lat="45.15906" lon="5.80186">
        <ele>740.2</ele>
        <time>2021-05-29T13:46:08Z</time>
      </trkpt>
      <trkpt lat="45.15906" lon="5.80186">
        <ele>740</ele>
        <time>2021-05-29T13:46:09Z</time>
      </trkpt>
      <trkpt lat="45.15906" lon="5.80185">
        <ele>740</ele>
        <time>2021-05-29T13:46:10Z</time>
      </trkpt>
      <trkpt lat="45.15907" lon="5.80184">
        <ele>739.8</ele>
        <time>2021-05-29T13:46:11Z</time>
      </trkpt>
      <trkpt lat="45.15907" lon="5.80184">
        <ele>740.2</ele>
        <time>2021-05-29T13:46:12Z</time>
      </trkpt>
      <trkpt lat="45.15908" lon="5.80183">
        <ele>740.2</ele>
        <time>2021-05-29T13:46:13Z</time>
      </trkpt>
      <trkpt lat="45.15908" lon="5.80182">
        <ele>740</ele>
        <time>2021-05-29T13:46:14Z</time>
      </trkpt>
      <trkpt lat="45.15909" lon="5.80181">
        <ele>740</ele>
        <time>2021-05-29T13:46:15Z</time>
      </trkpt>
      <trkpt lat="45.15909" lon="5.80181">
        <ele>740.2</ele>
        <time>2021-05-29T13:46:16Z</time>
      </trkpt>
      <trkpt lat="45.1591" lon="5.8018">
        <ele>740.2</ele>
        <time>2021-05-29T13:46:17Z</time>
      </trkpt>
      <trkpt lat="45.1591" lon="5.80179">
        <ele>740.2</ele>
        <time>2021-05-29T13:46:18Z</time>
      </trkpt>
      <trkpt lat="45.15911" lon="5.80179">
        <ele>739.8</ele>
        <time>2021-05-29T13:46:19Z</time>
      </trkpt>
      <trkpt lat="45.15912" lon="5.80179">
        <ele>739.6</ele>
        <time>2021-05-29T13:46:20Z</time>
      </trkpt>
      <trkpt lat="45.15913" lon="5.80179">
        <ele>739.4</ele>
        <time>2021-05-29T13:46:21Z</time>
      </trkpt>
      <trkpt lat="45.15914" lon="5.80179">
        <ele>738.6</ele>
        <time>2021-05-29T13:46:22Z</time>
      </trkpt>
      <trkpt lat="45.15916" lon="5.80179">
        <ele>738.8</ele>
        <time>2021-05-29T13:46:23Z</time>
      </trkpt>
      <trkpt lat="45.15917" lon="5.80179">
        <ele>738.4</ele>
        <time>2021-05-29T13:46:24Z</time>
      </trkpt>
      <trkpt lat="45.15918" lon="5.80179">
        <ele>738.2</ele>
        <time>2021-05-29T13:46:25Z</time>
      </trkpt>
      <trkpt lat="45.15919" lon="5.80179">
        <ele>737.6</ele>
        <time>2021-05-29T13:46:26Z</time>
      </trkpt>
      <trkpt lat="45.15921" lon="5.80179">
        <ele>737.4</ele>
        <time>2021-05-29T13:46:27Z</time>
      </trkpt>
      <trkpt lat="45.15922" lon="5.80179">
        <ele>737</ele>
        <time>2021-05-29T13:46:28Z</time>
      </trkpt>
      <trkpt lat="45.15923" lon="5.8018">
        <ele>736.6</ele>
        <time>2021-05-29T13:46:29Z</time>
      </trkpt>
      <trkpt lat="45.15924" lon="5.8018">
        <ele>735.8</ele>
        <time>2021-05-29T13:46:30Z</time>
      </trkpt>
      <trkpt lat="45.15925" lon="5.8018">
        <ele>735.6</ele>
        <time>2021-05-29T13:46:31Z</time>
      </trkpt>
      <trkpt lat="45.15926" lon="5.8018">
        <ele>735</ele>
        <time>2021-05-29T13:46:32Z</time>
      </trkpt>
      <trkpt lat="45.15928" lon="5.80181">
        <ele>734.6</ele>
        <time>2021-05-29T13:46:33Z</time>
      </trkpt>
      <trkpt lat="45.15929" lon="5.80181">
        <ele>733.8</ele>
        <time>2021-05-29T13:46:34Z</time>
      </trkpt>
      <trkpt lat="45.1593" lon="5.80181">
        <ele>732.6</ele>
        <time>2021-05-29T13:46:35Z</time>
      </trkpt>
      <trkpt lat="45.15931" lon="5.80182">
        <ele>731.8</ele>
        <time>2021-05-29T13:46:36Z</time>
      </trkpt>
      <trkpt lat="45.15932" lon="5.80183">
        <ele>730.8</ele>
        <time>2021-05-29T13:46:37Z</time>
      </trkpt>
      <trkpt lat="45.15933" lon="5.80184">
        <ele>730.4</ele>
        <time>2021-05-29T13:46:38Z</time>
      </trkpt>
      <trkpt lat="45.15935" lon="5.80185">
        <ele>730.2</ele>
        <time>2021-05-29T13:46:39Z</time>
      </trkpt>
      <trkpt lat="45.15936" lon="5.80185">
        <ele>729.6</ele>
        <time>2021-05-29T13:46:40Z</time>
      </trkpt>
      <trkpt lat="45.15937" lon="5.80186">
        <ele>729</ele>
        <time>2021-05-29T13:46:41Z</time>
      </trkpt>
      <trkpt lat="45.15938" lon="5.80187">
        <ele>728.6</ele>
        <time>2021-05-29T13:46:42Z</time>
      </trkpt>
      <trkpt lat="45.15939" lon="5.80187">
        <ele>728.4</ele>
        <time>2021-05-29T13:46:43Z</time>
      </trkpt>
      <trkpt lat="45.1594" lon="5.80187">
        <ele>728</ele>
        <time>2021-05-29T13:46:44Z</time>
      </trkpt>
      <trkpt lat="45.15942" lon="5.80187">
        <ele>727.2</ele>
        <time>2021-05-29T13:46:45Z</time>
      </trkpt>
      <trkpt lat="45.15943" lon="5.80187">
        <ele>726.6</ele>
        <time>2021-05-29T13:46:46Z</time>
      </trkpt>
      <trkpt lat="45.15944" lon="5.80187">
        <ele>726.2</ele>
        <time>2021-05-29T13:46:47Z</time>
      </trkpt>
      <trkpt lat="45.15945" lon="5.80187">
        <ele>725.6</ele>
        <time>2021-05-29T13:46:48Z</time>
      </trkpt>
      <trkpt lat="45.15946" lon="5.80187">
        <ele>725.2</ele>
        <time>2021-05-29T13:46:49Z</time>
      </trkpt>
      <trkpt lat="45.15947" lon="5.80187">
        <ele>724.8</ele>
        <time>2021-05-29T13:46:50Z</time>
      </trkpt>
      <trkpt lat="45.15948" lon="5.80186">
        <ele>724.2</ele>
        <time>2021-05-29T13:46:51Z</time>
      </trkpt>
      <trkpt lat="45.1595" lon="5.80186">
        <ele>723.6</ele>
        <time>2021-05-29T13:46:52Z</time>
      </trkpt>
      <trkpt lat="45.15951" lon="5.80185">
        <ele>723</ele>
        <time>2021-05-29T13:46:53Z</time>
      </trkpt>
      <trkpt lat="45.15952" lon="5.80185">
        <ele>722.4</ele>
        <time>2021-05-29T13:46:54Z</time>
      </trkpt>
      <trkpt lat="45.15953" lon="5.80184">
        <ele>721.2</ele>
        <time>2021-05-29T13:46:55Z</time>
      </trkpt>
      <trkpt lat="45.15954" lon="5.80184">
        <ele>720.6</ele>
        <time>2021-05-29T13:46:56Z</time>
      </trkpt>
      <trkpt lat="45.15955" lon="5.80183">
        <ele>720.4</ele>
        <time>2021-05-29T13:46:57Z</time>
      </trkpt>
      <trkpt lat="45.15956" lon="5.80183">
        <ele>719.8</ele>
        <time>2021-05-29T13:46:58Z</time>
      </trkpt>
      <trkpt lat="45.15958" lon="5.80182">
        <ele>719.6</ele>
        <time>2021-05-29T13:46:59Z</time>
      </trkpt>
      <trkpt lat="45.15959" lon="5.80181">
        <ele>719</ele>
        <time>2021-05-29T13:47:00Z</time>
      </trkpt>
      <trkpt lat="45.1596" lon="5.80181">
        <ele>718.6</ele>
        <time>2021-05-29T13:47:01Z</time>
      </trkpt>
      <trkpt lat="45.15961" lon="5.8018">
        <ele>717.6</ele>
        <time>2021-05-29T13:47:02Z</time>
      </trkpt>
      <trkpt lat="45.15963" lon="5.80179">
        <ele>717</ele>
        <time>2021-05-29T13:47:03Z</time>
      </trkpt>
      <trkpt lat="45.15964" lon="5.80179">
        <ele>716.4</ele>
        <time>2021-05-29T13:47:04Z</time>
      </trkpt>
      <trkpt lat="45.15965" lon="5.80178">
        <ele>715.8</ele>
        <time>2021-05-29T13:47:05Z</time>
      </trkpt>
      <trkpt lat="45.15966" lon="5.80178">
        <ele>715.4</ele>
        <time>2021-05-29T13:47:06Z</time>
      </trkpt>
      <trkpt lat="45.15967" lon="5.80178">
        <ele>714.8</ele>
        <time>2021-05-29T13:47:07Z</time>
      </trkpt>
      <trkpt lat="45.15968" lon="5.80177">
        <ele>714.2</ele>
        <time>2021-05-29T13:47:08Z</time>
      </trkpt>
      <trkpt lat="45.15969" lon="5.80177">
        <ele>713.2</ele>
        <time>2021-05-29T13:47:09Z</time>
      </trkpt>
      <trkpt lat="45.1597" lon="5.80177">
        <ele>712.4</ele>
        <time>2021-05-29T13:47:10Z</time>
      </trkpt>
      <trkpt lat="45.15971" lon="5.80177">
        <ele>712</ele>
        <time>2021-05-29T13:47:11Z</time>
      </trkpt>
      <trkpt lat="45.15972" lon="5.80177">
        <ele>711.6</ele>
        <time>2021-05-29T13:47:12Z</time>
      </trkpt>
      <trkpt lat="45.15973" lon="5.80177">
        <ele>711.2</ele>
        <time>2021-05-29T13:47:13Z</time>
      </trkpt>
      <trkpt lat="45.15973" lon="5.80176">
        <ele>710.6</ele>
        <time>2021-05-29T13:47:14Z</time>
      </trkpt>
      <trkpt lat="45.15974" lon="5.80176">
        <ele>710</ele>
        <time>2021-05-29T13:47:15Z</time>
      </trkpt>
      <trkpt lat="45.15975" lon="5.80175">
        <ele>709.6</ele>
        <time>2021-05-29T13:47:16Z</time>
      </trkpt>
      <trkpt lat="45.15976" lon="5.80174">
        <ele>709</ele>
        <time>2021-05-29T13:47:17Z</time>
      </trkpt>
      <trkpt lat="45.15977" lon="5.80173">
        <ele>708.4</ele>
        <time>2021-05-29T13:47:18Z</time>
      </trkpt>
      <trkpt lat="45.15978" lon="5.80172">
        <ele>707.8</ele>
        <time>2021-05-29T13:47:19Z</time>
      </trkpt>
      <trkpt lat="45.15979" lon="5.8017">
        <ele>706.8</ele>
        <time>2021-05-29T13:47:20Z</time>
      </trkpt>
      <trkpt lat="45.1598" lon="5.80169">
        <ele>706.4</ele>
        <time>2021-05-29T13:47:21Z</time>
      </trkpt>
      <trkpt lat="45.15981" lon="5.80168">
        <ele>706.2</ele>
        <time>2021-05-29T13:47:22Z</time>
      </trkpt>
      <trkpt lat="45.15981" lon="5.80167">
        <ele>705.6</ele>
        <time>2021-05-29T13:47:23Z</time>
      </trkpt>
      <trkpt lat="45.15983" lon="5.80167">
        <ele>705</ele>
        <time>2021-05-29T13:47:24Z</time>
      </trkpt>
      <trkpt lat="45.15984" lon="5.80167">
        <ele>704.6</ele>
        <time>2021-05-29T13:47:25Z</time>
      </trkpt>
      <trkpt lat="45.15985" lon="5.80167">
        <ele>704.2</ele>
        <time>2021-05-29T13:47:26Z</time>
      </trkpt>
      <trkpt lat="45.15986" lon="5.80167">
        <ele>703.8</ele>
        <time>2021-05-29T13:47:27Z</time>
      </trkpt>
      <trkpt lat="45.15988" lon="5.80167">
        <ele>703.6</ele>
        <time>2021-05-29T13:47:28Z</time>
      </trkpt>
      <trkpt lat="45.15989" lon="5.80167">
        <ele>703.4</ele>
        <time>2021-05-29T13:47:29Z</time>
      </trkpt>
      <trkpt lat="45.15993" lon="5.80168">
        <ele>702.8</ele>
        <time>2021-05-29T13:47:30Z</time>
      </trkpt>
      <trkpt lat="45.15993" lon="5.80168">
        <ele>702.2</ele>
        <time>2021-05-29T13:47:31Z</time>
      </trkpt>
      <trkpt lat="45.15993" lon="5.80168">
        <ele>701.6</ele>
        <time>2021-05-29T13:47:32Z</time>
      </trkpt>
      <trkpt lat="45.15993" lon="5.80168">
        <ele>701</ele>
        <time>2021-05-29T13:47:33Z</time>
      </trkpt>
      <trkpt lat="45.15994" lon="5.80167">
        <ele>700.6</ele>
        <time>2021-05-29T13:47:34Z</time>
      </trkpt>
      <trkpt lat="45.15995" lon="5.80167">
        <ele>700.2</ele>
        <time>2021-05-29T13:47:35Z</time>
      </trkpt>
      <trkpt lat="45.15996" lon="5.80166">
        <ele>699.6</ele>
        <time>2021-05-29T13:47:36Z</time>
      </trkpt>
      <trkpt lat="45.15997" lon="5.80166">
        <ele>698.8</ele>
        <time>2021-05-29T13:47:37Z</time>
      </trkpt>
      <trkpt lat="45.15998" lon="5.80165">
        <ele>698.6</ele>
        <time>2021-05-29T13:47:38Z</time>
      </trkpt>
      <trkpt lat="45.15999" lon="5.80165">
        <ele>697.6</ele>
        <time>2021-05-29T13:47:39Z</time>
      </trkpt>
      <trkpt lat="45.15999" lon="5.80164">
        <ele>697.4</ele>
        <time>2021-05-29T13:47:40Z</time>
      </trkpt>
      <trkpt lat="45.16" lon="5.80164">
        <ele>696.6</ele>
        <time>2021-05-29T13:47:41Z</time>
      </trkpt>
      <trkpt lat="45.16001" lon="5.80164">
        <ele>696</ele>
        <time>2021-05-29T13:47:42Z</time>
      </trkpt>
      <trkpt lat="45.16002" lon="5.80163">
        <ele>695.2</ele>
        <time>2021-05-29T13:47:43Z</time>
      </trkpt>
      <trkpt lat="45.16003" lon="5.80163">
        <ele>694.8</ele>
        <time>2021-05-29T13:47:44Z</time>
      </trkpt>
      <trkpt lat="45.16004" lon="5.80163">
        <ele>694.4</ele>
        <time>2021-05-29T13:47:45Z</time>
      </trkpt>
      <trkpt lat="45.16005" lon="5.80162">
        <ele>694</ele>
        <time>2021-05-29T13:47:46Z</time>
      </trkpt>
      <trkpt lat="45.16005" lon="5.80162">
        <ele>693.4</ele>
        <time>2021-05-29T13:47:47Z</time>
      </trkpt>
      <trkpt lat="45.16006" lon="5.80162">
        <ele>692.6</ele>
        <time>2021-05-29T13:47:48Z</time>
      </trkpt>
      <trkpt lat="45.16006" lon="5.80162">
        <ele>692.4</ele>
        <time>2021-05-29T13:47:49Z</time>
      </trkpt>
      <trkpt lat="45.16009" lon="5.80162">
        <ele>692.2</ele>
        <time>2021-05-29T13:47:50Z</time>
      </trkpt>
      <trkpt lat="45.16009" lon="5.80162">
        <ele>691.8</ele>
        <time>2021-05-29T13:47:51Z</time>
      </trkpt>
      <trkpt lat="45.16009" lon="5.80162">
        <ele>691.4</ele>
        <time>2021-05-29T13:47:52Z</time>
      </trkpt>
      <trkpt lat="45.16009" lon="5.80162">
        <ele>691</ele>
        <time>2021-05-29T13:47:53Z</time>
      </trkpt>
      <trkpt lat="45.16009" lon="5.80162">
        <ele>690.6</ele>
        <time>2021-05-29T13:47:54Z</time>
      </trkpt>
      <trkpt lat="45.16009" lon="5.80162">
        <ele>690.2</ele>
        <time>2021-05-29T13:47:55Z</time>
      </trkpt>
      <trkpt lat="45.16011" lon="5.8016">
        <ele>689.8</ele>
        <time>2021-05-29T13:47:56Z</time>
      </trkpt>
      <trkpt lat="45.16011" lon="5.8016">
        <ele>689.6</ele>
        <time>2021-05-29T13:47:57Z</time>
      </trkpt>
      <trkpt lat="45.16011" lon="5.8016">
        <ele>689</ele>
        <time>2021-05-29T13:47:58Z</time>
      </trkpt>
      <trkpt lat="45.16011" lon="5.8016">
        <ele>688.8</ele>
        <time>2021-05-29T13:47:59Z</time>
      </trkpt>
      <trkpt lat="45.16013" lon="5.80159">
        <ele>688.2</ele>
        <time>2021-05-29T13:48:00Z</time>
      </trkpt>
      <trkpt lat="45.16013" lon="5.80159">
        <ele>687.6</ele>
        <time>2021-05-29T13:48:01Z</time>
      </trkpt>
      <trkpt lat="45.16013" lon="5.80159">
        <ele>686.6</ele>
        <time>2021-05-29T13:48:02Z</time>
      </trkpt>
      <trkpt lat="45.16014" lon="5.80158">
        <ele>686</ele>
        <time>2021-05-29T13:48:03Z</time>
      </trkpt>
      <trkpt lat="45.16014" lon="5.80158">
        <ele>685.6</ele>
        <time>2021-05-29T13:48:04Z</time>
      </trkpt>
      <trkpt lat="45.16015" lon="5.80157">
        <ele>685</ele>
        <time>2021-05-29T13:48:05Z</time>
      </trkpt>
      <trkpt lat="45.16016" lon="5.80157">
        <ele>684.6</ele>
        <time>2021-05-29T13:48:06Z</time>
      </trkpt>
      <trkpt lat="45.16017" lon="5.80157">
        <ele>684.4</ele>
        <time>2021-05-29T13:48:07Z</time>
      </trkpt>
      <trkpt lat="45.16017" lon="5.80156">
        <ele>684</ele>
        <time>2021-05-29T13:48:08Z</time>
      </trkpt>
      <trkpt lat="45.16018" lon="5.80156">
        <ele>683.2</ele>
        <time>2021-05-29T13:48:09Z</time>
      </trkpt>
      <trkpt lat="45.16019" lon="5.80155">
        <ele>683</ele>
        <time>2021-05-29T13:48:10Z</time>
      </trkpt>
      <trkpt lat="45.1602" lon="5.80155">
        <ele>682.6</ele>
        <time>2021-05-29T13:48:11Z</time>
      </trkpt>
      <trkpt lat="45.1602" lon="5.80155">
        <ele>682.8</ele>
        <time>2021-05-29T13:48:12Z</time>
      </trkpt>
      <trkpt lat="45.16022" lon="5.80155">
        <ele>682.8</ele>
        <time>2021-05-29T13:48:13Z</time>
      </trkpt>
      <trkpt lat="45.16022" lon="5.80155">
        <ele>682.8</ele>
        <time>2021-05-29T13:48:14Z</time>
      </trkpt>
      <trkpt lat="45.16022" lon="5.80155">
        <ele>682.8</ele>
        <time>2021-05-29T13:48:15Z</time>
      </trkpt>
      <trkpt lat="45.16023" lon="5.80154">
        <ele>682.8</ele>
        <time>2021-05-29T13:48:16Z</time>
      </trkpt>
      <trkpt lat="45.16023" lon="5.80154">
        <ele>682.6</ele>
        <time>2021-05-29T13:48:17Z</time>
      </trkpt>
      <trkpt lat="45.16024" lon="5.80153">
        <ele>682</ele>
        <time>2021-05-29T13:48:18Z</time>
      </trkpt>
      <trkpt lat="45.16025" lon="5.80152">
        <ele>681.8</ele>
        <time>2021-05-29T13:48:19Z</time>
      </trkpt>
      <trkpt lat="45.16025" lon="5.80151">
        <ele>681.4</ele>
        <time>2021-05-29T13:48:20Z</time>
      </trkpt>
      <trkpt lat="45.16026" lon="5.80151">
        <ele>680.8</ele>
        <time>2021-05-29T13:48:21Z</time>
      </trkpt>
      <trkpt lat="45.16027" lon="5.8015">
        <ele>680.6</ele>
        <time>2021-05-29T13:48:22Z</time>
      </trkpt>
      <trkpt lat="45.16028" lon="5.80149">
        <ele>680.2</ele>
        <time>2021-05-29T13:48:23Z</time>
      </trkpt>
      <trkpt lat="45.16029" lon="5.80148">
        <ele>679.6</ele>
        <time>2021-05-29T13:48:24Z</time>
      </trkpt>
      <trkpt lat="45.16031" lon="5.80147">
        <ele>679.2</ele>
        <time>2021-05-29T13:48:25Z</time>
      </trkpt>
      <trkpt lat="45.16032" lon="5.80147">
        <ele>678.8</ele>
        <time>2021-05-29T13:48:26Z</time>
      </trkpt>
      <trkpt lat="45.16032" lon="5.80147">
        <ele>678.6</ele>
        <time>2021-05-29T13:48:27Z</time>
      </trkpt>
      <trkpt lat="45.16032" lon="5.80147">
        <ele>678</ele>
        <time>2021-05-29T13:48:28Z</time>
      </trkpt>
      <trkpt lat="45.16032" lon="5.80147">
        <ele>677.6</ele>
        <time>2021-05-29T13:48:29Z</time>
      </trkpt>
      <trkpt lat="45.16034" lon="5.80145">
        <ele>677.2</ele>
        <time>2021-05-29T13:48:30Z</time>
      </trkpt>
      <trkpt lat="45.16034" lon="5.80145">
        <ele>676.8</ele>
        <time>2021-05-29T13:48:31Z</time>
      </trkpt>
      <trkpt lat="45.16036" lon="5.80144">
        <ele>676.2</ele>
        <time>2021-05-29T13:48:32Z</time>
      </trkpt>
      <trkpt lat="45.16036" lon="5.80144">
        <ele>675.8</ele>
        <time>2021-05-29T13:48:33Z</time>
      </trkpt>
      <trkpt lat="45.16036" lon="5.80144">
        <ele>675.4</ele>
        <time>2021-05-29T13:48:34Z</time>
      </trkpt>
      <trkpt lat="45.16038" lon="5.80142">
        <ele>674.6</ele>
        <time>2021-05-29T13:48:35Z</time>
      </trkpt>
      <trkpt lat="45.16038" lon="5.80142">
        <ele>673.6</ele>
        <time>2021-05-29T13:48:36Z</time>
      </trkpt>
      <trkpt lat="45.1604" lon="5.8014">
        <ele>672.8</ele>
        <time>2021-05-29T13:48:37Z</time>
      </trkpt>
      <trkpt lat="45.1604" lon="5.8014">
        <ele>672.6</ele>
        <time>2021-05-29T13:48:38Z</time>
      </trkpt>
      <trkpt lat="45.1604" lon="5.8014">
        <ele>671.6</ele>
        <time>2021-05-29T13:48:39Z</time>
      </trkpt>
      <trkpt lat="45.1604" lon="5.8014">
        <ele>671.2</ele>
        <time>2021-05-29T13:48:40Z</time>
      </trkpt>
      <trkpt lat="45.1604" lon="5.8014">
        <ele>670.8</ele>
        <time>2021-05-29T13:48:41Z</time>
      </trkpt>
      <trkpt lat="45.1604" lon="5.8014">
        <ele>670.6</ele>
        <time>2021-05-29T13:48:42Z</time>
      </trkpt>
      <trkpt lat="45.16042" lon="5.80138">
        <ele>670.2</ele>
        <time>2021-05-29T13:48:43Z</time>
      </trkpt>
      <trkpt lat="45.16042" lon="5.80138">
        <ele>669.2</ele>
        <time>2021-05-29T13:48:44Z</time>
      </trkpt>
      <trkpt lat="45.16042" lon="5.80138">
        <ele>668.6</ele>
        <time>2021-05-29T13:48:45Z</time>
      </trkpt>
      <trkpt lat="45.16044" lon="5.80137">
        <ele>668</ele>
        <time>2021-05-29T13:48:46Z</time>
      </trkpt>
      <trkpt lat="45.16045" lon="5.80137">
        <ele>667.8</ele>
        <time>2021-05-29T13:48:47Z</time>
      </trkpt>
      <trkpt lat="45.16047" lon="5.80136">
        <ele>667.4</ele>
        <time>2021-05-29T13:48:48Z</time>
      </trkpt>
      <trkpt lat="45.16048" lon="5.80135">
        <ele>666.8</ele>
        <time>2021-05-29T13:48:49Z</time>
      </trkpt>
      <trkpt lat="45.1605" lon="5.80134">
        <ele>666.2</ele>
        <time>2021-05-29T13:48:50Z</time>
      </trkpt>
      <trkpt lat="45.1605" lon="5.80134">
        <ele>664.8</ele>
        <time>2021-05-29T13:48:51Z</time>
      </trkpt>
      <trkpt lat="45.1605" lon="5.80134">
        <ele>664.6</ele>
        <time>2021-05-29T13:48:52Z</time>
      </trkpt>
      <trkpt lat="45.1605" lon="5.80134">
        <ele>664.6</ele>
        <time>2021-05-29T13:48:53Z</time>
      </trkpt>
      <trkpt lat="45.16052" lon="5.80133">
        <ele>664.4</ele>
        <time>2021-05-29T13:48:54Z</time>
      </trkpt>
      <trkpt lat="45.16052" lon="5.80133">
        <ele>664.4</ele>
        <time>2021-05-29T13:48:55Z</time>
      </trkpt>
      <trkpt lat="45.16052" lon="5.80133">
        <ele>664.2</ele>
        <time>2021-05-29T13:48:56Z</time>
      </trkpt>
      <trkpt lat="45.16052" lon="5.80132">
        <ele>664</ele>
        <time>2021-05-29T13:48:57Z</time>
      </trkpt>
      <trkpt lat="45.16052" lon="5.80132">
        <ele>663.8</ele>
        <time>2021-05-29T13:48:58Z</time>
      </trkpt>
      <trkpt lat="45.16052" lon="5.80131">
        <ele>663.8</ele>
        <time>2021-05-29T13:48:59Z</time>
      </trkpt>
      <trkpt lat="45.16052" lon="5.80131">
        <ele>663.6</ele>
        <time>2021-05-29T13:49:00Z</time>
      </trkpt>
      <trkpt lat="45.16053" lon="5.8013">
        <ele>663.6</ele>
        <time>2021-05-29T13:49:01Z</time>
      </trkpt>
      <trkpt lat="45.16053" lon="5.8013">
        <ele>663.4</ele>
        <time>2021-05-29T13:49:02Z</time>
      </trkpt>
      <trkpt lat="45.16053" lon="5.80129">
        <ele>663.2</ele>
        <time>2021-05-29T13:49:03Z</time>
      </trkpt>
      <trkpt lat="45.16053" lon="5.80129">
        <ele>663.2</ele>
        <time>2021-05-29T13:49:04Z</time>
      </trkpt>
      <trkpt lat="45.16053" lon="5.80128">
        <ele>663</ele>
        <time>2021-05-29T13:49:05Z</time>
      </trkpt>
      <trkpt lat="45.16053" lon="5.80128">
        <ele>662.8</ele>
        <time>2021-05-29T13:49:06Z</time>
      </trkpt>
      <trkpt lat="45.16053" lon="5.80127">
        <ele>662.4</ele>
        <time>2021-05-29T13:49:07Z</time>
      </trkpt>
      <trkpt lat="45.16053" lon="5.80127">
        <ele>662.2</ele>
        <time>2021-05-29T13:49:08Z</time>
      </trkpt>
      <trkpt lat="45.16052" lon="5.80126">
        <ele>662.2</ele>
        <time>2021-05-29T13:49:09Z</time>
      </trkpt>
      <trkpt lat="45.16052" lon="5.80125">
        <ele>662.4</ele>
        <time>2021-05-29T13:49:10Z</time>
      </trkpt>
      <trkpt lat="45.16052" lon="5.80124">
        <ele>662.6</ele>
        <time>2021-05-29T13:49:11Z</time>
      </trkpt>
      <trkpt lat="45.16051" lon="5.80123">
        <ele>662.4</ele>
        <time>2021-05-29T13:49:12Z</time>
      </trkpt>
      <trkpt lat="45.16051" lon="5.80122">
        <ele>662.6</ele>
        <time>2021-05-29T13:49:13Z</time>
      </trkpt>
      <trkpt lat="45.1605" lon="5.80121">
        <ele>662.4</ele>
        <time>2021-05-29T13:49:14Z</time>
      </trkpt>
      <trkpt lat="45.1605" lon="5.8012">
        <ele>662.2</ele>
        <time>2021-05-29T13:49:15Z</time>
      </trkpt>
      <trkpt lat="45.16049" lon="5.8012">
        <ele>662</ele>
        <time>2021-05-29T13:49:16Z</time>
      </trkpt>
      <trkpt lat="45.16049" lon="5.80119">
        <ele>661.8</ele>
        <time>2021-05-29T13:49:17Z</time>
      </trkpt>
      <trkpt lat="45.16049" lon="5.80118">
        <ele>661.6</ele>
        <time>2021-05-29T13:49:18Z</time>
      </trkpt>
      <trkpt lat="45.16048" lon="5.80117">
        <ele>661.2</ele>
        <time>2021-05-29T13:49:19Z</time>
      </trkpt>
      <trkpt lat="45.16048" lon="5.80116">
        <ele>661.2</ele>
        <time>2021-05-29T13:49:20Z</time>
      </trkpt>
      <trkpt lat="45.16047" lon="5.80115">
        <ele>660.8</ele>
        <time>2021-05-29T13:49:21Z</time>
      </trkpt>
      <trkpt lat="45.16047" lon="5.80114">
        <ele>660.8</ele>
        <time>2021-05-29T13:49:22Z</time>
      </trkpt>
      <trkpt lat="45.16046" lon="5.80113">
        <ele>660.6</ele>
        <time>2021-05-29T13:49:23Z</time>
      </trkpt>
      <trkpt lat="45.16046" lon="5.80112">
        <ele>660.6</ele>
        <time>2021-05-29T13:49:24Z</time>
      </trkpt>
      <trkpt lat="45.16045" lon="5.80111">
        <ele>660.4</ele>
        <time>2021-05-29T13:49:25Z</time>
      </trkpt>
      <trkpt lat="45.16045" lon="5.8011">
        <ele>660.6</ele>
        <time>2021-05-29T13:49:26Z</time>
      </trkpt>
      <trkpt lat="45.16044" lon="5.80109">
        <ele>660.6</ele>
        <time>2021-05-29T13:49:27Z</time>
      </trkpt>
      <trkpt lat="45.16044" lon="5.80108">
        <ele>660.6</ele>
        <time>2021-05-29T13:49:28Z</time>
      </trkpt>
      <trkpt lat="45.16044" lon="5.80106">
        <ele>660.8</ele>
        <time>2021-05-29T13:49:29Z</time>
      </trkpt>
      <trkpt lat="45.16043" lon="5.80105">
        <ele>661.2</ele>
        <time>2021-05-29T13:49:30Z</time>
      </trkpt>
      <trkpt lat="45.16043" lon="5.80104">
        <ele>661.2</ele>
        <time>2021-05-29T13:49:31Z</time>
      </trkpt>
      <trkpt lat="45.16043" lon="5.80103">
        <ele>661.8</ele>
        <time>2021-05-29T13:49:32Z</time>
      </trkpt>
      <trkpt lat="45.16042" lon="5.80102">
        <ele>661.8</ele>
        <time>2021-05-29T13:49:33Z</time>
      </trkpt>
      <trkpt lat="45.16042" lon="5.80101">
        <ele>662.4</ele>
        <time>2021-05-29T13:49:34Z</time>
      </trkpt>
      <trkpt lat="45.16042" lon="5.801">
        <ele>662.6</ele>
        <time>2021-05-29T13:49:35Z</time>
      </trkpt>
      <trkpt lat="45.16041" lon="5.80098">
        <ele>663.2</ele>
        <time>2021-05-29T13:49:36Z</time>
      </trkpt>
      <trkpt lat="45.16041" lon="5.80097">
        <ele>663.4</ele>
        <time>2021-05-29T13:49:37Z</time>
      </trkpt>
      <trkpt lat="45.1604" lon="5.80096">
        <ele>664</ele>
        <time>2021-05-29T13:49:38Z</time>
      </trkpt>
      <trkpt lat="45.16038" lon="5.80094">
        <ele>663.8</ele>
        <time>2021-05-29T13:49:39Z</time>
      </trkpt>
      <trkpt lat="45.16036" lon="5.80092">
        <ele>664.2</ele>
        <time>2021-05-29T13:49:40Z</time>
      </trkpt>
      <trkpt lat="45.16035" lon="5.80091">
        <ele>663.8</ele>
        <time>2021-05-29T13:49:41Z</time>
      </trkpt>
      <trkpt lat="45.16033" lon="5.80089">
        <ele>663.6</ele>
        <time>2021-05-29T13:49:42Z</time>
      </trkpt>
      <trkpt lat="45.16031" lon="5.80087">
        <ele>663.8</ele>
        <time>2021-05-29T13:49:43Z</time>
      </trkpt>
      <trkpt lat="45.16029" lon="5.80085">
        <ele>664</ele>
        <time>2021-05-29T13:49:44Z</time>
      </trkpt>
      <trkpt lat="45.16026" lon="5.80084">
        <ele>664</ele>
        <time>2021-05-29T13:49:45Z</time>
      </trkpt>
      <trkpt lat="45.16024" lon="5.80082">
        <ele>664</ele>
        <time>2021-05-29T13:49:46Z</time>
      </trkpt>
      <trkpt lat="45.16022" lon="5.8008">
        <ele>664.4</ele>
        <time>2021-05-29T13:49:47Z</time>
      </trkpt>
      <trkpt lat="45.1602" lon="5.80077">
        <ele>664.8</ele>
        <time>2021-05-29T13:49:48Z</time>
      </trkpt>
      <trkpt lat="45.16019" lon="5.80075">
        <ele>665.2</ele>
        <time>2021-05-29T13:49:49Z</time>
      </trkpt>
      <trkpt lat="45.16017" lon="5.80073">
        <ele>665.4</ele>
        <time>2021-05-29T13:49:50Z</time>
      </trkpt>
      <trkpt lat="45.16016" lon="5.80071">
        <ele>665.6</ele>
        <time>2021-05-29T13:49:51Z</time>
      </trkpt>
      <trkpt lat="45.16014" lon="5.8007">
        <ele>665.6</ele>
        <time>2021-05-29T13:49:52Z</time>
      </trkpt>
      <trkpt lat="45.16013" lon="5.80068">
        <ele>665.8</ele>
        <time>2021-05-29T13:49:53Z</time>
      </trkpt>
      <trkpt lat="45.16012" lon="5.80067">
        <ele>666</ele>
        <time>2021-05-29T13:49:54Z</time>
      </trkpt>
      <trkpt lat="45.16011" lon="5.80065">
        <ele>666.4</ele>
        <time>2021-05-29T13:49:55Z</time>
      </trkpt>
      <trkpt lat="45.16009" lon="5.80063">
        <ele>666.4</ele>
        <time>2021-05-29T13:49:56Z</time>
      </trkpt>
      <trkpt lat="45.16008" lon="5.80062">
        <ele>666.8</ele>
        <time>2021-05-29T13:49:57Z</time>
      </trkpt>
      <trkpt lat="45.16007" lon="5.8006">
        <ele>666.8</ele>
        <time>2021-05-29T13:49:58Z</time>
      </trkpt>
      <trkpt lat="45.16006" lon="5.80059">
        <ele>667.2</ele>
        <time>2021-05-29T13:50:00Z</time>
      </trkpt>
      <trkpt lat="45.16004" lon="5.80057">
        <ele>667.6</ele>
        <time>2021-05-29T13:50:01Z</time>
      </trkpt>
      <trkpt lat="45.16003" lon="5.80056">
        <ele>667.6</ele>
        <time>2021-05-29T13:50:02Z</time>
      </trkpt>
      <trkpt lat="45.16002" lon="5.80054">
        <ele>668</ele>
        <time>2021-05-29T13:50:03Z</time>
      </trkpt>
      <trkpt lat="45.16" lon="5.80053">
        <ele>668</ele>
        <time>2021-05-29T13:50:04Z</time>
      </trkpt>
      <trkpt lat="45.15999" lon="5.80052">
        <ele>668.4</ele>
        <time>2021-05-29T13:50:05Z</time>
      </trkpt>
      <trkpt lat="45.15998" lon="5.80051">
        <ele>668.4</ele>
        <time>2021-05-29T13:50:06Z</time>
      </trkpt>
      <trkpt lat="45.15996" lon="5.8005">
        <ele>668.8</ele>
        <time>2021-05-29T13:50:07Z</time>
      </trkpt>
      <trkpt lat="45.15995" lon="5.80049">
        <ele>668.8</ele>
        <time>2021-05-29T13:50:08Z</time>
      </trkpt>
      <trkpt lat="45.15994" lon="5.80048">
        <ele>669</ele>
        <time>2021-05-29T13:50:09Z</time>
      </trkpt>
      <trkpt lat="45.15992" lon="5.80047">
        <ele>669</ele>
        <time>2021-05-29T13:50:10Z</time>
      </trkpt>
      <trkpt lat="45.1599" lon="5.80047">
        <ele>669.2</ele>
        <time>2021-05-29T13:50:11Z</time>
      </trkpt>
      <trkpt lat="45.15988" lon="5.80046">
        <ele>669</ele>
        <time>2021-05-29T13:50:12Z</time>
      </trkpt>
      <trkpt lat="45.15986" lon="5.80046">
        <ele>669.2</ele>
        <time>2021-05-29T13:50:13Z</time>
      </trkpt>
      <trkpt lat="45.15984" lon="5.80046">
        <ele>669.2</ele>
        <time>2021-05-29T13:50:14Z</time>
      </trkpt>
      <trkpt lat="45.15983" lon="5.80045">
        <ele>669.4</ele>
        <time>2021-05-29T13:50:15Z</time>
      </trkpt>
      <trkpt lat="45.15981" lon="5.80045">
        <ele>669.2</ele>
        <time>2021-05-29T13:50:16Z</time>
      </trkpt>
      <trkpt lat="45.15978" lon="5.80044">
        <ele>669.8</ele>
        <time>2021-05-29T13:50:17Z</time>
      </trkpt>
      <trkpt lat="45.15975" lon="5.80044">
        <ele>669.8</ele>
        <time>2021-05-29T13:50:18Z</time>
      </trkpt>
      <trkpt lat="45.15973" lon="5.80043">
        <ele>670.2</ele>
        <time>2021-05-29T13:50:19Z</time>
      </trkpt>
      <trkpt lat="45.1597" lon="5.80043">
        <ele>670.2</ele>
        <time>2021-05-29T13:50:20Z</time>
      </trkpt>
      <trkpt lat="45.15965" lon="5.80041">
        <ele>670.4</ele>
        <time>2021-05-29T13:50:21Z</time>
      </trkpt>
      <trkpt lat="45.15961" lon="5.8004">
        <ele>670.2</ele>
        <time>2021-05-29T13:50:22Z</time>
      </trkpt>
      <trkpt lat="45.15956" lon="5.80038">
        <ele>670.4</ele>
        <time>2021-05-29T13:50:23Z</time>
      </trkpt>
      <trkpt lat="45.15952" lon="5.80036">
        <ele>670.4</ele>
        <time>2021-05-29T13:50:24Z</time>
      </trkpt>
      <trkpt lat="45.15945" lon="5.80034">
        <ele>670.4</ele>
        <time>2021-05-29T13:50:25Z</time>
      </trkpt>
      <trkpt lat="45.15943" lon="5.80034">
        <ele>670.4</ele>
        <time>2021-05-29T13:50:26Z</time>
      </trkpt>
      <trkpt lat="45.15942" lon="5.80034">
        <ele>670.2</ele>
        <time>2021-05-29T13:50:27Z</time>
      </trkpt>
      <trkpt lat="45.15937" lon="5.80034">
        <ele>670.2</ele>
        <time>2021-05-29T13:50:28Z</time>
      </trkpt>
      <trkpt lat="45.15937" lon="5.80034">
        <ele>670.2</ele>
        <time>2021-05-29T13:50:29Z</time>
      </trkpt>
      <trkpt lat="45.15937" lon="5.80034">
        <ele>670.6</ele>
        <time>2021-05-29T13:50:30Z</time>
      </trkpt>
      <trkpt lat="45.15934" lon="5.80034">
        <ele>670.8</ele>
        <time>2021-05-29T13:50:31Z</time>
      </trkpt>
      <trkpt lat="45.15931" lon="5.80035">
        <ele>670.8</ele>
        <time>2021-05-29T13:50:32Z</time>
      </trkpt>
      <trkpt lat="45.15928" lon="5.80035">
        <ele>670.8</ele>
        <time>2021-05-29T13:50:33Z</time>
      </trkpt>
      <trkpt lat="45.15926" lon="5.80035">
        <ele>671.2</ele>
        <time>2021-05-29T13:50:34Z</time>
      </trkpt>
      <trkpt lat="45.15923" lon="5.80035">
        <ele>671.2</ele>
        <time>2021-05-29T13:50:35Z</time>
      </trkpt>
      <trkpt lat="45.15921" lon="5.80034">
        <ele>671.6</ele>
        <time>2021-05-29T13:50:36Z</time>
      </trkpt>
      <trkpt lat="45.15918" lon="5.80033">
        <ele>671.6</ele>
        <time>2021-05-29T13:50:37Z</time>
      </trkpt>
      <trkpt lat="45.15915" lon="5.80032">
        <ele>671.8</ele>
        <time>2021-05-29T13:50:38Z</time>
      </trkpt>
      <trkpt lat="45.15914" lon="5.80031">
        <ele>672</ele>
        <time>2021-05-29T13:50:39Z</time>
      </trkpt>
      <trkpt lat="45.15912" lon="5.8003">
        <ele>672.4</ele>
        <time>2021-05-29T13:50:40Z</time>
      </trkpt>
      <trkpt lat="45.15911" lon="5.80029">
        <ele>672.6</ele>
        <time>2021-05-29T13:50:41Z</time>
      </trkpt>
      <trkpt lat="45.15909" lon="5.80028">
        <ele>672.8</ele>
        <time>2021-05-29T13:50:42Z</time>
      </trkpt>
      <trkpt lat="45.15908" lon="5.80026">
        <ele>673</ele>
        <time>2021-05-29T13:50:43Z</time>
      </trkpt>
      <trkpt lat="45.15906" lon="5.80025">
        <ele>673.2</ele>
        <time>2021-05-29T13:50:44Z</time>
      </trkpt>
      <trkpt lat="45.15904" lon="5.80023">
        <ele>673</ele>
        <time>2021-05-29T13:50:45Z</time>
      </trkpt>
      <trkpt lat="45.15901" lon="5.80021">
        <ele>673.4</ele>
        <time>2021-05-29T13:50:46Z</time>
      </trkpt>
      <trkpt lat="45.15899" lon="5.80019">
        <ele>673.4</ele>
        <time>2021-05-29T13:50:47Z</time>
      </trkpt>
      <trkpt lat="45.15896" lon="5.80018">
        <ele>673.6</ele>
        <time>2021-05-29T13:50:48Z</time>
      </trkpt>
      <trkpt lat="45.15894" lon="5.80016">
        <ele>673.8</ele>
        <time>2021-05-29T13:50:49Z</time>
      </trkpt>
      <trkpt lat="45.15893" lon="5.80015">
        <ele>674</ele>
        <time>2021-05-29T13:50:50Z</time>
      </trkpt>
      <trkpt lat="45.15891" lon="5.80013">
        <ele>674</ele>
        <time>2021-05-29T13:50:51Z</time>
      </trkpt>
      <trkpt lat="45.15889" lon="5.80011">
        <ele>674.2</ele>
        <time>2021-05-29T13:50:52Z</time>
      </trkpt>
      <trkpt lat="45.15888" lon="5.8001">
        <ele>674</ele>
        <time>2021-05-29T13:50:53Z</time>
      </trkpt>
      <trkpt lat="45.15886" lon="5.80009">
        <ele>674</ele>
        <time>2021-05-29T13:50:54Z</time>
      </trkpt>
      <trkpt lat="45.15885" lon="5.80008">
        <ele>673.6</ele>
        <time>2021-05-29T13:50:55Z</time>
      </trkpt>
      <trkpt lat="45.15883" lon="5.80007">
        <ele>673.8</ele>
        <time>2021-05-29T13:50:56Z</time>
      </trkpt>
      <trkpt lat="45.15882" lon="5.80007">
        <ele>674</ele>
        <time>2021-05-29T13:50:57Z</time>
      </trkpt>
      <trkpt lat="45.1588" lon="5.80006">
        <ele>673.8</ele>
        <time>2021-05-29T13:50:58Z</time>
      </trkpt>
      <trkpt lat="45.15878" lon="5.80005">
        <ele>673.8</ele>
        <time>2021-05-29T13:50:59Z</time>
      </trkpt>
      <trkpt lat="45.15878" lon="5.80003">
        <ele>673.2</ele>
        <time>2021-05-29T13:51:00Z</time>
      </trkpt>
      <trkpt lat="45.15878" lon="5.8">
        <ele>673.6</ele>
        <time>2021-05-29T13:51:01Z</time>
      </trkpt>
      <trkpt lat="45.15878" lon="5.79998">
        <ele>673.4</ele>
        <time>2021-05-29T13:51:02Z</time>
      </trkpt>
      <trkpt lat="45.15879" lon="5.79996">
        <ele>673.6</ele>
        <time>2021-05-29T13:51:03Z</time>
      </trkpt>
      <trkpt lat="45.15879" lon="5.79994">
        <ele>673.4</ele>
        <time>2021-05-29T13:51:04Z</time>
      </trkpt>
      <trkpt lat="45.15879" lon="5.79991">
        <ele>673.8</ele>
        <time>2021-05-29T13:51:05Z</time>
      </trkpt>
      <trkpt lat="45.15879" lon="5.79989">
        <ele>673.4</ele>
        <time>2021-05-29T13:51:06Z</time>
      </trkpt>
      <trkpt lat="45.15881" lon="5.79984">
        <ele>673.6</ele>
        <time>2021-05-29T13:51:07Z</time>
      </trkpt>
      <trkpt lat="45.15883" lon="5.79979">
        <ele>673.4</ele>
        <time>2021-05-29T13:51:08Z</time>
      </trkpt>
      <trkpt lat="45.15885" lon="5.79974">
        <ele>673.8</ele>
        <time>2021-05-29T13:51:09Z</time>
      </trkpt>
      <trkpt lat="45.15887" lon="5.79969">
        <ele>673.6</ele>
        <time>2021-05-29T13:51:10Z</time>
      </trkpt>
      <trkpt lat="45.15891" lon="5.79964">
        <ele>674</ele>
        <time>2021-05-29T13:51:11Z</time>
      </trkpt>
      <trkpt lat="45.15891" lon="5.79964">
        <ele>673.8</ele>
        <time>2021-05-29T13:51:12Z</time>
      </trkpt>
      <trkpt lat="45.15891" lon="5.79964">
        <ele>674</ele>
        <time>2021-05-29T13:51:13Z</time>
      </trkpt>
      <trkpt lat="45.15893" lon="5.7996">
        <ele>673.6</ele>
        <time>2021-05-29T13:51:14Z</time>
      </trkpt>
      <trkpt lat="45.15894" lon="5.79957">
        <ele>673.6</ele>
        <time>2021-05-29T13:51:15Z</time>
      </trkpt>
      <trkpt lat="45.15895" lon="5.79953">
        <ele>673.4</ele>
        <time>2021-05-29T13:51:16Z</time>
      </trkpt>
      <trkpt lat="45.15897" lon="5.79949">
        <ele>673.6</ele>
        <time>2021-05-29T13:51:17Z</time>
      </trkpt>
      <trkpt lat="45.15898" lon="5.79946">
        <ele>673.4</ele>
        <time>2021-05-29T13:51:18Z</time>
      </trkpt>
      <trkpt lat="45.15899" lon="5.79943">
        <ele>673.6</ele>
        <time>2021-05-29T13:51:19Z</time>
      </trkpt>
      <trkpt lat="45.159" lon="5.7994">
        <ele>673.6</ele>
        <time>2021-05-29T13:51:20Z</time>
      </trkpt>
      <trkpt lat="45.15901" lon="5.79938">
        <ele>673.6</ele>
        <time>2021-05-29T13:51:21Z</time>
      </trkpt>
      <trkpt lat="45.15903" lon="5.79935">
        <ele>673.4</ele>
        <time>2021-05-29T13:51:22Z</time>
      </trkpt>
      <trkpt lat="45.15904" lon="5.79932">
        <ele>673.6</ele>
        <time>2021-05-29T13:51:23Z</time>
      </trkpt>
      <trkpt lat="45.15906" lon="5.7993">
        <ele>673.2</ele>
        <time>2021-05-29T13:51:24Z</time>
      </trkpt>
      <trkpt lat="45.15907" lon="5.79927">
        <ele>673.4</ele>
        <time>2021-05-29T13:51:25Z</time>
      </trkpt>
      <trkpt lat="45.15908" lon="5.79924">
        <ele>673.2</ele>
        <time>2021-05-29T13:51:26Z</time>
      </trkpt>
      <trkpt lat="45.15909" lon="5.79922">
        <ele>673.4</ele>
        <time>2021-05-29T13:51:27Z</time>
      </trkpt>
      <trkpt lat="45.1591" lon="5.7992">
        <ele>673</ele>
        <time>2021-05-29T13:51:28Z</time>
      </trkpt>
      <trkpt lat="45.15911" lon="5.79917">
        <ele>673</ele>
        <time>2021-05-29T13:51:29Z</time>
      </trkpt>
      <trkpt lat="45.15912" lon="5.79915">
        <ele>672.6</ele>
        <time>2021-05-29T13:51:30Z</time>
      </trkpt>
      <trkpt lat="45.15913" lon="5.79913">
        <ele>673</ele>
        <time>2021-05-29T13:51:31Z</time>
      </trkpt>
      <trkpt lat="45.15914" lon="5.7991">
        <ele>672.8</ele>
        <time>2021-05-29T13:51:32Z</time>
      </trkpt>
      <trkpt lat="45.15915" lon="5.79907">
        <ele>673.2</ele>
        <time>2021-05-29T13:51:33Z</time>
      </trkpt>
      <trkpt lat="45.15915" lon="5.79904">
        <ele>673</ele>
        <time>2021-05-29T13:51:34Z</time>
      </trkpt>
      <trkpt lat="45.15916" lon="5.79902">
        <ele>673.4</ele>
        <time>2021-05-29T13:51:35Z</time>
      </trkpt>
      <trkpt lat="45.15917" lon="5.79899">
        <ele>673.6</ele>
        <time>2021-05-29T13:51:36Z</time>
      </trkpt>
      <trkpt lat="45.15917" lon="5.79897">
        <ele>674.2</ele>
        <time>2021-05-29T13:51:37Z</time>
      </trkpt>
      <trkpt lat="45.15918" lon="5.79894">
        <ele>674</ele>
        <time>2021-05-29T13:51:38Z</time>
      </trkpt>
      <trkpt lat="45.15919" lon="5.79892">
        <ele>674.4</ele>
        <time>2021-05-29T13:51:39Z</time>
      </trkpt>
      <trkpt lat="45.1592" lon="5.7989">
        <ele>674.4</ele>
        <time>2021-05-29T13:51:40Z</time>
      </trkpt>
      <trkpt lat="45.15921" lon="5.79887">
        <ele>675</ele>
        <time>2021-05-29T13:51:41Z</time>
      </trkpt>
      <trkpt lat="45.15922" lon="5.79885">
        <ele>674.6</ele>
        <time>2021-05-29T13:51:42Z</time>
      </trkpt>
      <trkpt lat="45.15922" lon="5.79882">
        <ele>674.8</ele>
        <time>2021-05-29T13:51:43Z</time>
      </trkpt>
      <trkpt lat="45.15923" lon="5.79879">
        <ele>674.4</ele>
        <time>2021-05-29T13:51:44Z</time>
      </trkpt>
      <trkpt lat="45.15924" lon="5.79876">
        <ele>674.8</ele>
        <time>2021-05-29T13:51:45Z</time>
      </trkpt>
      <trkpt lat="45.15924" lon="5.79873">
        <ele>674.6</ele>
        <time>2021-05-29T13:51:46Z</time>
      </trkpt>
      <trkpt lat="45.15925" lon="5.7987">
        <ele>675</ele>
        <time>2021-05-29T13:51:47Z</time>
      </trkpt>
      <trkpt lat="45.15926" lon="5.79868">
        <ele>674.6</ele>
        <time>2021-05-29T13:51:48Z</time>
      </trkpt>
      <trkpt lat="45.15927" lon="5.79866">
        <ele>674.6</ele>
        <time>2021-05-29T13:51:49Z</time>
      </trkpt>
      <trkpt lat="45.15928" lon="5.79863">
        <ele>674.2</ele>
        <time>2021-05-29T13:51:50Z</time>
      </trkpt>
      <trkpt lat="45.15928" lon="5.79861">
        <ele>674.4</ele>
        <time>2021-05-29T13:51:51Z</time>
      </trkpt>
      <trkpt lat="45.15929" lon="5.79858">
        <ele>674.2</ele>
        <time>2021-05-29T13:51:52Z</time>
      </trkpt>
      <trkpt lat="45.1593" lon="5.79855">
        <ele>674.4</ele>
        <time>2021-05-29T13:51:53Z</time>
      </trkpt>
      <trkpt lat="45.15931" lon="5.79853">
        <ele>674</ele>
        <time>2021-05-29T13:51:54Z</time>
      </trkpt>
      <trkpt lat="45.15931" lon="5.7985">
        <ele>674.2</ele>
        <time>2021-05-29T13:51:55Z</time>
      </trkpt>
      <trkpt lat="45.15932" lon="5.79847">
        <ele>673.8</ele>
        <time>2021-05-29T13:51:56Z</time>
      </trkpt>
      <trkpt lat="45.15933" lon="5.79845">
        <ele>673.8</ele>
        <time>2021-05-29T13:51:57Z</time>
      </trkpt>
      <trkpt lat="45.15934" lon="5.79842">
        <ele>673.4</ele>
        <time>2021-05-29T13:51:58Z</time>
      </trkpt>
      <trkpt lat="45.15935" lon="5.7984">
        <ele>673</ele>
        <time>2021-05-29T13:51:59Z</time>
      </trkpt>
      <trkpt lat="45.15935" lon="5.79837">
        <ele>672.6</ele>
        <time>2021-05-29T13:52:00Z</time>
      </trkpt>
      <trkpt lat="45.15936" lon="5.79835">
        <ele>672.2</ele>
        <time>2021-05-29T13:52:01Z</time>
      </trkpt>
      <trkpt lat="45.15937" lon="5.79833">
        <ele>672</ele>
        <time>2021-05-29T13:52:02Z</time>
      </trkpt>
      <trkpt lat="45.15937" lon="5.79829">
        <ele>671.8</ele>
        <time>2021-05-29T13:52:03Z</time>
      </trkpt>
      <trkpt lat="45.15938" lon="5.79826">
        <ele>672</ele>
        <time>2021-05-29T13:52:04Z</time>
      </trkpt>
      <trkpt lat="45.15938" lon="5.79823">
        <ele>671.6</ele>
        <time>2021-05-29T13:52:05Z</time>
      </trkpt>
      <trkpt lat="45.15939" lon="5.7982">
        <ele>671.8</ele>
        <time>2021-05-29T13:52:06Z</time>
      </trkpt>
      <trkpt lat="45.15943" lon="5.79806">
        <ele>671.4</ele>
        <time>2021-05-29T13:52:07Z</time>
      </trkpt>
      <trkpt lat="45.15943" lon="5.79806">
        <ele>671.6</ele>
        <time>2021-05-29T13:52:08Z</time>
      </trkpt>
      <trkpt lat="45.15943" lon="5.79806">
        <ele>671.4</ele>
        <time>2021-05-29T13:52:09Z</time>
      </trkpt>
      <trkpt lat="45.15943" lon="5.79802">
        <ele>671.6</ele>
        <time>2021-05-29T13:52:10Z</time>
      </trkpt>
      <trkpt lat="45.15942" lon="5.79799">
        <ele>671.4</ele>
        <time>2021-05-29T13:52:11Z</time>
      </trkpt>
      <trkpt lat="45.15942" lon="5.79796">
        <ele>671.4</ele>
        <time>2021-05-29T13:52:12Z</time>
      </trkpt>
      <trkpt lat="45.15941" lon="5.79793">
        <ele>671.2</ele>
        <time>2021-05-29T13:52:13Z</time>
      </trkpt>
      <trkpt lat="45.15941" lon="5.7979">
        <ele>671.4</ele>
        <time>2021-05-29T13:52:14Z</time>
      </trkpt>
      <trkpt lat="45.15941" lon="5.79787">
        <ele>671.2</ele>
        <time>2021-05-29T13:52:15Z</time>
      </trkpt>
      <trkpt lat="45.1594" lon="5.79784">
        <ele>671.4</ele>
        <time>2021-05-29T13:52:16Z</time>
      </trkpt>
      <trkpt lat="45.1594" lon="5.79781">
        <ele>671</ele>
        <time>2021-05-29T13:52:17Z</time>
      </trkpt>
      <trkpt lat="45.1594" lon="5.79779">
        <ele>671</ele>
        <time>2021-05-29T13:52:18Z</time>
      </trkpt>
      <trkpt lat="45.1594" lon="5.79776">
        <ele>670.8</ele>
        <time>2021-05-29T13:52:19Z</time>
      </trkpt>
      <trkpt lat="45.1594" lon="5.79774">
        <ele>670.6</ele>
        <time>2021-05-29T13:52:20Z</time>
      </trkpt>
      <trkpt lat="45.1594" lon="5.79771">
        <ele>670.4</ele>
        <time>2021-05-29T13:52:21Z</time>
      </trkpt>
      <trkpt lat="45.1594" lon="5.79769">
        <ele>670.6</ele>
        <time>2021-05-29T13:52:22Z</time>
      </trkpt>
      <trkpt lat="45.15939" lon="5.79767">
        <ele>670.4</ele>
        <time>2021-05-29T13:52:23Z</time>
      </trkpt>
      <trkpt lat="45.15939" lon="5.79764">
        <ele>670.6</ele>
        <time>2021-05-29T13:52:24Z</time>
      </trkpt>
      <trkpt lat="45.15939" lon="5.79763">
        <ele>670.6</ele>
        <time>2021-05-29T13:52:25Z</time>
      </trkpt>
      <trkpt lat="45.15938" lon="5.79761">
        <ele>670.6</ele>
        <time>2021-05-29T13:52:26Z</time>
      </trkpt>
      <trkpt lat="45.15937" lon="5.79759">
        <ele>670.6</ele>
        <time>2021-05-29T13:52:27Z</time>
      </trkpt>
      <trkpt lat="45.15936" lon="5.79757">
        <ele>670.6</ele>
        <time>2021-05-29T13:52:28Z</time>
      </trkpt>
      <trkpt lat="45.15935" lon="5.79756">
        <ele>670.8</ele>
        <time>2021-05-29T13:52:29Z</time>
      </trkpt>
      <trkpt lat="45.15934" lon="5.79754">
        <ele>671</ele>
        <time>2021-05-29T13:52:30Z</time>
      </trkpt>
      <trkpt lat="45.15932" lon="5.79751">
        <ele>671.2</ele>
        <time>2021-05-29T13:52:31Z</time>
      </trkpt>
      <trkpt lat="45.15931" lon="5.79748">
        <ele>671.4</ele>
        <time>2021-05-29T13:52:32Z</time>
      </trkpt>
      <trkpt lat="45.15929" lon="5.79745">
        <ele>671.8</ele>
        <time>2021-05-29T13:52:33Z</time>
      </trkpt>
      <trkpt lat="45.15928" lon="5.79742">
        <ele>672</ele>
        <time>2021-05-29T13:52:34Z</time>
      </trkpt>
      <trkpt lat="45.15927" lon="5.79739">
        <ele>672.2</ele>
        <time>2021-05-29T13:52:35Z</time>
      </trkpt>
      <trkpt lat="45.15926" lon="5.79736">
        <ele>672.4</ele>
        <time>2021-05-29T13:52:36Z</time>
      </trkpt>
      <trkpt lat="45.15925" lon="5.79733">
        <ele>672.8</ele>
        <time>2021-05-29T13:52:37Z</time>
      </trkpt>
      <trkpt lat="45.15924" lon="5.7973">
        <ele>672.8</ele>
        <time>2021-05-29T13:52:38Z</time>
      </trkpt>
      <trkpt lat="45.15924" lon="5.79726">
        <ele>673</ele>
        <time>2021-05-29T13:52:39Z</time>
      </trkpt>
      <trkpt lat="45.15925" lon="5.79722">
        <ele>673</ele>
        <time>2021-05-29T13:52:40Z</time>
      </trkpt>
      <trkpt lat="45.15925" lon="5.79719">
        <ele>673.2</ele>
        <time>2021-05-29T13:52:41Z</time>
      </trkpt>
      <trkpt lat="45.15925" lon="5.79715">
        <ele>673.4</ele>
        <time>2021-05-29T13:52:42Z</time>
      </trkpt>
      <trkpt lat="45.15927" lon="5.79711">
        <ele>673.2</ele>
        <time>2021-05-29T13:52:43Z</time>
      </trkpt>
      <trkpt lat="45.15928" lon="5.79708">
        <ele>672.6</ele>
        <time>2021-05-29T13:52:44Z</time>
      </trkpt>
      <trkpt lat="45.15929" lon="5.79706">
        <ele>672.8</ele>
        <time>2021-05-29T13:52:45Z</time>
      </trkpt>
      <trkpt lat="45.1593" lon="5.79704">
        <ele>672</ele>
        <time>2021-05-29T13:52:46Z</time>
      </trkpt>
      <trkpt lat="45.15931" lon="5.79702">
        <ele>672</ele>
        <time>2021-05-29T13:52:47Z</time>
      </trkpt>
      <trkpt lat="45.15932" lon="5.797">
        <ele>671.2</ele>
        <time>2021-05-29T13:52:48Z</time>
      </trkpt>
      <trkpt lat="45.15933" lon="5.79697">
        <ele>670.8</ele>
        <time>2021-05-29T13:52:49Z</time>
      </trkpt>
      <trkpt lat="45.15934" lon="5.79695">
        <ele>670.4</ele>
        <time>2021-05-29T13:52:50Z</time>
      </trkpt>
      <trkpt lat="45.15935" lon="5.79693">
        <ele>670.2</ele>
        <time>2021-05-29T13:52:51Z</time>
      </trkpt>
      <trkpt lat="45.15936" lon="5.79691">
        <ele>669.4</ele>
        <time>2021-05-29T13:52:52Z</time>
      </trkpt>
      <trkpt lat="45.15937" lon="5.79689">
        <ele>668.6</ele>
        <time>2021-05-29T13:52:53Z</time>
      </trkpt>
      <trkpt lat="45.15938" lon="5.79686">
        <ele>668</ele>
        <time>2021-05-29T13:52:54Z</time>
      </trkpt>
      <trkpt lat="45.15939" lon="5.79684">
        <ele>667.2</ele>
        <time>2021-05-29T13:52:55Z</time>
      </trkpt>
      <trkpt lat="45.15941" lon="5.79682">
        <ele>666.6</ele>
        <time>2021-05-29T13:52:56Z</time>
      </trkpt>
      <trkpt lat="45.15942" lon="5.7968">
        <ele>666.2</ele>
        <time>2021-05-29T13:52:57Z</time>
      </trkpt>
      <trkpt lat="45.15942" lon="5.7968">
        <ele>665.6</ele>
        <time>2021-05-29T13:52:58Z</time>
      </trkpt>
      <trkpt lat="45.15942" lon="5.7968">
        <ele>665.4</ele>
        <time>2021-05-29T13:52:59Z</time>
      </trkpt>
      <trkpt lat="45.15942" lon="5.79677">
        <ele>665.4</ele>
        <time>2021-05-29T13:53:00Z</time>
      </trkpt>
      <trkpt lat="45.15943" lon="5.79675">
        <ele>665.4</ele>
        <time>2021-05-29T13:53:01Z</time>
      </trkpt>
      <trkpt lat="45.15944" lon="5.79672">
        <ele>665.4</ele>
        <time>2021-05-29T13:53:02Z</time>
      </trkpt>
      <trkpt lat="45.15945" lon="5.7967">
        <ele>665.4</ele>
        <time>2021-05-29T13:53:03Z</time>
      </trkpt>
      <trkpt lat="45.15946" lon="5.79668">
        <ele>665.2</ele>
        <time>2021-05-29T13:53:04Z</time>
      </trkpt>
      <trkpt lat="45.15947" lon="5.79664">
        <ele>665.4</ele>
        <time>2021-05-29T13:53:05Z</time>
      </trkpt>
      <trkpt lat="45.15948" lon="5.79661">
        <ele>665.2</ele>
        <time>2021-05-29T13:53:06Z</time>
      </trkpt>
      <trkpt lat="45.1595" lon="5.79658">
        <ele>665</ele>
        <time>2021-05-29T13:53:07Z</time>
      </trkpt>
      <trkpt lat="45.15951" lon="5.79655">
        <ele>665.4</ele>
        <time>2021-05-29T13:53:08Z</time>
      </trkpt>
      <trkpt lat="45.15953" lon="5.79652">
        <ele>665.4</ele>
        <time>2021-05-29T13:53:09Z</time>
      </trkpt>
      <trkpt lat="45.15954" lon="5.79649">
        <ele>665.8</ele>
        <time>2021-05-29T13:53:10Z</time>
      </trkpt>
      <trkpt lat="45.15955" lon="5.79646">
        <ele>665.8</ele>
        <time>2021-05-29T13:53:11Z</time>
      </trkpt>
      <trkpt lat="45.15957" lon="5.79644">
        <ele>666.2</ele>
        <time>2021-05-29T13:53:12Z</time>
      </trkpt>
      <trkpt lat="45.15958" lon="5.7964">
        <ele>666.2</ele>
        <time>2021-05-29T13:53:13Z</time>
      </trkpt>
      <trkpt lat="45.15959" lon="5.79637">
        <ele>666.6</ele>
        <time>2021-05-29T13:53:14Z</time>
      </trkpt>
      <trkpt lat="45.1596" lon="5.79634">
        <ele>666.6</ele>
        <time>2021-05-29T13:53:15Z</time>
      </trkpt>
      <trkpt lat="45.15962" lon="5.79631">
        <ele>667</ele>
        <time>2021-05-29T13:53:16Z</time>
      </trkpt>
      <trkpt lat="45.15963" lon="5.79629">
        <ele>667</ele>
        <time>2021-05-29T13:53:17Z</time>
      </trkpt>
      <trkpt lat="45.15963" lon="5.79626">
        <ele>667.4</ele>
        <time>2021-05-29T13:53:18Z</time>
      </trkpt>
      <trkpt lat="45.15964" lon="5.79623">
        <ele>667.4</ele>
        <time>2021-05-29T13:53:19Z</time>
      </trkpt>
      <trkpt lat="45.15965" lon="5.79621">
        <ele>667.8</ele>
        <time>2021-05-29T13:53:20Z</time>
      </trkpt>
      <trkpt lat="45.15966" lon="5.79618">
        <ele>667.8</ele>
        <time>2021-05-29T13:53:21Z</time>
      </trkpt>
      <trkpt lat="45.15968" lon="5.79615">
        <ele>668</ele>
        <time>2021-05-29T13:53:22Z</time>
      </trkpt>
      <trkpt lat="45.1597" lon="5.79613">
        <ele>667.6</ele>
        <time>2021-05-29T13:53:23Z</time>
      </trkpt>
      <trkpt lat="45.15971" lon="5.7961">
        <ele>667.8</ele>
        <time>2021-05-29T13:53:24Z</time>
      </trkpt>
      <trkpt lat="45.15973" lon="5.79607">
        <ele>667.4</ele>
        <time>2021-05-29T13:53:25Z</time>
      </trkpt>
      <trkpt lat="45.15974" lon="5.79605">
        <ele>667.8</ele>
        <time>2021-05-29T13:53:26Z</time>
      </trkpt>
      <trkpt lat="45.15975" lon="5.79603">
        <ele>667.6</ele>
        <time>2021-05-29T13:53:27Z</time>
      </trkpt>
      <trkpt lat="45.15976" lon="5.79601">
        <ele>668</ele>
        <time>2021-05-29T13:53:28Z</time>
      </trkpt>
      <trkpt lat="45.15976" lon="5.79599">
        <ele>667.8</ele>
        <time>2021-05-29T13:53:29Z</time>
      </trkpt>
      <trkpt lat="45.15977" lon="5.79597">
        <ele>667.8</ele>
        <time>2021-05-29T13:53:30Z</time>
      </trkpt>
      <trkpt lat="45.15978" lon="5.79596">
        <ele>667.8</ele>
        <time>2021-05-29T13:53:31Z</time>
      </trkpt>
      <trkpt lat="45.15979" lon="5.79594">
        <ele>668.2</ele>
        <time>2021-05-29T13:53:32Z</time>
      </trkpt>
      <trkpt lat="45.1598" lon="5.79591">
        <ele>668.2</ele>
        <time>2021-05-29T13:53:33Z</time>
      </trkpt>
      <trkpt lat="45.15981" lon="5.79589">
        <ele>668.2</ele>
        <time>2021-05-29T13:53:34Z</time>
      </trkpt>
      <trkpt lat="45.15982" lon="5.79587">
        <ele>667.6</ele>
        <time>2021-05-29T13:53:35Z</time>
      </trkpt>
      <trkpt lat="45.15983" lon="5.79585">
        <ele>667.4</ele>
        <time>2021-05-29T13:53:36Z</time>
      </trkpt>
      <trkpt lat="45.15985" lon="5.79583">
        <ele>667.6</ele>
        <time>2021-05-29T13:53:37Z</time>
      </trkpt>
      <trkpt lat="45.15986" lon="5.79582">
        <ele>667.4</ele>
        <time>2021-05-29T13:53:38Z</time>
      </trkpt>
      <trkpt lat="45.15987" lon="5.7958">
        <ele>667.6</ele>
        <time>2021-05-29T13:53:39Z</time>
      </trkpt>
      <trkpt lat="45.15989" lon="5.79578">
        <ele>667.6</ele>
        <time>2021-05-29T13:53:40Z</time>
      </trkpt>
      <trkpt lat="45.1599" lon="5.79576">
        <ele>667.8</ele>
        <time>2021-05-29T13:53:41Z</time>
      </trkpt>
      <trkpt lat="45.15992" lon="5.79575">
        <ele>667.8</ele>
        <time>2021-05-29T13:53:42Z</time>
      </trkpt>
      <trkpt lat="45.15993" lon="5.79573">
        <ele>668</ele>
        <time>2021-05-29T13:53:43Z</time>
      </trkpt>
      <trkpt lat="45.15995" lon="5.79571">
        <ele>668.2</ele>
        <time>2021-05-29T13:53:44Z</time>
      </trkpt>
      <trkpt lat="45.15997" lon="5.79568">
        <ele>668.4</ele>
        <time>2021-05-29T13:53:45Z</time>
      </trkpt>
      <trkpt lat="45.15999" lon="5.79566">
        <ele>668.4</ele>
        <time>2021-05-29T13:53:46Z</time>
      </trkpt>
      <trkpt lat="45.16002" lon="5.79563">
        <ele>669</ele>
        <time>2021-05-29T13:53:47Z</time>
      </trkpt>
      <trkpt lat="45.16003" lon="5.79561">
        <ele>669</ele>
        <time>2021-05-29T13:53:48Z</time>
      </trkpt>
      <trkpt lat="45.16005" lon="5.79559">
        <ele>669.4</ele>
        <time>2021-05-29T13:53:49Z</time>
      </trkpt>
      <trkpt lat="45.16007" lon="5.79557">
        <ele>669.6</ele>
        <time>2021-05-29T13:53:50Z</time>
      </trkpt>
      <trkpt lat="45.16009" lon="5.79555">
        <ele>670.2</ele>
        <time>2021-05-29T13:53:51Z</time>
      </trkpt>
      <trkpt lat="45.1601" lon="5.79553">
        <ele>670.2</ele>
        <time>2021-05-29T13:53:52Z</time>
      </trkpt>
      <trkpt lat="45.16011" lon="5.79551">
        <ele>670.6</ele>
        <time>2021-05-29T13:53:53Z</time>
      </trkpt>
      <trkpt lat="45.16012" lon="5.79549">
        <ele>670.6</ele>
        <time>2021-05-29T13:53:54Z</time>
      </trkpt>
      <trkpt lat="45.16012" lon="5.79547">
        <ele>670.8</ele>
        <time>2021-05-29T13:53:55Z</time>
      </trkpt>
      <trkpt lat="45.16013" lon="5.79545">
        <ele>670.6</ele>
        <time>2021-05-29T13:53:56Z</time>
      </trkpt>
      <trkpt lat="45.16014" lon="5.79543">
        <ele>670.8</ele>
        <time>2021-05-29T13:53:57Z</time>
      </trkpt>
      <trkpt lat="45.16014" lon="5.79541">
        <ele>670.6</ele>
        <time>2021-05-29T13:53:58Z</time>
      </trkpt>
      <trkpt lat="45.16015" lon="5.79538">
        <ele>670.8</ele>
        <time>2021-05-29T13:53:59Z</time>
      </trkpt>
      <trkpt lat="45.16015" lon="5.79536">
        <ele>670.4</ele>
        <time>2021-05-29T13:54:00Z</time>
      </trkpt>
      <trkpt lat="45.16016" lon="5.79534">
        <ele>670.6</ele>
        <time>2021-05-29T13:54:01Z</time>
      </trkpt>
      <trkpt lat="45.16016" lon="5.79532">
        <ele>670.6</ele>
        <time>2021-05-29T13:54:02Z</time>
      </trkpt>
      <trkpt lat="45.16017" lon="5.79529">
        <ele>671</ele>
        <time>2021-05-29T13:54:03Z</time>
      </trkpt>
      <trkpt lat="45.16017" lon="5.79527">
        <ele>671</ele>
        <time>2021-05-29T13:54:04Z</time>
      </trkpt>
      <trkpt lat="45.16016" lon="5.79525">
        <ele>671.2</ele>
        <time>2021-05-29T13:54:05Z</time>
      </trkpt>
      <trkpt lat="45.16016" lon="5.79522">
        <ele>671.4</ele>
        <time>2021-05-29T13:54:06Z</time>
      </trkpt>
      <trkpt lat="45.16016" lon="5.7952">
        <ele>671.8</ele>
        <time>2021-05-29T13:54:07Z</time>
      </trkpt>
      <trkpt lat="45.16016" lon="5.79518">
        <ele>671.6</ele>
        <time>2021-05-29T13:54:08Z</time>
      </trkpt>
      <trkpt lat="45.16016" lon="5.79515">
        <ele>672</ele>
        <time>2021-05-29T13:54:09Z</time>
      </trkpt>
      <trkpt lat="45.16016" lon="5.79513">
        <ele>671.8</ele>
        <time>2021-05-29T13:54:10Z</time>
      </trkpt>
      <trkpt lat="45.16016" lon="5.7951">
        <ele>672</ele>
        <time>2021-05-29T13:54:11Z</time>
      </trkpt>
      <trkpt lat="45.16015" lon="5.79507">
        <ele>671.8</ele>
        <time>2021-05-29T13:54:12Z</time>
      </trkpt>
      <trkpt lat="45.16015" lon="5.79505">
        <ele>672</ele>
        <time>2021-05-29T13:54:13Z</time>
      </trkpt>
      <trkpt lat="45.16015" lon="5.79502">
        <ele>671.8</ele>
        <time>2021-05-29T13:54:14Z</time>
      </trkpt>
      <trkpt lat="45.16015" lon="5.795">
        <ele>672</ele>
        <time>2021-05-29T13:54:15Z</time>
      </trkpt>
      <trkpt lat="45.16015" lon="5.79497">
        <ele>672.2</ele>
        <time>2021-05-29T13:54:16Z</time>
      </trkpt>
      <trkpt lat="45.16015" lon="5.79495">
        <ele>672.4</ele>
        <time>2021-05-29T13:54:17Z</time>
      </trkpt>
      <trkpt lat="45.16015" lon="5.79492">
        <ele>672.6</ele>
        <time>2021-05-29T13:54:18Z</time>
      </trkpt>
      <trkpt lat="45.16015" lon="5.7949">
        <ele>672.8</ele>
        <time>2021-05-29T13:54:19Z</time>
      </trkpt>
      <trkpt lat="45.16015" lon="5.79488">
        <ele>672.6</ele>
        <time>2021-05-29T13:54:20Z</time>
      </trkpt>
      <trkpt lat="45.16014" lon="5.79485">
        <ele>672.8</ele>
        <time>2021-05-29T13:54:21Z</time>
      </trkpt>
      <trkpt lat="45.16014" lon="5.79482">
        <ele>672.8</ele>
        <time>2021-05-29T13:54:22Z</time>
      </trkpt>
      <trkpt lat="45.16013" lon="5.79479">
        <ele>673</ele>
        <time>2021-05-29T13:54:23Z</time>
      </trkpt>
      <trkpt lat="45.16013" lon="5.79476">
        <ele>673</ele>
        <time>2021-05-29T13:54:24Z</time>
      </trkpt>
      <trkpt lat="45.16012" lon="5.79474">
        <ele>673.2</ele>
        <time>2021-05-29T13:54:25Z</time>
      </trkpt>
      <trkpt lat="45.16012" lon="5.7947">
        <ele>673.2</ele>
        <time>2021-05-29T13:54:26Z</time>
      </trkpt>
      <trkpt lat="45.16011" lon="5.79467">
        <ele>673.6</ele>
        <time>2021-05-29T13:54:27Z</time>
      </trkpt>
      <trkpt lat="45.16011" lon="5.79464">
        <ele>673.6</ele>
        <time>2021-05-29T13:54:28Z</time>
      </trkpt>
      <trkpt lat="45.1601" lon="5.79461">
        <ele>673.8</ele>
        <time>2021-05-29T13:54:29Z</time>
      </trkpt>
      <trkpt lat="45.1601" lon="5.79458">
        <ele>673.6</ele>
        <time>2021-05-29T13:54:30Z</time>
      </trkpt>
      <trkpt lat="45.16009" lon="5.79455">
        <ele>674</ele>
        <time>2021-05-29T13:54:31Z</time>
      </trkpt>
      <trkpt lat="45.16008" lon="5.79452">
        <ele>674</ele>
        <time>2021-05-29T13:54:32Z</time>
      </trkpt>
      <trkpt lat="45.16007" lon="5.79449">
        <ele>674</ele>
        <time>2021-05-29T13:54:33Z</time>
      </trkpt>
      <trkpt lat="45.16007" lon="5.79446">
        <ele>673.8</ele>
        <time>2021-05-29T13:54:34Z</time>
      </trkpt>
      <trkpt lat="45.16006" lon="5.79443">
        <ele>674.2</ele>
        <time>2021-05-29T13:54:35Z</time>
      </trkpt>
      <trkpt lat="45.16005" lon="5.79441">
        <ele>674</ele>
        <time>2021-05-29T13:54:36Z</time>
      </trkpt>
      <trkpt lat="45.16004" lon="5.79438">
        <ele>674.2</ele>
        <time>2021-05-29T13:54:37Z</time>
      </trkpt>
      <trkpt lat="45.16003" lon="5.79436">
        <ele>674.2</ele>
        <time>2021-05-29T13:54:38Z</time>
      </trkpt>
      <trkpt lat="45.16003" lon="5.79433">
        <ele>674.2</ele>
        <time>2021-05-29T13:54:39Z</time>
      </trkpt>
      <trkpt lat="45.16002" lon="5.79431">
        <ele>674</ele>
        <time>2021-05-29T13:54:40Z</time>
      </trkpt>
      <trkpt lat="45.16001" lon="5.79428">
        <ele>674.4</ele>
        <time>2021-05-29T13:54:41Z</time>
      </trkpt>
      <trkpt lat="45.16" lon="5.79426">
        <ele>674.2</ele>
        <time>2021-05-29T13:54:42Z</time>
      </trkpt>
      <trkpt lat="45.15999" lon="5.79423">
        <ele>674</ele>
        <time>2021-05-29T13:54:43Z</time>
      </trkpt>
      <trkpt lat="45.15998" lon="5.79421">
        <ele>673.8</ele>
        <time>2021-05-29T13:54:44Z</time>
      </trkpt>
      <trkpt lat="45.15997" lon="5.79418">
        <ele>673.6</ele>
        <time>2021-05-29T13:54:45Z</time>
      </trkpt>
      <trkpt lat="45.15996" lon="5.79416">
        <ele>673.6</ele>
        <time>2021-05-29T13:54:46Z</time>
      </trkpt>
      <trkpt lat="45.15995" lon="5.79413">
        <ele>673.6</ele>
        <time>2021-05-29T13:54:47Z</time>
      </trkpt>
      <trkpt lat="45.15995" lon="5.79411">
        <ele>673.4</ele>
        <time>2021-05-29T13:54:48Z</time>
      </trkpt>
      <trkpt lat="45.15994" lon="5.79408">
        <ele>673.4</ele>
        <time>2021-05-29T13:54:49Z</time>
      </trkpt>
      <trkpt lat="45.15992" lon="5.79407">
        <ele>673.2</ele>
        <time>2021-05-29T13:54:50Z</time>
      </trkpt>
      <trkpt lat="45.1599" lon="5.79405">
        <ele>673</ele>
        <time>2021-05-29T13:54:51Z</time>
      </trkpt>
      <trkpt lat="45.15988" lon="5.79403">
        <ele>673.4</ele>
        <time>2021-05-29T13:54:52Z</time>
      </trkpt>
      <trkpt lat="45.15986" lon="5.79401">
        <ele>673.2</ele>
        <time>2021-05-29T13:54:53Z</time>
      </trkpt>
      <trkpt lat="45.15984" lon="5.79398">
        <ele>673.6</ele>
        <time>2021-05-29T13:54:54Z</time>
      </trkpt>
      <trkpt lat="45.15982" lon="5.79395">
        <ele>673.2</ele>
        <time>2021-05-29T13:54:55Z</time>
      </trkpt>
      <trkpt lat="45.1598" lon="5.79392">
        <ele>673.6</ele>
        <time>2021-05-29T13:54:56Z</time>
      </trkpt>
      <trkpt lat="45.15977" lon="5.79389">
        <ele>673.2</ele>
        <time>2021-05-29T13:54:57Z</time>
      </trkpt>
      <trkpt lat="45.15978" lon="5.79383">
        <ele>673.4</ele>
        <time>2021-05-29T13:54:58Z</time>
      </trkpt>
      <trkpt lat="45.15978" lon="5.79377">
        <ele>673.2</ele>
        <time>2021-05-29T13:54:59Z</time>
      </trkpt>
      <trkpt lat="45.15979" lon="5.79371">
        <ele>673.4</ele>
        <time>2021-05-29T13:55:00Z</time>
      </trkpt>
      <trkpt lat="45.15979" lon="5.79364">
        <ele>673.4</ele>
        <time>2021-05-29T13:55:01Z</time>
      </trkpt>
      <trkpt lat="45.1598" lon="5.79356">
        <ele>673.4</ele>
        <time>2021-05-29T13:55:02Z</time>
      </trkpt>
      <trkpt lat="45.1598" lon="5.79354">
        <ele>673</ele>
        <time>2021-05-29T13:55:03Z</time>
      </trkpt>
      <trkpt lat="45.15981" lon="5.79352">
        <ele>672.8</ele>
        <time>2021-05-29T13:55:04Z</time>
      </trkpt>
      <trkpt lat="45.15981" lon="5.7935">
        <ele>672.2</ele>
        <time>2021-05-29T13:55:05Z</time>
      </trkpt>
      <trkpt lat="45.15981" lon="5.79344">
        <ele>672.2</ele>
        <time>2021-05-29T13:55:06Z</time>
      </trkpt>
      <trkpt lat="45.15981" lon="5.79338">
        <ele>672</ele>
        <time>2021-05-29T13:55:07Z</time>
      </trkpt>
      <trkpt lat="45.15982" lon="5.79332">
        <ele>671.8</ele>
        <time>2021-05-29T13:55:08Z</time>
      </trkpt>
      <trkpt lat="45.15984" lon="5.79322">
        <ele>672</ele>
        <time>2021-05-29T13:55:09Z</time>
      </trkpt>
      <trkpt lat="45.15985" lon="5.79319">
        <ele>672</ele>
        <time>2021-05-29T13:55:10Z</time>
      </trkpt>
      <trkpt lat="45.15985" lon="5.79317">
        <ele>672.2</ele>
        <time>2021-05-29T13:55:11Z</time>
      </trkpt>
      <trkpt lat="45.15987" lon="5.7931">
        <ele>672</ele>
        <time>2021-05-29T13:55:12Z</time>
      </trkpt>
      <trkpt lat="45.15988" lon="5.79308">
        <ele>672.2</ele>
        <time>2021-05-29T13:55:13Z</time>
      </trkpt>
      <trkpt lat="45.15988" lon="5.79306">
        <ele>671.8</ele>
        <time>2021-05-29T13:55:14Z</time>
      </trkpt>
      <trkpt lat="45.15989" lon="5.79304">
        <ele>672</ele>
        <time>2021-05-29T13:55:15Z</time>
      </trkpt>
      <trkpt lat="45.1599" lon="5.79299">
        <ele>672</ele>
        <time>2021-05-29T13:55:16Z</time>
      </trkpt>
      <trkpt lat="45.15992" lon="5.79293">
        <ele>672</ele>
        <time>2021-05-29T13:55:17Z</time>
      </trkpt>
      <trkpt lat="45.15994" lon="5.79287">
        <ele>671.6</ele>
        <time>2021-05-29T13:55:18Z</time>
      </trkpt>
      <trkpt lat="45.15996" lon="5.79281">
        <ele>671.8</ele>
        <time>2021-05-29T13:55:19Z</time>
      </trkpt>
      <trkpt lat="45.15996" lon="5.79281">
        <ele>671.6</ele>
        <time>2021-05-29T13:55:20Z</time>
      </trkpt>
      <trkpt lat="45.15996" lon="5.79281">
        <ele>671.6</ele>
        <time>2021-05-29T13:55:21Z</time>
      </trkpt>
      <trkpt lat="45.15997" lon="5.79279">
        <ele>671.2</ele>
        <time>2021-05-29T13:55:22Z</time>
      </trkpt>
      <trkpt lat="45.15998" lon="5.79276">
        <ele>671.4</ele>
        <time>2021-05-29T13:55:23Z</time>
      </trkpt>
      <trkpt lat="45.15999" lon="5.79274">
        <ele>671.2</ele>
        <time>2021-05-29T13:55:24Z</time>
      </trkpt>
      <trkpt lat="45.15999" lon="5.79271">
        <ele>671.2</ele>
        <time>2021-05-29T13:55:25Z</time>
      </trkpt>
      <trkpt lat="45.16" lon="5.79269">
        <ele>671</ele>
        <time>2021-05-29T13:55:26Z</time>
      </trkpt>
      <trkpt lat="45.16001" lon="5.79267">
        <ele>670.8</ele>
        <time>2021-05-29T13:55:27Z</time>
      </trkpt>
      <trkpt lat="45.16002" lon="5.79265">
        <ele>670.4</ele>
        <time>2021-05-29T13:55:28Z</time>
      </trkpt>
      <trkpt lat="45.16003" lon="5.79263">
        <ele>670.8</ele>
        <time>2021-05-29T13:55:29Z</time>
      </trkpt>
      <trkpt lat="45.16003" lon="5.7926">
        <ele>670.6</ele>
        <time>2021-05-29T13:55:30Z</time>
      </trkpt>
      <trkpt lat="45.16004" lon="5.79258">
        <ele>671</ele>
        <time>2021-05-29T13:55:31Z</time>
      </trkpt>
      <trkpt lat="45.16005" lon="5.79256">
        <ele>670.8</ele>
        <time>2021-05-29T13:55:32Z</time>
      </trkpt>
      <trkpt lat="45.16006" lon="5.79254">
        <ele>671.2</ele>
        <time>2021-05-29T13:55:33Z</time>
      </trkpt>
      <trkpt lat="45.16006" lon="5.79251">
        <ele>670.8</ele>
        <time>2021-05-29T13:55:34Z</time>
      </trkpt>
      <trkpt lat="45.16007" lon="5.79249">
        <ele>671.2</ele>
        <time>2021-05-29T13:55:35Z</time>
      </trkpt>
      <trkpt lat="45.16008" lon="5.79246">
        <ele>670.8</ele>
        <time>2021-05-29T13:55:36Z</time>
      </trkpt>
      <trkpt lat="45.16008" lon="5.79244">
        <ele>670.8</ele>
        <time>2021-05-29T13:55:37Z</time>
      </trkpt>
      <trkpt lat="45.1601" lon="5.79241">
        <ele>670.6</ele>
        <time>2021-05-29T13:55:38Z</time>
      </trkpt>
      <trkpt lat="45.16011" lon="5.79238">
        <ele>670.6</ele>
        <time>2021-05-29T13:55:39Z</time>
      </trkpt>
      <trkpt lat="45.16013" lon="5.79236">
        <ele>670.6</ele>
        <time>2021-05-29T13:55:40Z</time>
      </trkpt>
      <trkpt lat="45.16014" lon="5.79233">
        <ele>670.8</ele>
        <time>2021-05-29T13:55:41Z</time>
      </trkpt>
      <trkpt lat="45.16016" lon="5.79231">
        <ele>670.6</ele>
        <time>2021-05-29T13:55:42Z</time>
      </trkpt>
      <trkpt lat="45.16017" lon="5.79229">
        <ele>670.8</ele>
        <time>2021-05-29T13:55:43Z</time>
      </trkpt>
      <trkpt lat="45.16019" lon="5.79227">
        <ele>670.6</ele>
        <time>2021-05-29T13:55:44Z</time>
      </trkpt>
      <trkpt lat="45.1602" lon="5.79226">
        <ele>670.8</ele>
        <time>2021-05-29T13:55:45Z</time>
      </trkpt>
      <trkpt lat="45.16022" lon="5.79224">
        <ele>670.6</ele>
        <time>2021-05-29T13:55:46Z</time>
      </trkpt>
      <trkpt lat="45.16024" lon="5.79222">
        <ele>671</ele>
        <time>2021-05-29T13:55:47Z</time>
      </trkpt>
      <trkpt lat="45.16026" lon="5.79221">
        <ele>670.8</ele>
        <time>2021-05-29T13:55:48Z</time>
      </trkpt>
      <trkpt lat="45.16028" lon="5.7922">
        <ele>671.2</ele>
        <time>2021-05-29T13:55:49Z</time>
      </trkpt>
      <trkpt lat="45.16031" lon="5.79218">
        <ele>671</ele>
        <time>2021-05-29T13:55:50Z</time>
      </trkpt>
      <trkpt lat="45.16033" lon="5.79216">
        <ele>671</ele>
        <time>2021-05-29T13:55:51Z</time>
      </trkpt>
      <trkpt lat="45.16035" lon="5.79213">
        <ele>670.6</ele>
        <time>2021-05-29T13:55:52Z</time>
      </trkpt>
      <trkpt lat="45.16038" lon="5.7921">
        <ele>670.4</ele>
        <time>2021-05-29T13:55:53Z</time>
      </trkpt>
      <trkpt lat="45.1604" lon="5.79208">
        <ele>670.2</ele>
        <time>2021-05-29T13:55:54Z</time>
      </trkpt>
      <trkpt lat="45.16043" lon="5.79205">
        <ele>669.8</ele>
        <time>2021-05-29T13:55:55Z</time>
      </trkpt>
      <trkpt lat="45.16046" lon="5.79202">
        <ele>669.6</ele>
        <time>2021-05-29T13:55:56Z</time>
      </trkpt>
      <trkpt lat="45.16049" lon="5.79198">
        <ele>669.4</ele>
        <time>2021-05-29T13:55:57Z</time>
      </trkpt>
      <trkpt lat="45.16052" lon="5.79195">
        <ele>669.4</ele>
        <time>2021-05-29T13:55:58Z</time>
      </trkpt>
      <trkpt lat="45.16055" lon="5.79191">
        <ele>669</ele>
        <time>2021-05-29T13:55:59Z</time>
      </trkpt>
      <trkpt lat="45.16055" lon="5.79191">
        <ele>668.8</ele>
        <time>2021-05-29T13:56:00Z</time>
      </trkpt>
      <trkpt lat="45.16055" lon="5.79191">
        <ele>668</ele>
        <time>2021-05-29T13:56:01Z</time>
      </trkpt>
      <trkpt lat="45.16057" lon="5.79189">
        <ele>667.4</ele>
        <time>2021-05-29T13:56:02Z</time>
      </trkpt>
      <trkpt lat="45.16058" lon="5.79187">
        <ele>667.2</ele>
        <time>2021-05-29T13:56:03Z</time>
      </trkpt>
      <trkpt lat="45.16059" lon="5.79185">
        <ele>666.8</ele>
        <time>2021-05-29T13:56:04Z</time>
      </trkpt>
      <trkpt lat="45.1606" lon="5.79182">
        <ele>666.8</ele>
        <time>2021-05-29T13:56:05Z</time>
      </trkpt>
      <trkpt lat="45.16061" lon="5.7918">
        <ele>666.4</ele>
        <time>2021-05-29T13:56:06Z</time>
      </trkpt>
      <trkpt lat="45.16061" lon="5.79178">
        <ele>666.4</ele>
        <time>2021-05-29T13:56:07Z</time>
      </trkpt>
      <trkpt lat="45.16061" lon="5.79175">
        <ele>665.8</ele>
        <time>2021-05-29T13:56:08Z</time>
      </trkpt>
      <trkpt lat="45.16061" lon="5.79173">
        <ele>665.6</ele>
        <time>2021-05-29T13:56:09Z</time>
      </trkpt>
      <trkpt lat="45.16061" lon="5.7917">
        <ele>665.4</ele>
        <time>2021-05-29T13:56:10Z</time>
      </trkpt>
      <trkpt lat="45.16061" lon="5.79168">
        <ele>665.4</ele>
        <time>2021-05-29T13:56:11Z</time>
      </trkpt>
      <trkpt lat="45.16061" lon="5.79165">
        <ele>665.2</ele>
        <time>2021-05-29T13:56:12Z</time>
      </trkpt>
      <trkpt lat="45.16061" lon="5.79163">
        <ele>665</ele>
        <time>2021-05-29T13:56:13Z</time>
      </trkpt>
      <trkpt lat="45.16061" lon="5.79161">
        <ele>664.8</ele>
        <time>2021-05-29T13:56:14Z</time>
      </trkpt>
      <trkpt lat="45.16061" lon="5.79158">
        <ele>665.2</ele>
        <time>2021-05-29T13:56:15Z</time>
      </trkpt>
      <trkpt lat="45.16061" lon="5.79156">
        <ele>664.6</ele>
        <time>2021-05-29T13:56:16Z</time>
      </trkpt>
      <trkpt lat="45.16061" lon="5.79154">
        <ele>664.6</ele>
        <time>2021-05-29T13:56:17Z</time>
      </trkpt>
      <trkpt lat="45.1606" lon="5.79151">
        <ele>664.6</ele>
        <time>2021-05-29T13:56:18Z</time>
      </trkpt>
      <trkpt lat="45.16061" lon="5.79149">
        <ele>664.6</ele>
        <time>2021-05-29T13:56:19Z</time>
      </trkpt>
      <trkpt lat="45.16061" lon="5.79148">
        <ele>664.8</ele>
        <time>2021-05-29T13:56:20Z</time>
      </trkpt>
      <trkpt lat="45.16061" lon="5.79146">
        <ele>664.8</ele>
        <time>2021-05-29T13:56:21Z</time>
      </trkpt>
      <trkpt lat="45.16062" lon="5.79144">
        <ele>665</ele>
        <time>2021-05-29T13:56:22Z</time>
      </trkpt>
      <trkpt lat="45.16062" lon="5.79142">
        <ele>665.4</ele>
        <time>2021-05-29T13:56:23Z</time>
      </trkpt>
      <trkpt lat="45.16063" lon="5.7914">
        <ele>665.6</ele>
        <time>2021-05-29T13:56:24Z</time>
      </trkpt>
      <trkpt lat="45.16063" lon="5.79138">
        <ele>665.6</ele>
        <time>2021-05-29T13:56:25Z</time>
      </trkpt>
      <trkpt lat="45.16063" lon="5.79137">
        <ele>665.8</ele>
        <time>2021-05-29T13:56:26Z</time>
      </trkpt>
      <trkpt lat="45.16064" lon="5.79137">
        <ele>666</ele>
        <time>2021-05-29T13:56:27Z</time>
      </trkpt>
      <trkpt lat="45.16065" lon="5.79136">
        <ele>666</ele>
        <time>2021-05-29T13:56:28Z</time>
      </trkpt>
      <trkpt lat="45.16065" lon="5.79136">
        <ele>666</ele>
        <time>2021-05-29T13:56:29Z</time>
      </trkpt>
      <trkpt lat="45.16066" lon="5.79136">
        <ele>666.2</ele>
        <time>2021-05-29T13:56:30Z</time>
      </trkpt>
      <trkpt lat="45.16067" lon="5.79135">
        <ele>666.2</ele>
        <time>2021-05-29T13:56:31Z</time>
      </trkpt>
      <trkpt lat="45.16067" lon="5.79135">
        <ele>666.4</ele>
        <time>2021-05-29T13:56:32Z</time>
      </trkpt>
      <trkpt lat="45.16068" lon="5.79134">
        <ele>666.2</ele>
        <time>2021-05-29T13:56:33Z</time>
      </trkpt>
      <trkpt lat="45.16069" lon="5.79134">
        <ele>666.2</ele>
        <time>2021-05-29T13:56:34Z</time>
      </trkpt>
      <trkpt lat="45.16069" lon="5.79133">
        <ele>666.2</ele>
        <time>2021-05-29T13:56:35Z</time>
      </trkpt>
      <trkpt lat="45.1607" lon="5.79133">
        <ele>666.2</ele>
        <time>2021-05-29T13:56:36Z</time>
      </trkpt>
      <trkpt lat="45.16071" lon="5.79132">
        <ele>666.2</ele>
        <time>2021-05-29T13:56:37Z</time>
      </trkpt>
      <trkpt lat="45.16071" lon="5.79132">
        <ele>666.2</ele>
        <time>2021-05-29T13:56:38Z</time>
      </trkpt>
      <trkpt lat="45.16071" lon="5.79131">
        <ele>666.2</ele>
        <time>2021-05-29T13:56:39Z</time>
      </trkpt>
      <trkpt lat="45.16071" lon="5.79131">
        <ele>666.2</ele>
        <time>2021-05-29T13:56:40Z</time>
      </trkpt>
      <trkpt lat="45.16071" lon="5.7913">
        <ele>666.2</ele>
        <time>2021-05-29T13:56:41Z</time>
      </trkpt>
      <trkpt lat="45.16072" lon="5.7913">
        <ele>666.2</ele>
        <time>2021-05-29T13:56:42Z</time>
      </trkpt>
      <trkpt lat="45.16072" lon="5.79129">
        <ele>666.2</ele>
        <time>2021-05-29T13:56:43Z</time>
      </trkpt>
      <trkpt lat="45.16072" lon="5.79129">
        <ele>666.4</ele>
        <time>2021-05-29T13:56:44Z</time>
      </trkpt>
      <trkpt lat="45.16072" lon="5.79128">
        <ele>666.4</ele>
        <time>2021-05-29T13:56:45Z</time>
      </trkpt>
      <trkpt lat="45.16072" lon="5.79128">
        <ele>666.4</ele>
        <time>2021-05-29T13:56:46Z</time>
      </trkpt>
      <trkpt lat="45.16072" lon="5.79127">
        <ele>666.4</ele>
        <time>2021-05-29T13:56:47Z</time>
      </trkpt>
      <trkpt lat="45.16072" lon="5.79127">
        <ele>666.4</ele>
        <time>2021-05-29T13:56:48Z</time>
      </trkpt>
      <trkpt lat="45.16072" lon="5.79127">
        <ele>666.4</ele>
        <time>2021-05-29T13:56:49Z</time>
      </trkpt>
      <trkpt lat="45.16072" lon="5.79126">
        <ele>666.2</ele>
        <time>2021-05-29T13:56:50Z</time>
      </trkpt>
      <trkpt lat="45.16072" lon="5.79126">
        <ele>666.2</ele>
        <time>2021-05-29T13:56:51Z</time>
      </trkpt>
      <trkpt lat="45.16072" lon="5.79125">
        <ele>666.2</ele>
        <time>2021-05-29T13:56:52Z</time>
      </trkpt>
      <trkpt lat="45.16072" lon="5.79125">
        <ele>666.2</ele>
        <time>2021-05-29T13:56:53Z</time>
      </trkpt>
      <trkpt lat="45.16073" lon="5.79124">
        <ele>666</ele>
        <time>2021-05-29T13:56:54Z</time>
      </trkpt>
      <trkpt lat="45.16073" lon="5.79124">
        <ele>666.2</ele>
        <time>2021-05-29T13:56:55Z</time>
      </trkpt>
      <trkpt lat="45.16073" lon="5.79123">
        <ele>666.2</ele>
        <time>2021-05-29T13:56:56Z</time>
      </trkpt>
      <trkpt lat="45.16073" lon="5.79123">
        <ele>666.4</ele>
        <time>2021-05-29T13:56:57Z</time>
      </trkpt>
      <trkpt lat="45.16073" lon="5.79122">
        <ele>666.4</ele>
        <time>2021-05-29T13:56:58Z</time>
      </trkpt>
      <trkpt lat="45.16073" lon="5.79122">
        <ele>666.4</ele>
        <time>2021-05-29T13:56:59Z</time>
      </trkpt>
      <trkpt lat="45.16073" lon="5.79121">
        <ele>666.2</ele>
        <time>2021-05-29T13:57:00Z</time>
      </trkpt>
      <trkpt lat="45.16073" lon="5.79121">
        <ele>666.4</ele>
        <time>2021-05-29T13:57:01Z</time>
      </trkpt>
      <trkpt lat="45.16073" lon="5.79121">
        <ele>666.2</ele>
        <time>2021-05-29T13:57:02Z</time>
      </trkpt>
      <trkpt lat="45.16073" lon="5.7912">
        <ele>666.4</ele>
        <time>2021-05-29T13:57:03Z</time>
      </trkpt>
      <trkpt lat="45.16073" lon="5.7912">
        <ele>666.4</ele>
        <time>2021-05-29T13:57:04Z</time>
      </trkpt>
      <trkpt lat="45.16074" lon="5.79119">
        <ele>666.6</ele>
        <time>2021-05-29T13:57:05Z</time>
      </trkpt>
      <trkpt lat="45.16074" lon="5.79119">
        <ele>666.4</ele>
        <time>2021-05-29T13:57:06Z</time>
      </trkpt>
      <trkpt lat="45.16074" lon="5.79119">
        <ele>666.6</ele>
        <time>2021-05-29T13:57:07Z</time>
      </trkpt>
      <trkpt lat="45.16074" lon="5.79119">
        <ele>666.8</ele>
        <time>2021-05-29T13:57:08Z</time>
      </trkpt>
      <trkpt lat="45.16074" lon="5.79119">
        <ele>666.8</ele>
        <time>2021-05-29T13:57:09Z</time>
      </trkpt>
      <trkpt lat="45.16074" lon="5.79119">
        <ele>667</ele>
        <time>2021-05-29T13:57:10Z</time>
      </trkpt>
      <trkpt lat="45.16076" lon="5.79117">
        <ele>667</ele>
        <time>2021-05-29T13:57:11Z</time>
      </trkpt>
      <trkpt lat="45.16076" lon="5.79117">
        <ele>666.8</ele>
        <time>2021-05-29T13:57:12Z</time>
      </trkpt>
      <trkpt lat="45.16076" lon="5.79117">
        <ele>666.8</ele>
        <time>2021-05-29T13:57:13Z</time>
      </trkpt>
      <trkpt lat="45.16076" lon="5.79117">
        <ele>666.8</ele>
        <time>2021-05-29T13:57:14Z</time>
      </trkpt>
      <trkpt lat="45.16077" lon="5.79118">
        <ele>667</ele>
        <time>2021-05-29T13:57:15Z</time>
      </trkpt>
      <trkpt lat="45.16077" lon="5.79119">
        <ele>666.6</ele>
        <time>2021-05-29T13:57:16Z</time>
      </trkpt>
      <trkpt lat="45.16078" lon="5.79119">
        <ele>666.2</ele>
        <time>2021-05-29T13:57:17Z</time>
      </trkpt>
      <trkpt lat="45.16079" lon="5.7912">
        <ele>665.8</ele>
        <time>2021-05-29T13:57:18Z</time>
      </trkpt>
      <trkpt lat="45.16079" lon="5.79121">
        <ele>665</ele>
        <time>2021-05-29T13:57:19Z</time>
      </trkpt>
      <trkpt lat="45.1608" lon="5.79121">
        <ele>664.4</ele>
        <time>2021-05-29T13:57:20Z</time>
      </trkpt>
      <trkpt lat="45.1608" lon="5.79122">
        <ele>664</ele>
        <time>2021-05-29T13:57:21Z</time>
      </trkpt>
      <trkpt lat="45.16081" lon="5.79122">
        <ele>663.4</ele>
        <time>2021-05-29T13:57:22Z</time>
      </trkpt>
      <trkpt lat="45.16082" lon="5.79123">
        <ele>662.8</ele>
        <time>2021-05-29T13:57:23Z</time>
      </trkpt>
      <trkpt lat="45.16082" lon="5.79124">
        <ele>662.4</ele>
        <time>2021-05-29T13:57:24Z</time>
      </trkpt>
      <trkpt lat="45.16083" lon="5.79124">
        <ele>661.6</ele>
        <time>2021-05-29T13:57:25Z</time>
      </trkpt>
      <trkpt lat="45.16084" lon="5.79126">
        <ele>661</ele>
        <time>2021-05-29T13:57:26Z</time>
      </trkpt>
      <trkpt lat="45.16085" lon="5.79127">
        <ele>660.8</ele>
        <time>2021-05-29T13:57:27Z</time>
      </trkpt>
      <trkpt lat="45.16086" lon="5.79128">
        <ele>660</ele>
        <time>2021-05-29T13:57:28Z</time>
      </trkpt>
      <trkpt lat="45.16087" lon="5.7913">
        <ele>659.4</ele>
        <time>2021-05-29T13:57:29Z</time>
      </trkpt>
      <trkpt lat="45.16088" lon="5.79131">
        <ele>659</ele>
        <time>2021-05-29T13:57:30Z</time>
      </trkpt>
      <trkpt lat="45.16089" lon="5.79133">
        <ele>658.2</ele>
        <time>2021-05-29T13:57:31Z</time>
      </trkpt>
      <trkpt lat="45.1609" lon="5.79134">
        <ele>657.8</ele>
        <time>2021-05-29T13:57:32Z</time>
      </trkpt>
      <trkpt lat="45.16091" lon="5.79135">
        <ele>657.4</ele>
        <time>2021-05-29T13:57:33Z</time>
      </trkpt>
      <trkpt lat="45.16091" lon="5.79137">
        <ele>656.8</ele>
        <time>2021-05-29T13:57:34Z</time>
      </trkpt>
      <trkpt lat="45.16092" lon="5.79138">
        <ele>656.4</ele>
        <time>2021-05-29T13:57:35Z</time>
      </trkpt>
      <trkpt lat="45.16093" lon="5.7914">
        <ele>655.8</ele>
        <time>2021-05-29T13:57:36Z</time>
      </trkpt>
      <trkpt lat="45.16094" lon="5.79141">
        <ele>655</ele>
        <time>2021-05-29T13:57:37Z</time>
      </trkpt>
      <trkpt lat="45.16095" lon="5.79143">
        <ele>654</ele>
        <time>2021-05-29T13:57:38Z</time>
      </trkpt>
      <trkpt lat="45.16096" lon="5.79144">
        <ele>653.6</ele>
        <time>2021-05-29T13:57:39Z</time>
      </trkpt>
      <trkpt lat="45.16096" lon="5.79146">
        <ele>653.2</ele>
        <time>2021-05-29T13:57:40Z</time>
      </trkpt>
      <trkpt lat="45.16097" lon="5.79146">
        <ele>653</ele>
        <time>2021-05-29T13:57:41Z</time>
      </trkpt>
      <trkpt lat="45.16098" lon="5.79146">
        <ele>652.2</ele>
        <time>2021-05-29T13:57:42Z</time>
      </trkpt>
      <trkpt lat="45.16098" lon="5.79146">
        <ele>651.8</ele>
        <time>2021-05-29T13:57:43Z</time>
      </trkpt>
      <trkpt lat="45.16099" lon="5.79146">
        <ele>651.4</ele>
        <time>2021-05-29T13:57:44Z</time>
      </trkpt>
      <trkpt lat="45.16099" lon="5.79146">
        <ele>651.2</ele>
        <time>2021-05-29T13:57:45Z</time>
      </trkpt>
      <trkpt lat="45.161" lon="5.79146">
        <ele>650.4</ele>
        <time>2021-05-29T13:57:46Z</time>
      </trkpt>
      <trkpt lat="45.161" lon="5.79147">
        <ele>650</ele>
        <time>2021-05-29T13:57:47Z</time>
      </trkpt>
      <trkpt lat="45.16101" lon="5.79147">
        <ele>649</ele>
        <time>2021-05-29T13:57:48Z</time>
      </trkpt>
      <trkpt lat="45.16102" lon="5.79147">
        <ele>648.2</ele>
        <time>2021-05-29T13:57:49Z</time>
      </trkpt>
      <trkpt lat="45.16102" lon="5.79147">
        <ele>647.8</ele>
        <time>2021-05-29T13:57:50Z</time>
      </trkpt>
      <trkpt lat="45.16103" lon="5.79147">
        <ele>647.4</ele>
        <time>2021-05-29T13:57:51Z</time>
      </trkpt>
      <trkpt lat="45.16103" lon="5.79147">
        <ele>647</ele>
        <time>2021-05-29T13:57:52Z</time>
      </trkpt>
      <trkpt lat="45.16104" lon="5.79147">
        <ele>646.2</ele>
        <time>2021-05-29T13:57:53Z</time>
      </trkpt>
      <trkpt lat="45.16105" lon="5.79148">
        <ele>645.6</ele>
        <time>2021-05-29T13:57:54Z</time>
      </trkpt>
      <trkpt lat="45.16105" lon="5.79148">
        <ele>645.2</ele>
        <time>2021-05-29T13:57:55Z</time>
      </trkpt>
      <trkpt lat="45.16106" lon="5.79148">
        <ele>644.8</ele>
        <time>2021-05-29T13:57:56Z</time>
      </trkpt>
      <trkpt lat="45.16108" lon="5.79147">
        <ele>644.4</ele>
        <time>2021-05-29T13:57:57Z</time>
      </trkpt>
      <trkpt lat="45.1611" lon="5.79146">
        <ele>643.8</ele>
        <time>2021-05-29T13:57:58Z</time>
      </trkpt>
      <trkpt lat="45.16111" lon="5.79145">
        <ele>643</ele>
        <time>2021-05-29T13:57:59Z</time>
      </trkpt>
      <trkpt lat="45.16113" lon="5.79144">
        <ele>642.4</ele>
        <time>2021-05-29T13:58:00Z</time>
      </trkpt>
      <trkpt lat="45.16115" lon="5.79143">
        <ele>641.2</ele>
        <time>2021-05-29T13:58:01Z</time>
      </trkpt>
      <trkpt lat="45.16117" lon="5.79143">
        <ele>640.2</ele>
        <time>2021-05-29T13:58:02Z</time>
      </trkpt>
      <trkpt lat="45.16119" lon="5.79143">
        <ele>639.6</ele>
        <time>2021-05-29T13:58:03Z</time>
      </trkpt>
      <trkpt lat="45.16121" lon="5.79144">
        <ele>639</ele>
        <time>2021-05-29T13:58:04Z</time>
      </trkpt>
      <trkpt lat="45.16123" lon="5.79144">
        <ele>639</ele>
        <time>2021-05-29T13:58:05Z</time>
      </trkpt>
      <trkpt lat="45.16125" lon="5.79144">
        <ele>638.4</ele>
        <time>2021-05-29T13:58:06Z</time>
      </trkpt>
      <trkpt lat="45.16125" lon="5.79144">
        <ele>638</ele>
        <time>2021-05-29T13:58:07Z</time>
      </trkpt>
      <trkpt lat="45.16126" lon="5.79143">
        <ele>638</ele>
        <time>2021-05-29T13:58:08Z</time>
      </trkpt>
      <trkpt lat="45.16126" lon="5.79143">
        <ele>637.8</ele>
        <time>2021-05-29T13:58:09Z</time>
      </trkpt>
      <trkpt lat="45.16127" lon="5.79143">
        <ele>637.4</ele>
        <time>2021-05-29T13:58:10Z</time>
      </trkpt>
      <trkpt lat="45.16127" lon="5.79143">
        <ele>637</ele>
        <time>2021-05-29T13:58:11Z</time>
      </trkpt>
      <trkpt lat="45.16128" lon="5.79142">
        <ele>636.6</ele>
        <time>2021-05-29T13:58:12Z</time>
      </trkpt>
      <trkpt lat="45.16128" lon="5.79142">
        <ele>635.8</ele>
        <time>2021-05-29T13:58:13Z</time>
      </trkpt>
      <trkpt lat="45.16129" lon="5.79142">
        <ele>634.6</ele>
        <time>2021-05-29T13:58:14Z</time>
      </trkpt>
      <trkpt lat="45.16129" lon="5.79141">
        <ele>634</ele>
        <time>2021-05-29T13:58:15Z</time>
      </trkpt>
      <trkpt lat="45.1613" lon="5.79141">
        <ele>633.8</ele>
        <time>2021-05-29T13:58:16Z</time>
      </trkpt>
      <trkpt lat="45.1613" lon="5.79141">
        <ele>633</ele>
        <time>2021-05-29T13:58:17Z</time>
      </trkpt>
      <trkpt lat="45.1613" lon="5.79141">
        <ele>632.2</ele>
        <time>2021-05-29T13:58:18Z</time>
      </trkpt>
      <trkpt lat="45.16131" lon="5.7914">
        <ele>631.4</ele>
        <time>2021-05-29T13:58:19Z</time>
      </trkpt>
      <trkpt lat="45.16131" lon="5.7914">
        <ele>630.8</ele>
        <time>2021-05-29T13:58:20Z</time>
      </trkpt>
      <trkpt lat="45.16132" lon="5.7914">
        <ele>630</ele>
        <time>2021-05-29T13:58:21Z</time>
      </trkpt>
      <trkpt lat="45.16132" lon="5.79139">
        <ele>629.6</ele>
        <time>2021-05-29T13:58:22Z</time>
      </trkpt>
      <trkpt lat="45.16133" lon="5.79139">
        <ele>629.4</ele>
        <time>2021-05-29T13:58:23Z</time>
      </trkpt>
      <trkpt lat="45.16133" lon="5.79139">
        <ele>629</ele>
        <time>2021-05-29T13:58:24Z</time>
      </trkpt>
      <trkpt lat="45.16134" lon="5.79139">
        <ele>628.6</ele>
        <time>2021-05-29T13:58:25Z</time>
      </trkpt>
      <trkpt lat="45.16135" lon="5.79139">
        <ele>628.2</ele>
        <time>2021-05-29T13:58:26Z</time>
      </trkpt>
      <trkpt lat="45.16137" lon="5.7914">
        <ele>627.6</ele>
        <time>2021-05-29T13:58:27Z</time>
      </trkpt>
      <trkpt lat="45.16138" lon="5.7914">
        <ele>627.2</ele>
        <time>2021-05-29T13:58:28Z</time>
      </trkpt>
      <trkpt lat="45.16139" lon="5.79141">
        <ele>626</ele>
        <time>2021-05-29T13:58:29Z</time>
      </trkpt>
      <trkpt lat="45.16141" lon="5.79141">
        <ele>625.2</ele>
        <time>2021-05-29T13:58:30Z</time>
      </trkpt>
      <trkpt lat="45.16142" lon="5.79142">
        <ele>624.6</ele>
        <time>2021-05-29T13:58:31Z</time>
      </trkpt>
      <trkpt lat="45.16144" lon="5.79142">
        <ele>624</ele>
        <time>2021-05-29T13:58:32Z</time>
      </trkpt>
      <trkpt lat="45.16145" lon="5.79142">
        <ele>623.4</ele>
        <time>2021-05-29T13:58:33Z</time>
      </trkpt>
      <trkpt lat="45.16146" lon="5.79142">
        <ele>622.8</ele>
        <time>2021-05-29T13:58:34Z</time>
      </trkpt>
      <trkpt lat="45.16146" lon="5.79142">
        <ele>622.4</ele>
        <time>2021-05-29T13:58:35Z</time>
      </trkpt>
      <trkpt lat="45.16147" lon="5.79142">
        <ele>622</ele>
        <time>2021-05-29T13:58:36Z</time>
      </trkpt>
      <trkpt lat="45.16148" lon="5.79142">
        <ele>621.8</ele>
        <time>2021-05-29T13:58:37Z</time>
      </trkpt>
      <trkpt lat="45.16149" lon="5.79142">
        <ele>621.4</ele>
        <time>2021-05-29T13:58:38Z</time>
      </trkpt>
      <trkpt lat="45.1615" lon="5.79142">
        <ele>621</ele>
        <time>2021-05-29T13:58:39Z</time>
      </trkpt>
      <trkpt lat="45.16151" lon="5.79141">
        <ele>620.4</ele>
        <time>2021-05-29T13:58:40Z</time>
      </trkpt>
      <trkpt lat="45.16152" lon="5.79141">
        <ele>620</ele>
        <time>2021-05-29T13:58:41Z</time>
      </trkpt>
      <trkpt lat="45.16153" lon="5.79141">
        <ele>619.8</ele>
        <time>2021-05-29T13:58:42Z</time>
      </trkpt>
      <trkpt lat="45.16154" lon="5.79141">
        <ele>619.4</ele>
        <time>2021-05-29T13:58:43Z</time>
      </trkpt>
      <trkpt lat="45.16156" lon="5.79142">
        <ele>619.2</ele>
        <time>2021-05-29T13:58:44Z</time>
      </trkpt>
      <trkpt lat="45.16158" lon="5.79143">
        <ele>618.8</ele>
        <time>2021-05-29T13:58:45Z</time>
      </trkpt>
      <trkpt lat="45.16159" lon="5.79143">
        <ele>618.2</ele>
        <time>2021-05-29T13:58:46Z</time>
      </trkpt>
      <trkpt lat="45.16161" lon="5.79144">
        <ele>617.8</ele>
        <time>2021-05-29T13:58:47Z</time>
      </trkpt>
      <trkpt lat="45.16163" lon="5.79145">
        <ele>617.4</ele>
        <time>2021-05-29T13:58:48Z</time>
      </trkpt>
      <trkpt lat="45.16164" lon="5.79145">
        <ele>617</ele>
        <time>2021-05-29T13:58:49Z</time>
      </trkpt>
      <trkpt lat="45.16166" lon="5.79146">
        <ele>616</ele>
        <time>2021-05-29T13:58:50Z</time>
      </trkpt>
      <trkpt lat="45.16168" lon="5.79147">
        <ele>615.4</ele>
        <time>2021-05-29T13:58:51Z</time>
      </trkpt>
      <trkpt lat="45.1617" lon="5.79149">
        <ele>614.8</ele>
        <time>2021-05-29T13:58:52Z</time>
      </trkpt>
      <trkpt lat="45.16172" lon="5.7915">
        <ele>614</ele>
        <time>2021-05-29T13:58:53Z</time>
      </trkpt>
      <trkpt lat="45.16175" lon="5.79152">
        <ele>613.6</ele>
        <time>2021-05-29T13:58:54Z</time>
      </trkpt>
      <trkpt lat="45.16177" lon="5.79154">
        <ele>612.8</ele>
        <time>2021-05-29T13:58:55Z</time>
      </trkpt>
      <trkpt lat="45.16179" lon="5.79155">
        <ele>612.4</ele>
        <time>2021-05-29T13:58:56Z</time>
      </trkpt>
      <trkpt lat="45.16181" lon="5.79156">
        <ele>612.2</ele>
        <time>2021-05-29T13:58:57Z</time>
      </trkpt>
      <trkpt lat="45.16184" lon="5.79157">
        <ele>611.8</ele>
        <time>2021-05-29T13:58:58Z</time>
      </trkpt>
      <trkpt lat="45.16186" lon="5.79158">
        <ele>611.6</ele>
        <time>2021-05-29T13:58:59Z</time>
      </trkpt>
      <trkpt lat="45.16188" lon="5.79158">
        <ele>611</ele>
        <time>2021-05-29T13:59:00Z</time>
      </trkpt>
      <trkpt lat="45.16191" lon="5.79158">
        <ele>610.8</ele>
        <time>2021-05-29T13:59:01Z</time>
      </trkpt>
      <trkpt lat="45.16193" lon="5.79158">
        <ele>610.2</ele>
        <time>2021-05-29T13:59:02Z</time>
      </trkpt>
      <trkpt lat="45.16196" lon="5.79158">
        <ele>609.8</ele>
        <time>2021-05-29T13:59:03Z</time>
      </trkpt>
      <trkpt lat="45.16197" lon="5.79157">
        <ele>609</ele>
        <time>2021-05-29T13:59:04Z</time>
      </trkpt>
      <trkpt lat="45.16199" lon="5.79156">
        <ele>608.2</ele>
        <time>2021-05-29T13:59:05Z</time>
      </trkpt>
      <trkpt lat="45.16201" lon="5.79155">
        <ele>607.8</ele>
        <time>2021-05-29T13:59:06Z</time>
      </trkpt>
      <trkpt lat="45.16203" lon="5.79154">
        <ele>606.4</ele>
        <time>2021-05-29T13:59:07Z</time>
      </trkpt>
      <trkpt lat="45.16205" lon="5.79154">
        <ele>606</ele>
        <time>2021-05-29T13:59:08Z</time>
      </trkpt>
      <trkpt lat="45.16206" lon="5.79154">
        <ele>605</ele>
        <time>2021-05-29T13:59:09Z</time>
      </trkpt>
      <trkpt lat="45.16208" lon="5.79154">
        <ele>604.6</ele>
        <time>2021-05-29T13:59:10Z</time>
      </trkpt>
      <trkpt lat="45.1621" lon="5.79155">
        <ele>604</ele>
        <time>2021-05-29T13:59:11Z</time>
      </trkpt>
      <trkpt lat="45.16211" lon="5.79155">
        <ele>603.6</ele>
        <time>2021-05-29T13:59:12Z</time>
      </trkpt>
      <trkpt lat="45.16213" lon="5.79155">
        <ele>603.4</ele>
        <time>2021-05-29T13:59:13Z</time>
      </trkpt>
      <trkpt lat="45.16214" lon="5.79156">
        <ele>603</ele>
        <time>2021-05-29T13:59:14Z</time>
      </trkpt>
      <trkpt lat="45.16216" lon="5.79156">
        <ele>602.6</ele>
        <time>2021-05-29T13:59:15Z</time>
      </trkpt>
      <trkpt lat="45.16217" lon="5.79157">
        <ele>602</ele>
        <time>2021-05-29T13:59:16Z</time>
      </trkpt>
      <trkpt lat="45.16218" lon="5.79157">
        <ele>601.4</ele>
        <time>2021-05-29T13:59:17Z</time>
      </trkpt>
      <trkpt lat="45.1622" lon="5.79158">
        <ele>600.8</ele>
        <time>2021-05-29T13:59:18Z</time>
      </trkpt>
      <trkpt lat="45.16221" lon="5.79158">
        <ele>600.6</ele>
        <time>2021-05-29T13:59:19Z</time>
      </trkpt>
      <trkpt lat="45.16223" lon="5.79159">
        <ele>600</ele>
        <time>2021-05-29T13:59:20Z</time>
      </trkpt>
      <trkpt lat="45.16224" lon="5.7916">
        <ele>598.8</ele>
        <time>2021-05-29T13:59:21Z</time>
      </trkpt>
      <trkpt lat="45.16225" lon="5.7916">
        <ele>598.4</ele>
        <time>2021-05-29T13:59:22Z</time>
      </trkpt>
      <trkpt lat="45.16226" lon="5.7916">
        <ele>598</ele>
        <time>2021-05-29T13:59:23Z</time>
      </trkpt>
      <trkpt lat="45.16227" lon="5.79159">
        <ele>598</ele>
        <time>2021-05-29T13:59:24Z</time>
      </trkpt>
      <trkpt lat="45.16227" lon="5.79159">
        <ele>597.6</ele>
        <time>2021-05-29T13:59:25Z</time>
      </trkpt>
      <trkpt lat="45.16228" lon="5.79158">
        <ele>597.4</ele>
        <time>2021-05-29T13:59:26Z</time>
      </trkpt>
      <trkpt lat="45.16229" lon="5.79158">
        <ele>597.2</ele>
        <time>2021-05-29T13:59:27Z</time>
      </trkpt>
      <trkpt lat="45.1623" lon="5.79157">
        <ele>597</ele>
        <time>2021-05-29T13:59:28Z</time>
      </trkpt>
      <trkpt lat="45.1623" lon="5.79157">
        <ele>596.6</ele>
        <time>2021-05-29T13:59:29Z</time>
      </trkpt>
      <trkpt lat="45.16231" lon="5.79156">
        <ele>596.4</ele>
        <time>2021-05-29T13:59:30Z</time>
      </trkpt>
      <trkpt lat="45.16232" lon="5.79156">
        <ele>596.2</ele>
        <time>2021-05-29T13:59:31Z</time>
      </trkpt>
      <trkpt lat="45.16232" lon="5.79155">
        <ele>596</ele>
        <time>2021-05-29T13:59:32Z</time>
      </trkpt>
      <trkpt lat="45.16233" lon="5.79155">
        <ele>595.8</ele>
        <time>2021-05-29T13:59:33Z</time>
      </trkpt>
      <trkpt lat="45.16234" lon="5.79154">
        <ele>595.8</ele>
        <time>2021-05-29T13:59:34Z</time>
      </trkpt>
      <trkpt lat="45.16235" lon="5.79154">
        <ele>595.6</ele>
        <time>2021-05-29T13:59:35Z</time>
      </trkpt>
      <trkpt lat="45.16236" lon="5.79154">
        <ele>595.4</ele>
        <time>2021-05-29T13:59:36Z</time>
      </trkpt>
      <trkpt lat="45.16237" lon="5.79154">
        <ele>595.4</ele>
        <time>2021-05-29T13:59:37Z</time>
      </trkpt>
      <trkpt lat="45.16238" lon="5.79155">
        <ele>595.4</ele>
        <time>2021-05-29T13:59:38Z</time>
      </trkpt>
      <trkpt lat="45.16239" lon="5.79155">
        <ele>595</ele>
        <time>2021-05-29T13:59:39Z</time>
      </trkpt>
      <trkpt lat="45.16239" lon="5.79155">
        <ele>595</ele>
        <time>2021-05-29T13:59:40Z</time>
      </trkpt>
      <trkpt lat="45.1624" lon="5.79155">
        <ele>595</ele>
        <time>2021-05-29T13:59:41Z</time>
      </trkpt>
      <trkpt lat="45.16241" lon="5.79155">
        <ele>594.6</ele>
        <time>2021-05-29T13:59:42Z</time>
      </trkpt>
      <trkpt lat="45.16242" lon="5.79155">
        <ele>594.6</ele>
        <time>2021-05-29T13:59:43Z</time>
      </trkpt>
      <trkpt lat="45.16243" lon="5.79155">
        <ele>594.2</ele>
        <time>2021-05-29T13:59:44Z</time>
      </trkpt>
      <trkpt lat="45.16245" lon="5.79155">
        <ele>593.6</ele>
        <time>2021-05-29T13:59:45Z</time>
      </trkpt>
      <trkpt lat="45.16246" lon="5.79155">
        <ele>593.4</ele>
        <time>2021-05-29T13:59:46Z</time>
      </trkpt>
      <trkpt lat="45.16248" lon="5.79155">
        <ele>593</ele>
        <time>2021-05-29T13:59:47Z</time>
      </trkpt>
      <trkpt lat="45.1625" lon="5.79155">
        <ele>593.2</ele>
        <time>2021-05-29T13:59:48Z</time>
      </trkpt>
      <trkpt lat="45.16251" lon="5.79155">
        <ele>593.4</ele>
        <time>2021-05-29T13:59:49Z</time>
      </trkpt>
      <trkpt lat="45.16253" lon="5.79155">
        <ele>593.6</ele>
        <time>2021-05-29T13:59:50Z</time>
      </trkpt>
      <trkpt lat="45.16254" lon="5.79155">
        <ele>593.6</ele>
        <time>2021-05-29T13:59:51Z</time>
      </trkpt>
      <trkpt lat="45.16256" lon="5.79156">
        <ele>594.2</ele>
        <time>2021-05-29T13:59:52Z</time>
      </trkpt>
      <trkpt lat="45.16257" lon="5.79156">
        <ele>594.4</ele>
        <time>2021-05-29T13:59:53Z</time>
      </trkpt>
      <trkpt lat="45.16259" lon="5.79156">
        <ele>595</ele>
        <time>2021-05-29T13:59:54Z</time>
      </trkpt>
      <trkpt lat="45.1626" lon="5.79156">
        <ele>595</ele>
        <time>2021-05-29T13:59:55Z</time>
      </trkpt>
      <trkpt lat="45.16262" lon="5.79156">
        <ele>595.6</ele>
        <time>2021-05-29T13:59:56Z</time>
      </trkpt>
      <trkpt lat="45.16263" lon="5.79155">
        <ele>595.8</ele>
        <time>2021-05-29T13:59:57Z</time>
      </trkpt>
      <trkpt lat="45.16265" lon="5.79154">
        <ele>596</ele>
        <time>2021-05-29T13:59:58Z</time>
      </trkpt>
      <trkpt lat="45.16267" lon="5.79153">
        <ele>596.4</ele>
        <time>2021-05-29T14:00:00Z</time>
      </trkpt>
      <trkpt lat="45.16268" lon="5.79151">
        <ele>596.8</ele>
        <time>2021-05-29T14:00:01Z</time>
      </trkpt>
      <trkpt lat="45.1627" lon="5.7915">
        <ele>597</ele>
        <time>2021-05-29T14:00:02Z</time>
      </trkpt>
      <trkpt lat="45.1627" lon="5.79149">
        <ele>597.2</ele>
        <time>2021-05-29T14:00:03Z</time>
      </trkpt>
      <trkpt lat="45.1627" lon="5.79147">
        <ele>597.6</ele>
        <time>2021-05-29T14:00:04Z</time>
      </trkpt>
      <trkpt lat="45.1627" lon="5.79146">
        <ele>597.8</ele>
        <time>2021-05-29T14:00:05Z</time>
      </trkpt>
      <trkpt lat="45.1627" lon="5.79144">
        <ele>598</ele>
        <time>2021-05-29T14:00:06Z</time>
      </trkpt>
      <trkpt lat="45.1627" lon="5.79143">
        <ele>598.4</ele>
        <time>2021-05-29T14:00:07Z</time>
      </trkpt>
      <trkpt lat="45.1627" lon="5.79141">
        <ele>598.6</ele>
        <time>2021-05-29T14:00:08Z</time>
      </trkpt>
      <trkpt lat="45.1627" lon="5.7914">
        <ele>598.6</ele>
        <time>2021-05-29T14:00:09Z</time>
      </trkpt>
      <trkpt lat="45.1627" lon="5.79138">
        <ele>599</ele>
        <time>2021-05-29T14:00:10Z</time>
      </trkpt>
      <trkpt lat="45.1627" lon="5.79137">
        <ele>599.4</ele>
        <time>2021-05-29T14:00:11Z</time>
      </trkpt>
      <trkpt lat="45.16269" lon="5.79136">
        <ele>599.6</ele>
        <time>2021-05-29T14:00:12Z</time>
      </trkpt>
      <trkpt lat="45.16269" lon="5.79134">
        <ele>599.6</ele>
        <time>2021-05-29T14:00:13Z</time>
      </trkpt>
      <trkpt lat="45.16269" lon="5.79133">
        <ele>599.8</ele>
        <time>2021-05-29T14:00:14Z</time>
      </trkpt>
      <trkpt lat="45.16268" lon="5.79131">
        <ele>600</ele>
        <time>2021-05-29T14:00:15Z</time>
      </trkpt>
      <trkpt lat="45.16268" lon="5.7913">
        <ele>600.2</ele>
        <time>2021-05-29T14:00:16Z</time>
      </trkpt>
      <trkpt lat="45.16268" lon="5.79129">
        <ele>600.6</ele>
        <time>2021-05-29T14:00:17Z</time>
      </trkpt>
      <trkpt lat="45.16267" lon="5.79127">
        <ele>600.8</ele>
        <time>2021-05-29T14:00:18Z</time>
      </trkpt>
      <trkpt lat="45.16267" lon="5.79126">
        <ele>601.4</ele>
        <time>2021-05-29T14:00:19Z</time>
      </trkpt>
      <trkpt lat="45.16266" lon="5.79125">
        <ele>602</ele>
        <time>2021-05-29T14:00:20Z</time>
      </trkpt>
      <trkpt lat="45.16266" lon="5.79123">
        <ele>602</ele>
        <time>2021-05-29T14:00:21Z</time>
      </trkpt>
      <trkpt lat="45.16266" lon="5.79122">
        <ele>601.8</ele>
        <time>2021-05-29T14:00:22Z</time>
      </trkpt>
      <trkpt lat="45.16265" lon="5.7912">
        <ele>601.8</ele>
        <time>2021-05-29T14:00:23Z</time>
      </trkpt>
      <trkpt lat="45.16265" lon="5.79118">
        <ele>602</ele>
        <time>2021-05-29T14:00:24Z</time>
      </trkpt>
      <trkpt lat="45.16265" lon="5.79117">
        <ele>602.2</ele>
        <time>2021-05-29T14:00:25Z</time>
      </trkpt>
      <trkpt lat="45.16264" lon="5.79115">
        <ele>602.2</ele>
        <time>2021-05-29T14:00:26Z</time>
      </trkpt>
      <trkpt lat="45.16264" lon="5.79114">
        <ele>602</ele>
        <time>2021-05-29T14:00:27Z</time>
      </trkpt>
      <trkpt lat="45.16263" lon="5.79112">
        <ele>601.6</ele>
        <time>2021-05-29T14:00:28Z</time>
      </trkpt>
      <trkpt lat="45.16263" lon="5.79111">
        <ele>601.6</ele>
        <time>2021-05-29T14:00:29Z</time>
      </trkpt>
      <trkpt lat="45.16263" lon="5.7911">
        <ele>601.8</ele>
        <time>2021-05-29T14:00:30Z</time>
      </trkpt>
      <trkpt lat="45.16264" lon="5.79108">
        <ele>601.8</ele>
        <time>2021-05-29T14:00:31Z</time>
      </trkpt>
      <trkpt lat="45.16264" lon="5.79107">
        <ele>601.6</ele>
        <time>2021-05-29T14:00:32Z</time>
      </trkpt>
      <trkpt lat="45.16264" lon="5.79106">
        <ele>601.6</ele>
        <time>2021-05-29T14:00:33Z</time>
      </trkpt>
      <trkpt lat="45.16264" lon="5.79104">
        <ele>601.6</ele>
        <time>2021-05-29T14:00:34Z</time>
      </trkpt>
      <trkpt lat="45.16264" lon="5.79103">
        <ele>601.4</ele>
        <time>2021-05-29T14:00:35Z</time>
      </trkpt>
      <trkpt lat="45.16264" lon="5.79102">
        <ele>601.4</ele>
        <time>2021-05-29T14:00:36Z</time>
      </trkpt>
      <trkpt lat="45.16264" lon="5.791">
        <ele>601.4</ele>
        <time>2021-05-29T14:00:37Z</time>
      </trkpt>
      <trkpt lat="45.16264" lon="5.79099">
        <ele>601.4</ele>
        <time>2021-05-29T14:00:38Z</time>
      </trkpt>
      <trkpt lat="45.16264" lon="5.79098">
        <ele>601.4</ele>
        <time>2021-05-29T14:00:39Z</time>
      </trkpt>
      <trkpt lat="45.16265" lon="5.79097">
        <ele>601.4</ele>
        <time>2021-05-29T14:00:40Z</time>
      </trkpt>
      <trkpt lat="45.16265" lon="5.79096">
        <ele>601.6</ele>
        <time>2021-05-29T14:00:41Z</time>
      </trkpt>
      <trkpt lat="45.16265" lon="5.79095">
        <ele>601.8</ele>
        <time>2021-05-29T14:00:42Z</time>
      </trkpt>
      <trkpt lat="45.16266" lon="5.79093">
        <ele>602</ele>
        <time>2021-05-29T14:00:43Z</time>
      </trkpt>
      <trkpt lat="45.16266" lon="5.79092">
        <ele>602</ele>
        <time>2021-05-29T14:00:44Z</time>
      </trkpt>
      <trkpt lat="45.16266" lon="5.79091">
        <ele>602.2</ele>
        <time>2021-05-29T14:00:45Z</time>
      </trkpt>
      <trkpt lat="45.16267" lon="5.7909">
        <ele>602.2</ele>
        <time>2021-05-29T14:00:46Z</time>
      </trkpt>
      <trkpt lat="45.16267" lon="5.79089">
        <ele>602.2</ele>
        <time>2021-05-29T14:00:47Z</time>
      </trkpt>
      <trkpt lat="45.16267" lon="5.79088">
        <ele>602.6</ele>
        <time>2021-05-29T14:00:48Z</time>
      </trkpt>
      <trkpt lat="45.16268" lon="5.79087">
        <ele>602.4</ele>
        <time>2021-05-29T14:00:49Z</time>
      </trkpt>
      <trkpt lat="45.16268" lon="5.79085">
        <ele>602.6</ele>
        <time>2021-05-29T14:00:50Z</time>
      </trkpt>
      <trkpt lat="45.16269" lon="5.79084">
        <ele>602.6</ele>
        <time>2021-05-29T14:00:51Z</time>
      </trkpt>
      <trkpt lat="45.16269" lon="5.79082">
        <ele>603</ele>
        <time>2021-05-29T14:00:52Z</time>
      </trkpt>
      <trkpt lat="45.1627" lon="5.7908">
        <ele>602.8</ele>
        <time>2021-05-29T14:00:53Z</time>
      </trkpt>
      <trkpt lat="45.16271" lon="5.79079">
        <ele>602.8</ele>
        <time>2021-05-29T14:00:54Z</time>
      </trkpt>
      <trkpt lat="45.16271" lon="5.79077">
        <ele>602.8</ele>
        <time>2021-05-29T14:00:55Z</time>
      </trkpt>
      <trkpt lat="45.16272" lon="5.79076">
        <ele>602.8</ele>
        <time>2021-05-29T14:00:56Z</time>
      </trkpt>
      <trkpt lat="45.16272" lon="5.79074">
        <ele>602.4</ele>
        <time>2021-05-29T14:00:57Z</time>
      </trkpt>
      <trkpt lat="45.16273" lon="5.79073">
        <ele>602.2</ele>
        <time>2021-05-29T14:00:58Z</time>
      </trkpt>
      <trkpt lat="45.16273" lon="5.7907">
        <ele>602.2</ele>
        <time>2021-05-29T14:00:59Z</time>
      </trkpt>
      <trkpt lat="45.16273" lon="5.79068">
        <ele>602</ele>
        <time>2021-05-29T14:01:00Z</time>
      </trkpt>
      <trkpt lat="45.16273" lon="5.79066">
        <ele>601.6</ele>
        <time>2021-05-29T14:01:01Z</time>
      </trkpt>
      <trkpt lat="45.16273" lon="5.79063">
        <ele>601.4</ele>
        <time>2021-05-29T14:01:02Z</time>
      </trkpt>
      <trkpt lat="45.16273" lon="5.79061">
        <ele>600.8</ele>
        <time>2021-05-29T14:01:03Z</time>
      </trkpt>
      <trkpt lat="45.16274" lon="5.79059">
        <ele>599.8</ele>
        <time>2021-05-29T14:01:04Z</time>
      </trkpt>
      <trkpt lat="45.16273" lon="5.79055">
        <ele>599.4</ele>
        <time>2021-05-29T14:01:05Z</time>
      </trkpt>
      <trkpt lat="45.16273" lon="5.79052">
        <ele>599</ele>
        <time>2021-05-29T14:01:06Z</time>
      </trkpt>
      <trkpt lat="45.16273" lon="5.79048">
        <ele>598.8</ele>
        <time>2021-05-29T14:01:07Z</time>
      </trkpt>
      <trkpt lat="45.16273" lon="5.79045">
        <ele>598.6</ele>
        <time>2021-05-29T14:01:08Z</time>
      </trkpt>
      <trkpt lat="45.16273" lon="5.79042">
        <ele>598</ele>
        <time>2021-05-29T14:01:09Z</time>
      </trkpt>
      <trkpt lat="45.16273" lon="5.79038">
        <ele>597.4</ele>
        <time>2021-05-29T14:01:10Z</time>
      </trkpt>
      <trkpt lat="45.16273" lon="5.79035">
        <ele>597.2</ele>
        <time>2021-05-29T14:01:11Z</time>
      </trkpt>
      <trkpt lat="45.16273" lon="5.79031">
        <ele>596.6</ele>
        <time>2021-05-29T14:01:12Z</time>
      </trkpt>
      <trkpt lat="45.1627" lon="5.79024">
        <ele>596.4</ele>
        <time>2021-05-29T14:01:13Z</time>
      </trkpt>
      <trkpt lat="45.1627" lon="5.79024">
        <ele>595.4</ele>
        <time>2021-05-29T14:01:14Z</time>
      </trkpt>
      <trkpt lat="45.1627" lon="5.79024">
        <ele>594.8</ele>
        <time>2021-05-29T14:01:15Z</time>
      </trkpt>
      <trkpt lat="45.1627" lon="5.79021">
        <ele>594.4</ele>
        <time>2021-05-29T14:01:16Z</time>
      </trkpt>
      <trkpt lat="45.1627" lon="5.79018">
        <ele>594.2</ele>
        <time>2021-05-29T14:01:17Z</time>
      </trkpt>
      <trkpt lat="45.16269" lon="5.79015">
        <ele>593.8</ele>
        <time>2021-05-29T14:01:18Z</time>
      </trkpt>
      <trkpt lat="45.16269" lon="5.79012">
        <ele>593.4</ele>
        <time>2021-05-29T14:01:19Z</time>
      </trkpt>
      <trkpt lat="45.16269" lon="5.79009">
        <ele>593.4</ele>
        <time>2021-05-29T14:01:20Z</time>
      </trkpt>
      <trkpt lat="45.1627" lon="5.79007">
        <ele>593.4</ele>
        <time>2021-05-29T14:01:21Z</time>
      </trkpt>
      <trkpt lat="45.16271" lon="5.79005">
        <ele>593.6</ele>
        <time>2021-05-29T14:01:22Z</time>
      </trkpt>
      <trkpt lat="45.16272" lon="5.79003">
        <ele>593.4</ele>
        <time>2021-05-29T14:01:23Z</time>
      </trkpt>
      <trkpt lat="45.16273" lon="5.79001">
        <ele>593.6</ele>
        <time>2021-05-29T14:01:24Z</time>
      </trkpt>
      <trkpt lat="45.16274" lon="5.78999">
        <ele>593.6</ele>
        <time>2021-05-29T14:01:25Z</time>
      </trkpt>
      <trkpt lat="45.16275" lon="5.78996">
        <ele>594</ele>
        <time>2021-05-29T14:01:26Z</time>
      </trkpt>
      <trkpt lat="45.16276" lon="5.78995">
        <ele>594</ele>
        <time>2021-05-29T14:01:27Z</time>
      </trkpt>
      <trkpt lat="45.16277" lon="5.78993">
        <ele>594.2</ele>
        <time>2021-05-29T14:01:28Z</time>
      </trkpt>
      <trkpt lat="45.16279" lon="5.78992">
        <ele>594</ele>
        <time>2021-05-29T14:01:29Z</time>
      </trkpt>
      <trkpt lat="45.1628" lon="5.7899">
        <ele>594.2</ele>
        <time>2021-05-29T14:01:30Z</time>
      </trkpt>
      <trkpt lat="45.16282" lon="5.78989">
        <ele>594.2</ele>
        <time>2021-05-29T14:01:31Z</time>
      </trkpt>
      <trkpt lat="45.16283" lon="5.78987">
        <ele>594.2</ele>
        <time>2021-05-29T14:01:32Z</time>
      </trkpt>
      <trkpt lat="45.16283" lon="5.78986">
        <ele>594.2</ele>
        <time>2021-05-29T14:01:33Z</time>
      </trkpt>
      <trkpt lat="45.16283" lon="5.78984">
        <ele>594.4</ele>
        <time>2021-05-29T14:01:34Z</time>
      </trkpt>
      <trkpt lat="45.16283" lon="5.78983">
        <ele>594.4</ele>
        <time>2021-05-29T14:01:35Z</time>
      </trkpt>
      <trkpt lat="45.16283" lon="5.78981">
        <ele>594.6</ele>
        <time>2021-05-29T14:01:36Z</time>
      </trkpt>
      <trkpt lat="45.16283" lon="5.7898">
        <ele>594.4</ele>
        <time>2021-05-29T14:01:37Z</time>
      </trkpt>
      <trkpt lat="45.16283" lon="5.78978">
        <ele>594.2</ele>
        <time>2021-05-29T14:01:38Z</time>
      </trkpt>
      <trkpt lat="45.16284" lon="5.78976">
        <ele>594.2</ele>
        <time>2021-05-29T14:01:39Z</time>
      </trkpt>
      <trkpt lat="45.16284" lon="5.78975">
        <ele>593.8</ele>
        <time>2021-05-29T14:01:40Z</time>
      </trkpt>
      <trkpt lat="45.16284" lon="5.78973">
        <ele>593.6</ele>
        <time>2021-05-29T14:01:41Z</time>
      </trkpt>
      <trkpt lat="45.16284" lon="5.78971">
        <ele>593.6</ele>
        <time>2021-05-29T14:01:42Z</time>
      </trkpt>
      <trkpt lat="45.16284" lon="5.78969">
        <ele>593.8</ele>
        <time>2021-05-29T14:01:43Z</time>
      </trkpt>
      <trkpt lat="45.16284" lon="5.78967">
        <ele>593.6</ele>
        <time>2021-05-29T14:01:44Z</time>
      </trkpt>
      <trkpt lat="45.16284" lon="5.78966">
        <ele>594</ele>
        <time>2021-05-29T14:01:45Z</time>
      </trkpt>
      <trkpt lat="45.16284" lon="5.78964">
        <ele>593.8</ele>
        <time>2021-05-29T14:01:46Z</time>
      </trkpt>
      <trkpt lat="45.16284" lon="5.78962">
        <ele>593.8</ele>
        <time>2021-05-29T14:01:47Z</time>
      </trkpt>
      <trkpt lat="45.16284" lon="5.7896">
        <ele>593.4</ele>
        <time>2021-05-29T14:01:48Z</time>
      </trkpt>
      <trkpt lat="45.16285" lon="5.78958">
        <ele>593.4</ele>
        <time>2021-05-29T14:01:49Z</time>
      </trkpt>
      <trkpt lat="45.16286" lon="5.78956">
        <ele>593</ele>
        <time>2021-05-29T14:01:50Z</time>
      </trkpt>
      <trkpt lat="45.16286" lon="5.78955">
        <ele>592.8</ele>
        <time>2021-05-29T14:01:51Z</time>
      </trkpt>
      <trkpt lat="45.16287" lon="5.78953">
        <ele>592.6</ele>
        <time>2021-05-29T14:01:52Z</time>
      </trkpt>
      <trkpt lat="45.16288" lon="5.78951">
        <ele>592</ele>
        <time>2021-05-29T14:01:53Z</time>
      </trkpt>
      <trkpt lat="45.16289" lon="5.78949">
        <ele>591.8</ele>
        <time>2021-05-29T14:01:54Z</time>
      </trkpt>
      <trkpt lat="45.1629" lon="5.78947">
        <ele>591</ele>
        <time>2021-05-29T14:01:55Z</time>
      </trkpt>
      <trkpt lat="45.1629" lon="5.78944">
        <ele>590</ele>
        <time>2021-05-29T14:01:56Z</time>
      </trkpt>
      <trkpt lat="45.16291" lon="5.78942">
        <ele>589.4</ele>
        <time>2021-05-29T14:01:57Z</time>
      </trkpt>
      <trkpt lat="45.16292" lon="5.7894">
        <ele>588.6</ele>
        <time>2021-05-29T14:01:58Z</time>
      </trkpt>
      <trkpt lat="45.16293" lon="5.78938">
        <ele>587.8</ele>
        <time>2021-05-29T14:01:59Z</time>
      </trkpt>
      <trkpt lat="45.16296" lon="5.78934">
        <ele>587</ele>
        <time>2021-05-29T14:02:00Z</time>
      </trkpt>
      <trkpt lat="45.16299" lon="5.78929">
        <ele>586.2</ele>
        <time>2021-05-29T14:02:01Z</time>
      </trkpt>
      <trkpt lat="45.16303" lon="5.78925">
        <ele>585.4</ele>
        <time>2021-05-29T14:02:02Z</time>
      </trkpt>
      <trkpt lat="45.16306" lon="5.78921">
        <ele>584.8</ele>
        <time>2021-05-29T14:02:03Z</time>
      </trkpt>
      <trkpt lat="45.16309" lon="5.78916">
        <ele>584.6</ele>
        <time>2021-05-29T14:02:04Z</time>
      </trkpt>
      <trkpt lat="45.16312" lon="5.78912">
        <ele>583.8</ele>
        <time>2021-05-29T14:02:05Z</time>
      </trkpt>
      <trkpt lat="45.16316" lon="5.78907">
        <ele>583.6</ele>
        <time>2021-05-29T14:02:06Z</time>
      </trkpt>
      <trkpt lat="45.16321" lon="5.789">
        <ele>582.8</ele>
        <time>2021-05-29T14:02:07Z</time>
      </trkpt>
      <trkpt lat="45.16323" lon="5.78898">
        <ele>582.6</ele>
        <time>2021-05-29T14:02:08Z</time>
      </trkpt>
      <trkpt lat="45.16325" lon="5.78896">
        <ele>582.2</ele>
        <time>2021-05-29T14:02:09Z</time>
      </trkpt>
      <trkpt lat="45.16329" lon="5.78893">
        <ele>582</ele>
        <time>2021-05-29T14:02:10Z</time>
      </trkpt>
      <trkpt lat="45.16329" lon="5.78893">
        <ele>581.4</ele>
        <time>2021-05-29T14:02:11Z</time>
      </trkpt>
      <trkpt lat="45.16329" lon="5.78893">
        <ele>581</ele>
        <time>2021-05-29T14:02:12Z</time>
      </trkpt>
      <trkpt lat="45.16332" lon="5.78891">
        <ele>580.2</ele>
        <time>2021-05-29T14:02:13Z</time>
      </trkpt>
      <trkpt lat="45.16334" lon="5.78889">
        <ele>579.6</ele>
        <time>2021-05-29T14:02:14Z</time>
      </trkpt>
      <trkpt lat="45.16336" lon="5.78887">
        <ele>578.8</ele>
        <time>2021-05-29T14:02:15Z</time>
      </trkpt>
      <trkpt lat="45.16338" lon="5.78885">
        <ele>578.2</ele>
        <time>2021-05-29T14:02:16Z</time>
      </trkpt>
      <trkpt lat="45.1634" lon="5.78884">
        <ele>577.4</ele>
        <time>2021-05-29T14:02:17Z</time>
      </trkpt>
      <trkpt lat="45.16341" lon="5.78883">
        <ele>576.2</ele>
        <time>2021-05-29T14:02:18Z</time>
      </trkpt>
      <trkpt lat="45.16343" lon="5.78881">
        <ele>576.2</ele>
        <time>2021-05-29T14:02:19Z</time>
      </trkpt>
      <trkpt lat="45.16345" lon="5.7888">
        <ele>575.8</ele>
        <time>2021-05-29T14:02:20Z</time>
      </trkpt>
      <trkpt lat="45.16346" lon="5.78878">
        <ele>575.8</ele>
        <time>2021-05-29T14:02:21Z</time>
      </trkpt>
      <trkpt lat="45.16348" lon="5.78876">
        <ele>575</ele>
        <time>2021-05-29T14:02:22Z</time>
      </trkpt>
      <trkpt lat="45.16349" lon="5.78874">
        <ele>574.6</ele>
        <time>2021-05-29T14:02:23Z</time>
      </trkpt>
      <trkpt lat="45.16351" lon="5.78872">
        <ele>573.6</ele>
        <time>2021-05-29T14:02:24Z</time>
      </trkpt>
      <trkpt lat="45.16352" lon="5.78871">
        <ele>573</ele>
        <time>2021-05-29T14:02:25Z</time>
      </trkpt>
      <trkpt lat="45.16354" lon="5.78869">
        <ele>572.8</ele>
        <time>2021-05-29T14:02:26Z</time>
      </trkpt>
      <trkpt lat="45.16354" lon="5.78867">
        <ele>572.2</ele>
        <time>2021-05-29T14:02:27Z</time>
      </trkpt>
      <trkpt lat="45.16354" lon="5.78865">
        <ele>572</ele>
        <time>2021-05-29T14:02:28Z</time>
      </trkpt>
      <trkpt lat="45.16355" lon="5.78862">
        <ele>571.6</ele>
        <time>2021-05-29T14:02:29Z</time>
      </trkpt>
      <trkpt lat="45.16355" lon="5.7886">
        <ele>570.8</ele>
        <time>2021-05-29T14:02:30Z</time>
      </trkpt>
      <trkpt lat="45.16356" lon="5.78858">
        <ele>570.6</ele>
        <time>2021-05-29T14:02:31Z</time>
      </trkpt>
      <trkpt lat="45.16356" lon="5.78856">
        <ele>570.2</ele>
        <time>2021-05-29T14:02:32Z</time>
      </trkpt>
      <trkpt lat="45.16357" lon="5.78855">
        <ele>570.2</ele>
        <time>2021-05-29T14:02:33Z</time>
      </trkpt>
      <trkpt lat="45.16357" lon="5.78855">
        <ele>569.8</ele>
        <time>2021-05-29T14:02:34Z</time>
      </trkpt>
      <trkpt lat="45.16358" lon="5.78854">
        <ele>569.6</ele>
        <time>2021-05-29T14:02:35Z</time>
      </trkpt>
      <trkpt lat="45.16358" lon="5.78853">
        <ele>569.2</ele>
        <time>2021-05-29T14:02:36Z</time>
      </trkpt>
      <trkpt lat="45.16359" lon="5.78852">
        <ele>568.6</ele>
        <time>2021-05-29T14:02:37Z</time>
      </trkpt>
      <trkpt lat="45.1636" lon="5.78851">
        <ele>567.8</ele>
        <time>2021-05-29T14:02:38Z</time>
      </trkpt>
      <trkpt lat="45.1636" lon="5.7885">
        <ele>567.6</ele>
        <time>2021-05-29T14:02:39Z</time>
      </trkpt>
      <trkpt lat="45.16361" lon="5.7885">
        <ele>567.2</ele>
        <time>2021-05-29T14:02:40Z</time>
      </trkpt>
      <trkpt lat="45.16361" lon="5.78849">
        <ele>566.4</ele>
        <time>2021-05-29T14:02:41Z</time>
      </trkpt>
      <trkpt lat="45.16362" lon="5.78848">
        <ele>565.8</ele>
        <time>2021-05-29T14:02:42Z</time>
      </trkpt>
      <trkpt lat="45.16362" lon="5.78847">
        <ele>565.2</ele>
        <time>2021-05-29T14:02:43Z</time>
      </trkpt>
      <trkpt lat="45.16364" lon="5.78846">
        <ele>564.4</ele>
        <time>2021-05-29T14:02:44Z</time>
      </trkpt>
      <trkpt lat="45.16366" lon="5.78846">
        <ele>563.8</ele>
        <time>2021-05-29T14:02:45Z</time>
      </trkpt>
      <trkpt lat="45.16368" lon="5.78845">
        <ele>563.4</ele>
        <time>2021-05-29T14:02:46Z</time>
      </trkpt>
      <trkpt lat="45.1637" lon="5.78844">
        <ele>562.8</ele>
        <time>2021-05-29T14:02:47Z</time>
      </trkpt>
      <trkpt lat="45.16372" lon="5.78843">
        <ele>562.4</ele>
        <time>2021-05-29T14:02:48Z</time>
      </trkpt>
      <trkpt lat="45.16374" lon="5.78843">
        <ele>562.4</ele>
        <time>2021-05-29T14:02:49Z</time>
      </trkpt>
      <trkpt lat="45.16376" lon="5.78842">
        <ele>561.8</ele>
        <time>2021-05-29T14:02:50Z</time>
      </trkpt>
      <trkpt lat="45.16377" lon="5.78841">
        <ele>561.6</ele>
        <time>2021-05-29T14:02:51Z</time>
      </trkpt>
      <trkpt lat="45.16379" lon="5.7884">
        <ele>561.4</ele>
        <time>2021-05-29T14:02:52Z</time>
      </trkpt>
      <trkpt lat="45.16381" lon="5.7884">
        <ele>561.2</ele>
        <time>2021-05-29T14:02:53Z</time>
      </trkpt>
      <trkpt lat="45.16385" lon="5.78835">
        <ele>560.8</ele>
        <time>2021-05-29T14:02:54Z</time>
      </trkpt>
      <trkpt lat="45.16385" lon="5.78835">
        <ele>560.4</ele>
        <time>2021-05-29T14:02:55Z</time>
      </trkpt>
      <trkpt lat="45.16385" lon="5.78835">
        <ele>559.8</ele>
        <time>2021-05-29T14:02:56Z</time>
      </trkpt>
      <trkpt lat="45.16388" lon="5.78832">
        <ele>559.6</ele>
        <time>2021-05-29T14:02:57Z</time>
      </trkpt>
      <trkpt lat="45.1639" lon="5.7883">
        <ele>559</ele>
        <time>2021-05-29T14:02:58Z</time>
      </trkpt>
      <trkpt lat="45.16392" lon="5.78827">
        <ele>558.4</ele>
        <time>2021-05-29T14:02:59Z</time>
      </trkpt>
      <trkpt lat="45.16395" lon="5.78825">
        <ele>557.6</ele>
        <time>2021-05-29T14:03:00Z</time>
      </trkpt>
      <trkpt lat="45.16397" lon="5.78822">
        <ele>557.4</ele>
        <time>2021-05-29T14:03:01Z</time>
      </trkpt>
      <trkpt lat="45.16399" lon="5.78819">
        <ele>557</ele>
        <time>2021-05-29T14:03:02Z</time>
      </trkpt>
      <trkpt lat="45.16402" lon="5.78817">
        <ele>556.6</ele>
        <time>2021-05-29T14:03:03Z</time>
      </trkpt>
      <trkpt lat="45.16406" lon="5.78813">
        <ele>556.4</ele>
        <time>2021-05-29T14:03:04Z</time>
      </trkpt>
      <trkpt lat="45.16406" lon="5.78813">
        <ele>556</ele>
        <time>2021-05-29T14:03:05Z</time>
      </trkpt>
      <trkpt lat="45.16406" lon="5.78813">
        <ele>555.8</ele>
        <time>2021-05-29T14:03:06Z</time>
      </trkpt>
      <trkpt lat="45.16407" lon="5.78812">
        <ele>555.4</ele>
        <time>2021-05-29T14:03:07Z</time>
      </trkpt>
      <trkpt lat="45.16408" lon="5.78811">
        <ele>555.2</ele>
        <time>2021-05-29T14:03:08Z</time>
      </trkpt>
      <trkpt lat="45.16409" lon="5.7881">
        <ele>554.8</ele>
        <time>2021-05-29T14:03:09Z</time>
      </trkpt>
      <trkpt lat="45.1641" lon="5.78809">
        <ele>554</ele>
        <time>2021-05-29T14:03:10Z</time>
      </trkpt>
      <trkpt lat="45.16411" lon="5.78808">
        <ele>554</ele>
        <time>2021-05-29T14:03:11Z</time>
      </trkpt>
      <trkpt lat="45.16412" lon="5.78807">
        <ele>553.8</ele>
        <time>2021-05-29T14:03:12Z</time>
      </trkpt>
      <trkpt lat="45.16412" lon="5.78806">
        <ele>553.4</ele>
        <time>2021-05-29T14:03:13Z</time>
      </trkpt>
      <trkpt lat="45.16413" lon="5.78805">
        <ele>553.4</ele>
        <time>2021-05-29T14:03:14Z</time>
      </trkpt>
      <trkpt lat="45.16414" lon="5.78804">
        <ele>553.4</ele>
        <time>2021-05-29T14:03:15Z</time>
      </trkpt>
      <trkpt lat="45.16415" lon="5.78803">
        <ele>553</ele>
        <time>2021-05-29T14:03:16Z</time>
      </trkpt>
      <trkpt lat="45.16416" lon="5.78802">
        <ele>552.4</ele>
        <time>2021-05-29T14:03:17Z</time>
      </trkpt>
      <trkpt lat="45.16417" lon="5.78801">
        <ele>552</ele>
        <time>2021-05-29T14:03:18Z</time>
      </trkpt>
      <trkpt lat="45.16418" lon="5.788">
        <ele>551.4</ele>
        <time>2021-05-29T14:03:19Z</time>
      </trkpt>
      <trkpt lat="45.16419" lon="5.78799">
        <ele>551</ele>
        <time>2021-05-29T14:03:20Z</time>
      </trkpt>
      <trkpt lat="45.1642" lon="5.78798">
        <ele>550.6</ele>
        <time>2021-05-29T14:03:21Z</time>
      </trkpt>
      <trkpt lat="45.16421" lon="5.78797">
        <ele>550.6</ele>
        <time>2021-05-29T14:03:22Z</time>
      </trkpt>
      <trkpt lat="45.16422" lon="5.78796">
        <ele>550.2</ele>
        <time>2021-05-29T14:03:23Z</time>
      </trkpt>
      <trkpt lat="45.16425" lon="5.78794">
        <ele>549.6</ele>
        <time>2021-05-29T14:03:24Z</time>
      </trkpt>
      <trkpt lat="45.16427" lon="5.78791">
        <ele>549.6</ele>
        <time>2021-05-29T14:03:25Z</time>
      </trkpt>
      <trkpt lat="45.1643" lon="5.78788">
        <ele>549.2</ele>
        <time>2021-05-29T14:03:26Z</time>
      </trkpt>
      <trkpt lat="45.16433" lon="5.78786">
        <ele>549</ele>
        <time>2021-05-29T14:03:27Z</time>
      </trkpt>
      <trkpt lat="45.16435" lon="5.78783">
        <ele>548.6</ele>
        <time>2021-05-29T14:03:28Z</time>
      </trkpt>
      <trkpt lat="45.16439" lon="5.7878">
        <ele>548</ele>
        <time>2021-05-29T14:03:29Z</time>
      </trkpt>
      <trkpt lat="45.16439" lon="5.7878">
        <ele>548</ele>
        <time>2021-05-29T14:03:30Z</time>
      </trkpt>
      <trkpt lat="45.16439" lon="5.7878">
        <ele>547.6</ele>
        <time>2021-05-29T14:03:31Z</time>
      </trkpt>
      <trkpt lat="45.16442" lon="5.78779">
        <ele>547.4</ele>
        <time>2021-05-29T14:03:32Z</time>
      </trkpt>
      <trkpt lat="45.16444" lon="5.78777">
        <ele>546.6</ele>
        <time>2021-05-29T14:03:33Z</time>
      </trkpt>
      <trkpt lat="45.16446" lon="5.78775">
        <ele>546.2</ele>
        <time>2021-05-29T14:03:34Z</time>
      </trkpt>
      <trkpt lat="45.16448" lon="5.78773">
        <ele>545.8</ele>
        <time>2021-05-29T14:03:35Z</time>
      </trkpt>
      <trkpt lat="45.1645" lon="5.78772">
        <ele>545.4</ele>
        <time>2021-05-29T14:03:36Z</time>
      </trkpt>
      <trkpt lat="45.16452" lon="5.7877">
        <ele>545</ele>
        <time>2021-05-29T14:03:37Z</time>
      </trkpt>
      <trkpt lat="45.16454" lon="5.78768">
        <ele>544.4</ele>
        <time>2021-05-29T14:03:38Z</time>
      </trkpt>
      <trkpt lat="45.16456" lon="5.78766">
        <ele>544.4</ele>
        <time>2021-05-29T14:03:39Z</time>
      </trkpt>
      <trkpt lat="45.16458" lon="5.78764">
        <ele>543.8</ele>
        <time>2021-05-29T14:03:40Z</time>
      </trkpt>
      <trkpt lat="45.1646" lon="5.78763">
        <ele>543.4</ele>
        <time>2021-05-29T14:03:41Z</time>
      </trkpt>
      <trkpt lat="45.16463" lon="5.78761">
        <ele>542.8</ele>
        <time>2021-05-29T14:03:42Z</time>
      </trkpt>
      <trkpt lat="45.16465" lon="5.78759">
        <ele>542</ele>
        <time>2021-05-29T14:03:43Z</time>
      </trkpt>
      <trkpt lat="45.16467" lon="5.78758">
        <ele>541.8</ele>
        <time>2021-05-29T14:03:44Z</time>
      </trkpt>
      <trkpt lat="45.16469" lon="5.78757">
        <ele>541.6</ele>
        <time>2021-05-29T14:03:45Z</time>
      </trkpt>
      <trkpt lat="45.16471" lon="5.78755">
        <ele>541.6</ele>
        <time>2021-05-29T14:03:46Z</time>
      </trkpt>
      <trkpt lat="45.16473" lon="5.78754">
        <ele>541</ele>
        <time>2021-05-29T14:03:47Z</time>
      </trkpt>
      <trkpt lat="45.16475" lon="5.78752">
        <ele>540.8</ele>
        <time>2021-05-29T14:03:48Z</time>
      </trkpt>
      <trkpt lat="45.16477" lon="5.78751">
        <ele>540.4</ele>
        <time>2021-05-29T14:03:49Z</time>
      </trkpt>
      <trkpt lat="45.16479" lon="5.7875">
        <ele>539.6</ele>
        <time>2021-05-29T14:03:50Z</time>
      </trkpt>
      <trkpt lat="45.16481" lon="5.78748">
        <ele>539.4</ele>
        <time>2021-05-29T14:03:51Z</time>
      </trkpt>
      <trkpt lat="45.16483" lon="5.78747">
        <ele>538.6</ele>
        <time>2021-05-29T14:03:52Z</time>
      </trkpt>
      <trkpt lat="45.16485" lon="5.78746">
        <ele>538.4</ele>
        <time>2021-05-29T14:03:53Z</time>
      </trkpt>
      <trkpt lat="45.16486" lon="5.78745">
        <ele>538.2</ele>
        <time>2021-05-29T14:03:54Z</time>
      </trkpt>
      <trkpt lat="45.16488" lon="5.78745">
        <ele>538</ele>
        <time>2021-05-29T14:03:55Z</time>
      </trkpt>
      <trkpt lat="45.1649" lon="5.78744">
        <ele>537.4</ele>
        <time>2021-05-29T14:03:56Z</time>
      </trkpt>
      <trkpt lat="45.16492" lon="5.78743">
        <ele>537</ele>
        <time>2021-05-29T14:03:57Z</time>
      </trkpt>
      <trkpt lat="45.16493" lon="5.78742">
        <ele>536.4</ele>
        <time>2021-05-29T14:03:58Z</time>
      </trkpt>
      <trkpt lat="45.16495" lon="5.78741">
        <ele>535.6</ele>
        <time>2021-05-29T14:03:59Z</time>
      </trkpt>
      <trkpt lat="45.16497" lon="5.7874">
        <ele>535.4</ele>
        <time>2021-05-29T14:04:00Z</time>
      </trkpt>
      <trkpt lat="45.16499" lon="5.7874">
        <ele>535</ele>
        <time>2021-05-29T14:04:01Z</time>
      </trkpt>
      <trkpt lat="45.165" lon="5.78739">
        <ele>534.6</ele>
        <time>2021-05-29T14:04:02Z</time>
      </trkpt>
      <trkpt lat="45.16502" lon="5.78738">
        <ele>534</ele>
        <time>2021-05-29T14:04:03Z</time>
      </trkpt>
      <trkpt lat="45.16505" lon="5.78737">
        <ele>533.6</ele>
        <time>2021-05-29T14:04:04Z</time>
      </trkpt>
      <trkpt lat="45.16507" lon="5.78736">
        <ele>532.8</ele>
        <time>2021-05-29T14:04:05Z</time>
      </trkpt>
      <trkpt lat="45.16509" lon="5.78736">
        <ele>532.4</ele>
        <time>2021-05-29T14:04:06Z</time>
      </trkpt>
      <trkpt lat="45.16512" lon="5.78735">
        <ele>532.2</ele>
        <time>2021-05-29T14:04:07Z</time>
      </trkpt>
      <trkpt lat="45.16514" lon="5.78734">
        <ele>532</ele>
        <time>2021-05-29T14:04:08Z</time>
      </trkpt>
      <trkpt lat="45.16516" lon="5.78733">
        <ele>531.6</ele>
        <time>2021-05-29T14:04:09Z</time>
      </trkpt>
      <trkpt lat="45.16518" lon="5.78732">
        <ele>530.8</ele>
        <time>2021-05-29T14:04:10Z</time>
      </trkpt>
      <trkpt lat="45.1652" lon="5.78731">
        <ele>530.2</ele>
        <time>2021-05-29T14:04:11Z</time>
      </trkpt>
      <trkpt lat="45.16522" lon="5.7873">
        <ele>529.6</ele>
        <time>2021-05-29T14:04:12Z</time>
      </trkpt>
      <trkpt lat="45.16524" lon="5.78729">
        <ele>529</ele>
        <time>2021-05-29T14:04:13Z</time>
      </trkpt>
      <trkpt lat="45.16525" lon="5.78729">
        <ele>528.8</ele>
        <time>2021-05-29T14:04:14Z</time>
      </trkpt>
      <trkpt lat="45.16527" lon="5.78728">
        <ele>527.8</ele>
        <time>2021-05-29T14:04:15Z</time>
      </trkpt>
      <trkpt lat="45.16528" lon="5.78727">
        <ele>527.8</ele>
        <time>2021-05-29T14:04:16Z</time>
      </trkpt>
      <trkpt lat="45.1653" lon="5.78726">
        <ele>527</ele>
        <time>2021-05-29T14:04:17Z</time>
      </trkpt>
      <trkpt lat="45.16531" lon="5.78725">
        <ele>527</ele>
        <time>2021-05-29T14:04:18Z</time>
      </trkpt>
      <trkpt lat="45.16532" lon="5.78724">
        <ele>526.2</ele>
        <time>2021-05-29T14:04:19Z</time>
      </trkpt>
      <trkpt lat="45.16535" lon="5.78724">
        <ele>525.6</ele>
        <time>2021-05-29T14:04:20Z</time>
      </trkpt>
      <trkpt lat="45.16538" lon="5.78723">
        <ele>524.8</ele>
        <time>2021-05-29T14:04:21Z</time>
      </trkpt>
      <trkpt lat="45.1654" lon="5.78723">
        <ele>524.2</ele>
        <time>2021-05-29T14:04:22Z</time>
      </trkpt>
      <trkpt lat="45.16543" lon="5.78722">
        <ele>523.6</ele>
        <time>2021-05-29T14:04:23Z</time>
      </trkpt>
      <trkpt lat="45.16545" lon="5.78722">
        <ele>523.4</ele>
        <time>2021-05-29T14:04:24Z</time>
      </trkpt>
      <trkpt lat="45.16547" lon="5.78722">
        <ele>522.6</ele>
        <time>2021-05-29T14:04:25Z</time>
      </trkpt>
      <trkpt lat="45.16549" lon="5.78721">
        <ele>522.2</ele>
        <time>2021-05-29T14:04:26Z</time>
      </trkpt>
      <trkpt lat="45.16551" lon="5.78721">
        <ele>521.8</ele>
        <time>2021-05-29T14:04:27Z</time>
      </trkpt>
      <trkpt lat="45.16553" lon="5.7872">
        <ele>521.2</ele>
        <time>2021-05-29T14:04:28Z</time>
      </trkpt>
      <trkpt lat="45.16554" lon="5.78719">
        <ele>520.6</ele>
        <time>2021-05-29T14:04:29Z</time>
      </trkpt>
      <trkpt lat="45.16556" lon="5.78719">
        <ele>520.2</ele>
        <time>2021-05-29T14:04:30Z</time>
      </trkpt>
      <trkpt lat="45.16557" lon="5.78718">
        <ele>520</ele>
        <time>2021-05-29T14:04:31Z</time>
      </trkpt>
      <trkpt lat="45.16559" lon="5.78717">
        <ele>519.4</ele>
        <time>2021-05-29T14:04:32Z</time>
      </trkpt>
      <trkpt lat="45.1656" lon="5.78716">
        <ele>519.4</ele>
        <time>2021-05-29T14:04:33Z</time>
      </trkpt>
      <trkpt lat="45.16562" lon="5.78715">
        <ele>519</ele>
        <time>2021-05-29T14:04:34Z</time>
      </trkpt>
      <trkpt lat="45.16565" lon="5.78714">
        <ele>518.8</ele>
        <time>2021-05-29T14:04:35Z</time>
      </trkpt>
      <trkpt lat="45.16567" lon="5.78712">
        <ele>518.4</ele>
        <time>2021-05-29T14:04:36Z</time>
      </trkpt>
      <trkpt lat="45.1657" lon="5.78711">
        <ele>518</ele>
        <time>2021-05-29T14:04:37Z</time>
      </trkpt>
      <trkpt lat="45.16573" lon="5.78709">
        <ele>517.4</ele>
        <time>2021-05-29T14:04:38Z</time>
      </trkpt>
      <trkpt lat="45.16575" lon="5.78708">
        <ele>517</ele>
        <time>2021-05-29T14:04:39Z</time>
      </trkpt>
      <trkpt lat="45.16578" lon="5.78707">
        <ele>517</ele>
        <time>2021-05-29T14:04:40Z</time>
      </trkpt>
      <trkpt lat="45.1658" lon="5.78706">
        <ele>516.6</ele>
        <time>2021-05-29T14:04:41Z</time>
      </trkpt>
      <trkpt lat="45.16583" lon="5.78704">
        <ele>516.2</ele>
        <time>2021-05-29T14:04:42Z</time>
      </trkpt>
      <trkpt lat="45.16584" lon="5.78704">
        <ele>515.4</ele>
        <time>2021-05-29T14:04:43Z</time>
      </trkpt>
      <trkpt lat="45.16585" lon="5.78703">
        <ele>514.8</ele>
        <time>2021-05-29T14:04:44Z</time>
      </trkpt>
      <trkpt lat="45.16586" lon="5.78702">
        <ele>514.8</ele>
        <time>2021-05-29T14:04:45Z</time>
      </trkpt>
      <trkpt lat="45.16587" lon="5.78702">
        <ele>514.4</ele>
        <time>2021-05-29T14:04:46Z</time>
      </trkpt>
      <trkpt lat="45.16588" lon="5.78701">
        <ele>514.2</ele>
        <time>2021-05-29T14:04:47Z</time>
      </trkpt>
      <trkpt lat="45.1659" lon="5.78701">
        <ele>514</ele>
        <time>2021-05-29T14:04:48Z</time>
      </trkpt>
      <trkpt lat="45.16591" lon="5.787">
        <ele>513.4</ele>
        <time>2021-05-29T14:04:49Z</time>
      </trkpt>
      <trkpt lat="45.16592" lon="5.78699">
        <ele>512.8</ele>
        <time>2021-05-29T14:04:50Z</time>
      </trkpt>
      <trkpt lat="45.16594" lon="5.78698">
        <ele>512.4</ele>
        <time>2021-05-29T14:04:51Z</time>
      </trkpt>
      <trkpt lat="45.16595" lon="5.78697">
        <ele>512.2</ele>
        <time>2021-05-29T14:04:52Z</time>
      </trkpt>
      <trkpt lat="45.16597" lon="5.78695">
        <ele>511.8</ele>
        <time>2021-05-29T14:04:53Z</time>
      </trkpt>
      <trkpt lat="45.16598" lon="5.78694">
        <ele>511.6</ele>
        <time>2021-05-29T14:04:54Z</time>
      </trkpt>
      <trkpt lat="45.166" lon="5.78693">
        <ele>511</ele>
        <time>2021-05-29T14:04:55Z</time>
      </trkpt>
      <trkpt lat="45.16601" lon="5.78691">
        <ele>510.6</ele>
        <time>2021-05-29T14:04:56Z</time>
      </trkpt>
      <trkpt lat="45.16603" lon="5.7869">
        <ele>510</ele>
        <time>2021-05-29T14:04:57Z</time>
      </trkpt>
      <trkpt lat="45.16605" lon="5.78689">
        <ele>509.2</ele>
        <time>2021-05-29T14:04:58Z</time>
      </trkpt>
      <trkpt lat="45.16606" lon="5.78688">
        <ele>508.8</ele>
        <time>2021-05-29T14:04:59Z</time>
      </trkpt>
      <trkpt lat="45.16608" lon="5.78687">
        <ele>508.4</ele>
        <time>2021-05-29T14:05:00Z</time>
      </trkpt>
      <trkpt lat="45.1661" lon="5.78685">
        <ele>508.2</ele>
        <time>2021-05-29T14:05:01Z</time>
      </trkpt>
      <trkpt lat="45.16611" lon="5.78684">
        <ele>507.6</ele>
        <time>2021-05-29T14:05:02Z</time>
      </trkpt>
      <trkpt lat="45.16613" lon="5.78683">
        <ele>507.4</ele>
        <time>2021-05-29T14:05:03Z</time>
      </trkpt>
      <trkpt lat="45.16615" lon="5.78682">
        <ele>507</ele>
        <time>2021-05-29T14:05:04Z</time>
      </trkpt>
      <trkpt lat="45.16617" lon="5.78681">
        <ele>506.4</ele>
        <time>2021-05-29T14:05:05Z</time>
      </trkpt>
      <trkpt lat="45.16619" lon="5.7868">
        <ele>505.6</ele>
        <time>2021-05-29T14:05:06Z</time>
      </trkpt>
      <trkpt lat="45.16621" lon="5.78679">
        <ele>505.4</ele>
        <time>2021-05-29T14:05:07Z</time>
      </trkpt>
      <trkpt lat="45.16623" lon="5.78679">
        <ele>504.8</ele>
        <time>2021-05-29T14:05:08Z</time>
      </trkpt>
      <trkpt lat="45.16624" lon="5.78678">
        <ele>504.4</ele>
        <time>2021-05-29T14:05:09Z</time>
      </trkpt>
      <trkpt lat="45.16626" lon="5.78677">
        <ele>503.8</ele>
        <time>2021-05-29T14:05:10Z</time>
      </trkpt>
      <trkpt lat="45.16628" lon="5.78676">
        <ele>503.4</ele>
        <time>2021-05-29T14:05:11Z</time>
      </trkpt>
      <trkpt lat="45.1663" lon="5.78676">
        <ele>502.8</ele>
        <time>2021-05-29T14:05:12Z</time>
      </trkpt>
      <trkpt lat="45.16632" lon="5.78675">
        <ele>502</ele>
        <time>2021-05-29T14:05:13Z</time>
      </trkpt>
      <trkpt lat="45.16634" lon="5.78675">
        <ele>501.6</ele>
        <time>2021-05-29T14:05:14Z</time>
      </trkpt>
      <trkpt lat="45.16636" lon="5.78674">
        <ele>501.2</ele>
        <time>2021-05-29T14:05:15Z</time>
      </trkpt>
      <trkpt lat="45.16638" lon="5.78673">
        <ele>501</ele>
        <time>2021-05-29T14:05:16Z</time>
      </trkpt>
      <trkpt lat="45.1664" lon="5.78672">
        <ele>500.4</ele>
        <time>2021-05-29T14:05:17Z</time>
      </trkpt>
      <trkpt lat="45.16642" lon="5.78671">
        <ele>500</ele>
        <time>2021-05-29T14:05:18Z</time>
      </trkpt>
      <trkpt lat="45.16644" lon="5.7867">
        <ele>499.2</ele>
        <time>2021-05-29T14:05:19Z</time>
      </trkpt>
      <trkpt lat="45.16646" lon="5.78669">
        <ele>498.6</ele>
        <time>2021-05-29T14:05:20Z</time>
      </trkpt>
      <trkpt lat="45.16648" lon="5.78668">
        <ele>497.6</ele>
        <time>2021-05-29T14:05:21Z</time>
      </trkpt>
      <trkpt lat="45.16649" lon="5.78668">
        <ele>497.2</ele>
        <time>2021-05-29T14:05:22Z</time>
      </trkpt>
      <trkpt lat="45.1665" lon="5.78668">
        <ele>496.4</ele>
        <time>2021-05-29T14:05:23Z</time>
      </trkpt>
      <trkpt lat="45.16652" lon="5.78668">
        <ele>496.2</ele>
        <time>2021-05-29T14:05:24Z</time>
      </trkpt>
      <trkpt lat="45.16653" lon="5.78667">
        <ele>496</ele>
        <time>2021-05-29T14:05:25Z</time>
      </trkpt>
      <trkpt lat="45.16655" lon="5.78667">
        <ele>495.6</ele>
        <time>2021-05-29T14:05:26Z</time>
      </trkpt>
      <trkpt lat="45.16656" lon="5.78667">
        <ele>495.6</ele>
        <time>2021-05-29T14:05:27Z</time>
      </trkpt>
      <trkpt lat="45.16657" lon="5.78666">
        <ele>495</ele>
        <time>2021-05-29T14:05:28Z</time>
      </trkpt>
      <trkpt lat="45.1666" lon="5.78666">
        <ele>494.6</ele>
        <time>2021-05-29T14:05:29Z</time>
      </trkpt>
      <trkpt lat="45.16662" lon="5.78665">
        <ele>494</ele>
        <time>2021-05-29T14:05:30Z</time>
      </trkpt>
      <trkpt lat="45.16664" lon="5.78664">
        <ele>493.4</ele>
        <time>2021-05-29T14:05:31Z</time>
      </trkpt>
      <trkpt lat="45.16667" lon="5.78663">
        <ele>493.2</ele>
        <time>2021-05-29T14:05:32Z</time>
      </trkpt>
      <trkpt lat="45.16668" lon="5.78662">
        <ele>492.8</ele>
        <time>2021-05-29T14:05:33Z</time>
      </trkpt>
      <trkpt lat="45.16669" lon="5.78662">
        <ele>492.6</ele>
        <time>2021-05-29T14:05:34Z</time>
      </trkpt>
      <trkpt lat="45.16671" lon="5.78662">
        <ele>492.2</ele>
        <time>2021-05-29T14:05:35Z</time>
      </trkpt>
      <trkpt lat="45.16672" lon="5.78661">
        <ele>491.8</ele>
        <time>2021-05-29T14:05:36Z</time>
      </trkpt>
      <trkpt lat="45.16674" lon="5.78661">
        <ele>491.2</ele>
        <time>2021-05-29T14:05:37Z</time>
      </trkpt>
      <trkpt lat="45.16675" lon="5.7866">
        <ele>490.4</ele>
        <time>2021-05-29T14:05:38Z</time>
      </trkpt>
      <trkpt lat="45.16677" lon="5.78658">
        <ele>489.8</ele>
        <time>2021-05-29T14:05:39Z</time>
      </trkpt>
      <trkpt lat="45.1668" lon="5.78656">
        <ele>489.2</ele>
        <time>2021-05-29T14:05:40Z</time>
      </trkpt>
      <trkpt lat="45.16682" lon="5.78654">
        <ele>489.2</ele>
        <time>2021-05-29T14:05:41Z</time>
      </trkpt>
      <trkpt lat="45.16684" lon="5.78653">
        <ele>488.8</ele>
        <time>2021-05-29T14:05:42Z</time>
      </trkpt>
      <trkpt lat="45.16686" lon="5.78653">
        <ele>488.6</ele>
        <time>2021-05-29T14:05:43Z</time>
      </trkpt>
      <trkpt lat="45.16689" lon="5.78653">
        <ele>488</ele>
        <time>2021-05-29T14:05:44Z</time>
      </trkpt>
      <trkpt lat="45.16691" lon="5.78653">
        <ele>487.4</ele>
        <time>2021-05-29T14:05:45Z</time>
      </trkpt>
      <trkpt lat="45.16693" lon="5.78653">
        <ele>487.2</ele>
        <time>2021-05-29T14:05:46Z</time>
      </trkpt>
      <trkpt lat="45.16703" lon="5.7865">
        <ele>486.8</ele>
        <time>2021-05-29T14:05:47Z</time>
      </trkpt>
      <trkpt lat="45.16703" lon="5.7865">
        <ele>486.6</ele>
        <time>2021-05-29T14:05:48Z</time>
      </trkpt>
      <trkpt lat="45.16703" lon="5.7865">
        <ele>486.2</ele>
        <time>2021-05-29T14:05:49Z</time>
      </trkpt>
      <trkpt lat="45.16705" lon="5.7865">
        <ele>486</ele>
        <time>2021-05-29T14:05:50Z</time>
      </trkpt>
      <trkpt lat="45.16708" lon="5.7865">
        <ele>485.2</ele>
        <time>2021-05-29T14:05:51Z</time>
      </trkpt>
      <trkpt lat="45.1671" lon="5.7865">
        <ele>485</ele>
        <time>2021-05-29T14:05:52Z</time>
      </trkpt>
      <trkpt lat="45.16713" lon="5.7865">
        <ele>485</ele>
        <time>2021-05-29T14:05:53Z</time>
      </trkpt>
      <trkpt lat="45.16716" lon="5.7865">
        <ele>484.6</ele>
        <time>2021-05-29T14:05:54Z</time>
      </trkpt>
      <trkpt lat="45.1672" lon="5.78651">
        <ele>484.2</ele>
        <time>2021-05-29T14:05:55Z</time>
      </trkpt>
      <trkpt lat="45.16723" lon="5.78651">
        <ele>483.6</ele>
        <time>2021-05-29T14:05:56Z</time>
      </trkpt>
      <trkpt lat="45.16727" lon="5.78652">
        <ele>483.4</ele>
        <time>2021-05-29T14:05:57Z</time>
      </trkpt>
      <trkpt lat="45.1673" lon="5.78652">
        <ele>483.2</ele>
        <time>2021-05-29T14:05:58Z</time>
      </trkpt>
      <trkpt lat="45.16732" lon="5.78652">
        <ele>483</ele>
        <time>2021-05-29T14:05:59Z</time>
      </trkpt>
      <trkpt lat="45.16735" lon="5.78653">
        <ele>483</ele>
        <time>2021-05-29T14:06:00Z</time>
      </trkpt>
      <trkpt lat="45.16737" lon="5.78653">
        <ele>483</ele>
        <time>2021-05-29T14:06:01Z</time>
      </trkpt>
      <trkpt lat="45.16738" lon="5.78652">
        <ele>482.8</ele>
        <time>2021-05-29T14:06:02Z</time>
      </trkpt>
      <trkpt lat="45.1674" lon="5.78651">
        <ele>482.8</ele>
        <time>2021-05-29T14:06:03Z</time>
      </trkpt>
      <trkpt lat="45.16741" lon="5.78651">
        <ele>482.8</ele>
        <time>2021-05-29T14:06:04Z</time>
      </trkpt>
      <trkpt lat="45.16742" lon="5.7865">
        <ele>482.8</ele>
        <time>2021-05-29T14:06:05Z</time>
      </trkpt>
      <trkpt lat="45.16744" lon="5.78649">
        <ele>482.6</ele>
        <time>2021-05-29T14:06:06Z</time>
      </trkpt>
      <trkpt lat="45.16745" lon="5.78648">
        <ele>482.4</ele>
        <time>2021-05-29T14:06:07Z</time>
      </trkpt>
      <trkpt lat="45.16746" lon="5.78647">
        <ele>481.8</ele>
        <time>2021-05-29T14:06:08Z</time>
      </trkpt>
      <trkpt lat="45.16747" lon="5.78647">
        <ele>481.6</ele>
        <time>2021-05-29T14:06:09Z</time>
      </trkpt>
      <trkpt lat="45.16748" lon="5.78646">
        <ele>481.8</ele>
        <time>2021-05-29T14:06:10Z</time>
      </trkpt>
      <trkpt lat="45.16749" lon="5.78646">
        <ele>481.4</ele>
        <time>2021-05-29T14:06:11Z</time>
      </trkpt>
      <trkpt lat="45.1675" lon="5.78645">
        <ele>481.2</ele>
        <time>2021-05-29T14:06:12Z</time>
      </trkpt>
      <trkpt lat="45.16751" lon="5.78645">
        <ele>480.8</ele>
        <time>2021-05-29T14:06:13Z</time>
      </trkpt>
      <trkpt lat="45.16752" lon="5.78644">
        <ele>480.4</ele>
        <time>2021-05-29T14:06:14Z</time>
      </trkpt>
      <trkpt lat="45.16753" lon="5.78644">
        <ele>479.6</ele>
        <time>2021-05-29T14:06:15Z</time>
      </trkpt>
      <trkpt lat="45.16754" lon="5.78643">
        <ele>478.8</ele>
        <time>2021-05-29T14:06:16Z</time>
      </trkpt>
      <trkpt lat="45.16755" lon="5.78643">
        <ele>478.8</ele>
        <time>2021-05-29T14:06:17Z</time>
      </trkpt>
      <trkpt lat="45.16757" lon="5.78642">
        <ele>478.6</ele>
        <time>2021-05-29T14:06:18Z</time>
      </trkpt>
      <trkpt lat="45.16759" lon="5.78642">
        <ele>478.6</ele>
        <time>2021-05-29T14:06:19Z</time>
      </trkpt>
      <trkpt lat="45.1676" lon="5.78642">
        <ele>478.2</ele>
        <time>2021-05-29T14:06:20Z</time>
      </trkpt>
      <trkpt lat="45.16762" lon="5.78642">
        <ele>477.6</ele>
        <time>2021-05-29T14:06:21Z</time>
      </trkpt>
      <trkpt lat="45.16763" lon="5.78641">
        <ele>477.2</ele>
        <time>2021-05-29T14:06:22Z</time>
      </trkpt>
      <trkpt lat="45.16765" lon="5.78641">
        <ele>476.8</ele>
        <time>2021-05-29T14:06:23Z</time>
      </trkpt>
      <trkpt lat="45.16767" lon="5.7864">
        <ele>477</ele>
        <time>2021-05-29T14:06:24Z</time>
      </trkpt>
      <trkpt lat="45.16768" lon="5.78639">
        <ele>476.4</ele>
        <time>2021-05-29T14:06:25Z</time>
      </trkpt>
      <trkpt lat="45.1677" lon="5.78638">
        <ele>476.2</ele>
        <time>2021-05-29T14:06:26Z</time>
      </trkpt>
      <trkpt lat="45.16772" lon="5.78637">
        <ele>475.8</ele>
        <time>2021-05-29T14:06:27Z</time>
      </trkpt>
      <trkpt lat="45.16773" lon="5.78635">
        <ele>475.4</ele>
        <time>2021-05-29T14:06:28Z</time>
      </trkpt>
      <trkpt lat="45.16775" lon="5.78635">
        <ele>475.2</ele>
        <time>2021-05-29T14:06:29Z</time>
      </trkpt>
      <trkpt lat="45.16776" lon="5.78634">
        <ele>474.8</ele>
        <time>2021-05-29T14:06:30Z</time>
      </trkpt>
      <trkpt lat="45.16778" lon="5.78633">
        <ele>474.6</ele>
        <time>2021-05-29T14:06:31Z</time>
      </trkpt>
      <trkpt lat="45.16779" lon="5.78632">
        <ele>474</ele>
        <time>2021-05-29T14:06:32Z</time>
      </trkpt>
      <trkpt lat="45.1678" lon="5.78631">
        <ele>473.6</ele>
        <time>2021-05-29T14:06:33Z</time>
      </trkpt>
      <trkpt lat="45.16782" lon="5.7863">
        <ele>473</ele>
        <time>2021-05-29T14:06:34Z</time>
      </trkpt>
      <trkpt lat="45.16784" lon="5.78629">
        <ele>472.6</ele>
        <time>2021-05-29T14:06:35Z</time>
      </trkpt>
      <trkpt lat="45.16786" lon="5.78628">
        <ele>472.6</ele>
        <time>2021-05-29T14:06:36Z</time>
      </trkpt>
      <trkpt lat="45.16788" lon="5.78627">
        <ele>472</ele>
        <time>2021-05-29T14:06:37Z</time>
      </trkpt>
      <trkpt lat="45.1679" lon="5.78626">
        <ele>471.8</ele>
        <time>2021-05-29T14:06:38Z</time>
      </trkpt>
      <trkpt lat="45.16792" lon="5.78625">
        <ele>471.4</ele>
        <time>2021-05-29T14:06:39Z</time>
      </trkpt>
      <trkpt lat="45.16794" lon="5.78624">
        <ele>471.2</ele>
        <time>2021-05-29T14:06:40Z</time>
      </trkpt>
      <trkpt lat="45.16796" lon="5.78623">
        <ele>470.8</ele>
        <time>2021-05-29T14:06:41Z</time>
      </trkpt>
      <trkpt lat="45.16798" lon="5.78622">
        <ele>470.2</ele>
        <time>2021-05-29T14:06:42Z</time>
      </trkpt>
      <trkpt lat="45.168" lon="5.78621">
        <ele>469.8</ele>
        <time>2021-05-29T14:06:43Z</time>
      </trkpt>
      <trkpt lat="45.16802" lon="5.78621">
        <ele>469.4</ele>
        <time>2021-05-29T14:06:44Z</time>
      </trkpt>
      <trkpt lat="45.16804" lon="5.78621">
        <ele>469</ele>
        <time>2021-05-29T14:06:45Z</time>
      </trkpt>
      <trkpt lat="45.16806" lon="5.78621">
        <ele>468.4</ele>
        <time>2021-05-29T14:06:46Z</time>
      </trkpt>
      <trkpt lat="45.16808" lon="5.78621">
        <ele>468.4</ele>
        <time>2021-05-29T14:06:47Z</time>
      </trkpt>
      <trkpt lat="45.1681" lon="5.78621">
        <ele>468.2</ele>
        <time>2021-05-29T14:06:48Z</time>
      </trkpt>
      <trkpt lat="45.16812" lon="5.78621">
        <ele>468.2</ele>
        <time>2021-05-29T14:06:49Z</time>
      </trkpt>
      <trkpt lat="45.16814" lon="5.78621">
        <ele>468</ele>
        <time>2021-05-29T14:06:50Z</time>
      </trkpt>
      <trkpt lat="45.16816" lon="5.7862">
        <ele>467.6</ele>
        <time>2021-05-29T14:06:51Z</time>
      </trkpt>
      <trkpt lat="45.16818" lon="5.7862">
        <ele>467</ele>
        <time>2021-05-29T14:06:52Z</time>
      </trkpt>
      <trkpt lat="45.1682" lon="5.7862">
        <ele>466.6</ele>
        <time>2021-05-29T14:06:53Z</time>
      </trkpt>
      <trkpt lat="45.16823" lon="5.78618">
        <ele>466.2</ele>
        <time>2021-05-29T14:06:54Z</time>
      </trkpt>
      <trkpt lat="45.16826" lon="5.78617">
        <ele>466</ele>
        <time>2021-05-29T14:06:55Z</time>
      </trkpt>
      <trkpt lat="45.16828" lon="5.78615">
        <ele>466.2</ele>
        <time>2021-05-29T14:06:56Z</time>
      </trkpt>
      <trkpt lat="45.16831" lon="5.78613">
        <ele>465.8</ele>
        <time>2021-05-29T14:06:57Z</time>
      </trkpt>
      <trkpt lat="45.16834" lon="5.78612">
        <ele>465.4</ele>
        <time>2021-05-29T14:06:58Z</time>
      </trkpt>
      <trkpt lat="45.16838" lon="5.78609">
        <ele>465</ele>
        <time>2021-05-29T14:06:59Z</time>
      </trkpt>
      <trkpt lat="45.16838" lon="5.78609">
        <ele>464.4</ele>
        <time>2021-05-29T14:07:00Z</time>
      </trkpt>
      <trkpt lat="45.16838" lon="5.78609">
        <ele>463.8</ele>
        <time>2021-05-29T14:07:01Z</time>
      </trkpt>
      <trkpt lat="45.1684" lon="5.78607">
        <ele>463.2</ele>
        <time>2021-05-29T14:07:02Z</time>
      </trkpt>
      <trkpt lat="45.16842" lon="5.78606">
        <ele>463.2</ele>
        <time>2021-05-29T14:07:03Z</time>
      </trkpt>
      <trkpt lat="45.16845" lon="5.78605">
        <ele>462.8</ele>
        <time>2021-05-29T14:07:04Z</time>
      </trkpt>
      <trkpt lat="45.16847" lon="5.78604">
        <ele>462.6</ele>
        <time>2021-05-29T14:07:05Z</time>
      </trkpt>
      <trkpt lat="45.16849" lon="5.78603">
        <ele>462.2</ele>
        <time>2021-05-29T14:07:06Z</time>
      </trkpt>
      <trkpt lat="45.16851" lon="5.78602">
        <ele>462</ele>
        <time>2021-05-29T14:07:07Z</time>
      </trkpt>
      <trkpt lat="45.16854" lon="5.786">
        <ele>461.6</ele>
        <time>2021-05-29T14:07:08Z</time>
      </trkpt>
      <trkpt lat="45.16856" lon="5.78599">
        <ele>461.4</ele>
        <time>2021-05-29T14:07:09Z</time>
      </trkpt>
      <trkpt lat="45.16858" lon="5.78599">
        <ele>460.8</ele>
        <time>2021-05-29T14:07:10Z</time>
      </trkpt>
      <trkpt lat="45.16861" lon="5.78598">
        <ele>460.2</ele>
        <time>2021-05-29T14:07:11Z</time>
      </trkpt>
      <trkpt lat="45.16863" lon="5.78598">
        <ele>459.8</ele>
        <time>2021-05-29T14:07:12Z</time>
      </trkpt>
      <trkpt lat="45.16866" lon="5.78598">
        <ele>459.6</ele>
        <time>2021-05-29T14:07:13Z</time>
      </trkpt>
      <trkpt lat="45.16868" lon="5.78598">
        <ele>459.6</ele>
        <time>2021-05-29T14:07:14Z</time>
      </trkpt>
      <trkpt lat="45.16871" lon="5.78599">
        <ele>459.2</ele>
        <time>2021-05-29T14:07:15Z</time>
      </trkpt>
      <trkpt lat="45.16874" lon="5.786">
        <ele>459.2</ele>
        <time>2021-05-29T14:07:16Z</time>
      </trkpt>
      <trkpt lat="45.16876" lon="5.78601">
        <ele>458.8</ele>
        <time>2021-05-29T14:07:17Z</time>
      </trkpt>
      <trkpt lat="45.16879" lon="5.78601">
        <ele>459.2</ele>
        <time>2021-05-29T14:07:18Z</time>
      </trkpt>
      <trkpt lat="45.16881" lon="5.786">
        <ele>459</ele>
        <time>2021-05-29T14:07:19Z</time>
      </trkpt>
      <trkpt lat="45.16884" lon="5.786">
        <ele>459</ele>
        <time>2021-05-29T14:07:20Z</time>
      </trkpt>
      <trkpt lat="45.16886" lon="5.786">
        <ele>458.8</ele>
        <time>2021-05-29T14:07:21Z</time>
      </trkpt>
      <trkpt lat="45.16889" lon="5.786">
        <ele>458.8</ele>
        <time>2021-05-29T14:07:22Z</time>
      </trkpt>
      <trkpt lat="45.16891" lon="5.78599">
        <ele>458.6</ele>
        <time>2021-05-29T14:07:23Z</time>
      </trkpt>
      <trkpt lat="45.16894" lon="5.78599">
        <ele>458.6</ele>
        <time>2021-05-29T14:07:24Z</time>
      </trkpt>
      <trkpt lat="45.16896" lon="5.78598">
        <ele>458.2</ele>
        <time>2021-05-29T14:07:25Z</time>
      </trkpt>
      <trkpt lat="45.16899" lon="5.78598">
        <ele>458.2</ele>
        <time>2021-05-29T14:07:26Z</time>
      </trkpt>
      <trkpt lat="45.16902" lon="5.78598">
        <ele>458</ele>
        <time>2021-05-29T14:07:27Z</time>
      </trkpt>
      <trkpt lat="45.16905" lon="5.78598">
        <ele>457.8</ele>
        <time>2021-05-29T14:07:28Z</time>
      </trkpt>
      <trkpt lat="45.16908" lon="5.78597">
        <ele>457.8</ele>
        <time>2021-05-29T14:07:29Z</time>
      </trkpt>
      <trkpt lat="45.1691" lon="5.78597">
        <ele>457.8</ele>
        <time>2021-05-29T14:07:30Z</time>
      </trkpt>
      <trkpt lat="45.16913" lon="5.78597">
        <ele>457.6</ele>
        <time>2021-05-29T14:07:31Z</time>
      </trkpt>
      <trkpt lat="45.16916" lon="5.78596">
        <ele>457.4</ele>
        <time>2021-05-29T14:07:32Z</time>
      </trkpt>
      <trkpt lat="45.16919" lon="5.78596">
        <ele>457</ele>
        <time>2021-05-29T14:07:33Z</time>
      </trkpt>
      <trkpt lat="45.16921" lon="5.78595">
        <ele>456.6</ele>
        <time>2021-05-29T14:07:34Z</time>
      </trkpt>
      <trkpt lat="45.16923" lon="5.78595">
        <ele>456.2</ele>
        <time>2021-05-29T14:07:35Z</time>
      </trkpt>
      <trkpt lat="45.16926" lon="5.78595">
        <ele>456</ele>
        <time>2021-05-29T14:07:36Z</time>
      </trkpt>
      <trkpt lat="45.16928" lon="5.78595">
        <ele>455.8</ele>
        <time>2021-05-29T14:07:37Z</time>
      </trkpt>
      <trkpt lat="45.1693" lon="5.78594">
        <ele>455.4</ele>
        <time>2021-05-29T14:07:38Z</time>
      </trkpt>
      <trkpt lat="45.16932" lon="5.78593">
        <ele>455.4</ele>
        <time>2021-05-29T14:07:39Z</time>
      </trkpt>
      <trkpt lat="45.16935" lon="5.78592">
        <ele>455.2</ele>
        <time>2021-05-29T14:07:40Z</time>
      </trkpt>
      <trkpt lat="45.16937" lon="5.78591">
        <ele>455</ele>
        <time>2021-05-29T14:07:41Z</time>
      </trkpt>
      <trkpt lat="45.16939" lon="5.78591">
        <ele>454.8</ele>
        <time>2021-05-29T14:07:42Z</time>
      </trkpt>
      <trkpt lat="45.16941" lon="5.7859">
        <ele>454.8</ele>
        <time>2021-05-29T14:07:43Z</time>
      </trkpt>
      <trkpt lat="45.16943" lon="5.78589">
        <ele>454.4</ele>
        <time>2021-05-29T14:07:44Z</time>
      </trkpt>
      <trkpt lat="45.16945" lon="5.78589">
        <ele>454.6</ele>
        <time>2021-05-29T14:07:45Z</time>
      </trkpt>
      <trkpt lat="45.16947" lon="5.78588">
        <ele>454.2</ele>
        <time>2021-05-29T14:07:46Z</time>
      </trkpt>
      <trkpt lat="45.1695" lon="5.78588">
        <ele>454.4</ele>
        <time>2021-05-29T14:07:47Z</time>
      </trkpt>
      <trkpt lat="45.16952" lon="5.78587">
        <ele>454.2</ele>
        <time>2021-05-29T14:07:48Z</time>
      </trkpt>
      <trkpt lat="45.16955" lon="5.78586">
        <ele>454.4</ele>
        <time>2021-05-29T14:07:49Z</time>
      </trkpt>
      <trkpt lat="45.16958" lon="5.78585">
        <ele>454</ele>
        <time>2021-05-29T14:07:50Z</time>
      </trkpt>
      <trkpt lat="45.16961" lon="5.78584">
        <ele>454</ele>
        <time>2021-05-29T14:07:51Z</time>
      </trkpt>
      <trkpt lat="45.16964" lon="5.78583">
        <ele>453.6</ele>
        <time>2021-05-29T14:07:52Z</time>
      </trkpt>
      <trkpt lat="45.16967" lon="5.78581">
        <ele>453.6</ele>
        <time>2021-05-29T14:07:53Z</time>
      </trkpt>
      <trkpt lat="45.16971" lon="5.7858">
        <ele>453.4</ele>
        <time>2021-05-29T14:07:54Z</time>
      </trkpt>
      <trkpt lat="45.16974" lon="5.78579">
        <ele>453.2</ele>
        <time>2021-05-29T14:07:55Z</time>
      </trkpt>
      <trkpt lat="45.16978" lon="5.78576">
        <ele>453</ele>
        <time>2021-05-29T14:07:56Z</time>
      </trkpt>
      <trkpt lat="45.16978" lon="5.78576">
        <ele>453.2</ele>
        <time>2021-05-29T14:07:57Z</time>
      </trkpt>
      <trkpt lat="45.16978" lon="5.78576">
        <ele>453</ele>
        <time>2021-05-29T14:07:58Z</time>
      </trkpt>
      <trkpt lat="45.1698" lon="5.78575">
        <ele>453</ele>
        <time>2021-05-29T14:07:59Z</time>
      </trkpt>
      <trkpt lat="45.16982" lon="5.78573">
        <ele>452.8</ele>
        <time>2021-05-29T14:08:00Z</time>
      </trkpt>
      <trkpt lat="45.16984" lon="5.78572">
        <ele>453</ele>
        <time>2021-05-29T14:08:01Z</time>
      </trkpt>
      <trkpt lat="45.16986" lon="5.78571">
        <ele>452.8</ele>
        <time>2021-05-29T14:08:02Z</time>
      </trkpt>
      <trkpt lat="45.16988" lon="5.78569">
        <ele>452.8</ele>
        <time>2021-05-29T14:08:03Z</time>
      </trkpt>
      <trkpt lat="45.1699" lon="5.78567">
        <ele>452.6</ele>
        <time>2021-05-29T14:08:04Z</time>
      </trkpt>
      <trkpt lat="45.16993" lon="5.78565">
        <ele>452.8</ele>
        <time>2021-05-29T14:08:05Z</time>
      </trkpt>
      <trkpt lat="45.16995" lon="5.78564">
        <ele>452.6</ele>
        <time>2021-05-29T14:08:06Z</time>
      </trkpt>
      <trkpt lat="45.16997" lon="5.78562">
        <ele>452.6</ele>
        <time>2021-05-29T14:08:07Z</time>
      </trkpt>
      <trkpt lat="45.17" lon="5.78559">
        <ele>452.4</ele>
        <time>2021-05-29T14:08:08Z</time>
      </trkpt>
      <trkpt lat="45.17002" lon="5.78557">
        <ele>452.6</ele>
        <time>2021-05-29T14:08:09Z</time>
      </trkpt>
      <trkpt lat="45.17004" lon="5.78554">
        <ele>452.4</ele>
        <time>2021-05-29T14:08:10Z</time>
      </trkpt>
      <trkpt lat="45.17006" lon="5.78552">
        <ele>452.6</ele>
        <time>2021-05-29T14:08:11Z</time>
      </trkpt>
      <trkpt lat="45.17008" lon="5.7855">
        <ele>452.4</ele>
        <time>2021-05-29T14:08:12Z</time>
      </trkpt>
      <trkpt lat="45.1701" lon="5.78549">
        <ele>452.4</ele>
        <time>2021-05-29T14:08:13Z</time>
      </trkpt>
      <trkpt lat="45.17011" lon="5.78547">
        <ele>452.2</ele>
        <time>2021-05-29T14:08:14Z</time>
      </trkpt>
      <trkpt lat="45.17013" lon="5.78546">
        <ele>452.4</ele>
        <time>2021-05-29T14:08:15Z</time>
      </trkpt>
      <trkpt lat="45.17015" lon="5.78544">
        <ele>452.2</ele>
        <time>2021-05-29T14:08:16Z</time>
      </trkpt>
      <trkpt lat="45.17016" lon="5.78542">
        <ele>452.2</ele>
        <time>2021-05-29T14:08:17Z</time>
      </trkpt>
      <trkpt lat="45.17018" lon="5.78541">
        <ele>452</ele>
        <time>2021-05-29T14:08:18Z</time>
      </trkpt>
      <trkpt lat="45.17019" lon="5.78539">
        <ele>452.2</ele>
        <time>2021-05-29T14:08:19Z</time>
      </trkpt>
      <trkpt lat="45.17021" lon="5.78538">
        <ele>452.2</ele>
        <time>2021-05-29T14:08:20Z</time>
      </trkpt>
      <trkpt lat="45.17022" lon="5.78536">
        <ele>452.2</ele>
        <time>2021-05-29T14:08:21Z</time>
      </trkpt>
      <trkpt lat="45.17024" lon="5.78534">
        <ele>452</ele>
        <time>2021-05-29T14:08:22Z</time>
      </trkpt>
      <trkpt lat="45.17026" lon="5.78532">
        <ele>452.2</ele>
        <time>2021-05-29T14:08:23Z</time>
      </trkpt>
      <trkpt lat="45.17028" lon="5.7853">
        <ele>451.8</ele>
        <time>2021-05-29T14:08:24Z</time>
      </trkpt>
      <trkpt lat="45.1703" lon="5.78528">
        <ele>451.8</ele>
        <time>2021-05-29T14:08:25Z</time>
      </trkpt>
      <trkpt lat="45.17036" lon="5.78521">
        <ele>451.6</ele>
        <time>2021-05-29T14:08:26Z</time>
      </trkpt>
      <trkpt lat="45.17041" lon="5.78514">
        <ele>451.6</ele>
        <time>2021-05-29T14:08:27Z</time>
      </trkpt>
      <trkpt lat="45.17042" lon="5.78512">
        <ele>451.4</ele>
        <time>2021-05-29T14:08:28Z</time>
      </trkpt>
      <trkpt lat="45.17045" lon="5.78507">
        <ele>451</ele>
        <time>2021-05-29T14:08:29Z</time>
      </trkpt>
      <trkpt lat="45.17045" lon="5.78507">
        <ele>451</ele>
        <time>2021-05-29T14:08:30Z</time>
      </trkpt>
      <trkpt lat="45.17045" lon="5.78507">
        <ele>451.2</ele>
        <time>2021-05-29T14:08:31Z</time>
      </trkpt>
      <trkpt lat="45.17047" lon="5.78504">
        <ele>451</ele>
        <time>2021-05-29T14:08:32Z</time>
      </trkpt>
      <trkpt lat="45.17049" lon="5.78501">
        <ele>451.2</ele>
        <time>2021-05-29T14:08:33Z</time>
      </trkpt>
      <trkpt lat="45.1705" lon="5.78498">
        <ele>451</ele>
        <time>2021-05-29T14:08:34Z</time>
      </trkpt>
      <trkpt lat="45.17052" lon="5.78495">
        <ele>450.8</ele>
        <time>2021-05-29T14:08:35Z</time>
      </trkpt>
      <trkpt lat="45.17053" lon="5.78493">
        <ele>451</ele>
        <time>2021-05-29T14:08:36Z</time>
      </trkpt>
      <trkpt lat="45.17055" lon="5.78491">
        <ele>450.8</ele>
        <time>2021-05-29T14:08:37Z</time>
      </trkpt>
      <trkpt lat="45.17057" lon="5.78489">
        <ele>451</ele>
        <time>2021-05-29T14:08:38Z</time>
      </trkpt>
      <trkpt lat="45.17058" lon="5.78487">
        <ele>451</ele>
        <time>2021-05-29T14:08:39Z</time>
      </trkpt>
      <trkpt lat="45.1706" lon="5.78484">
        <ele>451.4</ele>
        <time>2021-05-29T14:08:40Z</time>
      </trkpt>
      <trkpt lat="45.17062" lon="5.78482">
        <ele>451.4</ele>
        <time>2021-05-29T14:08:41Z</time>
      </trkpt>
      <trkpt lat="45.17064" lon="5.7848">
        <ele>451.8</ele>
        <time>2021-05-29T14:08:42Z</time>
      </trkpt>
      <trkpt lat="45.17066" lon="5.78478">
        <ele>451.6</ele>
        <time>2021-05-29T14:08:43Z</time>
      </trkpt>
      <trkpt lat="45.17068" lon="5.78476">
        <ele>451.8</ele>
        <time>2021-05-29T14:08:44Z</time>
      </trkpt>
      <trkpt lat="45.1707" lon="5.78475">
        <ele>451.8</ele>
        <time>2021-05-29T14:08:45Z</time>
      </trkpt>
      <trkpt lat="45.17072" lon="5.78473">
        <ele>452.2</ele>
        <time>2021-05-29T14:08:46Z</time>
      </trkpt>
      <trkpt lat="45.17074" lon="5.78471">
        <ele>452</ele>
        <time>2021-05-29T14:08:47Z</time>
      </trkpt>
      <trkpt lat="45.17076" lon="5.7847">
        <ele>452.2</ele>
        <time>2021-05-29T14:08:48Z</time>
      </trkpt>
      <trkpt lat="45.17078" lon="5.78468">
        <ele>452.2</ele>
        <time>2021-05-29T14:08:49Z</time>
      </trkpt>
      <trkpt lat="45.1708" lon="5.78466">
        <ele>452.4</ele>
        <time>2021-05-29T14:08:50Z</time>
      </trkpt>
      <trkpt lat="45.17082" lon="5.78464">
        <ele>452.6</ele>
        <time>2021-05-29T14:08:51Z</time>
      </trkpt>
      <trkpt lat="45.17085" lon="5.78461">
        <ele>452.6</ele>
        <time>2021-05-29T14:08:52Z</time>
      </trkpt>
      <trkpt lat="45.17087" lon="5.78459">
        <ele>452.6</ele>
        <time>2021-05-29T14:08:53Z</time>
      </trkpt>
      <trkpt lat="45.17089" lon="5.78457">
        <ele>452.6</ele>
        <time>2021-05-29T14:08:54Z</time>
      </trkpt>
      <trkpt lat="45.17091" lon="5.78455">
        <ele>452.4</ele>
        <time>2021-05-29T14:08:55Z</time>
      </trkpt>
      <trkpt lat="45.17093" lon="5.78452">
        <ele>452.6</ele>
        <time>2021-05-29T14:08:56Z</time>
      </trkpt>
      <trkpt lat="45.17095" lon="5.7845">
        <ele>452.4</ele>
        <time>2021-05-29T14:08:57Z</time>
      </trkpt>
      <trkpt lat="45.17097" lon="5.78449">
        <ele>452.8</ele>
        <time>2021-05-29T14:08:58Z</time>
      </trkpt>
      <trkpt lat="45.17098" lon="5.78448">
        <ele>452.6</ele>
        <time>2021-05-29T14:08:59Z</time>
      </trkpt>
      <trkpt lat="45.171" lon="5.78447">
        <ele>452.8</ele>
        <time>2021-05-29T14:09:00Z</time>
      </trkpt>
      <trkpt lat="45.17101" lon="5.78446">
        <ele>452.4</ele>
        <time>2021-05-29T14:09:01Z</time>
      </trkpt>
      <trkpt lat="45.17103" lon="5.78445">
        <ele>452.6</ele>
        <time>2021-05-29T14:09:02Z</time>
      </trkpt>
      <trkpt lat="45.17104" lon="5.78444">
        <ele>452.2</ele>
        <time>2021-05-29T14:09:03Z</time>
      </trkpt>
      <trkpt lat="45.17106" lon="5.78441">
        <ele>452.4</ele>
        <time>2021-05-29T14:09:04Z</time>
      </trkpt>
      <trkpt lat="45.17108" lon="5.78439">
        <ele>452.2</ele>
        <time>2021-05-29T14:09:05Z</time>
      </trkpt>
      <trkpt lat="45.1711" lon="5.78437">
        <ele>452</ele>
        <time>2021-05-29T14:09:06Z</time>
      </trkpt>
      <trkpt lat="45.17111" lon="5.78435">
        <ele>451.6</ele>
        <time>2021-05-29T14:09:07Z</time>
      </trkpt>
      <trkpt lat="45.17119" lon="5.78427">
        <ele>451.8</ele>
        <time>2021-05-29T14:09:08Z</time>
      </trkpt>
      <trkpt lat="45.17119" lon="5.78427">
        <ele>451.6</ele>
        <time>2021-05-29T14:09:09Z</time>
      </trkpt>
      <trkpt lat="45.17119" lon="5.78427">
        <ele>451.6</ele>
        <time>2021-05-29T14:09:10Z</time>
      </trkpt>
      <trkpt lat="45.17121" lon="5.78424">
        <ele>451.4</ele>
        <time>2021-05-29T14:09:11Z</time>
      </trkpt>
      <trkpt lat="45.17123" lon="5.78422">
        <ele>451.4</ele>
        <time>2021-05-29T14:09:12Z</time>
      </trkpt>
      <trkpt lat="45.17125" lon="5.78419">
        <ele>451</ele>
        <time>2021-05-29T14:09:13Z</time>
      </trkpt>
      <trkpt lat="45.17127" lon="5.78417">
        <ele>451.4</ele>
        <time>2021-05-29T14:09:14Z</time>
      </trkpt>
      <trkpt lat="45.17129" lon="5.78414">
        <ele>451.2</ele>
        <time>2021-05-29T14:09:15Z</time>
      </trkpt>
      <trkpt lat="45.1713" lon="5.78411">
        <ele>451.2</ele>
        <time>2021-05-29T14:09:16Z</time>
      </trkpt>
      <trkpt lat="45.17132" lon="5.78409">
        <ele>451</ele>
        <time>2021-05-29T14:09:17Z</time>
      </trkpt>
      <trkpt lat="45.17134" lon="5.78406">
        <ele>451</ele>
        <time>2021-05-29T14:09:18Z</time>
      </trkpt>
      <trkpt lat="45.17135" lon="5.78403">
        <ele>450.8</ele>
        <time>2021-05-29T14:09:19Z</time>
      </trkpt>
      <trkpt lat="45.17136" lon="5.784">
        <ele>450.6</ele>
        <time>2021-05-29T14:09:20Z</time>
      </trkpt>
      <trkpt lat="45.17137" lon="5.78397">
        <ele>450.4</ele>
        <time>2021-05-29T14:09:21Z</time>
      </trkpt>
      <trkpt lat="45.17138" lon="5.78394">
        <ele>450.2</ele>
        <time>2021-05-29T14:09:22Z</time>
      </trkpt>
      <trkpt lat="45.17139" lon="5.78391">
        <ele>450.2</ele>
        <time>2021-05-29T14:09:23Z</time>
      </trkpt>
      <trkpt lat="45.1714" lon="5.78388">
        <ele>449.8</ele>
        <time>2021-05-29T14:09:24Z</time>
      </trkpt>
      <trkpt lat="45.17141" lon="5.78385">
        <ele>449.4</ele>
        <time>2021-05-29T14:09:25Z</time>
      </trkpt>
      <trkpt lat="45.17142" lon="5.78382">
        <ele>449.2</ele>
        <time>2021-05-29T14:09:26Z</time>
      </trkpt>
      <trkpt lat="45.17143" lon="5.78378">
        <ele>448.8</ele>
        <time>2021-05-29T14:09:27Z</time>
      </trkpt>
      <trkpt lat="45.17144" lon="5.78375">
        <ele>448.6</ele>
        <time>2021-05-29T14:09:28Z</time>
      </trkpt>
      <trkpt lat="45.17144" lon="5.78372">
        <ele>448.8</ele>
        <time>2021-05-29T14:09:29Z</time>
      </trkpt>
      <trkpt lat="45.17145" lon="5.78368">
        <ele>448.4</ele>
        <time>2021-05-29T14:09:30Z</time>
      </trkpt>
      <trkpt lat="45.17147" lon="5.78366">
        <ele>448.4</ele>
        <time>2021-05-29T14:09:31Z</time>
      </trkpt>
      <trkpt lat="45.17149" lon="5.78364">
        <ele>448.2</ele>
        <time>2021-05-29T14:09:32Z</time>
      </trkpt>
      <trkpt lat="45.1715" lon="5.78361">
        <ele>448.2</ele>
        <time>2021-05-29T14:09:33Z</time>
      </trkpt>
      <trkpt lat="45.17152" lon="5.78359">
        <ele>447.8</ele>
        <time>2021-05-29T14:09:34Z</time>
      </trkpt>
      <trkpt lat="45.17154" lon="5.78357">
        <ele>447.6</ele>
        <time>2021-05-29T14:09:35Z</time>
      </trkpt>
      <trkpt lat="45.17156" lon="5.78355">
        <ele>447</ele>
        <time>2021-05-29T14:09:36Z</time>
      </trkpt>
      <trkpt lat="45.17158" lon="5.78353">
        <ele>446.8</ele>
        <time>2021-05-29T14:09:37Z</time>
      </trkpt>
      <trkpt lat="45.1716" lon="5.78352">
        <ele>446.2</ele>
        <time>2021-05-29T14:09:38Z</time>
      </trkpt>
      <trkpt lat="45.17162" lon="5.7835">
        <ele>445.4</ele>
        <time>2021-05-29T14:09:39Z</time>
      </trkpt>
      <trkpt lat="45.17164" lon="5.78347">
        <ele>445</ele>
        <time>2021-05-29T14:09:40Z</time>
      </trkpt>
      <trkpt lat="45.17165" lon="5.78345">
        <ele>444.4</ele>
        <time>2021-05-29T14:09:41Z</time>
      </trkpt>
      <trkpt lat="45.17167" lon="5.78343">
        <ele>444.2</ele>
        <time>2021-05-29T14:09:42Z</time>
      </trkpt>
      <trkpt lat="45.17168" lon="5.78341">
        <ele>443.6</ele>
        <time>2021-05-29T14:09:43Z</time>
      </trkpt>
      <trkpt lat="45.1717" lon="5.7834">
        <ele>443.4</ele>
        <time>2021-05-29T14:09:44Z</time>
      </trkpt>
      <trkpt lat="45.17172" lon="5.78339">
        <ele>443</ele>
        <time>2021-05-29T14:09:45Z</time>
      </trkpt>
      <trkpt lat="45.17173" lon="5.78338">
        <ele>442.4</ele>
        <time>2021-05-29T14:09:46Z</time>
      </trkpt>
      <trkpt lat="45.17175" lon="5.78337">
        <ele>441.8</ele>
        <time>2021-05-29T14:09:47Z</time>
      </trkpt>
      <trkpt lat="45.17177" lon="5.78336">
        <ele>441.2</ele>
        <time>2021-05-29T14:09:48Z</time>
      </trkpt>
      <trkpt lat="45.17179" lon="5.78335">
        <ele>440.4</ele>
        <time>2021-05-29T14:09:49Z</time>
      </trkpt>
      <trkpt lat="45.1718" lon="5.78334">
        <ele>439.8</ele>
        <time>2021-05-29T14:09:50Z</time>
      </trkpt>
      <trkpt lat="45.17182" lon="5.78331">
        <ele>439.2</ele>
        <time>2021-05-29T14:09:51Z</time>
      </trkpt>
      <trkpt lat="45.17184" lon="5.78328">
        <ele>438.6</ele>
        <time>2021-05-29T14:09:52Z</time>
      </trkpt>
      <trkpt lat="45.17185" lon="5.78326">
        <ele>438.4</ele>
        <time>2021-05-29T14:09:53Z</time>
      </trkpt>
      <trkpt lat="45.17187" lon="5.78323">
        <ele>438</ele>
        <time>2021-05-29T14:09:54Z</time>
      </trkpt>
      <trkpt lat="45.17188" lon="5.7832">
        <ele>437.8</ele>
        <time>2021-05-29T14:09:55Z</time>
      </trkpt>
      <trkpt lat="45.17189" lon="5.78317">
        <ele>437.4</ele>
        <time>2021-05-29T14:09:56Z</time>
      </trkpt>
      <trkpt lat="45.1719" lon="5.78314">
        <ele>437.2</ele>
        <time>2021-05-29T14:09:57Z</time>
      </trkpt>
      <trkpt lat="45.17193" lon="5.78305">
        <ele>436.8</ele>
        <time>2021-05-29T14:09:58Z</time>
      </trkpt>
      <trkpt lat="45.17193" lon="5.78301">
        <ele>436</ele>
        <time>2021-05-29T14:10:00Z</time>
      </trkpt>
      <trkpt lat="45.17192" lon="5.78297">
        <ele>435.8</ele>
        <time>2021-05-29T14:10:01Z</time>
      </trkpt>
      <trkpt lat="45.17192" lon="5.78289">
        <ele>435.6</ele>
        <time>2021-05-29T14:10:02Z</time>
      </trkpt>
      <trkpt lat="45.17192" lon="5.78289">
        <ele>435.2</ele>
        <time>2021-05-29T14:10:03Z</time>
      </trkpt>
      <trkpt lat="45.17191" lon="5.78285">
        <ele>434.8</ele>
        <time>2021-05-29T14:10:04Z</time>
      </trkpt>
      <trkpt lat="45.17191" lon="5.78281">
        <ele>434.6</ele>
        <time>2021-05-29T14:10:05Z</time>
      </trkpt>
      <trkpt lat="45.17191" lon="5.78278">
        <ele>434.4</ele>
        <time>2021-05-29T14:10:06Z</time>
      </trkpt>
      <trkpt lat="45.1719" lon="5.78274">
        <ele>434.2</ele>
        <time>2021-05-29T14:10:07Z</time>
      </trkpt>
      <trkpt lat="45.17192" lon="5.78272">
        <ele>434</ele>
        <time>2021-05-29T14:10:08Z</time>
      </trkpt>
      <trkpt lat="45.17193" lon="5.7827">
        <ele>434</ele>
        <time>2021-05-29T14:10:09Z</time>
      </trkpt>
      <trkpt lat="45.17195" lon="5.78268">
        <ele>433.8</ele>
        <time>2021-05-29T14:10:10Z</time>
      </trkpt>
      <trkpt lat="45.17197" lon="5.78265">
        <ele>433.8</ele>
        <time>2021-05-29T14:10:11Z</time>
      </trkpt>
      <trkpt lat="45.17198" lon="5.78263">
        <ele>433.8</ele>
        <time>2021-05-29T14:10:12Z</time>
      </trkpt>
      <trkpt lat="45.172" lon="5.78262">
        <ele>434</ele>
        <time>2021-05-29T14:10:13Z</time>
      </trkpt>
      <trkpt lat="45.17202" lon="5.78261">
        <ele>433.8</ele>
        <time>2021-05-29T14:10:14Z</time>
      </trkpt>
      <trkpt lat="45.17205" lon="5.7826">
        <ele>433.8</ele>
        <time>2021-05-29T14:10:15Z</time>
      </trkpt>
      <trkpt lat="45.17207" lon="5.78258">
        <ele>433.8</ele>
        <time>2021-05-29T14:10:16Z</time>
      </trkpt>
      <trkpt lat="45.17209" lon="5.78258">
        <ele>433.8</ele>
        <time>2021-05-29T14:10:17Z</time>
      </trkpt>
      <trkpt lat="45.17212" lon="5.78257">
        <ele>433.8</ele>
        <time>2021-05-29T14:10:18Z</time>
      </trkpt>
      <trkpt lat="45.17215" lon="5.78256">
        <ele>434</ele>
        <time>2021-05-29T14:10:19Z</time>
      </trkpt>
      <trkpt lat="45.17217" lon="5.78256">
        <ele>434</ele>
        <time>2021-05-29T14:10:20Z</time>
      </trkpt>
      <trkpt lat="45.1722" lon="5.78255">
        <ele>434.2</ele>
        <time>2021-05-29T14:10:21Z</time>
      </trkpt>
      <trkpt lat="45.17224" lon="5.78254">
        <ele>434</ele>
        <time>2021-05-29T14:10:22Z</time>
      </trkpt>
      <trkpt lat="45.17228" lon="5.78252">
        <ele>434</ele>
        <time>2021-05-29T14:10:23Z</time>
      </trkpt>
      <trkpt lat="45.1723" lon="5.78251">
        <ele>433.8</ele>
        <time>2021-05-29T14:10:24Z</time>
      </trkpt>
      <trkpt lat="45.17231" lon="5.78249">
        <ele>434</ele>
        <time>2021-05-29T14:10:25Z</time>
      </trkpt>
      <trkpt lat="45.17233" lon="5.78249">
        <ele>433.6</ele>
        <time>2021-05-29T14:10:26Z</time>
      </trkpt>
      <trkpt lat="45.17234" lon="5.78248">
        <ele>433.8</ele>
        <time>2021-05-29T14:10:27Z</time>
      </trkpt>
      <trkpt lat="45.17235" lon="5.78247">
        <ele>433.8</ele>
        <time>2021-05-29T14:10:28Z</time>
      </trkpt>
      <trkpt lat="45.17238" lon="5.78245">
        <ele>433.6</ele>
        <time>2021-05-29T14:10:29Z</time>
      </trkpt>
      <trkpt lat="45.17239" lon="5.78244">
        <ele>433.8</ele>
        <time>2021-05-29T14:10:30Z</time>
      </trkpt>
      <trkpt lat="45.1724" lon="5.78243">
        <ele>433.8</ele>
        <time>2021-05-29T14:10:31Z</time>
      </trkpt>
      <trkpt lat="45.17242" lon="5.78242">
        <ele>434</ele>
        <time>2021-05-29T14:10:32Z</time>
      </trkpt>
      <trkpt lat="45.17244" lon="5.7824">
        <ele>434.2</ele>
        <time>2021-05-29T14:10:33Z</time>
      </trkpt>
      <trkpt lat="45.17245" lon="5.78239">
        <ele>434.6</ele>
        <time>2021-05-29T14:10:34Z</time>
      </trkpt>
      <trkpt lat="45.17247" lon="5.78237">
        <ele>434.8</ele>
        <time>2021-05-29T14:10:35Z</time>
      </trkpt>
      <trkpt lat="45.17248" lon="5.78234">
        <ele>435.2</ele>
        <time>2021-05-29T14:10:36Z</time>
      </trkpt>
      <trkpt lat="45.17249" lon="5.78232">
        <ele>435.4</ele>
        <time>2021-05-29T14:10:37Z</time>
      </trkpt>
      <trkpt lat="45.1725" lon="5.78231">
        <ele>435.8</ele>
        <time>2021-05-29T14:10:38Z</time>
      </trkpt>
      <trkpt lat="45.17251" lon="5.7823">
        <ele>436</ele>
        <time>2021-05-29T14:10:39Z</time>
      </trkpt>
      <trkpt lat="45.17252" lon="5.78228">
        <ele>436.4</ele>
        <time>2021-05-29T14:10:40Z</time>
      </trkpt>
      <trkpt lat="45.17253" lon="5.78227">
        <ele>436.4</ele>
        <time>2021-05-29T14:10:41Z</time>
      </trkpt>
      <trkpt lat="45.17254" lon="5.78226">
        <ele>436.8</ele>
        <time>2021-05-29T14:10:42Z</time>
      </trkpt>
      <trkpt lat="45.17254" lon="5.78226">
        <ele>436.8</ele>
        <time>2021-05-29T14:10:44Z</time>
      </trkpt>
      <trkpt lat="45.17255" lon="5.78224">
        <ele>436.8</ele>
        <time>2021-05-29T14:10:45Z</time>
      </trkpt>
      <trkpt lat="45.17257" lon="5.78223">
        <ele>437</ele>
        <time>2021-05-29T14:10:46Z</time>
      </trkpt>
      <trkpt lat="45.17259" lon="5.78221">
        <ele>436.8</ele>
        <time>2021-05-29T14:10:47Z</time>
      </trkpt>
      <trkpt lat="45.1726" lon="5.7822">
        <ele>437</ele>
        <time>2021-05-29T14:10:48Z</time>
      </trkpt>
      <trkpt lat="45.17262" lon="5.78218">
        <ele>437</ele>
        <time>2021-05-29T14:10:49Z</time>
      </trkpt>
      <trkpt lat="45.17267" lon="5.78213">
        <ele>437.4</ele>
        <time>2021-05-29T14:10:50Z</time>
      </trkpt>
      <trkpt lat="45.17267" lon="5.78213">
        <ele>437.4</ele>
        <time>2021-05-29T14:10:51Z</time>
      </trkpt>
      <trkpt lat="45.17267" lon="5.78213">
        <ele>437.6</ele>
        <time>2021-05-29T14:10:52Z</time>
      </trkpt>
      <trkpt lat="45.17268" lon="5.78212">
        <ele>437.8</ele>
        <time>2021-05-29T14:10:53Z</time>
      </trkpt>
      <trkpt lat="45.1727" lon="5.7821">
        <ele>437.8</ele>
        <time>2021-05-29T14:10:54Z</time>
      </trkpt>
      <trkpt lat="45.17271" lon="5.78208">
        <ele>438.2</ele>
        <time>2021-05-29T14:10:55Z</time>
      </trkpt>
      <trkpt lat="45.17273" lon="5.78207">
        <ele>438.6</ele>
        <time>2021-05-29T14:10:56Z</time>
      </trkpt>
      <trkpt lat="45.17274" lon="5.78205">
        <ele>439.2</ele>
        <time>2021-05-29T14:10:57Z</time>
      </trkpt>
      <trkpt lat="45.17276" lon="5.78204">
        <ele>439.2</ele>
        <time>2021-05-29T14:10:58Z</time>
      </trkpt>
      <trkpt lat="45.17278" lon="5.78203">
        <ele>439.6</ele>
        <time>2021-05-29T14:10:59Z</time>
      </trkpt>
      <trkpt lat="45.1728" lon="5.78202">
        <ele>439.8</ele>
        <time>2021-05-29T14:11:00Z</time>
      </trkpt>
      <trkpt lat="45.17282" lon="5.78201">
        <ele>440</ele>
        <time>2021-05-29T14:11:01Z</time>
      </trkpt>
      <trkpt lat="45.17284" lon="5.782">
        <ele>440.2</ele>
        <time>2021-05-29T14:11:02Z</time>
      </trkpt>
      <trkpt lat="45.17286" lon="5.78199">
        <ele>440.4</ele>
        <time>2021-05-29T14:11:03Z</time>
      </trkpt>
      <trkpt lat="45.17287" lon="5.78198">
        <ele>440.6</ele>
        <time>2021-05-29T14:11:04Z</time>
      </trkpt>
      <trkpt lat="45.1729" lon="5.78197">
        <ele>440.8</ele>
        <time>2021-05-29T14:11:05Z</time>
      </trkpt>
      <trkpt lat="45.17292" lon="5.78196">
        <ele>441</ele>
        <time>2021-05-29T14:11:06Z</time>
      </trkpt>
      <trkpt lat="45.17294" lon="5.78194">
        <ele>441.2</ele>
        <time>2021-05-29T14:11:07Z</time>
      </trkpt>
      <trkpt lat="45.17297" lon="5.78193">
        <ele>441.2</ele>
        <time>2021-05-29T14:11:08Z</time>
      </trkpt>
      <trkpt lat="45.17299" lon="5.78191">
        <ele>441.4</ele>
        <time>2021-05-29T14:11:09Z</time>
      </trkpt>
      <trkpt lat="45.17301" lon="5.78189">
        <ele>441.4</ele>
        <time>2021-05-29T14:11:10Z</time>
      </trkpt>
      <trkpt lat="45.17304" lon="5.78187">
        <ele>441.4</ele>
        <time>2021-05-29T14:11:11Z</time>
      </trkpt>
      <trkpt lat="45.17306" lon="5.78186">
        <ele>441.6</ele>
        <time>2021-05-29T14:11:12Z</time>
      </trkpt>
      <trkpt lat="45.17307" lon="5.78184">
        <ele>441.8</ele>
        <time>2021-05-29T14:11:13Z</time>
      </trkpt>
      <trkpt lat="45.17309" lon="5.78183">
        <ele>442</ele>
        <time>2021-05-29T14:11:14Z</time>
      </trkpt>
      <trkpt lat="45.1731" lon="5.78182">
        <ele>442.2</ele>
        <time>2021-05-29T14:11:15Z</time>
      </trkpt>
      <trkpt lat="45.17312" lon="5.7818">
        <ele>442.2</ele>
        <time>2021-05-29T14:11:16Z</time>
      </trkpt>
      <trkpt lat="45.17313" lon="5.78179">
        <ele>442.4</ele>
        <time>2021-05-29T14:11:17Z</time>
      </trkpt>
      <trkpt lat="45.17315" lon="5.78177">
        <ele>442.6</ele>
        <time>2021-05-29T14:11:18Z</time>
      </trkpt>
      <trkpt lat="45.17317" lon="5.78176">
        <ele>442.8</ele>
        <time>2021-05-29T14:11:19Z</time>
      </trkpt>
      <trkpt lat="45.17319" lon="5.78175">
        <ele>442.8</ele>
        <time>2021-05-29T14:11:20Z</time>
      </trkpt>
      <trkpt lat="45.17321" lon="5.78173">
        <ele>443</ele>
        <time>2021-05-29T14:11:21Z</time>
      </trkpt>
      <trkpt lat="45.17323" lon="5.78172">
        <ele>443.6</ele>
        <time>2021-05-29T14:11:22Z</time>
      </trkpt>
      <trkpt lat="45.17326" lon="5.78169">
        <ele>443.8</ele>
        <time>2021-05-29T14:11:23Z</time>
      </trkpt>
      <trkpt lat="45.1733" lon="5.78165">
        <ele>444.4</ele>
        <time>2021-05-29T14:11:24Z</time>
      </trkpt>
      <trkpt lat="45.17333" lon="5.78162">
        <ele>444.4</ele>
        <time>2021-05-29T14:11:25Z</time>
      </trkpt>
      <trkpt lat="45.17336" lon="5.78159">
        <ele>445</ele>
        <time>2021-05-29T14:11:26Z</time>
      </trkpt>
      <trkpt lat="45.17343" lon="5.78154">
        <ele>445.2</ele>
        <time>2021-05-29T14:11:27Z</time>
      </trkpt>
      <trkpt lat="45.17345" lon="5.78152">
        <ele>445.4</ele>
        <time>2021-05-29T14:11:28Z</time>
      </trkpt>
      <trkpt lat="45.17347" lon="5.7815">
        <ele>445.6</ele>
        <time>2021-05-29T14:11:29Z</time>
      </trkpt>
      <trkpt lat="45.17347" lon="5.7815">
        <ele>446</ele>
        <time>2021-05-29T14:11:30Z</time>
      </trkpt>
      <trkpt lat="45.17347" lon="5.7815">
        <ele>446.2</ele>
        <time>2021-05-29T14:11:31Z</time>
      </trkpt>
      <trkpt lat="45.17349" lon="5.78148">
        <ele>446.6</ele>
        <time>2021-05-29T14:11:32Z</time>
      </trkpt>
      <trkpt lat="45.17351" lon="5.78145">
        <ele>446.6</ele>
        <time>2021-05-29T14:11:33Z</time>
      </trkpt>
      <trkpt lat="45.17353" lon="5.78143">
        <ele>446.8</ele>
        <time>2021-05-29T14:11:34Z</time>
      </trkpt>
      <trkpt lat="45.17355" lon="5.78141">
        <ele>446.8</ele>
        <time>2021-05-29T14:11:35Z</time>
      </trkpt>
      <trkpt lat="45.17358" lon="5.78137">
        <ele>447</ele>
        <time>2021-05-29T14:11:36Z</time>
      </trkpt>
      <trkpt lat="45.17361" lon="5.78133">
        <ele>447</ele>
        <time>2021-05-29T14:11:37Z</time>
      </trkpt>
      <trkpt lat="45.17363" lon="5.78129">
        <ele>447.2</ele>
        <time>2021-05-29T14:11:38Z</time>
      </trkpt>
      <trkpt lat="45.17366" lon="5.78125">
        <ele>446.8</ele>
        <time>2021-05-29T14:11:39Z</time>
      </trkpt>
      <trkpt lat="45.1737" lon="5.7812">
        <ele>446.8</ele>
        <time>2021-05-29T14:11:40Z</time>
      </trkpt>
      <trkpt lat="45.17371" lon="5.78118">
        <ele>447</ele>
        <time>2021-05-29T14:11:41Z</time>
      </trkpt>
      <trkpt lat="45.17372" lon="5.78116">
        <ele>446.8</ele>
        <time>2021-05-29T14:11:42Z</time>
      </trkpt>
      <trkpt lat="45.17373" lon="5.78115">
        <ele>446.4</ele>
        <time>2021-05-29T14:11:43Z</time>
      </trkpt>
      <trkpt lat="45.17373" lon="5.78115">
        <ele>446.2</ele>
        <time>2021-05-29T14:11:44Z</time>
      </trkpt>
      <trkpt lat="45.17373" lon="5.78115">
        <ele>446</ele>
        <time>2021-05-29T14:11:45Z</time>
      </trkpt>
      <trkpt lat="45.17375" lon="5.78111">
        <ele>445.8</ele>
        <time>2021-05-29T14:11:46Z</time>
      </trkpt>
      <trkpt lat="45.17376" lon="5.78107">
        <ele>445.8</ele>
        <time>2021-05-29T14:11:47Z</time>
      </trkpt>
      <trkpt lat="45.17378" lon="5.78104">
        <ele>445.2</ele>
        <time>2021-05-29T14:11:48Z</time>
      </trkpt>
      <trkpt lat="45.1738" lon="5.781">
        <ele>445.4</ele>
        <time>2021-05-29T14:11:49Z</time>
      </trkpt>
      <trkpt lat="45.17382" lon="5.78097">
        <ele>445</ele>
        <time>2021-05-29T14:11:50Z</time>
      </trkpt>
      <trkpt lat="45.17386" lon="5.78093">
        <ele>445.4</ele>
        <time>2021-05-29T14:11:51Z</time>
      </trkpt>
      <trkpt lat="45.17386" lon="5.78093">
        <ele>445</ele>
        <time>2021-05-29T14:11:52Z</time>
      </trkpt>
      <trkpt lat="45.17388" lon="5.78091">
        <ele>445</ele>
        <time>2021-05-29T14:11:53Z</time>
      </trkpt>
      <trkpt lat="45.1739" lon="5.78093">
        <ele>445</ele>
        <time>2021-05-29T14:11:54Z</time>
      </trkpt>
      <trkpt lat="45.17391" lon="5.78095">
        <ele>445.4</ele>
        <time>2021-05-29T14:11:55Z</time>
      </trkpt>
      <trkpt lat="45.17392" lon="5.78098">
        <ele>445.2</ele>
        <time>2021-05-29T14:11:56Z</time>
      </trkpt>
      <trkpt lat="45.17393" lon="5.781">
        <ele>445</ele>
        <time>2021-05-29T14:11:57Z</time>
      </trkpt>
      <trkpt lat="45.17394" lon="5.78102">
        <ele>444.8</ele>
        <time>2021-05-29T14:11:58Z</time>
      </trkpt>
      <trkpt lat="45.17394" lon="5.78104">
        <ele>444.2</ele>
        <time>2021-05-29T14:11:59Z</time>
      </trkpt>
      <trkpt lat="45.17395" lon="5.78107">
        <ele>444</ele>
        <time>2021-05-29T14:12:00Z</time>
      </trkpt>
      <trkpt lat="45.17396" lon="5.78109">
        <ele>443.6</ele>
        <time>2021-05-29T14:12:01Z</time>
      </trkpt>
      <trkpt lat="45.17397" lon="5.78111">
        <ele>443.4</ele>
        <time>2021-05-29T14:12:02Z</time>
      </trkpt>
      <trkpt lat="45.17398" lon="5.78113">
        <ele>443</ele>
        <time>2021-05-29T14:12:03Z</time>
      </trkpt>
      <trkpt lat="45.17399" lon="5.78116">
        <ele>443</ele>
        <time>2021-05-29T14:12:04Z</time>
      </trkpt>
      <trkpt lat="45.174" lon="5.7812">
        <ele>442.4</ele>
        <time>2021-05-29T14:12:05Z</time>
      </trkpt>
      <trkpt lat="45.174" lon="5.78122">
        <ele>442.2</ele>
        <time>2021-05-29T14:12:06Z</time>
      </trkpt>
      <trkpt lat="45.174" lon="5.78124">
        <ele>441.6</ele>
        <time>2021-05-29T14:12:07Z</time>
      </trkpt>
      <trkpt lat="45.17401" lon="5.78127">
        <ele>441.2</ele>
        <time>2021-05-29T14:12:08Z</time>
      </trkpt>
      <trkpt lat="45.17401" lon="5.78129">
        <ele>440.8</ele>
        <time>2021-05-29T14:12:09Z</time>
      </trkpt>
      <trkpt lat="45.17402" lon="5.78135">
        <ele>440.4</ele>
        <time>2021-05-29T14:12:10Z</time>
      </trkpt>
      <trkpt lat="45.17403" lon="5.78141">
        <ele>440.4</ele>
        <time>2021-05-29T14:12:11Z</time>
      </trkpt>
      <trkpt lat="45.17404" lon="5.78144">
        <ele>440</ele>
        <time>2021-05-29T14:12:12Z</time>
      </trkpt>
      <trkpt lat="45.17405" lon="5.78147">
        <ele>440</ele>
        <time>2021-05-29T14:12:13Z</time>
      </trkpt>
      <trkpt lat="45.17406" lon="5.78149">
        <ele>439.6</ele>
        <time>2021-05-29T14:12:14Z</time>
      </trkpt>
      <trkpt lat="45.17406" lon="5.78152">
        <ele>439.6</ele>
        <time>2021-05-29T14:12:15Z</time>
      </trkpt>
      <trkpt lat="45.17407" lon="5.78154">
        <ele>439.2</ele>
        <time>2021-05-29T14:12:16Z</time>
      </trkpt>
      <trkpt lat="45.17408" lon="5.78156">
        <ele>439</ele>
        <time>2021-05-29T14:12:17Z</time>
      </trkpt>
      <trkpt lat="45.17409" lon="5.78157">
        <ele>438.6</ele>
        <time>2021-05-29T14:12:18Z</time>
      </trkpt>
      <trkpt lat="45.17411" lon="5.78163">
        <ele>438</ele>
        <time>2021-05-29T14:12:19Z</time>
      </trkpt>
      <trkpt lat="45.17413" lon="5.78168">
        <ele>437.4</ele>
        <time>2021-05-29T14:12:20Z</time>
      </trkpt>
      <trkpt lat="45.17415" lon="5.78173">
        <ele>437</ele>
        <time>2021-05-29T14:12:21Z</time>
      </trkpt>
      <trkpt lat="45.17417" lon="5.78176">
        <ele>437.2</ele>
        <time>2021-05-29T14:12:22Z</time>
      </trkpt>
      <trkpt lat="45.17419" lon="5.78179">
        <ele>436.6</ele>
        <time>2021-05-29T14:12:23Z</time>
      </trkpt>
      <trkpt lat="45.1742" lon="5.78182">
        <ele>436.6</ele>
        <time>2021-05-29T14:12:24Z</time>
      </trkpt>
      <trkpt lat="45.17422" lon="5.78185">
        <ele>436.4</ele>
        <time>2021-05-29T14:12:25Z</time>
      </trkpt>
      <trkpt lat="45.17424" lon="5.78188">
        <ele>436</ele>
        <time>2021-05-29T14:12:26Z</time>
      </trkpt>
      <trkpt lat="45.17426" lon="5.78191">
        <ele>435.6</ele>
        <time>2021-05-29T14:12:27Z</time>
      </trkpt>
      <trkpt lat="45.17429" lon="5.78195">
        <ele>435.4</ele>
        <time>2021-05-29T14:12:28Z</time>
      </trkpt>
      <trkpt lat="45.17429" lon="5.78197">
        <ele>434.6</ele>
        <time>2021-05-29T14:12:29Z</time>
      </trkpt>
      <trkpt lat="45.1743" lon="5.78199">
        <ele>434</ele>
        <time>2021-05-29T14:12:30Z</time>
      </trkpt>
      <trkpt lat="45.1743" lon="5.78201">
        <ele>434</ele>
        <time>2021-05-29T14:12:31Z</time>
      </trkpt>
      <trkpt lat="45.1743" lon="5.78201">
        <ele>433.6</ele>
        <time>2021-05-29T14:12:32Z</time>
      </trkpt>
      <trkpt lat="45.1743" lon="5.78201">
        <ele>433.8</ele>
        <time>2021-05-29T14:12:33Z</time>
      </trkpt>
      <trkpt lat="45.17432" lon="5.78204">
        <ele>433.6</ele>
        <time>2021-05-29T14:12:34Z</time>
      </trkpt>
      <trkpt lat="45.17433" lon="5.78207">
        <ele>433.4</ele>
        <time>2021-05-29T14:12:35Z</time>
      </trkpt>
      <trkpt lat="45.17435" lon="5.78211">
        <ele>433.2</ele>
        <time>2021-05-29T14:12:36Z</time>
      </trkpt>
      <trkpt lat="45.17436" lon="5.78214">
        <ele>432.8</ele>
        <time>2021-05-29T14:12:37Z</time>
      </trkpt>
      <trkpt lat="45.17437" lon="5.78217">
        <ele>432.4</ele>
        <time>2021-05-29T14:12:38Z</time>
      </trkpt>
      <trkpt lat="45.17438" lon="5.7822">
        <ele>432</ele>
        <time>2021-05-29T14:12:39Z</time>
      </trkpt>
      <trkpt lat="45.1744" lon="5.78222">
        <ele>431.6</ele>
        <time>2021-05-29T14:12:40Z</time>
      </trkpt>
      <trkpt lat="45.17442" lon="5.78225">
        <ele>431.2</ele>
        <time>2021-05-29T14:12:41Z</time>
      </trkpt>
      <trkpt lat="45.17442" lon="5.78223">
        <ele>431.2</ele>
        <time>2021-05-29T14:12:42Z</time>
      </trkpt>
      <trkpt lat="45.17442" lon="5.7822">
        <ele>430.8</ele>
        <time>2021-05-29T14:12:43Z</time>
      </trkpt>
      <trkpt lat="45.17442" lon="5.78218">
        <ele>431</ele>
        <time>2021-05-29T14:12:44Z</time>
      </trkpt>
      <trkpt lat="45.17442" lon="5.78216">
        <ele>430.6</ele>
        <time>2021-05-29T14:12:45Z</time>
      </trkpt>
      <trkpt lat="45.17442" lon="5.78214">
        <ele>430.4</ele>
        <time>2021-05-29T14:12:46Z</time>
      </trkpt>
      <trkpt lat="45.17442" lon="5.78211">
        <ele>430</ele>
        <time>2021-05-29T14:12:47Z</time>
      </trkpt>
      <trkpt lat="45.17441" lon="5.78209">
        <ele>429.8</ele>
        <time>2021-05-29T14:12:48Z</time>
      </trkpt>
      <trkpt lat="45.17441" lon="5.78207">
        <ele>429.4</ele>
        <time>2021-05-29T14:12:49Z</time>
      </trkpt>
      <trkpt lat="45.17441" lon="5.78204">
        <ele>429</ele>
        <time>2021-05-29T14:12:50Z</time>
      </trkpt>
      <trkpt lat="45.17441" lon="5.78202">
        <ele>428.6</ele>
        <time>2021-05-29T14:12:51Z</time>
      </trkpt>
      <trkpt lat="45.17441" lon="5.78198">
        <ele>428.2</ele>
        <time>2021-05-29T14:12:52Z</time>
      </trkpt>
      <trkpt lat="45.17441" lon="5.78194">
        <ele>427.4</ele>
        <time>2021-05-29T14:12:53Z</time>
      </trkpt>
      <trkpt lat="45.17441" lon="5.78194">
        <ele>427</ele>
        <time>2021-05-29T14:12:54Z</time>
      </trkpt>
      <trkpt lat="45.17441" lon="5.78194">
        <ele>427.2</ele>
        <time>2021-05-29T14:12:55Z</time>
      </trkpt>
      <trkpt lat="45.17441" lon="5.78194">
        <ele>427</ele>
        <time>2021-05-29T14:12:56Z</time>
      </trkpt>
      <trkpt lat="45.1744" lon="5.7819">
        <ele>426.8</ele>
        <time>2021-05-29T14:12:57Z</time>
      </trkpt>
      <trkpt lat="45.1744" lon="5.78187">
        <ele>426.4</ele>
        <time>2021-05-29T14:12:58Z</time>
      </trkpt>
      <trkpt lat="45.1744" lon="5.78183">
        <ele>426.4</ele>
        <time>2021-05-29T14:12:59Z</time>
      </trkpt>
      <trkpt lat="45.1744" lon="5.7818">
        <ele>426</ele>
        <time>2021-05-29T14:13:00Z</time>
      </trkpt>
      <trkpt lat="45.1744" lon="5.78177">
        <ele>425.8</ele>
        <time>2021-05-29T14:13:01Z</time>
      </trkpt>
      <trkpt lat="45.17439" lon="5.78174">
        <ele>425.2</ele>
        <time>2021-05-29T14:13:02Z</time>
      </trkpt>
      <trkpt lat="45.17439" lon="5.7817">
        <ele>424.8</ele>
        <time>2021-05-29T14:13:03Z</time>
      </trkpt>
      <trkpt lat="45.17438" lon="5.78167">
        <ele>424.6</ele>
        <time>2021-05-29T14:13:04Z</time>
      </trkpt>
      <trkpt lat="45.17438" lon="5.78164">
        <ele>424.6</ele>
        <time>2021-05-29T14:13:05Z</time>
      </trkpt>
      <trkpt lat="45.17437" lon="5.78161">
        <ele>424.4</ele>
        <time>2021-05-29T14:13:06Z</time>
      </trkpt>
      <trkpt lat="45.17439" lon="5.78161">
        <ele>424.2</ele>
        <time>2021-05-29T14:13:07Z</time>
      </trkpt>
      <trkpt lat="45.1744" lon="5.78162">
        <ele>423.8</ele>
        <time>2021-05-29T14:13:08Z</time>
      </trkpt>
      <trkpt lat="45.17441" lon="5.78162">
        <ele>423.4</ele>
        <time>2021-05-29T14:13:09Z</time>
      </trkpt>
      <trkpt lat="45.17443" lon="5.78162">
        <ele>423</ele>
        <time>2021-05-29T14:13:10Z</time>
      </trkpt>
      <trkpt lat="45.17444" lon="5.78163">
        <ele>422.6</ele>
        <time>2021-05-29T14:13:11Z</time>
      </trkpt>
      <trkpt lat="45.17446" lon="5.78163">
        <ele>422</ele>
        <time>2021-05-29T14:13:12Z</time>
      </trkpt>
      <trkpt lat="45.17447" lon="5.78163">
        <ele>422</ele>
        <time>2021-05-29T14:13:13Z</time>
      </trkpt>
      <trkpt lat="45.17449" lon="5.78165">
        <ele>421.8</ele>
        <time>2021-05-29T14:13:14Z</time>
      </trkpt>
      <trkpt lat="45.17452" lon="5.78168">
        <ele>422.2</ele>
        <time>2021-05-29T14:13:15Z</time>
      </trkpt>
      <trkpt lat="45.17454" lon="5.7817">
        <ele>422</ele>
        <time>2021-05-29T14:13:16Z</time>
      </trkpt>
      <trkpt lat="45.17456" lon="5.78172">
        <ele>421.8</ele>
        <time>2021-05-29T14:13:17Z</time>
      </trkpt>
      <trkpt lat="45.17457" lon="5.78175">
        <ele>421.4</ele>
        <time>2021-05-29T14:13:18Z</time>
      </trkpt>
      <trkpt lat="45.17459" lon="5.78178">
        <ele>421</ele>
        <time>2021-05-29T14:13:19Z</time>
      </trkpt>
      <trkpt lat="45.1746" lon="5.7818">
        <ele>420.6</ele>
        <time>2021-05-29T14:13:20Z</time>
      </trkpt>
      <trkpt lat="45.17461" lon="5.78183">
        <ele>420</ele>
        <time>2021-05-29T14:13:21Z</time>
      </trkpt>
      <trkpt lat="45.17462" lon="5.78186">
        <ele>420</ele>
        <time>2021-05-29T14:13:22Z</time>
      </trkpt>
      <trkpt lat="45.17464" lon="5.78188">
        <ele>419.6</ele>
        <time>2021-05-29T14:13:23Z</time>
      </trkpt>
      <trkpt lat="45.17465" lon="5.78191">
        <ele>419.8</ele>
        <time>2021-05-29T14:13:24Z</time>
      </trkpt>
      <trkpt lat="45.17467" lon="5.78194">
        <ele>419.6</ele>
        <time>2021-05-29T14:13:25Z</time>
      </trkpt>
      <trkpt lat="45.17469" lon="5.78197">
        <ele>419.8</ele>
        <time>2021-05-29T14:13:26Z</time>
      </trkpt>
      <trkpt lat="45.17471" lon="5.782">
        <ele>419.4</ele>
        <time>2021-05-29T14:13:27Z</time>
      </trkpt>
      <trkpt lat="45.17473" lon="5.78202">
        <ele>419</ele>
        <time>2021-05-29T14:13:28Z</time>
      </trkpt>
      <trkpt lat="45.17475" lon="5.78204">
        <ele>418.8</ele>
        <time>2021-05-29T14:13:29Z</time>
      </trkpt>
      <trkpt lat="45.17477" lon="5.78206">
        <ele>418.6</ele>
        <time>2021-05-29T14:13:30Z</time>
      </trkpt>
      <trkpt lat="45.17481" lon="5.78209">
        <ele>418.2</ele>
        <time>2021-05-29T14:13:31Z</time>
      </trkpt>
      <trkpt lat="45.17485" lon="5.78211">
        <ele>418</ele>
        <time>2021-05-29T14:13:32Z</time>
      </trkpt>
      <trkpt lat="45.17488" lon="5.78213">
        <ele>417.8</ele>
        <time>2021-05-29T14:13:33Z</time>
      </trkpt>
      <trkpt lat="45.17492" lon="5.78216">
        <ele>417.2</ele>
        <time>2021-05-29T14:13:34Z</time>
      </trkpt>
      <trkpt lat="45.17496" lon="5.78218">
        <ele>417.4</ele>
        <time>2021-05-29T14:13:35Z</time>
      </trkpt>
      <trkpt lat="45.17502" lon="5.78224">
        <ele>417</ele>
        <time>2021-05-29T14:13:36Z</time>
      </trkpt>
      <trkpt lat="45.17504" lon="5.78226">
        <ele>416.8</ele>
        <time>2021-05-29T14:13:37Z</time>
      </trkpt>
      <trkpt lat="45.17508" lon="5.7823">
        <ele>416.4</ele>
        <time>2021-05-29T14:13:38Z</time>
      </trkpt>
      <trkpt lat="45.17509" lon="5.78231">
        <ele>416.2</ele>
        <time>2021-05-29T14:13:39Z</time>
      </trkpt>
      <trkpt lat="45.1751" lon="5.78232">
        <ele>415.6</ele>
        <time>2021-05-29T14:13:40Z</time>
      </trkpt>
      <trkpt lat="45.17511" lon="5.78233">
        <ele>415.2</ele>
        <time>2021-05-29T14:13:41Z</time>
      </trkpt>
      <trkpt lat="45.17515" lon="5.78236">
        <ele>415.4</ele>
        <time>2021-05-29T14:13:42Z</time>
      </trkpt>
      <trkpt lat="45.17519" lon="5.78239">
        <ele>415</ele>
        <time>2021-05-29T14:13:43Z</time>
      </trkpt>
      <trkpt lat="45.17523" lon="5.78243">
        <ele>415</ele>
        <time>2021-05-29T14:13:44Z</time>
      </trkpt>
      <trkpt lat="45.17527" lon="5.78246">
        <ele>414.8</ele>
        <time>2021-05-29T14:13:45Z</time>
      </trkpt>
      <trkpt lat="45.17527" lon="5.78246">
        <ele>414.6</ele>
        <time>2021-05-29T14:13:46Z</time>
      </trkpt>
      <trkpt lat="45.17527" lon="5.78246">
        <ele>414.6</ele>
        <time>2021-05-29T14:13:47Z</time>
      </trkpt>
      <trkpt lat="45.17529" lon="5.78248">
        <ele>414.4</ele>
        <time>2021-05-29T14:13:48Z</time>
      </trkpt>
      <trkpt lat="45.17531" lon="5.78251">
        <ele>414.2</ele>
        <time>2021-05-29T14:13:49Z</time>
      </trkpt>
      <trkpt lat="45.17533" lon="5.78253">
        <ele>414</ele>
        <time>2021-05-29T14:13:50Z</time>
      </trkpt>
      <trkpt lat="45.17535" lon="5.78255">
        <ele>413.6</ele>
        <time>2021-05-29T14:13:51Z</time>
      </trkpt>
      <trkpt lat="45.17537" lon="5.78258">
        <ele>413</ele>
        <time>2021-05-29T14:13:52Z</time>
      </trkpt>
      <trkpt lat="45.17538" lon="5.78261">
        <ele>412.6</ele>
        <time>2021-05-29T14:13:53Z</time>
      </trkpt>
      <trkpt lat="45.1754" lon="5.78264">
        <ele>412.4</ele>
        <time>2021-05-29T14:13:54Z</time>
      </trkpt>
      <trkpt lat="45.17542" lon="5.78266">
        <ele>412.6</ele>
        <time>2021-05-29T14:13:55Z</time>
      </trkpt>
      <trkpt lat="45.17544" lon="5.78269">
        <ele>412</ele>
        <time>2021-05-29T14:13:56Z</time>
      </trkpt>
      <trkpt lat="45.17546" lon="5.78272">
        <ele>412</ele>
        <time>2021-05-29T14:13:57Z</time>
      </trkpt>
      <trkpt lat="45.17548" lon="5.78274">
        <ele>411.6</ele>
        <time>2021-05-29T14:13:58Z</time>
      </trkpt>
      <trkpt lat="45.17549" lon="5.78277">
        <ele>411.4</ele>
        <time>2021-05-29T14:13:59Z</time>
      </trkpt>
      <trkpt lat="45.17553" lon="5.78282">
        <ele>410.8</ele>
        <time>2021-05-29T14:14:00Z</time>
      </trkpt>
      <trkpt lat="45.17556" lon="5.78286">
        <ele>410.4</ele>
        <time>2021-05-29T14:14:01Z</time>
      </trkpt>
      <trkpt lat="45.17559" lon="5.78291">
        <ele>410</ele>
        <time>2021-05-29T14:14:02Z</time>
      </trkpt>
      <trkpt lat="45.17562" lon="5.78296">
        <ele>409.6</ele>
        <time>2021-05-29T14:14:03Z</time>
      </trkpt>
      <trkpt lat="45.17566" lon="5.783">
        <ele>409.8</ele>
        <time>2021-05-29T14:14:04Z</time>
      </trkpt>
      <trkpt lat="45.17566" lon="5.783">
        <ele>409.4</ele>
        <time>2021-05-29T14:14:05Z</time>
      </trkpt>
      <trkpt lat="45.17566" lon="5.783">
        <ele>409.4</ele>
        <time>2021-05-29T14:14:06Z</time>
      </trkpt>
      <trkpt lat="45.17566" lon="5.783">
        <ele>409</ele>
        <time>2021-05-29T14:14:07Z</time>
      </trkpt>
      <trkpt lat="45.17567" lon="5.78302">
        <ele>408.8</ele>
        <time>2021-05-29T14:14:08Z</time>
      </trkpt>
      <trkpt lat="45.17569" lon="5.78304">
        <ele>408.2</ele>
        <time>2021-05-29T14:14:09Z</time>
      </trkpt>
      <trkpt lat="45.17571" lon="5.78306">
        <ele>407.8</ele>
        <time>2021-05-29T14:14:10Z</time>
      </trkpt>
      <trkpt lat="45.17572" lon="5.78307">
        <ele>407.4</ele>
        <time>2021-05-29T14:14:11Z</time>
      </trkpt>
      <trkpt lat="45.17574" lon="5.78309">
        <ele>407</ele>
        <time>2021-05-29T14:14:12Z</time>
      </trkpt>
      <trkpt lat="45.17583" lon="5.78314">
        <ele>407</ele>
        <time>2021-05-29T14:14:13Z</time>
      </trkpt>
      <trkpt lat="45.17583" lon="5.78314">
        <ele>406.6</ele>
        <time>2021-05-29T14:14:14Z</time>
      </trkpt>
      <trkpt lat="45.17583" lon="5.78314">
        <ele>406.8</ele>
        <time>2021-05-29T14:14:15Z</time>
      </trkpt>
      <trkpt lat="45.17583" lon="5.78314">
        <ele>406.2</ele>
        <time>2021-05-29T14:14:16Z</time>
      </trkpt>
      <trkpt lat="45.17585" lon="5.78315">
        <ele>405.8</ele>
        <time>2021-05-29T14:14:17Z</time>
      </trkpt>
      <trkpt lat="45.17587" lon="5.78317">
        <ele>405.6</ele>
        <time>2021-05-29T14:14:18Z</time>
      </trkpt>
      <trkpt lat="45.17589" lon="5.78318">
        <ele>405.2</ele>
        <time>2021-05-29T14:14:19Z</time>
      </trkpt>
      <trkpt lat="45.17591" lon="5.7832">
        <ele>405</ele>
        <time>2021-05-29T14:14:20Z</time>
      </trkpt>
      <trkpt lat="45.17594" lon="5.78324">
        <ele>404.6</ele>
        <time>2021-05-29T14:14:21Z</time>
      </trkpt>
      <trkpt lat="45.17597" lon="5.78328">
        <ele>404</ele>
        <time>2021-05-29T14:14:22Z</time>
      </trkpt>
      <trkpt lat="45.17599" lon="5.78332">
        <ele>403.4</ele>
        <time>2021-05-29T14:14:23Z</time>
      </trkpt>
      <trkpt lat="45.17602" lon="5.78336">
        <ele>403</ele>
        <time>2021-05-29T14:14:24Z</time>
      </trkpt>
      <trkpt lat="45.17604" lon="5.78342">
        <ele>402.4</ele>
        <time>2021-05-29T14:14:25Z</time>
      </trkpt>
      <trkpt lat="45.17604" lon="5.78344">
        <ele>401.8</ele>
        <time>2021-05-29T14:14:26Z</time>
      </trkpt>
      <trkpt lat="45.17604" lon="5.78346">
        <ele>401.8</ele>
        <time>2021-05-29T14:14:27Z</time>
      </trkpt>
      <trkpt lat="45.17604" lon="5.78348">
        <ele>401.4</ele>
        <time>2021-05-29T14:14:28Z</time>
      </trkpt>
      <trkpt lat="45.17604" lon="5.78349">
        <ele>401.4</ele>
        <time>2021-05-29T14:14:29Z</time>
      </trkpt>
      <trkpt lat="45.17604" lon="5.78357">
        <ele>401</ele>
        <time>2021-05-29T14:14:30Z</time>
      </trkpt>
      <trkpt lat="45.17604" lon="5.78357">
        <ele>400.8</ele>
        <time>2021-05-29T14:14:31Z</time>
      </trkpt>
      <trkpt lat="45.17604" lon="5.78357">
        <ele>400.2</ele>
        <time>2021-05-29T14:14:32Z</time>
      </trkpt>
      <trkpt lat="45.17605" lon="5.78359">
        <ele>399.8</ele>
        <time>2021-05-29T14:14:33Z</time>
      </trkpt>
      <trkpt lat="45.17605" lon="5.78362">
        <ele>399.4</ele>
        <time>2021-05-29T14:14:34Z</time>
      </trkpt>
      <trkpt lat="45.17605" lon="5.78365">
        <ele>398.8</ele>
        <time>2021-05-29T14:14:35Z</time>
      </trkpt>
      <trkpt lat="45.17605" lon="5.78367">
        <ele>398.6</ele>
        <time>2021-05-29T14:14:36Z</time>
      </trkpt>
      <trkpt lat="45.17606" lon="5.7837">
        <ele>398.4</ele>
        <time>2021-05-29T14:14:37Z</time>
      </trkpt>
      <trkpt lat="45.17607" lon="5.78372">
        <ele>398.2</ele>
        <time>2021-05-29T14:14:38Z</time>
      </trkpt>
      <trkpt lat="45.17608" lon="5.78375">
        <ele>397.8</ele>
        <time>2021-05-29T14:14:39Z</time>
      </trkpt>
      <trkpt lat="45.17609" lon="5.78377">
        <ele>397.6</ele>
        <time>2021-05-29T14:14:40Z</time>
      </trkpt>
      <trkpt lat="45.17609" lon="5.78379">
        <ele>397.4</ele>
        <time>2021-05-29T14:14:41Z</time>
      </trkpt>
      <trkpt lat="45.1761" lon="5.78382">
        <ele>397</ele>
        <time>2021-05-29T14:14:42Z</time>
      </trkpt>
      <trkpt lat="45.17611" lon="5.78384">
        <ele>396.6</ele>
        <time>2021-05-29T14:14:43Z</time>
      </trkpt>
      <trkpt lat="45.17612" lon="5.78386">
        <ele>396</ele>
        <time>2021-05-29T14:14:44Z</time>
      </trkpt>
      <trkpt lat="45.17613" lon="5.78388">
        <ele>396</ele>
        <time>2021-05-29T14:14:45Z</time>
      </trkpt>
      <trkpt lat="45.17614" lon="5.7839">
        <ele>395.6</ele>
        <time>2021-05-29T14:14:46Z</time>
      </trkpt>
      <trkpt lat="45.17615" lon="5.78392">
        <ele>395.2</ele>
        <time>2021-05-29T14:14:47Z</time>
      </trkpt>
      <trkpt lat="45.17616" lon="5.78395">
        <ele>394.4</ele>
        <time>2021-05-29T14:14:48Z</time>
      </trkpt>
      <trkpt lat="45.17616" lon="5.78397">
        <ele>394</ele>
        <time>2021-05-29T14:14:49Z</time>
      </trkpt>
      <trkpt lat="45.17617" lon="5.78399">
        <ele>393.2</ele>
        <time>2021-05-29T14:14:50Z</time>
      </trkpt>
      <trkpt lat="45.17618" lon="5.78401">
        <ele>392.8</ele>
        <time>2021-05-29T14:14:51Z</time>
      </trkpt>
      <trkpt lat="45.17618" lon="5.78403">
        <ele>392.2</ele>
        <time>2021-05-29T14:14:52Z</time>
      </trkpt>
      <trkpt lat="45.17619" lon="5.78405">
        <ele>391.8</ele>
        <time>2021-05-29T14:14:53Z</time>
      </trkpt>
      <trkpt lat="45.17619" lon="5.78408">
        <ele>391.2</ele>
        <time>2021-05-29T14:14:54Z</time>
      </trkpt>
      <trkpt lat="45.17619" lon="5.78411">
        <ele>391</ele>
        <time>2021-05-29T14:14:55Z</time>
      </trkpt>
      <trkpt lat="45.1762" lon="5.78414">
        <ele>390.4</ele>
        <time>2021-05-29T14:14:56Z</time>
      </trkpt>
      <trkpt lat="45.1762" lon="5.78416">
        <ele>390.2</ele>
        <time>2021-05-29T14:14:57Z</time>
      </trkpt>
      <trkpt lat="45.1762" lon="5.78419">
        <ele>389.8</ele>
        <time>2021-05-29T14:14:58Z</time>
      </trkpt>
      <trkpt lat="45.1762" lon="5.78422">
        <ele>389.6</ele>
        <time>2021-05-29T14:14:59Z</time>
      </trkpt>
      <trkpt lat="45.1762" lon="5.78425">
        <ele>389</ele>
        <time>2021-05-29T14:15:00Z</time>
      </trkpt>
      <trkpt lat="45.1762" lon="5.78428">
        <ele>388.8</ele>
        <time>2021-05-29T14:15:01Z</time>
      </trkpt>
      <trkpt lat="45.1762" lon="5.78431">
        <ele>388.4</ele>
        <time>2021-05-29T14:15:02Z</time>
      </trkpt>
      <trkpt lat="45.17621" lon="5.78434">
        <ele>388.4</ele>
        <time>2021-05-29T14:15:03Z</time>
      </trkpt>
      <trkpt lat="45.17621" lon="5.78438">
        <ele>388.4</ele>
        <time>2021-05-29T14:15:04Z</time>
      </trkpt>
      <trkpt lat="45.17622" lon="5.78439">
        <ele>388.4</ele>
        <time>2021-05-29T14:15:05Z</time>
      </trkpt>
      <trkpt lat="45.17623" lon="5.78441">
        <ele>388.2</ele>
        <time>2021-05-29T14:15:06Z</time>
      </trkpt>
      <trkpt lat="45.17624" lon="5.78442">
        <ele>388.2</ele>
        <time>2021-05-29T14:15:07Z</time>
      </trkpt>
      <trkpt lat="45.17625" lon="5.78444">
        <ele>388.6</ele>
        <time>2021-05-29T14:15:08Z</time>
      </trkpt>
      <trkpt lat="45.17625" lon="5.78445">
        <ele>388.4</ele>
        <time>2021-05-29T14:15:09Z</time>
      </trkpt>
      <trkpt lat="45.17626" lon="5.78447">
        <ele>388.2</ele>
        <time>2021-05-29T14:15:10Z</time>
      </trkpt>
      <trkpt lat="45.17627" lon="5.78448">
        <ele>388</ele>
        <time>2021-05-29T14:15:11Z</time>
      </trkpt>
      <trkpt lat="45.17628" lon="5.7845">
        <ele>387.6</ele>
        <time>2021-05-29T14:15:12Z</time>
      </trkpt>
      <trkpt lat="45.17628" lon="5.78451">
        <ele>387.4</ele>
        <time>2021-05-29T14:15:13Z</time>
      </trkpt>
      <trkpt lat="45.17629" lon="5.78453">
        <ele>386.8</ele>
        <time>2021-05-29T14:15:14Z</time>
      </trkpt>
      <trkpt lat="45.1763" lon="5.78454">
        <ele>386.2</ele>
        <time>2021-05-29T14:15:15Z</time>
      </trkpt>
      <trkpt lat="45.17631" lon="5.78456">
        <ele>386</ele>
        <time>2021-05-29T14:15:16Z</time>
      </trkpt>
      <trkpt lat="45.17632" lon="5.78458">
        <ele>385.6</ele>
        <time>2021-05-29T14:15:17Z</time>
      </trkpt>
      <trkpt lat="45.17632" lon="5.78459">
        <ele>385.6</ele>
        <time>2021-05-29T14:15:18Z</time>
      </trkpt>
      <trkpt lat="45.17633" lon="5.78461">
        <ele>385.2</ele>
        <time>2021-05-29T14:15:19Z</time>
      </trkpt>
      <trkpt lat="45.17634" lon="5.78462">
        <ele>385</ele>
        <time>2021-05-29T14:15:20Z</time>
      </trkpt>
      <trkpt lat="45.17635" lon="5.78464">
        <ele>384.4</ele>
        <time>2021-05-29T14:15:21Z</time>
      </trkpt>
      <trkpt lat="45.17636" lon="5.78465">
        <ele>384</ele>
        <time>2021-05-29T14:15:22Z</time>
      </trkpt>
      <trkpt lat="45.17636" lon="5.78467">
        <ele>383.6</ele>
        <time>2021-05-29T14:15:23Z</time>
      </trkpt>
      <trkpt lat="45.17637" lon="5.78468">
        <ele>383.2</ele>
        <time>2021-05-29T14:15:24Z</time>
      </trkpt>
      <trkpt lat="45.17638" lon="5.7847">
        <ele>382.8</ele>
        <time>2021-05-29T14:15:25Z</time>
      </trkpt>
      <trkpt lat="45.17639" lon="5.78471">
        <ele>381.8</ele>
        <time>2021-05-29T14:15:26Z</time>
      </trkpt>
      <trkpt lat="45.1764" lon="5.78473">
        <ele>380.6</ele>
        <time>2021-05-29T14:15:27Z</time>
      </trkpt>
      <trkpt lat="45.1764" lon="5.78474">
        <ele>380</ele>
        <time>2021-05-29T14:15:28Z</time>
      </trkpt>
      <trkpt lat="45.17641" lon="5.78476">
        <ele>379</ele>
        <time>2021-05-29T14:15:29Z</time>
      </trkpt>
      <trkpt lat="45.17642" lon="5.78477">
        <ele>378.4</ele>
        <time>2021-05-29T14:15:30Z</time>
      </trkpt>
      <trkpt lat="45.17643" lon="5.78479">
        <ele>378.2</ele>
        <time>2021-05-29T14:15:31Z</time>
      </trkpt>
      <trkpt lat="45.17643" lon="5.78481">
        <ele>377.4</ele>
        <time>2021-05-29T14:15:32Z</time>
      </trkpt>
      <trkpt lat="45.17644" lon="5.78482">
        <ele>376.6</ele>
        <time>2021-05-29T14:15:33Z</time>
      </trkpt>
      <trkpt lat="45.17647" lon="5.78485">
        <ele>376</ele>
        <time>2021-05-29T14:15:34Z</time>
      </trkpt>
      <trkpt lat="45.17655" lon="5.78492">
        <ele>375.8</ele>
        <time>2021-05-29T14:15:35Z</time>
      </trkpt>
      <trkpt lat="45.17657" lon="5.78495">
        <ele>375.2</ele>
        <time>2021-05-29T14:15:36Z</time>
      </trkpt>
      <trkpt lat="45.17659" lon="5.78497">
        <ele>375</ele>
        <time>2021-05-29T14:15:37Z</time>
      </trkpt>
      <trkpt lat="45.17666" lon="5.78506">
        <ele>374</ele>
        <time>2021-05-29T14:15:38Z</time>
      </trkpt>
      <trkpt lat="45.17667" lon="5.78508">
        <ele>373.8</ele>
        <time>2021-05-29T14:15:39Z</time>
      </trkpt>
      <trkpt lat="45.17668" lon="5.78509">
        <ele>373.2</ele>
        <time>2021-05-29T14:15:40Z</time>
      </trkpt>
      <trkpt lat="45.17671" lon="5.78514">
        <ele>372.6</ele>
        <time>2021-05-29T14:15:41Z</time>
      </trkpt>
      <trkpt lat="45.17674" lon="5.78517">
        <ele>372.2</ele>
        <time>2021-05-29T14:15:42Z</time>
      </trkpt>
      <trkpt lat="45.17676" lon="5.7852">
        <ele>371.6</ele>
        <time>2021-05-29T14:15:43Z</time>
      </trkpt>
      <trkpt lat="45.17678" lon="5.78523">
        <ele>371.2</ele>
        <time>2021-05-29T14:15:44Z</time>
      </trkpt>
      <trkpt lat="45.17678" lon="5.78523">
        <ele>371</ele>
        <time>2021-05-29T14:15:45Z</time>
      </trkpt>
      <trkpt lat="45.17678" lon="5.78523">
        <ele>370.6</ele>
        <time>2021-05-29T14:15:46Z</time>
      </trkpt>
      <trkpt lat="45.17678" lon="5.78523">
        <ele>370</ele>
        <time>2021-05-29T14:15:47Z</time>
      </trkpt>
      <trkpt lat="45.17679" lon="5.78526">
        <ele>369.2</ele>
        <time>2021-05-29T14:15:48Z</time>
      </trkpt>
      <trkpt lat="45.1768" lon="5.78528">
        <ele>368.8</ele>
        <time>2021-05-29T14:15:49Z</time>
      </trkpt>
      <trkpt lat="45.17681" lon="5.78531">
        <ele>368</ele>
        <time>2021-05-29T14:15:50Z</time>
      </trkpt>
      <trkpt lat="45.17682" lon="5.78533">
        <ele>367.4</ele>
        <time>2021-05-29T14:15:51Z</time>
      </trkpt>
      <trkpt lat="45.17683" lon="5.78535">
        <ele>366.6</ele>
        <time>2021-05-29T14:15:52Z</time>
      </trkpt>
      <trkpt lat="45.17685" lon="5.78538">
        <ele>366.2</ele>
        <time>2021-05-29T14:15:53Z</time>
      </trkpt>
      <trkpt lat="45.17687" lon="5.7854">
        <ele>365.4</ele>
        <time>2021-05-29T14:15:54Z</time>
      </trkpt>
      <trkpt lat="45.17689" lon="5.78542">
        <ele>364.8</ele>
        <time>2021-05-29T14:15:55Z</time>
      </trkpt>
      <trkpt lat="45.17691" lon="5.78544">
        <ele>364.2</ele>
        <time>2021-05-29T14:15:56Z</time>
      </trkpt>
      <trkpt lat="45.17693" lon="5.78547">
        <ele>363.6</ele>
        <time>2021-05-29T14:15:57Z</time>
      </trkpt>
      <trkpt lat="45.17695" lon="5.78549">
        <ele>363</ele>
        <time>2021-05-29T14:15:58Z</time>
      </trkpt>
      <trkpt lat="45.17699" lon="5.78551">
        <ele>362.2</ele>
        <time>2021-05-29T14:15:59Z</time>
      </trkpt>
      <trkpt lat="45.17701" lon="5.78555">
        <ele>361.4</ele>
        <time>2021-05-29T14:16:00Z</time>
      </trkpt>
      <trkpt lat="45.17703" lon="5.78558">
        <ele>360.6</ele>
        <time>2021-05-29T14:16:01Z</time>
      </trkpt>
      <trkpt lat="45.17708" lon="5.78566">
        <ele>360.2</ele>
        <time>2021-05-29T14:16:02Z</time>
      </trkpt>
      <trkpt lat="45.17709" lon="5.78568">
        <ele>359.8</ele>
        <time>2021-05-29T14:16:03Z</time>
      </trkpt>
      <trkpt lat="45.17711" lon="5.78574">
        <ele>359.6</ele>
        <time>2021-05-29T14:16:04Z</time>
      </trkpt>
      <trkpt lat="45.17711" lon="5.78574">
        <ele>358.8</ele>
        <time>2021-05-29T14:16:05Z</time>
      </trkpt>
      <trkpt lat="45.17711" lon="5.78574">
        <ele>358.2</ele>
        <time>2021-05-29T14:16:06Z</time>
      </trkpt>
      <trkpt lat="45.17711" lon="5.78573">
        <ele>358</ele>
        <time>2021-05-29T14:16:07Z</time>
      </trkpt>
      <trkpt lat="45.17711" lon="5.78573">
        <ele>357.2</ele>
        <time>2021-05-29T14:16:08Z</time>
      </trkpt>
      <trkpt lat="45.17712" lon="5.78572">
        <ele>357</ele>
        <time>2021-05-29T14:16:09Z</time>
      </trkpt>
      <trkpt lat="45.17712" lon="5.78572">
        <ele>356.4</ele>
        <time>2021-05-29T14:16:10Z</time>
      </trkpt>
      <trkpt lat="45.17712" lon="5.78571">
        <ele>355.8</ele>
        <time>2021-05-29T14:16:11Z</time>
      </trkpt>
      <trkpt lat="45.17713" lon="5.78571">
        <ele>355.2</ele>
        <time>2021-05-29T14:16:12Z</time>
      </trkpt>
      <trkpt lat="45.17713" lon="5.7857">
        <ele>354.2</ele>
        <time>2021-05-29T14:16:13Z</time>
      </trkpt>
      <trkpt lat="45.17714" lon="5.7857">
        <ele>354.2</ele>
        <time>2021-05-29T14:16:14Z</time>
      </trkpt>
      <trkpt lat="45.17714" lon="5.78569">
        <ele>353.8</ele>
        <time>2021-05-29T14:16:15Z</time>
      </trkpt>
      <trkpt lat="45.17714" lon="5.78569">
        <ele>353.6</ele>
        <time>2021-05-29T14:16:16Z</time>
      </trkpt>
      <trkpt lat="45.17715" lon="5.78568">
        <ele>352.8</ele>
        <time>2021-05-29T14:16:17Z</time>
      </trkpt>
      <trkpt lat="45.17715" lon="5.78568">
        <ele>352.4</ele>
        <time>2021-05-29T14:16:18Z</time>
      </trkpt>
      <trkpt lat="45.17715" lon="5.78567">
        <ele>351.8</ele>
        <time>2021-05-29T14:16:19Z</time>
      </trkpt>
      <trkpt lat="45.17716" lon="5.78567">
        <ele>351</ele>
        <time>2021-05-29T14:16:20Z</time>
      </trkpt>
      <trkpt lat="45.17716" lon="5.78566">
        <ele>350.4</ele>
        <time>2021-05-29T14:16:21Z</time>
      </trkpt>
      <trkpt lat="45.17717" lon="5.78566">
        <ele>350</ele>
        <time>2021-05-29T14:16:22Z</time>
      </trkpt>
      <trkpt lat="45.17717" lon="5.78565">
        <ele>349</ele>
        <time>2021-05-29T14:16:23Z</time>
      </trkpt>
      <trkpt lat="45.17717" lon="5.78565">
        <ele>348.4</ele>
        <time>2021-05-29T14:16:24Z</time>
      </trkpt>
      <trkpt lat="45.17718" lon="5.78564">
        <ele>347.8</ele>
        <time>2021-05-29T14:16:25Z</time>
      </trkpt>
      <trkpt lat="45.17719" lon="5.78566">
        <ele>347.4</ele>
        <time>2021-05-29T14:16:26Z</time>
      </trkpt>
      <trkpt lat="45.17719" lon="5.78568">
        <ele>346.8</ele>
        <time>2021-05-29T14:16:27Z</time>
      </trkpt>
      <trkpt lat="45.1772" lon="5.7857">
        <ele>346.8</ele>
        <time>2021-05-29T14:16:28Z</time>
      </trkpt>
      <trkpt lat="45.17721" lon="5.78572">
        <ele>346.4</ele>
        <time>2021-05-29T14:16:29Z</time>
      </trkpt>
      <trkpt lat="45.17722" lon="5.78574">
        <ele>346.4</ele>
        <time>2021-05-29T14:16:30Z</time>
      </trkpt>
      <trkpt lat="45.17723" lon="5.78575">
        <ele>345.8</ele>
        <time>2021-05-29T14:16:31Z</time>
      </trkpt>
      <trkpt lat="45.17723" lon="5.78578">
        <ele>345.6</ele>
        <time>2021-05-29T14:16:32Z</time>
      </trkpt>
      <trkpt lat="45.17724" lon="5.7858">
        <ele>345.4</ele>
        <time>2021-05-29T14:16:33Z</time>
      </trkpt>
      <trkpt lat="45.17724" lon="5.78582">
        <ele>345</ele>
        <time>2021-05-29T14:16:34Z</time>
      </trkpt>
      <trkpt lat="45.17724" lon="5.78584">
        <ele>344.6</ele>
        <time>2021-05-29T14:16:35Z</time>
      </trkpt>
      <trkpt lat="45.17725" lon="5.78587">
        <ele>344.2</ele>
        <time>2021-05-29T14:16:36Z</time>
      </trkpt>
      <trkpt lat="45.17725" lon="5.78589">
        <ele>344</ele>
        <time>2021-05-29T14:16:37Z</time>
      </trkpt>
      <trkpt lat="45.17726" lon="5.78592">
        <ele>343.6</ele>
        <time>2021-05-29T14:16:38Z</time>
      </trkpt>
      <trkpt lat="45.17726" lon="5.78595">
        <ele>343.6</ele>
        <time>2021-05-29T14:16:39Z</time>
      </trkpt>
      <trkpt lat="45.17727" lon="5.78598">
        <ele>343.2</ele>
        <time>2021-05-29T14:16:40Z</time>
      </trkpt>
      <trkpt lat="45.17727" lon="5.78601">
        <ele>343.4</ele>
        <time>2021-05-29T14:16:41Z</time>
      </trkpt>
      <trkpt lat="45.17728" lon="5.78605">
        <ele>343.2</ele>
        <time>2021-05-29T14:16:42Z</time>
      </trkpt>
      <trkpt lat="45.17728" lon="5.78608">
        <ele>343</ele>
        <time>2021-05-29T14:16:43Z</time>
      </trkpt>
      <trkpt lat="45.1773" lon="5.78611">
        <ele>342.6</ele>
        <time>2021-05-29T14:16:44Z</time>
      </trkpt>
      <trkpt lat="45.17731" lon="5.78615">
        <ele>342.2</ele>
        <time>2021-05-29T14:16:45Z</time>
      </trkpt>
      <trkpt lat="45.17732" lon="5.78618">
        <ele>342</ele>
        <time>2021-05-29T14:16:46Z</time>
      </trkpt>
      <trkpt lat="45.17734" lon="5.78622">
        <ele>341.6</ele>
        <time>2021-05-29T14:16:47Z</time>
      </trkpt>
      <trkpt lat="45.17735" lon="5.78625">
        <ele>341.4</ele>
        <time>2021-05-29T14:16:48Z</time>
      </trkpt>
      <trkpt lat="45.17736" lon="5.78629">
        <ele>341</ele>
        <time>2021-05-29T14:16:49Z</time>
      </trkpt>
      <trkpt lat="45.17741" lon="5.78639">
        <ele>340.8</ele>
        <time>2021-05-29T14:16:50Z</time>
      </trkpt>
      <trkpt lat="45.17742" lon="5.78642">
        <ele>340.2</ele>
        <time>2021-05-29T14:16:51Z</time>
      </trkpt>
      <trkpt lat="45.17743" lon="5.78648">
        <ele>340</ele>
        <time>2021-05-29T14:16:52Z</time>
      </trkpt>
      <trkpt lat="45.17743" lon="5.78648">
        <ele>339.8</ele>
        <time>2021-05-29T14:16:53Z</time>
      </trkpt>
      <trkpt lat="45.17745" lon="5.7865">
        <ele>339.6</ele>
        <time>2021-05-29T14:16:54Z</time>
      </trkpt>
      <trkpt lat="45.17746" lon="5.78653">
        <ele>339.4</ele>
        <time>2021-05-29T14:16:55Z</time>
      </trkpt>
      <trkpt lat="45.17748" lon="5.78655">
        <ele>338.8</ele>
        <time>2021-05-29T14:16:56Z</time>
      </trkpt>
      <trkpt lat="45.1775" lon="5.78658">
        <ele>338.8</ele>
        <time>2021-05-29T14:16:57Z</time>
      </trkpt>
      <trkpt lat="45.17751" lon="5.7866">
        <ele>338.4</ele>
        <time>2021-05-29T14:16:58Z</time>
      </trkpt>
      <trkpt lat="45.17752" lon="5.78663">
        <ele>338.4</ele>
        <time>2021-05-29T14:16:59Z</time>
      </trkpt>
      <trkpt lat="45.17753" lon="5.78665">
        <ele>338.4</ele>
        <time>2021-05-29T14:17:00Z</time>
      </trkpt>
      <trkpt lat="45.17755" lon="5.78668">
        <ele>338.4</ele>
        <time>2021-05-29T14:17:01Z</time>
      </trkpt>
      <trkpt lat="45.17755" lon="5.78671">
        <ele>338.2</ele>
        <time>2021-05-29T14:17:02Z</time>
      </trkpt>
      <trkpt lat="45.17755" lon="5.78674">
        <ele>338.4</ele>
        <time>2021-05-29T14:17:03Z</time>
      </trkpt>
      <trkpt lat="45.17755" lon="5.78677">
        <ele>338.2</ele>
        <time>2021-05-29T14:17:04Z</time>
      </trkpt>
      <trkpt lat="45.17755" lon="5.7868">
        <ele>338.4</ele>
        <time>2021-05-29T14:17:05Z</time>
      </trkpt>
      <trkpt lat="45.17755" lon="5.78683">
        <ele>338.2</ele>
        <time>2021-05-29T14:17:06Z</time>
      </trkpt>
      <trkpt lat="45.17755" lon="5.78686">
        <ele>338</ele>
        <time>2021-05-29T14:17:07Z</time>
      </trkpt>
      <trkpt lat="45.17755" lon="5.78689">
        <ele>337.8</ele>
        <time>2021-05-29T14:17:08Z</time>
      </trkpt>
      <trkpt lat="45.17756" lon="5.78689">
        <ele>337.8</ele>
        <time>2021-05-29T14:17:09Z</time>
      </trkpt>
      <trkpt lat="45.17756" lon="5.78689">
        <ele>337.6</ele>
        <time>2021-05-29T14:17:10Z</time>
      </trkpt>
      <trkpt lat="45.17757" lon="5.78689">
        <ele>337.4</ele>
        <time>2021-05-29T14:17:11Z</time>
      </trkpt>
      <trkpt lat="45.17758" lon="5.78688">
        <ele>337.4</ele>
        <time>2021-05-29T14:17:12Z</time>
      </trkpt>
      <trkpt lat="45.17759" lon="5.78688">
        <ele>336.8</ele>
        <time>2021-05-29T14:17:13Z</time>
      </trkpt>
      <trkpt lat="45.17759" lon="5.78688">
        <ele>336.6</ele>
        <time>2021-05-29T14:17:14Z</time>
      </trkpt>
      <trkpt lat="45.1776" lon="5.78688">
        <ele>336.2</ele>
        <time>2021-05-29T14:17:15Z</time>
      </trkpt>
      <trkpt lat="45.17761" lon="5.78688">
        <ele>335.6</ele>
        <time>2021-05-29T14:17:16Z</time>
      </trkpt>
      <trkpt lat="45.17762" lon="5.78688">
        <ele>334.8</ele>
        <time>2021-05-29T14:17:17Z</time>
      </trkpt>
      <trkpt lat="45.17763" lon="5.78688">
        <ele>334.8</ele>
        <time>2021-05-29T14:17:18Z</time>
      </trkpt>
      <trkpt lat="45.17763" lon="5.78687">
        <ele>334.2</ele>
        <time>2021-05-29T14:17:19Z</time>
      </trkpt>
      <trkpt lat="45.17764" lon="5.78687">
        <ele>334</ele>
        <time>2021-05-29T14:17:20Z</time>
      </trkpt>
      <trkpt lat="45.17765" lon="5.78685">
        <ele>333.6</ele>
        <time>2021-05-29T14:17:21Z</time>
      </trkpt>
      <trkpt lat="45.17766" lon="5.78683">
        <ele>333</ele>
        <time>2021-05-29T14:17:22Z</time>
      </trkpt>
      <trkpt lat="45.17767" lon="5.78681">
        <ele>331.6</ele>
        <time>2021-05-29T14:17:23Z</time>
      </trkpt>
      <trkpt lat="45.17768" lon="5.78679">
        <ele>331.2</ele>
        <time>2021-05-29T14:17:24Z</time>
      </trkpt>
      <trkpt lat="45.17768" lon="5.78677">
        <ele>331.2</ele>
        <time>2021-05-29T14:17:25Z</time>
      </trkpt>
      <trkpt lat="45.17769" lon="5.78675">
        <ele>330.8</ele>
        <time>2021-05-29T14:17:26Z</time>
      </trkpt>
      <trkpt lat="45.1777" lon="5.78672">
        <ele>330.4</ele>
        <time>2021-05-29T14:17:27Z</time>
      </trkpt>
      <trkpt lat="45.17772" lon="5.7867">
        <ele>329.8</ele>
        <time>2021-05-29T14:17:28Z</time>
      </trkpt>
      <trkpt lat="45.17773" lon="5.78668">
        <ele>329.2</ele>
        <time>2021-05-29T14:17:29Z</time>
      </trkpt>
      <trkpt lat="45.17774" lon="5.78666">
        <ele>328.6</ele>
        <time>2021-05-29T14:17:30Z</time>
      </trkpt>
      <trkpt lat="45.17775" lon="5.78663">
        <ele>328.2</ele>
        <time>2021-05-29T14:17:31Z</time>
      </trkpt>
      <trkpt lat="45.17776" lon="5.78661">
        <ele>328</ele>
        <time>2021-05-29T14:17:32Z</time>
      </trkpt>
      <trkpt lat="45.17776" lon="5.78658">
        <ele>327.6</ele>
        <time>2021-05-29T14:17:33Z</time>
      </trkpt>
      <trkpt lat="45.17777" lon="5.78655">
        <ele>327.2</ele>
        <time>2021-05-29T14:17:34Z</time>
      </trkpt>
      <trkpt lat="45.17777" lon="5.78653">
        <ele>326.6</ele>
        <time>2021-05-29T14:17:35Z</time>
      </trkpt>
      <trkpt lat="45.17778" lon="5.7865">
        <ele>325.8</ele>
        <time>2021-05-29T14:17:36Z</time>
      </trkpt>
      <trkpt lat="45.17778" lon="5.78647">
        <ele>325.6</ele>
        <time>2021-05-29T14:17:37Z</time>
      </trkpt>
      <trkpt lat="45.17779" lon="5.78644">
        <ele>325</ele>
        <time>2021-05-29T14:17:38Z</time>
      </trkpt>
      <trkpt lat="45.17779" lon="5.78641">
        <ele>324.6</ele>
        <time>2021-05-29T14:17:39Z</time>
      </trkpt>
      <trkpt lat="45.17779" lon="5.78638">
        <ele>323.8</ele>
        <time>2021-05-29T14:17:40Z</time>
      </trkpt>
      <trkpt lat="45.17779" lon="5.78635">
        <ele>323.4</ele>
        <time>2021-05-29T14:17:41Z</time>
      </trkpt>
      <trkpt lat="45.1778" lon="5.78632">
        <ele>323.2</ele>
        <time>2021-05-29T14:17:42Z</time>
      </trkpt>
      <trkpt lat="45.1778" lon="5.78628">
        <ele>322.8</ele>
        <time>2021-05-29T14:17:43Z</time>
      </trkpt>
      <trkpt lat="45.1778" lon="5.78625">
        <ele>322.6</ele>
        <time>2021-05-29T14:17:44Z</time>
      </trkpt>
      <trkpt lat="45.17777" lon="5.7862">
        <ele>322.2</ele>
        <time>2021-05-29T14:17:45Z</time>
      </trkpt>
      <trkpt lat="45.17777" lon="5.7862">
        <ele>321.8</ele>
        <time>2021-05-29T14:17:46Z</time>
      </trkpt>
      <trkpt lat="45.17777" lon="5.7862">
        <ele>321.4</ele>
        <time>2021-05-29T14:17:47Z</time>
      </trkpt>
      <trkpt lat="45.17777" lon="5.78617">
        <ele>320.8</ele>
        <time>2021-05-29T14:17:48Z</time>
      </trkpt>
      <trkpt lat="45.17777" lon="5.78614">
        <ele>320.2</ele>
        <time>2021-05-29T14:17:49Z</time>
      </trkpt>
      <trkpt lat="45.17778" lon="5.78612">
        <ele>319.8</ele>
        <time>2021-05-29T14:17:50Z</time>
      </trkpt>
      <trkpt lat="45.17778" lon="5.78609">
        <ele>319.8</ele>
        <time>2021-05-29T14:17:51Z</time>
      </trkpt>
      <trkpt lat="45.17778" lon="5.78606">
        <ele>319.2</ele>
        <time>2021-05-29T14:17:52Z</time>
      </trkpt>
      <trkpt lat="45.1778" lon="5.78606">
        <ele>319</ele>
        <time>2021-05-29T14:17:53Z</time>
      </trkpt>
      <trkpt lat="45.17783" lon="5.78606">
        <ele>318.6</ele>
        <time>2021-05-29T14:17:54Z</time>
      </trkpt>
      <trkpt lat="45.17785" lon="5.78606">
        <ele>318.2</ele>
        <time>2021-05-29T14:17:55Z</time>
      </trkpt>
      <trkpt lat="45.17788" lon="5.78605">
        <ele>317.4</ele>
        <time>2021-05-29T14:17:56Z</time>
      </trkpt>
      <trkpt lat="45.1779" lon="5.78607">
        <ele>317.2</ele>
        <time>2021-05-29T14:17:57Z</time>
      </trkpt>
      <trkpt lat="45.17792" lon="5.78608">
        <ele>316.4</ele>
        <time>2021-05-29T14:17:58Z</time>
      </trkpt>
      <trkpt lat="45.17794" lon="5.7861">
        <ele>316</ele>
        <time>2021-05-29T14:17:59Z</time>
      </trkpt>
      <trkpt lat="45.17796" lon="5.78611">
        <ele>315.6</ele>
        <time>2021-05-29T14:18:00Z</time>
      </trkpt>
      <trkpt lat="45.17798" lon="5.78613">
        <ele>315.2</ele>
        <time>2021-05-29T14:18:01Z</time>
      </trkpt>
      <trkpt lat="45.17799" lon="5.78615">
        <ele>314.8</ele>
        <time>2021-05-29T14:18:02Z</time>
      </trkpt>
      <trkpt lat="45.17801" lon="5.78617">
        <ele>314.2</ele>
        <time>2021-05-29T14:18:03Z</time>
      </trkpt>
      <trkpt lat="45.17802" lon="5.78619">
        <ele>313.6</ele>
        <time>2021-05-29T14:18:04Z</time>
      </trkpt>
      <trkpt lat="45.17804" lon="5.7862">
        <ele>312.8</ele>
        <time>2021-05-29T14:18:05Z</time>
      </trkpt>
      <trkpt lat="45.17805" lon="5.78622">
        <ele>312.2</ele>
        <time>2021-05-29T14:18:06Z</time>
      </trkpt>
      <trkpt lat="45.17807" lon="5.78624">
        <ele>311.4</ele>
        <time>2021-05-29T14:18:07Z</time>
      </trkpt>
      <trkpt lat="45.17808" lon="5.78626">
        <ele>310.6</ele>
        <time>2021-05-29T14:18:08Z</time>
      </trkpt>
      <trkpt lat="45.1781" lon="5.78628">
        <ele>309.8</ele>
        <time>2021-05-29T14:18:09Z</time>
      </trkpt>
      <trkpt lat="45.17811" lon="5.78629">
        <ele>309.2</ele>
        <time>2021-05-29T14:18:10Z</time>
      </trkpt>
      <trkpt lat="45.17812" lon="5.78632">
        <ele>308.8</ele>
        <time>2021-05-29T14:18:11Z</time>
      </trkpt>
      <trkpt lat="45.17813" lon="5.78634">
        <ele>308.2</ele>
        <time>2021-05-29T14:18:12Z</time>
      </trkpt>
      <trkpt lat="45.17814" lon="5.78636">
        <ele>307.8</ele>
        <time>2021-05-29T14:18:13Z</time>
      </trkpt>
      <trkpt lat="45.17815" lon="5.78638">
        <ele>307.2</ele>
        <time>2021-05-29T14:18:14Z</time>
      </trkpt>
      <trkpt lat="45.17816" lon="5.78641">
        <ele>306.2</ele>
        <time>2021-05-29T14:18:15Z</time>
      </trkpt>
      <trkpt lat="45.17817" lon="5.78643">
        <ele>306</ele>
        <time>2021-05-29T14:18:16Z</time>
      </trkpt>
      <trkpt lat="45.17818" lon="5.78646">
        <ele>305.2</ele>
        <time>2021-05-29T14:18:17Z</time>
      </trkpt>
      <trkpt lat="45.17818" lon="5.78649">
        <ele>304.8</ele>
        <time>2021-05-29T14:18:18Z</time>
      </trkpt>
      <trkpt lat="45.17819" lon="5.78651">
        <ele>304.4</ele>
        <time>2021-05-29T14:18:19Z</time>
      </trkpt>
      <trkpt lat="45.1782" lon="5.78654">
        <ele>303.6</ele>
        <time>2021-05-29T14:18:20Z</time>
      </trkpt>
      <trkpt lat="45.17821" lon="5.78657">
        <ele>303</ele>
        <time>2021-05-29T14:18:21Z</time>
      </trkpt>
      <trkpt lat="45.17823" lon="5.78659">
        <ele>302.4</ele>
        <time>2021-05-29T14:18:22Z</time>
      </trkpt>
      <trkpt lat="45.17824" lon="5.78662">
        <ele>302.2</ele>
        <time>2021-05-29T14:18:23Z</time>
      </trkpt>
      <trkpt lat="45.17825" lon="5.78664">
        <ele>301.4</ele>
        <time>2021-05-29T14:18:24Z</time>
      </trkpt>
      <trkpt lat="45.17826" lon="5.78666">
        <ele>301.2</ele>
        <time>2021-05-29T14:18:25Z</time>
      </trkpt>
      <trkpt lat="45.17827" lon="5.78668">
        <ele>300.6</ele>
        <time>2021-05-29T14:18:26Z</time>
      </trkpt>
      <trkpt lat="45.17828" lon="5.7867">
        <ele>300.2</ele>
        <time>2021-05-29T14:18:27Z</time>
      </trkpt>
      <trkpt lat="45.17829" lon="5.78671">
        <ele>299.4</ele>
        <time>2021-05-29T14:18:28Z</time>
      </trkpt>
      <trkpt lat="45.17831" lon="5.78673">
        <ele>299</ele>
        <time>2021-05-29T14:18:29Z</time>
      </trkpt>
      <trkpt lat="45.17832" lon="5.78675">
        <ele>298.6</ele>
        <time>2021-05-29T14:18:30Z</time>
      </trkpt>
      <trkpt lat="45.17833" lon="5.78676">
        <ele>298.2</ele>
        <time>2021-05-29T14:18:31Z</time>
      </trkpt>
      <trkpt lat="45.17834" lon="5.78678">
        <ele>297.4</ele>
        <time>2021-05-29T14:18:32Z</time>
      </trkpt>
      <trkpt lat="45.17835" lon="5.78681">
        <ele>297.2</ele>
        <time>2021-05-29T14:18:33Z</time>
      </trkpt>
      <trkpt lat="45.17836" lon="5.78683">
        <ele>297</ele>
        <time>2021-05-29T14:18:34Z</time>
      </trkpt>
      <trkpt lat="45.17837" lon="5.78685">
        <ele>296.6</ele>
        <time>2021-05-29T14:18:35Z</time>
      </trkpt>
      <trkpt lat="45.17838" lon="5.78687">
        <ele>296</ele>
        <time>2021-05-29T14:18:36Z</time>
      </trkpt>
      <trkpt lat="45.17839" lon="5.78689">
        <ele>295.6</ele>
        <time>2021-05-29T14:18:37Z</time>
      </trkpt>
      <trkpt lat="45.1784" lon="5.78691">
        <ele>295</ele>
        <time>2021-05-29T14:18:38Z</time>
      </trkpt>
      <trkpt lat="45.1784" lon="5.78694">
        <ele>294</ele>
        <time>2021-05-29T14:18:39Z</time>
      </trkpt>
      <trkpt lat="45.17841" lon="5.78696">
        <ele>293.8</ele>
        <time>2021-05-29T14:18:40Z</time>
      </trkpt>
      <trkpt lat="45.17842" lon="5.78699">
        <ele>293.2</ele>
        <time>2021-05-29T14:18:41Z</time>
      </trkpt>
      <trkpt lat="45.17843" lon="5.78701">
        <ele>293</ele>
        <time>2021-05-29T14:18:42Z</time>
      </trkpt>
      <trkpt lat="45.17844" lon="5.78703">
        <ele>292.6</ele>
        <time>2021-05-29T14:18:43Z</time>
      </trkpt>
      <trkpt lat="45.17845" lon="5.78706">
        <ele>292</ele>
        <time>2021-05-29T14:18:44Z</time>
      </trkpt>
      <trkpt lat="45.17846" lon="5.78708">
        <ele>291.2</ele>
        <time>2021-05-29T14:18:45Z</time>
      </trkpt>
      <trkpt lat="45.17847" lon="5.7871">
        <ele>290.8</ele>
        <time>2021-05-29T14:18:46Z</time>
      </trkpt>
      <trkpt lat="45.17848" lon="5.78712">
        <ele>290.6</ele>
        <time>2021-05-29T14:18:47Z</time>
      </trkpt>
      <trkpt lat="45.1785" lon="5.78716">
        <ele>290</ele>
        <time>2021-05-29T14:18:48Z</time>
      </trkpt>
      <trkpt lat="45.17851" lon="5.7872">
        <ele>289.8</ele>
        <time>2021-05-29T14:18:49Z</time>
      </trkpt>
      <trkpt lat="45.17853" lon="5.78724">
        <ele>289.2</ele>
        <time>2021-05-29T14:18:50Z</time>
      </trkpt>
      <trkpt lat="45.17854" lon="5.78728">
        <ele>288.8</ele>
        <time>2021-05-29T14:18:51Z</time>
      </trkpt>
      <trkpt lat="45.17856" lon="5.78732">
        <ele>288</ele>
        <time>2021-05-29T14:18:52Z</time>
      </trkpt>
      <trkpt lat="45.17858" lon="5.78739">
        <ele>287.6</ele>
        <time>2021-05-29T14:18:53Z</time>
      </trkpt>
      <trkpt lat="45.17858" lon="5.78739">
        <ele>286.6</ele>
        <time>2021-05-29T14:18:54Z</time>
      </trkpt>
      <trkpt lat="45.17858" lon="5.78739">
        <ele>286.2</ele>
        <time>2021-05-29T14:18:55Z</time>
      </trkpt>
      <trkpt lat="45.17858" lon="5.78739">
        <ele>285.6</ele>
        <time>2021-05-29T14:18:56Z</time>
      </trkpt>
      <trkpt lat="45.17859" lon="5.78742">
        <ele>285</ele>
        <time>2021-05-29T14:18:57Z</time>
      </trkpt>
      <trkpt lat="45.1786" lon="5.78745">
        <ele>284.2</ele>
        <time>2021-05-29T14:18:58Z</time>
      </trkpt>
      <trkpt lat="45.17861" lon="5.78748">
        <ele>283.2</ele>
        <time>2021-05-29T14:18:59Z</time>
      </trkpt>
      <trkpt lat="45.17862" lon="5.78751">
        <ele>282.2</ele>
        <time>2021-05-29T14:19:00Z</time>
      </trkpt>
      <trkpt lat="45.17863" lon="5.78754">
        <ele>281.4</ele>
        <time>2021-05-29T14:19:01Z</time>
      </trkpt>
      <trkpt lat="45.17864" lon="5.78757">
        <ele>280.8</ele>
        <time>2021-05-29T14:19:02Z</time>
      </trkpt>
      <trkpt lat="45.17865" lon="5.78759">
        <ele>280.2</ele>
        <time>2021-05-29T14:19:03Z</time>
      </trkpt>
      <trkpt lat="45.17866" lon="5.78762">
        <ele>279.8</ele>
        <time>2021-05-29T14:19:04Z</time>
      </trkpt>
      <trkpt lat="45.17867" lon="5.78764">
        <ele>279.2</ele>
        <time>2021-05-29T14:19:05Z</time>
      </trkpt>
      <trkpt lat="45.17868" lon="5.78767">
        <ele>278.8</ele>
        <time>2021-05-29T14:19:06Z</time>
      </trkpt>
      <trkpt lat="45.17869" lon="5.78769">
        <ele>278.4</ele>
        <time>2021-05-29T14:19:07Z</time>
      </trkpt>
      <trkpt lat="45.17869" lon="5.78772">
        <ele>278</ele>
        <time>2021-05-29T14:19:08Z</time>
      </trkpt>
      <trkpt lat="45.1787" lon="5.78774">
        <ele>277.4</ele>
        <time>2021-05-29T14:19:09Z</time>
      </trkpt>
      <trkpt lat="45.17871" lon="5.78776">
        <ele>276.8</ele>
        <time>2021-05-29T14:19:10Z</time>
      </trkpt>
      <trkpt lat="45.17879" lon="5.78784">
        <ele>276.6</ele>
        <time>2021-05-29T14:19:11Z</time>
      </trkpt>
      <trkpt lat="45.17879" lon="5.78784">
        <ele>276.2</ele>
        <time>2021-05-29T14:19:12Z</time>
      </trkpt>
      <trkpt lat="45.17879" lon="5.78784">
        <ele>275.6</ele>
        <time>2021-05-29T14:19:13Z</time>
      </trkpt>
      <trkpt lat="45.17879" lon="5.78784">
        <ele>275.2</ele>
        <time>2021-05-29T14:19:14Z</time>
      </trkpt>
      <trkpt lat="45.1788" lon="5.78787">
        <ele>274.6</ele>
        <time>2021-05-29T14:19:15Z</time>
      </trkpt>
      <trkpt lat="45.17882" lon="5.78789">
        <ele>274.2</ele>
        <time>2021-05-29T14:19:16Z</time>
      </trkpt>
      <trkpt lat="45.17883" lon="5.78792">
        <ele>273.4</ele>
        <time>2021-05-29T14:19:17Z</time>
      </trkpt>
      <trkpt lat="45.17884" lon="5.78794">
        <ele>273</ele>
        <time>2021-05-29T14:19:18Z</time>
      </trkpt>
      <trkpt lat="45.17885" lon="5.78797">
        <ele>273</ele>
        <time>2021-05-29T14:19:19Z</time>
      </trkpt>
      <trkpt lat="45.17887" lon="5.78798">
        <ele>272.6</ele>
        <time>2021-05-29T14:19:20Z</time>
      </trkpt>
      <trkpt lat="45.17888" lon="5.788">
        <ele>272.4</ele>
        <time>2021-05-29T14:19:21Z</time>
      </trkpt>
      <trkpt lat="45.17889" lon="5.78802">
        <ele>271.8</ele>
        <time>2021-05-29T14:19:22Z</time>
      </trkpt>
      <trkpt lat="45.17891" lon="5.78804">
        <ele>271.4</ele>
        <time>2021-05-29T14:19:23Z</time>
      </trkpt>
      <trkpt lat="45.17892" lon="5.78806">
        <ele>271.2</ele>
        <time>2021-05-29T14:19:24Z</time>
      </trkpt>
      <trkpt lat="45.17894" lon="5.78808">
        <ele>270.8</ele>
        <time>2021-05-29T14:19:25Z</time>
      </trkpt>
      <trkpt lat="45.17894" lon="5.78809">
        <ele>270.6</ele>
        <time>2021-05-29T14:19:26Z</time>
      </trkpt>
      <trkpt lat="45.17895" lon="5.7881">
        <ele>270</ele>
        <time>2021-05-29T14:19:27Z</time>
      </trkpt>
      <trkpt lat="45.17895" lon="5.78812">
        <ele>269.4</ele>
        <time>2021-05-29T14:19:28Z</time>
      </trkpt>
      <trkpt lat="45.17896" lon="5.78813">
        <ele>268.8</ele>
        <time>2021-05-29T14:19:29Z</time>
      </trkpt>
      <trkpt lat="45.17896" lon="5.78815">
        <ele>268.2</ele>
        <time>2021-05-29T14:19:30Z</time>
      </trkpt>
      <trkpt lat="45.17897" lon="5.78816">
        <ele>267.8</ele>
        <time>2021-05-29T14:19:31Z</time>
      </trkpt>
      <trkpt lat="45.17897" lon="5.78817">
        <ele>267.2</ele>
        <time>2021-05-29T14:19:32Z</time>
      </trkpt>
      <trkpt lat="45.17898" lon="5.78819">
        <ele>266.4</ele>
        <time>2021-05-29T14:19:33Z</time>
      </trkpt>
      <trkpt lat="45.17898" lon="5.7882">
        <ele>265.8</ele>
        <time>2021-05-29T14:19:34Z</time>
      </trkpt>
      <trkpt lat="45.17899" lon="5.78821">
        <ele>265.4</ele>
        <time>2021-05-29T14:19:35Z</time>
      </trkpt>
      <trkpt lat="45.17899" lon="5.78823">
        <ele>265.2</ele>
        <time>2021-05-29T14:19:36Z</time>
      </trkpt>
      <trkpt lat="45.179" lon="5.78824">
        <ele>264.6</ele>
        <time>2021-05-29T14:19:37Z</time>
      </trkpt>
      <trkpt lat="45.179" lon="5.78825">
        <ele>264.2</ele>
        <time>2021-05-29T14:19:38Z</time>
      </trkpt>
      <trkpt lat="45.17901" lon="5.78827">
        <ele>263.8</ele>
        <time>2021-05-29T14:19:39Z</time>
      </trkpt>
      <trkpt lat="45.17902" lon="5.78828">
        <ele>263.6</ele>
        <time>2021-05-29T14:19:40Z</time>
      </trkpt>
      <trkpt lat="45.17902" lon="5.7883">
        <ele>263.6</ele>
        <time>2021-05-29T14:19:41Z</time>
      </trkpt>
      <trkpt lat="45.17903" lon="5.78831">
        <ele>263.2</ele>
        <time>2021-05-29T14:19:42Z</time>
      </trkpt>
      <trkpt lat="45.17903" lon="5.78832">
        <ele>262.8</ele>
        <time>2021-05-29T14:19:43Z</time>
      </trkpt>
      <trkpt lat="45.17904" lon="5.78834">
        <ele>262.6</ele>
        <time>2021-05-29T14:19:44Z</time>
      </trkpt>
      <trkpt lat="45.17905" lon="5.78842">
        <ele>261.8</ele>
        <time>2021-05-29T14:19:45Z</time>
      </trkpt>
      <trkpt lat="45.17906" lon="5.78851">
        <ele>261</ele>
        <time>2021-05-29T14:19:46Z</time>
      </trkpt>
      <trkpt lat="45.17907" lon="5.78859">
        <ele>260.4</ele>
        <time>2021-05-29T14:19:47Z</time>
      </trkpt>
      <trkpt lat="45.17908" lon="5.78868">
        <ele>260</ele>
        <time>2021-05-29T14:19:48Z</time>
      </trkpt>
      <trkpt lat="45.1791" lon="5.78876">
        <ele>259.6</ele>
        <time>2021-05-29T14:19:49Z</time>
      </trkpt>
      <trkpt lat="45.17911" lon="5.78885">
        <ele>259.4</ele>
        <time>2021-05-29T14:19:50Z</time>
      </trkpt>
      <trkpt lat="45.17912" lon="5.78887">
        <ele>259</ele>
        <time>2021-05-29T14:19:51Z</time>
      </trkpt>
      <trkpt lat="45.17912" lon="5.78888">
        <ele>259</ele>
        <time>2021-05-29T14:19:52Z</time>
      </trkpt>
      <trkpt lat="45.17912" lon="5.78889">
        <ele>258.8</ele>
        <time>2021-05-29T14:19:53Z</time>
      </trkpt>
      <trkpt lat="45.17912" lon="5.78889">
        <ele>258.2</ele>
        <time>2021-05-29T14:19:54Z</time>
      </trkpt>
      <trkpt lat="45.17912" lon="5.7889">
        <ele>258.2</ele>
        <time>2021-05-29T14:19:55Z</time>
      </trkpt>
      <trkpt lat="45.17913" lon="5.78891">
        <ele>258.2</ele>
        <time>2021-05-29T14:19:56Z</time>
      </trkpt>
      <trkpt lat="45.17913" lon="5.78891">
        <ele>258</ele>
        <time>2021-05-29T14:19:57Z</time>
      </trkpt>
      <trkpt lat="45.17913" lon="5.78892">
        <ele>258</ele>
        <time>2021-05-29T14:19:58Z</time>
      </trkpt>
      <trkpt lat="45.17913" lon="5.78893">
        <ele>257.8</ele>
        <time>2021-05-29T14:20:00Z</time>
      </trkpt>
      <trkpt lat="45.17913" lon="5.78893">
        <ele>257.6</ele>
        <time>2021-05-29T14:20:01Z</time>
      </trkpt>
      <trkpt lat="45.17914" lon="5.78894">
        <ele>257.6</ele>
        <time>2021-05-29T14:20:02Z</time>
      </trkpt>
      <trkpt lat="45.17914" lon="5.78895">
        <ele>257.8</ele>
        <time>2021-05-29T14:20:03Z</time>
      </trkpt>
      <trkpt lat="45.17914" lon="5.78895">
        <ele>257.8</ele>
        <time>2021-05-29T14:20:04Z</time>
      </trkpt>
      <trkpt lat="45.17914" lon="5.78896">
        <ele>257.8</ele>
        <time>2021-05-29T14:20:05Z</time>
      </trkpt>
      <trkpt lat="45.17914" lon="5.78897">
        <ele>258</ele>
        <time>2021-05-29T14:20:06Z</time>
      </trkpt>
      <trkpt lat="45.17914" lon="5.78897">
        <ele>258</ele>
        <time>2021-05-29T14:20:07Z</time>
      </trkpt>
      <trkpt lat="45.17915" lon="5.78898">
        <ele>257.8</ele>
        <time>2021-05-29T14:20:08Z</time>
      </trkpt>
      <trkpt lat="45.17915" lon="5.78899">
        <ele>257.6</ele>
        <time>2021-05-29T14:20:09Z</time>
      </trkpt>
      <trkpt lat="45.17915" lon="5.78899">
        <ele>257.2</ele>
        <time>2021-05-29T14:20:10Z</time>
      </trkpt>
      <trkpt lat="45.17915" lon="5.789">
        <ele>256.6</ele>
        <time>2021-05-29T14:20:11Z</time>
      </trkpt>
      <trkpt lat="45.17915" lon="5.78901">
        <ele>256.4</ele>
        <time>2021-05-29T14:20:12Z</time>
      </trkpt>
      <trkpt lat="45.17916" lon="5.78901">
        <ele>256</ele>
        <time>2021-05-29T14:20:13Z</time>
      </trkpt>
      <trkpt lat="45.17916" lon="5.78902">
        <ele>255.8</ele>
        <time>2021-05-29T14:20:14Z</time>
      </trkpt>
      <trkpt lat="45.17916" lon="5.78903">
        <ele>255.8</ele>
        <time>2021-05-29T14:20:15Z</time>
      </trkpt>
      <trkpt lat="45.17916" lon="5.78903">
        <ele>255.8</ele>
        <time>2021-05-29T14:20:16Z</time>
      </trkpt>
      <trkpt lat="45.17916" lon="5.78904">
        <ele>255.6</ele>
        <time>2021-05-29T14:20:17Z</time>
      </trkpt>
      <trkpt lat="45.17917" lon="5.78905">
        <ele>255.6</ele>
        <time>2021-05-29T14:20:18Z</time>
      </trkpt>
      <trkpt lat="45.17917" lon="5.78905">
        <ele>255.6</ele>
        <time>2021-05-29T14:20:19Z</time>
      </trkpt>
      <trkpt lat="45.17917" lon="5.78906">
        <ele>255.6</ele>
        <time>2021-05-29T14:20:20Z</time>
      </trkpt>
      <trkpt lat="45.17917" lon="5.78907">
        <ele>255.6</ele>
        <time>2021-05-29T14:20:21Z</time>
      </trkpt>
      <trkpt lat="45.17917" lon="5.78907">
        <ele>255.6</ele>
        <time>2021-05-29T14:20:22Z</time>
      </trkpt>
      <trkpt lat="45.17918" lon="5.78908">
        <ele>255.6</ele>
        <time>2021-05-29T14:20:23Z</time>
      </trkpt>
      <trkpt lat="45.17918" lon="5.78909">
        <ele>255.4</ele>
        <time>2021-05-29T14:20:24Z</time>
      </trkpt>
      <trkpt lat="45.17918" lon="5.78909">
        <ele>255.6</ele>
        <time>2021-05-29T14:20:25Z</time>
      </trkpt>
      <trkpt lat="45.17918" lon="5.7891">
        <ele>255.8</ele>
        <time>2021-05-29T14:20:26Z</time>
      </trkpt>
      <trkpt lat="45.17918" lon="5.78911">
        <ele>255.6</ele>
        <time>2021-05-29T14:20:27Z</time>
      </trkpt>
      <trkpt lat="45.17919" lon="5.78911">
        <ele>255.6</ele>
        <time>2021-05-29T14:20:28Z</time>
      </trkpt>
      <trkpt lat="45.17919" lon="5.78912">
        <ele>255.6</ele>
        <time>2021-05-29T14:20:29Z</time>
      </trkpt>
      <trkpt lat="45.17919" lon="5.78913">
        <ele>255.6</ele>
        <time>2021-05-29T14:20:30Z</time>
      </trkpt>
      <trkpt lat="45.17919" lon="5.78914">
        <ele>255.6</ele>
        <time>2021-05-29T14:20:31Z</time>
      </trkpt>
      <trkpt lat="45.17919" lon="5.78914">
        <ele>255.6</ele>
        <time>2021-05-29T14:20:32Z</time>
      </trkpt>
      <trkpt lat="45.1792" lon="5.78915">
        <ele>255.4</ele>
        <time>2021-05-29T14:20:33Z</time>
      </trkpt>
      <trkpt lat="45.1792" lon="5.78916">
        <ele>255.4</ele>
        <time>2021-05-29T14:20:34Z</time>
      </trkpt>
      <trkpt lat="45.1792" lon="5.78916">
        <ele>255.4</ele>
        <time>2021-05-29T14:20:35Z</time>
      </trkpt>
      <trkpt lat="45.1792" lon="5.78917">
        <ele>255.2</ele>
        <time>2021-05-29T14:20:36Z</time>
      </trkpt>
      <trkpt lat="45.1792" lon="5.78918">
        <ele>255.2</ele>
        <time>2021-05-29T14:20:37Z</time>
      </trkpt>
      <trkpt lat="45.17921" lon="5.78918">
        <ele>255.4</ele>
        <time>2021-05-29T14:20:38Z</time>
      </trkpt>
      <trkpt lat="45.17921" lon="5.78919">
        <ele>255.4</ele>
        <time>2021-05-29T14:20:39Z</time>
      </trkpt>
      <trkpt lat="45.17921" lon="5.7892">
        <ele>255.2</ele>
        <time>2021-05-29T14:20:40Z</time>
      </trkpt>
      <trkpt lat="45.17921" lon="5.7892">
        <ele>255.2</ele>
        <time>2021-05-29T14:20:41Z</time>
      </trkpt>
      <trkpt lat="45.17921" lon="5.7892">
        <ele>255.4</ele>
        <time>2021-05-29T14:20:42Z</time>
      </trkpt>
      <trkpt lat="45.17921" lon="5.7892">
        <ele>255.2</ele>
        <time>2021-05-29T14:20:44Z</time>
      </trkpt>
      <trkpt lat="45.17921" lon="5.7892">
        <ele>255.2</ele>
        <time>2021-05-29T14:20:45Z</time>
      </trkpt>
      <trkpt lat="45.17921" lon="5.7892">
        <ele>255.2</ele>
        <time>2021-05-29T14:20:46Z</time>
      </trkpt>
      <trkpt lat="45.17921" lon="5.7892">
        <ele>255</ele>
        <time>2021-05-29T14:20:47Z</time>
      </trkpt>
      <trkpt lat="45.17921" lon="5.7892">
        <ele>255.2</ele>
        <time>2021-05-29T14:20:48Z</time>
      </trkpt>
      <trkpt lat="45.17921" lon="5.7892">
        <ele>255.2</ele>
        <time>2021-05-29T14:20:49Z</time>
      </trkpt>
      <trkpt lat="45.17921" lon="5.78923">
        <ele>255.2</ele>
        <time>2021-05-29T14:20:50Z</time>
      </trkpt>
      <trkpt lat="45.17922" lon="5.78924">
        <ele>255.4</ele>
        <time>2021-05-29T14:20:51Z</time>
      </trkpt>
      <trkpt lat="45.17922" lon="5.78925">
        <ele>255.2</ele>
        <time>2021-05-29T14:20:52Z</time>
      </trkpt>
      <trkpt lat="45.17923" lon="5.78926">
        <ele>255.6</ele>
        <time>2021-05-29T14:20:53Z</time>
      </trkpt>
      <trkpt lat="45.17923" lon="5.78927">
        <ele>256</ele>
        <time>2021-05-29T14:20:54Z</time>
      </trkpt>
      <trkpt lat="45.17924" lon="5.78928">
        <ele>256</ele>
        <time>2021-05-29T14:20:55Z</time>
      </trkpt>
      <trkpt lat="45.17924" lon="5.78929">
        <ele>256</ele>
        <time>2021-05-29T14:20:56Z</time>
      </trkpt>
      <trkpt lat="45.17925" lon="5.7893">
        <ele>255.8</ele>
        <time>2021-05-29T14:20:57Z</time>
      </trkpt>
      <trkpt lat="45.17925" lon="5.78932">
        <ele>255.8</ele>
        <time>2021-05-29T14:20:58Z</time>
      </trkpt>
      <trkpt lat="45.17926" lon="5.78933">
        <ele>255.6</ele>
        <time>2021-05-29T14:20:59Z</time>
      </trkpt>
      <trkpt lat="45.17926" lon="5.78934">
        <ele>255.6</ele>
        <time>2021-05-29T14:21:00Z</time>
      </trkpt>
      <trkpt lat="45.17927" lon="5.78935">
        <ele>255.6</ele>
        <time>2021-05-29T14:21:01Z</time>
      </trkpt>
      <trkpt lat="45.17927" lon="5.78936">
        <ele>255.6</ele>
        <time>2021-05-29T14:21:02Z</time>
      </trkpt>
      <trkpt lat="45.17928" lon="5.78937">
        <ele>255.8</ele>
        <time>2021-05-29T14:21:03Z</time>
      </trkpt>
      <trkpt lat="45.17928" lon="5.78938">
        <ele>255.6</ele>
        <time>2021-05-29T14:21:04Z</time>
      </trkpt>
      <trkpt lat="45.17929" lon="5.78939">
        <ele>255.6</ele>
        <time>2021-05-29T14:21:05Z</time>
      </trkpt>
      <trkpt lat="45.17929" lon="5.7894">
        <ele>255.8</ele>
        <time>2021-05-29T14:21:06Z</time>
      </trkpt>
      <trkpt lat="45.1793" lon="5.78941">
        <ele>255.8</ele>
        <time>2021-05-29T14:21:07Z</time>
      </trkpt>
      <trkpt lat="45.17931" lon="5.78942">
        <ele>255.8</ele>
        <time>2021-05-29T14:21:08Z</time>
      </trkpt>
      <trkpt lat="45.17931" lon="5.78944">
        <ele>255.8</ele>
        <time>2021-05-29T14:21:09Z</time>
      </trkpt>
      <trkpt lat="45.17932" lon="5.78945">
        <ele>255.8</ele>
        <time>2021-05-29T14:21:10Z</time>
      </trkpt>
      <trkpt lat="45.17932" lon="5.78946">
        <ele>256</ele>
        <time>2021-05-29T14:21:11Z</time>
      </trkpt>
      <trkpt lat="45.17933" lon="5.78947">
        <ele>256.2</ele>
        <time>2021-05-29T14:21:12Z</time>
      </trkpt>
      <trkpt lat="45.17933" lon="5.78948">
        <ele>256.2</ele>
        <time>2021-05-29T14:21:13Z</time>
      </trkpt>
      <trkpt lat="45.17934" lon="5.78949">
        <ele>256.2</ele>
        <time>2021-05-29T14:21:14Z</time>
      </trkpt>
      <trkpt lat="45.17937" lon="5.78957">
        <ele>256.4</ele>
        <time>2021-05-29T14:21:15Z</time>
      </trkpt>
      <trkpt lat="45.17938" lon="5.78959">
        <ele>256.2</ele>
        <time>2021-05-29T14:21:16Z</time>
      </trkpt>
      <trkpt lat="45.1794" lon="5.78963">
        <ele>256.2</ele>
        <time>2021-05-29T14:21:17Z</time>
      </trkpt>
      <trkpt lat="45.17941" lon="5.78966">
        <ele>256</ele>
        <time>2021-05-29T14:21:18Z</time>
      </trkpt>
      <trkpt lat="45.17941" lon="5.78966">
        <ele>256.2</ele>
        <time>2021-05-29T14:21:19Z</time>
      </trkpt>
      <trkpt lat="45.17943" lon="5.78969">
        <ele>256</ele>
        <time>2021-05-29T14:21:20Z</time>
      </trkpt>
      <trkpt lat="45.17944" lon="5.78972">
        <ele>256.2</ele>
        <time>2021-05-29T14:21:21Z</time>
      </trkpt>
      <trkpt lat="45.17945" lon="5.78977">
        <ele>256</ele>
        <time>2021-05-29T14:21:22Z</time>
      </trkpt>
      <trkpt lat="45.17946" lon="5.78982">
        <ele>256</ele>
        <time>2021-05-29T14:21:23Z</time>
      </trkpt>
      <trkpt lat="45.17947" lon="5.78984">
        <ele>255.8</ele>
        <time>2021-05-29T14:21:24Z</time>
      </trkpt>
      <trkpt lat="45.17947" lon="5.78985">
        <ele>255.8</ele>
        <time>2021-05-29T14:21:25Z</time>
      </trkpt>
      <trkpt lat="45.17947" lon="5.78985">
        <ele>255.8</ele>
        <time>2021-05-29T14:21:26Z</time>
      </trkpt>
      <trkpt lat="45.17947" lon="5.78985">
        <ele>255.6</ele>
        <time>2021-05-29T14:21:27Z</time>
      </trkpt>
      <trkpt lat="45.17948" lon="5.78989">
        <ele>255.4</ele>
        <time>2021-05-29T14:21:28Z</time>
      </trkpt>
      <trkpt lat="45.17949" lon="5.78993">
        <ele>255</ele>
        <time>2021-05-29T14:21:29Z</time>
      </trkpt>
      <trkpt lat="45.1795" lon="5.78997">
        <ele>254.8</ele>
        <time>2021-05-29T14:21:30Z</time>
      </trkpt>
      <trkpt lat="45.1795" lon="5.79001">
        <ele>254.8</ele>
        <time>2021-05-29T14:21:31Z</time>
      </trkpt>
      <trkpt lat="45.17951" lon="5.79004">
        <ele>254.8</ele>
        <time>2021-05-29T14:21:32Z</time>
      </trkpt>
      <trkpt lat="45.17951" lon="5.79004">
        <ele>254.8</ele>
        <time>2021-05-29T14:21:33Z</time>
      </trkpt>
      <trkpt lat="45.17951" lon="5.79004">
        <ele>254.6</ele>
        <time>2021-05-29T14:21:34Z</time>
      </trkpt>
      <trkpt lat="45.17952" lon="5.79007">
        <ele>254.6</ele>
        <time>2021-05-29T14:21:35Z</time>
      </trkpt>
      <trkpt lat="45.17954" lon="5.79008">
        <ele>254.6</ele>
        <time>2021-05-29T14:21:36Z</time>
      </trkpt>
      <trkpt lat="45.17955" lon="5.79009">
        <ele>254.4</ele>
        <time>2021-05-29T14:21:37Z</time>
      </trkpt>
      <trkpt lat="45.17956" lon="5.79011">
        <ele>254.4</ele>
        <time>2021-05-29T14:21:38Z</time>
      </trkpt>
      <trkpt lat="45.17957" lon="5.79012">
        <ele>254.4</ele>
        <time>2021-05-29T14:21:39Z</time>
      </trkpt>
      <trkpt lat="45.17957" lon="5.79012">
        <ele>254.4</ele>
        <time>2021-05-29T14:21:40Z</time>
      </trkpt>
      <trkpt lat="45.17957" lon="5.79012">
        <ele>254.2</ele>
        <time>2021-05-29T14:21:41Z</time>
      </trkpt>
      <trkpt lat="45.17959" lon="5.79013">
        <ele>254.2</ele>
        <time>2021-05-29T14:21:42Z</time>
      </trkpt>
      <trkpt lat="45.17961" lon="5.79015">
        <ele>254</ele>
        <time>2021-05-29T14:21:43Z</time>
      </trkpt>
      <trkpt lat="45.17964" lon="5.79017">
        <ele>254</ele>
        <time>2021-05-29T14:21:44Z</time>
      </trkpt>
      <trkpt lat="45.17966" lon="5.79018">
        <ele>253.8</ele>
        <time>2021-05-29T14:21:45Z</time>
      </trkpt>
      <trkpt lat="45.17968" lon="5.7902">
        <ele>254</ele>
        <time>2021-05-29T14:21:46Z</time>
      </trkpt>
      <trkpt lat="45.1797" lon="5.79022">
        <ele>254</ele>
        <time>2021-05-29T14:21:47Z</time>
      </trkpt>
      <trkpt lat="45.17972" lon="5.79024">
        <ele>254</ele>
        <time>2021-05-29T14:21:48Z</time>
      </trkpt>
      <trkpt lat="45.17974" lon="5.79026">
        <ele>253.8</ele>
        <time>2021-05-29T14:21:49Z</time>
      </trkpt>
      <trkpt lat="45.17976" lon="5.79028">
        <ele>253.8</ele>
        <time>2021-05-29T14:21:50Z</time>
      </trkpt>
      <trkpt lat="45.17977" lon="5.79029">
        <ele>253.8</ele>
        <time>2021-05-29T14:21:51Z</time>
      </trkpt>
      <trkpt lat="45.17978" lon="5.7903">
        <ele>253.8</ele>
        <time>2021-05-29T14:21:52Z</time>
      </trkpt>
      <trkpt lat="45.17981" lon="5.79033">
        <ele>253.8</ele>
        <time>2021-05-29T14:21:53Z</time>
      </trkpt>
      <trkpt lat="45.17983" lon="5.79035">
        <ele>253.6</ele>
        <time>2021-05-29T14:21:54Z</time>
      </trkpt>
      <trkpt lat="45.17984" lon="5.79036">
        <ele>253.6</ele>
        <time>2021-05-29T14:21:55Z</time>
      </trkpt>
      <trkpt lat="45.17984" lon="5.79036">
        <ele>253.8</ele>
        <time>2021-05-29T14:21:56Z</time>
      </trkpt>
      <trkpt lat="45.17986" lon="5.79038">
        <ele>253.6</ele>
        <time>2021-05-29T14:21:57Z</time>
      </trkpt>
      <trkpt lat="45.17988" lon="5.79042">
        <ele>253.8</ele>
        <time>2021-05-29T14:21:58Z</time>
      </trkpt>
      <trkpt lat="45.1799" lon="5.79046">
        <ele>253.6</ele>
        <time>2021-05-29T14:21:59Z</time>
      </trkpt>
      <trkpt lat="45.17991" lon="5.79049">
        <ele>253.8</ele>
        <time>2021-05-29T14:22:00Z</time>
      </trkpt>
      <trkpt lat="45.17992" lon="5.79051">
        <ele>253.4</ele>
        <time>2021-05-29T14:22:01Z</time>
      </trkpt>
      <trkpt lat="45.17993" lon="5.79052">
        <ele>253.6</ele>
        <time>2021-05-29T14:22:02Z</time>
      </trkpt>
      <trkpt lat="45.17993" lon="5.79052">
        <ele>253.4</ele>
        <time>2021-05-29T14:22:03Z</time>
      </trkpt>
      <trkpt lat="45.17993" lon="5.79052">
        <ele>253.4</ele>
        <time>2021-05-29T14:22:04Z</time>
      </trkpt>
      <trkpt lat="45.17995" lon="5.79055">
        <ele>253.4</ele>
        <time>2021-05-29T14:22:05Z</time>
      </trkpt>
      <trkpt lat="45.17995" lon="5.79055">
        <ele>253.4</ele>
        <time>2021-05-29T14:22:06Z</time>
      </trkpt>
      <trkpt lat="45.17997" lon="5.79058">
        <ele>253</ele>
        <time>2021-05-29T14:22:07Z</time>
      </trkpt>
      <trkpt lat="45.17997" lon="5.79058">
        <ele>253</ele>
        <time>2021-05-29T14:22:08Z</time>
      </trkpt>
      <trkpt lat="45.17997" lon="5.79058">
        <ele>253</ele>
        <time>2021-05-29T14:22:09Z</time>
      </trkpt>
      <trkpt lat="45.18" lon="5.79061">
        <ele>253</ele>
        <time>2021-05-29T14:22:10Z</time>
      </trkpt>
      <trkpt lat="45.18" lon="5.79061">
        <ele>253.2</ele>
        <time>2021-05-29T14:22:11Z</time>
      </trkpt>
      <trkpt lat="45.18" lon="5.79061">
        <ele>253.4</ele>
        <time>2021-05-29T14:22:12Z</time>
      </trkpt>
    </trkseg>
  </trk>
</gpx>